<?xml version="1.0" encoding="UTF-8" standalone="yes"?>
<gpx xmlns:gpxtpx1="http://www.garmin.com/xmlschemas/TrackPointExtension/v1" xmlns="http://www.topografix.com/GPX/1/1" xmlns:trp="http://www.garmin.com/xmlschemas/TripExtensions/v1" xmlns:gpxx="http://www.garmin.com/xmlschemas/GpxExtensions/v3" xmlns:gpxtpx="http://www.garmin.com/xmlschemas/TrackPointExtension/v2" version="1.1" creator="RouteConverter 2.27.1">
    <metadata>
        <name>Pushpoint 1 to Pushpoint 14</name>
    </metadata>
    <wpt lat="49.7607232" lon="9.5154336">
        <ele>141.0</ele>
        <time>2020-08-29T08:09:23.000Z</time>
        <name>Pushpoint 1</name>
    </wpt>
    <wpt lat="49.7612416" lon="9.5159928">
        <ele>142.0</ele>
        <time>2020-08-29T08:15:24.000Z</time>
        <name>Pushpoint 2</name>
    </wpt>
    <wpt lat="49.7612544" lon="9.5159832">
        <ele>142.0</ele>
        <time>2020-08-29T08:15:28.000Z</time>
        <name>Pushpoint 3</name>
    </wpt>
    <wpt lat="49.7630304" lon="9.514248">
        <ele>141.0</ele>
        <time>2020-08-29T08:20:39.000Z</time>
        <name>Pushpoint 4</name>
    </wpt>
    <wpt lat="49.7604448" lon="9.5215728">
        <ele>142.0</ele>
        <time>2020-08-29T08:35:32.000Z</time>
        <name>Pushpoint 5</name>
    </wpt>
    <wpt lat="49.7623296" lon="9.5218032">
        <ele>143.0</ele>
        <time>2020-08-29T08:40:38.000Z</time>
        <name>Pushpoint 6</name>
    </wpt>
    <wpt lat="49.789104" lon="9.4816816">
        <ele>139.0</ele>
        <time>2020-08-29T09:06:31.000Z</time>
        <name>Pushpoint 7</name>
    </wpt>
    <wpt lat="49.7765248" lon="9.3853576">
        <ele>144.0</ele>
        <time>2020-08-29T09:47:20.000Z</time>
        <name>Pushpoint 8</name>
    </wpt>
    <wpt lat="49.741936" lon="9.3233784">
        <ele>140.0</ele>
        <time>2020-08-29T10:27:21.000Z</time>
        <name>Pushpoint 9</name>
    </wpt>
    <wpt lat="49.7295328" lon="9.2703832">
        <ele>127.0</ele>
        <time>2020-08-29T11:31:29.000Z</time>
        <name>Pushpoint 10</name>
    </wpt>
    <wpt lat="49.7038912" lon="9.2377632">
        <ele>125.0</ele>
        <time>2020-08-29T12:41:16.000Z</time>
        <name>Pushpoint 11</name>
    </wpt>
    <wpt lat="49.8785664" lon="9.1614864">
        <ele>119.0</ele>
        <time>2020-08-29T14:39:08.000Z</time>
        <name>Pushpoint 12</name>
    </wpt>
    <wpt lat="49.955856" lon="9.1247264">
        <ele>112.0</ele>
        <time>2020-08-29T15:58:24.000Z</time>
        <name>Pushpoint 13</name>
    </wpt>
    <wpt lat="49.9744672" lon="9.1468032">
        <ele>133.0</ele>
        <time>2020-08-29T16:59:20.000Z</time>
        <name>Pushpoint 14</name>
    </wpt>
    <trk>
        <name>2020-08-29 07:56:36</name>
        <trkseg>
            <trkpt lat="49.8483584" lon="11.62874">
                <ele>438.0</ele>
                <time>2020-08-21T10:13:06.000Z</time>
                <name>Trackpoint 1</name>
            </trkpt>
            <trkpt lat="49.8483744" lon="11.6287272">
                <ele>437.0</ele>
                <time>2020-08-21T10:13:10.000Z</time>
                <name>Trackpoint 2</name>
            </trkpt>
            <trkpt lat="49.8483584" lon="11.6286312">
                <ele>436.0</ele>
                <time>2020-08-21T10:14:01.000Z</time>
                <name>Trackpoint 3</name>
            </trkpt>
            <trkpt lat="49.848368" lon="11.6285136">
                <ele>435.0</ele>
                <time>2020-08-21T10:14:04.000Z</time>
                <name>Trackpoint 4</name>
            </trkpt>
            <trkpt lat="49.848384" lon="11.6284168">
                <ele>433.0</ele>
                <time>2020-08-21T10:14:06.000Z</time>
                <name>Trackpoint 5</name>
            </trkpt>
            <trkpt lat="49.8483872" lon="11.628308">
                <ele>434.0</ele>
                <time>2020-08-21T10:14:08.000Z</time>
                <name>Trackpoint 6</name>
            </trkpt>
            <trkpt lat="49.8483968" lon="11.6281904">
                <ele>433.0</ele>
                <time>2020-08-21T10:14:11.000Z</time>
                <name>Trackpoint 7</name>
            </trkpt>
            <trkpt lat="49.8483968" lon="11.6280784">
                <ele>433.0</ele>
                <time>2020-08-21T10:15:10.000Z</time>
                <name>Trackpoint 8</name>
            </trkpt>
            <trkpt lat="49.8483552" lon="11.6279472">
                <ele>432.0</ele>
                <time>2020-08-21T10:15:13.000Z</time>
                <name>Trackpoint 9</name>
            </trkpt>
            <trkpt lat="49.8483008" lon="11.6278552">
                <ele>432.0</ele>
                <time>2020-08-21T10:15:15.000Z</time>
                <name>Trackpoint 10</name>
            </trkpt>
            <trkpt lat="49.8482048" lon="11.6277768">
                <ele>432.0</ele>
                <time>2020-08-21T10:15:17.000Z</time>
                <name>Trackpoint 11</name>
            </trkpt>
            <trkpt lat="49.8480768" lon="11.6277176">
                <ele>432.0</ele>
                <time>2020-08-21T10:15:19.000Z</time>
                <name>Trackpoint 12</name>
            </trkpt>
            <trkpt lat="49.8479392" lon="11.6276712">
                <ele>431.0</ele>
                <time>2020-08-21T10:15:21.000Z</time>
                <name>Trackpoint 13</name>
            </trkpt>
            <trkpt lat="49.8478016" lon="11.627632">
                <ele>430.0</ele>
                <time>2020-08-21T10:15:23.000Z</time>
                <name>Trackpoint 14</name>
            </trkpt>
            <trkpt lat="49.8476608" lon="11.627592">
                <ele>430.0</ele>
                <time>2020-08-21T10:15:25.000Z</time>
                <name>Trackpoint 15</name>
            </trkpt>
            <trkpt lat="49.8475296" lon="11.62756">
                <ele>430.0</ele>
                <time>2020-08-21T10:15:27.000Z</time>
                <name>Trackpoint 16</name>
            </trkpt>
            <trkpt lat="49.8474144" lon="11.62754">
                <ele>430.0</ele>
                <time>2020-08-21T10:15:29.000Z</time>
                <name>Trackpoint 17</name>
            </trkpt>
            <trkpt lat="49.8473152" lon="11.6275056">
                <ele>430.0</ele>
                <time>2020-08-21T10:15:31.000Z</time>
                <name>Trackpoint 18</name>
            </trkpt>
            <trkpt lat="49.8472288" lon="11.6274768">
                <ele>430.0</ele>
                <time>2020-08-21T10:15:33.000Z</time>
                <name>Trackpoint 19</name>
            </trkpt>
            <trkpt lat="49.847136" lon="11.627448">
                <ele>430.0</ele>
                <time>2020-08-21T10:15:35.000Z</time>
                <name>Trackpoint 20</name>
            </trkpt>
            <trkpt lat="49.8470528" lon="11.6274032">
                <ele>430.0</ele>
                <time>2020-08-21T10:15:37.000Z</time>
                <name>Trackpoint 21</name>
            </trkpt>
            <trkpt lat="49.8469728" lon="11.6273568">
                <ele>431.0</ele>
                <time>2020-08-21T10:15:39.000Z</time>
                <name>Trackpoint 22</name>
            </trkpt>
            <trkpt lat="49.8468896" lon="11.627312">
                <ele>431.0</ele>
                <time>2020-08-21T10:15:41.000Z</time>
                <name>Trackpoint 23</name>
            </trkpt>
            <trkpt lat="49.8468128" lon="11.62726">
                <ele>431.0</ele>
                <time>2020-08-21T10:15:43.000Z</time>
                <name>Trackpoint 24</name>
            </trkpt>
            <trkpt lat="49.846704" lon="11.6271936">
                <ele>431.0</ele>
                <time>2020-08-21T10:15:46.000Z</time>
                <name>Trackpoint 25</name>
            </trkpt>
            <trkpt lat="49.8465888" lon="11.6271384">
                <ele>431.0</ele>
                <time>2020-08-21T10:15:49.000Z</time>
                <name>Trackpoint 26</name>
            </trkpt>
            <trkpt lat="49.8465088" lon="11.6270952">
                <ele>431.0</ele>
                <time>2020-08-21T10:15:51.000Z</time>
                <name>Trackpoint 27</name>
            </trkpt>
            <trkpt lat="49.8463808" lon="11.62704">
                <ele>430.0</ele>
                <time>2020-08-21T10:15:54.000Z</time>
                <name>Trackpoint 28</name>
            </trkpt>
            <trkpt lat="49.8463008" lon="11.626984">
                <ele>430.0</ele>
                <time>2020-08-21T10:15:56.000Z</time>
                <name>Trackpoint 29</name>
            </trkpt>
            <trkpt lat="49.8462208" lon="11.626912">
                <ele>430.0</ele>
                <time>2020-08-21T10:15:58.000Z</time>
                <name>Trackpoint 30</name>
            </trkpt>
            <trkpt lat="49.8461504" lon="11.6268264">
                <ele>429.0</ele>
                <time>2020-08-21T10:16:00.000Z</time>
                <name>Trackpoint 31</name>
            </trkpt>
            <trkpt lat="49.8460896" lon="11.6267368">
                <ele>429.0</ele>
                <time>2020-08-21T10:16:02.000Z</time>
                <name>Trackpoint 32</name>
            </trkpt>
            <trkpt lat="49.8460384" lon="11.6266416">
                <ele>429.0</ele>
                <time>2020-08-21T10:16:05.000Z</time>
                <name>Trackpoint 33</name>
            </trkpt>
            <trkpt lat="49.8459744" lon="11.6265288">
                <ele>429.0</ele>
                <time>2020-08-21T10:16:51.000Z</time>
                <name>Trackpoint 34</name>
            </trkpt>
            <trkpt lat="49.84592" lon="11.6264264">
                <ele>429.0</ele>
                <time>2020-08-21T10:16:53.000Z</time>
                <name>Trackpoint 35</name>
            </trkpt>
            <trkpt lat="49.8458656" lon="11.6263">
                <ele>429.0</ele>
                <time>2020-08-21T10:16:55.000Z</time>
                <name>Trackpoint 36</name>
            </trkpt>
            <trkpt lat="49.8458112" lon="11.6261616">
                <ele>429.0</ele>
                <time>2020-08-21T10:16:57.000Z</time>
                <name>Trackpoint 37</name>
            </trkpt>
            <trkpt lat="49.8457408" lon="11.626032">
                <ele>429.0</ele>
                <time>2020-08-21T10:16:59.000Z</time>
                <name>Trackpoint 38</name>
            </trkpt>
            <trkpt lat="49.8456736" lon="11.6258896">
                <ele>429.0</ele>
                <time>2020-08-21T10:17:01.000Z</time>
                <name>Trackpoint 39</name>
            </trkpt>
            <trkpt lat="49.8455936" lon="11.625756">
                <ele>429.0</ele>
                <time>2020-08-21T10:17:03.000Z</time>
                <name>Trackpoint 40</name>
            </trkpt>
            <trkpt lat="49.8455072" lon="11.62564">
                <ele>429.0</ele>
                <time>2020-08-21T10:17:05.000Z</time>
                <name>Trackpoint 41</name>
            </trkpt>
            <trkpt lat="49.8454208" lon="11.6255312">
                <ele>429.0</ele>
                <time>2020-08-21T10:17:07.000Z</time>
                <name>Trackpoint 42</name>
            </trkpt>
            <trkpt lat="49.8453344" lon="11.6254416">
                <ele>430.0</ele>
                <time>2020-08-21T10:17:09.000Z</time>
                <name>Trackpoint 43</name>
            </trkpt>
            <trkpt lat="49.8452576" lon="11.6253704">
                <ele>430.0</ele>
                <time>2020-08-21T10:17:11.000Z</time>
                <name>Trackpoint 44</name>
            </trkpt>
            <trkpt lat="49.8451648" lon="11.6252816">
                <ele>430.0</ele>
                <time>2020-08-21T10:17:14.000Z</time>
                <name>Trackpoint 45</name>
            </trkpt>
            <trkpt lat="49.8451456" lon="11.6251624">
                <ele>430.0</ele>
                <time>2020-08-21T10:17:17.000Z</time>
                <name>Trackpoint 46</name>
            </trkpt>
            <trkpt lat="49.8451776" lon="11.6250712">
                <ele>430.0</ele>
                <time>2020-08-21T10:17:19.000Z</time>
                <name>Trackpoint 47</name>
            </trkpt>
            <trkpt lat="49.8452256" lon="11.6249648">
                <ele>429.0</ele>
                <time>2020-08-21T10:17:21.000Z</time>
                <name>Trackpoint 48</name>
            </trkpt>
            <trkpt lat="49.8452768" lon="11.6248376">
                <ele>430.0</ele>
                <time>2020-08-21T10:17:23.000Z</time>
                <name>Trackpoint 49</name>
            </trkpt>
            <trkpt lat="49.8453152" lon="11.6246928">
                <ele>429.0</ele>
                <time>2020-08-21T10:17:25.000Z</time>
                <name>Trackpoint 50</name>
            </trkpt>
            <trkpt lat="49.8453536" lon="11.624548">
                <ele>429.0</ele>
                <time>2020-08-21T10:17:27.000Z</time>
                <name>Trackpoint 51</name>
            </trkpt>
            <trkpt lat="49.8453856" lon="11.6243912">
                <ele>429.0</ele>
                <time>2020-08-21T10:17:29.000Z</time>
                <name>Trackpoint 52</name>
            </trkpt>
            <trkpt lat="49.8454016" lon="11.624244">
                <ele>428.0</ele>
                <time>2020-08-21T10:17:31.000Z</time>
                <name>Trackpoint 53</name>
            </trkpt>
            <trkpt lat="49.8454048" lon="11.6241248">
                <ele>427.0</ele>
                <time>2020-08-21T10:17:33.000Z</time>
                <name>Trackpoint 54</name>
            </trkpt>
            <trkpt lat="49.845408" lon="11.624008">
                <ele>426.0</ele>
                <time>2020-08-21T10:17:35.000Z</time>
                <name>Trackpoint 55</name>
            </trkpt>
            <trkpt lat="49.8454208" lon="11.6239008">
                <ele>425.0</ele>
                <time>2020-08-21T10:17:37.000Z</time>
                <name>Trackpoint 56</name>
            </trkpt>
            <trkpt lat="49.845456" lon="11.623792">
                <ele>424.0</ele>
                <time>2020-08-21T10:18:07.000Z</time>
                <name>Trackpoint 57</name>
            </trkpt>
            <trkpt lat="49.845504" lon="11.6236784">
                <ele>423.0</ele>
                <time>2020-08-21T10:18:10.000Z</time>
                <name>Trackpoint 58</name>
            </trkpt>
            <trkpt lat="49.8456032" lon="11.6235568">
                <ele>423.0</ele>
                <time>2020-08-21T10:18:12.000Z</time>
                <name>Trackpoint 59</name>
            </trkpt>
            <trkpt lat="49.8456928" lon="11.6234168">
                <ele>423.0</ele>
                <time>2020-08-21T10:18:14.000Z</time>
                <name>Trackpoint 60</name>
            </trkpt>
            <trkpt lat="49.8457856" lon="11.6232768">
                <ele>423.0</ele>
                <time>2020-08-21T10:18:16.000Z</time>
                <name>Trackpoint 61</name>
            </trkpt>
            <trkpt lat="49.8459008" lon="11.6231784">
                <ele>423.0</ele>
                <time>2020-08-21T10:18:18.000Z</time>
                <name>Trackpoint 62</name>
            </trkpt>
            <trkpt lat="49.8460192" lon="11.6230984">
                <ele>423.0</ele>
                <time>2020-08-21T10:18:20.000Z</time>
                <name>Trackpoint 63</name>
            </trkpt>
            <trkpt lat="49.8461312" lon="11.6230488">
                <ele>423.0</ele>
                <time>2020-08-21T10:18:22.000Z</time>
                <name>Trackpoint 64</name>
            </trkpt>
            <trkpt lat="49.84624" lon="11.6230152">
                <ele>423.0</ele>
                <time>2020-08-21T10:18:24.000Z</time>
                <name>Trackpoint 65</name>
            </trkpt>
            <trkpt lat="49.8463392" lon="11.6229784">
                <ele>423.0</ele>
                <time>2020-08-21T10:18:26.000Z</time>
                <name>Trackpoint 66</name>
            </trkpt>
            <trkpt lat="49.846432" lon="11.6229488">
                <ele>423.0</ele>
                <time>2020-08-21T10:18:28.000Z</time>
                <name>Trackpoint 67</name>
            </trkpt>
            <trkpt lat="49.8465984" lon="11.6228752">
                <ele>421.0</ele>
                <time>2020-08-21T10:20:06.000Z</time>
                <name>Trackpoint 71</name>
            </trkpt>
            <trkpt lat="49.846688" lon="11.6228136">
                <ele>421.0</ele>
                <time>2020-08-21T10:20:09.000Z</time>
                <name>Trackpoint 72</name>
            </trkpt>
            <trkpt lat="49.8468032" lon="11.622804">
                <ele>421.0</ele>
                <time>2020-08-21T10:20:12.000Z</time>
                <name>Trackpoint 73</name>
            </trkpt>
            <trkpt lat="49.8469024" lon="11.6227864">
                <ele>421.0</ele>
                <time>2020-08-21T10:20:15.000Z</time>
                <name>Trackpoint 74</name>
            </trkpt>
            <trkpt lat="49.8470046" lon="11.6227322">
                <ele>422.0</ele>
                <time>2020-08-21T10:20:21.000Z</time>
                <name>Trackpoint 75</name>
            </trkpt>
            <trkpt lat="49.8470112" lon="11.6226328">
                <ele>422.0</ele>
                <time>2020-08-21T10:20:24.000Z</time>
                <name>Trackpoint 76</name>
            </trkpt>
            <trkpt lat="49.8469728" lon="11.6225504">
                <ele>422.0</ele>
                <time>2020-08-21T10:20:26.000Z</time>
                <name>Trackpoint 77</name>
            </trkpt>
            <trkpt lat="49.8469344" lon="11.6224648">
                <ele>421.0</ele>
                <time>2020-08-21T10:20:28.000Z</time>
                <name>Trackpoint 78</name>
            </trkpt>
            <trkpt lat="49.846896" lon="11.6223744">
                <ele>421.0</ele>
                <time>2020-08-21T10:20:30.000Z</time>
                <name>Trackpoint 79</name>
            </trkpt>
            <trkpt lat="49.8468544" lon="11.6222824">
                <ele>421.0</ele>
                <time>2020-08-21T10:20:32.000Z</time>
                <name>Trackpoint 80</name>
            </trkpt>
            <trkpt lat="49.846792" lon="11.6222392">
                <ele>421.0</ele>
                <time>2020-08-21T10:20:34.000Z</time>
                <name>Trackpoint 81</name>
            </trkpt>
            <trkpt lat="49.8467509" lon="11.6221727">
                <ele>421.0</ele>
                <time>2020-08-21T10:20:37.000Z</time>
                <name>Trackpoint 82</name>
            </trkpt>
            <trkpt lat="49.8467114" lon="11.6220944">
                <ele>422.0</ele>
                <time>2020-08-21T10:21:00.000Z</time>
                <name>Trackpoint 83</name>
            </trkpt>
            <trkpt lat="49.8466701" lon="11.6220558">
                <ele>423.0</ele>
                <time>2020-08-21T10:43:15.000Z</time>
                <name>Trackpoint 91</name>
            </trkpt>
            <trkpt lat="49.84664" lon="11.6220976">
                <ele>423.0</ele>
                <time>2020-08-21T10:43:19.000Z</time>
                <name>Trackpoint 92</name>
            </trkpt>
            <trkpt lat="49.846592" lon="11.622008">
                <ele>421.0</ele>
                <time>2020-08-21T10:44:30.000Z</time>
                <name>Trackpoint 93</name>
            </trkpt>
            <trkpt lat="49.8465408" lon="11.6218864">
                <ele>420.0</ele>
                <time>2020-08-21T10:44:33.000Z</time>
                <name>Trackpoint 94</name>
            </trkpt>
            <trkpt lat="49.84648" lon="11.6217672">
                <ele>420.0</ele>
                <time>2020-08-21T10:44:36.000Z</time>
                <name>Trackpoint 95</name>
            </trkpt>
            <trkpt lat="49.8464384" lon="11.6216744">
                <ele>420.0</ele>
                <time>2020-08-21T10:44:38.000Z</time>
                <name>Trackpoint 96</name>
            </trkpt>
            <trkpt lat="49.8463904" lon="11.6215736">
                <ele>420.0</ele>
                <time>2020-08-21T10:44:40.000Z</time>
                <name>Trackpoint 97</name>
            </trkpt>
            <trkpt lat="49.846336" lon="11.6214736">
                <ele>420.0</ele>
                <time>2020-08-21T10:44:42.000Z</time>
                <name>Trackpoint 98</name>
            </trkpt>
            <trkpt lat="49.8462944" lon="11.621384">
                <ele>420.0</ele>
                <time>2020-08-21T10:44:44.000Z</time>
                <name>Trackpoint 99</name>
            </trkpt>
            <trkpt lat="49.8462528" lon="11.6212832">
                <ele>420.0</ele>
                <time>2020-08-21T10:44:46.000Z</time>
                <name>Trackpoint 100</name>
            </trkpt>
            <trkpt lat="49.8462112" lon="11.6211968">
                <ele>420.0</ele>
                <time>2020-08-21T10:44:48.000Z</time>
                <name>Trackpoint 101</name>
            </trkpt>
            <trkpt lat="49.8461504" lon="11.6210968">
                <ele>420.0</ele>
                <time>2020-08-21T10:44:50.000Z</time>
                <name>Trackpoint 102</name>
            </trkpt>
            <trkpt lat="49.8460992" lon="11.6210168">
                <ele>420.0</ele>
                <time>2020-08-21T10:44:52.000Z</time>
                <name>Trackpoint 103</name>
            </trkpt>
            <trkpt lat="49.846032" lon="11.6208984">
                <ele>420.0</ele>
                <time>2020-08-21T10:44:55.000Z</time>
                <name>Trackpoint 104</name>
            </trkpt>
            <trkpt lat="49.845984" lon="11.6208112">
                <ele>420.0</ele>
                <time>2020-08-21T10:44:57.000Z</time>
                <name>Trackpoint 105</name>
            </trkpt>
            <trkpt lat="49.845936" lon="11.6207152">
                <ele>421.0</ele>
                <time>2020-08-21T10:44:59.000Z</time>
                <name>Trackpoint 106</name>
            </trkpt>
            <trkpt lat="49.8458592" lon="11.620608">
                <ele>420.0</ele>
                <time>2020-08-21T10:45:02.000Z</time>
                <name>Trackpoint 107</name>
            </trkpt>
            <trkpt lat="49.8457792" lon="11.6205216">
                <ele>421.0</ele>
                <time>2020-08-21T10:45:05.000Z</time>
                <name>Trackpoint 108</name>
            </trkpt>
            <trkpt lat="49.8457056" lon="11.6204048">
                <ele>421.0</ele>
                <time>2020-08-21T10:45:08.000Z</time>
                <name>Trackpoint 109</name>
            </trkpt>
            <trkpt lat="49.8456352" lon="11.620292">
                <ele>422.0</ele>
                <time>2020-08-21T10:45:11.000Z</time>
                <name>Trackpoint 110</name>
            </trkpt>
            <trkpt lat="49.8455936" lon="11.6202096">
                <ele>422.0</ele>
                <time>2020-08-21T10:45:13.000Z</time>
                <name>Trackpoint 111</name>
            </trkpt>
            <trkpt lat="49.845552" lon="11.6201264">
                <ele>422.0</ele>
                <time>2020-08-21T10:45:15.000Z</time>
                <name>Trackpoint 112</name>
            </trkpt>
            <trkpt lat="49.8455136" lon="11.6200264">
                <ele>423.0</ele>
                <time>2020-08-21T10:45:17.000Z</time>
                <name>Trackpoint 113</name>
            </trkpt>
            <trkpt lat="49.8454784" lon="11.6199304">
                <ele>424.0</ele>
                <time>2020-08-21T10:45:19.000Z</time>
                <name>Trackpoint 114</name>
            </trkpt>
            <trkpt lat="49.8454464" lon="11.6198328">
                <ele>424.0</ele>
                <time>2020-08-21T10:45:21.000Z</time>
                <name>Trackpoint 115</name>
            </trkpt>
            <trkpt lat="49.8454144" lon="11.6197432">
                <ele>424.0</ele>
                <time>2020-08-21T10:45:23.000Z</time>
                <name>Trackpoint 116</name>
            </trkpt>
            <trkpt lat="49.845376" lon="11.6196184">
                <ele>424.0</ele>
                <time>2020-08-21T10:45:26.000Z</time>
                <name>Trackpoint 117</name>
            </trkpt>
            <trkpt lat="49.8453472" lon="11.6195248">
                <ele>425.0</ele>
                <time>2020-08-21T10:45:28.000Z</time>
                <name>Trackpoint 118</name>
            </trkpt>
            <trkpt lat="49.8453184" lon="11.6193936">
                <ele>425.0</ele>
                <time>2020-08-21T10:45:31.000Z</time>
                <name>Trackpoint 119</name>
            </trkpt>
            <trkpt lat="49.8453024" lon="11.61926">
                <ele>426.0</ele>
                <time>2020-08-21T10:45:34.000Z</time>
                <name>Trackpoint 120</name>
            </trkpt>
            <trkpt lat="49.8452832" lon="11.6191632">
                <ele>426.0</ele>
                <time>2020-08-21T10:45:36.000Z</time>
                <name>Trackpoint 121</name>
            </trkpt>
            <trkpt lat="49.845264" lon="11.6190752">
                <ele>426.0</ele>
                <time>2020-08-21T10:45:38.000Z</time>
                <name>Trackpoint 122</name>
            </trkpt>
            <trkpt lat="49.8452416" lon="11.6189848">
                <ele>426.0</ele>
                <time>2020-08-21T10:45:40.000Z</time>
                <name>Trackpoint 123</name>
            </trkpt>
            <trkpt lat="49.8452352" lon="11.6188936">
                <ele>427.0</ele>
                <time>2020-08-21T10:45:42.000Z</time>
                <name>Trackpoint 124</name>
            </trkpt>
            <trkpt lat="49.8452224" lon="11.6188032">
                <ele>427.0</ele>
                <time>2020-08-21T10:45:44.000Z</time>
                <name>Trackpoint 125</name>
            </trkpt>
            <trkpt lat="49.8452192" lon="11.6186688">
                <ele>428.0</ele>
                <time>2020-08-21T10:45:47.000Z</time>
                <name>Trackpoint 126</name>
            </trkpt>
            <trkpt lat="49.8452096" lon="11.6185776">
                <ele>429.0</ele>
                <time>2020-08-21T10:45:49.000Z</time>
                <name>Trackpoint 127</name>
            </trkpt>
            <trkpt lat="49.8452032" lon="11.6184832">
                <ele>429.0</ele>
                <time>2020-08-21T10:45:51.000Z</time>
                <name>Trackpoint 128</name>
            </trkpt>
            <trkpt lat="49.8451904" lon="11.618352">
                <ele>431.0</ele>
                <time>2020-08-21T10:45:54.000Z</time>
                <name>Trackpoint 129</name>
            </trkpt>
            <trkpt lat="49.845184" lon="11.6182216">
                <ele>432.0</ele>
                <time>2020-08-21T10:45:57.000Z</time>
                <name>Trackpoint 130</name>
            </trkpt>
            <trkpt lat="49.8451808" lon="11.6180872">
                <ele>433.0</ele>
                <time>2020-08-21T10:46:00.000Z</time>
                <name>Trackpoint 131</name>
            </trkpt>
            <trkpt lat="49.8451744" lon="11.6179936">
                <ele>434.0</ele>
                <time>2020-08-21T10:46:02.000Z</time>
                <name>Trackpoint 132</name>
            </trkpt>
            <trkpt lat="49.845168" lon="11.6178648">
                <ele>435.0</ele>
                <time>2020-08-21T10:46:05.000Z</time>
                <name>Trackpoint 133</name>
            </trkpt>
            <trkpt lat="49.8451584" lon="11.617752">
                <ele>435.0</ele>
                <time>2020-08-21T10:46:08.000Z</time>
                <name>Trackpoint 134</name>
            </trkpt>
            <trkpt lat="49.8451072" lon="11.6176528">
                <ele>436.0</ele>
                <time>2020-08-21T10:46:11.000Z</time>
                <name>Trackpoint 135</name>
            </trkpt>
            <trkpt lat="49.8450464" lon="11.617572">
                <ele>437.0</ele>
                <time>2020-08-21T10:46:14.000Z</time>
                <name>Trackpoint 136</name>
            </trkpt>
            <trkpt lat="49.8449696" lon="11.6175184">
                <ele>438.0</ele>
                <time>2020-08-21T10:46:17.000Z</time>
                <name>Trackpoint 137</name>
            </trkpt>
            <trkpt lat="49.8448576" lon="11.6175232">
                <ele>439.0</ele>
                <time>2020-08-21T10:46:21.000Z</time>
                <name>Trackpoint 138</name>
            </trkpt>
            <trkpt lat="49.8447648" lon="11.6175472">
                <ele>439.0</ele>
                <time>2020-08-21T10:46:24.000Z</time>
                <name>Trackpoint 139</name>
            </trkpt>
            <trkpt lat="49.8446624" lon="11.61756">
                <ele>439.0</ele>
                <time>2020-08-21T10:46:27.000Z</time>
                <name>Trackpoint 140</name>
            </trkpt>
            <trkpt lat="49.8445696" lon="11.6175368">
                <ele>440.0</ele>
                <time>2020-08-21T10:46:30.000Z</time>
                <name>Trackpoint 141</name>
            </trkpt>
            <trkpt lat="49.8444704" lon="11.6175016">
                <ele>440.0</ele>
                <time>2020-08-21T10:46:33.000Z</time>
                <name>Trackpoint 142</name>
            </trkpt>
            <trkpt lat="49.8443936" lon="11.6174048">
                <ele>441.0</ele>
                <time>2020-08-21T10:46:36.000Z</time>
                <name>Trackpoint 143</name>
            </trkpt>
            <trkpt lat="49.8443552" lon="11.6173152">
                <ele>441.0</ele>
                <time>2020-08-21T10:46:38.000Z</time>
                <name>Trackpoint 144</name>
            </trkpt>
            <trkpt lat="49.8443424" lon="11.6172112">
                <ele>441.0</ele>
                <time>2020-08-21T10:46:40.000Z</time>
                <name>Trackpoint 145</name>
            </trkpt>
            <trkpt lat="49.8443488" lon="11.6171">
                <ele>442.0</ele>
                <time>2020-08-21T10:46:42.000Z</time>
                <name>Trackpoint 146</name>
            </trkpt>
            <trkpt lat="49.8443616" lon="11.6169752">
                <ele>443.0</ele>
                <time>2020-08-21T10:46:44.000Z</time>
                <name>Trackpoint 147</name>
            </trkpt>
            <trkpt lat="49.8443744" lon="11.6168616">
                <ele>444.0</ele>
                <time>2020-08-21T10:46:46.000Z</time>
                <name>Trackpoint 148</name>
            </trkpt>
            <trkpt lat="49.8444032" lon="11.616752">
                <ele>444.0</ele>
                <time>2020-08-21T10:46:48.000Z</time>
                <name>Trackpoint 149</name>
            </trkpt>
            <trkpt lat="49.8444128" lon="11.6166512">
                <ele>444.0</ele>
                <time>2020-08-21T10:46:50.000Z</time>
                <name>Trackpoint 150</name>
            </trkpt>
            <trkpt lat="49.8444448" lon="11.6165384">
                <ele>444.0</ele>
                <time>2020-08-21T10:46:52.000Z</time>
                <name>Trackpoint 151</name>
            </trkpt>
            <trkpt lat="49.84448" lon="11.6164304">
                <ele>444.0</ele>
                <time>2020-08-21T10:46:54.000Z</time>
                <name>Trackpoint 152</name>
            </trkpt>
            <trkpt lat="49.8445152" lon="11.6163264">
                <ele>444.0</ele>
                <time>2020-08-21T10:46:56.000Z</time>
                <name>Trackpoint 153</name>
            </trkpt>
            <trkpt lat="49.8445504" lon="11.6162216">
                <ele>444.0</ele>
                <time>2020-08-21T10:46:58.000Z</time>
                <name>Trackpoint 154</name>
            </trkpt>
            <trkpt lat="49.8445856" lon="11.616112">
                <ele>444.0</ele>
                <time>2020-08-21T10:47:00.000Z</time>
                <name>Trackpoint 155</name>
            </trkpt>
            <trkpt lat="49.8446208" lon="11.6159936">
                <ele>445.0</ele>
                <time>2020-08-21T10:47:02.000Z</time>
                <name>Trackpoint 156</name>
            </trkpt>
            <trkpt lat="49.8446496" lon="11.6158936">
                <ele>445.0</ele>
                <time>2020-08-21T10:47:04.000Z</time>
                <name>Trackpoint 157</name>
            </trkpt>
            <trkpt lat="49.8446816" lon="11.6157912">
                <ele>445.0</ele>
                <time>2020-08-21T10:47:06.000Z</time>
                <name>Trackpoint 158</name>
            </trkpt>
            <trkpt lat="49.8447136" lon="11.6156904">
                <ele>445.0</ele>
                <time>2020-08-21T10:47:08.000Z</time>
                <name>Trackpoint 159</name>
            </trkpt>
            <trkpt lat="49.844752" lon="11.6155904">
                <ele>445.0</ele>
                <time>2020-08-21T10:47:10.000Z</time>
                <name>Trackpoint 160</name>
            </trkpt>
            <trkpt lat="49.844784" lon="11.6154872">
                <ele>446.0</ele>
                <time>2020-08-21T10:47:12.000Z</time>
                <name>Trackpoint 161</name>
            </trkpt>
            <trkpt lat="49.8448192" lon="11.6153832">
                <ele>446.0</ele>
                <time>2020-08-21T10:47:14.000Z</time>
                <name>Trackpoint 162</name>
            </trkpt>
            <trkpt lat="49.8448512" lon="11.6152784">
                <ele>446.0</ele>
                <time>2020-08-21T10:47:16.000Z</time>
                <name>Trackpoint 163</name>
            </trkpt>
            <trkpt lat="49.8448832" lon="11.6151664">
                <ele>446.0</ele>
                <time>2020-08-21T10:47:18.000Z</time>
                <name>Trackpoint 164</name>
            </trkpt>
            <trkpt lat="49.8449088" lon="11.6150568">
                <ele>447.0</ele>
                <time>2020-08-21T10:47:20.000Z</time>
                <name>Trackpoint 165</name>
            </trkpt>
            <trkpt lat="49.8449376" lon="11.614948">
                <ele>447.0</ele>
                <time>2020-08-21T10:47:22.000Z</time>
                <name>Trackpoint 166</name>
            </trkpt>
            <trkpt lat="49.8449504" lon="11.614848">
                <ele>448.0</ele>
                <time>2020-08-21T10:47:24.000Z</time>
                <name>Trackpoint 167</name>
            </trkpt>
            <trkpt lat="49.8449664" lon="11.6147496">
                <ele>448.0</ele>
                <time>2020-08-21T10:47:26.000Z</time>
                <name>Trackpoint 168</name>
            </trkpt>
            <trkpt lat="49.8449824" lon="11.6146472">
                <ele>448.0</ele>
                <time>2020-08-21T10:47:28.000Z</time>
                <name>Trackpoint 169</name>
            </trkpt>
            <trkpt lat="49.844992" lon="11.6145448">
                <ele>448.0</ele>
                <time>2020-08-21T10:47:30.000Z</time>
                <name>Trackpoint 170</name>
            </trkpt>
            <trkpt lat="49.8450176" lon="11.614444">
                <ele>449.0</ele>
                <time>2020-08-21T10:47:32.000Z</time>
                <name>Trackpoint 171</name>
            </trkpt>
            <trkpt lat="49.8450432" lon="11.6143448">
                <ele>449.0</ele>
                <time>2020-08-21T10:47:34.000Z</time>
                <name>Trackpoint 172</name>
            </trkpt>
            <trkpt lat="49.8450688" lon="11.6142456">
                <ele>450.0</ele>
                <time>2020-08-21T10:47:36.000Z</time>
                <name>Trackpoint 173</name>
            </trkpt>
            <trkpt lat="49.8451008" lon="11.6141464">
                <ele>450.0</ele>
                <time>2020-08-21T10:47:38.000Z</time>
                <name>Trackpoint 174</name>
            </trkpt>
            <trkpt lat="49.8451424" lon="11.6140584">
                <ele>451.0</ele>
                <time>2020-08-21T10:47:40.000Z</time>
                <name>Trackpoint 175</name>
            </trkpt>
            <trkpt lat="49.8451808" lon="11.6139648">
                <ele>451.0</ele>
                <time>2020-08-21T10:47:42.000Z</time>
                <name>Trackpoint 176</name>
            </trkpt>
            <trkpt lat="49.845216" lon="11.6138672">
                <ele>452.0</ele>
                <time>2020-08-21T10:47:44.000Z</time>
                <name>Trackpoint 177</name>
            </trkpt>
            <trkpt lat="49.8452448" lon="11.6137712">
                <ele>452.0</ele>
                <time>2020-08-21T10:47:46.000Z</time>
                <name>Trackpoint 178</name>
            </trkpt>
            <trkpt lat="49.8452832" lon="11.6136752">
                <ele>452.0</ele>
                <time>2020-08-21T10:47:48.000Z</time>
                <name>Trackpoint 179</name>
            </trkpt>
            <trkpt lat="49.8453088" lon="11.6135816">
                <ele>452.0</ele>
                <time>2020-08-21T10:47:50.000Z</time>
                <name>Trackpoint 180</name>
            </trkpt>
            <trkpt lat="49.8453376" lon="11.6134784">
                <ele>452.0</ele>
                <time>2020-08-21T10:47:52.000Z</time>
                <name>Trackpoint 181</name>
            </trkpt>
            <trkpt lat="49.8453664" lon="11.613368">
                <ele>452.0</ele>
                <time>2020-08-21T10:47:54.000Z</time>
                <name>Trackpoint 182</name>
            </trkpt>
            <trkpt lat="49.845376" lon="11.6132448">
                <ele>452.0</ele>
                <time>2020-08-21T10:47:56.000Z</time>
                <name>Trackpoint 183</name>
            </trkpt>
            <trkpt lat="49.8453664" lon="11.6131152">
                <ele>452.0</ele>
                <time>2020-08-21T10:47:58.000Z</time>
                <name>Trackpoint 184</name>
            </trkpt>
            <trkpt lat="49.8453792" lon="11.61298">
                <ele>452.0</ele>
                <time>2020-08-21T10:48:00.000Z</time>
                <name>Trackpoint 185</name>
            </trkpt>
            <trkpt lat="49.8453984" lon="11.6128416">
                <ele>452.0</ele>
                <time>2020-08-21T10:48:02.000Z</time>
                <name>Trackpoint 186</name>
            </trkpt>
            <trkpt lat="49.8454144" lon="11.6127032">
                <ele>452.0</ele>
                <time>2020-08-21T10:48:04.000Z</time>
                <name>Trackpoint 187</name>
            </trkpt>
            <trkpt lat="49.8454336" lon="11.612568">
                <ele>452.0</ele>
                <time>2020-08-21T10:48:06.000Z</time>
                <name>Trackpoint 188</name>
            </trkpt>
            <trkpt lat="49.845456" lon="11.6124432">
                <ele>453.0</ele>
                <time>2020-08-21T10:48:08.000Z</time>
                <name>Trackpoint 189</name>
            </trkpt>
            <trkpt lat="49.8454656" lon="11.6123248">
                <ele>453.0</ele>
                <time>2020-08-21T10:48:10.000Z</time>
                <name>Trackpoint 190</name>
            </trkpt>
            <trkpt lat="49.8454528" lon="11.6122264">
                <ele>453.0</ele>
                <time>2020-08-21T10:48:12.000Z</time>
                <name>Trackpoint 191</name>
            </trkpt>
            <trkpt lat="49.845408" lon="11.6121328">
                <ele>452.0</ele>
                <time>2020-08-21T10:48:15.000Z</time>
                <name>Trackpoint 192</name>
            </trkpt>
            <trkpt lat="49.845424" lon="11.6120416">
                <ele>452.0</ele>
                <time>2020-08-21T10:48:20.000Z</time>
                <name>Trackpoint 193</name>
            </trkpt>
            <trkpt lat="49.845536" lon="11.6120168">
                <ele>452.0</ele>
                <time>2020-08-21T10:48:58.000Z</time>
                <name>Trackpoint 194</name>
            </trkpt>
            <trkpt lat="49.845584" lon="11.6119296">
                <ele>452.0</ele>
                <time>2020-08-21T10:49:00.000Z</time>
                <name>Trackpoint 195</name>
            </trkpt>
            <trkpt lat="49.845616" lon="11.611812">
                <ele>452.0</ele>
                <time>2020-08-21T10:49:02.000Z</time>
                <name>Trackpoint 196</name>
            </trkpt>
            <trkpt lat="49.8456384" lon="11.611676">
                <ele>452.0</ele>
                <time>2020-08-21T10:49:04.000Z</time>
                <name>Trackpoint 197</name>
            </trkpt>
            <trkpt lat="49.845664" lon="11.6115488">
                <ele>453.0</ele>
                <time>2020-08-21T10:49:06.000Z</time>
                <name>Trackpoint 198</name>
            </trkpt>
            <trkpt lat="49.8456928" lon="11.6114128">
                <ele>453.0</ele>
                <time>2020-08-21T10:49:08.000Z</time>
                <name>Trackpoint 199</name>
            </trkpt>
            <trkpt lat="49.8457184" lon="11.6112744">
                <ele>453.0</ele>
                <time>2020-08-21T10:49:10.000Z</time>
                <name>Trackpoint 200</name>
            </trkpt>
            <trkpt lat="49.845744" lon="11.6111336">
                <ele>453.0</ele>
                <time>2020-08-21T10:49:12.000Z</time>
                <name>Trackpoint 201</name>
            </trkpt>
            <trkpt lat="49.8457728" lon="11.6109888">
                <ele>453.0</ele>
                <time>2020-08-21T10:49:14.000Z</time>
                <name>Trackpoint 202</name>
            </trkpt>
            <trkpt lat="49.8457984" lon="11.6108416">
                <ele>453.0</ele>
                <time>2020-08-21T10:49:16.000Z</time>
                <name>Trackpoint 203</name>
            </trkpt>
            <trkpt lat="49.845824" lon="11.6106904">
                <ele>453.0</ele>
                <time>2020-08-21T10:49:18.000Z</time>
                <name>Trackpoint 204</name>
            </trkpt>
            <trkpt lat="49.8458528" lon="11.6105344">
                <ele>453.0</ele>
                <time>2020-08-21T10:49:20.000Z</time>
                <name>Trackpoint 205</name>
            </trkpt>
            <trkpt lat="49.8458752" lon="11.6103784">
                <ele>453.0</ele>
                <time>2020-08-21T10:49:22.000Z</time>
                <name>Trackpoint 206</name>
            </trkpt>
            <trkpt lat="49.8458944" lon="11.6102216">
                <ele>453.0</ele>
                <time>2020-08-21T10:49:24.000Z</time>
                <name>Trackpoint 207</name>
            </trkpt>
            <trkpt lat="49.8459136" lon="11.61006">
                <ele>453.0</ele>
                <time>2020-08-21T10:49:26.000Z</time>
                <name>Trackpoint 208</name>
            </trkpt>
            <trkpt lat="49.8459328" lon="11.609892">
                <ele>453.0</ele>
                <time>2020-08-21T10:49:28.000Z</time>
                <name>Trackpoint 209</name>
            </trkpt>
            <trkpt lat="49.8459488" lon="11.60972">
                <ele>453.0</ele>
                <time>2020-08-21T10:49:30.000Z</time>
                <name>Trackpoint 210</name>
            </trkpt>
            <trkpt lat="49.8459616" lon="11.609544">
                <ele>452.0</ele>
                <time>2020-08-21T10:49:32.000Z</time>
                <name>Trackpoint 211</name>
            </trkpt>
            <trkpt lat="49.8459648" lon="11.6094512">
                <ele>452.0</ele>
                <time>2020-08-21T10:49:33.000Z</time>
                <name>Trackpoint 212</name>
            </trkpt>
            <trkpt lat="49.8459712" lon="11.6093552">
                <ele>452.0</ele>
                <time>2020-08-21T10:49:34.000Z</time>
                <name>Trackpoint 213</name>
            </trkpt>
            <trkpt lat="49.8459744" lon="11.6092568">
                <ele>452.0</ele>
                <time>2020-08-21T10:49:35.000Z</time>
                <name>Trackpoint 214</name>
            </trkpt>
            <trkpt lat="49.8459808" lon="11.6091544">
                <ele>451.0</ele>
                <time>2020-08-21T10:49:36.000Z</time>
                <name>Trackpoint 215</name>
            </trkpt>
            <trkpt lat="49.845984" lon="11.609048">
                <ele>451.0</ele>
                <time>2020-08-21T10:49:37.000Z</time>
                <name>Trackpoint 216</name>
            </trkpt>
            <trkpt lat="49.8459936" lon="11.60894">
                <ele>451.0</ele>
                <time>2020-08-21T10:49:38.000Z</time>
                <name>Trackpoint 217</name>
            </trkpt>
            <trkpt lat="49.8459968" lon="11.6088304">
                <ele>451.0</ele>
                <time>2020-08-21T10:49:39.000Z</time>
                <name>Trackpoint 218</name>
            </trkpt>
            <trkpt lat="49.8460096" lon="11.60872">
                <ele>450.0</ele>
                <time>2020-08-21T10:49:40.000Z</time>
                <name>Trackpoint 219</name>
            </trkpt>
            <trkpt lat="49.846016" lon="11.6086064">
                <ele>450.0</ele>
                <time>2020-08-21T10:49:41.000Z</time>
                <name>Trackpoint 220</name>
            </trkpt>
            <trkpt lat="49.8460224" lon="11.6084944">
                <ele>450.0</ele>
                <time>2020-08-21T10:49:42.000Z</time>
                <name>Trackpoint 221</name>
            </trkpt>
            <trkpt lat="49.8460384" lon="11.6083896">
                <ele>450.0</ele>
                <time>2020-08-21T10:49:43.000Z</time>
                <name>Trackpoint 222</name>
            </trkpt>
            <trkpt lat="49.8460576" lon="11.6082872">
                <ele>450.0</ele>
                <time>2020-08-21T10:49:44.000Z</time>
                <name>Trackpoint 223</name>
            </trkpt>
            <trkpt lat="49.8460736" lon="11.6081848">
                <ele>450.0</ele>
                <time>2020-08-21T10:49:45.000Z</time>
                <name>Trackpoint 224</name>
            </trkpt>
            <trkpt lat="49.846096" lon="11.6080888">
                <ele>450.0</ele>
                <time>2020-08-21T10:49:46.000Z</time>
                <name>Trackpoint 225</name>
            </trkpt>
            <trkpt lat="49.8461152" lon="11.6079928">
                <ele>450.0</ele>
                <time>2020-08-21T10:49:47.000Z</time>
                <name>Trackpoint 226</name>
            </trkpt>
            <trkpt lat="49.8461536" lon="11.6078232">
                <ele>450.0</ele>
                <time>2020-08-21T10:49:49.000Z</time>
                <name>Trackpoint 227</name>
            </trkpt>
            <trkpt lat="49.8462176" lon="11.6077216">
                <ele>450.0</ele>
                <time>2020-08-21T10:49:51.000Z</time>
                <name>Trackpoint 228</name>
            </trkpt>
            <trkpt lat="49.8463296" lon="11.6077416">
                <ele>450.0</ele>
                <time>2020-08-21T10:49:54.000Z</time>
                <name>Trackpoint 229</name>
            </trkpt>
            <trkpt lat="49.8464416" lon="11.6077768">
                <ele>451.0</ele>
                <time>2020-08-21T10:49:57.000Z</time>
                <name>Trackpoint 230</name>
            </trkpt>
            <trkpt lat="49.84656" lon="11.6077608">
                <ele>451.0</ele>
                <time>2020-08-21T10:50:00.000Z</time>
                <name>Trackpoint 231</name>
            </trkpt>
            <trkpt lat="49.8466752" lon="11.6077032">
                <ele>451.0</ele>
                <time>2020-08-21T10:50:03.000Z</time>
                <name>Trackpoint 232</name>
            </trkpt>
            <trkpt lat="49.8467584" lon="11.6076432">
                <ele>452.0</ele>
                <time>2020-08-21T10:50:05.000Z</time>
                <name>Trackpoint 233</name>
            </trkpt>
            <trkpt lat="49.846864" lon="11.60758">
                <ele>452.0</ele>
                <time>2020-08-21T10:50:08.000Z</time>
                <name>Trackpoint 234</name>
            </trkpt>
            <trkpt lat="49.8469312" lon="11.6075184">
                <ele>453.0</ele>
                <time>2020-08-21T10:50:21.000Z</time>
                <name>Trackpoint 235</name>
            </trkpt>
            <trkpt lat="49.8470112" lon="11.6074384">
                <ele>454.0</ele>
                <time>2020-08-21T10:50:25.000Z</time>
                <name>Trackpoint 236</name>
            </trkpt>
            <trkpt lat="49.8471104" lon="11.6073648">
                <ele>454.0</ele>
                <time>2020-08-21T10:50:28.000Z</time>
                <name>Trackpoint 237</name>
            </trkpt>
            <trkpt lat="49.8472032" lon="11.607268">
                <ele>455.0</ele>
                <time>2020-08-21T10:50:31.000Z</time>
                <name>Trackpoint 238</name>
            </trkpt>
            <trkpt lat="49.8472672" lon="11.6071984">
                <ele>455.0</ele>
                <time>2020-08-21T10:50:33.000Z</time>
                <name>Trackpoint 239</name>
            </trkpt>
            <trkpt lat="49.847344" lon="11.6071232">
                <ele>456.0</ele>
                <time>2020-08-21T10:50:35.000Z</time>
                <name>Trackpoint 240</name>
            </trkpt>
            <trkpt lat="49.8474144" lon="11.6070432">
                <ele>456.0</ele>
                <time>2020-08-21T10:50:37.000Z</time>
                <name>Trackpoint 241</name>
            </trkpt>
            <trkpt lat="49.8474848" lon="11.6069496">
                <ele>456.0</ele>
                <time>2020-08-21T10:50:39.000Z</time>
                <name>Trackpoint 242</name>
            </trkpt>
            <trkpt lat="49.8475584" lon="11.6068536">
                <ele>457.0</ele>
                <time>2020-08-21T10:50:41.000Z</time>
                <name>Trackpoint 243</name>
            </trkpt>
            <trkpt lat="49.847632" lon="11.6067616">
                <ele>457.0</ele>
                <time>2020-08-21T10:50:43.000Z</time>
                <name>Trackpoint 244</name>
            </trkpt>
            <trkpt lat="49.8477088" lon="11.6066664">
                <ele>457.0</ele>
                <time>2020-08-21T10:50:45.000Z</time>
                <name>Trackpoint 245</name>
            </trkpt>
            <trkpt lat="49.8477824" lon="11.6065768">
                <ele>457.0</ele>
                <time>2020-08-21T10:50:47.000Z</time>
                <name>Trackpoint 246</name>
            </trkpt>
            <trkpt lat="49.8478592" lon="11.6064864">
                <ele>457.0</ele>
                <time>2020-08-21T10:50:49.000Z</time>
                <name>Trackpoint 247</name>
            </trkpt>
            <trkpt lat="49.847936" lon="11.6064016">
                <ele>457.0</ele>
                <time>2020-08-21T10:50:51.000Z</time>
                <name>Trackpoint 248</name>
            </trkpt>
            <trkpt lat="49.848016" lon="11.6063096">
                <ele>457.0</ele>
                <time>2020-08-21T10:50:53.000Z</time>
                <name>Trackpoint 249</name>
            </trkpt>
            <trkpt lat="49.8480896" lon="11.6062208">
                <ele>457.0</ele>
                <time>2020-08-21T10:50:55.000Z</time>
                <name>Trackpoint 250</name>
            </trkpt>
            <trkpt lat="49.84816" lon="11.6061384">
                <ele>457.0</ele>
                <time>2020-08-21T10:50:57.000Z</time>
                <name>Trackpoint 251</name>
            </trkpt>
            <trkpt lat="49.8482208" lon="11.60606">
                <ele>457.0</ele>
                <time>2020-08-21T10:50:59.000Z</time>
                <name>Trackpoint 252</name>
            </trkpt>
            <trkpt lat="49.8482656" lon="11.60598">
                <ele>458.0</ele>
                <time>2020-08-21T10:51:01.000Z</time>
                <name>Trackpoint 253</name>
            </trkpt>
            <trkpt lat="49.8483456" lon="11.6058968">
                <ele>457.0</ele>
                <time>2020-08-21T10:51:04.000Z</time>
                <name>Trackpoint 254</name>
            </trkpt>
            <trkpt lat="49.8484256" lon="11.6057984">
                <ele>457.0</ele>
                <time>2020-08-21T10:51:07.000Z</time>
                <name>Trackpoint 255</name>
            </trkpt>
            <trkpt lat="49.8484928" lon="11.6057328">
                <ele>458.0</ele>
                <time>2020-08-21T10:51:09.000Z</time>
                <name>Trackpoint 256</name>
            </trkpt>
            <trkpt lat="49.8485632" lon="11.6056616">
                <ele>458.0</ele>
                <time>2020-08-21T10:51:11.000Z</time>
                <name>Trackpoint 257</name>
            </trkpt>
            <trkpt lat="49.8486336" lon="11.60558">
                <ele>459.0</ele>
                <time>2020-08-21T10:51:13.000Z</time>
                <name>Trackpoint 258</name>
            </trkpt>
            <trkpt lat="49.8487008" lon="11.6054968">
                <ele>459.0</ele>
                <time>2020-08-21T10:51:15.000Z</time>
                <name>Trackpoint 259</name>
            </trkpt>
            <trkpt lat="49.8487744" lon="11.6054112">
                <ele>460.0</ele>
                <time>2020-08-21T10:51:17.000Z</time>
                <name>Trackpoint 260</name>
            </trkpt>
            <trkpt lat="49.848848" lon="11.6053288">
                <ele>460.0</ele>
                <time>2020-08-21T10:51:19.000Z</time>
                <name>Trackpoint 261</name>
            </trkpt>
            <trkpt lat="49.8489152" lon="11.605244">
                <ele>460.0</ele>
                <time>2020-08-21T10:51:21.000Z</time>
                <name>Trackpoint 262</name>
            </trkpt>
            <trkpt lat="49.8489888" lon="11.6051528">
                <ele>460.0</ele>
                <time>2020-08-21T10:51:23.000Z</time>
                <name>Trackpoint 263</name>
            </trkpt>
            <trkpt lat="49.8490592" lon="11.6050632">
                <ele>460.0</ele>
                <time>2020-08-21T10:51:25.000Z</time>
                <name>Trackpoint 264</name>
            </trkpt>
            <trkpt lat="49.8491392" lon="11.6049744">
                <ele>460.0</ele>
                <time>2020-08-21T10:51:27.000Z</time>
                <name>Trackpoint 265</name>
            </trkpt>
            <trkpt lat="49.8492064" lon="11.604892">
                <ele>460.0</ele>
                <time>2020-08-21T10:51:29.000Z</time>
                <name>Trackpoint 266</name>
            </trkpt>
            <trkpt lat="49.8492736" lon="11.604792">
                <ele>460.0</ele>
                <time>2020-08-21T10:51:31.000Z</time>
                <name>Trackpoint 267</name>
            </trkpt>
            <trkpt lat="49.849312" lon="11.604676">
                <ele>460.0</ele>
                <time>2020-08-21T10:51:33.000Z</time>
                <name>Trackpoint 268</name>
            </trkpt>
            <trkpt lat="49.8493376" lon="11.60456">
                <ele>460.0</ele>
                <time>2020-08-21T10:51:35.000Z</time>
                <name>Trackpoint 269</name>
            </trkpt>
            <trkpt lat="49.84936" lon="11.6044368">
                <ele>460.0</ele>
                <time>2020-08-21T10:51:37.000Z</time>
                <name>Trackpoint 270</name>
            </trkpt>
            <trkpt lat="49.8493696" lon="11.6043064">
                <ele>460.0</ele>
                <time>2020-08-21T10:51:39.000Z</time>
                <name>Trackpoint 271</name>
            </trkpt>
            <trkpt lat="49.849376" lon="11.6041768">
                <ele>460.0</ele>
                <time>2020-08-21T10:51:41.000Z</time>
                <name>Trackpoint 272</name>
            </trkpt>
            <trkpt lat="49.8493696" lon="11.6040512">
                <ele>460.0</ele>
                <time>2020-08-21T10:51:43.000Z</time>
                <name>Trackpoint 273</name>
            </trkpt>
            <trkpt lat="49.84936" lon="11.6039264">
                <ele>460.0</ele>
                <time>2020-08-21T10:51:45.000Z</time>
                <name>Trackpoint 274</name>
            </trkpt>
            <trkpt lat="49.8493536" lon="11.6037864">
                <ele>460.0</ele>
                <time>2020-08-21T10:51:47.000Z</time>
                <name>Trackpoint 275</name>
            </trkpt>
            <trkpt lat="49.8493504" lon="11.6036584">
                <ele>460.0</ele>
                <time>2020-08-21T10:51:49.000Z</time>
                <name>Trackpoint 276</name>
            </trkpt>
            <trkpt lat="49.84936" lon="11.6035248">
                <ele>460.0</ele>
                <time>2020-08-21T10:51:51.000Z</time>
                <name>Trackpoint 277</name>
            </trkpt>
            <trkpt lat="49.849376" lon="11.6033848">
                <ele>460.0</ele>
                <time>2020-08-21T10:51:53.000Z</time>
                <name>Trackpoint 278</name>
            </trkpt>
            <trkpt lat="49.8493952" lon="11.6032552">
                <ele>460.0</ele>
                <time>2020-08-21T10:51:55.000Z</time>
                <name>Trackpoint 279</name>
            </trkpt>
            <trkpt lat="49.8494112" lon="11.6031336">
                <ele>460.0</ele>
                <time>2020-08-21T10:51:57.000Z</time>
                <name>Trackpoint 280</name>
            </trkpt>
            <trkpt lat="49.8494528" lon="11.6030064">
                <ele>460.0</ele>
                <time>2020-08-21T10:51:59.000Z</time>
                <name>Trackpoint 281</name>
            </trkpt>
            <trkpt lat="49.8494944" lon="11.6028792">
                <ele>460.0</ele>
                <time>2020-08-21T10:52:01.000Z</time>
                <name>Trackpoint 282</name>
            </trkpt>
            <trkpt lat="49.8495392" lon="11.60276">
                <ele>460.0</ele>
                <time>2020-08-21T10:52:03.000Z</time>
                <name>Trackpoint 283</name>
            </trkpt>
            <trkpt lat="49.8495904" lon="11.6026352">
                <ele>460.0</ele>
                <time>2020-08-21T10:52:05.000Z</time>
                <name>Trackpoint 284</name>
            </trkpt>
            <trkpt lat="49.8496288" lon="11.6025152">
                <ele>460.0</ele>
                <time>2020-08-21T10:52:07.000Z</time>
                <name>Trackpoint 285</name>
            </trkpt>
            <trkpt lat="49.8496736" lon="11.6024048">
                <ele>460.0</ele>
                <time>2020-08-21T10:52:09.000Z</time>
                <name>Trackpoint 286</name>
            </trkpt>
            <trkpt lat="49.8497152" lon="11.6022968">
                <ele>460.0</ele>
                <time>2020-08-21T10:52:11.000Z</time>
                <name>Trackpoint 287</name>
            </trkpt>
            <trkpt lat="49.8497632" lon="11.6021944">
                <ele>460.0</ele>
                <time>2020-08-21T10:52:13.000Z</time>
                <name>Trackpoint 288</name>
            </trkpt>
            <trkpt lat="49.8498048" lon="11.6020968">
                <ele>460.0</ele>
                <time>2020-08-21T10:52:15.000Z</time>
                <name>Trackpoint 289</name>
            </trkpt>
            <trkpt lat="49.849856" lon="11.6020008">
                <ele>460.0</ele>
                <time>2020-08-21T10:52:17.000Z</time>
                <name>Trackpoint 290</name>
            </trkpt>
            <trkpt lat="49.8499168" lon="11.6018896">
                <ele>460.0</ele>
                <time>2020-08-21T10:52:19.000Z</time>
                <name>Trackpoint 291</name>
            </trkpt>
            <trkpt lat="49.8499712" lon="11.6017704">
                <ele>460.0</ele>
                <time>2020-08-21T10:52:21.000Z</time>
                <name>Trackpoint 292</name>
            </trkpt>
            <trkpt lat="49.8500352" lon="11.6016504">
                <ele>460.0</ele>
                <time>2020-08-21T10:52:23.000Z</time>
                <name>Trackpoint 293</name>
            </trkpt>
            <trkpt lat="49.8500992" lon="11.6015368">
                <ele>460.0</ele>
                <time>2020-08-21T10:52:25.000Z</time>
                <name>Trackpoint 294</name>
            </trkpt>
            <trkpt lat="49.8501504" lon="11.6014408">
                <ele>460.0</ele>
                <time>2020-08-21T10:52:27.000Z</time>
                <name>Trackpoint 295</name>
            </trkpt>
            <trkpt lat="49.8501888" lon="11.6013536">
                <ele>460.0</ele>
                <time>2020-08-21T10:52:29.000Z</time>
                <name>Trackpoint 296</name>
            </trkpt>
            <trkpt lat="49.8502336" lon="11.6012752">
                <ele>461.0</ele>
                <time>2020-08-21T10:52:31.000Z</time>
                <name>Trackpoint 297</name>
            </trkpt>
            <trkpt lat="49.850304" lon="11.6012">
                <ele>460.0</ele>
                <time>2020-08-21T10:52:33.000Z</time>
                <name>Trackpoint 298</name>
            </trkpt>
            <trkpt lat="49.8503616" lon="11.6010912">
                <ele>461.0</ele>
                <time>2020-08-21T10:52:36.000Z</time>
                <name>Trackpoint 299</name>
            </trkpt>
            <trkpt lat="49.8504256" lon="11.6009728">
                <ele>461.0</ele>
                <time>2020-08-21T10:52:39.000Z</time>
                <name>Trackpoint 300</name>
            </trkpt>
            <trkpt lat="49.8504672" lon="11.600888">
                <ele>461.0</ele>
                <time>2020-08-21T10:52:41.000Z</time>
                <name>Trackpoint 301</name>
            </trkpt>
            <trkpt lat="49.8505056" lon="11.6007984">
                <ele>461.0</ele>
                <time>2020-08-21T10:52:43.000Z</time>
                <name>Trackpoint 302</name>
            </trkpt>
            <trkpt lat="49.8505504" lon="11.6007">
                <ele>463.0</ele>
                <time>2020-08-21T10:52:45.000Z</time>
                <name>Trackpoint 303</name>
            </trkpt>
            <trkpt lat="49.850592" lon="11.600612">
                <ele>464.0</ele>
                <time>2020-08-21T10:52:47.000Z</time>
                <name>Trackpoint 304</name>
            </trkpt>
            <trkpt lat="49.8506272" lon="11.60052">
                <ele>464.0</ele>
                <time>2020-08-21T10:52:49.000Z</time>
                <name>Trackpoint 305</name>
            </trkpt>
            <trkpt lat="49.8506592" lon="11.6004336">
                <ele>464.0</ele>
                <time>2020-08-21T10:52:51.000Z</time>
                <name>Trackpoint 306</name>
            </trkpt>
            <trkpt lat="49.850688" lon="11.6003352">
                <ele>465.0</ele>
                <time>2020-08-21T10:52:53.000Z</time>
                <name>Trackpoint 307</name>
            </trkpt>
            <trkpt lat="49.85072" lon="11.6002368">
                <ele>465.0</ele>
                <time>2020-08-21T10:52:55.000Z</time>
                <name>Trackpoint 308</name>
            </trkpt>
            <trkpt lat="49.8507488" lon="11.6001352">
                <ele>466.0</ele>
                <time>2020-08-21T10:52:57.000Z</time>
                <name>Trackpoint 309</name>
            </trkpt>
            <trkpt lat="49.8507744" lon="11.6000472">
                <ele>467.0</ele>
                <time>2020-08-21T10:52:59.000Z</time>
                <name>Trackpoint 310</name>
            </trkpt>
            <trkpt lat="49.8507968" lon="11.5999536">
                <ele>468.0</ele>
                <time>2020-08-21T10:53:01.000Z</time>
                <name>Trackpoint 311</name>
            </trkpt>
            <trkpt lat="49.8508192" lon="11.5998552">
                <ele>468.0</ele>
                <time>2020-08-21T10:53:03.000Z</time>
                <name>Trackpoint 312</name>
            </trkpt>
            <trkpt lat="49.8508448" lon="11.5997616">
                <ele>468.0</ele>
                <time>2020-08-21T10:53:05.000Z</time>
                <name>Trackpoint 313</name>
            </trkpt>
            <trkpt lat="49.8508736" lon="11.5996688">
                <ele>469.0</ele>
                <time>2020-08-21T10:53:07.000Z</time>
                <name>Trackpoint 314</name>
            </trkpt>
            <trkpt lat="49.8509056" lon="11.5995776">
                <ele>469.0</ele>
                <time>2020-08-21T10:53:09.000Z</time>
                <name>Trackpoint 315</name>
            </trkpt>
            <trkpt lat="49.8509344" lon="11.5994864">
                <ele>469.0</ele>
                <time>2020-08-21T10:53:11.000Z</time>
                <name>Trackpoint 316</name>
            </trkpt>
            <trkpt lat="49.8509728" lon="11.5993992">
                <ele>470.0</ele>
                <time>2020-08-21T10:53:13.000Z</time>
                <name>Trackpoint 317</name>
            </trkpt>
            <trkpt lat="49.8510048" lon="11.599312">
                <ele>470.0</ele>
                <time>2020-08-21T10:53:15.000Z</time>
                <name>Trackpoint 318</name>
            </trkpt>
            <trkpt lat="49.8510432" lon="11.5992296">
                <ele>469.0</ele>
                <time>2020-08-21T10:53:17.000Z</time>
                <name>Trackpoint 319</name>
            </trkpt>
            <trkpt lat="49.8510848" lon="11.5991496">
                <ele>470.0</ele>
                <time>2020-08-21T10:53:19.000Z</time>
                <name>Trackpoint 320</name>
            </trkpt>
            <trkpt lat="49.8511456" lon="11.5990352">
                <ele>470.0</ele>
                <time>2020-08-21T10:53:22.000Z</time>
                <name>Trackpoint 321</name>
            </trkpt>
            <trkpt lat="49.8512128" lon="11.5989248">
                <ele>471.0</ele>
                <time>2020-08-21T10:53:25.000Z</time>
                <name>Trackpoint 322</name>
            </trkpt>
            <trkpt lat="49.85128" lon="11.5988232">
                <ele>471.0</ele>
                <time>2020-08-21T10:53:28.000Z</time>
                <name>Trackpoint 323</name>
            </trkpt>
            <trkpt lat="49.8513504" lon="11.598712">
                <ele>471.0</ele>
                <time>2020-08-21T10:53:31.000Z</time>
                <name>Trackpoint 324</name>
            </trkpt>
            <trkpt lat="49.8514208" lon="11.5986168">
                <ele>471.0</ele>
                <time>2020-08-21T10:53:34.000Z</time>
                <name>Trackpoint 325</name>
            </trkpt>
            <trkpt lat="49.8514944" lon="11.5985184">
                <ele>471.0</ele>
                <time>2020-08-21T10:53:37.000Z</time>
                <name>Trackpoint 326</name>
            </trkpt>
            <trkpt lat="49.8515776" lon="11.5984088">
                <ele>471.0</ele>
                <time>2020-08-21T10:53:40.000Z</time>
                <name>Trackpoint 327</name>
            </trkpt>
            <trkpt lat="49.8516352" lon="11.5983336">
                <ele>472.0</ele>
                <time>2020-08-21T10:53:42.000Z</time>
                <name>Trackpoint 328</name>
            </trkpt>
            <trkpt lat="49.851696" lon="11.5982512">
                <ele>472.0</ele>
                <time>2020-08-21T10:53:44.000Z</time>
                <name>Trackpoint 329</name>
            </trkpt>
            <trkpt lat="49.8517504" lon="11.598168">
                <ele>472.0</ele>
                <time>2020-08-21T10:53:46.000Z</time>
                <name>Trackpoint 330</name>
            </trkpt>
            <trkpt lat="49.851808" lon="11.5980832">
                <ele>472.0</ele>
                <time>2020-08-21T10:53:48.000Z</time>
                <name>Trackpoint 331</name>
            </trkpt>
            <trkpt lat="49.8518592" lon="11.5979952">
                <ele>473.0</ele>
                <time>2020-08-21T10:53:50.000Z</time>
                <name>Trackpoint 332</name>
            </trkpt>
            <trkpt lat="49.8519168" lon="11.5979048">
                <ele>473.0</ele>
                <time>2020-08-21T10:53:52.000Z</time>
                <name>Trackpoint 333</name>
            </trkpt>
            <trkpt lat="49.8519712" lon="11.5978144">
                <ele>473.0</ele>
                <time>2020-08-21T10:53:54.000Z</time>
                <name>Trackpoint 334</name>
            </trkpt>
            <trkpt lat="49.8520288" lon="11.5977272">
                <ele>473.0</ele>
                <time>2020-08-21T10:53:56.000Z</time>
                <name>Trackpoint 335</name>
            </trkpt>
            <trkpt lat="49.8520768" lon="11.597636">
                <ele>473.0</ele>
                <time>2020-08-21T10:53:58.000Z</time>
                <name>Trackpoint 336</name>
            </trkpt>
            <trkpt lat="49.8521248" lon="11.5975416">
                <ele>473.0</ele>
                <time>2020-08-21T10:54:00.000Z</time>
                <name>Trackpoint 337</name>
            </trkpt>
            <trkpt lat="49.8521568" lon="11.5974352">
                <ele>473.0</ele>
                <time>2020-08-21T10:54:02.000Z</time>
                <name>Trackpoint 338</name>
            </trkpt>
            <trkpt lat="49.85216" lon="11.5973184">
                <ele>474.0</ele>
                <time>2020-08-21T10:54:04.000Z</time>
                <name>Trackpoint 339</name>
            </trkpt>
            <trkpt lat="49.8521376" lon="11.5971968">
                <ele>473.0</ele>
                <time>2020-08-21T10:54:06.000Z</time>
                <name>Trackpoint 340</name>
            </trkpt>
            <trkpt lat="49.852112" lon="11.5970752">
                <ele>474.0</ele>
                <time>2020-08-21T10:54:08.000Z</time>
                <name>Trackpoint 341</name>
            </trkpt>
            <trkpt lat="49.8520896" lon="11.5969512">
                <ele>474.0</ele>
                <time>2020-08-21T10:54:10.000Z</time>
                <name>Trackpoint 342</name>
            </trkpt>
            <trkpt lat="49.8520672" lon="11.5968248">
                <ele>474.0</ele>
                <time>2020-08-21T10:54:12.000Z</time>
                <name>Trackpoint 343</name>
            </trkpt>
            <trkpt lat="49.8520416" lon="11.5967">
                <ele>474.0</ele>
                <time>2020-08-21T10:54:14.000Z</time>
                <name>Trackpoint 344</name>
            </trkpt>
            <trkpt lat="49.852016" lon="11.5965928">
                <ele>474.0</ele>
                <time>2020-08-21T10:54:16.000Z</time>
                <name>Trackpoint 345</name>
            </trkpt>
            <trkpt lat="49.852" lon="11.596532">
                <ele>473.0</ele>
                <time>2020-08-21T10:55:35.000Z</time>
                <name>Trackpoint 346</name>
            </trkpt>
            <trkpt lat="49.8519936" lon="11.5964032">
                <ele>473.0</ele>
                <time>2020-08-21T10:55:40.000Z</time>
                <name>Trackpoint 347</name>
            </trkpt>
            <trkpt lat="49.8519712" lon="11.5963032">
                <ele>473.0</ele>
                <time>2020-08-21T10:55:42.000Z</time>
                <name>Trackpoint 348</name>
            </trkpt>
            <trkpt lat="49.8519552" lon="11.5961912">
                <ele>473.0</ele>
                <time>2020-08-21T10:55:44.000Z</time>
                <name>Trackpoint 349</name>
            </trkpt>
            <trkpt lat="49.8519328" lon="11.5960704">
                <ele>474.0</ele>
                <time>2020-08-21T10:55:46.000Z</time>
                <name>Trackpoint 350</name>
            </trkpt>
            <trkpt lat="49.8519136" lon="11.59594">
                <ele>474.0</ele>
                <time>2020-08-21T10:55:48.000Z</time>
                <name>Trackpoint 351</name>
            </trkpt>
            <trkpt lat="49.8518944" lon="11.5958136">
                <ele>473.0</ele>
                <time>2020-08-21T10:55:50.000Z</time>
                <name>Trackpoint 352</name>
            </trkpt>
            <trkpt lat="49.8518752" lon="11.5956832">
                <ele>473.0</ele>
                <time>2020-08-21T10:55:52.000Z</time>
                <name>Trackpoint 353</name>
            </trkpt>
            <trkpt lat="49.8518496" lon="11.5955488">
                <ele>473.0</ele>
                <time>2020-08-21T10:55:54.000Z</time>
                <name>Trackpoint 354</name>
            </trkpt>
            <trkpt lat="49.8518208" lon="11.59542">
                <ele>473.0</ele>
                <time>2020-08-21T10:55:56.000Z</time>
                <name>Trackpoint 355</name>
            </trkpt>
            <trkpt lat="49.8517984" lon="11.5952952">
                <ele>473.0</ele>
                <time>2020-08-21T10:55:58.000Z</time>
                <name>Trackpoint 356</name>
            </trkpt>
            <trkpt lat="49.8517888" lon="11.5951664">
                <ele>473.0</ele>
                <time>2020-08-21T10:56:00.000Z</time>
                <name>Trackpoint 357</name>
            </trkpt>
            <trkpt lat="49.8517696" lon="11.5950248">
                <ele>474.0</ele>
                <time>2020-08-21T10:56:02.000Z</time>
                <name>Trackpoint 358</name>
            </trkpt>
            <trkpt lat="49.8517632" lon="11.5948864">
                <ele>474.0</ele>
                <time>2020-08-21T10:56:04.000Z</time>
                <name>Trackpoint 359</name>
            </trkpt>
            <trkpt lat="49.8517792" lon="11.594744">
                <ele>475.0</ele>
                <time>2020-08-21T10:56:06.000Z</time>
                <name>Trackpoint 360</name>
            </trkpt>
            <trkpt lat="49.851808" lon="11.594608">
                <ele>475.0</ele>
                <time>2020-08-21T10:56:08.000Z</time>
                <name>Trackpoint 361</name>
            </trkpt>
            <trkpt lat="49.8518304" lon="11.5944728">
                <ele>475.0</ele>
                <time>2020-08-21T10:56:10.000Z</time>
                <name>Trackpoint 362</name>
            </trkpt>
            <trkpt lat="49.8518528" lon="11.5943344">
                <ele>476.0</ele>
                <time>2020-08-21T10:56:12.000Z</time>
                <name>Trackpoint 363</name>
            </trkpt>
            <trkpt lat="49.8518752" lon="11.594196">
                <ele>476.0</ele>
                <time>2020-08-21T10:56:14.000Z</time>
                <name>Trackpoint 364</name>
            </trkpt>
            <trkpt lat="49.8518976" lon="11.59406">
                <ele>476.0</ele>
                <time>2020-08-21T10:56:16.000Z</time>
                <name>Trackpoint 365</name>
            </trkpt>
            <trkpt lat="49.8519264" lon="11.5939216">
                <ele>476.0</ele>
                <time>2020-08-21T10:56:18.000Z</time>
                <name>Trackpoint 366</name>
            </trkpt>
            <trkpt lat="49.8519424" lon="11.5937864">
                <ele>476.0</ele>
                <time>2020-08-21T10:56:20.000Z</time>
                <name>Trackpoint 367</name>
            </trkpt>
            <trkpt lat="49.851968" lon="11.593652">
                <ele>476.0</ele>
                <time>2020-08-21T10:56:22.000Z</time>
                <name>Trackpoint 368</name>
            </trkpt>
            <trkpt lat="49.8519936" lon="11.593516">
                <ele>477.0</ele>
                <time>2020-08-21T10:56:24.000Z</time>
                <name>Trackpoint 369</name>
            </trkpt>
            <trkpt lat="49.8520128" lon="11.5933848">
                <ele>477.0</ele>
                <time>2020-08-21T10:56:26.000Z</time>
                <name>Trackpoint 370</name>
            </trkpt>
            <trkpt lat="49.8520352" lon="11.5932552">
                <ele>477.0</ele>
                <time>2020-08-21T10:56:28.000Z</time>
                <name>Trackpoint 371</name>
            </trkpt>
            <trkpt lat="49.8520576" lon="11.5931232">
                <ele>478.0</ele>
                <time>2020-08-21T10:56:30.000Z</time>
                <name>Trackpoint 372</name>
            </trkpt>
            <trkpt lat="49.85208" lon="11.5929896">
                <ele>478.0</ele>
                <time>2020-08-21T10:56:32.000Z</time>
                <name>Trackpoint 373</name>
            </trkpt>
            <trkpt lat="49.8521056" lon="11.5928568">
                <ele>479.0</ele>
                <time>2020-08-21T10:56:34.000Z</time>
                <name>Trackpoint 374</name>
            </trkpt>
            <trkpt lat="49.852128" lon="11.5927216">
                <ele>479.0</ele>
                <time>2020-08-21T10:56:36.000Z</time>
                <name>Trackpoint 375</name>
            </trkpt>
            <trkpt lat="49.8521504" lon="11.5925864">
                <ele>479.0</ele>
                <time>2020-08-21T10:56:38.000Z</time>
                <name>Trackpoint 376</name>
            </trkpt>
            <trkpt lat="49.8521696" lon="11.5924528">
                <ele>480.0</ele>
                <time>2020-08-21T10:56:40.000Z</time>
                <name>Trackpoint 377</name>
            </trkpt>
            <trkpt lat="49.852192" lon="11.5923272">
                <ele>480.0</ele>
                <time>2020-08-21T10:56:42.000Z</time>
                <name>Trackpoint 378</name>
            </trkpt>
            <trkpt lat="49.8522144" lon="11.5922">
                <ele>480.0</ele>
                <time>2020-08-21T10:56:44.000Z</time>
                <name>Trackpoint 379</name>
            </trkpt>
            <trkpt lat="49.8522336" lon="11.5920736">
                <ele>480.0</ele>
                <time>2020-08-21T10:56:46.000Z</time>
                <name>Trackpoint 380</name>
            </trkpt>
            <trkpt lat="49.8522528" lon="11.5919448">
                <ele>480.0</ele>
                <time>2020-08-21T10:56:48.000Z</time>
                <name>Trackpoint 381</name>
            </trkpt>
            <trkpt lat="49.8522752" lon="11.59182">
                <ele>480.0</ele>
                <time>2020-08-21T10:56:50.000Z</time>
                <name>Trackpoint 382</name>
            </trkpt>
            <trkpt lat="49.8522944" lon="11.5916984">
                <ele>481.0</ele>
                <time>2020-08-21T10:56:52.000Z</time>
                <name>Trackpoint 383</name>
            </trkpt>
            <trkpt lat="49.8523168" lon="11.591572">
                <ele>481.0</ele>
                <time>2020-08-21T10:56:54.000Z</time>
                <name>Trackpoint 384</name>
            </trkpt>
            <trkpt lat="49.852336" lon="11.5914472">
                <ele>481.0</ele>
                <time>2020-08-21T10:56:56.000Z</time>
                <name>Trackpoint 385</name>
            </trkpt>
            <trkpt lat="49.8523552" lon="11.5913232">
                <ele>482.0</ele>
                <time>2020-08-21T10:56:58.000Z</time>
                <name>Trackpoint 386</name>
            </trkpt>
            <trkpt lat="49.8523744" lon="11.5911976">
                <ele>482.0</ele>
                <time>2020-08-21T10:57:00.000Z</time>
                <name>Trackpoint 387</name>
            </trkpt>
            <trkpt lat="49.8523968" lon="11.5910768">
                <ele>483.0</ele>
                <time>2020-08-21T10:57:02.000Z</time>
                <name>Trackpoint 388</name>
            </trkpt>
            <trkpt lat="49.852416" lon="11.5909584">
                <ele>483.0</ele>
                <time>2020-08-21T10:57:04.000Z</time>
                <name>Trackpoint 389</name>
            </trkpt>
            <trkpt lat="49.8524384" lon="11.5908368">
                <ele>483.0</ele>
                <time>2020-08-21T10:57:06.000Z</time>
                <name>Trackpoint 390</name>
            </trkpt>
            <trkpt lat="49.8524576" lon="11.59072">
                <ele>484.0</ele>
                <time>2020-08-21T10:57:08.000Z</time>
                <name>Trackpoint 391</name>
            </trkpt>
            <trkpt lat="49.8524768" lon="11.5906016">
                <ele>484.0</ele>
                <time>2020-08-21T10:57:10.000Z</time>
                <name>Trackpoint 392</name>
            </trkpt>
            <trkpt lat="49.852496" lon="11.590484">
                <ele>484.0</ele>
                <time>2020-08-21T10:57:12.000Z</time>
                <name>Trackpoint 393</name>
            </trkpt>
            <trkpt lat="49.8525152" lon="11.590368">
                <ele>484.0</ele>
                <time>2020-08-21T10:57:14.000Z</time>
                <name>Trackpoint 394</name>
            </trkpt>
            <trkpt lat="49.8525312" lon="11.5902544">
                <ele>484.0</ele>
                <time>2020-08-21T10:57:16.000Z</time>
                <name>Trackpoint 395</name>
            </trkpt>
            <trkpt lat="49.8525504" lon="11.5901432">
                <ele>484.0</ele>
                <time>2020-08-21T10:57:18.000Z</time>
                <name>Trackpoint 396</name>
            </trkpt>
            <trkpt lat="49.8525696" lon="11.5900384">
                <ele>485.0</ele>
                <time>2020-08-21T10:57:20.000Z</time>
                <name>Trackpoint 397</name>
            </trkpt>
            <trkpt lat="49.8525856" lon="11.5899352">
                <ele>485.0</ele>
                <time>2020-08-21T10:57:22.000Z</time>
                <name>Trackpoint 398</name>
            </trkpt>
            <trkpt lat="49.8526016" lon="11.5898336">
                <ele>485.0</ele>
                <time>2020-08-21T10:57:24.000Z</time>
                <name>Trackpoint 399</name>
            </trkpt>
            <trkpt lat="49.8526176" lon="11.5897328">
                <ele>485.0</ele>
                <time>2020-08-21T10:57:26.000Z</time>
                <name>Trackpoint 400</name>
            </trkpt>
            <trkpt lat="49.8526336" lon="11.5896384">
                <ele>485.0</ele>
                <time>2020-08-21T10:57:28.000Z</time>
                <name>Trackpoint 401</name>
            </trkpt>
            <trkpt lat="49.8526528" lon="11.5895456">
                <ele>485.0</ele>
                <time>2020-08-21T10:57:30.000Z</time>
                <name>Trackpoint 402</name>
            </trkpt>
            <trkpt lat="49.8526688" lon="11.5894496">
                <ele>485.0</ele>
                <time>2020-08-21T10:57:32.000Z</time>
                <name>Trackpoint 403</name>
            </trkpt>
            <trkpt lat="49.8526816" lon="11.5893584">
                <ele>485.0</ele>
                <time>2020-08-21T10:57:34.000Z</time>
                <name>Trackpoint 404</name>
            </trkpt>
            <trkpt lat="49.8526368" lon="11.5892552">
                <ele>484.0</ele>
                <time>2020-08-21T10:57:37.000Z</time>
                <name>Trackpoint 405</name>
            </trkpt>
            <trkpt lat="49.852544" lon="11.5892152">
                <ele>484.0</ele>
                <time>2020-08-21T10:57:40.000Z</time>
                <name>Trackpoint 406</name>
            </trkpt>
            <trkpt lat="49.852416" lon="11.5892064">
                <ele>485.0</ele>
                <time>2020-08-21T10:57:43.000Z</time>
                <name>Trackpoint 407</name>
            </trkpt>
            <trkpt lat="49.8522912" lon="11.5891848">
                <ele>485.0</ele>
                <time>2020-08-21T10:57:46.000Z</time>
                <name>Trackpoint 408</name>
            </trkpt>
            <trkpt lat="49.8521568" lon="11.5891736">
                <ele>485.0</ele>
                <time>2020-08-21T10:57:49.000Z</time>
                <name>Trackpoint 409</name>
            </trkpt>
            <trkpt lat="49.8520608" lon="11.5891712">
                <ele>485.0</ele>
                <time>2020-08-21T10:57:51.000Z</time>
                <name>Trackpoint 410</name>
            </trkpt>
            <trkpt lat="49.8519328" lon="11.5891664">
                <ele>485.0</ele>
                <time>2020-08-21T10:57:54.000Z</time>
                <name>Trackpoint 411</name>
            </trkpt>
            <trkpt lat="49.851792" lon="11.5891536">
                <ele>485.0</ele>
                <time>2020-08-21T10:57:57.000Z</time>
                <name>Trackpoint 412</name>
            </trkpt>
            <trkpt lat="49.8516832" lon="11.5891384">
                <ele>485.0</ele>
                <time>2020-08-21T10:57:59.000Z</time>
                <name>Trackpoint 413</name>
            </trkpt>
            <trkpt lat="49.8515808" lon="11.5891248">
                <ele>485.0</ele>
                <time>2020-08-21T10:58:01.000Z</time>
                <name>Trackpoint 414</name>
            </trkpt>
            <trkpt lat="49.8514784" lon="11.5891152">
                <ele>485.0</ele>
                <time>2020-08-21T10:58:03.000Z</time>
                <name>Trackpoint 415</name>
            </trkpt>
            <trkpt lat="49.851376" lon="11.5891016">
                <ele>485.0</ele>
                <time>2020-08-21T10:58:05.000Z</time>
                <name>Trackpoint 416</name>
            </trkpt>
            <trkpt lat="49.85128" lon="11.5890904">
                <ele>486.0</ele>
                <time>2020-08-21T10:58:07.000Z</time>
                <name>Trackpoint 417</name>
            </trkpt>
            <trkpt lat="49.8511776" lon="11.5890768">
                <ele>486.0</ele>
                <time>2020-08-21T10:58:09.000Z</time>
                <name>Trackpoint 418</name>
            </trkpt>
            <trkpt lat="49.851072" lon="11.5890728">
                <ele>486.0</ele>
                <time>2020-08-21T10:58:11.000Z</time>
                <name>Trackpoint 419</name>
            </trkpt>
            <trkpt lat="49.8509664" lon="11.5890616">
                <ele>486.0</ele>
                <time>2020-08-21T10:58:13.000Z</time>
                <name>Trackpoint 420</name>
            </trkpt>
            <trkpt lat="49.8508576" lon="11.589064">
                <ele>486.0</ele>
                <time>2020-08-21T10:58:15.000Z</time>
                <name>Trackpoint 421</name>
            </trkpt>
            <trkpt lat="49.8507456" lon="11.5890616">
                <ele>486.0</ele>
                <time>2020-08-21T10:58:17.000Z</time>
                <name>Trackpoint 422</name>
            </trkpt>
            <trkpt lat="49.850656" lon="11.5890528">
                <ele>486.0</ele>
                <time>2020-08-21T10:58:19.000Z</time>
                <name>Trackpoint 423</name>
            </trkpt>
            <trkpt lat="49.8506176" lon="11.58892">
                <ele>486.0</ele>
                <time>2020-08-21T10:58:22.000Z</time>
                <name>Trackpoint 424</name>
            </trkpt>
            <trkpt lat="49.8506176" lon="11.5888144">
                <ele>486.0</ele>
                <time>2020-08-21T10:58:24.000Z</time>
                <name>Trackpoint 425</name>
            </trkpt>
            <trkpt lat="49.8506176" lon="11.5887096">
                <ele>486.0</ele>
                <time>2020-08-21T10:58:26.000Z</time>
                <name>Trackpoint 426</name>
            </trkpt>
            <trkpt lat="49.8506176" lon="11.5886096">
                <ele>486.0</ele>
                <time>2020-08-21T10:58:28.000Z</time>
                <name>Trackpoint 427</name>
            </trkpt>
            <trkpt lat="49.8506208" lon="11.5885064">
                <ele>486.0</ele>
                <time>2020-08-21T10:58:30.000Z</time>
                <name>Trackpoint 428</name>
            </trkpt>
            <trkpt lat="49.8506112" lon="11.5884064">
                <ele>487.0</ele>
                <time>2020-08-21T10:58:32.000Z</time>
                <name>Trackpoint 429</name>
            </trkpt>
            <trkpt lat="49.850608" lon="11.5883016">
                <ele>487.0</ele>
                <time>2020-08-21T10:58:34.000Z</time>
                <name>Trackpoint 430</name>
            </trkpt>
            <trkpt lat="49.850608" lon="11.5882016">
                <ele>487.0</ele>
                <time>2020-08-21T10:58:36.000Z</time>
                <name>Trackpoint 431</name>
            </trkpt>
            <trkpt lat="49.8506112" lon="11.5880968">
                <ele>487.0</ele>
                <time>2020-08-21T10:58:38.000Z</time>
                <name>Trackpoint 432</name>
            </trkpt>
            <trkpt lat="49.8506112" lon="11.5879872">
                <ele>487.0</ele>
                <time>2020-08-21T10:58:40.000Z</time>
                <name>Trackpoint 433</name>
            </trkpt>
            <trkpt lat="49.8506048" lon="11.5878736">
                <ele>487.0</ele>
                <time>2020-08-21T10:58:42.000Z</time>
                <name>Trackpoint 434</name>
            </trkpt>
            <trkpt lat="49.8506048" lon="11.5877584">
                <ele>487.0</ele>
                <time>2020-08-21T10:58:44.000Z</time>
                <name>Trackpoint 435</name>
            </trkpt>
            <trkpt lat="49.8506016" lon="11.587644">
                <ele>487.0</ele>
                <time>2020-08-21T10:58:46.000Z</time>
                <name>Trackpoint 436</name>
            </trkpt>
            <trkpt lat="49.8505888" lon="11.587532">
                <ele>487.0</ele>
                <time>2020-08-21T10:58:48.000Z</time>
                <name>Trackpoint 437</name>
            </trkpt>
            <trkpt lat="49.8505792" lon="11.5874208">
                <ele>487.0</ele>
                <time>2020-08-21T10:58:50.000Z</time>
                <name>Trackpoint 438</name>
            </trkpt>
            <trkpt lat="49.8505664" lon="11.5873048">
                <ele>487.0</ele>
                <time>2020-08-21T10:58:52.000Z</time>
                <name>Trackpoint 439</name>
            </trkpt>
            <trkpt lat="49.85056" lon="11.5871888">
                <ele>487.0</ele>
                <time>2020-08-21T10:58:54.000Z</time>
                <name>Trackpoint 440</name>
            </trkpt>
            <trkpt lat="49.8505408" lon="11.5870784">
                <ele>487.0</ele>
                <time>2020-08-21T10:58:56.000Z</time>
                <name>Trackpoint 441</name>
            </trkpt>
            <trkpt lat="49.8505248" lon="11.58696">
                <ele>487.0</ele>
                <time>2020-08-21T10:58:58.000Z</time>
                <name>Trackpoint 442</name>
            </trkpt>
            <trkpt lat="49.8505024" lon="11.5868264">
                <ele>488.0</ele>
                <time>2020-08-21T10:59:00.000Z</time>
                <name>Trackpoint 443</name>
            </trkpt>
            <trkpt lat="49.8504672" lon="11.5866848">
                <ele>488.0</ele>
                <time>2020-08-21T10:59:02.000Z</time>
                <name>Trackpoint 444</name>
            </trkpt>
            <trkpt lat="49.8504224" lon="11.5865424">
                <ele>488.0</ele>
                <time>2020-08-21T10:59:04.000Z</time>
                <name>Trackpoint 445</name>
            </trkpt>
            <trkpt lat="49.850368" lon="11.5864016">
                <ele>488.0</ele>
                <time>2020-08-21T10:59:06.000Z</time>
                <name>Trackpoint 446</name>
            </trkpt>
            <trkpt lat="49.8503104" lon="11.5862576">
                <ele>488.0</ele>
                <time>2020-08-21T10:59:08.000Z</time>
                <name>Trackpoint 447</name>
            </trkpt>
            <trkpt lat="49.8502592" lon="11.5861152">
                <ele>488.0</ele>
                <time>2020-08-21T10:59:10.000Z</time>
                <name>Trackpoint 448</name>
            </trkpt>
            <trkpt lat="49.850208" lon="11.5859736">
                <ele>488.0</ele>
                <time>2020-08-21T10:59:12.000Z</time>
                <name>Trackpoint 449</name>
            </trkpt>
            <trkpt lat="49.8501632" lon="11.5858336">
                <ele>488.0</ele>
                <time>2020-08-21T10:59:14.000Z</time>
                <name>Trackpoint 450</name>
            </trkpt>
            <trkpt lat="49.850112" lon="11.5856952">
                <ele>488.0</ele>
                <time>2020-08-21T10:59:16.000Z</time>
                <name>Trackpoint 451</name>
            </trkpt>
            <trkpt lat="49.850064" lon="11.5855528">
                <ele>488.0</ele>
                <time>2020-08-21T10:59:18.000Z</time>
                <name>Trackpoint 452</name>
            </trkpt>
            <trkpt lat="49.8500224" lon="11.585412">
                <ele>489.0</ele>
                <time>2020-08-21T10:59:20.000Z</time>
                <name>Trackpoint 453</name>
            </trkpt>
            <trkpt lat="49.8499712" lon="11.5852768">
                <ele>489.0</ele>
                <time>2020-08-21T10:59:22.000Z</time>
                <name>Trackpoint 454</name>
            </trkpt>
            <trkpt lat="49.8499264" lon="11.5851496">
                <ele>488.0</ele>
                <time>2020-08-21T10:59:24.000Z</time>
                <name>Trackpoint 455</name>
            </trkpt>
            <trkpt lat="49.849888" lon="11.5850416">
                <ele>488.0</ele>
                <time>2020-08-21T10:59:26.000Z</time>
                <name>Trackpoint 456</name>
            </trkpt>
            <trkpt lat="49.8498496" lon="11.5849368">
                <ele>488.0</ele>
                <time>2020-08-21T10:59:28.000Z</time>
                <name>Trackpoint 457</name>
            </trkpt>
            <trkpt lat="49.8498336" lon="11.5848352">
                <ele>488.0</ele>
                <time>2020-08-21T10:59:30.000Z</time>
                <name>Trackpoint 458</name>
            </trkpt>
            <trkpt lat="49.8498144" lon="11.5847352">
                <ele>488.0</ele>
                <time>2020-08-21T10:59:32.000Z</time>
                <name>Trackpoint 459</name>
            </trkpt>
            <trkpt lat="49.8498016" lon="11.5846416">
                <ele>488.0</ele>
                <time>2020-08-21T10:59:34.000Z</time>
                <name>Trackpoint 460</name>
            </trkpt>
            <trkpt lat="49.8497728" lon="11.5845168">
                <ele>488.0</ele>
                <time>2020-08-21T10:59:37.000Z</time>
                <name>Trackpoint 461</name>
            </trkpt>
            <trkpt lat="49.8497312" lon="11.5844296">
                <ele>487.0</ele>
                <time>2020-08-21T10:59:39.000Z</time>
                <name>Trackpoint 462</name>
            </trkpt>
            <trkpt lat="49.8496896" lon="11.5843384">
                <ele>487.0</ele>
                <time>2020-08-21T10:59:41.000Z</time>
                <name>Trackpoint 463</name>
            </trkpt>
            <trkpt lat="49.849648" lon="11.5842464">
                <ele>487.0</ele>
                <time>2020-08-21T10:59:43.000Z</time>
                <name>Trackpoint 464</name>
            </trkpt>
            <trkpt lat="49.8496096" lon="11.5841616">
                <ele>487.0</ele>
                <time>2020-08-21T10:59:45.000Z</time>
                <name>Trackpoint 465</name>
            </trkpt>
            <trkpt lat="49.8495744" lon="11.5840784">
                <ele>487.0</ele>
                <time>2020-08-21T10:59:47.000Z</time>
                <name>Trackpoint 466</name>
            </trkpt>
            <trkpt lat="49.849536" lon="11.5839856">
                <ele>487.0</ele>
                <time>2020-08-21T10:59:49.000Z</time>
                <name>Trackpoint 467</name>
            </trkpt>
            <trkpt lat="49.8494912" lon="11.5838544">
                <ele>487.0</ele>
                <time>2020-08-21T10:59:52.000Z</time>
                <name>Trackpoint 468</name>
            </trkpt>
            <trkpt lat="49.84944" lon="11.5837272">
                <ele>487.0</ele>
                <time>2020-08-21T10:59:55.000Z</time>
                <name>Trackpoint 469</name>
            </trkpt>
            <trkpt lat="49.8494048" lon="11.5836296">
                <ele>487.0</ele>
                <time>2020-08-21T10:59:57.000Z</time>
                <name>Trackpoint 470</name>
            </trkpt>
            <trkpt lat="49.849376" lon="11.5835336">
                <ele>487.0</ele>
                <time>2020-08-21T10:59:59.000Z</time>
                <name>Trackpoint 471</name>
            </trkpt>
            <trkpt lat="49.8493408" lon="11.583444">
                <ele>487.0</ele>
                <time>2020-08-21T11:00:01.000Z</time>
                <name>Trackpoint 472</name>
            </trkpt>
            <trkpt lat="49.8493152" lon="11.583348">
                <ele>487.0</ele>
                <time>2020-08-21T11:00:03.000Z</time>
                <name>Trackpoint 473</name>
            </trkpt>
            <trkpt lat="49.8492768" lon="11.5832344">
                <ele>487.0</ele>
                <time>2020-08-21T11:00:06.000Z</time>
                <name>Trackpoint 474</name>
            </trkpt>
            <trkpt lat="49.8492416" lon="11.583132">
                <ele>487.0</ele>
                <time>2020-08-21T11:00:08.000Z</time>
                <name>Trackpoint 475</name>
            </trkpt>
            <trkpt lat="49.8492" lon="11.583016">
                <ele>487.0</ele>
                <time>2020-08-21T11:00:10.000Z</time>
                <name>Trackpoint 476</name>
            </trkpt>
            <trkpt lat="49.8491744" lon="11.582916">
                <ele>487.0</ele>
                <time>2020-08-21T11:00:12.000Z</time>
                <name>Trackpoint 477</name>
            </trkpt>
            <trkpt lat="49.849152" lon="11.582824">
                <ele>488.0</ele>
                <time>2020-08-21T11:00:14.000Z</time>
                <name>Trackpoint 478</name>
            </trkpt>
            <trkpt lat="49.8491136" lon="11.5827048">
                <ele>488.0</ele>
                <time>2020-08-21T11:00:16.000Z</time>
                <name>Trackpoint 479</name>
            </trkpt>
            <trkpt lat="49.849072" lon="11.5825856">
                <ele>488.0</ele>
                <time>2020-08-21T11:00:18.000Z</time>
                <name>Trackpoint 480</name>
            </trkpt>
            <trkpt lat="49.8490432" lon="11.5824616">
                <ele>489.0</ele>
                <time>2020-08-21T11:00:20.000Z</time>
                <name>Trackpoint 481</name>
            </trkpt>
            <trkpt lat="49.8490176" lon="11.582312">
                <ele>489.0</ele>
                <time>2020-08-21T11:00:22.000Z</time>
                <name>Trackpoint 482</name>
            </trkpt>
            <trkpt lat="49.8490016" lon="11.5821552">
                <ele>489.0</ele>
                <time>2020-08-21T11:00:24.000Z</time>
                <name>Trackpoint 483</name>
            </trkpt>
            <trkpt lat="49.848992" lon="11.5820064">
                <ele>489.0</ele>
                <time>2020-08-21T11:00:26.000Z</time>
                <name>Trackpoint 484</name>
            </trkpt>
            <trkpt lat="49.848976" lon="11.5818616">
                <ele>489.0</ele>
                <time>2020-08-21T11:00:28.000Z</time>
                <name>Trackpoint 485</name>
            </trkpt>
            <trkpt lat="49.84896" lon="11.5817">
                <ele>489.0</ele>
                <time>2020-08-21T11:00:30.000Z</time>
                <name>Trackpoint 486</name>
            </trkpt>
            <trkpt lat="49.8489536" lon="11.5815448">
                <ele>489.0</ele>
                <time>2020-08-21T11:00:32.000Z</time>
                <name>Trackpoint 487</name>
            </trkpt>
            <trkpt lat="49.8489504" lon="11.5813968">
                <ele>489.0</ele>
                <time>2020-08-21T11:00:34.000Z</time>
                <name>Trackpoint 488</name>
            </trkpt>
            <trkpt lat="49.8489376" lon="11.58126">
                <ele>489.0</ele>
                <time>2020-08-21T11:00:36.000Z</time>
                <name>Trackpoint 489</name>
            </trkpt>
            <trkpt lat="49.8489344" lon="11.5811304">
                <ele>489.0</ele>
                <time>2020-08-21T11:00:38.000Z</time>
                <name>Trackpoint 490</name>
            </trkpt>
            <trkpt lat="49.848928" lon="11.5809968">
                <ele>489.0</ele>
                <time>2020-08-21T11:00:40.000Z</time>
                <name>Trackpoint 491</name>
            </trkpt>
            <trkpt lat="49.8489088" lon="11.5808688">
                <ele>489.0</ele>
                <time>2020-08-21T11:00:42.000Z</time>
                <name>Trackpoint 492</name>
            </trkpt>
            <trkpt lat="49.848896" lon="11.580744">
                <ele>489.0</ele>
                <time>2020-08-21T11:00:44.000Z</time>
                <name>Trackpoint 493</name>
            </trkpt>
            <trkpt lat="49.8488896" lon="11.5806152">
                <ele>490.0</ele>
                <time>2020-08-21T11:00:46.000Z</time>
                <name>Trackpoint 494</name>
            </trkpt>
            <trkpt lat="49.8488896" lon="11.5804832">
                <ele>490.0</ele>
                <time>2020-08-21T11:00:48.000Z</time>
                <name>Trackpoint 495</name>
            </trkpt>
            <trkpt lat="49.8488896" lon="11.5803448">
                <ele>490.0</ele>
                <time>2020-08-21T11:00:50.000Z</time>
                <name>Trackpoint 496</name>
            </trkpt>
            <trkpt lat="49.8488736" lon="11.5802096">
                <ele>490.0</ele>
                <time>2020-08-21T11:00:52.000Z</time>
                <name>Trackpoint 497</name>
            </trkpt>
            <trkpt lat="49.848864" lon="11.580076">
                <ele>490.0</ele>
                <time>2020-08-21T11:00:54.000Z</time>
                <name>Trackpoint 498</name>
            </trkpt>
            <trkpt lat="49.8488544" lon="11.5799504">
                <ele>490.0</ele>
                <time>2020-08-21T11:00:56.000Z</time>
                <name>Trackpoint 499</name>
            </trkpt>
            <trkpt lat="49.8488288" lon="11.5798184">
                <ele>490.0</ele>
                <time>2020-08-21T11:00:58.000Z</time>
                <name>Trackpoint 500</name>
            </trkpt>
            <trkpt lat="49.8488096" lon="11.5796984">
                <ele>490.0</ele>
                <time>2020-08-21T11:01:00.000Z</time>
                <name>Trackpoint 501</name>
            </trkpt>
            <trkpt lat="49.8487776" lon="11.57958">
                <ele>490.0</ele>
                <time>2020-08-21T11:01:02.000Z</time>
                <name>Trackpoint 502</name>
            </trkpt>
            <trkpt lat="49.8487424" lon="11.579476">
                <ele>491.0</ele>
                <time>2020-08-21T11:01:04.000Z</time>
                <name>Trackpoint 503</name>
            </trkpt>
            <trkpt lat="49.8487008" lon="11.5793616">
                <ele>491.0</ele>
                <time>2020-08-21T11:01:07.000Z</time>
                <name>Trackpoint 504</name>
            </trkpt>
            <trkpt lat="49.8486528" lon="11.5792776">
                <ele>492.0</ele>
                <time>2020-08-21T11:01:11.000Z</time>
                <name>Trackpoint 505</name>
            </trkpt>
            <trkpt lat="49.848592" lon="11.579172">
                <ele>492.0</ele>
                <time>2020-08-21T11:01:32.000Z</time>
                <name>Trackpoint 506</name>
            </trkpt>
            <trkpt lat="49.8485536" lon="11.5790856">
                <ele>492.0</ele>
                <time>2020-08-21T11:01:35.000Z</time>
                <name>Trackpoint 507</name>
            </trkpt>
            <trkpt lat="49.848512" lon="11.5789872">
                <ele>492.0</ele>
                <time>2020-08-21T11:01:38.000Z</time>
                <name>Trackpoint 508</name>
            </trkpt>
            <trkpt lat="49.8484576" lon="11.57886">
                <ele>492.0</ele>
                <time>2020-08-21T11:01:41.000Z</time>
                <name>Trackpoint 509</name>
            </trkpt>
            <trkpt lat="49.848432" lon="11.5787632">
                <ele>492.0</ele>
                <time>2020-08-21T11:01:43.000Z</time>
                <name>Trackpoint 510</name>
            </trkpt>
            <trkpt lat="49.8484" lon="11.5786584">
                <ele>493.0</ele>
                <time>2020-08-21T11:01:45.000Z</time>
                <name>Trackpoint 511</name>
            </trkpt>
            <trkpt lat="49.8483808" lon="11.5785552">
                <ele>493.0</ele>
                <time>2020-08-21T11:01:47.000Z</time>
                <name>Trackpoint 512</name>
            </trkpt>
            <trkpt lat="49.8483648" lon="11.578448">
                <ele>493.0</ele>
                <time>2020-08-21T11:01:49.000Z</time>
                <name>Trackpoint 513</name>
            </trkpt>
            <trkpt lat="49.8483584" lon="11.578348">
                <ele>493.0</ele>
                <time>2020-08-21T11:01:51.000Z</time>
                <name>Trackpoint 514</name>
            </trkpt>
            <trkpt lat="49.848352" lon="11.5782472">
                <ele>493.0</ele>
                <time>2020-08-21T11:01:53.000Z</time>
                <name>Trackpoint 515</name>
            </trkpt>
            <trkpt lat="49.8483392" lon="11.5781432">
                <ele>493.0</ele>
                <time>2020-08-21T11:01:55.000Z</time>
                <name>Trackpoint 516</name>
            </trkpt>
            <trkpt lat="49.8483264" lon="11.5780352">
                <ele>494.0</ele>
                <time>2020-08-21T11:01:57.000Z</time>
                <name>Trackpoint 517</name>
            </trkpt>
            <trkpt lat="49.84832" lon="11.5779248">
                <ele>494.0</ele>
                <time>2020-08-21T11:01:59.000Z</time>
                <name>Trackpoint 518</name>
            </trkpt>
            <trkpt lat="49.8483072" lon="11.5778176">
                <ele>494.0</ele>
                <time>2020-08-21T11:02:01.000Z</time>
                <name>Trackpoint 519</name>
            </trkpt>
            <trkpt lat="49.8483008" lon="11.5777064">
                <ele>494.0</ele>
                <time>2020-08-21T11:02:03.000Z</time>
                <name>Trackpoint 520</name>
            </trkpt>
            <trkpt lat="49.8482848" lon="11.5775856">
                <ele>495.0</ele>
                <time>2020-08-21T11:02:05.000Z</time>
                <name>Trackpoint 521</name>
            </trkpt>
            <trkpt lat="49.8482752" lon="11.5774536">
                <ele>495.0</ele>
                <time>2020-08-21T11:02:07.000Z</time>
                <name>Trackpoint 522</name>
            </trkpt>
            <trkpt lat="49.8482592" lon="11.5773248">
                <ele>496.0</ele>
                <time>2020-08-21T11:02:09.000Z</time>
                <name>Trackpoint 523</name>
            </trkpt>
            <trkpt lat="49.8482528" lon="11.5771864">
                <ele>496.0</ele>
                <time>2020-08-21T11:02:11.000Z</time>
                <name>Trackpoint 524</name>
            </trkpt>
            <trkpt lat="49.84824" lon="11.5770464">
                <ele>497.0</ele>
                <time>2020-08-21T11:02:13.000Z</time>
                <name>Trackpoint 525</name>
            </trkpt>
            <trkpt lat="49.8482336" lon="11.5769032">
                <ele>497.0</ele>
                <time>2020-08-21T11:02:15.000Z</time>
                <name>Trackpoint 526</name>
            </trkpt>
            <trkpt lat="49.8482208" lon="11.57676">
                <ele>498.0</ele>
                <time>2020-08-21T11:02:17.000Z</time>
                <name>Trackpoint 527</name>
            </trkpt>
            <trkpt lat="49.8482048" lon="11.5766224">
                <ele>498.0</ele>
                <time>2020-08-21T11:02:19.000Z</time>
                <name>Trackpoint 528</name>
            </trkpt>
            <trkpt lat="49.8481952" lon="11.5764784">
                <ele>499.0</ele>
                <time>2020-08-21T11:02:21.000Z</time>
                <name>Trackpoint 529</name>
            </trkpt>
            <trkpt lat="49.8481856" lon="11.5763416">
                <ele>499.0</ele>
                <time>2020-08-21T11:02:23.000Z</time>
                <name>Trackpoint 530</name>
            </trkpt>
            <trkpt lat="49.848176" lon="11.5762128">
                <ele>500.0</ele>
                <time>2020-08-21T11:02:25.000Z</time>
                <name>Trackpoint 531</name>
            </trkpt>
            <trkpt lat="49.8481664" lon="11.5760872">
                <ele>501.0</ele>
                <time>2020-08-21T11:02:27.000Z</time>
                <name>Trackpoint 532</name>
            </trkpt>
            <trkpt lat="49.8481568" lon="11.5759672">
                <ele>502.0</ele>
                <time>2020-08-21T11:02:29.000Z</time>
                <name>Trackpoint 533</name>
            </trkpt>
            <trkpt lat="49.8481472" lon="11.5758496">
                <ele>503.0</ele>
                <time>2020-08-21T11:02:31.000Z</time>
                <name>Trackpoint 534</name>
            </trkpt>
            <trkpt lat="49.8481376" lon="11.5757312">
                <ele>503.0</ele>
                <time>2020-08-21T11:02:33.000Z</time>
                <name>Trackpoint 535</name>
            </trkpt>
            <trkpt lat="49.8481248" lon="11.5756168">
                <ele>503.0</ele>
                <time>2020-08-21T11:02:35.000Z</time>
                <name>Trackpoint 536</name>
            </trkpt>
            <trkpt lat="49.8481184" lon="11.5754968">
                <ele>504.0</ele>
                <time>2020-08-21T11:02:37.000Z</time>
                <name>Trackpoint 537</name>
            </trkpt>
            <trkpt lat="49.8481152" lon="11.57538">
                <ele>504.0</ele>
                <time>2020-08-21T11:02:39.000Z</time>
                <name>Trackpoint 538</name>
            </trkpt>
            <trkpt lat="49.8481088" lon="11.5752632">
                <ele>505.0</ele>
                <time>2020-08-21T11:02:41.000Z</time>
                <name>Trackpoint 539</name>
            </trkpt>
            <trkpt lat="49.848096" lon="11.5751488">
                <ele>505.0</ele>
                <time>2020-08-21T11:02:43.000Z</time>
                <name>Trackpoint 540</name>
            </trkpt>
            <trkpt lat="49.84808" lon="11.5750288">
                <ele>506.0</ele>
                <time>2020-08-21T11:02:45.000Z</time>
                <name>Trackpoint 541</name>
            </trkpt>
            <trkpt lat="49.8480672" lon="11.5748984">
                <ele>506.0</ele>
                <time>2020-08-21T11:02:47.000Z</time>
                <name>Trackpoint 542</name>
            </trkpt>
            <trkpt lat="49.8480608" lon="11.574768">
                <ele>506.0</ele>
                <time>2020-08-21T11:02:49.000Z</time>
                <name>Trackpoint 543</name>
            </trkpt>
            <trkpt lat="49.848048" lon="11.5746416">
                <ele>506.0</ele>
                <time>2020-08-21T11:02:51.000Z</time>
                <name>Trackpoint 544</name>
            </trkpt>
            <trkpt lat="49.8480384" lon="11.5745096">
                <ele>506.0</ele>
                <time>2020-08-21T11:02:53.000Z</time>
                <name>Trackpoint 545</name>
            </trkpt>
            <trkpt lat="49.8480256" lon="11.5743704">
                <ele>507.0</ele>
                <time>2020-08-21T11:02:55.000Z</time>
                <name>Trackpoint 546</name>
            </trkpt>
            <trkpt lat="49.848016" lon="11.574232">
                <ele>507.0</ele>
                <time>2020-08-21T11:02:57.000Z</time>
                <name>Trackpoint 547</name>
            </trkpt>
            <trkpt lat="49.8480032" lon="11.5740856">
                <ele>508.0</ele>
                <time>2020-08-21T11:02:59.000Z</time>
                <name>Trackpoint 548</name>
            </trkpt>
            <trkpt lat="49.8479904" lon="11.5739368">
                <ele>508.0</ele>
                <time>2020-08-21T11:03:01.000Z</time>
                <name>Trackpoint 549</name>
            </trkpt>
            <trkpt lat="49.8479808" lon="11.5737896">
                <ele>508.0</ele>
                <time>2020-08-21T11:03:03.000Z</time>
                <name>Trackpoint 550</name>
            </trkpt>
            <trkpt lat="49.847968" lon="11.5736464">
                <ele>508.0</ele>
                <time>2020-08-21T11:03:05.000Z</time>
                <name>Trackpoint 551</name>
            </trkpt>
            <trkpt lat="49.8479552" lon="11.5735">
                <ele>509.0</ele>
                <time>2020-08-21T11:03:07.000Z</time>
                <name>Trackpoint 552</name>
            </trkpt>
            <trkpt lat="49.8479456" lon="11.573348">
                <ele>509.0</ele>
                <time>2020-08-21T11:03:09.000Z</time>
                <name>Trackpoint 553</name>
            </trkpt>
            <trkpt lat="49.847936" lon="11.5732048">
                <ele>509.0</ele>
                <time>2020-08-21T11:03:11.000Z</time>
                <name>Trackpoint 554</name>
            </trkpt>
            <trkpt lat="49.8479232" lon="11.573056">
                <ele>509.0</ele>
                <time>2020-08-21T11:03:13.000Z</time>
                <name>Trackpoint 555</name>
            </trkpt>
            <trkpt lat="49.847904" lon="11.57292">
                <ele>509.0</ele>
                <time>2020-08-21T11:03:15.000Z</time>
                <name>Trackpoint 556</name>
            </trkpt>
            <trkpt lat="49.847888" lon="11.572788">
                <ele>509.0</ele>
                <time>2020-08-21T11:03:17.000Z</time>
                <name>Trackpoint 557</name>
            </trkpt>
            <trkpt lat="49.8478752" lon="11.5726608">
                <ele>510.0</ele>
                <time>2020-08-21T11:03:19.000Z</time>
                <name>Trackpoint 558</name>
            </trkpt>
            <trkpt lat="49.8478656" lon="11.5725432">
                <ele>510.0</ele>
                <time>2020-08-21T11:03:21.000Z</time>
                <name>Trackpoint 559</name>
            </trkpt>
            <trkpt lat="49.8478592" lon="11.5724336">
                <ele>511.0</ele>
                <time>2020-08-21T11:03:23.000Z</time>
                <name>Trackpoint 560</name>
            </trkpt>
            <trkpt lat="49.8478464" lon="11.5723264">
                <ele>511.0</ele>
                <time>2020-08-21T11:03:25.000Z</time>
                <name>Trackpoint 561</name>
            </trkpt>
            <trkpt lat="49.84784" lon="11.5722264">
                <ele>511.0</ele>
                <time>2020-08-21T11:03:27.000Z</time>
                <name>Trackpoint 562</name>
            </trkpt>
            <trkpt lat="49.8478272" lon="11.5721216">
                <ele>511.0</ele>
                <time>2020-08-21T11:03:29.000Z</time>
                <name>Trackpoint 563</name>
            </trkpt>
            <trkpt lat="49.8478208" lon="11.5720168">
                <ele>511.0</ele>
                <time>2020-08-21T11:03:31.000Z</time>
                <name>Trackpoint 564</name>
            </trkpt>
            <trkpt lat="49.8478176" lon="11.5719144">
                <ele>512.0</ele>
                <time>2020-08-21T11:03:33.000Z</time>
                <name>Trackpoint 565</name>
            </trkpt>
            <trkpt lat="49.8478112" lon="11.5718136">
                <ele>512.0</ele>
                <time>2020-08-21T11:03:35.000Z</time>
                <name>Trackpoint 566</name>
            </trkpt>
            <trkpt lat="49.8478016" lon="11.57172">
                <ele>512.0</ele>
                <time>2020-08-21T11:03:37.000Z</time>
                <name>Trackpoint 567</name>
            </trkpt>
            <trkpt lat="49.8477824" lon="11.5716312">
                <ele>512.0</ele>
                <time>2020-08-21T11:03:39.000Z</time>
                <name>Trackpoint 568</name>
            </trkpt>
            <trkpt lat="49.8477792" lon="11.5715376">
                <ele>512.0</ele>
                <time>2020-08-21T11:03:41.000Z</time>
                <name>Trackpoint 569</name>
            </trkpt>
            <trkpt lat="49.8477664" lon="11.5714416">
                <ele>512.0</ele>
                <time>2020-08-21T11:03:43.000Z</time>
                <name>Trackpoint 570</name>
            </trkpt>
            <trkpt lat="49.8477504" lon="11.571348">
                <ele>512.0</ele>
                <time>2020-08-21T11:03:45.000Z</time>
                <name>Trackpoint 571</name>
            </trkpt>
            <trkpt lat="49.847744" lon="11.5712496">
                <ele>512.0</ele>
                <time>2020-08-21T11:03:47.000Z</time>
                <name>Trackpoint 572</name>
            </trkpt>
            <trkpt lat="49.8477376" lon="11.571148">
                <ele>513.0</ele>
                <time>2020-08-21T11:03:49.000Z</time>
                <name>Trackpoint 573</name>
            </trkpt>
            <trkpt lat="49.8477248" lon="11.5710448">
                <ele>513.0</ele>
                <time>2020-08-21T11:03:51.000Z</time>
                <name>Trackpoint 574</name>
            </trkpt>
            <trkpt lat="49.847712" lon="11.5709448">
                <ele>513.0</ele>
                <time>2020-08-21T11:03:53.000Z</time>
                <name>Trackpoint 575</name>
            </trkpt>
            <trkpt lat="49.8476992" lon="11.570844">
                <ele>513.0</ele>
                <time>2020-08-21T11:03:55.000Z</time>
                <name>Trackpoint 576</name>
            </trkpt>
            <trkpt lat="49.8476864" lon="11.5707432">
                <ele>513.0</ele>
                <time>2020-08-21T11:03:57.000Z</time>
                <name>Trackpoint 577</name>
            </trkpt>
            <trkpt lat="49.8476704" lon="11.5706416">
                <ele>513.0</ele>
                <time>2020-08-21T11:03:59.000Z</time>
                <name>Trackpoint 578</name>
            </trkpt>
            <trkpt lat="49.8476608" lon="11.5705416">
                <ele>514.0</ele>
                <time>2020-08-21T11:04:01.000Z</time>
                <name>Trackpoint 579</name>
            </trkpt>
            <trkpt lat="49.8476448" lon="11.5704416">
                <ele>514.0</ele>
                <time>2020-08-21T11:04:03.000Z</time>
                <name>Trackpoint 580</name>
            </trkpt>
            <trkpt lat="49.847632" lon="11.5703472">
                <ele>514.0</ele>
                <time>2020-08-21T11:04:05.000Z</time>
                <name>Trackpoint 581</name>
            </trkpt>
            <trkpt lat="49.8476224" lon="11.5702448">
                <ele>514.0</ele>
                <time>2020-08-21T11:04:07.000Z</time>
                <name>Trackpoint 582</name>
            </trkpt>
            <trkpt lat="49.8476128" lon="11.5701504">
                <ele>515.0</ele>
                <time>2020-08-21T11:04:09.000Z</time>
                <name>Trackpoint 583</name>
            </trkpt>
            <trkpt lat="49.8476064" lon="11.5700512">
                <ele>516.0</ele>
                <time>2020-08-21T11:04:11.000Z</time>
                <name>Trackpoint 584</name>
            </trkpt>
            <trkpt lat="49.8475968" lon="11.56996">
                <ele>516.0</ele>
                <time>2020-08-21T11:04:13.000Z</time>
                <name>Trackpoint 585</name>
            </trkpt>
            <trkpt lat="49.8475872" lon="11.5698656">
                <ele>516.0</ele>
                <time>2020-08-21T11:04:15.000Z</time>
                <name>Trackpoint 586</name>
            </trkpt>
            <trkpt lat="49.8475712" lon="11.5697384">
                <ele>516.0</ele>
                <time>2020-08-21T11:04:18.000Z</time>
                <name>Trackpoint 587</name>
            </trkpt>
            <trkpt lat="49.847552" lon="11.5696064">
                <ele>516.0</ele>
                <time>2020-08-21T11:04:21.000Z</time>
                <name>Trackpoint 588</name>
            </trkpt>
            <trkpt lat="49.8475264" lon="11.56948">
                <ele>516.0</ele>
                <time>2020-08-21T11:04:24.000Z</time>
                <name>Trackpoint 589</name>
            </trkpt>
            <trkpt lat="49.847504" lon="11.5693616">
                <ele>516.0</ele>
                <time>2020-08-21T11:04:27.000Z</time>
                <name>Trackpoint 590</name>
            </trkpt>
            <trkpt lat="49.8474848" lon="11.569248">
                <ele>516.0</ele>
                <time>2020-08-21T11:04:30.000Z</time>
                <name>Trackpoint 591</name>
            </trkpt>
            <trkpt lat="49.8474688" lon="11.5691336">
                <ele>516.0</ele>
                <time>2020-08-21T11:04:33.000Z</time>
                <name>Trackpoint 592</name>
            </trkpt>
            <trkpt lat="49.8474624" lon="11.5690184">
                <ele>516.0</ele>
                <time>2020-08-21T11:04:36.000Z</time>
                <name>Trackpoint 593</name>
            </trkpt>
            <trkpt lat="49.8474496" lon="11.5688912">
                <ele>517.0</ele>
                <time>2020-08-21T11:04:39.000Z</time>
                <name>Trackpoint 594</name>
            </trkpt>
            <trkpt lat="49.8474336" lon="11.5687712">
                <ele>517.0</ele>
                <time>2020-08-21T11:04:42.000Z</time>
                <name>Trackpoint 595</name>
            </trkpt>
            <trkpt lat="49.8474208" lon="11.5686216">
                <ele>517.0</ele>
                <time>2020-08-21T11:04:45.000Z</time>
                <name>Trackpoint 596</name>
            </trkpt>
            <trkpt lat="49.8474208" lon="11.5684984">
                <ele>517.0</ele>
                <time>2020-08-21T11:04:48.000Z</time>
                <name>Trackpoint 597</name>
            </trkpt>
            <trkpt lat="49.8474304" lon="11.568408">
                <ele>517.0</ele>
                <time>2020-08-21T11:04:50.000Z</time>
                <name>Trackpoint 598</name>
            </trkpt>
            <trkpt lat="49.8474336" lon="11.5683168">
                <ele>517.0</ele>
                <time>2020-08-21T11:04:52.000Z</time>
                <name>Trackpoint 599</name>
            </trkpt>
            <trkpt lat="49.8474496" lon="11.5682248">
                <ele>518.0</ele>
                <time>2020-08-21T11:04:54.000Z</time>
                <name>Trackpoint 600</name>
            </trkpt>
            <trkpt lat="49.8474624" lon="11.5681104">
                <ele>519.0</ele>
                <time>2020-08-21T11:05:03.000Z</time>
                <name>Trackpoint 601</name>
            </trkpt>
            <trkpt lat="49.847472" lon="11.5679848">
                <ele>519.0</ele>
                <time>2020-08-21T11:05:06.000Z</time>
                <name>Trackpoint 602</name>
            </trkpt>
            <trkpt lat="49.847488" lon="11.567892">
                <ele>519.0</ele>
                <time>2020-08-21T11:05:08.000Z</time>
                <name>Trackpoint 603</name>
            </trkpt>
            <trkpt lat="49.8475104" lon="11.5677584">
                <ele>519.0</ele>
                <time>2020-08-21T11:05:11.000Z</time>
                <name>Trackpoint 604</name>
            </trkpt>
            <trkpt lat="49.8475264" lon="11.5676632">
                <ele>519.0</ele>
                <time>2020-08-21T11:05:13.000Z</time>
                <name>Trackpoint 605</name>
            </trkpt>
            <trkpt lat="49.847552" lon="11.5675736">
                <ele>520.0</ele>
                <time>2020-08-21T11:05:15.000Z</time>
                <name>Trackpoint 606</name>
            </trkpt>
            <trkpt lat="49.8475712" lon="11.5674696">
                <ele>520.0</ele>
                <time>2020-08-21T11:05:17.000Z</time>
                <name>Trackpoint 607</name>
            </trkpt>
            <trkpt lat="49.8476" lon="11.5673768">
                <ele>521.0</ele>
                <time>2020-08-21T11:05:19.000Z</time>
                <name>Trackpoint 608</name>
            </trkpt>
            <trkpt lat="49.8476256" lon="11.5672776">
                <ele>523.0</ele>
                <time>2020-08-21T11:05:21.000Z</time>
                <name>Trackpoint 609</name>
            </trkpt>
            <trkpt lat="49.8476832" lon="11.5671552">
                <ele>522.0</ele>
                <time>2020-08-21T11:05:24.000Z</time>
                <name>Trackpoint 610</name>
            </trkpt>
            <trkpt lat="49.8477216" lon="11.5670536">
                <ele>523.0</ele>
                <time>2020-08-21T11:05:26.000Z</time>
                <name>Trackpoint 611</name>
            </trkpt>
            <trkpt lat="49.8477632" lon="11.5669696">
                <ele>523.0</ele>
                <time>2020-08-21T11:05:28.000Z</time>
                <name>Trackpoint 612</name>
            </trkpt>
            <trkpt lat="49.8478048" lon="11.5668888">
                <ele>524.0</ele>
                <time>2020-08-21T11:05:30.000Z</time>
                <name>Trackpoint 613</name>
            </trkpt>
            <trkpt lat="49.8478784" lon="11.5667864">
                <ele>524.0</ele>
                <time>2020-08-21T11:05:33.000Z</time>
                <name>Trackpoint 614</name>
            </trkpt>
            <trkpt lat="49.8479392" lon="11.5666952">
                <ele>524.0</ele>
                <time>2020-08-21T11:05:36.000Z</time>
                <name>Trackpoint 615</name>
            </trkpt>
            <trkpt lat="49.8480096" lon="11.5666016">
                <ele>525.0</ele>
                <time>2020-08-21T11:05:39.000Z</time>
                <name>Trackpoint 616</name>
            </trkpt>
            <trkpt lat="49.8480896" lon="11.5665064">
                <ele>525.0</ele>
                <time>2020-08-21T11:05:42.000Z</time>
                <name>Trackpoint 617</name>
            </trkpt>
            <trkpt lat="49.8481632" lon="11.5664104">
                <ele>525.0</ele>
                <time>2020-08-21T11:05:45.000Z</time>
                <name>Trackpoint 618</name>
            </trkpt>
            <trkpt lat="49.8482432" lon="11.5663208">
                <ele>526.0</ele>
                <time>2020-08-21T11:05:48.000Z</time>
                <name>Trackpoint 619</name>
            </trkpt>
            <trkpt lat="49.8483232" lon="11.5662168">
                <ele>526.0</ele>
                <time>2020-08-21T11:05:51.000Z</time>
                <name>Trackpoint 620</name>
            </trkpt>
            <trkpt lat="49.8483456" lon="11.5661272">
                <ele>527.0</ele>
                <time>2020-08-21T11:05:53.000Z</time>
                <name>Trackpoint 621</name>
            </trkpt>
            <trkpt lat="49.848384" lon="11.5660416">
                <ele>527.0</ele>
                <time>2020-08-21T11:05:55.000Z</time>
                <name>Trackpoint 622</name>
            </trkpt>
            <trkpt lat="49.8484352" lon="11.5659448">
                <ele>527.0</ele>
                <time>2020-08-21T11:05:57.000Z</time>
                <name>Trackpoint 623</name>
            </trkpt>
            <trkpt lat="49.848464" lon="11.5658432">
                <ele>527.0</ele>
                <time>2020-08-21T11:05:59.000Z</time>
                <name>Trackpoint 624</name>
            </trkpt>
            <trkpt lat="49.8484928" lon="11.5657504">
                <ele>527.0</ele>
                <time>2020-08-21T11:06:01.000Z</time>
                <name>Trackpoint 625</name>
            </trkpt>
            <trkpt lat="49.8485056" lon="11.5656432">
                <ele>527.0</ele>
                <time>2020-08-21T11:06:03.000Z</time>
                <name>Trackpoint 626</name>
            </trkpt>
            <trkpt lat="49.8485408" lon="11.5655144">
                <ele>528.0</ele>
                <time>2020-08-21T11:06:06.000Z</time>
                <name>Trackpoint 627</name>
            </trkpt>
            <trkpt lat="49.8485536" lon="11.5654064">
                <ele>528.0</ele>
                <time>2020-08-21T11:06:08.000Z</time>
                <name>Trackpoint 628</name>
            </trkpt>
            <trkpt lat="49.848576" lon="11.5653048">
                <ele>528.0</ele>
                <time>2020-08-21T11:06:10.000Z</time>
                <name>Trackpoint 629</name>
            </trkpt>
            <trkpt lat="49.8485728" lon="11.5652064">
                <ele>528.0</ele>
                <time>2020-08-21T11:06:12.000Z</time>
                <name>Trackpoint 630</name>
            </trkpt>
            <trkpt lat="49.8485728" lon="11.5650832">
                <ele>529.0</ele>
                <time>2020-08-21T11:06:15.000Z</time>
                <name>Trackpoint 631</name>
            </trkpt>
            <trkpt lat="49.84856" lon="11.5649704">
                <ele>529.0</ele>
                <time>2020-08-21T11:06:18.000Z</time>
                <name>Trackpoint 632</name>
            </trkpt>
            <trkpt lat="49.848544" lon="11.5648744">
                <ele>530.0</ele>
                <time>2020-08-21T11:06:20.000Z</time>
                <name>Trackpoint 633</name>
            </trkpt>
            <trkpt lat="49.8485376" lon="11.5647832">
                <ele>530.0</ele>
                <time>2020-08-21T11:06:22.000Z</time>
                <name>Trackpoint 634</name>
            </trkpt>
            <trkpt lat="49.848544" lon="11.56468">
                <ele>531.0</ele>
                <time>2020-08-21T11:06:24.000Z</time>
                <name>Trackpoint 635</name>
            </trkpt>
            <trkpt lat="49.8485536" lon="11.5645736">
                <ele>531.0</ele>
                <time>2020-08-21T11:06:26.000Z</time>
                <name>Trackpoint 636</name>
            </trkpt>
            <trkpt lat="49.848544" lon="11.5644712">
                <ele>533.0</ele>
                <time>2020-08-21T11:07:20.000Z</time>
                <name>Trackpoint 637</name>
            </trkpt>
            <trkpt lat="49.8484864" lon="11.5644016">
                <ele>533.0</ele>
                <time>2020-08-21T11:07:25.000Z</time>
                <name>Trackpoint 638</name>
            </trkpt>
            <trkpt lat="49.8484256" lon="11.5643064">
                <ele>533.0</ele>
                <time>2020-08-21T11:07:29.000Z</time>
                <name>Trackpoint 639</name>
            </trkpt>
            <trkpt lat="49.8483872" lon="11.5642232">
                <ele>533.0</ele>
                <time>2020-08-21T11:07:33.000Z</time>
                <name>Trackpoint 640</name>
            </trkpt>
            <trkpt lat="49.848352" lon="11.5641048">
                <ele>533.0</ele>
                <time>2020-08-21T11:07:37.000Z</time>
                <name>Trackpoint 641</name>
            </trkpt>
            <trkpt lat="49.8483264" lon="11.5640096">
                <ele>533.0</ele>
                <time>2020-08-21T11:07:40.000Z</time>
                <name>Trackpoint 642</name>
            </trkpt>
            <trkpt lat="49.8483008" lon="11.563884">
                <ele>533.0</ele>
                <time>2020-08-21T11:07:43.000Z</time>
                <name>Trackpoint 643</name>
            </trkpt>
            <trkpt lat="49.8482848" lon="11.5637648">
                <ele>533.0</ele>
                <time>2020-08-21T11:07:46.000Z</time>
                <name>Trackpoint 644</name>
            </trkpt>
            <trkpt lat="49.8482656" lon="11.5636656">
                <ele>533.0</ele>
                <time>2020-08-21T11:07:48.000Z</time>
                <name>Trackpoint 645</name>
            </trkpt>
            <trkpt lat="49.8482592" lon="11.5635656">
                <ele>534.0</ele>
                <time>2020-08-21T11:07:51.000Z</time>
                <name>Trackpoint 646</name>
            </trkpt>
            <trkpt lat="49.848256" lon="11.5634696">
                <ele>534.0</ele>
                <time>2020-08-21T11:07:54.000Z</time>
                <name>Trackpoint 647</name>
            </trkpt>
            <trkpt lat="49.8482528" lon="11.5633648">
                <ele>534.0</ele>
                <time>2020-08-21T11:07:57.000Z</time>
                <name>Trackpoint 648</name>
            </trkpt>
            <trkpt lat="49.8482528" lon="11.5632696">
                <ele>534.0</ele>
                <time>2020-08-21T11:08:00.000Z</time>
                <name>Trackpoint 649</name>
            </trkpt>
            <trkpt lat="49.8482336" lon="11.5631752">
                <ele>535.0</ele>
                <time>2020-08-21T11:08:04.000Z</time>
                <name>Trackpoint 650</name>
            </trkpt>
            <trkpt lat="49.8482432" lon="11.5630416">
                <ele>535.0</ele>
                <time>2020-08-21T11:08:08.000Z</time>
                <name>Trackpoint 651</name>
            </trkpt>
            <trkpt lat="49.8482784" lon="11.5629128">
                <ele>535.0</ele>
                <time>2020-08-21T11:08:11.000Z</time>
                <name>Trackpoint 652</name>
            </trkpt>
            <trkpt lat="49.8483008" lon="11.5627896">
                <ele>536.0</ele>
                <time>2020-08-21T11:08:15.000Z</time>
                <name>Trackpoint 653</name>
            </trkpt>
            <trkpt lat="49.8483328" lon="11.5626584">
                <ele>536.0</ele>
                <time>2020-08-21T11:08:18.000Z</time>
                <name>Trackpoint 654</name>
            </trkpt>
            <trkpt lat="49.8483456" lon="11.5625336">
                <ele>537.0</ele>
                <time>2020-08-21T11:08:22.000Z</time>
                <name>Trackpoint 655</name>
            </trkpt>
            <trkpt lat="49.848368" lon="11.562444">
                <ele>537.0</ele>
                <time>2020-08-21T11:08:25.000Z</time>
                <name>Trackpoint 656</name>
            </trkpt>
            <trkpt lat="49.8483936" lon="11.562348">
                <ele>537.0</ele>
                <time>2020-08-21T11:08:28.000Z</time>
                <name>Trackpoint 657</name>
            </trkpt>
            <trkpt lat="49.8484064" lon="11.5622352">
                <ele>538.0</ele>
                <time>2020-08-21T11:08:31.000Z</time>
                <name>Trackpoint 658</name>
            </trkpt>
            <trkpt lat="49.848416" lon="11.5621408">
                <ele>538.0</ele>
                <time>2020-08-21T11:08:35.000Z</time>
                <name>Trackpoint 659</name>
            </trkpt>
            <trkpt lat="49.8484352" lon="11.5620416">
                <ele>539.0</ele>
                <time>2020-08-21T11:08:39.000Z</time>
                <name>Trackpoint 660</name>
            </trkpt>
            <trkpt lat="49.8484384" lon="11.5619224">
                <ele>540.0</ele>
                <time>2020-08-21T11:08:44.000Z</time>
                <name>Trackpoint 661</name>
            </trkpt>
            <trkpt lat="49.8484608" lon="11.5618336">
                <ele>540.0</ele>
                <time>2020-08-21T11:08:48.000Z</time>
                <name>Trackpoint 662</name>
            </trkpt>
            <trkpt lat="49.8484928" lon="11.5617352">
                <ele>541.0</ele>
                <time>2020-08-21T11:08:52.000Z</time>
                <name>Trackpoint 663</name>
            </trkpt>
            <trkpt lat="49.8485152" lon="11.5616416">
                <ele>541.0</ele>
                <time>2020-08-21T11:08:58.000Z</time>
                <name>Trackpoint 664</name>
            </trkpt>
            <trkpt lat="49.84856" lon="11.5615416">
                <ele>542.0</ele>
                <time>2020-08-21T11:09:03.000Z</time>
                <name>Trackpoint 665</name>
            </trkpt>
            <trkpt lat="49.8485952" lon="11.5614568">
                <ele>543.0</ele>
                <time>2020-08-21T11:09:08.000Z</time>
                <name>Trackpoint 666</name>
            </trkpt>
            <trkpt lat="49.848672" lon="11.5613744">
                <ele>544.0</ele>
                <time>2020-08-21T11:09:13.000Z</time>
                <name>Trackpoint 667</name>
            </trkpt>
            <trkpt lat="49.8487552" lon="11.5613248">
                <ele>544.0</ele>
                <time>2020-08-21T11:09:18.000Z</time>
                <name>Trackpoint 668</name>
            </trkpt>
            <trkpt lat="49.8488576" lon="11.5612968">
                <ele>545.0</ele>
                <time>2020-08-21T11:09:23.000Z</time>
                <name>Trackpoint 669</name>
            </trkpt>
            <trkpt lat="49.8489408" lon="11.5612424">
                <ele>546.0</ele>
                <time>2020-08-21T11:09:29.000Z</time>
                <name>Trackpoint 670</name>
            </trkpt>
            <trkpt lat="49.8490336" lon="11.5611752">
                <ele>547.0</ele>
                <time>2020-08-21T11:09:34.000Z</time>
                <name>Trackpoint 671</name>
            </trkpt>
            <trkpt lat="49.8491136" lon="11.5610648">
                <ele>548.0</ele>
                <time>2020-08-21T11:09:38.000Z</time>
                <name>Trackpoint 672</name>
            </trkpt>
            <trkpt lat="49.8491744" lon="11.5609864">
                <ele>548.0</ele>
                <time>2020-08-21T11:09:41.000Z</time>
                <name>Trackpoint 673</name>
            </trkpt>
            <trkpt lat="49.8492192" lon="11.560908">
                <ele>549.0</ele>
                <time>2020-08-21T11:09:44.000Z</time>
                <name>Trackpoint 674</name>
            </trkpt>
            <trkpt lat="49.8492768" lon="11.5608016">
                <ele>550.0</ele>
                <time>2020-08-21T11:09:48.000Z</time>
                <name>Trackpoint 675</name>
            </trkpt>
            <trkpt lat="49.8493248" lon="11.5607168">
                <ele>551.0</ele>
                <time>2020-08-21T11:09:51.000Z</time>
                <name>Trackpoint 676</name>
            </trkpt>
            <trkpt lat="49.8493664" lon="11.56062">
                <ele>552.0</ele>
                <time>2020-08-21T11:09:54.000Z</time>
                <name>Trackpoint 677</name>
            </trkpt>
            <trkpt lat="49.8493888" lon="11.5605272">
                <ele>553.0</ele>
                <time>2020-08-21T11:09:57.000Z</time>
                <name>Trackpoint 678</name>
            </trkpt>
            <trkpt lat="49.8494336" lon="11.5604288">
                <ele>553.0</ele>
                <time>2020-08-21T11:10:01.000Z</time>
                <name>Trackpoint 679</name>
            </trkpt>
            <trkpt lat="49.849488" lon="11.560324">
                <ele>554.0</ele>
                <time>2020-08-21T11:10:05.000Z</time>
                <name>Trackpoint 680</name>
            </trkpt>
            <trkpt lat="49.8495392" lon="11.5602464">
                <ele>554.0</ele>
                <time>2020-08-21T11:10:08.000Z</time>
                <name>Trackpoint 681</name>
            </trkpt>
            <trkpt lat="49.8496096" lon="11.5601664">
                <ele>555.0</ele>
                <time>2020-08-21T11:10:11.000Z</time>
                <name>Trackpoint 682</name>
            </trkpt>
            <trkpt lat="49.8496864" lon="11.5600784">
                <ele>555.0</ele>
                <time>2020-08-21T11:10:15.000Z</time>
                <name>Trackpoint 683</name>
            </trkpt>
            <trkpt lat="49.8497696" lon="11.5600168">
                <ele>556.0</ele>
                <time>2020-08-21T11:10:19.000Z</time>
                <name>Trackpoint 684</name>
            </trkpt>
            <trkpt lat="49.8498656" lon="11.5599696">
                <ele>557.0</ele>
                <time>2020-08-21T11:10:22.000Z</time>
                <name>Trackpoint 685</name>
            </trkpt>
            <trkpt lat="49.849968" lon="11.5599216">
                <ele>557.0</ele>
                <time>2020-08-21T11:10:26.000Z</time>
                <name>Trackpoint 686</name>
            </trkpt>
            <trkpt lat="49.8500544" lon="11.5598624">
                <ele>558.0</ele>
                <time>2020-08-21T11:10:30.000Z</time>
                <name>Trackpoint 687</name>
            </trkpt>
            <trkpt lat="49.8501504" lon="11.55982">
                <ele>558.0</ele>
                <time>2020-08-21T11:10:33.000Z</time>
                <name>Trackpoint 688</name>
            </trkpt>
            <trkpt lat="49.8502656" lon="11.5597448">
                <ele>559.0</ele>
                <time>2020-08-21T11:10:37.000Z</time>
                <name>Trackpoint 689</name>
            </trkpt>
            <trkpt lat="49.8503488" lon="11.55968">
                <ele>559.0</ele>
                <time>2020-08-21T11:10:40.000Z</time>
                <name>Trackpoint 690</name>
            </trkpt>
            <trkpt lat="49.8504608" lon="11.5596248">
                <ele>560.0</ele>
                <time>2020-08-21T11:10:43.000Z</time>
                <name>Trackpoint 691</name>
            </trkpt>
            <trkpt lat="49.8505632" lon="11.5595752">
                <ele>560.0</ele>
                <time>2020-08-21T11:10:47.000Z</time>
                <name>Trackpoint 692</name>
            </trkpt>
            <trkpt lat="49.8506432" lon="11.5595232">
                <ele>561.0</ele>
                <time>2020-08-21T11:10:50.000Z</time>
                <name>Trackpoint 693</name>
            </trkpt>
            <trkpt lat="49.8507392" lon="11.5594984">
                <ele>561.0</ele>
                <time>2020-08-21T11:10:53.000Z</time>
                <name>Trackpoint 694</name>
            </trkpt>
            <trkpt lat="49.8508288" lon="11.5594464">
                <ele>562.0</ele>
                <time>2020-08-21T11:10:56.000Z</time>
                <name>Trackpoint 695</name>
            </trkpt>
            <trkpt lat="49.8509216" lon="11.5593752">
                <ele>562.0</ele>
                <time>2020-08-21T11:11:00.000Z</time>
                <name>Trackpoint 696</name>
            </trkpt>
            <trkpt lat="49.8510048" lon="11.5593048">
                <ele>562.0</ele>
                <time>2020-08-21T11:11:03.000Z</time>
                <name>Trackpoint 697</name>
            </trkpt>
            <trkpt lat="49.8511072" lon="11.5592336">
                <ele>562.0</ele>
                <time>2020-08-21T11:11:06.000Z</time>
                <name>Trackpoint 698</name>
            </trkpt>
            <trkpt lat="49.8511776" lon="11.5591744">
                <ele>563.0</ele>
                <time>2020-08-21T11:11:09.000Z</time>
                <name>Trackpoint 699</name>
            </trkpt>
            <trkpt lat="49.8512544" lon="11.559096">
                <ele>563.0</ele>
                <time>2020-08-21T11:11:12.000Z</time>
                <name>Trackpoint 700</name>
            </trkpt>
            <trkpt lat="49.8513312" lon="11.5590064">
                <ele>564.0</ele>
                <time>2020-08-21T11:11:15.000Z</time>
                <name>Trackpoint 701</name>
            </trkpt>
            <trkpt lat="49.851392" lon="11.5589176">
                <ele>564.0</ele>
                <time>2020-08-21T11:11:19.000Z</time>
                <name>Trackpoint 702</name>
            </trkpt>
            <trkpt lat="49.8514624" lon="11.55886">
                <ele>565.0</ele>
                <time>2020-08-21T11:11:23.000Z</time>
                <name>Trackpoint 703</name>
            </trkpt>
            <trkpt lat="49.8515424" lon="11.55878">
                <ele>565.0</ele>
                <time>2020-08-21T11:11:27.000Z</time>
                <name>Trackpoint 704</name>
            </trkpt>
            <trkpt lat="49.851616" lon="11.5587264">
                <ele>565.0</ele>
                <time>2020-08-21T11:11:30.000Z</time>
                <name>Trackpoint 705</name>
            </trkpt>
            <trkpt lat="49.851712" lon="11.5586664">
                <ele>565.0</ele>
                <time>2020-08-21T11:11:33.000Z</time>
                <name>Trackpoint 706</name>
            </trkpt>
            <trkpt lat="49.851808" lon="11.5585936">
                <ele>566.0</ele>
                <time>2020-08-21T11:11:36.000Z</time>
                <name>Trackpoint 707</name>
            </trkpt>
            <trkpt lat="49.8519136" lon="11.558512">
                <ele>566.0</ele>
                <time>2020-08-21T11:11:39.000Z</time>
                <name>Trackpoint 708</name>
            </trkpt>
            <trkpt lat="49.852" lon="11.558452">
                <ele>566.0</ele>
                <time>2020-08-21T11:11:41.000Z</time>
                <name>Trackpoint 709</name>
            </trkpt>
            <trkpt lat="49.8520768" lon="11.55838">
                <ele>566.0</ele>
                <time>2020-08-21T11:11:43.000Z</time>
                <name>Trackpoint 710</name>
            </trkpt>
            <trkpt lat="49.8521504" lon="11.5583048">
                <ele>566.0</ele>
                <time>2020-08-21T11:11:45.000Z</time>
                <name>Trackpoint 711</name>
            </trkpt>
            <trkpt lat="49.8522176" lon="11.5582336">
                <ele>566.0</ele>
                <time>2020-08-21T11:11:47.000Z</time>
                <name>Trackpoint 712</name>
            </trkpt>
            <trkpt lat="49.8523104" lon="11.558148">
                <ele>566.0</ele>
                <time>2020-08-21T11:11:50.000Z</time>
                <name>Trackpoint 713</name>
            </trkpt>
            <trkpt lat="49.8524032" lon="11.5580664">
                <ele>566.0</ele>
                <time>2020-08-21T11:11:53.000Z</time>
                <name>Trackpoint 714</name>
            </trkpt>
            <trkpt lat="49.8524672" lon="11.5579952">
                <ele>566.0</ele>
                <time>2020-08-21T11:11:55.000Z</time>
                <name>Trackpoint 715</name>
            </trkpt>
            <trkpt lat="49.8525504" lon="11.5579272">
                <ele>566.0</ele>
                <time>2020-08-21T11:11:57.000Z</time>
                <name>Trackpoint 716</name>
            </trkpt>
            <trkpt lat="49.8526368" lon="11.5578544">
                <ele>567.0</ele>
                <time>2020-08-21T11:11:59.000Z</time>
                <name>Trackpoint 717</name>
            </trkpt>
            <trkpt lat="49.852736" lon="11.5577784">
                <ele>567.0</ele>
                <time>2020-08-21T11:12:01.000Z</time>
                <name>Trackpoint 718</name>
            </trkpt>
            <trkpt lat="49.852848" lon="11.557696">
                <ele>567.0</ele>
                <time>2020-08-21T11:12:03.000Z</time>
                <name>Trackpoint 719</name>
            </trkpt>
            <trkpt lat="49.8529536" lon="11.5576232">
                <ele>567.0</ele>
                <time>2020-08-21T11:12:05.000Z</time>
                <name>Trackpoint 720</name>
            </trkpt>
            <trkpt lat="49.8530336" lon="11.5575448">
                <ele>567.0</ele>
                <time>2020-08-21T11:12:07.000Z</time>
                <name>Trackpoint 721</name>
            </trkpt>
            <trkpt lat="49.85312" lon="11.5574776">
                <ele>567.0</ele>
                <time>2020-08-21T11:12:09.000Z</time>
                <name>Trackpoint 722</name>
            </trkpt>
            <trkpt lat="49.8531936" lon="11.5573984">
                <ele>568.0</ele>
                <time>2020-08-21T11:12:11.000Z</time>
                <name>Trackpoint 723</name>
            </trkpt>
            <trkpt lat="49.8532768" lon="11.5573264">
                <ele>568.0</ele>
                <time>2020-08-21T11:12:13.000Z</time>
                <name>Trackpoint 724</name>
            </trkpt>
            <trkpt lat="49.8533664" lon="11.5572544">
                <ele>568.0</ele>
                <time>2020-08-21T11:12:15.000Z</time>
                <name>Trackpoint 725</name>
            </trkpt>
            <trkpt lat="49.8534464" lon="11.5571808">
                <ele>568.0</ele>
                <time>2020-08-21T11:12:17.000Z</time>
                <name>Trackpoint 726</name>
            </trkpt>
            <trkpt lat="49.85352" lon="11.5571048">
                <ele>568.0</ele>
                <time>2020-08-21T11:12:19.000Z</time>
                <name>Trackpoint 727</name>
            </trkpt>
            <trkpt lat="49.8535904" lon="11.5570296">
                <ele>568.0</ele>
                <time>2020-08-21T11:12:21.000Z</time>
                <name>Trackpoint 728</name>
            </trkpt>
            <trkpt lat="49.8536608" lon="11.5569336">
                <ele>569.0</ele>
                <time>2020-08-21T11:12:23.000Z</time>
                <name>Trackpoint 729</name>
            </trkpt>
            <trkpt lat="49.8537344" lon="11.5568512">
                <ele>569.0</ele>
                <time>2020-08-21T11:12:25.000Z</time>
                <name>Trackpoint 730</name>
            </trkpt>
            <trkpt lat="49.8538048" lon="11.5567776">
                <ele>569.0</ele>
                <time>2020-08-21T11:12:27.000Z</time>
                <name>Trackpoint 731</name>
            </trkpt>
            <trkpt lat="49.8538592" lon="11.5566768">
                <ele>569.0</ele>
                <time>2020-08-21T11:12:29.000Z</time>
                <name>Trackpoint 732</name>
            </trkpt>
            <trkpt lat="49.8539136" lon="11.556568">
                <ele>569.0</ele>
                <time>2020-08-21T11:12:31.000Z</time>
                <name>Trackpoint 733</name>
            </trkpt>
            <trkpt lat="49.8539616" lon="11.556472">
                <ele>570.0</ele>
                <time>2020-08-21T11:12:33.000Z</time>
                <name>Trackpoint 734</name>
            </trkpt>
            <trkpt lat="49.8540032" lon="11.5563648">
                <ele>570.0</ele>
                <time>2020-08-21T11:12:35.000Z</time>
                <name>Trackpoint 735</name>
            </trkpt>
            <trkpt lat="49.8540544" lon="11.5562632">
                <ele>570.0</ele>
                <time>2020-08-21T11:12:37.000Z</time>
                <name>Trackpoint 736</name>
            </trkpt>
            <trkpt lat="49.8541056" lon="11.556144">
                <ele>570.0</ele>
                <time>2020-08-21T11:12:39.000Z</time>
                <name>Trackpoint 737</name>
            </trkpt>
            <trkpt lat="49.8541568" lon="11.5560376">
                <ele>570.0</ele>
                <time>2020-08-21T11:12:41.000Z</time>
                <name>Trackpoint 738</name>
            </trkpt>
            <trkpt lat="49.8542144" lon="11.555912">
                <ele>570.0</ele>
                <time>2020-08-21T11:12:43.000Z</time>
                <name>Trackpoint 739</name>
            </trkpt>
            <trkpt lat="49.8542656" lon="11.5558168">
                <ele>571.0</ele>
                <time>2020-08-21T11:12:45.000Z</time>
                <name>Trackpoint 740</name>
            </trkpt>
            <trkpt lat="49.8543136" lon="11.5557184">
                <ele>571.0</ele>
                <time>2020-08-21T11:12:47.000Z</time>
                <name>Trackpoint 741</name>
            </trkpt>
            <trkpt lat="49.854352" lon="11.5556272">
                <ele>571.0</ele>
                <time>2020-08-21T11:12:49.000Z</time>
                <name>Trackpoint 742</name>
            </trkpt>
            <trkpt lat="49.8543936" lon="11.5555136">
                <ele>571.0</ele>
                <time>2020-08-21T11:12:51.000Z</time>
                <name>Trackpoint 743</name>
            </trkpt>
            <trkpt lat="49.8544288" lon="11.5554">
                <ele>572.0</ele>
                <time>2020-08-21T11:12:53.000Z</time>
                <name>Trackpoint 744</name>
            </trkpt>
            <trkpt lat="49.8544608" lon="11.5552904">
                <ele>572.0</ele>
                <time>2020-08-21T11:12:55.000Z</time>
                <name>Trackpoint 745</name>
            </trkpt>
            <trkpt lat="49.8544928" lon="11.555188">
                <ele>572.0</ele>
                <time>2020-08-21T11:12:57.000Z</time>
                <name>Trackpoint 746</name>
            </trkpt>
            <trkpt lat="49.8545184" lon="11.5550808">
                <ele>572.0</ele>
                <time>2020-08-21T11:12:59.000Z</time>
                <name>Trackpoint 747</name>
            </trkpt>
            <trkpt lat="49.8545632" lon="11.5549784">
                <ele>573.0</ele>
                <time>2020-08-21T11:13:01.000Z</time>
                <name>Trackpoint 748</name>
            </trkpt>
            <trkpt lat="49.854608" lon="11.5548784">
                <ele>573.0</ele>
                <time>2020-08-21T11:13:03.000Z</time>
                <name>Trackpoint 749</name>
            </trkpt>
            <trkpt lat="49.8546592" lon="11.554776">
                <ele>573.0</ele>
                <time>2020-08-21T11:13:05.000Z</time>
                <name>Trackpoint 750</name>
            </trkpt>
            <trkpt lat="49.8547072" lon="11.5546728">
                <ele>573.0</ele>
                <time>2020-08-21T11:13:07.000Z</time>
                <name>Trackpoint 751</name>
            </trkpt>
            <trkpt lat="49.8547584" lon="11.554568">
                <ele>573.0</ele>
                <time>2020-08-21T11:13:09.000Z</time>
                <name>Trackpoint 752</name>
            </trkpt>
            <trkpt lat="49.8548128" lon="11.5544584">
                <ele>573.0</ele>
                <time>2020-08-21T11:13:11.000Z</time>
                <name>Trackpoint 753</name>
            </trkpt>
            <trkpt lat="49.8548576" lon="11.5543384">
                <ele>573.0</ele>
                <time>2020-08-21T11:13:13.000Z</time>
                <name>Trackpoint 754</name>
            </trkpt>
            <trkpt lat="49.8549088" lon="11.5542136">
                <ele>573.0</ele>
                <time>2020-08-21T11:13:15.000Z</time>
                <name>Trackpoint 755</name>
            </trkpt>
            <trkpt lat="49.8549504" lon="11.554076">
                <ele>573.0</ele>
                <time>2020-08-21T11:13:17.000Z</time>
                <name>Trackpoint 756</name>
            </trkpt>
            <trkpt lat="49.8549888" lon="11.5539376">
                <ele>573.0</ele>
                <time>2020-08-21T11:13:19.000Z</time>
                <name>Trackpoint 757</name>
            </trkpt>
            <trkpt lat="49.8550304" lon="11.5538056">
                <ele>573.0</ele>
                <time>2020-08-21T11:13:21.000Z</time>
                <name>Trackpoint 758</name>
            </trkpt>
            <trkpt lat="49.855056" lon="11.5536984">
                <ele>573.0</ele>
                <time>2020-08-21T11:13:23.000Z</time>
                <name>Trackpoint 759</name>
            </trkpt>
            <trkpt lat="49.8550944" lon="11.5535832">
                <ele>573.0</ele>
                <time>2020-08-21T11:13:25.000Z</time>
                <name>Trackpoint 760</name>
            </trkpt>
            <trkpt lat="49.8551264" lon="11.5534464">
                <ele>574.0</ele>
                <time>2020-08-21T11:13:27.000Z</time>
                <name>Trackpoint 761</name>
            </trkpt>
            <trkpt lat="49.8551584" lon="11.5533304">
                <ele>574.0</ele>
                <time>2020-08-21T11:13:29.000Z</time>
                <name>Trackpoint 762</name>
            </trkpt>
            <trkpt lat="49.8551904" lon="11.55318">
                <ele>574.0</ele>
                <time>2020-08-21T11:13:31.000Z</time>
                <name>Trackpoint 763</name>
            </trkpt>
            <trkpt lat="49.8552288" lon="11.5530584">
                <ele>574.0</ele>
                <time>2020-08-21T11:13:33.000Z</time>
                <name>Trackpoint 764</name>
            </trkpt>
            <trkpt lat="49.8552672" lon="11.552932">
                <ele>575.0</ele>
                <time>2020-08-21T11:13:35.000Z</time>
                <name>Trackpoint 765</name>
            </trkpt>
            <trkpt lat="49.855296" lon="11.552832">
                <ele>575.0</ele>
                <time>2020-08-21T11:13:37.000Z</time>
                <name>Trackpoint 766</name>
            </trkpt>
            <trkpt lat="49.8553344" lon="11.5527288">
                <ele>575.0</ele>
                <time>2020-08-21T11:13:39.000Z</time>
                <name>Trackpoint 767</name>
            </trkpt>
            <trkpt lat="49.855376" lon="11.5526264">
                <ele>575.0</ele>
                <time>2020-08-21T11:13:41.000Z</time>
                <name>Trackpoint 768</name>
            </trkpt>
            <trkpt lat="49.8554016" lon="11.552488">
                <ele>575.0</ele>
                <time>2020-08-21T11:13:43.000Z</time>
                <name>Trackpoint 769</name>
            </trkpt>
            <trkpt lat="49.8554304" lon="11.5523704">
                <ele>575.0</ele>
                <time>2020-08-21T11:13:45.000Z</time>
                <name>Trackpoint 770</name>
            </trkpt>
            <trkpt lat="49.8554752" lon="11.552288">
                <ele>575.0</ele>
                <time>2020-08-21T11:13:46.000Z</time>
                <name>Trackpoint 771</name>
            </trkpt>
            <trkpt lat="49.8555232" lon="11.5521744">
                <ele>576.0</ele>
                <time>2020-08-21T11:13:48.000Z</time>
                <name>Trackpoint 772</name>
            </trkpt>
            <trkpt lat="49.8555648" lon="11.5520784">
                <ele>576.0</ele>
                <time>2020-08-21T11:13:50.000Z</time>
                <name>Trackpoint 773</name>
            </trkpt>
            <trkpt lat="49.8556064" lon="11.551964">
                <ele>576.0</ele>
                <time>2020-08-21T11:13:52.000Z</time>
                <name>Trackpoint 774</name>
            </trkpt>
            <trkpt lat="49.8556416" lon="11.5518352">
                <ele>577.0</ele>
                <time>2020-08-21T11:13:55.000Z</time>
                <name>Trackpoint 775</name>
            </trkpt>
            <trkpt lat="49.8556512" lon="11.5517128">
                <ele>578.0</ele>
                <time>2020-08-21T11:14:22.000Z</time>
                <name>Trackpoint 776</name>
            </trkpt>
            <trkpt lat="49.8556864" lon="11.551592">
                <ele>578.0</ele>
                <time>2020-08-21T11:14:25.000Z</time>
                <name>Trackpoint 777</name>
            </trkpt>
            <trkpt lat="49.8557056" lon="11.551488">
                <ele>578.0</ele>
                <time>2020-08-21T11:14:27.000Z</time>
                <name>Trackpoint 778</name>
            </trkpt>
            <trkpt lat="49.855744" lon="11.55136">
                <ele>578.0</ele>
                <time>2020-08-21T11:14:29.000Z</time>
                <name>Trackpoint 779</name>
            </trkpt>
            <trkpt lat="49.8557728" lon="11.5512512">
                <ele>578.0</ele>
                <time>2020-08-21T11:14:31.000Z</time>
                <name>Trackpoint 780</name>
            </trkpt>
            <trkpt lat="49.8558336" lon="11.5511248">
                <ele>578.0</ele>
                <time>2020-08-21T11:14:33.000Z</time>
                <name>Trackpoint 781</name>
            </trkpt>
            <trkpt lat="49.8558528" lon="11.5509952">
                <ele>578.0</ele>
                <time>2020-08-21T11:14:35.000Z</time>
                <name>Trackpoint 782</name>
            </trkpt>
            <trkpt lat="49.8558464" lon="11.5508672">
                <ele>578.0</ele>
                <time>2020-08-21T11:14:37.000Z</time>
                <name>Trackpoint 783</name>
            </trkpt>
            <trkpt lat="49.8558624" lon="11.5507408">
                <ele>578.0</ele>
                <time>2020-08-21T11:14:39.000Z</time>
                <name>Trackpoint 784</name>
            </trkpt>
            <trkpt lat="49.8558624" lon="11.5506336">
                <ele>578.0</ele>
                <time>2020-08-21T11:14:41.000Z</time>
                <name>Trackpoint 785</name>
            </trkpt>
            <trkpt lat="49.8558816" lon="11.5505216">
                <ele>578.0</ele>
                <time>2020-08-21T11:14:43.000Z</time>
                <name>Trackpoint 786</name>
            </trkpt>
            <trkpt lat="49.85592" lon="11.5504216">
                <ele>578.0</ele>
                <time>2020-08-21T11:14:45.000Z</time>
                <name>Trackpoint 787</name>
            </trkpt>
            <trkpt lat="49.8559456" lon="11.550328">
                <ele>578.0</ele>
                <time>2020-08-21T11:14:47.000Z</time>
                <name>Trackpoint 788</name>
            </trkpt>
            <trkpt lat="49.855968" lon="11.5502096">
                <ele>578.0</ele>
                <time>2020-08-21T11:14:49.000Z</time>
                <name>Trackpoint 789</name>
            </trkpt>
            <trkpt lat="49.8559872" lon="11.5500672">
                <ele>578.0</ele>
                <time>2020-08-21T11:14:51.000Z</time>
                <name>Trackpoint 790</name>
            </trkpt>
            <trkpt lat="49.8560128" lon="11.5499352">
                <ele>578.0</ele>
                <time>2020-08-21T11:14:53.000Z</time>
                <name>Trackpoint 791</name>
            </trkpt>
            <trkpt lat="49.8560576" lon="11.5497968">
                <ele>578.0</ele>
                <time>2020-08-21T11:14:55.000Z</time>
                <name>Trackpoint 792</name>
            </trkpt>
            <trkpt lat="49.8560672" lon="11.5496792">
                <ele>578.0</ele>
                <time>2020-08-21T11:14:57.000Z</time>
                <name>Trackpoint 793</name>
            </trkpt>
            <trkpt lat="49.8560768" lon="11.5495784">
                <ele>578.0</ele>
                <time>2020-08-21T11:14:59.000Z</time>
                <name>Trackpoint 794</name>
            </trkpt>
            <trkpt lat="49.8560864" lon="11.5494216">
                <ele>578.0</ele>
                <time>2020-08-21T11:15:01.000Z</time>
                <name>Trackpoint 795</name>
            </trkpt>
            <trkpt lat="49.8561088" lon="11.549312">
                <ele>578.0</ele>
                <time>2020-08-21T11:15:03.000Z</time>
                <name>Trackpoint 796</name>
            </trkpt>
            <trkpt lat="49.856128" lon="11.5491696">
                <ele>578.0</ele>
                <time>2020-08-21T11:15:05.000Z</time>
                <name>Trackpoint 797</name>
            </trkpt>
            <trkpt lat="49.8561472" lon="11.5490648">
                <ele>578.0</ele>
                <time>2020-08-21T11:15:07.000Z</time>
                <name>Trackpoint 798</name>
            </trkpt>
            <trkpt lat="49.8561696" lon="11.54894">
                <ele>578.0</ele>
                <time>2020-08-21T11:15:09.000Z</time>
                <name>Trackpoint 799</name>
            </trkpt>
            <trkpt lat="49.8562016" lon="11.5487856">
                <ele>578.0</ele>
                <time>2020-08-21T11:15:11.000Z</time>
                <name>Trackpoint 800</name>
            </trkpt>
            <trkpt lat="49.8562272" lon="11.5486696">
                <ele>578.0</ele>
                <time>2020-08-21T11:15:13.000Z</time>
                <name>Trackpoint 801</name>
            </trkpt>
            <trkpt lat="49.8562368" lon="11.5485736">
                <ele>578.0</ele>
                <time>2020-08-21T11:15:15.000Z</time>
                <name>Trackpoint 802</name>
            </trkpt>
            <trkpt lat="49.8562432" lon="11.5484504">
                <ele>578.0</ele>
                <time>2020-08-21T11:15:18.000Z</time>
                <name>Trackpoint 803</name>
            </trkpt>
            <trkpt lat="49.8562208" lon="11.54832">
                <ele>579.0</ele>
                <time>2020-08-21T11:15:21.000Z</time>
                <name>Trackpoint 804</name>
            </trkpt>
            <trkpt lat="49.8562112" lon="11.5482216">
                <ele>579.0</ele>
                <time>2020-08-21T11:15:23.000Z</time>
                <name>Trackpoint 805</name>
            </trkpt>
            <trkpt lat="49.8562112" lon="11.5481264">
                <ele>580.0</ele>
                <time>2020-08-21T11:15:25.000Z</time>
                <name>Trackpoint 806</name>
            </trkpt>
            <trkpt lat="49.856208" lon="11.548008">
                <ele>580.0</ele>
                <time>2020-08-21T11:15:27.000Z</time>
                <name>Trackpoint 807</name>
            </trkpt>
            <trkpt lat="49.856192" lon="11.5478848">
                <ele>580.0</ele>
                <time>2020-08-21T11:15:29.000Z</time>
                <name>Trackpoint 808</name>
            </trkpt>
            <trkpt lat="49.8561984" lon="11.5477712">
                <ele>580.0</ele>
                <time>2020-08-21T11:15:31.000Z</time>
                <name>Trackpoint 809</name>
            </trkpt>
            <trkpt lat="49.8561984" lon="11.547624">
                <ele>580.0</ele>
                <time>2020-08-21T11:15:33.000Z</time>
                <name>Trackpoint 810</name>
            </trkpt>
            <trkpt lat="49.8562016" lon="11.5475">
                <ele>580.0</ele>
                <time>2020-08-21T11:15:35.000Z</time>
                <name>Trackpoint 811</name>
            </trkpt>
            <trkpt lat="49.8562016" lon="11.547392">
                <ele>581.0</ele>
                <time>2020-08-21T11:15:37.000Z</time>
                <name>Trackpoint 812</name>
            </trkpt>
            <trkpt lat="49.856192" lon="11.5472848">
                <ele>581.0</ele>
                <time>2020-08-21T11:15:39.000Z</time>
                <name>Trackpoint 813</name>
            </trkpt>
            <trkpt lat="49.856192" lon="11.5471784">
                <ele>581.0</ele>
                <time>2020-08-21T11:15:41.000Z</time>
                <name>Trackpoint 814</name>
            </trkpt>
            <trkpt lat="49.856176" lon="11.5470312">
                <ele>581.0</ele>
                <time>2020-08-21T11:15:43.000Z</time>
                <name>Trackpoint 815</name>
            </trkpt>
            <trkpt lat="49.8561696" lon="11.5469128">
                <ele>581.0</ele>
                <time>2020-08-21T11:15:45.000Z</time>
                <name>Trackpoint 816</name>
            </trkpt>
            <trkpt lat="49.856208" lon="11.5467856">
                <ele>581.0</ele>
                <time>2020-08-21T11:15:47.000Z</time>
                <name>Trackpoint 817</name>
            </trkpt>
            <trkpt lat="49.8562432" lon="11.5466536">
                <ele>581.0</ele>
                <time>2020-08-21T11:15:49.000Z</time>
                <name>Trackpoint 818</name>
            </trkpt>
            <trkpt lat="49.8562592" lon="11.5465368">
                <ele>581.0</ele>
                <time>2020-08-21T11:15:51.000Z</time>
                <name>Trackpoint 819</name>
            </trkpt>
            <trkpt lat="49.8562848" lon="11.5464336">
                <ele>581.0</ele>
                <time>2020-08-21T11:15:53.000Z</time>
                <name>Trackpoint 820</name>
            </trkpt>
            <trkpt lat="49.8562976" lon="11.546304">
                <ele>582.0</ele>
                <time>2020-08-21T11:15:56.000Z</time>
                <name>Trackpoint 821</name>
            </trkpt>
            <trkpt lat="49.8563008" lon="11.5462128">
                <ele>582.0</ele>
                <time>2020-08-21T11:15:58.000Z</time>
                <name>Trackpoint 822</name>
            </trkpt>
            <trkpt lat="49.8563264" lon="11.5461168">
                <ele>582.0</ele>
                <time>2020-08-21T11:16:00.000Z</time>
                <name>Trackpoint 823</name>
            </trkpt>
            <trkpt lat="49.8563488" lon="11.5460168">
                <ele>583.0</ele>
                <time>2020-08-21T11:16:02.000Z</time>
                <name>Trackpoint 824</name>
            </trkpt>
            <trkpt lat="49.856368" lon="11.54592">
                <ele>583.0</ele>
                <time>2020-08-21T11:16:04.000Z</time>
                <name>Trackpoint 825</name>
            </trkpt>
            <trkpt lat="49.8563872" lon="11.5458">
                <ele>583.0</ele>
                <time>2020-08-21T11:16:06.000Z</time>
                <name>Trackpoint 826</name>
            </trkpt>
            <trkpt lat="49.856416" lon="11.5456752">
                <ele>583.0</ele>
                <time>2020-08-21T11:16:08.000Z</time>
                <name>Trackpoint 827</name>
            </trkpt>
            <trkpt lat="49.8564288" lon="11.5455784">
                <ele>583.0</ele>
                <time>2020-08-21T11:16:10.000Z</time>
                <name>Trackpoint 828</name>
            </trkpt>
            <trkpt lat="49.8564544" lon="11.5454456">
                <ele>583.0</ele>
                <time>2020-08-21T11:16:13.000Z</time>
                <name>Trackpoint 829</name>
            </trkpt>
            <trkpt lat="49.8564576" lon="11.545352">
                <ele>584.0</ele>
                <time>2020-08-21T11:16:15.000Z</time>
                <name>Trackpoint 830</name>
            </trkpt>
            <trkpt lat="49.8564416" lon="11.5452632">
                <ele>584.0</ele>
                <time>2020-08-21T11:16:17.000Z</time>
                <name>Trackpoint 831</name>
            </trkpt>
            <trkpt lat="49.8564352" lon="11.5451584">
                <ele>584.0</ele>
                <time>2020-08-21T11:16:19.000Z</time>
                <name>Trackpoint 832</name>
            </trkpt>
            <trkpt lat="49.8564416" lon="11.5450488">
                <ele>584.0</ele>
                <time>2020-08-21T11:16:21.000Z</time>
                <name>Trackpoint 833</name>
            </trkpt>
            <trkpt lat="49.856464" lon="11.544956">
                <ele>584.0</ele>
                <time>2020-08-21T11:16:23.000Z</time>
                <name>Trackpoint 834</name>
            </trkpt>
            <trkpt lat="49.8564736" lon="11.5448648">
                <ele>584.0</ele>
                <time>2020-08-21T11:16:25.000Z</time>
                <name>Trackpoint 835</name>
            </trkpt>
            <trkpt lat="49.856496" lon="11.5447712">
                <ele>585.0</ele>
                <time>2020-08-21T11:16:27.000Z</time>
                <name>Trackpoint 836</name>
            </trkpt>
            <trkpt lat="49.8565056" lon="11.544672">
                <ele>585.0</ele>
                <time>2020-08-21T11:16:29.000Z</time>
                <name>Trackpoint 837</name>
            </trkpt>
            <trkpt lat="49.8565344" lon="11.5445632">
                <ele>585.0</ele>
                <time>2020-08-21T11:16:31.000Z</time>
                <name>Trackpoint 838</name>
            </trkpt>
            <trkpt lat="49.8565664" lon="11.544428">
                <ele>585.0</ele>
                <time>2020-08-21T11:16:33.000Z</time>
                <name>Trackpoint 839</name>
            </trkpt>
            <trkpt lat="49.8565984" lon="11.5442936">
                <ele>585.0</ele>
                <time>2020-08-21T11:16:35.000Z</time>
                <name>Trackpoint 840</name>
            </trkpt>
            <trkpt lat="49.856624" lon="11.5441784">
                <ele>585.0</ele>
                <time>2020-08-21T11:16:38.000Z</time>
                <name>Trackpoint 841</name>
            </trkpt>
            <trkpt lat="49.8566464" lon="11.5440752">
                <ele>586.0</ele>
                <time>2020-08-21T11:16:40.000Z</time>
                <name>Trackpoint 842</name>
            </trkpt>
            <trkpt lat="49.8566656" lon="11.5439856">
                <ele>586.0</ele>
                <time>2020-08-21T11:16:42.000Z</time>
                <name>Trackpoint 843</name>
            </trkpt>
            <trkpt lat="49.856704" lon="11.5438872">
                <ele>586.0</ele>
                <time>2020-08-21T11:16:44.000Z</time>
                <name>Trackpoint 844</name>
            </trkpt>
            <trkpt lat="49.856736" lon="11.5437816">
                <ele>586.0</ele>
                <time>2020-08-21T11:16:46.000Z</time>
                <name>Trackpoint 845</name>
            </trkpt>
            <trkpt lat="49.8567424" lon="11.5436648">
                <ele>587.0</ele>
                <time>2020-08-21T11:16:48.000Z</time>
                <name>Trackpoint 846</name>
            </trkpt>
            <trkpt lat="49.8567808" lon="11.5435488">
                <ele>587.0</ele>
                <time>2020-08-21T11:16:50.000Z</time>
                <name>Trackpoint 847</name>
            </trkpt>
            <trkpt lat="49.856784" lon="11.5434448">
                <ele>588.0</ele>
                <time>2020-08-21T11:16:52.000Z</time>
                <name>Trackpoint 848</name>
            </trkpt>
            <trkpt lat="49.8568224" lon="11.5433152">
                <ele>588.0</ele>
                <time>2020-08-21T11:16:55.000Z</time>
                <name>Trackpoint 849</name>
            </trkpt>
            <trkpt lat="49.8568608" lon="11.5431944">
                <ele>589.0</ele>
                <time>2020-08-21T11:16:58.000Z</time>
                <name>Trackpoint 850</name>
            </trkpt>
            <trkpt lat="49.8569056" lon="11.543092">
                <ele>589.0</ele>
                <time>2020-08-21T11:17:01.000Z</time>
                <name>Trackpoint 851</name>
            </trkpt>
            <trkpt lat="49.8569728" lon="11.5429648">
                <ele>589.0</ele>
                <time>2020-08-21T11:17:04.000Z</time>
                <name>Trackpoint 852</name>
            </trkpt>
            <trkpt lat="49.8570496" lon="11.5428488">
                <ele>589.0</ele>
                <time>2020-08-21T11:17:06.000Z</time>
                <name>Trackpoint 853</name>
            </trkpt>
            <trkpt lat="49.8570912" lon="11.5427488">
                <ele>589.0</ele>
                <time>2020-08-21T11:17:08.000Z</time>
                <name>Trackpoint 854</name>
            </trkpt>
            <trkpt lat="49.8571296" lon="11.5426328">
                <ele>589.0</ele>
                <time>2020-08-21T11:17:10.000Z</time>
                <name>Trackpoint 855</name>
            </trkpt>
            <trkpt lat="49.8571616" lon="11.542548">
                <ele>589.0</ele>
                <time>2020-08-21T11:17:12.000Z</time>
                <name>Trackpoint 856</name>
            </trkpt>
            <trkpt lat="49.8571968" lon="11.5424432">
                <ele>590.0</ele>
                <time>2020-08-21T11:17:14.000Z</time>
                <name>Trackpoint 857</name>
            </trkpt>
            <trkpt lat="49.8572384" lon="11.5423144">
                <ele>590.0</ele>
                <time>2020-08-21T11:17:16.000Z</time>
                <name>Trackpoint 858</name>
            </trkpt>
            <trkpt lat="49.8572736" lon="11.542196">
                <ele>590.0</ele>
                <time>2020-08-21T11:17:18.000Z</time>
                <name>Trackpoint 859</name>
            </trkpt>
            <trkpt lat="49.8573152" lon="11.5420664">
                <ele>590.0</ele>
                <time>2020-08-21T11:17:20.000Z</time>
                <name>Trackpoint 860</name>
            </trkpt>
            <trkpt lat="49.857344" lon="11.5419528">
                <ele>590.0</ele>
                <time>2020-08-21T11:17:22.000Z</time>
                <name>Trackpoint 861</name>
            </trkpt>
            <trkpt lat="49.8573952" lon="11.5418264">
                <ele>590.0</ele>
                <time>2020-08-21T11:17:24.000Z</time>
                <name>Trackpoint 862</name>
            </trkpt>
            <trkpt lat="49.8574336" lon="11.5416944">
                <ele>590.0</ele>
                <time>2020-08-21T11:17:26.000Z</time>
                <name>Trackpoint 863</name>
            </trkpt>
            <trkpt lat="49.8574624" lon="11.54156">
                <ele>591.0</ele>
                <time>2020-08-21T11:17:28.000Z</time>
                <name>Trackpoint 864</name>
            </trkpt>
            <trkpt lat="49.8574944" lon="11.5414552">
                <ele>591.0</ele>
                <time>2020-08-21T11:17:30.000Z</time>
                <name>Trackpoint 865</name>
            </trkpt>
            <trkpt lat="49.85752" lon="11.5413016">
                <ele>591.0</ele>
                <time>2020-08-21T11:17:33.000Z</time>
                <name>Trackpoint 866</name>
            </trkpt>
            <trkpt lat="49.8575552" lon="11.5411984">
                <ele>591.0</ele>
                <time>2020-08-21T11:17:35.000Z</time>
                <name>Trackpoint 867</name>
            </trkpt>
            <trkpt lat="49.8575968" lon="11.5410864">
                <ele>591.0</ele>
                <time>2020-08-21T11:17:37.000Z</time>
                <name>Trackpoint 868</name>
            </trkpt>
            <trkpt lat="49.8576416" lon="11.5409616">
                <ele>592.0</ele>
                <time>2020-08-21T11:17:39.000Z</time>
                <name>Trackpoint 869</name>
            </trkpt>
            <trkpt lat="49.8576736" lon="11.5408584">
                <ele>592.0</ele>
                <time>2020-08-21T11:17:41.000Z</time>
                <name>Trackpoint 870</name>
            </trkpt>
            <trkpt lat="49.857712" lon="11.54076">
                <ele>592.0</ele>
                <time>2020-08-21T11:17:43.000Z</time>
                <name>Trackpoint 871</name>
            </trkpt>
            <trkpt lat="49.8577312" lon="11.5406616">
                <ele>592.0</ele>
                <time>2020-08-21T11:17:45.000Z</time>
                <name>Trackpoint 872</name>
            </trkpt>
            <trkpt lat="49.8577568" lon="11.540568">
                <ele>592.0</ele>
                <time>2020-08-21T11:17:47.000Z</time>
                <name>Trackpoint 873</name>
            </trkpt>
            <trkpt lat="49.857792" lon="11.5404432">
                <ele>592.0</ele>
                <time>2020-08-21T11:17:49.000Z</time>
                <name>Trackpoint 874</name>
            </trkpt>
            <trkpt lat="49.857808" lon="11.5403432">
                <ele>592.0</ele>
                <time>2020-08-21T11:17:51.000Z</time>
                <name>Trackpoint 875</name>
            </trkpt>
            <trkpt lat="49.85784" lon="11.5402272">
                <ele>592.0</ele>
                <time>2020-08-21T11:17:53.000Z</time>
                <name>Trackpoint 876</name>
            </trkpt>
            <trkpt lat="49.8578752" lon="11.54012">
                <ele>592.0</ele>
                <time>2020-08-21T11:17:55.000Z</time>
                <name>Trackpoint 877</name>
            </trkpt>
            <trkpt lat="49.857904" lon="11.5400088">
                <ele>592.0</ele>
                <time>2020-08-21T11:17:58.000Z</time>
                <name>Trackpoint 878</name>
            </trkpt>
            <trkpt lat="49.8579232" lon="11.53992">
                <ele>593.0</ele>
                <time>2020-08-21T11:19:34.000Z</time>
                <name>Trackpoint 879</name>
            </trkpt>
            <trkpt lat="49.8579456" lon="11.5398304">
                <ele>593.0</ele>
                <time>2020-08-21T11:19:43.000Z</time>
                <name>Trackpoint 880</name>
            </trkpt>
            <trkpt lat="49.8579712" lon="11.5397104">
                <ele>593.0</ele>
                <time>2020-08-21T11:19:47.000Z</time>
                <name>Trackpoint 881</name>
            </trkpt>
            <trkpt lat="49.8579872" lon="11.53962">
                <ele>593.0</ele>
                <time>2020-08-21T11:19:49.000Z</time>
                <name>Trackpoint 882</name>
            </trkpt>
            <trkpt lat="49.8580256" lon="11.5394848">
                <ele>593.0</ele>
                <time>2020-08-21T11:19:52.000Z</time>
                <name>Trackpoint 883</name>
            </trkpt>
            <trkpt lat="49.8580544" lon="11.5393384">
                <ele>593.0</ele>
                <time>2020-08-21T11:19:55.000Z</time>
                <name>Trackpoint 884</name>
            </trkpt>
            <trkpt lat="49.8580768" lon="11.539244">
                <ele>593.0</ele>
                <time>2020-08-21T11:19:57.000Z</time>
                <name>Trackpoint 885</name>
            </trkpt>
            <trkpt lat="49.8580928" lon="11.5391416">
                <ele>593.0</ele>
                <time>2020-08-21T11:19:59.000Z</time>
                <name>Trackpoint 886</name>
            </trkpt>
            <trkpt lat="49.8581088" lon="11.539052">
                <ele>593.0</ele>
                <time>2020-08-21T11:20:01.000Z</time>
                <name>Trackpoint 887</name>
            </trkpt>
            <trkpt lat="49.858144" lon="11.5389432">
                <ele>593.0</ele>
                <time>2020-08-21T11:20:03.000Z</time>
                <name>Trackpoint 888</name>
            </trkpt>
            <trkpt lat="49.8581568" lon="11.538848">
                <ele>593.0</ele>
                <time>2020-08-21T11:20:05.000Z</time>
                <name>Trackpoint 889</name>
            </trkpt>
            <trkpt lat="49.8581888" lon="11.5387432">
                <ele>593.0</ele>
                <time>2020-08-21T11:20:08.000Z</time>
                <name>Trackpoint 890</name>
            </trkpt>
            <trkpt lat="49.858208" lon="11.5386248">
                <ele>593.0</ele>
                <time>2020-08-21T11:20:11.000Z</time>
                <name>Trackpoint 891</name>
            </trkpt>
            <trkpt lat="49.8582336" lon="11.5385176">
                <ele>593.0</ele>
                <time>2020-08-21T11:20:14.000Z</time>
                <name>Trackpoint 892</name>
            </trkpt>
            <trkpt lat="49.8582496" lon="11.53842">
                <ele>594.0</ele>
                <time>2020-08-21T11:20:16.000Z</time>
                <name>Trackpoint 893</name>
            </trkpt>
            <trkpt lat="49.858256" lon="11.5382904">
                <ele>594.0</ele>
                <time>2020-08-21T11:20:19.000Z</time>
                <name>Trackpoint 894</name>
            </trkpt>
            <trkpt lat="49.8582848" lon="11.5381984">
                <ele>594.0</ele>
                <time>2020-08-21T11:20:21.000Z</time>
                <name>Trackpoint 895</name>
            </trkpt>
            <trkpt lat="49.8582944" lon="11.5381048">
                <ele>594.0</ele>
                <time>2020-08-21T11:20:23.000Z</time>
                <name>Trackpoint 896</name>
            </trkpt>
            <trkpt lat="49.8583232" lon="11.5379936">
                <ele>594.0</ele>
                <time>2020-08-21T11:20:25.000Z</time>
                <name>Trackpoint 897</name>
            </trkpt>
            <trkpt lat="49.8583488" lon="11.5378664">
                <ele>594.0</ele>
                <time>2020-08-21T11:20:27.000Z</time>
                <name>Trackpoint 898</name>
            </trkpt>
            <trkpt lat="49.8583712" lon="11.5377632">
                <ele>594.0</ele>
                <time>2020-08-21T11:20:29.000Z</time>
                <name>Trackpoint 899</name>
            </trkpt>
            <trkpt lat="49.8583936" lon="11.5376568">
                <ele>594.0</ele>
                <time>2020-08-21T11:20:31.000Z</time>
                <name>Trackpoint 900</name>
            </trkpt>
            <trkpt lat="49.8584096" lon="11.5375472">
                <ele>594.0</ele>
                <time>2020-08-21T11:20:33.000Z</time>
                <name>Trackpoint 901</name>
            </trkpt>
            <trkpt lat="49.858432" lon="11.537452">
                <ele>594.0</ele>
                <time>2020-08-21T11:20:35.000Z</time>
                <name>Trackpoint 902</name>
            </trkpt>
            <trkpt lat="49.8584544" lon="11.53736">
                <ele>594.0</ele>
                <time>2020-08-21T11:20:37.000Z</time>
                <name>Trackpoint 903</name>
            </trkpt>
            <trkpt lat="49.85848" lon="11.53724">
                <ele>594.0</ele>
                <time>2020-08-21T11:20:40.000Z</time>
                <name>Trackpoint 904</name>
            </trkpt>
            <trkpt lat="49.8584928" lon="11.5371448">
                <ele>594.0</ele>
                <time>2020-08-21T11:21:14.000Z</time>
                <name>Trackpoint 905</name>
            </trkpt>
            <trkpt lat="49.8585152" lon="11.5370448">
                <ele>594.0</ele>
                <time>2020-08-21T11:21:18.000Z</time>
                <name>Trackpoint 906</name>
            </trkpt>
            <trkpt lat="49.8585312" lon="11.536908">
                <ele>594.0</ele>
                <time>2020-08-21T11:21:21.000Z</time>
                <name>Trackpoint 907</name>
            </trkpt>
            <trkpt lat="49.8585632" lon="11.5368072">
                <ele>594.0</ele>
                <time>2020-08-21T11:21:23.000Z</time>
                <name>Trackpoint 908</name>
            </trkpt>
            <trkpt lat="49.8585888" lon="11.536712">
                <ele>594.0</ele>
                <time>2020-08-21T11:21:25.000Z</time>
                <name>Trackpoint 909</name>
            </trkpt>
            <trkpt lat="49.8586208" lon="11.5366184">
                <ele>594.0</ele>
                <time>2020-08-21T11:21:27.000Z</time>
                <name>Trackpoint 910</name>
            </trkpt>
            <trkpt lat="49.8586464" lon="11.5365264">
                <ele>594.0</ele>
                <time>2020-08-21T11:21:29.000Z</time>
                <name>Trackpoint 911</name>
            </trkpt>
            <trkpt lat="49.858672" lon="11.5364336">
                <ele>594.0</ele>
                <time>2020-08-21T11:21:31.000Z</time>
                <name>Trackpoint 912</name>
            </trkpt>
            <trkpt lat="49.8587136" lon="11.53632">
                <ele>594.0</ele>
                <time>2020-08-21T11:21:34.000Z</time>
                <name>Trackpoint 913</name>
            </trkpt>
            <trkpt lat="49.8587456" lon="11.5362232">
                <ele>594.0</ele>
                <time>2020-08-21T11:21:37.000Z</time>
                <name>Trackpoint 914</name>
            </trkpt>
            <trkpt lat="49.8587648" lon="11.5361232">
                <ele>594.0</ele>
                <time>2020-08-21T11:21:40.000Z</time>
                <name>Trackpoint 915</name>
            </trkpt>
            <trkpt lat="49.8587616" lon="11.5360216">
                <ele>595.0</ele>
                <time>2020-08-21T11:22:00.000Z</time>
                <name>Trackpoint 916</name>
            </trkpt>
            <trkpt lat="49.8587008" lon="11.5359496">
                <ele>595.0</ele>
                <time>2020-08-21T11:22:04.000Z</time>
                <name>Trackpoint 917</name>
            </trkpt>
            <trkpt lat="49.8586464" lon="11.5358632">
                <ele>595.0</ele>
                <time>2020-08-21T11:22:07.000Z</time>
                <name>Trackpoint 918</name>
            </trkpt>
            <trkpt lat="49.8585696" lon="11.5357712">
                <ele>595.0</ele>
                <time>2020-08-21T11:22:10.000Z</time>
                <name>Trackpoint 919</name>
            </trkpt>
            <trkpt lat="49.8584928" lon="11.535664">
                <ele>595.0</ele>
                <time>2020-08-21T11:22:13.000Z</time>
                <name>Trackpoint 920</name>
            </trkpt>
            <trkpt lat="49.8584416" lon="11.53558">
                <ele>595.0</ele>
                <time>2020-08-21T11:22:15.000Z</time>
                <name>Trackpoint 921</name>
            </trkpt>
            <trkpt lat="49.858384" lon="11.535492">
                <ele>595.0</ele>
                <time>2020-08-21T11:22:17.000Z</time>
                <name>Trackpoint 922</name>
            </trkpt>
            <trkpt lat="49.8583168" lon="11.5353968">
                <ele>595.0</ele>
                <time>2020-08-21T11:22:19.000Z</time>
                <name>Trackpoint 923</name>
            </trkpt>
            <trkpt lat="49.858256" lon="11.5353048">
                <ele>595.0</ele>
                <time>2020-08-21T11:22:21.000Z</time>
                <name>Trackpoint 924</name>
            </trkpt>
            <trkpt lat="49.8581952" lon="11.5352064">
                <ele>595.0</ele>
                <time>2020-08-21T11:22:23.000Z</time>
                <name>Trackpoint 925</name>
            </trkpt>
            <trkpt lat="49.8581344" lon="11.535116">
                <ele>595.0</ele>
                <time>2020-08-21T11:22:25.000Z</time>
                <name>Trackpoint 926</name>
            </trkpt>
            <trkpt lat="49.8580736" lon="11.5350368">
                <ele>595.0</ele>
                <time>2020-08-21T11:22:27.000Z</time>
                <name>Trackpoint 927</name>
            </trkpt>
            <trkpt lat="49.8580128" lon="11.5349368">
                <ele>595.0</ele>
                <time>2020-08-21T11:22:29.000Z</time>
                <name>Trackpoint 928</name>
            </trkpt>
            <trkpt lat="49.8579488" lon="11.5348384">
                <ele>595.0</ele>
                <time>2020-08-21T11:22:31.000Z</time>
                <name>Trackpoint 929</name>
            </trkpt>
            <trkpt lat="49.8578848" lon="11.5347296">
                <ele>595.0</ele>
                <time>2020-08-21T11:22:34.000Z</time>
                <name>Trackpoint 930</name>
            </trkpt>
            <trkpt lat="49.8577952" lon="11.5347656">
                <ele>595.0</ele>
                <time>2020-08-21T11:23:41.000Z</time>
                <name>Trackpoint 931</name>
            </trkpt>
            <trkpt lat="49.8576992" lon="11.5347456">
                <ele>595.0</ele>
                <time>2020-08-21T11:24:23.000Z</time>
                <name>Trackpoint 932</name>
            </trkpt>
            <trkpt lat="49.8576192" lon="11.5347984">
                <ele>595.0</ele>
                <time>2020-08-21T11:24:37.000Z</time>
                <name>Trackpoint 933</name>
            </trkpt>
            <trkpt lat="49.8575424" lon="11.5348752">
                <ele>595.0</ele>
                <time>2020-08-21T11:24:43.000Z</time>
                <name>Trackpoint 934</name>
            </trkpt>
            <trkpt lat="49.8574944" lon="11.5349752">
                <ele>595.0</ele>
                <time>2020-08-21T11:24:48.000Z</time>
                <name>Trackpoint 935</name>
            </trkpt>
            <trkpt lat="49.8574624" lon="11.5350712">
                <ele>595.0</ele>
                <time>2020-08-21T11:24:55.000Z</time>
                <name>Trackpoint 936</name>
            </trkpt>
            <trkpt lat="49.8573696" lon="11.5350568">
                <ele>594.0</ele>
                <time>2020-08-21T11:25:12.000Z</time>
                <name>Trackpoint 937</name>
            </trkpt>
            <trkpt lat="49.8573344" lon="11.534964">
                <ele>594.0</ele>
                <time>2020-08-21T11:25:18.000Z</time>
                <name>Trackpoint 938</name>
            </trkpt>
            <trkpt lat="49.8572736" lon="11.5348968">
                <ele>594.0</ele>
                <time>2020-08-21T11:25:23.000Z</time>
                <name>Trackpoint 939</name>
            </trkpt>
            <trkpt lat="49.8571936" lon="11.5348416">
                <ele>594.0</ele>
                <time>2020-08-21T11:25:29.000Z</time>
                <name>Trackpoint 940</name>
            </trkpt>
            <trkpt lat="49.8571136" lon="11.5347784">
                <ele>594.0</ele>
                <time>2020-08-21T11:25:33.000Z</time>
                <name>Trackpoint 941</name>
            </trkpt>
            <trkpt lat="49.8570304" lon="11.5347416">
                <ele>594.0</ele>
                <time>2020-08-21T11:25:43.000Z</time>
                <name>Trackpoint 942</name>
            </trkpt>
            <trkpt lat="49.856944" lon="11.53468">
                <ele>594.0</ele>
                <time>2020-08-21T11:25:49.000Z</time>
                <name>Trackpoint 943</name>
            </trkpt>
            <trkpt lat="49.8568992" lon="11.5346">
                <ele>593.0</ele>
                <time>2020-08-21T11:25:54.000Z</time>
                <name>Trackpoint 944</name>
            </trkpt>
            <trkpt lat="49.856864" lon="11.5345032">
                <ele>593.0</ele>
                <time>2020-08-21T11:25:58.000Z</time>
                <name>Trackpoint 945</name>
            </trkpt>
            <trkpt lat="49.8568192" lon="11.5343848">
                <ele>593.0</ele>
                <time>2020-08-21T11:26:01.000Z</time>
                <name>Trackpoint 946</name>
            </trkpt>
            <trkpt lat="49.8567776" lon="11.5342728">
                <ele>592.0</ele>
                <time>2020-08-21T11:26:05.000Z</time>
                <name>Trackpoint 947</name>
            </trkpt>
            <trkpt lat="49.8567584" lon="11.534172">
                <ele>592.0</ele>
                <time>2020-08-21T11:26:08.000Z</time>
                <name>Trackpoint 948</name>
            </trkpt>
            <trkpt lat="49.8567264" lon="11.5340856">
                <ele>592.0</ele>
                <time>2020-08-21T11:26:12.000Z</time>
                <name>Trackpoint 949</name>
            </trkpt>
            <trkpt lat="49.8567072" lon="11.5339848">
                <ele>592.0</ele>
                <time>2020-08-21T11:26:17.000Z</time>
                <name>Trackpoint 950</name>
            </trkpt>
            <trkpt lat="49.856688" lon="11.5338784">
                <ele>592.0</ele>
                <time>2020-08-21T11:26:21.000Z</time>
                <name>Trackpoint 951</name>
            </trkpt>
            <trkpt lat="49.8566816" lon="11.5337632">
                <ele>592.0</ele>
                <time>2020-08-21T11:26:25.000Z</time>
                <name>Trackpoint 952</name>
            </trkpt>
            <trkpt lat="49.856656" lon="11.5336768">
                <ele>592.0</ele>
                <time>2020-08-21T11:26:27.000Z</time>
                <name>Trackpoint 953</name>
            </trkpt>
            <trkpt lat="49.8566176" lon="11.5335816">
                <ele>592.0</ele>
                <time>2020-08-21T11:26:31.000Z</time>
                <name>Trackpoint 954</name>
            </trkpt>
            <trkpt lat="49.8565952" lon="11.533468">
                <ele>592.0</ele>
                <time>2020-08-21T11:26:35.000Z</time>
                <name>Trackpoint 955</name>
            </trkpt>
            <trkpt lat="49.8565376" lon="11.5333928">
                <ele>592.0</ele>
                <time>2020-08-21T11:27:20.000Z</time>
                <name>Trackpoint 956</name>
            </trkpt>
            <trkpt lat="49.8564544" lon="11.533428">
                <ele>592.0</ele>
                <time>2020-08-21T11:27:51.000Z</time>
                <name>Trackpoint 957</name>
            </trkpt>
            <trkpt lat="49.856368" lon="11.5334832">
                <ele>592.0</ele>
                <time>2020-08-21T11:42:55.000Z</time>
                <name>Trackpoint 958</name>
            </trkpt>
            <trkpt lat="49.8564384" lon="11.5334064">
                <ele>597.0</ele>
                <time>2020-08-21T11:48:56.000Z</time>
                <name>Trackpoint 959</name>
            </trkpt>
            <trkpt lat="49.85648" lon="11.5333248">
                <ele>596.0</ele>
                <time>2020-08-21T11:49:05.000Z</time>
                <name>Trackpoint 960</name>
            </trkpt>
            <trkpt lat="49.856464" lon="11.5332296">
                <ele>597.0</ele>
                <time>2020-08-21T11:49:17.000Z</time>
                <name>Trackpoint 961</name>
            </trkpt>
            <trkpt lat="49.8564416" lon="11.53314">
                <ele>597.0</ele>
                <time>2020-08-21T11:49:20.000Z</time>
                <name>Trackpoint 962</name>
            </trkpt>
            <trkpt lat="49.8564352" lon="11.5330496">
                <ele>598.0</ele>
                <time>2020-08-21T11:49:23.000Z</time>
                <name>Trackpoint 963</name>
            </trkpt>
            <trkpt lat="49.8565056" lon="11.53296">
                <ele>598.0</ele>
                <time>2020-08-21T11:49:29.000Z</time>
                <name>Trackpoint 964</name>
            </trkpt>
            <trkpt lat="49.8565952" lon="11.5329504">
                <ele>599.0</ele>
                <time>2020-08-21T11:49:36.000Z</time>
                <name>Trackpoint 965</name>
            </trkpt>
            <trkpt lat="49.8566592" lon="11.533016">
                <ele>599.0</ele>
                <time>2020-08-21T11:49:40.000Z</time>
                <name>Trackpoint 966</name>
            </trkpt>
            <trkpt lat="49.85672" lon="11.5331072">
                <ele>598.0</ele>
                <time>2020-08-21T11:49:44.000Z</time>
                <name>Trackpoint 967</name>
            </trkpt>
            <trkpt lat="49.8567776" lon="11.53318">
                <ele>597.0</ele>
                <time>2020-08-21T11:49:47.000Z</time>
                <name>Trackpoint 968</name>
            </trkpt>
            <trkpt lat="49.8568576" lon="11.5332584">
                <ele>597.0</ele>
                <time>2020-08-21T11:49:51.000Z</time>
                <name>Trackpoint 969</name>
            </trkpt>
            <trkpt lat="49.8569184" lon="11.5333456">
                <ele>597.0</ele>
                <time>2020-08-21T11:49:54.000Z</time>
                <name>Trackpoint 970</name>
            </trkpt>
            <trkpt lat="49.8569728" lon="11.5334232">
                <ele>597.0</ele>
                <time>2020-08-21T11:49:57.000Z</time>
                <name>Trackpoint 971</name>
            </trkpt>
            <trkpt lat="49.8570496" lon="11.5335064">
                <ele>597.0</ele>
                <time>2020-08-21T11:50:00.000Z</time>
                <name>Trackpoint 972</name>
            </trkpt>
            <trkpt lat="49.8571104" lon="11.5335816">
                <ele>596.0</ele>
                <time>2020-08-21T11:50:03.000Z</time>
                <name>Trackpoint 973</name>
            </trkpt>
            <trkpt lat="49.8571808" lon="11.5336864">
                <ele>596.0</ele>
                <time>2020-08-21T11:50:06.000Z</time>
                <name>Trackpoint 974</name>
            </trkpt>
            <trkpt lat="49.8572576" lon="11.5337888">
                <ele>596.0</ele>
                <time>2020-08-21T11:50:09.000Z</time>
                <name>Trackpoint 975</name>
            </trkpt>
            <trkpt lat="49.857328" lon="11.5338768">
                <ele>595.0</ele>
                <time>2020-08-21T11:50:12.000Z</time>
                <name>Trackpoint 976</name>
            </trkpt>
            <trkpt lat="49.8573952" lon="11.5339736">
                <ele>595.0</ele>
                <time>2020-08-21T11:50:15.000Z</time>
                <name>Trackpoint 977</name>
            </trkpt>
            <trkpt lat="49.85744" lon="11.5340616">
                <ele>595.0</ele>
                <time>2020-08-21T11:50:17.000Z</time>
                <name>Trackpoint 978</name>
            </trkpt>
            <trkpt lat="49.8575104" lon="11.534188">
                <ele>595.0</ele>
                <time>2020-08-21T11:50:20.000Z</time>
                <name>Trackpoint 979</name>
            </trkpt>
            <trkpt lat="49.8575616" lon="11.5342816">
                <ele>595.0</ele>
                <time>2020-08-21T11:50:22.000Z</time>
                <name>Trackpoint 980</name>
            </trkpt>
            <trkpt lat="49.8576192" lon="11.5343616">
                <ele>595.0</ele>
                <time>2020-08-21T11:50:24.000Z</time>
                <name>Trackpoint 981</name>
            </trkpt>
            <trkpt lat="49.8576704" lon="11.5344896">
                <ele>595.0</ele>
                <time>2020-08-21T11:50:26.000Z</time>
                <name>Trackpoint 982</name>
            </trkpt>
            <trkpt lat="49.8577504" lon="11.5345848">
                <ele>595.0</ele>
                <time>2020-08-21T11:50:29.000Z</time>
                <name>Trackpoint 983</name>
            </trkpt>
            <trkpt lat="49.8578048" lon="11.5346696">
                <ele>595.0</ele>
                <time>2020-08-21T11:50:31.000Z</time>
                <name>Trackpoint 984</name>
            </trkpt>
            <trkpt lat="49.8578656" lon="11.5347632">
                <ele>595.0</ele>
                <time>2020-08-21T11:50:33.000Z</time>
                <name>Trackpoint 985</name>
            </trkpt>
            <trkpt lat="49.8579488" lon="11.5348656">
                <ele>595.0</ele>
                <time>2020-08-21T11:50:36.000Z</time>
                <name>Trackpoint 986</name>
            </trkpt>
            <trkpt lat="49.8580032" lon="11.5349376">
                <ele>595.0</ele>
                <time>2020-08-21T11:50:38.000Z</time>
                <name>Trackpoint 987</name>
            </trkpt>
            <trkpt lat="49.8580768" lon="11.5350368">
                <ele>595.0</ele>
                <time>2020-08-21T11:50:41.000Z</time>
                <name>Trackpoint 988</name>
            </trkpt>
            <trkpt lat="49.8581344" lon="11.535116">
                <ele>595.0</ele>
                <time>2020-08-21T11:50:43.000Z</time>
                <name>Trackpoint 989</name>
            </trkpt>
            <trkpt lat="49.8582048" lon="11.5352272">
                <ele>595.0</ele>
                <time>2020-08-21T11:50:46.000Z</time>
                <name>Trackpoint 990</name>
            </trkpt>
            <trkpt lat="49.8582816" lon="11.5353272">
                <ele>595.0</ele>
                <time>2020-08-21T11:50:49.000Z</time>
                <name>Trackpoint 991</name>
            </trkpt>
            <trkpt lat="49.8583552" lon="11.5354096">
                <ele>594.0</ele>
                <time>2020-08-21T11:50:52.000Z</time>
                <name>Trackpoint 992</name>
            </trkpt>
            <trkpt lat="49.858432" lon="11.5355384">
                <ele>594.0</ele>
                <time>2020-08-21T11:50:55.000Z</time>
                <name>Trackpoint 993</name>
            </trkpt>
            <trkpt lat="49.85848" lon="11.5356352">
                <ele>595.0</ele>
                <time>2020-08-21T11:50:57.000Z</time>
                <name>Trackpoint 994</name>
            </trkpt>
            <trkpt lat="49.8585536" lon="11.5357312">
                <ele>594.0</ele>
                <time>2020-08-21T11:51:00.000Z</time>
                <name>Trackpoint 995</name>
            </trkpt>
            <trkpt lat="49.8586016" lon="11.5358152">
                <ele>594.0</ele>
                <time>2020-08-21T11:51:02.000Z</time>
                <name>Trackpoint 996</name>
            </trkpt>
            <trkpt lat="49.8586592" lon="11.5359272">
                <ele>595.0</ele>
                <time>2020-08-21T11:51:05.000Z</time>
                <name>Trackpoint 997</name>
            </trkpt>
            <trkpt lat="49.8587232" lon="11.5360184">
                <ele>594.0</ele>
                <time>2020-08-21T11:51:09.000Z</time>
                <name>Trackpoint 998</name>
            </trkpt>
            <trkpt lat="49.8587936" lon="11.5360848">
                <ele>594.0</ele>
                <time>2020-08-21T11:51:14.000Z</time>
                <name>Trackpoint 999</name>
            </trkpt>
            <trkpt lat="49.8588448" lon="11.536168">
                <ele>594.0</ele>
                <time>2020-08-21T11:54:42.000Z</time>
                <name>Trackpoint 1000</name>
            </trkpt>
            <trkpt lat="49.8588992" lon="11.5362552">
                <ele>594.0</ele>
                <time>2020-08-21T11:54:46.000Z</time>
                <name>Trackpoint 1001</name>
            </trkpt>
            <trkpt lat="49.8589504" lon="11.5363368">
                <ele>594.0</ele>
                <time>2020-08-21T11:54:49.000Z</time>
                <name>Trackpoint 1002</name>
            </trkpt>
            <trkpt lat="49.8590112" lon="11.5364312">
                <ele>594.0</ele>
                <time>2020-08-21T11:54:52.000Z</time>
                <name>Trackpoint 1003</name>
            </trkpt>
            <trkpt lat="49.8590592" lon="11.5365112">
                <ele>594.0</ele>
                <time>2020-08-21T11:54:54.000Z</time>
                <name>Trackpoint 1004</name>
            </trkpt>
            <trkpt lat="49.859136" lon="11.5366136">
                <ele>594.0</ele>
                <time>2020-08-21T11:54:58.000Z</time>
                <name>Trackpoint 1005</name>
            </trkpt>
            <trkpt lat="49.859184" lon="11.5366984">
                <ele>594.0</ele>
                <time>2020-08-21T11:55:00.000Z</time>
                <name>Trackpoint 1006</name>
            </trkpt>
            <trkpt lat="49.8592448" lon="11.5367896">
                <ele>594.0</ele>
                <time>2020-08-21T11:55:03.000Z</time>
                <name>Trackpoint 1007</name>
            </trkpt>
            <trkpt lat="49.8593184" lon="11.5368968">
                <ele>594.0</ele>
                <time>2020-08-21T11:55:06.000Z</time>
                <name>Trackpoint 1008</name>
            </trkpt>
            <trkpt lat="49.8593888" lon="11.5370016">
                <ele>594.0</ele>
                <time>2020-08-21T11:55:08.000Z</time>
                <name>Trackpoint 1009</name>
            </trkpt>
            <trkpt lat="49.8594656" lon="11.5371048">
                <ele>594.0</ele>
                <time>2020-08-21T11:55:10.000Z</time>
                <name>Trackpoint 1010</name>
            </trkpt>
            <trkpt lat="49.859536" lon="11.5372168">
                <ele>594.0</ele>
                <time>2020-08-21T11:55:12.000Z</time>
                <name>Trackpoint 1011</name>
            </trkpt>
            <trkpt lat="49.8596" lon="11.5373232">
                <ele>594.0</ele>
                <time>2020-08-21T11:55:14.000Z</time>
                <name>Trackpoint 1012</name>
            </trkpt>
            <trkpt lat="49.8596608" lon="11.5374144">
                <ele>594.0</ele>
                <time>2020-08-21T11:55:16.000Z</time>
                <name>Trackpoint 1013</name>
            </trkpt>
            <trkpt lat="49.8597344" lon="11.537528">
                <ele>594.0</ele>
                <time>2020-08-21T11:55:18.000Z</time>
                <name>Trackpoint 1014</name>
            </trkpt>
            <trkpt lat="49.8598144" lon="11.5376256">
                <ele>594.0</ele>
                <time>2020-08-21T11:55:20.000Z</time>
                <name>Trackpoint 1015</name>
            </trkpt>
            <trkpt lat="49.8598944" lon="11.5376816">
                <ele>594.0</ele>
                <time>2020-08-21T11:55:22.000Z</time>
                <name>Trackpoint 1016</name>
            </trkpt>
            <trkpt lat="49.86" lon="11.5377328">
                <ele>594.0</ele>
                <time>2020-08-21T11:55:24.000Z</time>
                <name>Trackpoint 1017</name>
            </trkpt>
            <trkpt lat="49.860096" lon="11.5377504">
                <ele>594.0</ele>
                <time>2020-08-21T11:55:26.000Z</time>
                <name>Trackpoint 1018</name>
            </trkpt>
            <trkpt lat="49.860192" lon="11.5377528">
                <ele>594.0</ele>
                <time>2020-08-21T11:55:28.000Z</time>
                <name>Trackpoint 1019</name>
            </trkpt>
            <trkpt lat="49.8603008" lon="11.5377432">
                <ele>594.0</ele>
                <time>2020-08-21T11:55:30.000Z</time>
                <name>Trackpoint 1020</name>
            </trkpt>
            <trkpt lat="49.860432" lon="11.5377464">
                <ele>595.0</ele>
                <time>2020-08-21T11:55:32.000Z</time>
                <name>Trackpoint 1021</name>
            </trkpt>
            <trkpt lat="49.8605248" lon="11.5377456">
                <ele>595.0</ele>
                <time>2020-08-21T11:55:34.000Z</time>
                <name>Trackpoint 1022</name>
            </trkpt>
            <trkpt lat="49.8606272" lon="11.5377416">
                <ele>595.0</ele>
                <time>2020-08-21T11:55:38.000Z</time>
                <name>Trackpoint 1023</name>
            </trkpt>
            <trkpt lat="49.8607328" lon="11.5377456">
                <ele>595.0</ele>
                <time>2020-08-21T11:55:40.000Z</time>
                <name>Trackpoint 1024</name>
            </trkpt>
            <trkpt lat="49.860832" lon="11.53776">
                <ele>594.0</ele>
                <time>2020-08-21T11:55:42.000Z</time>
                <name>Trackpoint 1025</name>
            </trkpt>
            <trkpt lat="49.8609312" lon="11.5377616">
                <ele>594.0</ele>
                <time>2020-08-21T11:55:44.000Z</time>
                <name>Trackpoint 1026</name>
            </trkpt>
            <trkpt lat="49.8610272" lon="11.53778">
                <ele>595.0</ele>
                <time>2020-08-21T11:55:46.000Z</time>
                <name>Trackpoint 1027</name>
            </trkpt>
            <trkpt lat="49.861168" lon="11.5378176">
                <ele>595.0</ele>
                <time>2020-08-21T11:55:48.000Z</time>
                <name>Trackpoint 1028</name>
            </trkpt>
            <trkpt lat="49.8613216" lon="11.5378568">
                <ele>595.0</ele>
                <time>2020-08-21T11:55:50.000Z</time>
                <name>Trackpoint 1029</name>
            </trkpt>
            <trkpt lat="49.8614784" lon="11.5378648">
                <ele>595.0</ele>
                <time>2020-08-21T11:55:52.000Z</time>
                <name>Trackpoint 1030</name>
            </trkpt>
            <trkpt lat="49.8615776" lon="11.5379064">
                <ele>595.0</ele>
                <time>2020-08-21T11:55:54.000Z</time>
                <name>Trackpoint 1031</name>
            </trkpt>
            <trkpt lat="49.8616864" lon="11.5379688">
                <ele>595.0</ele>
                <time>2020-08-21T11:55:56.000Z</time>
                <name>Trackpoint 1032</name>
            </trkpt>
            <trkpt lat="49.861824" lon="11.5380432">
                <ele>594.0</ele>
                <time>2020-08-21T11:55:58.000Z</time>
                <name>Trackpoint 1033</name>
            </trkpt>
            <trkpt lat="49.8619648" lon="11.5381168">
                <ele>594.0</ele>
                <time>2020-08-21T11:56:00.000Z</time>
                <name>Trackpoint 1034</name>
            </trkpt>
            <trkpt lat="49.8621088" lon="11.5381816">
                <ele>594.0</ele>
                <time>2020-08-21T11:56:02.000Z</time>
                <name>Trackpoint 1035</name>
            </trkpt>
            <trkpt lat="49.8622464" lon="11.5382536">
                <ele>594.0</ele>
                <time>2020-08-21T11:56:04.000Z</time>
                <name>Trackpoint 1036</name>
            </trkpt>
            <trkpt lat="49.862384" lon="11.538328">
                <ele>594.0</ele>
                <time>2020-08-21T11:56:06.000Z</time>
                <name>Trackpoint 1037</name>
            </trkpt>
            <trkpt lat="49.8624832" lon="11.53842">
                <ele>594.0</ele>
                <time>2020-08-21T11:56:08.000Z</time>
                <name>Trackpoint 1038</name>
            </trkpt>
            <trkpt lat="49.862544" lon="11.53852">
                <ele>594.0</ele>
                <time>2020-08-21T11:56:10.000Z</time>
                <name>Trackpoint 1039</name>
            </trkpt>
            <trkpt lat="49.8625984" lon="11.5386216">
                <ele>594.0</ele>
                <time>2020-08-21T11:56:12.000Z</time>
                <name>Trackpoint 1040</name>
            </trkpt>
            <trkpt lat="49.8626784" lon="11.538752">
                <ele>594.0</ele>
                <time>2020-08-21T11:56:14.000Z</time>
                <name>Trackpoint 1041</name>
            </trkpt>
            <trkpt lat="49.8627296" lon="11.5388568">
                <ele>594.0</ele>
                <time>2020-08-21T11:56:16.000Z</time>
                <name>Trackpoint 1042</name>
            </trkpt>
            <trkpt lat="49.8627648" lon="11.5389608">
                <ele>594.0</ele>
                <time>2020-08-21T11:56:18.000Z</time>
                <name>Trackpoint 1043</name>
            </trkpt>
            <trkpt lat="49.8628384" lon="11.5390656">
                <ele>594.0</ele>
                <time>2020-08-21T11:56:20.000Z</time>
                <name>Trackpoint 1044</name>
            </trkpt>
            <trkpt lat="49.8629312" lon="11.539204">
                <ele>594.0</ele>
                <time>2020-08-21T11:56:22.000Z</time>
                <name>Trackpoint 1045</name>
            </trkpt>
            <trkpt lat="49.8630176" lon="11.5393352">
                <ele>593.0</ele>
                <time>2020-08-21T11:56:24.000Z</time>
                <name>Trackpoint 1046</name>
            </trkpt>
            <trkpt lat="49.863088" lon="11.5394824">
                <ele>593.0</ele>
                <time>2020-08-21T11:56:26.000Z</time>
                <name>Trackpoint 1047</name>
            </trkpt>
            <trkpt lat="49.863152" lon="11.5396448">
                <ele>593.0</ele>
                <time>2020-08-21T11:56:28.000Z</time>
                <name>Trackpoint 1048</name>
            </trkpt>
            <trkpt lat="49.863216" lon="11.5397928">
                <ele>593.0</ele>
                <time>2020-08-21T11:56:30.000Z</time>
                <name>Trackpoint 1049</name>
            </trkpt>
            <trkpt lat="49.8632704" lon="11.5399128">
                <ele>593.0</ele>
                <time>2020-08-21T11:56:32.000Z</time>
                <name>Trackpoint 1050</name>
            </trkpt>
            <trkpt lat="49.8633376" lon="11.5400488">
                <ele>592.0</ele>
                <time>2020-08-21T11:56:34.000Z</time>
                <name>Trackpoint 1051</name>
            </trkpt>
            <trkpt lat="49.8634112" lon="11.540192">
                <ele>592.0</ele>
                <time>2020-08-21T11:56:36.000Z</time>
                <name>Trackpoint 1052</name>
            </trkpt>
            <trkpt lat="49.8634592" lon="11.5403448">
                <ele>592.0</ele>
                <time>2020-08-21T11:56:38.000Z</time>
                <name>Trackpoint 1053</name>
            </trkpt>
            <trkpt lat="49.8634912" lon="11.5404832">
                <ele>592.0</ele>
                <time>2020-08-21T11:56:40.000Z</time>
                <name>Trackpoint 1054</name>
            </trkpt>
            <trkpt lat="49.8635136" lon="11.5406048">
                <ele>592.0</ele>
                <time>2020-08-21T11:56:42.000Z</time>
                <name>Trackpoint 1055</name>
            </trkpt>
            <trkpt lat="49.8635392" lon="11.5406936">
                <ele>592.0</ele>
                <time>2020-08-21T11:56:44.000Z</time>
                <name>Trackpoint 1056</name>
            </trkpt>
            <trkpt lat="49.8636032" lon="11.5408064">
                <ele>591.0</ele>
                <time>2020-08-21T11:56:47.000Z</time>
                <name>Trackpoint 1057</name>
            </trkpt>
            <trkpt lat="49.8636672" lon="11.5408848">
                <ele>591.0</ele>
                <time>2020-08-21T11:56:49.000Z</time>
                <name>Trackpoint 1058</name>
            </trkpt>
            <trkpt lat="49.863744" lon="11.5409984">
                <ele>591.0</ele>
                <time>2020-08-21T11:56:52.000Z</time>
                <name>Trackpoint 1059</name>
            </trkpt>
            <trkpt lat="49.8638016" lon="11.5411104">
                <ele>591.0</ele>
                <time>2020-08-21T11:56:54.000Z</time>
                <name>Trackpoint 1060</name>
            </trkpt>
            <trkpt lat="49.8638464" lon="11.5412528">
                <ele>590.0</ele>
                <time>2020-08-21T11:56:56.000Z</time>
                <name>Trackpoint 1061</name>
            </trkpt>
            <trkpt lat="49.8638848" lon="11.5414216">
                <ele>590.0</ele>
                <time>2020-08-21T11:56:58.000Z</time>
                <name>Trackpoint 1062</name>
            </trkpt>
            <trkpt lat="49.863888" lon="11.5415696">
                <ele>590.0</ele>
                <time>2020-08-21T11:57:00.000Z</time>
                <name>Trackpoint 1063</name>
            </trkpt>
            <trkpt lat="49.8638528" lon="11.541668">
                <ele>590.0</ele>
                <time>2020-08-21T11:57:02.000Z</time>
                <name>Trackpoint 1064</name>
            </trkpt>
            <trkpt lat="49.8637856" lon="11.5417344">
                <ele>589.0</ele>
                <time>2020-08-21T11:57:05.000Z</time>
                <name>Trackpoint 1065</name>
            </trkpt>
            <trkpt lat="49.8636576" lon="11.541772">
                <ele>589.0</ele>
                <time>2020-08-21T11:57:09.000Z</time>
                <name>Trackpoint 1066</name>
            </trkpt>
            <trkpt lat="49.8635488" lon="11.5417568">
                <ele>588.0</ele>
                <time>2020-08-21T11:57:12.000Z</time>
                <name>Trackpoint 1067</name>
            </trkpt>
            <trkpt lat="49.8634336" lon="11.5417296">
                <ele>588.0</ele>
                <time>2020-08-21T11:57:15.000Z</time>
                <name>Trackpoint 1068</name>
            </trkpt>
            <trkpt lat="49.8633376" lon="11.5416984">
                <ele>588.0</ele>
                <time>2020-08-21T11:57:17.000Z</time>
                <name>Trackpoint 1069</name>
            </trkpt>
            <trkpt lat="49.8632512" lon="11.5416416">
                <ele>587.0</ele>
                <time>2020-08-21T11:57:19.000Z</time>
                <name>Trackpoint 1070</name>
            </trkpt>
            <trkpt lat="49.8631616" lon="11.5415848">
                <ele>587.0</ele>
                <time>2020-08-21T11:57:21.000Z</time>
                <name>Trackpoint 1071</name>
            </trkpt>
            <trkpt lat="49.863072" lon="11.5415472">
                <ele>587.0</ele>
                <time>2020-08-21T11:57:23.000Z</time>
                <name>Trackpoint 1072</name>
            </trkpt>
            <trkpt lat="49.8629728" lon="11.5414984">
                <ele>586.0</ele>
                <time>2020-08-21T11:57:25.000Z</time>
                <name>Trackpoint 1073</name>
            </trkpt>
            <trkpt lat="49.8628896" lon="11.5414552">
                <ele>586.0</ele>
                <time>2020-08-21T11:57:27.000Z</time>
                <name>Trackpoint 1074</name>
            </trkpt>
            <trkpt lat="49.8627776" lon="11.5413784">
                <ele>586.0</ele>
                <time>2020-08-21T11:57:30.000Z</time>
                <name>Trackpoint 1075</name>
            </trkpt>
            <trkpt lat="49.862704" lon="11.541324">
                <ele>586.0</ele>
                <time>2020-08-21T11:57:32.000Z</time>
                <name>Trackpoint 1076</name>
            </trkpt>
            <trkpt lat="49.8626144" lon="11.5412712">
                <ele>585.0</ele>
                <time>2020-08-21T11:57:34.000Z</time>
                <name>Trackpoint 1077</name>
            </trkpt>
            <trkpt lat="49.8625248" lon="11.5412304">
                <ele>585.0</ele>
                <time>2020-08-21T11:57:36.000Z</time>
                <name>Trackpoint 1078</name>
            </trkpt>
            <trkpt lat="49.8624384" lon="11.5411952">
                <ele>585.0</ele>
                <time>2020-08-21T11:57:38.000Z</time>
                <name>Trackpoint 1079</name>
            </trkpt>
            <trkpt lat="49.8623168" lon="11.5411728">
                <ele>585.0</ele>
                <time>2020-08-21T11:57:41.000Z</time>
                <name>Trackpoint 1080</name>
            </trkpt>
            <trkpt lat="49.8622272" lon="11.5412664">
                <ele>585.0</ele>
                <time>2020-08-21T11:57:44.000Z</time>
                <name>Trackpoint 1081</name>
            </trkpt>
            <trkpt lat="49.8621984" lon="11.541404">
                <ele>585.0</ele>
                <time>2020-08-21T11:57:46.000Z</time>
                <name>Trackpoint 1082</name>
            </trkpt>
            <trkpt lat="49.8622176" lon="11.5415352">
                <ele>585.0</ele>
                <time>2020-08-21T11:57:48.000Z</time>
                <name>Trackpoint 1083</name>
            </trkpt>
            <trkpt lat="49.8622368" lon="11.5416648">
                <ele>585.0</ele>
                <time>2020-08-21T11:57:50.000Z</time>
                <name>Trackpoint 1084</name>
            </trkpt>
            <trkpt lat="49.86224" lon="11.5417784">
                <ele>585.0</ele>
                <time>2020-08-21T11:57:52.000Z</time>
                <name>Trackpoint 1085</name>
            </trkpt>
            <trkpt lat="49.86224" lon="11.5418832">
                <ele>584.0</ele>
                <time>2020-08-21T11:57:54.000Z</time>
                <name>Trackpoint 1086</name>
            </trkpt>
            <trkpt lat="49.8622272" lon="11.541988">
                <ele>584.0</ele>
                <time>2020-08-21T11:57:56.000Z</time>
                <name>Trackpoint 1087</name>
            </trkpt>
            <trkpt lat="49.8622272" lon="11.542104">
                <ele>584.0</ele>
                <time>2020-08-21T11:57:58.000Z</time>
                <name>Trackpoint 1088</name>
            </trkpt>
            <trkpt lat="49.8622368" lon="11.5422312">
                <ele>584.0</ele>
                <time>2020-08-21T11:58:00.000Z</time>
                <name>Trackpoint 1089</name>
            </trkpt>
            <trkpt lat="49.8622368" lon="11.5423616">
                <ele>584.0</ele>
                <time>2020-08-21T11:58:02.000Z</time>
                <name>Trackpoint 1090</name>
            </trkpt>
            <trkpt lat="49.862224" lon="11.5424816">
                <ele>584.0</ele>
                <time>2020-08-21T11:58:04.000Z</time>
                <name>Trackpoint 1091</name>
            </trkpt>
            <trkpt lat="49.86224" lon="11.542588">
                <ele>583.0</ele>
                <time>2020-08-21T11:58:06.000Z</time>
                <name>Trackpoint 1092</name>
            </trkpt>
            <trkpt lat="49.862256" lon="11.5427016">
                <ele>583.0</ele>
                <time>2020-08-21T11:58:08.000Z</time>
                <name>Trackpoint 1093</name>
            </trkpt>
            <trkpt lat="49.8622528" lon="11.5428152">
                <ele>583.0</ele>
                <time>2020-08-21T11:58:10.000Z</time>
                <name>Trackpoint 1094</name>
            </trkpt>
            <trkpt lat="49.8622752" lon="11.5429184">
                <ele>583.0</ele>
                <time>2020-08-21T11:58:12.000Z</time>
                <name>Trackpoint 1095</name>
            </trkpt>
            <trkpt lat="49.8623072" lon="11.5430168">
                <ele>583.0</ele>
                <time>2020-08-21T11:58:14.000Z</time>
                <name>Trackpoint 1096</name>
            </trkpt>
            <trkpt lat="49.8623232" lon="11.5431136">
                <ele>583.0</ele>
                <time>2020-08-21T11:58:16.000Z</time>
                <name>Trackpoint 1097</name>
            </trkpt>
            <trkpt lat="49.8623392" lon="11.5432264">
                <ele>583.0</ele>
                <time>2020-08-21T11:58:18.000Z</time>
                <name>Trackpoint 1098</name>
            </trkpt>
            <trkpt lat="49.8623552" lon="11.5433528">
                <ele>583.0</ele>
                <time>2020-08-21T11:58:20.000Z</time>
                <name>Trackpoint 1099</name>
            </trkpt>
            <trkpt lat="49.8623744" lon="11.543484">
                <ele>583.0</ele>
                <time>2020-08-21T11:58:22.000Z</time>
                <name>Trackpoint 1100</name>
            </trkpt>
            <trkpt lat="49.8623872" lon="11.5435816">
                <ele>582.0</ele>
                <time>2020-08-21T11:58:24.000Z</time>
                <name>Trackpoint 1101</name>
            </trkpt>
            <trkpt lat="49.8624352" lon="11.5436896">
                <ele>582.0</ele>
                <time>2020-08-21T11:58:26.000Z</time>
                <name>Trackpoint 1102</name>
            </trkpt>
            <trkpt lat="49.8624512" lon="11.5438608">
                <ele>582.0</ele>
                <time>2020-08-21T11:58:28.000Z</time>
                <name>Trackpoint 1103</name>
            </trkpt>
            <trkpt lat="49.8624576" lon="11.5439752">
                <ele>582.0</ele>
                <time>2020-08-21T11:58:29.000Z</time>
                <name>Trackpoint 1104</name>
            </trkpt>
            <trkpt lat="49.8624736" lon="11.5440952">
                <ele>582.0</ele>
                <time>2020-08-21T11:58:30.000Z</time>
                <name>Trackpoint 1105</name>
            </trkpt>
            <trkpt lat="49.8624864" lon="11.544224">
                <ele>582.0</ele>
                <time>2020-08-21T11:58:31.000Z</time>
                <name>Trackpoint 1106</name>
            </trkpt>
            <trkpt lat="49.862496" lon="11.5443552">
                <ele>582.0</ele>
                <time>2020-08-21T11:58:32.000Z</time>
                <name>Trackpoint 1107</name>
            </trkpt>
            <trkpt lat="49.8625248" lon="11.5445072">
                <ele>581.0</ele>
                <time>2020-08-21T11:58:33.000Z</time>
                <name>Trackpoint 1108</name>
            </trkpt>
            <trkpt lat="49.8625344" lon="11.5446352">
                <ele>581.0</ele>
                <time>2020-08-21T11:58:34.000Z</time>
                <name>Trackpoint 1109</name>
            </trkpt>
            <trkpt lat="49.8625248" lon="11.544748">
                <ele>581.0</ele>
                <time>2020-08-21T11:58:35.000Z</time>
                <name>Trackpoint 1110</name>
            </trkpt>
            <trkpt lat="49.8625024" lon="11.5448536">
                <ele>581.0</ele>
                <time>2020-08-21T11:58:36.000Z</time>
                <name>Trackpoint 1111</name>
            </trkpt>
            <trkpt lat="49.8624832" lon="11.5449736">
                <ele>581.0</ele>
                <time>2020-08-21T11:58:37.000Z</time>
                <name>Trackpoint 1112</name>
            </trkpt>
            <trkpt lat="49.862464" lon="11.5451">
                <ele>581.0</ele>
                <time>2020-08-21T11:58:38.000Z</time>
                <name>Trackpoint 1113</name>
            </trkpt>
            <trkpt lat="49.8624448" lon="11.5452144">
                <ele>581.0</ele>
                <time>2020-08-21T11:58:39.000Z</time>
                <name>Trackpoint 1114</name>
            </trkpt>
            <trkpt lat="49.8624224" lon="11.545332">
                <ele>580.0</ele>
                <time>2020-08-21T11:58:40.000Z</time>
                <name>Trackpoint 1115</name>
            </trkpt>
            <trkpt lat="49.8623872" lon="11.5454256">
                <ele>580.0</ele>
                <time>2020-08-21T11:58:41.000Z</time>
                <name>Trackpoint 1116</name>
            </trkpt>
            <trkpt lat="49.862368" lon="11.5455168">
                <ele>580.0</ele>
                <time>2020-08-21T11:58:42.000Z</time>
                <name>Trackpoint 1117</name>
            </trkpt>
            <trkpt lat="49.8623552" lon="11.5456136">
                <ele>580.0</ele>
                <time>2020-08-21T11:58:43.000Z</time>
                <name>Trackpoint 1118</name>
            </trkpt>
            <trkpt lat="49.8623392" lon="11.5457088">
                <ele>580.0</ele>
                <time>2020-08-21T11:58:44.000Z</time>
                <name>Trackpoint 1119</name>
            </trkpt>
            <trkpt lat="49.86232" lon="11.5458096">
                <ele>580.0</ele>
                <time>2020-08-21T11:58:45.000Z</time>
                <name>Trackpoint 1120</name>
            </trkpt>
            <trkpt lat="49.8623008" lon="11.5459216">
                <ele>579.0</ele>
                <time>2020-08-21T11:58:46.000Z</time>
                <name>Trackpoint 1121</name>
            </trkpt>
            <trkpt lat="49.8622944" lon="11.5460328">
                <ele>579.0</ele>
                <time>2020-08-21T11:58:47.000Z</time>
                <name>Trackpoint 1122</name>
            </trkpt>
            <trkpt lat="49.8622944" lon="11.54614">
                <ele>579.0</ele>
                <time>2020-08-21T11:58:48.000Z</time>
                <name>Trackpoint 1123</name>
            </trkpt>
            <trkpt lat="49.8622976" lon="11.5462576">
                <ele>579.0</ele>
                <time>2020-08-21T11:58:49.000Z</time>
                <name>Trackpoint 1124</name>
            </trkpt>
            <trkpt lat="49.8622976" lon="11.5463816">
                <ele>579.0</ele>
                <time>2020-08-21T11:58:50.000Z</time>
                <name>Trackpoint 1125</name>
            </trkpt>
            <trkpt lat="49.8622944" lon="11.5465096">
                <ele>578.0</ele>
                <time>2020-08-21T11:58:51.000Z</time>
                <name>Trackpoint 1126</name>
            </trkpt>
            <trkpt lat="49.8622848" lon="11.5466384">
                <ele>578.0</ele>
                <time>2020-08-21T11:58:52.000Z</time>
                <name>Trackpoint 1127</name>
            </trkpt>
            <trkpt lat="49.8622784" lon="11.5467632">
                <ele>578.0</ele>
                <time>2020-08-21T11:58:53.000Z</time>
                <name>Trackpoint 1128</name>
            </trkpt>
            <trkpt lat="49.8622976" lon="11.5468832">
                <ele>578.0</ele>
                <time>2020-08-21T11:58:54.000Z</time>
                <name>Trackpoint 1129</name>
            </trkpt>
            <trkpt lat="49.8623072" lon="11.547004">
                <ele>578.0</ele>
                <time>2020-08-21T11:58:55.000Z</time>
                <name>Trackpoint 1130</name>
            </trkpt>
            <trkpt lat="49.86232" lon="11.5471224">
                <ele>577.0</ele>
                <time>2020-08-21T11:58:56.000Z</time>
                <name>Trackpoint 1131</name>
            </trkpt>
            <trkpt lat="49.862336" lon="11.5472336">
                <ele>577.0</ele>
                <time>2020-08-21T11:58:57.000Z</time>
                <name>Trackpoint 1132</name>
            </trkpt>
            <trkpt lat="49.8623456" lon="11.54734">
                <ele>577.0</ele>
                <time>2020-08-21T11:58:58.000Z</time>
                <name>Trackpoint 1133</name>
            </trkpt>
            <trkpt lat="49.8623648" lon="11.5474392">
                <ele>577.0</ele>
                <time>2020-08-21T11:58:59.000Z</time>
                <name>Trackpoint 1134</name>
            </trkpt>
            <trkpt lat="49.862384" lon="11.5475368">
                <ele>576.0</ele>
                <time>2020-08-21T11:59:00.000Z</time>
                <name>Trackpoint 1135</name>
            </trkpt>
            <trkpt lat="49.8624384" lon="11.5476864">
                <ele>576.0</ele>
                <time>2020-08-21T11:59:02.000Z</time>
                <name>Trackpoint 1136</name>
            </trkpt>
            <trkpt lat="49.862464" lon="11.5478336">
                <ele>574.0</ele>
                <time>2020-08-21T11:59:04.000Z</time>
                <name>Trackpoint 1137</name>
            </trkpt>
            <trkpt lat="49.8625184" lon="11.5479632">
                <ele>573.0</ele>
                <time>2020-08-21T11:59:06.000Z</time>
                <name>Trackpoint 1138</name>
            </trkpt>
            <trkpt lat="49.86256" lon="11.5481032">
                <ele>572.0</ele>
                <time>2020-08-21T11:59:08.000Z</time>
                <name>Trackpoint 1139</name>
            </trkpt>
            <trkpt lat="49.8626112" lon="11.548232">
                <ele>571.0</ele>
                <time>2020-08-21T11:59:10.000Z</time>
                <name>Trackpoint 1140</name>
            </trkpt>
            <trkpt lat="49.8626496" lon="11.548364">
                <ele>570.0</ele>
                <time>2020-08-21T11:59:12.000Z</time>
                <name>Trackpoint 1141</name>
            </trkpt>
            <trkpt lat="49.8626944" lon="11.5485048">
                <ele>568.0</ele>
                <time>2020-08-21T11:59:14.000Z</time>
                <name>Trackpoint 1142</name>
            </trkpt>
            <trkpt lat="49.8627328" lon="11.5486536">
                <ele>568.0</ele>
                <time>2020-08-21T11:59:16.000Z</time>
                <name>Trackpoint 1143</name>
            </trkpt>
            <trkpt lat="49.8627648" lon="11.5488008">
                <ele>567.0</ele>
                <time>2020-08-21T11:59:18.000Z</time>
                <name>Trackpoint 1144</name>
            </trkpt>
            <trkpt lat="49.8628096" lon="11.5489704">
                <ele>567.0</ele>
                <time>2020-08-21T11:59:20.000Z</time>
                <name>Trackpoint 1145</name>
            </trkpt>
            <trkpt lat="49.8628352" lon="11.5490688">
                <ele>567.0</ele>
                <time>2020-08-21T11:59:21.000Z</time>
                <name>Trackpoint 1146</name>
            </trkpt>
            <trkpt lat="49.8628608" lon="11.5491752">
                <ele>566.0</ele>
                <time>2020-08-21T11:59:22.000Z</time>
                <name>Trackpoint 1147</name>
            </trkpt>
            <trkpt lat="49.8628896" lon="11.5492896">
                <ele>566.0</ele>
                <time>2020-08-21T11:59:23.000Z</time>
                <name>Trackpoint 1148</name>
            </trkpt>
            <trkpt lat="49.8629184" lon="11.5494016">
                <ele>566.0</ele>
                <time>2020-08-21T11:59:24.000Z</time>
                <name>Trackpoint 1149</name>
            </trkpt>
            <trkpt lat="49.862944" lon="11.5495128">
                <ele>565.0</ele>
                <time>2020-08-21T11:59:25.000Z</time>
                <name>Trackpoint 1150</name>
            </trkpt>
            <trkpt lat="49.8629728" lon="11.5496256">
                <ele>565.0</ele>
                <time>2020-08-21T11:59:26.000Z</time>
                <name>Trackpoint 1151</name>
            </trkpt>
            <trkpt lat="49.8630016" lon="11.5497376">
                <ele>564.0</ele>
                <time>2020-08-21T11:59:27.000Z</time>
                <name>Trackpoint 1152</name>
            </trkpt>
            <trkpt lat="49.8630304" lon="11.5498504">
                <ele>564.0</ele>
                <time>2020-08-21T11:59:28.000Z</time>
                <name>Trackpoint 1153</name>
            </trkpt>
            <trkpt lat="49.863056" lon="11.54996">
                <ele>564.0</ele>
                <time>2020-08-21T11:59:29.000Z</time>
                <name>Trackpoint 1154</name>
            </trkpt>
            <trkpt lat="49.863088" lon="11.5500672">
                <ele>563.0</ele>
                <time>2020-08-21T11:59:30.000Z</time>
                <name>Trackpoint 1155</name>
            </trkpt>
            <trkpt lat="49.8631104" lon="11.5501744">
                <ele>563.0</ele>
                <time>2020-08-21T11:59:31.000Z</time>
                <name>Trackpoint 1156</name>
            </trkpt>
            <trkpt lat="49.8631328" lon="11.5502832">
                <ele>562.0</ele>
                <time>2020-08-21T11:59:32.000Z</time>
                <name>Trackpoint 1157</name>
            </trkpt>
            <trkpt lat="49.8631488" lon="11.5503768">
                <ele>562.0</ele>
                <time>2020-08-21T11:59:33.000Z</time>
                <name>Trackpoint 1158</name>
            </trkpt>
            <trkpt lat="49.8631712" lon="11.5504768">
                <ele>562.0</ele>
                <time>2020-08-21T11:59:34.000Z</time>
                <name>Trackpoint 1159</name>
            </trkpt>
            <trkpt lat="49.8631936" lon="11.5505712">
                <ele>561.0</ele>
                <time>2020-08-21T11:59:35.000Z</time>
                <name>Trackpoint 1160</name>
            </trkpt>
            <trkpt lat="49.8632096" lon="11.5506672">
                <ele>561.0</ele>
                <time>2020-08-21T11:59:36.000Z</time>
                <name>Trackpoint 1161</name>
            </trkpt>
            <trkpt lat="49.863232" lon="11.5507584">
                <ele>561.0</ele>
                <time>2020-08-21T11:59:37.000Z</time>
                <name>Trackpoint 1162</name>
            </trkpt>
            <trkpt lat="49.8632544" lon="11.5508472">
                <ele>560.0</ele>
                <time>2020-08-21T11:59:38.000Z</time>
                <name>Trackpoint 1163</name>
            </trkpt>
            <trkpt lat="49.863296" lon="11.55102">
                <ele>560.0</ele>
                <time>2020-08-21T11:59:40.000Z</time>
                <name>Trackpoint 1164</name>
            </trkpt>
            <trkpt lat="49.8633504" lon="11.5511848">
                <ele>559.0</ele>
                <time>2020-08-21T11:59:42.000Z</time>
                <name>Trackpoint 1165</name>
            </trkpt>
            <trkpt lat="49.8633888" lon="11.5513496">
                <ele>558.0</ele>
                <time>2020-08-21T11:59:44.000Z</time>
                <name>Trackpoint 1166</name>
            </trkpt>
            <trkpt lat="49.8634336" lon="11.55152">
                <ele>556.0</ele>
                <time>2020-08-21T11:59:46.000Z</time>
                <name>Trackpoint 1167</name>
            </trkpt>
            <trkpt lat="49.863488" lon="11.5516928">
                <ele>554.0</ele>
                <time>2020-08-21T11:59:48.000Z</time>
                <name>Trackpoint 1168</name>
            </trkpt>
            <trkpt lat="49.8635136" lon="11.55178">
                <ele>553.0</ele>
                <time>2020-08-21T11:59:49.000Z</time>
                <name>Trackpoint 1169</name>
            </trkpt>
            <trkpt lat="49.8635456" lon="11.5518688">
                <ele>553.0</ele>
                <time>2020-08-21T11:59:50.000Z</time>
                <name>Trackpoint 1170</name>
            </trkpt>
            <trkpt lat="49.8635904" lon="11.5520432">
                <ele>551.0</ele>
                <time>2020-08-21T11:59:52.000Z</time>
                <name>Trackpoint 1171</name>
            </trkpt>
            <trkpt lat="49.863616" lon="11.5521296">
                <ele>550.0</ele>
                <time>2020-08-21T11:59:53.000Z</time>
                <name>Trackpoint 1172</name>
            </trkpt>
            <trkpt lat="49.863648" lon="11.55222">
                <ele>549.0</ele>
                <time>2020-08-21T11:59:54.000Z</time>
                <name>Trackpoint 1173</name>
            </trkpt>
            <trkpt lat="49.8636736" lon="11.5523096">
                <ele>548.0</ele>
                <time>2020-08-21T11:59:55.000Z</time>
                <name>Trackpoint 1174</name>
            </trkpt>
            <trkpt lat="49.8637056" lon="11.5523968">
                <ele>547.0</ele>
                <time>2020-08-21T11:59:56.000Z</time>
                <name>Trackpoint 1175</name>
            </trkpt>
            <trkpt lat="49.863744" lon="11.5524864">
                <ele>546.0</ele>
                <time>2020-08-21T11:59:57.000Z</time>
                <name>Trackpoint 1176</name>
            </trkpt>
            <trkpt lat="49.8637824" lon="11.5525736">
                <ele>546.0</ele>
                <time>2020-08-21T11:59:58.000Z</time>
                <name>Trackpoint 1177</name>
            </trkpt>
            <trkpt lat="49.8638144" lon="11.5526584">
                <ele>545.0</ele>
                <time>2020-08-21T11:59:59.000Z</time>
                <name>Trackpoint 1178</name>
            </trkpt>
            <trkpt lat="49.8638528" lon="11.5527432">
                <ele>544.0</ele>
                <time>2020-08-21T12:00:00.000Z</time>
                <name>Trackpoint 1179</name>
            </trkpt>
            <trkpt lat="49.8639264" lon="11.5529072">
                <ele>542.0</ele>
                <time>2020-08-21T12:00:02.000Z</time>
                <name>Trackpoint 1180</name>
            </trkpt>
            <trkpt lat="49.863968" lon="11.552988">
                <ele>541.0</ele>
                <time>2020-08-21T12:00:03.000Z</time>
                <name>Trackpoint 1181</name>
            </trkpt>
            <trkpt lat="49.8640096" lon="11.553072">
                <ele>540.0</ele>
                <time>2020-08-21T12:00:04.000Z</time>
                <name>Trackpoint 1182</name>
            </trkpt>
            <trkpt lat="49.8640608" lon="11.553152">
                <ele>539.0</ele>
                <time>2020-08-21T12:00:05.000Z</time>
                <name>Trackpoint 1183</name>
            </trkpt>
            <trkpt lat="49.8641056" lon="11.5532304">
                <ele>538.0</ele>
                <time>2020-08-21T12:00:06.000Z</time>
                <name>Trackpoint 1184</name>
            </trkpt>
            <trkpt lat="49.8641504" lon="11.5533112">
                <ele>537.0</ele>
                <time>2020-08-21T12:00:07.000Z</time>
                <name>Trackpoint 1185</name>
            </trkpt>
            <trkpt lat="49.8642016" lon="11.5533888">
                <ele>536.0</ele>
                <time>2020-08-21T12:00:08.000Z</time>
                <name>Trackpoint 1186</name>
            </trkpt>
            <trkpt lat="49.8642944" lon="11.55354">
                <ele>534.0</ele>
                <time>2020-08-21T12:00:10.000Z</time>
                <name>Trackpoint 1187</name>
            </trkpt>
            <trkpt lat="49.8643488" lon="11.5536168">
                <ele>533.0</ele>
                <time>2020-08-21T12:00:11.000Z</time>
                <name>Trackpoint 1188</name>
            </trkpt>
            <trkpt lat="49.8644064" lon="11.5536896">
                <ele>532.0</ele>
                <time>2020-08-21T12:00:12.000Z</time>
                <name>Trackpoint 1189</name>
            </trkpt>
            <trkpt lat="49.8645056" lon="11.553828">
                <ele>530.0</ele>
                <time>2020-08-21T12:00:14.000Z</time>
                <name>Trackpoint 1190</name>
            </trkpt>
            <trkpt lat="49.8646112" lon="11.5539568">
                <ele>527.0</ele>
                <time>2020-08-21T12:00:16.000Z</time>
                <name>Trackpoint 1191</name>
            </trkpt>
            <trkpt lat="49.86472" lon="11.554076">
                <ele>526.0</ele>
                <time>2020-08-21T12:00:18.000Z</time>
                <name>Trackpoint 1192</name>
            </trkpt>
            <trkpt lat="49.8648256" lon="11.5541824">
                <ele>525.0</ele>
                <time>2020-08-21T12:00:20.000Z</time>
                <name>Trackpoint 1193</name>
            </trkpt>
            <trkpt lat="49.8649344" lon="11.55428">
                <ele>524.0</ele>
                <time>2020-08-21T12:00:22.000Z</time>
                <name>Trackpoint 1194</name>
            </trkpt>
            <trkpt lat="49.8650432" lon="11.5543632">
                <ele>523.0</ele>
                <time>2020-08-21T12:00:24.000Z</time>
                <name>Trackpoint 1195</name>
            </trkpt>
            <trkpt lat="49.8651456" lon="11.5544344">
                <ele>522.0</ele>
                <time>2020-08-21T12:00:26.000Z</time>
                <name>Trackpoint 1196</name>
            </trkpt>
            <trkpt lat="49.8652544" lon="11.5544968">
                <ele>521.0</ele>
                <time>2020-08-21T12:00:28.000Z</time>
                <name>Trackpoint 1197</name>
            </trkpt>
            <trkpt lat="49.8653632" lon="11.5545656">
                <ele>520.0</ele>
                <time>2020-08-21T12:00:30.000Z</time>
                <name>Trackpoint 1198</name>
            </trkpt>
            <trkpt lat="49.8654752" lon="11.5546264">
                <ele>519.0</ele>
                <time>2020-08-21T12:00:32.000Z</time>
                <name>Trackpoint 1199</name>
            </trkpt>
            <trkpt lat="49.8655808" lon="11.5546888">
                <ele>518.0</ele>
                <time>2020-08-21T12:00:34.000Z</time>
                <name>Trackpoint 1200</name>
            </trkpt>
            <trkpt lat="49.865696" lon="11.5547512">
                <ele>516.0</ele>
                <time>2020-08-21T12:00:36.000Z</time>
                <name>Trackpoint 1201</name>
            </trkpt>
            <trkpt lat="49.8658112" lon="11.5548">
                <ele>515.0</ele>
                <time>2020-08-21T12:00:38.000Z</time>
                <name>Trackpoint 1202</name>
            </trkpt>
            <trkpt lat="49.8659264" lon="11.5548664">
                <ele>514.0</ele>
                <time>2020-08-21T12:00:40.000Z</time>
                <name>Trackpoint 1203</name>
            </trkpt>
            <trkpt lat="49.8660384" lon="11.5549288">
                <ele>513.0</ele>
                <time>2020-08-21T12:00:42.000Z</time>
                <name>Trackpoint 1204</name>
            </trkpt>
            <trkpt lat="49.8661504" lon="11.5549872">
                <ele>511.0</ele>
                <time>2020-08-21T12:00:44.000Z</time>
                <name>Trackpoint 1205</name>
            </trkpt>
            <trkpt lat="49.866272" lon="11.5550632">
                <ele>511.0</ele>
                <time>2020-08-21T12:00:46.000Z</time>
                <name>Trackpoint 1206</name>
            </trkpt>
            <trkpt lat="49.8663968" lon="11.5551456">
                <ele>510.0</ele>
                <time>2020-08-21T12:00:48.000Z</time>
                <name>Trackpoint 1207</name>
            </trkpt>
            <trkpt lat="49.866512" lon="11.555228">
                <ele>509.0</ele>
                <time>2020-08-21T12:00:50.000Z</time>
                <name>Trackpoint 1208</name>
            </trkpt>
            <trkpt lat="49.8666272" lon="11.5553112">
                <ele>509.0</ele>
                <time>2020-08-21T12:00:52.000Z</time>
                <name>Trackpoint 1209</name>
            </trkpt>
            <trkpt lat="49.8667328" lon="11.555404">
                <ele>508.0</ele>
                <time>2020-08-21T12:00:54.000Z</time>
                <name>Trackpoint 1210</name>
            </trkpt>
            <trkpt lat="49.8668416" lon="11.5555136">
                <ele>506.0</ele>
                <time>2020-08-21T12:00:56.000Z</time>
                <name>Trackpoint 1211</name>
            </trkpt>
            <trkpt lat="49.8669248" lon="11.555632">
                <ele>505.0</ele>
                <time>2020-08-21T12:00:58.000Z</time>
                <name>Trackpoint 1212</name>
            </trkpt>
            <trkpt lat="49.8669952" lon="11.5557584">
                <ele>504.0</ele>
                <time>2020-08-21T12:01:00.000Z</time>
                <name>Trackpoint 1213</name>
            </trkpt>
            <trkpt lat="49.8670784" lon="11.555892">
                <ele>503.0</ele>
                <time>2020-08-21T12:01:02.000Z</time>
                <name>Trackpoint 1214</name>
            </trkpt>
            <trkpt lat="49.8671456" lon="11.5560248">
                <ele>502.0</ele>
                <time>2020-08-21T12:01:04.000Z</time>
                <name>Trackpoint 1215</name>
            </trkpt>
            <trkpt lat="49.8672064" lon="11.5561648">
                <ele>501.0</ele>
                <time>2020-08-21T12:01:06.000Z</time>
                <name>Trackpoint 1216</name>
            </trkpt>
            <trkpt lat="49.8672608" lon="11.5563072">
                <ele>500.0</ele>
                <time>2020-08-21T12:01:08.000Z</time>
                <name>Trackpoint 1217</name>
            </trkpt>
            <trkpt lat="49.8673184" lon="11.556448">
                <ele>499.0</ele>
                <time>2020-08-21T12:01:10.000Z</time>
                <name>Trackpoint 1218</name>
            </trkpt>
            <trkpt lat="49.867376" lon="11.5565856">
                <ele>498.0</ele>
                <time>2020-08-21T12:01:12.000Z</time>
                <name>Trackpoint 1219</name>
            </trkpt>
            <trkpt lat="49.8674272" lon="11.556708">
                <ele>498.0</ele>
                <time>2020-08-21T12:01:14.000Z</time>
                <name>Trackpoint 1220</name>
            </trkpt>
            <trkpt lat="49.8674688" lon="11.556804">
                <ele>498.0</ele>
                <time>2020-08-21T12:01:16.000Z</time>
                <name>Trackpoint 1221</name>
            </trkpt>
            <trkpt lat="49.86752" lon="11.5569096">
                <ele>497.0</ele>
                <time>2020-08-21T12:02:06.000Z</time>
                <name>Trackpoint 1222</name>
            </trkpt>
            <trkpt lat="49.8675776" lon="11.5570032">
                <ele>497.0</ele>
                <time>2020-08-21T12:02:09.000Z</time>
                <name>Trackpoint 1223</name>
            </trkpt>
            <trkpt lat="49.8676192" lon="11.557092">
                <ele>497.0</ele>
                <time>2020-08-21T12:02:11.000Z</time>
                <name>Trackpoint 1224</name>
            </trkpt>
            <trkpt lat="49.8676768" lon="11.557188">
                <ele>497.0</ele>
                <time>2020-08-21T12:02:13.000Z</time>
                <name>Trackpoint 1225</name>
            </trkpt>
            <trkpt lat="49.867744" lon="11.5572664">
                <ele>497.0</ele>
                <time>2020-08-21T12:02:15.000Z</time>
                <name>Trackpoint 1226</name>
            </trkpt>
            <trkpt lat="49.8678176" lon="11.5573464">
                <ele>497.0</ele>
                <time>2020-08-21T12:02:17.000Z</time>
                <name>Trackpoint 1227</name>
            </trkpt>
            <trkpt lat="49.8678944" lon="11.5574264">
                <ele>497.0</ele>
                <time>2020-08-21T12:02:19.000Z</time>
                <name>Trackpoint 1228</name>
            </trkpt>
            <trkpt lat="49.8679808" lon="11.5575136">
                <ele>497.0</ele>
                <time>2020-08-21T12:02:21.000Z</time>
                <name>Trackpoint 1229</name>
            </trkpt>
            <trkpt lat="49.86808" lon="11.5576">
                <ele>497.0</ele>
                <time>2020-08-21T12:02:23.000Z</time>
                <name>Trackpoint 1230</name>
            </trkpt>
            <trkpt lat="49.8681728" lon="11.5576736">
                <ele>497.0</ele>
                <time>2020-08-21T12:02:25.000Z</time>
                <name>Trackpoint 1231</name>
            </trkpt>
            <trkpt lat="49.868256" lon="11.5577496">
                <ele>497.0</ele>
                <time>2020-08-21T12:02:27.000Z</time>
                <name>Trackpoint 1232</name>
            </trkpt>
            <trkpt lat="49.8683296" lon="11.5578344">
                <ele>497.0</ele>
                <time>2020-08-21T12:02:29.000Z</time>
                <name>Trackpoint 1233</name>
            </trkpt>
            <trkpt lat="49.8684096" lon="11.5579344">
                <ele>497.0</ele>
                <time>2020-08-21T12:02:31.000Z</time>
                <name>Trackpoint 1234</name>
            </trkpt>
            <trkpt lat="49.8684896" lon="11.558052">
                <ele>497.0</ele>
                <time>2020-08-21T12:02:33.000Z</time>
                <name>Trackpoint 1235</name>
            </trkpt>
            <trkpt lat="49.8685536" lon="11.5581936">
                <ele>497.0</ele>
                <time>2020-08-21T12:02:35.000Z</time>
                <name>Trackpoint 1236</name>
            </trkpt>
            <trkpt lat="49.868608" lon="11.5583312">
                <ele>497.0</ele>
                <time>2020-08-21T12:02:37.000Z</time>
                <name>Trackpoint 1237</name>
            </trkpt>
            <trkpt lat="49.8686528" lon="11.5584488">
                <ele>497.0</ele>
                <time>2020-08-21T12:02:39.000Z</time>
                <name>Trackpoint 1238</name>
            </trkpt>
            <trkpt lat="49.8687008" lon="11.5585336">
                <ele>497.0</ele>
                <time>2020-08-21T12:02:41.000Z</time>
                <name>Trackpoint 1239</name>
            </trkpt>
            <trkpt lat="49.8687776" lon="11.5586168">
                <ele>497.0</ele>
                <time>2020-08-21T12:02:43.000Z</time>
                <name>Trackpoint 1240</name>
            </trkpt>
            <trkpt lat="49.8688608" lon="11.558692">
                <ele>497.0</ele>
                <time>2020-08-21T12:02:45.000Z</time>
                <name>Trackpoint 1241</name>
            </trkpt>
            <trkpt lat="49.8689408" lon="11.558752">
                <ele>497.0</ele>
                <time>2020-08-21T12:02:47.000Z</time>
                <name>Trackpoint 1242</name>
            </trkpt>
            <trkpt lat="49.86904" lon="11.5588232">
                <ele>497.0</ele>
                <time>2020-08-21T12:02:49.000Z</time>
                <name>Trackpoint 1243</name>
            </trkpt>
            <trkpt lat="49.8691552" lon="11.5589016">
                <ele>497.0</ele>
                <time>2020-08-21T12:02:51.000Z</time>
                <name>Trackpoint 1244</name>
            </trkpt>
            <trkpt lat="49.8692672" lon="11.5589784">
                <ele>497.0</ele>
                <time>2020-08-21T12:02:53.000Z</time>
                <name>Trackpoint 1245</name>
            </trkpt>
            <trkpt lat="49.8693632" lon="11.5590496">
                <ele>497.0</ele>
                <time>2020-08-21T12:02:55.000Z</time>
                <name>Trackpoint 1246</name>
            </trkpt>
            <trkpt lat="49.8694528" lon="11.559116">
                <ele>497.0</ele>
                <time>2020-08-21T12:02:57.000Z</time>
                <name>Trackpoint 1247</name>
            </trkpt>
            <trkpt lat="49.8695488" lon="11.5591872">
                <ele>497.0</ele>
                <time>2020-08-21T12:02:59.000Z</time>
                <name>Trackpoint 1248</name>
            </trkpt>
            <trkpt lat="49.869632" lon="11.5592632">
                <ele>497.0</ele>
                <time>2020-08-21T12:03:01.000Z</time>
                <name>Trackpoint 1249</name>
            </trkpt>
            <trkpt lat="49.869728" lon="11.5593136">
                <ele>497.0</ele>
                <time>2020-08-21T12:03:03.000Z</time>
                <name>Trackpoint 1250</name>
            </trkpt>
            <trkpt lat="49.869824" lon="11.5593528">
                <ele>497.0</ele>
                <time>2020-08-21T12:03:05.000Z</time>
                <name>Trackpoint 1251</name>
            </trkpt>
            <trkpt lat="49.8699232" lon="11.5594264">
                <ele>496.0</ele>
                <time>2020-08-21T12:03:07.000Z</time>
                <name>Trackpoint 1252</name>
            </trkpt>
            <trkpt lat="49.8700096" lon="11.5594984">
                <ele>496.0</ele>
                <time>2020-08-21T12:03:09.000Z</time>
                <name>Trackpoint 1253</name>
            </trkpt>
            <trkpt lat="49.8701088" lon="11.5595752">
                <ele>496.0</ele>
                <time>2020-08-21T12:03:11.000Z</time>
                <name>Trackpoint 1254</name>
            </trkpt>
            <trkpt lat="49.8701824" lon="11.5596616">
                <ele>496.0</ele>
                <time>2020-08-21T12:03:13.000Z</time>
                <name>Trackpoint 1255</name>
            </trkpt>
            <trkpt lat="49.87024" lon="11.5597688">
                <ele>496.0</ele>
                <time>2020-08-21T12:03:15.000Z</time>
                <name>Trackpoint 1256</name>
            </trkpt>
            <trkpt lat="49.870304" lon="11.5599232">
                <ele>496.0</ele>
                <time>2020-08-21T12:03:17.000Z</time>
                <name>Trackpoint 1257</name>
            </trkpt>
            <trkpt lat="49.8703584" lon="11.5600784">
                <ele>496.0</ele>
                <time>2020-08-21T12:03:19.000Z</time>
                <name>Trackpoint 1258</name>
            </trkpt>
            <trkpt lat="49.8704032" lon="11.5602232">
                <ele>496.0</ele>
                <time>2020-08-21T12:03:21.000Z</time>
                <name>Trackpoint 1259</name>
            </trkpt>
            <trkpt lat="49.8704576" lon="11.56036">
                <ele>496.0</ele>
                <time>2020-08-21T12:03:23.000Z</time>
                <name>Trackpoint 1260</name>
            </trkpt>
            <trkpt lat="49.8705152" lon="11.5604936">
                <ele>496.0</ele>
                <time>2020-08-21T12:03:25.000Z</time>
                <name>Trackpoint 1261</name>
            </trkpt>
            <trkpt lat="49.8705472" lon="11.5606472">
                <ele>496.0</ele>
                <time>2020-08-21T12:03:27.000Z</time>
                <name>Trackpoint 1262</name>
            </trkpt>
            <trkpt lat="49.8705856" lon="11.560788">
                <ele>495.0</ele>
                <time>2020-08-21T12:03:29.000Z</time>
                <name>Trackpoint 1263</name>
            </trkpt>
            <trkpt lat="49.8706208" lon="11.5609328">
                <ele>495.0</ele>
                <time>2020-08-21T12:03:31.000Z</time>
                <name>Trackpoint 1264</name>
            </trkpt>
            <trkpt lat="49.8706592" lon="11.5610888">
                <ele>495.0</ele>
                <time>2020-08-21T12:03:33.000Z</time>
                <name>Trackpoint 1265</name>
            </trkpt>
            <trkpt lat="49.8707168" lon="11.561252">
                <ele>495.0</ele>
                <time>2020-08-21T12:03:35.000Z</time>
                <name>Trackpoint 1266</name>
            </trkpt>
            <trkpt lat="49.8707872" lon="11.5614232">
                <ele>495.0</ele>
                <time>2020-08-21T12:03:37.000Z</time>
                <name>Trackpoint 1267</name>
            </trkpt>
            <trkpt lat="49.8708224" lon="11.5615168">
                <ele>495.0</ele>
                <time>2020-08-21T12:03:38.000Z</time>
                <name>Trackpoint 1268</name>
            </trkpt>
            <trkpt lat="49.8708544" lon="11.561612">
                <ele>495.0</ele>
                <time>2020-08-21T12:03:39.000Z</time>
                <name>Trackpoint 1269</name>
            </trkpt>
            <trkpt lat="49.87088" lon="11.5617048">
                <ele>495.0</ele>
                <time>2020-08-21T12:03:40.000Z</time>
                <name>Trackpoint 1270</name>
            </trkpt>
            <trkpt lat="49.8709056" lon="11.5618">
                <ele>495.0</ele>
                <time>2020-08-21T12:03:41.000Z</time>
                <name>Trackpoint 1271</name>
            </trkpt>
            <trkpt lat="49.8709408" lon="11.5618912">
                <ele>495.0</ele>
                <time>2020-08-21T12:03:42.000Z</time>
                <name>Trackpoint 1272</name>
            </trkpt>
            <trkpt lat="49.8709728" lon="11.5619816">
                <ele>495.0</ele>
                <time>2020-08-21T12:03:43.000Z</time>
                <name>Trackpoint 1273</name>
            </trkpt>
            <trkpt lat="49.8710016" lon="11.562068">
                <ele>495.0</ele>
                <time>2020-08-21T12:03:44.000Z</time>
                <name>Trackpoint 1274</name>
            </trkpt>
            <trkpt lat="49.8710784" lon="11.5622216">
                <ele>495.0</ele>
                <time>2020-08-21T12:03:46.000Z</time>
                <name>Trackpoint 1275</name>
            </trkpt>
            <trkpt lat="49.8711328" lon="11.56234">
                <ele>495.0</ele>
                <time>2020-08-21T12:03:48.000Z</time>
                <name>Trackpoint 1276</name>
            </trkpt>
            <trkpt lat="49.8711808" lon="11.5624384">
                <ele>495.0</ele>
                <time>2020-08-21T12:03:50.000Z</time>
                <name>Trackpoint 1277</name>
            </trkpt>
            <trkpt lat="49.871232" lon="11.5625384">
                <ele>494.0</ele>
                <time>2020-08-21T12:03:52.000Z</time>
                <name>Trackpoint 1278</name>
            </trkpt>
            <trkpt lat="49.8712928" lon="11.5626288">
                <ele>494.0</ele>
                <time>2020-08-21T12:04:10.000Z</time>
                <name>Trackpoint 1279</name>
            </trkpt>
            <trkpt lat="49.871344" lon="11.5627296">
                <ele>494.0</ele>
                <time>2020-08-21T12:04:13.000Z</time>
                <name>Trackpoint 1280</name>
            </trkpt>
            <trkpt lat="49.8713984" lon="11.5628184">
                <ele>494.0</ele>
                <time>2020-08-21T12:04:15.000Z</time>
                <name>Trackpoint 1281</name>
            </trkpt>
            <trkpt lat="49.871456" lon="11.5629256">
                <ele>494.0</ele>
                <time>2020-08-21T12:04:17.000Z</time>
                <name>Trackpoint 1282</name>
            </trkpt>
            <trkpt lat="49.8715104" lon="11.5630448">
                <ele>494.0</ele>
                <time>2020-08-21T12:04:19.000Z</time>
                <name>Trackpoint 1283</name>
            </trkpt>
            <trkpt lat="49.871568" lon="11.5631784">
                <ele>494.0</ele>
                <time>2020-08-21T12:04:21.000Z</time>
                <name>Trackpoint 1284</name>
            </trkpt>
            <trkpt lat="49.8716192" lon="11.5633272">
                <ele>494.0</ele>
                <time>2020-08-21T12:04:23.000Z</time>
                <name>Trackpoint 1285</name>
            </trkpt>
            <trkpt lat="49.8716704" lon="11.56346">
                <ele>494.0</ele>
                <time>2020-08-21T12:04:25.000Z</time>
                <name>Trackpoint 1286</name>
            </trkpt>
            <trkpt lat="49.8717376" lon="11.5635992">
                <ele>494.0</ele>
                <time>2020-08-21T12:04:27.000Z</time>
                <name>Trackpoint 1287</name>
            </trkpt>
            <trkpt lat="49.871792" lon="11.5637184">
                <ele>494.0</ele>
                <time>2020-08-21T12:04:29.000Z</time>
                <name>Trackpoint 1288</name>
            </trkpt>
            <trkpt lat="49.8718368" lon="11.5638248">
                <ele>494.0</ele>
                <time>2020-08-21T12:04:31.000Z</time>
                <name>Trackpoint 1289</name>
            </trkpt>
            <trkpt lat="49.8718848" lon="11.5639112">
                <ele>494.0</ele>
                <time>2020-08-21T12:04:33.000Z</time>
                <name>Trackpoint 1290</name>
            </trkpt>
            <trkpt lat="49.871936" lon="11.5640032">
                <ele>494.0</ele>
                <time>2020-08-21T12:04:35.000Z</time>
                <name>Trackpoint 1291</name>
            </trkpt>
            <trkpt lat="49.8720096" lon="11.564088">
                <ele>493.0</ele>
                <time>2020-08-21T12:04:37.000Z</time>
                <name>Trackpoint 1292</name>
            </trkpt>
            <trkpt lat="49.8720736" lon="11.564168">
                <ele>493.0</ele>
                <time>2020-08-21T12:04:39.000Z</time>
                <name>Trackpoint 1293</name>
            </trkpt>
            <trkpt lat="49.8721376" lon="11.5642816">
                <ele>493.0</ele>
                <time>2020-08-21T12:04:41.000Z</time>
                <name>Trackpoint 1294</name>
            </trkpt>
            <trkpt lat="49.872192" lon="11.5644352">
                <ele>493.0</ele>
                <time>2020-08-21T12:04:43.000Z</time>
                <name>Trackpoint 1295</name>
            </trkpt>
            <trkpt lat="49.872224" lon="11.5645352">
                <ele>493.0</ele>
                <time>2020-08-21T12:04:44.000Z</time>
                <name>Trackpoint 1296</name>
            </trkpt>
            <trkpt lat="49.8722496" lon="11.5646232">
                <ele>493.0</ele>
                <time>2020-08-21T12:04:45.000Z</time>
                <name>Trackpoint 1297</name>
            </trkpt>
            <trkpt lat="49.8722688" lon="11.5647152">
                <ele>493.0</ele>
                <time>2020-08-21T12:04:46.000Z</time>
                <name>Trackpoint 1298</name>
            </trkpt>
            <trkpt lat="49.8723072" lon="11.564888">
                <ele>493.0</ele>
                <time>2020-08-21T12:04:48.000Z</time>
                <name>Trackpoint 1299</name>
            </trkpt>
            <trkpt lat="49.8723264" lon="11.5649816">
                <ele>493.0</ele>
                <time>2020-08-21T12:04:49.000Z</time>
                <name>Trackpoint 1300</name>
            </trkpt>
            <trkpt lat="49.8723424" lon="11.5650752">
                <ele>493.0</ele>
                <time>2020-08-21T12:04:50.000Z</time>
                <name>Trackpoint 1301</name>
            </trkpt>
            <trkpt lat="49.8723616" lon="11.5651648">
                <ele>493.0</ele>
                <time>2020-08-21T12:04:51.000Z</time>
                <name>Trackpoint 1302</name>
            </trkpt>
            <trkpt lat="49.8723968" lon="11.5653352">
                <ele>493.0</ele>
                <time>2020-08-21T12:04:53.000Z</time>
                <name>Trackpoint 1303</name>
            </trkpt>
            <trkpt lat="49.872432" lon="11.565488">
                <ele>493.0</ele>
                <time>2020-08-21T12:04:55.000Z</time>
                <name>Trackpoint 1304</name>
            </trkpt>
            <trkpt lat="49.8724672" lon="11.5656216">
                <ele>493.0</ele>
                <time>2020-08-21T12:04:57.000Z</time>
                <name>Trackpoint 1305</name>
            </trkpt>
            <trkpt lat="49.8725024" lon="11.5657432">
                <ele>493.0</ele>
                <time>2020-08-21T12:04:59.000Z</time>
                <name>Trackpoint 1306</name>
            </trkpt>
            <trkpt lat="49.8725216" lon="11.5658464">
                <ele>492.0</ele>
                <time>2020-08-21T12:05:01.000Z</time>
                <name>Trackpoint 1307</name>
            </trkpt>
            <trkpt lat="49.8725248" lon="11.5659448">
                <ele>492.0</ele>
                <time>2020-08-21T12:05:03.000Z</time>
                <name>Trackpoint 1308</name>
            </trkpt>
            <trkpt lat="49.872544" lon="11.566056">
                <ele>492.0</ele>
                <time>2020-08-21T12:05:06.000Z</time>
                <name>Trackpoint 1309</name>
            </trkpt>
            <trkpt lat="49.87264" lon="11.56604">
                <ele>491.0</ele>
                <time>2020-08-21T12:05:19.000Z</time>
                <name>Trackpoint 1310</name>
            </trkpt>
            <trkpt lat="49.872608" lon="11.566172">
                <ele>490.0</ele>
                <time>2020-08-21T12:05:53.000Z</time>
                <name>Trackpoint 1311</name>
            </trkpt>
            <trkpt lat="49.8726048" lon="11.5662736">
                <ele>490.0</ele>
                <time>2020-08-21T12:05:55.000Z</time>
                <name>Trackpoint 1312</name>
            </trkpt>
            <trkpt lat="49.8726048" lon="11.5664016">
                <ele>490.0</ele>
                <time>2020-08-21T12:05:57.000Z</time>
                <name>Trackpoint 1313</name>
            </trkpt>
            <trkpt lat="49.8726336" lon="11.5665616">
                <ele>490.0</ele>
                <time>2020-08-21T12:05:59.000Z</time>
                <name>Trackpoint 1314</name>
            </trkpt>
            <trkpt lat="49.8726688" lon="11.5667248">
                <ele>490.0</ele>
                <time>2020-08-21T12:06:01.000Z</time>
                <name>Trackpoint 1315</name>
            </trkpt>
            <trkpt lat="49.872704" lon="11.5669016">
                <ele>490.0</ele>
                <time>2020-08-21T12:06:03.000Z</time>
                <name>Trackpoint 1316</name>
            </trkpt>
            <trkpt lat="49.87272" lon="11.567">
                <ele>490.0</ele>
                <time>2020-08-21T12:06:04.000Z</time>
                <name>Trackpoint 1317</name>
            </trkpt>
            <trkpt lat="49.8727392" lon="11.5671056">
                <ele>490.0</ele>
                <time>2020-08-21T12:06:05.000Z</time>
                <name>Trackpoint 1318</name>
            </trkpt>
            <trkpt lat="49.8727616" lon="11.5672152">
                <ele>490.0</ele>
                <time>2020-08-21T12:06:06.000Z</time>
                <name>Trackpoint 1319</name>
            </trkpt>
            <trkpt lat="49.8727808" lon="11.5673312">
                <ele>490.0</ele>
                <time>2020-08-21T12:06:07.000Z</time>
                <name>Trackpoint 1320</name>
            </trkpt>
            <trkpt lat="49.8728032" lon="11.5674536">
                <ele>490.0</ele>
                <time>2020-08-21T12:06:08.000Z</time>
                <name>Trackpoint 1321</name>
            </trkpt>
            <trkpt lat="49.8728256" lon="11.5675784">
                <ele>490.0</ele>
                <time>2020-08-21T12:06:09.000Z</time>
                <name>Trackpoint 1322</name>
            </trkpt>
            <trkpt lat="49.8728416" lon="11.5677016">
                <ele>490.0</ele>
                <time>2020-08-21T12:06:10.000Z</time>
                <name>Trackpoint 1323</name>
            </trkpt>
            <trkpt lat="49.8728512" lon="11.5678352">
                <ele>490.0</ele>
                <time>2020-08-21T12:06:11.000Z</time>
                <name>Trackpoint 1324</name>
            </trkpt>
            <trkpt lat="49.872864" lon="11.5679712">
                <ele>490.0</ele>
                <time>2020-08-21T12:06:12.000Z</time>
                <name>Trackpoint 1325</name>
            </trkpt>
            <trkpt lat="49.87288" lon="11.5681112">
                <ele>490.0</ele>
                <time>2020-08-21T12:06:13.000Z</time>
                <name>Trackpoint 1326</name>
            </trkpt>
            <trkpt lat="49.8728928" lon="11.568252">
                <ele>490.0</ele>
                <time>2020-08-21T12:06:14.000Z</time>
                <name>Trackpoint 1327</name>
            </trkpt>
            <trkpt lat="49.8729056" lon="11.568392">
                <ele>490.0</ele>
                <time>2020-08-21T12:06:15.000Z</time>
                <name>Trackpoint 1328</name>
            </trkpt>
            <trkpt lat="49.8729248" lon="11.5685328">
                <ele>490.0</ele>
                <time>2020-08-21T12:06:16.000Z</time>
                <name>Trackpoint 1329</name>
            </trkpt>
            <trkpt lat="49.8729376" lon="11.5686752">
                <ele>489.0</ele>
                <time>2020-08-21T12:06:17.000Z</time>
                <name>Trackpoint 1330</name>
            </trkpt>
            <trkpt lat="49.8729504" lon="11.5688168">
                <ele>489.0</ele>
                <time>2020-08-21T12:06:18.000Z</time>
                <name>Trackpoint 1331</name>
            </trkpt>
            <trkpt lat="49.8729568" lon="11.5689552">
                <ele>489.0</ele>
                <time>2020-08-21T12:06:19.000Z</time>
                <name>Trackpoint 1332</name>
            </trkpt>
            <trkpt lat="49.8729664" lon="11.5691">
                <ele>489.0</ele>
                <time>2020-08-21T12:06:20.000Z</time>
                <name>Trackpoint 1333</name>
            </trkpt>
            <trkpt lat="49.8729728" lon="11.5692456">
                <ele>489.0</ele>
                <time>2020-08-21T12:06:21.000Z</time>
                <name>Trackpoint 1334</name>
            </trkpt>
            <trkpt lat="49.8729824" lon="11.5693904">
                <ele>489.0</ele>
                <time>2020-08-21T12:06:22.000Z</time>
                <name>Trackpoint 1335</name>
            </trkpt>
            <trkpt lat="49.872992" lon="11.5695352">
                <ele>489.0</ele>
                <time>2020-08-21T12:06:23.000Z</time>
                <name>Trackpoint 1336</name>
            </trkpt>
            <trkpt lat="49.8730048" lon="11.56968">
                <ele>488.0</ele>
                <time>2020-08-21T12:06:24.000Z</time>
                <name>Trackpoint 1337</name>
            </trkpt>
            <trkpt lat="49.8730208" lon="11.5698232">
                <ele>488.0</ele>
                <time>2020-08-21T12:06:25.000Z</time>
                <name>Trackpoint 1338</name>
            </trkpt>
            <trkpt lat="49.8730304" lon="11.5699704">
                <ele>488.0</ele>
                <time>2020-08-21T12:06:26.000Z</time>
                <name>Trackpoint 1339</name>
            </trkpt>
            <trkpt lat="49.8730592" lon="11.5701176">
                <ele>487.0</ele>
                <time>2020-08-21T12:06:27.000Z</time>
                <name>Trackpoint 1340</name>
            </trkpt>
            <trkpt lat="49.873088" lon="11.5702664">
                <ele>486.0</ele>
                <time>2020-08-21T12:06:28.000Z</time>
                <name>Trackpoint 1341</name>
            </trkpt>
            <trkpt lat="49.8731296" lon="11.5704072">
                <ele>485.0</ele>
                <time>2020-08-21T12:06:29.000Z</time>
                <name>Trackpoint 1342</name>
            </trkpt>
            <trkpt lat="49.8731776" lon="11.5705448">
                <ele>485.0</ele>
                <time>2020-08-21T12:06:30.000Z</time>
                <name>Trackpoint 1343</name>
            </trkpt>
            <trkpt lat="49.8732256" lon="11.5706752">
                <ele>484.0</ele>
                <time>2020-08-21T12:06:31.000Z</time>
                <name>Trackpoint 1344</name>
            </trkpt>
            <trkpt lat="49.8732864" lon="11.5707904">
                <ele>483.0</ele>
                <time>2020-08-21T12:06:32.000Z</time>
                <name>Trackpoint 1345</name>
            </trkpt>
            <trkpt lat="49.8733568" lon="11.5708888">
                <ele>482.0</ele>
                <time>2020-08-21T12:06:33.000Z</time>
                <name>Trackpoint 1346</name>
            </trkpt>
            <trkpt lat="49.8734272" lon="11.570976">
                <ele>482.0</ele>
                <time>2020-08-21T12:06:34.000Z</time>
                <name>Trackpoint 1347</name>
            </trkpt>
            <trkpt lat="49.8734944" lon="11.571056">
                <ele>480.0</ele>
                <time>2020-08-21T12:06:35.000Z</time>
                <name>Trackpoint 1348</name>
            </trkpt>
            <trkpt lat="49.8735648" lon="11.5711336">
                <ele>479.0</ele>
                <time>2020-08-21T12:06:36.000Z</time>
                <name>Trackpoint 1349</name>
            </trkpt>
            <trkpt lat="49.8736384" lon="11.5711944">
                <ele>479.0</ele>
                <time>2020-08-21T12:06:37.000Z</time>
                <name>Trackpoint 1350</name>
            </trkpt>
            <trkpt lat="49.8737056" lon="11.5712608">
                <ele>479.0</ele>
                <time>2020-08-21T12:06:38.000Z</time>
                <name>Trackpoint 1351</name>
            </trkpt>
            <trkpt lat="49.8737664" lon="11.571328">
                <ele>478.0</ele>
                <time>2020-08-21T12:06:39.000Z</time>
                <name>Trackpoint 1352</name>
            </trkpt>
            <trkpt lat="49.873824" lon="11.5714016">
                <ele>478.0</ele>
                <time>2020-08-21T12:06:40.000Z</time>
                <name>Trackpoint 1353</name>
            </trkpt>
            <trkpt lat="49.87392" lon="11.5715536">
                <ele>477.0</ele>
                <time>2020-08-21T12:06:42.000Z</time>
                <name>Trackpoint 1354</name>
            </trkpt>
            <trkpt lat="49.8740096" lon="11.5717064">
                <ele>476.0</ele>
                <time>2020-08-21T12:06:44.000Z</time>
                <name>Trackpoint 1355</name>
            </trkpt>
            <trkpt lat="49.8740768" lon="11.5718736">
                <ele>475.0</ele>
                <time>2020-08-21T12:06:46.000Z</time>
                <name>Trackpoint 1356</name>
            </trkpt>
            <trkpt lat="49.8741024" lon="11.5719696">
                <ele>475.0</ele>
                <time>2020-08-21T12:06:47.000Z</time>
                <name>Trackpoint 1357</name>
            </trkpt>
            <trkpt lat="49.8741312" lon="11.572072">
                <ele>475.0</ele>
                <time>2020-08-21T12:06:48.000Z</time>
                <name>Trackpoint 1358</name>
            </trkpt>
            <trkpt lat="49.8741536" lon="11.57218">
                <ele>474.0</ele>
                <time>2020-08-21T12:06:49.000Z</time>
                <name>Trackpoint 1359</name>
            </trkpt>
            <trkpt lat="49.8741728" lon="11.5722936">
                <ele>474.0</ele>
                <time>2020-08-21T12:06:50.000Z</time>
                <name>Trackpoint 1360</name>
            </trkpt>
            <trkpt lat="49.8741888" lon="11.5724152">
                <ele>474.0</ele>
                <time>2020-08-21T12:06:51.000Z</time>
                <name>Trackpoint 1361</name>
            </trkpt>
            <trkpt lat="49.8742016" lon="11.57254">
                <ele>474.0</ele>
                <time>2020-08-21T12:06:52.000Z</time>
                <name>Trackpoint 1362</name>
            </trkpt>
            <trkpt lat="49.8742144" lon="11.5726672">
                <ele>473.0</ele>
                <time>2020-08-21T12:06:53.000Z</time>
                <name>Trackpoint 1363</name>
            </trkpt>
            <trkpt lat="49.8742208" lon="11.5727984">
                <ele>473.0</ele>
                <time>2020-08-21T12:06:54.000Z</time>
                <name>Trackpoint 1364</name>
            </trkpt>
            <trkpt lat="49.8742304" lon="11.572924">
                <ele>473.0</ele>
                <time>2020-08-21T12:06:55.000Z</time>
                <name>Trackpoint 1365</name>
            </trkpt>
            <trkpt lat="49.8742336" lon="11.5730336">
                <ele>473.0</ele>
                <time>2020-08-21T12:06:56.000Z</time>
                <name>Trackpoint 1366</name>
            </trkpt>
            <trkpt lat="49.8742272" lon="11.5731512">
                <ele>472.0</ele>
                <time>2020-08-21T12:06:57.000Z</time>
                <name>Trackpoint 1367</name>
            </trkpt>
            <trkpt lat="49.8742496" lon="11.5732816">
                <ele>472.0</ele>
                <time>2020-08-21T12:06:58.000Z</time>
                <name>Trackpoint 1368</name>
            </trkpt>
            <trkpt lat="49.874272" lon="11.5734128">
                <ele>472.0</ele>
                <time>2020-08-21T12:06:59.000Z</time>
                <name>Trackpoint 1369</name>
            </trkpt>
            <trkpt lat="49.8742976" lon="11.5735528">
                <ele>472.0</ele>
                <time>2020-08-21T12:07:00.000Z</time>
                <name>Trackpoint 1370</name>
            </trkpt>
            <trkpt lat="49.8743392" lon="11.5736816">
                <ele>472.0</ele>
                <time>2020-08-21T12:07:01.000Z</time>
                <name>Trackpoint 1371</name>
            </trkpt>
            <trkpt lat="49.8743584" lon="11.5738064">
                <ele>472.0</ele>
                <time>2020-08-21T12:07:02.000Z</time>
                <name>Trackpoint 1372</name>
            </trkpt>
            <trkpt lat="49.8743808" lon="11.5739248">
                <ele>471.0</ele>
                <time>2020-08-21T12:07:03.000Z</time>
                <name>Trackpoint 1373</name>
            </trkpt>
            <trkpt lat="49.8743936" lon="11.5740448">
                <ele>471.0</ele>
                <time>2020-08-21T12:07:04.000Z</time>
                <name>Trackpoint 1374</name>
            </trkpt>
            <trkpt lat="49.8744064" lon="11.57416">
                <ele>471.0</ele>
                <time>2020-08-21T12:07:05.000Z</time>
                <name>Trackpoint 1375</name>
            </trkpt>
            <trkpt lat="49.8744192" lon="11.57426">
                <ele>471.0</ele>
                <time>2020-08-21T12:07:06.000Z</time>
                <name>Trackpoint 1376</name>
            </trkpt>
            <trkpt lat="49.8744224" lon="11.5743576">
                <ele>471.0</ele>
                <time>2020-08-21T12:07:07.000Z</time>
                <name>Trackpoint 1377</name>
            </trkpt>
            <trkpt lat="49.8744064" lon="11.5745152">
                <ele>471.0</ele>
                <time>2020-08-21T12:07:09.000Z</time>
                <name>Trackpoint 1378</name>
            </trkpt>
            <trkpt lat="49.8743968" lon="11.5746344">
                <ele>470.0</ele>
                <time>2020-08-21T12:07:11.000Z</time>
                <name>Trackpoint 1379</name>
            </trkpt>
            <trkpt lat="49.8743744" lon="11.5747384">
                <ele>470.0</ele>
                <time>2020-08-21T12:07:13.000Z</time>
                <name>Trackpoint 1380</name>
            </trkpt>
            <trkpt lat="49.8743584" lon="11.5748328">
                <ele>470.0</ele>
                <time>2020-08-21T12:07:15.000Z</time>
                <name>Trackpoint 1381</name>
            </trkpt>
            <trkpt lat="49.874352" lon="11.574928">
                <ele>469.0</ele>
                <time>2020-08-21T12:07:17.000Z</time>
                <name>Trackpoint 1382</name>
            </trkpt>
            <trkpt lat="49.874352" lon="11.5750288">
                <ele>469.0</ele>
                <time>2020-08-21T12:07:19.000Z</time>
                <name>Trackpoint 1383</name>
            </trkpt>
            <trkpt lat="49.8743424" lon="11.5751584">
                <ele>469.0</ele>
                <time>2020-08-21T12:07:22.000Z</time>
                <name>Trackpoint 1384</name>
            </trkpt>
            <trkpt lat="49.8743392" lon="11.5752536">
                <ele>469.0</ele>
                <time>2020-08-21T12:07:24.000Z</time>
                <name>Trackpoint 1385</name>
            </trkpt>
            <trkpt lat="49.8743232" lon="11.57538">
                <ele>468.0</ele>
                <time>2020-08-21T12:07:27.000Z</time>
                <name>Trackpoint 1386</name>
            </trkpt>
            <trkpt lat="49.8743328" lon="11.575508">
                <ele>468.0</ele>
                <time>2020-08-21T12:07:30.000Z</time>
                <name>Trackpoint 1387</name>
            </trkpt>
            <trkpt lat="49.87432" lon="11.5756368">
                <ele>468.0</ele>
                <time>2020-08-21T12:07:33.000Z</time>
                <name>Trackpoint 1388</name>
            </trkpt>
            <trkpt lat="49.8743104" lon="11.5757312">
                <ele>468.0</ele>
                <time>2020-08-21T12:07:35.000Z</time>
                <name>Trackpoint 1389</name>
            </trkpt>
            <trkpt lat="49.8742976" lon="11.575856">
                <ele>467.0</ele>
                <time>2020-08-21T12:07:38.000Z</time>
                <name>Trackpoint 1390</name>
            </trkpt>
            <trkpt lat="49.8743136" lon="11.575972">
                <ele>467.0</ele>
                <time>2020-08-21T12:07:41.000Z</time>
                <name>Trackpoint 1391</name>
            </trkpt>
            <trkpt lat="49.8743008" lon="11.5760944">
                <ele>467.0</ele>
                <time>2020-08-21T12:07:44.000Z</time>
                <name>Trackpoint 1392</name>
            </trkpt>
            <trkpt lat="49.8742784" lon="11.5762144">
                <ele>467.0</ele>
                <time>2020-08-21T12:07:47.000Z</time>
                <name>Trackpoint 1393</name>
            </trkpt>
            <trkpt lat="49.8742688" lon="11.5763352">
                <ele>466.0</ele>
                <time>2020-08-21T12:07:50.000Z</time>
                <name>Trackpoint 1394</name>
            </trkpt>
            <trkpt lat="49.8742432" lon="11.5764448">
                <ele>466.0</ele>
                <time>2020-08-21T12:07:53.000Z</time>
                <name>Trackpoint 1395</name>
            </trkpt>
            <trkpt lat="49.8742336" lon="11.5765512">
                <ele>466.0</ele>
                <time>2020-08-21T12:07:56.000Z</time>
                <name>Trackpoint 1396</name>
            </trkpt>
            <trkpt lat="49.8742304" lon="11.5766624">
                <ele>466.0</ele>
                <time>2020-08-21T12:07:59.000Z</time>
                <name>Trackpoint 1397</name>
            </trkpt>
            <trkpt lat="49.8742304" lon="11.5767696">
                <ele>466.0</ele>
                <time>2020-08-21T12:08:02.000Z</time>
                <name>Trackpoint 1398</name>
            </trkpt>
            <trkpt lat="49.8742272" lon="11.5768816">
                <ele>466.0</ele>
                <time>2020-08-21T12:08:05.000Z</time>
                <name>Trackpoint 1399</name>
            </trkpt>
            <trkpt lat="49.8742208" lon="11.5769984">
                <ele>466.0</ele>
                <time>2020-08-21T12:08:08.000Z</time>
                <name>Trackpoint 1400</name>
            </trkpt>
            <trkpt lat="49.8742208" lon="11.5771104">
                <ele>466.0</ele>
                <time>2020-08-21T12:08:11.000Z</time>
                <name>Trackpoint 1401</name>
            </trkpt>
            <trkpt lat="49.8742176" lon="11.5772248">
                <ele>466.0</ele>
                <time>2020-08-21T12:08:14.000Z</time>
                <name>Trackpoint 1402</name>
            </trkpt>
            <trkpt lat="49.8742304" lon="11.5773232">
                <ele>466.0</ele>
                <time>2020-08-21T12:08:17.000Z</time>
                <name>Trackpoint 1403</name>
            </trkpt>
            <trkpt lat="49.8742368" lon="11.5774232">
                <ele>467.0</ele>
                <time>2020-08-21T12:08:20.000Z</time>
                <name>Trackpoint 1404</name>
            </trkpt>
            <trkpt lat="49.8742496" lon="11.5775216">
                <ele>468.0</ele>
                <time>2020-08-21T12:08:23.000Z</time>
                <name>Trackpoint 1405</name>
            </trkpt>
            <trkpt lat="49.8742688" lon="11.5776368">
                <ele>469.0</ele>
                <time>2020-08-21T12:08:27.000Z</time>
                <name>Trackpoint 1406</name>
            </trkpt>
            <trkpt lat="49.8742912" lon="11.577752">
                <ele>470.0</ele>
                <time>2020-08-21T12:08:31.000Z</time>
                <name>Trackpoint 1407</name>
            </trkpt>
            <trkpt lat="49.8743232" lon="11.5778464">
                <ele>471.0</ele>
                <time>2020-08-21T12:08:35.000Z</time>
                <name>Trackpoint 1408</name>
            </trkpt>
            <trkpt lat="49.874352" lon="11.577944">
                <ele>472.0</ele>
                <time>2020-08-21T12:08:39.000Z</time>
                <name>Trackpoint 1409</name>
            </trkpt>
            <trkpt lat="49.8743776" lon="11.5780448">
                <ele>472.0</ele>
                <time>2020-08-21T12:08:43.000Z</time>
                <name>Trackpoint 1410</name>
            </trkpt>
            <trkpt lat="49.8744128" lon="11.5781432">
                <ele>472.0</ele>
                <time>2020-08-21T12:08:47.000Z</time>
                <name>Trackpoint 1411</name>
            </trkpt>
            <trkpt lat="49.8744608" lon="11.5782248">
                <ele>472.0</ele>
                <time>2020-08-21T12:08:51.000Z</time>
                <name>Trackpoint 1412</name>
            </trkpt>
            <trkpt lat="49.8745088" lon="11.5783128">
                <ele>473.0</ele>
                <time>2020-08-21T12:08:55.000Z</time>
                <name>Trackpoint 1413</name>
            </trkpt>
            <trkpt lat="49.8745504" lon="11.5783952">
                <ele>474.0</ele>
                <time>2020-08-21T12:08:59.000Z</time>
                <name>Trackpoint 1414</name>
            </trkpt>
            <trkpt lat="49.8746176" lon="11.5784776">
                <ele>475.0</ele>
                <time>2020-08-21T12:09:04.000Z</time>
                <name>Trackpoint 1415</name>
            </trkpt>
            <trkpt lat="49.8746784" lon="11.578544">
                <ele>476.0</ele>
                <time>2020-08-21T12:09:08.000Z</time>
                <name>Trackpoint 1416</name>
            </trkpt>
            <trkpt lat="49.8747552" lon="11.5786048">
                <ele>477.0</ele>
                <time>2020-08-21T12:09:13.000Z</time>
                <name>Trackpoint 1417</name>
            </trkpt>
            <trkpt lat="49.8748352" lon="11.5786632">
                <ele>478.0</ele>
                <time>2020-08-21T12:09:18.000Z</time>
                <name>Trackpoint 1418</name>
            </trkpt>
            <trkpt lat="49.8749184" lon="11.578716">
                <ele>479.0</ele>
                <time>2020-08-21T12:09:23.000Z</time>
                <name>Trackpoint 1419</name>
            </trkpt>
            <trkpt lat="49.875008" lon="11.5787448">
                <ele>480.0</ele>
                <time>2020-08-21T12:09:28.000Z</time>
                <name>Trackpoint 1420</name>
            </trkpt>
            <trkpt lat="49.8751072" lon="11.5787848">
                <ele>482.0</ele>
                <time>2020-08-21T12:09:34.000Z</time>
                <name>Trackpoint 1421</name>
            </trkpt>
            <trkpt lat="49.8751936" lon="11.5788136">
                <ele>483.0</ele>
                <time>2020-08-21T12:09:39.000Z</time>
                <name>Trackpoint 1422</name>
            </trkpt>
            <trkpt lat="49.8752832" lon="11.578832">
                <ele>484.0</ele>
                <time>2020-08-21T12:09:44.000Z</time>
                <name>Trackpoint 1423</name>
            </trkpt>
            <trkpt lat="49.8753888" lon="11.5788368">
                <ele>484.0</ele>
                <time>2020-08-21T12:09:50.000Z</time>
                <name>Trackpoint 1424</name>
            </trkpt>
            <trkpt lat="49.8754784" lon="11.5788536">
                <ele>485.0</ele>
                <time>2020-08-21T12:09:55.000Z</time>
                <name>Trackpoint 1425</name>
            </trkpt>
            <trkpt lat="49.875584" lon="11.5788536">
                <ele>487.0</ele>
                <time>2020-08-21T12:10:01.000Z</time>
                <name>Trackpoint 1426</name>
            </trkpt>
            <trkpt lat="49.8756832" lon="11.5788448">
                <ele>488.0</ele>
                <time>2020-08-21T12:10:06.000Z</time>
                <name>Trackpoint 1427</name>
            </trkpt>
            <trkpt lat="49.875792" lon="11.5788232">
                <ele>489.0</ele>
                <time>2020-08-21T12:10:12.000Z</time>
                <name>Trackpoint 1428</name>
            </trkpt>
            <trkpt lat="49.8758848" lon="11.5788136">
                <ele>490.0</ele>
                <time>2020-08-21T12:10:17.000Z</time>
                <name>Trackpoint 1429</name>
            </trkpt>
            <trkpt lat="49.8759776" lon="11.5788024">
                <ele>490.0</ele>
                <time>2020-08-21T12:10:23.000Z</time>
                <name>Trackpoint 1430</name>
            </trkpt>
            <trkpt lat="49.8760608" lon="11.5787648">
                <ele>491.0</ele>
                <time>2020-08-21T12:10:51.000Z</time>
                <name>Trackpoint 1431</name>
            </trkpt>
            <trkpt lat="49.8761696" lon="11.578756">
                <ele>491.0</ele>
                <time>2020-08-21T12:10:57.000Z</time>
                <name>Trackpoint 1432</name>
            </trkpt>
            <trkpt lat="49.8762752" lon="11.5787496">
                <ele>492.0</ele>
                <time>2020-08-21T12:11:02.000Z</time>
                <name>Trackpoint 1433</name>
            </trkpt>
            <trkpt lat="49.8763744" lon="11.5787352">
                <ele>493.0</ele>
                <time>2020-08-21T12:11:07.000Z</time>
                <name>Trackpoint 1434</name>
            </trkpt>
            <trkpt lat="49.8764736" lon="11.5787312">
                <ele>493.0</ele>
                <time>2020-08-21T12:11:12.000Z</time>
                <name>Trackpoint 1435</name>
            </trkpt>
            <trkpt lat="49.8765856" lon="11.57874">
                <ele>494.0</ele>
                <time>2020-08-21T12:11:17.000Z</time>
                <name>Trackpoint 1436</name>
            </trkpt>
            <trkpt lat="49.8766944" lon="11.5787448">
                <ele>495.0</ele>
                <time>2020-08-21T12:11:21.000Z</time>
                <name>Trackpoint 1437</name>
            </trkpt>
            <trkpt lat="49.8768032" lon="11.5787584">
                <ele>495.0</ele>
                <time>2020-08-21T12:11:25.000Z</time>
                <name>Trackpoint 1438</name>
            </trkpt>
            <trkpt lat="49.8768992" lon="11.5787752">
                <ele>495.0</ele>
                <time>2020-08-21T12:11:28.000Z</time>
                <name>Trackpoint 1439</name>
            </trkpt>
            <trkpt lat="49.8769952" lon="11.5787888">
                <ele>495.0</ele>
                <time>2020-08-21T12:11:31.000Z</time>
                <name>Trackpoint 1440</name>
            </trkpt>
            <trkpt lat="49.8770912" lon="11.5787936">
                <ele>496.0</ele>
                <time>2020-08-21T12:11:34.000Z</time>
                <name>Trackpoint 1441</name>
            </trkpt>
            <trkpt lat="49.8772128" lon="11.5788048">
                <ele>496.0</ele>
                <time>2020-08-21T12:11:38.000Z</time>
                <name>Trackpoint 1442</name>
            </trkpt>
            <trkpt lat="49.8773056" lon="11.578832">
                <ele>496.0</ele>
                <time>2020-08-21T12:11:41.000Z</time>
                <name>Trackpoint 1443</name>
            </trkpt>
            <trkpt lat="49.8774048" lon="11.5788632">
                <ele>496.0</ele>
                <time>2020-08-21T12:11:44.000Z</time>
                <name>Trackpoint 1444</name>
            </trkpt>
            <trkpt lat="49.8775136" lon="11.578888">
                <ele>497.0</ele>
                <time>2020-08-21T12:11:47.000Z</time>
                <name>Trackpoint 1445</name>
            </trkpt>
            <trkpt lat="49.877632" lon="11.5789184">
                <ele>497.0</ele>
                <time>2020-08-21T12:11:50.000Z</time>
                <name>Trackpoint 1446</name>
            </trkpt>
            <trkpt lat="49.8777536" lon="11.5789616">
                <ele>497.0</ele>
                <time>2020-08-21T12:11:53.000Z</time>
                <name>Trackpoint 1447</name>
            </trkpt>
            <trkpt lat="49.8778432" lon="11.5790008">
                <ele>496.0</ele>
                <time>2020-08-21T12:11:55.000Z</time>
                <name>Trackpoint 1448</name>
            </trkpt>
            <trkpt lat="49.877936" lon="11.579048">
                <ele>496.0</ele>
                <time>2020-08-21T12:11:57.000Z</time>
                <name>Trackpoint 1449</name>
            </trkpt>
            <trkpt lat="49.8780352" lon="11.579112">
                <ele>496.0</ele>
                <time>2020-08-21T12:11:59.000Z</time>
                <name>Trackpoint 1450</name>
            </trkpt>
            <trkpt lat="49.8781472" lon="11.5791904">
                <ele>496.0</ele>
                <time>2020-08-21T12:12:01.000Z</time>
                <name>Trackpoint 1451</name>
            </trkpt>
            <trkpt lat="49.8782592" lon="11.5792888">
                <ele>495.0</ele>
                <time>2020-08-21T12:12:03.000Z</time>
                <name>Trackpoint 1452</name>
            </trkpt>
            <trkpt lat="49.878368" lon="11.579416">
                <ele>496.0</ele>
                <time>2020-08-21T12:12:05.000Z</time>
                <name>Trackpoint 1453</name>
            </trkpt>
            <trkpt lat="49.8784832" lon="11.5795584">
                <ele>496.0</ele>
                <time>2020-08-21T12:12:07.000Z</time>
                <name>Trackpoint 1454</name>
            </trkpt>
            <trkpt lat="49.8785408" lon="11.5796344">
                <ele>496.0</ele>
                <time>2020-08-21T12:12:08.000Z</time>
                <name>Trackpoint 1455</name>
            </trkpt>
            <trkpt lat="49.878592" lon="11.5797104">
                <ele>496.0</ele>
                <time>2020-08-21T12:12:09.000Z</time>
                <name>Trackpoint 1456</name>
            </trkpt>
            <trkpt lat="49.878656" lon="11.5797864">
                <ele>496.0</ele>
                <time>2020-08-21T12:12:10.000Z</time>
                <name>Trackpoint 1457</name>
            </trkpt>
            <trkpt lat="49.8787104" lon="11.5798632">
                <ele>495.0</ele>
                <time>2020-08-21T12:12:11.000Z</time>
                <name>Trackpoint 1458</name>
            </trkpt>
            <trkpt lat="49.8787776" lon="11.5799416">
                <ele>495.0</ele>
                <time>2020-08-21T12:12:12.000Z</time>
                <name>Trackpoint 1459</name>
            </trkpt>
            <trkpt lat="49.8788352" lon="11.580024">
                <ele>495.0</ele>
                <time>2020-08-21T12:12:13.000Z</time>
                <name>Trackpoint 1460</name>
            </trkpt>
            <trkpt lat="49.878896" lon="11.5801048">
                <ele>495.0</ele>
                <time>2020-08-21T12:12:14.000Z</time>
                <name>Trackpoint 1461</name>
            </trkpt>
            <trkpt lat="49.87896" lon="11.580192">
                <ele>495.0</ele>
                <time>2020-08-21T12:12:15.000Z</time>
                <name>Trackpoint 1462</name>
            </trkpt>
            <trkpt lat="49.8790176" lon="11.58028">
                <ele>495.0</ele>
                <time>2020-08-21T12:12:16.000Z</time>
                <name>Trackpoint 1463</name>
            </trkpt>
            <trkpt lat="49.8790816" lon="11.5803648">
                <ele>495.0</ele>
                <time>2020-08-21T12:12:17.000Z</time>
                <name>Trackpoint 1464</name>
            </trkpt>
            <trkpt lat="49.8791424" lon="11.5804528">
                <ele>495.0</ele>
                <time>2020-08-21T12:12:18.000Z</time>
                <name>Trackpoint 1465</name>
            </trkpt>
            <trkpt lat="49.8792128" lon="11.58054">
                <ele>494.0</ele>
                <time>2020-08-21T12:12:19.000Z</time>
                <name>Trackpoint 1466</name>
            </trkpt>
            <trkpt lat="49.8792736" lon="11.580624">
                <ele>494.0</ele>
                <time>2020-08-21T12:12:20.000Z</time>
                <name>Trackpoint 1467</name>
            </trkpt>
            <trkpt lat="49.8793376" lon="11.5807104">
                <ele>494.0</ele>
                <time>2020-08-21T12:12:21.000Z</time>
                <name>Trackpoint 1468</name>
            </trkpt>
            <trkpt lat="49.8794016" lon="11.5807952">
                <ele>493.0</ele>
                <time>2020-08-21T12:12:22.000Z</time>
                <name>Trackpoint 1469</name>
            </trkpt>
            <trkpt lat="49.8794656" lon="11.5808784">
                <ele>493.0</ele>
                <time>2020-08-21T12:12:23.000Z</time>
                <name>Trackpoint 1470</name>
            </trkpt>
            <trkpt lat="49.8795328" lon="11.5809616">
                <ele>493.0</ele>
                <time>2020-08-21T12:12:24.000Z</time>
                <name>Trackpoint 1471</name>
            </trkpt>
            <trkpt lat="49.8796" lon="11.581048">
                <ele>493.0</ele>
                <time>2020-08-21T12:12:25.000Z</time>
                <name>Trackpoint 1472</name>
            </trkpt>
            <trkpt lat="49.879664" lon="11.5811344">
                <ele>493.0</ele>
                <time>2020-08-21T12:12:26.000Z</time>
                <name>Trackpoint 1473</name>
            </trkpt>
            <trkpt lat="49.8797312" lon="11.5812184">
                <ele>493.0</ele>
                <time>2020-08-21T12:12:27.000Z</time>
                <name>Trackpoint 1474</name>
            </trkpt>
            <trkpt lat="49.8797952" lon="11.5812976">
                <ele>493.0</ele>
                <time>2020-08-21T12:12:28.000Z</time>
                <name>Trackpoint 1475</name>
            </trkpt>
            <trkpt lat="49.8798592" lon="11.58138">
                <ele>493.0</ele>
                <time>2020-08-21T12:12:29.000Z</time>
                <name>Trackpoint 1476</name>
            </trkpt>
            <trkpt lat="49.8799232" lon="11.5814632">
                <ele>493.0</ele>
                <time>2020-08-21T12:12:30.000Z</time>
                <name>Trackpoint 1477</name>
            </trkpt>
            <trkpt lat="49.8799904" lon="11.5815448">
                <ele>493.0</ele>
                <time>2020-08-21T12:12:31.000Z</time>
                <name>Trackpoint 1478</name>
            </trkpt>
            <trkpt lat="49.8800512" lon="11.5816248">
                <ele>492.0</ele>
                <time>2020-08-21T12:12:32.000Z</time>
                <name>Trackpoint 1479</name>
            </trkpt>
            <trkpt lat="49.880112" lon="11.5816984">
                <ele>492.0</ele>
                <time>2020-08-21T12:12:33.000Z</time>
                <name>Trackpoint 1480</name>
            </trkpt>
            <trkpt lat="49.8801728" lon="11.5817736">
                <ele>492.0</ele>
                <time>2020-08-21T12:12:34.000Z</time>
                <name>Trackpoint 1481</name>
            </trkpt>
            <trkpt lat="49.8802304" lon="11.5818464">
                <ele>492.0</ele>
                <time>2020-08-21T12:12:35.000Z</time>
                <name>Trackpoint 1482</name>
            </trkpt>
            <trkpt lat="49.8802944" lon="11.5819168">
                <ele>492.0</ele>
                <time>2020-08-21T12:12:36.000Z</time>
                <name>Trackpoint 1483</name>
            </trkpt>
            <trkpt lat="49.8804064" lon="11.5820616">
                <ele>492.0</ele>
                <time>2020-08-21T12:12:38.000Z</time>
                <name>Trackpoint 1484</name>
            </trkpt>
            <trkpt lat="49.8804992" lon="11.5822088">
                <ele>491.0</ele>
                <time>2020-08-21T12:12:40.000Z</time>
                <name>Trackpoint 1485</name>
            </trkpt>
            <trkpt lat="49.8805984" lon="11.5823296">
                <ele>491.0</ele>
                <time>2020-08-21T12:12:42.000Z</time>
                <name>Trackpoint 1486</name>
            </trkpt>
            <trkpt lat="49.880704" lon="11.5824344">
                <ele>491.0</ele>
                <time>2020-08-21T12:12:44.000Z</time>
                <name>Trackpoint 1487</name>
            </trkpt>
            <trkpt lat="49.8808064" lon="11.5825384">
                <ele>491.0</ele>
                <time>2020-08-21T12:12:46.000Z</time>
                <name>Trackpoint 1488</name>
            </trkpt>
            <trkpt lat="49.880912" lon="11.5826352">
                <ele>491.0</ele>
                <time>2020-08-21T12:12:48.000Z</time>
                <name>Trackpoint 1489</name>
            </trkpt>
            <trkpt lat="49.881024" lon="11.5827128">
                <ele>491.0</ele>
                <time>2020-08-21T12:12:50.000Z</time>
                <name>Trackpoint 1490</name>
            </trkpt>
            <trkpt lat="49.8811424" lon="11.58278">
                <ele>491.0</ele>
                <time>2020-08-21T12:12:52.000Z</time>
                <name>Trackpoint 1491</name>
            </trkpt>
            <trkpt lat="49.881264" lon="11.5828416">
                <ele>491.0</ele>
                <time>2020-08-21T12:12:54.000Z</time>
                <name>Trackpoint 1492</name>
            </trkpt>
            <trkpt lat="49.881392" lon="11.5828888">
                <ele>491.0</ele>
                <time>2020-08-21T12:12:56.000Z</time>
                <name>Trackpoint 1493</name>
            </trkpt>
            <trkpt lat="49.88152" lon="11.5829216">
                <ele>491.0</ele>
                <time>2020-08-21T12:12:58.000Z</time>
                <name>Trackpoint 1494</name>
            </trkpt>
            <trkpt lat="49.8816544" lon="11.5829288">
                <ele>491.0</ele>
                <time>2020-08-21T12:13:00.000Z</time>
                <name>Trackpoint 1495</name>
            </trkpt>
            <trkpt lat="49.8817952" lon="11.5829296">
                <ele>491.0</ele>
                <time>2020-08-21T12:13:02.000Z</time>
                <name>Trackpoint 1496</name>
            </trkpt>
            <trkpt lat="49.8819392" lon="11.582936">
                <ele>491.0</ele>
                <time>2020-08-21T12:13:04.000Z</time>
                <name>Trackpoint 1497</name>
            </trkpt>
            <trkpt lat="49.8820768" lon="11.5829512">
                <ele>491.0</ele>
                <time>2020-08-21T12:13:06.000Z</time>
                <name>Trackpoint 1498</name>
            </trkpt>
            <trkpt lat="49.882592" lon="11.58298">
                <ele>491.0</ele>
                <time>2020-08-21T12:13:13.000Z</time>
                <name>Trackpoint 1499</name>
            </trkpt>
            <trkpt lat="49.882752" lon="11.5829552">
                <ele>491.0</ele>
                <time>2020-08-21T12:13:15.000Z</time>
                <name>Trackpoint 1500</name>
            </trkpt>
            <trkpt lat="49.8828992" lon="11.5830032">
                <ele>490.0</ele>
                <time>2020-08-21T12:13:17.000Z</time>
                <name>Trackpoint 1501</name>
            </trkpt>
            <trkpt lat="49.8830304" lon="11.5830736">
                <ele>489.0</ele>
                <time>2020-08-21T12:13:19.000Z</time>
                <name>Trackpoint 1502</name>
            </trkpt>
            <trkpt lat="49.8831488" lon="11.5831608">
                <ele>489.0</ele>
                <time>2020-08-21T12:13:21.000Z</time>
                <name>Trackpoint 1503</name>
            </trkpt>
            <trkpt lat="49.8832512" lon="11.5832328">
                <ele>489.0</ele>
                <time>2020-08-21T12:13:23.000Z</time>
                <name>Trackpoint 1504</name>
            </trkpt>
            <trkpt lat="49.8833472" lon="11.5833032">
                <ele>489.0</ele>
                <time>2020-08-21T12:13:25.000Z</time>
                <name>Trackpoint 1505</name>
            </trkpt>
            <trkpt lat="49.8834272" lon="11.5833456">
                <ele>488.0</ele>
                <time>2020-08-21T12:13:27.000Z</time>
                <name>Trackpoint 1506</name>
            </trkpt>
            <trkpt lat="49.8835264" lon="11.5832568">
                <ele>488.0</ele>
                <time>2020-08-21T12:13:30.000Z</time>
                <name>Trackpoint 1507</name>
            </trkpt>
            <trkpt lat="49.883568" lon="11.5831536">
                <ele>488.0</ele>
                <time>2020-08-21T12:13:32.000Z</time>
                <name>Trackpoint 1508</name>
            </trkpt>
            <trkpt lat="49.8836128" lon="11.5830384">
                <ele>487.0</ele>
                <time>2020-08-21T12:13:34.000Z</time>
                <name>Trackpoint 1509</name>
            </trkpt>
            <trkpt lat="49.8836736" lon="11.5829248">
                <ele>486.0</ele>
                <time>2020-08-21T12:13:36.000Z</time>
                <name>Trackpoint 1510</name>
            </trkpt>
            <trkpt lat="49.8837312" lon="11.5828448">
                <ele>486.0</ele>
                <time>2020-08-21T12:13:38.000Z</time>
                <name>Trackpoint 1511</name>
            </trkpt>
            <trkpt lat="49.8838016" lon="11.5827776">
                <ele>485.0</ele>
                <time>2020-08-21T12:13:40.000Z</time>
                <name>Trackpoint 1512</name>
            </trkpt>
            <trkpt lat="49.8838816" lon="11.582728">
                <ele>484.0</ele>
                <time>2020-08-21T12:13:42.000Z</time>
                <name>Trackpoint 1513</name>
            </trkpt>
            <trkpt lat="49.8839808" lon="11.5827016">
                <ele>483.0</ele>
                <time>2020-08-21T12:13:44.000Z</time>
                <name>Trackpoint 1514</name>
            </trkpt>
            <trkpt lat="49.8840864" lon="11.5827048">
                <ele>483.0</ele>
                <time>2020-08-21T12:13:46.000Z</time>
                <name>Trackpoint 1515</name>
            </trkpt>
            <trkpt lat="49.8841984" lon="11.58274">
                <ele>482.0</ele>
                <time>2020-08-21T12:13:48.000Z</time>
                <name>Trackpoint 1516</name>
            </trkpt>
            <trkpt lat="49.8843104" lon="11.582784">
                <ele>482.0</ele>
                <time>2020-08-21T12:13:50.000Z</time>
                <name>Trackpoint 1517</name>
            </trkpt>
            <trkpt lat="49.8844224" lon="11.5828216">
                <ele>482.0</ele>
                <time>2020-08-21T12:13:52.000Z</time>
                <name>Trackpoint 1518</name>
            </trkpt>
            <trkpt lat="49.884528" lon="11.5828512">
                <ele>482.0</ele>
                <time>2020-08-21T12:13:54.000Z</time>
                <name>Trackpoint 1519</name>
            </trkpt>
            <trkpt lat="49.88464" lon="11.5828912">
                <ele>482.0</ele>
                <time>2020-08-21T12:13:56.000Z</time>
                <name>Trackpoint 1520</name>
            </trkpt>
            <trkpt lat="49.8847456" lon="11.5829448">
                <ele>482.0</ele>
                <time>2020-08-21T12:13:58.000Z</time>
                <name>Trackpoint 1521</name>
            </trkpt>
            <trkpt lat="49.8848544" lon="11.5830136">
                <ele>482.0</ele>
                <time>2020-08-21T12:14:00.000Z</time>
                <name>Trackpoint 1522</name>
            </trkpt>
            <trkpt lat="49.8849568" lon="11.5830968">
                <ele>482.0</ele>
                <time>2020-08-21T12:14:02.000Z</time>
                <name>Trackpoint 1523</name>
            </trkpt>
            <trkpt lat="49.8850528" lon="11.5831768">
                <ele>483.0</ele>
                <time>2020-08-21T12:14:04.000Z</time>
                <name>Trackpoint 1524</name>
            </trkpt>
            <trkpt lat="49.8851392" lon="11.583232">
                <ele>483.0</ele>
                <time>2020-08-21T12:14:06.000Z</time>
                <name>Trackpoint 1525</name>
            </trkpt>
            <trkpt lat="49.8852576" lon="11.583312">
                <ele>483.0</ele>
                <time>2020-08-21T12:14:09.000Z</time>
                <name>Trackpoint 1526</name>
            </trkpt>
            <trkpt lat="49.8853536" lon="11.5834">
                <ele>483.0</ele>
                <time>2020-08-21T12:14:12.000Z</time>
                <name>Trackpoint 1527</name>
            </trkpt>
            <trkpt lat="49.885424" lon="11.5834816">
                <ele>483.0</ele>
                <time>2020-08-21T12:14:14.000Z</time>
                <name>Trackpoint 1528</name>
            </trkpt>
            <trkpt lat="49.885472" lon="11.5835752">
                <ele>482.0</ele>
                <time>2020-08-21T12:14:16.000Z</time>
                <name>Trackpoint 1529</name>
            </trkpt>
            <trkpt lat="49.8854912" lon="11.58368">
                <ele>482.0</ele>
                <time>2020-08-21T12:14:18.000Z</time>
                <name>Trackpoint 1530</name>
            </trkpt>
            <trkpt lat="49.8855232" lon="11.5837968">
                <ele>482.0</ele>
                <time>2020-08-21T12:14:21.000Z</time>
                <name>Trackpoint 1531</name>
            </trkpt>
            <trkpt lat="49.8855872" lon="11.5838632">
                <ele>482.0</ele>
                <time>2020-08-21T12:14:23.000Z</time>
                <name>Trackpoint 1532</name>
            </trkpt>
            <trkpt lat="49.88568" lon="11.5839552">
                <ele>482.0</ele>
                <time>2020-08-21T12:14:25.000Z</time>
                <name>Trackpoint 1533</name>
            </trkpt>
            <trkpt lat="49.885776" lon="11.5840552">
                <ele>482.0</ele>
                <time>2020-08-21T12:14:27.000Z</time>
                <name>Trackpoint 1534</name>
            </trkpt>
            <trkpt lat="49.8858752" lon="11.5841368">
                <ele>482.0</ele>
                <time>2020-08-21T12:14:29.000Z</time>
                <name>Trackpoint 1535</name>
            </trkpt>
            <trkpt lat="49.885984" lon="11.5841416">
                <ele>482.0</ele>
                <time>2020-08-21T12:14:32.000Z</time>
                <name>Trackpoint 1536</name>
            </trkpt>
            <trkpt lat="49.8860864" lon="11.5841048">
                <ele>482.0</ele>
                <time>2020-08-21T12:14:35.000Z</time>
                <name>Trackpoint 1537</name>
            </trkpt>
            <trkpt lat="49.886192" lon="11.5840432">
                <ele>482.0</ele>
                <time>2020-08-21T12:14:38.000Z</time>
                <name>Trackpoint 1538</name>
            </trkpt>
            <trkpt lat="49.8862944" lon="11.58402">
                <ele>482.0</ele>
                <time>2020-08-21T12:14:40.000Z</time>
                <name>Trackpoint 1539</name>
            </trkpt>
            <trkpt lat="49.8863968" lon="11.5840016">
                <ele>481.0</ele>
                <time>2020-08-21T12:14:42.000Z</time>
                <name>Trackpoint 1540</name>
            </trkpt>
            <trkpt lat="49.8864928" lon="11.5839752">
                <ele>482.0</ele>
                <time>2020-08-21T12:14:44.000Z</time>
                <name>Trackpoint 1541</name>
            </trkpt>
            <trkpt lat="49.8866016" lon="11.5839384">
                <ele>482.0</ele>
                <time>2020-08-21T12:14:46.000Z</time>
                <name>Trackpoint 1542</name>
            </trkpt>
            <trkpt lat="49.886704" lon="11.5838896">
                <ele>482.0</ele>
                <time>2020-08-21T12:14:48.000Z</time>
                <name>Trackpoint 1543</name>
            </trkpt>
            <trkpt lat="49.8868224" lon="11.5838544">
                <ele>483.0</ele>
                <time>2020-08-21T12:14:50.000Z</time>
                <name>Trackpoint 1544</name>
            </trkpt>
            <trkpt lat="49.8868992" lon="11.5837784">
                <ele>483.0</ele>
                <time>2020-08-21T12:14:52.000Z</time>
                <name>Trackpoint 1545</name>
            </trkpt>
            <trkpt lat="49.886992" lon="11.5836952">
                <ele>483.0</ele>
                <time>2020-08-21T12:14:55.000Z</time>
                <name>Trackpoint 1546</name>
            </trkpt>
            <trkpt lat="49.8870848" lon="11.5836184">
                <ele>483.0</ele>
                <time>2020-08-21T12:14:58.000Z</time>
                <name>Trackpoint 1547</name>
            </trkpt>
            <trkpt lat="49.8871712" lon="11.5835648">
                <ele>483.0</ele>
                <time>2020-08-21T12:15:01.000Z</time>
                <name>Trackpoint 1548</name>
            </trkpt>
            <trkpt lat="49.8872704" lon="11.5834864">
                <ele>483.0</ele>
                <time>2020-08-21T12:15:04.000Z</time>
                <name>Trackpoint 1549</name>
            </trkpt>
            <trkpt lat="49.8873472" lon="11.5834248">
                <ele>482.0</ele>
                <time>2020-08-21T12:15:07.000Z</time>
                <name>Trackpoint 1550</name>
            </trkpt>
            <trkpt lat="49.8874336" lon="11.5833768">
                <ele>482.0</ele>
                <time>2020-08-21T12:15:09.000Z</time>
                <name>Trackpoint 1551</name>
            </trkpt>
            <trkpt lat="49.8875392" lon="11.5833328">
                <ele>481.0</ele>
                <time>2020-08-21T12:15:12.000Z</time>
                <name>Trackpoint 1552</name>
            </trkpt>
            <trkpt lat="49.8876352" lon="11.5833056">
                <ele>481.0</ele>
                <time>2020-08-21T12:15:14.000Z</time>
                <name>Trackpoint 1553</name>
            </trkpt>
            <trkpt lat="49.8877408" lon="11.5832856">
                <ele>481.0</ele>
                <time>2020-08-21T12:15:16.000Z</time>
                <name>Trackpoint 1554</name>
            </trkpt>
            <trkpt lat="49.8878656" lon="11.5832664">
                <ele>481.0</ele>
                <time>2020-08-21T12:15:18.000Z</time>
                <name>Trackpoint 1555</name>
            </trkpt>
            <trkpt lat="49.8880032" lon="11.5832816">
                <ele>481.0</ele>
                <time>2020-08-21T12:15:20.000Z</time>
                <name>Trackpoint 1556</name>
            </trkpt>
            <trkpt lat="49.8881312" lon="11.5833568">
                <ele>481.0</ele>
                <time>2020-08-21T12:15:22.000Z</time>
                <name>Trackpoint 1557</name>
            </trkpt>
            <trkpt lat="49.888256" lon="11.583444">
                <ele>481.0</ele>
                <time>2020-08-21T12:15:24.000Z</time>
                <name>Trackpoint 1558</name>
            </trkpt>
            <trkpt lat="49.8883712" lon="11.5835336">
                <ele>482.0</ele>
                <time>2020-08-21T12:15:26.000Z</time>
                <name>Trackpoint 1559</name>
            </trkpt>
            <trkpt lat="49.8884736" lon="11.5836152">
                <ele>482.0</ele>
                <time>2020-08-21T12:15:28.000Z</time>
                <name>Trackpoint 1560</name>
            </trkpt>
            <trkpt lat="49.8885856" lon="11.583712">
                <ele>481.0</ele>
                <time>2020-08-21T12:15:30.000Z</time>
                <name>Trackpoint 1561</name>
            </trkpt>
            <trkpt lat="49.8886976" lon="11.5838216">
                <ele>481.0</ele>
                <time>2020-08-21T12:15:32.000Z</time>
                <name>Trackpoint 1562</name>
            </trkpt>
            <trkpt lat="49.8888" lon="11.5839096">
                <ele>481.0</ele>
                <time>2020-08-21T12:15:34.000Z</time>
                <name>Trackpoint 1563</name>
            </trkpt>
            <trkpt lat="49.8888928" lon="11.5840152">
                <ele>481.0</ele>
                <time>2020-08-21T12:15:36.000Z</time>
                <name>Trackpoint 1564</name>
            </trkpt>
            <trkpt lat="49.8889632" lon="11.5840784">
                <ele>481.0</ele>
                <time>2020-08-21T12:15:37.000Z</time>
                <name>Trackpoint 1565</name>
            </trkpt>
            <trkpt lat="49.8890112" lon="11.5841616">
                <ele>481.0</ele>
                <time>2020-08-21T12:15:38.000Z</time>
                <name>Trackpoint 1566</name>
            </trkpt>
            <trkpt lat="49.8890656" lon="11.5842448">
                <ele>480.0</ele>
                <time>2020-08-21T12:15:39.000Z</time>
                <name>Trackpoint 1567</name>
            </trkpt>
            <trkpt lat="49.8891168" lon="11.5843288">
                <ele>480.0</ele>
                <time>2020-08-21T12:15:40.000Z</time>
                <name>Trackpoint 1568</name>
            </trkpt>
            <trkpt lat="49.889168" lon="11.5844072">
                <ele>480.0</ele>
                <time>2020-08-21T12:15:41.000Z</time>
                <name>Trackpoint 1569</name>
            </trkpt>
            <trkpt lat="49.889216" lon="11.5844896">
                <ele>480.0</ele>
                <time>2020-08-21T12:15:42.000Z</time>
                <name>Trackpoint 1570</name>
            </trkpt>
            <trkpt lat="49.8892544" lon="11.5845736">
                <ele>480.0</ele>
                <time>2020-08-21T12:15:43.000Z</time>
                <name>Trackpoint 1571</name>
            </trkpt>
            <trkpt lat="49.8893152" lon="11.584732">
                <ele>479.0</ele>
                <time>2020-08-21T12:15:45.000Z</time>
                <name>Trackpoint 1572</name>
            </trkpt>
            <trkpt lat="49.8893472" lon="11.58482">
                <ele>479.0</ele>
                <time>2020-08-21T12:15:46.000Z</time>
                <name>Trackpoint 1573</name>
            </trkpt>
            <trkpt lat="49.8893632" lon="11.5849184">
                <ele>479.0</ele>
                <time>2020-08-21T12:15:47.000Z</time>
                <name>Trackpoint 1574</name>
            </trkpt>
            <trkpt lat="49.8893632" lon="11.5851024">
                <ele>479.0</ele>
                <time>2020-08-21T12:15:49.000Z</time>
                <name>Trackpoint 1575</name>
            </trkpt>
            <trkpt lat="49.8893664" lon="11.5852616">
                <ele>479.0</ele>
                <time>2020-08-21T12:15:51.000Z</time>
                <name>Trackpoint 1576</name>
            </trkpt>
            <trkpt lat="49.8893536" lon="11.585388">
                <ele>479.0</ele>
                <time>2020-08-21T12:15:53.000Z</time>
                <name>Trackpoint 1577</name>
            </trkpt>
            <trkpt lat="49.8893888" lon="11.5855216">
                <ele>479.0</ele>
                <time>2020-08-21T12:15:55.000Z</time>
                <name>Trackpoint 1578</name>
            </trkpt>
            <trkpt lat="49.8894112" lon="11.5856664">
                <ele>479.0</ele>
                <time>2020-08-21T12:15:57.000Z</time>
                <name>Trackpoint 1579</name>
            </trkpt>
            <trkpt lat="49.8894432" lon="11.5857832">
                <ele>478.0</ele>
                <time>2020-08-21T12:15:59.000Z</time>
                <name>Trackpoint 1580</name>
            </trkpt>
            <trkpt lat="49.8894752" lon="11.585872">
                <ele>478.0</ele>
                <time>2020-08-21T12:16:02.000Z</time>
                <name>Trackpoint 1581</name>
            </trkpt>
            <trkpt lat="49.8894944" lon="11.5859936">
                <ele>478.0</ele>
                <time>2020-08-21T12:16:06.000Z</time>
                <name>Trackpoint 1582</name>
            </trkpt>
            <trkpt lat="49.889584" lon="11.5860656">
                <ele>478.0</ele>
                <time>2020-08-21T12:16:10.000Z</time>
                <name>Trackpoint 1583</name>
            </trkpt>
            <trkpt lat="49.8896288" lon="11.58618">
                <ele>477.0</ele>
                <time>2020-08-21T12:16:13.000Z</time>
                <name>Trackpoint 1584</name>
            </trkpt>
            <trkpt lat="49.8896832" lon="11.5862568">
                <ele>477.0</ele>
                <time>2020-08-21T12:16:17.000Z</time>
                <name>Trackpoint 1585</name>
            </trkpt>
            <trkpt lat="49.8897792" lon="11.5862752">
                <ele>477.0</ele>
                <time>2020-08-21T12:16:21.000Z</time>
                <name>Trackpoint 1586</name>
            </trkpt>
            <trkpt lat="49.889888" lon="11.5863">
                <ele>477.0</ele>
                <time>2020-08-21T12:16:23.000Z</time>
                <name>Trackpoint 1587</name>
            </trkpt>
            <trkpt lat="49.8900032" lon="11.5862464">
                <ele>478.0</ele>
                <time>2020-08-21T12:16:26.000Z</time>
                <name>Trackpoint 1588</name>
            </trkpt>
            <trkpt lat="49.8900864" lon="11.5861832">
                <ele>478.0</ele>
                <time>2020-08-21T12:16:28.000Z</time>
                <name>Trackpoint 1589</name>
            </trkpt>
            <trkpt lat="49.890176" lon="11.5861304">
                <ele>478.0</ele>
                <time>2020-08-21T12:16:30.000Z</time>
                <name>Trackpoint 1590</name>
            </trkpt>
            <trkpt lat="49.8902496" lon="11.5860752">
                <ele>478.0</ele>
                <time>2020-08-21T12:16:32.000Z</time>
                <name>Trackpoint 1591</name>
            </trkpt>
            <trkpt lat="49.8903424" lon="11.586012">
                <ele>478.0</ele>
                <time>2020-08-21T12:16:34.000Z</time>
                <name>Trackpoint 1592</name>
            </trkpt>
            <trkpt lat="49.890432" lon="11.5859536">
                <ele>479.0</ele>
                <time>2020-08-21T12:16:36.000Z</time>
                <name>Trackpoint 1593</name>
            </trkpt>
            <trkpt lat="49.8905184" lon="11.5859136">
                <ele>479.0</ele>
                <time>2020-08-21T12:16:38.000Z</time>
                <name>Trackpoint 1594</name>
            </trkpt>
            <trkpt lat="49.89064" lon="11.5858696">
                <ele>479.0</ele>
                <time>2020-08-21T12:16:40.000Z</time>
                <name>Trackpoint 1595</name>
            </trkpt>
            <trkpt lat="49.890736" lon="11.5858488">
                <ele>479.0</ele>
                <time>2020-08-21T12:16:41.000Z</time>
                <name>Trackpoint 1596</name>
            </trkpt>
            <trkpt lat="49.8908352" lon="11.5858272">
                <ele>480.0</ele>
                <time>2020-08-21T12:16:42.000Z</time>
                <name>Trackpoint 1597</name>
            </trkpt>
            <trkpt lat="49.8910208" lon="11.5857832">
                <ele>480.0</ele>
                <time>2020-08-21T12:16:44.000Z</time>
                <name>Trackpoint 1598</name>
            </trkpt>
            <trkpt lat="49.89112" lon="11.5857832">
                <ele>480.0</ele>
                <time>2020-08-21T12:16:45.000Z</time>
                <name>Trackpoint 1599</name>
            </trkpt>
            <trkpt lat="49.8912736" lon="11.5857464">
                <ele>480.0</ele>
                <time>2020-08-21T12:16:47.000Z</time>
                <name>Trackpoint 1600</name>
            </trkpt>
            <trkpt lat="49.8914464" lon="11.5857016">
                <ele>480.0</ele>
                <time>2020-08-21T12:16:49.000Z</time>
                <name>Trackpoint 1601</name>
            </trkpt>
            <trkpt lat="49.8915456" lon="11.5856912">
                <ele>480.0</ele>
                <time>2020-08-21T12:16:50.000Z</time>
                <name>Trackpoint 1602</name>
            </trkpt>
            <trkpt lat="49.8916544" lon="11.5856832">
                <ele>480.0</ele>
                <time>2020-08-21T12:16:51.000Z</time>
                <name>Trackpoint 1603</name>
            </trkpt>
            <trkpt lat="49.8917536" lon="11.585676">
                <ele>480.0</ele>
                <time>2020-08-21T12:16:52.000Z</time>
                <name>Trackpoint 1604</name>
            </trkpt>
            <trkpt lat="49.8919296" lon="11.5856936">
                <ele>480.0</ele>
                <time>2020-08-21T12:16:54.000Z</time>
                <name>Trackpoint 1605</name>
            </trkpt>
            <trkpt lat="49.8921152" lon="11.5857184">
                <ele>480.0</ele>
                <time>2020-08-21T12:16:56.000Z</time>
                <name>Trackpoint 1606</name>
            </trkpt>
            <trkpt lat="49.8922752" lon="11.5857032">
                <ele>480.0</ele>
                <time>2020-08-21T12:16:58.000Z</time>
                <name>Trackpoint 1607</name>
            </trkpt>
            <trkpt lat="49.8924416" lon="11.5856984">
                <ele>479.0</ele>
                <time>2020-08-21T12:17:00.000Z</time>
                <name>Trackpoint 1608</name>
            </trkpt>
            <trkpt lat="49.8925792" lon="11.5857464">
                <ele>479.0</ele>
                <time>2020-08-21T12:17:02.000Z</time>
                <name>Trackpoint 1609</name>
            </trkpt>
            <trkpt lat="49.8926912" lon="11.5857536">
                <ele>479.0</ele>
                <time>2020-08-21T12:17:04.000Z</time>
                <name>Trackpoint 1610</name>
            </trkpt>
            <trkpt lat="49.8927968" lon="11.5857488">
                <ele>478.0</ele>
                <time>2020-08-21T12:17:06.000Z</time>
                <name>Trackpoint 1611</name>
            </trkpt>
            <trkpt lat="49.8929376" lon="11.5857464">
                <ele>478.0</ele>
                <time>2020-08-21T12:17:09.000Z</time>
                <name>Trackpoint 1612</name>
            </trkpt>
            <trkpt lat="49.8930368" lon="11.585736">
                <ele>478.0</ele>
                <time>2020-08-21T12:17:11.000Z</time>
                <name>Trackpoint 1613</name>
            </trkpt>
            <trkpt lat="49.8931328" lon="11.5857296">
                <ele>477.0</ele>
                <time>2020-08-21T12:17:13.000Z</time>
                <name>Trackpoint 1614</name>
            </trkpt>
            <trkpt lat="49.893264" lon="11.5857016">
                <ele>477.0</ele>
                <time>2020-08-21T12:17:15.000Z</time>
                <name>Trackpoint 1615</name>
            </trkpt>
            <trkpt lat="49.8933984" lon="11.5856712">
                <ele>476.0</ele>
                <time>2020-08-21T12:17:17.000Z</time>
                <name>Trackpoint 1616</name>
            </trkpt>
            <trkpt lat="49.893552" lon="11.58562">
                <ele>475.0</ele>
                <time>2020-08-21T12:17:19.000Z</time>
                <name>Trackpoint 1617</name>
            </trkpt>
            <trkpt lat="49.8937216" lon="11.5855936">
                <ele>474.0</ele>
                <time>2020-08-21T12:17:21.000Z</time>
                <name>Trackpoint 1618</name>
            </trkpt>
            <trkpt lat="49.893888" lon="11.5855576">
                <ele>474.0</ele>
                <time>2020-08-21T12:17:23.000Z</time>
                <name>Trackpoint 1619</name>
            </trkpt>
            <trkpt lat="49.8940576" lon="11.5855328">
                <ele>473.0</ele>
                <time>2020-08-21T12:17:25.000Z</time>
                <name>Trackpoint 1620</name>
            </trkpt>
            <trkpt lat="49.8941536" lon="11.58552">
                <ele>473.0</ele>
                <time>2020-08-21T12:17:26.000Z</time>
                <name>Trackpoint 1621</name>
            </trkpt>
            <trkpt lat="49.8942528" lon="11.5855016">
                <ele>472.0</ele>
                <time>2020-08-21T12:17:27.000Z</time>
                <name>Trackpoint 1622</name>
            </trkpt>
            <trkpt lat="49.8943488" lon="11.5854904">
                <ele>472.0</ele>
                <time>2020-08-21T12:17:28.000Z</time>
                <name>Trackpoint 1623</name>
            </trkpt>
            <trkpt lat="49.8944544" lon="11.5854768">
                <ele>472.0</ele>
                <time>2020-08-21T12:17:29.000Z</time>
                <name>Trackpoint 1624</name>
            </trkpt>
            <trkpt lat="49.8945504" lon="11.585468">
                <ele>471.0</ele>
                <time>2020-08-21T12:17:30.000Z</time>
                <name>Trackpoint 1625</name>
            </trkpt>
            <trkpt lat="49.8947232" lon="11.58546">
                <ele>471.0</ele>
                <time>2020-08-21T12:17:32.000Z</time>
                <name>Trackpoint 1626</name>
            </trkpt>
            <trkpt lat="49.8948768" lon="11.585452">
                <ele>470.0</ele>
                <time>2020-08-21T12:17:34.000Z</time>
                <name>Trackpoint 1627</name>
            </trkpt>
            <trkpt lat="49.8950304" lon="11.585428">
                <ele>469.0</ele>
                <time>2020-08-21T12:17:36.000Z</time>
                <name>Trackpoint 1628</name>
            </trkpt>
            <trkpt lat="49.895152" lon="11.5854056">
                <ele>469.0</ele>
                <time>2020-08-21T12:17:38.000Z</time>
                <name>Trackpoint 1629</name>
            </trkpt>
            <trkpt lat="49.8952736" lon="11.5853952">
                <ele>468.0</ele>
                <time>2020-08-21T12:17:40.000Z</time>
                <name>Trackpoint 1630</name>
            </trkpt>
            <trkpt lat="49.8953728" lon="11.5853856">
                <ele>467.0</ele>
                <time>2020-08-21T12:17:42.000Z</time>
                <name>Trackpoint 1631</name>
            </trkpt>
            <trkpt lat="49.8954848" lon="11.585368">
                <ele>467.0</ele>
                <time>2020-08-21T12:17:44.000Z</time>
                <name>Trackpoint 1632</name>
            </trkpt>
            <trkpt lat="49.8956096" lon="11.5853568">
                <ele>466.0</ele>
                <time>2020-08-21T12:17:46.000Z</time>
                <name>Trackpoint 1633</name>
            </trkpt>
            <trkpt lat="49.8957504" lon="11.585352">
                <ele>466.0</ele>
                <time>2020-08-21T12:17:48.000Z</time>
                <name>Trackpoint 1634</name>
            </trkpt>
            <trkpt lat="49.895888" lon="11.5853568">
                <ele>465.0</ele>
                <time>2020-08-21T12:17:50.000Z</time>
                <name>Trackpoint 1635</name>
            </trkpt>
            <trkpt lat="49.8960256" lon="11.5853528">
                <ele>465.0</ele>
                <time>2020-08-21T12:17:52.000Z</time>
                <name>Trackpoint 1636</name>
            </trkpt>
            <trkpt lat="49.8961728" lon="11.5853368">
                <ele>464.0</ele>
                <time>2020-08-21T12:17:54.000Z</time>
                <name>Trackpoint 1637</name>
            </trkpt>
            <trkpt lat="49.89632" lon="11.5853208">
                <ele>464.0</ele>
                <time>2020-08-21T12:17:56.000Z</time>
                <name>Trackpoint 1638</name>
            </trkpt>
            <trkpt lat="49.8964768" lon="11.5853032">
                <ele>463.0</ele>
                <time>2020-08-21T12:17:58.000Z</time>
                <name>Trackpoint 1639</name>
            </trkpt>
            <trkpt lat="49.8965728" lon="11.5852872">
                <ele>463.0</ele>
                <time>2020-08-21T12:17:59.000Z</time>
                <name>Trackpoint 1640</name>
            </trkpt>
            <trkpt lat="49.8966688" lon="11.5852768">
                <ele>463.0</ele>
                <time>2020-08-21T12:18:00.000Z</time>
                <name>Trackpoint 1641</name>
            </trkpt>
            <trkpt lat="49.8968384" lon="11.58526">
                <ele>462.0</ele>
                <time>2020-08-21T12:18:02.000Z</time>
                <name>Trackpoint 1642</name>
            </trkpt>
            <trkpt lat="49.8969312" lon="11.585252">
                <ele>462.0</ele>
                <time>2020-08-21T12:18:03.000Z</time>
                <name>Trackpoint 1643</name>
            </trkpt>
            <trkpt lat="49.8970272" lon="11.58524">
                <ele>462.0</ele>
                <time>2020-08-21T12:18:04.000Z</time>
                <name>Trackpoint 1644</name>
            </trkpt>
            <trkpt lat="49.8971264" lon="11.58522">
                <ele>462.0</ele>
                <time>2020-08-21T12:18:05.000Z</time>
                <name>Trackpoint 1645</name>
            </trkpt>
            <trkpt lat="49.8972288" lon="11.5851984">
                <ele>461.0</ele>
                <time>2020-08-21T12:18:06.000Z</time>
                <name>Trackpoint 1646</name>
            </trkpt>
            <trkpt lat="49.8973344" lon="11.58518">
                <ele>461.0</ele>
                <time>2020-08-21T12:18:07.000Z</time>
                <name>Trackpoint 1647</name>
            </trkpt>
            <trkpt lat="49.8974368" lon="11.58516">
                <ele>461.0</ele>
                <time>2020-08-21T12:18:08.000Z</time>
                <name>Trackpoint 1648</name>
            </trkpt>
            <trkpt lat="49.897616" lon="11.58512">
                <ele>460.0</ele>
                <time>2020-08-21T12:18:10.000Z</time>
                <name>Trackpoint 1649</name>
            </trkpt>
            <trkpt lat="49.8977248" lon="11.5850896">
                <ele>460.0</ele>
                <time>2020-08-21T12:18:11.000Z</time>
                <name>Trackpoint 1650</name>
            </trkpt>
            <trkpt lat="49.8978432" lon="11.5850584">
                <ele>460.0</ele>
                <time>2020-08-21T12:18:12.000Z</time>
                <name>Trackpoint 1651</name>
            </trkpt>
            <trkpt lat="49.8979648" lon="11.5850152">
                <ele>459.0</ele>
                <time>2020-08-21T12:18:13.000Z</time>
                <name>Trackpoint 1652</name>
            </trkpt>
            <trkpt lat="49.8980864" lon="11.5849736">
                <ele>459.0</ele>
                <time>2020-08-21T12:18:14.000Z</time>
                <name>Trackpoint 1653</name>
            </trkpt>
            <trkpt lat="49.898208" lon="11.5849312">
                <ele>459.0</ele>
                <time>2020-08-21T12:18:15.000Z</time>
                <name>Trackpoint 1654</name>
            </trkpt>
            <trkpt lat="49.8983392" lon="11.5848816">
                <ele>458.0</ele>
                <time>2020-08-21T12:18:16.000Z</time>
                <name>Trackpoint 1655</name>
            </trkpt>
            <trkpt lat="49.8984512" lon="11.584844">
                <ele>458.0</ele>
                <time>2020-08-21T12:18:17.000Z</time>
                <name>Trackpoint 1656</name>
            </trkpt>
            <trkpt lat="49.8985664" lon="11.5848048">
                <ele>457.0</ele>
                <time>2020-08-21T12:18:18.000Z</time>
                <name>Trackpoint 1657</name>
            </trkpt>
            <trkpt lat="49.8986784" lon="11.5847664">
                <ele>457.0</ele>
                <time>2020-08-21T12:18:19.000Z</time>
                <name>Trackpoint 1658</name>
            </trkpt>
            <trkpt lat="49.8987872" lon="11.5847328">
                <ele>456.0</ele>
                <time>2020-08-21T12:18:20.000Z</time>
                <name>Trackpoint 1659</name>
            </trkpt>
            <trkpt lat="49.8988992" lon="11.5847">
                <ele>455.0</ele>
                <time>2020-08-21T12:18:21.000Z</time>
                <name>Trackpoint 1660</name>
            </trkpt>
            <trkpt lat="49.8990048" lon="11.5846632">
                <ele>455.0</ele>
                <time>2020-08-21T12:18:22.000Z</time>
                <name>Trackpoint 1661</name>
            </trkpt>
            <trkpt lat="49.8991168" lon="11.584632">
                <ele>454.0</ele>
                <time>2020-08-21T12:18:23.000Z</time>
                <name>Trackpoint 1662</name>
            </trkpt>
            <trkpt lat="49.8992192" lon="11.5845968">
                <ele>453.0</ele>
                <time>2020-08-21T12:18:24.000Z</time>
                <name>Trackpoint 1663</name>
            </trkpt>
            <trkpt lat="49.8993248" lon="11.5845584">
                <ele>452.0</ele>
                <time>2020-08-21T12:18:25.000Z</time>
                <name>Trackpoint 1664</name>
            </trkpt>
            <trkpt lat="49.8994336" lon="11.584528">
                <ele>451.0</ele>
                <time>2020-08-21T12:18:26.000Z</time>
                <name>Trackpoint 1665</name>
            </trkpt>
            <trkpt lat="49.899536" lon="11.5845032">
                <ele>450.0</ele>
                <time>2020-08-21T12:18:27.000Z</time>
                <name>Trackpoint 1666</name>
            </trkpt>
            <trkpt lat="49.8996352" lon="11.5844744">
                <ele>449.0</ele>
                <time>2020-08-21T12:18:28.000Z</time>
                <name>Trackpoint 1667</name>
            </trkpt>
            <trkpt lat="49.8997408" lon="11.584448">
                <ele>448.0</ele>
                <time>2020-08-21T12:18:29.000Z</time>
                <name>Trackpoint 1668</name>
            </trkpt>
            <trkpt lat="49.8998496" lon="11.5844232">
                <ele>447.0</ele>
                <time>2020-08-21T12:18:30.000Z</time>
                <name>Trackpoint 1669</name>
            </trkpt>
            <trkpt lat="49.899952" lon="11.5843936">
                <ele>446.0</ele>
                <time>2020-08-21T12:18:31.000Z</time>
                <name>Trackpoint 1670</name>
            </trkpt>
            <trkpt lat="49.9000576" lon="11.5843632">
                <ele>444.0</ele>
                <time>2020-08-21T12:18:32.000Z</time>
                <name>Trackpoint 1671</name>
            </trkpt>
            <trkpt lat="49.9001568" lon="11.5843296">
                <ele>443.0</ele>
                <time>2020-08-21T12:18:33.000Z</time>
                <name>Trackpoint 1672</name>
            </trkpt>
            <trkpt lat="49.900256" lon="11.584296">
                <ele>442.0</ele>
                <time>2020-08-21T12:18:34.000Z</time>
                <name>Trackpoint 1673</name>
            </trkpt>
            <trkpt lat="49.900352" lon="11.5842712">
                <ele>440.0</ele>
                <time>2020-08-21T12:18:35.000Z</time>
                <name>Trackpoint 1674</name>
            </trkpt>
            <trkpt lat="49.9004448" lon="11.5842416">
                <ele>439.0</ele>
                <time>2020-08-21T12:18:36.000Z</time>
                <name>Trackpoint 1675</name>
            </trkpt>
            <trkpt lat="49.9005408" lon="11.5842104">
                <ele>438.0</ele>
                <time>2020-08-21T12:18:37.000Z</time>
                <name>Trackpoint 1676</name>
            </trkpt>
            <trkpt lat="49.9006304" lon="11.5841816">
                <ele>437.0</ele>
                <time>2020-08-21T12:18:38.000Z</time>
                <name>Trackpoint 1677</name>
            </trkpt>
            <trkpt lat="49.90072" lon="11.5841616">
                <ele>435.0</ele>
                <time>2020-08-21T12:18:39.000Z</time>
                <name>Trackpoint 1678</name>
            </trkpt>
            <trkpt lat="49.9008928" lon="11.58412">
                <ele>433.0</ele>
                <time>2020-08-21T12:18:41.000Z</time>
                <name>Trackpoint 1679</name>
            </trkpt>
            <trkpt lat="49.9009856" lon="11.5841">
                <ele>435.0</ele>
                <time>2020-08-21T12:18:42.000Z</time>
                <name>Trackpoint 1680</name>
            </trkpt>
            <trkpt lat="49.9011424" lon="11.5840568">
                <ele>435.0</ele>
                <time>2020-08-21T12:18:44.000Z</time>
                <name>Trackpoint 1681</name>
            </trkpt>
            <trkpt lat="49.9013024" lon="11.584012">
                <ele>434.0</ele>
                <time>2020-08-21T12:18:46.000Z</time>
                <name>Trackpoint 1682</name>
            </trkpt>
            <trkpt lat="49.9014272" lon="11.5839592">
                <ele>433.0</ele>
                <time>2020-08-21T12:18:48.000Z</time>
                <name>Trackpoint 1683</name>
            </trkpt>
            <trkpt lat="49.9015424" lon="11.5839168">
                <ele>431.0</ele>
                <time>2020-08-21T12:18:50.000Z</time>
                <name>Trackpoint 1684</name>
            </trkpt>
            <trkpt lat="49.9016544" lon="11.5838784">
                <ele>430.0</ele>
                <time>2020-08-21T12:18:52.000Z</time>
                <name>Trackpoint 1685</name>
            </trkpt>
            <trkpt lat="49.9017408" lon="11.5838416">
                <ele>428.0</ele>
                <time>2020-08-21T12:18:54.000Z</time>
                <name>Trackpoint 1686</name>
            </trkpt>
            <trkpt lat="49.90184" lon="11.583812">
                <ele>426.0</ele>
                <time>2020-08-21T12:18:57.000Z</time>
                <name>Trackpoint 1687</name>
            </trkpt>
            <trkpt lat="49.9019328" lon="11.5837832">
                <ele>424.0</ele>
                <time>2020-08-21T12:19:00.000Z</time>
                <name>Trackpoint 1688</name>
            </trkpt>
            <trkpt lat="49.9020384" lon="11.5837568">
                <ele>424.0</ele>
                <time>2020-08-21T12:19:03.000Z</time>
                <name>Trackpoint 1689</name>
            </trkpt>
            <trkpt lat="49.9021312" lon="11.5837184">
                <ele>423.0</ele>
                <time>2020-08-21T12:19:06.000Z</time>
                <name>Trackpoint 1690</name>
            </trkpt>
            <trkpt lat="49.9022368" lon="11.5836632">
                <ele>423.0</ele>
                <time>2020-08-21T12:19:09.000Z</time>
                <name>Trackpoint 1691</name>
            </trkpt>
            <trkpt lat="49.9023552" lon="11.5836016">
                <ele>422.0</ele>
                <time>2020-08-21T12:19:12.000Z</time>
                <name>Trackpoint 1692</name>
            </trkpt>
            <trkpt lat="49.9024576" lon="11.5835664">
                <ele>421.0</ele>
                <time>2020-08-21T12:19:14.000Z</time>
                <name>Trackpoint 1693</name>
            </trkpt>
            <trkpt lat="49.9025536" lon="11.583524">
                <ele>420.0</ele>
                <time>2020-08-21T12:19:16.000Z</time>
                <name>Trackpoint 1694</name>
            </trkpt>
            <trkpt lat="49.902656" lon="11.5834768">
                <ele>419.0</ele>
                <time>2020-08-21T12:19:18.000Z</time>
                <name>Trackpoint 1695</name>
            </trkpt>
            <trkpt lat="49.9027552" lon="11.5834352">
                <ele>419.0</ele>
                <time>2020-08-21T12:19:20.000Z</time>
                <name>Trackpoint 1696</name>
            </trkpt>
            <trkpt lat="49.902864" lon="11.583392">
                <ele>418.0</ele>
                <time>2020-08-21T12:19:22.000Z</time>
                <name>Trackpoint 1697</name>
            </trkpt>
            <trkpt lat="49.9029728" lon="11.5833632">
                <ele>417.0</ele>
                <time>2020-08-21T12:19:24.000Z</time>
                <name>Trackpoint 1698</name>
            </trkpt>
            <trkpt lat="49.9030848" lon="11.5833384">
                <ele>417.0</ele>
                <time>2020-08-21T12:19:26.000Z</time>
                <name>Trackpoint 1699</name>
            </trkpt>
            <trkpt lat="49.9031968" lon="11.5833056">
                <ele>416.0</ele>
                <time>2020-08-21T12:19:28.000Z</time>
                <name>Trackpoint 1700</name>
            </trkpt>
            <trkpt lat="49.9033248" lon="11.583272">
                <ele>415.0</ele>
                <time>2020-08-21T12:19:30.000Z</time>
                <name>Trackpoint 1701</name>
            </trkpt>
            <trkpt lat="49.9034432" lon="11.5832344">
                <ele>414.0</ele>
                <time>2020-08-21T12:19:32.000Z</time>
                <name>Trackpoint 1702</name>
            </trkpt>
            <trkpt lat="49.9035648" lon="11.583188">
                <ele>414.0</ele>
                <time>2020-08-21T12:19:34.000Z</time>
                <name>Trackpoint 1703</name>
            </trkpt>
            <trkpt lat="49.9036832" lon="11.5831416">
                <ele>413.0</ele>
                <time>2020-08-21T12:19:36.000Z</time>
                <name>Trackpoint 1704</name>
            </trkpt>
            <trkpt lat="49.9038016" lon="11.5830936">
                <ele>412.0</ele>
                <time>2020-08-21T12:19:38.000Z</time>
                <name>Trackpoint 1705</name>
            </trkpt>
            <trkpt lat="49.9039072" lon="11.5830448">
                <ele>411.0</ele>
                <time>2020-08-21T12:19:40.000Z</time>
                <name>Trackpoint 1706</name>
            </trkpt>
            <trkpt lat="49.9040064" lon="11.5829896">
                <ele>411.0</ele>
                <time>2020-08-21T12:19:42.000Z</time>
                <name>Trackpoint 1707</name>
            </trkpt>
            <trkpt lat="49.9041088" lon="11.582936">
                <ele>410.0</ele>
                <time>2020-08-21T12:19:44.000Z</time>
                <name>Trackpoint 1708</name>
            </trkpt>
            <trkpt lat="49.9042048" lon="11.5828784">
                <ele>409.0</ele>
                <time>2020-08-21T12:19:46.000Z</time>
                <name>Trackpoint 1709</name>
            </trkpt>
            <trkpt lat="49.9043008" lon="11.5828216">
                <ele>409.0</ele>
                <time>2020-08-21T12:19:48.000Z</time>
                <name>Trackpoint 1710</name>
            </trkpt>
            <trkpt lat="49.9044" lon="11.5827576">
                <ele>408.0</ele>
                <time>2020-08-21T12:19:50.000Z</time>
                <name>Trackpoint 1711</name>
            </trkpt>
            <trkpt lat="49.9045056" lon="11.5827064">
                <ele>407.0</ele>
                <time>2020-08-21T12:19:52.000Z</time>
                <name>Trackpoint 1712</name>
            </trkpt>
            <trkpt lat="49.9046048" lon="11.5826552">
                <ele>406.0</ele>
                <time>2020-08-21T12:19:54.000Z</time>
                <name>Trackpoint 1713</name>
            </trkpt>
            <trkpt lat="49.9047168" lon="11.5826064">
                <ele>406.0</ele>
                <time>2020-08-21T12:19:56.000Z</time>
                <name>Trackpoint 1714</name>
            </trkpt>
            <trkpt lat="49.9048544" lon="11.5825568">
                <ele>405.0</ele>
                <time>2020-08-21T12:19:58.000Z</time>
                <name>Trackpoint 1715</name>
            </trkpt>
            <trkpt lat="49.9050112" lon="11.5825368">
                <ele>404.0</ele>
                <time>2020-08-21T12:20:00.000Z</time>
                <name>Trackpoint 1716</name>
            </trkpt>
            <trkpt lat="49.9051872" lon="11.5825344">
                <ele>404.0</ele>
                <time>2020-08-21T12:20:02.000Z</time>
                <name>Trackpoint 1717</name>
            </trkpt>
            <trkpt lat="49.90528" lon="11.5825456">
                <ele>403.0</ele>
                <time>2020-08-21T12:20:03.000Z</time>
                <name>Trackpoint 1718</name>
            </trkpt>
            <trkpt lat="49.9053792" lon="11.5825592">
                <ele>403.0</ele>
                <time>2020-08-21T12:20:04.000Z</time>
                <name>Trackpoint 1719</name>
            </trkpt>
            <trkpt lat="49.9054848" lon="11.58258">
                <ele>402.0</ele>
                <time>2020-08-21T12:20:05.000Z</time>
                <name>Trackpoint 1720</name>
            </trkpt>
            <trkpt lat="49.9055872" lon="11.582608">
                <ele>401.0</ele>
                <time>2020-08-21T12:20:06.000Z</time>
                <name>Trackpoint 1721</name>
            </trkpt>
            <trkpt lat="49.9056896" lon="11.5826416">
                <ele>400.0</ele>
                <time>2020-08-21T12:20:07.000Z</time>
                <name>Trackpoint 1722</name>
            </trkpt>
            <trkpt lat="49.905792" lon="11.58268">
                <ele>400.0</ele>
                <time>2020-08-21T12:20:08.000Z</time>
                <name>Trackpoint 1723</name>
            </trkpt>
            <trkpt lat="49.9058976" lon="11.5827176">
                <ele>399.0</ele>
                <time>2020-08-21T12:20:09.000Z</time>
                <name>Trackpoint 1724</name>
            </trkpt>
            <trkpt lat="49.9060032" lon="11.5827576">
                <ele>398.0</ele>
                <time>2020-08-21T12:20:10.000Z</time>
                <name>Trackpoint 1725</name>
            </trkpt>
            <trkpt lat="49.9061056" lon="11.5827968">
                <ele>397.0</ele>
                <time>2020-08-21T12:20:11.000Z</time>
                <name>Trackpoint 1726</name>
            </trkpt>
            <trkpt lat="49.906208" lon="11.5828352">
                <ele>397.0</ele>
                <time>2020-08-21T12:20:12.000Z</time>
                <name>Trackpoint 1727</name>
            </trkpt>
            <trkpt lat="49.906304" lon="11.5828736">
                <ele>396.0</ele>
                <time>2020-08-21T12:20:13.000Z</time>
                <name>Trackpoint 1728</name>
            </trkpt>
            <trkpt lat="49.9064032" lon="11.5829112">
                <ele>395.0</ele>
                <time>2020-08-21T12:20:14.000Z</time>
                <name>Trackpoint 1729</name>
            </trkpt>
            <trkpt lat="49.9064992" lon="11.5829512">
                <ele>395.0</ele>
                <time>2020-08-21T12:20:15.000Z</time>
                <name>Trackpoint 1730</name>
            </trkpt>
            <trkpt lat="49.9065888" lon="11.5829936">
                <ele>394.0</ele>
                <time>2020-08-21T12:20:16.000Z</time>
                <name>Trackpoint 1731</name>
            </trkpt>
            <trkpt lat="49.9066784" lon="11.5830408">
                <ele>393.0</ele>
                <time>2020-08-21T12:20:17.000Z</time>
                <name>Trackpoint 1732</name>
            </trkpt>
            <trkpt lat="49.9067648" lon="11.5830944">
                <ele>393.0</ele>
                <time>2020-08-21T12:20:18.000Z</time>
                <name>Trackpoint 1733</name>
            </trkpt>
            <trkpt lat="49.906848" lon="11.583152">
                <ele>392.0</ele>
                <time>2020-08-21T12:20:19.000Z</time>
                <name>Trackpoint 1734</name>
            </trkpt>
            <trkpt lat="49.9069344" lon="11.5832184">
                <ele>391.0</ele>
                <time>2020-08-21T12:20:20.000Z</time>
                <name>Trackpoint 1735</name>
            </trkpt>
            <trkpt lat="49.9070048" lon="11.583288">
                <ele>391.0</ele>
                <time>2020-08-21T12:20:21.000Z</time>
                <name>Trackpoint 1736</name>
            </trkpt>
            <trkpt lat="49.9070784" lon="11.5833728">
                <ele>389.0</ele>
                <time>2020-08-21T12:20:22.000Z</time>
                <name>Trackpoint 1737</name>
            </trkpt>
            <trkpt lat="49.9071424" lon="11.5834736">
                <ele>388.0</ele>
                <time>2020-08-21T12:20:23.000Z</time>
                <name>Trackpoint 1738</name>
            </trkpt>
            <trkpt lat="49.9071968" lon="11.5835784">
                <ele>387.0</ele>
                <time>2020-08-21T12:20:24.000Z</time>
                <name>Trackpoint 1739</name>
            </trkpt>
            <trkpt lat="49.9072448" lon="11.5836888">
                <ele>386.0</ele>
                <time>2020-08-21T12:20:25.000Z</time>
                <name>Trackpoint 1740</name>
            </trkpt>
            <trkpt lat="49.907296" lon="11.5838016">
                <ele>385.0</ele>
                <time>2020-08-21T12:20:26.000Z</time>
                <name>Trackpoint 1741</name>
            </trkpt>
            <trkpt lat="49.9073344" lon="11.5839136">
                <ele>385.0</ele>
                <time>2020-08-21T12:20:27.000Z</time>
                <name>Trackpoint 1742</name>
            </trkpt>
            <trkpt lat="49.9073792" lon="11.5840264">
                <ele>384.0</ele>
                <time>2020-08-21T12:20:28.000Z</time>
                <name>Trackpoint 1743</name>
            </trkpt>
            <trkpt lat="49.907424" lon="11.5841376">
                <ele>383.0</ele>
                <time>2020-08-21T12:20:29.000Z</time>
                <name>Trackpoint 1744</name>
            </trkpt>
            <trkpt lat="49.9074656" lon="11.5842488">
                <ele>382.0</ele>
                <time>2020-08-21T12:20:30.000Z</time>
                <name>Trackpoint 1745</name>
            </trkpt>
            <trkpt lat="49.90752" lon="11.584356">
                <ele>382.0</ele>
                <time>2020-08-21T12:20:31.000Z</time>
                <name>Trackpoint 1746</name>
            </trkpt>
            <trkpt lat="49.9075712" lon="11.5844544">
                <ele>382.0</ele>
                <time>2020-08-21T12:20:32.000Z</time>
                <name>Trackpoint 1747</name>
            </trkpt>
            <trkpt lat="49.9076192" lon="11.5845536">
                <ele>381.0</ele>
                <time>2020-08-21T12:20:33.000Z</time>
                <name>Trackpoint 1748</name>
            </trkpt>
            <trkpt lat="49.907664" lon="11.584652">
                <ele>382.0</ele>
                <time>2020-08-21T12:20:34.000Z</time>
                <name>Trackpoint 1749</name>
            </trkpt>
            <trkpt lat="49.907712" lon="11.5847504">
                <ele>381.0</ele>
                <time>2020-08-21T12:20:35.000Z</time>
                <name>Trackpoint 1750</name>
            </trkpt>
            <trkpt lat="49.9077536" lon="11.5848504">
                <ele>381.0</ele>
                <time>2020-08-21T12:20:36.000Z</time>
                <name>Trackpoint 1751</name>
            </trkpt>
            <trkpt lat="49.9077984" lon="11.5849536">
                <ele>381.0</ele>
                <time>2020-08-21T12:20:37.000Z</time>
                <name>Trackpoint 1752</name>
            </trkpt>
            <trkpt lat="49.9078368" lon="11.5850536">
                <ele>381.0</ele>
                <time>2020-08-21T12:20:38.000Z</time>
                <name>Trackpoint 1753</name>
            </trkpt>
            <trkpt lat="49.9078784" lon="11.5851544">
                <ele>381.0</ele>
                <time>2020-08-21T12:20:39.000Z</time>
                <name>Trackpoint 1754</name>
            </trkpt>
            <trkpt lat="49.90792" lon="11.5852544">
                <ele>381.0</ele>
                <time>2020-08-21T12:20:40.000Z</time>
                <name>Trackpoint 1755</name>
            </trkpt>
            <trkpt lat="49.9079616" lon="11.5853528">
                <ele>380.0</ele>
                <time>2020-08-21T12:20:41.000Z</time>
                <name>Trackpoint 1756</name>
            </trkpt>
            <trkpt lat="49.9080096" lon="11.5854504">
                <ele>380.0</ele>
                <time>2020-08-21T12:20:42.000Z</time>
                <name>Trackpoint 1757</name>
            </trkpt>
            <trkpt lat="49.9080512" lon="11.5855464">
                <ele>380.0</ele>
                <time>2020-08-21T12:20:43.000Z</time>
                <name>Trackpoint 1758</name>
            </trkpt>
            <trkpt lat="49.908096" lon="11.5856448">
                <ele>380.0</ele>
                <time>2020-08-21T12:20:44.000Z</time>
                <name>Trackpoint 1759</name>
            </trkpt>
            <trkpt lat="49.9081408" lon="11.58574">
                <ele>380.0</ele>
                <time>2020-08-21T12:20:45.000Z</time>
                <name>Trackpoint 1760</name>
            </trkpt>
            <trkpt lat="49.908192" lon="11.5858336">
                <ele>379.0</ele>
                <time>2020-08-21T12:20:46.000Z</time>
                <name>Trackpoint 1761</name>
            </trkpt>
            <trkpt lat="49.9082336" lon="11.5859232">
                <ele>379.0</ele>
                <time>2020-08-21T12:20:47.000Z</time>
                <name>Trackpoint 1762</name>
            </trkpt>
            <trkpt lat="49.9082848" lon="11.5860136">
                <ele>379.0</ele>
                <time>2020-08-21T12:20:48.000Z</time>
                <name>Trackpoint 1763</name>
            </trkpt>
            <trkpt lat="49.9083296" lon="11.5861032">
                <ele>379.0</ele>
                <time>2020-08-21T12:20:49.000Z</time>
                <name>Trackpoint 1764</name>
            </trkpt>
            <trkpt lat="49.9083744" lon="11.5861928">
                <ele>379.0</ele>
                <time>2020-08-21T12:20:50.000Z</time>
                <name>Trackpoint 1765</name>
            </trkpt>
            <trkpt lat="49.9084192" lon="11.58628">
                <ele>378.0</ele>
                <time>2020-08-21T12:20:51.000Z</time>
                <name>Trackpoint 1766</name>
            </trkpt>
            <trkpt lat="49.9084704" lon="11.5863664">
                <ele>378.0</ele>
                <time>2020-08-21T12:20:52.000Z</time>
                <name>Trackpoint 1767</name>
            </trkpt>
            <trkpt lat="49.9085184" lon="11.5864464">
                <ele>378.0</ele>
                <time>2020-08-21T12:20:53.000Z</time>
                <name>Trackpoint 1768</name>
            </trkpt>
            <trkpt lat="49.9085664" lon="11.586532">
                <ele>378.0</ele>
                <time>2020-08-21T12:20:54.000Z</time>
                <name>Trackpoint 1769</name>
            </trkpt>
            <trkpt lat="49.9086176" lon="11.5866096">
                <ele>378.0</ele>
                <time>2020-08-21T12:20:55.000Z</time>
                <name>Trackpoint 1770</name>
            </trkpt>
            <trkpt lat="49.9086752" lon="11.5866808">
                <ele>378.0</ele>
                <time>2020-08-21T12:20:56.000Z</time>
                <name>Trackpoint 1771</name>
            </trkpt>
            <trkpt lat="49.9088096" lon="11.5867656">
                <ele>377.0</ele>
                <time>2020-08-21T12:20:58.000Z</time>
                <name>Trackpoint 1772</name>
            </trkpt>
            <trkpt lat="49.9089472" lon="11.5867664">
                <ele>377.0</ele>
                <time>2020-08-21T12:21:00.000Z</time>
                <name>Trackpoint 1773</name>
            </trkpt>
            <trkpt lat="49.909088" lon="11.5867184">
                <ele>377.0</ele>
                <time>2020-08-21T12:21:02.000Z</time>
                <name>Trackpoint 1774</name>
            </trkpt>
            <trkpt lat="49.9092288" lon="11.5866568">
                <ele>377.0</ele>
                <time>2020-08-21T12:21:04.000Z</time>
                <name>Trackpoint 1775</name>
            </trkpt>
            <trkpt lat="49.9093664" lon="11.5865872">
                <ele>376.0</ele>
                <time>2020-08-21T12:21:06.000Z</time>
                <name>Trackpoint 1776</name>
            </trkpt>
            <trkpt lat="49.9094976" lon="11.5864824">
                <ele>376.0</ele>
                <time>2020-08-21T12:21:08.000Z</time>
                <name>Trackpoint 1777</name>
            </trkpt>
            <trkpt lat="49.909616" lon="11.5863552">
                <ele>375.0</ele>
                <time>2020-08-21T12:21:10.000Z</time>
                <name>Trackpoint 1778</name>
            </trkpt>
            <trkpt lat="49.9097184" lon="11.5862216">
                <ele>375.0</ele>
                <time>2020-08-21T12:21:12.000Z</time>
                <name>Trackpoint 1779</name>
            </trkpt>
            <trkpt lat="49.9098208" lon="11.5860816">
                <ele>375.0</ele>
                <time>2020-08-21T12:21:14.000Z</time>
                <name>Trackpoint 1780</name>
            </trkpt>
            <trkpt lat="49.9099072" lon="11.5859432">
                <ele>375.0</ele>
                <time>2020-08-21T12:21:16.000Z</time>
                <name>Trackpoint 1781</name>
            </trkpt>
            <trkpt lat="49.9099936" lon="11.5858072">
                <ele>375.0</ele>
                <time>2020-08-21T12:21:18.000Z</time>
                <name>Trackpoint 1782</name>
            </trkpt>
            <trkpt lat="49.9100608" lon="11.5856784">
                <ele>375.0</ele>
                <time>2020-08-21T12:21:20.000Z</time>
                <name>Trackpoint 1783</name>
            </trkpt>
            <trkpt lat="49.910128" lon="11.5855616">
                <ele>374.0</ele>
                <time>2020-08-21T12:21:22.000Z</time>
                <name>Trackpoint 1784</name>
            </trkpt>
            <trkpt lat="49.9101984" lon="11.5854664">
                <ele>374.0</ele>
                <time>2020-08-21T12:21:24.000Z</time>
                <name>Trackpoint 1785</name>
            </trkpt>
            <trkpt lat="49.910272" lon="11.5853704">
                <ele>374.0</ele>
                <time>2020-08-21T12:21:26.000Z</time>
                <name>Trackpoint 1786</name>
            </trkpt>
            <trkpt lat="49.9103424" lon="11.585292">
                <ele>374.0</ele>
                <time>2020-08-21T12:21:28.000Z</time>
                <name>Trackpoint 1787</name>
            </trkpt>
            <trkpt lat="49.9104224" lon="11.5852248">
                <ele>374.0</ele>
                <time>2020-08-21T12:21:30.000Z</time>
                <name>Trackpoint 1788</name>
            </trkpt>
            <trkpt lat="49.9105088" lon="11.58516">
                <ele>374.0</ele>
                <time>2020-08-21T12:21:32.000Z</time>
                <name>Trackpoint 1789</name>
            </trkpt>
            <trkpt lat="49.9105952" lon="11.5850952">
                <ele>374.0</ele>
                <time>2020-08-21T12:21:34.000Z</time>
                <name>Trackpoint 1790</name>
            </trkpt>
            <trkpt lat="49.9106784" lon="11.5850288">
                <ele>374.0</ele>
                <time>2020-08-21T12:21:36.000Z</time>
                <name>Trackpoint 1791</name>
            </trkpt>
            <trkpt lat="49.9107552" lon="11.5849616">
                <ele>374.0</ele>
                <time>2020-08-21T12:21:38.000Z</time>
                <name>Trackpoint 1792</name>
            </trkpt>
            <trkpt lat="49.9108352" lon="11.5848712">
                <ele>374.0</ele>
                <time>2020-08-21T12:21:40.000Z</time>
                <name>Trackpoint 1793</name>
            </trkpt>
            <trkpt lat="49.910912" lon="11.5847552">
                <ele>373.0</ele>
                <time>2020-08-21T12:21:42.000Z</time>
                <name>Trackpoint 1794</name>
            </trkpt>
            <trkpt lat="49.9109728" lon="11.5846208">
                <ele>373.0</ele>
                <time>2020-08-21T12:21:44.000Z</time>
                <name>Trackpoint 1795</name>
            </trkpt>
            <trkpt lat="49.9110272" lon="11.5844648">
                <ele>373.0</ele>
                <time>2020-08-21T12:21:46.000Z</time>
                <name>Trackpoint 1796</name>
            </trkpt>
            <trkpt lat="49.9110784" lon="11.5843064">
                <ele>373.0</ele>
                <time>2020-08-21T12:21:48.000Z</time>
                <name>Trackpoint 1797</name>
            </trkpt>
            <trkpt lat="49.9111488" lon="11.5841552">
                <ele>373.0</ele>
                <time>2020-08-21T12:21:50.000Z</time>
                <name>Trackpoint 1798</name>
            </trkpt>
            <trkpt lat="49.9112288" lon="11.5840216">
                <ele>373.0</ele>
                <time>2020-08-21T12:21:52.000Z</time>
                <name>Trackpoint 1799</name>
            </trkpt>
            <trkpt lat="49.911312" lon="11.583892">
                <ele>372.0</ele>
                <time>2020-08-21T12:21:54.000Z</time>
                <name>Trackpoint 1800</name>
            </trkpt>
            <trkpt lat="49.9114144" lon="11.5837696">
                <ele>372.0</ele>
                <time>2020-08-21T12:21:56.000Z</time>
                <name>Trackpoint 1801</name>
            </trkpt>
            <trkpt lat="49.9115264" lon="11.5836512">
                <ele>372.0</ele>
                <time>2020-08-21T12:21:58.000Z</time>
                <name>Trackpoint 1802</name>
            </trkpt>
            <trkpt lat="49.9116416" lon="11.5835464">
                <ele>372.0</ele>
                <time>2020-08-21T12:22:00.000Z</time>
                <name>Trackpoint 1803</name>
            </trkpt>
            <trkpt lat="49.91176" lon="11.5834568">
                <ele>372.0</ele>
                <time>2020-08-21T12:22:02.000Z</time>
                <name>Trackpoint 1804</name>
            </trkpt>
            <trkpt lat="49.9118752" lon="11.5833664">
                <ele>371.0</ele>
                <time>2020-08-21T12:22:04.000Z</time>
                <name>Trackpoint 1805</name>
            </trkpt>
            <trkpt lat="49.9119936" lon="11.5832768">
                <ele>371.0</ele>
                <time>2020-08-21T12:22:06.000Z</time>
                <name>Trackpoint 1806</name>
            </trkpt>
            <trkpt lat="49.9121056" lon="11.5831968">
                <ele>370.0</ele>
                <time>2020-08-21T12:22:08.000Z</time>
                <name>Trackpoint 1807</name>
            </trkpt>
            <trkpt lat="49.9122176" lon="11.5831096">
                <ele>370.0</ele>
                <time>2020-08-21T12:22:10.000Z</time>
                <name>Trackpoint 1808</name>
            </trkpt>
            <trkpt lat="49.9123264" lon="11.5830232">
                <ele>370.0</ele>
                <time>2020-08-21T12:22:12.000Z</time>
                <name>Trackpoint 1809</name>
            </trkpt>
            <trkpt lat="49.9124352" lon="11.582936">
                <ele>370.0</ele>
                <time>2020-08-21T12:22:14.000Z</time>
                <name>Trackpoint 1810</name>
            </trkpt>
            <trkpt lat="49.9125408" lon="11.5828504">
                <ele>370.0</ele>
                <time>2020-08-21T12:22:16.000Z</time>
                <name>Trackpoint 1811</name>
            </trkpt>
            <trkpt lat="49.9126464" lon="11.5827712">
                <ele>370.0</ele>
                <time>2020-08-21T12:22:18.000Z</time>
                <name>Trackpoint 1812</name>
            </trkpt>
            <trkpt lat="49.9127488" lon="11.5826912">
                <ele>370.0</ele>
                <time>2020-08-21T12:22:20.000Z</time>
                <name>Trackpoint 1813</name>
            </trkpt>
            <trkpt lat="49.9128576" lon="11.5826056">
                <ele>370.0</ele>
                <time>2020-08-21T12:22:22.000Z</time>
                <name>Trackpoint 1814</name>
            </trkpt>
            <trkpt lat="49.9129568" lon="11.5825256">
                <ele>370.0</ele>
                <time>2020-08-21T12:22:24.000Z</time>
                <name>Trackpoint 1815</name>
            </trkpt>
            <trkpt lat="49.9130592" lon="11.5824384">
                <ele>370.0</ele>
                <time>2020-08-21T12:22:26.000Z</time>
                <name>Trackpoint 1816</name>
            </trkpt>
            <trkpt lat="49.9131648" lon="11.5823584">
                <ele>370.0</ele>
                <time>2020-08-21T12:22:28.000Z</time>
                <name>Trackpoint 1817</name>
            </trkpt>
            <trkpt lat="49.9132736" lon="11.58228">
                <ele>370.0</ele>
                <time>2020-08-21T12:22:30.000Z</time>
                <name>Trackpoint 1818</name>
            </trkpt>
            <trkpt lat="49.913376" lon="11.5822">
                <ele>370.0</ele>
                <time>2020-08-21T12:22:32.000Z</time>
                <name>Trackpoint 1819</name>
            </trkpt>
            <trkpt lat="49.9134752" lon="11.5821112">
                <ele>370.0</ele>
                <time>2020-08-21T12:22:34.000Z</time>
                <name>Trackpoint 1820</name>
            </trkpt>
            <trkpt lat="49.9135776" lon="11.5820264">
                <ele>370.0</ele>
                <time>2020-08-21T12:22:36.000Z</time>
                <name>Trackpoint 1821</name>
            </trkpt>
            <trkpt lat="49.91368" lon="11.581948">
                <ele>370.0</ele>
                <time>2020-08-21T12:22:38.000Z</time>
                <name>Trackpoint 1822</name>
            </trkpt>
            <trkpt lat="49.9137888" lon="11.5818568">
                <ele>370.0</ele>
                <time>2020-08-21T12:22:40.000Z</time>
                <name>Trackpoint 1823</name>
            </trkpt>
            <trkpt lat="49.9138912" lon="11.5817632">
                <ele>370.0</ele>
                <time>2020-08-21T12:22:42.000Z</time>
                <name>Trackpoint 1824</name>
            </trkpt>
            <trkpt lat="49.9139968" lon="11.5816672">
                <ele>370.0</ele>
                <time>2020-08-21T12:22:44.000Z</time>
                <name>Trackpoint 1825</name>
            </trkpt>
            <trkpt lat="49.9141056" lon="11.581576">
                <ele>370.0</ele>
                <time>2020-08-21T12:22:46.000Z</time>
                <name>Trackpoint 1826</name>
            </trkpt>
            <trkpt lat="49.9142048" lon="11.5814832">
                <ele>370.0</ele>
                <time>2020-08-21T12:22:48.000Z</time>
                <name>Trackpoint 1827</name>
            </trkpt>
            <trkpt lat="49.9143072" lon="11.5813936">
                <ele>370.0</ele>
                <time>2020-08-21T12:22:50.000Z</time>
                <name>Trackpoint 1828</name>
            </trkpt>
            <trkpt lat="49.9144128" lon="11.5813128">
                <ele>369.0</ele>
                <time>2020-08-21T12:22:52.000Z</time>
                <name>Trackpoint 1829</name>
            </trkpt>
            <trkpt lat="49.9145152" lon="11.5812384">
                <ele>369.0</ele>
                <time>2020-08-21T12:22:54.000Z</time>
                <name>Trackpoint 1830</name>
            </trkpt>
            <trkpt lat="49.914624" lon="11.5811504">
                <ele>369.0</ele>
                <time>2020-08-21T12:22:56.000Z</time>
                <name>Trackpoint 1831</name>
            </trkpt>
            <trkpt lat="49.9147232" lon="11.5810648">
                <ele>369.0</ele>
                <time>2020-08-21T12:22:58.000Z</time>
                <name>Trackpoint 1832</name>
            </trkpt>
            <trkpt lat="49.9148384" lon="11.5809544">
                <ele>369.0</ele>
                <time>2020-08-21T12:23:00.000Z</time>
                <name>Trackpoint 1833</name>
            </trkpt>
            <trkpt lat="49.91496" lon="11.5808512">
                <ele>369.0</ele>
                <time>2020-08-21T12:23:02.000Z</time>
                <name>Trackpoint 1834</name>
            </trkpt>
            <trkpt lat="49.915072" lon="11.5807888">
                <ele>369.0</ele>
                <time>2020-08-21T12:23:04.000Z</time>
                <name>Trackpoint 1835</name>
            </trkpt>
            <trkpt lat="49.9151968" lon="11.5806888">
                <ele>368.0</ele>
                <time>2020-08-21T12:23:06.000Z</time>
                <name>Trackpoint 1836</name>
            </trkpt>
            <trkpt lat="49.9153248" lon="11.5805976">
                <ele>368.0</ele>
                <time>2020-08-21T12:23:08.000Z</time>
                <name>Trackpoint 1837</name>
            </trkpt>
            <trkpt lat="49.915456" lon="11.5804904">
                <ele>368.0</ele>
                <time>2020-08-21T12:23:10.000Z</time>
                <name>Trackpoint 1838</name>
            </trkpt>
            <trkpt lat="49.9155488" lon="11.5803536">
                <ele>368.0</ele>
                <time>2020-08-21T12:23:12.000Z</time>
                <name>Trackpoint 1839</name>
            </trkpt>
            <trkpt lat="49.9156672" lon="11.5802584">
                <ele>368.0</ele>
                <time>2020-08-21T12:23:14.000Z</time>
                <name>Trackpoint 1840</name>
            </trkpt>
            <trkpt lat="49.9157952" lon="11.5801712">
                <ele>368.0</ele>
                <time>2020-08-21T12:23:16.000Z</time>
                <name>Trackpoint 1841</name>
            </trkpt>
            <trkpt lat="49.91592" lon="11.5800688">
                <ele>368.0</ele>
                <time>2020-08-21T12:23:18.000Z</time>
                <name>Trackpoint 1842</name>
            </trkpt>
            <trkpt lat="49.9160512" lon="11.5799616">
                <ele>368.0</ele>
                <time>2020-08-21T12:23:20.000Z</time>
                <name>Trackpoint 1843</name>
            </trkpt>
            <trkpt lat="49.9161888" lon="11.5798504">
                <ele>368.0</ele>
                <time>2020-08-21T12:23:22.000Z</time>
                <name>Trackpoint 1844</name>
            </trkpt>
            <trkpt lat="49.916256" lon="11.5797904">
                <ele>368.0</ele>
                <time>2020-08-21T12:23:23.000Z</time>
                <name>Trackpoint 1845</name>
            </trkpt>
            <trkpt lat="49.9163232" lon="11.5797232">
                <ele>368.0</ele>
                <time>2020-08-21T12:23:24.000Z</time>
                <name>Trackpoint 1846</name>
            </trkpt>
            <trkpt lat="49.9163936" lon="11.5796544">
                <ele>368.0</ele>
                <time>2020-08-21T12:23:25.000Z</time>
                <name>Trackpoint 1847</name>
            </trkpt>
            <trkpt lat="49.916528" lon="11.5795248">
                <ele>368.0</ele>
                <time>2020-08-21T12:23:27.000Z</time>
                <name>Trackpoint 1848</name>
            </trkpt>
            <trkpt lat="49.9165952" lon="11.5794552">
                <ele>368.0</ele>
                <time>2020-08-21T12:23:28.000Z</time>
                <name>Trackpoint 1849</name>
            </trkpt>
            <trkpt lat="49.9166592" lon="11.5793888">
                <ele>368.0</ele>
                <time>2020-08-21T12:23:29.000Z</time>
                <name>Trackpoint 1850</name>
            </trkpt>
            <trkpt lat="49.9167264" lon="11.5793216">
                <ele>368.0</ele>
                <time>2020-08-21T12:23:30.000Z</time>
                <name>Trackpoint 1851</name>
            </trkpt>
            <trkpt lat="49.9168544" lon="11.5792104">
                <ele>368.0</ele>
                <time>2020-08-21T12:23:32.000Z</time>
                <name>Trackpoint 1852</name>
            </trkpt>
            <trkpt lat="49.9169952" lon="11.5791432">
                <ele>368.0</ele>
                <time>2020-08-21T12:23:34.000Z</time>
                <name>Trackpoint 1853</name>
            </trkpt>
            <trkpt lat="49.917136" lon="11.5791128">
                <ele>368.0</ele>
                <time>2020-08-21T12:23:36.000Z</time>
                <name>Trackpoint 1854</name>
            </trkpt>
            <trkpt lat="49.9172768" lon="11.5790816">
                <ele>368.0</ele>
                <time>2020-08-21T12:23:38.000Z</time>
                <name>Trackpoint 1855</name>
            </trkpt>
            <trkpt lat="49.9174272" lon="11.5790552">
                <ele>367.0</ele>
                <time>2020-08-21T12:23:40.000Z</time>
                <name>Trackpoint 1856</name>
            </trkpt>
            <trkpt lat="49.9175552" lon="11.5790328">
                <ele>367.0</ele>
                <time>2020-08-21T12:23:42.000Z</time>
                <name>Trackpoint 1857</name>
            </trkpt>
            <trkpt lat="49.9176928" lon="11.5790144">
                <ele>367.0</ele>
                <time>2020-08-21T12:23:44.000Z</time>
                <name>Trackpoint 1858</name>
            </trkpt>
            <trkpt lat="49.9178112" lon="11.5789944">
                <ele>367.0</ele>
                <time>2020-08-21T12:23:46.000Z</time>
                <name>Trackpoint 1859</name>
            </trkpt>
            <trkpt lat="49.9179264" lon="11.578968">
                <ele>366.0</ele>
                <time>2020-08-21T12:23:48.000Z</time>
                <name>Trackpoint 1860</name>
            </trkpt>
            <trkpt lat="49.9180576" lon="11.5789432">
                <ele>366.0</ele>
                <time>2020-08-21T12:23:50.000Z</time>
                <name>Trackpoint 1861</name>
            </trkpt>
            <trkpt lat="49.9181888" lon="11.5789184">
                <ele>366.0</ele>
                <time>2020-08-21T12:23:52.000Z</time>
                <name>Trackpoint 1862</name>
            </trkpt>
            <trkpt lat="49.91832" lon="11.5788872">
                <ele>366.0</ele>
                <time>2020-08-21T12:23:54.000Z</time>
                <name>Trackpoint 1863</name>
            </trkpt>
            <trkpt lat="49.9184576" lon="11.5788384">
                <ele>365.0</ele>
                <time>2020-08-21T12:23:56.000Z</time>
                <name>Trackpoint 1864</name>
            </trkpt>
            <trkpt lat="49.9185952" lon="11.5787896">
                <ele>365.0</ele>
                <time>2020-08-21T12:23:58.000Z</time>
                <name>Trackpoint 1865</name>
            </trkpt>
            <trkpt lat="49.91872" lon="11.5787432">
                <ele>365.0</ele>
                <time>2020-08-21T12:24:00.000Z</time>
                <name>Trackpoint 1866</name>
            </trkpt>
            <trkpt lat="49.9188416" lon="11.5786952">
                <ele>365.0</ele>
                <time>2020-08-21T12:24:02.000Z</time>
                <name>Trackpoint 1867</name>
            </trkpt>
            <trkpt lat="49.9189728" lon="11.578624">
                <ele>364.0</ele>
                <time>2020-08-21T12:24:04.000Z</time>
                <name>Trackpoint 1868</name>
            </trkpt>
            <trkpt lat="49.919088" lon="11.5785504">
                <ele>364.0</ele>
                <time>2020-08-21T12:24:06.000Z</time>
                <name>Trackpoint 1869</name>
            </trkpt>
            <trkpt lat="49.9191904" lon="11.5784584">
                <ele>364.0</ele>
                <time>2020-08-21T12:24:08.000Z</time>
                <name>Trackpoint 1870</name>
            </trkpt>
            <trkpt lat="49.9192992" lon="11.5783464">
                <ele>364.0</ele>
                <time>2020-08-21T12:24:10.000Z</time>
                <name>Trackpoint 1871</name>
            </trkpt>
            <trkpt lat="49.9194176" lon="11.5782416">
                <ele>364.0</ele>
                <time>2020-08-21T12:24:12.000Z</time>
                <name>Trackpoint 1872</name>
            </trkpt>
            <trkpt lat="49.9195264" lon="11.5781544">
                <ele>363.0</ele>
                <time>2020-08-21T12:24:14.000Z</time>
                <name>Trackpoint 1873</name>
            </trkpt>
            <trkpt lat="49.9196288" lon="11.5780648">
                <ele>363.0</ele>
                <time>2020-08-21T12:24:16.000Z</time>
                <name>Trackpoint 1874</name>
            </trkpt>
            <trkpt lat="49.9197344" lon="11.5779696">
                <ele>363.0</ele>
                <time>2020-08-21T12:24:18.000Z</time>
                <name>Trackpoint 1875</name>
            </trkpt>
            <trkpt lat="49.9198432" lon="11.5778912">
                <ele>363.0</ele>
                <time>2020-08-21T12:24:20.000Z</time>
                <name>Trackpoint 1876</name>
            </trkpt>
            <trkpt lat="49.9199488" lon="11.5778152">
                <ele>363.0</ele>
                <time>2020-08-21T12:24:22.000Z</time>
                <name>Trackpoint 1877</name>
            </trkpt>
            <trkpt lat="49.9200544" lon="11.5777528">
                <ele>362.0</ele>
                <time>2020-08-21T12:24:24.000Z</time>
                <name>Trackpoint 1878</name>
            </trkpt>
            <trkpt lat="49.9201568" lon="11.577692">
                <ele>362.0</ele>
                <time>2020-08-21T12:24:26.000Z</time>
                <name>Trackpoint 1879</name>
            </trkpt>
            <trkpt lat="49.9202624" lon="11.5776328">
                <ele>362.0</ele>
                <time>2020-08-21T12:24:28.000Z</time>
                <name>Trackpoint 1880</name>
            </trkpt>
            <trkpt lat="49.9203552" lon="11.5775768">
                <ele>362.0</ele>
                <time>2020-08-21T12:24:30.000Z</time>
                <name>Trackpoint 1881</name>
            </trkpt>
            <trkpt lat="49.9204512" lon="11.5775296">
                <ele>362.0</ele>
                <time>2020-08-21T12:24:32.000Z</time>
                <name>Trackpoint 1882</name>
            </trkpt>
            <trkpt lat="49.9205472" lon="11.577492">
                <ele>362.0</ele>
                <time>2020-08-21T12:24:34.000Z</time>
                <name>Trackpoint 1883</name>
            </trkpt>
            <trkpt lat="49.9206496" lon="11.5774384">
                <ele>362.0</ele>
                <time>2020-08-21T12:24:36.000Z</time>
                <name>Trackpoint 1884</name>
            </trkpt>
            <trkpt lat="49.9207424" lon="11.5773848">
                <ele>362.0</ele>
                <time>2020-08-21T12:24:38.000Z</time>
                <name>Trackpoint 1885</name>
            </trkpt>
            <trkpt lat="49.9208416" lon="11.5773688">
                <ele>362.0</ele>
                <time>2020-08-21T12:24:42.000Z</time>
                <name>Trackpoint 1886</name>
            </trkpt>
            <trkpt lat="49.9209184" lon="11.5774232">
                <ele>361.0</ele>
                <time>2020-08-21T12:26:03.000Z</time>
                <name>Trackpoint 1887</name>
            </trkpt>
            <trkpt lat="49.9209504" lon="11.5775136">
                <ele>361.0</ele>
                <time>2020-08-21T12:26:07.000Z</time>
                <name>Trackpoint 1888</name>
            </trkpt>
            <trkpt lat="49.9209504" lon="11.5776056">
                <ele>361.0</ele>
                <time>2020-08-21T12:26:09.000Z</time>
                <name>Trackpoint 1889</name>
            </trkpt>
            <trkpt lat="49.9209792" lon="11.5777152">
                <ele>361.0</ele>
                <time>2020-08-21T12:26:12.000Z</time>
                <name>Trackpoint 1890</name>
            </trkpt>
            <trkpt lat="49.9210784" lon="11.5777952">
                <ele>361.0</ele>
                <time>2020-08-21T12:26:15.000Z</time>
                <name>Trackpoint 1891</name>
            </trkpt>
            <trkpt lat="49.9211584" lon="11.5778552">
                <ele>361.0</ele>
                <time>2020-08-21T12:26:17.000Z</time>
                <name>Trackpoint 1892</name>
            </trkpt>
            <trkpt lat="49.9212384" lon="11.57792">
                <ele>361.0</ele>
                <time>2020-08-21T12:26:19.000Z</time>
                <name>Trackpoint 1893</name>
            </trkpt>
            <trkpt lat="49.9213344" lon="11.5779864">
                <ele>361.0</ele>
                <time>2020-08-21T12:26:21.000Z</time>
                <name>Trackpoint 1894</name>
            </trkpt>
            <trkpt lat="49.921424" lon="11.5780536">
                <ele>361.0</ele>
                <time>2020-08-21T12:26:23.000Z</time>
                <name>Trackpoint 1895</name>
            </trkpt>
            <trkpt lat="49.9215072" lon="11.578112">
                <ele>361.0</ele>
                <time>2020-08-21T12:26:25.000Z</time>
                <name>Trackpoint 1896</name>
            </trkpt>
            <trkpt lat="49.921584" lon="11.5782016">
                <ele>360.0</ele>
                <time>2020-08-21T12:26:28.000Z</time>
                <name>Trackpoint 1897</name>
            </trkpt>
            <trkpt lat="49.9215776" lon="11.5783352">
                <ele>360.0</ele>
                <time>2020-08-21T12:26:31.000Z</time>
                <name>Trackpoint 1898</name>
            </trkpt>
            <trkpt lat="49.921536" lon="11.5784768">
                <ele>360.0</ele>
                <time>2020-08-21T12:26:33.000Z</time>
                <name>Trackpoint 1899</name>
            </trkpt>
            <trkpt lat="49.9214912" lon="11.5786104">
                <ele>360.0</ele>
                <time>2020-08-21T12:26:35.000Z</time>
                <name>Trackpoint 1900</name>
            </trkpt>
            <trkpt lat="49.9214464" lon="11.5787536">
                <ele>360.0</ele>
                <time>2020-08-21T12:26:37.000Z</time>
                <name>Trackpoint 1901</name>
            </trkpt>
            <trkpt lat="49.9214048" lon="11.5789">
                <ele>360.0</ele>
                <time>2020-08-21T12:26:39.000Z</time>
                <name>Trackpoint 1902</name>
            </trkpt>
            <trkpt lat="49.921376" lon="11.5790384">
                <ele>360.0</ele>
                <time>2020-08-21T12:26:41.000Z</time>
                <name>Trackpoint 1903</name>
            </trkpt>
            <trkpt lat="49.921344" lon="11.5791792">
                <ele>360.0</ele>
                <time>2020-08-21T12:26:43.000Z</time>
                <name>Trackpoint 1904</name>
            </trkpt>
            <trkpt lat="49.9213056" lon="11.5793184">
                <ele>360.0</ele>
                <time>2020-08-21T12:26:45.000Z</time>
                <name>Trackpoint 1905</name>
            </trkpt>
            <trkpt lat="49.9212544" lon="11.579456">
                <ele>360.0</ele>
                <time>2020-08-21T12:26:47.000Z</time>
                <name>Trackpoint 1906</name>
            </trkpt>
            <trkpt lat="49.9212128" lon="11.5795896">
                <ele>359.0</ele>
                <time>2020-08-21T12:26:49.000Z</time>
                <name>Trackpoint 1907</name>
            </trkpt>
            <trkpt lat="49.9211744" lon="11.5797216">
                <ele>359.0</ele>
                <time>2020-08-21T12:26:51.000Z</time>
                <name>Trackpoint 1908</name>
            </trkpt>
            <trkpt lat="49.9211392" lon="11.5798416">
                <ele>359.0</ele>
                <time>2020-08-21T12:26:53.000Z</time>
                <name>Trackpoint 1909</name>
            </trkpt>
            <trkpt lat="49.9211136" lon="11.5799576">
                <ele>359.0</ele>
                <time>2020-08-21T12:26:55.000Z</time>
                <name>Trackpoint 1910</name>
            </trkpt>
            <trkpt lat="49.9210944" lon="11.5800512">
                <ele>359.0</ele>
                <time>2020-08-21T12:26:57.000Z</time>
                <name>Trackpoint 1911</name>
            </trkpt>
            <trkpt lat="49.9210592" lon="11.5801624">
                <ele>359.0</ele>
                <time>2020-08-21T12:26:59.000Z</time>
                <name>Trackpoint 1912</name>
            </trkpt>
            <trkpt lat="49.9210368" lon="11.5802768">
                <ele>359.0</ele>
                <time>2020-08-21T12:27:01.000Z</time>
                <name>Trackpoint 1913</name>
            </trkpt>
            <trkpt lat="49.9210272" lon="11.5803944">
                <ele>359.0</ele>
                <time>2020-08-21T12:27:03.000Z</time>
                <name>Trackpoint 1914</name>
            </trkpt>
            <trkpt lat="49.9210176" lon="11.5805168">
                <ele>359.0</ele>
                <time>2020-08-21T12:27:05.000Z</time>
                <name>Trackpoint 1915</name>
            </trkpt>
            <trkpt lat="49.9210048" lon="11.5806368">
                <ele>359.0</ele>
                <time>2020-08-21T12:27:07.000Z</time>
                <name>Trackpoint 1916</name>
            </trkpt>
            <trkpt lat="49.921008" lon="11.5807832">
                <ele>359.0</ele>
                <time>2020-08-21T12:27:09.000Z</time>
                <name>Trackpoint 1917</name>
            </trkpt>
            <trkpt lat="49.9210176" lon="11.5809448">
                <ele>359.0</ele>
                <time>2020-08-21T12:27:11.000Z</time>
                <name>Trackpoint 1918</name>
            </trkpt>
            <trkpt lat="49.9210176" lon="11.581112">
                <ele>359.0</ele>
                <time>2020-08-21T12:27:13.000Z</time>
                <name>Trackpoint 1919</name>
            </trkpt>
            <trkpt lat="49.9210176" lon="11.5812864">
                <ele>359.0</ele>
                <time>2020-08-21T12:27:15.000Z</time>
                <name>Trackpoint 1920</name>
            </trkpt>
            <trkpt lat="49.9210208" lon="11.5814632">
                <ele>359.0</ele>
                <time>2020-08-21T12:27:17.000Z</time>
                <name>Trackpoint 1921</name>
            </trkpt>
            <trkpt lat="49.9210176" lon="11.5816408">
                <ele>359.0</ele>
                <time>2020-08-21T12:27:19.000Z</time>
                <name>Trackpoint 1922</name>
            </trkpt>
            <trkpt lat="49.921008" lon="11.5818056">
                <ele>359.0</ele>
                <time>2020-08-21T12:27:21.000Z</time>
                <name>Trackpoint 1923</name>
            </trkpt>
            <trkpt lat="49.9209984" lon="11.5819632">
                <ele>359.0</ele>
                <time>2020-08-21T12:27:23.000Z</time>
                <name>Trackpoint 1924</name>
            </trkpt>
            <trkpt lat="49.9209856" lon="11.5821168">
                <ele>358.0</ele>
                <time>2020-08-21T12:27:25.000Z</time>
                <name>Trackpoint 1925</name>
            </trkpt>
            <trkpt lat="49.9209664" lon="11.5822824">
                <ele>358.0</ele>
                <time>2020-08-21T12:27:27.000Z</time>
                <name>Trackpoint 1926</name>
            </trkpt>
            <trkpt lat="49.9209472" lon="11.5824216">
                <ele>358.0</ele>
                <time>2020-08-21T12:27:29.000Z</time>
                <name>Trackpoint 1927</name>
            </trkpt>
            <trkpt lat="49.9209376" lon="11.5825704">
                <ele>358.0</ele>
                <time>2020-08-21T12:27:31.000Z</time>
                <name>Trackpoint 1928</name>
            </trkpt>
            <trkpt lat="49.920928" lon="11.582728">
                <ele>358.0</ele>
                <time>2020-08-21T12:27:33.000Z</time>
                <name>Trackpoint 1929</name>
            </trkpt>
            <trkpt lat="49.920928" lon="11.582876">
                <ele>358.0</ele>
                <time>2020-08-21T12:27:35.000Z</time>
                <name>Trackpoint 1930</name>
            </trkpt>
            <trkpt lat="49.9209184" lon="11.5830408">
                <ele>358.0</ele>
                <time>2020-08-21T12:27:37.000Z</time>
                <name>Trackpoint 1931</name>
            </trkpt>
            <trkpt lat="49.9208992" lon="11.5832008">
                <ele>358.0</ele>
                <time>2020-08-21T12:27:39.000Z</time>
                <name>Trackpoint 1932</name>
            </trkpt>
            <trkpt lat="49.9208896" lon="11.5833704">
                <ele>357.0</ele>
                <time>2020-08-21T12:27:41.000Z</time>
                <name>Trackpoint 1933</name>
            </trkpt>
            <trkpt lat="49.9208864" lon="11.5835336">
                <ele>357.0</ele>
                <time>2020-08-21T12:27:43.000Z</time>
                <name>Trackpoint 1934</name>
            </trkpt>
            <trkpt lat="49.920864" lon="11.5837048">
                <ele>357.0</ele>
                <time>2020-08-21T12:27:45.000Z</time>
                <name>Trackpoint 1935</name>
            </trkpt>
            <trkpt lat="49.9208448" lon="11.5838672">
                <ele>356.0</ele>
                <time>2020-08-21T12:27:47.000Z</time>
                <name>Trackpoint 1936</name>
            </trkpt>
            <trkpt lat="49.9208288" lon="11.5840128">
                <ele>356.0</ele>
                <time>2020-08-21T12:27:49.000Z</time>
                <name>Trackpoint 1937</name>
            </trkpt>
            <trkpt lat="49.9208192" lon="11.5841576">
                <ele>356.0</ele>
                <time>2020-08-21T12:27:51.000Z</time>
                <name>Trackpoint 1938</name>
            </trkpt>
            <trkpt lat="49.9208032" lon="11.5843">
                <ele>355.0</ele>
                <time>2020-08-21T12:27:53.000Z</time>
                <name>Trackpoint 1939</name>
            </trkpt>
            <trkpt lat="49.920784" lon="11.5844336">
                <ele>355.0</ele>
                <time>2020-08-21T12:27:55.000Z</time>
                <name>Trackpoint 1940</name>
            </trkpt>
            <trkpt lat="49.9207712" lon="11.5845672">
                <ele>355.0</ele>
                <time>2020-08-21T12:27:57.000Z</time>
                <name>Trackpoint 1941</name>
            </trkpt>
            <trkpt lat="49.9207584" lon="11.5846968">
                <ele>355.0</ele>
                <time>2020-08-21T12:27:59.000Z</time>
                <name>Trackpoint 1942</name>
            </trkpt>
            <trkpt lat="49.9207456" lon="11.5848368">
                <ele>356.0</ele>
                <time>2020-08-21T12:28:01.000Z</time>
                <name>Trackpoint 1943</name>
            </trkpt>
            <trkpt lat="49.9207392" lon="11.5849736">
                <ele>356.0</ele>
                <time>2020-08-21T12:28:03.000Z</time>
                <name>Trackpoint 1944</name>
            </trkpt>
            <trkpt lat="49.920736" lon="11.5851088">
                <ele>356.0</ele>
                <time>2020-08-21T12:28:05.000Z</time>
                <name>Trackpoint 1945</name>
            </trkpt>
            <trkpt lat="49.9207232" lon="11.58524">
                <ele>356.0</ele>
                <time>2020-08-21T12:28:07.000Z</time>
                <name>Trackpoint 1946</name>
            </trkpt>
            <trkpt lat="49.9207104" lon="11.5853728">
                <ele>356.0</ele>
                <time>2020-08-21T12:28:09.000Z</time>
                <name>Trackpoint 1947</name>
            </trkpt>
            <trkpt lat="49.9206976" lon="11.5855048">
                <ele>356.0</ele>
                <time>2020-08-21T12:28:11.000Z</time>
                <name>Trackpoint 1948</name>
            </trkpt>
            <trkpt lat="49.9206912" lon="11.5856336">
                <ele>356.0</ele>
                <time>2020-08-21T12:28:13.000Z</time>
                <name>Trackpoint 1949</name>
            </trkpt>
            <trkpt lat="49.920688" lon="11.5857632">
                <ele>357.0</ele>
                <time>2020-08-21T12:28:15.000Z</time>
                <name>Trackpoint 1950</name>
            </trkpt>
            <trkpt lat="49.9206784" lon="11.585888">
                <ele>357.0</ele>
                <time>2020-08-21T12:28:17.000Z</time>
                <name>Trackpoint 1951</name>
            </trkpt>
            <trkpt lat="49.920672" lon="11.5860072">
                <ele>357.0</ele>
                <time>2020-08-21T12:28:19.000Z</time>
                <name>Trackpoint 1952</name>
            </trkpt>
            <trkpt lat="49.9206688" lon="11.5861256">
                <ele>357.0</ele>
                <time>2020-08-21T12:28:21.000Z</time>
                <name>Trackpoint 1953</name>
            </trkpt>
            <trkpt lat="49.9206592" lon="11.5862528">
                <ele>357.0</ele>
                <time>2020-08-21T12:28:23.000Z</time>
                <name>Trackpoint 1954</name>
            </trkpt>
            <trkpt lat="49.9206528" lon="11.5863816">
                <ele>358.0</ele>
                <time>2020-08-21T12:28:25.000Z</time>
                <name>Trackpoint 1955</name>
            </trkpt>
            <trkpt lat="49.9206464" lon="11.5865136">
                <ele>357.0</ele>
                <time>2020-08-21T12:28:27.000Z</time>
                <name>Trackpoint 1956</name>
            </trkpt>
            <trkpt lat="49.9206528" lon="11.5866384">
                <ele>357.0</ele>
                <time>2020-08-21T12:28:29.000Z</time>
                <name>Trackpoint 1957</name>
            </trkpt>
            <trkpt lat="49.9206688" lon="11.5867728">
                <ele>357.0</ele>
                <time>2020-08-21T12:28:31.000Z</time>
                <name>Trackpoint 1958</name>
            </trkpt>
            <trkpt lat="49.920688" lon="11.5869032">
                <ele>356.0</ele>
                <time>2020-08-21T12:28:33.000Z</time>
                <name>Trackpoint 1959</name>
            </trkpt>
            <trkpt lat="49.9207104" lon="11.5870336">
                <ele>357.0</ele>
                <time>2020-08-21T12:28:35.000Z</time>
                <name>Trackpoint 1960</name>
            </trkpt>
            <trkpt lat="49.9207168" lon="11.5871512">
                <ele>356.0</ele>
                <time>2020-08-21T12:28:37.000Z</time>
                <name>Trackpoint 1961</name>
            </trkpt>
            <trkpt lat="49.9207232" lon="11.5872608">
                <ele>356.0</ele>
                <time>2020-08-21T12:28:39.000Z</time>
                <name>Trackpoint 1962</name>
            </trkpt>
            <trkpt lat="49.9207392" lon="11.5873696">
                <ele>357.0</ele>
                <time>2020-08-21T12:28:41.000Z</time>
                <name>Trackpoint 1963</name>
            </trkpt>
            <trkpt lat="49.9207584" lon="11.5874792">
                <ele>356.0</ele>
                <time>2020-08-21T12:28:43.000Z</time>
                <name>Trackpoint 1964</name>
            </trkpt>
            <trkpt lat="49.9207808" lon="11.5875856">
                <ele>356.0</ele>
                <time>2020-08-21T12:28:45.000Z</time>
                <name>Trackpoint 1965</name>
            </trkpt>
            <trkpt lat="49.9208576" lon="11.5876768">
                <ele>356.0</ele>
                <time>2020-08-21T12:28:48.000Z</time>
                <name>Trackpoint 1966</name>
            </trkpt>
            <trkpt lat="49.9209248" lon="11.5877896">
                <ele>356.0</ele>
                <time>2020-08-21T12:28:51.000Z</time>
                <name>Trackpoint 1967</name>
            </trkpt>
            <trkpt lat="49.9209376" lon="11.5878896">
                <ele>356.0</ele>
                <time>2020-08-21T12:28:53.000Z</time>
                <name>Trackpoint 1968</name>
            </trkpt>
            <trkpt lat="49.9209408" lon="11.5879896">
                <ele>357.0</ele>
                <time>2020-08-21T12:28:55.000Z</time>
                <name>Trackpoint 1969</name>
            </trkpt>
            <trkpt lat="49.920928" lon="11.5880808">
                <ele>356.0</ele>
                <time>2020-08-21T12:28:57.000Z</time>
                <name>Trackpoint 1970</name>
            </trkpt>
            <trkpt lat="49.9209056" lon="11.5882232">
                <ele>357.0</ele>
                <time>2020-08-21T12:29:00.000Z</time>
                <name>Trackpoint 1971</name>
            </trkpt>
            <trkpt lat="49.9209216" lon="11.5883328">
                <ele>357.0</ele>
                <time>2020-08-21T12:29:02.000Z</time>
                <name>Trackpoint 1972</name>
            </trkpt>
            <trkpt lat="49.9209568" lon="11.58844">
                <ele>357.0</ele>
                <time>2020-08-21T12:29:04.000Z</time>
                <name>Trackpoint 1973</name>
            </trkpt>
            <trkpt lat="49.9210016" lon="11.5885664">
                <ele>357.0</ele>
                <time>2020-08-21T12:29:06.000Z</time>
                <name>Trackpoint 1974</name>
            </trkpt>
            <trkpt lat="49.92104" lon="11.5886744">
                <ele>356.0</ele>
                <time>2020-08-21T12:29:08.000Z</time>
                <name>Trackpoint 1975</name>
            </trkpt>
            <trkpt lat="49.9210816" lon="11.5887816">
                <ele>356.0</ele>
                <time>2020-08-21T12:29:10.000Z</time>
                <name>Trackpoint 1976</name>
            </trkpt>
            <trkpt lat="49.9211232" lon="11.5889">
                <ele>356.0</ele>
                <time>2020-08-21T12:29:12.000Z</time>
                <name>Trackpoint 1977</name>
            </trkpt>
            <trkpt lat="49.9211648" lon="11.589008">
                <ele>356.0</ele>
                <time>2020-08-21T12:29:14.000Z</time>
                <name>Trackpoint 1978</name>
            </trkpt>
            <trkpt lat="49.9212128" lon="11.589124">
                <ele>356.0</ele>
                <time>2020-08-21T12:29:16.000Z</time>
                <name>Trackpoint 1979</name>
            </trkpt>
            <trkpt lat="49.9212672" lon="11.5892488">
                <ele>356.0</ele>
                <time>2020-08-21T12:29:18.000Z</time>
                <name>Trackpoint 1980</name>
            </trkpt>
            <trkpt lat="49.9213376" lon="11.5893744">
                <ele>356.0</ele>
                <time>2020-08-21T12:29:20.000Z</time>
                <name>Trackpoint 1981</name>
            </trkpt>
            <trkpt lat="49.9214048" lon="11.5895096">
                <ele>356.0</ele>
                <time>2020-08-21T12:29:22.000Z</time>
                <name>Trackpoint 1982</name>
            </trkpt>
            <trkpt lat="49.9214816" lon="11.5896368">
                <ele>356.0</ele>
                <time>2020-08-21T12:29:24.000Z</time>
                <name>Trackpoint 1983</name>
            </trkpt>
            <trkpt lat="49.9215616" lon="11.5897688">
                <ele>356.0</ele>
                <time>2020-08-21T12:29:26.000Z</time>
                <name>Trackpoint 1984</name>
            </trkpt>
            <trkpt lat="49.9216448" lon="11.5898952">
                <ele>356.0</ele>
                <time>2020-08-21T12:29:28.000Z</time>
                <name>Trackpoint 1985</name>
            </trkpt>
            <trkpt lat="49.9217344" lon="11.5900112">
                <ele>356.0</ele>
                <time>2020-08-21T12:29:30.000Z</time>
                <name>Trackpoint 1986</name>
            </trkpt>
            <trkpt lat="49.9218368" lon="11.5901216">
                <ele>355.0</ele>
                <time>2020-08-21T12:29:32.000Z</time>
                <name>Trackpoint 1987</name>
            </trkpt>
            <trkpt lat="49.9219392" lon="11.590232">
                <ele>355.0</ele>
                <time>2020-08-21T12:29:34.000Z</time>
                <name>Trackpoint 1988</name>
            </trkpt>
            <trkpt lat="49.9220416" lon="11.5903416">
                <ele>355.0</ele>
                <time>2020-08-21T12:29:36.000Z</time>
                <name>Trackpoint 1989</name>
            </trkpt>
            <trkpt lat="49.9221472" lon="11.590444">
                <ele>354.0</ele>
                <time>2020-08-21T12:29:38.000Z</time>
                <name>Trackpoint 1990</name>
            </trkpt>
            <trkpt lat="49.922256" lon="11.590544">
                <ele>354.0</ele>
                <time>2020-08-21T12:29:40.000Z</time>
                <name>Trackpoint 1991</name>
            </trkpt>
            <trkpt lat="49.922368" lon="11.5906352">
                <ele>354.0</ele>
                <time>2020-08-21T12:29:42.000Z</time>
                <name>Trackpoint 1992</name>
            </trkpt>
            <trkpt lat="49.9224864" lon="11.59072">
                <ele>354.0</ele>
                <time>2020-08-21T12:29:44.000Z</time>
                <name>Trackpoint 1993</name>
            </trkpt>
            <trkpt lat="49.922608" lon="11.5907944">
                <ele>355.0</ele>
                <time>2020-08-21T12:29:46.000Z</time>
                <name>Trackpoint 1994</name>
            </trkpt>
            <trkpt lat="49.9227328" lon="11.5908672">
                <ele>355.0</ele>
                <time>2020-08-21T12:29:48.000Z</time>
                <name>Trackpoint 1995</name>
            </trkpt>
            <trkpt lat="49.9228576" lon="11.590932">
                <ele>355.0</ele>
                <time>2020-08-21T12:29:50.000Z</time>
                <name>Trackpoint 1996</name>
            </trkpt>
            <trkpt lat="49.9229856" lon="11.590988">
                <ele>355.0</ele>
                <time>2020-08-21T12:29:52.000Z</time>
                <name>Trackpoint 1997</name>
            </trkpt>
            <trkpt lat="49.9231136" lon="11.5910416">
                <ele>354.0</ele>
                <time>2020-08-21T12:29:54.000Z</time>
                <name>Trackpoint 1998</name>
            </trkpt>
            <trkpt lat="49.9232384" lon="11.5910904">
                <ele>354.0</ele>
                <time>2020-08-21T12:29:56.000Z</time>
                <name>Trackpoint 1999</name>
            </trkpt>
            <trkpt lat="49.9233536" lon="11.5911248">
                <ele>354.0</ele>
                <time>2020-08-21T12:29:58.000Z</time>
                <name>Trackpoint 2000</name>
            </trkpt>
            <trkpt lat="49.9234528" lon="11.5911512">
                <ele>354.0</ele>
                <time>2020-08-21T12:30:00.000Z</time>
                <name>Trackpoint 2001</name>
            </trkpt>
            <trkpt lat="49.9235424" lon="11.5911752">
                <ele>354.0</ele>
                <time>2020-08-21T12:30:02.000Z</time>
                <name>Trackpoint 2002</name>
            </trkpt>
            <trkpt lat="49.9236704" lon="11.5912136">
                <ele>354.0</ele>
                <time>2020-08-21T12:30:05.000Z</time>
                <name>Trackpoint 2003</name>
            </trkpt>
            <trkpt lat="49.92376" lon="11.5912416">
                <ele>354.0</ele>
                <time>2020-08-21T12:30:07.000Z</time>
                <name>Trackpoint 2004</name>
            </trkpt>
            <trkpt lat="49.9238816" lon="11.5912648">
                <ele>355.0</ele>
                <time>2020-08-21T12:30:09.000Z</time>
                <name>Trackpoint 2005</name>
            </trkpt>
            <trkpt lat="49.9239808" lon="11.5912752">
                <ele>355.0</ele>
                <time>2020-08-21T12:30:11.000Z</time>
                <name>Trackpoint 2006</name>
            </trkpt>
            <trkpt lat="49.9240736" lon="11.5912816">
                <ele>355.0</ele>
                <time>2020-08-21T12:30:13.000Z</time>
                <name>Trackpoint 2007</name>
            </trkpt>
            <trkpt lat="49.9241664" lon="11.5912888">
                <ele>355.0</ele>
                <time>2020-08-21T12:30:15.000Z</time>
                <name>Trackpoint 2008</name>
            </trkpt>
            <trkpt lat="49.9242752" lon="11.591296">
                <ele>356.0</ele>
                <time>2020-08-21T12:30:18.000Z</time>
                <name>Trackpoint 2009</name>
            </trkpt>
            <trkpt lat="49.9243936" lon="11.591316">
                <ele>356.0</ele>
                <time>2020-08-21T12:30:20.000Z</time>
                <name>Trackpoint 2010</name>
            </trkpt>
            <trkpt lat="49.9245024" lon="11.5913448">
                <ele>356.0</ele>
                <time>2020-08-21T12:30:22.000Z</time>
                <name>Trackpoint 2011</name>
            </trkpt>
            <trkpt lat="49.9246144" lon="11.5913712">
                <ele>357.0</ele>
                <time>2020-08-21T12:30:24.000Z</time>
                <name>Trackpoint 2012</name>
            </trkpt>
            <trkpt lat="49.9247328" lon="11.5914024">
                <ele>357.0</ele>
                <time>2020-08-21T12:30:26.000Z</time>
                <name>Trackpoint 2013</name>
            </trkpt>
            <trkpt lat="49.9248672" lon="11.5914496">
                <ele>358.0</ele>
                <time>2020-08-21T12:30:29.000Z</time>
                <name>Trackpoint 2014</name>
            </trkpt>
            <trkpt lat="49.9249952" lon="11.5914184">
                <ele>358.0</ele>
                <time>2020-08-21T12:30:31.000Z</time>
                <name>Trackpoint 2015</name>
            </trkpt>
            <trkpt lat="49.925152" lon="11.5914112">
                <ele>358.0</ele>
                <time>2020-08-21T12:30:33.000Z</time>
                <name>Trackpoint 2016</name>
            </trkpt>
            <trkpt lat="49.92528" lon="11.5914096">
                <ele>358.0</ele>
                <time>2020-08-21T12:30:35.000Z</time>
                <name>Trackpoint 2017</name>
            </trkpt>
            <trkpt lat="49.925408" lon="11.5914072">
                <ele>359.0</ele>
                <time>2020-08-21T12:30:37.000Z</time>
                <name>Trackpoint 2018</name>
            </trkpt>
            <trkpt lat="49.9255264" lon="11.5914048">
                <ele>359.0</ele>
                <time>2020-08-21T12:30:39.000Z</time>
                <name>Trackpoint 2019</name>
            </trkpt>
            <trkpt lat="49.9256416" lon="11.5913848">
                <ele>359.0</ele>
                <time>2020-08-21T12:30:41.000Z</time>
                <name>Trackpoint 2020</name>
            </trkpt>
            <trkpt lat="49.925744" lon="11.5913696">
                <ele>359.0</ele>
                <time>2020-08-21T12:30:43.000Z</time>
                <name>Trackpoint 2021</name>
            </trkpt>
            <trkpt lat="49.9258336" lon="11.5913784">
                <ele>359.0</ele>
                <time>2020-08-21T12:30:45.000Z</time>
                <name>Trackpoint 2022</name>
            </trkpt>
            <trkpt lat="49.9259616" lon="11.5913712">
                <ele>360.0</ele>
                <time>2020-08-21T12:30:48.000Z</time>
                <name>Trackpoint 2023</name>
            </trkpt>
            <trkpt lat="49.9260832" lon="11.5913696">
                <ele>360.0</ele>
                <time>2020-08-21T12:30:51.000Z</time>
                <name>Trackpoint 2024</name>
            </trkpt>
            <trkpt lat="49.926208" lon="11.5913448">
                <ele>360.0</ele>
                <time>2020-08-21T12:30:53.000Z</time>
                <name>Trackpoint 2025</name>
            </trkpt>
            <trkpt lat="49.9263328" lon="11.5913232">
                <ele>360.0</ele>
                <time>2020-08-21T12:30:55.000Z</time>
                <name>Trackpoint 2026</name>
            </trkpt>
            <trkpt lat="49.9264576" lon="11.5913016">
                <ele>360.0</ele>
                <time>2020-08-21T12:30:57.000Z</time>
                <name>Trackpoint 2027</name>
            </trkpt>
            <trkpt lat="49.92656" lon="11.5913096">
                <ele>360.0</ele>
                <time>2020-08-21T12:30:59.000Z</time>
                <name>Trackpoint 2028</name>
            </trkpt>
            <trkpt lat="49.9266816" lon="11.5912984">
                <ele>360.0</ele>
                <time>2020-08-21T12:31:01.000Z</time>
                <name>Trackpoint 2029</name>
            </trkpt>
            <trkpt lat="49.9268064" lon="11.5912864">
                <ele>360.0</ele>
                <time>2020-08-21T12:31:03.000Z</time>
                <name>Trackpoint 2030</name>
            </trkpt>
            <trkpt lat="49.9269216" lon="11.5912752">
                <ele>361.0</ele>
                <time>2020-08-21T12:31:05.000Z</time>
                <name>Trackpoint 2031</name>
            </trkpt>
            <trkpt lat="49.9270272" lon="11.5912816">
                <ele>361.0</ele>
                <time>2020-08-21T12:31:07.000Z</time>
                <name>Trackpoint 2032</name>
            </trkpt>
            <trkpt lat="49.9271584" lon="11.5912784">
                <ele>361.0</ele>
                <time>2020-08-21T12:31:09.000Z</time>
                <name>Trackpoint 2033</name>
            </trkpt>
            <trkpt lat="49.9272576" lon="11.5912504">
                <ele>362.0</ele>
                <time>2020-08-21T12:31:11.000Z</time>
                <name>Trackpoint 2034</name>
            </trkpt>
            <trkpt lat="49.9274304" lon="11.5911864">
                <ele>362.0</ele>
                <time>2020-08-21T12:31:14.000Z</time>
                <name>Trackpoint 2035</name>
            </trkpt>
            <trkpt lat="49.927568" lon="11.5911152">
                <ele>361.0</ele>
                <time>2020-08-21T12:31:16.000Z</time>
                <name>Trackpoint 2036</name>
            </trkpt>
            <trkpt lat="49.92768" lon="11.5910504">
                <ele>361.0</ele>
                <time>2020-08-21T12:31:18.000Z</time>
                <name>Trackpoint 2037</name>
            </trkpt>
            <trkpt lat="49.9277696" lon="11.5909704">
                <ele>361.0</ele>
                <time>2020-08-21T12:31:20.000Z</time>
                <name>Trackpoint 2038</name>
            </trkpt>
            <trkpt lat="49.9278976" lon="11.5909704">
                <ele>362.0</ele>
                <time>2020-08-21T12:31:42.000Z</time>
                <name>Trackpoint 2039</name>
            </trkpt>
            <trkpt lat="49.9280096" lon="11.5909864">
                <ele>362.0</ele>
                <time>2020-08-21T12:31:50.000Z</time>
                <name>Trackpoint 2040</name>
            </trkpt>
            <trkpt lat="49.9281184" lon="11.5909416">
                <ele>362.0</ele>
                <time>2020-08-21T12:31:53.000Z</time>
                <name>Trackpoint 2041</name>
            </trkpt>
            <trkpt lat="49.9282304" lon="11.5909072">
                <ele>362.0</ele>
                <time>2020-08-21T12:31:56.000Z</time>
                <name>Trackpoint 2042</name>
            </trkpt>
            <trkpt lat="49.9283584" lon="11.5908568">
                <ele>362.0</ele>
                <time>2020-08-21T12:31:59.000Z</time>
                <name>Trackpoint 2043</name>
            </trkpt>
            <trkpt lat="49.9284512" lon="11.590812">
                <ele>362.0</ele>
                <time>2020-08-21T12:32:01.000Z</time>
                <name>Trackpoint 2044</name>
            </trkpt>
            <trkpt lat="49.9285344" lon="11.59076">
                <ele>362.0</ele>
                <time>2020-08-21T12:32:03.000Z</time>
                <name>Trackpoint 2045</name>
            </trkpt>
            <trkpt lat="49.9286304" lon="11.590716">
                <ele>362.0</ele>
                <time>2020-08-21T12:32:05.000Z</time>
                <name>Trackpoint 2046</name>
            </trkpt>
            <trkpt lat="49.9287136" lon="11.5906632">
                <ele>362.0</ele>
                <time>2020-08-21T12:32:07.000Z</time>
                <name>Trackpoint 2047</name>
            </trkpt>
            <trkpt lat="49.9288" lon="11.5906352">
                <ele>362.0</ele>
                <time>2020-08-21T12:32:09.000Z</time>
                <name>Trackpoint 2048</name>
            </trkpt>
            <trkpt lat="49.9288992" lon="11.5906152">
                <ele>362.0</ele>
                <time>2020-08-21T12:32:11.000Z</time>
                <name>Trackpoint 2049</name>
            </trkpt>
            <trkpt lat="49.9290304" lon="11.59062">
                <ele>362.0</ele>
                <time>2020-08-21T12:32:14.000Z</time>
                <name>Trackpoint 2050</name>
            </trkpt>
            <trkpt lat="49.9291296" lon="11.5906336">
                <ele>362.0</ele>
                <time>2020-08-21T12:32:16.000Z</time>
                <name>Trackpoint 2051</name>
            </trkpt>
            <trkpt lat="49.9292576" lon="11.5906512">
                <ele>363.0</ele>
                <time>2020-08-21T12:32:19.000Z</time>
                <name>Trackpoint 2052</name>
            </trkpt>
            <trkpt lat="49.9293632" lon="11.5906488">
                <ele>363.0</ele>
                <time>2020-08-21T12:32:21.000Z</time>
                <name>Trackpoint 2053</name>
            </trkpt>
            <trkpt lat="49.9294592" lon="11.59062">
                <ele>363.0</ele>
                <time>2020-08-21T12:32:23.000Z</time>
                <name>Trackpoint 2054</name>
            </trkpt>
            <trkpt lat="49.929568" lon="11.5906248">
                <ele>363.0</ele>
                <time>2020-08-21T12:32:25.000Z</time>
                <name>Trackpoint 2055</name>
            </trkpt>
            <trkpt lat="49.9297024" lon="11.590596">
                <ele>364.0</ele>
                <time>2020-08-21T12:32:27.000Z</time>
                <name>Trackpoint 2056</name>
            </trkpt>
            <trkpt lat="49.9298464" lon="11.5905464">
                <ele>364.0</ele>
                <time>2020-08-21T12:32:29.000Z</time>
                <name>Trackpoint 2057</name>
            </trkpt>
            <trkpt lat="49.9299776" lon="11.59052">
                <ele>364.0</ele>
                <time>2020-08-21T12:32:31.000Z</time>
                <name>Trackpoint 2058</name>
            </trkpt>
            <trkpt lat="49.9301152" lon="11.590524">
                <ele>364.0</ele>
                <time>2020-08-21T12:32:33.000Z</time>
                <name>Trackpoint 2059</name>
            </trkpt>
            <trkpt lat="49.9302752" lon="11.5905136">
                <ele>365.0</ele>
                <time>2020-08-21T12:32:35.000Z</time>
                <name>Trackpoint 2060</name>
            </trkpt>
            <trkpt lat="49.9304128" lon="11.59048">
                <ele>365.0</ele>
                <time>2020-08-21T12:32:37.000Z</time>
                <name>Trackpoint 2061</name>
            </trkpt>
            <trkpt lat="49.9305216" lon="11.5904728">
                <ele>365.0</ele>
                <time>2020-08-21T12:32:39.000Z</time>
                <name>Trackpoint 2062</name>
            </trkpt>
            <trkpt lat="49.93064" lon="11.5904552">
                <ele>365.0</ele>
                <time>2020-08-21T12:32:41.000Z</time>
                <name>Trackpoint 2063</name>
            </trkpt>
            <trkpt lat="49.9307488" lon="11.590428">
                <ele>366.0</ele>
                <time>2020-08-21T12:32:43.000Z</time>
                <name>Trackpoint 2064</name>
            </trkpt>
            <trkpt lat="49.9308512" lon="11.59042">
                <ele>366.0</ele>
                <time>2020-08-21T12:32:45.000Z</time>
                <name>Trackpoint 2065</name>
            </trkpt>
            <trkpt lat="49.9309504" lon="11.5904128">
                <ele>366.0</ele>
                <time>2020-08-21T12:32:47.000Z</time>
                <name>Trackpoint 2066</name>
            </trkpt>
            <trkpt lat="49.9310592" lon="11.5903928">
                <ele>366.0</ele>
                <time>2020-08-21T12:32:49.000Z</time>
                <name>Trackpoint 2067</name>
            </trkpt>
            <trkpt lat="49.9311584" lon="11.59038">
                <ele>366.0</ele>
                <time>2020-08-21T12:32:51.000Z</time>
                <name>Trackpoint 2068</name>
            </trkpt>
            <trkpt lat="49.9312864" lon="11.5903704">
                <ele>367.0</ele>
                <time>2020-08-21T12:32:54.000Z</time>
                <name>Trackpoint 2069</name>
            </trkpt>
            <trkpt lat="49.9314112" lon="11.590368">
                <ele>367.0</ele>
                <time>2020-08-21T12:32:57.000Z</time>
                <name>Trackpoint 2070</name>
            </trkpt>
            <trkpt lat="49.9315328" lon="11.5903456">
                <ele>367.0</ele>
                <time>2020-08-21T12:33:00.000Z</time>
                <name>Trackpoint 2071</name>
            </trkpt>
            <trkpt lat="49.931648" lon="11.59032">
                <ele>367.0</ele>
                <time>2020-08-21T12:33:03.000Z</time>
                <name>Trackpoint 2072</name>
            </trkpt>
            <trkpt lat="49.9317696" lon="11.5902984">
                <ele>367.0</ele>
                <time>2020-08-21T12:33:06.000Z</time>
                <name>Trackpoint 2073</name>
            </trkpt>
            <trkpt lat="49.9318592" lon="11.5902832">
                <ele>368.0</ele>
                <time>2020-08-21T12:33:08.000Z</time>
                <name>Trackpoint 2074</name>
            </trkpt>
            <trkpt lat="49.9319392" lon="11.5902368">
                <ele>368.0</ele>
                <time>2020-08-21T12:33:10.000Z</time>
                <name>Trackpoint 2075</name>
            </trkpt>
            <trkpt lat="49.9320384" lon="11.5901568">
                <ele>368.0</ele>
                <time>2020-08-21T12:33:13.000Z</time>
                <name>Trackpoint 2076</name>
            </trkpt>
            <trkpt lat="49.9321408" lon="11.5900872">
                <ele>368.0</ele>
                <time>2020-08-21T12:33:16.000Z</time>
                <name>Trackpoint 2077</name>
            </trkpt>
            <trkpt lat="49.932224" lon="11.5900224">
                <ele>367.0</ele>
                <time>2020-08-21T12:33:18.000Z</time>
                <name>Trackpoint 2078</name>
            </trkpt>
            <trkpt lat="49.9323392" lon="11.5899312">
                <ele>367.0</ele>
                <time>2020-08-21T12:33:20.000Z</time>
                <name>Trackpoint 2079</name>
            </trkpt>
            <trkpt lat="49.9324448" lon="11.5898616">
                <ele>367.0</ele>
                <time>2020-08-21T12:33:22.000Z</time>
                <name>Trackpoint 2080</name>
            </trkpt>
            <trkpt lat="49.9325376" lon="11.5897912">
                <ele>367.0</ele>
                <time>2020-08-21T12:33:24.000Z</time>
                <name>Trackpoint 2081</name>
            </trkpt>
            <trkpt lat="49.9326144" lon="11.5897368">
                <ele>366.0</ele>
                <time>2020-08-21T12:33:26.000Z</time>
                <name>Trackpoint 2082</name>
            </trkpt>
            <trkpt lat="49.932704" lon="11.5896704">
                <ele>366.0</ele>
                <time>2020-08-21T12:33:28.000Z</time>
                <name>Trackpoint 2083</name>
            </trkpt>
            <trkpt lat="49.9328128" lon="11.589588">
                <ele>366.0</ele>
                <time>2020-08-21T12:33:30.000Z</time>
                <name>Trackpoint 2084</name>
            </trkpt>
            <trkpt lat="49.9328992" lon="11.5895256">
                <ele>365.0</ele>
                <time>2020-08-21T12:33:32.000Z</time>
                <name>Trackpoint 2085</name>
            </trkpt>
            <trkpt lat="49.932992" lon="11.5895432">
                <ele>365.0</ele>
                <time>2020-08-21T12:33:35.000Z</time>
                <name>Trackpoint 2086</name>
            </trkpt>
            <trkpt lat="49.9332704" lon="11.5892752">
                <ele>364.0</ele>
                <time>2020-08-21T12:33:46.000Z</time>
                <name>Trackpoint 2087</name>
            </trkpt>
            <trkpt lat="49.9333824" lon="11.5893088">
                <ele>364.0</ele>
                <time>2020-08-21T12:33:50.000Z</time>
                <name>Trackpoint 2088</name>
            </trkpt>
            <trkpt lat="49.9334976" lon="11.5893336">
                <ele>364.0</ele>
                <time>2020-08-21T12:33:54.000Z</time>
                <name>Trackpoint 2089</name>
            </trkpt>
            <trkpt lat="49.9336" lon="11.5893568">
                <ele>363.0</ele>
                <time>2020-08-21T12:33:57.000Z</time>
                <name>Trackpoint 2090</name>
            </trkpt>
            <trkpt lat="49.9336512" lon="11.589276">
                <ele>361.0</ele>
                <time>2020-08-21T12:34:11.000Z</time>
                <name>Trackpoint 2091</name>
            </trkpt>
            <trkpt lat="49.9336896" lon="11.58918">
                <ele>361.0</ele>
                <time>2020-08-21T12:34:14.000Z</time>
                <name>Trackpoint 2092</name>
            </trkpt>
            <trkpt lat="49.9337312" lon="11.5891">
                <ele>361.0</ele>
                <time>2020-08-21T12:34:16.000Z</time>
                <name>Trackpoint 2093</name>
            </trkpt>
            <trkpt lat="49.933792" lon="11.5889752">
                <ele>361.0</ele>
                <time>2020-08-21T12:34:19.000Z</time>
                <name>Trackpoint 2094</name>
            </trkpt>
            <trkpt lat="49.9338336" lon="11.5888928">
                <ele>361.0</ele>
                <time>2020-08-21T12:34:21.000Z</time>
                <name>Trackpoint 2095</name>
            </trkpt>
            <trkpt lat="49.933872" lon="11.5887944">
                <ele>361.0</ele>
                <time>2020-08-21T12:34:23.000Z</time>
                <name>Trackpoint 2096</name>
            </trkpt>
            <trkpt lat="49.9338848" lon="11.5887">
                <ele>361.0</ele>
                <time>2020-08-21T12:34:25.000Z</time>
                <name>Trackpoint 2097</name>
            </trkpt>
            <trkpt lat="49.9339072" lon="11.5886032">
                <ele>361.0</ele>
                <time>2020-08-21T12:34:27.000Z</time>
                <name>Trackpoint 2098</name>
            </trkpt>
            <trkpt lat="49.9339552" lon="11.5884752">
                <ele>361.0</ele>
                <time>2020-08-21T12:34:29.000Z</time>
                <name>Trackpoint 2099</name>
            </trkpt>
            <trkpt lat="49.9340128" lon="11.5883176">
                <ele>361.0</ele>
                <time>2020-08-21T12:34:31.000Z</time>
                <name>Trackpoint 2100</name>
            </trkpt>
            <trkpt lat="49.9340448" lon="11.5882216">
                <ele>361.0</ele>
                <time>2020-08-21T12:34:32.000Z</time>
                <name>Trackpoint 2101</name>
            </trkpt>
            <trkpt lat="49.9340928" lon="11.5880616">
                <ele>361.0</ele>
                <time>2020-08-21T12:34:34.000Z</time>
                <name>Trackpoint 2102</name>
            </trkpt>
            <trkpt lat="49.9341216" lon="11.5879736">
                <ele>361.0</ele>
                <time>2020-08-21T12:34:35.000Z</time>
                <name>Trackpoint 2103</name>
            </trkpt>
            <trkpt lat="49.9341504" lon="11.5878872">
                <ele>361.0</ele>
                <time>2020-08-21T12:34:36.000Z</time>
                <name>Trackpoint 2104</name>
            </trkpt>
            <trkpt lat="49.934192" lon="11.5878">
                <ele>361.0</ele>
                <time>2020-08-21T12:34:37.000Z</time>
                <name>Trackpoint 2105</name>
            </trkpt>
            <trkpt lat="49.9342272" lon="11.5877136">
                <ele>361.0</ele>
                <time>2020-08-21T12:34:38.000Z</time>
                <name>Trackpoint 2106</name>
            </trkpt>
            <trkpt lat="49.9342912" lon="11.5875416">
                <ele>361.0</ele>
                <time>2020-08-21T12:34:40.000Z</time>
                <name>Trackpoint 2107</name>
            </trkpt>
            <trkpt lat="49.93432" lon="11.587452">
                <ele>361.0</ele>
                <time>2020-08-21T12:34:41.000Z</time>
                <name>Trackpoint 2108</name>
            </trkpt>
            <trkpt lat="49.9343744" lon="11.587292">
                <ele>361.0</ele>
                <time>2020-08-21T12:34:43.000Z</time>
                <name>Trackpoint 2109</name>
            </trkpt>
            <trkpt lat="49.9344352" lon="11.5871352">
                <ele>361.0</ele>
                <time>2020-08-21T12:34:45.000Z</time>
                <name>Trackpoint 2110</name>
            </trkpt>
            <trkpt lat="49.9344928" lon="11.5869768">
                <ele>361.0</ele>
                <time>2020-08-21T12:34:47.000Z</time>
                <name>Trackpoint 2111</name>
            </trkpt>
            <trkpt lat="49.9345536" lon="11.5868152">
                <ele>361.0</ele>
                <time>2020-08-21T12:34:49.000Z</time>
                <name>Trackpoint 2112</name>
            </trkpt>
            <trkpt lat="49.9345888" lon="11.586732">
                <ele>361.0</ele>
                <time>2020-08-21T12:34:50.000Z</time>
                <name>Trackpoint 2113</name>
            </trkpt>
            <trkpt lat="49.9346176" lon="11.5866416">
                <ele>361.0</ele>
                <time>2020-08-21T12:34:51.000Z</time>
                <name>Trackpoint 2114</name>
            </trkpt>
            <trkpt lat="49.9346464" lon="11.586552">
                <ele>361.0</ele>
                <time>2020-08-21T12:34:52.000Z</time>
                <name>Trackpoint 2115</name>
            </trkpt>
            <trkpt lat="49.9347104" lon="11.5864048">
                <ele>361.0</ele>
                <time>2020-08-21T12:34:54.000Z</time>
                <name>Trackpoint 2116</name>
            </trkpt>
            <trkpt lat="49.9347616" lon="11.5862448">
                <ele>360.0</ele>
                <time>2020-08-21T12:34:56.000Z</time>
                <name>Trackpoint 2117</name>
            </trkpt>
            <trkpt lat="49.9348192" lon="11.5860864">
                <ele>360.0</ele>
                <time>2020-08-21T12:34:58.000Z</time>
                <name>Trackpoint 2118</name>
            </trkpt>
            <trkpt lat="49.934848" lon="11.5860008">
                <ele>360.0</ele>
                <time>2020-08-21T12:34:59.000Z</time>
                <name>Trackpoint 2119</name>
            </trkpt>
            <trkpt lat="49.934864" lon="11.585912">
                <ele>360.0</ele>
                <time>2020-08-21T12:35:00.000Z</time>
                <name>Trackpoint 2120</name>
            </trkpt>
            <trkpt lat="49.93488" lon="11.5857632">
                <ele>360.0</ele>
                <time>2020-08-21T12:35:02.000Z</time>
                <name>Trackpoint 2121</name>
            </trkpt>
            <trkpt lat="49.9348832" lon="11.5856064">
                <ele>360.0</ele>
                <time>2020-08-21T12:35:04.000Z</time>
                <name>Trackpoint 2122</name>
            </trkpt>
            <trkpt lat="49.9348768" lon="11.5854816">
                <ele>359.0</ele>
                <time>2020-08-21T12:35:06.000Z</time>
                <name>Trackpoint 2123</name>
            </trkpt>
            <trkpt lat="49.9348512" lon="11.5853456">
                <ele>359.0</ele>
                <time>2020-08-21T12:35:08.000Z</time>
                <name>Trackpoint 2124</name>
            </trkpt>
            <trkpt lat="49.9348384" lon="11.5852136">
                <ele>359.0</ele>
                <time>2020-08-21T12:35:10.000Z</time>
                <name>Trackpoint 2125</name>
            </trkpt>
            <trkpt lat="49.9348288" lon="11.5850984">
                <ele>359.0</ele>
                <time>2020-08-21T12:35:12.000Z</time>
                <name>Trackpoint 2126</name>
            </trkpt>
            <trkpt lat="49.9348384" lon="11.5849912">
                <ele>359.0</ele>
                <time>2020-08-21T12:35:14.000Z</time>
                <name>Trackpoint 2127</name>
            </trkpt>
            <trkpt lat="49.9348384" lon="11.5848464">
                <ele>359.0</ele>
                <time>2020-08-21T12:35:16.000Z</time>
                <name>Trackpoint 2128</name>
            </trkpt>
            <trkpt lat="49.9348288" lon="11.584708">
                <ele>359.0</ele>
                <time>2020-08-21T12:35:18.000Z</time>
                <name>Trackpoint 2129</name>
            </trkpt>
            <trkpt lat="49.934832" lon="11.5845672">
                <ele>359.0</ele>
                <time>2020-08-21T12:35:20.000Z</time>
                <name>Trackpoint 2130</name>
            </trkpt>
            <trkpt lat="49.9348576" lon="11.5844096">
                <ele>359.0</ele>
                <time>2020-08-21T12:35:22.000Z</time>
                <name>Trackpoint 2131</name>
            </trkpt>
            <trkpt lat="49.9348704" lon="11.5842536">
                <ele>359.0</ele>
                <time>2020-08-21T12:35:24.000Z</time>
                <name>Trackpoint 2132</name>
            </trkpt>
            <trkpt lat="49.9348768" lon="11.58416">
                <ele>359.0</ele>
                <time>2020-08-21T12:35:25.000Z</time>
                <name>Trackpoint 2133</name>
            </trkpt>
            <trkpt lat="49.9348832" lon="11.5840584">
                <ele>359.0</ele>
                <time>2020-08-21T12:35:26.000Z</time>
                <name>Trackpoint 2134</name>
            </trkpt>
            <trkpt lat="49.934896" lon="11.5839656">
                <ele>359.0</ele>
                <time>2020-08-21T12:35:27.000Z</time>
                <name>Trackpoint 2135</name>
            </trkpt>
            <trkpt lat="49.9349088" lon="11.5838048">
                <ele>360.0</ele>
                <time>2020-08-21T12:35:29.000Z</time>
                <name>Trackpoint 2136</name>
            </trkpt>
            <trkpt lat="49.9349152" lon="11.5837136">
                <ele>360.0</ele>
                <time>2020-08-21T12:35:30.000Z</time>
                <name>Trackpoint 2137</name>
            </trkpt>
            <trkpt lat="49.9349408" lon="11.583544">
                <ele>360.0</ele>
                <time>2020-08-21T12:35:32.000Z</time>
                <name>Trackpoint 2138</name>
            </trkpt>
            <trkpt lat="49.9349568" lon="11.5834552">
                <ele>360.0</ele>
                <time>2020-08-21T12:35:33.000Z</time>
                <name>Trackpoint 2139</name>
            </trkpt>
            <trkpt lat="49.934976" lon="11.5832832">
                <ele>360.0</ele>
                <time>2020-08-21T12:35:35.000Z</time>
                <name>Trackpoint 2140</name>
            </trkpt>
            <trkpt lat="49.9349792" lon="11.583188">
                <ele>360.0</ele>
                <time>2020-08-21T12:35:36.000Z</time>
                <name>Trackpoint 2141</name>
            </trkpt>
            <trkpt lat="49.9349984" lon="11.58302">
                <ele>360.0</ele>
                <time>2020-08-21T12:35:38.000Z</time>
                <name>Trackpoint 2142</name>
            </trkpt>
            <trkpt lat="49.9350432" lon="11.582864">
                <ele>360.0</ele>
                <time>2020-08-21T12:35:40.000Z</time>
                <name>Trackpoint 2143</name>
            </trkpt>
            <trkpt lat="49.935088" lon="11.5827648">
                <ele>360.0</ele>
                <time>2020-08-21T12:35:42.000Z</time>
                <name>Trackpoint 2144</name>
            </trkpt>
            <trkpt lat="49.9351552" lon="11.5826656">
                <ele>360.0</ele>
                <time>2020-08-21T12:35:45.000Z</time>
                <name>Trackpoint 2145</name>
            </trkpt>
            <trkpt lat="49.9352096" lon="11.5825592">
                <ele>360.0</ele>
                <time>2020-08-21T12:35:48.000Z</time>
                <name>Trackpoint 2146</name>
            </trkpt>
            <trkpt lat="49.9352544" lon="11.5824584">
                <ele>360.0</ele>
                <time>2020-08-21T12:35:50.000Z</time>
                <name>Trackpoint 2147</name>
            </trkpt>
            <trkpt lat="49.9353344" lon="11.582368">
                <ele>361.0</ele>
                <time>2020-08-21T12:35:53.000Z</time>
                <name>Trackpoint 2148</name>
            </trkpt>
            <trkpt lat="49.935424" lon="11.582388">
                <ele>361.0</ele>
                <time>2020-08-21T12:35:55.000Z</time>
                <name>Trackpoint 2149</name>
            </trkpt>
            <trkpt lat="49.9355328" lon="11.5824448">
                <ele>361.0</ele>
                <time>2020-08-21T12:35:58.000Z</time>
                <name>Trackpoint 2150</name>
            </trkpt>
            <trkpt lat="49.9356352" lon="11.5825464">
                <ele>361.0</ele>
                <time>2020-08-21T12:36:01.000Z</time>
                <name>Trackpoint 2151</name>
            </trkpt>
            <trkpt lat="49.9357536" lon="11.5825968">
                <ele>361.0</ele>
                <time>2020-08-21T12:36:03.000Z</time>
                <name>Trackpoint 2152</name>
            </trkpt>
            <trkpt lat="49.9358208" lon="11.5826568">
                <ele>361.0</ele>
                <time>2020-08-21T12:36:05.000Z</time>
                <name>Trackpoint 2153</name>
            </trkpt>
            <trkpt lat="49.9358944" lon="11.5827376">
                <ele>361.0</ele>
                <time>2020-08-21T12:36:07.000Z</time>
                <name>Trackpoint 2154</name>
            </trkpt>
            <trkpt lat="49.9359712" lon="11.5828152">
                <ele>361.0</ele>
                <time>2020-08-21T12:36:09.000Z</time>
                <name>Trackpoint 2155</name>
            </trkpt>
            <trkpt lat="49.9360416" lon="11.5828832">
                <ele>362.0</ele>
                <time>2020-08-21T12:36:11.000Z</time>
                <name>Trackpoint 2156</name>
            </trkpt>
            <trkpt lat="49.9361504" lon="11.5829496">
                <ele>362.0</ele>
                <time>2020-08-21T12:36:14.000Z</time>
                <name>Trackpoint 2157</name>
            </trkpt>
            <trkpt lat="49.9362176" lon="11.5830336">
                <ele>362.0</ele>
                <time>2020-08-21T12:36:16.000Z</time>
                <name>Trackpoint 2158</name>
            </trkpt>
            <trkpt lat="49.9363296" lon="11.583072">
                <ele>362.0</ele>
                <time>2020-08-21T12:36:18.000Z</time>
                <name>Trackpoint 2159</name>
            </trkpt>
            <trkpt lat="49.9364352" lon="11.5831168">
                <ele>362.0</ele>
                <time>2020-08-21T12:36:21.000Z</time>
                <name>Trackpoint 2160</name>
            </trkpt>
            <trkpt lat="49.9365248" lon="11.5831944">
                <ele>361.0</ele>
                <time>2020-08-21T12:36:23.000Z</time>
                <name>Trackpoint 2161</name>
            </trkpt>
            <trkpt lat="49.9366112" lon="11.5832728">
                <ele>361.0</ele>
                <time>2020-08-21T12:36:25.000Z</time>
                <name>Trackpoint 2162</name>
            </trkpt>
            <trkpt lat="49.9366912" lon="11.5833704">
                <ele>361.0</ele>
                <time>2020-08-21T12:36:27.000Z</time>
                <name>Trackpoint 2163</name>
            </trkpt>
            <trkpt lat="49.9367584" lon="11.5834776">
                <ele>361.0</ele>
                <time>2020-08-21T12:36:29.000Z</time>
                <name>Trackpoint 2164</name>
            </trkpt>
            <trkpt lat="49.9368352" lon="11.5835816">
                <ele>361.0</ele>
                <time>2020-08-21T12:36:31.000Z</time>
                <name>Trackpoint 2165</name>
            </trkpt>
            <trkpt lat="49.9369216" lon="11.5837048">
                <ele>361.0</ele>
                <time>2020-08-21T12:36:33.000Z</time>
                <name>Trackpoint 2166</name>
            </trkpt>
            <trkpt lat="49.9369888" lon="11.5838184">
                <ele>361.0</ele>
                <time>2020-08-21T12:36:35.000Z</time>
                <name>Trackpoint 2167</name>
            </trkpt>
            <trkpt lat="49.9370688" lon="11.5839552">
                <ele>361.0</ele>
                <time>2020-08-21T12:36:37.000Z</time>
                <name>Trackpoint 2168</name>
            </trkpt>
            <trkpt lat="49.9371392" lon="11.584068">
                <ele>361.0</ele>
                <time>2020-08-21T12:36:39.000Z</time>
                <name>Trackpoint 2169</name>
            </trkpt>
            <trkpt lat="49.9372128" lon="11.5841576">
                <ele>361.0</ele>
                <time>2020-08-21T12:36:41.000Z</time>
                <name>Trackpoint 2170</name>
            </trkpt>
            <trkpt lat="49.9372864" lon="11.5842616">
                <ele>361.0</ele>
                <time>2020-08-21T12:36:43.000Z</time>
                <name>Trackpoint 2171</name>
            </trkpt>
            <trkpt lat="49.9373632" lon="11.5843632">
                <ele>360.0</ele>
                <time>2020-08-21T12:36:45.000Z</time>
                <name>Trackpoint 2172</name>
            </trkpt>
            <trkpt lat="49.9374336" lon="11.5844736">
                <ele>360.0</ele>
                <time>2020-08-21T12:36:47.000Z</time>
                <name>Trackpoint 2173</name>
            </trkpt>
            <trkpt lat="49.937504" lon="11.584592">
                <ele>360.0</ele>
                <time>2020-08-21T12:36:49.000Z</time>
                <name>Trackpoint 2174</name>
            </trkpt>
            <trkpt lat="49.9375808" lon="11.5846984">
                <ele>360.0</ele>
                <time>2020-08-21T12:36:51.000Z</time>
                <name>Trackpoint 2175</name>
            </trkpt>
            <trkpt lat="49.9376512" lon="11.5848216">
                <ele>360.0</ele>
                <time>2020-08-21T12:36:53.000Z</time>
                <name>Trackpoint 2176</name>
            </trkpt>
            <trkpt lat="49.9377248" lon="11.5849152">
                <ele>360.0</ele>
                <time>2020-08-21T12:36:55.000Z</time>
                <name>Trackpoint 2177</name>
            </trkpt>
            <trkpt lat="49.9377952" lon="11.5850048">
                <ele>360.0</ele>
                <time>2020-08-21T12:36:57.000Z</time>
                <name>Trackpoint 2178</name>
            </trkpt>
            <trkpt lat="49.9378656" lon="11.5851096">
                <ele>360.0</ele>
                <time>2020-08-21T12:36:59.000Z</time>
                <name>Trackpoint 2179</name>
            </trkpt>
            <trkpt lat="49.9379296" lon="11.585192">
                <ele>360.0</ele>
                <time>2020-08-21T12:37:01.000Z</time>
                <name>Trackpoint 2180</name>
            </trkpt>
            <trkpt lat="49.9380192" lon="11.5852848">
                <ele>360.0</ele>
                <time>2020-08-21T12:37:04.000Z</time>
                <name>Trackpoint 2181</name>
            </trkpt>
            <trkpt lat="49.9381184" lon="11.5854432">
                <ele>360.0</ele>
                <time>2020-08-21T12:37:07.000Z</time>
                <name>Trackpoint 2182</name>
            </trkpt>
            <trkpt lat="49.9381856" lon="11.58554">
                <ele>360.0</ele>
                <time>2020-08-21T12:37:09.000Z</time>
                <name>Trackpoint 2183</name>
            </trkpt>
            <trkpt lat="49.93824" lon="11.5856584">
                <ele>360.0</ele>
                <time>2020-08-21T12:37:11.000Z</time>
                <name>Trackpoint 2184</name>
            </trkpt>
            <trkpt lat="49.9383008" lon="11.5857832">
                <ele>361.0</ele>
                <time>2020-08-21T12:37:13.000Z</time>
                <name>Trackpoint 2185</name>
            </trkpt>
            <trkpt lat="49.938352" lon="11.5858744">
                <ele>360.0</ele>
                <time>2020-08-21T12:37:15.000Z</time>
                <name>Trackpoint 2186</name>
            </trkpt>
            <trkpt lat="49.9384192" lon="11.5860016">
                <ele>360.0</ele>
                <time>2020-08-21T12:37:17.000Z</time>
                <name>Trackpoint 2187</name>
            </trkpt>
            <trkpt lat="49.9385056" lon="11.5861232">
                <ele>360.0</ele>
                <time>2020-08-21T12:37:19.000Z</time>
                <name>Trackpoint 2188</name>
            </trkpt>
            <trkpt lat="49.9385952" lon="11.5861784">
                <ele>360.0</ele>
                <time>2020-08-21T12:37:21.000Z</time>
                <name>Trackpoint 2189</name>
            </trkpt>
            <trkpt lat="49.9387296" lon="11.5861416">
                <ele>360.0</ele>
                <time>2020-08-21T12:37:24.000Z</time>
                <name>Trackpoint 2190</name>
            </trkpt>
            <trkpt lat="49.9387968" lon="11.5860792">
                <ele>359.0</ele>
                <time>2020-08-21T12:37:26.000Z</time>
                <name>Trackpoint 2191</name>
            </trkpt>
            <trkpt lat="49.9388608" lon="11.5860008">
                <ele>359.0</ele>
                <time>2020-08-21T12:37:28.000Z</time>
                <name>Trackpoint 2192</name>
            </trkpt>
            <trkpt lat="49.9389184" lon="11.585912">
                <ele>359.0</ele>
                <time>2020-08-21T12:37:30.000Z</time>
                <name>Trackpoint 2193</name>
            </trkpt>
            <trkpt lat="49.9389664" lon="11.5858288">
                <ele>359.0</ele>
                <time>2020-08-21T12:37:32.000Z</time>
                <name>Trackpoint 2194</name>
            </trkpt>
            <trkpt lat="49.9390304" lon="11.5857448">
                <ele>359.0</ele>
                <time>2020-08-21T12:37:34.000Z</time>
                <name>Trackpoint 2195</name>
            </trkpt>
            <trkpt lat="49.9391008" lon="11.5856448">
                <ele>359.0</ele>
                <time>2020-08-21T12:37:36.000Z</time>
                <name>Trackpoint 2196</name>
            </trkpt>
            <trkpt lat="49.9391936" lon="11.58554">
                <ele>359.0</ele>
                <time>2020-08-21T12:37:38.000Z</time>
                <name>Trackpoint 2197</name>
            </trkpt>
            <trkpt lat="49.93928" lon="11.585452">
                <ele>358.0</ele>
                <time>2020-08-21T12:37:40.000Z</time>
                <name>Trackpoint 2198</name>
            </trkpt>
            <trkpt lat="49.9393376" lon="11.5853528">
                <ele>358.0</ele>
                <time>2020-08-21T12:37:42.000Z</time>
                <name>Trackpoint 2199</name>
            </trkpt>
            <trkpt lat="49.939392" lon="11.5852696">
                <ele>358.0</ele>
                <time>2020-08-21T12:37:46.000Z</time>
                <name>Trackpoint 2200</name>
            </trkpt>
            <trkpt lat="49.9394432" lon="11.5851632">
                <ele>357.0</ele>
                <time>2020-08-21T12:37:50.000Z</time>
                <name>Trackpoint 2201</name>
            </trkpt>
            <trkpt lat="49.9394944" lon="11.5850488">
                <ele>357.0</ele>
                <time>2020-08-21T12:37:53.000Z</time>
                <name>Trackpoint 2202</name>
            </trkpt>
            <trkpt lat="49.9394912" lon="11.5849536">
                <ele>357.0</ele>
                <time>2020-08-21T12:37:55.000Z</time>
                <name>Trackpoint 2203</name>
            </trkpt>
            <trkpt lat="49.9395136" lon="11.5848416">
                <ele>357.0</ele>
                <time>2020-08-21T12:37:57.000Z</time>
                <name>Trackpoint 2204</name>
            </trkpt>
            <trkpt lat="49.9395584" lon="11.5847128">
                <ele>357.0</ele>
                <time>2020-08-21T12:37:59.000Z</time>
                <name>Trackpoint 2205</name>
            </trkpt>
            <trkpt lat="49.9396096" lon="11.5845768">
                <ele>356.0</ele>
                <time>2020-08-21T12:38:01.000Z</time>
                <name>Trackpoint 2206</name>
            </trkpt>
            <trkpt lat="49.939664" lon="11.58442">
                <ele>356.0</ele>
                <time>2020-08-21T12:38:03.000Z</time>
                <name>Trackpoint 2207</name>
            </trkpt>
            <trkpt lat="49.9397088" lon="11.58434">
                <ele>356.0</ele>
                <time>2020-08-21T12:38:04.000Z</time>
                <name>Trackpoint 2208</name>
            </trkpt>
            <trkpt lat="49.939776" lon="11.5841864">
                <ele>356.0</ele>
                <time>2020-08-21T12:38:06.000Z</time>
                <name>Trackpoint 2209</name>
            </trkpt>
            <trkpt lat="49.9398272" lon="11.5840232">
                <ele>356.0</ele>
                <time>2020-08-21T12:38:08.000Z</time>
                <name>Trackpoint 2210</name>
            </trkpt>
            <trkpt lat="49.9398624" lon="11.5839328">
                <ele>356.0</ele>
                <time>2020-08-21T12:38:09.000Z</time>
                <name>Trackpoint 2211</name>
            </trkpt>
            <trkpt lat="49.939904" lon="11.5838472">
                <ele>356.0</ele>
                <time>2020-08-21T12:38:10.000Z</time>
                <name>Trackpoint 2212</name>
            </trkpt>
            <trkpt lat="49.9399456" lon="11.58376">
                <ele>356.0</ele>
                <time>2020-08-21T12:38:11.000Z</time>
                <name>Trackpoint 2213</name>
            </trkpt>
            <trkpt lat="49.9399648" lon="11.5836632">
                <ele>356.0</ele>
                <time>2020-08-21T12:38:12.000Z</time>
                <name>Trackpoint 2214</name>
            </trkpt>
            <trkpt lat="49.9400224" lon="11.5835168">
                <ele>355.0</ele>
                <time>2020-08-21T12:38:14.000Z</time>
                <name>Trackpoint 2215</name>
            </trkpt>
            <trkpt lat="49.9400608" lon="11.5834352">
                <ele>355.0</ele>
                <time>2020-08-21T12:38:15.000Z</time>
                <name>Trackpoint 2216</name>
            </trkpt>
            <trkpt lat="49.9401184" lon="11.5832768">
                <ele>355.0</ele>
                <time>2020-08-21T12:38:17.000Z</time>
                <name>Trackpoint 2217</name>
            </trkpt>
            <trkpt lat="49.9401472" lon="11.5831896">
                <ele>355.0</ele>
                <time>2020-08-21T12:38:18.000Z</time>
                <name>Trackpoint 2218</name>
            </trkpt>
            <trkpt lat="49.9401792" lon="11.5831048">
                <ele>355.0</ele>
                <time>2020-08-21T12:38:19.000Z</time>
                <name>Trackpoint 2219</name>
            </trkpt>
            <trkpt lat="49.9402208" lon="11.5829736">
                <ele>355.0</ele>
                <time>2020-08-21T12:38:21.000Z</time>
                <name>Trackpoint 2220</name>
            </trkpt>
            <trkpt lat="49.940272" lon="11.5828712">
                <ele>355.0</ele>
                <time>2020-08-21T12:38:23.000Z</time>
                <name>Trackpoint 2221</name>
            </trkpt>
            <trkpt lat="49.9403104" lon="11.5827528">
                <ele>355.0</ele>
                <time>2020-08-21T12:38:25.000Z</time>
                <name>Trackpoint 2222</name>
            </trkpt>
            <trkpt lat="49.9403584" lon="11.5826384">
                <ele>354.0</ele>
                <time>2020-08-21T12:38:27.000Z</time>
                <name>Trackpoint 2223</name>
            </trkpt>
            <trkpt lat="49.9404" lon="11.5825584">
                <ele>354.0</ele>
                <time>2020-08-21T12:38:29.000Z</time>
                <name>Trackpoint 2224</name>
            </trkpt>
            <trkpt lat="49.9405312" lon="11.5825096">
                <ele>354.0</ele>
                <time>2020-08-21T12:38:32.000Z</time>
                <name>Trackpoint 2225</name>
            </trkpt>
            <trkpt lat="49.9406176" lon="11.5825568">
                <ele>353.0</ele>
                <time>2020-08-21T12:38:34.000Z</time>
                <name>Trackpoint 2226</name>
            </trkpt>
            <trkpt lat="49.9406848" lon="11.5826256">
                <ele>353.0</ele>
                <time>2020-08-21T12:38:37.000Z</time>
                <name>Trackpoint 2227</name>
            </trkpt>
            <trkpt lat="49.9407392" lon="11.582548">
                <ele>353.0</ele>
                <time>2020-08-21T12:39:48.000Z</time>
                <name>Trackpoint 2228</name>
            </trkpt>
            <trkpt lat="49.9407872" lon="11.5826384">
                <ele>353.0</ele>
                <time>2020-08-21T12:39:56.000Z</time>
                <name>Trackpoint 2229</name>
            </trkpt>
            <trkpt lat="49.94088" lon="11.5827104">
                <ele>353.0</ele>
                <time>2020-08-21T12:40:00.000Z</time>
                <name>Trackpoint 2230</name>
            </trkpt>
            <trkpt lat="49.9409472" lon="11.5827888">
                <ele>353.0</ele>
                <time>2020-08-21T12:40:03.000Z</time>
                <name>Trackpoint 2231</name>
            </trkpt>
            <trkpt lat="49.9410624" lon="11.5828368">
                <ele>353.0</ele>
                <time>2020-08-21T12:40:07.000Z</time>
                <name>Trackpoint 2232</name>
            </trkpt>
            <trkpt lat="49.9411584" lon="11.5829088">
                <ele>353.0</ele>
                <time>2020-08-21T12:40:10.000Z</time>
                <name>Trackpoint 2233</name>
            </trkpt>
            <trkpt lat="49.9412416" lon="11.5829432">
                <ele>353.0</ele>
                <time>2020-08-21T12:40:12.000Z</time>
                <name>Trackpoint 2234</name>
            </trkpt>
            <trkpt lat="49.9413248" lon="11.583">
                <ele>353.0</ele>
                <time>2020-08-21T12:40:15.000Z</time>
                <name>Trackpoint 2235</name>
            </trkpt>
            <trkpt lat="49.9413984" lon="11.583052">
                <ele>353.0</ele>
                <time>2020-08-21T12:40:19.000Z</time>
                <name>Trackpoint 2236</name>
            </trkpt>
            <trkpt lat="49.9414848" lon="11.5831248">
                <ele>353.0</ele>
                <time>2020-08-21T12:40:25.000Z</time>
                <name>Trackpoint 2237</name>
            </trkpt>
            <trkpt lat="49.941552" lon="11.583192">
                <ele>353.0</ele>
                <time>2020-08-21T12:40:29.000Z</time>
                <name>Trackpoint 2238</name>
            </trkpt>
            <trkpt lat="49.941648" lon="11.5831936">
                <ele>352.0</ele>
                <time>2020-08-21T12:40:36.000Z</time>
                <name>Trackpoint 2239</name>
            </trkpt>
            <trkpt lat="49.9416832" lon="11.5830696">
                <ele>352.0</ele>
                <time>2020-08-21T12:40:39.000Z</time>
                <name>Trackpoint 2240</name>
            </trkpt>
            <trkpt lat="49.9417088" lon="11.5829736">
                <ele>352.0</ele>
                <time>2020-08-21T12:40:41.000Z</time>
                <name>Trackpoint 2241</name>
            </trkpt>
            <trkpt lat="49.941728" lon="11.5828688">
                <ele>352.0</ele>
                <time>2020-08-21T12:40:43.000Z</time>
                <name>Trackpoint 2242</name>
            </trkpt>
            <trkpt lat="49.9417376" lon="11.5827552">
                <ele>352.0</ele>
                <time>2020-08-21T12:40:45.000Z</time>
                <name>Trackpoint 2243</name>
            </trkpt>
            <trkpt lat="49.941776" lon="11.5826456">
                <ele>352.0</ele>
                <time>2020-08-21T12:40:47.000Z</time>
                <name>Trackpoint 2244</name>
            </trkpt>
            <trkpt lat="49.9418112" lon="11.5825216">
                <ele>352.0</ele>
                <time>2020-08-21T12:40:49.000Z</time>
                <name>Trackpoint 2245</name>
            </trkpt>
            <trkpt lat="49.9418176" lon="11.5823944">
                <ele>352.0</ele>
                <time>2020-08-21T12:40:51.000Z</time>
                <name>Trackpoint 2246</name>
            </trkpt>
            <trkpt lat="49.9418144" lon="11.5823">
                <ele>352.0</ele>
                <time>2020-08-21T12:40:53.000Z</time>
                <name>Trackpoint 2247</name>
            </trkpt>
            <trkpt lat="49.9418464" lon="11.5821848">
                <ele>352.0</ele>
                <time>2020-08-21T12:40:55.000Z</time>
                <name>Trackpoint 2248</name>
            </trkpt>
            <trkpt lat="49.9419008" lon="11.58206">
                <ele>352.0</ele>
                <time>2020-08-21T12:40:57.000Z</time>
                <name>Trackpoint 2249</name>
            </trkpt>
            <trkpt lat="49.9419488" lon="11.5819504">
                <ele>352.0</ele>
                <time>2020-08-21T12:40:59.000Z</time>
                <name>Trackpoint 2250</name>
            </trkpt>
            <trkpt lat="49.9420064" lon="11.5818552">
                <ele>352.0</ele>
                <time>2020-08-21T12:41:01.000Z</time>
                <name>Trackpoint 2251</name>
            </trkpt>
            <trkpt lat="49.9420352" lon="11.581752">
                <ele>352.0</ele>
                <time>2020-08-21T12:41:03.000Z</time>
                <name>Trackpoint 2252</name>
            </trkpt>
            <trkpt lat="49.9420512" lon="11.5816632">
                <ele>352.0</ele>
                <time>2020-08-21T12:41:05.000Z</time>
                <name>Trackpoint 2253</name>
            </trkpt>
            <trkpt lat="49.9420928" lon="11.5815312">
                <ele>352.0</ele>
                <time>2020-08-21T12:41:08.000Z</time>
                <name>Trackpoint 2254</name>
            </trkpt>
            <trkpt lat="49.9421152" lon="11.581424">
                <ele>352.0</ele>
                <time>2020-08-21T12:41:10.000Z</time>
                <name>Trackpoint 2255</name>
            </trkpt>
            <trkpt lat="49.9421344" lon="11.5812976">
                <ele>352.0</ele>
                <time>2020-08-21T12:41:12.000Z</time>
                <name>Trackpoint 2256</name>
            </trkpt>
            <trkpt lat="49.9421728" lon="11.5811864">
                <ele>352.0</ele>
                <time>2020-08-21T12:41:14.000Z</time>
                <name>Trackpoint 2257</name>
            </trkpt>
            <trkpt lat="49.9422144" lon="11.5810632">
                <ele>352.0</ele>
                <time>2020-08-21T12:41:16.000Z</time>
                <name>Trackpoint 2258</name>
            </trkpt>
            <trkpt lat="49.9422688" lon="11.5809672">
                <ele>352.0</ele>
                <time>2020-08-21T12:41:18.000Z</time>
                <name>Trackpoint 2259</name>
            </trkpt>
            <trkpt lat="49.9423072" lon="11.580856">
                <ele>352.0</ele>
                <time>2020-08-21T12:41:20.000Z</time>
                <name>Trackpoint 2260</name>
            </trkpt>
            <trkpt lat="49.9423328" lon="11.58074">
                <ele>353.0</ele>
                <time>2020-08-21T12:41:23.000Z</time>
                <name>Trackpoint 2261</name>
            </trkpt>
            <trkpt lat="49.9423648" lon="11.5806328">
                <ele>353.0</ele>
                <time>2020-08-21T12:41:25.000Z</time>
                <name>Trackpoint 2262</name>
            </trkpt>
            <trkpt lat="49.9423904" lon="11.5805416">
                <ele>353.0</ele>
                <time>2020-08-21T12:41:27.000Z</time>
                <name>Trackpoint 2263</name>
            </trkpt>
            <trkpt lat="49.9424512" lon="11.5804568">
                <ele>353.0</ele>
                <time>2020-08-21T12:41:31.000Z</time>
                <name>Trackpoint 2264</name>
            </trkpt>
            <trkpt lat="49.9425408" lon="11.5803856">
                <ele>354.0</ele>
                <time>2020-08-21T12:41:35.000Z</time>
                <name>Trackpoint 2265</name>
            </trkpt>
            <trkpt lat="49.9426532" lon="11.5802709">
                <ele>352.0</ele>
                <time>2020-08-21T12:42:07.000Z</time>
                <name>Trackpoint 2266</name>
            </trkpt>
            <trkpt lat="49.9426912" lon="11.580044">
                <ele>351.0</ele>
                <time>2020-08-21T12:42:48.000Z</time>
                <name>Trackpoint 2268</name>
            </trkpt>
            <trkpt lat="49.9427232" lon="11.5799264">
                <ele>351.0</ele>
                <time>2020-08-21T12:42:53.000Z</time>
                <name>Trackpoint 2269</name>
            </trkpt>
            <trkpt lat="49.9427296" lon="11.5798328">
                <ele>351.0</ele>
                <time>2020-08-21T12:42:55.000Z</time>
                <name>Trackpoint 2270</name>
            </trkpt>
            <trkpt lat="49.942752" lon="11.579712">
                <ele>351.0</ele>
                <time>2020-08-21T12:42:58.000Z</time>
                <name>Trackpoint 2271</name>
            </trkpt>
            <trkpt lat="49.9427616" lon="11.57962">
                <ele>351.0</ele>
                <time>2020-08-21T12:43:00.000Z</time>
                <name>Trackpoint 2272</name>
            </trkpt>
            <trkpt lat="49.942768" lon="11.5795288">
                <ele>351.0</ele>
                <time>2020-08-21T12:43:02.000Z</time>
                <name>Trackpoint 2273</name>
            </trkpt>
            <trkpt lat="49.9428128" lon="11.5793864">
                <ele>351.0</ele>
                <time>2020-08-21T12:43:05.000Z</time>
                <name>Trackpoint 2274</name>
            </trkpt>
            <trkpt lat="49.9428352" lon="11.5792664">
                <ele>351.0</ele>
                <time>2020-08-21T12:43:08.000Z</time>
                <name>Trackpoint 2275</name>
            </trkpt>
            <trkpt lat="49.9428736" lon="11.5791664">
                <ele>351.0</ele>
                <time>2020-08-21T12:43:11.000Z</time>
                <name>Trackpoint 2276</name>
            </trkpt>
            <trkpt lat="49.9429088" lon="11.5790368">
                <ele>351.0</ele>
                <time>2020-08-21T12:43:14.000Z</time>
                <name>Trackpoint 2277</name>
            </trkpt>
            <trkpt lat="49.9429504" lon="11.5789048">
                <ele>351.0</ele>
                <time>2020-08-21T12:43:17.000Z</time>
                <name>Trackpoint 2278</name>
            </trkpt>
            <trkpt lat="49.9429856" lon="11.5788072">
                <ele>351.0</ele>
                <time>2020-08-21T12:43:19.000Z</time>
                <name>Trackpoint 2279</name>
            </trkpt>
            <trkpt lat="49.9430432" lon="11.5787112">
                <ele>351.0</ele>
                <time>2020-08-21T12:43:22.000Z</time>
                <name>Trackpoint 2280</name>
            </trkpt>
            <trkpt lat="49.9431232" lon="11.5786512">
                <ele>350.0</ele>
                <time>2020-08-21T12:43:49.000Z</time>
                <name>Trackpoint 2281</name>
            </trkpt>
            <trkpt lat="49.9431328" lon="11.5785264">
                <ele>350.0</ele>
                <time>2020-08-21T12:43:54.000Z</time>
                <name>Trackpoint 2282</name>
            </trkpt>
            <trkpt lat="49.943152" lon="11.5784152">
                <ele>350.0</ele>
                <time>2020-08-21T12:43:57.000Z</time>
                <name>Trackpoint 2283</name>
            </trkpt>
            <trkpt lat="49.9431616" lon="11.5783032">
                <ele>350.0</ele>
                <time>2020-08-21T12:44:01.000Z</time>
                <name>Trackpoint 2284</name>
            </trkpt>
            <trkpt lat="49.9432032" lon="11.5782184">
                <ele>350.0</ele>
                <time>2020-08-21T12:44:05.000Z</time>
                <name>Trackpoint 2285</name>
            </trkpt>
            <trkpt lat="49.9432672" lon="11.578132">
                <ele>350.0</ele>
                <time>2020-08-21T12:44:12.000Z</time>
                <name>Trackpoint 2286</name>
            </trkpt>
            <trkpt lat="49.9432897" lon="11.5780277">
                <ele>348.0</ele>
                <time>2020-08-21T12:52:31.000Z</time>
                <name>Trackpoint 2337</name>
            </trkpt>
            <trkpt lat="49.943344" lon="11.5779832">
                <ele>348.0</ele>
                <time>2020-08-21T12:52:58.000Z</time>
                <name>Trackpoint 2338</name>
            </trkpt>
            <trkpt lat="49.943424" lon="11.5780312">
                <ele>348.0</ele>
                <time>2020-08-21T12:53:11.000Z</time>
                <name>Trackpoint 2339</name>
            </trkpt>
            <trkpt lat="49.9435232" lon="11.578076">
                <ele>348.0</ele>
                <time>2020-08-21T12:53:18.000Z</time>
                <name>Trackpoint 2340</name>
            </trkpt>
            <trkpt lat="49.9436416" lon="11.5780496">
                <ele>348.0</ele>
                <time>2020-08-21T12:53:22.000Z</time>
                <name>Trackpoint 2341</name>
            </trkpt>
            <trkpt lat="49.9437472" lon="11.578016">
                <ele>348.0</ele>
                <time>2020-08-21T12:53:26.000Z</time>
                <name>Trackpoint 2342</name>
            </trkpt>
            <trkpt lat="49.94384" lon="11.5779952">
                <ele>348.0</ele>
                <time>2020-08-21T12:53:29.000Z</time>
                <name>Trackpoint 2343</name>
            </trkpt>
            <trkpt lat="49.9439195" lon="11.5779992">
                <ele>348.0</ele>
                <time>2020-08-21T12:53:31.000Z</time>
                <name>Trackpoint 2344</name>
            </trkpt>
            <trkpt lat="49.9440051" lon="11.5780313">
                <ele>348.0</ele>
                <time>2020-08-21T12:53:33.000Z</time>
                <name>Trackpoint 2345</name>
            </trkpt>
            <trkpt lat="49.9440925" lon="11.5780485">
                <ele>348.0</ele>
                <time>2020-08-21T12:53:36.000Z</time>
                <name>Trackpoint 2346</name>
            </trkpt>
            <trkpt lat="49.9442269" lon="11.5779741">
                <ele>348.0</ele>
                <time>2020-08-21T12:53:39.000Z</time>
                <name>Trackpoint 2347</name>
            </trkpt>
            <trkpt lat="49.9443431" lon="11.5779757">
                <ele>348.0</ele>
                <time>2020-08-21T12:53:41.000Z</time>
                <name>Trackpoint 2348</name>
            </trkpt>
            <trkpt lat="49.9444768" lon="11.5779431">
                <ele>348.0</ele>
                <time>2020-08-21T12:53:43.000Z</time>
                <name>Trackpoint 2349</name>
            </trkpt>
            <trkpt lat="49.9446679" lon="11.5780059">
                <ele>348.0</ele>
                <time>2020-08-21T12:53:46.000Z</time>
                <name>Trackpoint 2350</name>
            </trkpt>
            <trkpt lat="49.9449312" lon="11.577512">
                <ele>341.0</ele>
                <time>2020-08-21T13:02:04.000Z</time>
                <name>Trackpoint 2423</name>
            </trkpt>
            <trkpt lat="49.9449792" lon="11.5774048">
                <ele>341.0</ele>
                <time>2020-08-21T13:02:06.000Z</time>
                <name>Trackpoint 2424</name>
            </trkpt>
            <trkpt lat="49.9450176" lon="11.57732">
                <ele>341.0</ele>
                <time>2020-08-21T13:02:08.000Z</time>
                <name>Trackpoint 2425</name>
            </trkpt>
            <trkpt lat="49.9450656" lon="11.5772384">
                <ele>341.0</ele>
                <time>2020-08-21T13:02:10.000Z</time>
                <name>Trackpoint 2426</name>
            </trkpt>
            <trkpt lat="49.945088" lon="11.5771416">
                <ele>341.0</ele>
                <time>2020-08-21T13:02:12.000Z</time>
                <name>Trackpoint 2427</name>
            </trkpt>
            <trkpt lat="49.9451296" lon="11.5770384">
                <ele>341.0</ele>
                <time>2020-08-21T13:02:16.000Z</time>
                <name>Trackpoint 2428</name>
            </trkpt>
            <trkpt lat="49.9452256" lon="11.5769728">
                <ele>341.0</ele>
                <time>2020-08-21T13:02:19.000Z</time>
                <name>Trackpoint 2429</name>
            </trkpt>
            <trkpt lat="49.9453248" lon="11.577008">
                <ele>341.0</ele>
                <time>2020-08-21T13:02:22.000Z</time>
                <name>Trackpoint 2430</name>
            </trkpt>
            <trkpt lat="49.9454368" lon="11.5770656">
                <ele>341.0</ele>
                <time>2020-08-21T13:02:25.000Z</time>
                <name>Trackpoint 2431</name>
            </trkpt>
            <trkpt lat="49.9455456" lon="11.577088">
                <ele>341.0</ele>
                <time>2020-08-21T13:02:28.000Z</time>
                <name>Trackpoint 2432</name>
            </trkpt>
            <trkpt lat="49.945632" lon="11.5770616">
                <ele>341.0</ele>
                <time>2020-08-21T13:02:31.000Z</time>
                <name>Trackpoint 2433</name>
            </trkpt>
            <trkpt lat="49.9457632" lon="11.5770728">
                <ele>342.0</ele>
                <time>2020-08-21T13:02:35.000Z</time>
                <name>Trackpoint 2434</name>
            </trkpt>
            <trkpt lat="49.9458816" lon="11.5770664">
                <ele>342.0</ele>
                <time>2020-08-21T13:02:37.000Z</time>
                <name>Trackpoint 2435</name>
            </trkpt>
            <trkpt lat="49.946" lon="11.5770728">
                <ele>342.0</ele>
                <time>2020-08-21T13:02:39.000Z</time>
                <name>Trackpoint 2436</name>
            </trkpt>
            <trkpt lat="49.9461376" lon="11.577068">
                <ele>342.0</ele>
                <time>2020-08-21T13:02:41.000Z</time>
                <name>Trackpoint 2437</name>
            </trkpt>
            <trkpt lat="49.94624" lon="11.5770728">
                <ele>342.0</ele>
                <time>2020-08-21T13:02:43.000Z</time>
                <name>Trackpoint 2438</name>
            </trkpt>
            <trkpt lat="49.9463264" lon="11.5771128">
                <ele>342.0</ele>
                <time>2020-08-21T13:02:45.000Z</time>
                <name>Trackpoint 2439</name>
            </trkpt>
            <trkpt lat="49.9464384" lon="11.5772048">
                <ele>342.0</ele>
                <time>2020-08-21T13:02:47.000Z</time>
                <name>Trackpoint 2440</name>
            </trkpt>
            <trkpt lat="49.9465184" lon="11.5772912">
                <ele>342.0</ele>
                <time>2020-08-21T13:02:49.000Z</time>
                <name>Trackpoint 2441</name>
            </trkpt>
            <trkpt lat="49.9465984" lon="11.5773536">
                <ele>342.0</ele>
                <time>2020-08-21T13:02:51.000Z</time>
                <name>Trackpoint 2442</name>
            </trkpt>
            <trkpt lat="49.9466624" lon="11.57742">
                <ele>342.0</ele>
                <time>2020-08-21T13:02:53.000Z</time>
                <name>Trackpoint 2443</name>
            </trkpt>
            <trkpt lat="49.94672" lon="11.5774944">
                <ele>342.0</ele>
                <time>2020-08-21T13:02:55.000Z</time>
                <name>Trackpoint 2444</name>
            </trkpt>
            <trkpt lat="49.9468032" lon="11.5775672">
                <ele>343.0</ele>
                <time>2020-08-21T13:02:59.000Z</time>
                <name>Trackpoint 2445</name>
            </trkpt>
            <trkpt lat="49.9469216" lon="11.5775296">
                <ele>343.0</ele>
                <time>2020-08-21T13:03:08.000Z</time>
                <name>Trackpoint 2446</name>
            </trkpt>
            <trkpt lat="49.9470176" lon="11.5775416">
                <ele>343.0</ele>
                <time>2020-08-21T13:04:02.000Z</time>
                <name>Trackpoint 2447</name>
            </trkpt>
            <trkpt lat="49.9470912" lon="11.577632">
                <ele>342.0</ele>
                <time>2020-08-21T13:04:05.000Z</time>
                <name>Trackpoint 2448</name>
            </trkpt>
            <trkpt lat="49.94712" lon="11.5777216">
                <ele>342.0</ele>
                <time>2020-08-21T13:04:08.000Z</time>
                <name>Trackpoint 2449</name>
            </trkpt>
            <trkpt lat="49.9472032" lon="11.5776768">
                <ele>343.0</ele>
                <time>2020-08-21T13:05:02.000Z</time>
                <name>Trackpoint 2450</name>
            </trkpt>
            <trkpt lat="49.947248" lon="11.5775432">
                <ele>342.0</ele>
                <time>2020-08-21T13:05:05.000Z</time>
                <name>Trackpoint 2451</name>
            </trkpt>
            <trkpt lat="49.9473152" lon="11.5774184">
                <ele>342.0</ele>
                <time>2020-08-21T13:05:08.000Z</time>
                <name>Trackpoint 2452</name>
            </trkpt>
            <trkpt lat="49.9473888" lon="11.5773424">
                <ele>341.0</ele>
                <time>2020-08-21T13:05:11.000Z</time>
                <name>Trackpoint 2453</name>
            </trkpt>
            <trkpt lat="49.9474688" lon="11.5772736">
                <ele>340.0</ele>
                <time>2020-08-21T13:05:14.000Z</time>
                <name>Trackpoint 2454</name>
            </trkpt>
            <trkpt lat="49.9475104" lon="11.5771448">
                <ele>340.0</ele>
                <time>2020-08-21T13:05:17.000Z</time>
                <name>Trackpoint 2455</name>
            </trkpt>
            <trkpt lat="49.9475392" lon="11.5770432">
                <ele>339.0</ele>
                <time>2020-08-21T13:05:19.000Z</time>
                <name>Trackpoint 2456</name>
            </trkpt>
            <trkpt lat="49.947552" lon="11.576928">
                <ele>339.0</ele>
                <time>2020-08-21T13:05:21.000Z</time>
                <name>Trackpoint 2457</name>
            </trkpt>
            <trkpt lat="49.947536" lon="11.5768136">
                <ele>339.0</ele>
                <time>2020-08-21T13:05:23.000Z</time>
                <name>Trackpoint 2458</name>
            </trkpt>
            <trkpt lat="49.9475328" lon="11.5767232">
                <ele>339.0</ele>
                <time>2020-08-21T13:05:26.000Z</time>
                <name>Trackpoint 2459</name>
            </trkpt>
            <trkpt lat="49.9475744" lon="11.5766136">
                <ele>338.0</ele>
                <time>2020-08-21T13:06:04.000Z</time>
                <name>Trackpoint 2460</name>
            </trkpt>
            <trkpt lat="49.9475744" lon="11.5765112">
                <ele>338.0</ele>
                <time>2020-08-21T13:06:06.000Z</time>
                <name>Trackpoint 2461</name>
            </trkpt>
            <trkpt lat="49.9475776" lon="11.5764168">
                <ele>338.0</ele>
                <time>2020-08-21T13:06:08.000Z</time>
                <name>Trackpoint 2462</name>
            </trkpt>
            <trkpt lat="49.9475744" lon="11.5763264">
                <ele>338.0</ele>
                <time>2020-08-21T13:06:10.000Z</time>
                <name>Trackpoint 2463</name>
            </trkpt>
            <trkpt lat="49.9475488" lon="11.5762256">
                <ele>338.0</ele>
                <time>2020-08-21T13:06:12.000Z</time>
                <name>Trackpoint 2464</name>
            </trkpt>
            <trkpt lat="49.9475296" lon="11.5761184">
                <ele>338.0</ele>
                <time>2020-08-21T13:06:14.000Z</time>
                <name>Trackpoint 2465</name>
            </trkpt>
            <trkpt lat="49.9475104" lon="11.5760152">
                <ele>338.0</ele>
                <time>2020-08-21T13:06:16.000Z</time>
                <name>Trackpoint 2466</name>
            </trkpt>
            <trkpt lat="49.9475104" lon="11.5758448">
                <ele>338.0</ele>
                <time>2020-08-21T13:06:18.000Z</time>
                <name>Trackpoint 2467</name>
            </trkpt>
            <trkpt lat="49.9474976" lon="11.5757248">
                <ele>338.0</ele>
                <time>2020-08-21T13:06:20.000Z</time>
                <name>Trackpoint 2468</name>
            </trkpt>
            <trkpt lat="49.9474912" lon="11.575612">
                <ele>338.0</ele>
                <time>2020-08-21T13:06:22.000Z</time>
                <name>Trackpoint 2469</name>
            </trkpt>
            <trkpt lat="49.947488" lon="11.5754928">
                <ele>338.0</ele>
                <time>2020-08-21T13:06:24.000Z</time>
                <name>Trackpoint 2470</name>
            </trkpt>
            <trkpt lat="49.9474752" lon="11.5753768">
                <ele>338.0</ele>
                <time>2020-08-21T13:06:27.000Z</time>
                <name>Trackpoint 2471</name>
            </trkpt>
            <trkpt lat="49.9474496" lon="11.5752688">
                <ele>338.0</ele>
                <time>2020-08-21T13:06:31.000Z</time>
                <name>Trackpoint 2472</name>
            </trkpt>
            <trkpt lat="49.9475392" lon="11.5752248">
                <ele>337.0</ele>
                <time>2020-08-21T13:06:36.000Z</time>
                <name>Trackpoint 2473</name>
            </trkpt>
            <trkpt lat="49.9475328" lon="11.5750952">
                <ele>337.0</ele>
                <time>2020-08-21T13:06:43.000Z</time>
                <name>Trackpoint 2474</name>
            </trkpt>
            <trkpt lat="49.9474688" lon="11.575008">
                <ele>337.0</ele>
                <time>2020-08-21T13:06:45.000Z</time>
                <name>Trackpoint 2475</name>
            </trkpt>
            <trkpt lat="49.9473888" lon="11.57494">
                <ele>337.0</ele>
                <time>2020-08-21T13:06:47.000Z</time>
                <name>Trackpoint 2476</name>
            </trkpt>
            <trkpt lat="49.9472928" lon="11.5748584">
                <ele>337.0</ele>
                <time>2020-08-21T13:06:49.000Z</time>
                <name>Trackpoint 2477</name>
            </trkpt>
            <trkpt lat="49.9472096" lon="11.5747816">
                <ele>337.0</ele>
                <time>2020-08-21T13:06:51.000Z</time>
                <name>Trackpoint 2478</name>
            </trkpt>
            <trkpt lat="49.9471424" lon="11.5746968">
                <ele>337.0</ele>
                <time>2020-08-21T13:06:53.000Z</time>
                <name>Trackpoint 2479</name>
            </trkpt>
            <trkpt lat="49.9470784" lon="11.5745872">
                <ele>337.0</ele>
                <time>2020-08-21T13:06:55.000Z</time>
                <name>Trackpoint 2480</name>
            </trkpt>
            <trkpt lat="49.9470176" lon="11.5744584">
                <ele>337.0</ele>
                <time>2020-08-21T13:06:57.000Z</time>
                <name>Trackpoint 2481</name>
            </trkpt>
            <trkpt lat="49.9469632" lon="11.5743352">
                <ele>336.0</ele>
                <time>2020-08-21T13:06:59.000Z</time>
                <name>Trackpoint 2482</name>
            </trkpt>
            <trkpt lat="49.946912" lon="11.5742264">
                <ele>336.0</ele>
                <time>2020-08-21T13:07:01.000Z</time>
                <name>Trackpoint 2483</name>
            </trkpt>
            <trkpt lat="49.946864" lon="11.5741368">
                <ele>336.0</ele>
                <time>2020-08-21T13:07:03.000Z</time>
                <name>Trackpoint 2484</name>
            </trkpt>
            <trkpt lat="49.946816" lon="11.574048">
                <ele>337.0</ele>
                <time>2020-08-21T13:07:06.000Z</time>
                <name>Trackpoint 2485</name>
            </trkpt>
            <trkpt lat="49.9467936" lon="11.5739536">
                <ele>336.0</ele>
                <time>2020-08-21T13:07:28.000Z</time>
                <name>Trackpoint 2486</name>
            </trkpt>
            <trkpt lat="49.9467808" lon="11.5738248">
                <ele>336.0</ele>
                <time>2020-08-21T13:07:31.000Z</time>
                <name>Trackpoint 2487</name>
            </trkpt>
            <trkpt lat="49.9467584" lon="11.5737048">
                <ele>336.0</ele>
                <time>2020-08-21T13:07:34.000Z</time>
                <name>Trackpoint 2488</name>
            </trkpt>
            <trkpt lat="49.9467424" lon="11.5735904">
                <ele>336.0</ele>
                <time>2020-08-21T13:07:36.000Z</time>
                <name>Trackpoint 2489</name>
            </trkpt>
            <trkpt lat="49.9467264" lon="11.573468">
                <ele>336.0</ele>
                <time>2020-08-21T13:07:38.000Z</time>
                <name>Trackpoint 2490</name>
            </trkpt>
            <trkpt lat="49.94672" lon="11.5733408">
                <ele>335.0</ele>
                <time>2020-08-21T13:07:40.000Z</time>
                <name>Trackpoint 2491</name>
            </trkpt>
            <trkpt lat="49.94672" lon="11.5732136">
                <ele>334.0</ele>
                <time>2020-08-21T13:07:42.000Z</time>
                <name>Trackpoint 2492</name>
            </trkpt>
            <trkpt lat="49.9467264" lon="11.573076">
                <ele>334.0</ele>
                <time>2020-08-21T13:07:44.000Z</time>
                <name>Trackpoint 2493</name>
            </trkpt>
            <trkpt lat="49.946736" lon="11.5729328">
                <ele>334.0</ele>
                <time>2020-08-21T13:07:46.000Z</time>
                <name>Trackpoint 2494</name>
            </trkpt>
            <trkpt lat="49.9467456" lon="11.5727632">
                <ele>334.0</ele>
                <time>2020-08-21T13:07:48.000Z</time>
                <name>Trackpoint 2495</name>
            </trkpt>
            <trkpt lat="49.9467552" lon="11.5726184">
                <ele>334.0</ele>
                <time>2020-08-21T13:07:50.000Z</time>
                <name>Trackpoint 2496</name>
            </trkpt>
            <trkpt lat="49.9467808" lon="11.572456">
                <ele>334.0</ele>
                <time>2020-08-21T13:07:52.000Z</time>
                <name>Trackpoint 2497</name>
            </trkpt>
            <trkpt lat="49.9468032" lon="11.5723216">
                <ele>335.0</ele>
                <time>2020-08-21T13:07:54.000Z</time>
                <name>Trackpoint 2498</name>
            </trkpt>
            <trkpt lat="49.9468352" lon="11.5721976">
                <ele>336.0</ele>
                <time>2020-08-21T13:07:56.000Z</time>
                <name>Trackpoint 2499</name>
            </trkpt>
            <trkpt lat="49.9468704" lon="11.5721">
                <ele>336.0</ele>
                <time>2020-08-21T13:07:58.000Z</time>
                <name>Trackpoint 2500</name>
            </trkpt>
            <trkpt lat="49.9469312" lon="11.5719856">
                <ele>336.0</ele>
                <time>2020-08-21T13:08:00.000Z</time>
                <name>Trackpoint 2501</name>
            </trkpt>
            <trkpt lat="49.9469728" lon="11.57188">
                <ele>336.0</ele>
                <time>2020-08-21T13:08:03.000Z</time>
                <name>Trackpoint 2502</name>
            </trkpt>
            <trkpt lat="49.9469984" lon="11.5717488">
                <ele>336.0</ele>
                <time>2020-08-21T13:08:06.000Z</time>
                <name>Trackpoint 2503</name>
            </trkpt>
            <trkpt lat="49.9470048" lon="11.5716512">
                <ele>336.0</ele>
                <time>2020-08-21T13:08:08.000Z</time>
                <name>Trackpoint 2504</name>
            </trkpt>
            <trkpt lat="49.9470304" lon="11.5715336">
                <ele>337.0</ele>
                <time>2020-08-21T13:08:11.000Z</time>
                <name>Trackpoint 2505</name>
            </trkpt>
            <trkpt lat="49.9470432" lon="11.5714368">
                <ele>337.0</ele>
                <time>2020-08-21T13:08:14.000Z</time>
                <name>Trackpoint 2506</name>
            </trkpt>
            <trkpt lat="49.9470432" lon="11.57134">
                <ele>337.0</ele>
                <time>2020-08-21T13:08:17.000Z</time>
                <name>Trackpoint 2507</name>
            </trkpt>
            <trkpt lat="49.9469952" lon="11.5712536">
                <ele>337.0</ele>
                <time>2020-08-21T13:08:20.000Z</time>
                <name>Trackpoint 2508</name>
            </trkpt>
            <trkpt lat="49.9468928" lon="11.571172">
                <ele>337.0</ele>
                <time>2020-08-21T13:08:23.000Z</time>
                <name>Trackpoint 2509</name>
            </trkpt>
            <trkpt lat="49.9468224" lon="11.571112">
                <ele>337.0</ele>
                <time>2020-08-21T13:08:25.000Z</time>
                <name>Trackpoint 2510</name>
            </trkpt>
            <trkpt lat="49.9467232" lon="11.5710336">
                <ele>337.0</ele>
                <time>2020-08-21T13:08:28.000Z</time>
                <name>Trackpoint 2511</name>
            </trkpt>
            <trkpt lat="49.9466656" lon="11.5709584">
                <ele>337.0</ele>
                <time>2020-08-21T13:08:34.000Z</time>
                <name>Trackpoint 2512</name>
            </trkpt>
            <trkpt lat="49.9467328" lon="11.5708984">
                <ele>337.0</ele>
                <time>2020-08-21T13:09:10.000Z</time>
                <name>Trackpoint 2513</name>
            </trkpt>
            <trkpt lat="49.9467648" lon="11.5708088">
                <ele>337.0</ele>
                <time>2020-08-21T13:09:17.000Z</time>
                <name>Trackpoint 2514</name>
            </trkpt>
            <trkpt lat="49.9467968" lon="11.5707168">
                <ele>337.0</ele>
                <time>2020-08-21T13:09:20.000Z</time>
                <name>Trackpoint 2515</name>
            </trkpt>
            <trkpt lat="49.9468352" lon="11.5706264">
                <ele>337.0</ele>
                <time>2020-08-21T13:09:22.000Z</time>
                <name>Trackpoint 2516</name>
            </trkpt>
            <trkpt lat="49.946864" lon="11.5705208">
                <ele>337.0</ele>
                <time>2020-08-21T13:09:24.000Z</time>
                <name>Trackpoint 2517</name>
            </trkpt>
            <trkpt lat="49.946864" lon="11.5703872">
                <ele>337.0</ele>
                <time>2020-08-21T13:09:27.000Z</time>
                <name>Trackpoint 2518</name>
            </trkpt>
            <trkpt lat="49.9468768" lon="11.5702752">
                <ele>337.0</ele>
                <time>2020-08-21T13:09:30.000Z</time>
                <name>Trackpoint 2519</name>
            </trkpt>
            <trkpt lat="49.9469376" lon="11.5701768">
                <ele>337.0</ele>
                <time>2020-08-21T13:09:32.000Z</time>
                <name>Trackpoint 2520</name>
            </trkpt>
            <trkpt lat="49.9469952" lon="11.5700464">
                <ele>337.0</ele>
                <time>2020-08-21T13:09:34.000Z</time>
                <name>Trackpoint 2521</name>
            </trkpt>
            <trkpt lat="49.9470624" lon="11.5699352">
                <ele>337.0</ele>
                <time>2020-08-21T13:09:36.000Z</time>
                <name>Trackpoint 2522</name>
            </trkpt>
            <trkpt lat="49.9471168" lon="11.5698544">
                <ele>337.0</ele>
                <time>2020-08-21T13:09:38.000Z</time>
                <name>Trackpoint 2523</name>
            </trkpt>
            <trkpt lat="49.9471488" lon="11.5697368">
                <ele>337.0</ele>
                <time>2020-08-21T13:09:40.000Z</time>
                <name>Trackpoint 2524</name>
            </trkpt>
            <trkpt lat="49.9471424" lon="11.5696248">
                <ele>337.0</ele>
                <time>2020-08-21T13:09:42.000Z</time>
                <name>Trackpoint 2525</name>
            </trkpt>
            <trkpt lat="49.9471584" lon="11.5695336">
                <ele>337.0</ele>
                <time>2020-08-21T13:09:44.000Z</time>
                <name>Trackpoint 2526</name>
            </trkpt>
            <trkpt lat="49.9472192" lon="11.5694128">
                <ele>338.0</ele>
                <time>2020-08-21T13:09:47.000Z</time>
                <name>Trackpoint 2527</name>
            </trkpt>
            <trkpt lat="49.9472736" lon="11.5693264">
                <ele>338.0</ele>
                <time>2020-08-21T13:09:49.000Z</time>
                <name>Trackpoint 2528</name>
            </trkpt>
            <trkpt lat="49.9473344" lon="11.5692528">
                <ele>338.0</ele>
                <time>2020-08-21T13:09:51.000Z</time>
                <name>Trackpoint 2529</name>
            </trkpt>
            <trkpt lat="49.947392" lon="11.569172">
                <ele>338.0</ele>
                <time>2020-08-21T13:09:55.000Z</time>
                <name>Trackpoint 2530</name>
            </trkpt>
            <trkpt lat="49.947456" lon="11.5690736">
                <ele>338.0</ele>
                <time>2020-08-21T13:09:59.000Z</time>
                <name>Trackpoint 2531</name>
            </trkpt>
            <trkpt lat="49.9475168" lon="11.5689952">
                <ele>338.0</ele>
                <time>2020-08-21T13:10:02.000Z</time>
                <name>Trackpoint 2532</name>
            </trkpt>
            <trkpt lat="49.947552" lon="11.5688952">
                <ele>338.0</ele>
                <time>2020-08-21T13:10:06.000Z</time>
                <name>Trackpoint 2533</name>
            </trkpt>
            <trkpt lat="49.9476128" lon="11.5686752">
                <ele>337.0</ele>
                <time>2020-08-21T13:10:10.000Z</time>
                <name>Trackpoint 2534</name>
            </trkpt>
            <trkpt lat="49.94768" lon="11.5685928">
                <ele>337.0</ele>
                <time>2020-08-21T13:10:13.000Z</time>
                <name>Trackpoint 2535</name>
            </trkpt>
            <trkpt lat="49.9477248" lon="11.5685104">
                <ele>337.0</ele>
                <time>2020-08-21T13:10:15.000Z</time>
                <name>Trackpoint 2536</name>
            </trkpt>
            <trkpt lat="49.9477952" lon="11.5684">
                <ele>337.0</ele>
                <time>2020-08-21T13:10:17.000Z</time>
                <name>Trackpoint 2537</name>
            </trkpt>
            <trkpt lat="49.9478368" lon="11.5683">
                <ele>337.0</ele>
                <time>2020-08-21T13:10:19.000Z</time>
                <name>Trackpoint 2538</name>
            </trkpt>
            <trkpt lat="49.9478848" lon="11.5682088">
                <ele>337.0</ele>
                <time>2020-08-21T13:10:21.000Z</time>
                <name>Trackpoint 2539</name>
            </trkpt>
            <trkpt lat="49.9479456" lon="11.5680904">
                <ele>337.0</ele>
                <time>2020-08-21T13:10:23.000Z</time>
                <name>Trackpoint 2540</name>
            </trkpt>
            <trkpt lat="49.9479904" lon="11.5679904">
                <ele>337.0</ele>
                <time>2020-08-21T13:10:25.000Z</time>
                <name>Trackpoint 2541</name>
            </trkpt>
            <trkpt lat="49.9480512" lon="11.5678568">
                <ele>336.0</ele>
                <time>2020-08-21T13:10:27.000Z</time>
                <name>Trackpoint 2542</name>
            </trkpt>
            <trkpt lat="49.9481248" lon="11.5677216">
                <ele>336.0</ele>
                <time>2020-08-21T13:10:29.000Z</time>
                <name>Trackpoint 2543</name>
            </trkpt>
            <trkpt lat="49.9481856" lon="11.5676096">
                <ele>336.0</ele>
                <time>2020-08-21T13:10:31.000Z</time>
                <name>Trackpoint 2544</name>
            </trkpt>
            <trkpt lat="49.9482336" lon="11.567496">
                <ele>336.0</ele>
                <time>2020-08-21T13:10:33.000Z</time>
                <name>Trackpoint 2545</name>
            </trkpt>
            <trkpt lat="49.948288" lon="11.567384">
                <ele>336.0</ele>
                <time>2020-08-21T13:10:35.000Z</time>
                <name>Trackpoint 2546</name>
            </trkpt>
            <trkpt lat="49.9483424" lon="11.5672848">
                <ele>336.0</ele>
                <time>2020-08-21T13:10:37.000Z</time>
                <name>Trackpoint 2547</name>
            </trkpt>
            <trkpt lat="49.9483872" lon="11.5671968">
                <ele>336.0</ele>
                <time>2020-08-21T13:10:39.000Z</time>
                <name>Trackpoint 2548</name>
            </trkpt>
            <trkpt lat="49.9484352" lon="11.5670984">
                <ele>336.0</ele>
                <time>2020-08-21T13:10:41.000Z</time>
                <name>Trackpoint 2549</name>
            </trkpt>
            <trkpt lat="49.9484736" lon="11.5669848">
                <ele>336.0</ele>
                <time>2020-08-21T13:10:44.000Z</time>
                <name>Trackpoint 2550</name>
            </trkpt>
            <trkpt lat="49.9484736" lon="11.5668496">
                <ele>336.0</ele>
                <time>2020-08-21T13:10:47.000Z</time>
                <name>Trackpoint 2551</name>
            </trkpt>
            <trkpt lat="49.9484928" lon="11.5667464">
                <ele>336.0</ele>
                <time>2020-08-21T13:10:49.000Z</time>
                <name>Trackpoint 2552</name>
            </trkpt>
            <trkpt lat="49.948544" lon="11.5666112">
                <ele>336.0</ele>
                <time>2020-08-21T13:10:51.000Z</time>
                <name>Trackpoint 2553</name>
            </trkpt>
            <trkpt lat="49.9486016" lon="11.5664904">
                <ele>336.0</ele>
                <time>2020-08-21T13:10:53.000Z</time>
                <name>Trackpoint 2554</name>
            </trkpt>
            <trkpt lat="49.9486592" lon="11.5663904">
                <ele>337.0</ele>
                <time>2020-08-21T13:10:55.000Z</time>
                <name>Trackpoint 2555</name>
            </trkpt>
            <trkpt lat="49.9487072" lon="11.5662616">
                <ele>337.0</ele>
                <time>2020-08-21T13:10:57.000Z</time>
                <name>Trackpoint 2556</name>
            </trkpt>
            <trkpt lat="49.9487712" lon="11.5661232">
                <ele>337.0</ele>
                <time>2020-08-21T13:10:59.000Z</time>
                <name>Trackpoint 2557</name>
            </trkpt>
            <trkpt lat="49.9488416" lon="11.5659912">
                <ele>337.0</ele>
                <time>2020-08-21T13:11:01.000Z</time>
                <name>Trackpoint 2558</name>
            </trkpt>
            <trkpt lat="49.9489248" lon="11.5658528">
                <ele>337.0</ele>
                <time>2020-08-21T13:11:03.000Z</time>
                <name>Trackpoint 2559</name>
            </trkpt>
            <trkpt lat="49.9489984" lon="11.5657216">
                <ele>338.0</ele>
                <time>2020-08-21T13:11:05.000Z</time>
                <name>Trackpoint 2560</name>
            </trkpt>
            <trkpt lat="49.94904" lon="11.5656208">
                <ele>338.0</ele>
                <time>2020-08-21T13:11:07.000Z</time>
                <name>Trackpoint 2561</name>
            </trkpt>
            <trkpt lat="49.9491008" lon="11.5654768">
                <ele>338.0</ele>
                <time>2020-08-21T13:11:09.000Z</time>
                <name>Trackpoint 2562</name>
            </trkpt>
            <trkpt lat="49.9492" lon="11.56532">
                <ele>338.0</ele>
                <time>2020-08-21T13:11:11.000Z</time>
                <name>Trackpoint 2563</name>
            </trkpt>
            <trkpt lat="49.9492544" lon="11.5652264">
                <ele>339.0</ele>
                <time>2020-08-21T13:11:12.000Z</time>
                <name>Trackpoint 2564</name>
            </trkpt>
            <trkpt lat="49.949296" lon="11.5651368">
                <ele>339.0</ele>
                <time>2020-08-21T13:11:13.000Z</time>
                <name>Trackpoint 2565</name>
            </trkpt>
            <trkpt lat="49.9493632" lon="11.565008">
                <ele>339.0</ele>
                <time>2020-08-21T13:11:15.000Z</time>
                <name>Trackpoint 2566</name>
            </trkpt>
            <trkpt lat="49.9494272" lon="11.5648872">
                <ele>339.0</ele>
                <time>2020-08-21T13:11:17.000Z</time>
                <name>Trackpoint 2567</name>
            </trkpt>
            <trkpt lat="49.949488" lon="11.5647696">
                <ele>340.0</ele>
                <time>2020-08-21T13:11:19.000Z</time>
                <name>Trackpoint 2568</name>
            </trkpt>
            <trkpt lat="49.9495648" lon="11.5646264">
                <ele>340.0</ele>
                <time>2020-08-21T13:11:21.000Z</time>
                <name>Trackpoint 2569</name>
            </trkpt>
            <trkpt lat="49.9496384" lon="11.5645048">
                <ele>341.0</ele>
                <time>2020-08-21T13:11:23.000Z</time>
                <name>Trackpoint 2570</name>
            </trkpt>
            <trkpt lat="49.9496928" lon="11.5644256">
                <ele>341.0</ele>
                <time>2020-08-21T13:11:25.000Z</time>
                <name>Trackpoint 2571</name>
            </trkpt>
            <trkpt lat="49.94976" lon="11.5643264">
                <ele>342.0</ele>
                <time>2020-08-21T13:11:27.000Z</time>
                <name>Trackpoint 2572</name>
            </trkpt>
            <trkpt lat="49.9498368" lon="11.5642096">
                <ele>342.0</ele>
                <time>2020-08-21T13:11:29.000Z</time>
                <name>Trackpoint 2573</name>
            </trkpt>
            <trkpt lat="49.9499104" lon="11.5641136">
                <ele>343.0</ele>
                <time>2020-08-21T13:11:31.000Z</time>
                <name>Trackpoint 2574</name>
            </trkpt>
            <trkpt lat="49.9499808" lon="11.5639952">
                <ele>344.0</ele>
                <time>2020-08-21T13:11:33.000Z</time>
                <name>Trackpoint 2575</name>
            </trkpt>
            <trkpt lat="49.9500608" lon="11.5638816">
                <ele>344.0</ele>
                <time>2020-08-21T13:11:35.000Z</time>
                <name>Trackpoint 2576</name>
            </trkpt>
            <trkpt lat="49.9501536" lon="11.5637952">
                <ele>345.0</ele>
                <time>2020-08-21T13:11:37.000Z</time>
                <name>Trackpoint 2577</name>
            </trkpt>
            <trkpt lat="49.9502368" lon="11.5636952">
                <ele>346.0</ele>
                <time>2020-08-21T13:11:39.000Z</time>
                <name>Trackpoint 2578</name>
            </trkpt>
            <trkpt lat="49.9503136" lon="11.5635856">
                <ele>346.0</ele>
                <time>2020-08-21T13:11:41.000Z</time>
                <name>Trackpoint 2579</name>
            </trkpt>
            <trkpt lat="49.9503904" lon="11.5635048">
                <ele>346.0</ele>
                <time>2020-08-21T13:11:43.000Z</time>
                <name>Trackpoint 2580</name>
            </trkpt>
            <trkpt lat="49.9504768" lon="11.5634216">
                <ele>347.0</ele>
                <time>2020-08-21T13:11:45.000Z</time>
                <name>Trackpoint 2581</name>
            </trkpt>
            <trkpt lat="49.9505888" lon="11.5633472">
                <ele>347.0</ele>
                <time>2020-08-21T13:11:47.000Z</time>
                <name>Trackpoint 2582</name>
            </trkpt>
            <trkpt lat="49.9506848" lon="11.5632888">
                <ele>347.0</ele>
                <time>2020-08-21T13:11:49.000Z</time>
                <name>Trackpoint 2583</name>
            </trkpt>
            <trkpt lat="49.9507872" lon="11.5632496">
                <ele>347.0</ele>
                <time>2020-08-21T13:11:51.000Z</time>
                <name>Trackpoint 2584</name>
            </trkpt>
            <trkpt lat="49.9508832" lon="11.5631848">
                <ele>348.0</ele>
                <time>2020-08-21T13:11:54.000Z</time>
                <name>Trackpoint 2585</name>
            </trkpt>
            <trkpt lat="49.9509376" lon="11.5630552">
                <ele>348.0</ele>
                <time>2020-08-21T13:11:57.000Z</time>
                <name>Trackpoint 2586</name>
            </trkpt>
            <trkpt lat="49.950992" lon="11.5628992">
                <ele>348.0</ele>
                <time>2020-08-21T13:11:59.000Z</time>
                <name>Trackpoint 2587</name>
            </trkpt>
            <trkpt lat="49.9510432" lon="11.562728">
                <ele>348.0</ele>
                <time>2020-08-21T13:12:02.000Z</time>
                <name>Trackpoint 2588</name>
            </trkpt>
            <trkpt lat="49.9511008" lon="11.5626048">
                <ele>349.0</ele>
                <time>2020-08-21T13:12:04.000Z</time>
                <name>Trackpoint 2589</name>
            </trkpt>
            <trkpt lat="49.9511616" lon="11.5624464">
                <ele>349.0</ele>
                <time>2020-08-21T13:12:06.000Z</time>
                <name>Trackpoint 2590</name>
            </trkpt>
            <trkpt lat="49.9512064" lon="11.5623328">
                <ele>349.0</ele>
                <time>2020-08-21T13:12:07.000Z</time>
                <name>Trackpoint 2591</name>
            </trkpt>
            <trkpt lat="49.9512608" lon="11.5622264">
                <ele>349.0</ele>
                <time>2020-08-21T13:12:08.000Z</time>
                <name>Trackpoint 2592</name>
            </trkpt>
            <trkpt lat="49.9513248" lon="11.5621232">
                <ele>349.0</ele>
                <time>2020-08-21T13:12:09.000Z</time>
                <name>Trackpoint 2593</name>
            </trkpt>
            <trkpt lat="49.9513824" lon="11.5620448">
                <ele>349.0</ele>
                <time>2020-08-21T13:12:10.000Z</time>
                <name>Trackpoint 2594</name>
            </trkpt>
            <trkpt lat="49.951488" lon="11.5619424">
                <ele>348.0</ele>
                <time>2020-08-21T13:12:12.000Z</time>
                <name>Trackpoint 2595</name>
            </trkpt>
            <trkpt lat="49.9515808" lon="11.5618512">
                <ele>348.0</ele>
                <time>2020-08-21T13:12:14.000Z</time>
                <name>Trackpoint 2596</name>
            </trkpt>
            <trkpt lat="49.95168" lon="11.5617568">
                <ele>347.0</ele>
                <time>2020-08-21T13:12:16.000Z</time>
                <name>Trackpoint 2597</name>
            </trkpt>
            <trkpt lat="49.95176" lon="11.5616952">
                <ele>347.0</ele>
                <time>2020-08-21T13:12:18.000Z</time>
                <name>Trackpoint 2598</name>
            </trkpt>
            <trkpt lat="49.9518624" lon="11.5616304">
                <ele>347.0</ele>
                <time>2020-08-21T13:12:20.000Z</time>
                <name>Trackpoint 2599</name>
            </trkpt>
            <trkpt lat="49.9519552" lon="11.5615584">
                <ele>346.0</ele>
                <time>2020-08-21T13:12:22.000Z</time>
                <name>Trackpoint 2600</name>
            </trkpt>
            <trkpt lat="49.9520288" lon="11.561488">
                <ele>346.0</ele>
                <time>2020-08-21T13:12:24.000Z</time>
                <name>Trackpoint 2601</name>
            </trkpt>
            <trkpt lat="49.9521184" lon="11.5614416">
                <ele>346.0</ele>
                <time>2020-08-21T13:12:27.000Z</time>
                <name>Trackpoint 2602</name>
            </trkpt>
            <trkpt lat="49.9522144" lon="11.5614232">
                <ele>346.0</ele>
                <time>2020-08-21T13:12:32.000Z</time>
                <name>Trackpoint 2603</name>
            </trkpt>
            <trkpt lat="49.9523072" lon="11.5613936">
                <ele>345.0</ele>
                <time>2020-08-21T13:12:47.000Z</time>
                <name>Trackpoint 2604</name>
            </trkpt>
            <trkpt lat="49.9523712" lon="11.5613184">
                <ele>345.0</ele>
                <time>2020-08-21T13:12:53.000Z</time>
                <name>Trackpoint 2605</name>
            </trkpt>
            <trkpt lat="49.952416" lon="11.5612296">
                <ele>345.0</ele>
                <time>2020-08-21T13:12:57.000Z</time>
                <name>Trackpoint 2606</name>
            </trkpt>
            <trkpt lat="49.9525024" lon="11.5611512">
                <ele>345.0</ele>
                <time>2020-08-21T13:13:00.000Z</time>
                <name>Trackpoint 2607</name>
            </trkpt>
            <trkpt lat="49.952592" lon="11.5611016">
                <ele>345.0</ele>
                <time>2020-08-21T13:13:02.000Z</time>
                <name>Trackpoint 2608</name>
            </trkpt>
            <trkpt lat="49.9526848" lon="11.5610488">
                <ele>345.0</ele>
                <time>2020-08-21T13:13:04.000Z</time>
                <name>Trackpoint 2609</name>
            </trkpt>
            <trkpt lat="49.9527936" lon="11.5609968">
                <ele>345.0</ele>
                <time>2020-08-21T13:13:06.000Z</time>
                <name>Trackpoint 2610</name>
            </trkpt>
            <trkpt lat="49.952912" lon="11.5609352">
                <ele>345.0</ele>
                <time>2020-08-21T13:13:08.000Z</time>
                <name>Trackpoint 2611</name>
            </trkpt>
            <trkpt lat="49.9529952" lon="11.5608632">
                <ele>345.0</ele>
                <time>2020-08-21T13:13:10.000Z</time>
                <name>Trackpoint 2612</name>
            </trkpt>
            <trkpt lat="49.953088" lon="11.5607968">
                <ele>345.0</ele>
                <time>2020-08-21T13:13:12.000Z</time>
                <name>Trackpoint 2613</name>
            </trkpt>
            <trkpt lat="49.953216" lon="11.5607344">
                <ele>345.0</ele>
                <time>2020-08-21T13:13:14.000Z</time>
                <name>Trackpoint 2614</name>
            </trkpt>
            <trkpt lat="49.9533504" lon="11.5606544">
                <ele>345.0</ele>
                <time>2020-08-21T13:13:16.000Z</time>
                <name>Trackpoint 2615</name>
            </trkpt>
            <trkpt lat="49.953488" lon="11.5605632">
                <ele>344.0</ele>
                <time>2020-08-21T13:13:18.000Z</time>
                <name>Trackpoint 2616</name>
            </trkpt>
            <trkpt lat="49.953616" lon="11.5604632">
                <ele>344.0</ele>
                <time>2020-08-21T13:13:20.000Z</time>
                <name>Trackpoint 2617</name>
            </trkpt>
            <trkpt lat="49.9537376" lon="11.5603704">
                <ele>344.0</ele>
                <time>2020-08-21T13:13:22.000Z</time>
                <name>Trackpoint 2618</name>
            </trkpt>
            <trkpt lat="49.9538656" lon="11.5602616">
                <ele>344.0</ele>
                <time>2020-08-21T13:13:24.000Z</time>
                <name>Trackpoint 2619</name>
            </trkpt>
            <trkpt lat="49.9539904" lon="11.5601416">
                <ele>344.0</ele>
                <time>2020-08-21T13:13:26.000Z</time>
                <name>Trackpoint 2620</name>
            </trkpt>
            <trkpt lat="49.9541216" lon="11.560032">
                <ele>344.0</ele>
                <time>2020-08-21T13:13:28.000Z</time>
                <name>Trackpoint 2621</name>
            </trkpt>
            <trkpt lat="49.9542496" lon="11.559912">
                <ele>344.0</ele>
                <time>2020-08-21T13:13:30.000Z</time>
                <name>Trackpoint 2622</name>
            </trkpt>
            <trkpt lat="49.9543232" lon="11.5598536">
                <ele>344.0</ele>
                <time>2020-08-21T13:13:31.000Z</time>
                <name>Trackpoint 2623</name>
            </trkpt>
            <trkpt lat="49.9543904" lon="11.5597864">
                <ele>344.0</ele>
                <time>2020-08-21T13:13:32.000Z</time>
                <name>Trackpoint 2624</name>
            </trkpt>
            <trkpt lat="49.9545088" lon="11.5596512">
                <ele>344.0</ele>
                <time>2020-08-21T13:13:34.000Z</time>
                <name>Trackpoint 2625</name>
            </trkpt>
            <trkpt lat="49.954624" lon="11.559512">
                <ele>344.0</ele>
                <time>2020-08-21T13:13:36.000Z</time>
                <name>Trackpoint 2626</name>
            </trkpt>
            <trkpt lat="49.9546816" lon="11.55944">
                <ele>344.0</ele>
                <time>2020-08-21T13:13:37.000Z</time>
                <name>Trackpoint 2627</name>
            </trkpt>
            <trkpt lat="49.9547808" lon="11.5592848">
                <ele>344.0</ele>
                <time>2020-08-21T13:13:39.000Z</time>
                <name>Trackpoint 2628</name>
            </trkpt>
            <trkpt lat="49.9548672" lon="11.5591272">
                <ele>344.0</ele>
                <time>2020-08-21T13:13:41.000Z</time>
                <name>Trackpoint 2629</name>
            </trkpt>
            <trkpt lat="49.9549408" lon="11.5589688">
                <ele>343.0</ele>
                <time>2020-08-21T13:13:43.000Z</time>
                <name>Trackpoint 2630</name>
            </trkpt>
            <trkpt lat="49.954976" lon="11.5588848">
                <ele>343.0</ele>
                <time>2020-08-21T13:13:44.000Z</time>
                <name>Trackpoint 2631</name>
            </trkpt>
            <trkpt lat="49.9550336" lon="11.55872">
                <ele>343.0</ele>
                <time>2020-08-21T13:13:46.000Z</time>
                <name>Trackpoint 2632</name>
            </trkpt>
            <trkpt lat="49.9550624" lon="11.5586344">
                <ele>343.0</ele>
                <time>2020-08-21T13:13:47.000Z</time>
                <name>Trackpoint 2633</name>
            </trkpt>
            <trkpt lat="49.9551136" lon="11.5584816">
                <ele>343.0</ele>
                <time>2020-08-21T13:13:49.000Z</time>
                <name>Trackpoint 2634</name>
            </trkpt>
            <trkpt lat="49.955152" lon="11.558356">
                <ele>343.0</ele>
                <time>2020-08-21T13:13:51.000Z</time>
                <name>Trackpoint 2635</name>
            </trkpt>
            <trkpt lat="49.955184" lon="11.5582504">
                <ele>343.0</ele>
                <time>2020-08-21T13:13:53.000Z</time>
                <name>Trackpoint 2636</name>
            </trkpt>
            <trkpt lat="49.9552224" lon="11.55814">
                <ele>342.0</ele>
                <time>2020-08-21T13:13:55.000Z</time>
                <name>Trackpoint 2637</name>
            </trkpt>
            <trkpt lat="49.9552608" lon="11.5579728">
                <ele>342.0</ele>
                <time>2020-08-21T13:13:57.000Z</time>
                <name>Trackpoint 2638</name>
            </trkpt>
            <trkpt lat="49.9553024" lon="11.5578184">
                <ele>341.0</ele>
                <time>2020-08-21T13:13:59.000Z</time>
                <name>Trackpoint 2639</name>
            </trkpt>
            <trkpt lat="49.9553312" lon="11.557732">
                <ele>341.0</ele>
                <time>2020-08-21T13:14:00.000Z</time>
                <name>Trackpoint 2640</name>
            </trkpt>
            <trkpt lat="49.9553536" lon="11.5576384">
                <ele>341.0</ele>
                <time>2020-08-21T13:14:01.000Z</time>
                <name>Trackpoint 2641</name>
            </trkpt>
            <trkpt lat="49.955376" lon="11.557544">
                <ele>341.0</ele>
                <time>2020-08-21T13:14:02.000Z</time>
                <name>Trackpoint 2642</name>
            </trkpt>
            <trkpt lat="49.9554208" lon="11.5573728">
                <ele>340.0</ele>
                <time>2020-08-21T13:14:04.000Z</time>
                <name>Trackpoint 2643</name>
            </trkpt>
            <trkpt lat="49.9554624" lon="11.5572184">
                <ele>340.0</ele>
                <time>2020-08-21T13:14:06.000Z</time>
                <name>Trackpoint 2644</name>
            </trkpt>
            <trkpt lat="49.9555136" lon="11.5570608">
                <ele>339.0</ele>
                <time>2020-08-21T13:14:08.000Z</time>
                <name>Trackpoint 2645</name>
            </trkpt>
            <trkpt lat="49.9555584" lon="11.5569064">
                <ele>339.0</ele>
                <time>2020-08-21T13:14:10.000Z</time>
                <name>Trackpoint 2646</name>
            </trkpt>
            <trkpt lat="49.9556" lon="11.556748">
                <ele>338.0</ele>
                <time>2020-08-21T13:14:12.000Z</time>
                <name>Trackpoint 2647</name>
            </trkpt>
            <trkpt lat="49.9556288" lon="11.5565768">
                <ele>338.0</ele>
                <time>2020-08-21T13:14:14.000Z</time>
                <name>Trackpoint 2648</name>
            </trkpt>
            <trkpt lat="49.9556384" lon="11.5564848">
                <ele>338.0</ele>
                <time>2020-08-21T13:14:15.000Z</time>
                <name>Trackpoint 2649</name>
            </trkpt>
            <trkpt lat="49.9556576" lon="11.5563136">
                <ele>337.0</ele>
                <time>2020-08-21T13:14:17.000Z</time>
                <name>Trackpoint 2650</name>
            </trkpt>
            <trkpt lat="49.9556992" lon="11.5561512">
                <ele>336.0</ele>
                <time>2020-08-21T13:14:19.000Z</time>
                <name>Trackpoint 2651</name>
            </trkpt>
            <trkpt lat="49.9557472" lon="11.556">
                <ele>335.0</ele>
                <time>2020-08-21T13:14:21.000Z</time>
                <name>Trackpoint 2652</name>
            </trkpt>
            <trkpt lat="49.9557984" lon="11.5558504">
                <ele>335.0</ele>
                <time>2020-08-21T13:14:23.000Z</time>
                <name>Trackpoint 2653</name>
            </trkpt>
            <trkpt lat="49.9558464" lon="11.5557032">
                <ele>334.0</ele>
                <time>2020-08-21T13:14:25.000Z</time>
                <name>Trackpoint 2654</name>
            </trkpt>
            <trkpt lat="49.955888" lon="11.5555648">
                <ele>334.0</ele>
                <time>2020-08-21T13:14:27.000Z</time>
                <name>Trackpoint 2655</name>
            </trkpt>
            <trkpt lat="49.9559264" lon="11.5554336">
                <ele>334.0</ele>
                <time>2020-08-21T13:14:29.000Z</time>
                <name>Trackpoint 2656</name>
            </trkpt>
            <trkpt lat="49.9559136" lon="11.5553048">
                <ele>334.0</ele>
                <time>2020-08-21T13:14:31.000Z</time>
                <name>Trackpoint 2657</name>
            </trkpt>
            <trkpt lat="49.9558592" lon="11.55522">
                <ele>335.0</ele>
                <time>2020-08-21T13:14:33.000Z</time>
                <name>Trackpoint 2658</name>
            </trkpt>
            <trkpt lat="49.9557632" lon="11.5551792">
                <ele>334.0</ele>
                <time>2020-08-21T13:14:35.000Z</time>
                <name>Trackpoint 2659</name>
            </trkpt>
            <trkpt lat="49.9556768" lon="11.5551456">
                <ele>334.0</ele>
                <time>2020-08-21T13:14:37.000Z</time>
                <name>Trackpoint 2660</name>
            </trkpt>
            <trkpt lat="49.9555936" lon="11.5550984">
                <ele>334.0</ele>
                <time>2020-08-21T13:14:39.000Z</time>
                <name>Trackpoint 2661</name>
            </trkpt>
            <trkpt lat="49.9555104" lon="11.555052">
                <ele>334.0</ele>
                <time>2020-08-21T13:14:41.000Z</time>
                <name>Trackpoint 2662</name>
            </trkpt>
            <trkpt lat="49.9554432" lon="11.554992">
                <ele>334.0</ele>
                <time>2020-08-21T13:14:43.000Z</time>
                <name>Trackpoint 2663</name>
            </trkpt>
            <trkpt lat="49.9554176" lon="11.5548512">
                <ele>333.0</ele>
                <time>2020-08-21T13:14:45.000Z</time>
                <name>Trackpoint 2664</name>
            </trkpt>
            <trkpt lat="49.9554304" lon="11.5547136">
                <ele>333.0</ele>
                <time>2020-08-21T13:14:47.000Z</time>
                <name>Trackpoint 2665</name>
            </trkpt>
            <trkpt lat="49.9554496" lon="11.554572">
                <ele>332.0</ele>
                <time>2020-08-21T13:14:49.000Z</time>
                <name>Trackpoint 2666</name>
            </trkpt>
            <trkpt lat="49.955456" lon="11.554412">
                <ele>332.0</ele>
                <time>2020-08-21T13:14:51.000Z</time>
                <name>Trackpoint 2667</name>
            </trkpt>
            <trkpt lat="49.9554912" lon="11.5542648">
                <ele>333.0</ele>
                <time>2020-08-21T13:14:53.000Z</time>
                <name>Trackpoint 2668</name>
            </trkpt>
            <trkpt lat="49.9555392" lon="11.5541232">
                <ele>333.0</ele>
                <time>2020-08-21T13:14:55.000Z</time>
                <name>Trackpoint 2669</name>
            </trkpt>
            <trkpt lat="49.9555584" lon="11.5539864">
                <ele>333.0</ele>
                <time>2020-08-21T13:14:57.000Z</time>
                <name>Trackpoint 2670</name>
            </trkpt>
            <trkpt lat="49.9555616" lon="11.5538432">
                <ele>332.0</ele>
                <time>2020-08-21T13:14:59.000Z</time>
                <name>Trackpoint 2671</name>
            </trkpt>
            <trkpt lat="49.9555296" lon="11.5537184">
                <ele>332.0</ele>
                <time>2020-08-21T13:15:01.000Z</time>
                <name>Trackpoint 2672</name>
            </trkpt>
            <trkpt lat="49.9554752" lon="11.5536448">
                <ele>333.0</ele>
                <time>2020-08-21T13:15:03.000Z</time>
                <name>Trackpoint 2673</name>
            </trkpt>
            <trkpt lat="49.9554176" lon="11.5535672">
                <ele>332.0</ele>
                <time>2020-08-21T13:15:05.000Z</time>
                <name>Trackpoint 2674</name>
            </trkpt>
            <trkpt lat="49.955344" lon="11.5534464">
                <ele>333.0</ele>
                <time>2020-08-21T13:15:07.000Z</time>
                <name>Trackpoint 2675</name>
            </trkpt>
            <trkpt lat="49.9552768" lon="11.553344">
                <ele>334.0</ele>
                <time>2020-08-21T13:15:09.000Z</time>
                <name>Trackpoint 2676</name>
            </trkpt>
            <trkpt lat="49.9552192" lon="11.5532648">
                <ele>334.0</ele>
                <time>2020-08-21T13:15:11.000Z</time>
                <name>Trackpoint 2677</name>
            </trkpt>
            <trkpt lat="49.9551552" lon="11.553168">
                <ele>335.0</ele>
                <time>2020-08-21T13:15:13.000Z</time>
                <name>Trackpoint 2678</name>
            </trkpt>
            <trkpt lat="49.9550784" lon="11.5531032">
                <ele>335.0</ele>
                <time>2020-08-21T13:15:15.000Z</time>
                <name>Trackpoint 2679</name>
            </trkpt>
            <trkpt lat="49.9549632" lon="11.553032">
                <ele>335.0</ele>
                <time>2020-08-21T13:15:18.000Z</time>
                <name>Trackpoint 2680</name>
            </trkpt>
            <trkpt lat="49.954896" lon="11.5529472">
                <ele>335.0</ele>
                <time>2020-08-21T13:15:20.000Z</time>
                <name>Trackpoint 2681</name>
            </trkpt>
            <trkpt lat="49.9548192" lon="11.5528448">
                <ele>336.0</ele>
                <time>2020-08-21T13:15:22.000Z</time>
                <name>Trackpoint 2682</name>
            </trkpt>
            <trkpt lat="49.9547552" lon="11.5527232">
                <ele>336.0</ele>
                <time>2020-08-21T13:15:24.000Z</time>
                <name>Trackpoint 2683</name>
            </trkpt>
            <trkpt lat="49.954704" lon="11.5526416">
                <ele>336.0</ele>
                <time>2020-08-21T13:15:26.000Z</time>
                <name>Trackpoint 2684</name>
            </trkpt>
            <trkpt lat="49.9546368" lon="11.5525712">
                <ele>335.0</ele>
                <time>2020-08-21T13:15:28.000Z</time>
                <name>Trackpoint 2685</name>
            </trkpt>
            <trkpt lat="49.9545472" lon="11.5525016">
                <ele>335.0</ele>
                <time>2020-08-21T13:15:30.000Z</time>
                <name>Trackpoint 2686</name>
            </trkpt>
            <trkpt lat="49.9544704" lon="11.5524432">
                <ele>335.0</ele>
                <time>2020-08-21T13:15:32.000Z</time>
                <name>Trackpoint 2687</name>
            </trkpt>
            <trkpt lat="49.9543808" lon="11.552388">
                <ele>336.0</ele>
                <time>2020-08-21T13:15:34.000Z</time>
                <name>Trackpoint 2688</name>
            </trkpt>
            <trkpt lat="49.9543008" lon="11.5523432">
                <ele>336.0</ele>
                <time>2020-08-21T13:15:36.000Z</time>
                <name>Trackpoint 2689</name>
            </trkpt>
            <trkpt lat="49.954208" lon="11.5522896">
                <ele>336.0</ele>
                <time>2020-08-21T13:15:38.000Z</time>
                <name>Trackpoint 2690</name>
            </trkpt>
            <trkpt lat="49.9540896" lon="11.55224">
                <ele>337.0</ele>
                <time>2020-08-21T13:15:41.000Z</time>
                <name>Trackpoint 2691</name>
            </trkpt>
            <trkpt lat="49.9539872" lon="11.5521768">
                <ele>338.0</ele>
                <time>2020-08-21T13:15:44.000Z</time>
                <name>Trackpoint 2692</name>
            </trkpt>
            <trkpt lat="49.9539104" lon="11.5521224">
                <ele>338.0</ele>
                <time>2020-08-21T13:15:48.000Z</time>
                <name>Trackpoint 2693</name>
            </trkpt>
            <trkpt lat="49.9538752" lon="11.552036">
                <ele>337.0</ele>
                <time>2020-08-21T13:15:56.000Z</time>
                <name>Trackpoint 2694</name>
            </trkpt>
            <trkpt lat="49.953888" lon="11.551944">
                <ele>337.0</ele>
                <time>2020-08-21T13:16:04.000Z</time>
                <name>Trackpoint 2695</name>
            </trkpt>
            <trkpt lat="49.9539136" lon="11.5518552">
                <ele>335.0</ele>
                <time>2020-08-21T13:16:22.000Z</time>
                <name>Trackpoint 2696</name>
            </trkpt>
            <trkpt lat="49.9539648" lon="11.551728">
                <ele>335.0</ele>
                <time>2020-08-21T13:16:25.000Z</time>
                <name>Trackpoint 2697</name>
            </trkpt>
            <trkpt lat="49.954" lon="11.551608">
                <ele>336.0</ele>
                <time>2020-08-21T13:16:27.000Z</time>
                <name>Trackpoint 2698</name>
            </trkpt>
            <trkpt lat="49.954032" lon="11.5514872">
                <ele>336.0</ele>
                <time>2020-08-21T13:16:29.000Z</time>
                <name>Trackpoint 2699</name>
            </trkpt>
            <trkpt lat="49.954064" lon="11.5513712">
                <ele>336.0</ele>
                <time>2020-08-21T13:16:31.000Z</time>
                <name>Trackpoint 2700</name>
            </trkpt>
            <trkpt lat="49.9541184" lon="11.5512688">
                <ele>336.0</ele>
                <time>2020-08-21T13:16:33.000Z</time>
                <name>Trackpoint 2701</name>
            </trkpt>
            <trkpt lat="49.9541824" lon="11.551164">
                <ele>336.0</ele>
                <time>2020-08-21T13:16:35.000Z</time>
                <name>Trackpoint 2702</name>
            </trkpt>
            <trkpt lat="49.9542592" lon="11.5510856">
                <ele>336.0</ele>
                <time>2020-08-21T13:16:37.000Z</time>
                <name>Trackpoint 2703</name>
            </trkpt>
            <trkpt lat="49.9543456" lon="11.5510304">
                <ele>335.0</ele>
                <time>2020-08-21T13:16:39.000Z</time>
                <name>Trackpoint 2704</name>
            </trkpt>
            <trkpt lat="49.9544288" lon="11.5509928">
                <ele>335.0</ele>
                <time>2020-08-21T13:16:41.000Z</time>
                <name>Trackpoint 2705</name>
            </trkpt>
            <trkpt lat="49.954512" lon="11.5509216">
                <ele>335.0</ele>
                <time>2020-08-21T13:16:43.000Z</time>
                <name>Trackpoint 2706</name>
            </trkpt>
            <trkpt lat="49.9545952" lon="11.5508608">
                <ele>335.0</ele>
                <time>2020-08-21T13:16:45.000Z</time>
                <name>Trackpoint 2707</name>
            </trkpt>
            <trkpt lat="49.9547072" lon="11.5507832">
                <ele>335.0</ele>
                <time>2020-08-21T13:16:48.000Z</time>
                <name>Trackpoint 2708</name>
            </trkpt>
            <trkpt lat="49.9547616" lon="11.550696">
                <ele>334.0</ele>
                <time>2020-08-21T13:16:51.000Z</time>
                <name>Trackpoint 2709</name>
            </trkpt>
            <trkpt lat="49.9548256" lon="11.5505888">
                <ele>334.0</ele>
                <time>2020-08-21T13:16:54.000Z</time>
                <name>Trackpoint 2710</name>
            </trkpt>
            <trkpt lat="49.9548768" lon="11.5505088">
                <ele>334.0</ele>
                <time>2020-08-21T13:16:56.000Z</time>
                <name>Trackpoint 2711</name>
            </trkpt>
            <trkpt lat="49.9550048" lon="11.5504328">
                <ele>333.0</ele>
                <time>2020-08-21T13:16:58.000Z</time>
                <name>Trackpoint 2712</name>
            </trkpt>
            <trkpt lat="49.9551392" lon="11.5503904">
                <ele>334.0</ele>
                <time>2020-08-21T13:17:00.000Z</time>
                <name>Trackpoint 2713</name>
            </trkpt>
            <trkpt lat="49.9552576" lon="11.55032">
                <ele>334.0</ele>
                <time>2020-08-21T13:17:02.000Z</time>
                <name>Trackpoint 2714</name>
            </trkpt>
            <trkpt lat="49.9553792" lon="11.550212">
                <ele>334.0</ele>
                <time>2020-08-21T13:17:04.000Z</time>
                <name>Trackpoint 2715</name>
            </trkpt>
            <trkpt lat="49.9554496" lon="11.5501432">
                <ele>334.0</ele>
                <time>2020-08-21T13:17:05.000Z</time>
                <name>Trackpoint 2716</name>
            </trkpt>
            <trkpt lat="49.9555808" lon="11.5500408">
                <ele>334.0</ele>
                <time>2020-08-21T13:17:07.000Z</time>
                <name>Trackpoint 2717</name>
            </trkpt>
            <trkpt lat="49.9556608" lon="11.5499712">
                <ele>333.0</ele>
                <time>2020-08-21T13:17:08.000Z</time>
                <name>Trackpoint 2718</name>
            </trkpt>
            <trkpt lat="49.9557632" lon="11.549844">
                <ele>333.0</ele>
                <time>2020-08-21T13:17:10.000Z</time>
                <name>Trackpoint 2719</name>
            </trkpt>
            <trkpt lat="49.9558304" lon="11.5497776">
                <ele>333.0</ele>
                <time>2020-08-21T13:17:11.000Z</time>
                <name>Trackpoint 2720</name>
            </trkpt>
            <trkpt lat="49.9559776" lon="11.5497168">
                <ele>332.0</ele>
                <time>2020-08-21T13:17:13.000Z</time>
                <name>Trackpoint 2721</name>
            </trkpt>
            <trkpt lat="49.9560896" lon="11.5496128">
                <ele>332.0</ele>
                <time>2020-08-21T13:17:15.000Z</time>
                <name>Trackpoint 2722</name>
            </trkpt>
            <trkpt lat="49.956192" lon="11.549488">
                <ele>332.0</ele>
                <time>2020-08-21T13:17:17.000Z</time>
                <name>Trackpoint 2723</name>
            </trkpt>
            <trkpt lat="49.9563072" lon="11.5493672">
                <ele>332.0</ele>
                <time>2020-08-21T13:17:19.000Z</time>
                <name>Trackpoint 2724</name>
            </trkpt>
            <trkpt lat="49.9564128" lon="11.5492352">
                <ele>331.0</ele>
                <time>2020-08-21T13:17:21.000Z</time>
                <name>Trackpoint 2725</name>
            </trkpt>
            <trkpt lat="49.9565312" lon="11.5491168">
                <ele>331.0</ele>
                <time>2020-08-21T13:17:23.000Z</time>
                <name>Trackpoint 2726</name>
            </trkpt>
            <trkpt lat="49.9566336" lon="11.5489768">
                <ele>331.0</ele>
                <time>2020-08-21T13:17:25.000Z</time>
                <name>Trackpoint 2727</name>
            </trkpt>
            <trkpt lat="49.9567296" lon="11.5488456">
                <ele>331.0</ele>
                <time>2020-08-21T13:17:27.000Z</time>
                <name>Trackpoint 2728</name>
            </trkpt>
            <trkpt lat="49.9568224" lon="11.548752">
                <ele>331.0</ele>
                <time>2020-08-21T13:17:29.000Z</time>
                <name>Trackpoint 2729</name>
            </trkpt>
            <trkpt lat="49.9569024" lon="11.5486784">
                <ele>331.0</ele>
                <time>2020-08-21T13:17:31.000Z</time>
                <name>Trackpoint 2730</name>
            </trkpt>
            <trkpt lat="49.9570016" lon="11.5485824">
                <ele>330.0</ele>
                <time>2020-08-21T13:17:33.000Z</time>
                <name>Trackpoint 2731</name>
            </trkpt>
            <trkpt lat="49.957104" lon="11.5484688">
                <ele>330.0</ele>
                <time>2020-08-21T13:17:35.000Z</time>
                <name>Trackpoint 2732</name>
            </trkpt>
            <trkpt lat="49.9572064" lon="11.5483416">
                <ele>330.0</ele>
                <time>2020-08-21T13:17:37.000Z</time>
                <name>Trackpoint 2733</name>
            </trkpt>
            <trkpt lat="49.957312" lon="11.5482264">
                <ele>329.0</ele>
                <time>2020-08-21T13:17:39.000Z</time>
                <name>Trackpoint 2734</name>
            </trkpt>
            <trkpt lat="49.9574112" lon="11.5481144">
                <ele>330.0</ele>
                <time>2020-08-21T13:17:41.000Z</time>
                <name>Trackpoint 2735</name>
            </trkpt>
            <trkpt lat="49.9575104" lon="11.5480368">
                <ele>330.0</ele>
                <time>2020-08-21T13:17:43.000Z</time>
                <name>Trackpoint 2736</name>
            </trkpt>
            <trkpt lat="49.9576032" lon="11.5479744">
                <ele>330.0</ele>
                <time>2020-08-21T13:17:45.000Z</time>
                <name>Trackpoint 2737</name>
            </trkpt>
            <trkpt lat="49.957696" lon="11.5479272">
                <ele>330.0</ele>
                <time>2020-08-21T13:17:47.000Z</time>
                <name>Trackpoint 2738</name>
            </trkpt>
            <trkpt lat="49.9577856" lon="11.547876">
                <ele>330.0</ele>
                <time>2020-08-21T13:17:49.000Z</time>
                <name>Trackpoint 2739</name>
            </trkpt>
            <trkpt lat="49.957888" lon="11.5478088">
                <ele>330.0</ele>
                <time>2020-08-21T13:17:51.000Z</time>
                <name>Trackpoint 2740</name>
            </trkpt>
            <trkpt lat="49.9579744" lon="11.5477264">
                <ele>331.0</ele>
                <time>2020-08-21T13:17:52.000Z</time>
                <name>Trackpoint 2741</name>
            </trkpt>
            <trkpt lat="49.9580736" lon="11.5476416">
                <ele>331.0</ele>
                <time>2020-08-21T13:17:54.000Z</time>
                <name>Trackpoint 2742</name>
            </trkpt>
            <trkpt lat="49.9581728" lon="11.5475768">
                <ele>331.0</ele>
                <time>2020-08-21T13:17:56.000Z</time>
                <name>Trackpoint 2743</name>
            </trkpt>
            <trkpt lat="49.9582816" lon="11.547488">
                <ele>331.0</ele>
                <time>2020-08-21T13:17:58.000Z</time>
                <name>Trackpoint 2744</name>
            </trkpt>
            <trkpt lat="49.9583776" lon="11.5474232">
                <ele>330.0</ele>
                <time>2020-08-21T13:18:00.000Z</time>
                <name>Trackpoint 2745</name>
            </trkpt>
            <trkpt lat="49.9584608" lon="11.5473232">
                <ele>330.0</ele>
                <time>2020-08-21T13:18:02.000Z</time>
                <name>Trackpoint 2746</name>
            </trkpt>
            <trkpt lat="49.9585312" lon="11.5472448">
                <ele>330.0</ele>
                <time>2020-08-21T13:18:04.000Z</time>
                <name>Trackpoint 2747</name>
            </trkpt>
            <trkpt lat="49.9586272" lon="11.5471784">
                <ele>330.0</ele>
                <time>2020-08-21T13:18:06.000Z</time>
                <name>Trackpoint 2748</name>
            </trkpt>
            <trkpt lat="49.958736" lon="11.5471424">
                <ele>330.0</ele>
                <time>2020-08-21T13:18:08.000Z</time>
                <name>Trackpoint 2749</name>
            </trkpt>
            <trkpt lat="49.9588096" lon="11.5470784">
                <ele>330.0</ele>
                <time>2020-08-21T13:18:09.000Z</time>
                <name>Trackpoint 2750</name>
            </trkpt>
            <trkpt lat="49.9588896" lon="11.54702">
                <ele>330.0</ele>
                <time>2020-08-21T13:18:10.000Z</time>
                <name>Trackpoint 2751</name>
            </trkpt>
            <trkpt lat="49.9590112" lon="11.5469568">
                <ele>331.0</ele>
                <time>2020-08-21T13:18:12.000Z</time>
                <name>Trackpoint 2752</name>
            </trkpt>
            <trkpt lat="49.9591168" lon="11.5469048">
                <ele>331.0</ele>
                <time>2020-08-21T13:18:14.000Z</time>
                <name>Trackpoint 2753</name>
            </trkpt>
            <trkpt lat="49.9592096" lon="11.5468368">
                <ele>331.0</ele>
                <time>2020-08-21T13:18:16.000Z</time>
                <name>Trackpoint 2754</name>
            </trkpt>
            <trkpt lat="49.9593376" lon="11.5467632">
                <ele>331.0</ele>
                <time>2020-08-21T13:18:19.000Z</time>
                <name>Trackpoint 2755</name>
            </trkpt>
            <trkpt lat="49.9594272" lon="11.546688">
                <ele>331.0</ele>
                <time>2020-08-21T13:18:21.000Z</time>
                <name>Trackpoint 2756</name>
            </trkpt>
            <trkpt lat="49.959488" lon="11.546612">
                <ele>331.0</ele>
                <time>2020-08-21T13:18:22.000Z</time>
                <name>Trackpoint 2757</name>
            </trkpt>
            <trkpt lat="49.9595552" lon="11.5465432">
                <ele>331.0</ele>
                <time>2020-08-21T13:18:23.000Z</time>
                <name>Trackpoint 2758</name>
            </trkpt>
            <trkpt lat="49.9596288" lon="11.546456">
                <ele>331.0</ele>
                <time>2020-08-21T13:18:24.000Z</time>
                <name>Trackpoint 2759</name>
            </trkpt>
            <trkpt lat="49.9596992" lon="11.5463536">
                <ele>331.0</ele>
                <time>2020-08-21T13:18:25.000Z</time>
                <name>Trackpoint 2760</name>
            </trkpt>
            <trkpt lat="49.9597824" lon="11.5462176">
                <ele>331.0</ele>
                <time>2020-08-21T13:18:27.000Z</time>
                <name>Trackpoint 2761</name>
            </trkpt>
            <trkpt lat="49.9598624" lon="11.5460464">
                <ele>331.0</ele>
                <time>2020-08-21T13:18:29.000Z</time>
                <name>Trackpoint 2762</name>
            </trkpt>
            <trkpt lat="49.9599104" lon="11.5459568">
                <ele>331.0</ele>
                <time>2020-08-21T13:18:30.000Z</time>
                <name>Trackpoint 2763</name>
            </trkpt>
            <trkpt lat="49.9599584" lon="11.545872">
                <ele>331.0</ele>
                <time>2020-08-21T13:18:31.000Z</time>
                <name>Trackpoint 2764</name>
            </trkpt>
            <trkpt lat="49.96" lon="11.5457848">
                <ele>331.0</ele>
                <time>2020-08-21T13:18:32.000Z</time>
                <name>Trackpoint 2765</name>
            </trkpt>
            <trkpt lat="49.9600384" lon="11.5456984">
                <ele>331.0</ele>
                <time>2020-08-21T13:18:33.000Z</time>
                <name>Trackpoint 2766</name>
            </trkpt>
            <trkpt lat="49.9600768" lon="11.5456088">
                <ele>331.0</ele>
                <time>2020-08-21T13:18:34.000Z</time>
                <name>Trackpoint 2767</name>
            </trkpt>
            <trkpt lat="49.9601088" lon="11.5455216">
                <ele>331.0</ele>
                <time>2020-08-21T13:18:35.000Z</time>
                <name>Trackpoint 2768</name>
            </trkpt>
            <trkpt lat="49.9601472" lon="11.5454384">
                <ele>331.0</ele>
                <time>2020-08-21T13:18:36.000Z</time>
                <name>Trackpoint 2769</name>
            </trkpt>
            <trkpt lat="49.9601888" lon="11.5453528">
                <ele>330.0</ele>
                <time>2020-08-21T13:18:37.000Z</time>
                <name>Trackpoint 2770</name>
            </trkpt>
            <trkpt lat="49.9602592" lon="11.5451936">
                <ele>330.0</ele>
                <time>2020-08-21T13:18:39.000Z</time>
                <name>Trackpoint 2771</name>
            </trkpt>
            <trkpt lat="49.960336" lon="11.5450384">
                <ele>330.0</ele>
                <time>2020-08-21T13:18:41.000Z</time>
                <name>Trackpoint 2772</name>
            </trkpt>
            <trkpt lat="49.9604032" lon="11.5448952">
                <ele>330.0</ele>
                <time>2020-08-21T13:18:43.000Z</time>
                <name>Trackpoint 2773</name>
            </trkpt>
            <trkpt lat="49.960464" lon="11.544752">
                <ele>330.0</ele>
                <time>2020-08-21T13:18:45.000Z</time>
                <name>Trackpoint 2774</name>
            </trkpt>
            <trkpt lat="49.9605216" lon="11.5446144">
                <ele>330.0</ele>
                <time>2020-08-21T13:18:47.000Z</time>
                <name>Trackpoint 2775</name>
            </trkpt>
            <trkpt lat="49.9605664" lon="11.544492">
                <ele>330.0</ele>
                <time>2020-08-21T13:18:49.000Z</time>
                <name>Trackpoint 2776</name>
            </trkpt>
            <trkpt lat="49.960608" lon="11.5443888">
                <ele>331.0</ele>
                <time>2020-08-21T13:18:51.000Z</time>
                <name>Trackpoint 2777</name>
            </trkpt>
            <trkpt lat="49.9606656" lon="11.5442664">
                <ele>331.0</ele>
                <time>2020-08-21T13:18:54.000Z</time>
                <name>Trackpoint 2778</name>
            </trkpt>
            <trkpt lat="49.960688" lon="11.5441752">
                <ele>331.0</ele>
                <time>2020-08-21T13:18:56.000Z</time>
                <name>Trackpoint 2779</name>
            </trkpt>
            <trkpt lat="49.960704" lon="11.5440752">
                <ele>331.0</ele>
                <time>2020-08-21T13:18:58.000Z</time>
                <name>Trackpoint 2780</name>
            </trkpt>
            <trkpt lat="49.96072" lon="11.5439464">
                <ele>331.0</ele>
                <time>2020-08-21T13:19:00.000Z</time>
                <name>Trackpoint 2781</name>
            </trkpt>
            <trkpt lat="49.96072" lon="11.5438072">
                <ele>331.0</ele>
                <time>2020-08-21T13:19:02.000Z</time>
                <name>Trackpoint 2782</name>
            </trkpt>
            <trkpt lat="49.9607456" lon="11.5436624">
                <ele>331.0</ele>
                <time>2020-08-21T13:19:04.000Z</time>
                <name>Trackpoint 2783</name>
            </trkpt>
            <trkpt lat="49.9607936" lon="11.5435216">
                <ele>331.0</ele>
                <time>2020-08-21T13:19:06.000Z</time>
                <name>Trackpoint 2784</name>
            </trkpt>
            <trkpt lat="49.9608448" lon="11.543388">
                <ele>331.0</ele>
                <time>2020-08-21T13:19:08.000Z</time>
                <name>Trackpoint 2785</name>
            </trkpt>
            <trkpt lat="49.9608992" lon="11.5432456">
                <ele>331.0</ele>
                <time>2020-08-21T13:19:10.000Z</time>
                <name>Trackpoint 2786</name>
            </trkpt>
            <trkpt lat="49.9609696" lon="11.5430832">
                <ele>331.0</ele>
                <time>2020-08-21T13:19:12.000Z</time>
                <name>Trackpoint 2787</name>
            </trkpt>
            <trkpt lat="49.961024" lon="11.5429184">
                <ele>331.0</ele>
                <time>2020-08-21T13:19:14.000Z</time>
                <name>Trackpoint 2788</name>
            </trkpt>
            <trkpt lat="49.9610784" lon="11.5427568">
                <ele>331.0</ele>
                <time>2020-08-21T13:19:16.000Z</time>
                <name>Trackpoint 2789</name>
            </trkpt>
            <trkpt lat="49.9611232" lon="11.5425952">
                <ele>331.0</ele>
                <time>2020-08-21T13:19:18.000Z</time>
                <name>Trackpoint 2790</name>
            </trkpt>
            <trkpt lat="49.9611744" lon="11.5424368">
                <ele>331.0</ele>
                <time>2020-08-21T13:19:20.000Z</time>
                <name>Trackpoint 2791</name>
            </trkpt>
            <trkpt lat="49.9612288" lon="11.5422784">
                <ele>331.0</ele>
                <time>2020-08-21T13:19:22.000Z</time>
                <name>Trackpoint 2792</name>
            </trkpt>
            <trkpt lat="49.9612768" lon="11.5421216">
                <ele>331.0</ele>
                <time>2020-08-21T13:19:24.000Z</time>
                <name>Trackpoint 2793</name>
            </trkpt>
            <trkpt lat="49.9613152" lon="11.5419776">
                <ele>331.0</ele>
                <time>2020-08-21T13:19:26.000Z</time>
                <name>Trackpoint 2794</name>
            </trkpt>
            <trkpt lat="49.9613536" lon="11.5418328">
                <ele>331.0</ele>
                <time>2020-08-21T13:19:28.000Z</time>
                <name>Trackpoint 2795</name>
            </trkpt>
            <trkpt lat="49.961392" lon="11.5416816">
                <ele>331.0</ele>
                <time>2020-08-21T13:19:30.000Z</time>
                <name>Trackpoint 2796</name>
            </trkpt>
            <trkpt lat="49.9614304" lon="11.5415184">
                <ele>331.0</ele>
                <time>2020-08-21T13:19:32.000Z</time>
                <name>Trackpoint 2797</name>
            </trkpt>
            <trkpt lat="49.9614592" lon="11.5414016">
                <ele>331.0</ele>
                <time>2020-08-21T13:19:34.000Z</time>
                <name>Trackpoint 2798</name>
            </trkpt>
            <trkpt lat="49.9615008" lon="11.5413048">
                <ele>331.0</ele>
                <time>2020-08-21T13:19:36.000Z</time>
                <name>Trackpoint 2799</name>
            </trkpt>
            <trkpt lat="49.9615392" lon="11.541208">
                <ele>331.0</ele>
                <time>2020-08-21T13:19:38.000Z</time>
                <name>Trackpoint 2800</name>
            </trkpt>
            <trkpt lat="49.9615776" lon="11.5411128">
                <ele>331.0</ele>
                <time>2020-08-21T13:19:40.000Z</time>
                <name>Trackpoint 2801</name>
            </trkpt>
            <trkpt lat="49.9616128" lon="11.5410072">
                <ele>331.0</ele>
                <time>2020-08-21T13:19:42.000Z</time>
                <name>Trackpoint 2802</name>
            </trkpt>
            <trkpt lat="49.9616384" lon="11.540876">
                <ele>331.0</ele>
                <time>2020-08-21T13:19:44.000Z</time>
                <name>Trackpoint 2803</name>
            </trkpt>
            <trkpt lat="49.9616864" lon="11.5407488">
                <ele>332.0</ele>
                <time>2020-08-21T13:19:46.000Z</time>
                <name>Trackpoint 2804</name>
            </trkpt>
            <trkpt lat="49.961744" lon="11.5406128">
                <ele>332.0</ele>
                <time>2020-08-21T13:19:48.000Z</time>
                <name>Trackpoint 2805</name>
            </trkpt>
            <trkpt lat="49.9618048" lon="11.5404768">
                <ele>332.0</ele>
                <time>2020-08-21T13:19:50.000Z</time>
                <name>Trackpoint 2806</name>
            </trkpt>
            <trkpt lat="49.9618688" lon="11.540352">
                <ele>332.0</ele>
                <time>2020-08-21T13:19:52.000Z</time>
                <name>Trackpoint 2807</name>
            </trkpt>
            <trkpt lat="49.9619264" lon="11.5402368">
                <ele>332.0</ele>
                <time>2020-08-21T13:19:54.000Z</time>
                <name>Trackpoint 2808</name>
            </trkpt>
            <trkpt lat="49.9619712" lon="11.5401048">
                <ele>333.0</ele>
                <time>2020-08-21T13:19:56.000Z</time>
                <name>Trackpoint 2809</name>
            </trkpt>
            <trkpt lat="49.9620128" lon="11.5399712">
                <ele>333.0</ele>
                <time>2020-08-21T13:19:58.000Z</time>
                <name>Trackpoint 2810</name>
            </trkpt>
            <trkpt lat="49.9620576" lon="11.5398464">
                <ele>333.0</ele>
                <time>2020-08-21T13:20:00.000Z</time>
                <name>Trackpoint 2811</name>
            </trkpt>
            <trkpt lat="49.9621056" lon="11.5397256">
                <ele>333.0</ele>
                <time>2020-08-21T13:20:02.000Z</time>
                <name>Trackpoint 2812</name>
            </trkpt>
            <trkpt lat="49.9621632" lon="11.5396072">
                <ele>333.0</ele>
                <time>2020-08-21T13:20:04.000Z</time>
                <name>Trackpoint 2813</name>
            </trkpt>
            <trkpt lat="49.9622272" lon="11.5394896">
                <ele>333.0</ele>
                <time>2020-08-21T13:20:06.000Z</time>
                <name>Trackpoint 2814</name>
            </trkpt>
            <trkpt lat="49.962288" lon="11.53938">
                <ele>333.0</ele>
                <time>2020-08-21T13:20:08.000Z</time>
                <name>Trackpoint 2815</name>
            </trkpt>
            <trkpt lat="49.9623552" lon="11.5392704">
                <ele>333.0</ele>
                <time>2020-08-21T13:20:10.000Z</time>
                <name>Trackpoint 2816</name>
            </trkpt>
            <trkpt lat="49.9624288" lon="11.5391576">
                <ele>333.0</ele>
                <time>2020-08-21T13:20:12.000Z</time>
                <name>Trackpoint 2817</name>
            </trkpt>
            <trkpt lat="49.9625024" lon="11.5390464">
                <ele>333.0</ele>
                <time>2020-08-21T13:20:14.000Z</time>
                <name>Trackpoint 2818</name>
            </trkpt>
            <trkpt lat="49.9625728" lon="11.5389472">
                <ele>333.0</ele>
                <time>2020-08-21T13:20:16.000Z</time>
                <name>Trackpoint 2819</name>
            </trkpt>
            <trkpt lat="49.9626432" lon="11.5388432">
                <ele>333.0</ele>
                <time>2020-08-21T13:20:18.000Z</time>
                <name>Trackpoint 2820</name>
            </trkpt>
            <trkpt lat="49.9627136" lon="11.5387248">
                <ele>333.0</ele>
                <time>2020-08-21T13:20:20.000Z</time>
                <name>Trackpoint 2821</name>
            </trkpt>
            <trkpt lat="49.9627904" lon="11.5385912">
                <ele>333.0</ele>
                <time>2020-08-21T13:20:22.000Z</time>
                <name>Trackpoint 2822</name>
            </trkpt>
            <trkpt lat="49.9628704" lon="11.5384704">
                <ele>333.0</ele>
                <time>2020-08-21T13:20:24.000Z</time>
                <name>Trackpoint 2823</name>
            </trkpt>
            <trkpt lat="49.9629568" lon="11.5383264">
                <ele>333.0</ele>
                <time>2020-08-21T13:20:26.000Z</time>
                <name>Trackpoint 2824</name>
            </trkpt>
            <trkpt lat="49.9630048" lon="11.5382496">
                <ele>333.0</ele>
                <time>2020-08-21T13:20:27.000Z</time>
                <name>Trackpoint 2825</name>
            </trkpt>
            <trkpt lat="49.9630944" lon="11.5381184">
                <ele>333.0</ele>
                <time>2020-08-21T13:20:29.000Z</time>
                <name>Trackpoint 2826</name>
            </trkpt>
            <trkpt lat="49.9631456" lon="11.5380312">
                <ele>332.0</ele>
                <time>2020-08-21T13:21:49.000Z</time>
                <name>Trackpoint 2827</name>
            </trkpt>
            <trkpt lat="49.9631904" lon="11.537956">
                <ele>332.0</ele>
                <time>2020-08-21T13:30:49.000Z</time>
                <name>Trackpoint 2828</name>
            </trkpt>
            <trkpt lat="49.9632032" lon="11.5379464">
                <ele>332.0</ele>
                <time>2020-08-21T13:33:07.000Z</time>
                <name>Trackpoint 2829</name>
            </trkpt>
            <trkpt lat="49.96328" lon="11.5378752">
                <ele>332.0</ele>
                <time>2020-08-21T13:34:21.000Z</time>
                <name>Trackpoint 2830</name>
            </trkpt>
            <trkpt lat="49.9633632" lon="11.5378">
                <ele>332.0</ele>
                <time>2020-08-21T13:34:25.000Z</time>
                <name>Trackpoint 2831</name>
            </trkpt>
            <trkpt lat="49.963456" lon="11.5377016">
                <ele>332.0</ele>
                <time>2020-08-21T13:34:28.000Z</time>
                <name>Trackpoint 2832</name>
            </trkpt>
            <trkpt lat="49.9635232" lon="11.5376352">
                <ele>332.0</ele>
                <time>2020-08-21T13:34:30.000Z</time>
                <name>Trackpoint 2833</name>
            </trkpt>
            <trkpt lat="49.9636" lon="11.5375616">
                <ele>332.0</ele>
                <time>2020-08-21T13:34:32.000Z</time>
                <name>Trackpoint 2834</name>
            </trkpt>
            <trkpt lat="49.9636832" lon="11.5374816">
                <ele>331.0</ele>
                <time>2020-08-21T13:34:34.000Z</time>
                <name>Trackpoint 2835</name>
            </trkpt>
            <trkpt lat="49.9637696" lon="11.5374072">
                <ele>331.0</ele>
                <time>2020-08-21T13:34:36.000Z</time>
                <name>Trackpoint 2836</name>
            </trkpt>
            <trkpt lat="49.963856" lon="11.5373296">
                <ele>331.0</ele>
                <time>2020-08-21T13:34:38.000Z</time>
                <name>Trackpoint 2837</name>
            </trkpt>
            <trkpt lat="49.963952" lon="11.5372512">
                <ele>331.0</ele>
                <time>2020-08-21T13:34:40.000Z</time>
                <name>Trackpoint 2838</name>
            </trkpt>
            <trkpt lat="49.964048" lon="11.5371768">
                <ele>330.0</ele>
                <time>2020-08-21T13:34:42.000Z</time>
                <name>Trackpoint 2839</name>
            </trkpt>
            <trkpt lat="49.9641472" lon="11.537104">
                <ele>330.0</ele>
                <time>2020-08-21T13:34:44.000Z</time>
                <name>Trackpoint 2840</name>
            </trkpt>
            <trkpt lat="49.96424" lon="11.5370328">
                <ele>330.0</ele>
                <time>2020-08-21T13:34:46.000Z</time>
                <name>Trackpoint 2841</name>
            </trkpt>
            <trkpt lat="49.9643328" lon="11.5369616">
                <ele>329.0</ele>
                <time>2020-08-21T13:34:48.000Z</time>
                <name>Trackpoint 2842</name>
            </trkpt>
            <trkpt lat="49.9644192" lon="11.536888">
                <ele>329.0</ele>
                <time>2020-08-21T13:34:50.000Z</time>
                <name>Trackpoint 2843</name>
            </trkpt>
            <trkpt lat="49.9645056" lon="11.5368208">
                <ele>329.0</ele>
                <time>2020-08-21T13:34:52.000Z</time>
                <name>Trackpoint 2844</name>
            </trkpt>
            <trkpt lat="49.964624" lon="11.5367696">
                <ele>329.0</ele>
                <time>2020-08-21T13:34:55.000Z</time>
                <name>Trackpoint 2845</name>
            </trkpt>
            <trkpt lat="49.9647168" lon="11.5368032">
                <ele>328.0</ele>
                <time>2020-08-21T13:34:57.000Z</time>
                <name>Trackpoint 2846</name>
            </trkpt>
            <trkpt lat="49.9648224" lon="11.5368616">
                <ele>327.0</ele>
                <time>2020-08-21T13:34:59.000Z</time>
                <name>Trackpoint 2847</name>
            </trkpt>
            <trkpt lat="49.9649376" lon="11.5369264">
                <ele>327.0</ele>
                <time>2020-08-21T13:35:01.000Z</time>
                <name>Trackpoint 2848</name>
            </trkpt>
            <trkpt lat="49.9650624" lon="11.5370064">
                <ele>327.0</ele>
                <time>2020-08-21T13:35:03.000Z</time>
                <name>Trackpoint 2849</name>
            </trkpt>
            <trkpt lat="49.965184" lon="11.5370728">
                <ele>327.0</ele>
                <time>2020-08-21T13:35:05.000Z</time>
                <name>Trackpoint 2850</name>
            </trkpt>
            <trkpt lat="49.9653056" lon="11.5371416">
                <ele>327.0</ele>
                <time>2020-08-21T13:35:07.000Z</time>
                <name>Trackpoint 2851</name>
            </trkpt>
            <trkpt lat="49.965424" lon="11.5372104">
                <ele>327.0</ele>
                <time>2020-08-21T13:35:09.000Z</time>
                <name>Trackpoint 2852</name>
            </trkpt>
            <trkpt lat="49.9655424" lon="11.53726">
                <ele>326.0</ele>
                <time>2020-08-21T13:35:11.000Z</time>
                <name>Trackpoint 2853</name>
            </trkpt>
            <trkpt lat="49.9656608" lon="11.5373064">
                <ele>326.0</ele>
                <time>2020-08-21T13:35:13.000Z</time>
                <name>Trackpoint 2854</name>
            </trkpt>
            <trkpt lat="49.9657792" lon="11.5373624">
                <ele>325.0</ele>
                <time>2020-08-21T13:35:15.000Z</time>
                <name>Trackpoint 2855</name>
            </trkpt>
            <trkpt lat="49.9658912" lon="11.5373944">
                <ele>326.0</ele>
                <time>2020-08-21T13:35:17.000Z</time>
                <name>Trackpoint 2856</name>
            </trkpt>
            <trkpt lat="49.9660032" lon="11.5374272">
                <ele>325.0</ele>
                <time>2020-08-21T13:35:19.000Z</time>
                <name>Trackpoint 2857</name>
            </trkpt>
            <trkpt lat="49.9661088" lon="11.5374536">
                <ele>325.0</ele>
                <time>2020-08-21T13:35:21.000Z</time>
                <name>Trackpoint 2858</name>
            </trkpt>
            <trkpt lat="49.9662176" lon="11.5374568">
                <ele>325.0</ele>
                <time>2020-08-21T13:35:23.000Z</time>
                <name>Trackpoint 2859</name>
            </trkpt>
            <trkpt lat="49.9663264" lon="11.53742">
                <ele>325.0</ele>
                <time>2020-08-21T13:35:25.000Z</time>
                <name>Trackpoint 2860</name>
            </trkpt>
            <trkpt lat="49.9664384" lon="11.5373352">
                <ele>326.0</ele>
                <time>2020-08-21T13:35:27.000Z</time>
                <name>Trackpoint 2861</name>
            </trkpt>
            <trkpt lat="49.9665344" lon="11.5372248">
                <ele>326.0</ele>
                <time>2020-08-21T13:35:29.000Z</time>
                <name>Trackpoint 2862</name>
            </trkpt>
            <trkpt lat="49.9666304" lon="11.537104">
                <ele>326.0</ele>
                <time>2020-08-21T13:35:31.000Z</time>
                <name>Trackpoint 2863</name>
            </trkpt>
            <trkpt lat="49.9667232" lon="11.53698">
                <ele>326.0</ele>
                <time>2020-08-21T13:35:33.000Z</time>
                <name>Trackpoint 2864</name>
            </trkpt>
            <trkpt lat="49.966816" lon="11.5368544">
                <ele>326.0</ele>
                <time>2020-08-21T13:35:35.000Z</time>
                <name>Trackpoint 2865</name>
            </trkpt>
            <trkpt lat="49.966912" lon="11.5367472">
                <ele>326.0</ele>
                <time>2020-08-21T13:35:37.000Z</time>
                <name>Trackpoint 2866</name>
            </trkpt>
            <trkpt lat="49.9669984" lon="11.5366448">
                <ele>325.0</ele>
                <time>2020-08-21T13:35:39.000Z</time>
                <name>Trackpoint 2867</name>
            </trkpt>
            <trkpt lat="49.9670816" lon="11.5365488">
                <ele>326.0</ele>
                <time>2020-08-21T13:35:41.000Z</time>
                <name>Trackpoint 2868</name>
            </trkpt>
            <trkpt lat="49.967168" lon="11.5364688">
                <ele>326.0</ele>
                <time>2020-08-21T13:35:43.000Z</time>
                <name>Trackpoint 2869</name>
            </trkpt>
            <trkpt lat="49.967248" lon="11.5363976">
                <ele>326.0</ele>
                <time>2020-08-21T13:35:45.000Z</time>
                <name>Trackpoint 2870</name>
            </trkpt>
            <trkpt lat="49.9673568" lon="11.5363368">
                <ele>326.0</ele>
                <time>2020-08-21T13:35:48.000Z</time>
                <name>Trackpoint 2871</name>
            </trkpt>
            <trkpt lat="49.9674688" lon="11.536312">
                <ele>325.0</ele>
                <time>2020-08-21T13:35:51.000Z</time>
                <name>Trackpoint 2872</name>
            </trkpt>
            <trkpt lat="49.9675776" lon="11.5363056">
                <ele>325.0</ele>
                <time>2020-08-21T13:35:54.000Z</time>
                <name>Trackpoint 2873</name>
            </trkpt>
            <trkpt lat="49.9676672" lon="11.5362928">
                <ele>325.0</ele>
                <time>2020-08-21T13:35:57.000Z</time>
                <name>Trackpoint 2874</name>
            </trkpt>
            <trkpt lat="49.9677632" lon="11.5362832">
                <ele>325.0</ele>
                <time>2020-08-21T13:36:01.000Z</time>
                <name>Trackpoint 2875</name>
            </trkpt>
            <trkpt lat="49.9678496" lon="11.5362232">
                <ele>325.0</ele>
                <time>2020-08-21T13:36:05.000Z</time>
                <name>Trackpoint 2876</name>
            </trkpt>
            <trkpt lat="49.9678912" lon="11.5361368">
                <ele>325.0</ele>
                <time>2020-08-21T13:36:44.000Z</time>
                <name>Trackpoint 2877</name>
            </trkpt>
            <trkpt lat="49.9679264" lon="11.5360416">
                <ele>325.0</ele>
                <time>2020-08-21T13:36:47.000Z</time>
                <name>Trackpoint 2878</name>
            </trkpt>
            <trkpt lat="49.9679456" lon="11.5359536">
                <ele>325.0</ele>
                <time>2020-08-21T13:36:49.000Z</time>
                <name>Trackpoint 2879</name>
            </trkpt>
            <trkpt lat="49.9679712" lon="11.5358464">
                <ele>325.0</ele>
                <time>2020-08-21T13:36:51.000Z</time>
                <name>Trackpoint 2880</name>
            </trkpt>
            <trkpt lat="49.9680096" lon="11.5357248">
                <ele>325.0</ele>
                <time>2020-08-21T13:36:53.000Z</time>
                <name>Trackpoint 2881</name>
            </trkpt>
            <trkpt lat="49.9680448" lon="11.5355968">
                <ele>325.0</ele>
                <time>2020-08-21T13:36:55.000Z</time>
                <name>Trackpoint 2882</name>
            </trkpt>
            <trkpt lat="49.9680832" lon="11.535472">
                <ele>325.0</ele>
                <time>2020-08-21T13:36:57.000Z</time>
                <name>Trackpoint 2883</name>
            </trkpt>
            <trkpt lat="49.9681152" lon="11.535332">
                <ele>325.0</ele>
                <time>2020-08-21T13:36:59.000Z</time>
                <name>Trackpoint 2884</name>
            </trkpt>
            <trkpt lat="49.9681792" lon="11.5351952">
                <ele>325.0</ele>
                <time>2020-08-21T13:37:01.000Z</time>
                <name>Trackpoint 2885</name>
            </trkpt>
            <trkpt lat="49.9682272" lon="11.5350568">
                <ele>325.0</ele>
                <time>2020-08-21T13:37:03.000Z</time>
                <name>Trackpoint 2886</name>
            </trkpt>
            <trkpt lat="49.9682912" lon="11.5349368">
                <ele>325.0</ele>
                <time>2020-08-21T13:37:05.000Z</time>
                <name>Trackpoint 2887</name>
            </trkpt>
            <trkpt lat="49.968384" lon="11.53484">
                <ele>325.0</ele>
                <time>2020-08-21T13:37:07.000Z</time>
                <name>Trackpoint 2888</name>
            </trkpt>
            <trkpt lat="49.9684768" lon="11.5347704">
                <ele>325.0</ele>
                <time>2020-08-21T13:37:09.000Z</time>
                <name>Trackpoint 2889</name>
            </trkpt>
            <trkpt lat="49.9685792" lon="11.5347568">
                <ele>325.0</ele>
                <time>2020-08-21T13:37:11.000Z</time>
                <name>Trackpoint 2890</name>
            </trkpt>
            <trkpt lat="49.9686848" lon="11.5347704">
                <ele>325.0</ele>
                <time>2020-08-21T13:37:13.000Z</time>
                <name>Trackpoint 2891</name>
            </trkpt>
            <trkpt lat="49.9687744" lon="11.5347544">
                <ele>325.0</ele>
                <time>2020-08-21T13:37:15.000Z</time>
                <name>Trackpoint 2892</name>
            </trkpt>
            <trkpt lat="49.9688736" lon="11.534712">
                <ele>325.0</ele>
                <time>2020-08-21T13:37:17.000Z</time>
                <name>Trackpoint 2893</name>
            </trkpt>
            <trkpt lat="49.9689632" lon="11.5346248">
                <ele>325.0</ele>
                <time>2020-08-21T13:37:19.000Z</time>
                <name>Trackpoint 2894</name>
            </trkpt>
            <trkpt lat="49.9690464" lon="11.534516">
                <ele>325.0</ele>
                <time>2020-08-21T13:37:21.000Z</time>
                <name>Trackpoint 2895</name>
            </trkpt>
            <trkpt lat="49.9691264" lon="11.5344104">
                <ele>325.0</ele>
                <time>2020-08-21T13:37:23.000Z</time>
                <name>Trackpoint 2896</name>
            </trkpt>
            <trkpt lat="49.9692" lon="11.5342928">
                <ele>325.0</ele>
                <time>2020-08-21T13:37:25.000Z</time>
                <name>Trackpoint 2897</name>
            </trkpt>
            <trkpt lat="49.9692864" lon="11.5341784">
                <ele>325.0</ele>
                <time>2020-08-21T13:37:27.000Z</time>
                <name>Trackpoint 2898</name>
            </trkpt>
            <trkpt lat="49.9693632" lon="11.5340656">
                <ele>325.0</ele>
                <time>2020-08-21T13:37:29.000Z</time>
                <name>Trackpoint 2899</name>
            </trkpt>
            <trkpt lat="49.9694432" lon="11.5339584">
                <ele>325.0</ele>
                <time>2020-08-21T13:37:31.000Z</time>
                <name>Trackpoint 2900</name>
            </trkpt>
            <trkpt lat="49.9695168" lon="11.5338496">
                <ele>325.0</ele>
                <time>2020-08-21T13:37:33.000Z</time>
                <name>Trackpoint 2901</name>
            </trkpt>
            <trkpt lat="49.9695936" lon="11.5337448">
                <ele>325.0</ele>
                <time>2020-08-21T13:37:35.000Z</time>
                <name>Trackpoint 2902</name>
            </trkpt>
            <trkpt lat="49.9696608" lon="11.5336536">
                <ele>325.0</ele>
                <time>2020-08-21T13:37:37.000Z</time>
                <name>Trackpoint 2903</name>
            </trkpt>
            <trkpt lat="49.969728" lon="11.5335568">
                <ele>325.0</ele>
                <time>2020-08-21T13:37:39.000Z</time>
                <name>Trackpoint 2904</name>
            </trkpt>
            <trkpt lat="49.9697792" lon="11.5334528">
                <ele>325.0</ele>
                <time>2020-08-21T13:37:41.000Z</time>
                <name>Trackpoint 2905</name>
            </trkpt>
            <trkpt lat="49.9698176" lon="11.5333456">
                <ele>325.0</ele>
                <time>2020-08-21T13:37:43.000Z</time>
                <name>Trackpoint 2906</name>
            </trkpt>
            <trkpt lat="49.969856" lon="11.5332232">
                <ele>325.0</ele>
                <time>2020-08-21T13:37:45.000Z</time>
                <name>Trackpoint 2907</name>
            </trkpt>
            <trkpt lat="49.969872" lon="11.5331296">
                <ele>325.0</ele>
                <time>2020-08-21T13:37:47.000Z</time>
                <name>Trackpoint 2908</name>
            </trkpt>
            <trkpt lat="49.9698752" lon="11.5330136">
                <ele>325.0</ele>
                <time>2020-08-21T13:38:05.000Z</time>
                <name>Trackpoint 2909</name>
            </trkpt>
            <trkpt lat="49.9698592" lon="11.5329168">
                <ele>325.0</ele>
                <time>2020-08-21T13:38:08.000Z</time>
                <name>Trackpoint 2910</name>
            </trkpt>
            <trkpt lat="49.9698528" lon="11.5328016">
                <ele>325.0</ele>
                <time>2020-08-21T13:38:12.000Z</time>
                <name>Trackpoint 2911</name>
            </trkpt>
            <trkpt lat="49.9698976" lon="11.5326968">
                <ele>325.0</ele>
                <time>2020-08-21T13:38:15.000Z</time>
                <name>Trackpoint 2912</name>
            </trkpt>
            <trkpt lat="49.9699712" lon="11.5325896">
                <ele>325.0</ele>
                <time>2020-08-21T13:38:18.000Z</time>
                <name>Trackpoint 2913</name>
            </trkpt>
            <trkpt lat="49.9700288" lon="11.5325">
                <ele>325.0</ele>
                <time>2020-08-21T13:38:20.000Z</time>
                <name>Trackpoint 2914</name>
            </trkpt>
            <trkpt lat="49.9700896" lon="11.5324152">
                <ele>325.0</ele>
                <time>2020-08-21T13:38:22.000Z</time>
                <name>Trackpoint 2915</name>
            </trkpt>
            <trkpt lat="49.9701568" lon="11.5323384">
                <ele>325.0</ele>
                <time>2020-08-21T13:38:24.000Z</time>
                <name>Trackpoint 2916</name>
            </trkpt>
            <trkpt lat="49.9702368" lon="11.5322448">
                <ele>325.0</ele>
                <time>2020-08-21T13:38:26.000Z</time>
                <name>Trackpoint 2917</name>
            </trkpt>
            <trkpt lat="49.9703136" lon="11.5321352">
                <ele>325.0</ele>
                <time>2020-08-21T13:38:28.000Z</time>
                <name>Trackpoint 2918</name>
            </trkpt>
            <trkpt lat="49.9703904" lon="11.532028">
                <ele>325.0</ele>
                <time>2020-08-21T13:38:30.000Z</time>
                <name>Trackpoint 2919</name>
            </trkpt>
            <trkpt lat="49.9704704" lon="11.5319208">
                <ele>325.0</ele>
                <time>2020-08-21T13:38:32.000Z</time>
                <name>Trackpoint 2920</name>
            </trkpt>
            <trkpt lat="49.9705504" lon="11.5318048">
                <ele>325.0</ele>
                <time>2020-08-21T13:38:34.000Z</time>
                <name>Trackpoint 2921</name>
            </trkpt>
            <trkpt lat="49.970624" lon="11.5317024">
                <ele>325.0</ele>
                <time>2020-08-21T13:38:36.000Z</time>
                <name>Trackpoint 2922</name>
            </trkpt>
            <trkpt lat="49.9706912" lon="11.5316032">
                <ele>325.0</ele>
                <time>2020-08-21T13:38:38.000Z</time>
                <name>Trackpoint 2923</name>
            </trkpt>
            <trkpt lat="49.9707712" lon="11.5315112">
                <ele>325.0</ele>
                <time>2020-08-21T13:38:40.000Z</time>
                <name>Trackpoint 2924</name>
            </trkpt>
            <trkpt lat="49.970848" lon="11.5314152">
                <ele>325.0</ele>
                <time>2020-08-21T13:38:42.000Z</time>
                <name>Trackpoint 2925</name>
            </trkpt>
            <trkpt lat="49.970928" lon="11.5313152">
                <ele>325.0</ele>
                <time>2020-08-21T13:38:44.000Z</time>
                <name>Trackpoint 2926</name>
            </trkpt>
            <trkpt lat="49.9710112" lon="11.5312144">
                <ele>324.0</ele>
                <time>2020-08-21T13:38:46.000Z</time>
                <name>Trackpoint 2927</name>
            </trkpt>
            <trkpt lat="49.9710976" lon="11.5311072">
                <ele>324.0</ele>
                <time>2020-08-21T13:38:48.000Z</time>
                <name>Trackpoint 2928</name>
            </trkpt>
            <trkpt lat="49.9711808" lon="11.5310088">
                <ele>324.0</ele>
                <time>2020-08-21T13:38:50.000Z</time>
                <name>Trackpoint 2929</name>
            </trkpt>
            <trkpt lat="49.9712608" lon="11.5309064">
                <ele>323.0</ele>
                <time>2020-08-21T13:38:52.000Z</time>
                <name>Trackpoint 2930</name>
            </trkpt>
            <trkpt lat="49.9713408" lon="11.5308064">
                <ele>323.0</ele>
                <time>2020-08-21T13:38:54.000Z</time>
                <name>Trackpoint 2931</name>
            </trkpt>
            <trkpt lat="49.9714176" lon="11.5307128">
                <ele>323.0</ele>
                <time>2020-08-21T13:38:56.000Z</time>
                <name>Trackpoint 2932</name>
            </trkpt>
            <trkpt lat="49.971488" lon="11.5306232">
                <ele>323.0</ele>
                <time>2020-08-21T13:38:58.000Z</time>
                <name>Trackpoint 2933</name>
            </trkpt>
            <trkpt lat="49.9715552" lon="11.5305456">
                <ele>323.0</ele>
                <time>2020-08-21T13:39:00.000Z</time>
                <name>Trackpoint 2934</name>
            </trkpt>
            <trkpt lat="49.971616" lon="11.530468">
                <ele>323.0</ele>
                <time>2020-08-21T13:39:02.000Z</time>
                <name>Trackpoint 2935</name>
            </trkpt>
            <trkpt lat="49.971664" lon="11.5303896">
                <ele>323.0</ele>
                <time>2020-08-21T13:39:04.000Z</time>
                <name>Trackpoint 2936</name>
            </trkpt>
            <trkpt lat="49.9717216" lon="11.5303096">
                <ele>324.0</ele>
                <time>2020-08-21T13:39:07.000Z</time>
                <name>Trackpoint 2937</name>
            </trkpt>
            <trkpt lat="49.9717792" lon="11.5302264">
                <ele>324.0</ele>
                <time>2020-08-21T13:39:10.000Z</time>
                <name>Trackpoint 2938</name>
            </trkpt>
            <trkpt lat="49.9718656" lon="11.5301288">
                <ele>324.0</ele>
                <time>2020-08-21T13:39:13.000Z</time>
                <name>Trackpoint 2939</name>
            </trkpt>
            <trkpt lat="49.9719552" lon="11.5300464">
                <ele>324.0</ele>
                <time>2020-08-21T13:39:16.000Z</time>
                <name>Trackpoint 2940</name>
            </trkpt>
            <trkpt lat="49.9720384" lon="11.529952">
                <ele>324.0</ele>
                <time>2020-08-21T13:39:19.000Z</time>
                <name>Trackpoint 2941</name>
            </trkpt>
            <trkpt lat="49.9720928" lon="11.5298656">
                <ele>324.0</ele>
                <time>2020-08-21T13:39:21.000Z</time>
                <name>Trackpoint 2942</name>
            </trkpt>
            <trkpt lat="49.9721504" lon="11.5297472">
                <ele>324.0</ele>
                <time>2020-08-21T13:39:23.000Z</time>
                <name>Trackpoint 2943</name>
            </trkpt>
            <trkpt lat="49.9722112" lon="11.5296488">
                <ele>324.0</ele>
                <time>2020-08-21T13:39:25.000Z</time>
                <name>Trackpoint 2944</name>
            </trkpt>
            <trkpt lat="49.9722624" lon="11.5295264">
                <ele>324.0</ele>
                <time>2020-08-21T13:39:27.000Z</time>
                <name>Trackpoint 2945</name>
            </trkpt>
            <trkpt lat="49.9723168" lon="11.5294048">
                <ele>324.0</ele>
                <time>2020-08-21T13:39:29.000Z</time>
                <name>Trackpoint 2946</name>
            </trkpt>
            <trkpt lat="49.9723712" lon="11.529268">
                <ele>324.0</ele>
                <time>2020-08-21T13:39:31.000Z</time>
                <name>Trackpoint 2947</name>
            </trkpt>
            <trkpt lat="49.9724128" lon="11.529188">
                <ele>324.0</ele>
                <time>2020-08-21T13:39:32.000Z</time>
                <name>Trackpoint 2948</name>
            </trkpt>
            <trkpt lat="49.972448" lon="11.5291032">
                <ele>324.0</ele>
                <time>2020-08-21T13:39:33.000Z</time>
                <name>Trackpoint 2949</name>
            </trkpt>
            <trkpt lat="49.9725152" lon="11.528936">
                <ele>324.0</ele>
                <time>2020-08-21T13:39:35.000Z</time>
                <name>Trackpoint 2950</name>
            </trkpt>
            <trkpt lat="49.9725728" lon="11.528784">
                <ele>324.0</ele>
                <time>2020-08-21T13:39:37.000Z</time>
                <name>Trackpoint 2951</name>
            </trkpt>
            <trkpt lat="49.9726304" lon="11.5286328">
                <ele>324.0</ele>
                <time>2020-08-21T13:39:39.000Z</time>
                <name>Trackpoint 2952</name>
            </trkpt>
            <trkpt lat="49.972688" lon="11.5284768">
                <ele>324.0</ele>
                <time>2020-08-21T13:39:41.000Z</time>
                <name>Trackpoint 2953</name>
            </trkpt>
            <trkpt lat="49.972752" lon="11.5283096">
                <ele>324.0</ele>
                <time>2020-08-21T13:39:43.000Z</time>
                <name>Trackpoint 2954</name>
            </trkpt>
            <trkpt lat="49.9728192" lon="11.5281832">
                <ele>324.0</ele>
                <time>2020-08-21T13:39:45.000Z</time>
                <name>Trackpoint 2955</name>
            </trkpt>
            <trkpt lat="49.9728768" lon="11.5280568">
                <ele>324.0</ele>
                <time>2020-08-21T13:39:47.000Z</time>
                <name>Trackpoint 2956</name>
            </trkpt>
            <trkpt lat="49.9729472" lon="11.5279232">
                <ele>324.0</ele>
                <time>2020-08-21T13:39:49.000Z</time>
                <name>Trackpoint 2957</name>
            </trkpt>
            <trkpt lat="49.9730144" lon="11.5277952">
                <ele>324.0</ele>
                <time>2020-08-21T13:39:51.000Z</time>
                <name>Trackpoint 2958</name>
            </trkpt>
            <trkpt lat="49.9730976" lon="11.5276648">
                <ele>324.0</ele>
                <time>2020-08-21T13:39:53.000Z</time>
                <name>Trackpoint 2959</name>
            </trkpt>
            <trkpt lat="49.9731936" lon="11.5275288">
                <ele>325.0</ele>
                <time>2020-08-21T13:39:55.000Z</time>
                <name>Trackpoint 2960</name>
            </trkpt>
            <trkpt lat="49.9732864" lon="11.5273984">
                <ele>325.0</ele>
                <time>2020-08-21T13:39:57.000Z</time>
                <name>Trackpoint 2961</name>
            </trkpt>
            <trkpt lat="49.9733856" lon="11.527264">
                <ele>325.0</ele>
                <time>2020-08-21T13:39:59.000Z</time>
                <name>Trackpoint 2962</name>
            </trkpt>
            <trkpt lat="49.9734752" lon="11.5271384">
                <ele>325.0</ele>
                <time>2020-08-21T13:40:01.000Z</time>
                <name>Trackpoint 2963</name>
            </trkpt>
            <trkpt lat="49.9735744" lon="11.5270168">
                <ele>325.0</ele>
                <time>2020-08-21T13:40:03.000Z</time>
                <name>Trackpoint 2964</name>
            </trkpt>
            <trkpt lat="49.9736832" lon="11.526892">
                <ele>325.0</ele>
                <time>2020-08-21T13:40:05.000Z</time>
                <name>Trackpoint 2965</name>
            </trkpt>
            <trkpt lat="49.9737856" lon="11.5267648">
                <ele>325.0</ele>
                <time>2020-08-21T13:40:07.000Z</time>
                <name>Trackpoint 2966</name>
            </trkpt>
            <trkpt lat="49.973888" lon="11.5266448">
                <ele>325.0</ele>
                <time>2020-08-21T13:40:09.000Z</time>
                <name>Trackpoint 2967</name>
            </trkpt>
            <trkpt lat="49.9739872" lon="11.52652">
                <ele>325.0</ele>
                <time>2020-08-21T13:40:11.000Z</time>
                <name>Trackpoint 2968</name>
            </trkpt>
            <trkpt lat="49.9740768" lon="11.5264104">
                <ele>325.0</ele>
                <time>2020-08-21T13:40:13.000Z</time>
                <name>Trackpoint 2969</name>
            </trkpt>
            <trkpt lat="49.97416" lon="11.5263048">
                <ele>325.0</ele>
                <time>2020-08-21T13:40:15.000Z</time>
                <name>Trackpoint 2970</name>
            </trkpt>
            <trkpt lat="49.9741696" lon="11.5261784">
                <ele>324.0</ele>
                <time>2020-08-21T13:40:17.000Z</time>
                <name>Trackpoint 2971</name>
            </trkpt>
            <trkpt lat="49.97416" lon="11.5260848">
                <ele>324.0</ele>
                <time>2020-08-21T13:40:19.000Z</time>
                <name>Trackpoint 2972</name>
            </trkpt>
            <trkpt lat="49.9741504" lon="11.52598">
                <ele>325.0</ele>
                <time>2020-08-21T13:40:22.000Z</time>
                <name>Trackpoint 2973</name>
            </trkpt>
            <trkpt lat="49.974208" lon="11.5258712">
                <ele>325.0</ele>
                <time>2020-08-21T13:40:25.000Z</time>
                <name>Trackpoint 2974</name>
            </trkpt>
            <trkpt lat="49.9742624" lon="11.5257784">
                <ele>325.0</ele>
                <time>2020-08-21T13:40:27.000Z</time>
                <name>Trackpoint 2975</name>
            </trkpt>
            <trkpt lat="49.9743296" lon="11.5256904">
                <ele>325.0</ele>
                <time>2020-08-21T13:40:29.000Z</time>
                <name>Trackpoint 2976</name>
            </trkpt>
            <trkpt lat="49.9744032" lon="11.5255808">
                <ele>324.0</ele>
                <time>2020-08-21T13:40:31.000Z</time>
                <name>Trackpoint 2977</name>
            </trkpt>
            <trkpt lat="49.9744832" lon="11.5254672">
                <ele>324.0</ele>
                <time>2020-08-21T13:40:33.000Z</time>
                <name>Trackpoint 2978</name>
            </trkpt>
            <trkpt lat="49.9745728" lon="11.5253512">
                <ele>325.0</ele>
                <time>2020-08-21T13:40:35.000Z</time>
                <name>Trackpoint 2979</name>
            </trkpt>
            <trkpt lat="49.9746592" lon="11.525224">
                <ele>325.0</ele>
                <time>2020-08-21T13:40:37.000Z</time>
                <name>Trackpoint 2980</name>
            </trkpt>
            <trkpt lat="49.9747392" lon="11.5250904">
                <ele>325.0</ele>
                <time>2020-08-21T13:40:39.000Z</time>
                <name>Trackpoint 2981</name>
            </trkpt>
            <trkpt lat="49.9748384" lon="11.5249728">
                <ele>325.0</ele>
                <time>2020-08-21T13:40:41.000Z</time>
                <name>Trackpoint 2982</name>
            </trkpt>
            <trkpt lat="49.9749216" lon="11.5248448">
                <ele>325.0</ele>
                <time>2020-08-21T13:40:43.000Z</time>
                <name>Trackpoint 2983</name>
            </trkpt>
            <trkpt lat="49.9750112" lon="11.5247048">
                <ele>325.0</ele>
                <time>2020-08-21T13:40:45.000Z</time>
                <name>Trackpoint 2984</name>
            </trkpt>
            <trkpt lat="49.9750944" lon="11.5245704">
                <ele>325.0</ele>
                <time>2020-08-21T13:40:47.000Z</time>
                <name>Trackpoint 2985</name>
            </trkpt>
            <trkpt lat="49.9751744" lon="11.5244328">
                <ele>325.0</ele>
                <time>2020-08-21T13:40:49.000Z</time>
                <name>Trackpoint 2986</name>
            </trkpt>
            <trkpt lat="49.9752352" lon="11.5242792">
                <ele>325.0</ele>
                <time>2020-08-21T13:40:51.000Z</time>
                <name>Trackpoint 2987</name>
            </trkpt>
            <trkpt lat="49.9753216" lon="11.5241472">
                <ele>325.0</ele>
                <time>2020-08-21T13:40:53.000Z</time>
                <name>Trackpoint 2988</name>
            </trkpt>
            <trkpt lat="49.9754144" lon="11.5240184">
                <ele>325.0</ele>
                <time>2020-08-21T13:40:55.000Z</time>
                <name>Trackpoint 2989</name>
            </trkpt>
            <trkpt lat="49.9755008" lon="11.5239112">
                <ele>326.0</ele>
                <time>2020-08-21T13:40:57.000Z</time>
                <name>Trackpoint 2990</name>
            </trkpt>
            <trkpt lat="49.9755904" lon="11.5237904">
                <ele>326.0</ele>
                <time>2020-08-21T13:40:59.000Z</time>
                <name>Trackpoint 2991</name>
            </trkpt>
            <trkpt lat="49.9756896" lon="11.5236568">
                <ele>326.0</ele>
                <time>2020-08-21T13:41:01.000Z</time>
                <name>Trackpoint 2992</name>
            </trkpt>
            <trkpt lat="49.9757792" lon="11.523508">
                <ele>326.0</ele>
                <time>2020-08-21T13:41:03.000Z</time>
                <name>Trackpoint 2993</name>
            </trkpt>
            <trkpt lat="49.9758752" lon="11.5233584">
                <ele>326.0</ele>
                <time>2020-08-21T13:41:05.000Z</time>
                <name>Trackpoint 2994</name>
            </trkpt>
            <trkpt lat="49.9759776" lon="11.5232296">
                <ele>326.0</ele>
                <time>2020-08-21T13:41:07.000Z</time>
                <name>Trackpoint 2995</name>
            </trkpt>
            <trkpt lat="49.9760288" lon="11.5231552">
                <ele>326.0</ele>
                <time>2020-08-21T13:41:08.000Z</time>
                <name>Trackpoint 2996</name>
            </trkpt>
            <trkpt lat="49.976144" lon="11.523028">
                <ele>326.0</ele>
                <time>2020-08-21T13:41:10.000Z</time>
                <name>Trackpoint 2997</name>
            </trkpt>
            <trkpt lat="49.9762016" lon="11.522952">
                <ele>326.0</ele>
                <time>2020-08-21T13:41:11.000Z</time>
                <name>Trackpoint 2998</name>
            </trkpt>
            <trkpt lat="49.9763136" lon="11.5228216">
                <ele>326.0</ele>
                <time>2020-08-21T13:41:13.000Z</time>
                <name>Trackpoint 2999</name>
            </trkpt>
            <trkpt lat="49.9763744" lon="11.522748">
                <ele>326.0</ele>
                <time>2020-08-21T13:41:14.000Z</time>
                <name>Trackpoint 3000</name>
            </trkpt>
            <trkpt lat="49.9764928" lon="11.5226352">
                <ele>326.0</ele>
                <time>2020-08-21T13:41:16.000Z</time>
                <name>Trackpoint 3001</name>
            </trkpt>
            <trkpt lat="49.9766112" lon="11.5225296">
                <ele>326.0</ele>
                <time>2020-08-21T13:41:18.000Z</time>
                <name>Trackpoint 3002</name>
            </trkpt>
            <trkpt lat="49.9767296" lon="11.5224352">
                <ele>326.0</ele>
                <time>2020-08-21T13:41:20.000Z</time>
                <name>Trackpoint 3003</name>
            </trkpt>
            <trkpt lat="49.9768608" lon="11.5223304">
                <ele>325.0</ele>
                <time>2020-08-21T13:41:22.000Z</time>
                <name>Trackpoint 3004</name>
            </trkpt>
            <trkpt lat="49.976992" lon="11.5222552">
                <ele>325.0</ele>
                <time>2020-08-21T13:41:24.000Z</time>
                <name>Trackpoint 3005</name>
            </trkpt>
            <trkpt lat="49.9771232" lon="11.5221864">
                <ele>325.0</ele>
                <time>2020-08-21T13:41:26.000Z</time>
                <name>Trackpoint 3006</name>
            </trkpt>
            <trkpt lat="49.9772544" lon="11.5221232">
                <ele>325.0</ele>
                <time>2020-08-21T13:41:28.000Z</time>
                <name>Trackpoint 3007</name>
            </trkpt>
            <trkpt lat="49.9773824" lon="11.5220648">
                <ele>325.0</ele>
                <time>2020-08-21T13:41:30.000Z</time>
                <name>Trackpoint 3008</name>
            </trkpt>
            <trkpt lat="49.9775072" lon="11.522012">
                <ele>325.0</ele>
                <time>2020-08-21T13:41:32.000Z</time>
                <name>Trackpoint 3009</name>
            </trkpt>
            <trkpt lat="49.9776256" lon="11.5219544">
                <ele>325.0</ele>
                <time>2020-08-21T13:41:34.000Z</time>
                <name>Trackpoint 3010</name>
            </trkpt>
            <trkpt lat="49.9777344" lon="11.5219032">
                <ele>325.0</ele>
                <time>2020-08-21T13:41:36.000Z</time>
                <name>Trackpoint 3011</name>
            </trkpt>
            <trkpt lat="49.977824" lon="11.52188">
                <ele>325.0</ele>
                <time>2020-08-21T13:41:38.000Z</time>
                <name>Trackpoint 3012</name>
            </trkpt>
            <trkpt lat="49.9779168" lon="11.5219536">
                <ele>325.0</ele>
                <time>2020-08-21T13:41:41.000Z</time>
                <name>Trackpoint 3013</name>
            </trkpt>
            <trkpt lat="49.977952" lon="11.5220584">
                <ele>325.0</ele>
                <time>2020-08-21T13:41:43.000Z</time>
                <name>Trackpoint 3014</name>
            </trkpt>
            <trkpt lat="49.9780096" lon="11.522132">
                <ele>325.0</ele>
                <time>2020-08-21T13:41:45.000Z</time>
                <name>Trackpoint 3015</name>
            </trkpt>
            <trkpt lat="49.9781312" lon="11.5220896">
                <ele>325.0</ele>
                <time>2020-08-21T13:41:48.000Z</time>
                <name>Trackpoint 3016</name>
            </trkpt>
            <trkpt lat="49.9781792" lon="11.5219568">
                <ele>325.0</ele>
                <time>2020-08-21T13:41:50.000Z</time>
                <name>Trackpoint 3017</name>
            </trkpt>
            <trkpt lat="49.9782208" lon="11.5218152">
                <ele>324.0</ele>
                <time>2020-08-21T13:41:52.000Z</time>
                <name>Trackpoint 3018</name>
            </trkpt>
            <trkpt lat="49.9783104" lon="11.5217264">
                <ele>325.0</ele>
                <time>2020-08-21T13:41:54.000Z</time>
                <name>Trackpoint 3019</name>
            </trkpt>
            <trkpt lat="49.9784064" lon="11.52168">
                <ele>324.0</ele>
                <time>2020-08-21T13:41:56.000Z</time>
                <name>Trackpoint 3020</name>
            </trkpt>
            <trkpt lat="49.9785184" lon="11.5216552">
                <ele>324.0</ele>
                <time>2020-08-21T13:41:58.000Z</time>
                <name>Trackpoint 3021</name>
            </trkpt>
            <trkpt lat="49.9786272" lon="11.5216112">
                <ele>324.0</ele>
                <time>2020-08-21T13:42:00.000Z</time>
                <name>Trackpoint 3022</name>
            </trkpt>
            <trkpt lat="49.9787296" lon="11.521572">
                <ele>323.0</ele>
                <time>2020-08-21T13:42:02.000Z</time>
                <name>Trackpoint 3023</name>
            </trkpt>
            <trkpt lat="49.9788352" lon="11.5215416">
                <ele>323.0</ele>
                <time>2020-08-21T13:42:04.000Z</time>
                <name>Trackpoint 3024</name>
            </trkpt>
            <trkpt lat="49.9789344" lon="11.5214784">
                <ele>323.0</ele>
                <time>2020-08-21T13:42:06.000Z</time>
                <name>Trackpoint 3025</name>
            </trkpt>
            <trkpt lat="49.9790272" lon="11.5213784">
                <ele>323.0</ele>
                <time>2020-08-21T13:42:08.000Z</time>
                <name>Trackpoint 3026</name>
            </trkpt>
            <trkpt lat="49.9791072" lon="11.5212672">
                <ele>322.0</ele>
                <time>2020-08-21T13:42:10.000Z</time>
                <name>Trackpoint 3027</name>
            </trkpt>
            <trkpt lat="49.9791744" lon="11.5211784">
                <ele>323.0</ele>
                <time>2020-08-21T13:42:12.000Z</time>
                <name>Trackpoint 3028</name>
            </trkpt>
            <trkpt lat="49.9792352" lon="11.5211064">
                <ele>323.0</ele>
                <time>2020-08-21T13:42:14.000Z</time>
                <name>Trackpoint 3029</name>
            </trkpt>
            <trkpt lat="49.9793152" lon="11.5210152">
                <ele>323.0</ele>
                <time>2020-08-21T13:42:17.000Z</time>
                <name>Trackpoint 3030</name>
            </trkpt>
            <trkpt lat="49.9793888" lon="11.520928">
                <ele>324.0</ele>
                <time>2020-08-21T13:42:20.000Z</time>
                <name>Trackpoint 3031</name>
            </trkpt>
            <trkpt lat="49.9794688" lon="11.5208616">
                <ele>324.0</ele>
                <time>2020-08-21T13:42:23.000Z</time>
                <name>Trackpoint 3032</name>
            </trkpt>
            <trkpt lat="49.9795584" lon="11.520828">
                <ele>325.0</ele>
                <time>2020-08-21T13:42:26.000Z</time>
                <name>Trackpoint 3033</name>
            </trkpt>
            <trkpt lat="49.9796512" lon="11.5208464">
                <ele>325.0</ele>
                <time>2020-08-21T13:42:30.000Z</time>
                <name>Trackpoint 3034</name>
            </trkpt>
            <trkpt lat="49.9797504" lon="11.5208528">
                <ele>325.0</ele>
                <time>2020-08-21T13:42:35.000Z</time>
                <name>Trackpoint 3035</name>
            </trkpt>
            <trkpt lat="49.9798112" lon="11.5207656">
                <ele>325.0</ele>
                <time>2020-08-21T13:42:39.000Z</time>
                <name>Trackpoint 3036</name>
            </trkpt>
            <trkpt lat="49.9797664" lon="11.5206648">
                <ele>325.0</ele>
                <time>2020-08-21T13:42:44.000Z</time>
                <name>Trackpoint 3037</name>
            </trkpt>
            <trkpt lat="49.9797376" lon="11.5205584">
                <ele>326.0</ele>
                <time>2020-08-21T13:42:47.000Z</time>
                <name>Trackpoint 3038</name>
            </trkpt>
            <trkpt lat="49.9797664" lon="11.5204432">
                <ele>326.0</ele>
                <time>2020-08-21T13:42:50.000Z</time>
                <name>Trackpoint 3039</name>
            </trkpt>
            <trkpt lat="49.979824" lon="11.5203712">
                <ele>327.0</ele>
                <time>2020-08-21T13:43:40.000Z</time>
                <name>Trackpoint 3040</name>
            </trkpt>
            <trkpt lat="49.979744" lon="11.5203048">
                <ele>327.0</ele>
                <time>2020-08-21T13:44:21.000Z</time>
                <name>Trackpoint 3041</name>
            </trkpt>
            <trkpt lat="49.9796864" lon="11.5202264">
                <ele>327.0</ele>
                <time>2020-08-21T13:44:24.000Z</time>
                <name>Trackpoint 3042</name>
            </trkpt>
            <trkpt lat="49.9795936" lon="11.520168">
                <ele>326.0</ele>
                <time>2020-08-21T13:44:28.000Z</time>
                <name>Trackpoint 3043</name>
            </trkpt>
            <trkpt lat="49.97952" lon="11.520112">
                <ele>326.0</ele>
                <time>2020-08-21T13:44:31.000Z</time>
                <name>Trackpoint 3044</name>
            </trkpt>
            <trkpt lat="49.9794272" lon="11.5200168">
                <ele>324.0</ele>
                <time>2020-08-21T13:44:34.000Z</time>
                <name>Trackpoint 3045</name>
            </trkpt>
            <trkpt lat="49.97936" lon="11.5199072">
                <ele>323.0</ele>
                <time>2020-08-21T13:44:37.000Z</time>
                <name>Trackpoint 3046</name>
            </trkpt>
            <trkpt lat="49.979312" lon="11.5198096">
                <ele>323.0</ele>
                <time>2020-08-21T13:44:40.000Z</time>
                <name>Trackpoint 3047</name>
            </trkpt>
            <trkpt lat="49.9792832" lon="11.51972">
                <ele>323.0</ele>
                <time>2020-08-21T13:44:43.000Z</time>
                <name>Trackpoint 3048</name>
            </trkpt>
            <trkpt lat="49.9792704" lon="11.5196152">
                <ele>323.0</ele>
                <time>2020-08-21T13:45:09.000Z</time>
                <name>Trackpoint 3049</name>
            </trkpt>
            <trkpt lat="49.9792608" lon="11.519524">
                <ele>322.0</ele>
                <time>2020-08-21T13:45:13.000Z</time>
                <name>Trackpoint 3050</name>
            </trkpt>
            <trkpt lat="49.9793024" lon="11.5194328">
                <ele>322.0</ele>
                <time>2020-08-21T13:45:16.000Z</time>
                <name>Trackpoint 3051</name>
            </trkpt>
            <trkpt lat="49.9793632" lon="11.5193656">
                <ele>323.0</ele>
                <time>2020-08-21T13:45:19.000Z</time>
                <name>Trackpoint 3052</name>
            </trkpt>
            <trkpt lat="49.9794208" lon="11.5192872">
                <ele>323.0</ele>
                <time>2020-08-21T13:45:22.000Z</time>
                <name>Trackpoint 3053</name>
            </trkpt>
            <trkpt lat="49.9794816" lon="11.5192144">
                <ele>323.0</ele>
                <time>2020-08-21T13:45:25.000Z</time>
                <name>Trackpoint 3054</name>
            </trkpt>
            <trkpt lat="49.9795776" lon="11.519152">
                <ele>323.0</ele>
                <time>2020-08-21T13:45:29.000Z</time>
                <name>Trackpoint 3055</name>
            </trkpt>
            <trkpt lat="49.9796512" lon="11.5191">
                <ele>324.0</ele>
                <time>2020-08-21T13:45:33.000Z</time>
                <name>Trackpoint 3056</name>
            </trkpt>
            <trkpt lat="49.9797088" lon="11.5190248">
                <ele>325.0</ele>
                <time>2020-08-21T13:45:36.000Z</time>
                <name>Trackpoint 3057</name>
            </trkpt>
            <trkpt lat="49.979776" lon="11.5189632">
                <ele>325.0</ele>
                <time>2020-08-21T13:45:39.000Z</time>
                <name>Trackpoint 3058</name>
            </trkpt>
            <trkpt lat="49.9798432" lon="11.5188904">
                <ele>325.0</ele>
                <time>2020-08-21T13:45:42.000Z</time>
                <name>Trackpoint 3059</name>
            </trkpt>
            <trkpt lat="49.9798912" lon="11.5188128">
                <ele>325.0</ele>
                <time>2020-08-21T13:45:45.000Z</time>
                <name>Trackpoint 3060</name>
            </trkpt>
            <trkpt lat="49.9799648" lon="11.518732">
                <ele>326.0</ele>
                <time>2020-08-21T13:45:50.000Z</time>
                <name>Trackpoint 3061</name>
            </trkpt>
            <trkpt lat="49.9800224" lon="11.5186568">
                <ele>327.0</ele>
                <time>2020-08-21T13:45:54.000Z</time>
                <name>Trackpoint 3062</name>
            </trkpt>
            <trkpt lat="49.9800832" lon="11.518588">
                <ele>327.0</ele>
                <time>2020-08-21T13:45:58.000Z</time>
                <name>Trackpoint 3063</name>
            </trkpt>
            <trkpt lat="49.9801408" lon="11.5185072">
                <ele>327.0</ele>
                <time>2020-08-21T13:46:02.000Z</time>
                <name>Trackpoint 3064</name>
            </trkpt>
            <trkpt lat="49.9802048" lon="11.5184432">
                <ele>328.0</ele>
                <time>2020-08-21T13:46:06.000Z</time>
                <name>Trackpoint 3065</name>
            </trkpt>
            <trkpt lat="49.9802848" lon="11.5183464">
                <ele>328.0</ele>
                <time>2020-08-21T13:46:10.000Z</time>
                <name>Trackpoint 3066</name>
            </trkpt>
            <trkpt lat="49.980352" lon="11.5182648">
                <ele>329.0</ele>
                <time>2020-08-21T13:46:14.000Z</time>
                <name>Trackpoint 3067</name>
            </trkpt>
            <trkpt lat="49.980416" lon="11.5181904">
                <ele>329.0</ele>
                <time>2020-08-21T13:46:19.000Z</time>
                <name>Trackpoint 3068</name>
            </trkpt>
            <trkpt lat="49.9804736" lon="11.5181016">
                <ele>330.0</ele>
                <time>2020-08-21T13:46:23.000Z</time>
                <name>Trackpoint 3069</name>
            </trkpt>
            <trkpt lat="49.9805376" lon="11.5180264">
                <ele>331.0</ele>
                <time>2020-08-21T13:46:27.000Z</time>
                <name>Trackpoint 3070</name>
            </trkpt>
            <trkpt lat="49.9806048" lon="11.517948">
                <ele>331.0</ele>
                <time>2020-08-21T13:46:30.000Z</time>
                <name>Trackpoint 3071</name>
            </trkpt>
            <trkpt lat="49.9806656" lon="11.5178584">
                <ele>332.0</ele>
                <time>2020-08-21T13:46:34.000Z</time>
                <name>Trackpoint 3072</name>
            </trkpt>
            <trkpt lat="49.9807552" lon="11.517792">
                <ele>333.0</ele>
                <time>2020-08-21T13:46:38.000Z</time>
                <name>Trackpoint 3073</name>
            </trkpt>
            <trkpt lat="49.9808352" lon="11.5177272">
                <ele>334.0</ele>
                <time>2020-08-21T13:46:42.000Z</time>
                <name>Trackpoint 3074</name>
            </trkpt>
            <trkpt lat="49.9809024" lon="11.5176624">
                <ele>334.0</ele>
                <time>2020-08-21T13:46:45.000Z</time>
                <name>Trackpoint 3075</name>
            </trkpt>
            <trkpt lat="49.9809728" lon="11.5175736">
                <ele>335.0</ele>
                <time>2020-08-21T13:46:49.000Z</time>
                <name>Trackpoint 3076</name>
            </trkpt>
            <trkpt lat="49.9810208" lon="11.5174888">
                <ele>336.0</ele>
                <time>2020-08-21T13:46:52.000Z</time>
                <name>Trackpoint 3077</name>
            </trkpt>
            <trkpt lat="49.981088" lon="11.517424">
                <ele>337.0</ele>
                <time>2020-08-21T13:46:55.000Z</time>
                <name>Trackpoint 3078</name>
            </trkpt>
            <trkpt lat="49.981136" lon="11.5173432">
                <ele>338.0</ele>
                <time>2020-08-21T13:46:58.000Z</time>
                <name>Trackpoint 3079</name>
            </trkpt>
            <trkpt lat="49.9812064" lon="11.517268">
                <ele>340.0</ele>
                <time>2020-08-21T13:47:01.000Z</time>
                <name>Trackpoint 3080</name>
            </trkpt>
            <trkpt lat="49.9812736" lon="11.5171784">
                <ele>341.0</ele>
                <time>2020-08-21T13:47:04.000Z</time>
                <name>Trackpoint 3081</name>
            </trkpt>
            <trkpt lat="49.9813536" lon="11.5171144">
                <ele>343.0</ele>
                <time>2020-08-21T13:47:07.000Z</time>
                <name>Trackpoint 3082</name>
            </trkpt>
            <trkpt lat="49.9814336" lon="11.5170568">
                <ele>344.0</ele>
                <time>2020-08-21T13:47:10.000Z</time>
                <name>Trackpoint 3083</name>
            </trkpt>
            <trkpt lat="49.9815168" lon="11.5169784">
                <ele>344.0</ele>
                <time>2020-08-21T13:47:13.000Z</time>
                <name>Trackpoint 3084</name>
            </trkpt>
            <trkpt lat="49.9815872" lon="11.5168736">
                <ele>345.0</ele>
                <time>2020-08-21T13:47:16.000Z</time>
                <name>Trackpoint 3085</name>
            </trkpt>
            <trkpt lat="49.9816384" lon="11.5167952">
                <ele>345.0</ele>
                <time>2020-08-21T13:47:18.000Z</time>
                <name>Trackpoint 3086</name>
            </trkpt>
            <trkpt lat="49.9816864" lon="11.5167152">
                <ele>346.0</ele>
                <time>2020-08-21T13:47:20.000Z</time>
                <name>Trackpoint 3087</name>
            </trkpt>
            <trkpt lat="49.9817344" lon="11.5166368">
                <ele>346.0</ele>
                <time>2020-08-21T13:47:22.000Z</time>
                <name>Trackpoint 3088</name>
            </trkpt>
            <trkpt lat="49.9818112" lon="11.5165264">
                <ele>347.0</ele>
                <time>2020-08-21T13:47:25.000Z</time>
                <name>Trackpoint 3089</name>
            </trkpt>
            <trkpt lat="49.9818656" lon="11.5164496">
                <ele>347.0</ele>
                <time>2020-08-21T13:47:27.000Z</time>
                <name>Trackpoint 3090</name>
            </trkpt>
            <trkpt lat="49.9819168" lon="11.516368">
                <ele>347.0</ele>
                <time>2020-08-21T13:47:29.000Z</time>
                <name>Trackpoint 3091</name>
            </trkpt>
            <trkpt lat="49.9819808" lon="11.5162832">
                <ele>347.0</ele>
                <time>2020-08-21T13:47:31.000Z</time>
                <name>Trackpoint 3092</name>
            </trkpt>
            <trkpt lat="49.9820416" lon="11.5162">
                <ele>347.0</ele>
                <time>2020-08-21T13:47:33.000Z</time>
                <name>Trackpoint 3093</name>
            </trkpt>
            <trkpt lat="49.9821152" lon="11.5161104">
                <ele>347.0</ele>
                <time>2020-08-21T13:47:35.000Z</time>
                <name>Trackpoint 3094</name>
            </trkpt>
            <trkpt lat="49.982192" lon="11.5160152">
                <ele>346.0</ele>
                <time>2020-08-21T13:47:37.000Z</time>
                <name>Trackpoint 3095</name>
            </trkpt>
            <trkpt lat="49.9822816" lon="11.5159168">
                <ele>346.0</ele>
                <time>2020-08-21T13:47:39.000Z</time>
                <name>Trackpoint 3096</name>
            </trkpt>
            <trkpt lat="49.9823776" lon="11.5158064">
                <ele>345.0</ele>
                <time>2020-08-21T13:47:41.000Z</time>
                <name>Trackpoint 3097</name>
            </trkpt>
            <trkpt lat="49.9824864" lon="11.5156936">
                <ele>344.0</ele>
                <time>2020-08-21T13:47:43.000Z</time>
                <name>Trackpoint 3098</name>
            </trkpt>
            <trkpt lat="49.9825888" lon="11.51556">
                <ele>345.0</ele>
                <time>2020-08-21T13:47:45.000Z</time>
                <name>Trackpoint 3099</name>
            </trkpt>
            <trkpt lat="49.9826976" lon="11.5154136">
                <ele>345.0</ele>
                <time>2020-08-21T13:47:47.000Z</time>
                <name>Trackpoint 3100</name>
            </trkpt>
            <trkpt lat="49.9827488" lon="11.5153368">
                <ele>344.0</ele>
                <time>2020-08-21T13:47:48.000Z</time>
                <name>Trackpoint 3101</name>
            </trkpt>
            <trkpt lat="49.9828064" lon="11.5152568">
                <ele>344.0</ele>
                <time>2020-08-21T13:47:49.000Z</time>
                <name>Trackpoint 3102</name>
            </trkpt>
            <trkpt lat="49.982864" lon="11.51518">
                <ele>344.0</ele>
                <time>2020-08-21T13:47:50.000Z</time>
                <name>Trackpoint 3103</name>
            </trkpt>
            <trkpt lat="49.982928" lon="11.5151016">
                <ele>344.0</ele>
                <time>2020-08-21T13:47:51.000Z</time>
                <name>Trackpoint 3104</name>
            </trkpt>
            <trkpt lat="49.9829984" lon="11.515028">
                <ele>344.0</ele>
                <time>2020-08-21T13:47:52.000Z</time>
                <name>Trackpoint 3105</name>
            </trkpt>
            <trkpt lat="49.9830688" lon="11.5149568">
                <ele>344.0</ele>
                <time>2020-08-21T13:47:53.000Z</time>
                <name>Trackpoint 3106</name>
            </trkpt>
            <trkpt lat="49.983152" lon="11.5148832">
                <ele>344.0</ele>
                <time>2020-08-21T13:47:54.000Z</time>
                <name>Trackpoint 3107</name>
            </trkpt>
            <trkpt lat="49.983232" lon="11.5148032">
                <ele>344.0</ele>
                <time>2020-08-21T13:47:55.000Z</time>
                <name>Trackpoint 3108</name>
            </trkpt>
            <trkpt lat="49.9833152" lon="11.5147184">
                <ele>344.0</ele>
                <time>2020-08-21T13:47:56.000Z</time>
                <name>Trackpoint 3109</name>
            </trkpt>
            <trkpt lat="49.9833984" lon="11.5146304">
                <ele>344.0</ele>
                <time>2020-08-21T13:47:57.000Z</time>
                <name>Trackpoint 3110</name>
            </trkpt>
            <trkpt lat="49.9834848" lon="11.5145384">
                <ele>344.0</ele>
                <time>2020-08-21T13:47:58.000Z</time>
                <name>Trackpoint 3111</name>
            </trkpt>
            <trkpt lat="49.9835744" lon="11.5144432">
                <ele>343.0</ele>
                <time>2020-08-21T13:47:59.000Z</time>
                <name>Trackpoint 3112</name>
            </trkpt>
            <trkpt lat="49.9836608" lon="11.5143472">
                <ele>343.0</ele>
                <time>2020-08-21T13:48:00.000Z</time>
                <name>Trackpoint 3113</name>
            </trkpt>
            <trkpt lat="49.9837568" lon="11.514248">
                <ele>343.0</ele>
                <time>2020-08-21T13:48:01.000Z</time>
                <name>Trackpoint 3114</name>
            </trkpt>
            <trkpt lat="49.9838528" lon="11.5141552">
                <ele>342.0</ele>
                <time>2020-08-21T13:48:02.000Z</time>
                <name>Trackpoint 3115</name>
            </trkpt>
            <trkpt lat="49.9839488" lon="11.5140616">
                <ele>342.0</ele>
                <time>2020-08-21T13:48:03.000Z</time>
                <name>Trackpoint 3116</name>
            </trkpt>
            <trkpt lat="49.9840384" lon="11.513964">
                <ele>342.0</ele>
                <time>2020-08-21T13:48:04.000Z</time>
                <name>Trackpoint 3117</name>
            </trkpt>
            <trkpt lat="49.9841312" lon="11.513868">
                <ele>341.0</ele>
                <time>2020-08-21T13:48:05.000Z</time>
                <name>Trackpoint 3118</name>
            </trkpt>
            <trkpt lat="49.984224" lon="11.513772">
                <ele>340.0</ele>
                <time>2020-08-21T13:48:06.000Z</time>
                <name>Trackpoint 3119</name>
            </trkpt>
            <trkpt lat="49.9843168" lon="11.5136768">
                <ele>340.0</ele>
                <time>2020-08-21T13:48:07.000Z</time>
                <name>Trackpoint 3120</name>
            </trkpt>
            <trkpt lat="49.9844096" lon="11.5135848">
                <ele>340.0</ele>
                <time>2020-08-21T13:48:08.000Z</time>
                <name>Trackpoint 3121</name>
            </trkpt>
            <trkpt lat="49.9845024" lon="11.5134936">
                <ele>339.0</ele>
                <time>2020-08-21T13:48:09.000Z</time>
                <name>Trackpoint 3122</name>
            </trkpt>
            <trkpt lat="49.9845888" lon="11.5134032">
                <ele>338.0</ele>
                <time>2020-08-21T13:48:10.000Z</time>
                <name>Trackpoint 3123</name>
            </trkpt>
            <trkpt lat="49.9846816" lon="11.5133168">
                <ele>337.0</ele>
                <time>2020-08-21T13:48:11.000Z</time>
                <name>Trackpoint 3124</name>
            </trkpt>
            <trkpt lat="49.9847648" lon="11.5132328">
                <ele>336.0</ele>
                <time>2020-08-21T13:48:12.000Z</time>
                <name>Trackpoint 3125</name>
            </trkpt>
            <trkpt lat="49.984848" lon="11.5131552">
                <ele>336.0</ele>
                <time>2020-08-21T13:48:13.000Z</time>
                <name>Trackpoint 3126</name>
            </trkpt>
            <trkpt lat="49.984928" lon="11.5130784">
                <ele>335.0</ele>
                <time>2020-08-21T13:48:14.000Z</time>
                <name>Trackpoint 3127</name>
            </trkpt>
            <trkpt lat="49.9850016" lon="11.5130064">
                <ele>334.0</ele>
                <time>2020-08-21T13:48:15.000Z</time>
                <name>Trackpoint 3128</name>
            </trkpt>
            <trkpt lat="49.9850688" lon="11.5129336">
                <ele>336.0</ele>
                <time>2020-08-21T13:48:16.000Z</time>
                <name>Trackpoint 3129</name>
            </trkpt>
            <trkpt lat="49.98512" lon="11.5128472">
                <ele>336.0</ele>
                <time>2020-08-21T13:48:17.000Z</time>
                <name>Trackpoint 3130</name>
            </trkpt>
            <trkpt lat="49.9851424" lon="11.512756">
                <ele>334.0</ele>
                <time>2020-08-21T13:48:18.000Z</time>
                <name>Trackpoint 3131</name>
            </trkpt>
            <trkpt lat="49.98512" lon="11.5125952">
                <ele>334.0</ele>
                <time>2020-08-21T13:48:20.000Z</time>
                <name>Trackpoint 3132</name>
            </trkpt>
            <trkpt lat="49.985088" lon="11.5124704">
                <ele>333.0</ele>
                <time>2020-08-21T13:48:22.000Z</time>
                <name>Trackpoint 3133</name>
            </trkpt>
            <trkpt lat="49.9850528" lon="11.512348">
                <ele>333.0</ele>
                <time>2020-08-21T13:48:24.000Z</time>
                <name>Trackpoint 3134</name>
            </trkpt>
            <trkpt lat="49.9850272" lon="11.5122248">
                <ele>332.0</ele>
                <time>2020-08-21T13:48:26.000Z</time>
                <name>Trackpoint 3135</name>
            </trkpt>
            <trkpt lat="49.9850208" lon="11.5121216">
                <ele>332.0</ele>
                <time>2020-08-21T13:48:28.000Z</time>
                <name>Trackpoint 3136</name>
            </trkpt>
            <trkpt lat="49.9850784" lon="11.5119952">
                <ele>332.0</ele>
                <time>2020-08-21T13:48:31.000Z</time>
                <name>Trackpoint 3137</name>
            </trkpt>
            <trkpt lat="49.9851584" lon="11.5119512">
                <ele>332.0</ele>
                <time>2020-08-21T13:48:33.000Z</time>
                <name>Trackpoint 3138</name>
            </trkpt>
            <trkpt lat="49.9852576" lon="11.5119368">
                <ele>331.0</ele>
                <time>2020-08-21T13:48:35.000Z</time>
                <name>Trackpoint 3139</name>
            </trkpt>
            <trkpt lat="49.9853792" lon="11.5119304">
                <ele>331.0</ele>
                <time>2020-08-21T13:48:38.000Z</time>
                <name>Trackpoint 3140</name>
            </trkpt>
            <trkpt lat="49.9854656" lon="11.5118488">
                <ele>331.0</ele>
                <time>2020-08-21T13:48:42.000Z</time>
                <name>Trackpoint 3141</name>
            </trkpt>
            <trkpt lat="49.9854848" lon="11.5117416">
                <ele>330.0</ele>
                <time>2020-08-21T13:48:44.000Z</time>
                <name>Trackpoint 3142</name>
            </trkpt>
            <trkpt lat="49.9855104" lon="11.5116264">
                <ele>330.0</ele>
                <time>2020-08-21T13:48:46.000Z</time>
                <name>Trackpoint 3143</name>
            </trkpt>
            <trkpt lat="49.9855232" lon="11.5115136">
                <ele>330.0</ele>
                <time>2020-08-21T13:48:48.000Z</time>
                <name>Trackpoint 3144</name>
            </trkpt>
            <trkpt lat="49.9855488" lon="11.5114">
                <ele>330.0</ele>
                <time>2020-08-21T13:48:50.000Z</time>
                <name>Trackpoint 3145</name>
            </trkpt>
            <trkpt lat="49.985568" lon="11.5112936">
                <ele>330.0</ele>
                <time>2020-08-21T13:48:52.000Z</time>
                <name>Trackpoint 3146</name>
            </trkpt>
            <trkpt lat="49.9856032" lon="11.5111736">
                <ele>329.0</ele>
                <time>2020-08-21T13:48:54.000Z</time>
                <name>Trackpoint 3147</name>
            </trkpt>
            <trkpt lat="49.9856416" lon="11.5110552">
                <ele>329.0</ele>
                <time>2020-08-21T13:48:56.000Z</time>
                <name>Trackpoint 3148</name>
            </trkpt>
            <trkpt lat="49.9856832" lon="11.5109304">
                <ele>330.0</ele>
                <time>2020-08-21T13:48:58.000Z</time>
                <name>Trackpoint 3149</name>
            </trkpt>
            <trkpt lat="49.9857344" lon="11.5108">
                <ele>330.0</ele>
                <time>2020-08-21T13:49:00.000Z</time>
                <name>Trackpoint 3150</name>
            </trkpt>
            <trkpt lat="49.9857824" lon="11.5106472">
                <ele>330.0</ele>
                <time>2020-08-21T13:49:02.000Z</time>
                <name>Trackpoint 3151</name>
            </trkpt>
            <trkpt lat="49.9858368" lon="11.5105016">
                <ele>329.0</ele>
                <time>2020-08-21T13:49:04.000Z</time>
                <name>Trackpoint 3152</name>
            </trkpt>
            <trkpt lat="49.9858976" lon="11.5103632">
                <ele>329.0</ele>
                <time>2020-08-21T13:49:06.000Z</time>
                <name>Trackpoint 3153</name>
            </trkpt>
            <trkpt lat="49.9859584" lon="11.5102184">
                <ele>329.0</ele>
                <time>2020-08-21T13:49:08.000Z</time>
                <name>Trackpoint 3154</name>
            </trkpt>
            <trkpt lat="49.986016" lon="11.5100832">
                <ele>329.0</ele>
                <time>2020-08-21T13:49:10.000Z</time>
                <name>Trackpoint 3155</name>
            </trkpt>
            <trkpt lat="49.9860736" lon="11.5099496">
                <ele>329.0</ele>
                <time>2020-08-21T13:49:12.000Z</time>
                <name>Trackpoint 3156</name>
            </trkpt>
            <trkpt lat="49.9861312" lon="11.5098064">
                <ele>329.0</ele>
                <time>2020-08-21T13:49:14.000Z</time>
                <name>Trackpoint 3157</name>
            </trkpt>
            <trkpt lat="49.9861952" lon="11.5096768">
                <ele>328.0</ele>
                <time>2020-08-21T13:49:16.000Z</time>
                <name>Trackpoint 3158</name>
            </trkpt>
            <trkpt lat="49.9862496" lon="11.5095464">
                <ele>328.0</ele>
                <time>2020-08-21T13:49:18.000Z</time>
                <name>Trackpoint 3159</name>
            </trkpt>
            <trkpt lat="49.9863168" lon="11.5094544">
                <ele>328.0</ele>
                <time>2020-08-21T13:49:20.000Z</time>
                <name>Trackpoint 3160</name>
            </trkpt>
            <trkpt lat="49.9864448" lon="11.5094656">
                <ele>328.0</ele>
                <time>2020-08-21T13:49:23.000Z</time>
                <name>Trackpoint 3161</name>
            </trkpt>
            <trkpt lat="49.9865376" lon="11.5095256">
                <ele>328.0</ele>
                <time>2020-08-21T13:49:25.000Z</time>
                <name>Trackpoint 3162</name>
            </trkpt>
            <trkpt lat="49.9866336" lon="11.5095984">
                <ele>328.0</ele>
                <time>2020-08-21T13:49:27.000Z</time>
                <name>Trackpoint 3163</name>
            </trkpt>
            <trkpt lat="49.9867392" lon="11.5096712">
                <ele>328.0</ele>
                <time>2020-08-21T13:49:29.000Z</time>
                <name>Trackpoint 3164</name>
            </trkpt>
            <trkpt lat="49.9868416" lon="11.509744">
                <ele>328.0</ele>
                <time>2020-08-21T13:49:31.000Z</time>
                <name>Trackpoint 3165</name>
            </trkpt>
            <trkpt lat="49.9869408" lon="11.5097736">
                <ele>327.0</ele>
                <time>2020-08-21T13:49:34.000Z</time>
                <name>Trackpoint 3166</name>
            </trkpt>
            <trkpt lat="49.9870528" lon="11.5097616">
                <ele>327.0</ele>
                <time>2020-08-21T13:49:38.000Z</time>
                <name>Trackpoint 3167</name>
            </trkpt>
            <trkpt lat="49.9871296" lon="11.50984">
                <ele>327.0</ele>
                <time>2020-08-21T13:49:57.000Z</time>
                <name>Trackpoint 3168</name>
            </trkpt>
            <trkpt lat="49.9871456" lon="11.5099384">
                <ele>327.0</ele>
                <time>2020-08-21T13:49:59.000Z</time>
                <name>Trackpoint 3169</name>
            </trkpt>
            <trkpt lat="49.987136" lon="11.510052">
                <ele>327.0</ele>
                <time>2020-08-21T13:50:01.000Z</time>
                <name>Trackpoint 3170</name>
            </trkpt>
            <trkpt lat="49.9871328" lon="11.5101816">
                <ele>327.0</ele>
                <time>2020-08-21T13:50:03.000Z</time>
                <name>Trackpoint 3171</name>
            </trkpt>
            <trkpt lat="49.987152" lon="11.5102864">
                <ele>328.0</ele>
                <time>2020-08-21T13:50:05.000Z</time>
                <name>Trackpoint 3172</name>
            </trkpt>
            <trkpt lat="49.9872288" lon="11.51036">
                <ele>327.0</ele>
                <time>2020-08-21T13:50:09.000Z</time>
                <name>Trackpoint 3173</name>
            </trkpt>
            <trkpt lat="49.987296" lon="11.5104352">
                <ele>326.0</ele>
                <time>2020-08-21T13:50:42.000Z</time>
                <name>Trackpoint 3174</name>
            </trkpt>
            <trkpt lat="49.9873696" lon="11.5105104">
                <ele>326.0</ele>
                <time>2020-08-21T13:50:45.000Z</time>
                <name>Trackpoint 3175</name>
            </trkpt>
            <trkpt lat="49.9874496" lon="11.5105664">
                <ele>326.0</ele>
                <time>2020-08-21T13:50:48.000Z</time>
                <name>Trackpoint 3176</name>
            </trkpt>
            <trkpt lat="49.9875168" lon="11.5106288">
                <ele>326.0</ele>
                <time>2020-08-21T13:50:50.000Z</time>
                <name>Trackpoint 3177</name>
            </trkpt>
            <trkpt lat="49.9875936" lon="11.5106968">
                <ele>326.0</ele>
                <time>2020-08-21T13:50:52.000Z</time>
                <name>Trackpoint 3178</name>
            </trkpt>
            <trkpt lat="49.9876736" lon="11.510768">
                <ele>326.0</ele>
                <time>2020-08-21T13:50:54.000Z</time>
                <name>Trackpoint 3179</name>
            </trkpt>
            <trkpt lat="49.9877728" lon="11.5108432">
                <ele>326.0</ele>
                <time>2020-08-21T13:50:57.000Z</time>
                <name>Trackpoint 3180</name>
            </trkpt>
            <trkpt lat="49.9878464" lon="11.5109056">
                <ele>326.0</ele>
                <time>2020-08-21T13:50:59.000Z</time>
                <name>Trackpoint 3181</name>
            </trkpt>
            <trkpt lat="49.9879328" lon="11.5109784">
                <ele>326.0</ele>
                <time>2020-08-21T13:51:03.000Z</time>
                <name>Trackpoint 3182</name>
            </trkpt>
            <trkpt lat="49.9880064" lon="11.5110704">
                <ele>326.0</ele>
                <time>2020-08-21T13:51:05.000Z</time>
                <name>Trackpoint 3183</name>
            </trkpt>
            <trkpt lat="49.9880608" lon="11.5111888">
                <ele>326.0</ele>
                <time>2020-08-21T13:51:07.000Z</time>
                <name>Trackpoint 3184</name>
            </trkpt>
            <trkpt lat="49.9881184" lon="11.5112888">
                <ele>326.0</ele>
                <time>2020-08-21T13:51:09.000Z</time>
                <name>Trackpoint 3185</name>
            </trkpt>
            <trkpt lat="49.9882016" lon="11.5113672">
                <ele>326.0</ele>
                <time>2020-08-21T13:51:12.000Z</time>
                <name>Trackpoint 3186</name>
            </trkpt>
            <trkpt lat="49.9882368" lon="11.5115184">
                <ele>325.0</ele>
                <time>2020-08-21T13:51:27.000Z</time>
                <name>Trackpoint 3187</name>
            </trkpt>
            <trkpt lat="49.988336" lon="11.5115632">
                <ele>325.0</ele>
                <time>2020-08-21T13:51:33.000Z</time>
                <name>Trackpoint 3188</name>
            </trkpt>
            <trkpt lat="49.9884352" lon="11.5116432">
                <ele>325.0</ele>
                <time>2020-08-21T13:51:36.000Z</time>
                <name>Trackpoint 3189</name>
            </trkpt>
            <trkpt lat="49.9885216" lon="11.5117304">
                <ele>325.0</ele>
                <time>2020-08-21T13:51:38.000Z</time>
                <name>Trackpoint 3190</name>
            </trkpt>
            <trkpt lat="49.9886208" lon="11.5118176">
                <ele>325.0</ele>
                <time>2020-08-21T13:51:40.000Z</time>
                <name>Trackpoint 3191</name>
            </trkpt>
            <trkpt lat="49.9887232" lon="11.5119184">
                <ele>325.0</ele>
                <time>2020-08-21T13:51:42.000Z</time>
                <name>Trackpoint 3192</name>
            </trkpt>
            <trkpt lat="49.9888352" lon="11.5120096">
                <ele>325.0</ele>
                <time>2020-08-21T13:51:44.000Z</time>
                <name>Trackpoint 3193</name>
            </trkpt>
            <trkpt lat="49.9889376" lon="11.5121088">
                <ele>325.0</ele>
                <time>2020-08-21T13:51:46.000Z</time>
                <name>Trackpoint 3194</name>
            </trkpt>
            <trkpt lat="49.9890496" lon="11.5122272">
                <ele>325.0</ele>
                <time>2020-08-21T13:51:48.000Z</time>
                <name>Trackpoint 3195</name>
            </trkpt>
            <trkpt lat="49.989152" lon="11.5123432">
                <ele>325.0</ele>
                <time>2020-08-21T13:51:50.000Z</time>
                <name>Trackpoint 3196</name>
            </trkpt>
            <trkpt lat="49.9892544" lon="11.5124768">
                <ele>325.0</ele>
                <time>2020-08-21T13:51:52.000Z</time>
                <name>Trackpoint 3197</name>
            </trkpt>
            <trkpt lat="49.9893536" lon="11.5126">
                <ele>325.0</ele>
                <time>2020-08-21T13:51:54.000Z</time>
                <name>Trackpoint 3198</name>
            </trkpt>
            <trkpt lat="49.9894624" lon="11.5127112">
                <ele>325.0</ele>
                <time>2020-08-21T13:51:56.000Z</time>
                <name>Trackpoint 3199</name>
            </trkpt>
            <trkpt lat="49.9895808" lon="11.5128088">
                <ele>325.0</ele>
                <time>2020-08-21T13:51:58.000Z</time>
                <name>Trackpoint 3200</name>
            </trkpt>
            <trkpt lat="49.9896928" lon="11.512892">
                <ele>325.0</ele>
                <time>2020-08-21T13:52:00.000Z</time>
                <name>Trackpoint 3201</name>
            </trkpt>
            <trkpt lat="49.9898048" lon="11.5129872">
                <ele>324.0</ele>
                <time>2020-08-21T13:52:02.000Z</time>
                <name>Trackpoint 3202</name>
            </trkpt>
            <trkpt lat="49.9899104" lon="11.5130864">
                <ele>324.0</ele>
                <time>2020-08-21T13:52:04.000Z</time>
                <name>Trackpoint 3203</name>
            </trkpt>
            <trkpt lat="49.9900128" lon="11.5131712">
                <ele>324.0</ele>
                <time>2020-08-21T13:52:06.000Z</time>
                <name>Trackpoint 3204</name>
            </trkpt>
            <trkpt lat="49.9901184" lon="11.5131968">
                <ele>324.0</ele>
                <time>2020-08-21T13:52:08.000Z</time>
                <name>Trackpoint 3205</name>
            </trkpt>
            <trkpt lat="49.990224" lon="11.5131464">
                <ele>324.0</ele>
                <time>2020-08-21T13:52:10.000Z</time>
                <name>Trackpoint 3206</name>
            </trkpt>
            <trkpt lat="49.9903008" lon="11.5130392">
                <ele>324.0</ele>
                <time>2020-08-21T13:52:12.000Z</time>
                <name>Trackpoint 3207</name>
            </trkpt>
            <trkpt lat="49.9903712" lon="11.5129408">
                <ele>324.0</ele>
                <time>2020-08-21T13:52:14.000Z</time>
                <name>Trackpoint 3208</name>
            </trkpt>
            <trkpt lat="49.990416" lon="11.5128048">
                <ele>324.0</ele>
                <time>2020-08-21T13:52:16.000Z</time>
                <name>Trackpoint 3209</name>
            </trkpt>
            <trkpt lat="49.9904608" lon="11.512676">
                <ele>324.0</ele>
                <time>2020-08-21T13:52:18.000Z</time>
                <name>Trackpoint 3210</name>
            </trkpt>
            <trkpt lat="49.9904896" lon="11.5125536">
                <ele>324.0</ele>
                <time>2020-08-21T13:52:20.000Z</time>
                <name>Trackpoint 3211</name>
            </trkpt>
            <trkpt lat="49.990528" lon="11.512432">
                <ele>324.0</ele>
                <time>2020-08-21T13:52:22.000Z</time>
                <name>Trackpoint 3212</name>
            </trkpt>
            <trkpt lat="49.9905728" lon="11.5123144">
                <ele>324.0</ele>
                <time>2020-08-21T13:52:24.000Z</time>
                <name>Trackpoint 3213</name>
            </trkpt>
            <trkpt lat="49.9906112" lon="11.512192">
                <ele>324.0</ele>
                <time>2020-08-21T13:52:26.000Z</time>
                <name>Trackpoint 3214</name>
            </trkpt>
            <trkpt lat="49.9906496" lon="11.5120648">
                <ele>324.0</ele>
                <time>2020-08-21T13:52:28.000Z</time>
                <name>Trackpoint 3215</name>
            </trkpt>
            <trkpt lat="49.9906848" lon="11.5119384">
                <ele>323.0</ele>
                <time>2020-08-21T13:52:30.000Z</time>
                <name>Trackpoint 3216</name>
            </trkpt>
            <trkpt lat="49.99072" lon="11.5118064">
                <ele>323.0</ele>
                <time>2020-08-21T13:52:32.000Z</time>
                <name>Trackpoint 3217</name>
            </trkpt>
            <trkpt lat="49.9907584" lon="11.51168">
                <ele>323.0</ele>
                <time>2020-08-21T13:52:34.000Z</time>
                <name>Trackpoint 3218</name>
            </trkpt>
            <trkpt lat="49.9908096" lon="11.5115768">
                <ele>323.0</ele>
                <time>2020-08-21T13:52:36.000Z</time>
                <name>Trackpoint 3219</name>
            </trkpt>
            <trkpt lat="49.9908768" lon="11.5115048">
                <ele>323.0</ele>
                <time>2020-08-21T13:52:38.000Z</time>
                <name>Trackpoint 3220</name>
            </trkpt>
            <trkpt lat="49.9909408" lon="11.5114384">
                <ele>323.0</ele>
                <time>2020-08-21T13:52:40.000Z</time>
                <name>Trackpoint 3221</name>
            </trkpt>
            <trkpt lat="49.99104" lon="11.5113752">
                <ele>323.0</ele>
                <time>2020-08-21T13:52:43.000Z</time>
                <name>Trackpoint 3222</name>
            </trkpt>
            <trkpt lat="49.9911168" lon="11.5112952">
                <ele>323.0</ele>
                <time>2020-08-21T13:52:46.000Z</time>
                <name>Trackpoint 3223</name>
            </trkpt>
            <trkpt lat="49.9912096" lon="11.5112216">
                <ele>324.0</ele>
                <time>2020-08-21T13:52:50.000Z</time>
                <name>Trackpoint 3224</name>
            </trkpt>
            <trkpt lat="49.9913056" lon="11.5111952">
                <ele>324.0</ele>
                <time>2020-08-21T13:52:53.000Z</time>
                <name>Trackpoint 3225</name>
            </trkpt>
            <trkpt lat="49.9913984" lon="11.5111712">
                <ele>324.0</ele>
                <time>2020-08-21T13:52:56.000Z</time>
                <name>Trackpoint 3226</name>
            </trkpt>
            <trkpt lat="49.991488" lon="11.5111464">
                <ele>324.0</ele>
                <time>2020-08-21T13:53:02.000Z</time>
                <name>Trackpoint 3227</name>
            </trkpt>
            <trkpt lat="49.9915808" lon="11.5111312">
                <ele>324.0</ele>
                <time>2020-08-21T13:53:14.000Z</time>
                <name>Trackpoint 3228</name>
            </trkpt>
            <trkpt lat="49.9916768" lon="11.511164">
                <ele>324.0</ele>
                <time>2020-08-21T13:53:18.000Z</time>
                <name>Trackpoint 3229</name>
            </trkpt>
            <trkpt lat="49.9917664" lon="11.5111752">
                <ele>324.0</ele>
                <time>2020-08-21T13:53:21.000Z</time>
                <name>Trackpoint 3230</name>
            </trkpt>
            <trkpt lat="49.9918624" lon="11.5111912">
                <ele>324.0</ele>
                <time>2020-08-21T13:53:24.000Z</time>
                <name>Trackpoint 3231</name>
            </trkpt>
            <trkpt lat="49.9919584" lon="11.5111616">
                <ele>324.0</ele>
                <time>2020-08-21T13:53:27.000Z</time>
                <name>Trackpoint 3232</name>
            </trkpt>
            <trkpt lat="49.9920608" lon="11.5111104">
                <ele>324.0</ele>
                <time>2020-08-21T13:53:30.000Z</time>
                <name>Trackpoint 3233</name>
            </trkpt>
            <trkpt lat="49.9921952" lon="11.5111248">
                <ele>324.0</ele>
                <time>2020-08-21T13:53:33.000Z</time>
                <name>Trackpoint 3234</name>
            </trkpt>
            <trkpt lat="49.9923328" lon="11.5111152">
                <ele>324.0</ele>
                <time>2020-08-21T13:53:36.000Z</time>
                <name>Trackpoint 3235</name>
            </trkpt>
            <trkpt lat="49.9924608" lon="11.5111176">
                <ele>324.0</ele>
                <time>2020-08-21T13:53:39.000Z</time>
                <name>Trackpoint 3236</name>
            </trkpt>
            <trkpt lat="49.9925536" lon="11.511104">
                <ele>324.0</ele>
                <time>2020-08-21T13:53:41.000Z</time>
                <name>Trackpoint 3237</name>
            </trkpt>
            <trkpt lat="49.9926656" lon="11.5110968">
                <ele>325.0</ele>
                <time>2020-08-21T13:53:43.000Z</time>
                <name>Trackpoint 3238</name>
            </trkpt>
            <trkpt lat="49.9927744" lon="11.511068">
                <ele>325.0</ele>
                <time>2020-08-21T13:53:45.000Z</time>
                <name>Trackpoint 3239</name>
            </trkpt>
            <trkpt lat="49.9928832" lon="11.5110384">
                <ele>325.0</ele>
                <time>2020-08-21T13:53:47.000Z</time>
                <name>Trackpoint 3240</name>
            </trkpt>
            <trkpt lat="49.9930272" lon="11.51106">
                <ele>325.0</ele>
                <time>2020-08-21T13:53:49.000Z</time>
                <name>Trackpoint 3241</name>
            </trkpt>
            <trkpt lat="49.9931904" lon="11.5111064">
                <ele>325.0</ele>
                <time>2020-08-21T13:53:51.000Z</time>
                <name>Trackpoint 3242</name>
            </trkpt>
            <trkpt lat="49.99328" lon="11.5111328">
                <ele>324.0</ele>
                <time>2020-08-21T13:53:52.000Z</time>
                <name>Trackpoint 3243</name>
            </trkpt>
            <trkpt lat="49.9934464" lon="11.5112">
                <ele>324.0</ele>
                <time>2020-08-21T13:53:54.000Z</time>
                <name>Trackpoint 3244</name>
            </trkpt>
            <trkpt lat="49.9936128" lon="11.5112648">
                <ele>324.0</ele>
                <time>2020-08-21T13:53:56.000Z</time>
                <name>Trackpoint 3245</name>
            </trkpt>
            <trkpt lat="49.9937792" lon="11.5112864">
                <ele>324.0</ele>
                <time>2020-08-21T13:53:58.000Z</time>
                <name>Trackpoint 3246</name>
            </trkpt>
            <trkpt lat="49.9939264" lon="11.5112752">
                <ele>324.0</ele>
                <time>2020-08-21T13:54:00.000Z</time>
                <name>Trackpoint 3247</name>
            </trkpt>
            <trkpt lat="49.9940704" lon="11.5112432">
                <ele>324.0</ele>
                <time>2020-08-21T13:54:02.000Z</time>
                <name>Trackpoint 3248</name>
            </trkpt>
            <trkpt lat="49.994208" lon="11.5111968">
                <ele>324.0</ele>
                <time>2020-08-21T13:54:04.000Z</time>
                <name>Trackpoint 3249</name>
            </trkpt>
            <trkpt lat="49.9943328" lon="11.5111352">
                <ele>324.0</ele>
                <time>2020-08-21T13:54:06.000Z</time>
                <name>Trackpoint 3250</name>
            </trkpt>
            <trkpt lat="49.9944448" lon="11.5110752">
                <ele>324.0</ele>
                <time>2020-08-21T13:54:08.000Z</time>
                <name>Trackpoint 3251</name>
            </trkpt>
            <trkpt lat="49.9945568" lon="11.5110032">
                <ele>324.0</ele>
                <time>2020-08-21T13:54:10.000Z</time>
                <name>Trackpoint 3252</name>
            </trkpt>
            <trkpt lat="49.994672" lon="11.5109392">
                <ele>324.0</ele>
                <time>2020-08-21T13:54:12.000Z</time>
                <name>Trackpoint 3253</name>
            </trkpt>
            <trkpt lat="49.9947744" lon="11.5108864">
                <ele>324.0</ele>
                <time>2020-08-21T13:54:14.000Z</time>
                <name>Trackpoint 3254</name>
            </trkpt>
            <trkpt lat="49.9948736" lon="11.5108416">
                <ele>324.0</ele>
                <time>2020-08-21T13:54:16.000Z</time>
                <name>Trackpoint 3255</name>
            </trkpt>
            <trkpt lat="49.99496" lon="11.5108072">
                <ele>324.0</ele>
                <time>2020-08-21T13:54:18.000Z</time>
                <name>Trackpoint 3256</name>
            </trkpt>
            <trkpt lat="49.9950528" lon="11.510768">
                <ele>324.0</ele>
                <time>2020-08-21T13:54:20.000Z</time>
                <name>Trackpoint 3257</name>
            </trkpt>
            <trkpt lat="49.9951488" lon="11.5107472">
                <ele>324.0</ele>
                <time>2020-08-21T13:54:22.000Z</time>
                <name>Trackpoint 3258</name>
            </trkpt>
            <trkpt lat="49.9952672" lon="11.5107344">
                <ele>324.0</ele>
                <time>2020-08-21T13:54:25.000Z</time>
                <name>Trackpoint 3259</name>
            </trkpt>
            <trkpt lat="49.9953568" lon="11.510676">
                <ele>324.0</ele>
                <time>2020-08-21T13:54:27.000Z</time>
                <name>Trackpoint 3260</name>
            </trkpt>
            <trkpt lat="49.995456" lon="11.5106312">
                <ele>324.0</ele>
                <time>2020-08-21T13:54:29.000Z</time>
                <name>Trackpoint 3261</name>
            </trkpt>
            <trkpt lat="49.995536" lon="11.5105832">
                <ele>325.0</ele>
                <time>2020-08-21T13:54:31.000Z</time>
                <name>Trackpoint 3262</name>
            </trkpt>
            <trkpt lat="49.9956512" lon="11.510484">
                <ele>324.0</ele>
                <time>2020-08-21T13:54:33.000Z</time>
                <name>Trackpoint 3263</name>
            </trkpt>
            <trkpt lat="49.9957728" lon="11.5104176">
                <ele>324.0</ele>
                <time>2020-08-21T13:54:35.000Z</time>
                <name>Trackpoint 3264</name>
            </trkpt>
            <trkpt lat="49.9958848" lon="11.5103256">
                <ele>324.0</ele>
                <time>2020-08-21T13:54:37.000Z</time>
                <name>Trackpoint 3265</name>
            </trkpt>
            <trkpt lat="49.996032" lon="11.5102464">
                <ele>324.0</ele>
                <time>2020-08-21T13:54:39.000Z</time>
                <name>Trackpoint 3266</name>
            </trkpt>
            <trkpt lat="49.9961728" lon="11.5102104">
                <ele>324.0</ele>
                <time>2020-08-21T13:54:41.000Z</time>
                <name>Trackpoint 3267</name>
            </trkpt>
            <trkpt lat="49.996304" lon="11.510168">
                <ele>324.0</ele>
                <time>2020-08-21T13:54:43.000Z</time>
                <name>Trackpoint 3268</name>
            </trkpt>
            <trkpt lat="49.9963904" lon="11.5101408">
                <ele>324.0</ele>
                <time>2020-08-21T13:54:44.000Z</time>
                <name>Trackpoint 3269</name>
            </trkpt>
            <trkpt lat="49.9964896" lon="11.5101416">
                <ele>323.0</ele>
                <time>2020-08-21T13:54:45.000Z</time>
                <name>Trackpoint 3270</name>
            </trkpt>
            <trkpt lat="49.996592" lon="11.5101472">
                <ele>323.0</ele>
                <time>2020-08-21T13:54:46.000Z</time>
                <name>Trackpoint 3271</name>
            </trkpt>
            <trkpt lat="49.9966976" lon="11.510168">
                <ele>322.0</ele>
                <time>2020-08-21T13:54:47.000Z</time>
                <name>Trackpoint 3272</name>
            </trkpt>
            <trkpt lat="49.9967968" lon="11.5102064">
                <ele>322.0</ele>
                <time>2020-08-21T13:54:48.000Z</time>
                <name>Trackpoint 3273</name>
            </trkpt>
            <trkpt lat="49.9968832" lon="11.5102528">
                <ele>322.0</ele>
                <time>2020-08-21T13:54:49.000Z</time>
                <name>Trackpoint 3274</name>
            </trkpt>
            <trkpt lat="49.9969664" lon="11.5103184">
                <ele>322.0</ele>
                <time>2020-08-21T13:54:50.000Z</time>
                <name>Trackpoint 3275</name>
            </trkpt>
            <trkpt lat="49.9970528" lon="11.5103864">
                <ele>322.0</ele>
                <time>2020-08-21T13:54:51.000Z</time>
                <name>Trackpoint 3276</name>
            </trkpt>
            <trkpt lat="49.9971264" lon="11.5104512">
                <ele>321.0</ele>
                <time>2020-08-21T13:54:52.000Z</time>
                <name>Trackpoint 3277</name>
            </trkpt>
            <trkpt lat="49.9972032" lon="11.5105112">
                <ele>321.0</ele>
                <time>2020-08-21T13:54:53.000Z</time>
                <name>Trackpoint 3278</name>
            </trkpt>
            <trkpt lat="49.99728" lon="11.5105648">
                <ele>321.0</ele>
                <time>2020-08-21T13:54:54.000Z</time>
                <name>Trackpoint 3279</name>
            </trkpt>
            <trkpt lat="49.99736" lon="11.51062">
                <ele>321.0</ele>
                <time>2020-08-21T13:54:55.000Z</time>
                <name>Trackpoint 3280</name>
            </trkpt>
            <trkpt lat="49.9974368" lon="11.5106696">
                <ele>320.0</ele>
                <time>2020-08-21T13:54:56.000Z</time>
                <name>Trackpoint 3281</name>
            </trkpt>
            <trkpt lat="49.997584" lon="11.51076">
                <ele>320.0</ele>
                <time>2020-08-21T13:54:58.000Z</time>
                <name>Trackpoint 3282</name>
            </trkpt>
            <trkpt lat="49.9977312" lon="11.5108384">
                <ele>319.0</ele>
                <time>2020-08-21T13:55:00.000Z</time>
                <name>Trackpoint 3283</name>
            </trkpt>
            <trkpt lat="49.9978592" lon="11.5109456">
                <ele>318.0</ele>
                <time>2020-08-21T13:55:02.000Z</time>
                <name>Trackpoint 3284</name>
            </trkpt>
            <trkpt lat="49.9979264" lon="11.511012">
                <ele>318.0</ele>
                <time>2020-08-21T13:55:03.000Z</time>
                <name>Trackpoint 3285</name>
            </trkpt>
            <trkpt lat="49.9979776" lon="11.5110864">
                <ele>318.0</ele>
                <time>2020-08-21T13:55:04.000Z</time>
                <name>Trackpoint 3286</name>
            </trkpt>
            <trkpt lat="49.9980224" lon="11.5111664">
                <ele>317.0</ele>
                <time>2020-08-21T13:55:05.000Z</time>
                <name>Trackpoint 3287</name>
            </trkpt>
            <trkpt lat="49.9980608" lon="11.5112496">
                <ele>317.0</ele>
                <time>2020-08-21T13:55:06.000Z</time>
                <name>Trackpoint 3288</name>
            </trkpt>
            <trkpt lat="49.9980928" lon="11.5113384">
                <ele>317.0</ele>
                <time>2020-08-21T13:55:07.000Z</time>
                <name>Trackpoint 3289</name>
            </trkpt>
            <trkpt lat="49.998112" lon="11.5114272">
                <ele>317.0</ele>
                <time>2020-08-21T13:55:08.000Z</time>
                <name>Trackpoint 3290</name>
            </trkpt>
            <trkpt lat="49.998128" lon="11.51152">
                <ele>317.0</ele>
                <time>2020-08-21T13:55:09.000Z</time>
                <name>Trackpoint 3291</name>
            </trkpt>
            <trkpt lat="49.9981376" lon="11.5116104">
                <ele>317.0</ele>
                <time>2020-08-21T13:55:10.000Z</time>
                <name>Trackpoint 3292</name>
            </trkpt>
            <trkpt lat="49.9981568" lon="11.5117776">
                <ele>318.0</ele>
                <time>2020-08-21T13:55:12.000Z</time>
                <name>Trackpoint 3293</name>
            </trkpt>
            <trkpt lat="49.9981888" lon="11.5119248">
                <ele>318.0</ele>
                <time>2020-08-21T13:55:14.000Z</time>
                <name>Trackpoint 3294</name>
            </trkpt>
            <trkpt lat="49.9982272" lon="11.5120496">
                <ele>319.0</ele>
                <time>2020-08-21T13:55:16.000Z</time>
                <name>Trackpoint 3295</name>
            </trkpt>
            <trkpt lat="49.998272" lon="11.512148">
                <ele>320.0</ele>
                <time>2020-08-21T13:55:18.000Z</time>
                <name>Trackpoint 3296</name>
            </trkpt>
            <trkpt lat="49.998336" lon="11.512228">
                <ele>320.0</ele>
                <time>2020-08-21T13:55:20.000Z</time>
                <name>Trackpoint 3297</name>
            </trkpt>
            <trkpt lat="49.9984032" lon="11.5122928">
                <ele>320.0</ele>
                <time>2020-08-21T13:55:22.000Z</time>
                <name>Trackpoint 3298</name>
            </trkpt>
            <trkpt lat="49.9985152" lon="11.5123552">
                <ele>320.0</ele>
                <time>2020-08-21T13:55:25.000Z</time>
                <name>Trackpoint 3299</name>
            </trkpt>
            <trkpt lat="49.9986336" lon="11.5123704">
                <ele>321.0</ele>
                <time>2020-08-21T13:55:28.000Z</time>
                <name>Trackpoint 3300</name>
            </trkpt>
            <trkpt lat="49.9987616" lon="11.51236">
                <ele>321.0</ele>
                <time>2020-08-21T13:55:31.000Z</time>
                <name>Trackpoint 3301</name>
            </trkpt>
            <trkpt lat="49.9988864" lon="11.5123232">
                <ele>321.0</ele>
                <time>2020-08-21T13:55:34.000Z</time>
                <name>Trackpoint 3302</name>
            </trkpt>
            <trkpt lat="49.999008" lon="11.5122816">
                <ele>321.0</ele>
                <time>2020-08-21T13:55:37.000Z</time>
                <name>Trackpoint 3303</name>
            </trkpt>
            <trkpt lat="49.9991232" lon="11.5122496">
                <ele>322.0</ele>
                <time>2020-08-21T13:55:40.000Z</time>
                <name>Trackpoint 3304</name>
            </trkpt>
            <trkpt lat="49.9992288" lon="11.5122072">
                <ele>322.0</ele>
                <time>2020-08-21T13:55:43.000Z</time>
                <name>Trackpoint 3305</name>
            </trkpt>
            <trkpt lat="49.9993376" lon="11.5121696">
                <ele>323.0</ele>
                <time>2020-08-21T13:55:46.000Z</time>
                <name>Trackpoint 3306</name>
            </trkpt>
            <trkpt lat="49.99944" lon="11.5121416">
                <ele>323.0</ele>
                <time>2020-08-21T13:55:49.000Z</time>
                <name>Trackpoint 3307</name>
            </trkpt>
            <trkpt lat="49.9995424" lon="11.5121088">
                <ele>323.0</ele>
                <time>2020-08-21T13:55:52.000Z</time>
                <name>Trackpoint 3308</name>
            </trkpt>
            <trkpt lat="49.9996544" lon="11.5120784">
                <ele>324.0</ele>
                <time>2020-08-21T13:55:55.000Z</time>
                <name>Trackpoint 3309</name>
            </trkpt>
            <trkpt lat="49.999776" lon="11.5120648">
                <ele>324.0</ele>
                <time>2020-08-21T13:55:58.000Z</time>
                <name>Trackpoint 3310</name>
            </trkpt>
            <trkpt lat="49.9998944" lon="11.5120424">
                <ele>324.0</ele>
                <time>2020-08-21T13:56:01.000Z</time>
                <name>Trackpoint 3311</name>
            </trkpt>
            <trkpt lat="50.0000128" lon="11.5120512">
                <ele>324.0</ele>
                <time>2020-08-21T13:56:04.000Z</time>
                <name>Trackpoint 3312</name>
            </trkpt>
            <trkpt lat="50.000144" lon="11.5120488">
                <ele>324.0</ele>
                <time>2020-08-21T13:56:07.000Z</time>
                <name>Trackpoint 3313</name>
            </trkpt>
            <trkpt lat="50.000272" lon="11.5120584">
                <ele>325.0</ele>
                <time>2020-08-21T13:56:10.000Z</time>
                <name>Trackpoint 3314</name>
            </trkpt>
            <trkpt lat="50.0004" lon="11.5120736">
                <ele>325.0</ele>
                <time>2020-08-21T13:56:13.000Z</time>
                <name>Trackpoint 3315</name>
            </trkpt>
            <trkpt lat="50.0004928" lon="11.5120784">
                <ele>326.0</ele>
                <time>2020-08-21T13:56:15.000Z</time>
                <name>Trackpoint 3316</name>
            </trkpt>
            <trkpt lat="50.0006304" lon="11.5120824">
                <ele>326.0</ele>
                <time>2020-08-21T13:56:18.000Z</time>
                <name>Trackpoint 3317</name>
            </trkpt>
            <trkpt lat="50.000768" lon="11.5120848">
                <ele>326.0</ele>
                <time>2020-08-21T13:56:21.000Z</time>
                <name>Trackpoint 3318</name>
            </trkpt>
            <trkpt lat="50.0008608" lon="11.5120832">
                <ele>326.0</ele>
                <time>2020-08-21T13:56:23.000Z</time>
                <name>Trackpoint 3319</name>
            </trkpt>
            <trkpt lat="50.0009664" lon="11.5120648">
                <ele>325.0</ele>
                <time>2020-08-21T13:56:25.000Z</time>
                <name>Trackpoint 3320</name>
            </trkpt>
            <trkpt lat="50.0010688" lon="11.5120488">
                <ele>325.0</ele>
                <time>2020-08-21T13:56:27.000Z</time>
                <name>Trackpoint 3321</name>
            </trkpt>
            <trkpt lat="50.0011776" lon="11.5120352">
                <ele>325.0</ele>
                <time>2020-08-21T13:56:29.000Z</time>
                <name>Trackpoint 3322</name>
            </trkpt>
            <trkpt lat="50.0012896" lon="11.5120232">
                <ele>325.0</ele>
                <time>2020-08-21T13:56:31.000Z</time>
                <name>Trackpoint 3323</name>
            </trkpt>
            <trkpt lat="50.0013984" lon="11.5120096">
                <ele>325.0</ele>
                <time>2020-08-21T13:56:33.000Z</time>
                <name>Trackpoint 3324</name>
            </trkpt>
            <trkpt lat="50.0015072" lon="11.5119896">
                <ele>325.0</ele>
                <time>2020-08-21T13:56:35.000Z</time>
                <name>Trackpoint 3325</name>
            </trkpt>
            <trkpt lat="50.0016096" lon="11.5119632">
                <ele>325.0</ele>
                <time>2020-08-21T13:56:37.000Z</time>
                <name>Trackpoint 3326</name>
            </trkpt>
            <trkpt lat="50.0017056" lon="11.5119288">
                <ele>325.0</ele>
                <time>2020-08-21T13:56:39.000Z</time>
                <name>Trackpoint 3327</name>
            </trkpt>
            <trkpt lat="50.001792" lon="11.5118752">
                <ele>325.0</ele>
                <time>2020-08-21T13:56:41.000Z</time>
                <name>Trackpoint 3328</name>
            </trkpt>
            <trkpt lat="50.0018688" lon="11.5118152">
                <ele>326.0</ele>
                <time>2020-08-21T13:56:43.000Z</time>
                <name>Trackpoint 3329</name>
            </trkpt>
            <trkpt lat="50.0019488" lon="11.5117632">
                <ele>326.0</ele>
                <time>2020-08-21T13:56:45.000Z</time>
                <name>Trackpoint 3330</name>
            </trkpt>
            <trkpt lat="50.0020384" lon="11.5117104">
                <ele>326.0</ele>
                <time>2020-08-21T13:56:47.000Z</time>
                <name>Trackpoint 3331</name>
            </trkpt>
            <trkpt lat="50.0021472" lon="11.5116504">
                <ele>325.0</ele>
                <time>2020-08-21T13:56:49.000Z</time>
                <name>Trackpoint 3332</name>
            </trkpt>
            <trkpt lat="50.0022816" lon="11.511592">
                <ele>324.0</ele>
                <time>2020-08-21T13:56:51.000Z</time>
                <name>Trackpoint 3333</name>
            </trkpt>
            <trkpt lat="50.0024352" lon="11.5115168">
                <ele>322.0</ele>
                <time>2020-08-21T13:56:53.000Z</time>
                <name>Trackpoint 3334</name>
            </trkpt>
            <trkpt lat="50.0025216" lon="11.5114816">
                <ele>321.0</ele>
                <time>2020-08-21T13:56:54.000Z</time>
                <name>Trackpoint 3335</name>
            </trkpt>
            <trkpt lat="50.0026144" lon="11.5114448">
                <ele>320.0</ele>
                <time>2020-08-21T13:56:55.000Z</time>
                <name>Trackpoint 3336</name>
            </trkpt>
            <trkpt lat="50.0027072" lon="11.511412">
                <ele>319.0</ele>
                <time>2020-08-21T13:56:56.000Z</time>
                <name>Trackpoint 3337</name>
            </trkpt>
            <trkpt lat="50.0028064" lon="11.51138">
                <ele>319.0</ele>
                <time>2020-08-21T13:56:57.000Z</time>
                <name>Trackpoint 3338</name>
            </trkpt>
            <trkpt lat="50.002912" lon="11.5113488">
                <ele>318.0</ele>
                <time>2020-08-21T13:56:58.000Z</time>
                <name>Trackpoint 3339</name>
            </trkpt>
            <trkpt lat="50.0030048" lon="11.5113152">
                <ele>318.0</ele>
                <time>2020-08-21T13:56:59.000Z</time>
                <name>Trackpoint 3340</name>
            </trkpt>
            <trkpt lat="50.0031008" lon="11.5112784">
                <ele>318.0</ele>
                <time>2020-08-21T13:57:00.000Z</time>
                <name>Trackpoint 3341</name>
            </trkpt>
            <trkpt lat="50.0031904" lon="11.5112312">
                <ele>319.0</ele>
                <time>2020-08-21T13:57:01.000Z</time>
                <name>Trackpoint 3342</name>
            </trkpt>
            <trkpt lat="50.00328" lon="11.5111952">
                <ele>319.0</ele>
                <time>2020-08-21T13:57:02.000Z</time>
                <name>Trackpoint 3343</name>
            </trkpt>
            <trkpt lat="50.0033728" lon="11.5111576">
                <ele>319.0</ele>
                <time>2020-08-21T13:57:03.000Z</time>
                <name>Trackpoint 3344</name>
            </trkpt>
            <trkpt lat="50.0035328" lon="11.5111016">
                <ele>321.0</ele>
                <time>2020-08-21T13:57:05.000Z</time>
                <name>Trackpoint 3345</name>
            </trkpt>
            <trkpt lat="50.0036608" lon="11.5110456">
                <ele>322.0</ele>
                <time>2020-08-21T13:57:07.000Z</time>
                <name>Trackpoint 3346</name>
            </trkpt>
            <trkpt lat="50.0037536" lon="11.5109856">
                <ele>323.0</ele>
                <time>2020-08-21T13:57:09.000Z</time>
                <name>Trackpoint 3347</name>
            </trkpt>
            <trkpt lat="50.0038528" lon="11.5109064">
                <ele>324.0</ele>
                <time>2020-08-21T13:57:12.000Z</time>
                <name>Trackpoint 3348</name>
            </trkpt>
            <trkpt lat="50.0039296" lon="11.5108232">
                <ele>325.0</ele>
                <time>2020-08-21T13:57:15.000Z</time>
                <name>Trackpoint 3349</name>
            </trkpt>
            <trkpt lat="50.0039968" lon="11.5107432">
                <ele>325.0</ele>
                <time>2020-08-21T13:57:18.000Z</time>
                <name>Trackpoint 3350</name>
            </trkpt>
            <trkpt lat="50.004064" lon="11.5106624">
                <ele>325.0</ele>
                <time>2020-08-21T13:57:21.000Z</time>
                <name>Trackpoint 3351</name>
            </trkpt>
            <trkpt lat="50.0041248" lon="11.5105752">
                <ele>325.0</ele>
                <time>2020-08-21T13:57:24.000Z</time>
                <name>Trackpoint 3352</name>
            </trkpt>
            <trkpt lat="50.0041856" lon="11.5104968">
                <ele>325.0</ele>
                <time>2020-08-21T13:57:27.000Z</time>
                <name>Trackpoint 3353</name>
            </trkpt>
            <trkpt lat="50.004256" lon="11.5104368">
                <ele>326.0</ele>
                <time>2020-08-21T13:57:30.000Z</time>
                <name>Trackpoint 3354</name>
            </trkpt>
            <trkpt lat="50.0043456" lon="11.5103776">
                <ele>326.0</ele>
                <time>2020-08-21T13:57:33.000Z</time>
                <name>Trackpoint 3355</name>
            </trkpt>
            <trkpt lat="50.0044352" lon="11.5103256">
                <ele>326.0</ele>
                <time>2020-08-21T13:57:36.000Z</time>
                <name>Trackpoint 3356</name>
            </trkpt>
            <trkpt lat="50.004528" lon="11.5102728">
                <ele>327.0</ele>
                <time>2020-08-21T13:57:39.000Z</time>
                <name>Trackpoint 3357</name>
            </trkpt>
            <trkpt lat="50.0046144" lon="11.5102064">
                <ele>327.0</ele>
                <time>2020-08-21T13:57:42.000Z</time>
                <name>Trackpoint 3358</name>
            </trkpt>
            <trkpt lat="50.0047008" lon="11.5101408">
                <ele>327.0</ele>
                <time>2020-08-21T13:57:45.000Z</time>
                <name>Trackpoint 3359</name>
            </trkpt>
            <trkpt lat="50.0047808" lon="11.5100832">
                <ele>327.0</ele>
                <time>2020-08-21T13:57:48.000Z</time>
                <name>Trackpoint 3360</name>
            </trkpt>
            <trkpt lat="50.0048736" lon="11.5100144">
                <ele>326.0</ele>
                <time>2020-08-21T13:57:51.000Z</time>
                <name>Trackpoint 3361</name>
            </trkpt>
            <trkpt lat="50.004992" lon="11.5099512">
                <ele>326.0</ele>
                <time>2020-08-21T13:57:54.000Z</time>
                <name>Trackpoint 3362</name>
            </trkpt>
            <trkpt lat="50.0050816" lon="11.5099032">
                <ele>325.0</ele>
                <time>2020-08-21T13:57:56.000Z</time>
                <name>Trackpoint 3363</name>
            </trkpt>
            <trkpt lat="50.005184" lon="11.5098632">
                <ele>325.0</ele>
                <time>2020-08-21T13:57:58.000Z</time>
                <name>Trackpoint 3364</name>
            </trkpt>
            <trkpt lat="50.005296" lon="11.5098336">
                <ele>324.0</ele>
                <time>2020-08-21T13:58:00.000Z</time>
                <name>Trackpoint 3365</name>
            </trkpt>
            <trkpt lat="50.0054016" lon="11.5098248">
                <ele>324.0</ele>
                <time>2020-08-21T13:58:02.000Z</time>
                <name>Trackpoint 3366</name>
            </trkpt>
            <trkpt lat="50.0055136" lon="11.5098304">
                <ele>324.0</ele>
                <time>2020-08-21T13:58:04.000Z</time>
                <name>Trackpoint 3367</name>
            </trkpt>
            <trkpt lat="50.0056192" lon="11.5098416">
                <ele>324.0</ele>
                <time>2020-08-21T13:58:06.000Z</time>
                <name>Trackpoint 3368</name>
            </trkpt>
            <trkpt lat="50.0057216" lon="11.5098488">
                <ele>324.0</ele>
                <time>2020-08-21T13:58:08.000Z</time>
                <name>Trackpoint 3369</name>
            </trkpt>
            <trkpt lat="50.0058176" lon="11.5098432">
                <ele>324.0</ele>
                <time>2020-08-21T13:58:10.000Z</time>
                <name>Trackpoint 3370</name>
            </trkpt>
            <trkpt lat="50.0059424" lon="11.509804">
                <ele>325.0</ele>
                <time>2020-08-21T13:58:13.000Z</time>
                <name>Trackpoint 3371</name>
            </trkpt>
            <trkpt lat="50.0060224" lon="11.5097616">
                <ele>325.0</ele>
                <time>2020-08-21T13:58:15.000Z</time>
                <name>Trackpoint 3372</name>
            </trkpt>
            <trkpt lat="50.0061344" lon="11.5096928">
                <ele>326.0</ele>
                <time>2020-08-21T13:58:18.000Z</time>
                <name>Trackpoint 3373</name>
            </trkpt>
            <trkpt lat="50.0062368" lon="11.5096128">
                <ele>326.0</ele>
                <time>2020-08-21T13:58:21.000Z</time>
                <name>Trackpoint 3374</name>
            </trkpt>
            <trkpt lat="50.0063392" lon="11.509528">
                <ele>327.0</ele>
                <time>2020-08-21T13:58:24.000Z</time>
                <name>Trackpoint 3375</name>
            </trkpt>
            <trkpt lat="50.0064064" lon="11.509468">
                <ele>327.0</ele>
                <time>2020-08-21T13:58:26.000Z</time>
                <name>Trackpoint 3376</name>
            </trkpt>
            <trkpt lat="50.006496" lon="11.509372">
                <ele>327.0</ele>
                <time>2020-08-21T13:58:29.000Z</time>
                <name>Trackpoint 3377</name>
            </trkpt>
            <trkpt lat="50.00656" lon="11.5093072">
                <ele>328.0</ele>
                <time>2020-08-21T13:58:31.000Z</time>
                <name>Trackpoint 3378</name>
            </trkpt>
            <trkpt lat="50.0066496" lon="11.5092032">
                <ele>328.0</ele>
                <time>2020-08-21T13:58:34.000Z</time>
                <name>Trackpoint 3379</name>
            </trkpt>
            <trkpt lat="50.0067104" lon="11.509136">
                <ele>329.0</ele>
                <time>2020-08-21T13:58:36.000Z</time>
                <name>Trackpoint 3380</name>
            </trkpt>
            <trkpt lat="50.0067744" lon="11.5090712">
                <ele>329.0</ele>
                <time>2020-08-21T13:58:38.000Z</time>
                <name>Trackpoint 3381</name>
            </trkpt>
            <trkpt lat="50.0068352" lon="11.509004">
                <ele>329.0</ele>
                <time>2020-08-21T13:58:40.000Z</time>
                <name>Trackpoint 3382</name>
            </trkpt>
            <trkpt lat="50.0068928" lon="11.5089328">
                <ele>329.0</ele>
                <time>2020-08-21T13:58:42.000Z</time>
                <name>Trackpoint 3383</name>
            </trkpt>
            <trkpt lat="50.0069504" lon="11.5088504">
                <ele>329.0</ele>
                <time>2020-08-21T13:58:44.000Z</time>
                <name>Trackpoint 3384</name>
            </trkpt>
            <trkpt lat="50.0070112" lon="11.5087656">
                <ele>329.0</ele>
                <time>2020-08-21T13:58:46.000Z</time>
                <name>Trackpoint 3385</name>
            </trkpt>
            <trkpt lat="50.0070688" lon="11.5086744">
                <ele>329.0</ele>
                <time>2020-08-21T13:58:48.000Z</time>
                <name>Trackpoint 3386</name>
            </trkpt>
            <trkpt lat="50.0071296" lon="11.5085752">
                <ele>330.0</ele>
                <time>2020-08-21T13:58:50.000Z</time>
                <name>Trackpoint 3387</name>
            </trkpt>
            <trkpt lat="50.0071904" lon="11.5084752">
                <ele>330.0</ele>
                <time>2020-08-21T13:58:52.000Z</time>
                <name>Trackpoint 3388</name>
            </trkpt>
            <trkpt lat="50.0072544" lon="11.5083704">
                <ele>330.0</ele>
                <time>2020-08-21T13:58:54.000Z</time>
                <name>Trackpoint 3389</name>
            </trkpt>
            <trkpt lat="50.0073152" lon="11.50826">
                <ele>329.0</ele>
                <time>2020-08-21T13:58:56.000Z</time>
                <name>Trackpoint 3390</name>
            </trkpt>
            <trkpt lat="50.0073824" lon="11.5081368">
                <ele>329.0</ele>
                <time>2020-08-21T13:58:58.000Z</time>
                <name>Trackpoint 3391</name>
            </trkpt>
            <trkpt lat="50.0074528" lon="11.5080048">
                <ele>329.0</ele>
                <time>2020-08-21T13:59:00.000Z</time>
                <name>Trackpoint 3392</name>
            </trkpt>
            <trkpt lat="50.0075424" lon="11.50788">
                <ele>328.0</ele>
                <time>2020-08-21T13:59:02.000Z</time>
                <name>Trackpoint 3393</name>
            </trkpt>
            <trkpt lat="50.0076416" lon="11.5077664">
                <ele>327.0</ele>
                <time>2020-08-21T13:59:04.000Z</time>
                <name>Trackpoint 3394</name>
            </trkpt>
            <trkpt lat="50.0077568" lon="11.5076736">
                <ele>327.0</ele>
                <time>2020-08-21T13:59:06.000Z</time>
                <name>Trackpoint 3395</name>
            </trkpt>
            <trkpt lat="50.007872" lon="11.5075968">
                <ele>327.0</ele>
                <time>2020-08-21T13:59:08.000Z</time>
                <name>Trackpoint 3396</name>
            </trkpt>
            <trkpt lat="50.008" lon="11.50754">
                <ele>326.0</ele>
                <time>2020-08-21T13:59:10.000Z</time>
                <name>Trackpoint 3397</name>
            </trkpt>
            <trkpt lat="50.0081216" lon="11.5075">
                <ele>326.0</ele>
                <time>2020-08-21T13:59:12.000Z</time>
                <name>Trackpoint 3398</name>
            </trkpt>
            <trkpt lat="50.0082464" lon="11.5074528">
                <ele>326.0</ele>
                <time>2020-08-21T13:59:14.000Z</time>
                <name>Trackpoint 3399</name>
            </trkpt>
            <trkpt lat="50.0083744" lon="11.5073992">
                <ele>326.0</ele>
                <time>2020-08-21T13:59:16.000Z</time>
                <name>Trackpoint 3400</name>
            </trkpt>
            <trkpt lat="50.0084928" lon="11.5073384">
                <ele>325.0</ele>
                <time>2020-08-21T13:59:18.000Z</time>
                <name>Trackpoint 3401</name>
            </trkpt>
            <trkpt lat="50.0086112" lon="11.5072632">
                <ele>325.0</ele>
                <time>2020-08-21T13:59:20.000Z</time>
                <name>Trackpoint 3402</name>
            </trkpt>
            <trkpt lat="50.0087296" lon="11.5071872">
                <ele>325.0</ele>
                <time>2020-08-21T13:59:22.000Z</time>
                <name>Trackpoint 3403</name>
            </trkpt>
            <trkpt lat="50.0088512" lon="11.507116">
                <ele>325.0</ele>
                <time>2020-08-21T13:59:24.000Z</time>
                <name>Trackpoint 3404</name>
            </trkpt>
            <trkpt lat="50.0089696" lon="11.5070336">
                <ele>325.0</ele>
                <time>2020-08-21T13:59:26.000Z</time>
                <name>Trackpoint 3405</name>
            </trkpt>
            <trkpt lat="50.0090944" lon="11.506964">
                <ele>325.0</ele>
                <time>2020-08-21T13:59:28.000Z</time>
                <name>Trackpoint 3406</name>
            </trkpt>
            <trkpt lat="50.0092192" lon="11.5069016">
                <ele>324.0</ele>
                <time>2020-08-21T13:59:30.000Z</time>
                <name>Trackpoint 3407</name>
            </trkpt>
            <trkpt lat="50.0093472" lon="11.5068456">
                <ele>324.0</ele>
                <time>2020-08-21T13:59:32.000Z</time>
                <name>Trackpoint 3408</name>
            </trkpt>
            <trkpt lat="50.009472" lon="11.5067904">
                <ele>324.0</ele>
                <time>2020-08-21T13:59:34.000Z</time>
                <name>Trackpoint 3409</name>
            </trkpt>
            <trkpt lat="50.0096" lon="11.5067352">
                <ele>324.0</ele>
                <time>2020-08-21T13:59:36.000Z</time>
                <name>Trackpoint 3410</name>
            </trkpt>
            <trkpt lat="50.0097312" lon="11.5066832">
                <ele>324.0</ele>
                <time>2020-08-21T13:59:38.000Z</time>
                <name>Trackpoint 3411</name>
            </trkpt>
            <trkpt lat="50.009856" lon="11.5066384">
                <ele>324.0</ele>
                <time>2020-08-21T13:59:40.000Z</time>
                <name>Trackpoint 3412</name>
            </trkpt>
            <trkpt lat="50.0099872" lon="11.5066032">
                <ele>323.0</ele>
                <time>2020-08-21T13:59:42.000Z</time>
                <name>Trackpoint 3413</name>
            </trkpt>
            <trkpt lat="50.0101216" lon="11.50658">
                <ele>323.0</ele>
                <time>2020-08-21T13:59:44.000Z</time>
                <name>Trackpoint 3414</name>
            </trkpt>
            <trkpt lat="50.0102592" lon="11.506548">
                <ele>322.0</ele>
                <time>2020-08-21T13:59:46.000Z</time>
                <name>Trackpoint 3415</name>
            </trkpt>
            <trkpt lat="50.0104" lon="11.5064968">
                <ele>322.0</ele>
                <time>2020-08-21T13:59:48.000Z</time>
                <name>Trackpoint 3416</name>
            </trkpt>
            <trkpt lat="50.0105376" lon="11.506416">
                <ele>322.0</ele>
                <time>2020-08-21T13:59:50.000Z</time>
                <name>Trackpoint 3417</name>
            </trkpt>
            <trkpt lat="50.0106592" lon="11.5063152">
                <ele>323.0</ele>
                <time>2020-08-21T13:59:52.000Z</time>
                <name>Trackpoint 3418</name>
            </trkpt>
            <trkpt lat="50.0107776" lon="11.5062016">
                <ele>324.0</ele>
                <time>2020-08-21T13:59:54.000Z</time>
                <name>Trackpoint 3419</name>
            </trkpt>
            <trkpt lat="50.0108896" lon="11.5061016">
                <ele>324.0</ele>
                <time>2020-08-21T13:59:56.000Z</time>
                <name>Trackpoint 3420</name>
            </trkpt>
            <trkpt lat="50.0110016" lon="11.5060184">
                <ele>325.0</ele>
                <time>2020-08-21T13:59:58.000Z</time>
                <name>Trackpoint 3421</name>
            </trkpt>
            <trkpt lat="50.0111072" lon="11.5059408">
                <ele>325.0</ele>
                <time>2020-08-21T14:00:00.000Z</time>
                <name>Trackpoint 3422</name>
            </trkpt>
            <trkpt lat="50.0112032" lon="11.5058736">
                <ele>326.0</ele>
                <time>2020-08-21T14:00:02.000Z</time>
                <name>Trackpoint 3423</name>
            </trkpt>
            <trkpt lat="50.011296" lon="11.5058136">
                <ele>326.0</ele>
                <time>2020-08-21T14:00:04.000Z</time>
                <name>Trackpoint 3424</name>
            </trkpt>
            <trkpt lat="50.0113952" lon="11.5057736">
                <ele>327.0</ele>
                <time>2020-08-21T14:00:06.000Z</time>
                <name>Trackpoint 3425</name>
            </trkpt>
            <trkpt lat="50.0114912" lon="11.50576">
                <ele>327.0</ele>
                <time>2020-08-21T14:00:08.000Z</time>
                <name>Trackpoint 3426</name>
            </trkpt>
            <trkpt lat="50.011584" lon="11.5057624">
                <ele>327.0</ele>
                <time>2020-08-21T14:00:10.000Z</time>
                <name>Trackpoint 3427</name>
            </trkpt>
            <trkpt lat="50.0116832" lon="11.505772">
                <ele>327.0</ele>
                <time>2020-08-21T14:00:12.000Z</time>
                <name>Trackpoint 3428</name>
            </trkpt>
            <trkpt lat="50.0117728" lon="11.5057824">
                <ele>327.0</ele>
                <time>2020-08-21T14:00:14.000Z</time>
                <name>Trackpoint 3429</name>
            </trkpt>
            <trkpt lat="50.0118912" lon="11.5057848">
                <ele>327.0</ele>
                <time>2020-08-21T14:00:17.000Z</time>
                <name>Trackpoint 3430</name>
            </trkpt>
            <trkpt lat="50.0120064" lon="11.5057848">
                <ele>328.0</ele>
                <time>2020-08-21T14:00:20.000Z</time>
                <name>Trackpoint 3431</name>
            </trkpt>
            <trkpt lat="50.012128" lon="11.5057888">
                <ele>328.0</ele>
                <time>2020-08-21T14:00:23.000Z</time>
                <name>Trackpoint 3432</name>
            </trkpt>
            <trkpt lat="50.012256" lon="11.5057688">
                <ele>328.0</ele>
                <time>2020-08-21T14:00:26.000Z</time>
                <name>Trackpoint 3433</name>
            </trkpt>
            <trkpt lat="50.012352" lon="11.5057384">
                <ele>328.0</ele>
                <time>2020-08-21T14:00:28.000Z</time>
                <name>Trackpoint 3434</name>
            </trkpt>
            <trkpt lat="50.0124544" lon="11.5056832">
                <ele>328.0</ele>
                <time>2020-08-21T14:00:30.000Z</time>
                <name>Trackpoint 3435</name>
            </trkpt>
            <trkpt lat="50.0125824" lon="11.5056112">
                <ele>328.0</ele>
                <time>2020-08-21T14:00:32.000Z</time>
                <name>Trackpoint 3436</name>
            </trkpt>
            <trkpt lat="50.0127424" lon="11.5055264">
                <ele>328.0</ele>
                <time>2020-08-21T14:00:34.000Z</time>
                <name>Trackpoint 3437</name>
            </trkpt>
            <trkpt lat="50.0128352" lon="11.5054976">
                <ele>328.0</ele>
                <time>2020-08-21T14:00:35.000Z</time>
                <name>Trackpoint 3438</name>
            </trkpt>
            <trkpt lat="50.0129504" lon="11.5054848">
                <ele>328.0</ele>
                <time>2020-08-21T14:00:36.000Z</time>
                <name>Trackpoint 3439</name>
            </trkpt>
            <trkpt lat="50.013072" lon="11.505468">
                <ele>328.0</ele>
                <time>2020-08-21T14:00:37.000Z</time>
                <name>Trackpoint 3440</name>
            </trkpt>
            <trkpt lat="50.013184" lon="11.5054552">
                <ele>328.0</ele>
                <time>2020-08-21T14:00:38.000Z</time>
                <name>Trackpoint 3441</name>
            </trkpt>
            <trkpt lat="50.0132928" lon="11.505448">
                <ele>328.0</ele>
                <time>2020-08-21T14:00:39.000Z</time>
                <name>Trackpoint 3442</name>
            </trkpt>
            <trkpt lat="50.0133984" lon="11.505448">
                <ele>328.0</ele>
                <time>2020-08-21T14:00:40.000Z</time>
                <name>Trackpoint 3443</name>
            </trkpt>
            <trkpt lat="50.0135008" lon="11.50544">
                <ele>328.0</ele>
                <time>2020-08-21T14:00:41.000Z</time>
                <name>Trackpoint 3444</name>
            </trkpt>
            <trkpt lat="50.0135968" lon="11.50544">
                <ele>328.0</ele>
                <time>2020-08-21T14:00:42.000Z</time>
                <name>Trackpoint 3445</name>
            </trkpt>
            <trkpt lat="50.01376" lon="11.5054104">
                <ele>328.0</ele>
                <time>2020-08-21T14:00:44.000Z</time>
                <name>Trackpoint 3446</name>
            </trkpt>
            <trkpt lat="50.0139008" lon="11.505408">
                <ele>328.0</ele>
                <time>2020-08-21T14:00:46.000Z</time>
                <name>Trackpoint 3447</name>
            </trkpt>
            <trkpt lat="50.0140256" lon="11.5054168">
                <ele>328.0</ele>
                <time>2020-08-21T14:00:48.000Z</time>
                <name>Trackpoint 3448</name>
            </trkpt>
            <trkpt lat="50.0141536" lon="11.50538">
                <ele>328.0</ele>
                <time>2020-08-21T14:00:50.000Z</time>
                <name>Trackpoint 3449</name>
            </trkpt>
            <trkpt lat="50.0142528" lon="11.5052768">
                <ele>328.0</ele>
                <time>2020-08-21T14:00:52.000Z</time>
                <name>Trackpoint 3450</name>
            </trkpt>
            <trkpt lat="50.01432" lon="11.5051632">
                <ele>328.0</ele>
                <time>2020-08-21T14:00:54.000Z</time>
                <name>Trackpoint 3451</name>
            </trkpt>
            <trkpt lat="50.0143648" lon="11.5050632">
                <ele>328.0</ele>
                <time>2020-08-21T14:00:56.000Z</time>
                <name>Trackpoint 3452</name>
            </trkpt>
            <trkpt lat="50.0143936" lon="11.5049736">
                <ele>328.0</ele>
                <time>2020-08-21T14:00:58.000Z</time>
                <name>Trackpoint 3453</name>
            </trkpt>
            <trkpt lat="50.0143936" lon="11.50486">
                <ele>328.0</ele>
                <time>2020-08-21T14:01:00.000Z</time>
                <name>Trackpoint 3454</name>
            </trkpt>
            <trkpt lat="50.0143936" lon="11.5047664">
                <ele>327.0</ele>
                <time>2020-08-21T14:01:02.000Z</time>
                <name>Trackpoint 3455</name>
            </trkpt>
            <trkpt lat="50.0144128" lon="11.5046432">
                <ele>327.0</ele>
                <time>2020-08-21T14:01:04.000Z</time>
                <name>Trackpoint 3456</name>
            </trkpt>
            <trkpt lat="50.0144544" lon="11.5045136">
                <ele>327.0</ele>
                <time>2020-08-21T14:01:06.000Z</time>
                <name>Trackpoint 3457</name>
            </trkpt>
            <trkpt lat="50.0145024" lon="11.5043832">
                <ele>327.0</ele>
                <time>2020-08-21T14:01:08.000Z</time>
                <name>Trackpoint 3458</name>
            </trkpt>
            <trkpt lat="50.014544" lon="11.5042312">
                <ele>327.0</ele>
                <time>2020-08-21T14:01:10.000Z</time>
                <name>Trackpoint 3459</name>
            </trkpt>
            <trkpt lat="50.014592" lon="11.5040776">
                <ele>326.0</ele>
                <time>2020-08-21T14:01:12.000Z</time>
                <name>Trackpoint 3460</name>
            </trkpt>
            <trkpt lat="50.0146208" lon="11.5039456">
                <ele>326.0</ele>
                <time>2020-08-21T14:01:14.000Z</time>
                <name>Trackpoint 3461</name>
            </trkpt>
            <trkpt lat="50.0146528" lon="11.5038608">
                <ele>325.0</ele>
                <time>2020-08-21T14:01:54.000Z</time>
                <name>Trackpoint 3462</name>
            </trkpt>
            <trkpt lat="50.0146624" lon="11.503768">
                <ele>325.0</ele>
                <time>2020-08-21T14:01:57.000Z</time>
                <name>Trackpoint 3463</name>
            </trkpt>
            <trkpt lat="50.0146944" lon="11.5036496">
                <ele>325.0</ele>
                <time>2020-08-21T14:02:00.000Z</time>
                <name>Trackpoint 3464</name>
            </trkpt>
            <trkpt lat="50.0147232" lon="11.5035632">
                <ele>325.0</ele>
                <time>2020-08-21T14:02:02.000Z</time>
                <name>Trackpoint 3465</name>
            </trkpt>
            <trkpt lat="50.0147488" lon="11.5034488">
                <ele>325.0</ele>
                <time>2020-08-21T14:02:04.000Z</time>
                <name>Trackpoint 3466</name>
            </trkpt>
            <trkpt lat="50.0147744" lon="11.503332">
                <ele>325.0</ele>
                <time>2020-08-21T14:02:06.000Z</time>
                <name>Trackpoint 3467</name>
            </trkpt>
            <trkpt lat="50.0147776" lon="11.50324">
                <ele>325.0</ele>
                <time>2020-08-21T14:02:38.000Z</time>
                <name>Trackpoint 3468</name>
            </trkpt>
            <trkpt lat="50.014816" lon="11.5031248">
                <ele>325.0</ele>
                <time>2020-08-21T14:02:42.000Z</time>
                <name>Trackpoint 3469</name>
            </trkpt>
            <trkpt lat="50.0148384" lon="11.5030136">
                <ele>325.0</ele>
                <time>2020-08-21T14:02:44.000Z</time>
                <name>Trackpoint 3470</name>
            </trkpt>
            <trkpt lat="50.0148672" lon="11.5029024">
                <ele>325.0</ele>
                <time>2020-08-21T14:02:46.000Z</time>
                <name>Trackpoint 3471</name>
            </trkpt>
            <trkpt lat="50.014896" lon="11.5027816">
                <ele>325.0</ele>
                <time>2020-08-21T14:02:48.000Z</time>
                <name>Trackpoint 3472</name>
            </trkpt>
            <trkpt lat="50.0149312" lon="11.502668">
                <ele>325.0</ele>
                <time>2020-08-21T14:02:50.000Z</time>
                <name>Trackpoint 3473</name>
            </trkpt>
            <trkpt lat="50.0149536" lon="11.5025464">
                <ele>324.0</ele>
                <time>2020-08-21T14:02:52.000Z</time>
                <name>Trackpoint 3474</name>
            </trkpt>
            <trkpt lat="50.0149856" lon="11.5024384">
                <ele>324.0</ele>
                <time>2020-08-21T14:02:54.000Z</time>
                <name>Trackpoint 3475</name>
            </trkpt>
            <trkpt lat="50.0149984" lon="11.502312">
                <ele>324.0</ele>
                <time>2020-08-21T14:02:56.000Z</time>
                <name>Trackpoint 3476</name>
            </trkpt>
            <trkpt lat="50.0150144" lon="11.5021984">
                <ele>324.0</ele>
                <time>2020-08-21T14:02:58.000Z</time>
                <name>Trackpoint 3477</name>
            </trkpt>
            <trkpt lat="50.0150176" lon="11.5020888">
                <ele>324.0</ele>
                <time>2020-08-21T14:03:00.000Z</time>
                <name>Trackpoint 3478</name>
            </trkpt>
            <trkpt lat="50.0149952" lon="11.5019912">
                <ele>324.0</ele>
                <time>2020-08-21T14:03:02.000Z</time>
                <name>Trackpoint 3479</name>
            </trkpt>
            <trkpt lat="50.0149696" lon="11.50186">
                <ele>324.0</ele>
                <time>2020-08-21T14:03:04.000Z</time>
                <name>Trackpoint 3480</name>
            </trkpt>
            <trkpt lat="50.0149472" lon="11.5017456">
                <ele>324.0</ele>
                <time>2020-08-21T14:03:06.000Z</time>
                <name>Trackpoint 3481</name>
            </trkpt>
            <trkpt lat="50.0149056" lon="11.501608">
                <ele>324.0</ele>
                <time>2020-08-21T14:03:08.000Z</time>
                <name>Trackpoint 3482</name>
            </trkpt>
            <trkpt lat="50.0148704" lon="11.5014896">
                <ele>324.0</ele>
                <time>2020-08-21T14:03:10.000Z</time>
                <name>Trackpoint 3483</name>
            </trkpt>
            <trkpt lat="50.0148384" lon="11.5013288">
                <ele>324.0</ele>
                <time>2020-08-21T14:03:12.000Z</time>
                <name>Trackpoint 3484</name>
            </trkpt>
            <trkpt lat="50.014816" lon="11.501172">
                <ele>324.0</ele>
                <time>2020-08-21T14:03:14.000Z</time>
                <name>Trackpoint 3485</name>
            </trkpt>
            <trkpt lat="50.0147872" lon="11.5010368">
                <ele>324.0</ele>
                <time>2020-08-21T14:03:16.000Z</time>
                <name>Trackpoint 3486</name>
            </trkpt>
            <trkpt lat="50.0147744" lon="11.5009032">
                <ele>324.0</ele>
                <time>2020-08-21T14:03:18.000Z</time>
                <name>Trackpoint 3487</name>
            </trkpt>
            <trkpt lat="50.014768" lon="11.5007696">
                <ele>324.0</ele>
                <time>2020-08-21T14:03:20.000Z</time>
                <name>Trackpoint 3488</name>
            </trkpt>
            <trkpt lat="50.0147552" lon="11.5006152">
                <ele>324.0</ele>
                <time>2020-08-21T14:03:22.000Z</time>
                <name>Trackpoint 3489</name>
            </trkpt>
            <trkpt lat="50.0147488" lon="11.5005232">
                <ele>324.0</ele>
                <time>2020-08-21T14:03:23.000Z</time>
                <name>Trackpoint 3490</name>
            </trkpt>
            <trkpt lat="50.0147328" lon="11.500352">
                <ele>324.0</ele>
                <time>2020-08-21T14:03:25.000Z</time>
                <name>Trackpoint 3491</name>
            </trkpt>
            <trkpt lat="50.01472" lon="11.50026">
                <ele>324.0</ele>
                <time>2020-08-21T14:03:26.000Z</time>
                <name>Trackpoint 3492</name>
            </trkpt>
            <trkpt lat="50.0147136" lon="11.5001672">
                <ele>324.0</ele>
                <time>2020-08-21T14:03:27.000Z</time>
                <name>Trackpoint 3493</name>
            </trkpt>
            <trkpt lat="50.0147008" lon="11.5000664">
                <ele>324.0</ele>
                <time>2020-08-21T14:03:28.000Z</time>
                <name>Trackpoint 3494</name>
            </trkpt>
            <trkpt lat="50.0146976" lon="11.4999088">
                <ele>323.0</ele>
                <time>2020-08-21T14:03:30.000Z</time>
                <name>Trackpoint 3495</name>
            </trkpt>
            <trkpt lat="50.0147008" lon="11.4998152">
                <ele>323.0</ele>
                <time>2020-08-21T14:03:32.000Z</time>
                <name>Trackpoint 3496</name>
            </trkpt>
            <trkpt lat="50.0146944" lon="11.4997216">
                <ele>323.0</ele>
                <time>2020-08-21T14:03:38.000Z</time>
                <name>Trackpoint 3497</name>
            </trkpt>
            <trkpt lat="50.0146304" lon="11.4996544">
                <ele>323.0</ele>
                <time>2020-08-21T14:03:42.000Z</time>
                <name>Trackpoint 3498</name>
            </trkpt>
            <trkpt lat="50.0145216" lon="11.4996144">
                <ele>323.0</ele>
                <time>2020-08-21T14:03:45.000Z</time>
                <name>Trackpoint 3499</name>
            </trkpt>
            <trkpt lat="50.0143968" lon="11.4995744">
                <ele>323.0</ele>
                <time>2020-08-21T14:03:48.000Z</time>
                <name>Trackpoint 3500</name>
            </trkpt>
            <trkpt lat="50.014304" lon="11.4995648">
                <ele>323.0</ele>
                <time>2020-08-21T14:03:50.000Z</time>
                <name>Trackpoint 3501</name>
            </trkpt>
            <trkpt lat="50.0142144" lon="11.499552">
                <ele>323.0</ele>
                <time>2020-08-21T14:03:52.000Z</time>
                <name>Trackpoint 3502</name>
            </trkpt>
            <trkpt lat="50.0141184" lon="11.4995296">
                <ele>323.0</ele>
                <time>2020-08-21T14:03:54.000Z</time>
                <name>Trackpoint 3503</name>
            </trkpt>
            <trkpt lat="50.0140256" lon="11.4995184">
                <ele>322.0</ele>
                <time>2020-08-21T14:03:56.000Z</time>
                <name>Trackpoint 3504</name>
            </trkpt>
            <trkpt lat="50.0139264" lon="11.4995016">
                <ele>322.0</ele>
                <time>2020-08-21T14:03:58.000Z</time>
                <name>Trackpoint 3505</name>
            </trkpt>
            <trkpt lat="50.0138272" lon="11.4994936">
                <ele>322.0</ele>
                <time>2020-08-21T14:04:00.000Z</time>
                <name>Trackpoint 3506</name>
            </trkpt>
            <trkpt lat="50.0137376" lon="11.4994784">
                <ele>322.0</ele>
                <time>2020-08-21T14:04:02.000Z</time>
                <name>Trackpoint 3507</name>
            </trkpt>
            <trkpt lat="50.0136448" lon="11.4994584">
                <ele>322.0</ele>
                <time>2020-08-21T14:04:04.000Z</time>
                <name>Trackpoint 3508</name>
            </trkpt>
            <trkpt lat="50.0135552" lon="11.49944">
                <ele>322.0</ele>
                <time>2020-08-21T14:04:06.000Z</time>
                <name>Trackpoint 3509</name>
            </trkpt>
            <trkpt lat="50.0134656" lon="11.499416">
                <ele>322.0</ele>
                <time>2020-08-21T14:04:08.000Z</time>
                <name>Trackpoint 3510</name>
            </trkpt>
            <trkpt lat="50.0133376" lon="11.499376">
                <ele>321.0</ele>
                <time>2020-08-21T14:04:11.000Z</time>
                <name>Trackpoint 3511</name>
            </trkpt>
            <trkpt lat="50.013248" lon="11.4993384">
                <ele>321.0</ele>
                <time>2020-08-21T14:04:13.000Z</time>
                <name>Trackpoint 3512</name>
            </trkpt>
            <trkpt lat="50.013168" lon="11.499284">
                <ele>321.0</ele>
                <time>2020-08-21T14:04:15.000Z</time>
                <name>Trackpoint 3513</name>
            </trkpt>
            <trkpt lat="50.0131008" lon="11.4992176">
                <ele>321.0</ele>
                <time>2020-08-21T14:04:17.000Z</time>
                <name>Trackpoint 3514</name>
            </trkpt>
            <trkpt lat="50.0130304" lon="11.4991328">
                <ele>321.0</ele>
                <time>2020-08-21T14:04:20.000Z</time>
                <name>Trackpoint 3515</name>
            </trkpt>
            <trkpt lat="50.0129824" lon="11.4990368">
                <ele>321.0</ele>
                <time>2020-08-21T14:04:47.000Z</time>
                <name>Trackpoint 3516</name>
            </trkpt>
            <trkpt lat="50.0129152" lon="11.4989592">
                <ele>320.0</ele>
                <time>2020-08-21T14:04:50.000Z</time>
                <name>Trackpoint 3517</name>
            </trkpt>
            <trkpt lat="50.012848" lon="11.49888">
                <ele>320.0</ele>
                <time>2020-08-21T14:04:52.000Z</time>
                <name>Trackpoint 3518</name>
            </trkpt>
            <trkpt lat="50.012784" lon="11.4987896">
                <ele>320.0</ele>
                <time>2020-08-21T14:04:54.000Z</time>
                <name>Trackpoint 3519</name>
            </trkpt>
            <trkpt lat="50.0127168" lon="11.4987">
                <ele>320.0</ele>
                <time>2020-08-21T14:04:56.000Z</time>
                <name>Trackpoint 3520</name>
            </trkpt>
            <trkpt lat="50.0126816" lon="11.4985768">
                <ele>320.0</ele>
                <time>2020-08-21T14:04:58.000Z</time>
                <name>Trackpoint 3521</name>
            </trkpt>
            <trkpt lat="50.0126272" lon="11.4984464">
                <ele>320.0</ele>
                <time>2020-08-21T14:05:00.000Z</time>
                <name>Trackpoint 3522</name>
            </trkpt>
            <trkpt lat="50.0125568" lon="11.49832">
                <ele>320.0</ele>
                <time>2020-08-21T14:05:02.000Z</time>
                <name>Trackpoint 3523</name>
            </trkpt>
            <trkpt lat="50.0125088" lon="11.4981944">
                <ele>320.0</ele>
                <time>2020-08-21T14:05:04.000Z</time>
                <name>Trackpoint 3524</name>
            </trkpt>
            <trkpt lat="50.0124576" lon="11.4980536">
                <ele>320.0</ele>
                <time>2020-08-21T14:05:06.000Z</time>
                <name>Trackpoint 3525</name>
            </trkpt>
            <trkpt lat="50.0124352" lon="11.4979112">
                <ele>320.0</ele>
                <time>2020-08-21T14:05:08.000Z</time>
                <name>Trackpoint 3526</name>
            </trkpt>
            <trkpt lat="50.0124096" lon="11.4977912">
                <ele>320.0</ele>
                <time>2020-08-21T14:05:10.000Z</time>
                <name>Trackpoint 3527</name>
            </trkpt>
            <trkpt lat="50.0123872" lon="11.4976856">
                <ele>320.0</ele>
                <time>2020-08-21T14:05:12.000Z</time>
                <name>Trackpoint 3528</name>
            </trkpt>
            <trkpt lat="50.012352" lon="11.497568">
                <ele>320.0</ele>
                <time>2020-08-21T14:05:14.000Z</time>
                <name>Trackpoint 3529</name>
            </trkpt>
            <trkpt lat="50.01232" lon="11.4974696">
                <ele>320.0</ele>
                <time>2020-08-21T14:05:16.000Z</time>
                <name>Trackpoint 3530</name>
            </trkpt>
            <trkpt lat="50.0122688" lon="11.4973472">
                <ele>320.0</ele>
                <time>2020-08-21T14:05:19.000Z</time>
                <name>Trackpoint 3531</name>
            </trkpt>
            <trkpt lat="50.0122176" lon="11.4972336">
                <ele>319.0</ele>
                <time>2020-08-21T14:05:21.000Z</time>
                <name>Trackpoint 3532</name>
            </trkpt>
            <trkpt lat="50.0121792" lon="11.4971176">
                <ele>319.0</ele>
                <time>2020-08-21T14:05:23.000Z</time>
                <name>Trackpoint 3533</name>
            </trkpt>
            <trkpt lat="50.0121472" lon="11.4970248">
                <ele>319.0</ele>
                <time>2020-08-21T14:05:25.000Z</time>
                <name>Trackpoint 3534</name>
            </trkpt>
            <trkpt lat="50.012112" lon="11.4969416">
                <ele>319.0</ele>
                <time>2020-08-21T14:05:27.000Z</time>
                <name>Trackpoint 3535</name>
            </trkpt>
            <trkpt lat="50.0120608" lon="11.496848">
                <ele>319.0</ele>
                <time>2020-08-21T14:05:30.000Z</time>
                <name>Trackpoint 3536</name>
            </trkpt>
            <trkpt lat="50.0120128" lon="11.4967544">
                <ele>319.0</ele>
                <time>2020-08-21T14:05:33.000Z</time>
                <name>Trackpoint 3537</name>
            </trkpt>
            <trkpt lat="50.0119744" lon="11.4966624">
                <ele>319.0</ele>
                <time>2020-08-21T14:05:36.000Z</time>
                <name>Trackpoint 3538</name>
            </trkpt>
            <trkpt lat="50.0119136" lon="11.4965648">
                <ele>319.0</ele>
                <time>2020-08-21T14:05:39.000Z</time>
                <name>Trackpoint 3539</name>
            </trkpt>
            <trkpt lat="50.0118592" lon="11.496464">
                <ele>319.0</ele>
                <time>2020-08-21T14:05:42.000Z</time>
                <name>Trackpoint 3540</name>
            </trkpt>
            <trkpt lat="50.0118144" lon="11.4963616">
                <ele>319.0</ele>
                <time>2020-08-21T14:05:45.000Z</time>
                <name>Trackpoint 3541</name>
            </trkpt>
            <trkpt lat="50.0117728" lon="11.496252">
                <ele>319.0</ele>
                <time>2020-08-21T14:05:48.000Z</time>
                <name>Trackpoint 3542</name>
            </trkpt>
            <trkpt lat="50.0117312" lon="11.4961704">
                <ele>319.0</ele>
                <time>2020-08-21T14:05:50.000Z</time>
                <name>Trackpoint 3543</name>
            </trkpt>
            <trkpt lat="50.0116832" lon="11.4960816">
                <ele>319.0</ele>
                <time>2020-08-21T14:05:52.000Z</time>
                <name>Trackpoint 3544</name>
            </trkpt>
            <trkpt lat="50.011632" lon="11.4959984">
                <ele>319.0</ele>
                <time>2020-08-21T14:05:54.000Z</time>
                <name>Trackpoint 3545</name>
            </trkpt>
            <trkpt lat="50.0115776" lon="11.4959224">
                <ele>319.0</ele>
                <time>2020-08-21T14:05:56.000Z</time>
                <name>Trackpoint 3546</name>
            </trkpt>
            <trkpt lat="50.0115168" lon="11.4958136">
                <ele>319.0</ele>
                <time>2020-08-21T14:05:58.000Z</time>
                <name>Trackpoint 3547</name>
            </trkpt>
            <trkpt lat="50.0114624" lon="11.4957136">
                <ele>319.0</ele>
                <time>2020-08-21T14:06:00.000Z</time>
                <name>Trackpoint 3548</name>
            </trkpt>
            <trkpt lat="50.0113824" lon="11.4956032">
                <ele>318.0</ele>
                <time>2020-08-21T14:06:03.000Z</time>
                <name>Trackpoint 3549</name>
            </trkpt>
            <trkpt lat="50.0113024" lon="11.4955056">
                <ele>318.0</ele>
                <time>2020-08-21T14:06:06.000Z</time>
                <name>Trackpoint 3550</name>
            </trkpt>
            <trkpt lat="50.011216" lon="11.4954136">
                <ele>318.0</ele>
                <time>2020-08-21T14:06:09.000Z</time>
                <name>Trackpoint 3551</name>
            </trkpt>
            <trkpt lat="50.0111648" lon="11.4953144">
                <ele>319.0</ele>
                <time>2020-08-21T14:06:12.000Z</time>
                <name>Trackpoint 3552</name>
            </trkpt>
            <trkpt lat="50.011136" lon="11.49522">
                <ele>319.0</ele>
                <time>2020-08-21T14:06:14.000Z</time>
                <name>Trackpoint 3553</name>
            </trkpt>
            <trkpt lat="50.011104" lon="11.4950896">
                <ele>319.0</ele>
                <time>2020-08-21T14:06:17.000Z</time>
                <name>Trackpoint 3554</name>
            </trkpt>
            <trkpt lat="50.011088" lon="11.4949936">
                <ele>319.0</ele>
                <time>2020-08-21T14:06:19.000Z</time>
                <name>Trackpoint 3555</name>
            </trkpt>
            <trkpt lat="50.0110368" lon="11.4948784">
                <ele>319.0</ele>
                <time>2020-08-21T14:06:22.000Z</time>
                <name>Trackpoint 3556</name>
            </trkpt>
            <trkpt lat="50.010976" lon="11.4947592">
                <ele>319.0</ele>
                <time>2020-08-21T14:06:25.000Z</time>
                <name>Trackpoint 3557</name>
            </trkpt>
            <trkpt lat="50.0109184" lon="11.4946416">
                <ele>320.0</ele>
                <time>2020-08-21T14:06:28.000Z</time>
                <name>Trackpoint 3558</name>
            </trkpt>
            <trkpt lat="50.0108544" lon="11.4945296">
                <ele>320.0</ele>
                <time>2020-08-21T14:06:31.000Z</time>
                <name>Trackpoint 3559</name>
            </trkpt>
            <trkpt lat="50.0108192" lon="11.4944464">
                <ele>320.0</ele>
                <time>2020-08-21T14:06:33.000Z</time>
                <name>Trackpoint 3560</name>
            </trkpt>
            <trkpt lat="50.0107776" lon="11.49436">
                <ele>320.0</ele>
                <time>2020-08-21T14:06:35.000Z</time>
                <name>Trackpoint 3561</name>
            </trkpt>
            <trkpt lat="50.0107392" lon="11.4942776">
                <ele>320.0</ele>
                <time>2020-08-21T14:06:37.000Z</time>
                <name>Trackpoint 3562</name>
            </trkpt>
            <trkpt lat="50.0106784" lon="11.4941568">
                <ele>320.0</ele>
                <time>2020-08-21T14:06:40.000Z</time>
                <name>Trackpoint 3563</name>
            </trkpt>
            <trkpt lat="50.0106176" lon="11.4940432">
                <ele>321.0</ele>
                <time>2020-08-21T14:06:43.000Z</time>
                <name>Trackpoint 3564</name>
            </trkpt>
            <trkpt lat="50.0105504" lon="11.49394">
                <ele>322.0</ele>
                <time>2020-08-21T14:06:46.000Z</time>
                <name>Trackpoint 3565</name>
            </trkpt>
            <trkpt lat="50.0104864" lon="11.4938352">
                <ele>321.0</ele>
                <time>2020-08-21T14:06:49.000Z</time>
                <name>Trackpoint 3566</name>
            </trkpt>
            <trkpt lat="50.0104128" lon="11.4937512">
                <ele>322.0</ele>
                <time>2020-08-21T14:06:52.000Z</time>
                <name>Trackpoint 3567</name>
            </trkpt>
            <trkpt lat="50.0103264" lon="11.4936896">
                <ele>322.0</ele>
                <time>2020-08-21T14:06:55.000Z</time>
                <name>Trackpoint 3568</name>
            </trkpt>
            <trkpt lat="50.0102336" lon="11.49362">
                <ele>323.0</ele>
                <time>2020-08-21T14:06:58.000Z</time>
                <name>Trackpoint 3569</name>
            </trkpt>
            <trkpt lat="50.010144" lon="11.49356">
                <ele>324.0</ele>
                <time>2020-08-21T14:07:01.000Z</time>
                <name>Trackpoint 3570</name>
            </trkpt>
            <trkpt lat="50.0100544" lon="11.493488">
                <ele>325.0</ele>
                <time>2020-08-21T14:07:04.000Z</time>
                <name>Trackpoint 3571</name>
            </trkpt>
            <trkpt lat="50.0099744" lon="11.4934104">
                <ele>325.0</ele>
                <time>2020-08-21T14:07:07.000Z</time>
                <name>Trackpoint 3572</name>
            </trkpt>
            <trkpt lat="50.0098912" lon="11.4933328">
                <ele>325.0</ele>
                <time>2020-08-21T14:07:10.000Z</time>
                <name>Trackpoint 3573</name>
            </trkpt>
            <trkpt lat="50.0098048" lon="11.4932568">
                <ele>325.0</ele>
                <time>2020-08-21T14:07:13.000Z</time>
                <name>Trackpoint 3574</name>
            </trkpt>
            <trkpt lat="50.0097184" lon="11.4931768">
                <ele>325.0</ele>
                <time>2020-08-21T14:07:16.000Z</time>
                <name>Trackpoint 3575</name>
            </trkpt>
            <trkpt lat="50.0096384" lon="11.4930832">
                <ele>326.0</ele>
                <time>2020-08-21T14:07:19.000Z</time>
                <name>Trackpoint 3576</name>
            </trkpt>
            <trkpt lat="50.0095584" lon="11.4929984">
                <ele>326.0</ele>
                <time>2020-08-21T14:07:22.000Z</time>
                <name>Trackpoint 3577</name>
            </trkpt>
            <trkpt lat="50.0094752" lon="11.4929088">
                <ele>327.0</ele>
                <time>2020-08-21T14:07:25.000Z</time>
                <name>Trackpoint 3578</name>
            </trkpt>
            <trkpt lat="50.0093952" lon="11.4928104">
                <ele>328.0</ele>
                <time>2020-08-21T14:07:28.000Z</time>
                <name>Trackpoint 3579</name>
            </trkpt>
            <trkpt lat="50.0093184" lon="11.4927032">
                <ele>329.0</ele>
                <time>2020-08-21T14:07:31.000Z</time>
                <name>Trackpoint 3580</name>
            </trkpt>
            <trkpt lat="50.0092384" lon="11.4926008">
                <ele>329.0</ele>
                <time>2020-08-21T14:07:34.000Z</time>
                <name>Trackpoint 3581</name>
            </trkpt>
            <trkpt lat="50.0091904" lon="11.4925232">
                <ele>330.0</ele>
                <time>2020-08-21T14:07:36.000Z</time>
                <name>Trackpoint 3582</name>
            </trkpt>
            <trkpt lat="50.0091392" lon="11.4924488">
                <ele>330.0</ele>
                <time>2020-08-21T14:07:38.000Z</time>
                <name>Trackpoint 3583</name>
            </trkpt>
            <trkpt lat="50.009088" lon="11.4923736">
                <ele>330.0</ele>
                <time>2020-08-21T14:07:40.000Z</time>
                <name>Trackpoint 3584</name>
            </trkpt>
            <trkpt lat="50.0090496" lon="11.4922896">
                <ele>330.0</ele>
                <time>2020-08-21T14:07:42.000Z</time>
                <name>Trackpoint 3585</name>
            </trkpt>
            <trkpt lat="50.0089792" lon="11.4921768">
                <ele>330.0</ele>
                <time>2020-08-21T14:07:45.000Z</time>
                <name>Trackpoint 3586</name>
            </trkpt>
            <trkpt lat="50.0089344" lon="11.4920952">
                <ele>330.0</ele>
                <time>2020-08-21T14:07:47.000Z</time>
                <name>Trackpoint 3587</name>
            </trkpt>
            <trkpt lat="50.0088896" lon="11.4920128">
                <ele>330.0</ele>
                <time>2020-08-21T14:07:49.000Z</time>
                <name>Trackpoint 3588</name>
            </trkpt>
            <trkpt lat="50.0088384" lon="11.4919328">
                <ele>329.0</ele>
                <time>2020-08-21T14:07:51.000Z</time>
                <name>Trackpoint 3589</name>
            </trkpt>
            <trkpt lat="50.008784" lon="11.49186">
                <ele>330.0</ele>
                <time>2020-08-21T14:07:53.000Z</time>
                <name>Trackpoint 3590</name>
            </trkpt>
            <trkpt lat="50.008736" lon="11.491768">
                <ele>329.0</ele>
                <time>2020-08-21T14:07:55.000Z</time>
                <name>Trackpoint 3591</name>
            </trkpt>
            <trkpt lat="50.0086784" lon="11.4916872">
                <ele>329.0</ele>
                <time>2020-08-21T14:07:57.000Z</time>
                <name>Trackpoint 3592</name>
            </trkpt>
            <trkpt lat="50.0086368" lon="11.4915864">
                <ele>329.0</ele>
                <time>2020-08-21T14:07:59.000Z</time>
                <name>Trackpoint 3593</name>
            </trkpt>
            <trkpt lat="50.0085728" lon="11.4915088">
                <ele>330.0</ele>
                <time>2020-08-21T14:08:01.000Z</time>
                <name>Trackpoint 3594</name>
            </trkpt>
            <trkpt lat="50.0085184" lon="11.4914368">
                <ele>330.0</ele>
                <time>2020-08-21T14:08:03.000Z</time>
                <name>Trackpoint 3595</name>
            </trkpt>
            <trkpt lat="50.0084416" lon="11.4913304">
                <ele>330.0</ele>
                <time>2020-08-21T14:08:06.000Z</time>
                <name>Trackpoint 3596</name>
            </trkpt>
            <trkpt lat="50.0083808" lon="11.4912208">
                <ele>330.0</ele>
                <time>2020-08-21T14:08:09.000Z</time>
                <name>Trackpoint 3597</name>
            </trkpt>
            <trkpt lat="50.0083136" lon="11.4911248">
                <ele>330.0</ele>
                <time>2020-08-21T14:08:12.000Z</time>
                <name>Trackpoint 3598</name>
            </trkpt>
            <trkpt lat="50.0082624" lon="11.4910352">
                <ele>330.0</ele>
                <time>2020-08-21T14:08:15.000Z</time>
                <name>Trackpoint 3599</name>
            </trkpt>
            <trkpt lat="50.0082016" lon="11.4909536">
                <ele>331.0</ele>
                <time>2020-08-21T14:08:18.000Z</time>
                <name>Trackpoint 3600</name>
            </trkpt>
            <trkpt lat="50.0081408" lon="11.4908536">
                <ele>331.0</ele>
                <time>2020-08-21T14:08:21.000Z</time>
                <name>Trackpoint 3601</name>
            </trkpt>
            <trkpt lat="50.0080864" lon="11.4907752">
                <ele>331.0</ele>
                <time>2020-08-21T14:08:24.000Z</time>
                <name>Trackpoint 3602</name>
            </trkpt>
            <trkpt lat="50.0080288" lon="11.4906816">
                <ele>331.0</ele>
                <time>2020-08-21T14:08:27.000Z</time>
                <name>Trackpoint 3603</name>
            </trkpt>
            <trkpt lat="50.0079616" lon="11.4905816">
                <ele>331.0</ele>
                <time>2020-08-21T14:08:31.000Z</time>
                <name>Trackpoint 3604</name>
            </trkpt>
            <trkpt lat="50.0078976" lon="11.4904616">
                <ele>332.0</ele>
                <time>2020-08-21T14:08:35.000Z</time>
                <name>Trackpoint 3605</name>
            </trkpt>
            <trkpt lat="50.0078432" lon="11.4903696">
                <ele>332.0</ele>
                <time>2020-08-21T14:08:38.000Z</time>
                <name>Trackpoint 3606</name>
            </trkpt>
            <trkpt lat="50.0077824" lon="11.4902648">
                <ele>332.0</ele>
                <time>2020-08-21T14:08:41.000Z</time>
                <name>Trackpoint 3607</name>
            </trkpt>
            <trkpt lat="50.0077184" lon="11.4901368">
                <ele>333.0</ele>
                <time>2020-08-21T14:08:44.000Z</time>
                <name>Trackpoint 3608</name>
            </trkpt>
            <trkpt lat="50.0076608" lon="11.490024">
                <ele>333.0</ele>
                <time>2020-08-21T14:08:47.000Z</time>
                <name>Trackpoint 3609</name>
            </trkpt>
            <trkpt lat="50.0076064" lon="11.4899216">
                <ele>333.0</ele>
                <time>2020-08-21T14:08:50.000Z</time>
                <name>Trackpoint 3610</name>
            </trkpt>
            <trkpt lat="50.0075584" lon="11.4898096">
                <ele>333.0</ele>
                <time>2020-08-21T14:08:53.000Z</time>
                <name>Trackpoint 3611</name>
            </trkpt>
            <trkpt lat="50.0075008" lon="11.4896944">
                <ele>333.0</ele>
                <time>2020-08-21T14:08:56.000Z</time>
                <name>Trackpoint 3612</name>
            </trkpt>
            <trkpt lat="50.0074336" lon="11.4895824">
                <ele>334.0</ele>
                <time>2020-08-21T14:08:59.000Z</time>
                <name>Trackpoint 3613</name>
            </trkpt>
            <trkpt lat="50.0073696" lon="11.4894832">
                <ele>335.0</ele>
                <time>2020-08-21T14:09:02.000Z</time>
                <name>Trackpoint 3614</name>
            </trkpt>
            <trkpt lat="50.0073088" lon="11.48938">
                <ele>335.0</ele>
                <time>2020-08-21T14:09:05.000Z</time>
                <name>Trackpoint 3615</name>
            </trkpt>
            <trkpt lat="50.007248" lon="11.4892952">
                <ele>335.0</ele>
                <time>2020-08-21T14:09:08.000Z</time>
                <name>Trackpoint 3616</name>
            </trkpt>
            <trkpt lat="50.0072128" lon="11.4891768">
                <ele>336.0</ele>
                <time>2020-08-21T14:09:11.000Z</time>
                <name>Trackpoint 3617</name>
            </trkpt>
            <trkpt lat="50.0072416" lon="11.4890744">
                <ele>335.0</ele>
                <time>2020-08-21T14:09:13.000Z</time>
                <name>Trackpoint 3618</name>
            </trkpt>
            <trkpt lat="50.007296" lon="11.4889816">
                <ele>335.0</ele>
                <time>2020-08-21T14:09:15.000Z</time>
                <name>Trackpoint 3619</name>
            </trkpt>
            <trkpt lat="50.00736" lon="11.4888824">
                <ele>335.0</ele>
                <time>2020-08-21T14:09:17.000Z</time>
                <name>Trackpoint 3620</name>
            </trkpt>
            <trkpt lat="50.007424" lon="11.48878">
                <ele>334.0</ele>
                <time>2020-08-21T14:09:19.000Z</time>
                <name>Trackpoint 3621</name>
            </trkpt>
            <trkpt lat="50.007488" lon="11.488664">
                <ele>334.0</ele>
                <time>2020-08-21T14:09:21.000Z</time>
                <name>Trackpoint 3622</name>
            </trkpt>
            <trkpt lat="50.0075584" lon="11.4885368">
                <ele>334.0</ele>
                <time>2020-08-21T14:09:23.000Z</time>
                <name>Trackpoint 3623</name>
            </trkpt>
            <trkpt lat="50.0076224" lon="11.4883984">
                <ele>334.0</ele>
                <time>2020-08-21T14:09:25.000Z</time>
                <name>Trackpoint 3624</name>
            </trkpt>
            <trkpt lat="50.0076896" lon="11.4882568">
                <ele>333.0</ele>
                <time>2020-08-21T14:09:27.000Z</time>
                <name>Trackpoint 3625</name>
            </trkpt>
            <trkpt lat="50.00776" lon="11.4881048">
                <ele>333.0</ele>
                <time>2020-08-21T14:09:29.000Z</time>
                <name>Trackpoint 3626</name>
            </trkpt>
            <trkpt lat="50.0078272" lon="11.4879376">
                <ele>332.0</ele>
                <time>2020-08-21T14:09:31.000Z</time>
                <name>Trackpoint 3627</name>
            </trkpt>
            <trkpt lat="50.0078624" lon="11.4878504">
                <ele>332.0</ele>
                <time>2020-08-21T14:09:32.000Z</time>
                <name>Trackpoint 3628</name>
            </trkpt>
            <trkpt lat="50.0079008" lon="11.4877568">
                <ele>331.0</ele>
                <time>2020-08-21T14:09:33.000Z</time>
                <name>Trackpoint 3629</name>
            </trkpt>
            <trkpt lat="50.007936" lon="11.4876632">
                <ele>330.0</ele>
                <time>2020-08-21T14:09:34.000Z</time>
                <name>Trackpoint 3630</name>
            </trkpt>
            <trkpt lat="50.0079712" lon="11.487572">
                <ele>329.0</ele>
                <time>2020-08-21T14:09:35.000Z</time>
                <name>Trackpoint 3631</name>
            </trkpt>
            <trkpt lat="50.0080064" lon="11.4874784">
                <ele>329.0</ele>
                <time>2020-08-21T14:09:36.000Z</time>
                <name>Trackpoint 3632</name>
            </trkpt>
            <trkpt lat="50.0080448" lon="11.4873864">
                <ele>328.0</ele>
                <time>2020-08-21T14:09:37.000Z</time>
                <name>Trackpoint 3633</name>
            </trkpt>
            <trkpt lat="50.0080832" lon="11.487304">
                <ele>327.0</ele>
                <time>2020-08-21T14:09:38.000Z</time>
                <name>Trackpoint 3634</name>
            </trkpt>
            <trkpt lat="50.0081824" lon="11.4871728">
                <ele>326.0</ele>
                <time>2020-08-21T14:09:40.000Z</time>
                <name>Trackpoint 3635</name>
            </trkpt>
            <trkpt lat="50.0082976" lon="11.4870768">
                <ele>325.0</ele>
                <time>2020-08-21T14:09:42.000Z</time>
                <name>Trackpoint 3636</name>
            </trkpt>
            <trkpt lat="50.0084128" lon="11.4869944">
                <ele>323.0</ele>
                <time>2020-08-21T14:09:44.000Z</time>
                <name>Trackpoint 3637</name>
            </trkpt>
            <trkpt lat="50.0085152" lon="11.4869368">
                <ele>322.0</ele>
                <time>2020-08-21T14:09:46.000Z</time>
                <name>Trackpoint 3638</name>
            </trkpt>
            <trkpt lat="50.0085952" lon="11.4868896">
                <ele>321.0</ele>
                <time>2020-08-21T14:09:48.000Z</time>
                <name>Trackpoint 3639</name>
            </trkpt>
            <trkpt lat="50.0086112" lon="11.4867688">
                <ele>321.0</ele>
                <time>2020-08-21T14:09:51.000Z</time>
                <name>Trackpoint 3640</name>
            </trkpt>
            <trkpt lat="50.00856" lon="11.4866416">
                <ele>321.0</ele>
                <time>2020-08-21T14:09:54.000Z</time>
                <name>Trackpoint 3641</name>
            </trkpt>
            <trkpt lat="50.0085184" lon="11.4865064">
                <ele>321.0</ele>
                <time>2020-08-21T14:09:56.000Z</time>
                <name>Trackpoint 3642</name>
            </trkpt>
            <trkpt lat="50.0085056" lon="11.4864032">
                <ele>321.0</ele>
                <time>2020-08-21T14:09:57.000Z</time>
                <name>Trackpoint 3643</name>
            </trkpt>
            <trkpt lat="50.0084736" lon="11.4862808">
                <ele>321.0</ele>
                <time>2020-08-21T14:09:59.000Z</time>
                <name>Trackpoint 3644</name>
            </trkpt>
            <trkpt lat="50.0084544" lon="11.486168">
                <ele>320.0</ele>
                <time>2020-08-21T14:10:01.000Z</time>
                <name>Trackpoint 3645</name>
            </trkpt>
            <trkpt lat="50.0084256" lon="11.48606">
                <ele>320.0</ele>
                <time>2020-08-21T14:10:03.000Z</time>
                <name>Trackpoint 3646</name>
            </trkpt>
            <trkpt lat="50.0084032" lon="11.4859688">
                <ele>320.0</ele>
                <time>2020-08-21T14:10:05.000Z</time>
                <name>Trackpoint 3647</name>
            </trkpt>
            <trkpt lat="50.0083744" lon="11.4858504">
                <ele>320.0</ele>
                <time>2020-08-21T14:10:07.000Z</time>
                <name>Trackpoint 3648</name>
            </trkpt>
            <trkpt lat="50.0083488" lon="11.4857384">
                <ele>320.0</ele>
                <time>2020-08-21T14:10:09.000Z</time>
                <name>Trackpoint 3649</name>
            </trkpt>
            <trkpt lat="50.0083264" lon="11.485612">
                <ele>320.0</ele>
                <time>2020-08-21T14:10:11.000Z</time>
                <name>Trackpoint 3650</name>
            </trkpt>
            <trkpt lat="50.008304" lon="11.485468">
                <ele>320.0</ele>
                <time>2020-08-21T14:10:13.000Z</time>
                <name>Trackpoint 3651</name>
            </trkpt>
            <trkpt lat="50.0082816" lon="11.4853712">
                <ele>321.0</ele>
                <time>2020-08-21T14:10:14.000Z</time>
                <name>Trackpoint 3652</name>
            </trkpt>
            <trkpt lat="50.0082624" lon="11.48522">
                <ele>321.0</ele>
                <time>2020-08-21T14:10:16.000Z</time>
                <name>Trackpoint 3653</name>
            </trkpt>
            <trkpt lat="50.0082464" lon="11.4851">
                <ele>321.0</ele>
                <time>2020-08-21T14:10:18.000Z</time>
                <name>Trackpoint 3654</name>
            </trkpt>
            <trkpt lat="50.0082336" lon="11.484968">
                <ele>321.0</ele>
                <time>2020-08-21T14:10:20.000Z</time>
                <name>Trackpoint 3655</name>
            </trkpt>
            <trkpt lat="50.008208" lon="11.4848632">
                <ele>320.0</ele>
                <time>2020-08-21T14:10:21.000Z</time>
                <name>Trackpoint 3656</name>
            </trkpt>
            <trkpt lat="50.008208" lon="11.484712">
                <ele>320.0</ele>
                <time>2020-08-21T14:10:23.000Z</time>
                <name>Trackpoint 3657</name>
            </trkpt>
            <trkpt lat="50.0082144" lon="11.4845552">
                <ele>320.0</ele>
                <time>2020-08-21T14:10:25.000Z</time>
                <name>Trackpoint 3658</name>
            </trkpt>
            <trkpt lat="50.0082208" lon="11.4844464">
                <ele>320.0</ele>
                <time>2020-08-21T14:10:26.000Z</time>
                <name>Trackpoint 3659</name>
            </trkpt>
            <trkpt lat="50.0082432" lon="11.4843264">
                <ele>320.0</ele>
                <time>2020-08-21T14:10:28.000Z</time>
                <name>Trackpoint 3660</name>
            </trkpt>
            <trkpt lat="50.0082688" lon="11.4842264">
                <ele>320.0</ele>
                <time>2020-08-21T14:10:30.000Z</time>
                <name>Trackpoint 3661</name>
            </trkpt>
            <trkpt lat="50.008288" lon="11.484132">
                <ele>321.0</ele>
                <time>2020-08-21T14:10:32.000Z</time>
                <name>Trackpoint 3662</name>
            </trkpt>
            <trkpt lat="50.0083072" lon="11.4840336">
                <ele>321.0</ele>
                <time>2020-08-21T14:10:34.000Z</time>
                <name>Trackpoint 3663</name>
            </trkpt>
            <trkpt lat="50.0083168" lon="11.4838984">
                <ele>321.0</ele>
                <time>2020-08-21T14:10:37.000Z</time>
                <name>Trackpoint 3664</name>
            </trkpt>
            <trkpt lat="50.0083232" lon="11.4838">
                <ele>321.0</ele>
                <time>2020-08-21T14:10:39.000Z</time>
                <name>Trackpoint 3665</name>
            </trkpt>
            <trkpt lat="50.0083264" lon="11.4837">
                <ele>321.0</ele>
                <time>2020-08-21T14:10:41.000Z</time>
                <name>Trackpoint 3666</name>
            </trkpt>
            <trkpt lat="50.0083136" lon="11.483608">
                <ele>321.0</ele>
                <time>2020-08-21T14:10:42.000Z</time>
                <name>Trackpoint 3667</name>
            </trkpt>
            <trkpt lat="50.0083072" lon="11.4835144">
                <ele>321.0</ele>
                <time>2020-08-21T14:10:54.000Z</time>
                <name>Trackpoint 3668</name>
            </trkpt>
            <trkpt lat="50.008336" lon="11.483408">
                <ele>321.0</ele>
                <time>2020-08-21T14:10:58.000Z</time>
                <name>Trackpoint 3669</name>
            </trkpt>
            <trkpt lat="50.0083488" lon="11.483296">
                <ele>321.0</ele>
                <time>2020-08-21T14:11:00.000Z</time>
                <name>Trackpoint 3670</name>
            </trkpt>
            <trkpt lat="50.0083744" lon="11.4832032">
                <ele>321.0</ele>
                <time>2020-08-21T14:11:02.000Z</time>
                <name>Trackpoint 3671</name>
            </trkpt>
            <trkpt lat="50.0084" lon="11.4831">
                <ele>321.0</ele>
                <time>2020-08-21T14:11:04.000Z</time>
                <name>Trackpoint 3672</name>
            </trkpt>
            <trkpt lat="50.0084352" lon="11.4829976">
                <ele>321.0</ele>
                <time>2020-08-21T14:11:06.000Z</time>
                <name>Trackpoint 3673</name>
            </trkpt>
            <trkpt lat="50.0084736" lon="11.4828664">
                <ele>321.0</ele>
                <time>2020-08-21T14:11:08.000Z</time>
                <name>Trackpoint 3674</name>
            </trkpt>
            <trkpt lat="50.008512" lon="11.4827384">
                <ele>321.0</ele>
                <time>2020-08-21T14:11:10.000Z</time>
                <name>Trackpoint 3675</name>
            </trkpt>
            <trkpt lat="50.0085632" lon="11.4826184">
                <ele>321.0</ele>
                <time>2020-08-21T14:11:12.000Z</time>
                <name>Trackpoint 3676</name>
            </trkpt>
            <trkpt lat="50.0086176" lon="11.4825064">
                <ele>321.0</ele>
                <time>2020-08-21T14:11:14.000Z</time>
                <name>Trackpoint 3677</name>
            </trkpt>
            <trkpt lat="50.0086624" lon="11.482404">
                <ele>321.0</ele>
                <time>2020-08-21T14:11:16.000Z</time>
                <name>Trackpoint 3678</name>
            </trkpt>
            <trkpt lat="50.0087008" lon="11.4823152">
                <ele>321.0</ele>
                <time>2020-08-21T14:11:18.000Z</time>
                <name>Trackpoint 3679</name>
            </trkpt>
            <trkpt lat="50.0087584" lon="11.4822352">
                <ele>321.0</ele>
                <time>2020-08-21T14:11:20.000Z</time>
                <name>Trackpoint 3680</name>
            </trkpt>
            <trkpt lat="50.0088224" lon="11.4821464">
                <ele>321.0</ele>
                <time>2020-08-21T14:11:22.000Z</time>
                <name>Trackpoint 3681</name>
            </trkpt>
            <trkpt lat="50.0088832" lon="11.4820536">
                <ele>321.0</ele>
                <time>2020-08-21T14:11:24.000Z</time>
                <name>Trackpoint 3682</name>
            </trkpt>
            <trkpt lat="50.008944" lon="11.48196">
                <ele>321.0</ele>
                <time>2020-08-21T14:11:26.000Z</time>
                <name>Trackpoint 3683</name>
            </trkpt>
            <trkpt lat="50.0090176" lon="11.4818648">
                <ele>321.0</ele>
                <time>2020-08-21T14:11:28.000Z</time>
                <name>Trackpoint 3684</name>
            </trkpt>
            <trkpt lat="50.0090816" lon="11.4817616">
                <ele>321.0</ele>
                <time>2020-08-21T14:11:30.000Z</time>
                <name>Trackpoint 3685</name>
            </trkpt>
            <trkpt lat="50.0091616" lon="11.4816816">
                <ele>321.0</ele>
                <time>2020-08-21T14:11:32.000Z</time>
                <name>Trackpoint 3686</name>
            </trkpt>
            <trkpt lat="50.0092288" lon="11.4816016">
                <ele>321.0</ele>
                <time>2020-08-21T14:11:34.000Z</time>
                <name>Trackpoint 3687</name>
            </trkpt>
            <trkpt lat="50.0093088" lon="11.481508">
                <ele>321.0</ele>
                <time>2020-08-21T14:11:36.000Z</time>
                <name>Trackpoint 3688</name>
            </trkpt>
            <trkpt lat="50.0093952" lon="11.481412">
                <ele>321.0</ele>
                <time>2020-08-21T14:11:38.000Z</time>
                <name>Trackpoint 3689</name>
            </trkpt>
            <trkpt lat="50.0094784" lon="11.4813144">
                <ele>321.0</ele>
                <time>2020-08-21T14:11:40.000Z</time>
                <name>Trackpoint 3690</name>
            </trkpt>
            <trkpt lat="50.0095584" lon="11.48122">
                <ele>321.0</ele>
                <time>2020-08-21T14:11:42.000Z</time>
                <name>Trackpoint 3691</name>
            </trkpt>
            <trkpt lat="50.009648" lon="11.4811448">
                <ele>321.0</ele>
                <time>2020-08-21T14:11:44.000Z</time>
                <name>Trackpoint 3692</name>
            </trkpt>
            <trkpt lat="50.0097248" lon="11.4810736">
                <ele>321.0</ele>
                <time>2020-08-21T14:11:46.000Z</time>
                <name>Trackpoint 3693</name>
            </trkpt>
            <trkpt lat="50.0097984" lon="11.481004">
                <ele>321.0</ele>
                <time>2020-08-21T14:11:48.000Z</time>
                <name>Trackpoint 3694</name>
            </trkpt>
            <trkpt lat="50.0098912" lon="11.4809552">
                <ele>321.0</ele>
                <time>2020-08-21T14:11:50.000Z</time>
                <name>Trackpoint 3695</name>
            </trkpt>
            <trkpt lat="50.0099904" lon="11.4808848">
                <ele>322.0</ele>
                <time>2020-08-21T14:11:52.000Z</time>
                <name>Trackpoint 3696</name>
            </trkpt>
            <trkpt lat="50.0100896" lon="11.4808016">
                <ele>322.0</ele>
                <time>2020-08-21T14:11:55.000Z</time>
                <name>Trackpoint 3697</name>
            </trkpt>
            <trkpt lat="50.0101408" lon="11.4806944">
                <ele>322.0</ele>
                <time>2020-08-21T14:11:58.000Z</time>
                <name>Trackpoint 3698</name>
            </trkpt>
            <trkpt lat="50.0101792" lon="11.480568">
                <ele>322.0</ele>
                <time>2020-08-21T14:12:01.000Z</time>
                <name>Trackpoint 3699</name>
            </trkpt>
            <trkpt lat="50.0102528" lon="11.48048">
                <ele>322.0</ele>
                <time>2020-08-21T14:12:04.000Z</time>
                <name>Trackpoint 3700</name>
            </trkpt>
            <trkpt lat="50.0103232" lon="11.4804">
                <ele>322.0</ele>
                <time>2020-08-21T14:12:06.000Z</time>
                <name>Trackpoint 3701</name>
            </trkpt>
            <trkpt lat="50.010384" lon="11.480304">
                <ele>322.0</ele>
                <time>2020-08-21T14:12:08.000Z</time>
                <name>Trackpoint 3702</name>
            </trkpt>
            <trkpt lat="50.0104512" lon="11.4802128">
                <ele>322.0</ele>
                <time>2020-08-21T14:12:10.000Z</time>
                <name>Trackpoint 3703</name>
            </trkpt>
            <trkpt lat="50.010544" lon="11.480112">
                <ele>322.0</ele>
                <time>2020-08-21T14:12:12.000Z</time>
                <name>Trackpoint 3704</name>
            </trkpt>
            <trkpt lat="50.0106432" lon="11.4800104">
                <ele>322.0</ele>
                <time>2020-08-21T14:12:14.000Z</time>
                <name>Trackpoint 3705</name>
            </trkpt>
            <trkpt lat="50.0107488" lon="11.4798832">
                <ele>322.0</ele>
                <time>2020-08-21T14:12:16.000Z</time>
                <name>Trackpoint 3706</name>
            </trkpt>
            <trkpt lat="50.010848" lon="11.4797696">
                <ele>322.0</ele>
                <time>2020-08-21T14:12:18.000Z</time>
                <name>Trackpoint 3707</name>
            </trkpt>
            <trkpt lat="50.0109504" lon="11.4796664">
                <ele>322.0</ele>
                <time>2020-08-21T14:12:20.000Z</time>
                <name>Trackpoint 3708</name>
            </trkpt>
            <trkpt lat="50.0110656" lon="11.47956">
                <ele>322.0</ele>
                <time>2020-08-21T14:12:22.000Z</time>
                <name>Trackpoint 3709</name>
            </trkpt>
            <trkpt lat="50.0111744" lon="11.479448">
                <ele>322.0</ele>
                <time>2020-08-21T14:12:24.000Z</time>
                <name>Trackpoint 3710</name>
            </trkpt>
            <trkpt lat="50.0112768" lon="11.4793304">
                <ele>322.0</ele>
                <time>2020-08-21T14:12:26.000Z</time>
                <name>Trackpoint 3711</name>
            </trkpt>
            <trkpt lat="50.0113568" lon="11.4792744">
                <ele>322.0</ele>
                <time>2020-08-21T14:12:27.000Z</time>
                <name>Trackpoint 3712</name>
            </trkpt>
            <trkpt lat="50.011424" lon="11.4792048">
                <ele>322.0</ele>
                <time>2020-08-21T14:12:28.000Z</time>
                <name>Trackpoint 3713</name>
            </trkpt>
            <trkpt lat="50.0115232" lon="11.479076">
                <ele>321.0</ele>
                <time>2020-08-21T14:12:29.000Z</time>
                <name>Trackpoint 3714</name>
            </trkpt>
            <trkpt lat="50.0116352" lon="11.4790248">
                <ele>322.0</ele>
                <time>2020-08-21T14:12:30.000Z</time>
                <name>Trackpoint 3715</name>
            </trkpt>
            <trkpt lat="50.0117152" lon="11.4789712">
                <ele>322.0</ele>
                <time>2020-08-21T14:12:31.000Z</time>
                <name>Trackpoint 3716</name>
            </trkpt>
            <trkpt lat="50.0118208" lon="11.4788616">
                <ele>322.0</ele>
                <time>2020-08-21T14:12:33.000Z</time>
                <name>Trackpoint 3717</name>
            </trkpt>
            <trkpt lat="50.0119328" lon="11.4787728">
                <ele>322.0</ele>
                <time>2020-08-21T14:12:35.000Z</time>
                <name>Trackpoint 3718</name>
            </trkpt>
            <trkpt lat="50.0120192" lon="11.4786928">
                <ele>322.0</ele>
                <time>2020-08-21T14:12:37.000Z</time>
                <name>Trackpoint 3719</name>
            </trkpt>
            <trkpt lat="50.012112" lon="11.4786256">
                <ele>322.0</ele>
                <time>2020-08-21T14:12:39.000Z</time>
                <name>Trackpoint 3720</name>
            </trkpt>
            <trkpt lat="50.0121952" lon="11.4785672">
                <ele>322.0</ele>
                <time>2020-08-21T14:12:41.000Z</time>
                <name>Trackpoint 3721</name>
            </trkpt>
            <trkpt lat="50.0122848" lon="11.4784944">
                <ele>322.0</ele>
                <time>2020-08-21T14:12:43.000Z</time>
                <name>Trackpoint 3722</name>
            </trkpt>
            <trkpt lat="50.0123744" lon="11.4784184">
                <ele>322.0</ele>
                <time>2020-08-21T14:12:45.000Z</time>
                <name>Trackpoint 3723</name>
            </trkpt>
            <trkpt lat="50.0124736" lon="11.4783448">
                <ele>322.0</ele>
                <time>2020-08-21T14:12:47.000Z</time>
                <name>Trackpoint 3724</name>
            </trkpt>
            <trkpt lat="50.0125824" lon="11.47826">
                <ele>322.0</ele>
                <time>2020-08-21T14:12:49.000Z</time>
                <name>Trackpoint 3725</name>
            </trkpt>
            <trkpt lat="50.0126848" lon="11.4781816">
                <ele>322.0</ele>
                <time>2020-08-21T14:12:51.000Z</time>
                <name>Trackpoint 3726</name>
            </trkpt>
            <trkpt lat="50.0127936" lon="11.4780928">
                <ele>322.0</ele>
                <time>2020-08-21T14:12:53.000Z</time>
                <name>Trackpoint 3727</name>
            </trkpt>
            <trkpt lat="50.0129056" lon="11.4780064">
                <ele>322.0</ele>
                <time>2020-08-21T14:12:55.000Z</time>
                <name>Trackpoint 3728</name>
            </trkpt>
            <trkpt lat="50.013008" lon="11.4779216">
                <ele>322.0</ele>
                <time>2020-08-21T14:12:57.000Z</time>
                <name>Trackpoint 3729</name>
            </trkpt>
            <trkpt lat="50.013104" lon="11.4778472">
                <ele>322.0</ele>
                <time>2020-08-21T14:12:59.000Z</time>
                <name>Trackpoint 3730</name>
            </trkpt>
            <trkpt lat="50.0132064" lon="11.4777616">
                <ele>322.0</ele>
                <time>2020-08-21T14:13:01.000Z</time>
                <name>Trackpoint 3731</name>
            </trkpt>
            <trkpt lat="50.0133184" lon="11.4776688">
                <ele>322.0</ele>
                <time>2020-08-21T14:13:03.000Z</time>
                <name>Trackpoint 3732</name>
            </trkpt>
            <trkpt lat="50.0134208" lon="11.4775936">
                <ele>322.0</ele>
                <time>2020-08-21T14:13:05.000Z</time>
                <name>Trackpoint 3733</name>
            </trkpt>
            <trkpt lat="50.0135232" lon="11.4775112">
                <ele>322.0</ele>
                <time>2020-08-21T14:13:07.000Z</time>
                <name>Trackpoint 3734</name>
            </trkpt>
            <trkpt lat="50.0136256" lon="11.4774304">
                <ele>322.0</ele>
                <time>2020-08-21T14:13:09.000Z</time>
                <name>Trackpoint 3735</name>
            </trkpt>
            <trkpt lat="50.013728" lon="11.4773464">
                <ele>321.0</ele>
                <time>2020-08-21T14:13:11.000Z</time>
                <name>Trackpoint 3736</name>
            </trkpt>
            <trkpt lat="50.0138336" lon="11.4772656">
                <ele>321.0</ele>
                <time>2020-08-21T14:13:13.000Z</time>
                <name>Trackpoint 3737</name>
            </trkpt>
            <trkpt lat="50.013936" lon="11.4771792">
                <ele>321.0</ele>
                <time>2020-08-21T14:13:15.000Z</time>
                <name>Trackpoint 3738</name>
            </trkpt>
            <trkpt lat="50.0140384" lon="11.4771016">
                <ele>321.0</ele>
                <time>2020-08-21T14:13:17.000Z</time>
                <name>Trackpoint 3739</name>
            </trkpt>
            <trkpt lat="50.0141408" lon="11.4770248">
                <ele>321.0</ele>
                <time>2020-08-21T14:13:19.000Z</time>
                <name>Trackpoint 3740</name>
            </trkpt>
            <trkpt lat="50.0142432" lon="11.4769472">
                <ele>321.0</ele>
                <time>2020-08-21T14:13:21.000Z</time>
                <name>Trackpoint 3741</name>
            </trkpt>
            <trkpt lat="50.0143456" lon="11.4768664">
                <ele>321.0</ele>
                <time>2020-08-21T14:13:23.000Z</time>
                <name>Trackpoint 3742</name>
            </trkpt>
            <trkpt lat="50.0144448" lon="11.4767936">
                <ele>321.0</ele>
                <time>2020-08-21T14:13:25.000Z</time>
                <name>Trackpoint 3743</name>
            </trkpt>
            <trkpt lat="50.0145408" lon="11.4767176">
                <ele>320.0</ele>
                <time>2020-08-21T14:13:27.000Z</time>
                <name>Trackpoint 3744</name>
            </trkpt>
            <trkpt lat="50.0146368" lon="11.4766432">
                <ele>321.0</ele>
                <time>2020-08-21T14:13:29.000Z</time>
                <name>Trackpoint 3745</name>
            </trkpt>
            <trkpt lat="50.0147328" lon="11.4765704">
                <ele>321.0</ele>
                <time>2020-08-21T14:13:31.000Z</time>
                <name>Trackpoint 3746</name>
            </trkpt>
            <trkpt lat="50.0148224" lon="11.4764904">
                <ele>320.0</ele>
                <time>2020-08-21T14:13:33.000Z</time>
                <name>Trackpoint 3747</name>
            </trkpt>
            <trkpt lat="50.0149184" lon="11.476408">
                <ele>320.0</ele>
                <time>2020-08-21T14:13:35.000Z</time>
                <name>Trackpoint 3748</name>
            </trkpt>
            <trkpt lat="50.0150144" lon="11.4763216">
                <ele>321.0</ele>
                <time>2020-08-21T14:13:37.000Z</time>
                <name>Trackpoint 3749</name>
            </trkpt>
            <trkpt lat="50.0151104" lon="11.4762336">
                <ele>321.0</ele>
                <time>2020-08-21T14:13:39.000Z</time>
                <name>Trackpoint 3750</name>
            </trkpt>
            <trkpt lat="50.0152128" lon="11.4761336">
                <ele>320.0</ele>
                <time>2020-08-21T14:13:41.000Z</time>
                <name>Trackpoint 3751</name>
            </trkpt>
            <trkpt lat="50.0153056" lon="11.4760352">
                <ele>320.0</ele>
                <time>2020-08-21T14:13:43.000Z</time>
                <name>Trackpoint 3752</name>
            </trkpt>
            <trkpt lat="50.0153952" lon="11.47594">
                <ele>320.0</ele>
                <time>2020-08-21T14:13:45.000Z</time>
                <name>Trackpoint 3753</name>
            </trkpt>
            <trkpt lat="50.0154848" lon="11.4758384">
                <ele>320.0</ele>
                <time>2020-08-21T14:13:47.000Z</time>
                <name>Trackpoint 3754</name>
            </trkpt>
            <trkpt lat="50.015568" lon="11.4757336">
                <ele>320.0</ele>
                <time>2020-08-21T14:13:49.000Z</time>
                <name>Trackpoint 3755</name>
            </trkpt>
            <trkpt lat="50.0156448" lon="11.4756248">
                <ele>320.0</ele>
                <time>2020-08-21T14:13:51.000Z</time>
                <name>Trackpoint 3756</name>
            </trkpt>
            <trkpt lat="50.015728" lon="11.4755224">
                <ele>320.0</ele>
                <time>2020-08-21T14:13:53.000Z</time>
                <name>Trackpoint 3757</name>
            </trkpt>
            <trkpt lat="50.015808" lon="11.4754248">
                <ele>320.0</ele>
                <time>2020-08-21T14:13:55.000Z</time>
                <name>Trackpoint 3758</name>
            </trkpt>
            <trkpt lat="50.0158848" lon="11.4753264">
                <ele>320.0</ele>
                <time>2020-08-21T14:13:57.000Z</time>
                <name>Trackpoint 3759</name>
            </trkpt>
            <trkpt lat="50.015952" lon="11.4752216">
                <ele>320.0</ele>
                <time>2020-08-21T14:13:59.000Z</time>
                <name>Trackpoint 3760</name>
            </trkpt>
            <trkpt lat="50.0160128" lon="11.4751184">
                <ele>320.0</ele>
                <time>2020-08-21T14:14:01.000Z</time>
                <name>Trackpoint 3761</name>
            </trkpt>
            <trkpt lat="50.0160864" lon="11.4750048">
                <ele>320.0</ele>
                <time>2020-08-21T14:14:03.000Z</time>
                <name>Trackpoint 3762</name>
            </trkpt>
            <trkpt lat="50.0161632" lon="11.4748824">
                <ele>320.0</ele>
                <time>2020-08-21T14:14:05.000Z</time>
                <name>Trackpoint 3763</name>
            </trkpt>
            <trkpt lat="50.0162272" lon="11.4747784">
                <ele>319.0</ele>
                <time>2020-08-21T14:14:07.000Z</time>
                <name>Trackpoint 3764</name>
            </trkpt>
            <trkpt lat="50.0162976" lon="11.4746552">
                <ele>319.0</ele>
                <time>2020-08-21T14:14:09.000Z</time>
                <name>Trackpoint 3765</name>
            </trkpt>
            <trkpt lat="50.0163648" lon="11.47452">
                <ele>319.0</ele>
                <time>2020-08-21T14:14:11.000Z</time>
                <name>Trackpoint 3766</name>
            </trkpt>
            <trkpt lat="50.0164384" lon="11.4743904">
                <ele>319.0</ele>
                <time>2020-08-21T14:14:13.000Z</time>
                <name>Trackpoint 3767</name>
            </trkpt>
            <trkpt lat="50.0165056" lon="11.4742544">
                <ele>319.0</ele>
                <time>2020-08-21T14:14:15.000Z</time>
                <name>Trackpoint 3768</name>
            </trkpt>
            <trkpt lat="50.016576" lon="11.4741152">
                <ele>318.0</ele>
                <time>2020-08-21T14:14:17.000Z</time>
                <name>Trackpoint 3769</name>
            </trkpt>
            <trkpt lat="50.0166432" lon="11.4739616">
                <ele>318.0</ele>
                <time>2020-08-21T14:14:19.000Z</time>
                <name>Trackpoint 3770</name>
            </trkpt>
            <trkpt lat="50.0167136" lon="11.4738056">
                <ele>317.0</ele>
                <time>2020-08-21T14:14:21.000Z</time>
                <name>Trackpoint 3771</name>
            </trkpt>
            <trkpt lat="50.0167808" lon="11.4736456">
                <ele>315.0</ele>
                <time>2020-08-21T14:14:23.000Z</time>
                <name>Trackpoint 3772</name>
            </trkpt>
            <trkpt lat="50.0168544" lon="11.4734832">
                <ele>316.0</ele>
                <time>2020-08-21T14:14:25.000Z</time>
                <name>Trackpoint 3773</name>
            </trkpt>
            <trkpt lat="50.0169184" lon="11.4733104">
                <ele>315.0</ele>
                <time>2020-08-21T14:14:27.000Z</time>
                <name>Trackpoint 3774</name>
            </trkpt>
            <trkpt lat="50.016976" lon="11.4731392">
                <ele>316.0</ele>
                <time>2020-08-21T14:14:29.000Z</time>
                <name>Trackpoint 3775</name>
            </trkpt>
            <trkpt lat="50.0170048" lon="11.473052">
                <ele>315.0</ele>
                <time>2020-08-21T14:14:30.000Z</time>
                <name>Trackpoint 3776</name>
            </trkpt>
            <trkpt lat="50.0170624" lon="11.4728832">
                <ele>315.0</ele>
                <time>2020-08-21T14:14:32.000Z</time>
                <name>Trackpoint 3777</name>
            </trkpt>
            <trkpt lat="50.0170944" lon="11.4727944">
                <ele>316.0</ele>
                <time>2020-08-21T14:14:33.000Z</time>
                <name>Trackpoint 3778</name>
            </trkpt>
            <trkpt lat="50.0171232" lon="11.4727064">
                <ele>316.0</ele>
                <time>2020-08-21T14:14:34.000Z</time>
                <name>Trackpoint 3779</name>
            </trkpt>
            <trkpt lat="50.0171552" lon="11.47262">
                <ele>316.0</ele>
                <time>2020-08-21T14:14:35.000Z</time>
                <name>Trackpoint 3780</name>
            </trkpt>
            <trkpt lat="50.017184" lon="11.4725288">
                <ele>316.0</ele>
                <time>2020-08-21T14:14:36.000Z</time>
                <name>Trackpoint 3781</name>
            </trkpt>
            <trkpt lat="50.0172096" lon="11.4724328">
                <ele>316.0</ele>
                <time>2020-08-21T14:14:37.000Z</time>
                <name>Trackpoint 3782</name>
            </trkpt>
            <trkpt lat="50.017232" lon="11.47234">
                <ele>316.0</ele>
                <time>2020-08-21T14:14:38.000Z</time>
                <name>Trackpoint 3783</name>
            </trkpt>
            <trkpt lat="50.0172544" lon="11.4722472">
                <ele>316.0</ele>
                <time>2020-08-21T14:14:39.000Z</time>
                <name>Trackpoint 3784</name>
            </trkpt>
            <trkpt lat="50.01728" lon="11.4721568">
                <ele>316.0</ele>
                <time>2020-08-21T14:14:40.000Z</time>
                <name>Trackpoint 3785</name>
            </trkpt>
            <trkpt lat="50.0173088" lon="11.4720672">
                <ele>316.0</ele>
                <time>2020-08-21T14:14:41.000Z</time>
                <name>Trackpoint 3786</name>
            </trkpt>
            <trkpt lat="50.0173312" lon="11.4719736">
                <ele>316.0</ele>
                <time>2020-08-21T14:14:42.000Z</time>
                <name>Trackpoint 3787</name>
            </trkpt>
            <trkpt lat="50.0173536" lon="11.47188">
                <ele>316.0</ele>
                <time>2020-08-21T14:14:43.000Z</time>
                <name>Trackpoint 3788</name>
            </trkpt>
            <trkpt lat="50.0173728" lon="11.4717816">
                <ele>317.0</ele>
                <time>2020-08-21T14:14:44.000Z</time>
                <name>Trackpoint 3789</name>
            </trkpt>
            <trkpt lat="50.0173952" lon="11.47168">
                <ele>316.0</ele>
                <time>2020-08-21T14:14:45.000Z</time>
                <name>Trackpoint 3790</name>
            </trkpt>
            <trkpt lat="50.0174144" lon="11.4715784">
                <ele>316.0</ele>
                <time>2020-08-21T14:14:46.000Z</time>
                <name>Trackpoint 3791</name>
            </trkpt>
            <trkpt lat="50.0174336" lon="11.47148">
                <ele>316.0</ele>
                <time>2020-08-21T14:14:47.000Z</time>
                <name>Trackpoint 3792</name>
            </trkpt>
            <trkpt lat="50.0174528" lon="11.4713784">
                <ele>316.0</ele>
                <time>2020-08-21T14:14:48.000Z</time>
                <name>Trackpoint 3793</name>
            </trkpt>
            <trkpt lat="50.0174752" lon="11.471276">
                <ele>316.0</ele>
                <time>2020-08-21T14:14:49.000Z</time>
                <name>Trackpoint 3794</name>
            </trkpt>
            <trkpt lat="50.0174944" lon="11.4711768">
                <ele>316.0</ele>
                <time>2020-08-21T14:14:50.000Z</time>
                <name>Trackpoint 3795</name>
            </trkpt>
            <trkpt lat="50.0175136" lon="11.4710768">
                <ele>316.0</ele>
                <time>2020-08-21T14:14:51.000Z</time>
                <name>Trackpoint 3796</name>
            </trkpt>
            <trkpt lat="50.0175328" lon="11.4709752">
                <ele>315.0</ele>
                <time>2020-08-21T14:14:52.000Z</time>
                <name>Trackpoint 3797</name>
            </trkpt>
            <trkpt lat="50.017552" lon="11.4708728">
                <ele>315.0</ele>
                <time>2020-08-21T14:14:53.000Z</time>
                <name>Trackpoint 3798</name>
            </trkpt>
            <trkpt lat="50.0175712" lon="11.470772">
                <ele>315.0</ele>
                <time>2020-08-21T14:14:54.000Z</time>
                <name>Trackpoint 3799</name>
            </trkpt>
            <trkpt lat="50.0175904" lon="11.470672">
                <ele>314.0</ele>
                <time>2020-08-21T14:14:55.000Z</time>
                <name>Trackpoint 3800</name>
            </trkpt>
            <trkpt lat="50.0176096" lon="11.4705696">
                <ele>314.0</ele>
                <time>2020-08-21T14:14:56.000Z</time>
                <name>Trackpoint 3801</name>
            </trkpt>
            <trkpt lat="50.0176224" lon="11.4704688">
                <ele>314.0</ele>
                <time>2020-08-21T14:14:57.000Z</time>
                <name>Trackpoint 3802</name>
            </trkpt>
            <trkpt lat="50.0176416" lon="11.4703664">
                <ele>314.0</ele>
                <time>2020-08-21T14:14:58.000Z</time>
                <name>Trackpoint 3803</name>
            </trkpt>
            <trkpt lat="50.0176672" lon="11.4702664">
                <ele>314.0</ele>
                <time>2020-08-21T14:14:59.000Z</time>
                <name>Trackpoint 3804</name>
            </trkpt>
            <trkpt lat="50.0176864" lon="11.4701664">
                <ele>314.0</ele>
                <time>2020-08-21T14:15:00.000Z</time>
                <name>Trackpoint 3805</name>
            </trkpt>
            <trkpt lat="50.0177088" lon="11.470068">
                <ele>313.0</ele>
                <time>2020-08-21T14:15:01.000Z</time>
                <name>Trackpoint 3806</name>
            </trkpt>
            <trkpt lat="50.0177216" lon="11.4699688">
                <ele>313.0</ele>
                <time>2020-08-21T14:15:02.000Z</time>
                <name>Trackpoint 3807</name>
            </trkpt>
            <trkpt lat="50.0177408" lon="11.4698688">
                <ele>313.0</ele>
                <time>2020-08-21T14:15:03.000Z</time>
                <name>Trackpoint 3808</name>
            </trkpt>
            <trkpt lat="50.01776" lon="11.4697712">
                <ele>313.0</ele>
                <time>2020-08-21T14:15:04.000Z</time>
                <name>Trackpoint 3809</name>
            </trkpt>
            <trkpt lat="50.0177792" lon="11.4696712">
                <ele>313.0</ele>
                <time>2020-08-21T14:15:05.000Z</time>
                <name>Trackpoint 3810</name>
            </trkpt>
            <trkpt lat="50.0178016" lon="11.4695752">
                <ele>313.0</ele>
                <time>2020-08-21T14:15:06.000Z</time>
                <name>Trackpoint 3811</name>
            </trkpt>
            <trkpt lat="50.0178208" lon="11.4694768">
                <ele>312.0</ele>
                <time>2020-08-21T14:15:07.000Z</time>
                <name>Trackpoint 3812</name>
            </trkpt>
            <trkpt lat="50.01784" lon="11.4693784">
                <ele>312.0</ele>
                <time>2020-08-21T14:15:08.000Z</time>
                <name>Trackpoint 3813</name>
            </trkpt>
            <trkpt lat="50.0178592" lon="11.4692832">
                <ele>312.0</ele>
                <time>2020-08-21T14:15:09.000Z</time>
                <name>Trackpoint 3814</name>
            </trkpt>
            <trkpt lat="50.0178848" lon="11.4691888">
                <ele>312.0</ele>
                <time>2020-08-21T14:15:10.000Z</time>
                <name>Trackpoint 3815</name>
            </trkpt>
            <trkpt lat="50.0179008" lon="11.4690952">
                <ele>312.0</ele>
                <time>2020-08-21T14:15:11.000Z</time>
                <name>Trackpoint 3816</name>
            </trkpt>
            <trkpt lat="50.01792" lon="11.469004">
                <ele>312.0</ele>
                <time>2020-08-21T14:15:12.000Z</time>
                <name>Trackpoint 3817</name>
            </trkpt>
            <trkpt lat="50.0179488" lon="11.468912">
                <ele>311.0</ele>
                <time>2020-08-21T14:15:13.000Z</time>
                <name>Trackpoint 3818</name>
            </trkpt>
            <trkpt lat="50.0179712" lon="11.46882">
                <ele>311.0</ele>
                <time>2020-08-21T14:15:14.000Z</time>
                <name>Trackpoint 3819</name>
            </trkpt>
            <trkpt lat="50.0179968" lon="11.468732">
                <ele>311.0</ele>
                <time>2020-08-21T14:15:15.000Z</time>
                <name>Trackpoint 3820</name>
            </trkpt>
            <trkpt lat="50.0180384" lon="11.4685632">
                <ele>311.0</ele>
                <time>2020-08-21T14:15:17.000Z</time>
                <name>Trackpoint 3821</name>
            </trkpt>
            <trkpt lat="50.0180928" lon="11.4684064">
                <ele>311.0</ele>
                <time>2020-08-21T14:15:19.000Z</time>
                <name>Trackpoint 3822</name>
            </trkpt>
            <trkpt lat="50.0181376" lon="11.468264">
                <ele>311.0</ele>
                <time>2020-08-21T14:15:21.000Z</time>
                <name>Trackpoint 3823</name>
            </trkpt>
            <trkpt lat="50.0181984" lon="11.4680984">
                <ele>311.0</ele>
                <time>2020-08-21T14:15:23.000Z</time>
                <name>Trackpoint 3824</name>
            </trkpt>
            <trkpt lat="50.0182304" lon="11.468012">
                <ele>311.0</ele>
                <time>2020-08-21T14:15:24.000Z</time>
                <name>Trackpoint 3825</name>
            </trkpt>
            <trkpt lat="50.0182656" lon="11.4679272">
                <ele>311.0</ele>
                <time>2020-08-21T14:15:25.000Z</time>
                <name>Trackpoint 3826</name>
            </trkpt>
            <trkpt lat="50.0183072" lon="11.4678472">
                <ele>311.0</ele>
                <time>2020-08-21T14:15:26.000Z</time>
                <name>Trackpoint 3827</name>
            </trkpt>
            <trkpt lat="50.0183872" lon="11.4676816">
                <ele>311.0</ele>
                <time>2020-08-21T14:15:28.000Z</time>
                <name>Trackpoint 3828</name>
            </trkpt>
            <trkpt lat="50.0184256" lon="11.4676">
                <ele>311.0</ele>
                <time>2020-08-21T14:15:29.000Z</time>
                <name>Trackpoint 3829</name>
            </trkpt>
            <trkpt lat="50.0185088" lon="11.4674416">
                <ele>311.0</ele>
                <time>2020-08-21T14:15:31.000Z</time>
                <name>Trackpoint 3830</name>
            </trkpt>
            <trkpt lat="50.0185952" lon="11.4672984">
                <ele>311.0</ele>
                <time>2020-08-21T14:15:33.000Z</time>
                <name>Trackpoint 3831</name>
            </trkpt>
            <trkpt lat="50.0186848" lon="11.4671624">
                <ele>311.0</ele>
                <time>2020-08-21T14:15:35.000Z</time>
                <name>Trackpoint 3832</name>
            </trkpt>
            <trkpt lat="50.0187744" lon="11.4670264">
                <ele>311.0</ele>
                <time>2020-08-21T14:15:37.000Z</time>
                <name>Trackpoint 3833</name>
            </trkpt>
            <trkpt lat="50.018848" lon="11.4668928">
                <ele>311.0</ele>
                <time>2020-08-21T14:15:39.000Z</time>
                <name>Trackpoint 3834</name>
            </trkpt>
            <trkpt lat="50.0189376" lon="11.4667568">
                <ele>311.0</ele>
                <time>2020-08-21T14:15:41.000Z</time>
                <name>Trackpoint 3835</name>
            </trkpt>
            <trkpt lat="50.0190304" lon="11.4666168">
                <ele>311.0</ele>
                <time>2020-08-21T14:15:43.000Z</time>
                <name>Trackpoint 3836</name>
            </trkpt>
            <trkpt lat="50.0191264" lon="11.4664896">
                <ele>311.0</ele>
                <time>2020-08-21T14:15:45.000Z</time>
                <name>Trackpoint 3837</name>
            </trkpt>
            <trkpt lat="50.0192256" lon="11.4663784">
                <ele>312.0</ele>
                <time>2020-08-21T14:15:47.000Z</time>
                <name>Trackpoint 3838</name>
            </trkpt>
            <trkpt lat="50.0193216" lon="11.4662768">
                <ele>312.0</ele>
                <time>2020-08-21T14:15:49.000Z</time>
                <name>Trackpoint 3839</name>
            </trkpt>
            <trkpt lat="50.0194336" lon="11.4661864">
                <ele>312.0</ele>
                <time>2020-08-21T14:15:51.000Z</time>
                <name>Trackpoint 3840</name>
            </trkpt>
            <trkpt lat="50.019536" lon="11.4660968">
                <ele>311.0</ele>
                <time>2020-08-21T14:15:53.000Z</time>
                <name>Trackpoint 3841</name>
            </trkpt>
            <trkpt lat="50.019648" lon="11.4660168">
                <ele>312.0</ele>
                <time>2020-08-21T14:15:55.000Z</time>
                <name>Trackpoint 3842</name>
            </trkpt>
            <trkpt lat="50.0197344" lon="11.465928">
                <ele>312.0</ele>
                <time>2020-08-21T14:15:57.000Z</time>
                <name>Trackpoint 3843</name>
            </trkpt>
            <trkpt lat="50.019824" lon="11.4658432">
                <ele>312.0</ele>
                <time>2020-08-21T14:15:59.000Z</time>
                <name>Trackpoint 3844</name>
            </trkpt>
            <trkpt lat="50.0199168" lon="11.4657632">
                <ele>312.0</ele>
                <time>2020-08-21T14:16:01.000Z</time>
                <name>Trackpoint 3845</name>
            </trkpt>
            <trkpt lat="50.0199968" lon="11.4656832">
                <ele>312.0</ele>
                <time>2020-08-21T14:16:03.000Z</time>
                <name>Trackpoint 3846</name>
            </trkpt>
            <trkpt lat="50.02008" lon="11.4655936">
                <ele>312.0</ele>
                <time>2020-08-21T14:16:05.000Z</time>
                <name>Trackpoint 3847</name>
            </trkpt>
            <trkpt lat="50.0201632" lon="11.4655104">
                <ele>312.0</ele>
                <time>2020-08-21T14:16:07.000Z</time>
                <name>Trackpoint 3848</name>
            </trkpt>
            <trkpt lat="50.0202528" lon="11.4654264">
                <ele>312.0</ele>
                <time>2020-08-21T14:16:09.000Z</time>
                <name>Trackpoint 3849</name>
            </trkpt>
            <trkpt lat="50.020352" lon="11.4653552">
                <ele>312.0</ele>
                <time>2020-08-21T14:16:11.000Z</time>
                <name>Trackpoint 3850</name>
            </trkpt>
            <trkpt lat="50.0204512" lon="11.4653032">
                <ele>312.0</ele>
                <time>2020-08-21T14:16:13.000Z</time>
                <name>Trackpoint 3851</name>
            </trkpt>
            <trkpt lat="50.0205472" lon="11.4652296">
                <ele>312.0</ele>
                <time>2020-08-21T14:16:15.000Z</time>
                <name>Trackpoint 3852</name>
            </trkpt>
            <trkpt lat="50.0206528" lon="11.4651432">
                <ele>312.0</ele>
                <time>2020-08-21T14:16:17.000Z</time>
                <name>Trackpoint 3853</name>
            </trkpt>
            <trkpt lat="50.020752" lon="11.4650768">
                <ele>312.0</ele>
                <time>2020-08-21T14:16:19.000Z</time>
                <name>Trackpoint 3854</name>
            </trkpt>
            <trkpt lat="50.020848" lon="11.4650136">
                <ele>312.0</ele>
                <time>2020-08-21T14:16:21.000Z</time>
                <name>Trackpoint 3855</name>
            </trkpt>
            <trkpt lat="50.0209472" lon="11.4649336">
                <ele>312.0</ele>
                <time>2020-08-21T14:16:24.000Z</time>
                <name>Trackpoint 3856</name>
            </trkpt>
            <trkpt lat="50.0210528" lon="11.4648936">
                <ele>312.0</ele>
                <time>2020-08-21T14:16:29.000Z</time>
                <name>Trackpoint 3857</name>
            </trkpt>
            <trkpt lat="50.0210976" lon="11.4648152">
                <ele>311.0</ele>
                <time>2020-08-21T14:16:32.000Z</time>
                <name>Trackpoint 3858</name>
            </trkpt>
            <trkpt lat="50.0210976" lon="11.4649496">
                <ele>311.0</ele>
                <time>2020-08-21T14:16:40.000Z</time>
                <name>Trackpoint 3859</name>
            </trkpt>
            <trkpt lat="50.0211264" lon="11.4650552">
                <ele>311.0</ele>
                <time>2020-08-21T14:16:42.000Z</time>
                <name>Trackpoint 3860</name>
            </trkpt>
            <trkpt lat="50.0212128" lon="11.465132">
                <ele>311.0</ele>
                <time>2020-08-21T14:16:45.000Z</time>
                <name>Trackpoint 3861</name>
            </trkpt>
            <trkpt lat="50.0213408" lon="11.4650784">
                <ele>311.0</ele>
                <time>2020-08-21T14:16:48.000Z</time>
                <name>Trackpoint 3862</name>
            </trkpt>
            <trkpt lat="50.0214336" lon="11.46504">
                <ele>311.0</ele>
                <time>2020-08-21T14:16:50.000Z</time>
                <name>Trackpoint 3863</name>
            </trkpt>
            <trkpt lat="50.0215456" lon="11.46502">
                <ele>311.0</ele>
                <time>2020-08-21T14:16:52.000Z</time>
                <name>Trackpoint 3864</name>
            </trkpt>
            <trkpt lat="50.0216608" lon="11.4650032">
                <ele>311.0</ele>
                <time>2020-08-21T14:16:54.000Z</time>
                <name>Trackpoint 3865</name>
            </trkpt>
            <trkpt lat="50.0217888" lon="11.4650088">
                <ele>311.0</ele>
                <time>2020-08-21T14:16:56.000Z</time>
                <name>Trackpoint 3866</name>
            </trkpt>
            <trkpt lat="50.0219104" lon="11.4649984">
                <ele>311.0</ele>
                <time>2020-08-21T14:16:58.000Z</time>
                <name>Trackpoint 3867</name>
            </trkpt>
            <trkpt lat="50.0220384" lon="11.4649848">
                <ele>311.0</ele>
                <time>2020-08-21T14:17:00.000Z</time>
                <name>Trackpoint 3868</name>
            </trkpt>
            <trkpt lat="50.02216" lon="11.4649664">
                <ele>311.0</ele>
                <time>2020-08-21T14:17:02.000Z</time>
                <name>Trackpoint 3869</name>
            </trkpt>
            <trkpt lat="50.0222816" lon="11.4649536">
                <ele>310.0</ele>
                <time>2020-08-21T14:17:04.000Z</time>
                <name>Trackpoint 3870</name>
            </trkpt>
            <trkpt lat="50.022416" lon="11.4649432">
                <ele>310.0</ele>
                <time>2020-08-21T14:17:06.000Z</time>
                <name>Trackpoint 3871</name>
            </trkpt>
            <trkpt lat="50.0225536" lon="11.46494">
                <ele>310.0</ele>
                <time>2020-08-21T14:17:08.000Z</time>
                <name>Trackpoint 3872</name>
            </trkpt>
            <trkpt lat="50.0226816" lon="11.4649384">
                <ele>310.0</ele>
                <time>2020-08-21T14:17:10.000Z</time>
                <name>Trackpoint 3873</name>
            </trkpt>
            <trkpt lat="50.022816" lon="11.4649232">
                <ele>310.0</ele>
                <time>2020-08-21T14:17:12.000Z</time>
                <name>Trackpoint 3874</name>
            </trkpt>
            <trkpt lat="50.0229568" lon="11.4649088">
                <ele>310.0</ele>
                <time>2020-08-21T14:17:14.000Z</time>
                <name>Trackpoint 3875</name>
            </trkpt>
            <trkpt lat="50.0231008" lon="11.4648984">
                <ele>310.0</ele>
                <time>2020-08-21T14:17:16.000Z</time>
                <name>Trackpoint 3876</name>
            </trkpt>
            <trkpt lat="50.0232416" lon="11.4648848">
                <ele>310.0</ele>
                <time>2020-08-21T14:17:18.000Z</time>
                <name>Trackpoint 3877</name>
            </trkpt>
            <trkpt lat="50.0233728" lon="11.4648712">
                <ele>310.0</ele>
                <time>2020-08-21T14:17:20.000Z</time>
                <name>Trackpoint 3878</name>
            </trkpt>
            <trkpt lat="50.0234976" lon="11.4648616">
                <ele>310.0</ele>
                <time>2020-08-21T14:17:22.000Z</time>
                <name>Trackpoint 3879</name>
            </trkpt>
            <trkpt lat="50.0236192" lon="11.4648336">
                <ele>310.0</ele>
                <time>2020-08-21T14:17:24.000Z</time>
                <name>Trackpoint 3880</name>
            </trkpt>
            <trkpt lat="50.0237472" lon="11.464824">
                <ele>309.0</ele>
                <time>2020-08-21T14:17:26.000Z</time>
                <name>Trackpoint 3881</name>
            </trkpt>
            <trkpt lat="50.0238816" lon="11.464804">
                <ele>309.0</ele>
                <time>2020-08-21T14:17:28.000Z</time>
                <name>Trackpoint 3882</name>
            </trkpt>
            <trkpt lat="50.0240032" lon="11.464764">
                <ele>309.0</ele>
                <time>2020-08-21T14:17:30.000Z</time>
                <name>Trackpoint 3883</name>
            </trkpt>
            <trkpt lat="50.024128" lon="11.4647064">
                <ele>309.0</ele>
                <time>2020-08-21T14:17:32.000Z</time>
                <name>Trackpoint 3884</name>
            </trkpt>
            <trkpt lat="50.0242528" lon="11.4646328">
                <ele>309.0</ele>
                <time>2020-08-21T14:17:34.000Z</time>
                <name>Trackpoint 3885</name>
            </trkpt>
            <trkpt lat="50.0243744" lon="11.464532">
                <ele>308.0</ele>
                <time>2020-08-21T14:17:36.000Z</time>
                <name>Trackpoint 3886</name>
            </trkpt>
            <trkpt lat="50.0244896" lon="11.4644216">
                <ele>309.0</ele>
                <time>2020-08-21T14:17:38.000Z</time>
                <name>Trackpoint 3887</name>
            </trkpt>
            <trkpt lat="50.024608" lon="11.4643296">
                <ele>308.0</ele>
                <time>2020-08-21T14:17:40.000Z</time>
                <name>Trackpoint 3888</name>
            </trkpt>
            <trkpt lat="50.0247264" lon="11.4642488">
                <ele>308.0</ele>
                <time>2020-08-21T14:17:42.000Z</time>
                <name>Trackpoint 3889</name>
            </trkpt>
            <trkpt lat="50.024848" lon="11.4641848">
                <ele>309.0</ele>
                <time>2020-08-21T14:17:44.000Z</time>
                <name>Trackpoint 3890</name>
            </trkpt>
            <trkpt lat="50.0249696" lon="11.4641216">
                <ele>309.0</ele>
                <time>2020-08-21T14:17:46.000Z</time>
                <name>Trackpoint 3891</name>
            </trkpt>
            <trkpt lat="50.0251008" lon="11.4640776">
                <ele>308.0</ele>
                <time>2020-08-21T14:17:48.000Z</time>
                <name>Trackpoint 3892</name>
            </trkpt>
            <trkpt lat="50.025216" lon="11.4640304">
                <ele>308.0</ele>
                <time>2020-08-21T14:17:50.000Z</time>
                <name>Trackpoint 3893</name>
            </trkpt>
            <trkpt lat="50.0253376" lon="11.4639816">
                <ele>308.0</ele>
                <time>2020-08-21T14:17:52.000Z</time>
                <name>Trackpoint 3894</name>
            </trkpt>
            <trkpt lat="50.0254656" lon="11.4639328">
                <ele>308.0</ele>
                <time>2020-08-21T14:17:54.000Z</time>
                <name>Trackpoint 3895</name>
            </trkpt>
            <trkpt lat="50.0255936" lon="11.4638728">
                <ele>309.0</ele>
                <time>2020-08-21T14:17:56.000Z</time>
                <name>Trackpoint 3896</name>
            </trkpt>
            <trkpt lat="50.0257152" lon="11.463828">
                <ele>308.0</ele>
                <time>2020-08-21T14:17:58.000Z</time>
                <name>Trackpoint 3897</name>
            </trkpt>
            <trkpt lat="50.0258336" lon="11.463792">
                <ele>308.0</ele>
                <time>2020-08-21T14:18:00.000Z</time>
                <name>Trackpoint 3898</name>
            </trkpt>
            <trkpt lat="50.025952" lon="11.4637568">
                <ele>308.0</ele>
                <time>2020-08-21T14:18:02.000Z</time>
                <name>Trackpoint 3899</name>
            </trkpt>
            <trkpt lat="50.0260736" lon="11.463728">
                <ele>308.0</ele>
                <time>2020-08-21T14:18:04.000Z</time>
                <name>Trackpoint 3900</name>
            </trkpt>
            <trkpt lat="50.0261888" lon="11.463708">
                <ele>308.0</ele>
                <time>2020-08-21T14:18:06.000Z</time>
                <name>Trackpoint 3901</name>
            </trkpt>
            <trkpt lat="50.0263136" lon="11.4637048">
                <ele>308.0</ele>
                <time>2020-08-21T14:18:08.000Z</time>
                <name>Trackpoint 3902</name>
            </trkpt>
            <trkpt lat="50.0264256" lon="11.4637032">
                <ele>308.0</ele>
                <time>2020-08-21T14:18:10.000Z</time>
                <name>Trackpoint 3903</name>
            </trkpt>
            <trkpt lat="50.0265312" lon="11.4637032">
                <ele>308.0</ele>
                <time>2020-08-21T14:18:12.000Z</time>
                <name>Trackpoint 3904</name>
            </trkpt>
            <trkpt lat="50.0266464" lon="11.4637144">
                <ele>308.0</ele>
                <time>2020-08-21T14:18:14.000Z</time>
                <name>Trackpoint 3905</name>
            </trkpt>
            <trkpt lat="50.0267616" lon="11.4637168">
                <ele>308.0</ele>
                <time>2020-08-21T14:18:16.000Z</time>
                <name>Trackpoint 3906</name>
            </trkpt>
            <trkpt lat="50.0268768" lon="11.4637096">
                <ele>308.0</ele>
                <time>2020-08-21T14:18:18.000Z</time>
                <name>Trackpoint 3907</name>
            </trkpt>
            <trkpt lat="50.0269888" lon="11.46368">
                <ele>308.0</ele>
                <time>2020-08-21T14:18:20.000Z</time>
                <name>Trackpoint 3908</name>
            </trkpt>
            <trkpt lat="50.027104" lon="11.46364">
                <ele>307.0</ele>
                <time>2020-08-21T14:18:22.000Z</time>
                <name>Trackpoint 3909</name>
            </trkpt>
            <trkpt lat="50.0272192" lon="11.4635896">
                <ele>307.0</ele>
                <time>2020-08-21T14:18:24.000Z</time>
                <name>Trackpoint 3910</name>
            </trkpt>
            <trkpt lat="50.0273248" lon="11.4635312">
                <ele>307.0</ele>
                <time>2020-08-21T14:18:26.000Z</time>
                <name>Trackpoint 3911</name>
            </trkpt>
            <trkpt lat="50.0274368" lon="11.4634584">
                <ele>307.0</ele>
                <time>2020-08-21T14:18:28.000Z</time>
                <name>Trackpoint 3912</name>
            </trkpt>
            <trkpt lat="50.0275424" lon="11.4633712">
                <ele>307.0</ele>
                <time>2020-08-21T14:18:30.000Z</time>
                <name>Trackpoint 3913</name>
            </trkpt>
            <trkpt lat="50.0276448" lon="11.4632768">
                <ele>307.0</ele>
                <time>2020-08-21T14:18:32.000Z</time>
                <name>Trackpoint 3914</name>
            </trkpt>
            <trkpt lat="50.027744" lon="11.4631704">
                <ele>307.0</ele>
                <time>2020-08-21T14:18:34.000Z</time>
                <name>Trackpoint 3915</name>
            </trkpt>
            <trkpt lat="50.0278432" lon="11.463048">
                <ele>307.0</ele>
                <time>2020-08-21T14:18:36.000Z</time>
                <name>Trackpoint 3916</name>
            </trkpt>
            <trkpt lat="50.027936" lon="11.4629152">
                <ele>307.0</ele>
                <time>2020-08-21T14:18:38.000Z</time>
                <name>Trackpoint 3917</name>
            </trkpt>
            <trkpt lat="50.028016" lon="11.4627688">
                <ele>307.0</ele>
                <time>2020-08-21T14:18:40.000Z</time>
                <name>Trackpoint 3918</name>
            </trkpt>
            <trkpt lat="50.028096" lon="11.4626264">
                <ele>307.0</ele>
                <time>2020-08-21T14:18:42.000Z</time>
                <name>Trackpoint 3919</name>
            </trkpt>
            <trkpt lat="50.0281664" lon="11.4624784">
                <ele>307.0</ele>
                <time>2020-08-21T14:18:44.000Z</time>
                <name>Trackpoint 3920</name>
            </trkpt>
            <trkpt lat="50.0282272" lon="11.4623248">
                <ele>307.0</ele>
                <time>2020-08-21T14:18:46.000Z</time>
                <name>Trackpoint 3921</name>
            </trkpt>
            <trkpt lat="50.0282784" lon="11.4621736">
                <ele>307.0</ele>
                <time>2020-08-21T14:18:48.000Z</time>
                <name>Trackpoint 3922</name>
            </trkpt>
            <trkpt lat="50.02832" lon="11.4620184">
                <ele>307.0</ele>
                <time>2020-08-21T14:18:50.000Z</time>
                <name>Trackpoint 3923</name>
            </trkpt>
            <trkpt lat="50.0283552" lon="11.4618616">
                <ele>307.0</ele>
                <time>2020-08-21T14:18:52.000Z</time>
                <name>Trackpoint 3924</name>
            </trkpt>
            <trkpt lat="50.028384" lon="11.4617056">
                <ele>307.0</ele>
                <time>2020-08-21T14:18:54.000Z</time>
                <name>Trackpoint 3925</name>
            </trkpt>
            <trkpt lat="50.028416" lon="11.461552">
                <ele>307.0</ele>
                <time>2020-08-21T14:18:56.000Z</time>
                <name>Trackpoint 3926</name>
            </trkpt>
            <trkpt lat="50.0284416" lon="11.4614">
                <ele>307.0</ele>
                <time>2020-08-21T14:18:58.000Z</time>
                <name>Trackpoint 3927</name>
            </trkpt>
            <trkpt lat="50.0284608" lon="11.4612504">
                <ele>308.0</ele>
                <time>2020-08-21T14:19:00.000Z</time>
                <name>Trackpoint 3928</name>
            </trkpt>
            <trkpt lat="50.0284896" lon="11.4611032">
                <ele>307.0</ele>
                <time>2020-08-21T14:19:02.000Z</time>
                <name>Trackpoint 3929</name>
            </trkpt>
            <trkpt lat="50.028512" lon="11.46096">
                <ele>307.0</ele>
                <time>2020-08-21T14:19:04.000Z</time>
                <name>Trackpoint 3930</name>
            </trkpt>
            <trkpt lat="50.0285376" lon="11.4608152">
                <ele>307.0</ele>
                <time>2020-08-21T14:19:06.000Z</time>
                <name>Trackpoint 3931</name>
            </trkpt>
            <trkpt lat="50.0285696" lon="11.4606712">
                <ele>307.0</ele>
                <time>2020-08-21T14:19:08.000Z</time>
                <name>Trackpoint 3932</name>
            </trkpt>
            <trkpt lat="50.0286016" lon="11.460528">
                <ele>307.0</ele>
                <time>2020-08-21T14:19:10.000Z</time>
                <name>Trackpoint 3933</name>
            </trkpt>
            <trkpt lat="50.0286496" lon="11.4603816">
                <ele>306.0</ele>
                <time>2020-08-21T14:19:12.000Z</time>
                <name>Trackpoint 3934</name>
            </trkpt>
            <trkpt lat="50.0286976" lon="11.460232">
                <ele>306.0</ele>
                <time>2020-08-21T14:19:14.000Z</time>
                <name>Trackpoint 3935</name>
            </trkpt>
            <trkpt lat="50.0287552" lon="11.460076">
                <ele>305.0</ele>
                <time>2020-08-21T14:19:16.000Z</time>
                <name>Trackpoint 3936</name>
            </trkpt>
            <trkpt lat="50.0288224" lon="11.4599216">
                <ele>305.0</ele>
                <time>2020-08-21T14:19:18.000Z</time>
                <name>Trackpoint 3937</name>
            </trkpt>
            <trkpt lat="50.028896" lon="11.4597784">
                <ele>305.0</ele>
                <time>2020-08-21T14:19:20.000Z</time>
                <name>Trackpoint 3938</name>
            </trkpt>
            <trkpt lat="50.028976" lon="11.4596504">
                <ele>305.0</ele>
                <time>2020-08-21T14:19:22.000Z</time>
                <name>Trackpoint 3939</name>
            </trkpt>
            <trkpt lat="50.0290528" lon="11.4595296">
                <ele>304.0</ele>
                <time>2020-08-21T14:19:24.000Z</time>
                <name>Trackpoint 3940</name>
            </trkpt>
            <trkpt lat="50.0291328" lon="11.4594296">
                <ele>304.0</ele>
                <time>2020-08-21T14:19:26.000Z</time>
                <name>Trackpoint 3941</name>
            </trkpt>
            <trkpt lat="50.029216" lon="11.4593424">
                <ele>304.0</ele>
                <time>2020-08-21T14:19:28.000Z</time>
                <name>Trackpoint 3942</name>
            </trkpt>
            <trkpt lat="50.0293088" lon="11.4592568">
                <ele>305.0</ele>
                <time>2020-08-21T14:19:30.000Z</time>
                <name>Trackpoint 3943</name>
            </trkpt>
            <trkpt lat="50.0294048" lon="11.4591776">
                <ele>304.0</ele>
                <time>2020-08-21T14:19:32.000Z</time>
                <name>Trackpoint 3944</name>
            </trkpt>
            <trkpt lat="50.0295072" lon="11.4591048">
                <ele>305.0</ele>
                <time>2020-08-21T14:19:34.000Z</time>
                <name>Trackpoint 3945</name>
            </trkpt>
            <trkpt lat="50.0296224" lon="11.4590584">
                <ele>305.0</ele>
                <time>2020-08-21T14:19:37.000Z</time>
                <name>Trackpoint 3946</name>
            </trkpt>
            <trkpt lat="50.029696" lon="11.4589664">
                <ele>305.0</ele>
                <time>2020-08-21T14:19:39.000Z</time>
                <name>Trackpoint 3947</name>
            </trkpt>
            <trkpt lat="50.0298144" lon="11.4589256">
                <ele>305.0</ele>
                <time>2020-08-21T14:19:41.000Z</time>
                <name>Trackpoint 3948</name>
            </trkpt>
            <trkpt lat="50.0299264" lon="11.4588784">
                <ele>306.0</ele>
                <time>2020-08-21T14:19:43.000Z</time>
                <name>Trackpoint 3949</name>
            </trkpt>
            <trkpt lat="50.0300224" lon="11.4588232">
                <ele>306.0</ele>
                <time>2020-08-21T14:19:45.000Z</time>
                <name>Trackpoint 3950</name>
            </trkpt>
            <trkpt lat="50.0301088" lon="11.458788">
                <ele>306.0</ele>
                <time>2020-08-21T14:19:47.000Z</time>
                <name>Trackpoint 3951</name>
            </trkpt>
            <trkpt lat="50.030192" lon="11.4587448">
                <ele>306.0</ele>
                <time>2020-08-21T14:19:49.000Z</time>
                <name>Trackpoint 3952</name>
            </trkpt>
            <trkpt lat="50.0303008" lon="11.4586896">
                <ele>306.0</ele>
                <time>2020-08-21T14:19:52.000Z</time>
                <name>Trackpoint 3953</name>
            </trkpt>
            <trkpt lat="50.0304032" lon="11.4586384">
                <ele>307.0</ele>
                <time>2020-08-21T14:19:55.000Z</time>
                <name>Trackpoint 3954</name>
            </trkpt>
            <trkpt lat="50.0305024" lon="11.4585888">
                <ele>307.0</ele>
                <time>2020-08-21T14:19:58.000Z</time>
                <name>Trackpoint 3955</name>
            </trkpt>
            <trkpt lat="50.0306016" lon="11.4585464">
                <ele>308.0</ele>
                <time>2020-08-21T14:20:01.000Z</time>
                <name>Trackpoint 3956</name>
            </trkpt>
            <trkpt lat="50.030688" lon="11.4585104">
                <ele>309.0</ele>
                <time>2020-08-21T14:20:04.000Z</time>
                <name>Trackpoint 3957</name>
            </trkpt>
            <trkpt lat="50.0307744" lon="11.4584704">
                <ele>309.0</ele>
                <time>2020-08-21T14:20:07.000Z</time>
                <name>Trackpoint 3958</name>
            </trkpt>
            <trkpt lat="50.0308608" lon="11.45844">
                <ele>309.0</ele>
                <time>2020-08-21T14:20:10.000Z</time>
                <name>Trackpoint 3959</name>
            </trkpt>
            <trkpt lat="50.0309472" lon="11.4584064">
                <ele>310.0</ele>
                <time>2020-08-21T14:20:13.000Z</time>
                <name>Trackpoint 3960</name>
            </trkpt>
            <trkpt lat="50.03104" lon="11.458368">
                <ele>311.0</ele>
                <time>2020-08-21T14:20:16.000Z</time>
                <name>Trackpoint 3961</name>
            </trkpt>
            <trkpt lat="50.0311264" lon="11.4583384">
                <ele>311.0</ele>
                <time>2020-08-21T14:20:19.000Z</time>
                <name>Trackpoint 3962</name>
            </trkpt>
            <trkpt lat="50.0312192" lon="11.4583056">
                <ele>311.0</ele>
                <time>2020-08-21T14:20:22.000Z</time>
                <name>Trackpoint 3963</name>
            </trkpt>
            <trkpt lat="50.031312" lon="11.4582616">
                <ele>312.0</ele>
                <time>2020-08-21T14:20:25.000Z</time>
                <name>Trackpoint 3964</name>
            </trkpt>
            <trkpt lat="50.0314016" lon="11.458208">
                <ele>312.0</ele>
                <time>2020-08-21T14:20:28.000Z</time>
                <name>Trackpoint 3965</name>
            </trkpt>
            <trkpt lat="50.0314912" lon="11.45814">
                <ele>313.0</ele>
                <time>2020-08-21T14:20:31.000Z</time>
                <name>Trackpoint 3966</name>
            </trkpt>
            <trkpt lat="50.0315776" lon="11.45808">
                <ele>313.0</ele>
                <time>2020-08-21T14:20:34.000Z</time>
                <name>Trackpoint 3967</name>
            </trkpt>
            <trkpt lat="50.0316704" lon="11.4580136">
                <ele>313.0</ele>
                <time>2020-08-21T14:20:37.000Z</time>
                <name>Trackpoint 3968</name>
            </trkpt>
            <trkpt lat="50.0317696" lon="11.4579296">
                <ele>313.0</ele>
                <time>2020-08-21T14:20:40.000Z</time>
                <name>Trackpoint 3969</name>
            </trkpt>
            <trkpt lat="50.0318368" lon="11.4578688">
                <ele>314.0</ele>
                <time>2020-08-21T14:20:42.000Z</time>
                <name>Trackpoint 3970</name>
            </trkpt>
            <trkpt lat="50.031936" lon="11.4577736">
                <ele>313.0</ele>
                <time>2020-08-21T14:20:45.000Z</time>
                <name>Trackpoint 3971</name>
            </trkpt>
            <trkpt lat="50.0319968" lon="11.4577">
                <ele>313.0</ele>
                <time>2020-08-21T14:20:47.000Z</time>
                <name>Trackpoint 3972</name>
            </trkpt>
            <trkpt lat="50.0320576" lon="11.45762">
                <ele>313.0</ele>
                <time>2020-08-21T14:20:49.000Z</time>
                <name>Trackpoint 3973</name>
            </trkpt>
            <trkpt lat="50.032128" lon="11.4575504">
                <ele>313.0</ele>
                <time>2020-08-21T14:20:51.000Z</time>
                <name>Trackpoint 3974</name>
            </trkpt>
            <trkpt lat="50.032192" lon="11.4574816">
                <ele>312.0</ele>
                <time>2020-08-21T14:20:53.000Z</time>
                <name>Trackpoint 3975</name>
            </trkpt>
            <trkpt lat="50.0322496" lon="11.4574048">
                <ele>313.0</ele>
                <time>2020-08-21T14:20:55.000Z</time>
                <name>Trackpoint 3976</name>
            </trkpt>
            <trkpt lat="50.0323104" lon="11.4573296">
                <ele>313.0</ele>
                <time>2020-08-21T14:20:57.000Z</time>
                <name>Trackpoint 3977</name>
            </trkpt>
            <trkpt lat="50.0323712" lon="11.4572584">
                <ele>314.0</ele>
                <time>2020-08-21T14:20:59.000Z</time>
                <name>Trackpoint 3978</name>
            </trkpt>
            <trkpt lat="50.0324416" lon="11.4571888">
                <ele>314.0</ele>
                <time>2020-08-21T14:21:01.000Z</time>
                <name>Trackpoint 3979</name>
            </trkpt>
            <trkpt lat="50.0325088" lon="11.4571136">
                <ele>314.0</ele>
                <time>2020-08-21T14:21:03.000Z</time>
                <name>Trackpoint 3980</name>
            </trkpt>
            <trkpt lat="50.0325728" lon="11.4570488">
                <ele>314.0</ele>
                <time>2020-08-21T14:21:05.000Z</time>
                <name>Trackpoint 3981</name>
            </trkpt>
            <trkpt lat="50.03264" lon="11.45698">
                <ele>314.0</ele>
                <time>2020-08-21T14:21:07.000Z</time>
                <name>Trackpoint 3982</name>
            </trkpt>
            <trkpt lat="50.0327072" lon="11.4569104">
                <ele>315.0</ele>
                <time>2020-08-21T14:21:09.000Z</time>
                <name>Trackpoint 3983</name>
            </trkpt>
            <trkpt lat="50.0327808" lon="11.4568344">
                <ele>315.0</ele>
                <time>2020-08-21T14:21:11.000Z</time>
                <name>Trackpoint 3984</name>
            </trkpt>
            <trkpt lat="50.0328608" lon="11.4567616">
                <ele>314.0</ele>
                <time>2020-08-21T14:21:13.000Z</time>
                <name>Trackpoint 3985</name>
            </trkpt>
            <trkpt lat="50.0329504" lon="11.4567072">
                <ele>314.0</ele>
                <time>2020-08-21T14:21:15.000Z</time>
                <name>Trackpoint 3986</name>
            </trkpt>
            <trkpt lat="50.03304" lon="11.45666">
                <ele>314.0</ele>
                <time>2020-08-21T14:21:17.000Z</time>
                <name>Trackpoint 3987</name>
            </trkpt>
            <trkpt lat="50.0331296" lon="11.4566136">
                <ele>315.0</ele>
                <time>2020-08-21T14:21:19.000Z</time>
                <name>Trackpoint 3988</name>
            </trkpt>
            <trkpt lat="50.0332384" lon="11.4565888">
                <ele>313.0</ele>
                <time>2020-08-21T14:21:21.000Z</time>
                <name>Trackpoint 3989</name>
            </trkpt>
            <trkpt lat="50.0333408" lon="11.4565552">
                <ele>313.0</ele>
                <time>2020-08-21T14:21:23.000Z</time>
                <name>Trackpoint 3990</name>
            </trkpt>
            <trkpt lat="50.0334464" lon="11.4565288">
                <ele>312.0</ele>
                <time>2020-08-21T14:21:25.000Z</time>
                <name>Trackpoint 3991</name>
            </trkpt>
            <trkpt lat="50.0335456" lon="11.4564832">
                <ele>312.0</ele>
                <time>2020-08-21T14:21:27.000Z</time>
                <name>Trackpoint 3992</name>
            </trkpt>
            <trkpt lat="50.033648" lon="11.4564016">
                <ele>312.0</ele>
                <time>2020-08-21T14:21:29.000Z</time>
                <name>Trackpoint 3993</name>
            </trkpt>
            <trkpt lat="50.0337472" lon="11.4562832">
                <ele>311.0</ele>
                <time>2020-08-21T14:21:31.000Z</time>
                <name>Trackpoint 3994</name>
            </trkpt>
            <trkpt lat="50.0338432" lon="11.4561432">
                <ele>311.0</ele>
                <time>2020-08-21T14:21:33.000Z</time>
                <name>Trackpoint 3995</name>
            </trkpt>
            <trkpt lat="50.0339392" lon="11.4559896">
                <ele>311.0</ele>
                <time>2020-08-21T14:21:35.000Z</time>
                <name>Trackpoint 3996</name>
            </trkpt>
            <trkpt lat="50.033984" lon="11.4559096">
                <ele>310.0</ele>
                <time>2020-08-21T14:21:36.000Z</time>
                <name>Trackpoint 3997</name>
            </trkpt>
            <trkpt lat="50.034032" lon="11.4558312">
                <ele>310.0</ele>
                <time>2020-08-21T14:21:37.000Z</time>
                <name>Trackpoint 3998</name>
            </trkpt>
            <trkpt lat="50.0340736" lon="11.4557512">
                <ele>310.0</ele>
                <time>2020-08-21T14:21:38.000Z</time>
                <name>Trackpoint 3999</name>
            </trkpt>
            <trkpt lat="50.0341504" lon="11.4556">
                <ele>311.0</ele>
                <time>2020-08-21T14:21:40.000Z</time>
                <name>Trackpoint 4000</name>
            </trkpt>
            <trkpt lat="50.0342176" lon="11.4554656">
                <ele>311.0</ele>
                <time>2020-08-21T14:21:42.000Z</time>
                <name>Trackpoint 4001</name>
            </trkpt>
            <trkpt lat="50.0342784" lon="11.4553368">
                <ele>312.0</ele>
                <time>2020-08-21T14:21:44.000Z</time>
                <name>Trackpoint 4002</name>
            </trkpt>
            <trkpt lat="50.0343328" lon="11.4552248">
                <ele>311.0</ele>
                <time>2020-08-21T14:21:46.000Z</time>
                <name>Trackpoint 4003</name>
            </trkpt>
            <trkpt lat="50.0343904" lon="11.4551152">
                <ele>310.0</ele>
                <time>2020-08-21T14:21:48.000Z</time>
                <name>Trackpoint 4004</name>
            </trkpt>
            <trkpt lat="50.0344544" lon="11.4549888">
                <ele>310.0</ele>
                <time>2020-08-21T14:21:50.000Z</time>
                <name>Trackpoint 4005</name>
            </trkpt>
            <trkpt lat="50.0345312" lon="11.454852">
                <ele>309.0</ele>
                <time>2020-08-21T14:21:52.000Z</time>
                <name>Trackpoint 4006</name>
            </trkpt>
            <trkpt lat="50.0346016" lon="11.4546968">
                <ele>309.0</ele>
                <time>2020-08-21T14:21:54.000Z</time>
                <name>Trackpoint 4007</name>
            </trkpt>
            <trkpt lat="50.0346752" lon="11.4545344">
                <ele>308.0</ele>
                <time>2020-08-21T14:21:56.000Z</time>
                <name>Trackpoint 4008</name>
            </trkpt>
            <trkpt lat="50.0347584" lon="11.4543816">
                <ele>307.0</ele>
                <time>2020-08-21T14:21:58.000Z</time>
                <name>Trackpoint 4009</name>
            </trkpt>
            <trkpt lat="50.0348448" lon="11.4542368">
                <ele>306.0</ele>
                <time>2020-08-21T14:22:00.000Z</time>
                <name>Trackpoint 4010</name>
            </trkpt>
            <trkpt lat="50.034944" lon="11.4541064">
                <ele>306.0</ele>
                <time>2020-08-21T14:22:02.000Z</time>
                <name>Trackpoint 4011</name>
            </trkpt>
            <trkpt lat="50.0350496" lon="11.4540128">
                <ele>305.0</ele>
                <time>2020-08-21T14:22:04.000Z</time>
                <name>Trackpoint 4012</name>
            </trkpt>
            <trkpt lat="50.0351712" lon="11.4539648">
                <ele>304.0</ele>
                <time>2020-08-21T14:22:06.000Z</time>
                <name>Trackpoint 4013</name>
            </trkpt>
            <trkpt lat="50.0352768" lon="11.4540232">
                <ele>305.0</ele>
                <time>2020-08-21T14:22:08.000Z</time>
                <name>Trackpoint 4014</name>
            </trkpt>
            <trkpt lat="50.0353632" lon="11.454132">
                <ele>306.0</ele>
                <time>2020-08-21T14:22:10.000Z</time>
                <name>Trackpoint 4015</name>
            </trkpt>
            <trkpt lat="50.0354592" lon="11.454224">
                <ele>306.0</ele>
                <time>2020-08-21T14:22:12.000Z</time>
                <name>Trackpoint 4016</name>
            </trkpt>
            <trkpt lat="50.035552" lon="11.4542888">
                <ele>306.0</ele>
                <time>2020-08-21T14:22:14.000Z</time>
                <name>Trackpoint 4017</name>
            </trkpt>
            <trkpt lat="50.0356416" lon="11.4543448">
                <ele>306.0</ele>
                <time>2020-08-21T14:22:16.000Z</time>
                <name>Trackpoint 4018</name>
            </trkpt>
            <trkpt lat="50.0357216" lon="11.4544152">
                <ele>306.0</ele>
                <time>2020-08-21T14:22:18.000Z</time>
                <name>Trackpoint 4019</name>
            </trkpt>
            <trkpt lat="50.0357888" lon="11.4545072">
                <ele>307.0</ele>
                <time>2020-08-21T14:22:20.000Z</time>
                <name>Trackpoint 4020</name>
            </trkpt>
            <trkpt lat="50.0358432" lon="11.4546048">
                <ele>307.0</ele>
                <time>2020-08-21T14:22:22.000Z</time>
                <name>Trackpoint 4021</name>
            </trkpt>
            <trkpt lat="50.0358816" lon="11.4547128">
                <ele>306.0</ele>
                <time>2020-08-21T14:22:24.000Z</time>
                <name>Trackpoint 4022</name>
            </trkpt>
            <trkpt lat="50.0359168" lon="11.4548216">
                <ele>306.0</ele>
                <time>2020-08-21T14:22:26.000Z</time>
                <name>Trackpoint 4023</name>
            </trkpt>
            <trkpt lat="50.0359584" lon="11.4549488">
                <ele>305.0</ele>
                <time>2020-08-21T14:22:28.000Z</time>
                <name>Trackpoint 4024</name>
            </trkpt>
            <trkpt lat="50.0360032" lon="11.4550848">
                <ele>304.0</ele>
                <time>2020-08-21T14:22:30.000Z</time>
                <name>Trackpoint 4025</name>
            </trkpt>
            <trkpt lat="50.0360576" lon="11.4552368">
                <ele>303.0</ele>
                <time>2020-08-21T14:22:32.000Z</time>
                <name>Trackpoint 4026</name>
            </trkpt>
            <trkpt lat="50.0361184" lon="11.4553944">
                <ele>303.0</ele>
                <time>2020-08-21T14:22:34.000Z</time>
                <name>Trackpoint 4027</name>
            </trkpt>
            <trkpt lat="50.0361792" lon="11.4555504">
                <ele>304.0</ele>
                <time>2020-08-21T14:22:36.000Z</time>
                <name>Trackpoint 4028</name>
            </trkpt>
            <trkpt lat="50.0362496" lon="11.4556984">
                <ele>304.0</ele>
                <time>2020-08-21T14:22:38.000Z</time>
                <name>Trackpoint 4029</name>
            </trkpt>
            <trkpt lat="50.0363168" lon="11.4558384">
                <ele>304.0</ele>
                <time>2020-08-21T14:22:40.000Z</time>
                <name>Trackpoint 4030</name>
            </trkpt>
            <trkpt lat="50.0363776" lon="11.4559784">
                <ele>304.0</ele>
                <time>2020-08-21T14:22:42.000Z</time>
                <name>Trackpoint 4031</name>
            </trkpt>
            <trkpt lat="50.0364352" lon="11.4561168">
                <ele>304.0</ele>
                <time>2020-08-21T14:22:44.000Z</time>
                <name>Trackpoint 4032</name>
            </trkpt>
            <trkpt lat="50.036496" lon="11.456248">
                <ele>304.0</ele>
                <time>2020-08-21T14:22:46.000Z</time>
                <name>Trackpoint 4033</name>
            </trkpt>
            <trkpt lat="50.0365536" lon="11.4563776">
                <ele>304.0</ele>
                <time>2020-08-21T14:22:48.000Z</time>
                <name>Trackpoint 4034</name>
            </trkpt>
            <trkpt lat="50.0366144" lon="11.4565088">
                <ele>304.0</ele>
                <time>2020-08-21T14:22:50.000Z</time>
                <name>Trackpoint 4035</name>
            </trkpt>
            <trkpt lat="50.0366752" lon="11.4566272">
                <ele>304.0</ele>
                <time>2020-08-21T14:22:52.000Z</time>
                <name>Trackpoint 4036</name>
            </trkpt>
            <trkpt lat="50.036736" lon="11.4567344">
                <ele>305.0</ele>
                <time>2020-08-21T14:22:54.000Z</time>
                <name>Trackpoint 4037</name>
            </trkpt>
            <trkpt lat="50.0367968" lon="11.456828">
                <ele>305.0</ele>
                <time>2020-08-21T14:22:56.000Z</time>
                <name>Trackpoint 4038</name>
            </trkpt>
            <trkpt lat="50.036864" lon="11.4569032">
                <ele>305.0</ele>
                <time>2020-08-21T14:22:58.000Z</time>
                <name>Trackpoint 4039</name>
            </trkpt>
            <trkpt lat="50.0369376" lon="11.456968">
                <ele>305.0</ele>
                <time>2020-08-21T14:23:00.000Z</time>
                <name>Trackpoint 4040</name>
            </trkpt>
            <trkpt lat="50.0370496" lon="11.457028">
                <ele>306.0</ele>
                <time>2020-08-21T14:23:03.000Z</time>
                <name>Trackpoint 4041</name>
            </trkpt>
            <trkpt lat="50.037168" lon="11.4570352">
                <ele>307.0</ele>
                <time>2020-08-21T14:23:06.000Z</time>
                <name>Trackpoint 4042</name>
            </trkpt>
            <trkpt lat="50.0372896" lon="11.4570152">
                <ele>307.0</ele>
                <time>2020-08-21T14:23:09.000Z</time>
                <name>Trackpoint 4043</name>
            </trkpt>
            <trkpt lat="50.0374144" lon="11.4569856">
                <ele>307.0</ele>
                <time>2020-08-21T14:23:12.000Z</time>
                <name>Trackpoint 4044</name>
            </trkpt>
            <trkpt lat="50.0375008" lon="11.4569552">
                <ele>308.0</ele>
                <time>2020-08-21T14:23:14.000Z</time>
                <name>Trackpoint 4045</name>
            </trkpt>
            <trkpt lat="50.0375904" lon="11.45692">
                <ele>308.0</ele>
                <time>2020-08-21T14:23:16.000Z</time>
                <name>Trackpoint 4046</name>
            </trkpt>
            <trkpt lat="50.03768" lon="11.45688">
                <ele>308.0</ele>
                <time>2020-08-21T14:23:18.000Z</time>
                <name>Trackpoint 4047</name>
            </trkpt>
            <trkpt lat="50.0377696" lon="11.4568344">
                <ele>308.0</ele>
                <time>2020-08-21T14:23:20.000Z</time>
                <name>Trackpoint 4048</name>
            </trkpt>
            <trkpt lat="50.0378624" lon="11.4567872">
                <ele>308.0</ele>
                <time>2020-08-21T14:23:22.000Z</time>
                <name>Trackpoint 4049</name>
            </trkpt>
            <trkpt lat="50.037952" lon="11.4567336">
                <ele>309.0</ele>
                <time>2020-08-21T14:23:24.000Z</time>
                <name>Trackpoint 4050</name>
            </trkpt>
            <trkpt lat="50.0380416" lon="11.456672">
                <ele>309.0</ele>
                <time>2020-08-21T14:23:26.000Z</time>
                <name>Trackpoint 4051</name>
            </trkpt>
            <trkpt lat="50.0381248" lon="11.4566096">
                <ele>309.0</ele>
                <time>2020-08-21T14:23:28.000Z</time>
                <name>Trackpoint 4052</name>
            </trkpt>
            <trkpt lat="50.0382016" lon="11.4565352">
                <ele>309.0</ele>
                <time>2020-08-21T14:23:30.000Z</time>
                <name>Trackpoint 4053</name>
            </trkpt>
            <trkpt lat="50.0382816" lon="11.4564632">
                <ele>309.0</ele>
                <time>2020-08-21T14:23:32.000Z</time>
                <name>Trackpoint 4054</name>
            </trkpt>
            <trkpt lat="50.0383552" lon="11.4563848">
                <ele>309.0</ele>
                <time>2020-08-21T14:23:34.000Z</time>
                <name>Trackpoint 4055</name>
            </trkpt>
            <trkpt lat="50.0384384" lon="11.4563">
                <ele>308.0</ele>
                <time>2020-08-21T14:23:36.000Z</time>
                <name>Trackpoint 4056</name>
            </trkpt>
            <trkpt lat="50.038528" lon="11.4562104">
                <ele>307.0</ele>
                <time>2020-08-21T14:23:38.000Z</time>
                <name>Trackpoint 4057</name>
            </trkpt>
            <trkpt lat="50.0386208" lon="11.4561128">
                <ele>307.0</ele>
                <time>2020-08-21T14:23:40.000Z</time>
                <name>Trackpoint 4058</name>
            </trkpt>
            <trkpt lat="50.0387072" lon="11.4560384">
                <ele>307.0</ele>
                <time>2020-08-21T14:23:42.000Z</time>
                <name>Trackpoint 4059</name>
            </trkpt>
            <trkpt lat="50.0387968" lon="11.4559496">
                <ele>307.0</ele>
                <time>2020-08-21T14:23:44.000Z</time>
                <name>Trackpoint 4060</name>
            </trkpt>
            <trkpt lat="50.0388704" lon="11.4558784">
                <ele>306.0</ele>
                <time>2020-08-21T14:23:46.000Z</time>
                <name>Trackpoint 4061</name>
            </trkpt>
            <trkpt lat="50.03896" lon="11.455816">
                <ele>306.0</ele>
                <time>2020-08-21T14:23:48.000Z</time>
                <name>Trackpoint 4062</name>
            </trkpt>
            <trkpt lat="50.0390464" lon="11.4557504">
                <ele>306.0</ele>
                <time>2020-08-21T14:23:50.000Z</time>
                <name>Trackpoint 4063</name>
            </trkpt>
            <trkpt lat="50.0391488" lon="11.4557136">
                <ele>306.0</ele>
                <time>2020-08-21T14:23:52.000Z</time>
                <name>Trackpoint 4064</name>
            </trkpt>
            <trkpt lat="50.039248" lon="11.4556816">
                <ele>306.0</ele>
                <time>2020-08-21T14:23:54.000Z</time>
                <name>Trackpoint 4065</name>
            </trkpt>
            <trkpt lat="50.0393376" lon="11.4556664">
                <ele>306.0</ele>
                <time>2020-08-21T14:23:56.000Z</time>
                <name>Trackpoint 4066</name>
            </trkpt>
            <trkpt lat="50.0394624" lon="11.4556752">
                <ele>307.0</ele>
                <time>2020-08-21T14:23:59.000Z</time>
                <name>Trackpoint 4067</name>
            </trkpt>
            <trkpt lat="50.0395744" lon="11.4557112">
                <ele>307.0</ele>
                <time>2020-08-21T14:24:02.000Z</time>
                <name>Trackpoint 4068</name>
            </trkpt>
            <trkpt lat="50.0396768" lon="11.4557648">
                <ele>307.0</ele>
                <time>2020-08-21T14:24:05.000Z</time>
                <name>Trackpoint 4069</name>
            </trkpt>
            <trkpt lat="50.03976" lon="11.4558088">
                <ele>308.0</ele>
                <time>2020-08-21T14:24:08.000Z</time>
                <name>Trackpoint 4070</name>
            </trkpt>
            <trkpt lat="50.0398496" lon="11.4558688">
                <ele>308.0</ele>
                <time>2020-08-21T14:24:11.000Z</time>
                <name>Trackpoint 4071</name>
            </trkpt>
            <trkpt lat="50.0399488" lon="11.4559496">
                <ele>308.0</ele>
                <time>2020-08-21T14:24:14.000Z</time>
                <name>Trackpoint 4072</name>
            </trkpt>
            <trkpt lat="50.0400384" lon="11.4560248">
                <ele>309.0</ele>
                <time>2020-08-21T14:24:17.000Z</time>
                <name>Trackpoint 4073</name>
            </trkpt>
            <trkpt lat="50.0401376" lon="11.4560936">
                <ele>309.0</ele>
                <time>2020-08-21T14:24:20.000Z</time>
                <name>Trackpoint 4074</name>
            </trkpt>
            <trkpt lat="50.0402496" lon="11.4561592">
                <ele>309.0</ele>
                <time>2020-08-21T14:24:23.000Z</time>
                <name>Trackpoint 4075</name>
            </trkpt>
            <trkpt lat="50.0403648" lon="11.4562152">
                <ele>309.0</ele>
                <time>2020-08-21T14:24:26.000Z</time>
                <name>Trackpoint 4076</name>
            </trkpt>
            <trkpt lat="50.0404896" lon="11.456248">
                <ele>310.0</ele>
                <time>2020-08-21T14:24:29.000Z</time>
                <name>Trackpoint 4077</name>
            </trkpt>
            <trkpt lat="50.0406176" lon="11.456272">
                <ele>310.0</ele>
                <time>2020-08-21T14:24:32.000Z</time>
                <name>Trackpoint 4078</name>
            </trkpt>
            <trkpt lat="50.040752" lon="11.456272">
                <ele>311.0</ele>
                <time>2020-08-21T14:24:35.000Z</time>
                <name>Trackpoint 4079</name>
            </trkpt>
            <trkpt lat="50.0408448" lon="11.4562568">
                <ele>310.0</ele>
                <time>2020-08-21T14:24:37.000Z</time>
                <name>Trackpoint 4080</name>
            </trkpt>
            <trkpt lat="50.0409408" lon="11.456228">
                <ele>310.0</ele>
                <time>2020-08-21T14:24:39.000Z</time>
                <name>Trackpoint 4081</name>
            </trkpt>
            <trkpt lat="50.0410304" lon="11.4561816">
                <ele>310.0</ele>
                <time>2020-08-21T14:24:41.000Z</time>
                <name>Trackpoint 4082</name>
            </trkpt>
            <trkpt lat="50.0411136" lon="11.4561216">
                <ele>310.0</ele>
                <time>2020-08-21T14:24:43.000Z</time>
                <name>Trackpoint 4083</name>
            </trkpt>
            <trkpt lat="50.0411936" lon="11.456048">
                <ele>310.0</ele>
                <time>2020-08-21T14:24:45.000Z</time>
                <name>Trackpoint 4084</name>
            </trkpt>
            <trkpt lat="50.04128" lon="11.4559632">
                <ele>310.0</ele>
                <time>2020-08-21T14:24:47.000Z</time>
                <name>Trackpoint 4085</name>
            </trkpt>
            <trkpt lat="50.0413664" lon="11.4558696">
                <ele>309.0</ele>
                <time>2020-08-21T14:24:49.000Z</time>
                <name>Trackpoint 4086</name>
            </trkpt>
            <trkpt lat="50.0414528" lon="11.4557648">
                <ele>309.0</ele>
                <time>2020-08-21T14:24:51.000Z</time>
                <name>Trackpoint 4087</name>
            </trkpt>
            <trkpt lat="50.0415488" lon="11.45566">
                <ele>308.0</ele>
                <time>2020-08-21T14:24:53.000Z</time>
                <name>Trackpoint 4088</name>
            </trkpt>
            <trkpt lat="50.041648" lon="11.4555416">
                <ele>308.0</ele>
                <time>2020-08-21T14:24:55.000Z</time>
                <name>Trackpoint 4089</name>
            </trkpt>
            <trkpt lat="50.0417568" lon="11.4554216">
                <ele>308.0</ele>
                <time>2020-08-21T14:24:57.000Z</time>
                <name>Trackpoint 4090</name>
            </trkpt>
            <trkpt lat="50.0418624" lon="11.4553072">
                <ele>307.0</ele>
                <time>2020-08-21T14:24:59.000Z</time>
                <name>Trackpoint 4091</name>
            </trkpt>
            <trkpt lat="50.0419744" lon="11.4552">
                <ele>307.0</ele>
                <time>2020-08-21T14:25:01.000Z</time>
                <name>Trackpoint 4092</name>
            </trkpt>
            <trkpt lat="50.0420928" lon="11.4551016">
                <ele>307.0</ele>
                <time>2020-08-21T14:25:03.000Z</time>
                <name>Trackpoint 4093</name>
            </trkpt>
            <trkpt lat="50.0422144" lon="11.4550064">
                <ele>307.0</ele>
                <time>2020-08-21T14:25:05.000Z</time>
                <name>Trackpoint 4094</name>
            </trkpt>
            <trkpt lat="50.042336" lon="11.4549168">
                <ele>306.0</ele>
                <time>2020-08-21T14:25:07.000Z</time>
                <name>Trackpoint 4095</name>
            </trkpt>
            <trkpt lat="50.042464" lon="11.454832">
                <ele>306.0</ele>
                <time>2020-08-21T14:25:09.000Z</time>
                <name>Trackpoint 4096</name>
            </trkpt>
            <trkpt lat="50.0425888" lon="11.4547592">
                <ele>306.0</ele>
                <time>2020-08-21T14:25:11.000Z</time>
                <name>Trackpoint 4097</name>
            </trkpt>
            <trkpt lat="50.0427168" lon="11.4547016">
                <ele>306.0</ele>
                <time>2020-08-21T14:25:13.000Z</time>
                <name>Trackpoint 4098</name>
            </trkpt>
            <trkpt lat="50.0428416" lon="11.45464">
                <ele>305.0</ele>
                <time>2020-08-21T14:25:15.000Z</time>
                <name>Trackpoint 4099</name>
            </trkpt>
            <trkpt lat="50.0429696" lon="11.4545832">
                <ele>305.0</ele>
                <time>2020-08-21T14:25:17.000Z</time>
                <name>Trackpoint 4100</name>
            </trkpt>
            <trkpt lat="50.0430976" lon="11.4545288">
                <ele>305.0</ele>
                <time>2020-08-21T14:25:19.000Z</time>
                <name>Trackpoint 4101</name>
            </trkpt>
            <trkpt lat="50.0432288" lon="11.4544712">
                <ele>305.0</ele>
                <time>2020-08-21T14:25:21.000Z</time>
                <name>Trackpoint 4102</name>
            </trkpt>
            <trkpt lat="50.0433632" lon="11.4544136">
                <ele>305.0</ele>
                <time>2020-08-21T14:25:23.000Z</time>
                <name>Trackpoint 4103</name>
            </trkpt>
            <trkpt lat="50.043488" lon="11.4543632">
                <ele>305.0</ele>
                <time>2020-08-21T14:25:25.000Z</time>
                <name>Trackpoint 4104</name>
            </trkpt>
            <trkpt lat="50.0436128" lon="11.4543104">
                <ele>305.0</ele>
                <time>2020-08-21T14:25:27.000Z</time>
                <name>Trackpoint 4105</name>
            </trkpt>
            <trkpt lat="50.043744" lon="11.454264">
                <ele>305.0</ele>
                <time>2020-08-21T14:25:29.000Z</time>
                <name>Trackpoint 4106</name>
            </trkpt>
            <trkpt lat="50.0438688" lon="11.4542216">
                <ele>305.0</ele>
                <time>2020-08-21T14:25:31.000Z</time>
                <name>Trackpoint 4107</name>
            </trkpt>
            <trkpt lat="50.0439872" lon="11.4541864">
                <ele>305.0</ele>
                <time>2020-08-21T14:25:33.000Z</time>
                <name>Trackpoint 4108</name>
            </trkpt>
            <trkpt lat="50.0441024" lon="11.4541528">
                <ele>305.0</ele>
                <time>2020-08-21T14:25:35.000Z</time>
                <name>Trackpoint 4109</name>
            </trkpt>
            <trkpt lat="50.0442208" lon="11.45412">
                <ele>305.0</ele>
                <time>2020-08-21T14:25:37.000Z</time>
                <name>Trackpoint 4110</name>
            </trkpt>
            <trkpt lat="50.0443392" lon="11.4540864">
                <ele>305.0</ele>
                <time>2020-08-21T14:25:39.000Z</time>
                <name>Trackpoint 4111</name>
            </trkpt>
            <trkpt lat="50.044464" lon="11.4540528">
                <ele>305.0</ele>
                <time>2020-08-21T14:25:41.000Z</time>
                <name>Trackpoint 4112</name>
            </trkpt>
            <trkpt lat="50.0445888" lon="11.4540104">
                <ele>304.0</ele>
                <time>2020-08-21T14:25:43.000Z</time>
                <name>Trackpoint 4113</name>
            </trkpt>
            <trkpt lat="50.0447232" lon="11.4539632">
                <ele>304.0</ele>
                <time>2020-08-21T14:25:45.000Z</time>
                <name>Trackpoint 4114</name>
            </trkpt>
            <trkpt lat="50.0448544" lon="11.4539184">
                <ele>304.0</ele>
                <time>2020-08-21T14:25:47.000Z</time>
                <name>Trackpoint 4115</name>
            </trkpt>
            <trkpt lat="50.0449824" lon="11.4538616">
                <ele>304.0</ele>
                <time>2020-08-21T14:25:49.000Z</time>
                <name>Trackpoint 4116</name>
            </trkpt>
            <trkpt lat="50.0451136" lon="11.4537936">
                <ele>304.0</ele>
                <time>2020-08-21T14:25:51.000Z</time>
                <name>Trackpoint 4117</name>
            </trkpt>
            <trkpt lat="50.0452416" lon="11.4537224">
                <ele>304.0</ele>
                <time>2020-08-21T14:25:53.000Z</time>
                <name>Trackpoint 4118</name>
            </trkpt>
            <trkpt lat="50.0453696" lon="11.4536448">
                <ele>304.0</ele>
                <time>2020-08-21T14:25:55.000Z</time>
                <name>Trackpoint 4119</name>
            </trkpt>
            <trkpt lat="50.0454976" lon="11.4535736">
                <ele>304.0</ele>
                <time>2020-08-21T14:25:57.000Z</time>
                <name>Trackpoint 4120</name>
            </trkpt>
            <trkpt lat="50.0456288" lon="11.4535104">
                <ele>304.0</ele>
                <time>2020-08-21T14:25:59.000Z</time>
                <name>Trackpoint 4121</name>
            </trkpt>
            <trkpt lat="50.04576" lon="11.4534416">
                <ele>304.0</ele>
                <time>2020-08-21T14:26:01.000Z</time>
                <name>Trackpoint 4122</name>
            </trkpt>
            <trkpt lat="50.0458976" lon="11.4533728">
                <ele>304.0</ele>
                <time>2020-08-21T14:26:03.000Z</time>
                <name>Trackpoint 4123</name>
            </trkpt>
            <trkpt lat="50.0460352" lon="11.4533104">
                <ele>303.0</ele>
                <time>2020-08-21T14:26:05.000Z</time>
                <name>Trackpoint 4124</name>
            </trkpt>
            <trkpt lat="50.0461728" lon="11.45324">
                <ele>303.0</ele>
                <time>2020-08-21T14:26:07.000Z</time>
                <name>Trackpoint 4125</name>
            </trkpt>
            <trkpt lat="50.0463136" lon="11.4531816">
                <ele>303.0</ele>
                <time>2020-08-21T14:26:09.000Z</time>
                <name>Trackpoint 4126</name>
            </trkpt>
            <trkpt lat="50.0464512" lon="11.4531344">
                <ele>303.0</ele>
                <time>2020-08-21T14:26:11.000Z</time>
                <name>Trackpoint 4127</name>
            </trkpt>
            <trkpt lat="50.0465888" lon="11.4530888">
                <ele>303.0</ele>
                <time>2020-08-21T14:26:13.000Z</time>
                <name>Trackpoint 4128</name>
            </trkpt>
            <trkpt lat="50.0467264" lon="11.4530488">
                <ele>303.0</ele>
                <time>2020-08-21T14:26:15.000Z</time>
                <name>Trackpoint 4129</name>
            </trkpt>
            <trkpt lat="50.046864" lon="11.4530264">
                <ele>302.0</ele>
                <time>2020-08-21T14:26:17.000Z</time>
                <name>Trackpoint 4130</name>
            </trkpt>
            <trkpt lat="50.0469984" lon="11.45302">
                <ele>302.0</ele>
                <time>2020-08-21T14:26:19.000Z</time>
                <name>Trackpoint 4131</name>
            </trkpt>
            <trkpt lat="50.0471328" lon="11.4530288">
                <ele>303.0</ele>
                <time>2020-08-21T14:26:21.000Z</time>
                <name>Trackpoint 4132</name>
            </trkpt>
            <trkpt lat="50.0472672" lon="11.4530496">
                <ele>302.0</ele>
                <time>2020-08-21T14:26:23.000Z</time>
                <name>Trackpoint 4133</name>
            </trkpt>
            <trkpt lat="50.0474016" lon="11.4530712">
                <ele>303.0</ele>
                <time>2020-08-21T14:26:25.000Z</time>
                <name>Trackpoint 4134</name>
            </trkpt>
            <trkpt lat="50.047536" lon="11.4530936">
                <ele>303.0</ele>
                <time>2020-08-21T14:26:27.000Z</time>
                <name>Trackpoint 4135</name>
            </trkpt>
            <trkpt lat="50.0476736" lon="11.45312">
                <ele>303.0</ele>
                <time>2020-08-21T14:26:29.000Z</time>
                <name>Trackpoint 4136</name>
            </trkpt>
            <trkpt lat="50.0478112" lon="11.4531416">
                <ele>303.0</ele>
                <time>2020-08-21T14:26:31.000Z</time>
                <name>Trackpoint 4137</name>
            </trkpt>
            <trkpt lat="50.0479424" lon="11.4531584">
                <ele>303.0</ele>
                <time>2020-08-21T14:26:33.000Z</time>
                <name>Trackpoint 4138</name>
            </trkpt>
            <trkpt lat="50.04808" lon="11.4531648">
                <ele>303.0</ele>
                <time>2020-08-21T14:26:35.000Z</time>
                <name>Trackpoint 4139</name>
            </trkpt>
            <trkpt lat="50.0482208" lon="11.4531696">
                <ele>302.0</ele>
                <time>2020-08-21T14:26:37.000Z</time>
                <name>Trackpoint 4140</name>
            </trkpt>
            <trkpt lat="50.0483552" lon="11.4531632">
                <ele>302.0</ele>
                <time>2020-08-21T14:26:39.000Z</time>
                <name>Trackpoint 4141</name>
            </trkpt>
            <trkpt lat="50.0484896" lon="11.45314">
                <ele>302.0</ele>
                <time>2020-08-21T14:26:41.000Z</time>
                <name>Trackpoint 4142</name>
            </trkpt>
            <trkpt lat="50.0486208" lon="11.453112">
                <ele>303.0</ele>
                <time>2020-08-21T14:26:43.000Z</time>
                <name>Trackpoint 4143</name>
            </trkpt>
            <trkpt lat="50.0487552" lon="11.4530784">
                <ele>303.0</ele>
                <time>2020-08-21T14:26:45.000Z</time>
                <name>Trackpoint 4144</name>
            </trkpt>
            <trkpt lat="50.0488896" lon="11.4530488">
                <ele>303.0</ele>
                <time>2020-08-21T14:26:47.000Z</time>
                <name>Trackpoint 4145</name>
            </trkpt>
            <trkpt lat="50.0490176" lon="11.4530112">
                <ele>303.0</ele>
                <time>2020-08-21T14:26:49.000Z</time>
                <name>Trackpoint 4146</name>
            </trkpt>
            <trkpt lat="50.0491488" lon="11.4529696">
                <ele>303.0</ele>
                <time>2020-08-21T14:26:51.000Z</time>
                <name>Trackpoint 4147</name>
            </trkpt>
            <trkpt lat="50.0492736" lon="11.4529248">
                <ele>302.0</ele>
                <time>2020-08-21T14:26:53.000Z</time>
                <name>Trackpoint 4148</name>
            </trkpt>
            <trkpt lat="50.0494016" lon="11.452884">
                <ele>302.0</ele>
                <time>2020-08-21T14:26:55.000Z</time>
                <name>Trackpoint 4149</name>
            </trkpt>
            <trkpt lat="50.0495328" lon="11.4528416">
                <ele>301.0</ele>
                <time>2020-08-21T14:26:57.000Z</time>
                <name>Trackpoint 4150</name>
            </trkpt>
            <trkpt lat="50.049664" lon="11.4527928">
                <ele>301.0</ele>
                <time>2020-08-21T14:26:59.000Z</time>
                <name>Trackpoint 4151</name>
            </trkpt>
            <trkpt lat="50.049792" lon="11.4527528">
                <ele>301.0</ele>
                <time>2020-08-21T14:27:01.000Z</time>
                <name>Trackpoint 4152</name>
            </trkpt>
            <trkpt lat="50.0499264" lon="11.4527128">
                <ele>301.0</ele>
                <time>2020-08-21T14:27:03.000Z</time>
                <name>Trackpoint 4153</name>
            </trkpt>
            <trkpt lat="50.0500512" lon="11.4526728">
                <ele>301.0</ele>
                <time>2020-08-21T14:27:05.000Z</time>
                <name>Trackpoint 4154</name>
            </trkpt>
            <trkpt lat="50.0501824" lon="11.452632">
                <ele>301.0</ele>
                <time>2020-08-21T14:27:07.000Z</time>
                <name>Trackpoint 4155</name>
            </trkpt>
            <trkpt lat="50.0503072" lon="11.4525832">
                <ele>301.0</ele>
                <time>2020-08-21T14:27:09.000Z</time>
                <name>Trackpoint 4156</name>
            </trkpt>
            <trkpt lat="50.0504288" lon="11.4525344">
                <ele>301.0</ele>
                <time>2020-08-21T14:27:11.000Z</time>
                <name>Trackpoint 4157</name>
            </trkpt>
            <trkpt lat="50.0505536" lon="11.4524832">
                <ele>301.0</ele>
                <time>2020-08-21T14:27:13.000Z</time>
                <name>Trackpoint 4158</name>
            </trkpt>
            <trkpt lat="50.0506656" lon="11.4524136">
                <ele>301.0</ele>
                <time>2020-08-21T14:27:15.000Z</time>
                <name>Trackpoint 4159</name>
            </trkpt>
            <trkpt lat="50.0507808" lon="11.4523488">
                <ele>301.0</ele>
                <time>2020-08-21T14:27:17.000Z</time>
                <name>Trackpoint 4160</name>
            </trkpt>
            <trkpt lat="50.0508928" lon="11.4522688">
                <ele>302.0</ele>
                <time>2020-08-21T14:27:19.000Z</time>
                <name>Trackpoint 4161</name>
            </trkpt>
            <trkpt lat="50.0510048" lon="11.4521904">
                <ele>302.0</ele>
                <time>2020-08-21T14:27:21.000Z</time>
                <name>Trackpoint 4162</name>
            </trkpt>
            <trkpt lat="50.0511168" lon="11.4521128">
                <ele>302.0</ele>
                <time>2020-08-21T14:27:23.000Z</time>
                <name>Trackpoint 4163</name>
            </trkpt>
            <trkpt lat="50.051232" lon="11.4520328">
                <ele>302.0</ele>
                <time>2020-08-21T14:27:25.000Z</time>
                <name>Trackpoint 4164</name>
            </trkpt>
            <trkpt lat="50.0513472" lon="11.4519504">
                <ele>302.0</ele>
                <time>2020-08-21T14:27:27.000Z</time>
                <name>Trackpoint 4165</name>
            </trkpt>
            <trkpt lat="50.051456" lon="11.4518672">
                <ele>302.0</ele>
                <time>2020-08-21T14:27:29.000Z</time>
                <name>Trackpoint 4166</name>
            </trkpt>
            <trkpt lat="50.0515648" lon="11.4517784">
                <ele>302.0</ele>
                <time>2020-08-21T14:27:31.000Z</time>
                <name>Trackpoint 4167</name>
            </trkpt>
            <trkpt lat="50.0516704" lon="11.4516936">
                <ele>302.0</ele>
                <time>2020-08-21T14:27:33.000Z</time>
                <name>Trackpoint 4168</name>
            </trkpt>
            <trkpt lat="50.0517856" lon="11.4516248">
                <ele>302.0</ele>
                <time>2020-08-21T14:27:35.000Z</time>
                <name>Trackpoint 4169</name>
            </trkpt>
            <trkpt lat="50.0518944" lon="11.4515584">
                <ele>302.0</ele>
                <time>2020-08-21T14:27:37.000Z</time>
                <name>Trackpoint 4170</name>
            </trkpt>
            <trkpt lat="50.0519968" lon="11.4515">
                <ele>302.0</ele>
                <time>2020-08-21T14:27:39.000Z</time>
                <name>Trackpoint 4171</name>
            </trkpt>
            <trkpt lat="50.052096" lon="11.45146">
                <ele>302.0</ele>
                <time>2020-08-21T14:27:41.000Z</time>
                <name>Trackpoint 4172</name>
            </trkpt>
            <trkpt lat="50.0521888" lon="11.4514368">
                <ele>302.0</ele>
                <time>2020-08-21T14:27:43.000Z</time>
                <name>Trackpoint 4173</name>
            </trkpt>
            <trkpt lat="50.0522752" lon="11.4514112">
                <ele>303.0</ele>
                <time>2020-08-21T14:27:45.000Z</time>
                <name>Trackpoint 4174</name>
            </trkpt>
            <trkpt lat="50.052368" lon="11.4513928">
                <ele>303.0</ele>
                <time>2020-08-21T14:27:47.000Z</time>
                <name>Trackpoint 4175</name>
            </trkpt>
            <trkpt lat="50.0524608" lon="11.4513752">
                <ele>303.0</ele>
                <time>2020-08-21T14:27:49.000Z</time>
                <name>Trackpoint 4176</name>
            </trkpt>
            <trkpt lat="50.0525536" lon="11.451352">
                <ele>303.0</ele>
                <time>2020-08-21T14:27:51.000Z</time>
                <name>Trackpoint 4177</name>
            </trkpt>
            <trkpt lat="50.0526784" lon="11.4513184">
                <ele>303.0</ele>
                <time>2020-08-21T14:27:54.000Z</time>
                <name>Trackpoint 4178</name>
            </trkpt>
            <trkpt lat="50.0528064" lon="11.4512928">
                <ele>303.0</ele>
                <time>2020-08-21T14:27:57.000Z</time>
                <name>Trackpoint 4179</name>
            </trkpt>
            <trkpt lat="50.0528992" lon="11.451268">
                <ele>303.0</ele>
                <time>2020-08-21T14:27:59.000Z</time>
                <name>Trackpoint 4180</name>
            </trkpt>
            <trkpt lat="50.0529888" lon="11.4512304">
                <ele>303.0</ele>
                <time>2020-08-21T14:28:01.000Z</time>
                <name>Trackpoint 4181</name>
            </trkpt>
            <trkpt lat="50.053088" lon="11.4511992">
                <ele>303.0</ele>
                <time>2020-08-21T14:28:03.000Z</time>
                <name>Trackpoint 4182</name>
            </trkpt>
            <trkpt lat="50.0531808" lon="11.4511872">
                <ele>303.0</ele>
                <time>2020-08-21T14:28:05.000Z</time>
                <name>Trackpoint 4183</name>
            </trkpt>
            <trkpt lat="50.05328" lon="11.4511608">
                <ele>303.0</ele>
                <time>2020-08-21T14:28:07.000Z</time>
                <name>Trackpoint 4184</name>
            </trkpt>
            <trkpt lat="50.0533824" lon="11.4511336">
                <ele>303.0</ele>
                <time>2020-08-21T14:28:09.000Z</time>
                <name>Trackpoint 4185</name>
            </trkpt>
            <trkpt lat="50.0534848" lon="11.4511072">
                <ele>304.0</ele>
                <time>2020-08-21T14:28:11.000Z</time>
                <name>Trackpoint 4186</name>
            </trkpt>
            <trkpt lat="50.053584" lon="11.4510696">
                <ele>304.0</ele>
                <time>2020-08-21T14:28:13.000Z</time>
                <name>Trackpoint 4187</name>
            </trkpt>
            <trkpt lat="50.0536928" lon="11.45104">
                <ele>304.0</ele>
                <time>2020-08-21T14:28:15.000Z</time>
                <name>Trackpoint 4188</name>
            </trkpt>
            <trkpt lat="50.0537952" lon="11.4510096">
                <ele>304.0</ele>
                <time>2020-08-21T14:28:17.000Z</time>
                <name>Trackpoint 4189</name>
            </trkpt>
            <trkpt lat="50.0539008" lon="11.4509784">
                <ele>304.0</ele>
                <time>2020-08-21T14:28:19.000Z</time>
                <name>Trackpoint 4190</name>
            </trkpt>
            <trkpt lat="50.0540032" lon="11.4509648">
                <ele>304.0</ele>
                <time>2020-08-21T14:28:21.000Z</time>
                <name>Trackpoint 4191</name>
            </trkpt>
            <trkpt lat="50.054112" lon="11.4509384">
                <ele>304.0</ele>
                <time>2020-08-21T14:28:23.000Z</time>
                <name>Trackpoint 4192</name>
            </trkpt>
            <trkpt lat="50.0542176" lon="11.4509048">
                <ele>304.0</ele>
                <time>2020-08-21T14:28:25.000Z</time>
                <name>Trackpoint 4193</name>
            </trkpt>
            <trkpt lat="50.0543488" lon="11.4508864">
                <ele>303.0</ele>
                <time>2020-08-21T14:28:28.000Z</time>
                <name>Trackpoint 4194</name>
            </trkpt>
            <trkpt lat="50.0544448" lon="11.4508512">
                <ele>303.0</ele>
                <time>2020-08-21T14:28:30.000Z</time>
                <name>Trackpoint 4195</name>
            </trkpt>
            <trkpt lat="50.0545472" lon="11.4508112">
                <ele>303.0</ele>
                <time>2020-08-21T14:28:32.000Z</time>
                <name>Trackpoint 4196</name>
            </trkpt>
            <trkpt lat="50.0546432" lon="11.4507984">
                <ele>304.0</ele>
                <time>2020-08-21T14:28:34.000Z</time>
                <name>Trackpoint 4197</name>
            </trkpt>
            <trkpt lat="50.0547552" lon="11.450784">
                <ele>304.0</ele>
                <time>2020-08-21T14:28:37.000Z</time>
                <name>Trackpoint 4198</name>
            </trkpt>
            <trkpt lat="50.054848" lon="11.4507712">
                <ele>304.0</ele>
                <time>2020-08-21T14:28:39.000Z</time>
                <name>Trackpoint 4199</name>
            </trkpt>
            <trkpt lat="50.0549824" lon="11.4507552">
                <ele>304.0</ele>
                <time>2020-08-21T14:28:42.000Z</time>
                <name>Trackpoint 4200</name>
            </trkpt>
            <trkpt lat="50.0551136" lon="11.4507376">
                <ele>303.0</ele>
                <time>2020-08-21T14:28:44.000Z</time>
                <name>Trackpoint 4201</name>
            </trkpt>
            <trkpt lat="50.0552384" lon="11.4507536">
                <ele>303.0</ele>
                <time>2020-08-21T14:28:46.000Z</time>
                <name>Trackpoint 4202</name>
            </trkpt>
            <trkpt lat="50.0553664" lon="11.4507816">
                <ele>303.0</ele>
                <time>2020-08-21T14:28:48.000Z</time>
                <name>Trackpoint 4203</name>
            </trkpt>
            <trkpt lat="50.0554784" lon="11.4508288">
                <ele>303.0</ele>
                <time>2020-08-21T14:28:50.000Z</time>
                <name>Trackpoint 4204</name>
            </trkpt>
            <trkpt lat="50.0556064" lon="11.4508712">
                <ele>303.0</ele>
                <time>2020-08-21T14:28:52.000Z</time>
                <name>Trackpoint 4205</name>
            </trkpt>
            <trkpt lat="50.0557312" lon="11.4509032">
                <ele>303.0</ele>
                <time>2020-08-21T14:28:54.000Z</time>
                <name>Trackpoint 4206</name>
            </trkpt>
            <trkpt lat="50.0558432" lon="11.4508688">
                <ele>303.0</ele>
                <time>2020-08-21T14:28:56.000Z</time>
                <name>Trackpoint 4207</name>
            </trkpt>
            <trkpt lat="50.0559616" lon="11.4508816">
                <ele>303.0</ele>
                <time>2020-08-21T14:28:58.000Z</time>
                <name>Trackpoint 4208</name>
            </trkpt>
            <trkpt lat="50.0561088" lon="11.4508688">
                <ele>303.0</ele>
                <time>2020-08-21T14:29:00.000Z</time>
                <name>Trackpoint 4209</name>
            </trkpt>
            <trkpt lat="50.0562464" lon="11.4508512">
                <ele>303.0</ele>
                <time>2020-08-21T14:29:02.000Z</time>
                <name>Trackpoint 4210</name>
            </trkpt>
            <trkpt lat="50.0563936" lon="11.4508368">
                <ele>303.0</ele>
                <time>2020-08-21T14:29:04.000Z</time>
                <name>Trackpoint 4211</name>
            </trkpt>
            <trkpt lat="50.0565312" lon="11.4508352">
                <ele>304.0</ele>
                <time>2020-08-21T14:29:06.000Z</time>
                <name>Trackpoint 4212</name>
            </trkpt>
            <trkpt lat="50.056656" lon="11.4508312">
                <ele>304.0</ele>
                <time>2020-08-21T14:29:08.000Z</time>
                <name>Trackpoint 4213</name>
            </trkpt>
            <trkpt lat="50.0567936" lon="11.4508312">
                <ele>304.0</ele>
                <time>2020-08-21T14:29:10.000Z</time>
                <name>Trackpoint 4214</name>
            </trkpt>
            <trkpt lat="50.0569376" lon="11.4508488">
                <ele>304.0</ele>
                <time>2020-08-21T14:29:12.000Z</time>
                <name>Trackpoint 4215</name>
            </trkpt>
            <trkpt lat="50.0570816" lon="11.45086">
                <ele>304.0</ele>
                <time>2020-08-21T14:29:14.000Z</time>
                <name>Trackpoint 4216</name>
            </trkpt>
            <trkpt lat="50.0572064" lon="11.4508648">
                <ele>304.0</ele>
                <time>2020-08-21T14:29:16.000Z</time>
                <name>Trackpoint 4217</name>
            </trkpt>
            <trkpt lat="50.0573504" lon="11.4508912">
                <ele>304.0</ele>
                <time>2020-08-21T14:29:18.000Z</time>
                <name>Trackpoint 4218</name>
            </trkpt>
            <trkpt lat="50.0574784" lon="11.4509">
                <ele>304.0</ele>
                <time>2020-08-21T14:29:20.000Z</time>
                <name>Trackpoint 4219</name>
            </trkpt>
            <trkpt lat="50.0576128" lon="11.4508936">
                <ele>304.0</ele>
                <time>2020-08-21T14:29:22.000Z</time>
                <name>Trackpoint 4220</name>
            </trkpt>
            <trkpt lat="50.0577408" lon="11.4508888">
                <ele>304.0</ele>
                <time>2020-08-21T14:29:24.000Z</time>
                <name>Trackpoint 4221</name>
            </trkpt>
            <trkpt lat="50.0578656" lon="11.4508984">
                <ele>305.0</ele>
                <time>2020-08-21T14:29:26.000Z</time>
                <name>Trackpoint 4222</name>
            </trkpt>
            <trkpt lat="50.0579904" lon="11.4508936">
                <ele>304.0</ele>
                <time>2020-08-21T14:29:28.000Z</time>
                <name>Trackpoint 4223</name>
            </trkpt>
            <trkpt lat="50.058112" lon="11.4508912">
                <ele>304.0</ele>
                <time>2020-08-21T14:29:30.000Z</time>
                <name>Trackpoint 4224</name>
            </trkpt>
            <trkpt lat="50.0582432" lon="11.4508952">
                <ele>304.0</ele>
                <time>2020-08-21T14:29:32.000Z</time>
                <name>Trackpoint 4225</name>
            </trkpt>
            <trkpt lat="50.0583712" lon="11.4508984">
                <ele>304.0</ele>
                <time>2020-08-21T14:29:34.000Z</time>
                <name>Trackpoint 4226</name>
            </trkpt>
            <trkpt lat="50.0585024" lon="11.4508936">
                <ele>304.0</ele>
                <time>2020-08-21T14:29:36.000Z</time>
                <name>Trackpoint 4227</name>
            </trkpt>
            <trkpt lat="50.0586272" lon="11.4508832">
                <ele>305.0</ele>
                <time>2020-08-21T14:29:38.000Z</time>
                <name>Trackpoint 4228</name>
            </trkpt>
            <trkpt lat="50.0587488" lon="11.4508832">
                <ele>305.0</ele>
                <time>2020-08-21T14:29:40.000Z</time>
                <name>Trackpoint 4229</name>
            </trkpt>
            <trkpt lat="50.0588832" lon="11.4508912">
                <ele>305.0</ele>
                <time>2020-08-21T14:29:42.000Z</time>
                <name>Trackpoint 4230</name>
            </trkpt>
            <trkpt lat="50.0590144" lon="11.4508936">
                <ele>305.0</ele>
                <time>2020-08-21T14:29:44.000Z</time>
                <name>Trackpoint 4231</name>
            </trkpt>
            <trkpt lat="50.059152" lon="11.4509032">
                <ele>305.0</ele>
                <time>2020-08-21T14:29:46.000Z</time>
                <name>Trackpoint 4232</name>
            </trkpt>
            <trkpt lat="50.05928" lon="11.4509112">
                <ele>305.0</ele>
                <time>2020-08-21T14:29:48.000Z</time>
                <name>Trackpoint 4233</name>
            </trkpt>
            <trkpt lat="50.0594176" lon="11.4509288">
                <ele>305.0</ele>
                <time>2020-08-21T14:29:50.000Z</time>
                <name>Trackpoint 4234</name>
            </trkpt>
            <trkpt lat="50.0595552" lon="11.4509536">
                <ele>305.0</ele>
                <time>2020-08-21T14:29:52.000Z</time>
                <name>Trackpoint 4235</name>
            </trkpt>
            <trkpt lat="50.0596992" lon="11.4509896">
                <ele>305.0</ele>
                <time>2020-08-21T14:29:54.000Z</time>
                <name>Trackpoint 4236</name>
            </trkpt>
            <trkpt lat="50.05984" lon="11.4510536">
                <ele>305.0</ele>
                <time>2020-08-21T14:29:56.000Z</time>
                <name>Trackpoint 4237</name>
            </trkpt>
            <trkpt lat="50.0599648" lon="11.4511248">
                <ele>305.0</ele>
                <time>2020-08-21T14:29:58.000Z</time>
                <name>Trackpoint 4238</name>
            </trkpt>
            <trkpt lat="50.06008" lon="11.4511984">
                <ele>304.0</ele>
                <time>2020-08-21T14:30:00.000Z</time>
                <name>Trackpoint 4239</name>
            </trkpt>
            <trkpt lat="50.0601888" lon="11.4512656">
                <ele>304.0</ele>
                <time>2020-08-21T14:30:02.000Z</time>
                <name>Trackpoint 4240</name>
            </trkpt>
            <trkpt lat="50.0602784" lon="11.4513328">
                <ele>305.0</ele>
                <time>2020-08-21T14:30:04.000Z</time>
                <name>Trackpoint 4241</name>
            </trkpt>
            <trkpt lat="50.0603648" lon="11.4513832">
                <ele>305.0</ele>
                <time>2020-08-21T14:30:06.000Z</time>
                <name>Trackpoint 4242</name>
            </trkpt>
            <trkpt lat="50.060464" lon="11.4514304">
                <ele>304.0</ele>
                <time>2020-08-21T14:30:09.000Z</time>
                <name>Trackpoint 4243</name>
            </trkpt>
            <trkpt lat="50.0605536" lon="11.4514448">
                <ele>302.0</ele>
                <time>2020-08-21T14:34:13.000Z</time>
                <name>Trackpoint 4244</name>
            </trkpt>
            <trkpt lat="50.0606464" lon="11.4514848">
                <ele>303.0</ele>
                <time>2020-08-21T14:34:18.000Z</time>
                <name>Trackpoint 4245</name>
            </trkpt>
            <trkpt lat="50.0607488" lon="11.4515064">
                <ele>304.0</ele>
                <time>2020-08-21T14:34:23.000Z</time>
                <name>Trackpoint 4246</name>
            </trkpt>
            <trkpt lat="50.060864" lon="11.451504">
                <ele>304.0</ele>
                <time>2020-08-21T14:34:28.000Z</time>
                <name>Trackpoint 4247</name>
            </trkpt>
            <trkpt lat="50.0609728" lon="11.4514904">
                <ele>305.0</ele>
                <time>2020-08-21T14:34:33.000Z</time>
                <name>Trackpoint 4248</name>
            </trkpt>
            <trkpt lat="50.0610624" lon="11.4514704">
                <ele>306.0</ele>
                <time>2020-08-21T14:34:37.000Z</time>
                <name>Trackpoint 4249</name>
            </trkpt>
            <trkpt lat="50.0611584" lon="11.4514712">
                <ele>307.0</ele>
                <time>2020-08-21T14:34:41.000Z</time>
                <name>Trackpoint 4250</name>
            </trkpt>
            <trkpt lat="50.0612608" lon="11.4514712">
                <ele>307.0</ele>
                <time>2020-08-21T14:34:45.000Z</time>
                <name>Trackpoint 4251</name>
            </trkpt>
            <trkpt lat="50.0613632" lon="11.4514816">
                <ele>308.0</ele>
                <time>2020-08-21T14:34:49.000Z</time>
                <name>Trackpoint 4252</name>
            </trkpt>
            <trkpt lat="50.0614656" lon="11.4515152">
                <ele>308.0</ele>
                <time>2020-08-21T14:34:53.000Z</time>
                <name>Trackpoint 4253</name>
            </trkpt>
            <trkpt lat="50.0615648" lon="11.4515584">
                <ele>309.0</ele>
                <time>2020-08-21T14:34:57.000Z</time>
                <name>Trackpoint 4254</name>
            </trkpt>
            <trkpt lat="50.0616608" lon="11.451616">
                <ele>310.0</ele>
                <time>2020-08-21T14:35:01.000Z</time>
                <name>Trackpoint 4255</name>
            </trkpt>
            <trkpt lat="50.0617344" lon="11.4516696">
                <ele>310.0</ele>
                <time>2020-08-21T14:35:04.000Z</time>
                <name>Trackpoint 4256</name>
            </trkpt>
            <trkpt lat="50.0618016" lon="11.4517336">
                <ele>311.0</ele>
                <time>2020-08-21T14:35:07.000Z</time>
                <name>Trackpoint 4257</name>
            </trkpt>
            <trkpt lat="50.0618752" lon="11.4517872">
                <ele>312.0</ele>
                <time>2020-08-21T14:35:10.000Z</time>
                <name>Trackpoint 4258</name>
            </trkpt>
            <trkpt lat="50.0619456" lon="11.4518584">
                <ele>312.0</ele>
                <time>2020-08-21T14:35:13.000Z</time>
                <name>Trackpoint 4259</name>
            </trkpt>
            <trkpt lat="50.0620224" lon="11.451928">
                <ele>313.0</ele>
                <time>2020-08-21T14:35:16.000Z</time>
                <name>Trackpoint 4260</name>
            </trkpt>
            <trkpt lat="50.0621024" lon="11.4519816">
                <ele>313.0</ele>
                <time>2020-08-21T14:35:19.000Z</time>
                <name>Trackpoint 4261</name>
            </trkpt>
            <trkpt lat="50.0621856" lon="11.452028">
                <ele>313.0</ele>
                <time>2020-08-21T14:35:22.000Z</time>
                <name>Trackpoint 4262</name>
            </trkpt>
            <trkpt lat="50.062272" lon="11.4520664">
                <ele>314.0</ele>
                <time>2020-08-21T14:35:25.000Z</time>
                <name>Trackpoint 4263</name>
            </trkpt>
            <trkpt lat="50.062368" lon="11.452104">
                <ele>314.0</ele>
                <time>2020-08-21T14:35:28.000Z</time>
                <name>Trackpoint 4264</name>
            </trkpt>
            <trkpt lat="50.0624768" lon="11.4521352">
                <ele>314.0</ele>
                <time>2020-08-21T14:35:31.000Z</time>
                <name>Trackpoint 4265</name>
            </trkpt>
            <trkpt lat="50.0625952" lon="11.4521552">
                <ele>314.0</ele>
                <time>2020-08-21T14:35:34.000Z</time>
                <name>Trackpoint 4266</name>
            </trkpt>
            <trkpt lat="50.0627264" lon="11.4521784">
                <ele>314.0</ele>
                <time>2020-08-21T14:35:37.000Z</time>
                <name>Trackpoint 4267</name>
            </trkpt>
            <trkpt lat="50.0628576" lon="11.4522168">
                <ele>313.0</ele>
                <time>2020-08-21T14:35:40.000Z</time>
                <name>Trackpoint 4268</name>
            </trkpt>
            <trkpt lat="50.0629504" lon="11.4522616">
                <ele>313.0</ele>
                <time>2020-08-21T14:35:42.000Z</time>
                <name>Trackpoint 4269</name>
            </trkpt>
            <trkpt lat="50.0630272" lon="11.452336">
                <ele>313.0</ele>
                <time>2020-08-21T14:35:44.000Z</time>
                <name>Trackpoint 4270</name>
            </trkpt>
            <trkpt lat="50.0630912" lon="11.4524248">
                <ele>313.0</ele>
                <time>2020-08-21T14:35:46.000Z</time>
                <name>Trackpoint 4271</name>
            </trkpt>
            <trkpt lat="50.0631488" lon="11.4525168">
                <ele>313.0</ele>
                <time>2020-08-21T14:35:48.000Z</time>
                <name>Trackpoint 4272</name>
            </trkpt>
            <trkpt lat="50.0632064" lon="11.4526104">
                <ele>313.0</ele>
                <time>2020-08-21T14:35:50.000Z</time>
                <name>Trackpoint 4273</name>
            </trkpt>
            <trkpt lat="50.0632672" lon="11.4526928">
                <ele>313.0</ele>
                <time>2020-08-21T14:35:52.000Z</time>
                <name>Trackpoint 4274</name>
            </trkpt>
            <trkpt lat="50.0633856" lon="11.4527168">
                <ele>313.0</ele>
                <time>2020-08-21T14:35:55.000Z</time>
                <name>Trackpoint 4275</name>
            </trkpt>
            <trkpt lat="50.063456" lon="11.4526232">
                <ele>313.0</ele>
                <time>2020-08-21T14:35:57.000Z</time>
                <name>Trackpoint 4276</name>
            </trkpt>
            <trkpt lat="50.063504" lon="11.4525072">
                <ele>313.0</ele>
                <time>2020-08-21T14:35:59.000Z</time>
                <name>Trackpoint 4277</name>
            </trkpt>
            <trkpt lat="50.0635328" lon="11.4523872">
                <ele>313.0</ele>
                <time>2020-08-21T14:36:01.000Z</time>
                <name>Trackpoint 4278</name>
            </trkpt>
            <trkpt lat="50.0635648" lon="11.4522712">
                <ele>313.0</ele>
                <time>2020-08-21T14:36:03.000Z</time>
                <name>Trackpoint 4279</name>
            </trkpt>
            <trkpt lat="50.0635904" lon="11.4521576">
                <ele>313.0</ele>
                <time>2020-08-21T14:36:05.000Z</time>
                <name>Trackpoint 4280</name>
            </trkpt>
            <trkpt lat="50.0636192" lon="11.4520528">
                <ele>313.0</ele>
                <time>2020-08-21T14:36:07.000Z</time>
                <name>Trackpoint 4281</name>
            </trkpt>
            <trkpt lat="50.0636448" lon="11.451948">
                <ele>313.0</ele>
                <time>2020-08-21T14:36:09.000Z</time>
                <name>Trackpoint 4282</name>
            </trkpt>
            <trkpt lat="50.0636736" lon="11.4518536">
                <ele>313.0</ele>
                <time>2020-08-21T14:36:11.000Z</time>
                <name>Trackpoint 4283</name>
            </trkpt>
            <trkpt lat="50.0637056" lon="11.4517536">
                <ele>314.0</ele>
                <time>2020-08-21T14:36:13.000Z</time>
                <name>Trackpoint 4284</name>
            </trkpt>
            <trkpt lat="50.0637344" lon="11.4516536">
                <ele>314.0</ele>
                <time>2020-08-21T14:36:15.000Z</time>
                <name>Trackpoint 4285</name>
            </trkpt>
            <trkpt lat="50.0637632" lon="11.4515496">
                <ele>315.0</ele>
                <time>2020-08-21T14:36:17.000Z</time>
                <name>Trackpoint 4286</name>
            </trkpt>
            <trkpt lat="50.063792" lon="11.4514512">
                <ele>315.0</ele>
                <time>2020-08-21T14:36:19.000Z</time>
                <name>Trackpoint 4287</name>
            </trkpt>
            <trkpt lat="50.063824" lon="11.451352">
                <ele>315.0</ele>
                <time>2020-08-21T14:36:21.000Z</time>
                <name>Trackpoint 4288</name>
            </trkpt>
            <trkpt lat="50.0638496" lon="11.451248">
                <ele>315.0</ele>
                <time>2020-08-21T14:36:23.000Z</time>
                <name>Trackpoint 4289</name>
            </trkpt>
            <trkpt lat="50.0638848" lon="11.4511472">
                <ele>315.0</ele>
                <time>2020-08-21T14:36:25.000Z</time>
                <name>Trackpoint 4290</name>
            </trkpt>
            <trkpt lat="50.0639168" lon="11.4510416">
                <ele>315.0</ele>
                <time>2020-08-21T14:36:27.000Z</time>
                <name>Trackpoint 4291</name>
            </trkpt>
            <trkpt lat="50.0639488" lon="11.4509424">
                <ele>316.0</ele>
                <time>2020-08-21T14:36:29.000Z</time>
                <name>Trackpoint 4292</name>
            </trkpt>
            <trkpt lat="50.0639776" lon="11.4508368">
                <ele>315.0</ele>
                <time>2020-08-21T14:36:31.000Z</time>
                <name>Trackpoint 4293</name>
            </trkpt>
            <trkpt lat="50.0640096" lon="11.4507288">
                <ele>315.0</ele>
                <time>2020-08-21T14:36:33.000Z</time>
                <name>Trackpoint 4294</name>
            </trkpt>
            <trkpt lat="50.0640416" lon="11.4506168">
                <ele>315.0</ele>
                <time>2020-08-21T14:36:35.000Z</time>
                <name>Trackpoint 4295</name>
            </trkpt>
            <trkpt lat="50.06408" lon="11.4505032">
                <ele>315.0</ele>
                <time>2020-08-21T14:36:37.000Z</time>
                <name>Trackpoint 4296</name>
            </trkpt>
            <trkpt lat="50.0641248" lon="11.4503896">
                <ele>315.0</ele>
                <time>2020-08-21T14:36:39.000Z</time>
                <name>Trackpoint 4297</name>
            </trkpt>
            <trkpt lat="50.0641664" lon="11.4502632">
                <ele>315.0</ele>
                <time>2020-08-21T14:36:41.000Z</time>
                <name>Trackpoint 4298</name>
            </trkpt>
            <trkpt lat="50.0642112" lon="11.4501312">
                <ele>314.0</ele>
                <time>2020-08-21T14:36:43.000Z</time>
                <name>Trackpoint 4299</name>
            </trkpt>
            <trkpt lat="50.0642624" lon="11.4499952">
                <ele>314.0</ele>
                <time>2020-08-21T14:36:45.000Z</time>
                <name>Trackpoint 4300</name>
            </trkpt>
            <trkpt lat="50.0643168" lon="11.4498384">
                <ele>313.0</ele>
                <time>2020-08-21T14:36:47.000Z</time>
                <name>Trackpoint 4301</name>
            </trkpt>
            <trkpt lat="50.0643776" lon="11.4496744">
                <ele>313.0</ele>
                <time>2020-08-21T14:36:49.000Z</time>
                <name>Trackpoint 4302</name>
            </trkpt>
            <trkpt lat="50.0644096" lon="11.4495848">
                <ele>312.0</ele>
                <time>2020-08-21T14:36:50.000Z</time>
                <name>Trackpoint 4303</name>
            </trkpt>
            <trkpt lat="50.064448" lon="11.4494984">
                <ele>312.0</ele>
                <time>2020-08-21T14:36:51.000Z</time>
                <name>Trackpoint 4304</name>
            </trkpt>
            <trkpt lat="50.0644864" lon="11.4494064">
                <ele>311.0</ele>
                <time>2020-08-21T14:36:52.000Z</time>
                <name>Trackpoint 4305</name>
            </trkpt>
            <trkpt lat="50.0645248" lon="11.4493112">
                <ele>311.0</ele>
                <time>2020-08-21T14:36:53.000Z</time>
                <name>Trackpoint 4306</name>
            </trkpt>
            <trkpt lat="50.0645664" lon="11.449212">
                <ele>310.0</ele>
                <time>2020-08-21T14:36:54.000Z</time>
                <name>Trackpoint 4307</name>
            </trkpt>
            <trkpt lat="50.064608" lon="11.4491064">
                <ele>310.0</ele>
                <time>2020-08-21T14:36:55.000Z</time>
                <name>Trackpoint 4308</name>
            </trkpt>
            <trkpt lat="50.064656" lon="11.4490016">
                <ele>309.0</ele>
                <time>2020-08-21T14:36:56.000Z</time>
                <name>Trackpoint 4309</name>
            </trkpt>
            <trkpt lat="50.0647008" lon="11.448892">
                <ele>308.0</ele>
                <time>2020-08-21T14:36:57.000Z</time>
                <name>Trackpoint 4310</name>
            </trkpt>
            <trkpt lat="50.0647456" lon="11.4487816">
                <ele>308.0</ele>
                <time>2020-08-21T14:36:58.000Z</time>
                <name>Trackpoint 4311</name>
            </trkpt>
            <trkpt lat="50.0647968" lon="11.4486704">
                <ele>307.0</ele>
                <time>2020-08-21T14:36:59.000Z</time>
                <name>Trackpoint 4312</name>
            </trkpt>
            <trkpt lat="50.0648416" lon="11.4485552">
                <ele>306.0</ele>
                <time>2020-08-21T14:37:00.000Z</time>
                <name>Trackpoint 4313</name>
            </trkpt>
            <trkpt lat="50.064896" lon="11.4484392">
                <ele>306.0</ele>
                <time>2020-08-21T14:37:01.000Z</time>
                <name>Trackpoint 4314</name>
            </trkpt>
            <trkpt lat="50.0649504" lon="11.4483232">
                <ele>305.0</ele>
                <time>2020-08-21T14:37:02.000Z</time>
                <name>Trackpoint 4315</name>
            </trkpt>
            <trkpt lat="50.0650016" lon="11.4482048">
                <ele>304.0</ele>
                <time>2020-08-21T14:37:03.000Z</time>
                <name>Trackpoint 4316</name>
            </trkpt>
            <trkpt lat="50.065056" lon="11.4480864">
                <ele>304.0</ele>
                <time>2020-08-21T14:37:04.000Z</time>
                <name>Trackpoint 4317</name>
            </trkpt>
            <trkpt lat="50.0651136" lon="11.4479664">
                <ele>303.0</ele>
                <time>2020-08-21T14:37:05.000Z</time>
                <name>Trackpoint 4318</name>
            </trkpt>
            <trkpt lat="50.0651712" lon="11.4478456">
                <ele>303.0</ele>
                <time>2020-08-21T14:37:06.000Z</time>
                <name>Trackpoint 4319</name>
            </trkpt>
            <trkpt lat="50.0652288" lon="11.4477216">
                <ele>302.0</ele>
                <time>2020-08-21T14:37:07.000Z</time>
                <name>Trackpoint 4320</name>
            </trkpt>
            <trkpt lat="50.0652832" lon="11.4475984">
                <ele>302.0</ele>
                <time>2020-08-21T14:37:08.000Z</time>
                <name>Trackpoint 4321</name>
            </trkpt>
            <trkpt lat="50.0653408" lon="11.4474736">
                <ele>301.0</ele>
                <time>2020-08-21T14:37:09.000Z</time>
                <name>Trackpoint 4322</name>
            </trkpt>
            <trkpt lat="50.0654016" lon="11.4473496">
                <ele>301.0</ele>
                <time>2020-08-21T14:37:10.000Z</time>
                <name>Trackpoint 4323</name>
            </trkpt>
            <trkpt lat="50.0654592" lon="11.4472248">
                <ele>301.0</ele>
                <time>2020-08-21T14:37:11.000Z</time>
                <name>Trackpoint 4324</name>
            </trkpt>
            <trkpt lat="50.0655136" lon="11.4471">
                <ele>300.0</ele>
                <time>2020-08-21T14:37:12.000Z</time>
                <name>Trackpoint 4325</name>
            </trkpt>
            <trkpt lat="50.0655712" lon="11.4469736">
                <ele>300.0</ele>
                <time>2020-08-21T14:37:13.000Z</time>
                <name>Trackpoint 4326</name>
            </trkpt>
            <trkpt lat="50.0656256" lon="11.446848">
                <ele>300.0</ele>
                <time>2020-08-21T14:37:14.000Z</time>
                <name>Trackpoint 4327</name>
            </trkpt>
            <trkpt lat="50.0656768" lon="11.4467232">
                <ele>300.0</ele>
                <time>2020-08-21T14:37:15.000Z</time>
                <name>Trackpoint 4328</name>
            </trkpt>
            <trkpt lat="50.0657248" lon="11.4466">
                <ele>300.0</ele>
                <time>2020-08-21T14:37:16.000Z</time>
                <name>Trackpoint 4329</name>
            </trkpt>
            <trkpt lat="50.0657696" lon="11.4464816">
                <ele>300.0</ele>
                <time>2020-08-21T14:37:17.000Z</time>
                <name>Trackpoint 4330</name>
            </trkpt>
            <trkpt lat="50.0658112" lon="11.4463632">
                <ele>300.0</ele>
                <time>2020-08-21T14:37:18.000Z</time>
                <name>Trackpoint 4331</name>
            </trkpt>
            <trkpt lat="50.0658528" lon="11.446252">
                <ele>300.0</ele>
                <time>2020-08-21T14:37:19.000Z</time>
                <name>Trackpoint 4332</name>
            </trkpt>
            <trkpt lat="50.065888" lon="11.44614">
                <ele>300.0</ele>
                <time>2020-08-21T14:37:20.000Z</time>
                <name>Trackpoint 4333</name>
            </trkpt>
            <trkpt lat="50.0659232" lon="11.4460312">
                <ele>300.0</ele>
                <time>2020-08-21T14:37:21.000Z</time>
                <name>Trackpoint 4334</name>
            </trkpt>
            <trkpt lat="50.0659552" lon="11.445924">
                <ele>300.0</ele>
                <time>2020-08-21T14:37:22.000Z</time>
                <name>Trackpoint 4335</name>
            </trkpt>
            <trkpt lat="50.0659872" lon="11.44582">
                <ele>300.0</ele>
                <time>2020-08-21T14:37:23.000Z</time>
                <name>Trackpoint 4336</name>
            </trkpt>
            <trkpt lat="50.066016" lon="11.44572">
                <ele>300.0</ele>
                <time>2020-08-21T14:37:24.000Z</time>
                <name>Trackpoint 4337</name>
            </trkpt>
            <trkpt lat="50.066048" lon="11.4456184">
                <ele>300.0</ele>
                <time>2020-08-21T14:37:25.000Z</time>
                <name>Trackpoint 4338</name>
            </trkpt>
            <trkpt lat="50.0660768" lon="11.4455216">
                <ele>300.0</ele>
                <time>2020-08-21T14:37:26.000Z</time>
                <name>Trackpoint 4339</name>
            </trkpt>
            <trkpt lat="50.0661056" lon="11.4454296">
                <ele>300.0</ele>
                <time>2020-08-21T14:37:27.000Z</time>
                <name>Trackpoint 4340</name>
            </trkpt>
            <trkpt lat="50.0661312" lon="11.445336">
                <ele>301.0</ele>
                <time>2020-08-21T14:37:28.000Z</time>
                <name>Trackpoint 4341</name>
            </trkpt>
            <trkpt lat="50.0661568" lon="11.4452464">
                <ele>301.0</ele>
                <time>2020-08-21T14:37:29.000Z</time>
                <name>Trackpoint 4342</name>
            </trkpt>
            <trkpt lat="50.0662048" lon="11.4450768">
                <ele>301.0</ele>
                <time>2020-08-21T14:37:31.000Z</time>
                <name>Trackpoint 4343</name>
            </trkpt>
            <trkpt lat="50.0662496" lon="11.4449128">
                <ele>301.0</ele>
                <time>2020-08-21T14:37:33.000Z</time>
                <name>Trackpoint 4344</name>
            </trkpt>
            <trkpt lat="50.066288" lon="11.4447568">
                <ele>301.0</ele>
                <time>2020-08-21T14:37:35.000Z</time>
                <name>Trackpoint 4345</name>
            </trkpt>
            <trkpt lat="50.06632" lon="11.4446048">
                <ele>302.0</ele>
                <time>2020-08-21T14:37:37.000Z</time>
                <name>Trackpoint 4346</name>
            </trkpt>
            <trkpt lat="50.0663424" lon="11.4444616">
                <ele>302.0</ele>
                <time>2020-08-21T14:37:39.000Z</time>
                <name>Trackpoint 4347</name>
            </trkpt>
            <trkpt lat="50.0663648" lon="11.4443184">
                <ele>302.0</ele>
                <time>2020-08-21T14:37:41.000Z</time>
                <name>Trackpoint 4348</name>
            </trkpt>
            <trkpt lat="50.0663872" lon="11.4441792">
                <ele>303.0</ele>
                <time>2020-08-21T14:37:43.000Z</time>
                <name>Trackpoint 4349</name>
            </trkpt>
            <trkpt lat="50.0664032" lon="11.444048">
                <ele>303.0</ele>
                <time>2020-08-21T14:37:45.000Z</time>
                <name>Trackpoint 4350</name>
            </trkpt>
            <trkpt lat="50.0664224" lon="11.443916">
                <ele>303.0</ele>
                <time>2020-08-21T14:37:47.000Z</time>
                <name>Trackpoint 4351</name>
            </trkpt>
            <trkpt lat="50.0664416" lon="11.44378">
                <ele>303.0</ele>
                <time>2020-08-21T14:37:49.000Z</time>
                <name>Trackpoint 4352</name>
            </trkpt>
            <trkpt lat="50.0664544" lon="11.44364">
                <ele>303.0</ele>
                <time>2020-08-21T14:37:51.000Z</time>
                <name>Trackpoint 4353</name>
            </trkpt>
            <trkpt lat="50.0664704" lon="11.4434968">
                <ele>304.0</ele>
                <time>2020-08-21T14:37:53.000Z</time>
                <name>Trackpoint 4354</name>
            </trkpt>
            <trkpt lat="50.06648" lon="11.4433536">
                <ele>304.0</ele>
                <time>2020-08-21T14:37:55.000Z</time>
                <name>Trackpoint 4355</name>
            </trkpt>
            <trkpt lat="50.0664928" lon="11.4432088">
                <ele>304.0</ele>
                <time>2020-08-21T14:37:57.000Z</time>
                <name>Trackpoint 4356</name>
            </trkpt>
            <trkpt lat="50.0665088" lon="11.4430616">
                <ele>304.0</ele>
                <time>2020-08-21T14:37:59.000Z</time>
                <name>Trackpoint 4357</name>
            </trkpt>
            <trkpt lat="50.0665216" lon="11.4429104">
                <ele>304.0</ele>
                <time>2020-08-21T14:38:01.000Z</time>
                <name>Trackpoint 4358</name>
            </trkpt>
            <trkpt lat="50.0665312" lon="11.4427656">
                <ele>304.0</ele>
                <time>2020-08-21T14:38:03.000Z</time>
                <name>Trackpoint 4359</name>
            </trkpt>
            <trkpt lat="50.066544" lon="11.44262">
                <ele>305.0</ele>
                <time>2020-08-21T14:38:05.000Z</time>
                <name>Trackpoint 4360</name>
            </trkpt>
            <trkpt lat="50.0665536" lon="11.4424752">
                <ele>305.0</ele>
                <time>2020-08-21T14:38:07.000Z</time>
                <name>Trackpoint 4361</name>
            </trkpt>
            <trkpt lat="50.0665632" lon="11.4423304">
                <ele>305.0</ele>
                <time>2020-08-21T14:38:09.000Z</time>
                <name>Trackpoint 4362</name>
            </trkpt>
            <trkpt lat="50.0665728" lon="11.4421832">
                <ele>305.0</ele>
                <time>2020-08-21T14:38:11.000Z</time>
                <name>Trackpoint 4363</name>
            </trkpt>
            <trkpt lat="50.0665856" lon="11.4420416">
                <ele>305.0</ele>
                <time>2020-08-21T14:38:13.000Z</time>
                <name>Trackpoint 4364</name>
            </trkpt>
            <trkpt lat="50.066592" lon="11.4418984">
                <ele>305.0</ele>
                <time>2020-08-21T14:38:15.000Z</time>
                <name>Trackpoint 4365</name>
            </trkpt>
            <trkpt lat="50.066608" lon="11.4417536">
                <ele>306.0</ele>
                <time>2020-08-21T14:38:17.000Z</time>
                <name>Trackpoint 4366</name>
            </trkpt>
            <trkpt lat="50.0666208" lon="11.4416064">
                <ele>306.0</ele>
                <time>2020-08-21T14:38:19.000Z</time>
                <name>Trackpoint 4367</name>
            </trkpt>
            <trkpt lat="50.0666272" lon="11.4414632">
                <ele>306.0</ele>
                <time>2020-08-21T14:38:21.000Z</time>
                <name>Trackpoint 4368</name>
            </trkpt>
            <trkpt lat="50.0666336" lon="11.4413184">
                <ele>306.0</ele>
                <time>2020-08-21T14:38:23.000Z</time>
                <name>Trackpoint 4369</name>
            </trkpt>
            <trkpt lat="50.0666464" lon="11.4411768">
                <ele>306.0</ele>
                <time>2020-08-21T14:38:25.000Z</time>
                <name>Trackpoint 4370</name>
            </trkpt>
            <trkpt lat="50.0666592" lon="11.4410336">
                <ele>306.0</ele>
                <time>2020-08-21T14:38:27.000Z</time>
                <name>Trackpoint 4371</name>
            </trkpt>
            <trkpt lat="50.0666656" lon="11.4408888">
                <ele>307.0</ele>
                <time>2020-08-21T14:38:29.000Z</time>
                <name>Trackpoint 4372</name>
            </trkpt>
            <trkpt lat="50.066672" lon="11.4407456">
                <ele>307.0</ele>
                <time>2020-08-21T14:38:31.000Z</time>
                <name>Trackpoint 4373</name>
            </trkpt>
            <trkpt lat="50.066688" lon="11.4406048">
                <ele>307.0</ele>
                <time>2020-08-21T14:38:33.000Z</time>
                <name>Trackpoint 4374</name>
            </trkpt>
            <trkpt lat="50.0666976" lon="11.4404624">
                <ele>307.0</ele>
                <time>2020-08-21T14:38:35.000Z</time>
                <name>Trackpoint 4375</name>
            </trkpt>
            <trkpt lat="50.066704" lon="11.44032">
                <ele>307.0</ele>
                <time>2020-08-21T14:38:37.000Z</time>
                <name>Trackpoint 4376</name>
            </trkpt>
            <trkpt lat="50.06672" lon="11.4401776">
                <ele>307.0</ele>
                <time>2020-08-21T14:38:39.000Z</time>
                <name>Trackpoint 4377</name>
            </trkpt>
            <trkpt lat="50.0667296" lon="11.4400368">
                <ele>307.0</ele>
                <time>2020-08-21T14:38:41.000Z</time>
                <name>Trackpoint 4378</name>
            </trkpt>
            <trkpt lat="50.0667424" lon="11.4398968">
                <ele>307.0</ele>
                <time>2020-08-21T14:38:43.000Z</time>
                <name>Trackpoint 4379</name>
            </trkpt>
            <trkpt lat="50.0667584" lon="11.4397632">
                <ele>307.0</ele>
                <time>2020-08-21T14:38:45.000Z</time>
                <name>Trackpoint 4380</name>
            </trkpt>
            <trkpt lat="50.0667648" lon="11.4396696">
                <ele>308.0</ele>
                <time>2020-08-21T14:39:32.000Z</time>
                <name>Trackpoint 4381</name>
            </trkpt>
            <trkpt lat="50.0667808" lon="11.4395584">
                <ele>308.0</ele>
                <time>2020-08-21T14:39:36.000Z</time>
                <name>Trackpoint 4382</name>
            </trkpt>
            <trkpt lat="50.0667904" lon="11.4394664">
                <ele>308.0</ele>
                <time>2020-08-21T14:39:38.000Z</time>
                <name>Trackpoint 4383</name>
            </trkpt>
            <trkpt lat="50.0668032" lon="11.43936">
                <ele>308.0</ele>
                <time>2020-08-21T14:39:40.000Z</time>
                <name>Trackpoint 4384</name>
            </trkpt>
            <trkpt lat="50.0668192" lon="11.4392472">
                <ele>308.0</ele>
                <time>2020-08-21T14:39:42.000Z</time>
                <name>Trackpoint 4385</name>
            </trkpt>
            <trkpt lat="50.0668384" lon="11.4391272">
                <ele>308.0</ele>
                <time>2020-08-21T14:39:44.000Z</time>
                <name>Trackpoint 4386</name>
            </trkpt>
            <trkpt lat="50.0668576" lon="11.4389984">
                <ele>308.0</ele>
                <time>2020-08-21T14:39:46.000Z</time>
                <name>Trackpoint 4387</name>
            </trkpt>
            <trkpt lat="50.0668768" lon="11.4388664">
                <ele>308.0</ele>
                <time>2020-08-21T14:39:48.000Z</time>
                <name>Trackpoint 4388</name>
            </trkpt>
            <trkpt lat="50.0668992" lon="11.4387368">
                <ele>308.0</ele>
                <time>2020-08-21T14:39:50.000Z</time>
                <name>Trackpoint 4389</name>
            </trkpt>
            <trkpt lat="50.0669184" lon="11.4386056">
                <ele>308.0</ele>
                <time>2020-08-21T14:39:52.000Z</time>
                <name>Trackpoint 4390</name>
            </trkpt>
            <trkpt lat="50.0669408" lon="11.4384736">
                <ele>308.0</ele>
                <time>2020-08-21T14:39:54.000Z</time>
                <name>Trackpoint 4391</name>
            </trkpt>
            <trkpt lat="50.0669632" lon="11.4383424">
                <ele>308.0</ele>
                <time>2020-08-21T14:39:56.000Z</time>
                <name>Trackpoint 4392</name>
            </trkpt>
            <trkpt lat="50.0669856" lon="11.4382096">
                <ele>308.0</ele>
                <time>2020-08-21T14:39:58.000Z</time>
                <name>Trackpoint 4393</name>
            </trkpt>
            <trkpt lat="50.067008" lon="11.4380752">
                <ele>308.0</ele>
                <time>2020-08-21T14:40:00.000Z</time>
                <name>Trackpoint 4394</name>
            </trkpt>
            <trkpt lat="50.0670304" lon="11.43794">
                <ele>308.0</ele>
                <time>2020-08-21T14:40:02.000Z</time>
                <name>Trackpoint 4395</name>
            </trkpt>
            <trkpt lat="50.0670592" lon="11.437808">
                <ele>308.0</ele>
                <time>2020-08-21T14:40:04.000Z</time>
                <name>Trackpoint 4396</name>
            </trkpt>
            <trkpt lat="50.067088" lon="11.4376768">
                <ele>308.0</ele>
                <time>2020-08-21T14:40:06.000Z</time>
                <name>Trackpoint 4397</name>
            </trkpt>
            <trkpt lat="50.0671168" lon="11.4375432">
                <ele>308.0</ele>
                <time>2020-08-21T14:40:08.000Z</time>
                <name>Trackpoint 4398</name>
            </trkpt>
            <trkpt lat="50.0671392" lon="11.4374088">
                <ele>308.0</ele>
                <time>2020-08-21T14:40:10.000Z</time>
                <name>Trackpoint 4399</name>
            </trkpt>
            <trkpt lat="50.067168" lon="11.4372728">
                <ele>308.0</ele>
                <time>2020-08-21T14:40:12.000Z</time>
                <name>Trackpoint 4400</name>
            </trkpt>
            <trkpt lat="50.0672" lon="11.4371416">
                <ele>308.0</ele>
                <time>2020-08-21T14:40:14.000Z</time>
                <name>Trackpoint 4401</name>
            </trkpt>
            <trkpt lat="50.0672256" lon="11.437008">
                <ele>308.0</ele>
                <time>2020-08-21T14:40:16.000Z</time>
                <name>Trackpoint 4402</name>
            </trkpt>
            <trkpt lat="50.0672576" lon="11.4368752">
                <ele>308.0</ele>
                <time>2020-08-21T14:40:18.000Z</time>
                <name>Trackpoint 4403</name>
            </trkpt>
            <trkpt lat="50.067296" lon="11.43674">
                <ele>308.0</ele>
                <time>2020-08-21T14:40:20.000Z</time>
                <name>Trackpoint 4404</name>
            </trkpt>
            <trkpt lat="50.0673344" lon="11.4365984">
                <ele>308.0</ele>
                <time>2020-08-21T14:40:22.000Z</time>
                <name>Trackpoint 4405</name>
            </trkpt>
            <trkpt lat="50.0673664" lon="11.4364584">
                <ele>308.0</ele>
                <time>2020-08-21T14:40:24.000Z</time>
                <name>Trackpoint 4406</name>
            </trkpt>
            <trkpt lat="50.0674048" lon="11.4363168">
                <ele>308.0</ele>
                <time>2020-08-21T14:40:26.000Z</time>
                <name>Trackpoint 4407</name>
            </trkpt>
            <trkpt lat="50.0674464" lon="11.436176">
                <ele>308.0</ele>
                <time>2020-08-21T14:40:28.000Z</time>
                <name>Trackpoint 4408</name>
            </trkpt>
            <trkpt lat="50.0674848" lon="11.436044">
                <ele>308.0</ele>
                <time>2020-08-21T14:40:30.000Z</time>
                <name>Trackpoint 4409</name>
            </trkpt>
            <trkpt lat="50.0675264" lon="11.435908">
                <ele>308.0</ele>
                <time>2020-08-21T14:40:32.000Z</time>
                <name>Trackpoint 4410</name>
            </trkpt>
            <trkpt lat="50.0675648" lon="11.4357752">
                <ele>307.0</ele>
                <time>2020-08-21T14:40:34.000Z</time>
                <name>Trackpoint 4411</name>
            </trkpt>
            <trkpt lat="50.0676064" lon="11.4356544">
                <ele>307.0</ele>
                <time>2020-08-21T14:40:36.000Z</time>
                <name>Trackpoint 4412</name>
            </trkpt>
            <trkpt lat="50.0676448" lon="11.4355352">
                <ele>307.0</ele>
                <time>2020-08-21T14:40:38.000Z</time>
                <name>Trackpoint 4413</name>
            </trkpt>
            <trkpt lat="50.0676832" lon="11.43542">
                <ele>307.0</ele>
                <time>2020-08-21T14:40:40.000Z</time>
                <name>Trackpoint 4414</name>
            </trkpt>
            <trkpt lat="50.0677248" lon="11.4353104">
                <ele>307.0</ele>
                <time>2020-08-21T14:40:42.000Z</time>
                <name>Trackpoint 4415</name>
            </trkpt>
            <trkpt lat="50.0677696" lon="11.435192">
                <ele>307.0</ele>
                <time>2020-08-21T14:40:44.000Z</time>
                <name>Trackpoint 4416</name>
            </trkpt>
            <trkpt lat="50.0678144" lon="11.4350704">
                <ele>307.0</ele>
                <time>2020-08-21T14:40:46.000Z</time>
                <name>Trackpoint 4417</name>
            </trkpt>
            <trkpt lat="50.0678592" lon="11.4349496">
                <ele>307.0</ele>
                <time>2020-08-21T14:40:48.000Z</time>
                <name>Trackpoint 4418</name>
            </trkpt>
            <trkpt lat="50.0679136" lon="11.4348232">
                <ele>307.0</ele>
                <time>2020-08-21T14:40:50.000Z</time>
                <name>Trackpoint 4419</name>
            </trkpt>
            <trkpt lat="50.0679616" lon="11.4346848">
                <ele>307.0</ele>
                <time>2020-08-21T14:40:52.000Z</time>
                <name>Trackpoint 4420</name>
            </trkpt>
            <trkpt lat="50.0680128" lon="11.4345328">
                <ele>307.0</ele>
                <time>2020-08-21T14:40:54.000Z</time>
                <name>Trackpoint 4421</name>
            </trkpt>
            <trkpt lat="50.0680704" lon="11.4343792">
                <ele>307.0</ele>
                <time>2020-08-21T14:40:56.000Z</time>
                <name>Trackpoint 4422</name>
            </trkpt>
            <trkpt lat="50.0681312" lon="11.4342416">
                <ele>307.0</ele>
                <time>2020-08-21T14:40:58.000Z</time>
                <name>Trackpoint 4423</name>
            </trkpt>
            <trkpt lat="50.0682016" lon="11.434096">
                <ele>307.0</ele>
                <time>2020-08-21T14:41:00.000Z</time>
                <name>Trackpoint 4424</name>
            </trkpt>
            <trkpt lat="50.068288" lon="11.4339512">
                <ele>307.0</ele>
                <time>2020-08-21T14:41:02.000Z</time>
                <name>Trackpoint 4425</name>
            </trkpt>
            <trkpt lat="50.0683776" lon="11.433812">
                <ele>307.0</ele>
                <time>2020-08-21T14:41:04.000Z</time>
                <name>Trackpoint 4426</name>
            </trkpt>
            <trkpt lat="50.0684288" lon="11.433728">
                <ele>307.0</ele>
                <time>2020-08-21T14:41:05.000Z</time>
                <name>Trackpoint 4427</name>
            </trkpt>
            <trkpt lat="50.068528" lon="11.4335936">
                <ele>307.0</ele>
                <time>2020-08-21T14:41:07.000Z</time>
                <name>Trackpoint 4428</name>
            </trkpt>
            <trkpt lat="50.0686368" lon="11.433468">
                <ele>307.0</ele>
                <time>2020-08-21T14:41:09.000Z</time>
                <name>Trackpoint 4429</name>
            </trkpt>
            <trkpt lat="50.0687424" lon="11.4333872">
                <ele>307.0</ele>
                <time>2020-08-21T14:41:11.000Z</time>
                <name>Trackpoint 4430</name>
            </trkpt>
            <trkpt lat="50.0688544" lon="11.4333448">
                <ele>307.0</ele>
                <time>2020-08-21T14:41:13.000Z</time>
                <name>Trackpoint 4431</name>
            </trkpt>
            <trkpt lat="50.0689824" lon="11.4332848">
                <ele>307.0</ele>
                <time>2020-08-21T14:41:15.000Z</time>
                <name>Trackpoint 4432</name>
            </trkpt>
            <trkpt lat="50.069104" lon="11.4331912">
                <ele>307.0</ele>
                <time>2020-08-21T14:41:17.000Z</time>
                <name>Trackpoint 4433</name>
            </trkpt>
            <trkpt lat="50.0691744" lon="11.4331312">
                <ele>307.0</ele>
                <time>2020-08-21T14:41:18.000Z</time>
                <name>Trackpoint 4434</name>
            </trkpt>
            <trkpt lat="50.0692832" lon="11.433052">
                <ele>307.0</ele>
                <time>2020-08-21T14:41:20.000Z</time>
                <name>Trackpoint 4435</name>
            </trkpt>
            <trkpt lat="50.069408" lon="11.4330152">
                <ele>307.0</ele>
                <time>2020-08-21T14:41:22.000Z</time>
                <name>Trackpoint 4436</name>
            </trkpt>
            <trkpt lat="50.0695328" lon="11.4329568">
                <ele>307.0</ele>
                <time>2020-08-21T14:41:24.000Z</time>
                <name>Trackpoint 4437</name>
            </trkpt>
            <trkpt lat="50.0696608" lon="11.4329048">
                <ele>306.0</ele>
                <time>2020-08-21T14:41:26.000Z</time>
                <name>Trackpoint 4438</name>
            </trkpt>
            <trkpt lat="50.0697888" lon="11.4328736">
                <ele>306.0</ele>
                <time>2020-08-21T14:41:28.000Z</time>
                <name>Trackpoint 4439</name>
            </trkpt>
            <trkpt lat="50.0699072" lon="11.4328432">
                <ele>306.0</ele>
                <time>2020-08-21T14:41:30.000Z</time>
                <name>Trackpoint 4440</name>
            </trkpt>
            <trkpt lat="50.0700192" lon="11.432808">
                <ele>306.0</ele>
                <time>2020-08-21T14:41:32.000Z</time>
                <name>Trackpoint 4441</name>
            </trkpt>
            <trkpt lat="50.0701408" lon="11.4328216">
                <ele>306.0</ele>
                <time>2020-08-21T14:41:34.000Z</time>
                <name>Trackpoint 4442</name>
            </trkpt>
            <trkpt lat="50.07024" lon="11.4329096">
                <ele>305.0</ele>
                <time>2020-08-21T14:41:36.000Z</time>
                <name>Trackpoint 4443</name>
            </trkpt>
            <trkpt lat="50.0703232" lon="11.4330304">
                <ele>304.0</ele>
                <time>2020-08-21T14:41:38.000Z</time>
                <name>Trackpoint 4444</name>
            </trkpt>
            <trkpt lat="50.0704" lon="11.4331512">
                <ele>304.0</ele>
                <time>2020-08-21T14:41:40.000Z</time>
                <name>Trackpoint 4445</name>
            </trkpt>
            <trkpt lat="50.0704832" lon="11.4332752">
                <ele>304.0</ele>
                <time>2020-08-21T14:41:42.000Z</time>
                <name>Trackpoint 4446</name>
            </trkpt>
            <trkpt lat="50.0705792" lon="11.4333848">
                <ele>303.0</ele>
                <time>2020-08-21T14:41:44.000Z</time>
                <name>Trackpoint 4447</name>
            </trkpt>
            <trkpt lat="50.0706816" lon="11.433492">
                <ele>302.0</ele>
                <time>2020-08-21T14:41:46.000Z</time>
                <name>Trackpoint 4448</name>
            </trkpt>
            <trkpt lat="50.0707904" lon="11.4335896">
                <ele>302.0</ele>
                <time>2020-08-21T14:41:48.000Z</time>
                <name>Trackpoint 4449</name>
            </trkpt>
            <trkpt lat="50.0708992" lon="11.4336752">
                <ele>302.0</ele>
                <time>2020-08-21T14:41:50.000Z</time>
                <name>Trackpoint 4450</name>
            </trkpt>
            <trkpt lat="50.0710304" lon="11.433748">
                <ele>301.0</ele>
                <time>2020-08-21T14:41:52.000Z</time>
                <name>Trackpoint 4451</name>
            </trkpt>
            <trkpt lat="50.0711552" lon="11.4338016">
                <ele>301.0</ele>
                <time>2020-08-21T14:41:54.000Z</time>
                <name>Trackpoint 4452</name>
            </trkpt>
            <trkpt lat="50.0712928" lon="11.4338352">
                <ele>301.0</ele>
                <time>2020-08-21T14:41:56.000Z</time>
                <name>Trackpoint 4453</name>
            </trkpt>
            <trkpt lat="50.0714304" lon="11.433848">
                <ele>301.0</ele>
                <time>2020-08-21T14:41:58.000Z</time>
                <name>Trackpoint 4454</name>
            </trkpt>
            <trkpt lat="50.0715712" lon="11.4338512">
                <ele>301.0</ele>
                <time>2020-08-21T14:42:00.000Z</time>
                <name>Trackpoint 4455</name>
            </trkpt>
            <trkpt lat="50.0717152" lon="11.4338352">
                <ele>301.0</ele>
                <time>2020-08-21T14:42:02.000Z</time>
                <name>Trackpoint 4456</name>
            </trkpt>
            <trkpt lat="50.0718528" lon="11.4338264">
                <ele>301.0</ele>
                <time>2020-08-21T14:42:04.000Z</time>
                <name>Trackpoint 4457</name>
            </trkpt>
            <trkpt lat="50.0719872" lon="11.4338264">
                <ele>302.0</ele>
                <time>2020-08-21T14:42:06.000Z</time>
                <name>Trackpoint 4458</name>
            </trkpt>
            <trkpt lat="50.072112" lon="11.4338312">
                <ele>303.0</ele>
                <time>2020-08-21T14:42:08.000Z</time>
                <name>Trackpoint 4459</name>
            </trkpt>
            <trkpt lat="50.07224" lon="11.4338352">
                <ele>303.0</ele>
                <time>2020-08-21T14:42:10.000Z</time>
                <name>Trackpoint 4460</name>
            </trkpt>
            <trkpt lat="50.0723616" lon="11.4338376">
                <ele>302.0</ele>
                <time>2020-08-21T14:42:12.000Z</time>
                <name>Trackpoint 4461</name>
            </trkpt>
            <trkpt lat="50.0724832" lon="11.4338376">
                <ele>302.0</ele>
                <time>2020-08-21T14:42:14.000Z</time>
                <name>Trackpoint 4462</name>
            </trkpt>
            <trkpt lat="50.0726112" lon="11.4338464">
                <ele>302.0</ele>
                <time>2020-08-21T14:42:16.000Z</time>
                <name>Trackpoint 4463</name>
            </trkpt>
            <trkpt lat="50.0727424" lon="11.4338616">
                <ele>303.0</ele>
                <time>2020-08-21T14:42:18.000Z</time>
                <name>Trackpoint 4464</name>
            </trkpt>
            <trkpt lat="50.0728768" lon="11.4338752">
                <ele>303.0</ele>
                <time>2020-08-21T14:42:20.000Z</time>
                <name>Trackpoint 4465</name>
            </trkpt>
            <trkpt lat="50.0730144" lon="11.4338864">
                <ele>303.0</ele>
                <time>2020-08-21T14:42:22.000Z</time>
                <name>Trackpoint 4466</name>
            </trkpt>
            <trkpt lat="50.073152" lon="11.4338888">
                <ele>303.0</ele>
                <time>2020-08-21T14:42:24.000Z</time>
                <name>Trackpoint 4467</name>
            </trkpt>
            <trkpt lat="50.0732832" lon="11.433884">
                <ele>302.0</ele>
                <time>2020-08-21T14:42:26.000Z</time>
                <name>Trackpoint 4468</name>
            </trkpt>
            <trkpt lat="50.0734112" lon="11.4338568">
                <ele>302.0</ele>
                <time>2020-08-21T14:42:28.000Z</time>
                <name>Trackpoint 4469</name>
            </trkpt>
            <trkpt lat="50.0735328" lon="11.433812">
                <ele>302.0</ele>
                <time>2020-08-21T14:42:30.000Z</time>
                <name>Trackpoint 4470</name>
            </trkpt>
            <trkpt lat="50.0736512" lon="11.4337528">
                <ele>302.0</ele>
                <time>2020-08-21T14:42:32.000Z</time>
                <name>Trackpoint 4471</name>
            </trkpt>
            <trkpt lat="50.0737664" lon="11.4336792">
                <ele>301.0</ele>
                <time>2020-08-21T14:42:34.000Z</time>
                <name>Trackpoint 4472</name>
            </trkpt>
            <trkpt lat="50.0738752" lon="11.433588">
                <ele>301.0</ele>
                <time>2020-08-21T14:42:36.000Z</time>
                <name>Trackpoint 4473</name>
            </trkpt>
            <trkpt lat="50.0739904" lon="11.4335">
                <ele>301.0</ele>
                <time>2020-08-21T14:42:38.000Z</time>
                <name>Trackpoint 4474</name>
            </trkpt>
            <trkpt lat="50.0740992" lon="11.4334024">
                <ele>301.0</ele>
                <time>2020-08-21T14:42:40.000Z</time>
                <name>Trackpoint 4475</name>
            </trkpt>
            <trkpt lat="50.0742112" lon="11.433296">
                <ele>300.0</ele>
                <time>2020-08-21T14:42:42.000Z</time>
                <name>Trackpoint 4476</name>
            </trkpt>
            <trkpt lat="50.0743232" lon="11.433184">
                <ele>300.0</ele>
                <time>2020-08-21T14:42:44.000Z</time>
                <name>Trackpoint 4477</name>
            </trkpt>
            <trkpt lat="50.0744224" lon="11.433052">
                <ele>300.0</ele>
                <time>2020-08-21T14:42:46.000Z</time>
                <name>Trackpoint 4478</name>
            </trkpt>
            <trkpt lat="50.0745152" lon="11.4329136">
                <ele>299.0</ele>
                <time>2020-08-21T14:42:48.000Z</time>
                <name>Trackpoint 4479</name>
            </trkpt>
            <trkpt lat="50.0745856" lon="11.4327632">
                <ele>299.0</ele>
                <time>2020-08-21T14:42:50.000Z</time>
                <name>Trackpoint 4480</name>
            </trkpt>
            <trkpt lat="50.0746528" lon="11.4326152">
                <ele>299.0</ele>
                <time>2020-08-21T14:42:52.000Z</time>
                <name>Trackpoint 4481</name>
            </trkpt>
            <trkpt lat="50.07472" lon="11.4324576">
                <ele>299.0</ele>
                <time>2020-08-21T14:42:54.000Z</time>
                <name>Trackpoint 4482</name>
            </trkpt>
            <trkpt lat="50.074784" lon="11.4323016">
                <ele>300.0</ele>
                <time>2020-08-21T14:42:56.000Z</time>
                <name>Trackpoint 4483</name>
            </trkpt>
            <trkpt lat="50.0748448" lon="11.4321584">
                <ele>300.0</ele>
                <time>2020-08-21T14:42:58.000Z</time>
                <name>Trackpoint 4484</name>
            </trkpt>
            <trkpt lat="50.074912" lon="11.432016">
                <ele>300.0</ele>
                <time>2020-08-21T14:43:00.000Z</time>
                <name>Trackpoint 4485</name>
            </trkpt>
            <trkpt lat="50.0749792" lon="11.4318704">
                <ele>301.0</ele>
                <time>2020-08-21T14:43:02.000Z</time>
                <name>Trackpoint 4486</name>
            </trkpt>
            <trkpt lat="50.0750336" lon="11.4317216">
                <ele>301.0</ele>
                <time>2020-08-21T14:43:04.000Z</time>
                <name>Trackpoint 4487</name>
            </trkpt>
            <trkpt lat="50.0751072" lon="11.4315864">
                <ele>301.0</ele>
                <time>2020-08-21T14:43:06.000Z</time>
                <name>Trackpoint 4488</name>
            </trkpt>
            <trkpt lat="50.0751904" lon="11.4314584">
                <ele>300.0</ele>
                <time>2020-08-21T14:43:08.000Z</time>
                <name>Trackpoint 4489</name>
            </trkpt>
            <trkpt lat="50.07528" lon="11.4313432">
                <ele>300.0</ele>
                <time>2020-08-21T14:43:10.000Z</time>
                <name>Trackpoint 4490</name>
            </trkpt>
            <trkpt lat="50.0753632" lon="11.4312248">
                <ele>299.0</ele>
                <time>2020-08-21T14:43:12.000Z</time>
                <name>Trackpoint 4491</name>
            </trkpt>
            <trkpt lat="50.0754592" lon="11.4311104">
                <ele>299.0</ele>
                <time>2020-08-21T14:43:14.000Z</time>
                <name>Trackpoint 4492</name>
            </trkpt>
            <trkpt lat="50.0755488" lon="11.430988">
                <ele>299.0</ele>
                <time>2020-08-21T14:43:16.000Z</time>
                <name>Trackpoint 4493</name>
            </trkpt>
            <trkpt lat="50.0756384" lon="11.4308592">
                <ele>299.0</ele>
                <time>2020-08-21T14:43:18.000Z</time>
                <name>Trackpoint 4494</name>
            </trkpt>
            <trkpt lat="50.0757216" lon="11.4307248">
                <ele>299.0</ele>
                <time>2020-08-21T14:43:20.000Z</time>
                <name>Trackpoint 4495</name>
            </trkpt>
            <trkpt lat="50.0757824" lon="11.4306432">
                <ele>299.0</ele>
                <time>2020-08-21T14:43:22.000Z</time>
                <name>Trackpoint 4496</name>
            </trkpt>
            <trkpt lat="50.0758144" lon="11.4305552">
                <ele>300.0</ele>
                <time>2020-08-21T14:44:18.000Z</time>
                <name>Trackpoint 4497</name>
            </trkpt>
            <trkpt lat="50.0758752" lon="11.430444">
                <ele>299.0</ele>
                <time>2020-08-21T14:44:21.000Z</time>
                <name>Trackpoint 4498</name>
            </trkpt>
            <trkpt lat="50.0759328" lon="11.4303728">
                <ele>299.0</ele>
                <time>2020-08-21T14:44:23.000Z</time>
                <name>Trackpoint 4499</name>
            </trkpt>
            <trkpt lat="50.075984" lon="11.43028">
                <ele>299.0</ele>
                <time>2020-08-21T14:44:25.000Z</time>
                <name>Trackpoint 4500</name>
            </trkpt>
            <trkpt lat="50.0760352" lon="11.4301728">
                <ele>299.0</ele>
                <time>2020-08-21T14:44:27.000Z</time>
                <name>Trackpoint 4501</name>
            </trkpt>
            <trkpt lat="50.0760768" lon="11.4300648">
                <ele>299.0</ele>
                <time>2020-08-21T14:44:29.000Z</time>
                <name>Trackpoint 4502</name>
            </trkpt>
            <trkpt lat="50.0761184" lon="11.4299488">
                <ele>298.0</ele>
                <time>2020-08-21T14:44:31.000Z</time>
                <name>Trackpoint 4503</name>
            </trkpt>
            <trkpt lat="50.0761632" lon="11.4298312">
                <ele>298.0</ele>
                <time>2020-08-21T14:44:33.000Z</time>
                <name>Trackpoint 4504</name>
            </trkpt>
            <trkpt lat="50.0762112" lon="11.4297168">
                <ele>298.0</ele>
                <time>2020-08-21T14:44:35.000Z</time>
                <name>Trackpoint 4505</name>
            </trkpt>
            <trkpt lat="50.076256" lon="11.4296">
                <ele>298.0</ele>
                <time>2020-08-21T14:44:37.000Z</time>
                <name>Trackpoint 4506</name>
            </trkpt>
            <trkpt lat="50.0763008" lon="11.4294864">
                <ele>298.0</ele>
                <time>2020-08-21T14:44:39.000Z</time>
                <name>Trackpoint 4507</name>
            </trkpt>
            <trkpt lat="50.0763488" lon="11.4293696">
                <ele>298.0</ele>
                <time>2020-08-21T14:44:41.000Z</time>
                <name>Trackpoint 4508</name>
            </trkpt>
            <trkpt lat="50.0763936" lon="11.4292488">
                <ele>298.0</ele>
                <time>2020-08-21T14:44:43.000Z</time>
                <name>Trackpoint 4509</name>
            </trkpt>
            <trkpt lat="50.076448" lon="11.4291288">
                <ele>298.0</ele>
                <time>2020-08-21T14:44:45.000Z</time>
                <name>Trackpoint 4510</name>
            </trkpt>
            <trkpt lat="50.0764992" lon="11.4290112">
                <ele>298.0</ele>
                <time>2020-08-21T14:44:47.000Z</time>
                <name>Trackpoint 4511</name>
            </trkpt>
            <trkpt lat="50.0765504" lon="11.4288952">
                <ele>297.0</ele>
                <time>2020-08-21T14:44:49.000Z</time>
                <name>Trackpoint 4512</name>
            </trkpt>
            <trkpt lat="50.0766112" lon="11.4287984">
                <ele>297.0</ele>
                <time>2020-08-21T14:44:51.000Z</time>
                <name>Trackpoint 4513</name>
            </trkpt>
            <trkpt lat="50.0766688" lon="11.4287072">
                <ele>298.0</ele>
                <time>2020-08-21T14:44:53.000Z</time>
                <name>Trackpoint 4514</name>
            </trkpt>
            <trkpt lat="50.07672" lon="11.4286136">
                <ele>298.0</ele>
                <time>2020-08-21T14:44:55.000Z</time>
                <name>Trackpoint 4515</name>
            </trkpt>
            <trkpt lat="50.0767712" lon="11.4285152">
                <ele>298.0</ele>
                <time>2020-08-21T14:44:57.000Z</time>
                <name>Trackpoint 4516</name>
            </trkpt>
            <trkpt lat="50.0768256" lon="11.4284336">
                <ele>298.0</ele>
                <time>2020-08-21T14:44:59.000Z</time>
                <name>Trackpoint 4517</name>
            </trkpt>
            <trkpt lat="50.0768768" lon="11.4283552">
                <ele>299.0</ele>
                <time>2020-08-21T14:45:01.000Z</time>
                <name>Trackpoint 4518</name>
            </trkpt>
            <trkpt lat="50.0769312" lon="11.4282712">
                <ele>298.0</ele>
                <time>2020-08-21T14:45:03.000Z</time>
                <name>Trackpoint 4519</name>
            </trkpt>
            <trkpt lat="50.0769888" lon="11.4281856">
                <ele>299.0</ele>
                <time>2020-08-21T14:45:05.000Z</time>
                <name>Trackpoint 4520</name>
            </trkpt>
            <trkpt lat="50.0770432" lon="11.4280984">
                <ele>299.0</ele>
                <time>2020-08-21T14:45:07.000Z</time>
                <name>Trackpoint 4521</name>
            </trkpt>
            <trkpt lat="50.077104" lon="11.4280144">
                <ele>299.0</ele>
                <time>2020-08-21T14:45:09.000Z</time>
                <name>Trackpoint 4522</name>
            </trkpt>
            <trkpt lat="50.0771584" lon="11.4279272">
                <ele>299.0</ele>
                <time>2020-08-21T14:45:11.000Z</time>
                <name>Trackpoint 4523</name>
            </trkpt>
            <trkpt lat="50.0772224" lon="11.4278384">
                <ele>299.0</ele>
                <time>2020-08-21T14:45:13.000Z</time>
                <name>Trackpoint 4524</name>
            </trkpt>
            <trkpt lat="50.0772832" lon="11.4277512">
                <ele>300.0</ele>
                <time>2020-08-21T14:45:15.000Z</time>
                <name>Trackpoint 4525</name>
            </trkpt>
            <trkpt lat="50.0773504" lon="11.4276712">
                <ele>300.0</ele>
                <time>2020-08-21T14:45:17.000Z</time>
                <name>Trackpoint 4526</name>
            </trkpt>
            <trkpt lat="50.0774208" lon="11.4275848">
                <ele>300.0</ele>
                <time>2020-08-21T14:45:19.000Z</time>
                <name>Trackpoint 4527</name>
            </trkpt>
            <trkpt lat="50.077488" lon="11.4274928">
                <ele>300.0</ele>
                <time>2020-08-21T14:45:21.000Z</time>
                <name>Trackpoint 4528</name>
            </trkpt>
            <trkpt lat="50.0775552" lon="11.4274032">
                <ele>300.0</ele>
                <time>2020-08-21T14:45:23.000Z</time>
                <name>Trackpoint 4529</name>
            </trkpt>
            <trkpt lat="50.0776224" lon="11.427312">
                <ele>300.0</ele>
                <time>2020-08-21T14:45:25.000Z</time>
                <name>Trackpoint 4530</name>
            </trkpt>
            <trkpt lat="50.0776896" lon="11.4272368">
                <ele>300.0</ele>
                <time>2020-08-21T14:45:27.000Z</time>
                <name>Trackpoint 4531</name>
            </trkpt>
            <trkpt lat="50.0777696" lon="11.4271544">
                <ele>301.0</ele>
                <time>2020-08-21T14:45:29.000Z</time>
                <name>Trackpoint 4532</name>
            </trkpt>
            <trkpt lat="50.0778528" lon="11.4270696">
                <ele>300.0</ele>
                <time>2020-08-21T14:45:31.000Z</time>
                <name>Trackpoint 4533</name>
            </trkpt>
            <trkpt lat="50.0779424" lon="11.4269832">
                <ele>300.0</ele>
                <time>2020-08-21T14:45:33.000Z</time>
                <name>Trackpoint 4534</name>
            </trkpt>
            <trkpt lat="50.078032" lon="11.4268968">
                <ele>300.0</ele>
                <time>2020-08-21T14:45:35.000Z</time>
                <name>Trackpoint 4535</name>
            </trkpt>
            <trkpt lat="50.078128" lon="11.4268168">
                <ele>300.0</ele>
                <time>2020-08-21T14:45:37.000Z</time>
                <name>Trackpoint 4536</name>
            </trkpt>
            <trkpt lat="50.0782304" lon="11.4267368">
                <ele>300.0</ele>
                <time>2020-08-21T14:45:39.000Z</time>
                <name>Trackpoint 4537</name>
            </trkpt>
            <trkpt lat="50.0783424" lon="11.4266616">
                <ele>300.0</ele>
                <time>2020-08-21T14:45:41.000Z</time>
                <name>Trackpoint 4538</name>
            </trkpt>
            <trkpt lat="50.0784576" lon="11.4265936">
                <ele>299.0</ele>
                <time>2020-08-21T14:45:43.000Z</time>
                <name>Trackpoint 4539</name>
            </trkpt>
            <trkpt lat="50.078576" lon="11.426532">
                <ele>299.0</ele>
                <time>2020-08-21T14:45:45.000Z</time>
                <name>Trackpoint 4540</name>
            </trkpt>
            <trkpt lat="50.0786976" lon="11.4264696">
                <ele>299.0</ele>
                <time>2020-08-21T14:45:47.000Z</time>
                <name>Trackpoint 4541</name>
            </trkpt>
            <trkpt lat="50.078816" lon="11.426416">
                <ele>299.0</ele>
                <time>2020-08-21T14:45:49.000Z</time>
                <name>Trackpoint 4542</name>
            </trkpt>
            <trkpt lat="50.0789344" lon="11.4263712">
                <ele>299.0</ele>
                <time>2020-08-21T14:45:51.000Z</time>
                <name>Trackpoint 4543</name>
            </trkpt>
            <trkpt lat="50.0790496" lon="11.4263248">
                <ele>299.0</ele>
                <time>2020-08-21T14:45:53.000Z</time>
                <name>Trackpoint 4544</name>
            </trkpt>
            <trkpt lat="50.0791616" lon="11.4262688">
                <ele>299.0</ele>
                <time>2020-08-21T14:45:55.000Z</time>
                <name>Trackpoint 4545</name>
            </trkpt>
            <trkpt lat="50.0792704" lon="11.4262064">
                <ele>298.0</ele>
                <time>2020-08-21T14:45:57.000Z</time>
                <name>Trackpoint 4546</name>
            </trkpt>
            <trkpt lat="50.0793728" lon="11.42614">
                <ele>298.0</ele>
                <time>2020-08-21T14:45:59.000Z</time>
                <name>Trackpoint 4547</name>
            </trkpt>
            <trkpt lat="50.0794752" lon="11.4260832">
                <ele>298.0</ele>
                <time>2020-08-21T14:46:01.000Z</time>
                <name>Trackpoint 4548</name>
            </trkpt>
            <trkpt lat="50.0795744" lon="11.4260184">
                <ele>298.0</ele>
                <time>2020-08-21T14:46:03.000Z</time>
                <name>Trackpoint 4549</name>
            </trkpt>
            <trkpt lat="50.0796704" lon="11.4259552">
                <ele>298.0</ele>
                <time>2020-08-21T14:46:05.000Z</time>
                <name>Trackpoint 4550</name>
            </trkpt>
            <trkpt lat="50.07976" lon="11.4258808">
                <ele>298.0</ele>
                <time>2020-08-21T14:46:07.000Z</time>
                <name>Trackpoint 4551</name>
            </trkpt>
            <trkpt lat="50.0798496" lon="11.4258016">
                <ele>298.0</ele>
                <time>2020-08-21T14:46:09.000Z</time>
                <name>Trackpoint 4552</name>
            </trkpt>
            <trkpt lat="50.0799328" lon="11.4257248">
                <ele>298.0</ele>
                <time>2020-08-21T14:46:11.000Z</time>
                <name>Trackpoint 4553</name>
            </trkpt>
            <trkpt lat="50.0800256" lon="11.4256496">
                <ele>297.0</ele>
                <time>2020-08-21T14:46:13.000Z</time>
                <name>Trackpoint 4554</name>
            </trkpt>
            <trkpt lat="50.0801056" lon="11.4255688">
                <ele>297.0</ele>
                <time>2020-08-21T14:46:15.000Z</time>
                <name>Trackpoint 4555</name>
            </trkpt>
            <trkpt lat="50.0801856" lon="11.4254776">
                <ele>297.0</ele>
                <time>2020-08-21T14:46:17.000Z</time>
                <name>Trackpoint 4556</name>
            </trkpt>
            <trkpt lat="50.0802688" lon="11.4253864">
                <ele>297.0</ele>
                <time>2020-08-21T14:46:19.000Z</time>
                <name>Trackpoint 4557</name>
            </trkpt>
            <trkpt lat="50.0803488" lon="11.425292">
                <ele>297.0</ele>
                <time>2020-08-21T14:46:21.000Z</time>
                <name>Trackpoint 4558</name>
            </trkpt>
            <trkpt lat="50.0804352" lon="11.4251936">
                <ele>297.0</ele>
                <time>2020-08-21T14:46:23.000Z</time>
                <name>Trackpoint 4559</name>
            </trkpt>
            <trkpt lat="50.0805216" lon="11.4250936">
                <ele>297.0</ele>
                <time>2020-08-21T14:46:25.000Z</time>
                <name>Trackpoint 4560</name>
            </trkpt>
            <trkpt lat="50.0806016" lon="11.4249888">
                <ele>296.0</ele>
                <time>2020-08-21T14:46:27.000Z</time>
                <name>Trackpoint 4561</name>
            </trkpt>
            <trkpt lat="50.080672" lon="11.4248752">
                <ele>296.0</ele>
                <time>2020-08-21T14:46:29.000Z</time>
                <name>Trackpoint 4562</name>
            </trkpt>
            <trkpt lat="50.080752" lon="11.4247616">
                <ele>296.0</ele>
                <time>2020-08-21T14:46:31.000Z</time>
                <name>Trackpoint 4563</name>
            </trkpt>
            <trkpt lat="50.080832" lon="11.4246416">
                <ele>296.0</ele>
                <time>2020-08-21T14:46:33.000Z</time>
                <name>Trackpoint 4564</name>
            </trkpt>
            <trkpt lat="50.0809088" lon="11.4245184">
                <ele>295.0</ele>
                <time>2020-08-21T14:46:35.000Z</time>
                <name>Trackpoint 4565</name>
            </trkpt>
            <trkpt lat="50.0809792" lon="11.4243936">
                <ele>295.0</ele>
                <time>2020-08-21T14:46:37.000Z</time>
                <name>Trackpoint 4566</name>
            </trkpt>
            <trkpt lat="50.0810432" lon="11.4242672">
                <ele>295.0</ele>
                <time>2020-08-21T14:46:39.000Z</time>
                <name>Trackpoint 4567</name>
            </trkpt>
            <trkpt lat="50.081104" lon="11.4241384">
                <ele>295.0</ele>
                <time>2020-08-21T14:46:41.000Z</time>
                <name>Trackpoint 4568</name>
            </trkpt>
            <trkpt lat="50.0811616" lon="11.4240104">
                <ele>295.0</ele>
                <time>2020-08-21T14:46:43.000Z</time>
                <name>Trackpoint 4569</name>
            </trkpt>
            <trkpt lat="50.0812096" lon="11.423888">
                <ele>295.0</ele>
                <time>2020-08-21T14:46:45.000Z</time>
                <name>Trackpoint 4570</name>
            </trkpt>
            <trkpt lat="50.0812608" lon="11.4237696">
                <ele>295.0</ele>
                <time>2020-08-21T14:46:47.000Z</time>
                <name>Trackpoint 4571</name>
            </trkpt>
            <trkpt lat="50.0813056" lon="11.4236584">
                <ele>295.0</ele>
                <time>2020-08-21T14:46:49.000Z</time>
                <name>Trackpoint 4572</name>
            </trkpt>
            <trkpt lat="50.0813472" lon="11.4235488">
                <ele>295.0</ele>
                <time>2020-08-21T14:46:51.000Z</time>
                <name>Trackpoint 4573</name>
            </trkpt>
            <trkpt lat="50.0813856" lon="11.42344">
                <ele>296.0</ele>
                <time>2020-08-21T14:46:53.000Z</time>
                <name>Trackpoint 4574</name>
            </trkpt>
            <trkpt lat="50.0814272" lon="11.4233376">
                <ele>296.0</ele>
                <time>2020-08-21T14:46:55.000Z</time>
                <name>Trackpoint 4575</name>
            </trkpt>
            <trkpt lat="50.0814752" lon="11.423248">
                <ele>296.0</ele>
                <time>2020-08-21T14:46:57.000Z</time>
                <name>Trackpoint 4576</name>
            </trkpt>
            <trkpt lat="50.0815168" lon="11.4231592">
                <ele>297.0</ele>
                <time>2020-08-21T14:46:59.000Z</time>
                <name>Trackpoint 4577</name>
            </trkpt>
            <trkpt lat="50.0815616" lon="11.423072">
                <ele>297.0</ele>
                <time>2020-08-21T14:47:01.000Z</time>
                <name>Trackpoint 4578</name>
            </trkpt>
            <trkpt lat="50.0816064" lon="11.42298">
                <ele>297.0</ele>
                <time>2020-08-21T14:47:03.000Z</time>
                <name>Trackpoint 4579</name>
            </trkpt>
            <trkpt lat="50.0816576" lon="11.4228896">
                <ele>297.0</ele>
                <time>2020-08-21T14:47:05.000Z</time>
                <name>Trackpoint 4580</name>
            </trkpt>
            <trkpt lat="50.0817056" lon="11.4228048">
                <ele>297.0</ele>
                <time>2020-08-21T14:47:07.000Z</time>
                <name>Trackpoint 4581</name>
            </trkpt>
            <trkpt lat="50.0817568" lon="11.42272">
                <ele>298.0</ele>
                <time>2020-08-21T14:47:09.000Z</time>
                <name>Trackpoint 4582</name>
            </trkpt>
            <trkpt lat="50.0818144" lon="11.4226376">
                <ele>297.0</ele>
                <time>2020-08-21T14:47:11.000Z</time>
                <name>Trackpoint 4583</name>
            </trkpt>
            <trkpt lat="50.0818688" lon="11.422552">
                <ele>297.0</ele>
                <time>2020-08-21T14:47:13.000Z</time>
                <name>Trackpoint 4584</name>
            </trkpt>
            <trkpt lat="50.0819232" lon="11.4224632">
                <ele>298.0</ele>
                <time>2020-08-21T14:47:15.000Z</time>
                <name>Trackpoint 4585</name>
            </trkpt>
            <trkpt lat="50.0819808" lon="11.4223816">
                <ele>298.0</ele>
                <time>2020-08-21T14:47:17.000Z</time>
                <name>Trackpoint 4586</name>
            </trkpt>
            <trkpt lat="50.0820416" lon="11.4222944">
                <ele>298.0</ele>
                <time>2020-08-21T14:47:19.000Z</time>
                <name>Trackpoint 4587</name>
            </trkpt>
            <trkpt lat="50.0820992" lon="11.4222096">
                <ele>298.0</ele>
                <time>2020-08-21T14:47:21.000Z</time>
                <name>Trackpoint 4588</name>
            </trkpt>
            <trkpt lat="50.0821536" lon="11.4221224">
                <ele>298.0</ele>
                <time>2020-08-21T14:47:23.000Z</time>
                <name>Trackpoint 4589</name>
            </trkpt>
            <trkpt lat="50.0822112" lon="11.4220352">
                <ele>298.0</ele>
                <time>2020-08-21T14:47:25.000Z</time>
                <name>Trackpoint 4590</name>
            </trkpt>
            <trkpt lat="50.0822688" lon="11.4219568">
                <ele>298.0</ele>
                <time>2020-08-21T14:47:27.000Z</time>
                <name>Trackpoint 4591</name>
            </trkpt>
            <trkpt lat="50.0823264" lon="11.4218768">
                <ele>298.0</ele>
                <time>2020-08-21T14:47:29.000Z</time>
                <name>Trackpoint 4592</name>
            </trkpt>
            <trkpt lat="50.0823872" lon="11.4217984">
                <ele>298.0</ele>
                <time>2020-08-21T14:47:31.000Z</time>
                <name>Trackpoint 4593</name>
            </trkpt>
            <trkpt lat="50.0824448" lon="11.4217168">
                <ele>299.0</ele>
                <time>2020-08-21T14:47:33.000Z</time>
                <name>Trackpoint 4594</name>
            </trkpt>
            <trkpt lat="50.082496" lon="11.4216272">
                <ele>299.0</ele>
                <time>2020-08-21T14:47:35.000Z</time>
                <name>Trackpoint 4595</name>
            </trkpt>
            <trkpt lat="50.0825536" lon="11.42154">
                <ele>298.0</ele>
                <time>2020-08-21T14:47:37.000Z</time>
                <name>Trackpoint 4596</name>
            </trkpt>
            <trkpt lat="50.0826176" lon="11.4214512">
                <ele>298.0</ele>
                <time>2020-08-21T14:47:39.000Z</time>
                <name>Trackpoint 4597</name>
            </trkpt>
            <trkpt lat="50.0826752" lon="11.4213584">
                <ele>298.0</ele>
                <time>2020-08-21T14:47:41.000Z</time>
                <name>Trackpoint 4598</name>
            </trkpt>
            <trkpt lat="50.082736" lon="11.42126">
                <ele>298.0</ele>
                <time>2020-08-21T14:47:43.000Z</time>
                <name>Trackpoint 4599</name>
            </trkpt>
            <trkpt lat="50.0827968" lon="11.4211528">
                <ele>298.0</ele>
                <time>2020-08-21T14:47:45.000Z</time>
                <name>Trackpoint 4600</name>
            </trkpt>
            <trkpt lat="50.0828576" lon="11.4210368">
                <ele>298.0</ele>
                <time>2020-08-21T14:47:47.000Z</time>
                <name>Trackpoint 4601</name>
            </trkpt>
            <trkpt lat="50.0829152" lon="11.4209144">
                <ele>298.0</ele>
                <time>2020-08-21T14:47:49.000Z</time>
                <name>Trackpoint 4602</name>
            </trkpt>
            <trkpt lat="50.0829728" lon="11.4207832">
                <ele>297.0</ele>
                <time>2020-08-21T14:47:51.000Z</time>
                <name>Trackpoint 4603</name>
            </trkpt>
            <trkpt lat="50.0830272" lon="11.420644">
                <ele>297.0</ele>
                <time>2020-08-21T14:47:53.000Z</time>
                <name>Trackpoint 4604</name>
            </trkpt>
            <trkpt lat="50.0830752" lon="11.4205048">
                <ele>297.0</ele>
                <time>2020-08-21T14:47:55.000Z</time>
                <name>Trackpoint 4605</name>
            </trkpt>
            <trkpt lat="50.0831264" lon="11.4203616">
                <ele>297.0</ele>
                <time>2020-08-21T14:47:57.000Z</time>
                <name>Trackpoint 4606</name>
            </trkpt>
            <trkpt lat="50.0831712" lon="11.4202136">
                <ele>296.0</ele>
                <time>2020-08-21T14:47:59.000Z</time>
                <name>Trackpoint 4607</name>
            </trkpt>
            <trkpt lat="50.0832096" lon="11.42006">
                <ele>296.0</ele>
                <time>2020-08-21T14:48:01.000Z</time>
                <name>Trackpoint 4608</name>
            </trkpt>
            <trkpt lat="50.0832544" lon="11.419904">
                <ele>296.0</ele>
                <time>2020-08-21T14:48:03.000Z</time>
                <name>Trackpoint 4609</name>
            </trkpt>
            <trkpt lat="50.0833024" lon="11.41974">
                <ele>296.0</ele>
                <time>2020-08-21T14:48:05.000Z</time>
                <name>Trackpoint 4610</name>
            </trkpt>
            <trkpt lat="50.083344" lon="11.4195744">
                <ele>296.0</ele>
                <time>2020-08-21T14:48:07.000Z</time>
                <name>Trackpoint 4611</name>
            </trkpt>
            <trkpt lat="50.0833888" lon="11.419412">
                <ele>296.0</ele>
                <time>2020-08-21T14:48:09.000Z</time>
                <name>Trackpoint 4612</name>
            </trkpt>
            <trkpt lat="50.0834336" lon="11.4192496">
                <ele>296.0</ele>
                <time>2020-08-21T14:48:11.000Z</time>
                <name>Trackpoint 4613</name>
            </trkpt>
            <trkpt lat="50.0834816" lon="11.4190904">
                <ele>296.0</ele>
                <time>2020-08-21T14:48:13.000Z</time>
                <name>Trackpoint 4614</name>
            </trkpt>
            <trkpt lat="50.0835264" lon="11.4189352">
                <ele>296.0</ele>
                <time>2020-08-21T14:48:15.000Z</time>
                <name>Trackpoint 4615</name>
            </trkpt>
            <trkpt lat="50.0835712" lon="11.4187816">
                <ele>296.0</ele>
                <time>2020-08-21T14:48:17.000Z</time>
                <name>Trackpoint 4616</name>
            </trkpt>
            <trkpt lat="50.0836224" lon="11.4186296">
                <ele>295.0</ele>
                <time>2020-08-21T14:48:19.000Z</time>
                <name>Trackpoint 4617</name>
            </trkpt>
            <trkpt lat="50.0836768" lon="11.4184816">
                <ele>295.0</ele>
                <time>2020-08-21T14:48:21.000Z</time>
                <name>Trackpoint 4618</name>
            </trkpt>
            <trkpt lat="50.0837312" lon="11.418332">
                <ele>295.0</ele>
                <time>2020-08-21T14:48:23.000Z</time>
                <name>Trackpoint 4619</name>
            </trkpt>
            <trkpt lat="50.0837888" lon="11.4181784">
                <ele>295.0</ele>
                <time>2020-08-21T14:48:25.000Z</time>
                <name>Trackpoint 4620</name>
            </trkpt>
            <trkpt lat="50.083856" lon="11.4180272">
                <ele>295.0</ele>
                <time>2020-08-21T14:48:27.000Z</time>
                <name>Trackpoint 4621</name>
            </trkpt>
            <trkpt lat="50.0839232" lon="11.4178816">
                <ele>295.0</ele>
                <time>2020-08-21T14:48:29.000Z</time>
                <name>Trackpoint 4622</name>
            </trkpt>
            <trkpt lat="50.0839872" lon="11.417744">
                <ele>295.0</ele>
                <time>2020-08-21T14:48:31.000Z</time>
                <name>Trackpoint 4623</name>
            </trkpt>
            <trkpt lat="50.0840608" lon="11.4176184">
                <ele>295.0</ele>
                <time>2020-08-21T14:48:33.000Z</time>
                <name>Trackpoint 4624</name>
            </trkpt>
            <trkpt lat="50.084128" lon="11.4175064">
                <ele>295.0</ele>
                <time>2020-08-21T14:48:35.000Z</time>
                <name>Trackpoint 4625</name>
            </trkpt>
            <trkpt lat="50.0841984" lon="11.4174032">
                <ele>295.0</ele>
                <time>2020-08-21T14:48:37.000Z</time>
                <name>Trackpoint 4626</name>
            </trkpt>
            <trkpt lat="50.0842656" lon="11.4173072">
                <ele>295.0</ele>
                <time>2020-08-21T14:48:39.000Z</time>
                <name>Trackpoint 4627</name>
            </trkpt>
            <trkpt lat="50.0843328" lon="11.4172248">
                <ele>295.0</ele>
                <time>2020-08-21T14:48:41.000Z</time>
                <name>Trackpoint 4628</name>
            </trkpt>
            <trkpt lat="50.0843936" lon="11.4171432">
                <ele>296.0</ele>
                <time>2020-08-21T14:48:43.000Z</time>
                <name>Trackpoint 4629</name>
            </trkpt>
            <trkpt lat="50.0844512" lon="11.4170704">
                <ele>296.0</ele>
                <time>2020-08-21T14:48:45.000Z</time>
                <name>Trackpoint 4630</name>
            </trkpt>
            <trkpt lat="50.084512" lon="11.4169976">
                <ele>297.0</ele>
                <time>2020-08-21T14:48:47.000Z</time>
                <name>Trackpoint 4631</name>
            </trkpt>
            <trkpt lat="50.0845984" lon="11.4168928">
                <ele>296.0</ele>
                <time>2020-08-21T14:48:50.000Z</time>
                <name>Trackpoint 4632</name>
            </trkpt>
            <trkpt lat="50.0846592" lon="11.4168256">
                <ele>297.0</ele>
                <time>2020-08-21T14:48:52.000Z</time>
                <name>Trackpoint 4633</name>
            </trkpt>
            <trkpt lat="50.08472" lon="11.4167544">
                <ele>296.0</ele>
                <time>2020-08-21T14:48:54.000Z</time>
                <name>Trackpoint 4634</name>
            </trkpt>
            <trkpt lat="50.084816" lon="11.4166632">
                <ele>297.0</ele>
                <time>2020-08-21T14:48:57.000Z</time>
                <name>Trackpoint 4635</name>
            </trkpt>
            <trkpt lat="50.0849152" lon="11.4165696">
                <ele>298.0</ele>
                <time>2020-08-21T14:49:00.000Z</time>
                <name>Trackpoint 4636</name>
            </trkpt>
            <trkpt lat="50.0850112" lon="11.4164912">
                <ele>298.0</ele>
                <time>2020-08-21T14:49:03.000Z</time>
                <name>Trackpoint 4637</name>
            </trkpt>
            <trkpt lat="50.0851104" lon="11.4164168">
                <ele>298.0</ele>
                <time>2020-08-21T14:49:06.000Z</time>
                <name>Trackpoint 4638</name>
            </trkpt>
            <trkpt lat="50.0852" lon="11.4163704">
                <ele>298.0</ele>
                <time>2020-08-21T14:49:09.000Z</time>
                <name>Trackpoint 4639</name>
            </trkpt>
            <trkpt lat="50.0852896" lon="11.4163264">
                <ele>298.0</ele>
                <time>2020-08-21T14:49:13.000Z</time>
                <name>Trackpoint 4640</name>
            </trkpt>
            <trkpt lat="50.085376" lon="11.4162664">
                <ele>298.0</ele>
                <time>2020-08-21T14:49:17.000Z</time>
                <name>Trackpoint 4641</name>
            </trkpt>
            <trkpt lat="50.0854048" lon="11.41618">
                <ele>298.0</ele>
                <time>2020-08-21T14:49:19.000Z</time>
                <name>Trackpoint 4642</name>
            </trkpt>
            <trkpt lat="50.0854144" lon="11.4160768">
                <ele>298.0</ele>
                <time>2020-08-21T14:49:21.000Z</time>
                <name>Trackpoint 4643</name>
            </trkpt>
            <trkpt lat="50.0854464" lon="11.415968">
                <ele>298.0</ele>
                <time>2020-08-21T14:49:23.000Z</time>
                <name>Trackpoint 4644</name>
            </trkpt>
            <trkpt lat="50.0854976" lon="11.4158784">
                <ele>298.0</ele>
                <time>2020-08-21T14:49:25.000Z</time>
                <name>Trackpoint 4645</name>
            </trkpt>
            <trkpt lat="50.085568" lon="11.41582">
                <ele>298.0</ele>
                <time>2020-08-21T14:49:27.000Z</time>
                <name>Trackpoint 4646</name>
            </trkpt>
            <trkpt lat="50.0856576" lon="11.4157216">
                <ele>298.0</ele>
                <time>2020-08-21T14:49:30.000Z</time>
                <name>Trackpoint 4647</name>
            </trkpt>
            <trkpt lat="50.085696" lon="11.4156304">
                <ele>299.0</ele>
                <time>2020-08-21T14:49:32.000Z</time>
                <name>Trackpoint 4648</name>
            </trkpt>
            <trkpt lat="50.085712" lon="11.4155232">
                <ele>299.0</ele>
                <time>2020-08-21T14:49:34.000Z</time>
                <name>Trackpoint 4649</name>
            </trkpt>
            <trkpt lat="50.0857088" lon="11.4154216">
                <ele>300.0</ele>
                <time>2020-08-21T14:49:36.000Z</time>
                <name>Trackpoint 4650</name>
            </trkpt>
            <trkpt lat="50.0856896" lon="11.4153272">
                <ele>300.0</ele>
                <time>2020-08-21T14:49:38.000Z</time>
                <name>Trackpoint 4651</name>
            </trkpt>
            <trkpt lat="50.0857024" lon="11.4152216">
                <ele>299.0</ele>
                <time>2020-08-21T14:49:40.000Z</time>
                <name>Trackpoint 4652</name>
            </trkpt>
            <trkpt lat="50.0857856" lon="11.4151352">
                <ele>299.0</ele>
                <time>2020-08-21T14:49:43.000Z</time>
                <name>Trackpoint 4653</name>
            </trkpt>
            <trkpt lat="50.085888" lon="11.415076">
                <ele>300.0</ele>
                <time>2020-08-21T14:49:46.000Z</time>
                <name>Trackpoint 4654</name>
            </trkpt>
            <trkpt lat="50.0859808" lon="11.415004">
                <ele>300.0</ele>
                <time>2020-08-21T14:49:49.000Z</time>
                <name>Trackpoint 4655</name>
            </trkpt>
            <trkpt lat="50.0860832" lon="11.4149648">
                <ele>299.0</ele>
                <time>2020-08-21T14:49:52.000Z</time>
                <name>Trackpoint 4656</name>
            </trkpt>
            <trkpt lat="50.08616" lon="11.4150152">
                <ele>300.0</ele>
                <time>2020-08-21T14:49:55.000Z</time>
                <name>Trackpoint 4657</name>
            </trkpt>
            <trkpt lat="50.0862016" lon="11.4151424">
                <ele>300.0</ele>
                <time>2020-08-21T14:49:58.000Z</time>
                <name>Trackpoint 4658</name>
            </trkpt>
            <trkpt lat="50.0862272" lon="11.4152448">
                <ele>302.0</ele>
                <time>2020-08-21T14:50:00.000Z</time>
                <name>Trackpoint 4659</name>
            </trkpt>
            <trkpt lat="50.0862496" lon="11.4153416">
                <ele>303.0</ele>
                <time>2020-08-21T14:50:02.000Z</time>
                <name>Trackpoint 4660</name>
            </trkpt>
            <trkpt lat="50.0862848" lon="11.4154368">
                <ele>303.0</ele>
                <time>2020-08-21T14:50:04.000Z</time>
                <name>Trackpoint 4661</name>
            </trkpt>
            <trkpt lat="50.0863232" lon="11.4155432">
                <ele>303.0</ele>
                <time>2020-08-21T14:50:06.000Z</time>
                <name>Trackpoint 4662</name>
            </trkpt>
            <trkpt lat="50.086368" lon="11.4156536">
                <ele>303.0</ele>
                <time>2020-08-21T14:50:08.000Z</time>
                <name>Trackpoint 4663</name>
            </trkpt>
            <trkpt lat="50.0864192" lon="11.4157696">
                <ele>302.0</ele>
                <time>2020-08-21T14:50:10.000Z</time>
                <name>Trackpoint 4664</name>
            </trkpt>
            <trkpt lat="50.0864768" lon="11.4158936">
                <ele>302.0</ele>
                <time>2020-08-21T14:50:12.000Z</time>
                <name>Trackpoint 4665</name>
            </trkpt>
            <trkpt lat="50.0865472" lon="11.4160016">
                <ele>302.0</ele>
                <time>2020-08-21T14:50:14.000Z</time>
                <name>Trackpoint 4666</name>
            </trkpt>
            <trkpt lat="50.0866368" lon="11.4160616">
                <ele>302.0</ele>
                <time>2020-08-21T14:50:16.000Z</time>
                <name>Trackpoint 4667</name>
            </trkpt>
            <trkpt lat="50.0867584" lon="11.4161016">
                <ele>303.0</ele>
                <time>2020-08-21T14:50:19.000Z</time>
                <name>Trackpoint 4668</name>
            </trkpt>
            <trkpt lat="50.086848" lon="11.416128">
                <ele>304.0</ele>
                <time>2020-08-21T14:50:22.000Z</time>
                <name>Trackpoint 4669</name>
            </trkpt>
            <trkpt lat="50.0869376" lon="11.4161368">
                <ele>305.0</ele>
                <time>2020-08-21T14:50:25.000Z</time>
                <name>Trackpoint 4670</name>
            </trkpt>
            <trkpt lat="50.0870272" lon="11.4161504">
                <ele>306.0</ele>
                <time>2020-08-21T14:50:28.000Z</time>
                <name>Trackpoint 4671</name>
            </trkpt>
            <trkpt lat="50.0871168" lon="11.4161768">
                <ele>307.0</ele>
                <time>2020-08-21T14:50:31.000Z</time>
                <name>Trackpoint 4672</name>
            </trkpt>
            <trkpt lat="50.0872032" lon="11.416212">
                <ele>307.0</ele>
                <time>2020-08-21T14:50:34.000Z</time>
                <name>Trackpoint 4673</name>
            </trkpt>
            <trkpt lat="50.0873184" lon="11.41624">
                <ele>308.0</ele>
                <time>2020-08-21T14:50:38.000Z</time>
                <name>Trackpoint 4674</name>
            </trkpt>
            <trkpt lat="50.0874336" lon="11.416232">
                <ele>308.0</ele>
                <time>2020-08-21T14:50:42.000Z</time>
                <name>Trackpoint 4675</name>
            </trkpt>
            <trkpt lat="50.0875424" lon="11.4161864">
                <ele>308.0</ele>
                <time>2020-08-21T14:50:46.000Z</time>
                <name>Trackpoint 4676</name>
            </trkpt>
            <trkpt lat="50.0876288" lon="11.416132">
                <ele>309.0</ele>
                <time>2020-08-21T14:50:49.000Z</time>
                <name>Trackpoint 4677</name>
            </trkpt>
            <trkpt lat="50.087712" lon="11.4160736">
                <ele>309.0</ele>
                <time>2020-08-21T14:50:52.000Z</time>
                <name>Trackpoint 4678</name>
            </trkpt>
            <trkpt lat="50.0878016" lon="11.4160184">
                <ele>310.0</ele>
                <time>2020-08-21T14:50:55.000Z</time>
                <name>Trackpoint 4679</name>
            </trkpt>
            <trkpt lat="50.0879072" lon="11.41598">
                <ele>310.0</ele>
                <time>2020-08-21T14:50:58.000Z</time>
                <name>Trackpoint 4680</name>
            </trkpt>
            <trkpt lat="50.088" lon="11.415952">
                <ele>310.0</ele>
                <time>2020-08-21T14:51:01.000Z</time>
                <name>Trackpoint 4681</name>
            </trkpt>
            <trkpt lat="50.0881056" lon="11.4159296">
                <ele>310.0</ele>
                <time>2020-08-21T14:51:04.000Z</time>
                <name>Trackpoint 4682</name>
            </trkpt>
            <trkpt lat="50.0882112" lon="11.4159216">
                <ele>310.0</ele>
                <time>2020-08-21T14:51:08.000Z</time>
                <name>Trackpoint 4683</name>
            </trkpt>
            <trkpt lat="50.0883232" lon="11.4158872">
                <ele>311.0</ele>
                <time>2020-08-21T14:51:12.000Z</time>
                <name>Trackpoint 4684</name>
            </trkpt>
            <trkpt lat="50.0884224" lon="11.4158688">
                <ele>313.0</ele>
                <time>2020-08-21T14:51:34.000Z</time>
                <name>Trackpoint 4685</name>
            </trkpt>
            <trkpt lat="50.0885216" lon="11.4158624">
                <ele>313.0</ele>
                <time>2020-08-21T14:51:38.000Z</time>
                <name>Trackpoint 4686</name>
            </trkpt>
            <trkpt lat="50.088608" lon="11.4158352">
                <ele>313.0</ele>
                <time>2020-08-21T14:51:42.000Z</time>
                <name>Trackpoint 4687</name>
            </trkpt>
            <trkpt lat="50.0886944" lon="11.4157896">
                <ele>312.0</ele>
                <time>2020-08-21T14:51:51.000Z</time>
                <name>Trackpoint 4688</name>
            </trkpt>
            <trkpt lat="50.0887296" lon="11.4157752">
                <ele>314.0</ele>
                <time>2020-08-21T15:07:56.000Z</time>
                <name>Trackpoint 4689</name>
            </trkpt>
            <trkpt lat="50.0888224" lon="11.4158032">
                <ele>314.0</ele>
                <time>2020-08-21T15:08:14.000Z</time>
                <name>Trackpoint 4690</name>
            </trkpt>
            <trkpt lat="50.08888" lon="11.4157288">
                <ele>314.0</ele>
                <time>2020-08-21T15:08:38.000Z</time>
                <name>Trackpoint 4691</name>
            </trkpt>
            <trkpt lat="50.0888896" lon="11.4156336">
                <ele>314.0</ele>
                <time>2020-08-21T15:08:41.000Z</time>
                <name>Trackpoint 4692</name>
            </trkpt>
            <trkpt lat="50.08888" lon="11.4155384">
                <ele>314.0</ele>
                <time>2020-08-21T15:08:44.000Z</time>
                <name>Trackpoint 4693</name>
            </trkpt>
            <trkpt lat="50.0888736" lon="11.4154064">
                <ele>314.0</ele>
                <time>2020-08-21T15:08:47.000Z</time>
                <name>Trackpoint 4694</name>
            </trkpt>
            <trkpt lat="50.0888736" lon="11.4153096">
                <ele>314.0</ele>
                <time>2020-08-21T15:08:49.000Z</time>
                <name>Trackpoint 4695</name>
            </trkpt>
            <trkpt lat="50.0888672" lon="11.4152048">
                <ele>314.0</ele>
                <time>2020-08-21T15:08:51.000Z</time>
                <name>Trackpoint 4696</name>
            </trkpt>
            <trkpt lat="50.088848" lon="11.415096">
                <ele>314.0</ele>
                <time>2020-08-21T15:08:53.000Z</time>
                <name>Trackpoint 4697</name>
            </trkpt>
            <trkpt lat="50.0888352" lon="11.414984">
                <ele>314.0</ele>
                <time>2020-08-21T15:08:55.000Z</time>
                <name>Trackpoint 4698</name>
            </trkpt>
            <trkpt lat="50.0888224" lon="11.4148712">
                <ele>314.0</ele>
                <time>2020-08-21T15:08:57.000Z</time>
                <name>Trackpoint 4699</name>
            </trkpt>
            <trkpt lat="50.0888096" lon="11.414752">
                <ele>314.0</ele>
                <time>2020-08-21T15:08:59.000Z</time>
                <name>Trackpoint 4700</name>
            </trkpt>
            <trkpt lat="50.0888" lon="11.4146384">
                <ele>314.0</ele>
                <time>2020-08-21T15:09:01.000Z</time>
                <name>Trackpoint 4701</name>
            </trkpt>
            <trkpt lat="50.088784" lon="11.4145296">
                <ele>313.0</ele>
                <time>2020-08-21T15:09:03.000Z</time>
                <name>Trackpoint 4702</name>
            </trkpt>
            <trkpt lat="50.0887744" lon="11.4144288">
                <ele>313.0</ele>
                <time>2020-08-21T15:09:05.000Z</time>
                <name>Trackpoint 4703</name>
            </trkpt>
            <trkpt lat="50.0887712" lon="11.4143296">
                <ele>314.0</ele>
                <time>2020-08-21T15:09:07.000Z</time>
                <name>Trackpoint 4704</name>
            </trkpt>
            <trkpt lat="50.088768" lon="11.4142368">
                <ele>314.0</ele>
                <time>2020-08-21T15:09:09.000Z</time>
                <name>Trackpoint 4705</name>
            </trkpt>
            <trkpt lat="50.088768" lon="11.414132">
                <ele>314.0</ele>
                <time>2020-08-21T15:09:11.000Z</time>
                <name>Trackpoint 4706</name>
            </trkpt>
            <trkpt lat="50.088784" lon="11.414012">
                <ele>314.0</ele>
                <time>2020-08-21T15:09:13.000Z</time>
                <name>Trackpoint 4707</name>
            </trkpt>
            <trkpt lat="50.0888" lon="11.413888">
                <ele>314.0</ele>
                <time>2020-08-21T15:09:15.000Z</time>
                <name>Trackpoint 4708</name>
            </trkpt>
            <trkpt lat="50.0888128" lon="11.4137624">
                <ele>314.0</ele>
                <time>2020-08-21T15:09:17.000Z</time>
                <name>Trackpoint 4709</name>
            </trkpt>
            <trkpt lat="50.0888352" lon="11.4136296">
                <ele>314.0</ele>
                <time>2020-08-21T15:09:19.000Z</time>
                <name>Trackpoint 4710</name>
            </trkpt>
            <trkpt lat="50.0888736" lon="11.4134952">
                <ele>313.0</ele>
                <time>2020-08-21T15:09:21.000Z</time>
                <name>Trackpoint 4711</name>
            </trkpt>
            <trkpt lat="50.0889152" lon="11.4133664">
                <ele>313.0</ele>
                <time>2020-08-21T15:09:23.000Z</time>
                <name>Trackpoint 4712</name>
            </trkpt>
            <trkpt lat="50.0889632" lon="11.4132432">
                <ele>313.0</ele>
                <time>2020-08-21T15:09:25.000Z</time>
                <name>Trackpoint 4713</name>
            </trkpt>
            <trkpt lat="50.0890112" lon="11.4131296">
                <ele>313.0</ele>
                <time>2020-08-21T15:09:27.000Z</time>
                <name>Trackpoint 4714</name>
            </trkpt>
            <trkpt lat="50.0890624" lon="11.4130224">
                <ele>312.0</ele>
                <time>2020-08-21T15:09:29.000Z</time>
                <name>Trackpoint 4715</name>
            </trkpt>
            <trkpt lat="50.0891136" lon="11.4129264">
                <ele>312.0</ele>
                <time>2020-08-21T15:09:31.000Z</time>
                <name>Trackpoint 4716</name>
            </trkpt>
            <trkpt lat="50.089168" lon="11.412844">
                <ele>312.0</ele>
                <time>2020-08-21T15:09:33.000Z</time>
                <name>Trackpoint 4717</name>
            </trkpt>
            <trkpt lat="50.0892448" lon="11.4127456">
                <ele>312.0</ele>
                <time>2020-08-21T15:09:36.000Z</time>
                <name>Trackpoint 4718</name>
            </trkpt>
            <trkpt lat="50.089296" lon="11.4126632">
                <ele>313.0</ele>
                <time>2020-08-21T15:09:40.000Z</time>
                <name>Trackpoint 4719</name>
            </trkpt>
            <trkpt lat="50.0893472" lon="11.412588">
                <ele>312.0</ele>
                <time>2020-08-21T15:09:44.000Z</time>
                <name>Trackpoint 4720</name>
            </trkpt>
            <trkpt lat="50.0893088" lon="11.4124984">
                <ele>313.0</ele>
                <time>2020-08-21T15:09:49.000Z</time>
                <name>Trackpoint 4721</name>
            </trkpt>
            <trkpt lat="50.089232" lon="11.4123944">
                <ele>313.0</ele>
                <time>2020-08-21T15:09:53.000Z</time>
                <name>Trackpoint 4722</name>
            </trkpt>
            <trkpt lat="50.0891776" lon="11.412316">
                <ele>313.0</ele>
                <time>2020-08-21T15:09:55.000Z</time>
                <name>Trackpoint 4723</name>
            </trkpt>
            <trkpt lat="50.0891136" lon="11.4122248">
                <ele>313.0</ele>
                <time>2020-08-21T15:09:57.000Z</time>
                <name>Trackpoint 4724</name>
            </trkpt>
            <trkpt lat="50.0890528" lon="11.4121376">
                <ele>313.0</ele>
                <time>2020-08-21T15:09:59.000Z</time>
                <name>Trackpoint 4725</name>
            </trkpt>
            <trkpt lat="50.0889888" lon="11.4120552">
                <ele>313.0</ele>
                <time>2020-08-21T15:10:01.000Z</time>
                <name>Trackpoint 4726</name>
            </trkpt>
            <trkpt lat="50.0889216" lon="11.411948">
                <ele>313.0</ele>
                <time>2020-08-21T15:10:03.000Z</time>
                <name>Trackpoint 4727</name>
            </trkpt>
            <trkpt lat="50.0888512" lon="11.4118432">
                <ele>313.0</ele>
                <time>2020-08-21T15:10:05.000Z</time>
                <name>Trackpoint 4728</name>
            </trkpt>
            <trkpt lat="50.088784" lon="11.411728">
                <ele>313.0</ele>
                <time>2020-08-21T15:10:07.000Z</time>
                <name>Trackpoint 4729</name>
            </trkpt>
            <trkpt lat="50.0887104" lon="11.4116096">
                <ele>313.0</ele>
                <time>2020-08-21T15:10:09.000Z</time>
                <name>Trackpoint 4730</name>
            </trkpt>
            <trkpt lat="50.0886528" lon="11.4115048">
                <ele>313.0</ele>
                <time>2020-08-21T15:10:11.000Z</time>
                <name>Trackpoint 4731</name>
            </trkpt>
            <trkpt lat="50.0885952" lon="11.4114128">
                <ele>313.0</ele>
                <time>2020-08-21T15:10:13.000Z</time>
                <name>Trackpoint 4732</name>
            </trkpt>
            <trkpt lat="50.0885312" lon="11.4113184">
                <ele>313.0</ele>
                <time>2020-08-21T15:10:15.000Z</time>
                <name>Trackpoint 4733</name>
            </trkpt>
            <trkpt lat="50.0884736" lon="11.4112104">
                <ele>313.0</ele>
                <time>2020-08-21T15:10:17.000Z</time>
                <name>Trackpoint 4734</name>
            </trkpt>
            <trkpt lat="50.0884224" lon="11.4110944">
                <ele>313.0</ele>
                <time>2020-08-21T15:10:19.000Z</time>
                <name>Trackpoint 4735</name>
            </trkpt>
            <trkpt lat="50.0883712" lon="11.4109784">
                <ele>313.0</ele>
                <time>2020-08-21T15:10:21.000Z</time>
                <name>Trackpoint 4736</name>
            </trkpt>
            <trkpt lat="50.0883264" lon="11.41088">
                <ele>313.0</ele>
                <time>2020-08-21T15:10:23.000Z</time>
                <name>Trackpoint 4737</name>
            </trkpt>
            <trkpt lat="50.0882688" lon="11.4107736">
                <ele>313.0</ele>
                <time>2020-08-21T15:10:25.000Z</time>
                <name>Trackpoint 4738</name>
            </trkpt>
            <trkpt lat="50.0882048" lon="11.4106512">
                <ele>313.0</ele>
                <time>2020-08-21T15:10:27.000Z</time>
                <name>Trackpoint 4739</name>
            </trkpt>
            <trkpt lat="50.0881344" lon="11.4105368">
                <ele>313.0</ele>
                <time>2020-08-21T15:10:29.000Z</time>
                <name>Trackpoint 4740</name>
            </trkpt>
            <trkpt lat="50.0880672" lon="11.4104144">
                <ele>312.0</ele>
                <time>2020-08-21T15:10:31.000Z</time>
                <name>Trackpoint 4741</name>
            </trkpt>
            <trkpt lat="50.088016" lon="11.4102968">
                <ele>312.0</ele>
                <time>2020-08-21T15:10:33.000Z</time>
                <name>Trackpoint 4742</name>
            </trkpt>
            <trkpt lat="50.0879552" lon="11.4101816">
                <ele>312.0</ele>
                <time>2020-08-21T15:10:35.000Z</time>
                <name>Trackpoint 4743</name>
            </trkpt>
            <trkpt lat="50.0878944" lon="11.4100688">
                <ele>312.0</ele>
                <time>2020-08-21T15:10:37.000Z</time>
                <name>Trackpoint 4744</name>
            </trkpt>
            <trkpt lat="50.0878112" lon="11.4099664">
                <ele>312.0</ele>
                <time>2020-08-21T15:10:39.000Z</time>
                <name>Trackpoint 4745</name>
            </trkpt>
            <trkpt lat="50.0877408" lon="11.409852">
                <ele>313.0</ele>
                <time>2020-08-21T15:10:41.000Z</time>
                <name>Trackpoint 4746</name>
            </trkpt>
            <trkpt lat="50.0876896" lon="11.4097336">
                <ele>312.0</ele>
                <time>2020-08-21T15:10:43.000Z</time>
                <name>Trackpoint 4747</name>
            </trkpt>
            <trkpt lat="50.0876288" lon="11.4096184">
                <ele>312.0</ele>
                <time>2020-08-21T15:10:45.000Z</time>
                <name>Trackpoint 4748</name>
            </trkpt>
            <trkpt lat="50.0875648" lon="11.4095024">
                <ele>312.0</ele>
                <time>2020-08-21T15:10:47.000Z</time>
                <name>Trackpoint 4749</name>
            </trkpt>
            <trkpt lat="50.0875136" lon="11.4094088">
                <ele>312.0</ele>
                <time>2020-08-21T15:10:49.000Z</time>
                <name>Trackpoint 4750</name>
            </trkpt>
            <trkpt lat="50.0874368" lon="11.4093104">
                <ele>312.0</ele>
                <time>2020-08-21T15:10:52.000Z</time>
                <name>Trackpoint 4751</name>
            </trkpt>
            <trkpt lat="50.0873952" lon="11.4092168">
                <ele>312.0</ele>
                <time>2020-08-21T15:10:54.000Z</time>
                <name>Trackpoint 4752</name>
            </trkpt>
            <trkpt lat="50.0873856" lon="11.4090968">
                <ele>311.0</ele>
                <time>2020-08-21T15:10:56.000Z</time>
                <name>Trackpoint 4753</name>
            </trkpt>
            <trkpt lat="50.0873792" lon="11.4089816">
                <ele>311.0</ele>
                <time>2020-08-21T15:10:58.000Z</time>
                <name>Trackpoint 4754</name>
            </trkpt>
            <trkpt lat="50.087344" lon="11.408888">
                <ele>311.0</ele>
                <time>2020-08-21T15:11:00.000Z</time>
                <name>Trackpoint 4755</name>
            </trkpt>
            <trkpt lat="50.0872512" lon="11.40886">
                <ele>311.0</ele>
                <time>2020-08-21T15:11:03.000Z</time>
                <name>Trackpoint 4756</name>
            </trkpt>
            <trkpt lat="50.0871136" lon="11.4088552">
                <ele>311.0</ele>
                <time>2020-08-21T15:11:06.000Z</time>
                <name>Trackpoint 4757</name>
            </trkpt>
            <trkpt lat="50.0869856" lon="11.4088048">
                <ele>311.0</ele>
                <time>2020-08-21T15:11:08.000Z</time>
                <name>Trackpoint 4758</name>
            </trkpt>
            <trkpt lat="50.0868544" lon="11.4087136">
                <ele>310.0</ele>
                <time>2020-08-21T15:11:10.000Z</time>
                <name>Trackpoint 4759</name>
            </trkpt>
            <trkpt lat="50.0867168" lon="11.4086104">
                <ele>309.0</ele>
                <time>2020-08-21T15:11:12.000Z</time>
                <name>Trackpoint 4760</name>
            </trkpt>
            <trkpt lat="50.0866432" lon="11.4085552">
                <ele>309.0</ele>
                <time>2020-08-21T15:11:13.000Z</time>
                <name>Trackpoint 4761</name>
            </trkpt>
            <trkpt lat="50.0865696" lon="11.4084968">
                <ele>309.0</ele>
                <time>2020-08-21T15:11:14.000Z</time>
                <name>Trackpoint 4762</name>
            </trkpt>
            <trkpt lat="50.0864992" lon="11.408432">
                <ele>309.0</ele>
                <time>2020-08-21T15:11:15.000Z</time>
                <name>Trackpoint 4763</name>
            </trkpt>
            <trkpt lat="50.0864288" lon="11.4083592">
                <ele>309.0</ele>
                <time>2020-08-21T15:11:16.000Z</time>
                <name>Trackpoint 4764</name>
            </trkpt>
            <trkpt lat="50.0863616" lon="11.4082872">
                <ele>309.0</ele>
                <time>2020-08-21T15:11:17.000Z</time>
                <name>Trackpoint 4765</name>
            </trkpt>
            <trkpt lat="50.0862912" lon="11.4082168">
                <ele>309.0</ele>
                <time>2020-08-21T15:11:18.000Z</time>
                <name>Trackpoint 4766</name>
            </trkpt>
            <trkpt lat="50.086224" lon="11.40814">
                <ele>309.0</ele>
                <time>2020-08-21T15:11:19.000Z</time>
                <name>Trackpoint 4767</name>
            </trkpt>
            <trkpt lat="50.08616" lon="11.4080584">
                <ele>308.0</ele>
                <time>2020-08-21T15:11:20.000Z</time>
                <name>Trackpoint 4768</name>
            </trkpt>
            <trkpt lat="50.0860928" lon="11.40798">
                <ele>308.0</ele>
                <time>2020-08-21T15:11:21.000Z</time>
                <name>Trackpoint 4769</name>
            </trkpt>
            <trkpt lat="50.0860352" lon="11.4079064">
                <ele>308.0</ele>
                <time>2020-08-21T15:11:22.000Z</time>
                <name>Trackpoint 4770</name>
            </trkpt>
            <trkpt lat="50.0859744" lon="11.4078368">
                <ele>308.0</ele>
                <time>2020-08-21T15:11:23.000Z</time>
                <name>Trackpoint 4771</name>
            </trkpt>
            <trkpt lat="50.085872" lon="11.4077168">
                <ele>308.0</ele>
                <time>2020-08-21T15:11:25.000Z</time>
                <name>Trackpoint 4772</name>
            </trkpt>
            <trkpt lat="50.085792" lon="11.4076008">
                <ele>308.0</ele>
                <time>2020-08-21T15:11:27.000Z</time>
                <name>Trackpoint 4773</name>
            </trkpt>
            <trkpt lat="50.0857568" lon="11.4074696">
                <ele>308.0</ele>
                <time>2020-08-21T15:11:29.000Z</time>
                <name>Trackpoint 4774</name>
            </trkpt>
            <trkpt lat="50.0857504" lon="11.4073664">
                <ele>307.0</ele>
                <time>2020-08-21T15:11:31.000Z</time>
                <name>Trackpoint 4775</name>
            </trkpt>
            <trkpt lat="50.0857056" lon="11.4072864">
                <ele>307.0</ele>
                <time>2020-08-21T15:11:33.000Z</time>
                <name>Trackpoint 4776</name>
            </trkpt>
            <trkpt lat="50.0856384" lon="11.407204">
                <ele>307.0</ele>
                <time>2020-08-21T15:11:35.000Z</time>
                <name>Trackpoint 4777</name>
            </trkpt>
            <trkpt lat="50.0855744" lon="11.4071016">
                <ele>307.0</ele>
                <time>2020-08-21T15:11:37.000Z</time>
                <name>Trackpoint 4778</name>
            </trkpt>
            <trkpt lat="50.0855552" lon="11.4069616">
                <ele>306.0</ele>
                <time>2020-08-21T15:11:39.000Z</time>
                <name>Trackpoint 4779</name>
            </trkpt>
            <trkpt lat="50.0855584" lon="11.406808">
                <ele>306.0</ele>
                <time>2020-08-21T15:11:41.000Z</time>
                <name>Trackpoint 4780</name>
            </trkpt>
            <trkpt lat="50.0855648" lon="11.4066512">
                <ele>306.0</ele>
                <time>2020-08-21T15:11:43.000Z</time>
                <name>Trackpoint 4781</name>
            </trkpt>
            <trkpt lat="50.0855552" lon="11.4064952">
                <ele>305.0</ele>
                <time>2020-08-21T15:11:45.000Z</time>
                <name>Trackpoint 4782</name>
            </trkpt>
            <trkpt lat="50.0855488" lon="11.4063464">
                <ele>305.0</ele>
                <time>2020-08-21T15:11:47.000Z</time>
                <name>Trackpoint 4783</name>
            </trkpt>
            <trkpt lat="50.0855328" lon="11.406208">
                <ele>305.0</ele>
                <time>2020-08-21T15:11:49.000Z</time>
                <name>Trackpoint 4784</name>
            </trkpt>
            <trkpt lat="50.0855232" lon="11.4060936">
                <ele>305.0</ele>
                <time>2020-08-21T15:11:51.000Z</time>
                <name>Trackpoint 4785</name>
            </trkpt>
            <trkpt lat="50.0855136" lon="11.40598">
                <ele>304.0</ele>
                <time>2020-08-21T15:11:54.000Z</time>
                <name>Trackpoint 4786</name>
            </trkpt>
            <trkpt lat="50.0855232" lon="11.4058864">
                <ele>303.0</ele>
                <time>2020-08-21T15:12:37.000Z</time>
                <name>Trackpoint 4787</name>
            </trkpt>
            <trkpt lat="50.0855232" lon="11.4057928">
                <ele>303.0</ele>
                <time>2020-08-21T15:12:40.000Z</time>
                <name>Trackpoint 4788</name>
            </trkpt>
            <trkpt lat="50.0855136" lon="11.4056568">
                <ele>303.0</ele>
                <time>2020-08-21T15:12:43.000Z</time>
                <name>Trackpoint 4789</name>
            </trkpt>
            <trkpt lat="50.085504" lon="11.4055456">
                <ele>303.0</ele>
                <time>2020-08-21T15:12:45.000Z</time>
                <name>Trackpoint 4790</name>
            </trkpt>
            <trkpt lat="50.0854944" lon="11.4054072">
                <ele>303.0</ele>
                <time>2020-08-21T15:12:47.000Z</time>
                <name>Trackpoint 4791</name>
            </trkpt>
            <trkpt lat="50.0854656" lon="11.4052584">
                <ele>303.0</ele>
                <time>2020-08-21T15:12:49.000Z</time>
                <name>Trackpoint 4792</name>
            </trkpt>
            <trkpt lat="50.0854368" lon="11.405104">
                <ele>303.0</ele>
                <time>2020-08-21T15:12:51.000Z</time>
                <name>Trackpoint 4793</name>
            </trkpt>
            <trkpt lat="50.0853952" lon="11.4049552">
                <ele>303.0</ele>
                <time>2020-08-21T15:12:53.000Z</time>
                <name>Trackpoint 4794</name>
            </trkpt>
            <trkpt lat="50.085376" lon="11.4048664">
                <ele>303.0</ele>
                <time>2020-08-21T15:12:54.000Z</time>
                <name>Trackpoint 4795</name>
            </trkpt>
            <trkpt lat="50.0853344" lon="11.4047136">
                <ele>303.0</ele>
                <time>2020-08-21T15:12:56.000Z</time>
                <name>Trackpoint 4796</name>
            </trkpt>
            <trkpt lat="50.0852928" lon="11.4045688">
                <ele>303.0</ele>
                <time>2020-08-21T15:12:58.000Z</time>
                <name>Trackpoint 4797</name>
            </trkpt>
            <trkpt lat="50.0852448" lon="11.4044288">
                <ele>303.0</ele>
                <time>2020-08-21T15:13:00.000Z</time>
                <name>Trackpoint 4798</name>
            </trkpt>
            <trkpt lat="50.0851776" lon="11.4042552">
                <ele>303.0</ele>
                <time>2020-08-21T15:13:02.000Z</time>
                <name>Trackpoint 4799</name>
            </trkpt>
            <trkpt lat="50.0851072" lon="11.404108">
                <ele>303.0</ele>
                <time>2020-08-21T15:13:04.000Z</time>
                <name>Trackpoint 4800</name>
            </trkpt>
            <trkpt lat="50.0850464" lon="11.4039816">
                <ele>303.0</ele>
                <time>2020-08-21T15:13:06.000Z</time>
                <name>Trackpoint 4801</name>
            </trkpt>
            <trkpt lat="50.08496" lon="11.403856">
                <ele>303.0</ele>
                <time>2020-08-21T15:13:08.000Z</time>
                <name>Trackpoint 4802</name>
            </trkpt>
            <trkpt lat="50.0848768" lon="11.403724">
                <ele>303.0</ele>
                <time>2020-08-21T15:13:10.000Z</time>
                <name>Trackpoint 4803</name>
            </trkpt>
            <trkpt lat="50.0848032" lon="11.4035952">
                <ele>303.0</ele>
                <time>2020-08-21T15:13:12.000Z</time>
                <name>Trackpoint 4804</name>
            </trkpt>
            <trkpt lat="50.0847392" lon="11.403492">
                <ele>303.0</ele>
                <time>2020-08-21T15:13:14.000Z</time>
                <name>Trackpoint 4805</name>
            </trkpt>
            <trkpt lat="50.0846688" lon="11.4033936">
                <ele>303.0</ele>
                <time>2020-08-21T15:13:16.000Z</time>
                <name>Trackpoint 4806</name>
            </trkpt>
            <trkpt lat="50.0845952" lon="11.4032968">
                <ele>303.0</ele>
                <time>2020-08-21T15:13:18.000Z</time>
                <name>Trackpoint 4807</name>
            </trkpt>
            <trkpt lat="50.0845184" lon="11.4032112">
                <ele>303.0</ele>
                <time>2020-08-21T15:13:20.000Z</time>
                <name>Trackpoint 4808</name>
            </trkpt>
            <trkpt lat="50.0844384" lon="11.4031096">
                <ele>303.0</ele>
                <time>2020-08-21T15:13:22.000Z</time>
                <name>Trackpoint 4809</name>
            </trkpt>
            <trkpt lat="50.0843616" lon="11.4030048">
                <ele>303.0</ele>
                <time>2020-08-21T15:13:24.000Z</time>
                <name>Trackpoint 4810</name>
            </trkpt>
            <trkpt lat="50.0842976" lon="11.4029216">
                <ele>303.0</ele>
                <time>2020-08-21T15:13:26.000Z</time>
                <name>Trackpoint 4811</name>
            </trkpt>
            <trkpt lat="50.0842208" lon="11.4028232">
                <ele>303.0</ele>
                <time>2020-08-21T15:13:28.000Z</time>
                <name>Trackpoint 4812</name>
            </trkpt>
            <trkpt lat="50.084144" lon="11.4027256">
                <ele>303.0</ele>
                <time>2020-08-21T15:13:30.000Z</time>
                <name>Trackpoint 4813</name>
            </trkpt>
            <trkpt lat="50.0840672" lon="11.4026272">
                <ele>302.0</ele>
                <time>2020-08-21T15:13:32.000Z</time>
                <name>Trackpoint 4814</name>
            </trkpt>
            <trkpt lat="50.084" lon="11.4025232">
                <ele>302.0</ele>
                <time>2020-08-21T15:13:34.000Z</time>
                <name>Trackpoint 4815</name>
            </trkpt>
            <trkpt lat="50.0839232" lon="11.4024288">
                <ele>302.0</ele>
                <time>2020-08-21T15:13:36.000Z</time>
                <name>Trackpoint 4816</name>
            </trkpt>
            <trkpt lat="50.0838464" lon="11.40234">
                <ele>302.0</ele>
                <time>2020-08-21T15:13:38.000Z</time>
                <name>Trackpoint 4817</name>
            </trkpt>
            <trkpt lat="50.083776" lon="11.4022464">
                <ele>302.0</ele>
                <time>2020-08-21T15:13:40.000Z</time>
                <name>Trackpoint 4818</name>
            </trkpt>
            <trkpt lat="50.083696" lon="11.4021568">
                <ele>302.0</ele>
                <time>2020-08-21T15:13:42.000Z</time>
                <name>Trackpoint 4819</name>
            </trkpt>
            <trkpt lat="50.0836128" lon="11.4020632">
                <ele>302.0</ele>
                <time>2020-08-21T15:13:44.000Z</time>
                <name>Trackpoint 4820</name>
            </trkpt>
            <trkpt lat="50.0835488" lon="11.4019632">
                <ele>302.0</ele>
                <time>2020-08-21T15:13:46.000Z</time>
                <name>Trackpoint 4821</name>
            </trkpt>
            <trkpt lat="50.0834848" lon="11.4018736">
                <ele>302.0</ele>
                <time>2020-08-21T15:13:48.000Z</time>
                <name>Trackpoint 4822</name>
            </trkpt>
            <trkpt lat="50.083408" lon="11.4017848">
                <ele>302.0</ele>
                <time>2020-08-21T15:13:50.000Z</time>
                <name>Trackpoint 4823</name>
            </trkpt>
            <trkpt lat="50.0833184" lon="11.4016736">
                <ele>302.0</ele>
                <time>2020-08-21T15:13:52.000Z</time>
                <name>Trackpoint 4824</name>
            </trkpt>
            <trkpt lat="50.0832448" lon="11.4015768">
                <ele>302.0</ele>
                <time>2020-08-21T15:13:54.000Z</time>
                <name>Trackpoint 4825</name>
            </trkpt>
            <trkpt lat="50.0831744" lon="11.4014904">
                <ele>302.0</ele>
                <time>2020-08-21T15:13:56.000Z</time>
                <name>Trackpoint 4826</name>
            </trkpt>
            <trkpt lat="50.0831072" lon="11.4014016">
                <ele>302.0</ele>
                <time>2020-08-21T15:13:58.000Z</time>
                <name>Trackpoint 4827</name>
            </trkpt>
            <trkpt lat="50.0830336" lon="11.4013216">
                <ele>302.0</ele>
                <time>2020-08-21T15:14:00.000Z</time>
                <name>Trackpoint 4828</name>
            </trkpt>
            <trkpt lat="50.0829536" lon="11.4012168">
                <ele>302.0</ele>
                <time>2020-08-21T15:14:02.000Z</time>
                <name>Trackpoint 4829</name>
            </trkpt>
            <trkpt lat="50.0829088" lon="11.401132">
                <ele>301.0</ele>
                <time>2020-08-21T15:14:03.000Z</time>
                <name>Trackpoint 4830</name>
            </trkpt>
            <trkpt lat="50.0828384" lon="11.4010312">
                <ele>301.0</ele>
                <time>2020-08-21T15:14:05.000Z</time>
                <name>Trackpoint 4831</name>
            </trkpt>
            <trkpt lat="50.0827584" lon="11.4009352">
                <ele>301.0</ele>
                <time>2020-08-21T15:14:07.000Z</time>
                <name>Trackpoint 4832</name>
            </trkpt>
            <trkpt lat="50.082688" lon="11.4008376">
                <ele>301.0</ele>
                <time>2020-08-21T15:14:09.000Z</time>
                <name>Trackpoint 4833</name>
            </trkpt>
            <trkpt lat="50.0826272" lon="11.4007416">
                <ele>301.0</ele>
                <time>2020-08-21T15:14:11.000Z</time>
                <name>Trackpoint 4834</name>
            </trkpt>
            <trkpt lat="50.0825536" lon="11.4006584">
                <ele>301.0</ele>
                <time>2020-08-21T15:14:13.000Z</time>
                <name>Trackpoint 4835</name>
            </trkpt>
            <trkpt lat="50.0824864" lon="11.4005808">
                <ele>301.0</ele>
                <time>2020-08-21T15:14:15.000Z</time>
                <name>Trackpoint 4836</name>
            </trkpt>
            <trkpt lat="50.082416" lon="11.4004936">
                <ele>301.0</ele>
                <time>2020-08-21T15:14:18.000Z</time>
                <name>Trackpoint 4837</name>
            </trkpt>
            <trkpt lat="50.0823456" lon="11.4004184">
                <ele>301.0</ele>
                <time>2020-08-21T15:14:31.000Z</time>
                <name>Trackpoint 4838</name>
            </trkpt>
            <trkpt lat="50.0822752" lon="11.4003232">
                <ele>301.0</ele>
                <time>2020-08-21T15:14:34.000Z</time>
                <name>Trackpoint 4839</name>
            </trkpt>
            <trkpt lat="50.0822112" lon="11.4002416">
                <ele>301.0</ele>
                <time>2020-08-21T15:14:37.000Z</time>
                <name>Trackpoint 4840</name>
            </trkpt>
            <trkpt lat="50.0821632" lon="11.4001352">
                <ele>301.0</ele>
                <time>2020-08-21T15:14:42.000Z</time>
                <name>Trackpoint 4841</name>
            </trkpt>
            <trkpt lat="50.0821536" lon="11.3999984">
                <ele>301.0</ele>
                <time>2020-08-21T15:14:45.000Z</time>
                <name>Trackpoint 4842</name>
            </trkpt>
            <trkpt lat="50.0821408" lon="11.3998896">
                <ele>301.0</ele>
                <time>2020-08-21T15:14:47.000Z</time>
                <name>Trackpoint 4843</name>
            </trkpt>
            <trkpt lat="50.0821344" lon="11.3997744">
                <ele>301.0</ele>
                <time>2020-08-21T15:14:49.000Z</time>
                <name>Trackpoint 4844</name>
            </trkpt>
            <trkpt lat="50.0821344" lon="11.3996536">
                <ele>301.0</ele>
                <time>2020-08-21T15:14:51.000Z</time>
                <name>Trackpoint 4845</name>
            </trkpt>
            <trkpt lat="50.0821344" lon="11.3995264">
                <ele>301.0</ele>
                <time>2020-08-21T15:14:53.000Z</time>
                <name>Trackpoint 4846</name>
            </trkpt>
            <trkpt lat="50.0821472" lon="11.3994016">
                <ele>301.0</ele>
                <time>2020-08-21T15:14:55.000Z</time>
                <name>Trackpoint 4847</name>
            </trkpt>
            <trkpt lat="50.0821632" lon="11.3992832">
                <ele>301.0</ele>
                <time>2020-08-21T15:14:57.000Z</time>
                <name>Trackpoint 4848</name>
            </trkpt>
            <trkpt lat="50.0821792" lon="11.3991536">
                <ele>301.0</ele>
                <time>2020-08-21T15:14:59.000Z</time>
                <name>Trackpoint 4849</name>
            </trkpt>
            <trkpt lat="50.082192" lon="11.3990224">
                <ele>301.0</ele>
                <time>2020-08-21T15:15:01.000Z</time>
                <name>Trackpoint 4850</name>
            </trkpt>
            <trkpt lat="50.082208" lon="11.3988888">
                <ele>301.0</ele>
                <time>2020-08-21T15:15:03.000Z</time>
                <name>Trackpoint 4851</name>
            </trkpt>
            <trkpt lat="50.0822176" lon="11.3987576">
                <ele>301.0</ele>
                <time>2020-08-21T15:15:05.000Z</time>
                <name>Trackpoint 4852</name>
            </trkpt>
            <trkpt lat="50.0822336" lon="11.3986264">
                <ele>301.0</ele>
                <time>2020-08-21T15:15:07.000Z</time>
                <name>Trackpoint 4853</name>
            </trkpt>
            <trkpt lat="50.0822592" lon="11.3984896">
                <ele>301.0</ele>
                <time>2020-08-21T15:15:09.000Z</time>
                <name>Trackpoint 4854</name>
            </trkpt>
            <trkpt lat="50.0822976" lon="11.3983496">
                <ele>301.0</ele>
                <time>2020-08-21T15:15:11.000Z</time>
                <name>Trackpoint 4855</name>
            </trkpt>
            <trkpt lat="50.0823584" lon="11.3982112">
                <ele>301.0</ele>
                <time>2020-08-21T15:15:13.000Z</time>
                <name>Trackpoint 4856</name>
            </trkpt>
            <trkpt lat="50.0824384" lon="11.3980848">
                <ele>301.0</ele>
                <time>2020-08-21T15:15:15.000Z</time>
                <name>Trackpoint 4857</name>
            </trkpt>
            <trkpt lat="50.0825248" lon="11.39796">
                <ele>301.0</ele>
                <time>2020-08-21T15:15:17.000Z</time>
                <name>Trackpoint 4858</name>
            </trkpt>
            <trkpt lat="50.0826048" lon="11.3978504">
                <ele>301.0</ele>
                <time>2020-08-21T15:15:19.000Z</time>
                <name>Trackpoint 4859</name>
            </trkpt>
            <trkpt lat="50.0826688" lon="11.3977216">
                <ele>301.0</ele>
                <time>2020-08-21T15:15:21.000Z</time>
                <name>Trackpoint 4860</name>
            </trkpt>
            <trkpt lat="50.0827392" lon="11.3975848">
                <ele>300.0</ele>
                <time>2020-08-21T15:15:23.000Z</time>
                <name>Trackpoint 4861</name>
            </trkpt>
            <trkpt lat="50.0828096" lon="11.3974504">
                <ele>300.0</ele>
                <time>2020-08-21T15:15:25.000Z</time>
                <name>Trackpoint 4862</name>
            </trkpt>
            <trkpt lat="50.0828768" lon="11.3973216">
                <ele>300.0</ele>
                <time>2020-08-21T15:15:27.000Z</time>
                <name>Trackpoint 4863</name>
            </trkpt>
            <trkpt lat="50.082928" lon="11.3972352">
                <ele>300.0</ele>
                <time>2020-08-21T15:15:28.000Z</time>
                <name>Trackpoint 4864</name>
            </trkpt>
            <trkpt lat="50.0829824" lon="11.397132">
                <ele>299.0</ele>
                <time>2020-08-21T15:15:29.000Z</time>
                <name>Trackpoint 4865</name>
            </trkpt>
            <trkpt lat="50.0830144" lon="11.3970232">
                <ele>298.0</ele>
                <time>2020-08-21T15:15:30.000Z</time>
                <name>Trackpoint 4866</name>
            </trkpt>
            <trkpt lat="50.0831072" lon="11.3968632">
                <ele>299.0</ele>
                <time>2020-08-21T15:15:32.000Z</time>
                <name>Trackpoint 4867</name>
            </trkpt>
            <trkpt lat="50.0831488" lon="11.3967832">
                <ele>298.0</ele>
                <time>2020-08-21T15:15:33.000Z</time>
                <name>Trackpoint 4868</name>
            </trkpt>
            <trkpt lat="50.0832192" lon="11.3966376">
                <ele>299.0</ele>
                <time>2020-08-21T15:15:35.000Z</time>
                <name>Trackpoint 4869</name>
            </trkpt>
            <trkpt lat="50.0832896" lon="11.3964832">
                <ele>299.0</ele>
                <time>2020-08-21T15:15:37.000Z</time>
                <name>Trackpoint 4870</name>
            </trkpt>
            <trkpt lat="50.08336" lon="11.3963344">
                <ele>299.0</ele>
                <time>2020-08-21T15:15:39.000Z</time>
                <name>Trackpoint 4871</name>
            </trkpt>
            <trkpt lat="50.0834208" lon="11.39618">
                <ele>298.0</ele>
                <time>2020-08-21T15:15:41.000Z</time>
                <name>Trackpoint 4872</name>
            </trkpt>
            <trkpt lat="50.083488" lon="11.3960352">
                <ele>298.0</ele>
                <time>2020-08-21T15:15:43.000Z</time>
                <name>Trackpoint 4873</name>
            </trkpt>
            <trkpt lat="50.0835616" lon="11.3959064">
                <ele>298.0</ele>
                <time>2020-08-21T15:15:45.000Z</time>
                <name>Trackpoint 4874</name>
            </trkpt>
            <trkpt lat="50.0836384" lon="11.3957864">
                <ele>297.0</ele>
                <time>2020-08-21T15:15:47.000Z</time>
                <name>Trackpoint 4875</name>
            </trkpt>
            <trkpt lat="50.0837088" lon="11.3956832">
                <ele>297.0</ele>
                <time>2020-08-21T15:15:49.000Z</time>
                <name>Trackpoint 4876</name>
            </trkpt>
            <trkpt lat="50.0837824" lon="11.395592">
                <ele>297.0</ele>
                <time>2020-08-21T15:15:51.000Z</time>
                <name>Trackpoint 4877</name>
            </trkpt>
            <trkpt lat="50.083856" lon="11.395512">
                <ele>298.0</ele>
                <time>2020-08-21T15:15:53.000Z</time>
                <name>Trackpoint 4878</name>
            </trkpt>
            <trkpt lat="50.0839264" lon="11.3954464">
                <ele>298.0</ele>
                <time>2020-08-21T15:15:55.000Z</time>
                <name>Trackpoint 4879</name>
            </trkpt>
            <trkpt lat="50.0840032" lon="11.3953816">
                <ele>298.0</ele>
                <time>2020-08-21T15:15:57.000Z</time>
                <name>Trackpoint 4880</name>
            </trkpt>
            <trkpt lat="50.0840864" lon="11.3953304">
                <ele>298.0</ele>
                <time>2020-08-21T15:15:59.000Z</time>
                <name>Trackpoint 4881</name>
            </trkpt>
            <trkpt lat="50.0841888" lon="11.3952568">
                <ele>298.0</ele>
                <time>2020-08-21T15:16:02.000Z</time>
                <name>Trackpoint 4882</name>
            </trkpt>
            <trkpt lat="50.0842816" lon="11.395172">
                <ele>298.0</ele>
                <time>2020-08-21T15:16:05.000Z</time>
                <name>Trackpoint 4883</name>
            </trkpt>
            <trkpt lat="50.084352" lon="11.3950704">
                <ele>298.0</ele>
                <time>2020-08-21T15:16:08.000Z</time>
                <name>Trackpoint 4884</name>
            </trkpt>
            <trkpt lat="50.0844256" lon="11.3950136">
                <ele>298.0</ele>
                <time>2020-08-21T15:16:12.000Z</time>
                <name>Trackpoint 4885</name>
            </trkpt>
            <trkpt lat="50.0844608" lon="11.3951152">
                <ele>298.0</ele>
                <time>2020-08-21T15:16:15.000Z</time>
                <name>Trackpoint 4886</name>
            </trkpt>
            <trkpt lat="50.0844768" lon="11.395228">
                <ele>298.0</ele>
                <time>2020-08-21T15:16:17.000Z</time>
                <name>Trackpoint 4887</name>
            </trkpt>
            <trkpt lat="50.0844992" lon="11.3953512">
                <ele>298.0</ele>
                <time>2020-08-21T15:16:19.000Z</time>
                <name>Trackpoint 4888</name>
            </trkpt>
            <trkpt lat="50.0845216" lon="11.3954832">
                <ele>298.0</ele>
                <time>2020-08-21T15:16:21.000Z</time>
                <name>Trackpoint 4889</name>
            </trkpt>
            <trkpt lat="50.0845536" lon="11.3956232">
                <ele>298.0</ele>
                <time>2020-08-21T15:16:23.000Z</time>
                <name>Trackpoint 4890</name>
            </trkpt>
            <trkpt lat="50.0845856" lon="11.3957656">
                <ele>298.0</ele>
                <time>2020-08-21T15:16:25.000Z</time>
                <name>Trackpoint 4891</name>
            </trkpt>
            <trkpt lat="50.0846208" lon="11.3959032">
                <ele>298.0</ele>
                <time>2020-08-21T15:16:27.000Z</time>
                <name>Trackpoint 4892</name>
            </trkpt>
            <trkpt lat="50.0846624" lon="11.396044">
                <ele>297.0</ele>
                <time>2020-08-21T15:16:29.000Z</time>
                <name>Trackpoint 4893</name>
            </trkpt>
            <trkpt lat="50.0847168" lon="11.3961784">
                <ele>297.0</ele>
                <time>2020-08-21T15:16:31.000Z</time>
                <name>Trackpoint 4894</name>
            </trkpt>
            <trkpt lat="50.0847744" lon="11.3963048">
                <ele>297.0</ele>
                <time>2020-08-21T15:16:33.000Z</time>
                <name>Trackpoint 4895</name>
            </trkpt>
            <trkpt lat="50.0848384" lon="11.3964184">
                <ele>297.0</ele>
                <time>2020-08-21T15:16:35.000Z</time>
                <name>Trackpoint 4896</name>
            </trkpt>
            <trkpt lat="50.0849024" lon="11.3965328">
                <ele>296.0</ele>
                <time>2020-08-21T15:16:37.000Z</time>
                <name>Trackpoint 4897</name>
            </trkpt>
            <trkpt lat="50.08496" lon="11.3966552">
                <ele>296.0</ele>
                <time>2020-08-21T15:16:39.000Z</time>
                <name>Trackpoint 4898</name>
            </trkpt>
            <trkpt lat="50.0850144" lon="11.3967832">
                <ele>296.0</ele>
                <time>2020-08-21T15:16:41.000Z</time>
                <name>Trackpoint 4899</name>
            </trkpt>
            <trkpt lat="50.0850624" lon="11.396916">
                <ele>295.0</ele>
                <time>2020-08-21T15:16:43.000Z</time>
                <name>Trackpoint 4900</name>
            </trkpt>
            <trkpt lat="50.0851072" lon="11.3970648">
                <ele>295.0</ele>
                <time>2020-08-21T15:16:45.000Z</time>
                <name>Trackpoint 4901</name>
            </trkpt>
            <trkpt lat="50.0851488" lon="11.3972152">
                <ele>295.0</ele>
                <time>2020-08-21T15:16:47.000Z</time>
                <name>Trackpoint 4902</name>
            </trkpt>
            <trkpt lat="50.0851936" lon="11.3973616">
                <ele>295.0</ele>
                <time>2020-08-21T15:16:49.000Z</time>
                <name>Trackpoint 4903</name>
            </trkpt>
            <trkpt lat="50.0852544" lon="11.3974784">
                <ele>296.0</ele>
                <time>2020-08-21T15:16:51.000Z</time>
                <name>Trackpoint 4904</name>
            </trkpt>
            <trkpt lat="50.085344" lon="11.3975712">
                <ele>296.0</ele>
                <time>2020-08-21T15:16:53.000Z</time>
                <name>Trackpoint 4905</name>
            </trkpt>
            <trkpt lat="50.08544" lon="11.3976584">
                <ele>296.0</ele>
                <time>2020-08-21T15:16:55.000Z</time>
                <name>Trackpoint 4906</name>
            </trkpt>
            <trkpt lat="50.0855104" lon="11.3977672">
                <ele>296.0</ele>
                <time>2020-08-21T15:16:57.000Z</time>
                <name>Trackpoint 4907</name>
            </trkpt>
            <trkpt lat="50.0855552" lon="11.3978952">
                <ele>297.0</ele>
                <time>2020-08-21T15:16:59.000Z</time>
                <name>Trackpoint 4908</name>
            </trkpt>
            <trkpt lat="50.0856032" lon="11.398008">
                <ele>297.0</ele>
                <time>2020-08-21T15:17:01.000Z</time>
                <name>Trackpoint 4909</name>
            </trkpt>
            <trkpt lat="50.0856704" lon="11.39808">
                <ele>297.0</ele>
                <time>2020-08-21T15:17:03.000Z</time>
                <name>Trackpoint 4910</name>
            </trkpt>
            <trkpt lat="50.0857632" lon="11.3980848">
                <ele>297.0</ele>
                <time>2020-08-21T15:17:05.000Z</time>
                <name>Trackpoint 4911</name>
            </trkpt>
            <trkpt lat="50.0858624" lon="11.39808">
                <ele>296.0</ele>
                <time>2020-08-21T15:17:07.000Z</time>
                <name>Trackpoint 4912</name>
            </trkpt>
            <trkpt lat="50.085952" lon="11.3980664">
                <ele>296.0</ele>
                <time>2020-08-21T15:17:09.000Z</time>
                <name>Trackpoint 4913</name>
            </trkpt>
            <trkpt lat="50.086048" lon="11.3980368">
                <ele>296.0</ele>
                <time>2020-08-21T15:17:11.000Z</time>
                <name>Trackpoint 4914</name>
            </trkpt>
            <trkpt lat="50.0861152" lon="11.3979552">
                <ele>296.0</ele>
                <time>2020-08-21T15:17:13.000Z</time>
                <name>Trackpoint 4915</name>
            </trkpt>
            <trkpt lat="50.0861536" lon="11.397828">
                <ele>296.0</ele>
                <time>2020-08-21T15:17:15.000Z</time>
                <name>Trackpoint 4916</name>
            </trkpt>
            <trkpt lat="50.086192" lon="11.3976936">
                <ele>296.0</ele>
                <time>2020-08-21T15:17:17.000Z</time>
                <name>Trackpoint 4917</name>
            </trkpt>
            <trkpt lat="50.0862336" lon="11.3975632">
                <ele>296.0</ele>
                <time>2020-08-21T15:17:19.000Z</time>
                <name>Trackpoint 4918</name>
            </trkpt>
            <trkpt lat="50.0863008" lon="11.3974584">
                <ele>296.0</ele>
                <time>2020-08-21T15:17:21.000Z</time>
                <name>Trackpoint 4919</name>
            </trkpt>
            <trkpt lat="50.0863904" lon="11.397404">
                <ele>296.0</ele>
                <time>2020-08-21T15:17:23.000Z</time>
                <name>Trackpoint 4920</name>
            </trkpt>
            <trkpt lat="50.0864864" lon="11.3973888">
                <ele>295.0</ele>
                <time>2020-08-21T15:17:25.000Z</time>
                <name>Trackpoint 4921</name>
            </trkpt>
            <trkpt lat="50.0866112" lon="11.3973888">
                <ele>294.0</ele>
                <time>2020-08-21T15:17:28.000Z</time>
                <name>Trackpoint 4922</name>
            </trkpt>
            <trkpt lat="50.0867232" lon="11.397404">
                <ele>293.0</ele>
                <time>2020-08-21T15:17:31.000Z</time>
                <name>Trackpoint 4923</name>
            </trkpt>
            <trkpt lat="50.0868032" lon="11.3974504">
                <ele>294.0</ele>
                <time>2020-08-21T15:18:14.000Z</time>
                <name>Trackpoint 4924</name>
            </trkpt>
            <trkpt lat="50.086864" lon="11.39752">
                <ele>294.0</ele>
                <time>2020-08-21T15:18:26.000Z</time>
                <name>Trackpoint 4925</name>
            </trkpt>
            <trkpt lat="50.0867872" lon="11.3974616">
                <ele>294.0</ele>
                <time>2020-08-21T15:23:55.000Z</time>
                <name>Trackpoint 4926</name>
            </trkpt>
            <trkpt lat="50.08688" lon="11.3974352">
                <ele>294.0</ele>
                <time>2020-08-21T15:24:18.000Z</time>
                <name>Trackpoint 4927</name>
            </trkpt>
            <trkpt lat="50.0869472" lon="11.3975136">
                <ele>294.0</ele>
                <time>2020-08-21T15:24:23.000Z</time>
                <name>Trackpoint 4928</name>
            </trkpt>
            <trkpt lat="50.086976" lon="11.3976096">
                <ele>294.0</ele>
                <time>2020-08-21T15:24:27.000Z</time>
                <name>Trackpoint 4929</name>
            </trkpt>
            <trkpt lat="50.0870432" lon="11.3977032">
                <ele>294.0</ele>
                <time>2020-08-21T15:25:05.000Z</time>
                <name>Trackpoint 4930</name>
            </trkpt>
            <trkpt lat="50.0870752" lon="11.3977936">
                <ele>294.0</ele>
                <time>2020-08-21T15:27:51.000Z</time>
                <name>Trackpoint 4931</name>
            </trkpt>
            <trkpt lat="50.0871424" lon="11.3978584">
                <ele>294.0</ele>
                <time>2020-08-21T15:27:55.000Z</time>
                <name>Trackpoint 4932</name>
            </trkpt>
            <trkpt lat="50.0872384" lon="11.3978968">
                <ele>294.0</ele>
                <time>2020-08-21T15:27:59.000Z</time>
                <name>Trackpoint 4933</name>
            </trkpt>
            <trkpt lat="50.087344" lon="11.3979368">
                <ele>294.0</ele>
                <time>2020-08-21T15:28:02.000Z</time>
                <name>Trackpoint 4934</name>
            </trkpt>
            <trkpt lat="50.0874624" lon="11.397988">
                <ele>293.0</ele>
                <time>2020-08-21T15:28:05.000Z</time>
                <name>Trackpoint 4935</name>
            </trkpt>
            <trkpt lat="50.0875552" lon="11.3980168">
                <ele>293.0</ele>
                <time>2020-08-21T15:28:07.000Z</time>
                <name>Trackpoint 4936</name>
            </trkpt>
            <trkpt lat="50.08768" lon="11.3980664">
                <ele>294.0</ele>
                <time>2020-08-21T15:28:10.000Z</time>
                <name>Trackpoint 4937</name>
            </trkpt>
            <trkpt lat="50.0878016" lon="11.3981136">
                <ele>294.0</ele>
                <time>2020-08-21T15:28:13.000Z</time>
                <name>Trackpoint 4938</name>
            </trkpt>
            <trkpt lat="50.0879072" lon="11.3981848">
                <ele>294.0</ele>
                <time>2020-08-21T15:28:16.000Z</time>
                <name>Trackpoint 4939</name>
            </trkpt>
            <trkpt lat="50.0879328" lon="11.3983032">
                <ele>294.0</ele>
                <time>2020-08-21T15:28:18.000Z</time>
                <name>Trackpoint 4940</name>
            </trkpt>
            <trkpt lat="50.0879456" lon="11.3984472">
                <ele>293.0</ele>
                <time>2020-08-21T15:28:20.000Z</time>
                <name>Trackpoint 4941</name>
            </trkpt>
            <trkpt lat="50.0879392" lon="11.3985864">
                <ele>293.0</ele>
                <time>2020-08-21T15:28:22.000Z</time>
                <name>Trackpoint 4942</name>
            </trkpt>
            <trkpt lat="50.0879488" lon="11.3987304">
                <ele>293.0</ele>
                <time>2020-08-21T15:28:24.000Z</time>
                <name>Trackpoint 4943</name>
            </trkpt>
            <trkpt lat="50.0879712" lon="11.3988712">
                <ele>293.0</ele>
                <time>2020-08-21T15:28:26.000Z</time>
                <name>Trackpoint 4944</name>
            </trkpt>
            <trkpt lat="50.088016" lon="11.3989912">
                <ele>293.0</ele>
                <time>2020-08-21T15:28:28.000Z</time>
                <name>Trackpoint 4945</name>
            </trkpt>
            <trkpt lat="50.088096" lon="11.3990768">
                <ele>293.0</ele>
                <time>2020-08-21T15:28:30.000Z</time>
                <name>Trackpoint 4946</name>
            </trkpt>
            <trkpt lat="50.0881888" lon="11.3991216">
                <ele>293.0</ele>
                <time>2020-08-21T15:28:32.000Z</time>
                <name>Trackpoint 4947</name>
            </trkpt>
            <trkpt lat="50.0882944" lon="11.3991448">
                <ele>293.0</ele>
                <time>2020-08-21T15:28:34.000Z</time>
                <name>Trackpoint 4948</name>
            </trkpt>
            <trkpt lat="50.0884064" lon="11.3991744">
                <ele>293.0</ele>
                <time>2020-08-21T15:28:36.000Z</time>
                <name>Trackpoint 4949</name>
            </trkpt>
            <trkpt lat="50.0885056" lon="11.399232">
                <ele>293.0</ele>
                <time>2020-08-21T15:28:38.000Z</time>
                <name>Trackpoint 4950</name>
            </trkpt>
            <trkpt lat="50.088592" lon="11.39934">
                <ele>293.0</ele>
                <time>2020-08-21T15:28:40.000Z</time>
                <name>Trackpoint 4951</name>
            </trkpt>
            <trkpt lat="50.0886464" lon="11.399484">
                <ele>293.0</ele>
                <time>2020-08-21T15:28:42.000Z</time>
                <name>Trackpoint 4952</name>
            </trkpt>
            <trkpt lat="50.0886752" lon="11.3996488">
                <ele>293.0</ele>
                <time>2020-08-21T15:28:44.000Z</time>
                <name>Trackpoint 4953</name>
            </trkpt>
            <trkpt lat="50.0886912" lon="11.399812">
                <ele>293.0</ele>
                <time>2020-08-21T15:28:46.000Z</time>
                <name>Trackpoint 4954</name>
            </trkpt>
            <trkpt lat="50.0887072" lon="11.3999816">
                <ele>292.0</ele>
                <time>2020-08-21T15:28:48.000Z</time>
                <name>Trackpoint 4955</name>
            </trkpt>
            <trkpt lat="50.0887072" lon="11.4001528">
                <ele>292.0</ele>
                <time>2020-08-21T15:28:50.000Z</time>
                <name>Trackpoint 4956</name>
            </trkpt>
            <trkpt lat="50.0887008" lon="11.4003232">
                <ele>292.0</ele>
                <time>2020-08-21T15:28:52.000Z</time>
                <name>Trackpoint 4957</name>
            </trkpt>
            <trkpt lat="50.0886944" lon="11.4004936">
                <ele>292.0</ele>
                <time>2020-08-21T15:28:54.000Z</time>
                <name>Trackpoint 4958</name>
            </trkpt>
            <trkpt lat="50.0887008" lon="11.4006584">
                <ele>292.0</ele>
                <time>2020-08-21T15:28:56.000Z</time>
                <name>Trackpoint 4959</name>
            </trkpt>
            <trkpt lat="50.0886944" lon="11.4008232">
                <ele>292.0</ele>
                <time>2020-08-21T15:28:58.000Z</time>
                <name>Trackpoint 4960</name>
            </trkpt>
            <trkpt lat="50.088704" lon="11.4009888">
                <ele>292.0</ele>
                <time>2020-08-21T15:29:00.000Z</time>
                <name>Trackpoint 4961</name>
            </trkpt>
            <trkpt lat="50.0887136" lon="11.401152">
                <ele>292.0</ele>
                <time>2020-08-21T15:29:02.000Z</time>
                <name>Trackpoint 4962</name>
            </trkpt>
            <trkpt lat="50.0887296" lon="11.4013136">
                <ele>292.0</ele>
                <time>2020-08-21T15:29:04.000Z</time>
                <name>Trackpoint 4963</name>
            </trkpt>
            <trkpt lat="50.088736" lon="11.4014704">
                <ele>292.0</ele>
                <time>2020-08-21T15:29:06.000Z</time>
                <name>Trackpoint 4964</name>
            </trkpt>
            <trkpt lat="50.0887488" lon="11.4016248">
                <ele>292.0</ele>
                <time>2020-08-21T15:29:08.000Z</time>
                <name>Trackpoint 4965</name>
            </trkpt>
            <trkpt lat="50.0887616" lon="11.4017824">
                <ele>292.0</ele>
                <time>2020-08-21T15:29:10.000Z</time>
                <name>Trackpoint 4966</name>
            </trkpt>
            <trkpt lat="50.0887744" lon="11.4019432">
                <ele>292.0</ele>
                <time>2020-08-21T15:29:12.000Z</time>
                <name>Trackpoint 4967</name>
            </trkpt>
            <trkpt lat="50.0887808" lon="11.4021056">
                <ele>292.0</ele>
                <time>2020-08-21T15:29:14.000Z</time>
                <name>Trackpoint 4968</name>
            </trkpt>
            <trkpt lat="50.0887808" lon="11.4022704">
                <ele>292.0</ele>
                <time>2020-08-21T15:29:16.000Z</time>
                <name>Trackpoint 4969</name>
            </trkpt>
            <trkpt lat="50.0887744" lon="11.4024264">
                <ele>293.0</ele>
                <time>2020-08-21T15:29:18.000Z</time>
                <name>Trackpoint 4970</name>
            </trkpt>
            <trkpt lat="50.0887712" lon="11.4025872">
                <ele>292.0</ele>
                <time>2020-08-21T15:29:20.000Z</time>
                <name>Trackpoint 4971</name>
            </trkpt>
            <trkpt lat="50.0887712" lon="11.4027416">
                <ele>292.0</ele>
                <time>2020-08-21T15:29:22.000Z</time>
                <name>Trackpoint 4972</name>
            </trkpt>
            <trkpt lat="50.088768" lon="11.4028984">
                <ele>292.0</ele>
                <time>2020-08-21T15:29:24.000Z</time>
                <name>Trackpoint 4973</name>
            </trkpt>
            <trkpt lat="50.0887648" lon="11.4030464">
                <ele>292.0</ele>
                <time>2020-08-21T15:29:26.000Z</time>
                <name>Trackpoint 4974</name>
            </trkpt>
            <trkpt lat="50.088752" lon="11.4032048">
                <ele>292.0</ele>
                <time>2020-08-21T15:29:28.000Z</time>
                <name>Trackpoint 4975</name>
            </trkpt>
            <trkpt lat="50.0887552" lon="11.403352">
                <ele>292.0</ele>
                <time>2020-08-21T15:29:30.000Z</time>
                <name>Trackpoint 4976</name>
            </trkpt>
            <trkpt lat="50.0887616" lon="11.4034952">
                <ele>292.0</ele>
                <time>2020-08-21T15:29:32.000Z</time>
                <name>Trackpoint 4977</name>
            </trkpt>
            <trkpt lat="50.088768" lon="11.40364">
                <ele>292.0</ele>
                <time>2020-08-21T15:29:34.000Z</time>
                <name>Trackpoint 4978</name>
            </trkpt>
            <trkpt lat="50.0887872" lon="11.4037848">
                <ele>292.0</ele>
                <time>2020-08-21T15:29:36.000Z</time>
                <name>Trackpoint 4979</name>
            </trkpt>
            <trkpt lat="50.088816" lon="11.4039096">
                <ele>291.0</ele>
                <time>2020-08-21T15:29:38.000Z</time>
                <name>Trackpoint 4980</name>
            </trkpt>
            <trkpt lat="50.0888608" lon="11.4040368">
                <ele>291.0</ele>
                <time>2020-08-21T15:29:40.000Z</time>
                <name>Trackpoint 4981</name>
            </trkpt>
            <trkpt lat="50.0889024" lon="11.4041616">
                <ele>291.0</ele>
                <time>2020-08-21T15:29:42.000Z</time>
                <name>Trackpoint 4982</name>
            </trkpt>
            <trkpt lat="50.088944" lon="11.404308">
                <ele>291.0</ele>
                <time>2020-08-21T15:29:44.000Z</time>
                <name>Trackpoint 4983</name>
            </trkpt>
            <trkpt lat="50.0890016" lon="11.4044504">
                <ele>291.0</ele>
                <time>2020-08-21T15:29:46.000Z</time>
                <name>Trackpoint 4984</name>
            </trkpt>
            <trkpt lat="50.0890656" lon="11.4046032">
                <ele>291.0</ele>
                <time>2020-08-21T15:29:48.000Z</time>
                <name>Trackpoint 4985</name>
            </trkpt>
            <trkpt lat="50.0891296" lon="11.4047736">
                <ele>291.0</ele>
                <time>2020-08-21T15:29:50.000Z</time>
                <name>Trackpoint 4986</name>
            </trkpt>
            <trkpt lat="50.0892064" lon="11.4049256">
                <ele>292.0</ele>
                <time>2020-08-21T15:29:52.000Z</time>
                <name>Trackpoint 4987</name>
            </trkpt>
            <trkpt lat="50.089264" lon="11.4050616">
                <ele>292.0</ele>
                <time>2020-08-21T15:29:54.000Z</time>
                <name>Trackpoint 4988</name>
            </trkpt>
            <trkpt lat="50.0893216" lon="11.4051912">
                <ele>292.0</ele>
                <time>2020-08-21T15:29:56.000Z</time>
                <name>Trackpoint 4989</name>
            </trkpt>
            <trkpt lat="50.089376" lon="11.40532">
                <ele>292.0</ele>
                <time>2020-08-21T15:29:58.000Z</time>
                <name>Trackpoint 4990</name>
            </trkpt>
            <trkpt lat="50.089424" lon="11.405448">
                <ele>292.0</ele>
                <time>2020-08-21T15:30:00.000Z</time>
                <name>Trackpoint 4991</name>
            </trkpt>
            <trkpt lat="50.0894656" lon="11.4055768">
                <ele>294.0</ele>
                <time>2020-08-21T15:30:02.000Z</time>
                <name>Trackpoint 4992</name>
            </trkpt>
            <trkpt lat="50.0895104" lon="11.4057032">
                <ele>294.0</ele>
                <time>2020-08-21T15:30:04.000Z</time>
                <name>Trackpoint 4993</name>
            </trkpt>
            <trkpt lat="50.0895488" lon="11.4058264">
                <ele>294.0</ele>
                <time>2020-08-21T15:30:06.000Z</time>
                <name>Trackpoint 4994</name>
            </trkpt>
            <trkpt lat="50.089584" lon="11.4059496">
                <ele>294.0</ele>
                <time>2020-08-21T15:30:08.000Z</time>
                <name>Trackpoint 4995</name>
            </trkpt>
            <trkpt lat="50.089616" lon="11.4060768">
                <ele>294.0</ele>
                <time>2020-08-21T15:30:10.000Z</time>
                <name>Trackpoint 4996</name>
            </trkpt>
            <trkpt lat="50.0896544" lon="11.4062008">
                <ele>294.0</ele>
                <time>2020-08-21T15:30:12.000Z</time>
                <name>Trackpoint 4997</name>
            </trkpt>
            <trkpt lat="50.089696" lon="11.4063232">
                <ele>294.0</ele>
                <time>2020-08-21T15:30:14.000Z</time>
                <name>Trackpoint 4998</name>
            </trkpt>
            <trkpt lat="50.0897472" lon="11.4064432">
                <ele>294.0</ele>
                <time>2020-08-21T15:30:16.000Z</time>
                <name>Trackpoint 4999</name>
            </trkpt>
            <trkpt lat="50.0898048" lon="11.4065704">
                <ele>294.0</ele>
                <time>2020-08-21T15:30:18.000Z</time>
                <name>Trackpoint 5000</name>
            </trkpt>
            <trkpt lat="50.089856" lon="11.4067024">
                <ele>294.0</ele>
                <time>2020-08-21T15:30:20.000Z</time>
                <name>Trackpoint 5001</name>
            </trkpt>
            <trkpt lat="50.089904" lon="11.4068336">
                <ele>294.0</ele>
                <time>2020-08-21T15:30:22.000Z</time>
                <name>Trackpoint 5002</name>
            </trkpt>
            <trkpt lat="50.0899648" lon="11.4069584">
                <ele>294.0</ele>
                <time>2020-08-21T15:30:24.000Z</time>
                <name>Trackpoint 5003</name>
            </trkpt>
            <trkpt lat="50.0900256" lon="11.4070816">
                <ele>294.0</ele>
                <time>2020-08-21T15:30:26.000Z</time>
                <name>Trackpoint 5004</name>
            </trkpt>
            <trkpt lat="50.0900864" lon="11.4071976">
                <ele>294.0</ele>
                <time>2020-08-21T15:30:28.000Z</time>
                <name>Trackpoint 5005</name>
            </trkpt>
            <trkpt lat="50.0901536" lon="11.4073048">
                <ele>295.0</ele>
                <time>2020-08-21T15:30:30.000Z</time>
                <name>Trackpoint 5006</name>
            </trkpt>
            <trkpt lat="50.090224" lon="11.4074096">
                <ele>294.0</ele>
                <time>2020-08-21T15:30:32.000Z</time>
                <name>Trackpoint 5007</name>
            </trkpt>
            <trkpt lat="50.0902976" lon="11.4075136">
                <ele>294.0</ele>
                <time>2020-08-21T15:30:34.000Z</time>
                <name>Trackpoint 5008</name>
            </trkpt>
            <trkpt lat="50.0903744" lon="11.4076096">
                <ele>294.0</ele>
                <time>2020-08-21T15:30:36.000Z</time>
                <name>Trackpoint 5009</name>
            </trkpt>
            <trkpt lat="50.090448" lon="11.4077064">
                <ele>294.0</ele>
                <time>2020-08-21T15:30:38.000Z</time>
                <name>Trackpoint 5010</name>
            </trkpt>
            <trkpt lat="50.0905312" lon="11.407788">
                <ele>294.0</ele>
                <time>2020-08-21T15:30:40.000Z</time>
                <name>Trackpoint 5011</name>
            </trkpt>
            <trkpt lat="50.0906176" lon="11.4078552">
                <ele>294.0</ele>
                <time>2020-08-21T15:30:42.000Z</time>
                <name>Trackpoint 5012</name>
            </trkpt>
            <trkpt lat="50.0907104" lon="11.4079136">
                <ele>294.0</ele>
                <time>2020-08-21T15:30:44.000Z</time>
                <name>Trackpoint 5013</name>
            </trkpt>
            <trkpt lat="50.0907968" lon="11.4079712">
                <ele>294.0</ele>
                <time>2020-08-21T15:30:46.000Z</time>
                <name>Trackpoint 5014</name>
            </trkpt>
            <trkpt lat="50.09088" lon="11.4080496">
                <ele>295.0</ele>
                <time>2020-08-21T15:30:48.000Z</time>
                <name>Trackpoint 5015</name>
            </trkpt>
            <trkpt lat="50.0909504" lon="11.408152">
                <ele>295.0</ele>
                <time>2020-08-21T15:30:50.000Z</time>
                <name>Trackpoint 5016</name>
            </trkpt>
            <trkpt lat="50.0910144" lon="11.4082648">
                <ele>295.0</ele>
                <time>2020-08-21T15:30:52.000Z</time>
                <name>Trackpoint 5017</name>
            </trkpt>
            <trkpt lat="50.0910784" lon="11.4083792">
                <ele>295.0</ele>
                <time>2020-08-21T15:30:54.000Z</time>
                <name>Trackpoint 5018</name>
            </trkpt>
            <trkpt lat="50.0911488" lon="11.408488">
                <ele>295.0</ele>
                <time>2020-08-21T15:30:56.000Z</time>
                <name>Trackpoint 5019</name>
            </trkpt>
            <trkpt lat="50.0912128" lon="11.4085968">
                <ele>295.0</ele>
                <time>2020-08-21T15:30:58.000Z</time>
                <name>Trackpoint 5020</name>
            </trkpt>
            <trkpt lat="50.0912832" lon="11.4087048">
                <ele>295.0</ele>
                <time>2020-08-21T15:31:00.000Z</time>
                <name>Trackpoint 5021</name>
            </trkpt>
            <trkpt lat="50.0913568" lon="11.4087888">
                <ele>295.0</ele>
                <time>2020-08-21T15:31:02.000Z</time>
                <name>Trackpoint 5022</name>
            </trkpt>
            <trkpt lat="50.0914272" lon="11.4088872">
                <ele>295.0</ele>
                <time>2020-08-21T15:31:04.000Z</time>
                <name>Trackpoint 5023</name>
            </trkpt>
            <trkpt lat="50.0914912" lon="11.4090072">
                <ele>295.0</ele>
                <time>2020-08-21T15:31:06.000Z</time>
                <name>Trackpoint 5024</name>
            </trkpt>
            <trkpt lat="50.0915456" lon="11.4091328">
                <ele>295.0</ele>
                <time>2020-08-21T15:31:08.000Z</time>
                <name>Trackpoint 5025</name>
            </trkpt>
            <trkpt lat="50.0916" lon="11.4092616">
                <ele>295.0</ele>
                <time>2020-08-21T15:31:10.000Z</time>
                <name>Trackpoint 5026</name>
            </trkpt>
            <trkpt lat="50.091664" lon="11.4093848">
                <ele>295.0</ele>
                <time>2020-08-21T15:31:12.000Z</time>
                <name>Trackpoint 5027</name>
            </trkpt>
            <trkpt lat="50.091728" lon="11.4095048">
                <ele>295.0</ele>
                <time>2020-08-21T15:31:14.000Z</time>
                <name>Trackpoint 5028</name>
            </trkpt>
            <trkpt lat="50.0917984" lon="11.4096296">
                <ele>295.0</ele>
                <time>2020-08-21T15:31:16.000Z</time>
                <name>Trackpoint 5029</name>
            </trkpt>
            <trkpt lat="50.0918592" lon="11.4097656">
                <ele>295.0</ele>
                <time>2020-08-21T15:31:18.000Z</time>
                <name>Trackpoint 5030</name>
            </trkpt>
            <trkpt lat="50.0919072" lon="11.409912">
                <ele>295.0</ele>
                <time>2020-08-21T15:31:20.000Z</time>
                <name>Trackpoint 5031</name>
            </trkpt>
            <trkpt lat="50.091952" lon="11.410064">
                <ele>295.0</ele>
                <time>2020-08-21T15:31:22.000Z</time>
                <name>Trackpoint 5032</name>
            </trkpt>
            <trkpt lat="50.091984" lon="11.4102232">
                <ele>295.0</ele>
                <time>2020-08-21T15:31:24.000Z</time>
                <name>Trackpoint 5033</name>
            </trkpt>
            <trkpt lat="50.092" lon="11.4103936">
                <ele>295.0</ele>
                <time>2020-08-21T15:31:26.000Z</time>
                <name>Trackpoint 5034</name>
            </trkpt>
            <trkpt lat="50.0920192" lon="11.4105568">
                <ele>295.0</ele>
                <time>2020-08-21T15:31:28.000Z</time>
                <name>Trackpoint 5035</name>
            </trkpt>
            <trkpt lat="50.0920384" lon="11.4107176">
                <ele>295.0</ele>
                <time>2020-08-21T15:31:30.000Z</time>
                <name>Trackpoint 5036</name>
            </trkpt>
            <trkpt lat="50.0920608" lon="11.410876">
                <ele>295.0</ele>
                <time>2020-08-21T15:31:32.000Z</time>
                <name>Trackpoint 5037</name>
            </trkpt>
            <trkpt lat="50.09208" lon="11.411028">
                <ele>295.0</ele>
                <time>2020-08-21T15:31:34.000Z</time>
                <name>Trackpoint 5038</name>
            </trkpt>
            <trkpt lat="50.0920992" lon="11.4111728">
                <ele>295.0</ele>
                <time>2020-08-21T15:31:36.000Z</time>
                <name>Trackpoint 5039</name>
            </trkpt>
            <trkpt lat="50.0921248" lon="11.4113032">
                <ele>295.0</ele>
                <time>2020-08-21T15:31:38.000Z</time>
                <name>Trackpoint 5040</name>
            </trkpt>
            <trkpt lat="50.0921504" lon="11.4114216">
                <ele>295.0</ele>
                <time>2020-08-21T15:31:40.000Z</time>
                <name>Trackpoint 5041</name>
            </trkpt>
            <trkpt lat="50.0921856" lon="11.4115264">
                <ele>295.0</ele>
                <time>2020-08-21T15:31:42.000Z</time>
                <name>Trackpoint 5042</name>
            </trkpt>
            <trkpt lat="50.092224" lon="11.4116224">
                <ele>295.0</ele>
                <time>2020-08-21T15:31:44.000Z</time>
                <name>Trackpoint 5043</name>
            </trkpt>
            <trkpt lat="50.0922592" lon="11.411708">
                <ele>295.0</ele>
                <time>2020-08-21T15:31:46.000Z</time>
                <name>Trackpoint 5044</name>
            </trkpt>
            <trkpt lat="50.09232" lon="11.4118032">
                <ele>295.0</ele>
                <time>2020-08-21T15:31:49.000Z</time>
                <name>Trackpoint 5045</name>
            </trkpt>
            <trkpt lat="50.0924256" lon="11.4117872">
                <ele>295.0</ele>
                <time>2020-08-21T15:31:52.000Z</time>
                <name>Trackpoint 5046</name>
            </trkpt>
            <trkpt lat="50.0925024" lon="11.4117">
                <ele>295.0</ele>
                <time>2020-08-21T15:31:54.000Z</time>
                <name>Trackpoint 5047</name>
            </trkpt>
            <trkpt lat="50.092576" lon="11.4115952">
                <ele>295.0</ele>
                <time>2020-08-21T15:31:56.000Z</time>
                <name>Trackpoint 5048</name>
            </trkpt>
            <trkpt lat="50.0926432" lon="11.4114848">
                <ele>295.0</ele>
                <time>2020-08-21T15:31:58.000Z</time>
                <name>Trackpoint 5049</name>
            </trkpt>
            <trkpt lat="50.09272" lon="11.4113816">
                <ele>294.0</ele>
                <time>2020-08-21T15:32:00.000Z</time>
                <name>Trackpoint 5050</name>
            </trkpt>
            <trkpt lat="50.0927968" lon="11.4112816">
                <ele>294.0</ele>
                <time>2020-08-21T15:32:02.000Z</time>
                <name>Trackpoint 5051</name>
            </trkpt>
            <trkpt lat="50.0928768" lon="11.4111952">
                <ele>294.0</ele>
                <time>2020-08-21T15:32:04.000Z</time>
                <name>Trackpoint 5052</name>
            </trkpt>
            <trkpt lat="50.0929632" lon="11.4111208">
                <ele>294.0</ele>
                <time>2020-08-21T15:32:06.000Z</time>
                <name>Trackpoint 5053</name>
            </trkpt>
            <trkpt lat="50.093056" lon="11.4110584">
                <ele>293.0</ele>
                <time>2020-08-21T15:32:08.000Z</time>
                <name>Trackpoint 5054</name>
            </trkpt>
            <trkpt lat="50.0931424" lon="11.411008">
                <ele>294.0</ele>
                <time>2020-08-21T15:32:10.000Z</time>
                <name>Trackpoint 5055</name>
            </trkpt>
            <trkpt lat="50.0932416" lon="11.4109696">
                <ele>294.0</ele>
                <time>2020-08-21T15:32:12.000Z</time>
                <name>Trackpoint 5056</name>
            </trkpt>
            <trkpt lat="50.0933472" lon="11.4109312">
                <ele>294.0</ele>
                <time>2020-08-21T15:32:14.000Z</time>
                <name>Trackpoint 5057</name>
            </trkpt>
            <trkpt lat="50.0934528" lon="11.4108816">
                <ele>293.0</ele>
                <time>2020-08-21T15:32:16.000Z</time>
                <name>Trackpoint 5058</name>
            </trkpt>
            <trkpt lat="50.0935552" lon="11.4108288">
                <ele>293.0</ele>
                <time>2020-08-21T15:32:18.000Z</time>
                <name>Trackpoint 5059</name>
            </trkpt>
            <trkpt lat="50.0936576" lon="11.4107736">
                <ele>293.0</ele>
                <time>2020-08-21T15:32:20.000Z</time>
                <name>Trackpoint 5060</name>
            </trkpt>
            <trkpt lat="50.0937568" lon="11.4107128">
                <ele>293.0</ele>
                <time>2020-08-21T15:32:22.000Z</time>
                <name>Trackpoint 5061</name>
            </trkpt>
            <trkpt lat="50.093856" lon="11.4106528">
                <ele>293.0</ele>
                <time>2020-08-21T15:32:24.000Z</time>
                <name>Trackpoint 5062</name>
            </trkpt>
            <trkpt lat="50.0939488" lon="11.410592">
                <ele>293.0</ele>
                <time>2020-08-21T15:32:26.000Z</time>
                <name>Trackpoint 5063</name>
            </trkpt>
            <trkpt lat="50.094048" lon="11.41054">
                <ele>292.0</ele>
                <time>2020-08-21T15:32:28.000Z</time>
                <name>Trackpoint 5064</name>
            </trkpt>
            <trkpt lat="50.0941376" lon="11.4104784">
                <ele>292.0</ele>
                <time>2020-08-21T15:32:30.000Z</time>
                <name>Trackpoint 5065</name>
            </trkpt>
            <trkpt lat="50.0942432" lon="11.4104248">
                <ele>293.0</ele>
                <time>2020-08-21T15:32:32.000Z</time>
                <name>Trackpoint 5066</name>
            </trkpt>
            <trkpt lat="50.0943296" lon="11.4103736">
                <ele>292.0</ele>
                <time>2020-08-21T15:32:34.000Z</time>
                <name>Trackpoint 5067</name>
            </trkpt>
            <trkpt lat="50.0944256" lon="11.4103184">
                <ele>292.0</ele>
                <time>2020-08-21T15:32:36.000Z</time>
                <name>Trackpoint 5068</name>
            </trkpt>
            <trkpt lat="50.0945248" lon="11.4102552">
                <ele>292.0</ele>
                <time>2020-08-21T15:32:38.000Z</time>
                <name>Trackpoint 5069</name>
            </trkpt>
            <trkpt lat="50.0946208" lon="11.4102">
                <ele>292.0</ele>
                <time>2020-08-21T15:32:40.000Z</time>
                <name>Trackpoint 5070</name>
            </trkpt>
            <trkpt lat="50.0947104" lon="11.4101352">
                <ele>293.0</ele>
                <time>2020-08-21T15:32:42.000Z</time>
                <name>Trackpoint 5071</name>
            </trkpt>
            <trkpt lat="50.0948" lon="11.4100864">
                <ele>293.0</ele>
                <time>2020-08-21T15:32:44.000Z</time>
                <name>Trackpoint 5072</name>
            </trkpt>
            <trkpt lat="50.094896" lon="11.4100376">
                <ele>293.0</ele>
                <time>2020-08-21T15:32:46.000Z</time>
                <name>Trackpoint 5073</name>
            </trkpt>
            <trkpt lat="50.0949888" lon="11.4099928">
                <ele>293.0</ele>
                <time>2020-08-21T15:32:48.000Z</time>
                <name>Trackpoint 5074</name>
            </trkpt>
            <trkpt lat="50.0950816" lon="11.409968">
                <ele>293.0</ele>
                <time>2020-08-21T15:32:50.000Z</time>
                <name>Trackpoint 5075</name>
            </trkpt>
            <trkpt lat="50.0951808" lon="11.4099464">
                <ele>293.0</ele>
                <time>2020-08-21T15:32:52.000Z</time>
                <name>Trackpoint 5076</name>
            </trkpt>
            <trkpt lat="50.0952672" lon="11.4099064">
                <ele>293.0</ele>
                <time>2020-08-21T15:32:54.000Z</time>
                <name>Trackpoint 5077</name>
            </trkpt>
            <trkpt lat="50.0953568" lon="11.40984">
                <ele>294.0</ele>
                <time>2020-08-21T15:32:56.000Z</time>
                <name>Trackpoint 5078</name>
            </trkpt>
            <trkpt lat="50.0954336" lon="11.4097456">
                <ele>293.0</ele>
                <time>2020-08-21T15:32:58.000Z</time>
                <name>Trackpoint 5079</name>
            </trkpt>
            <trkpt lat="50.0955072" lon="11.4096384">
                <ele>294.0</ele>
                <time>2020-08-21T15:33:00.000Z</time>
                <name>Trackpoint 5080</name>
            </trkpt>
            <trkpt lat="50.095584" lon="11.4095424">
                <ele>293.0</ele>
                <time>2020-08-21T15:33:02.000Z</time>
                <name>Trackpoint 5081</name>
            </trkpt>
            <trkpt lat="50.095664" lon="11.4094512">
                <ele>293.0</ele>
                <time>2020-08-21T15:33:04.000Z</time>
                <name>Trackpoint 5082</name>
            </trkpt>
            <trkpt lat="50.0957536" lon="11.4093712">
                <ele>293.0</ele>
                <time>2020-08-21T15:33:06.000Z</time>
                <name>Trackpoint 5083</name>
            </trkpt>
            <trkpt lat="50.0958336" lon="11.4092968">
                <ele>293.0</ele>
                <time>2020-08-21T15:33:08.000Z</time>
                <name>Trackpoint 5084</name>
            </trkpt>
            <trkpt lat="50.0959136" lon="11.409208">
                <ele>293.0</ele>
                <time>2020-08-21T15:33:10.000Z</time>
                <name>Trackpoint 5085</name>
            </trkpt>
            <trkpt lat="50.0959936" lon="11.40912">
                <ele>293.0</ele>
                <time>2020-08-21T15:33:12.000Z</time>
                <name>Trackpoint 5086</name>
            </trkpt>
            <trkpt lat="50.0960736" lon="11.4090336">
                <ele>293.0</ele>
                <time>2020-08-21T15:33:14.000Z</time>
                <name>Trackpoint 5087</name>
            </trkpt>
            <trkpt lat="50.0961504" lon="11.4089344">
                <ele>293.0</ele>
                <time>2020-08-21T15:33:16.000Z</time>
                <name>Trackpoint 5088</name>
            </trkpt>
            <trkpt lat="50.0962208" lon="11.40884">
                <ele>293.0</ele>
                <time>2020-08-21T15:33:18.000Z</time>
                <name>Trackpoint 5089</name>
            </trkpt>
            <trkpt lat="50.0962976" lon="11.4087496">
                <ele>293.0</ele>
                <time>2020-08-21T15:33:20.000Z</time>
                <name>Trackpoint 5090</name>
            </trkpt>
            <trkpt lat="50.0963744" lon="11.40866">
                <ele>293.0</ele>
                <time>2020-08-21T15:33:22.000Z</time>
                <name>Trackpoint 5091</name>
            </trkpt>
            <trkpt lat="50.0964416" lon="11.4085728">
                <ele>293.0</ele>
                <time>2020-08-21T15:33:24.000Z</time>
                <name>Trackpoint 5092</name>
            </trkpt>
            <trkpt lat="50.0965088" lon="11.4085056">
                <ele>293.0</ele>
                <time>2020-08-21T15:33:26.000Z</time>
                <name>Trackpoint 5093</name>
            </trkpt>
            <trkpt lat="50.0966112" lon="11.4084168">
                <ele>293.0</ele>
                <time>2020-08-21T15:33:29.000Z</time>
                <name>Trackpoint 5094</name>
            </trkpt>
            <trkpt lat="50.0967104" lon="11.4083296">
                <ele>293.0</ele>
                <time>2020-08-21T15:33:32.000Z</time>
                <name>Trackpoint 5095</name>
            </trkpt>
            <trkpt lat="50.0968032" lon="11.4082448">
                <ele>293.0</ele>
                <time>2020-08-21T15:33:35.000Z</time>
                <name>Trackpoint 5096</name>
            </trkpt>
            <trkpt lat="50.0968704" lon="11.4081808">
                <ele>293.0</ele>
                <time>2020-08-21T15:33:37.000Z</time>
                <name>Trackpoint 5097</name>
            </trkpt>
            <trkpt lat="50.0969376" lon="11.408116">
                <ele>294.0</ele>
                <time>2020-08-21T15:33:39.000Z</time>
                <name>Trackpoint 5098</name>
            </trkpt>
            <trkpt lat="50.0970048" lon="11.4080552">
                <ele>294.0</ele>
                <time>2020-08-21T15:33:41.000Z</time>
                <name>Trackpoint 5099</name>
            </trkpt>
            <trkpt lat="50.0970752" lon="11.4079864">
                <ele>294.0</ele>
                <time>2020-08-21T15:33:43.000Z</time>
                <name>Trackpoint 5100</name>
            </trkpt>
            <trkpt lat="50.0971424" lon="11.4079048">
                <ele>294.0</ele>
                <time>2020-08-21T15:33:45.000Z</time>
                <name>Trackpoint 5101</name>
            </trkpt>
            <trkpt lat="50.0972096" lon="11.4078232">
                <ele>294.0</ele>
                <time>2020-08-21T15:33:47.000Z</time>
                <name>Trackpoint 5102</name>
            </trkpt>
            <trkpt lat="50.09728" lon="11.4077432">
                <ele>294.0</ele>
                <time>2020-08-21T15:33:49.000Z</time>
                <name>Trackpoint 5103</name>
            </trkpt>
            <trkpt lat="50.0973472" lon="11.407668">
                <ele>294.0</ele>
                <time>2020-08-21T15:33:51.000Z</time>
                <name>Trackpoint 5104</name>
            </trkpt>
            <trkpt lat="50.097408" lon="11.407592">
                <ele>294.0</ele>
                <time>2020-08-21T15:33:53.000Z</time>
                <name>Trackpoint 5105</name>
            </trkpt>
            <trkpt lat="50.0974656" lon="11.40752">
                <ele>294.0</ele>
                <time>2020-08-21T15:33:55.000Z</time>
                <name>Trackpoint 5106</name>
            </trkpt>
            <trkpt lat="50.0975232" lon="11.4074352">
                <ele>294.0</ele>
                <time>2020-08-21T15:34:15.000Z</time>
                <name>Trackpoint 5107</name>
            </trkpt>
            <trkpt lat="50.0975872" lon="11.4073416">
                <ele>294.0</ele>
                <time>2020-08-21T15:34:19.000Z</time>
                <name>Trackpoint 5108</name>
            </trkpt>
            <trkpt lat="50.0976672" lon="11.4072312">
                <ele>294.0</ele>
                <time>2020-08-21T15:34:22.000Z</time>
                <name>Trackpoint 5109</name>
            </trkpt>
            <trkpt lat="50.0977248" lon="11.4071504">
                <ele>294.0</ele>
                <time>2020-08-21T15:34:24.000Z</time>
                <name>Trackpoint 5110</name>
            </trkpt>
            <trkpt lat="50.0977824" lon="11.407068">
                <ele>294.0</ele>
                <time>2020-08-21T15:34:26.000Z</time>
                <name>Trackpoint 5111</name>
            </trkpt>
            <trkpt lat="50.0978464" lon="11.4069904">
                <ele>293.0</ele>
                <time>2020-08-21T15:34:28.000Z</time>
                <name>Trackpoint 5112</name>
            </trkpt>
            <trkpt lat="50.0979104" lon="11.4069048">
                <ele>293.0</ele>
                <time>2020-08-21T15:34:30.000Z</time>
                <name>Trackpoint 5113</name>
            </trkpt>
            <trkpt lat="50.0979808" lon="11.4068216">
                <ele>294.0</ele>
                <time>2020-08-21T15:34:32.000Z</time>
                <name>Trackpoint 5114</name>
            </trkpt>
            <trkpt lat="50.0980448" lon="11.406732">
                <ele>293.0</ele>
                <time>2020-08-21T15:34:34.000Z</time>
                <name>Trackpoint 5115</name>
            </trkpt>
            <trkpt lat="50.0981088" lon="11.4066416">
                <ele>293.0</ele>
                <time>2020-08-21T15:34:36.000Z</time>
                <name>Trackpoint 5116</name>
            </trkpt>
            <trkpt lat="50.098176" lon="11.4065464">
                <ele>293.0</ele>
                <time>2020-08-21T15:34:38.000Z</time>
                <name>Trackpoint 5117</name>
            </trkpt>
            <trkpt lat="50.0982336" lon="11.4064432">
                <ele>293.0</ele>
                <time>2020-08-21T15:34:40.000Z</time>
                <name>Trackpoint 5118</name>
            </trkpt>
            <trkpt lat="50.0982944" lon="11.4063328">
                <ele>293.0</ele>
                <time>2020-08-21T15:34:42.000Z</time>
                <name>Trackpoint 5119</name>
            </trkpt>
            <trkpt lat="50.098352" lon="11.406228">
                <ele>293.0</ele>
                <time>2020-08-21T15:34:44.000Z</time>
                <name>Trackpoint 5120</name>
            </trkpt>
            <trkpt lat="50.098416" lon="11.4061168">
                <ele>293.0</ele>
                <time>2020-08-21T15:34:46.000Z</time>
                <name>Trackpoint 5121</name>
            </trkpt>
            <trkpt lat="50.0984672" lon="11.4060032">
                <ele>293.0</ele>
                <time>2020-08-21T15:34:48.000Z</time>
                <name>Trackpoint 5122</name>
            </trkpt>
            <trkpt lat="50.0985344" lon="11.4058912">
                <ele>293.0</ele>
                <time>2020-08-21T15:34:50.000Z</time>
                <name>Trackpoint 5123</name>
            </trkpt>
            <trkpt lat="50.0986112" lon="11.4057712">
                <ele>293.0</ele>
                <time>2020-08-21T15:34:52.000Z</time>
                <name>Trackpoint 5124</name>
            </trkpt>
            <trkpt lat="50.0986816" lon="11.4056568">
                <ele>293.0</ele>
                <time>2020-08-21T15:34:54.000Z</time>
                <name>Trackpoint 5125</name>
            </trkpt>
            <trkpt lat="50.098752" lon="11.4055344">
                <ele>293.0</ele>
                <time>2020-08-21T15:34:56.000Z</time>
                <name>Trackpoint 5126</name>
            </trkpt>
            <trkpt lat="50.0988288" lon="11.4054096">
                <ele>293.0</ele>
                <time>2020-08-21T15:34:58.000Z</time>
                <name>Trackpoint 5127</name>
            </trkpt>
            <trkpt lat="50.098896" lon="11.4052912">
                <ele>293.0</ele>
                <time>2020-08-21T15:35:00.000Z</time>
                <name>Trackpoint 5128</name>
            </trkpt>
            <trkpt lat="50.0989632" lon="11.4051704">
                <ele>293.0</ele>
                <time>2020-08-21T15:35:02.000Z</time>
                <name>Trackpoint 5129</name>
            </trkpt>
            <trkpt lat="50.0990336" lon="11.40504">
                <ele>293.0</ele>
                <time>2020-08-21T15:35:04.000Z</time>
                <name>Trackpoint 5130</name>
            </trkpt>
            <trkpt lat="50.0991072" lon="11.4049216">
                <ele>294.0</ele>
                <time>2020-08-21T15:35:06.000Z</time>
                <name>Trackpoint 5131</name>
            </trkpt>
            <trkpt lat="50.0991776" lon="11.4048072">
                <ele>294.0</ele>
                <time>2020-08-21T15:35:08.000Z</time>
                <name>Trackpoint 5132</name>
            </trkpt>
            <trkpt lat="50.0992512" lon="11.404692">
                <ele>294.0</ele>
                <time>2020-08-21T15:35:10.000Z</time>
                <name>Trackpoint 5133</name>
            </trkpt>
            <trkpt lat="50.099312" lon="11.4045784">
                <ele>294.0</ele>
                <time>2020-08-21T15:35:12.000Z</time>
                <name>Trackpoint 5134</name>
            </trkpt>
            <trkpt lat="50.0993856" lon="11.4044712">
                <ele>294.0</ele>
                <time>2020-08-21T15:35:14.000Z</time>
                <name>Trackpoint 5135</name>
            </trkpt>
            <trkpt lat="50.0994496" lon="11.4043728">
                <ele>294.0</ele>
                <time>2020-08-21T15:35:16.000Z</time>
                <name>Trackpoint 5136</name>
            </trkpt>
            <trkpt lat="50.0995104" lon="11.40428">
                <ele>294.0</ele>
                <time>2020-08-21T15:35:18.000Z</time>
                <name>Trackpoint 5137</name>
            </trkpt>
            <trkpt lat="50.0995744" lon="11.4041952">
                <ele>294.0</ele>
                <time>2020-08-21T15:35:20.000Z</time>
                <name>Trackpoint 5138</name>
            </trkpt>
            <trkpt lat="50.0996384" lon="11.4041136">
                <ele>294.0</ele>
                <time>2020-08-21T15:35:22.000Z</time>
                <name>Trackpoint 5139</name>
            </trkpt>
            <trkpt lat="50.0997024" lon="11.4040448">
                <ele>294.0</ele>
                <time>2020-08-21T15:35:24.000Z</time>
                <name>Trackpoint 5140</name>
            </trkpt>
            <trkpt lat="50.0997824" lon="11.4039968">
                <ele>294.0</ele>
                <time>2020-08-21T15:35:26.000Z</time>
                <name>Trackpoint 5141</name>
            </trkpt>
            <trkpt lat="50.0998944" lon="11.4039248">
                <ele>294.0</ele>
                <time>2020-08-21T15:35:29.000Z</time>
                <name>Trackpoint 5142</name>
            </trkpt>
            <trkpt lat="50.0999808" lon="11.4038536">
                <ele>294.0</ele>
                <time>2020-08-21T15:35:31.000Z</time>
                <name>Trackpoint 5143</name>
            </trkpt>
            <trkpt lat="50.1000512" lon="11.40376">
                <ele>294.0</ele>
                <time>2020-08-21T15:35:33.000Z</time>
                <name>Trackpoint 5144</name>
            </trkpt>
            <trkpt lat="50.100112" lon="11.403648">
                <ele>294.0</ele>
                <time>2020-08-21T15:35:35.000Z</time>
                <name>Trackpoint 5145</name>
            </trkpt>
            <trkpt lat="50.1001664" lon="11.4035184">
                <ele>294.0</ele>
                <time>2020-08-21T15:35:37.000Z</time>
                <name>Trackpoint 5146</name>
            </trkpt>
            <trkpt lat="50.1002336" lon="11.4033832">
                <ele>294.0</ele>
                <time>2020-08-21T15:35:39.000Z</time>
                <name>Trackpoint 5147</name>
            </trkpt>
            <trkpt lat="50.1002976" lon="11.4032536">
                <ele>295.0</ele>
                <time>2020-08-21T15:35:41.000Z</time>
                <name>Trackpoint 5148</name>
            </trkpt>
            <trkpt lat="50.100352" lon="11.4031384">
                <ele>295.0</ele>
                <time>2020-08-21T15:35:43.000Z</time>
                <name>Trackpoint 5149</name>
            </trkpt>
            <trkpt lat="50.1004288" lon="11.4030512">
                <ele>295.0</ele>
                <time>2020-08-21T15:35:45.000Z</time>
                <name>Trackpoint 5150</name>
            </trkpt>
            <trkpt lat="50.1005184" lon="11.4029728">
                <ele>295.0</ele>
                <time>2020-08-21T15:35:47.000Z</time>
                <name>Trackpoint 5151</name>
            </trkpt>
            <trkpt lat="50.1006016" lon="11.402908">
                <ele>295.0</ele>
                <time>2020-08-21T15:35:49.000Z</time>
                <name>Trackpoint 5152</name>
            </trkpt>
            <trkpt lat="50.100688" lon="11.4028664">
                <ele>295.0</ele>
                <time>2020-08-21T15:35:51.000Z</time>
                <name>Trackpoint 5153</name>
            </trkpt>
            <trkpt lat="50.1007808" lon="11.4028464">
                <ele>295.0</ele>
                <time>2020-08-21T15:35:53.000Z</time>
                <name>Trackpoint 5154</name>
            </trkpt>
            <trkpt lat="50.1008832" lon="11.4028232">
                <ele>295.0</ele>
                <time>2020-08-21T15:35:55.000Z</time>
                <name>Trackpoint 5155</name>
            </trkpt>
            <trkpt lat="50.1009792" lon="11.402808">
                <ele>295.0</ele>
                <time>2020-08-21T15:35:57.000Z</time>
                <name>Trackpoint 5156</name>
            </trkpt>
            <trkpt lat="50.1010752" lon="11.4027968">
                <ele>294.0</ele>
                <time>2020-08-21T15:35:59.000Z</time>
                <name>Trackpoint 5157</name>
            </trkpt>
            <trkpt lat="50.1011648" lon="11.402788">
                <ele>294.0</ele>
                <time>2020-08-21T15:36:01.000Z</time>
                <name>Trackpoint 5158</name>
            </trkpt>
            <trkpt lat="50.1012928" lon="11.402792">
                <ele>294.0</ele>
                <time>2020-08-21T15:36:04.000Z</time>
                <name>Trackpoint 5159</name>
            </trkpt>
            <trkpt lat="50.1014016" lon="11.4028">
                <ele>294.0</ele>
                <time>2020-08-21T15:36:07.000Z</time>
                <name>Trackpoint 5160</name>
            </trkpt>
            <trkpt lat="50.101504" lon="11.4028584">
                <ele>294.0</ele>
                <time>2020-08-21T15:36:11.000Z</time>
                <name>Trackpoint 5161</name>
            </trkpt>
            <trkpt lat="50.1015552" lon="11.4029752">
                <ele>294.0</ele>
                <time>2020-08-21T15:36:14.000Z</time>
                <name>Trackpoint 5162</name>
            </trkpt>
            <trkpt lat="50.1015808" lon="11.4030688">
                <ele>295.0</ele>
                <time>2020-08-21T15:36:18.000Z</time>
                <name>Trackpoint 5163</name>
            </trkpt>
            <trkpt lat="50.1015968" lon="11.4031736">
                <ele>296.0</ele>
                <time>2020-08-21T15:47:26.000Z</time>
                <name>Trackpoint 5164</name>
            </trkpt>
            <trkpt lat="50.1016" lon="11.40328">
                <ele>296.0</ele>
                <time>2020-08-21T15:47:28.000Z</time>
                <name>Trackpoint 5165</name>
            </trkpt>
            <trkpt lat="50.1016096" lon="11.4034008">
                <ele>296.0</ele>
                <time>2020-08-21T15:47:30.000Z</time>
                <name>Trackpoint 5166</name>
            </trkpt>
            <trkpt lat="50.1016032" lon="11.403532">
                <ele>296.0</ele>
                <time>2020-08-21T15:47:32.000Z</time>
                <name>Trackpoint 5167</name>
            </trkpt>
            <trkpt lat="50.1015808" lon="11.4036712">
                <ele>296.0</ele>
                <time>2020-08-21T15:47:34.000Z</time>
                <name>Trackpoint 5168</name>
            </trkpt>
            <trkpt lat="50.1015712" lon="11.4038184">
                <ele>296.0</ele>
                <time>2020-08-21T15:47:36.000Z</time>
                <name>Trackpoint 5169</name>
            </trkpt>
            <trkpt lat="50.1015648" lon="11.4039744">
                <ele>296.0</ele>
                <time>2020-08-21T15:47:38.000Z</time>
                <name>Trackpoint 5170</name>
            </trkpt>
            <trkpt lat="50.1015648" lon="11.404132">
                <ele>296.0</ele>
                <time>2020-08-21T15:47:40.000Z</time>
                <name>Trackpoint 5171</name>
            </trkpt>
            <trkpt lat="50.1015744" lon="11.4043032">
                <ele>296.0</ele>
                <time>2020-08-21T15:47:42.000Z</time>
                <name>Trackpoint 5172</name>
            </trkpt>
            <trkpt lat="50.1015808" lon="11.4044752">
                <ele>296.0</ele>
                <time>2020-08-21T15:47:44.000Z</time>
                <name>Trackpoint 5173</name>
            </trkpt>
            <trkpt lat="50.1015968" lon="11.4046536">
                <ele>296.0</ele>
                <time>2020-08-21T15:47:46.000Z</time>
                <name>Trackpoint 5174</name>
            </trkpt>
            <trkpt lat="50.1016032" lon="11.4048384">
                <ele>296.0</ele>
                <time>2020-08-21T15:47:48.000Z</time>
                <name>Trackpoint 5175</name>
            </trkpt>
            <trkpt lat="50.1016" lon="11.40502">
                <ele>296.0</ele>
                <time>2020-08-21T15:47:50.000Z</time>
                <name>Trackpoint 5176</name>
            </trkpt>
            <trkpt lat="50.1016" lon="11.4051104">
                <ele>296.0</ele>
                <time>2020-08-21T15:47:51.000Z</time>
                <name>Trackpoint 5177</name>
            </trkpt>
            <trkpt lat="50.1016" lon="11.4052032">
                <ele>296.0</ele>
                <time>2020-08-21T15:47:52.000Z</time>
                <name>Trackpoint 5178</name>
            </trkpt>
            <trkpt lat="50.1016" lon="11.405296">
                <ele>296.0</ele>
                <time>2020-08-21T15:47:53.000Z</time>
                <name>Trackpoint 5179</name>
            </trkpt>
            <trkpt lat="50.1016032" lon="11.405388">
                <ele>296.0</ele>
                <time>2020-08-21T15:47:54.000Z</time>
                <name>Trackpoint 5180</name>
            </trkpt>
            <trkpt lat="50.1016032" lon="11.40548">
                <ele>296.0</ele>
                <time>2020-08-21T15:47:55.000Z</time>
                <name>Trackpoint 5181</name>
            </trkpt>
            <trkpt lat="50.1016032" lon="11.4055728">
                <ele>296.0</ele>
                <time>2020-08-21T15:47:56.000Z</time>
                <name>Trackpoint 5182</name>
            </trkpt>
            <trkpt lat="50.1016032" lon="11.4056664">
                <ele>296.0</ele>
                <time>2020-08-21T15:47:57.000Z</time>
                <name>Trackpoint 5183</name>
            </trkpt>
            <trkpt lat="50.1016032" lon="11.4057568">
                <ele>296.0</ele>
                <time>2020-08-21T15:47:58.000Z</time>
                <name>Trackpoint 5184</name>
            </trkpt>
            <trkpt lat="50.1016096" lon="11.4058512">
                <ele>296.0</ele>
                <time>2020-08-21T15:47:59.000Z</time>
                <name>Trackpoint 5185</name>
            </trkpt>
            <trkpt lat="50.1016096" lon="11.4059464">
                <ele>296.0</ele>
                <time>2020-08-21T15:48:00.000Z</time>
                <name>Trackpoint 5186</name>
            </trkpt>
            <trkpt lat="50.1016032" lon="11.4061232">
                <ele>296.0</ele>
                <time>2020-08-21T15:48:02.000Z</time>
                <name>Trackpoint 5187</name>
            </trkpt>
            <trkpt lat="50.1016" lon="11.4062144">
                <ele>296.0</ele>
                <time>2020-08-21T15:48:03.000Z</time>
                <name>Trackpoint 5188</name>
            </trkpt>
            <trkpt lat="50.1015968" lon="11.4063056">
                <ele>296.0</ele>
                <time>2020-08-21T15:48:04.000Z</time>
                <name>Trackpoint 5189</name>
            </trkpt>
            <trkpt lat="50.1015968" lon="11.4064864">
                <ele>296.0</ele>
                <time>2020-08-21T15:48:06.000Z</time>
                <name>Trackpoint 5190</name>
            </trkpt>
            <trkpt lat="50.1015936" lon="11.4066648">
                <ele>296.0</ele>
                <time>2020-08-21T15:48:08.000Z</time>
                <name>Trackpoint 5191</name>
            </trkpt>
            <trkpt lat="50.1015936" lon="11.4067584">
                <ele>296.0</ele>
                <time>2020-08-21T15:48:09.000Z</time>
                <name>Trackpoint 5192</name>
            </trkpt>
            <trkpt lat="50.1015968" lon="11.4068496">
                <ele>296.0</ele>
                <time>2020-08-21T15:48:10.000Z</time>
                <name>Trackpoint 5193</name>
            </trkpt>
            <trkpt lat="50.1015968" lon="11.4069432">
                <ele>296.0</ele>
                <time>2020-08-21T15:48:11.000Z</time>
                <name>Trackpoint 5194</name>
            </trkpt>
            <trkpt lat="50.1015968" lon="11.4070384">
                <ele>296.0</ele>
                <time>2020-08-21T15:48:12.000Z</time>
                <name>Trackpoint 5195</name>
            </trkpt>
            <trkpt lat="50.1015968" lon="11.4071328">
                <ele>296.0</ele>
                <time>2020-08-21T15:48:13.000Z</time>
                <name>Trackpoint 5196</name>
            </trkpt>
            <trkpt lat="50.1015968" lon="11.4072264">
                <ele>296.0</ele>
                <time>2020-08-21T15:48:14.000Z</time>
                <name>Trackpoint 5197</name>
            </trkpt>
            <trkpt lat="50.1015936" lon="11.4073184">
                <ele>296.0</ele>
                <time>2020-08-21T15:48:15.000Z</time>
                <name>Trackpoint 5198</name>
            </trkpt>
            <trkpt lat="50.1015936" lon="11.4074088">
                <ele>296.0</ele>
                <time>2020-08-21T15:48:16.000Z</time>
                <name>Trackpoint 5199</name>
            </trkpt>
            <trkpt lat="50.101584" lon="11.40758">
                <ele>296.0</ele>
                <time>2020-08-21T15:48:18.000Z</time>
                <name>Trackpoint 5200</name>
            </trkpt>
            <trkpt lat="50.1015808" lon="11.4076704">
                <ele>296.0</ele>
                <time>2020-08-21T15:48:19.000Z</time>
                <name>Trackpoint 5201</name>
            </trkpt>
            <trkpt lat="50.1015776" lon="11.4077616">
                <ele>296.0</ele>
                <time>2020-08-21T15:48:20.000Z</time>
                <name>Trackpoint 5202</name>
            </trkpt>
            <trkpt lat="50.1015744" lon="11.4078568">
                <ele>296.0</ele>
                <time>2020-08-21T15:48:21.000Z</time>
                <name>Trackpoint 5203</name>
            </trkpt>
            <trkpt lat="50.1015712" lon="11.4079512">
                <ele>296.0</ele>
                <time>2020-08-21T15:48:22.000Z</time>
                <name>Trackpoint 5204</name>
            </trkpt>
            <trkpt lat="50.1015712" lon="11.4080416">
                <ele>296.0</ele>
                <time>2020-08-21T15:48:23.000Z</time>
                <name>Trackpoint 5205</name>
            </trkpt>
            <trkpt lat="50.1015648" lon="11.4081336">
                <ele>296.0</ele>
                <time>2020-08-21T15:48:24.000Z</time>
                <name>Trackpoint 5206</name>
            </trkpt>
            <trkpt lat="50.1015616" lon="11.4082272">
                <ele>296.0</ele>
                <time>2020-08-21T15:48:25.000Z</time>
                <name>Trackpoint 5207</name>
            </trkpt>
            <trkpt lat="50.1015584" lon="11.4083208">
                <ele>296.0</ele>
                <time>2020-08-21T15:48:26.000Z</time>
                <name>Trackpoint 5208</name>
            </trkpt>
            <trkpt lat="50.1015552" lon="11.4084128">
                <ele>296.0</ele>
                <time>2020-08-21T15:48:27.000Z</time>
                <name>Trackpoint 5209</name>
            </trkpt>
            <trkpt lat="50.1015552" lon="11.4085064">
                <ele>296.0</ele>
                <time>2020-08-21T15:48:28.000Z</time>
                <name>Trackpoint 5210</name>
            </trkpt>
            <trkpt lat="50.1015488" lon="11.4086">
                <ele>296.0</ele>
                <time>2020-08-21T15:48:29.000Z</time>
                <name>Trackpoint 5211</name>
            </trkpt>
            <trkpt lat="50.1015488" lon="11.4086936">
                <ele>296.0</ele>
                <time>2020-08-21T15:48:30.000Z</time>
                <name>Trackpoint 5212</name>
            </trkpt>
            <trkpt lat="50.1015392" lon="11.4088752">
                <ele>296.0</ele>
                <time>2020-08-21T15:48:32.000Z</time>
                <name>Trackpoint 5213</name>
            </trkpt>
            <trkpt lat="50.1015392" lon="11.4089672">
                <ele>296.0</ele>
                <time>2020-08-21T15:48:33.000Z</time>
                <name>Trackpoint 5214</name>
            </trkpt>
            <trkpt lat="50.1015392" lon="11.4090616">
                <ele>296.0</ele>
                <time>2020-08-21T15:48:34.000Z</time>
                <name>Trackpoint 5215</name>
            </trkpt>
            <trkpt lat="50.101536" lon="11.4091616">
                <ele>296.0</ele>
                <time>2020-08-21T15:48:35.000Z</time>
                <name>Trackpoint 5216</name>
            </trkpt>
            <trkpt lat="50.101536" lon="11.4092528">
                <ele>296.0</ele>
                <time>2020-08-21T15:48:36.000Z</time>
                <name>Trackpoint 5217</name>
            </trkpt>
            <trkpt lat="50.1015328" lon="11.409344">
                <ele>296.0</ele>
                <time>2020-08-21T15:48:37.000Z</time>
                <name>Trackpoint 5218</name>
            </trkpt>
            <trkpt lat="50.1015296" lon="11.4095248">
                <ele>296.0</ele>
                <time>2020-08-21T15:48:39.000Z</time>
                <name>Trackpoint 5219</name>
            </trkpt>
            <trkpt lat="50.1015168" lon="11.4096984">
                <ele>296.0</ele>
                <time>2020-08-21T15:48:41.000Z</time>
                <name>Trackpoint 5220</name>
            </trkpt>
            <trkpt lat="50.1015168" lon="11.4098656">
                <ele>296.0</ele>
                <time>2020-08-21T15:48:43.000Z</time>
                <name>Trackpoint 5221</name>
            </trkpt>
            <trkpt lat="50.1015232" lon="11.4100416">
                <ele>296.0</ele>
                <time>2020-08-21T15:48:45.000Z</time>
                <name>Trackpoint 5222</name>
            </trkpt>
            <trkpt lat="50.1015296" lon="11.4102136">
                <ele>296.0</ele>
                <time>2020-08-21T15:48:47.000Z</time>
                <name>Trackpoint 5223</name>
            </trkpt>
            <trkpt lat="50.1015328" lon="11.4103872">
                <ele>296.0</ele>
                <time>2020-08-21T15:48:49.000Z</time>
                <name>Trackpoint 5224</name>
            </trkpt>
            <trkpt lat="50.101536" lon="11.4105584">
                <ele>296.0</ele>
                <time>2020-08-21T15:48:51.000Z</time>
                <name>Trackpoint 5225</name>
            </trkpt>
            <trkpt lat="50.1015552" lon="11.41072">
                <ele>296.0</ele>
                <time>2020-08-21T15:48:53.000Z</time>
                <name>Trackpoint 5226</name>
            </trkpt>
            <trkpt lat="50.1015584" lon="11.4108912">
                <ele>296.0</ele>
                <time>2020-08-21T15:48:55.000Z</time>
                <name>Trackpoint 5227</name>
            </trkpt>
            <trkpt lat="50.1015616" lon="11.4110536">
                <ele>296.0</ele>
                <time>2020-08-21T15:48:57.000Z</time>
                <name>Trackpoint 5228</name>
            </trkpt>
            <trkpt lat="50.1015744" lon="11.4112152">
                <ele>296.0</ele>
                <time>2020-08-21T15:48:59.000Z</time>
                <name>Trackpoint 5229</name>
            </trkpt>
            <trkpt lat="50.1015904" lon="11.4113848">
                <ele>296.0</ele>
                <time>2020-08-21T15:49:01.000Z</time>
                <name>Trackpoint 5230</name>
            </trkpt>
            <trkpt lat="50.1016128" lon="11.4115496">
                <ele>296.0</ele>
                <time>2020-08-21T15:49:03.000Z</time>
                <name>Trackpoint 5231</name>
            </trkpt>
            <trkpt lat="50.1016352" lon="11.4117096">
                <ele>296.0</ele>
                <time>2020-08-21T15:49:05.000Z</time>
                <name>Trackpoint 5232</name>
            </trkpt>
            <trkpt lat="50.1016576" lon="11.4118632">
                <ele>296.0</ele>
                <time>2020-08-21T15:49:07.000Z</time>
                <name>Trackpoint 5233</name>
            </trkpt>
            <trkpt lat="50.1016736" lon="11.4120168">
                <ele>296.0</ele>
                <time>2020-08-21T15:49:09.000Z</time>
                <name>Trackpoint 5234</name>
            </trkpt>
            <trkpt lat="50.1016896" lon="11.4121688">
                <ele>296.0</ele>
                <time>2020-08-21T15:49:11.000Z</time>
                <name>Trackpoint 5235</name>
            </trkpt>
            <trkpt lat="50.1017024" lon="11.4123312">
                <ele>296.0</ele>
                <time>2020-08-21T15:49:13.000Z</time>
                <name>Trackpoint 5236</name>
            </trkpt>
            <trkpt lat="50.101728" lon="11.4124944">
                <ele>296.0</ele>
                <time>2020-08-21T15:49:15.000Z</time>
                <name>Trackpoint 5237</name>
            </trkpt>
            <trkpt lat="50.1017472" lon="11.4126464">
                <ele>296.0</ele>
                <time>2020-08-21T15:49:17.000Z</time>
                <name>Trackpoint 5238</name>
            </trkpt>
            <trkpt lat="50.1017696" lon="11.412804">
                <ele>296.0</ele>
                <time>2020-08-21T15:49:19.000Z</time>
                <name>Trackpoint 5239</name>
            </trkpt>
            <trkpt lat="50.1017888" lon="11.4129432">
                <ele>296.0</ele>
                <time>2020-08-21T15:49:21.000Z</time>
                <name>Trackpoint 5240</name>
            </trkpt>
            <trkpt lat="50.1018144" lon="11.4130784">
                <ele>296.0</ele>
                <time>2020-08-21T15:49:23.000Z</time>
                <name>Trackpoint 5241</name>
            </trkpt>
            <trkpt lat="50.1018304" lon="11.4132048">
                <ele>296.0</ele>
                <time>2020-08-21T15:49:25.000Z</time>
                <name>Trackpoint 5242</name>
            </trkpt>
            <trkpt lat="50.1018496" lon="11.4133232">
                <ele>296.0</ele>
                <time>2020-08-21T15:49:27.000Z</time>
                <name>Trackpoint 5243</name>
            </trkpt>
            <trkpt lat="50.1018624" lon="11.413428">
                <ele>296.0</ele>
                <time>2020-08-21T15:49:29.000Z</time>
                <name>Trackpoint 5244</name>
            </trkpt>
            <trkpt lat="50.1018912" lon="11.4135248">
                <ele>296.0</ele>
                <time>2020-08-21T15:49:32.000Z</time>
                <name>Trackpoint 5245</name>
            </trkpt>
            <trkpt lat="50.1019264" lon="11.4136168">
                <ele>297.0</ele>
                <time>2020-08-21T15:49:51.000Z</time>
                <name>Trackpoint 5246</name>
            </trkpt>
            <trkpt lat="50.1019392" lon="11.41372">
                <ele>297.0</ele>
                <time>2020-08-21T15:49:54.000Z</time>
                <name>Trackpoint 5247</name>
            </trkpt>
            <trkpt lat="50.101968" lon="11.4138416">
                <ele>297.0</ele>
                <time>2020-08-21T15:49:56.000Z</time>
                <name>Trackpoint 5248</name>
            </trkpt>
            <trkpt lat="50.1019968" lon="11.4139792">
                <ele>297.0</ele>
                <time>2020-08-21T15:49:58.000Z</time>
                <name>Trackpoint 5249</name>
            </trkpt>
            <trkpt lat="50.102032" lon="11.4141032">
                <ele>297.0</ele>
                <time>2020-08-21T15:50:00.000Z</time>
                <name>Trackpoint 5250</name>
            </trkpt>
            <trkpt lat="50.1020704" lon="11.414244">
                <ele>297.0</ele>
                <time>2020-08-21T15:50:02.000Z</time>
                <name>Trackpoint 5251</name>
            </trkpt>
            <trkpt lat="50.1021056" lon="11.414396">
                <ele>296.0</ele>
                <time>2020-08-21T15:50:04.000Z</time>
                <name>Trackpoint 5252</name>
            </trkpt>
            <trkpt lat="50.1021376" lon="11.4145832">
                <ele>296.0</ele>
                <time>2020-08-21T15:50:06.000Z</time>
                <name>Trackpoint 5253</name>
            </trkpt>
            <trkpt lat="50.1021664" lon="11.414688">
                <ele>296.0</ele>
                <time>2020-08-21T15:50:07.000Z</time>
                <name>Trackpoint 5254</name>
            </trkpt>
            <trkpt lat="50.1021792" lon="11.414792">
                <ele>296.0</ele>
                <time>2020-08-21T15:50:08.000Z</time>
                <name>Trackpoint 5255</name>
            </trkpt>
            <trkpt lat="50.1022048" lon="11.4148928">
                <ele>296.0</ele>
                <time>2020-08-21T15:50:09.000Z</time>
                <name>Trackpoint 5256</name>
            </trkpt>
            <trkpt lat="50.1022304" lon="11.4150016">
                <ele>296.0</ele>
                <time>2020-08-21T15:50:10.000Z</time>
                <name>Trackpoint 5257</name>
            </trkpt>
            <trkpt lat="50.1022528" lon="11.4151032">
                <ele>296.0</ele>
                <time>2020-08-21T15:50:11.000Z</time>
                <name>Trackpoint 5258</name>
            </trkpt>
            <trkpt lat="50.1022752" lon="11.4152024">
                <ele>296.0</ele>
                <time>2020-08-21T15:50:12.000Z</time>
                <name>Trackpoint 5259</name>
            </trkpt>
            <trkpt lat="50.1022976" lon="11.4152968">
                <ele>296.0</ele>
                <time>2020-08-21T15:50:13.000Z</time>
                <name>Trackpoint 5260</name>
            </trkpt>
            <trkpt lat="50.1023232" lon="11.4153864">
                <ele>296.0</ele>
                <time>2020-08-21T15:50:14.000Z</time>
                <name>Trackpoint 5261</name>
            </trkpt>
            <trkpt lat="50.1023584" lon="11.4155568">
                <ele>296.0</ele>
                <time>2020-08-21T15:50:16.000Z</time>
                <name>Trackpoint 5262</name>
            </trkpt>
            <trkpt lat="50.1024032" lon="11.4157264">
                <ele>296.0</ele>
                <time>2020-08-21T15:50:18.000Z</time>
                <name>Trackpoint 5263</name>
            </trkpt>
            <trkpt lat="50.102448" lon="11.4158848">
                <ele>296.0</ele>
                <time>2020-08-21T15:50:20.000Z</time>
                <name>Trackpoint 5264</name>
            </trkpt>
            <trkpt lat="50.1024896" lon="11.4160368">
                <ele>296.0</ele>
                <time>2020-08-21T15:50:22.000Z</time>
                <name>Trackpoint 5265</name>
            </trkpt>
            <trkpt lat="50.102528" lon="11.416188">
                <ele>296.0</ele>
                <time>2020-08-21T15:50:24.000Z</time>
                <name>Trackpoint 5266</name>
            </trkpt>
            <trkpt lat="50.1025728" lon="11.4163368">
                <ele>296.0</ele>
                <time>2020-08-21T15:50:26.000Z</time>
                <name>Trackpoint 5267</name>
            </trkpt>
            <trkpt lat="50.102624" lon="11.4164816">
                <ele>296.0</ele>
                <time>2020-08-21T15:50:28.000Z</time>
                <name>Trackpoint 5268</name>
            </trkpt>
            <trkpt lat="50.1026528" lon="11.4166216">
                <ele>296.0</ele>
                <time>2020-08-21T15:50:30.000Z</time>
                <name>Trackpoint 5269</name>
            </trkpt>
            <trkpt lat="50.1027008" lon="11.4167744">
                <ele>296.0</ele>
                <time>2020-08-21T15:50:32.000Z</time>
                <name>Trackpoint 5270</name>
            </trkpt>
            <trkpt lat="50.1027328" lon="11.4169304">
                <ele>296.0</ele>
                <time>2020-08-21T15:50:34.000Z</time>
                <name>Trackpoint 5271</name>
            </trkpt>
            <trkpt lat="50.1027712" lon="11.4170904">
                <ele>295.0</ele>
                <time>2020-08-21T15:50:36.000Z</time>
                <name>Trackpoint 5272</name>
            </trkpt>
            <trkpt lat="50.1028064" lon="11.4172448">
                <ele>295.0</ele>
                <time>2020-08-21T15:50:38.000Z</time>
                <name>Trackpoint 5273</name>
            </trkpt>
            <trkpt lat="50.1028352" lon="11.417408">
                <ele>295.0</ele>
                <time>2020-08-21T15:50:40.000Z</time>
                <name>Trackpoint 5274</name>
            </trkpt>
            <trkpt lat="50.1028512" lon="11.4175664">
                <ele>295.0</ele>
                <time>2020-08-21T15:50:42.000Z</time>
                <name>Trackpoint 5275</name>
            </trkpt>
            <trkpt lat="50.102864" lon="11.4177248">
                <ele>295.0</ele>
                <time>2020-08-21T15:50:44.000Z</time>
                <name>Trackpoint 5276</name>
            </trkpt>
            <trkpt lat="50.1028704" lon="11.4178864">
                <ele>296.0</ele>
                <time>2020-08-21T15:50:46.000Z</time>
                <name>Trackpoint 5277</name>
            </trkpt>
            <trkpt lat="50.1028896" lon="11.4180496">
                <ele>296.0</ele>
                <time>2020-08-21T15:50:48.000Z</time>
                <name>Trackpoint 5278</name>
            </trkpt>
            <trkpt lat="50.1029088" lon="11.4182256">
                <ele>296.0</ele>
                <time>2020-08-21T15:50:50.000Z</time>
                <name>Trackpoint 5279</name>
            </trkpt>
            <trkpt lat="50.102928" lon="11.4184">
                <ele>297.0</ele>
                <time>2020-08-21T15:50:52.000Z</time>
                <name>Trackpoint 5280</name>
            </trkpt>
            <trkpt lat="50.1029344" lon="11.4185648">
                <ele>296.0</ele>
                <time>2020-08-21T15:50:54.000Z</time>
                <name>Trackpoint 5281</name>
            </trkpt>
            <trkpt lat="50.102944" lon="11.41872">
                <ele>297.0</ele>
                <time>2020-08-21T15:50:56.000Z</time>
                <name>Trackpoint 5282</name>
            </trkpt>
            <trkpt lat="50.10296" lon="11.4188808">
                <ele>297.0</ele>
                <time>2020-08-21T15:50:58.000Z</time>
                <name>Trackpoint 5283</name>
            </trkpt>
            <trkpt lat="50.102992" lon="11.41904">
                <ele>297.0</ele>
                <time>2020-08-21T15:51:00.000Z</time>
                <name>Trackpoint 5284</name>
            </trkpt>
            <trkpt lat="50.1030304" lon="11.4191968">
                <ele>297.0</ele>
                <time>2020-08-21T15:51:02.000Z</time>
                <name>Trackpoint 5285</name>
            </trkpt>
            <trkpt lat="50.103072" lon="11.4193472">
                <ele>297.0</ele>
                <time>2020-08-21T15:51:04.000Z</time>
                <name>Trackpoint 5286</name>
            </trkpt>
            <trkpt lat="50.1031008" lon="11.4194944">
                <ele>297.0</ele>
                <time>2020-08-21T15:51:06.000Z</time>
                <name>Trackpoint 5287</name>
            </trkpt>
            <trkpt lat="50.1031424" lon="11.419648">
                <ele>297.0</ele>
                <time>2020-08-21T15:51:08.000Z</time>
                <name>Trackpoint 5288</name>
            </trkpt>
            <trkpt lat="50.1031808" lon="11.4198">
                <ele>297.0</ele>
                <time>2020-08-21T15:51:10.000Z</time>
                <name>Trackpoint 5289</name>
            </trkpt>
            <trkpt lat="50.1032224" lon="11.4199552">
                <ele>297.0</ele>
                <time>2020-08-21T15:51:12.000Z</time>
                <name>Trackpoint 5290</name>
            </trkpt>
            <trkpt lat="50.1032576" lon="11.4201136">
                <ele>297.0</ele>
                <time>2020-08-21T15:51:14.000Z</time>
                <name>Trackpoint 5291</name>
            </trkpt>
            <trkpt lat="50.1032992" lon="11.4202696">
                <ele>297.0</ele>
                <time>2020-08-21T15:51:16.000Z</time>
                <name>Trackpoint 5292</name>
            </trkpt>
            <trkpt lat="50.103344" lon="11.4204328">
                <ele>297.0</ele>
                <time>2020-08-21T15:51:18.000Z</time>
                <name>Trackpoint 5293</name>
            </trkpt>
            <trkpt lat="50.1033888" lon="11.4205952">
                <ele>297.0</ele>
                <time>2020-08-21T15:51:20.000Z</time>
                <name>Trackpoint 5294</name>
            </trkpt>
            <trkpt lat="50.1034272" lon="11.42076">
                <ele>297.0</ele>
                <time>2020-08-21T15:51:22.000Z</time>
                <name>Trackpoint 5295</name>
            </trkpt>
            <trkpt lat="50.1034688" lon="11.4209272">
                <ele>297.0</ele>
                <time>2020-08-21T15:51:24.000Z</time>
                <name>Trackpoint 5296</name>
            </trkpt>
            <trkpt lat="50.1035168" lon="11.421088">
                <ele>297.0</ele>
                <time>2020-08-21T15:51:26.000Z</time>
                <name>Trackpoint 5297</name>
            </trkpt>
            <trkpt lat="50.1035552" lon="11.4212568">
                <ele>297.0</ele>
                <time>2020-08-21T15:51:28.000Z</time>
                <name>Trackpoint 5298</name>
            </trkpt>
            <trkpt lat="50.1035968" lon="11.42142">
                <ele>297.0</ele>
                <time>2020-08-21T15:51:30.000Z</time>
                <name>Trackpoint 5299</name>
            </trkpt>
            <trkpt lat="50.1036384" lon="11.4215848">
                <ele>297.0</ele>
                <time>2020-08-21T15:51:32.000Z</time>
                <name>Trackpoint 5300</name>
            </trkpt>
            <trkpt lat="50.1036768" lon="11.421752">
                <ele>298.0</ele>
                <time>2020-08-21T15:51:34.000Z</time>
                <name>Trackpoint 5301</name>
            </trkpt>
            <trkpt lat="50.1037152" lon="11.42192">
                <ele>298.0</ele>
                <time>2020-08-21T15:51:36.000Z</time>
                <name>Trackpoint 5302</name>
            </trkpt>
            <trkpt lat="50.1037568" lon="11.42208">
                <ele>298.0</ele>
                <time>2020-08-21T15:51:38.000Z</time>
                <name>Trackpoint 5303</name>
            </trkpt>
            <trkpt lat="50.1037984" lon="11.42224">
                <ele>298.0</ele>
                <time>2020-08-21T15:51:40.000Z</time>
                <name>Trackpoint 5304</name>
            </trkpt>
            <trkpt lat="50.1038368" lon="11.4224056">
                <ele>298.0</ele>
                <time>2020-08-21T15:51:42.000Z</time>
                <name>Trackpoint 5305</name>
            </trkpt>
            <trkpt lat="50.1038784" lon="11.4225664">
                <ele>298.0</ele>
                <time>2020-08-21T15:51:44.000Z</time>
                <name>Trackpoint 5306</name>
            </trkpt>
            <trkpt lat="50.10392" lon="11.4227088">
                <ele>298.0</ele>
                <time>2020-08-21T15:51:46.000Z</time>
                <name>Trackpoint 5307</name>
            </trkpt>
            <trkpt lat="50.103984" lon="11.4228688">
                <ele>298.0</ele>
                <time>2020-08-21T15:51:48.000Z</time>
                <name>Trackpoint 5308</name>
            </trkpt>
            <trkpt lat="50.1040352" lon="11.42304">
                <ele>298.0</ele>
                <time>2020-08-21T15:51:50.000Z</time>
                <name>Trackpoint 5309</name>
            </trkpt>
            <trkpt lat="50.1040512" lon="11.4231304">
                <ele>298.0</ele>
                <time>2020-08-21T15:51:51.000Z</time>
                <name>Trackpoint 5310</name>
            </trkpt>
            <trkpt lat="50.1040928" lon="11.423304">
                <ele>298.0</ele>
                <time>2020-08-21T15:51:53.000Z</time>
                <name>Trackpoint 5311</name>
            </trkpt>
            <trkpt lat="50.1041248" lon="11.4234816">
                <ele>298.0</ele>
                <time>2020-08-21T15:51:55.000Z</time>
                <name>Trackpoint 5312</name>
            </trkpt>
            <trkpt lat="50.104144" lon="11.4235696">
                <ele>298.0</ele>
                <time>2020-08-21T15:51:56.000Z</time>
                <name>Trackpoint 5313</name>
            </trkpt>
            <trkpt lat="50.1041728" lon="11.4237448">
                <ele>298.0</ele>
                <time>2020-08-21T15:51:58.000Z</time>
                <name>Trackpoint 5314</name>
            </trkpt>
            <trkpt lat="50.1041792" lon="11.4238352">
                <ele>298.0</ele>
                <time>2020-08-21T15:51:59.000Z</time>
                <name>Trackpoint 5315</name>
            </trkpt>
            <trkpt lat="50.1041856" lon="11.4239256">
                <ele>298.0</ele>
                <time>2020-08-21T15:52:00.000Z</time>
                <name>Trackpoint 5316</name>
            </trkpt>
            <trkpt lat="50.1041952" lon="11.4241064">
                <ele>298.0</ele>
                <time>2020-08-21T15:52:02.000Z</time>
                <name>Trackpoint 5317</name>
            </trkpt>
            <trkpt lat="50.1042048" lon="11.4242872">
                <ele>299.0</ele>
                <time>2020-08-21T15:52:04.000Z</time>
                <name>Trackpoint 5318</name>
            </trkpt>
            <trkpt lat="50.1042144" lon="11.4243784">
                <ele>299.0</ele>
                <time>2020-08-21T15:52:05.000Z</time>
                <name>Trackpoint 5319</name>
            </trkpt>
            <trkpt lat="50.1042304" lon="11.4245552">
                <ele>299.0</ele>
                <time>2020-08-21T15:52:07.000Z</time>
                <name>Trackpoint 5320</name>
            </trkpt>
            <trkpt lat="50.1042528" lon="11.4247304">
                <ele>299.0</ele>
                <time>2020-08-21T15:52:09.000Z</time>
                <name>Trackpoint 5321</name>
            </trkpt>
            <trkpt lat="50.1042752" lon="11.4249032">
                <ele>298.0</ele>
                <time>2020-08-21T15:52:11.000Z</time>
                <name>Trackpoint 5322</name>
            </trkpt>
            <trkpt lat="50.1043008" lon="11.425072">
                <ele>298.0</ele>
                <time>2020-08-21T15:52:13.000Z</time>
                <name>Trackpoint 5323</name>
            </trkpt>
            <trkpt lat="50.104336" lon="11.4252392">
                <ele>298.0</ele>
                <time>2020-08-21T15:52:15.000Z</time>
                <name>Trackpoint 5324</name>
            </trkpt>
            <trkpt lat="50.1043744" lon="11.4254064">
                <ele>298.0</ele>
                <time>2020-08-21T15:52:17.000Z</time>
                <name>Trackpoint 5325</name>
            </trkpt>
            <trkpt lat="50.1044096" lon="11.4255736">
                <ele>297.0</ele>
                <time>2020-08-21T15:52:19.000Z</time>
                <name>Trackpoint 5326</name>
            </trkpt>
            <trkpt lat="50.104448" lon="11.4257408">
                <ele>298.0</ele>
                <time>2020-08-21T15:52:21.000Z</time>
                <name>Trackpoint 5327</name>
            </trkpt>
            <trkpt lat="50.10448" lon="11.425912">
                <ele>297.0</ele>
                <time>2020-08-21T15:52:23.000Z</time>
                <name>Trackpoint 5328</name>
            </trkpt>
            <trkpt lat="50.1045184" lon="11.4260832">
                <ele>298.0</ele>
                <time>2020-08-21T15:52:25.000Z</time>
                <name>Trackpoint 5329</name>
            </trkpt>
            <trkpt lat="50.1045568" lon="11.42626">
                <ele>297.0</ele>
                <time>2020-08-21T15:52:27.000Z</time>
                <name>Trackpoint 5330</name>
            </trkpt>
            <trkpt lat="50.1045792" lon="11.4263488">
                <ele>297.0</ele>
                <time>2020-08-21T15:52:28.000Z</time>
                <name>Trackpoint 5331</name>
            </trkpt>
            <trkpt lat="50.1046016" lon="11.4264432">
                <ele>298.0</ele>
                <time>2020-08-21T15:52:29.000Z</time>
                <name>Trackpoint 5332</name>
            </trkpt>
            <trkpt lat="50.1046208" lon="11.4265416">
                <ele>298.0</ele>
                <time>2020-08-21T15:52:30.000Z</time>
                <name>Trackpoint 5333</name>
            </trkpt>
            <trkpt lat="50.10464" lon="11.4266392">
                <ele>298.0</ele>
                <time>2020-08-21T15:52:31.000Z</time>
                <name>Trackpoint 5334</name>
            </trkpt>
            <trkpt lat="50.1046624" lon="11.42674">
                <ele>298.0</ele>
                <time>2020-08-21T15:52:32.000Z</time>
                <name>Trackpoint 5335</name>
            </trkpt>
            <trkpt lat="50.1046816" lon="11.426844">
                <ele>297.0</ele>
                <time>2020-08-21T15:52:33.000Z</time>
                <name>Trackpoint 5336</name>
            </trkpt>
            <trkpt lat="50.1047072" lon="11.4269416">
                <ele>298.0</ele>
                <time>2020-08-21T15:52:34.000Z</time>
                <name>Trackpoint 5337</name>
            </trkpt>
            <trkpt lat="50.1047264" lon="11.4270384">
                <ele>298.0</ele>
                <time>2020-08-21T15:52:35.000Z</time>
                <name>Trackpoint 5338</name>
            </trkpt>
            <trkpt lat="50.1047424" lon="11.4271352">
                <ele>298.0</ele>
                <time>2020-08-21T15:52:36.000Z</time>
                <name>Trackpoint 5339</name>
            </trkpt>
            <trkpt lat="50.104768" lon="11.4272296">
                <ele>298.0</ele>
                <time>2020-08-21T15:52:37.000Z</time>
                <name>Trackpoint 5340</name>
            </trkpt>
            <trkpt lat="50.1047872" lon="11.427328">
                <ele>298.0</ele>
                <time>2020-08-21T15:52:38.000Z</time>
                <name>Trackpoint 5341</name>
            </trkpt>
            <trkpt lat="50.1048096" lon="11.4274232">
                <ele>298.0</ele>
                <time>2020-08-21T15:52:39.000Z</time>
                <name>Trackpoint 5342</name>
            </trkpt>
            <trkpt lat="50.104832" lon="11.42752">
                <ele>298.0</ele>
                <time>2020-08-21T15:52:40.000Z</time>
                <name>Trackpoint 5343</name>
            </trkpt>
            <trkpt lat="50.1048512" lon="11.4276184">
                <ele>298.0</ele>
                <time>2020-08-21T15:52:41.000Z</time>
                <name>Trackpoint 5344</name>
            </trkpt>
            <trkpt lat="50.1048704" lon="11.4277152">
                <ele>298.0</ele>
                <time>2020-08-21T15:52:42.000Z</time>
                <name>Trackpoint 5345</name>
            </trkpt>
            <trkpt lat="50.1048896" lon="11.4278136">
                <ele>298.0</ele>
                <time>2020-08-21T15:52:43.000Z</time>
                <name>Trackpoint 5346</name>
            </trkpt>
            <trkpt lat="50.1049088" lon="11.427912">
                <ele>298.0</ele>
                <time>2020-08-21T15:52:44.000Z</time>
                <name>Trackpoint 5347</name>
            </trkpt>
            <trkpt lat="50.104928" lon="11.4280072">
                <ele>298.0</ele>
                <time>2020-08-21T15:52:45.000Z</time>
                <name>Trackpoint 5348</name>
            </trkpt>
            <trkpt lat="50.1049472" lon="11.4281016">
                <ele>298.0</ele>
                <time>2020-08-21T15:52:46.000Z</time>
                <name>Trackpoint 5349</name>
            </trkpt>
            <trkpt lat="50.1049664" lon="11.4281952">
                <ele>297.0</ele>
                <time>2020-08-21T15:52:47.000Z</time>
                <name>Trackpoint 5350</name>
            </trkpt>
            <trkpt lat="50.1049856" lon="11.4282848">
                <ele>297.0</ele>
                <time>2020-08-21T15:52:48.000Z</time>
                <name>Trackpoint 5351</name>
            </trkpt>
            <trkpt lat="50.1050048" lon="11.428376">
                <ele>298.0</ele>
                <time>2020-08-21T15:52:49.000Z</time>
                <name>Trackpoint 5352</name>
            </trkpt>
            <trkpt lat="50.1050272" lon="11.4284688">
                <ele>298.0</ele>
                <time>2020-08-21T15:52:50.000Z</time>
                <name>Trackpoint 5353</name>
            </trkpt>
            <trkpt lat="50.105056" lon="11.4286472">
                <ele>298.0</ele>
                <time>2020-08-21T15:52:52.000Z</time>
                <name>Trackpoint 5354</name>
            </trkpt>
            <trkpt lat="50.1050912" lon="11.4288232">
                <ele>298.0</ele>
                <time>2020-08-21T15:52:54.000Z</time>
                <name>Trackpoint 5355</name>
            </trkpt>
            <trkpt lat="50.1051264" lon="11.4289952">
                <ele>298.0</ele>
                <time>2020-08-21T15:52:56.000Z</time>
                <name>Trackpoint 5356</name>
            </trkpt>
            <trkpt lat="50.1051488" lon="11.4290888">
                <ele>298.0</ele>
                <time>2020-08-21T15:52:57.000Z</time>
                <name>Trackpoint 5357</name>
            </trkpt>
            <trkpt lat="50.1051712" lon="11.4291832">
                <ele>298.0</ele>
                <time>2020-08-21T15:52:58.000Z</time>
                <name>Trackpoint 5358</name>
            </trkpt>
            <trkpt lat="50.1051936" lon="11.4292744">
                <ele>298.0</ele>
                <time>2020-08-21T15:52:59.000Z</time>
                <name>Trackpoint 5359</name>
            </trkpt>
            <trkpt lat="50.1052128" lon="11.4293648">
                <ele>298.0</ele>
                <time>2020-08-21T15:53:00.000Z</time>
                <name>Trackpoint 5360</name>
            </trkpt>
            <trkpt lat="50.105232" lon="11.4294552">
                <ele>298.0</ele>
                <time>2020-08-21T15:53:01.000Z</time>
                <name>Trackpoint 5361</name>
            </trkpt>
            <trkpt lat="50.1052544" lon="11.4295456">
                <ele>298.0</ele>
                <time>2020-08-21T15:53:02.000Z</time>
                <name>Trackpoint 5362</name>
            </trkpt>
            <trkpt lat="50.1052672" lon="11.4296368">
                <ele>298.0</ele>
                <time>2020-08-21T15:53:03.000Z</time>
                <name>Trackpoint 5363</name>
            </trkpt>
            <trkpt lat="50.1052864" lon="11.4297264">
                <ele>298.0</ele>
                <time>2020-08-21T15:53:04.000Z</time>
                <name>Trackpoint 5364</name>
            </trkpt>
            <trkpt lat="50.1053088" lon="11.4298184">
                <ele>298.0</ele>
                <time>2020-08-21T15:53:05.000Z</time>
                <name>Trackpoint 5365</name>
            </trkpt>
            <trkpt lat="50.1053312" lon="11.429912">
                <ele>298.0</ele>
                <time>2020-08-21T15:53:06.000Z</time>
                <name>Trackpoint 5366</name>
            </trkpt>
            <trkpt lat="50.1053504" lon="11.4300032">
                <ele>298.0</ele>
                <time>2020-08-21T15:53:07.000Z</time>
                <name>Trackpoint 5367</name>
            </trkpt>
            <trkpt lat="50.1053696" lon="11.4300944">
                <ele>298.0</ele>
                <time>2020-08-21T15:53:08.000Z</time>
                <name>Trackpoint 5368</name>
            </trkpt>
            <trkpt lat="50.1053888" lon="11.4301864">
                <ele>298.0</ele>
                <time>2020-08-21T15:53:09.000Z</time>
                <name>Trackpoint 5369</name>
            </trkpt>
            <trkpt lat="50.1054048" lon="11.4302768">
                <ele>298.0</ele>
                <time>2020-08-21T15:53:10.000Z</time>
                <name>Trackpoint 5370</name>
            </trkpt>
            <trkpt lat="50.1054368" lon="11.4304552">
                <ele>297.0</ele>
                <time>2020-08-21T15:53:12.000Z</time>
                <name>Trackpoint 5371</name>
            </trkpt>
            <trkpt lat="50.105472" lon="11.4306336">
                <ele>297.0</ele>
                <time>2020-08-21T15:53:14.000Z</time>
                <name>Trackpoint 5372</name>
            </trkpt>
            <trkpt lat="50.1055072" lon="11.430808">
                <ele>297.0</ele>
                <time>2020-08-21T15:53:16.000Z</time>
                <name>Trackpoint 5373</name>
            </trkpt>
            <trkpt lat="50.105536" lon="11.4309768">
                <ele>297.0</ele>
                <time>2020-08-21T15:53:18.000Z</time>
                <name>Trackpoint 5374</name>
            </trkpt>
            <trkpt lat="50.1055712" lon="11.4311488">
                <ele>297.0</ele>
                <time>2020-08-21T15:53:20.000Z</time>
                <name>Trackpoint 5375</name>
            </trkpt>
            <trkpt lat="50.1056096" lon="11.4313184">
                <ele>298.0</ele>
                <time>2020-08-21T15:53:22.000Z</time>
                <name>Trackpoint 5376</name>
            </trkpt>
            <trkpt lat="50.1056416" lon="11.4314816">
                <ele>297.0</ele>
                <time>2020-08-21T15:53:24.000Z</time>
                <name>Trackpoint 5377</name>
            </trkpt>
            <trkpt lat="50.1056896" lon="11.431648">
                <ele>299.0</ele>
                <time>2020-08-21T15:53:26.000Z</time>
                <name>Trackpoint 5378</name>
            </trkpt>
            <trkpt lat="50.105744" lon="11.4318136">
                <ele>300.0</ele>
                <time>2020-08-21T15:53:28.000Z</time>
                <name>Trackpoint 5379</name>
            </trkpt>
            <trkpt lat="50.1057696" lon="11.431976">
                <ele>300.0</ele>
                <time>2020-08-21T15:53:30.000Z</time>
                <name>Trackpoint 5380</name>
            </trkpt>
            <trkpt lat="50.1058048" lon="11.4321384">
                <ele>300.0</ele>
                <time>2020-08-21T15:53:32.000Z</time>
                <name>Trackpoint 5381</name>
            </trkpt>
            <trkpt lat="50.1058336" lon="11.4323">
                <ele>300.0</ele>
                <time>2020-08-21T15:53:34.000Z</time>
                <name>Trackpoint 5382</name>
            </trkpt>
            <trkpt lat="50.1058688" lon="11.4324616">
                <ele>300.0</ele>
                <time>2020-08-21T15:53:36.000Z</time>
                <name>Trackpoint 5383</name>
            </trkpt>
            <trkpt lat="50.1058944" lon="11.4326216">
                <ele>300.0</ele>
                <time>2020-08-21T15:53:38.000Z</time>
                <name>Trackpoint 5384</name>
            </trkpt>
            <trkpt lat="50.1059296" lon="11.4327896">
                <ele>300.0</ele>
                <time>2020-08-21T15:53:40.000Z</time>
                <name>Trackpoint 5385</name>
            </trkpt>
            <trkpt lat="50.105952" lon="11.4329592">
                <ele>300.0</ele>
                <time>2020-08-21T15:53:42.000Z</time>
                <name>Trackpoint 5386</name>
            </trkpt>
            <trkpt lat="50.105968" lon="11.4331304">
                <ele>300.0</ele>
                <time>2020-08-21T15:53:44.000Z</time>
                <name>Trackpoint 5387</name>
            </trkpt>
            <trkpt lat="50.1059872" lon="11.4332952">
                <ele>300.0</ele>
                <time>2020-08-21T15:53:46.000Z</time>
                <name>Trackpoint 5388</name>
            </trkpt>
            <trkpt lat="50.1060128" lon="11.433452">
                <ele>300.0</ele>
                <time>2020-08-21T15:53:48.000Z</time>
                <name>Trackpoint 5389</name>
            </trkpt>
            <trkpt lat="50.1060576" lon="11.4336072">
                <ele>300.0</ele>
                <time>2020-08-21T15:53:50.000Z</time>
                <name>Trackpoint 5390</name>
            </trkpt>
            <trkpt lat="50.1061024" lon="11.433752">
                <ele>300.0</ele>
                <time>2020-08-21T15:53:52.000Z</time>
                <name>Trackpoint 5391</name>
            </trkpt>
            <trkpt lat="50.106112" lon="11.4339048">
                <ele>300.0</ele>
                <time>2020-08-21T15:53:54.000Z</time>
                <name>Trackpoint 5392</name>
            </trkpt>
            <trkpt lat="50.1061472" lon="11.434056">
                <ele>300.0</ele>
                <time>2020-08-21T15:53:56.000Z</time>
                <name>Trackpoint 5393</name>
            </trkpt>
            <trkpt lat="50.1061984" lon="11.4342032">
                <ele>300.0</ele>
                <time>2020-08-21T15:53:58.000Z</time>
                <name>Trackpoint 5394</name>
            </trkpt>
            <trkpt lat="50.1062656" lon="11.4343544">
                <ele>301.0</ele>
                <time>2020-08-21T15:54:00.000Z</time>
                <name>Trackpoint 5395</name>
            </trkpt>
            <trkpt lat="50.1063392" lon="11.4344656">
                <ele>301.0</ele>
                <time>2020-08-21T15:54:02.000Z</time>
                <name>Trackpoint 5396</name>
            </trkpt>
            <trkpt lat="50.1064288" lon="11.4345264">
                <ele>301.0</ele>
                <time>2020-08-21T15:54:04.000Z</time>
                <name>Trackpoint 5397</name>
            </trkpt>
            <trkpt lat="50.106528" lon="11.434548">
                <ele>301.0</ele>
                <time>2020-08-21T15:54:06.000Z</time>
                <name>Trackpoint 5398</name>
            </trkpt>
            <trkpt lat="50.1066336" lon="11.434548">
                <ele>302.0</ele>
                <time>2020-08-21T15:54:08.000Z</time>
                <name>Trackpoint 5399</name>
            </trkpt>
            <trkpt lat="50.106736" lon="11.43454">
                <ele>302.0</ele>
                <time>2020-08-21T15:54:10.000Z</time>
                <name>Trackpoint 5400</name>
            </trkpt>
            <trkpt lat="50.1068384" lon="11.4345512">
                <ele>302.0</ele>
                <time>2020-08-21T15:54:12.000Z</time>
                <name>Trackpoint 5401</name>
            </trkpt>
            <trkpt lat="50.106944" lon="11.4345616">
                <ele>302.0</ele>
                <time>2020-08-21T15:54:14.000Z</time>
                <name>Trackpoint 5402</name>
            </trkpt>
            <trkpt lat="50.1070432" lon="11.43458">
                <ele>302.0</ele>
                <time>2020-08-21T15:54:16.000Z</time>
                <name>Trackpoint 5403</name>
            </trkpt>
            <trkpt lat="50.1071424" lon="11.4346104">
                <ele>302.0</ele>
                <time>2020-08-21T15:54:18.000Z</time>
                <name>Trackpoint 5404</name>
            </trkpt>
            <trkpt lat="50.107232" lon="11.4346552">
                <ele>302.0</ele>
                <time>2020-08-21T15:54:20.000Z</time>
                <name>Trackpoint 5405</name>
            </trkpt>
            <trkpt lat="50.1073312" lon="11.4347248">
                <ele>302.0</ele>
                <time>2020-08-21T15:54:23.000Z</time>
                <name>Trackpoint 5406</name>
            </trkpt>
            <trkpt lat="50.1074304" lon="11.4347664">
                <ele>302.0</ele>
                <time>2020-08-21T15:54:27.000Z</time>
                <name>Trackpoint 5407</name>
            </trkpt>
            <trkpt lat="50.1075328" lon="11.4347064">
                <ele>303.0</ele>
                <time>2020-08-21T15:54:32.000Z</time>
                <name>Trackpoint 5408</name>
            </trkpt>
            <trkpt lat="50.107552" lon="11.4345968">
                <ele>303.0</ele>
                <time>2020-08-21T15:54:34.000Z</time>
                <name>Trackpoint 5409</name>
            </trkpt>
            <trkpt lat="50.1075808" lon="11.4344752">
                <ele>303.0</ele>
                <time>2020-08-21T15:54:36.000Z</time>
                <name>Trackpoint 5410</name>
            </trkpt>
            <trkpt lat="50.1076256" lon="11.4343464">
                <ele>302.0</ele>
                <time>2020-08-21T15:54:38.000Z</time>
                <name>Trackpoint 5411</name>
            </trkpt>
            <trkpt lat="50.1076704" lon="11.434212">
                <ele>302.0</ele>
                <time>2020-08-21T15:54:40.000Z</time>
                <name>Trackpoint 5412</name>
            </trkpt>
            <trkpt lat="50.1077184" lon="11.4340752">
                <ele>302.0</ele>
                <time>2020-08-21T15:54:42.000Z</time>
                <name>Trackpoint 5413</name>
            </trkpt>
            <trkpt lat="50.1077728" lon="11.4339312">
                <ele>302.0</ele>
                <time>2020-08-21T15:54:44.000Z</time>
                <name>Trackpoint 5414</name>
            </trkpt>
            <trkpt lat="50.1078176" lon="11.4337928">
                <ele>302.0</ele>
                <time>2020-08-21T15:54:46.000Z</time>
                <name>Trackpoint 5415</name>
            </trkpt>
            <trkpt lat="50.107856" lon="11.433672">
                <ele>302.0</ele>
                <time>2020-08-21T15:54:48.000Z</time>
                <name>Trackpoint 5416</name>
            </trkpt>
            <trkpt lat="50.1078368" lon="11.4335584">
                <ele>302.0</ele>
                <time>2020-08-21T15:54:51.000Z</time>
                <name>Trackpoint 5417</name>
            </trkpt>
            <trkpt lat="50.1077696" lon="11.4334832">
                <ele>302.0</ele>
                <time>2020-08-21T15:54:54.000Z</time>
                <name>Trackpoint 5418</name>
            </trkpt>
            <trkpt lat="50.107696" lon="11.4334248">
                <ele>302.0</ele>
                <time>2020-08-21T15:54:56.000Z</time>
                <name>Trackpoint 5419</name>
            </trkpt>
            <trkpt lat="50.107616" lon="11.4333648">
                <ele>302.0</ele>
                <time>2020-08-21T15:54:58.000Z</time>
                <name>Trackpoint 5420</name>
            </trkpt>
            <trkpt lat="50.1075296" lon="11.4332912">
                <ele>302.0</ele>
                <time>2020-08-21T15:55:00.000Z</time>
                <name>Trackpoint 5421</name>
            </trkpt>
            <trkpt lat="50.10744" lon="11.43322">
                <ele>302.0</ele>
                <time>2020-08-21T15:55:02.000Z</time>
                <name>Trackpoint 5422</name>
            </trkpt>
            <trkpt lat="50.1073408" lon="11.4331464">
                <ele>302.0</ele>
                <time>2020-08-21T15:55:04.000Z</time>
                <name>Trackpoint 5423</name>
            </trkpt>
            <trkpt lat="50.1072512" lon="11.4330504">
                <ele>302.0</ele>
                <time>2020-08-21T15:55:06.000Z</time>
                <name>Trackpoint 5424</name>
            </trkpt>
            <trkpt lat="50.1071584" lon="11.4329632">
                <ele>302.0</ele>
                <time>2020-08-21T15:55:08.000Z</time>
                <name>Trackpoint 5425</name>
            </trkpt>
            <trkpt lat="50.1070848" lon="11.4328584">
                <ele>302.0</ele>
                <time>2020-08-21T15:55:10.000Z</time>
                <name>Trackpoint 5426</name>
            </trkpt>
            <trkpt lat="50.1070048" lon="11.432772">
                <ele>302.0</ele>
                <time>2020-08-21T15:55:12.000Z</time>
                <name>Trackpoint 5427</name>
            </trkpt>
            <trkpt lat="50.1069376" lon="11.4326936">
                <ele>302.0</ele>
                <time>2020-08-21T15:55:14.000Z</time>
                <name>Trackpoint 5428</name>
            </trkpt>
            <trkpt lat="50.1068544" lon="11.43274">
                <ele>302.0</ele>
                <time>2020-08-21T15:55:24.000Z</time>
                <name>Trackpoint 5429</name>
            </trkpt>
            <trkpt lat="50.1067968" lon="11.4328184">
                <ele>302.0</ele>
                <time>2020-08-21T15:55:28.000Z</time>
                <name>Trackpoint 5430</name>
            </trkpt>
            <trkpt lat="50.1067328" lon="11.4329008">
                <ele>302.0</ele>
                <time>2020-08-21T15:55:32.000Z</time>
                <name>Trackpoint 5431</name>
            </trkpt>
            <trkpt lat="50.1066784" lon="11.4329728">
                <ele>302.0</ele>
                <time>2020-08-21T15:55:35.000Z</time>
                <name>Trackpoint 5432</name>
            </trkpt>
            <trkpt lat="50.1066016" lon="11.4330552">
                <ele>302.0</ele>
                <time>2020-08-21T15:55:38.000Z</time>
                <name>Trackpoint 5433</name>
            </trkpt>
            <trkpt lat="50.10656" lon="11.4331552">
                <ele>302.0</ele>
                <time>2020-08-21T15:55:41.000Z</time>
                <name>Trackpoint 5434</name>
            </trkpt>
            <trkpt lat="50.1065024" lon="11.4332488">
                <ele>303.0</ele>
                <time>2020-08-21T15:55:44.000Z</time>
                <name>Trackpoint 5435</name>
            </trkpt>
            <trkpt lat="50.106448" lon="11.4333248">
                <ele>303.0</ele>
                <time>2020-08-21T15:55:46.000Z</time>
                <name>Trackpoint 5436</name>
            </trkpt>
            <trkpt lat="50.106384" lon="11.4334352">
                <ele>303.0</ele>
                <time>2020-08-21T15:55:49.000Z</time>
                <name>Trackpoint 5437</name>
            </trkpt>
            <trkpt lat="50.1063232" lon="11.4335416">
                <ele>303.0</ele>
                <time>2020-08-21T15:55:51.000Z</time>
                <name>Trackpoint 5438</name>
            </trkpt>
            <trkpt lat="50.1062752" lon="11.4336464">
                <ele>303.0</ele>
                <time>2020-08-21T15:55:53.000Z</time>
                <name>Trackpoint 5439</name>
            </trkpt>
            <trkpt lat="50.106208" lon="11.4337528">
                <ele>303.0</ele>
                <time>2020-08-21T15:55:55.000Z</time>
                <name>Trackpoint 5440</name>
            </trkpt>
            <trkpt lat="50.106144" lon="11.4338648">
                <ele>303.0</ele>
                <time>2020-08-21T15:55:57.000Z</time>
                <name>Trackpoint 5441</name>
            </trkpt>
            <trkpt lat="50.1060672" lon="11.4339712">
                <ele>303.0</ele>
                <time>2020-08-21T15:55:59.000Z</time>
                <name>Trackpoint 5442</name>
            </trkpt>
            <trkpt lat="50.1059936" lon="11.4340912">
                <ele>304.0</ele>
                <time>2020-08-21T15:56:01.000Z</time>
                <name>Trackpoint 5443</name>
            </trkpt>
            <trkpt lat="50.1059264" lon="11.4342168">
                <ele>304.0</ele>
                <time>2020-08-21T15:56:03.000Z</time>
                <name>Trackpoint 5444</name>
            </trkpt>
            <trkpt lat="50.1058592" lon="11.4343336">
                <ele>304.0</ele>
                <time>2020-08-21T15:56:05.000Z</time>
                <name>Trackpoint 5445</name>
            </trkpt>
            <trkpt lat="50.1057824" lon="11.4344552">
                <ele>304.0</ele>
                <time>2020-08-21T15:56:07.000Z</time>
                <name>Trackpoint 5446</name>
            </trkpt>
            <trkpt lat="50.1056896" lon="11.4345904">
                <ele>303.0</ele>
                <time>2020-08-21T15:56:09.000Z</time>
                <name>Trackpoint 5447</name>
            </trkpt>
            <trkpt lat="50.1056416" lon="11.4346704">
                <ele>303.0</ele>
                <time>2020-08-21T15:56:10.000Z</time>
                <name>Trackpoint 5448</name>
            </trkpt>
            <trkpt lat="50.1056" lon="11.4347536">
                <ele>304.0</ele>
                <time>2020-08-21T15:56:11.000Z</time>
                <name>Trackpoint 5449</name>
            </trkpt>
            <trkpt lat="50.1055552" lon="11.434832">
                <ele>304.0</ele>
                <time>2020-08-21T15:56:12.000Z</time>
                <name>Trackpoint 5450</name>
            </trkpt>
            <trkpt lat="50.1054688" lon="11.4349744">
                <ele>304.0</ele>
                <time>2020-08-21T15:56:14.000Z</time>
                <name>Trackpoint 5451</name>
            </trkpt>
            <trkpt lat="50.105424" lon="11.4350568">
                <ele>304.0</ele>
                <time>2020-08-21T15:56:15.000Z</time>
                <name>Trackpoint 5452</name>
            </trkpt>
            <trkpt lat="50.105376" lon="11.4351368">
                <ele>304.0</ele>
                <time>2020-08-21T15:56:16.000Z</time>
                <name>Trackpoint 5453</name>
            </trkpt>
            <trkpt lat="50.1053312" lon="11.4352152">
                <ele>304.0</ele>
                <time>2020-08-21T15:56:17.000Z</time>
                <name>Trackpoint 5454</name>
            </trkpt>
            <trkpt lat="50.1052384" lon="11.43536">
                <ele>304.0</ele>
                <time>2020-08-21T15:56:19.000Z</time>
                <name>Trackpoint 5455</name>
            </trkpt>
            <trkpt lat="50.1051552" lon="11.4355072">
                <ele>303.0</ele>
                <time>2020-08-21T15:56:21.000Z</time>
                <name>Trackpoint 5456</name>
            </trkpt>
            <trkpt lat="50.105072" lon="11.4356496">
                <ele>303.0</ele>
                <time>2020-08-21T15:56:23.000Z</time>
                <name>Trackpoint 5457</name>
            </trkpt>
            <trkpt lat="50.104992" lon="11.4357928">
                <ele>303.0</ele>
                <time>2020-08-21T15:56:25.000Z</time>
                <name>Trackpoint 5458</name>
            </trkpt>
            <trkpt lat="50.1049248" lon="11.43594">
                <ele>303.0</ele>
                <time>2020-08-21T15:56:27.000Z</time>
                <name>Trackpoint 5459</name>
            </trkpt>
            <trkpt lat="50.1048704" lon="11.4360848">
                <ele>303.0</ele>
                <time>2020-08-21T15:56:29.000Z</time>
                <name>Trackpoint 5460</name>
            </trkpt>
            <trkpt lat="50.1048416" lon="11.4362232">
                <ele>303.0</ele>
                <time>2020-08-21T15:56:31.000Z</time>
                <name>Trackpoint 5461</name>
            </trkpt>
            <trkpt lat="50.1048384" lon="11.4363232">
                <ele>303.0</ele>
                <time>2020-08-21T15:56:33.000Z</time>
                <name>Trackpoint 5462</name>
            </trkpt>
            <trkpt lat="50.1048416" lon="11.4364344">
                <ele>303.0</ele>
                <time>2020-08-21T15:56:44.000Z</time>
                <name>Trackpoint 5463</name>
            </trkpt>
            <trkpt lat="50.104768" lon="11.4364992">
                <ele>303.0</ele>
                <time>2020-08-21T15:57:27.000Z</time>
                <name>Trackpoint 5464</name>
            </trkpt>
            <trkpt lat="50.1046752" lon="11.43656">
                <ele>303.0</ele>
                <time>2020-08-21T15:57:31.000Z</time>
                <name>Trackpoint 5465</name>
            </trkpt>
            <trkpt lat="50.1046432" lon="11.4366768">
                <ele>303.0</ele>
                <time>2020-08-21T15:57:34.000Z</time>
                <name>Trackpoint 5466</name>
            </trkpt>
            <trkpt lat="50.1046528" lon="11.4367664">
                <ele>303.0</ele>
                <time>2020-08-21T15:57:36.000Z</time>
                <name>Trackpoint 5467</name>
            </trkpt>
            <trkpt lat="50.1046912" lon="11.4368488">
                <ele>303.0</ele>
                <time>2020-08-21T15:57:38.000Z</time>
                <name>Trackpoint 5468</name>
            </trkpt>
            <trkpt lat="50.1047264" lon="11.43694">
                <ele>303.0</ele>
                <time>2020-08-21T15:57:40.000Z</time>
                <name>Trackpoint 5469</name>
            </trkpt>
            <trkpt lat="50.1047552" lon="11.4370496">
                <ele>303.0</ele>
                <time>2020-08-21T15:57:42.000Z</time>
                <name>Trackpoint 5470</name>
            </trkpt>
            <trkpt lat="50.1047776" lon="11.4371544">
                <ele>303.0</ele>
                <time>2020-08-21T15:57:44.000Z</time>
                <name>Trackpoint 5471</name>
            </trkpt>
            <trkpt lat="50.1047904" lon="11.4372616">
                <ele>303.0</ele>
                <time>2020-08-21T15:57:46.000Z</time>
                <name>Trackpoint 5472</name>
            </trkpt>
            <trkpt lat="50.1048064" lon="11.4374">
                <ele>303.0</ele>
                <time>2020-08-21T15:57:48.000Z</time>
                <name>Trackpoint 5473</name>
            </trkpt>
            <trkpt lat="50.1048256" lon="11.4375352">
                <ele>303.0</ele>
                <time>2020-08-21T15:57:50.000Z</time>
                <name>Trackpoint 5474</name>
            </trkpt>
            <trkpt lat="50.1048416" lon="11.4376496">
                <ele>303.0</ele>
                <time>2020-08-21T15:57:52.000Z</time>
                <name>Trackpoint 5475</name>
            </trkpt>
            <trkpt lat="50.1048608" lon="11.4377648">
                <ele>303.0</ele>
                <time>2020-08-21T15:57:54.000Z</time>
                <name>Trackpoint 5476</name>
            </trkpt>
            <trkpt lat="50.1048672" lon="11.437868">
                <ele>303.0</ele>
                <time>2020-08-21T15:57:56.000Z</time>
                <name>Trackpoint 5477</name>
            </trkpt>
            <trkpt lat="50.1049088" lon="11.4379816">
                <ele>303.0</ele>
                <time>2020-08-21T15:57:58.000Z</time>
                <name>Trackpoint 5478</name>
            </trkpt>
            <trkpt lat="50.1049536" lon="11.4380952">
                <ele>303.0</ele>
                <time>2020-08-21T15:58:00.000Z</time>
                <name>Trackpoint 5479</name>
            </trkpt>
            <trkpt lat="50.1050144" lon="11.4382264">
                <ele>303.0</ele>
                <time>2020-08-21T15:58:02.000Z</time>
                <name>Trackpoint 5480</name>
            </trkpt>
            <trkpt lat="50.1050528" lon="11.43836">
                <ele>303.0</ele>
                <time>2020-08-21T15:58:04.000Z</time>
                <name>Trackpoint 5481</name>
            </trkpt>
            <trkpt lat="50.1050848" lon="11.4384872">
                <ele>303.0</ele>
                <time>2020-08-21T15:58:06.000Z</time>
                <name>Trackpoint 5482</name>
            </trkpt>
            <trkpt lat="50.1050944" lon="11.4386168">
                <ele>303.0</ele>
                <time>2020-08-21T15:58:08.000Z</time>
                <name>Trackpoint 5483</name>
            </trkpt>
            <trkpt lat="50.1050752" lon="11.4387504">
                <ele>303.0</ele>
                <time>2020-08-21T15:58:11.000Z</time>
                <name>Trackpoint 5484</name>
            </trkpt>
            <trkpt lat="50.1050496" lon="11.4388616">
                <ele>303.0</ele>
                <time>2020-08-21T15:58:13.000Z</time>
                <name>Trackpoint 5485</name>
            </trkpt>
            <trkpt lat="50.1050496" lon="11.4390048">
                <ele>303.0</ele>
                <time>2020-08-21T15:58:15.000Z</time>
                <name>Trackpoint 5486</name>
            </trkpt>
            <trkpt lat="50.1050464" lon="11.4391272">
                <ele>303.0</ele>
                <time>2020-08-21T15:58:17.000Z</time>
                <name>Trackpoint 5487</name>
            </trkpt>
            <trkpt lat="50.1050304" lon="11.4392272">
                <ele>303.0</ele>
                <time>2020-08-21T15:58:19.000Z</time>
                <name>Trackpoint 5488</name>
            </trkpt>
            <trkpt lat="50.10504" lon="11.4393904">
                <ele>304.0</ele>
                <time>2020-08-21T15:58:21.000Z</time>
                <name>Trackpoint 5489</name>
            </trkpt>
            <trkpt lat="50.1050048" lon="11.4395352">
                <ele>304.0</ele>
                <time>2020-08-21T15:58:23.000Z</time>
                <name>Trackpoint 5490</name>
            </trkpt>
            <trkpt lat="50.1049856" lon="11.4396736">
                <ele>304.0</ele>
                <time>2020-08-21T15:58:25.000Z</time>
                <name>Trackpoint 5491</name>
            </trkpt>
            <trkpt lat="50.1049952" lon="11.43982">
                <ele>304.0</ele>
                <time>2020-08-21T15:58:27.000Z</time>
                <name>Trackpoint 5492</name>
            </trkpt>
            <trkpt lat="50.105072" lon="11.4399784">
                <ele>304.0</ele>
                <time>2020-08-21T15:58:29.000Z</time>
                <name>Trackpoint 5493</name>
            </trkpt>
            <trkpt lat="50.1051072" lon="11.440068">
                <ele>304.0</ele>
                <time>2020-08-21T15:58:30.000Z</time>
                <name>Trackpoint 5494</name>
            </trkpt>
            <trkpt lat="50.105152" lon="11.4401528">
                <ele>304.0</ele>
                <time>2020-08-21T15:58:31.000Z</time>
                <name>Trackpoint 5495</name>
            </trkpt>
            <trkpt lat="50.1052128" lon="11.440244">
                <ele>304.0</ele>
                <time>2020-08-21T15:58:32.000Z</time>
                <name>Trackpoint 5496</name>
            </trkpt>
            <trkpt lat="50.1053056" lon="11.440316">
                <ele>304.0</ele>
                <time>2020-08-21T15:58:33.000Z</time>
                <name>Trackpoint 5497</name>
            </trkpt>
            <trkpt lat="50.1053472" lon="11.4404096">
                <ele>304.0</ele>
                <time>2020-08-21T15:58:34.000Z</time>
                <name>Trackpoint 5498</name>
            </trkpt>
            <trkpt lat="50.1053888" lon="11.4405648">
                <ele>304.0</ele>
                <time>2020-08-21T15:58:36.000Z</time>
                <name>Trackpoint 5499</name>
            </trkpt>
            <trkpt lat="50.105456" lon="11.4407216">
                <ele>304.0</ele>
                <time>2020-08-21T15:58:38.000Z</time>
                <name>Trackpoint 5500</name>
            </trkpt>
            <trkpt lat="50.1055232" lon="11.4408952">
                <ele>304.0</ele>
                <time>2020-08-21T15:58:40.000Z</time>
                <name>Trackpoint 5501</name>
            </trkpt>
            <trkpt lat="50.1055808" lon="11.4409768">
                <ele>304.0</ele>
                <time>2020-08-21T15:58:41.000Z</time>
                <name>Trackpoint 5502</name>
            </trkpt>
            <trkpt lat="50.1056288" lon="11.4411672">
                <ele>304.0</ele>
                <time>2020-08-21T15:58:43.000Z</time>
                <name>Trackpoint 5503</name>
            </trkpt>
            <trkpt lat="50.1056512" lon="11.44126">
                <ele>304.0</ele>
                <time>2020-08-21T15:58:44.000Z</time>
                <name>Trackpoint 5504</name>
            </trkpt>
            <trkpt lat="50.1056736" lon="11.4413568">
                <ele>304.0</ele>
                <time>2020-08-21T15:58:45.000Z</time>
                <name>Trackpoint 5505</name>
            </trkpt>
            <trkpt lat="50.1057056" lon="11.4414616">
                <ele>304.0</ele>
                <time>2020-08-21T15:58:46.000Z</time>
                <name>Trackpoint 5506</name>
            </trkpt>
            <trkpt lat="50.1057312" lon="11.44156">
                <ele>304.0</ele>
                <time>2020-08-21T15:58:47.000Z</time>
                <name>Trackpoint 5507</name>
            </trkpt>
            <trkpt lat="50.1057536" lon="11.4416568">
                <ele>304.0</ele>
                <time>2020-08-21T15:58:48.000Z</time>
                <name>Trackpoint 5508</name>
            </trkpt>
            <trkpt lat="50.1058016" lon="11.441756">
                <ele>304.0</ele>
                <time>2020-08-21T15:58:49.000Z</time>
                <name>Trackpoint 5509</name>
            </trkpt>
            <trkpt lat="50.1058528" lon="11.441932">
                <ele>304.0</ele>
                <time>2020-08-21T15:58:51.000Z</time>
                <name>Trackpoint 5510</name>
            </trkpt>
            <trkpt lat="50.1058848" lon="11.4420272">
                <ele>304.0</ele>
                <time>2020-08-21T15:58:52.000Z</time>
                <name>Trackpoint 5511</name>
            </trkpt>
            <trkpt lat="50.1059072" lon="11.4421216">
                <ele>304.0</ele>
                <time>2020-08-21T15:58:53.000Z</time>
                <name>Trackpoint 5512</name>
            </trkpt>
            <trkpt lat="50.10592" lon="11.4422184">
                <ele>304.0</ele>
                <time>2020-08-21T15:58:54.000Z</time>
                <name>Trackpoint 5513</name>
            </trkpt>
            <trkpt lat="50.1059424" lon="11.4423168">
                <ele>304.0</ele>
                <time>2020-08-21T15:58:55.000Z</time>
                <name>Trackpoint 5514</name>
            </trkpt>
            <trkpt lat="50.1059648" lon="11.4424232">
                <ele>304.0</ele>
                <time>2020-08-21T15:58:56.000Z</time>
                <name>Trackpoint 5515</name>
            </trkpt>
            <trkpt lat="50.1059776" lon="11.4425184">
                <ele>304.0</ele>
                <time>2020-08-21T15:58:57.000Z</time>
                <name>Trackpoint 5516</name>
            </trkpt>
            <trkpt lat="50.106" lon="11.442628">
                <ele>304.0</ele>
                <time>2020-08-21T15:58:58.000Z</time>
                <name>Trackpoint 5517</name>
            </trkpt>
            <trkpt lat="50.1060096" lon="11.442728">
                <ele>304.0</ele>
                <time>2020-08-21T15:58:59.000Z</time>
                <name>Trackpoint 5518</name>
            </trkpt>
            <trkpt lat="50.1060256" lon="11.4428264">
                <ele>304.0</ele>
                <time>2020-08-21T15:59:00.000Z</time>
                <name>Trackpoint 5519</name>
            </trkpt>
            <trkpt lat="50.1060416" lon="11.4429264">
                <ele>304.0</ele>
                <time>2020-08-21T15:59:01.000Z</time>
                <name>Trackpoint 5520</name>
            </trkpt>
            <trkpt lat="50.1060608" lon="11.4430288">
                <ele>304.0</ele>
                <time>2020-08-21T15:59:02.000Z</time>
                <name>Trackpoint 5521</name>
            </trkpt>
            <trkpt lat="50.1060832" lon="11.4431296">
                <ele>304.0</ele>
                <time>2020-08-21T15:59:03.000Z</time>
                <name>Trackpoint 5522</name>
            </trkpt>
            <trkpt lat="50.1060992" lon="11.4432336">
                <ele>304.0</ele>
                <time>2020-08-21T15:59:04.000Z</time>
                <name>Trackpoint 5523</name>
            </trkpt>
            <trkpt lat="50.1061216" lon="11.443332">
                <ele>304.0</ele>
                <time>2020-08-21T15:59:05.000Z</time>
                <name>Trackpoint 5524</name>
            </trkpt>
            <trkpt lat="50.1061376" lon="11.4434296">
                <ele>304.0</ele>
                <time>2020-08-21T15:59:06.000Z</time>
                <name>Trackpoint 5525</name>
            </trkpt>
            <trkpt lat="50.1061408" lon="11.4435232">
                <ele>304.0</ele>
                <time>2020-08-21T15:59:07.000Z</time>
                <name>Trackpoint 5526</name>
            </trkpt>
            <trkpt lat="50.1061632" lon="11.44362">
                <ele>304.0</ele>
                <time>2020-08-21T15:59:08.000Z</time>
                <name>Trackpoint 5527</name>
            </trkpt>
            <trkpt lat="50.1061792" lon="11.4437152">
                <ele>304.0</ele>
                <time>2020-08-21T15:59:09.000Z</time>
                <name>Trackpoint 5528</name>
            </trkpt>
            <trkpt lat="50.1061888" lon="11.4438104">
                <ele>304.0</ele>
                <time>2020-08-21T15:59:10.000Z</time>
                <name>Trackpoint 5529</name>
            </trkpt>
            <trkpt lat="50.1062048" lon="11.4439">
                <ele>304.0</ele>
                <time>2020-08-21T15:59:11.000Z</time>
                <name>Trackpoint 5530</name>
            </trkpt>
            <trkpt lat="50.1062112" lon="11.4439952">
                <ele>304.0</ele>
                <time>2020-08-21T15:59:12.000Z</time>
                <name>Trackpoint 5531</name>
            </trkpt>
            <trkpt lat="50.1062112" lon="11.444168">
                <ele>305.0</ele>
                <time>2020-08-21T15:59:14.000Z</time>
                <name>Trackpoint 5532</name>
            </trkpt>
            <trkpt lat="50.1062176" lon="11.4443328">
                <ele>305.0</ele>
                <time>2020-08-21T15:59:16.000Z</time>
                <name>Trackpoint 5533</name>
            </trkpt>
            <trkpt lat="50.106224" lon="11.4445088">
                <ele>305.0</ele>
                <time>2020-08-21T15:59:18.000Z</time>
                <name>Trackpoint 5534</name>
            </trkpt>
            <trkpt lat="50.106224" lon="11.4446824">
                <ele>305.0</ele>
                <time>2020-08-21T15:59:20.000Z</time>
                <name>Trackpoint 5535</name>
            </trkpt>
            <trkpt lat="50.1062368" lon="11.4448632">
                <ele>306.0</ele>
                <time>2020-08-21T15:59:22.000Z</time>
                <name>Trackpoint 5536</name>
            </trkpt>
            <trkpt lat="50.1062496" lon="11.4449616">
                <ele>306.0</ele>
                <time>2020-08-21T15:59:23.000Z</time>
                <name>Trackpoint 5537</name>
            </trkpt>
            <trkpt lat="50.1062656" lon="11.4450552">
                <ele>306.0</ele>
                <time>2020-08-21T15:59:24.000Z</time>
                <name>Trackpoint 5538</name>
            </trkpt>
            <trkpt lat="50.1062752" lon="11.4451488">
                <ele>306.0</ele>
                <time>2020-08-21T15:59:25.000Z</time>
                <name>Trackpoint 5539</name>
            </trkpt>
            <trkpt lat="50.1062784" lon="11.44524">
                <ele>306.0</ele>
                <time>2020-08-21T15:59:26.000Z</time>
                <name>Trackpoint 5540</name>
            </trkpt>
            <trkpt lat="50.106288" lon="11.4453352">
                <ele>306.0</ele>
                <time>2020-08-21T15:59:27.000Z</time>
                <name>Trackpoint 5541</name>
            </trkpt>
            <trkpt lat="50.1062976" lon="11.4455136">
                <ele>306.0</ele>
                <time>2020-08-21T15:59:29.000Z</time>
                <name>Trackpoint 5542</name>
            </trkpt>
            <trkpt lat="50.106304" lon="11.4456056">
                <ele>306.0</ele>
                <time>2020-08-21T15:59:30.000Z</time>
                <name>Trackpoint 5543</name>
            </trkpt>
            <trkpt lat="50.1063072" lon="11.44578">
                <ele>307.0</ele>
                <time>2020-08-21T15:59:32.000Z</time>
                <name>Trackpoint 5544</name>
            </trkpt>
            <trkpt lat="50.1063104" lon="11.4459536">
                <ele>307.0</ele>
                <time>2020-08-21T15:59:34.000Z</time>
                <name>Trackpoint 5545</name>
            </trkpt>
            <trkpt lat="50.1063104" lon="11.4461272">
                <ele>307.0</ele>
                <time>2020-08-21T15:59:36.000Z</time>
                <name>Trackpoint 5546</name>
            </trkpt>
            <trkpt lat="50.1063264" lon="11.4462984">
                <ele>307.0</ele>
                <time>2020-08-21T15:59:38.000Z</time>
                <name>Trackpoint 5547</name>
            </trkpt>
            <trkpt lat="50.1063392" lon="11.4464568">
                <ele>307.0</ele>
                <time>2020-08-21T15:59:40.000Z</time>
                <name>Trackpoint 5548</name>
            </trkpt>
            <trkpt lat="50.1063264" lon="11.4466112">
                <ele>307.0</ele>
                <time>2020-08-21T15:59:42.000Z</time>
                <name>Trackpoint 5549</name>
            </trkpt>
            <trkpt lat="50.1063552" lon="11.44678">
                <ele>307.0</ele>
                <time>2020-08-21T15:59:44.000Z</time>
                <name>Trackpoint 5550</name>
            </trkpt>
            <trkpt lat="50.1063264" lon="11.4468672">
                <ele>307.0</ele>
                <time>2020-08-21T15:59:45.000Z</time>
                <name>Trackpoint 5551</name>
            </trkpt>
            <trkpt lat="50.1063232" lon="11.4470304">
                <ele>308.0</ele>
                <time>2020-08-21T15:59:47.000Z</time>
                <name>Trackpoint 5552</name>
            </trkpt>
            <trkpt lat="50.1062912" lon="11.4471712">
                <ele>308.0</ele>
                <time>2020-08-21T15:59:49.000Z</time>
                <name>Trackpoint 5553</name>
            </trkpt>
            <trkpt lat="50.1062464" lon="11.4472864">
                <ele>309.0</ele>
                <time>2020-08-21T15:59:51.000Z</time>
                <name>Trackpoint 5554</name>
            </trkpt>
            <trkpt lat="50.1061984" lon="11.4474032">
                <ele>309.0</ele>
                <time>2020-08-21T15:59:53.000Z</time>
                <name>Trackpoint 5555</name>
            </trkpt>
            <trkpt lat="50.1061472" lon="11.4474662">
                <ele>309.0</ele>
                <time>2020-08-21T15:59:55.000Z</time>
                <name>Trackpoint 5556</name>
            </trkpt>
            <trkpt lat="50.1061081" lon="11.4475175">
                <ele>310.0</ele>
                <time>2020-08-21T15:59:59.000Z</time>
                <name>Trackpoint 5557</name>
            </trkpt>
            <trkpt lat="50.1060744" lon="11.4475474">
                <ele>315.0</ele>
                <time>2020-08-21T16:08:40.000Z</time>
                <name>Trackpoint 5559</name>
            </trkpt>
            <trkpt lat="50.1060224" lon="11.4475744">
                <ele>316.0</ele>
                <time>2020-08-21T16:08:58.000Z</time>
                <name>Trackpoint 5560</name>
            </trkpt>
            <trkpt lat="50.1059424" lon="11.447632">
                <ele>317.0</ele>
                <time>2020-08-21T16:09:02.000Z</time>
                <name>Trackpoint 5561</name>
            </trkpt>
            <trkpt lat="50.1058688" lon="11.4477256">
                <ele>317.0</ele>
                <time>2020-08-21T16:09:05.000Z</time>
                <name>Trackpoint 5562</name>
            </trkpt>
            <trkpt lat="50.105808" lon="11.4477968">
                <ele>317.0</ele>
                <time>2020-08-21T16:09:07.000Z</time>
                <name>Trackpoint 5563</name>
            </trkpt>
            <trkpt lat="50.105744" lon="11.447884">
                <ele>317.0</ele>
                <time>2020-08-21T16:09:09.000Z</time>
                <name>Trackpoint 5564</name>
            </trkpt>
            <trkpt lat="50.10568" lon="11.4479688">
                <ele>317.0</ele>
                <time>2020-08-21T16:09:11.000Z</time>
                <name>Trackpoint 5565</name>
            </trkpt>
            <trkpt lat="50.105616" lon="11.4480536">
                <ele>317.0</ele>
                <time>2020-08-21T16:09:13.000Z</time>
                <name>Trackpoint 5566</name>
            </trkpt>
            <trkpt lat="50.1055744" lon="11.4481512">
                <ele>317.0</ele>
                <time>2020-08-21T16:09:15.000Z</time>
                <name>Trackpoint 5567</name>
            </trkpt>
            <trkpt lat="50.1055264" lon="11.4482432">
                <ele>317.0</ele>
                <time>2020-08-21T16:09:17.000Z</time>
                <name>Trackpoint 5568</name>
            </trkpt>
            <trkpt lat="50.1054816" lon="11.448328">
                <ele>317.0</ele>
                <time>2020-08-21T16:09:19.000Z</time>
                <name>Trackpoint 5569</name>
            </trkpt>
            <trkpt lat="50.1054176" lon="11.4484384">
                <ele>317.0</ele>
                <time>2020-08-21T16:09:22.000Z</time>
                <name>Trackpoint 5570</name>
            </trkpt>
            <trkpt lat="50.1053376" lon="11.4484856">
                <ele>317.0</ele>
                <time>2020-08-21T16:09:26.000Z</time>
                <name>Trackpoint 5571</name>
            </trkpt>
            <trkpt lat="50.1052576" lon="11.4484168">
                <ele>317.0</ele>
                <time>2020-08-21T16:09:30.000Z</time>
                <name>Trackpoint 5572</name>
            </trkpt>
            <trkpt lat="50.1052288" lon="11.4485104">
                <ele>316.0</ele>
                <time>2020-08-21T16:13:51.000Z</time>
                <name>Trackpoint 5573</name>
            </trkpt>
            <trkpt lat="50.1052704" lon="11.4486112">
                <ele>316.0</ele>
                <time>2020-08-21T16:13:54.000Z</time>
                <name>Trackpoint 5574</name>
            </trkpt>
            <trkpt lat="50.1053376" lon="11.4486848">
                <ele>316.0</ele>
                <time>2020-08-21T16:13:56.000Z</time>
                <name>Trackpoint 5575</name>
            </trkpt>
            <trkpt lat="50.1054016" lon="11.4487488">
                <ele>316.0</ele>
                <time>2020-08-21T16:13:58.000Z</time>
                <name>Trackpoint 5576</name>
            </trkpt>
            <trkpt lat="50.105488" lon="11.4488384">
                <ele>316.0</ele>
                <time>2020-08-21T16:14:01.000Z</time>
                <name>Trackpoint 5577</name>
            </trkpt>
            <trkpt lat="50.105536" lon="11.4489248">
                <ele>315.0</ele>
                <time>2020-08-21T16:14:03.000Z</time>
                <name>Trackpoint 5578</name>
            </trkpt>
            <trkpt lat="50.1055872" lon="11.4490168">
                <ele>315.0</ele>
                <time>2020-08-21T16:14:05.000Z</time>
                <name>Trackpoint 5579</name>
            </trkpt>
            <trkpt lat="50.1056448" lon="11.449092">
                <ele>315.0</ele>
                <time>2020-08-21T16:14:07.000Z</time>
                <name>Trackpoint 5580</name>
            </trkpt>
            <trkpt lat="50.1057216" lon="11.44922">
                <ele>315.0</ele>
                <time>2020-08-21T16:14:10.000Z</time>
                <name>Trackpoint 5581</name>
            </trkpt>
            <trkpt lat="50.1057696" lon="11.4493328">
                <ele>315.0</ele>
                <time>2020-08-21T16:14:12.000Z</time>
                <name>Trackpoint 5582</name>
            </trkpt>
            <trkpt lat="50.105808" lon="11.449424">
                <ele>315.0</ele>
                <time>2020-08-21T16:14:14.000Z</time>
                <name>Trackpoint 5583</name>
            </trkpt>
            <trkpt lat="50.1058528" lon="11.4495584">
                <ele>315.0</ele>
                <time>2020-08-21T16:14:17.000Z</time>
                <name>Trackpoint 5584</name>
            </trkpt>
            <trkpt lat="50.105904" lon="11.4496696">
                <ele>315.0</ele>
                <time>2020-08-21T16:14:19.000Z</time>
                <name>Trackpoint 5585</name>
            </trkpt>
            <trkpt lat="50.1059488" lon="11.4497696">
                <ele>315.0</ele>
                <time>2020-08-21T16:14:21.000Z</time>
                <name>Trackpoint 5586</name>
            </trkpt>
            <trkpt lat="50.1060032" lon="11.4498768">
                <ele>315.0</ele>
                <time>2020-08-21T16:14:23.000Z</time>
                <name>Trackpoint 5587</name>
            </trkpt>
            <trkpt lat="50.1060608" lon="11.4500048">
                <ele>315.0</ele>
                <time>2020-08-21T16:14:25.000Z</time>
                <name>Trackpoint 5588</name>
            </trkpt>
            <trkpt lat="50.1061184" lon="11.4500912">
                <ele>315.0</ele>
                <time>2020-08-21T16:14:27.000Z</time>
                <name>Trackpoint 5589</name>
            </trkpt>
            <trkpt lat="50.1061856" lon="11.4501616">
                <ele>315.0</ele>
                <time>2020-08-21T16:14:29.000Z</time>
                <name>Trackpoint 5590</name>
            </trkpt>
            <trkpt lat="50.1062496" lon="11.4502624">
                <ele>315.0</ele>
                <time>2020-08-21T16:14:31.000Z</time>
                <name>Trackpoint 5591</name>
            </trkpt>
            <trkpt lat="50.1063072" lon="11.4503544">
                <ele>315.0</ele>
                <time>2020-08-21T16:14:33.000Z</time>
                <name>Trackpoint 5592</name>
            </trkpt>
            <trkpt lat="50.1063552" lon="11.4504496">
                <ele>315.0</ele>
                <time>2020-08-21T16:14:35.000Z</time>
                <name>Trackpoint 5593</name>
            </trkpt>
            <trkpt lat="50.1063904" lon="11.4505632">
                <ele>315.0</ele>
                <time>2020-08-21T16:14:37.000Z</time>
                <name>Trackpoint 5594</name>
            </trkpt>
            <trkpt lat="50.1064736" lon="11.4506632">
                <ele>315.0</ele>
                <time>2020-08-21T16:14:40.000Z</time>
                <name>Trackpoint 5595</name>
            </trkpt>
            <trkpt lat="50.1065088" lon="11.4507768">
                <ele>316.0</ele>
                <time>2020-08-21T16:14:44.000Z</time>
                <name>Trackpoint 5596</name>
            </trkpt>
            <trkpt lat="50.1065952" lon="11.450896">
                <ele>316.0</ele>
                <time>2020-08-21T16:14:48.000Z</time>
                <name>Trackpoint 5597</name>
            </trkpt>
            <trkpt lat="50.1066688" lon="11.4510448">
                <ele>316.0</ele>
                <time>2020-08-21T16:14:50.000Z</time>
                <name>Trackpoint 5598</name>
            </trkpt>
            <trkpt lat="50.1067616" lon="11.4511616">
                <ele>316.0</ele>
                <time>2020-08-21T16:14:52.000Z</time>
                <name>Trackpoint 5599</name>
            </trkpt>
            <trkpt lat="50.106832" lon="11.4512752">
                <ele>317.0</ele>
                <time>2020-08-21T16:14:54.000Z</time>
                <name>Trackpoint 5600</name>
            </trkpt>
            <trkpt lat="50.1069184" lon="11.4513384">
                <ele>316.0</ele>
                <time>2020-08-21T16:14:56.000Z</time>
                <name>Trackpoint 5601</name>
            </trkpt>
            <trkpt lat="50.1069984" lon="11.4514552">
                <ele>317.0</ele>
                <time>2020-08-21T16:15:00.000Z</time>
                <name>Trackpoint 5602</name>
            </trkpt>
            <trkpt lat="50.1070752" lon="11.451504">
                <ele>317.0</ele>
                <time>2020-08-21T16:15:03.000Z</time>
                <name>Trackpoint 5603</name>
            </trkpt>
            <trkpt lat="50.1071296" lon="11.4516184">
                <ele>317.0</ele>
                <time>2020-08-21T16:15:06.000Z</time>
                <name>Trackpoint 5604</name>
            </trkpt>
            <trkpt lat="50.1072096" lon="11.4517384">
                <ele>317.0</ele>
                <time>2020-08-21T16:15:08.000Z</time>
                <name>Trackpoint 5605</name>
            </trkpt>
            <trkpt lat="50.1072544" lon="11.451872">
                <ele>317.0</ele>
                <time>2020-08-21T16:15:10.000Z</time>
                <name>Trackpoint 5606</name>
            </trkpt>
            <trkpt lat="50.1072992" lon="11.45198">
                <ele>318.0</ele>
                <time>2020-08-21T16:15:12.000Z</time>
                <name>Trackpoint 5607</name>
            </trkpt>
            <trkpt lat="50.1073408" lon="11.45208">
                <ele>318.0</ele>
                <time>2020-08-21T16:15:14.000Z</time>
                <name>Trackpoint 5608</name>
            </trkpt>
            <trkpt lat="50.107392" lon="11.4522184">
                <ele>318.0</ele>
                <time>2020-08-21T16:15:16.000Z</time>
                <name>Trackpoint 5609</name>
            </trkpt>
            <trkpt lat="50.1074272" lon="11.4523312">
                <ele>318.0</ele>
                <time>2020-08-21T16:15:18.000Z</time>
                <name>Trackpoint 5610</name>
            </trkpt>
            <trkpt lat="50.1074752" lon="11.4524544">
                <ele>318.0</ele>
                <time>2020-08-21T16:15:21.000Z</time>
                <name>Trackpoint 5611</name>
            </trkpt>
            <trkpt lat="50.1074816" lon="11.452572">
                <ele>318.0</ele>
                <time>2020-08-21T16:15:23.000Z</time>
                <name>Trackpoint 5612</name>
            </trkpt>
            <trkpt lat="50.1075136" lon="11.452708">
                <ele>318.0</ele>
                <time>2020-08-21T16:15:25.000Z</time>
                <name>Trackpoint 5613</name>
            </trkpt>
            <trkpt lat="50.1075488" lon="11.4528376">
                <ele>318.0</ele>
                <time>2020-08-21T16:15:27.000Z</time>
                <name>Trackpoint 5614</name>
            </trkpt>
            <trkpt lat="50.1075744" lon="11.4529464">
                <ele>318.0</ele>
                <time>2020-08-21T16:15:29.000Z</time>
                <name>Trackpoint 5615</name>
            </trkpt>
            <trkpt lat="50.1076" lon="11.4530432">
                <ele>318.0</ele>
                <time>2020-08-21T16:15:31.000Z</time>
                <name>Trackpoint 5616</name>
            </trkpt>
            <trkpt lat="50.1076096" lon="11.453168">
                <ele>318.0</ele>
                <time>2020-08-21T16:15:33.000Z</time>
                <name>Trackpoint 5617</name>
            </trkpt>
            <trkpt lat="50.1076288" lon="11.4532872">
                <ele>318.0</ele>
                <time>2020-08-21T16:15:35.000Z</time>
                <name>Trackpoint 5618</name>
            </trkpt>
            <trkpt lat="50.107632" lon="11.4534184">
                <ele>318.0</ele>
                <time>2020-08-21T16:15:37.000Z</time>
                <name>Trackpoint 5619</name>
            </trkpt>
            <trkpt lat="50.107632" lon="11.4535304">
                <ele>318.0</ele>
                <time>2020-08-21T16:15:39.000Z</time>
                <name>Trackpoint 5620</name>
            </trkpt>
            <trkpt lat="50.1076576" lon="11.453644">
                <ele>318.0</ele>
                <time>2020-08-21T16:15:41.000Z</time>
                <name>Trackpoint 5621</name>
            </trkpt>
            <trkpt lat="50.1076704" lon="11.4537712">
                <ele>318.0</ele>
                <time>2020-08-21T16:15:43.000Z</time>
                <name>Trackpoint 5622</name>
            </trkpt>
            <trkpt lat="50.107696" lon="11.4539216">
                <ele>318.0</ele>
                <time>2020-08-21T16:15:45.000Z</time>
                <name>Trackpoint 5623</name>
            </trkpt>
            <trkpt lat="50.1078176" lon="11.4540368">
                <ele>318.0</ele>
                <time>2020-08-21T16:15:47.000Z</time>
                <name>Trackpoint 5624</name>
            </trkpt>
            <trkpt lat="50.1078848" lon="11.45414">
                <ele>318.0</ele>
                <time>2020-08-21T16:15:49.000Z</time>
                <name>Trackpoint 5625</name>
            </trkpt>
            <trkpt lat="50.1078848" lon="11.4542352">
                <ele>318.0</ele>
                <time>2020-08-21T16:15:51.000Z</time>
                <name>Trackpoint 5626</name>
            </trkpt>
            <trkpt lat="50.1078784" lon="11.4543464">
                <ele>318.0</ele>
                <time>2020-08-21T16:15:53.000Z</time>
                <name>Trackpoint 5627</name>
            </trkpt>
            <trkpt lat="50.1078528" lon="11.4544832">
                <ele>318.0</ele>
                <time>2020-08-21T16:15:55.000Z</time>
                <name>Trackpoint 5628</name>
            </trkpt>
            <trkpt lat="50.1078528" lon="11.4546">
                <ele>318.0</ele>
                <time>2020-08-21T16:15:57.000Z</time>
                <name>Trackpoint 5629</name>
            </trkpt>
            <trkpt lat="50.1078656" lon="11.454692">
                <ele>318.0</ele>
                <time>2020-08-21T16:15:59.000Z</time>
                <name>Trackpoint 5630</name>
            </trkpt>
            <trkpt lat="50.1079296" lon="11.4547568">
                <ele>317.0</ele>
                <time>2020-08-21T16:16:01.000Z</time>
                <name>Trackpoint 5631</name>
            </trkpt>
            <trkpt lat="50.1079872" lon="11.454828">
                <ele>317.0</ele>
                <time>2020-08-21T16:16:05.000Z</time>
                <name>Trackpoint 5632</name>
            </trkpt>
            <trkpt lat="50.1079776" lon="11.4549176">
                <ele>317.0</ele>
                <time>2020-08-21T16:16:35.000Z</time>
                <name>Trackpoint 5633</name>
            </trkpt>
            <trkpt lat="50.1080288" lon="11.4550248">
                <ele>317.0</ele>
                <time>2020-08-21T16:16:52.000Z</time>
                <name>Trackpoint 5634</name>
            </trkpt>
            <trkpt lat="50.1080768" lon="11.45512">
                <ele>317.0</ele>
                <time>2020-08-21T16:16:55.000Z</time>
                <name>Trackpoint 5635</name>
            </trkpt>
            <trkpt lat="50.1081504" lon="11.4552088">
                <ele>317.0</ele>
                <time>2020-08-21T16:17:01.000Z</time>
                <name>Trackpoint 5636</name>
            </trkpt>
            <trkpt lat="50.1082048" lon="11.4552984">
                <ele>317.0</ele>
                <time>2020-08-21T16:17:06.000Z</time>
                <name>Trackpoint 5637</name>
            </trkpt>
            <trkpt lat="50.108224" lon="11.4553984">
                <ele>317.0</ele>
                <time>2020-08-21T16:17:33.000Z</time>
                <name>Trackpoint 5638</name>
            </trkpt>
            <trkpt lat="50.1082656" lon="11.4554856">
                <ele>317.0</ele>
                <time>2020-08-21T16:17:48.000Z</time>
                <name>Trackpoint 5639</name>
            </trkpt>
            <trkpt lat="50.1083008" lon="11.4556016">
                <ele>317.0</ele>
                <time>2020-08-21T16:17:52.000Z</time>
                <name>Trackpoint 5640</name>
            </trkpt>
            <trkpt lat="50.1082944" lon="11.45574">
                <ele>317.0</ele>
                <time>2020-08-21T16:17:54.000Z</time>
                <name>Trackpoint 5641</name>
            </trkpt>
            <trkpt lat="50.1082848" lon="11.4558464">
                <ele>317.0</ele>
                <time>2020-08-21T16:17:56.000Z</time>
                <name>Trackpoint 5642</name>
            </trkpt>
            <trkpt lat="50.1082528" lon="11.4559448">
                <ele>317.0</ele>
                <time>2020-08-21T16:17:58.000Z</time>
                <name>Trackpoint 5643</name>
            </trkpt>
            <trkpt lat="50.1082624" lon="11.4560416">
                <ele>317.0</ele>
                <time>2020-08-21T16:18:00.000Z</time>
                <name>Trackpoint 5644</name>
            </trkpt>
            <trkpt lat="50.108256" lon="11.4561528">
                <ele>317.0</ele>
                <time>2020-08-21T16:18:03.000Z</time>
                <name>Trackpoint 5645</name>
            </trkpt>
            <trkpt lat="50.108288" lon="11.4562616">
                <ele>317.0</ele>
                <time>2020-08-21T16:18:06.000Z</time>
                <name>Trackpoint 5646</name>
            </trkpt>
            <trkpt lat="50.1083008" lon="11.4563688">
                <ele>317.0</ele>
                <time>2020-08-21T16:18:09.000Z</time>
                <name>Trackpoint 5647</name>
            </trkpt>
            <trkpt lat="50.1082848" lon="11.4564632">
                <ele>317.0</ele>
                <time>2020-08-21T16:18:12.000Z</time>
                <name>Trackpoint 5648</name>
            </trkpt>
            <trkpt lat="50.1082112" lon="11.4565688">
                <ele>317.0</ele>
                <time>2020-08-21T16:18:14.000Z</time>
                <name>Trackpoint 5649</name>
            </trkpt>
            <trkpt lat="50.1081664" lon="11.456652">
                <ele>317.0</ele>
                <time>2020-08-21T16:18:16.000Z</time>
                <name>Trackpoint 5650</name>
            </trkpt>
            <trkpt lat="50.1081152" lon="11.4567472">
                <ele>318.0</ele>
                <time>2020-08-21T16:18:21.000Z</time>
                <name>Trackpoint 5651</name>
            </trkpt>
            <trkpt lat="50.1081248" lon="11.4566288">
                <ele>318.0</ele>
                <time>2020-08-21T16:18:42.000Z</time>
                <name>Trackpoint 5652</name>
            </trkpt>
            <trkpt lat="50.1081376" lon="11.4565112">
                <ele>318.0</ele>
                <time>2020-08-21T16:18:45.000Z</time>
                <name>Trackpoint 5653</name>
            </trkpt>
            <trkpt lat="50.1081344" lon="11.4563752">
                <ele>318.0</ele>
                <time>2020-08-21T16:18:48.000Z</time>
                <name>Trackpoint 5654</name>
            </trkpt>
            <trkpt lat="50.108144" lon="11.4562752">
                <ele>318.0</ele>
                <time>2020-08-21T16:18:50.000Z</time>
                <name>Trackpoint 5655</name>
            </trkpt>
            <trkpt lat="50.1081536" lon="11.4561632">
                <ele>318.0</ele>
                <time>2020-08-21T16:18:52.000Z</time>
                <name>Trackpoint 5656</name>
            </trkpt>
            <trkpt lat="50.1081632" lon="11.4560384">
                <ele>318.0</ele>
                <time>2020-08-21T16:18:54.000Z</time>
                <name>Trackpoint 5657</name>
            </trkpt>
            <trkpt lat="50.1081728" lon="11.4559296">
                <ele>318.0</ele>
                <time>2020-08-21T16:18:56.000Z</time>
                <name>Trackpoint 5658</name>
            </trkpt>
            <trkpt lat="50.108176" lon="11.4558032">
                <ele>318.0</ele>
                <time>2020-08-21T16:18:59.000Z</time>
                <name>Trackpoint 5659</name>
            </trkpt>
            <trkpt lat="50.1081824" lon="11.4557064">
                <ele>318.0</ele>
                <time>2020-08-21T16:19:03.000Z</time>
                <name>Trackpoint 5660</name>
            </trkpt>
            <trkpt lat="50.1081568" lon="11.45558">
                <ele>318.0</ele>
                <time>2020-08-21T16:19:29.000Z</time>
                <name>Trackpoint 5661</name>
            </trkpt>
            <trkpt lat="50.1081568" lon="11.455468">
                <ele>318.0</ele>
                <time>2020-08-21T16:19:32.000Z</time>
                <name>Trackpoint 5662</name>
            </trkpt>
            <trkpt lat="50.1081696" lon="11.4553616">
                <ele>318.0</ele>
                <time>2020-08-21T16:19:42.000Z</time>
                <name>Trackpoint 5663</name>
            </trkpt>
            <trkpt lat="50.1081248" lon="11.4552816">
                <ele>318.0</ele>
                <time>2020-08-21T16:19:46.000Z</time>
                <name>Trackpoint 5664</name>
            </trkpt>
            <trkpt lat="50.1080896" lon="11.4551984">
                <ele>318.0</ele>
                <time>2020-08-21T16:19:49.000Z</time>
                <name>Trackpoint 5665</name>
            </trkpt>
            <trkpt lat="50.1080384" lon="11.4551112">
                <ele>318.0</ele>
                <time>2020-08-21T16:19:54.000Z</time>
                <name>Trackpoint 5666</name>
            </trkpt>
            <trkpt lat="50.1079488" lon="11.45508">
                <ele>318.0</ele>
                <time>2020-08-21T16:20:42.000Z</time>
                <name>Trackpoint 5667</name>
            </trkpt>
            <trkpt lat="50.1078592" lon="11.4550536">
                <ele>318.0</ele>
                <time>2020-08-21T16:21:23.000Z</time>
                <name>Trackpoint 5668</name>
            </trkpt>
            <trkpt lat="50.1078336" lon="11.4549552">
                <ele>318.0</ele>
                <time>2020-08-21T16:21:29.000Z</time>
                <name>Trackpoint 5669</name>
            </trkpt>
            <trkpt lat="50.1078048" lon="11.4548528">
                <ele>318.0</ele>
                <time>2020-08-21T16:21:35.000Z</time>
                <name>Trackpoint 5670</name>
            </trkpt>
            <trkpt lat="50.1077728" lon="11.4547632">
                <ele>318.0</ele>
                <time>2020-08-21T16:21:40.000Z</time>
                <name>Trackpoint 5671</name>
            </trkpt>
            <trkpt lat="50.1077568" lon="11.4546744">
                <ele>318.0</ele>
                <time>2020-08-21T16:21:45.000Z</time>
                <name>Trackpoint 5672</name>
            </trkpt>
            <trkpt lat="50.1077504" lon="11.454568">
                <ele>318.0</ele>
                <time>2020-08-21T16:21:49.000Z</time>
                <name>Trackpoint 5673</name>
            </trkpt>
            <trkpt lat="50.1077568" lon="11.4544736">
                <ele>318.0</ele>
                <time>2020-08-21T16:21:53.000Z</time>
                <name>Trackpoint 5674</name>
            </trkpt>
            <trkpt lat="50.1077472" lon="11.454376">
                <ele>318.0</ele>
                <time>2020-08-21T16:21:57.000Z</time>
                <name>Trackpoint 5675</name>
            </trkpt>
            <trkpt lat="50.1077376" lon="11.4542688">
                <ele>318.0</ele>
                <time>2020-08-21T16:22:01.000Z</time>
                <name>Trackpoint 5676</name>
            </trkpt>
            <trkpt lat="50.1077536" lon="11.454168">
                <ele>318.0</ele>
                <time>2020-08-21T16:22:04.000Z</time>
                <name>Trackpoint 5677</name>
            </trkpt>
            <trkpt lat="50.1077536" lon="11.4540752">
                <ele>318.0</ele>
                <time>2020-08-21T16:22:08.000Z</time>
                <name>Trackpoint 5678</name>
            </trkpt>
            <trkpt lat="50.1077536" lon="11.453968">
                <ele>318.0</ele>
                <time>2020-08-21T16:22:12.000Z</time>
                <name>Trackpoint 5679</name>
            </trkpt>
            <trkpt lat="50.1077472" lon="11.4538632">
                <ele>318.0</ele>
                <time>2020-08-21T16:22:15.000Z</time>
                <name>Trackpoint 5680</name>
            </trkpt>
            <trkpt lat="50.1077376" lon="11.4537712">
                <ele>318.0</ele>
                <time>2020-08-21T16:22:18.000Z</time>
                <name>Trackpoint 5681</name>
            </trkpt>
            <trkpt lat="50.1077248" lon="11.4536504">
                <ele>318.0</ele>
                <time>2020-08-21T16:22:21.000Z</time>
                <name>Trackpoint 5682</name>
            </trkpt>
            <trkpt lat="50.1077184" lon="11.45356">
                <ele>318.0</ele>
                <time>2020-08-21T16:22:23.000Z</time>
                <name>Trackpoint 5683</name>
            </trkpt>
            <trkpt lat="50.107712" lon="11.4534656">
                <ele>318.0</ele>
                <time>2020-08-21T16:22:25.000Z</time>
                <name>Trackpoint 5684</name>
            </trkpt>
            <trkpt lat="50.1076992" lon="11.4533704">
                <ele>318.0</ele>
                <time>2020-08-21T16:22:27.000Z</time>
                <name>Trackpoint 5685</name>
            </trkpt>
            <trkpt lat="50.10768" lon="11.4532736">
                <ele>318.0</ele>
                <time>2020-08-21T16:22:29.000Z</time>
                <name>Trackpoint 5686</name>
            </trkpt>
            <trkpt lat="50.1076736" lon="11.4531472">
                <ele>318.0</ele>
                <time>2020-08-21T16:22:32.000Z</time>
                <name>Trackpoint 5687</name>
            </trkpt>
            <trkpt lat="50.1076576" lon="11.4530232">
                <ele>319.0</ele>
                <time>2020-08-21T16:22:35.000Z</time>
                <name>Trackpoint 5688</name>
            </trkpt>
            <trkpt lat="50.1076192" lon="11.4529384">
                <ele>317.0</ele>
                <time>2020-08-21T16:22:37.000Z</time>
                <name>Trackpoint 5689</name>
            </trkpt>
            <trkpt lat="50.1075776" lon="11.4528464">
                <ele>317.0</ele>
                <time>2020-08-21T16:22:39.000Z</time>
                <name>Trackpoint 5690</name>
            </trkpt>
            <trkpt lat="50.1075808" lon="11.4527128">
                <ele>317.0</ele>
                <time>2020-08-21T16:22:42.000Z</time>
                <name>Trackpoint 5691</name>
            </trkpt>
            <trkpt lat="50.1075296" lon="11.452588">
                <ele>316.0</ele>
                <time>2020-08-21T16:22:44.000Z</time>
                <name>Trackpoint 5692</name>
            </trkpt>
            <trkpt lat="50.107488" lon="11.4524768">
                <ele>314.0</ele>
                <time>2020-08-21T16:22:46.000Z</time>
                <name>Trackpoint 5693</name>
            </trkpt>
            <trkpt lat="50.10744" lon="11.4523472">
                <ele>313.0</ele>
                <time>2020-08-21T16:22:48.000Z</time>
                <name>Trackpoint 5694</name>
            </trkpt>
            <trkpt lat="50.1073952" lon="11.4522048">
                <ele>312.0</ele>
                <time>2020-08-21T16:22:50.000Z</time>
                <name>Trackpoint 5695</name>
            </trkpt>
            <trkpt lat="50.1073408" lon="11.4520712">
                <ele>312.0</ele>
                <time>2020-08-21T16:22:52.000Z</time>
                <name>Trackpoint 5696</name>
            </trkpt>
            <trkpt lat="50.1072832" lon="11.4519464">
                <ele>311.0</ele>
                <time>2020-08-21T16:22:54.000Z</time>
                <name>Trackpoint 5697</name>
            </trkpt>
            <trkpt lat="50.1072352" lon="11.4518384">
                <ele>311.0</ele>
                <time>2020-08-21T16:22:56.000Z</time>
                <name>Trackpoint 5698</name>
            </trkpt>
            <trkpt lat="50.1071968" lon="11.4517432">
                <ele>311.0</ele>
                <time>2020-08-21T16:22:58.000Z</time>
                <name>Trackpoint 5699</name>
            </trkpt>
            <trkpt lat="50.107152" lon="11.4516648">
                <ele>310.0</ele>
                <time>2020-08-21T16:23:01.000Z</time>
                <name>Trackpoint 5700</name>
            </trkpt>
            <trkpt lat="50.1071328" lon="11.451576">
                <ele>310.0</ele>
                <time>2020-08-21T16:23:09.000Z</time>
                <name>Trackpoint 5701</name>
            </trkpt>
            <trkpt lat="50.1071296" lon="11.4514616">
                <ele>310.0</ele>
                <time>2020-08-21T16:23:12.000Z</time>
                <name>Trackpoint 5702</name>
            </trkpt>
            <trkpt lat="50.1070944" lon="11.451332">
                <ele>310.0</ele>
                <time>2020-08-21T16:23:15.000Z</time>
                <name>Trackpoint 5703</name>
            </trkpt>
            <trkpt lat="50.1070528" lon="11.4512456">
                <ele>310.0</ele>
                <time>2020-08-21T16:23:17.000Z</time>
                <name>Trackpoint 5704</name>
            </trkpt>
            <trkpt lat="50.1069792" lon="11.4511744">
                <ele>311.0</ele>
                <time>2020-08-21T16:23:19.000Z</time>
                <name>Trackpoint 5705</name>
            </trkpt>
            <trkpt lat="50.106912" lon="11.451088">
                <ele>311.0</ele>
                <time>2020-08-21T16:23:21.000Z</time>
                <name>Trackpoint 5706</name>
            </trkpt>
            <trkpt lat="50.1068512" lon="11.451">
                <ele>312.0</ele>
                <time>2020-08-21T16:23:23.000Z</time>
                <name>Trackpoint 5707</name>
            </trkpt>
            <trkpt lat="50.1067872" lon="11.4509136">
                <ele>312.0</ele>
                <time>2020-08-21T16:23:25.000Z</time>
                <name>Trackpoint 5708</name>
            </trkpt>
            <trkpt lat="50.1067136" lon="11.4508384">
                <ele>312.0</ele>
                <time>2020-08-21T16:23:27.000Z</time>
                <name>Trackpoint 5709</name>
            </trkpt>
            <trkpt lat="50.1066464" lon="11.4507568">
                <ele>312.0</ele>
                <time>2020-08-21T16:23:29.000Z</time>
                <name>Trackpoint 5710</name>
            </trkpt>
            <trkpt lat="50.1065856" lon="11.4506712">
                <ele>313.0</ele>
                <time>2020-08-21T16:23:31.000Z</time>
                <name>Trackpoint 5711</name>
            </trkpt>
            <trkpt lat="50.1065248" lon="11.4505928">
                <ele>315.0</ele>
                <time>2020-08-21T16:23:33.000Z</time>
                <name>Trackpoint 5712</name>
            </trkpt>
            <trkpt lat="50.1064736" lon="11.4504944">
                <ele>313.0</ele>
                <time>2020-08-21T16:23:35.000Z</time>
                <name>Trackpoint 5713</name>
            </trkpt>
            <trkpt lat="50.1064192" lon="11.4503936">
                <ele>313.0</ele>
                <time>2020-08-21T16:23:38.000Z</time>
                <name>Trackpoint 5714</name>
            </trkpt>
            <trkpt lat="50.1063744" lon="11.4502648">
                <ele>313.0</ele>
                <time>2020-08-21T16:23:41.000Z</time>
                <name>Trackpoint 5715</name>
            </trkpt>
            <trkpt lat="50.1063296" lon="11.4501688">
                <ele>313.0</ele>
                <time>2020-08-21T16:23:43.000Z</time>
                <name>Trackpoint 5716</name>
            </trkpt>
            <trkpt lat="50.1062816" lon="11.4500752">
                <ele>314.0</ele>
                <time>2020-08-21T16:23:45.000Z</time>
                <name>Trackpoint 5717</name>
            </trkpt>
            <trkpt lat="50.1062176" lon="11.4499712">
                <ele>314.0</ele>
                <time>2020-08-21T16:23:47.000Z</time>
                <name>Trackpoint 5718</name>
            </trkpt>
            <trkpt lat="50.1061504" lon="11.4498616">
                <ele>314.0</ele>
                <time>2020-08-21T16:23:49.000Z</time>
                <name>Trackpoint 5719</name>
            </trkpt>
            <trkpt lat="50.1061056" lon="11.4497672">
                <ele>314.0</ele>
                <time>2020-08-21T16:23:51.000Z</time>
                <name>Trackpoint 5720</name>
            </trkpt>
            <trkpt lat="50.106048" lon="11.449692">
                <ele>314.0</ele>
                <time>2020-08-21T16:23:56.000Z</time>
                <name>Trackpoint 5721</name>
            </trkpt>
            <trkpt lat="50.1060096" lon="11.4495752">
                <ele>314.0</ele>
                <time>2020-08-21T16:24:15.000Z</time>
                <name>Trackpoint 5722</name>
            </trkpt>
            <trkpt lat="50.105968" lon="11.4494464">
                <ele>314.0</ele>
                <time>2020-08-21T16:24:18.000Z</time>
                <name>Trackpoint 5723</name>
            </trkpt>
            <trkpt lat="50.1059296" lon="11.4493504">
                <ele>314.0</ele>
                <time>2020-08-21T16:24:20.000Z</time>
                <name>Trackpoint 5724</name>
            </trkpt>
            <trkpt lat="50.1058816" lon="11.4492464">
                <ele>314.0</ele>
                <time>2020-08-21T16:24:22.000Z</time>
                <name>Trackpoint 5725</name>
            </trkpt>
            <trkpt lat="50.1058336" lon="11.4491464">
                <ele>314.0</ele>
                <time>2020-08-21T16:24:24.000Z</time>
                <name>Trackpoint 5726</name>
            </trkpt>
            <trkpt lat="50.1057696" lon="11.449052">
                <ele>314.0</ele>
                <time>2020-08-21T16:24:26.000Z</time>
                <name>Trackpoint 5727</name>
            </trkpt>
            <trkpt lat="50.1056928" lon="11.4489648">
                <ele>314.0</ele>
                <time>2020-08-21T16:24:28.000Z</time>
                <name>Trackpoint 5728</name>
            </trkpt>
            <trkpt lat="50.105632" lon="11.4488848">
                <ele>314.0</ele>
                <time>2020-08-21T16:24:30.000Z</time>
                <name>Trackpoint 5729</name>
            </trkpt>
            <trkpt lat="50.1055616" lon="11.4487888">
                <ele>314.0</ele>
                <time>2020-08-21T16:24:33.000Z</time>
                <name>Trackpoint 5730</name>
            </trkpt>
            <trkpt lat="50.1055168" lon="11.4486936">
                <ele>314.0</ele>
                <time>2020-08-21T16:24:36.000Z</time>
                <name>Trackpoint 5731</name>
            </trkpt>
            <trkpt lat="50.1055008" lon="11.4486016">
                <ele>314.0</ele>
                <time>2020-08-21T16:24:40.000Z</time>
                <name>Trackpoint 5732</name>
            </trkpt>
            <trkpt lat="50.1055424" lon="11.4484984">
                <ele>314.0</ele>
                <time>2020-08-21T16:24:49.000Z</time>
                <name>Trackpoint 5733</name>
            </trkpt>
            <trkpt lat="50.1055904" lon="11.4484216">
                <ele>314.0</ele>
                <time>2020-08-21T16:24:52.000Z</time>
                <name>Trackpoint 5734</name>
            </trkpt>
            <trkpt lat="50.1056512" lon="11.4483232">
                <ele>314.0</ele>
                <time>2020-08-21T16:24:55.000Z</time>
                <name>Trackpoint 5735</name>
            </trkpt>
            <trkpt lat="50.1057504" lon="11.4482816">
                <ele>314.0</ele>
                <time>2020-08-21T16:24:59.000Z</time>
                <name>Trackpoint 5736</name>
            </trkpt>
            <trkpt lat="50.10584" lon="11.4482248">
                <ele>313.0</ele>
                <time>2020-08-21T16:25:34.000Z</time>
                <name>Trackpoint 5737</name>
            </trkpt>
            <trkpt lat="50.1058496" lon="11.4481312">
                <ele>313.0</ele>
                <time>2020-08-21T16:25:37.000Z</time>
                <name>Trackpoint 5738</name>
            </trkpt>
            <trkpt lat="50.1058016" lon="11.4480312">
                <ele>313.0</ele>
                <time>2020-08-21T16:25:41.000Z</time>
                <name>Trackpoint 5739</name>
            </trkpt>
            <trkpt lat="50.1058336" lon="11.4479368">
                <ele>312.0</ele>
                <time>2020-08-21T16:25:44.000Z</time>
                <name>Trackpoint 5740</name>
            </trkpt>
            <trkpt lat="50.1058912" lon="11.4478528">
                <ele>311.0</ele>
                <time>2020-08-21T16:25:46.000Z</time>
                <name>Trackpoint 5741</name>
            </trkpt>
            <trkpt lat="50.105968" lon="11.447772">
                <ele>310.0</ele>
                <time>2020-08-21T16:25:48.000Z</time>
                <name>Trackpoint 5742</name>
            </trkpt>
            <trkpt lat="50.1060448" lon="11.447668">
                <ele>308.0</ele>
                <time>2020-08-21T16:25:50.000Z</time>
                <name>Trackpoint 5743</name>
            </trkpt>
            <trkpt lat="50.106128" lon="11.44754">
                <ele>307.0</ele>
                <time>2020-08-21T16:25:52.000Z</time>
                <name>Trackpoint 5744</name>
            </trkpt>
            <trkpt lat="50.1062048" lon="11.4474248">
                <ele>305.0</ele>
                <time>2020-08-21T16:25:54.000Z</time>
                <name>Trackpoint 5745</name>
            </trkpt>
            <trkpt lat="50.1062752" lon="11.447284">
                <ele>305.0</ele>
                <time>2020-08-21T16:25:56.000Z</time>
                <name>Trackpoint 5746</name>
            </trkpt>
            <trkpt lat="50.1063264" lon="11.447128">
                <ele>304.0</ele>
                <time>2020-08-21T16:25:58.000Z</time>
                <name>Trackpoint 5747</name>
            </trkpt>
            <trkpt lat="50.1063584" lon="11.446952">
                <ele>303.0</ele>
                <time>2020-08-21T16:26:00.000Z</time>
                <name>Trackpoint 5748</name>
            </trkpt>
            <trkpt lat="50.1063616" lon="11.4468544">
                <ele>303.0</ele>
                <time>2020-08-21T16:26:01.000Z</time>
                <name>Trackpoint 5749</name>
            </trkpt>
            <trkpt lat="50.1063808" lon="11.4466784">
                <ele>304.0</ele>
                <time>2020-08-21T16:26:03.000Z</time>
                <name>Trackpoint 5750</name>
            </trkpt>
            <trkpt lat="50.1063808" lon="11.4465712">
                <ele>305.0</ele>
                <time>2020-08-21T16:26:04.000Z</time>
                <name>Trackpoint 5751</name>
            </trkpt>
            <trkpt lat="50.106384" lon="11.4464728">
                <ele>305.0</ele>
                <time>2020-08-21T16:26:05.000Z</time>
                <name>Trackpoint 5752</name>
            </trkpt>
            <trkpt lat="50.106384" lon="11.4463704">
                <ele>305.0</ele>
                <time>2020-08-21T16:26:06.000Z</time>
                <name>Trackpoint 5753</name>
            </trkpt>
            <trkpt lat="50.1063872" lon="11.4462768">
                <ele>305.0</ele>
                <time>2020-08-21T16:26:07.000Z</time>
                <name>Trackpoint 5754</name>
            </trkpt>
            <trkpt lat="50.1063904" lon="11.4461832">
                <ele>304.0</ele>
                <time>2020-08-21T16:26:08.000Z</time>
                <name>Trackpoint 5755</name>
            </trkpt>
            <trkpt lat="50.1063904" lon="11.4460848">
                <ele>304.0</ele>
                <time>2020-08-21T16:26:09.000Z</time>
                <name>Trackpoint 5756</name>
            </trkpt>
            <trkpt lat="50.1063904" lon="11.4459888">
                <ele>304.0</ele>
                <time>2020-08-21T16:26:10.000Z</time>
                <name>Trackpoint 5757</name>
            </trkpt>
            <trkpt lat="50.1063904" lon="11.4458864">
                <ele>304.0</ele>
                <time>2020-08-21T16:26:11.000Z</time>
                <name>Trackpoint 5758</name>
            </trkpt>
            <trkpt lat="50.1063904" lon="11.4457864">
                <ele>304.0</ele>
                <time>2020-08-21T16:26:12.000Z</time>
                <name>Trackpoint 5759</name>
            </trkpt>
            <trkpt lat="50.1063904" lon="11.445688">
                <ele>304.0</ele>
                <time>2020-08-21T16:26:13.000Z</time>
                <name>Trackpoint 5760</name>
            </trkpt>
            <trkpt lat="50.1063904" lon="11.4455904">
                <ele>304.0</ele>
                <time>2020-08-21T16:26:14.000Z</time>
                <name>Trackpoint 5761</name>
            </trkpt>
            <trkpt lat="50.1063904" lon="11.4454936">
                <ele>304.0</ele>
                <time>2020-08-21T16:26:15.000Z</time>
                <name>Trackpoint 5762</name>
            </trkpt>
            <trkpt lat="50.1063904" lon="11.4453968">
                <ele>303.0</ele>
                <time>2020-08-21T16:26:16.000Z</time>
                <name>Trackpoint 5763</name>
            </trkpt>
            <trkpt lat="50.1063904" lon="11.4452984">
                <ele>303.0</ele>
                <time>2020-08-21T16:26:17.000Z</time>
                <name>Trackpoint 5764</name>
            </trkpt>
            <trkpt lat="50.1063904" lon="11.4451112">
                <ele>303.0</ele>
                <time>2020-08-21T16:26:19.000Z</time>
                <name>Trackpoint 5765</name>
            </trkpt>
            <trkpt lat="50.1063968" lon="11.4450168">
                <ele>303.0</ele>
                <time>2020-08-21T16:26:20.000Z</time>
                <name>Trackpoint 5766</name>
            </trkpt>
            <trkpt lat="50.1063968" lon="11.4449216">
                <ele>303.0</ele>
                <time>2020-08-21T16:26:21.000Z</time>
                <name>Trackpoint 5767</name>
            </trkpt>
            <trkpt lat="50.1063904" lon="11.4448216">
                <ele>303.0</ele>
                <time>2020-08-21T16:26:22.000Z</time>
                <name>Trackpoint 5768</name>
            </trkpt>
            <trkpt lat="50.1063904" lon="11.4447248">
                <ele>303.0</ele>
                <time>2020-08-21T16:26:23.000Z</time>
                <name>Trackpoint 5769</name>
            </trkpt>
            <trkpt lat="50.1063904" lon="11.4446288">
                <ele>303.0</ele>
                <time>2020-08-21T16:26:24.000Z</time>
                <name>Trackpoint 5770</name>
            </trkpt>
            <trkpt lat="50.1063872" lon="11.4445336">
                <ele>303.0</ele>
                <time>2020-08-21T16:26:25.000Z</time>
                <name>Trackpoint 5771</name>
            </trkpt>
            <trkpt lat="50.106384" lon="11.4444376">
                <ele>303.0</ele>
                <time>2020-08-21T16:26:26.000Z</time>
                <name>Trackpoint 5772</name>
            </trkpt>
            <trkpt lat="50.1063808" lon="11.4443416">
                <ele>303.0</ele>
                <time>2020-08-21T16:26:27.000Z</time>
                <name>Trackpoint 5773</name>
            </trkpt>
            <trkpt lat="50.1063776" lon="11.4442456">
                <ele>304.0</ele>
                <time>2020-08-21T16:26:28.000Z</time>
                <name>Trackpoint 5774</name>
            </trkpt>
            <trkpt lat="50.1063776" lon="11.4441456">
                <ele>304.0</ele>
                <time>2020-08-21T16:26:29.000Z</time>
                <name>Trackpoint 5775</name>
            </trkpt>
            <trkpt lat="50.106368" lon="11.4440472">
                <ele>304.0</ele>
                <time>2020-08-21T16:26:30.000Z</time>
                <name>Trackpoint 5776</name>
            </trkpt>
            <trkpt lat="50.1063616" lon="11.4439488">
                <ele>304.0</ele>
                <time>2020-08-21T16:26:31.000Z</time>
                <name>Trackpoint 5777</name>
            </trkpt>
            <trkpt lat="50.1063488" lon="11.4438464">
                <ele>303.0</ele>
                <time>2020-08-21T16:26:32.000Z</time>
                <name>Trackpoint 5778</name>
            </trkpt>
            <trkpt lat="50.1063424" lon="11.4437488">
                <ele>303.0</ele>
                <time>2020-08-21T16:26:33.000Z</time>
                <name>Trackpoint 5779</name>
            </trkpt>
            <trkpt lat="50.1063392" lon="11.4436512">
                <ele>303.0</ele>
                <time>2020-08-21T16:26:34.000Z</time>
                <name>Trackpoint 5780</name>
            </trkpt>
            <trkpt lat="50.106336" lon="11.44356">
                <ele>303.0</ele>
                <time>2020-08-21T16:26:35.000Z</time>
                <name>Trackpoint 5781</name>
            </trkpt>
            <trkpt lat="50.1063264" lon="11.4434656">
                <ele>303.0</ele>
                <time>2020-08-21T16:26:36.000Z</time>
                <name>Trackpoint 5782</name>
            </trkpt>
            <trkpt lat="50.1063232" lon="11.443372">
                <ele>303.0</ele>
                <time>2020-08-21T16:26:37.000Z</time>
                <name>Trackpoint 5783</name>
            </trkpt>
            <trkpt lat="50.1063104" lon="11.4432768">
                <ele>303.0</ele>
                <time>2020-08-21T16:26:38.000Z</time>
                <name>Trackpoint 5784</name>
            </trkpt>
            <trkpt lat="50.1063072" lon="11.4431832">
                <ele>303.0</ele>
                <time>2020-08-21T16:26:39.000Z</time>
                <name>Trackpoint 5785</name>
            </trkpt>
            <trkpt lat="50.1062976" lon="11.4430904">
                <ele>303.0</ele>
                <time>2020-08-21T16:26:40.000Z</time>
                <name>Trackpoint 5786</name>
            </trkpt>
            <trkpt lat="50.106288" lon="11.4429968">
                <ele>304.0</ele>
                <time>2020-08-21T16:26:41.000Z</time>
                <name>Trackpoint 5787</name>
            </trkpt>
            <trkpt lat="50.1062816" lon="11.4429056">
                <ele>304.0</ele>
                <time>2020-08-21T16:26:42.000Z</time>
                <name>Trackpoint 5788</name>
            </trkpt>
            <trkpt lat="50.1062688" lon="11.4428104">
                <ele>303.0</ele>
                <time>2020-08-21T16:26:43.000Z</time>
                <name>Trackpoint 5789</name>
            </trkpt>
            <trkpt lat="50.1062592" lon="11.4427144">
                <ele>303.0</ele>
                <time>2020-08-21T16:26:44.000Z</time>
                <name>Trackpoint 5790</name>
            </trkpt>
            <trkpt lat="50.1062464" lon="11.44262">
                <ele>303.0</ele>
                <time>2020-08-21T16:26:45.000Z</time>
                <name>Trackpoint 5791</name>
            </trkpt>
            <trkpt lat="50.1062368" lon="11.4425272">
                <ele>303.0</ele>
                <time>2020-08-21T16:26:46.000Z</time>
                <name>Trackpoint 5792</name>
            </trkpt>
            <trkpt lat="50.1062208" lon="11.4424312">
                <ele>303.0</ele>
                <time>2020-08-21T16:26:47.000Z</time>
                <name>Trackpoint 5793</name>
            </trkpt>
            <trkpt lat="50.106208" lon="11.44234">
                <ele>303.0</ele>
                <time>2020-08-21T16:26:48.000Z</time>
                <name>Trackpoint 5794</name>
            </trkpt>
            <trkpt lat="50.1061984" lon="11.442248">
                <ele>303.0</ele>
                <time>2020-08-21T16:26:49.000Z</time>
                <name>Trackpoint 5795</name>
            </trkpt>
            <trkpt lat="50.1061824" lon="11.4421568">
                <ele>303.0</ele>
                <time>2020-08-21T16:26:50.000Z</time>
                <name>Trackpoint 5796</name>
            </trkpt>
            <trkpt lat="50.1061664" lon="11.4420664">
                <ele>303.0</ele>
                <time>2020-08-21T16:26:51.000Z</time>
                <name>Trackpoint 5797</name>
            </trkpt>
            <trkpt lat="50.1061504" lon="11.4419768">
                <ele>303.0</ele>
                <time>2020-08-21T16:26:52.000Z</time>
                <name>Trackpoint 5798</name>
            </trkpt>
            <trkpt lat="50.1061216" lon="11.441796">
                <ele>303.0</ele>
                <time>2020-08-21T16:26:54.000Z</time>
                <name>Trackpoint 5799</name>
            </trkpt>
            <trkpt lat="50.1061024" lon="11.4417064">
                <ele>303.0</ele>
                <time>2020-08-21T16:26:55.000Z</time>
                <name>Trackpoint 5800</name>
            </trkpt>
            <trkpt lat="50.1060864" lon="11.4416152">
                <ele>303.0</ele>
                <time>2020-08-21T16:26:56.000Z</time>
                <name>Trackpoint 5801</name>
            </trkpt>
            <trkpt lat="50.1060672" lon="11.4415264">
                <ele>302.0</ele>
                <time>2020-08-21T16:26:57.000Z</time>
                <name>Trackpoint 5802</name>
            </trkpt>
            <trkpt lat="50.1060512" lon="11.4414368">
                <ele>303.0</ele>
                <time>2020-08-21T16:26:58.000Z</time>
                <name>Trackpoint 5803</name>
            </trkpt>
            <trkpt lat="50.106032" lon="11.441348">
                <ele>303.0</ele>
                <time>2020-08-21T16:26:59.000Z</time>
                <name>Trackpoint 5804</name>
            </trkpt>
            <trkpt lat="50.106" lon="11.4411688">
                <ele>302.0</ele>
                <time>2020-08-21T16:27:01.000Z</time>
                <name>Trackpoint 5805</name>
            </trkpt>
            <trkpt lat="50.1059616" lon="11.4409936">
                <ele>302.0</ele>
                <time>2020-08-21T16:27:03.000Z</time>
                <name>Trackpoint 5806</name>
            </trkpt>
            <trkpt lat="50.1059392" lon="11.4409048">
                <ele>302.0</ele>
                <time>2020-08-21T16:27:04.000Z</time>
                <name>Trackpoint 5807</name>
            </trkpt>
            <trkpt lat="50.105888" lon="11.4407432">
                <ele>302.0</ele>
                <time>2020-08-21T16:27:06.000Z</time>
                <name>Trackpoint 5808</name>
            </trkpt>
            <trkpt lat="50.1058496" lon="11.4405832">
                <ele>302.0</ele>
                <time>2020-08-21T16:27:08.000Z</time>
                <name>Trackpoint 5809</name>
            </trkpt>
            <trkpt lat="50.105824" lon="11.4404968">
                <ele>302.0</ele>
                <time>2020-08-21T16:27:09.000Z</time>
                <name>Trackpoint 5810</name>
            </trkpt>
            <trkpt lat="50.1057984" lon="11.4404096">
                <ele>302.0</ele>
                <time>2020-08-21T16:27:10.000Z</time>
                <name>Trackpoint 5811</name>
            </trkpt>
            <trkpt lat="50.1057696" lon="11.44032">
                <ele>302.0</ele>
                <time>2020-08-21T16:27:11.000Z</time>
                <name>Trackpoint 5812</name>
            </trkpt>
            <trkpt lat="50.105744" lon="11.4402312">
                <ele>302.0</ele>
                <time>2020-08-21T16:27:12.000Z</time>
                <name>Trackpoint 5813</name>
            </trkpt>
            <trkpt lat="50.1057152" lon="11.4401448">
                <ele>302.0</ele>
                <time>2020-08-21T16:27:13.000Z</time>
                <name>Trackpoint 5814</name>
            </trkpt>
            <trkpt lat="50.105664" lon="11.439972">
                <ele>302.0</ele>
                <time>2020-08-21T16:27:15.000Z</time>
                <name>Trackpoint 5815</name>
            </trkpt>
            <trkpt lat="50.1056416" lon="11.4398832">
                <ele>302.0</ele>
                <time>2020-08-21T16:27:16.000Z</time>
                <name>Trackpoint 5816</name>
            </trkpt>
            <trkpt lat="50.1056096" lon="11.439792">
                <ele>302.0</ele>
                <time>2020-08-21T16:27:17.000Z</time>
                <name>Trackpoint 5817</name>
            </trkpt>
            <trkpt lat="50.1055808" lon="11.4397032">
                <ele>302.0</ele>
                <time>2020-08-21T16:27:18.000Z</time>
                <name>Trackpoint 5818</name>
            </trkpt>
            <trkpt lat="50.1055552" lon="11.4396136">
                <ele>302.0</ele>
                <time>2020-08-21T16:27:19.000Z</time>
                <name>Trackpoint 5819</name>
            </trkpt>
            <trkpt lat="50.1055328" lon="11.4395216">
                <ele>302.0</ele>
                <time>2020-08-21T16:27:20.000Z</time>
                <name>Trackpoint 5820</name>
            </trkpt>
            <trkpt lat="50.1055104" lon="11.4394312">
                <ele>302.0</ele>
                <time>2020-08-21T16:27:21.000Z</time>
                <name>Trackpoint 5821</name>
            </trkpt>
            <trkpt lat="50.1054912" lon="11.4393384">
                <ele>302.0</ele>
                <time>2020-08-21T16:27:22.000Z</time>
                <name>Trackpoint 5822</name>
            </trkpt>
            <trkpt lat="50.1054656" lon="11.4392456">
                <ele>301.0</ele>
                <time>2020-08-21T16:27:23.000Z</time>
                <name>Trackpoint 5823</name>
            </trkpt>
            <trkpt lat="50.1054496" lon="11.4391568">
                <ele>301.0</ele>
                <time>2020-08-21T16:27:24.000Z</time>
                <name>Trackpoint 5824</name>
            </trkpt>
            <trkpt lat="50.1054144" lon="11.4389824">
                <ele>301.0</ele>
                <time>2020-08-21T16:27:26.000Z</time>
                <name>Trackpoint 5825</name>
            </trkpt>
            <trkpt lat="50.1053824" lon="11.4388088">
                <ele>302.0</ele>
                <time>2020-08-21T16:27:28.000Z</time>
                <name>Trackpoint 5826</name>
            </trkpt>
            <trkpt lat="50.1053536" lon="11.4387232">
                <ele>302.0</ele>
                <time>2020-08-21T16:27:29.000Z</time>
                <name>Trackpoint 5827</name>
            </trkpt>
            <trkpt lat="50.1052896" lon="11.4385568">
                <ele>302.0</ele>
                <time>2020-08-21T16:27:31.000Z</time>
                <name>Trackpoint 5828</name>
            </trkpt>
            <trkpt lat="50.105248" lon="11.4383848">
                <ele>303.0</ele>
                <time>2020-08-21T16:27:33.000Z</time>
                <name>Trackpoint 5829</name>
            </trkpt>
            <trkpt lat="50.105216" lon="11.438296">
                <ele>303.0</ele>
                <time>2020-08-21T16:27:34.000Z</time>
                <name>Trackpoint 5830</name>
            </trkpt>
            <trkpt lat="50.1051744" lon="11.4381216">
                <ele>303.0</ele>
                <time>2020-08-21T16:27:36.000Z</time>
                <name>Trackpoint 5831</name>
            </trkpt>
            <trkpt lat="50.1051328" lon="11.4379464">
                <ele>303.0</ele>
                <time>2020-08-21T16:27:38.000Z</time>
                <name>Trackpoint 5832</name>
            </trkpt>
            <trkpt lat="50.1051136" lon="11.4378584">
                <ele>304.0</ele>
                <time>2020-08-21T16:27:39.000Z</time>
                <name>Trackpoint 5833</name>
            </trkpt>
            <trkpt lat="50.1050944" lon="11.4377696">
                <ele>304.0</ele>
                <time>2020-08-21T16:27:40.000Z</time>
                <name>Trackpoint 5834</name>
            </trkpt>
            <trkpt lat="50.1050528" lon="11.4375952">
                <ele>304.0</ele>
                <time>2020-08-21T16:27:42.000Z</time>
                <name>Trackpoint 5835</name>
            </trkpt>
            <trkpt lat="50.1050144" lon="11.43742">
                <ele>303.0</ele>
                <time>2020-08-21T16:27:44.000Z</time>
                <name>Trackpoint 5836</name>
            </trkpt>
            <trkpt lat="50.104992" lon="11.4373312">
                <ele>303.0</ele>
                <time>2020-08-21T16:27:45.000Z</time>
                <name>Trackpoint 5837</name>
            </trkpt>
            <trkpt lat="50.1049728" lon="11.4372416">
                <ele>303.0</ele>
                <time>2020-08-21T16:27:46.000Z</time>
                <name>Trackpoint 5838</name>
            </trkpt>
            <trkpt lat="50.1049376" lon="11.4370744">
                <ele>303.0</ele>
                <time>2020-08-21T16:27:48.000Z</time>
                <name>Trackpoint 5839</name>
            </trkpt>
            <trkpt lat="50.104912" lon="11.43692">
                <ele>303.0</ele>
                <time>2020-08-21T16:27:50.000Z</time>
                <name>Trackpoint 5840</name>
            </trkpt>
            <trkpt lat="50.1048864" lon="11.4367768">
                <ele>303.0</ele>
                <time>2020-08-21T16:27:52.000Z</time>
                <name>Trackpoint 5841</name>
            </trkpt>
            <trkpt lat="50.1048576" lon="11.436644">
                <ele>302.0</ele>
                <time>2020-08-21T16:27:54.000Z</time>
                <name>Trackpoint 5842</name>
            </trkpt>
            <trkpt lat="50.1048576" lon="11.4365152">
                <ele>302.0</ele>
                <time>2020-08-21T16:27:56.000Z</time>
                <name>Trackpoint 5843</name>
            </trkpt>
            <trkpt lat="50.1048576" lon="11.4364016">
                <ele>302.0</ele>
                <time>2020-08-21T16:27:58.000Z</time>
                <name>Trackpoint 5844</name>
            </trkpt>
            <trkpt lat="50.1048576" lon="11.436272">
                <ele>302.0</ele>
                <time>2020-08-21T16:28:00.000Z</time>
                <name>Trackpoint 5845</name>
            </trkpt>
            <trkpt lat="50.10488" lon="11.43614">
                <ele>302.0</ele>
                <time>2020-08-21T16:28:02.000Z</time>
                <name>Trackpoint 5846</name>
            </trkpt>
            <trkpt lat="50.1049248" lon="11.4360168">
                <ele>302.0</ele>
                <time>2020-08-21T16:28:04.000Z</time>
                <name>Trackpoint 5847</name>
            </trkpt>
            <trkpt lat="50.1049728" lon="11.4359064">
                <ele>302.0</ele>
                <time>2020-08-21T16:28:06.000Z</time>
                <name>Trackpoint 5848</name>
            </trkpt>
            <trkpt lat="50.105024" lon="11.4357984">
                <ele>303.0</ele>
                <time>2020-08-21T16:28:08.000Z</time>
                <name>Trackpoint 5849</name>
            </trkpt>
            <trkpt lat="50.1050784" lon="11.435688">
                <ele>303.0</ele>
                <time>2020-08-21T16:28:10.000Z</time>
                <name>Trackpoint 5850</name>
            </trkpt>
            <trkpt lat="50.1051392" lon="11.4355848">
                <ele>303.0</ele>
                <time>2020-08-21T16:28:12.000Z</time>
                <name>Trackpoint 5851</name>
            </trkpt>
            <trkpt lat="50.1052032" lon="11.4354832">
                <ele>303.0</ele>
                <time>2020-08-21T16:28:14.000Z</time>
                <name>Trackpoint 5852</name>
            </trkpt>
            <trkpt lat="50.1052544" lon="11.435384">
                <ele>304.0</ele>
                <time>2020-08-21T16:28:16.000Z</time>
                <name>Trackpoint 5853</name>
            </trkpt>
            <trkpt lat="50.105312" lon="11.4352776">
                <ele>304.0</ele>
                <time>2020-08-21T16:28:18.000Z</time>
                <name>Trackpoint 5854</name>
            </trkpt>
            <trkpt lat="50.1053696" lon="11.4351752">
                <ele>304.0</ele>
                <time>2020-08-21T16:28:20.000Z</time>
                <name>Trackpoint 5855</name>
            </trkpt>
            <trkpt lat="50.105424" lon="11.4350704">
                <ele>305.0</ele>
                <time>2020-08-21T16:28:22.000Z</time>
                <name>Trackpoint 5856</name>
            </trkpt>
            <trkpt lat="50.1054848" lon="11.4349672">
                <ele>305.0</ele>
                <time>2020-08-21T16:28:24.000Z</time>
                <name>Trackpoint 5857</name>
            </trkpt>
            <trkpt lat="50.1055456" lon="11.4348552">
                <ele>305.0</ele>
                <time>2020-08-21T16:28:26.000Z</time>
                <name>Trackpoint 5858</name>
            </trkpt>
            <trkpt lat="50.1056064" lon="11.4347496">
                <ele>305.0</ele>
                <time>2020-08-21T16:28:28.000Z</time>
                <name>Trackpoint 5859</name>
            </trkpt>
            <trkpt lat="50.1056672" lon="11.4346488">
                <ele>306.0</ele>
                <time>2020-08-21T16:28:30.000Z</time>
                <name>Trackpoint 5860</name>
            </trkpt>
            <trkpt lat="50.105728" lon="11.434548">
                <ele>306.0</ele>
                <time>2020-08-21T16:28:32.000Z</time>
                <name>Trackpoint 5861</name>
            </trkpt>
            <trkpt lat="50.1057856" lon="11.4344456">
                <ele>306.0</ele>
                <time>2020-08-21T16:28:34.000Z</time>
                <name>Trackpoint 5862</name>
            </trkpt>
            <trkpt lat="50.1058464" lon="11.4343456">
                <ele>306.0</ele>
                <time>2020-08-21T16:28:36.000Z</time>
                <name>Trackpoint 5863</name>
            </trkpt>
            <trkpt lat="50.105888" lon="11.4342336">
                <ele>307.0</ele>
                <time>2020-08-21T16:28:38.000Z</time>
                <name>Trackpoint 5864</name>
            </trkpt>
            <trkpt lat="50.1059456" lon="11.4341288">
                <ele>308.0</ele>
                <time>2020-08-21T16:28:40.000Z</time>
                <name>Trackpoint 5865</name>
            </trkpt>
            <trkpt lat="50.106" lon="11.4340248">
                <ele>308.0</ele>
                <time>2020-08-21T16:28:42.000Z</time>
                <name>Trackpoint 5866</name>
            </trkpt>
            <trkpt lat="50.1060576" lon="11.4339288">
                <ele>308.0</ele>
                <time>2020-08-21T16:28:44.000Z</time>
                <name>Trackpoint 5867</name>
            </trkpt>
            <trkpt lat="50.1061088" lon="11.4338328">
                <ele>309.0</ele>
                <time>2020-08-21T16:28:46.000Z</time>
                <name>Trackpoint 5868</name>
            </trkpt>
            <trkpt lat="50.1061632" lon="11.4337384">
                <ele>309.0</ele>
                <time>2020-08-21T16:28:48.000Z</time>
                <name>Trackpoint 5869</name>
            </trkpt>
            <trkpt lat="50.1062176" lon="11.433648">
                <ele>309.0</ele>
                <time>2020-08-21T16:28:50.000Z</time>
                <name>Trackpoint 5870</name>
            </trkpt>
            <trkpt lat="50.1062688" lon="11.43356">
                <ele>309.0</ele>
                <time>2020-08-21T16:28:52.000Z</time>
                <name>Trackpoint 5871</name>
            </trkpt>
            <trkpt lat="50.10632" lon="11.4334736">
                <ele>309.0</ele>
                <time>2020-08-21T16:28:54.000Z</time>
                <name>Trackpoint 5872</name>
            </trkpt>
            <trkpt lat="50.1063744" lon="11.4333936">
                <ele>309.0</ele>
                <time>2020-08-21T16:28:56.000Z</time>
                <name>Trackpoint 5873</name>
            </trkpt>
            <trkpt lat="50.1064576" lon="11.4332896">
                <ele>309.0</ele>
                <time>2020-08-21T16:28:59.000Z</time>
                <name>Trackpoint 5874</name>
            </trkpt>
            <trkpt lat="50.1065184" lon="11.4332168">
                <ele>308.0</ele>
                <time>2020-08-21T16:29:01.000Z</time>
                <name>Trackpoint 5875</name>
            </trkpt>
            <trkpt lat="50.1065856" lon="11.4331504">
                <ele>308.0</ele>
                <time>2020-08-21T16:29:03.000Z</time>
                <name>Trackpoint 5876</name>
            </trkpt>
            <trkpt lat="50.1066592" lon="11.43306">
                <ele>307.0</ele>
                <time>2020-08-21T16:29:05.000Z</time>
                <name>Trackpoint 5877</name>
            </trkpt>
            <trkpt lat="50.1067424" lon="11.4329768">
                <ele>305.0</ele>
                <time>2020-08-21T16:29:07.000Z</time>
                <name>Trackpoint 5878</name>
            </trkpt>
            <trkpt lat="50.1068256" lon="11.4328744">
                <ele>304.0</ele>
                <time>2020-08-21T16:29:09.000Z</time>
                <name>Trackpoint 5879</name>
            </trkpt>
            <trkpt lat="50.1068992" lon="11.4327768">
                <ele>304.0</ele>
                <time>2020-08-21T16:29:11.000Z</time>
                <name>Trackpoint 5880</name>
            </trkpt>
            <trkpt lat="50.1069728" lon="11.4327224">
                <ele>305.0</ele>
                <time>2020-08-21T16:29:14.000Z</time>
                <name>Trackpoint 5881</name>
            </trkpt>
            <trkpt lat="50.1070176" lon="11.432828">
                <ele>306.0</ele>
                <time>2020-08-21T16:29:17.000Z</time>
                <name>Trackpoint 5882</name>
            </trkpt>
            <trkpt lat="50.1071008" lon="11.4329368">
                <ele>305.0</ele>
                <time>2020-08-21T16:29:19.000Z</time>
                <name>Trackpoint 5883</name>
            </trkpt>
            <trkpt lat="50.1072096" lon="11.4330456">
                <ele>305.0</ele>
                <time>2020-08-21T16:29:21.000Z</time>
                <name>Trackpoint 5884</name>
            </trkpt>
            <trkpt lat="50.1073152" lon="11.43314">
                <ele>305.0</ele>
                <time>2020-08-21T16:29:23.000Z</time>
                <name>Trackpoint 5885</name>
            </trkpt>
            <trkpt lat="50.1074112" lon="11.4332184">
                <ele>304.0</ele>
                <time>2020-08-21T16:29:25.000Z</time>
                <name>Trackpoint 5886</name>
            </trkpt>
            <trkpt lat="50.1075072" lon="11.4332888">
                <ele>304.0</ele>
                <time>2020-08-21T16:29:27.000Z</time>
                <name>Trackpoint 5887</name>
            </trkpt>
            <trkpt lat="50.1075904" lon="11.43336">
                <ele>304.0</ele>
                <time>2020-08-21T16:29:29.000Z</time>
                <name>Trackpoint 5888</name>
            </trkpt>
            <trkpt lat="50.1076672" lon="11.4334152">
                <ele>304.0</ele>
                <time>2020-08-21T16:29:31.000Z</time>
                <name>Trackpoint 5889</name>
            </trkpt>
            <trkpt lat="50.1077696" lon="11.433488">
                <ele>304.0</ele>
                <time>2020-08-21T16:29:34.000Z</time>
                <name>Trackpoint 5890</name>
            </trkpt>
            <trkpt lat="50.1078368" lon="11.4335568">
                <ele>304.0</ele>
                <time>2020-08-21T16:29:37.000Z</time>
                <name>Trackpoint 5891</name>
            </trkpt>
            <trkpt lat="50.1078304" lon="11.4336632">
                <ele>304.0</ele>
                <time>2020-08-21T16:29:41.000Z</time>
                <name>Trackpoint 5892</name>
            </trkpt>
            <trkpt lat="50.1077856" lon="11.4337952">
                <ele>304.0</ele>
                <time>2020-08-21T16:29:44.000Z</time>
                <name>Trackpoint 5893</name>
            </trkpt>
            <trkpt lat="50.1077472" lon="11.4339048">
                <ele>304.0</ele>
                <time>2020-08-21T16:29:46.000Z</time>
                <name>Trackpoint 5894</name>
            </trkpt>
            <trkpt lat="50.107696" lon="11.4340312">
                <ele>304.0</ele>
                <time>2020-08-21T16:29:48.000Z</time>
                <name>Trackpoint 5895</name>
            </trkpt>
            <trkpt lat="50.1076544" lon="11.4341552">
                <ele>303.0</ele>
                <time>2020-08-21T16:29:50.000Z</time>
                <name>Trackpoint 5896</name>
            </trkpt>
            <trkpt lat="50.1076128" lon="11.434272">
                <ele>303.0</ele>
                <time>2020-08-21T16:29:52.000Z</time>
                <name>Trackpoint 5897</name>
            </trkpt>
            <trkpt lat="50.1075744" lon="11.4343832">
                <ele>304.0</ele>
                <time>2020-08-21T16:29:54.000Z</time>
                <name>Trackpoint 5898</name>
            </trkpt>
            <trkpt lat="50.1075392" lon="11.4344832">
                <ele>303.0</ele>
                <time>2020-08-21T16:29:56.000Z</time>
                <name>Trackpoint 5899</name>
            </trkpt>
            <trkpt lat="50.1075168" lon="11.4345768">
                <ele>303.0</ele>
                <time>2020-08-21T16:29:58.000Z</time>
                <name>Trackpoint 5900</name>
            </trkpt>
            <trkpt lat="50.107456" lon="11.4346488">
                <ele>303.0</ele>
                <time>2020-08-21T16:30:01.000Z</time>
                <name>Trackpoint 5901</name>
            </trkpt>
            <trkpt lat="50.1073632" lon="11.4346112">
                <ele>304.0</ele>
                <time>2020-08-21T16:30:06.000Z</time>
                <name>Trackpoint 5902</name>
            </trkpt>
            <trkpt lat="50.1072768" lon="11.434544">
                <ele>304.0</ele>
                <time>2020-08-21T16:30:33.000Z</time>
                <name>Trackpoint 5903</name>
            </trkpt>
            <trkpt lat="50.1071648" lon="11.4344832">
                <ele>304.0</ele>
                <time>2020-08-21T16:30:36.000Z</time>
                <name>Trackpoint 5904</name>
            </trkpt>
            <trkpt lat="50.1070784" lon="11.434452">
                <ele>304.0</ele>
                <time>2020-08-21T16:30:38.000Z</time>
                <name>Trackpoint 5905</name>
            </trkpt>
            <trkpt lat="50.1069792" lon="11.4344328">
                <ele>304.0</ele>
                <time>2020-08-21T16:30:40.000Z</time>
                <name>Trackpoint 5906</name>
            </trkpt>
            <trkpt lat="50.1068832" lon="11.4344232">
                <ele>304.0</ele>
                <time>2020-08-21T16:30:42.000Z</time>
                <name>Trackpoint 5907</name>
            </trkpt>
            <trkpt lat="50.1067872" lon="11.4344184">
                <ele>304.0</ele>
                <time>2020-08-21T16:30:44.000Z</time>
                <name>Trackpoint 5908</name>
            </trkpt>
            <trkpt lat="50.1066624" lon="11.4344104">
                <ele>304.0</ele>
                <time>2020-08-21T16:30:47.000Z</time>
                <name>Trackpoint 5909</name>
            </trkpt>
            <trkpt lat="50.1065408" lon="11.4344016">
                <ele>304.0</ele>
                <time>2020-08-21T16:30:50.000Z</time>
                <name>Trackpoint 5910</name>
            </trkpt>
            <trkpt lat="50.1064224" lon="11.4343584">
                <ele>304.0</ele>
                <time>2020-08-21T16:30:53.000Z</time>
                <name>Trackpoint 5911</name>
            </trkpt>
            <trkpt lat="50.1063584" lon="11.4342896">
                <ele>304.0</ele>
                <time>2020-08-21T16:30:55.000Z</time>
                <name>Trackpoint 5912</name>
            </trkpt>
            <trkpt lat="50.106304" lon="11.4341936">
                <ele>304.0</ele>
                <time>2020-08-21T16:30:57.000Z</time>
                <name>Trackpoint 5913</name>
            </trkpt>
            <trkpt lat="50.106256" lon="11.434076">
                <ele>303.0</ele>
                <time>2020-08-21T16:30:59.000Z</time>
                <name>Trackpoint 5914</name>
            </trkpt>
            <trkpt lat="50.1062112" lon="11.433944">
                <ele>303.0</ele>
                <time>2020-08-21T16:31:01.000Z</time>
                <name>Trackpoint 5915</name>
            </trkpt>
            <trkpt lat="50.1061824" lon="11.4337984">
                <ele>303.0</ele>
                <time>2020-08-21T16:31:03.000Z</time>
                <name>Trackpoint 5916</name>
            </trkpt>
            <trkpt lat="50.1061472" lon="11.433672">
                <ele>303.0</ele>
                <time>2020-08-21T16:31:05.000Z</time>
                <name>Trackpoint 5917</name>
            </trkpt>
            <trkpt lat="50.1061056" lon="11.4335336">
                <ele>303.0</ele>
                <time>2020-08-21T16:31:07.000Z</time>
                <name>Trackpoint 5918</name>
            </trkpt>
            <trkpt lat="50.1060608" lon="11.433396">
                <ele>303.0</ele>
                <time>2020-08-21T16:31:09.000Z</time>
                <name>Trackpoint 5919</name>
            </trkpt>
            <trkpt lat="50.1060288" lon="11.4332216">
                <ele>302.0</ele>
                <time>2020-08-21T16:31:11.000Z</time>
                <name>Trackpoint 5920</name>
            </trkpt>
            <trkpt lat="50.1060128" lon="11.4331304">
                <ele>302.0</ele>
                <time>2020-08-21T16:31:12.000Z</time>
                <name>Trackpoint 5921</name>
            </trkpt>
            <trkpt lat="50.1060032" lon="11.432968">
                <ele>302.0</ele>
                <time>2020-08-21T16:31:14.000Z</time>
                <name>Trackpoint 5922</name>
            </trkpt>
            <trkpt lat="50.1059904" lon="11.4328216">
                <ele>302.0</ele>
                <time>2020-08-21T16:31:16.000Z</time>
                <name>Trackpoint 5923</name>
            </trkpt>
            <trkpt lat="50.1059904" lon="11.4327136">
                <ele>301.0</ele>
                <time>2020-08-21T16:31:18.000Z</time>
                <name>Trackpoint 5924</name>
            </trkpt>
            <trkpt lat="50.1059776" lon="11.4326096">
                <ele>301.0</ele>
                <time>2020-08-21T16:31:22.000Z</time>
                <name>Trackpoint 5925</name>
            </trkpt>
            <trkpt lat="50.1059008" lon="11.4325568">
                <ele>302.0</ele>
                <time>2020-08-21T16:31:28.000Z</time>
                <name>Trackpoint 5926</name>
            </trkpt>
            <trkpt lat="50.1058656" lon="11.4324464">
                <ele>301.0</ele>
                <time>2020-08-21T16:31:51.000Z</time>
                <name>Trackpoint 5927</name>
            </trkpt>
            <trkpt lat="50.10584" lon="11.432348">
                <ele>301.0</ele>
                <time>2020-08-21T16:31:53.000Z</time>
                <name>Trackpoint 5928</name>
            </trkpt>
            <trkpt lat="50.1058112" lon="11.4322272">
                <ele>301.0</ele>
                <time>2020-08-21T16:31:55.000Z</time>
                <name>Trackpoint 5929</name>
            </trkpt>
            <trkpt lat="50.1057824" lon="11.4320944">
                <ele>301.0</ele>
                <time>2020-08-21T16:31:57.000Z</time>
                <name>Trackpoint 5930</name>
            </trkpt>
            <trkpt lat="50.1057536" lon="11.4319552">
                <ele>301.0</ele>
                <time>2020-08-21T16:31:59.000Z</time>
                <name>Trackpoint 5931</name>
            </trkpt>
            <trkpt lat="50.1057248" lon="11.4318016">
                <ele>301.0</ele>
                <time>2020-08-21T16:32:01.000Z</time>
                <name>Trackpoint 5932</name>
            </trkpt>
            <trkpt lat="50.1056928" lon="11.4316456">
                <ele>300.0</ele>
                <time>2020-08-21T16:32:03.000Z</time>
                <name>Trackpoint 5933</name>
            </trkpt>
            <trkpt lat="50.1056544" lon="11.4314832">
                <ele>300.0</ele>
                <time>2020-08-21T16:32:05.000Z</time>
                <name>Trackpoint 5934</name>
            </trkpt>
            <trkpt lat="50.1056224" lon="11.431316">
                <ele>300.0</ele>
                <time>2020-08-21T16:32:07.000Z</time>
                <name>Trackpoint 5935</name>
            </trkpt>
            <trkpt lat="50.105584" lon="11.4311488">
                <ele>300.0</ele>
                <time>2020-08-21T16:32:09.000Z</time>
                <name>Trackpoint 5936</name>
            </trkpt>
            <trkpt lat="50.1055488" lon="11.4309752">
                <ele>300.0</ele>
                <time>2020-08-21T16:32:11.000Z</time>
                <name>Trackpoint 5937</name>
            </trkpt>
            <trkpt lat="50.1055104" lon="11.4308032">
                <ele>299.0</ele>
                <time>2020-08-21T16:32:13.000Z</time>
                <name>Trackpoint 5938</name>
            </trkpt>
            <trkpt lat="50.1054912" lon="11.4307144">
                <ele>299.0</ele>
                <time>2020-08-21T16:32:14.000Z</time>
                <name>Trackpoint 5939</name>
            </trkpt>
            <trkpt lat="50.105456" lon="11.43054">
                <ele>299.0</ele>
                <time>2020-08-21T16:32:16.000Z</time>
                <name>Trackpoint 5940</name>
            </trkpt>
            <trkpt lat="50.1054368" lon="11.4304512">
                <ele>299.0</ele>
                <time>2020-08-21T16:32:17.000Z</time>
                <name>Trackpoint 5941</name>
            </trkpt>
            <trkpt lat="50.1054016" lon="11.4302752">
                <ele>299.0</ele>
                <time>2020-08-21T16:32:19.000Z</time>
                <name>Trackpoint 5942</name>
            </trkpt>
            <trkpt lat="50.1053824" lon="11.4301864">
                <ele>299.0</ele>
                <time>2020-08-21T16:32:20.000Z</time>
                <name>Trackpoint 5943</name>
            </trkpt>
            <trkpt lat="50.1053632" lon="11.4300984">
                <ele>299.0</ele>
                <time>2020-08-21T16:32:21.000Z</time>
                <name>Trackpoint 5944</name>
            </trkpt>
            <trkpt lat="50.1053472" lon="11.430008">
                <ele>299.0</ele>
                <time>2020-08-21T16:32:22.000Z</time>
                <name>Trackpoint 5945</name>
            </trkpt>
            <trkpt lat="50.105328" lon="11.42992">
                <ele>299.0</ele>
                <time>2020-08-21T16:32:23.000Z</time>
                <name>Trackpoint 5946</name>
            </trkpt>
            <trkpt lat="50.1053088" lon="11.4298312">
                <ele>299.0</ele>
                <time>2020-08-21T16:32:24.000Z</time>
                <name>Trackpoint 5947</name>
            </trkpt>
            <trkpt lat="50.1052672" lon="11.4296568">
                <ele>299.0</ele>
                <time>2020-08-21T16:32:26.000Z</time>
                <name>Trackpoint 5948</name>
            </trkpt>
            <trkpt lat="50.105232" lon="11.4294816">
                <ele>299.0</ele>
                <time>2020-08-21T16:32:28.000Z</time>
                <name>Trackpoint 5949</name>
            </trkpt>
            <trkpt lat="50.1051936" lon="11.4293072">
                <ele>299.0</ele>
                <time>2020-08-21T16:32:30.000Z</time>
                <name>Trackpoint 5950</name>
            </trkpt>
            <trkpt lat="50.1051552" lon="11.4291336">
                <ele>299.0</ele>
                <time>2020-08-21T16:32:32.000Z</time>
                <name>Trackpoint 5951</name>
            </trkpt>
            <trkpt lat="50.1051232" lon="11.4289576">
                <ele>299.0</ele>
                <time>2020-08-21T16:32:34.000Z</time>
                <name>Trackpoint 5952</name>
            </trkpt>
            <trkpt lat="50.1050848" lon="11.4287856">
                <ele>299.0</ele>
                <time>2020-08-21T16:32:36.000Z</time>
                <name>Trackpoint 5953</name>
            </trkpt>
            <trkpt lat="50.1050496" lon="11.428612">
                <ele>299.0</ele>
                <time>2020-08-21T16:32:38.000Z</time>
                <name>Trackpoint 5954</name>
            </trkpt>
            <trkpt lat="50.1050304" lon="11.4285232">
                <ele>299.0</ele>
                <time>2020-08-21T16:32:39.000Z</time>
                <name>Trackpoint 5955</name>
            </trkpt>
            <trkpt lat="50.104992" lon="11.4283504">
                <ele>299.0</ele>
                <time>2020-08-21T16:32:41.000Z</time>
                <name>Trackpoint 5956</name>
            </trkpt>
            <trkpt lat="50.104976" lon="11.42826">
                <ele>299.0</ele>
                <time>2020-08-21T16:32:42.000Z</time>
                <name>Trackpoint 5957</name>
            </trkpt>
            <trkpt lat="50.1049568" lon="11.428172">
                <ele>299.0</ele>
                <time>2020-08-21T16:32:43.000Z</time>
                <name>Trackpoint 5958</name>
            </trkpt>
            <trkpt lat="50.104912" lon="11.4279968">
                <ele>299.0</ele>
                <time>2020-08-21T16:32:45.000Z</time>
                <name>Trackpoint 5959</name>
            </trkpt>
            <trkpt lat="50.1048928" lon="11.4279072">
                <ele>299.0</ele>
                <time>2020-08-21T16:32:46.000Z</time>
                <name>Trackpoint 5960</name>
            </trkpt>
            <trkpt lat="50.1048736" lon="11.4278136">
                <ele>299.0</ele>
                <time>2020-08-21T16:32:47.000Z</time>
                <name>Trackpoint 5961</name>
            </trkpt>
            <trkpt lat="50.1048576" lon="11.4277232">
                <ele>298.0</ele>
                <time>2020-08-21T16:32:48.000Z</time>
                <name>Trackpoint 5962</name>
            </trkpt>
            <trkpt lat="50.1048384" lon="11.4276352">
                <ele>298.0</ele>
                <time>2020-08-21T16:32:49.000Z</time>
                <name>Trackpoint 5963</name>
            </trkpt>
            <trkpt lat="50.104816" lon="11.4275448">
                <ele>299.0</ele>
                <time>2020-08-21T16:32:50.000Z</time>
                <name>Trackpoint 5964</name>
            </trkpt>
            <trkpt lat="50.1047968" lon="11.4274568">
                <ele>298.0</ele>
                <time>2020-08-21T16:32:51.000Z</time>
                <name>Trackpoint 5965</name>
            </trkpt>
            <trkpt lat="50.1047776" lon="11.427368">
                <ele>299.0</ele>
                <time>2020-08-21T16:32:52.000Z</time>
                <name>Trackpoint 5966</name>
            </trkpt>
            <trkpt lat="50.1047392" lon="11.4271984">
                <ele>299.0</ele>
                <time>2020-08-21T16:32:54.000Z</time>
                <name>Trackpoint 5967</name>
            </trkpt>
            <trkpt lat="50.1047072" lon="11.4270264">
                <ele>299.0</ele>
                <time>2020-08-21T16:32:56.000Z</time>
                <name>Trackpoint 5968</name>
            </trkpt>
            <trkpt lat="50.104672" lon="11.4268528">
                <ele>299.0</ele>
                <time>2020-08-21T16:32:58.000Z</time>
                <name>Trackpoint 5969</name>
            </trkpt>
            <trkpt lat="50.1046336" lon="11.4266784">
                <ele>299.0</ele>
                <time>2020-08-21T16:33:00.000Z</time>
                <name>Trackpoint 5970</name>
            </trkpt>
            <trkpt lat="50.1045952" lon="11.4265072">
                <ele>298.0</ele>
                <time>2020-08-21T16:33:02.000Z</time>
                <name>Trackpoint 5971</name>
            </trkpt>
            <trkpt lat="50.1045632" lon="11.4263464">
                <ele>298.0</ele>
                <time>2020-08-21T16:33:04.000Z</time>
                <name>Trackpoint 5972</name>
            </trkpt>
            <trkpt lat="50.1045344" lon="11.4261864">
                <ele>298.0</ele>
                <time>2020-08-21T16:33:06.000Z</time>
                <name>Trackpoint 5973</name>
            </trkpt>
            <trkpt lat="50.104496" lon="11.4260184">
                <ele>299.0</ele>
                <time>2020-08-21T16:33:08.000Z</time>
                <name>Trackpoint 5974</name>
            </trkpt>
            <trkpt lat="50.1044608" lon="11.425852">
                <ele>299.0</ele>
                <time>2020-08-21T16:33:10.000Z</time>
                <name>Trackpoint 5975</name>
            </trkpt>
            <trkpt lat="50.1044224" lon="11.4256848">
                <ele>299.0</ele>
                <time>2020-08-21T16:33:12.000Z</time>
                <name>Trackpoint 5976</name>
            </trkpt>
            <trkpt lat="50.1043936" lon="11.4255104">
                <ele>299.0</ele>
                <time>2020-08-21T16:33:14.000Z</time>
                <name>Trackpoint 5977</name>
            </trkpt>
            <trkpt lat="50.1043584" lon="11.4253384">
                <ele>298.0</ele>
                <time>2020-08-21T16:33:16.000Z</time>
                <name>Trackpoint 5978</name>
            </trkpt>
            <trkpt lat="50.1043232" lon="11.425168">
                <ele>298.0</ele>
                <time>2020-08-21T16:33:18.000Z</time>
                <name>Trackpoint 5979</name>
            </trkpt>
            <trkpt lat="50.1042848" lon="11.425">
                <ele>298.0</ele>
                <time>2020-08-21T16:33:20.000Z</time>
                <name>Trackpoint 5980</name>
            </trkpt>
            <trkpt lat="50.104256" lon="11.4248304">
                <ele>298.0</ele>
                <time>2020-08-21T16:33:22.000Z</time>
                <name>Trackpoint 5981</name>
            </trkpt>
            <trkpt lat="50.1042304" lon="11.42466">
                <ele>299.0</ele>
                <time>2020-08-21T16:33:24.000Z</time>
                <name>Trackpoint 5982</name>
            </trkpt>
            <trkpt lat="50.1042112" lon="11.4244832">
                <ele>299.0</ele>
                <time>2020-08-21T16:33:26.000Z</time>
                <name>Trackpoint 5983</name>
            </trkpt>
            <trkpt lat="50.1041984" lon="11.4243024">
                <ele>299.0</ele>
                <time>2020-08-21T16:33:28.000Z</time>
                <name>Trackpoint 5984</name>
            </trkpt>
            <trkpt lat="50.104192" lon="11.4242096">
                <ele>299.0</ele>
                <time>2020-08-21T16:33:29.000Z</time>
                <name>Trackpoint 5985</name>
            </trkpt>
            <trkpt lat="50.1041824" lon="11.4241184">
                <ele>299.0</ele>
                <time>2020-08-21T16:33:30.000Z</time>
                <name>Trackpoint 5986</name>
            </trkpt>
            <trkpt lat="50.1041792" lon="11.4240264">
                <ele>299.0</ele>
                <time>2020-08-21T16:33:31.000Z</time>
                <name>Trackpoint 5987</name>
            </trkpt>
            <trkpt lat="50.104176" lon="11.4239328">
                <ele>299.0</ele>
                <time>2020-08-21T16:33:32.000Z</time>
                <name>Trackpoint 5988</name>
            </trkpt>
            <trkpt lat="50.1041664" lon="11.4238416">
                <ele>299.0</ele>
                <time>2020-08-21T16:33:33.000Z</time>
                <name>Trackpoint 5989</name>
            </trkpt>
            <trkpt lat="50.1041568" lon="11.42366">
                <ele>299.0</ele>
                <time>2020-08-21T16:33:35.000Z</time>
                <name>Trackpoint 5990</name>
            </trkpt>
            <trkpt lat="50.1041408" lon="11.4235712">
                <ele>299.0</ele>
                <time>2020-08-21T16:33:36.000Z</time>
                <name>Trackpoint 5991</name>
            </trkpt>
            <trkpt lat="50.1041056" lon="11.4234048">
                <ele>299.0</ele>
                <time>2020-08-21T16:33:38.000Z</time>
                <name>Trackpoint 5992</name>
            </trkpt>
            <trkpt lat="50.1040672" lon="11.4232384">
                <ele>300.0</ele>
                <time>2020-08-21T16:33:40.000Z</time>
                <name>Trackpoint 5993</name>
            </trkpt>
            <trkpt lat="50.1040352" lon="11.423072">
                <ele>300.0</ele>
                <time>2020-08-21T16:33:42.000Z</time>
                <name>Trackpoint 5994</name>
            </trkpt>
            <trkpt lat="50.104" lon="11.422912">
                <ele>300.0</ele>
                <time>2020-08-21T16:33:44.000Z</time>
                <name>Trackpoint 5995</name>
            </trkpt>
            <trkpt lat="50.103952" lon="11.4227696">
                <ele>300.0</ele>
                <time>2020-08-21T16:33:46.000Z</time>
                <name>Trackpoint 5996</name>
            </trkpt>
            <trkpt lat="50.1038976" lon="11.4226352">
                <ele>300.0</ele>
                <time>2020-08-21T16:33:48.000Z</time>
                <name>Trackpoint 5997</name>
            </trkpt>
            <trkpt lat="50.1038528" lon="11.4224904">
                <ele>300.0</ele>
                <time>2020-08-21T16:33:50.000Z</time>
                <name>Trackpoint 5998</name>
            </trkpt>
            <trkpt lat="50.1038048" lon="11.4223344">
                <ele>300.0</ele>
                <time>2020-08-21T16:33:52.000Z</time>
                <name>Trackpoint 5999</name>
            </trkpt>
            <trkpt lat="50.1037664" lon="11.4221696">
                <ele>300.0</ele>
                <time>2020-08-21T16:33:54.000Z</time>
                <name>Trackpoint 6000</name>
            </trkpt>
            <trkpt lat="50.1037344" lon="11.422004">
                <ele>300.0</ele>
                <time>2020-08-21T16:33:56.000Z</time>
                <name>Trackpoint 6001</name>
            </trkpt>
            <trkpt lat="50.1036864" lon="11.42184">
                <ele>300.0</ele>
                <time>2020-08-21T16:33:58.000Z</time>
                <name>Trackpoint 6002</name>
            </trkpt>
            <trkpt lat="50.1036448" lon="11.4216736">
                <ele>299.0</ele>
                <time>2020-08-21T16:34:00.000Z</time>
                <name>Trackpoint 6003</name>
            </trkpt>
            <trkpt lat="50.1036032" lon="11.4215136">
                <ele>299.0</ele>
                <time>2020-08-21T16:34:02.000Z</time>
                <name>Trackpoint 6004</name>
            </trkpt>
            <trkpt lat="50.1035648" lon="11.4213488">
                <ele>299.0</ele>
                <time>2020-08-21T16:34:04.000Z</time>
                <name>Trackpoint 6005</name>
            </trkpt>
            <trkpt lat="50.1035296" lon="11.4211864">
                <ele>299.0</ele>
                <time>2020-08-21T16:34:06.000Z</time>
                <name>Trackpoint 6006</name>
            </trkpt>
            <trkpt lat="50.1034912" lon="11.4210216">
                <ele>298.0</ele>
                <time>2020-08-21T16:34:08.000Z</time>
                <name>Trackpoint 6007</name>
            </trkpt>
            <trkpt lat="50.1034496" lon="11.4208568">
                <ele>298.0</ele>
                <time>2020-08-21T16:34:10.000Z</time>
                <name>Trackpoint 6008</name>
            </trkpt>
            <trkpt lat="50.1034112" lon="11.4206936">
                <ele>298.0</ele>
                <time>2020-08-21T16:34:12.000Z</time>
                <name>Trackpoint 6009</name>
            </trkpt>
            <trkpt lat="50.103376" lon="11.4205328">
                <ele>298.0</ele>
                <time>2020-08-21T16:34:14.000Z</time>
                <name>Trackpoint 6010</name>
            </trkpt>
            <trkpt lat="50.1033312" lon="11.4203704">
                <ele>298.0</ele>
                <time>2020-08-21T16:34:16.000Z</time>
                <name>Trackpoint 6011</name>
            </trkpt>
            <trkpt lat="50.1032928" lon="11.4202032">
                <ele>298.0</ele>
                <time>2020-08-21T16:34:18.000Z</time>
                <name>Trackpoint 6012</name>
            </trkpt>
            <trkpt lat="50.1032512" lon="11.420036">
                <ele>298.0</ele>
                <time>2020-08-21T16:34:20.000Z</time>
                <name>Trackpoint 6013</name>
            </trkpt>
            <trkpt lat="50.1032096" lon="11.4198736">
                <ele>298.0</ele>
                <time>2020-08-21T16:34:22.000Z</time>
                <name>Trackpoint 6014</name>
            </trkpt>
            <trkpt lat="50.103168" lon="11.4197104">
                <ele>298.0</ele>
                <time>2020-08-21T16:34:24.000Z</time>
                <name>Trackpoint 6015</name>
            </trkpt>
            <trkpt lat="50.1031296" lon="11.4195416">
                <ele>298.0</ele>
                <time>2020-08-21T16:34:26.000Z</time>
                <name>Trackpoint 6016</name>
            </trkpt>
            <trkpt lat="50.1030912" lon="11.4193736">
                <ele>298.0</ele>
                <time>2020-08-21T16:34:28.000Z</time>
                <name>Trackpoint 6017</name>
            </trkpt>
            <trkpt lat="50.1030496" lon="11.419204">
                <ele>298.0</ele>
                <time>2020-08-21T16:34:30.000Z</time>
                <name>Trackpoint 6018</name>
            </trkpt>
            <trkpt lat="50.1030112" lon="11.4190328">
                <ele>298.0</ele>
                <time>2020-08-21T16:34:32.000Z</time>
                <name>Trackpoint 6019</name>
            </trkpt>
            <trkpt lat="50.1029792" lon="11.4188656">
                <ele>298.0</ele>
                <time>2020-08-21T16:34:34.000Z</time>
                <name>Trackpoint 6020</name>
            </trkpt>
            <trkpt lat="50.102944" lon="11.418692">
                <ele>298.0</ele>
                <time>2020-08-21T16:34:36.000Z</time>
                <name>Trackpoint 6021</name>
            </trkpt>
            <trkpt lat="50.1029344" lon="11.4186016">
                <ele>298.0</ele>
                <time>2020-08-21T16:34:37.000Z</time>
                <name>Trackpoint 6022</name>
            </trkpt>
            <trkpt lat="50.1029248" lon="11.4185112">
                <ele>298.0</ele>
                <time>2020-08-21T16:34:38.000Z</time>
                <name>Trackpoint 6023</name>
            </trkpt>
            <trkpt lat="50.102912" lon="11.41842">
                <ele>299.0</ele>
                <time>2020-08-21T16:34:39.000Z</time>
                <name>Trackpoint 6024</name>
            </trkpt>
            <trkpt lat="50.1029088" lon="11.418328">
                <ele>299.0</ele>
                <time>2020-08-21T16:34:40.000Z</time>
                <name>Trackpoint 6025</name>
            </trkpt>
            <trkpt lat="50.1028992" lon="11.4181448">
                <ele>299.0</ele>
                <time>2020-08-21T16:34:42.000Z</time>
                <name>Trackpoint 6026</name>
            </trkpt>
            <trkpt lat="50.1028896" lon="11.418052">
                <ele>299.0</ele>
                <time>2020-08-21T16:34:43.000Z</time>
                <name>Trackpoint 6027</name>
            </trkpt>
            <trkpt lat="50.1028896" lon="11.417956">
                <ele>299.0</ele>
                <time>2020-08-21T16:34:44.000Z</time>
                <name>Trackpoint 6028</name>
            </trkpt>
            <trkpt lat="50.1028864" lon="11.4178584">
                <ele>298.0</ele>
                <time>2020-08-21T16:34:45.000Z</time>
                <name>Trackpoint 6029</name>
            </trkpt>
            <trkpt lat="50.10288" lon="11.41776">
                <ele>298.0</ele>
                <time>2020-08-21T16:34:46.000Z</time>
                <name>Trackpoint 6030</name>
            </trkpt>
            <trkpt lat="50.1028704" lon="11.4176632">
                <ele>298.0</ele>
                <time>2020-08-21T16:34:47.000Z</time>
                <name>Trackpoint 6031</name>
            </trkpt>
            <trkpt lat="50.1028544" lon="11.417568">
                <ele>298.0</ele>
                <time>2020-08-21T16:34:48.000Z</time>
                <name>Trackpoint 6032</name>
            </trkpt>
            <trkpt lat="50.1028448" lon="11.4174744">
                <ele>298.0</ele>
                <time>2020-08-21T16:34:49.000Z</time>
                <name>Trackpoint 6033</name>
            </trkpt>
            <trkpt lat="50.102832" lon="11.4173816">
                <ele>298.0</ele>
                <time>2020-08-21T16:34:50.000Z</time>
                <name>Trackpoint 6034</name>
            </trkpt>
            <trkpt lat="50.1028224" lon="11.417292">
                <ele>298.0</ele>
                <time>2020-08-21T16:34:51.000Z</time>
                <name>Trackpoint 6035</name>
            </trkpt>
            <trkpt lat="50.1027872" lon="11.417124">
                <ele>298.0</ele>
                <time>2020-08-21T16:34:53.000Z</time>
                <name>Trackpoint 6036</name>
            </trkpt>
            <trkpt lat="50.102752" lon="11.4169528">
                <ele>298.0</ele>
                <time>2020-08-21T16:34:55.000Z</time>
                <name>Trackpoint 6037</name>
            </trkpt>
            <trkpt lat="50.1027168" lon="11.4168128">
                <ele>298.0</ele>
                <time>2020-08-21T16:34:57.000Z</time>
                <name>Trackpoint 6038</name>
            </trkpt>
            <trkpt lat="50.1027488" lon="11.4169064">
                <ele>299.0</ele>
                <time>2020-08-21T16:35:08.000Z</time>
                <name>Trackpoint 6039</name>
            </trkpt>
            <trkpt lat="50.1027104" lon="11.4167864">
                <ele>299.0</ele>
                <time>2020-08-21T16:35:15.000Z</time>
                <name>Trackpoint 6040</name>
            </trkpt>
            <trkpt lat="50.102688" lon="11.4166736">
                <ele>299.0</ele>
                <time>2020-08-21T16:35:17.000Z</time>
                <name>Trackpoint 6041</name>
            </trkpt>
            <trkpt lat="50.1026464" lon="11.4165472">
                <ele>299.0</ele>
                <time>2020-08-21T16:35:19.000Z</time>
                <name>Trackpoint 6042</name>
            </trkpt>
            <trkpt lat="50.1026048" lon="11.4164088">
                <ele>299.0</ele>
                <time>2020-08-21T16:35:21.000Z</time>
                <name>Trackpoint 6043</name>
            </trkpt>
            <trkpt lat="50.1025664" lon="11.41626">
                <ele>299.0</ele>
                <time>2020-08-21T16:35:23.000Z</time>
                <name>Trackpoint 6044</name>
            </trkpt>
            <trkpt lat="50.1025184" lon="11.4161192">
                <ele>298.0</ele>
                <time>2020-08-21T16:35:25.000Z</time>
                <name>Trackpoint 6045</name>
            </trkpt>
            <trkpt lat="50.1024736" lon="11.4159632">
                <ele>298.0</ele>
                <time>2020-08-21T16:35:27.000Z</time>
                <name>Trackpoint 6046</name>
            </trkpt>
            <trkpt lat="50.1024288" lon="11.4158032">
                <ele>298.0</ele>
                <time>2020-08-21T16:35:29.000Z</time>
                <name>Trackpoint 6047</name>
            </trkpt>
            <trkpt lat="50.1023872" lon="11.4156504">
                <ele>297.0</ele>
                <time>2020-08-21T16:35:31.000Z</time>
                <name>Trackpoint 6048</name>
            </trkpt>
            <trkpt lat="50.1023392" lon="11.4154928">
                <ele>297.0</ele>
                <time>2020-08-21T16:35:33.000Z</time>
                <name>Trackpoint 6049</name>
            </trkpt>
            <trkpt lat="50.102304" lon="11.4153368">
                <ele>297.0</ele>
                <time>2020-08-21T16:35:35.000Z</time>
                <name>Trackpoint 6050</name>
            </trkpt>
            <trkpt lat="50.1022656" lon="11.415176">
                <ele>297.0</ele>
                <time>2020-08-21T16:35:37.000Z</time>
                <name>Trackpoint 6051</name>
            </trkpt>
            <trkpt lat="50.102224" lon="11.4150104">
                <ele>297.0</ele>
                <time>2020-08-21T16:35:39.000Z</time>
                <name>Trackpoint 6052</name>
            </trkpt>
            <trkpt lat="50.1021856" lon="11.41484">
                <ele>297.0</ele>
                <time>2020-08-21T16:35:41.000Z</time>
                <name>Trackpoint 6053</name>
            </trkpt>
            <trkpt lat="50.1021408" lon="11.4146656">
                <ele>297.0</ele>
                <time>2020-08-21T16:35:43.000Z</time>
                <name>Trackpoint 6054</name>
            </trkpt>
            <trkpt lat="50.102112" lon="11.4144936">
                <ele>297.0</ele>
                <time>2020-08-21T16:35:45.000Z</time>
                <name>Trackpoint 6055</name>
            </trkpt>
            <trkpt lat="50.10208" lon="11.4143464">
                <ele>298.0</ele>
                <time>2020-08-21T16:35:47.000Z</time>
                <name>Trackpoint 6056</name>
            </trkpt>
            <trkpt lat="50.1020512" lon="11.4142088">
                <ele>299.0</ele>
                <time>2020-08-21T16:35:49.000Z</time>
                <name>Trackpoint 6057</name>
            </trkpt>
            <trkpt lat="50.1020256" lon="11.4140728">
                <ele>300.0</ele>
                <time>2020-08-21T16:35:51.000Z</time>
                <name>Trackpoint 6058</name>
            </trkpt>
            <trkpt lat="50.102" lon="11.4139432">
                <ele>300.0</ele>
                <time>2020-08-21T16:35:53.000Z</time>
                <name>Trackpoint 6059</name>
            </trkpt>
            <trkpt lat="50.1019744" lon="11.4138136">
                <ele>301.0</ele>
                <time>2020-08-21T16:35:55.000Z</time>
                <name>Trackpoint 6060</name>
            </trkpt>
            <trkpt lat="50.1019392" lon="11.4136832">
                <ele>301.0</ele>
                <time>2020-08-21T16:35:57.000Z</time>
                <name>Trackpoint 6061</name>
            </trkpt>
            <trkpt lat="50.1019168" lon="11.4135488">
                <ele>300.0</ele>
                <time>2020-08-21T16:35:59.000Z</time>
                <name>Trackpoint 6062</name>
            </trkpt>
            <trkpt lat="50.1018976" lon="11.4134104">
                <ele>300.0</ele>
                <time>2020-08-21T16:36:01.000Z</time>
                <name>Trackpoint 6063</name>
            </trkpt>
            <trkpt lat="50.101872" lon="11.4132696">
                <ele>300.0</ele>
                <time>2020-08-21T16:36:03.000Z</time>
                <name>Trackpoint 6064</name>
            </trkpt>
            <trkpt lat="50.1018432" lon="11.4131184">
                <ele>300.0</ele>
                <time>2020-08-21T16:36:05.000Z</time>
                <name>Trackpoint 6065</name>
            </trkpt>
            <trkpt lat="50.1018176" lon="11.4129632">
                <ele>300.0</ele>
                <time>2020-08-21T16:36:07.000Z</time>
                <name>Trackpoint 6066</name>
            </trkpt>
            <trkpt lat="50.1017888" lon="11.4127952">
                <ele>300.0</ele>
                <time>2020-08-21T16:36:09.000Z</time>
                <name>Trackpoint 6067</name>
            </trkpt>
            <trkpt lat="50.1017568" lon="11.4126264">
                <ele>300.0</ele>
                <time>2020-08-21T16:36:11.000Z</time>
                <name>Trackpoint 6068</name>
            </trkpt>
            <trkpt lat="50.1017312" lon="11.4124568">
                <ele>299.0</ele>
                <time>2020-08-21T16:36:13.000Z</time>
                <name>Trackpoint 6069</name>
            </trkpt>
            <trkpt lat="50.1017088" lon="11.4122832">
                <ele>299.0</ele>
                <time>2020-08-21T16:36:15.000Z</time>
                <name>Trackpoint 6070</name>
            </trkpt>
            <trkpt lat="50.1016832" lon="11.4121088">
                <ele>298.0</ele>
                <time>2020-08-21T16:36:17.000Z</time>
                <name>Trackpoint 6071</name>
            </trkpt>
            <trkpt lat="50.1016608" lon="11.4119328">
                <ele>298.0</ele>
                <time>2020-08-21T16:36:19.000Z</time>
                <name>Trackpoint 6072</name>
            </trkpt>
            <trkpt lat="50.1016416" lon="11.4117672">
                <ele>298.0</ele>
                <time>2020-08-21T16:36:21.000Z</time>
                <name>Trackpoint 6073</name>
            </trkpt>
            <trkpt lat="50.101616" lon="11.4115864">
                <ele>298.0</ele>
                <time>2020-08-21T16:36:23.000Z</time>
                <name>Trackpoint 6074</name>
            </trkpt>
            <trkpt lat="50.1016032" lon="11.4114">
                <ele>298.0</ele>
                <time>2020-08-21T16:36:25.000Z</time>
                <name>Trackpoint 6075</name>
            </trkpt>
            <trkpt lat="50.1015936" lon="11.411308">
                <ele>298.0</ele>
                <time>2020-08-21T16:36:26.000Z</time>
                <name>Trackpoint 6076</name>
            </trkpt>
            <trkpt lat="50.101584" lon="11.4112168">
                <ele>298.0</ele>
                <time>2020-08-21T16:36:27.000Z</time>
                <name>Trackpoint 6077</name>
            </trkpt>
            <trkpt lat="50.1015744" lon="11.4110336">
                <ele>298.0</ele>
                <time>2020-08-21T16:36:29.000Z</time>
                <name>Trackpoint 6078</name>
            </trkpt>
            <trkpt lat="50.1015712" lon="11.4109424">
                <ele>298.0</ele>
                <time>2020-08-21T16:36:30.000Z</time>
                <name>Trackpoint 6079</name>
            </trkpt>
            <trkpt lat="50.1015648" lon="11.4108488">
                <ele>298.0</ele>
                <time>2020-08-21T16:36:31.000Z</time>
                <name>Trackpoint 6080</name>
            </trkpt>
            <trkpt lat="50.1015584" lon="11.4107552">
                <ele>298.0</ele>
                <time>2020-08-21T16:36:32.000Z</time>
                <name>Trackpoint 6081</name>
            </trkpt>
            <trkpt lat="50.1015552" lon="11.4106616">
                <ele>298.0</ele>
                <time>2020-08-21T16:36:33.000Z</time>
                <name>Trackpoint 6082</name>
            </trkpt>
            <trkpt lat="50.1015552" lon="11.4105704">
                <ele>298.0</ele>
                <time>2020-08-21T16:36:34.000Z</time>
                <name>Trackpoint 6083</name>
            </trkpt>
            <trkpt lat="50.101552" lon="11.4104784">
                <ele>298.0</ele>
                <time>2020-08-21T16:36:35.000Z</time>
                <name>Trackpoint 6084</name>
            </trkpt>
            <trkpt lat="50.1015488" lon="11.4103872">
                <ele>298.0</ele>
                <time>2020-08-21T16:36:36.000Z</time>
                <name>Trackpoint 6085</name>
            </trkpt>
            <trkpt lat="50.1015392" lon="11.4102936">
                <ele>298.0</ele>
                <time>2020-08-21T16:36:37.000Z</time>
                <name>Trackpoint 6086</name>
            </trkpt>
            <trkpt lat="50.1015392" lon="11.4102024">
                <ele>298.0</ele>
                <time>2020-08-21T16:36:38.000Z</time>
                <name>Trackpoint 6087</name>
            </trkpt>
            <trkpt lat="50.1015424" lon="11.4101088">
                <ele>298.0</ele>
                <time>2020-08-21T16:36:39.000Z</time>
                <name>Trackpoint 6088</name>
            </trkpt>
            <trkpt lat="50.1015424" lon="11.4100168">
                <ele>298.0</ele>
                <time>2020-08-21T16:36:40.000Z</time>
                <name>Trackpoint 6089</name>
            </trkpt>
            <trkpt lat="50.1015424" lon="11.4099232">
                <ele>298.0</ele>
                <time>2020-08-21T16:36:41.000Z</time>
                <name>Trackpoint 6090</name>
            </trkpt>
            <trkpt lat="50.1015424" lon="11.4098304">
                <ele>298.0</ele>
                <time>2020-08-21T16:36:42.000Z</time>
                <name>Trackpoint 6091</name>
            </trkpt>
            <trkpt lat="50.1015424" lon="11.4097368">
                <ele>298.0</ele>
                <time>2020-08-21T16:36:43.000Z</time>
                <name>Trackpoint 6092</name>
            </trkpt>
            <trkpt lat="50.1015424" lon="11.4096448">
                <ele>298.0</ele>
                <time>2020-08-21T16:36:44.000Z</time>
                <name>Trackpoint 6093</name>
            </trkpt>
            <trkpt lat="50.1015424" lon="11.409552">
                <ele>298.0</ele>
                <time>2020-08-21T16:36:45.000Z</time>
                <name>Trackpoint 6094</name>
            </trkpt>
            <trkpt lat="50.1015488" lon="11.4093752">
                <ele>298.0</ele>
                <time>2020-08-21T16:36:47.000Z</time>
                <name>Trackpoint 6095</name>
            </trkpt>
            <trkpt lat="50.1015584" lon="11.4091928">
                <ele>298.0</ele>
                <time>2020-08-21T16:36:49.000Z</time>
                <name>Trackpoint 6096</name>
            </trkpt>
            <trkpt lat="50.1015616" lon="11.4090984">
                <ele>298.0</ele>
                <time>2020-08-21T16:36:50.000Z</time>
                <name>Trackpoint 6097</name>
            </trkpt>
            <trkpt lat="50.1015648" lon="11.4090032">
                <ele>298.0</ele>
                <time>2020-08-21T16:36:51.000Z</time>
                <name>Trackpoint 6098</name>
            </trkpt>
            <trkpt lat="50.1015648" lon="11.408908">
                <ele>298.0</ele>
                <time>2020-08-21T16:36:52.000Z</time>
                <name>Trackpoint 6099</name>
            </trkpt>
            <trkpt lat="50.1015648" lon="11.4088112">
                <ele>297.0</ele>
                <time>2020-08-21T16:36:53.000Z</time>
                <name>Trackpoint 6100</name>
            </trkpt>
            <trkpt lat="50.1015648" lon="11.4087152">
                <ele>297.0</ele>
                <time>2020-08-21T16:36:54.000Z</time>
                <name>Trackpoint 6101</name>
            </trkpt>
            <trkpt lat="50.1015712" lon="11.4086168">
                <ele>297.0</ele>
                <time>2020-08-21T16:36:55.000Z</time>
                <name>Trackpoint 6102</name>
            </trkpt>
            <trkpt lat="50.1015712" lon="11.4085128">
                <ele>297.0</ele>
                <time>2020-08-21T16:36:56.000Z</time>
                <name>Trackpoint 6103</name>
            </trkpt>
            <trkpt lat="50.1015712" lon="11.408408">
                <ele>297.0</ele>
                <time>2020-08-21T16:36:57.000Z</time>
                <name>Trackpoint 6104</name>
            </trkpt>
            <trkpt lat="50.1015744" lon="11.4083032">
                <ele>297.0</ele>
                <time>2020-08-21T16:36:58.000Z</time>
                <name>Trackpoint 6105</name>
            </trkpt>
            <trkpt lat="50.1015744" lon="11.4081984">
                <ele>297.0</ele>
                <time>2020-08-21T16:36:59.000Z</time>
                <name>Trackpoint 6106</name>
            </trkpt>
            <trkpt lat="50.1015776" lon="11.4080936">
                <ele>297.0</ele>
                <time>2020-08-21T16:37:00.000Z</time>
                <name>Trackpoint 6107</name>
            </trkpt>
            <trkpt lat="50.1015808" lon="11.4079864">
                <ele>297.0</ele>
                <time>2020-08-21T16:37:01.000Z</time>
                <name>Trackpoint 6108</name>
            </trkpt>
            <trkpt lat="50.1015808" lon="11.4078816">
                <ele>297.0</ele>
                <time>2020-08-21T16:37:02.000Z</time>
                <name>Trackpoint 6109</name>
            </trkpt>
            <trkpt lat="50.101584" lon="11.4077752">
                <ele>297.0</ele>
                <time>2020-08-21T16:37:03.000Z</time>
                <name>Trackpoint 6110</name>
            </trkpt>
            <trkpt lat="50.1015904" lon="11.4076704">
                <ele>297.0</ele>
                <time>2020-08-21T16:37:04.000Z</time>
                <name>Trackpoint 6111</name>
            </trkpt>
            <trkpt lat="50.1015936" lon="11.4075632">
                <ele>297.0</ele>
                <time>2020-08-21T16:37:05.000Z</time>
                <name>Trackpoint 6112</name>
            </trkpt>
            <trkpt lat="50.1015968" lon="11.4074552">
                <ele>297.0</ele>
                <time>2020-08-21T16:37:06.000Z</time>
                <name>Trackpoint 6113</name>
            </trkpt>
            <trkpt lat="50.1015968" lon="11.4073488">
                <ele>297.0</ele>
                <time>2020-08-21T16:37:07.000Z</time>
                <name>Trackpoint 6114</name>
            </trkpt>
            <trkpt lat="50.1015968" lon="11.40724">
                <ele>297.0</ele>
                <time>2020-08-21T16:37:08.000Z</time>
                <name>Trackpoint 6115</name>
            </trkpt>
            <trkpt lat="50.1015968" lon="11.4071312">
                <ele>297.0</ele>
                <time>2020-08-21T16:37:09.000Z</time>
                <name>Trackpoint 6116</name>
            </trkpt>
            <trkpt lat="50.1015968" lon="11.4070232">
                <ele>296.0</ele>
                <time>2020-08-21T16:37:10.000Z</time>
                <name>Trackpoint 6117</name>
            </trkpt>
            <trkpt lat="50.1015968" lon="11.4069184">
                <ele>296.0</ele>
                <time>2020-08-21T16:37:11.000Z</time>
                <name>Trackpoint 6118</name>
            </trkpt>
            <trkpt lat="50.1015968" lon="11.406812">
                <ele>296.0</ele>
                <time>2020-08-21T16:37:12.000Z</time>
                <name>Trackpoint 6119</name>
            </trkpt>
            <trkpt lat="50.1016" lon="11.4067072">
                <ele>296.0</ele>
                <time>2020-08-21T16:37:13.000Z</time>
                <name>Trackpoint 6120</name>
            </trkpt>
            <trkpt lat="50.1015968" lon="11.4066032">
                <ele>296.0</ele>
                <time>2020-08-21T16:37:14.000Z</time>
                <name>Trackpoint 6121</name>
            </trkpt>
            <trkpt lat="50.1015968" lon="11.4064976">
                <ele>296.0</ele>
                <time>2020-08-21T16:37:15.000Z</time>
                <name>Trackpoint 6122</name>
            </trkpt>
            <trkpt lat="50.1015968" lon="11.4063968">
                <ele>296.0</ele>
                <time>2020-08-21T16:37:16.000Z</time>
                <name>Trackpoint 6123</name>
            </trkpt>
            <trkpt lat="50.1015936" lon="11.4062928">
                <ele>296.0</ele>
                <time>2020-08-21T16:37:17.000Z</time>
                <name>Trackpoint 6124</name>
            </trkpt>
            <trkpt lat="50.1015904" lon="11.4061896">
                <ele>296.0</ele>
                <time>2020-08-21T16:37:18.000Z</time>
                <name>Trackpoint 6125</name>
            </trkpt>
            <trkpt lat="50.1015904" lon="11.406088">
                <ele>297.0</ele>
                <time>2020-08-21T16:37:19.000Z</time>
                <name>Trackpoint 6126</name>
            </trkpt>
            <trkpt lat="50.1015904" lon="11.4059864">
                <ele>297.0</ele>
                <time>2020-08-21T16:37:20.000Z</time>
                <name>Trackpoint 6127</name>
            </trkpt>
            <trkpt lat="50.1015936" lon="11.405884">
                <ele>297.0</ele>
                <time>2020-08-21T16:37:21.000Z</time>
                <name>Trackpoint 6128</name>
            </trkpt>
            <trkpt lat="50.1015904" lon="11.4057816">
                <ele>297.0</ele>
                <time>2020-08-21T16:37:22.000Z</time>
                <name>Trackpoint 6129</name>
            </trkpt>
            <trkpt lat="50.101584" lon="11.40568">
                <ele>297.0</ele>
                <time>2020-08-21T16:37:23.000Z</time>
                <name>Trackpoint 6130</name>
            </trkpt>
            <trkpt lat="50.101584" lon="11.4055792">
                <ele>297.0</ele>
                <time>2020-08-21T16:37:24.000Z</time>
                <name>Trackpoint 6131</name>
            </trkpt>
            <trkpt lat="50.1015808" lon="11.40548">
                <ele>297.0</ele>
                <time>2020-08-21T16:37:25.000Z</time>
                <name>Trackpoint 6132</name>
            </trkpt>
            <trkpt lat="50.1015808" lon="11.40538">
                <ele>297.0</ele>
                <time>2020-08-21T16:37:26.000Z</time>
                <name>Trackpoint 6133</name>
            </trkpt>
            <trkpt lat="50.1015808" lon="11.4052824">
                <ele>297.0</ele>
                <time>2020-08-21T16:37:27.000Z</time>
                <name>Trackpoint 6134</name>
            </trkpt>
            <trkpt lat="50.1015808" lon="11.405184">
                <ele>297.0</ele>
                <time>2020-08-21T16:37:28.000Z</time>
                <name>Trackpoint 6135</name>
            </trkpt>
            <trkpt lat="50.1015808" lon="11.4050864">
                <ele>297.0</ele>
                <time>2020-08-21T16:37:29.000Z</time>
                <name>Trackpoint 6136</name>
            </trkpt>
            <trkpt lat="50.1015808" lon="11.4049904">
                <ele>297.0</ele>
                <time>2020-08-21T16:37:30.000Z</time>
                <name>Trackpoint 6137</name>
            </trkpt>
            <trkpt lat="50.1015808" lon="11.4048968">
                <ele>297.0</ele>
                <time>2020-08-21T16:37:31.000Z</time>
                <name>Trackpoint 6138</name>
            </trkpt>
            <trkpt lat="50.1015808" lon="11.4048048">
                <ele>297.0</ele>
                <time>2020-08-21T16:37:32.000Z</time>
                <name>Trackpoint 6139</name>
            </trkpt>
            <trkpt lat="50.1015808" lon="11.4047144">
                <ele>297.0</ele>
                <time>2020-08-21T16:37:33.000Z</time>
                <name>Trackpoint 6140</name>
            </trkpt>
            <trkpt lat="50.1015776" lon="11.4046232">
                <ele>297.0</ele>
                <time>2020-08-21T16:37:34.000Z</time>
                <name>Trackpoint 6141</name>
            </trkpt>
            <trkpt lat="50.1015776" lon="11.4044416">
                <ele>297.0</ele>
                <time>2020-08-21T16:37:36.000Z</time>
                <name>Trackpoint 6142</name>
            </trkpt>
            <trkpt lat="50.1015712" lon="11.404268">
                <ele>298.0</ele>
                <time>2020-08-21T16:37:38.000Z</time>
                <name>Trackpoint 6143</name>
            </trkpt>
            <trkpt lat="50.1015712" lon="11.4040984">
                <ele>298.0</ele>
                <time>2020-08-21T16:37:40.000Z</time>
                <name>Trackpoint 6144</name>
            </trkpt>
            <trkpt lat="50.1015648" lon="11.403936">
                <ele>298.0</ele>
                <time>2020-08-21T16:37:42.000Z</time>
                <name>Trackpoint 6145</name>
            </trkpt>
            <trkpt lat="50.1015712" lon="11.403784">
                <ele>298.0</ele>
                <time>2020-08-21T16:37:44.000Z</time>
                <name>Trackpoint 6146</name>
            </trkpt>
            <trkpt lat="50.1015712" lon="11.4036376">
                <ele>298.0</ele>
                <time>2020-08-21T16:37:46.000Z</time>
                <name>Trackpoint 6147</name>
            </trkpt>
            <trkpt lat="50.101584" lon="11.4035104">
                <ele>298.0</ele>
                <time>2020-08-21T16:37:48.000Z</time>
                <name>Trackpoint 6148</name>
            </trkpt>
            <trkpt lat="50.1016032" lon="11.4033984">
                <ele>299.0</ele>
                <time>2020-08-21T16:37:50.000Z</time>
                <name>Trackpoint 6149</name>
            </trkpt>
            <trkpt lat="50.1016096" lon="11.4032936">
                <ele>299.0</ele>
                <time>2020-08-21T16:37:52.000Z</time>
                <name>Trackpoint 6150</name>
            </trkpt>
            <trkpt lat="50.1015968" lon="11.4032024">
                <ele>299.0</ele>
                <time>2020-08-21T16:37:54.000Z</time>
                <name>Trackpoint 6151</name>
            </trkpt>
            <trkpt lat="50.1015744" lon="11.4030936">
                <ele>299.0</ele>
                <time>2020-08-21T16:37:57.000Z</time>
                <name>Trackpoint 6152</name>
            </trkpt>
            <trkpt lat="50.1015712" lon="11.4029888">
                <ele>298.0</ele>
                <time>2020-08-21T16:39:18.000Z</time>
                <name>Trackpoint 6153</name>
            </trkpt>
            <trkpt lat="50.1015968" lon="11.402872">
                <ele>298.0</ele>
                <time>2020-08-21T16:39:22.000Z</time>
                <name>Trackpoint 6154</name>
            </trkpt>
            <trkpt lat="50.1015968" lon="11.4027784">
                <ele>298.0</ele>
                <time>2020-08-21T16:39:24.000Z</time>
                <name>Trackpoint 6155</name>
            </trkpt>
            <trkpt lat="50.1015776" lon="11.402688">
                <ele>298.0</ele>
                <time>2020-08-21T16:39:26.000Z</time>
                <name>Trackpoint 6156</name>
            </trkpt>
            <trkpt lat="50.1015648" lon="11.4025984">
                <ele>298.0</ele>
                <time>2020-08-21T16:39:28.000Z</time>
                <name>Trackpoint 6157</name>
            </trkpt>
            <trkpt lat="50.1015584" lon="11.4024912">
                <ele>298.0</ele>
                <time>2020-08-21T16:39:30.000Z</time>
                <name>Trackpoint 6158</name>
            </trkpt>
            <trkpt lat="50.1015424" lon="11.4023952">
                <ele>298.0</ele>
                <time>2020-08-21T16:39:32.000Z</time>
                <name>Trackpoint 6159</name>
            </trkpt>
            <trkpt lat="50.1015296" lon="11.4022816">
                <ele>298.0</ele>
                <time>2020-08-21T16:39:34.000Z</time>
                <name>Trackpoint 6160</name>
            </trkpt>
            <trkpt lat="50.1015168" lon="11.4021528">
                <ele>298.0</ele>
                <time>2020-08-21T16:39:36.000Z</time>
                <name>Trackpoint 6161</name>
            </trkpt>
            <trkpt lat="50.1015104" lon="11.4020296">
                <ele>298.0</ele>
                <time>2020-08-21T16:39:38.000Z</time>
                <name>Trackpoint 6162</name>
            </trkpt>
            <trkpt lat="50.1014976" lon="11.4018872">
                <ele>298.0</ele>
                <time>2020-08-21T16:39:40.000Z</time>
                <name>Trackpoint 6163</name>
            </trkpt>
            <trkpt lat="50.1014912" lon="11.4017288">
                <ele>298.0</ele>
                <time>2020-08-21T16:39:42.000Z</time>
                <name>Trackpoint 6164</name>
            </trkpt>
            <trkpt lat="50.1014656" lon="11.4015616">
                <ele>298.0</ele>
                <time>2020-08-21T16:39:44.000Z</time>
                <name>Trackpoint 6165</name>
            </trkpt>
            <trkpt lat="50.1014656" lon="11.4014128">
                <ele>298.0</ele>
                <time>2020-08-21T16:39:46.000Z</time>
                <name>Trackpoint 6166</name>
            </trkpt>
            <trkpt lat="50.1014432" lon="11.4012648">
                <ele>298.0</ele>
                <time>2020-08-21T16:39:48.000Z</time>
                <name>Trackpoint 6167</name>
            </trkpt>
            <trkpt lat="50.1014304" lon="11.4010984">
                <ele>298.0</ele>
                <time>2020-08-21T16:39:50.000Z</time>
                <name>Trackpoint 6168</name>
            </trkpt>
            <trkpt lat="50.1014112" lon="11.4010064">
                <ele>298.0</ele>
                <time>2020-08-21T16:39:51.000Z</time>
                <name>Trackpoint 6169</name>
            </trkpt>
            <trkpt lat="50.1013984" lon="11.4009168">
                <ele>298.0</ele>
                <time>2020-08-21T16:39:52.000Z</time>
                <name>Trackpoint 6170</name>
            </trkpt>
            <trkpt lat="50.1013952" lon="11.40082">
                <ele>299.0</ele>
                <time>2020-08-21T16:39:53.000Z</time>
                <name>Trackpoint 6171</name>
            </trkpt>
            <trkpt lat="50.1013856" lon="11.4007256">
                <ele>299.0</ele>
                <time>2020-08-21T16:39:54.000Z</time>
                <name>Trackpoint 6172</name>
            </trkpt>
            <trkpt lat="50.1013792" lon="11.4006272">
                <ele>299.0</ele>
                <time>2020-08-21T16:39:55.000Z</time>
                <name>Trackpoint 6173</name>
            </trkpt>
            <trkpt lat="50.1013792" lon="11.4005296">
                <ele>299.0</ele>
                <time>2020-08-21T16:39:56.000Z</time>
                <name>Trackpoint 6174</name>
            </trkpt>
            <trkpt lat="50.1013728" lon="11.4004296">
                <ele>299.0</ele>
                <time>2020-08-21T16:39:57.000Z</time>
                <name>Trackpoint 6175</name>
            </trkpt>
            <trkpt lat="50.1013568" lon="11.4003288">
                <ele>299.0</ele>
                <time>2020-08-21T16:39:58.000Z</time>
                <name>Trackpoint 6176</name>
            </trkpt>
            <trkpt lat="50.1013408" lon="11.4002184">
                <ele>299.0</ele>
                <time>2020-08-21T16:39:59.000Z</time>
                <name>Trackpoint 6177</name>
            </trkpt>
            <trkpt lat="50.1013216" lon="11.4001112">
                <ele>299.0</ele>
                <time>2020-08-21T16:40:00.000Z</time>
                <name>Trackpoint 6178</name>
            </trkpt>
            <trkpt lat="50.1013024" lon="11.4000056">
                <ele>299.0</ele>
                <time>2020-08-21T16:40:01.000Z</time>
                <name>Trackpoint 6179</name>
            </trkpt>
            <trkpt lat="50.1012928" lon="11.3999008">
                <ele>299.0</ele>
                <time>2020-08-21T16:40:02.000Z</time>
                <name>Trackpoint 6180</name>
            </trkpt>
            <trkpt lat="50.10128" lon="11.3997936">
                <ele>299.0</ele>
                <time>2020-08-21T16:40:03.000Z</time>
                <name>Trackpoint 6181</name>
            </trkpt>
            <trkpt lat="50.101264" lon="11.3996912">
                <ele>299.0</ele>
                <time>2020-08-21T16:40:04.000Z</time>
                <name>Trackpoint 6182</name>
            </trkpt>
            <trkpt lat="50.1012448" lon="11.3995784">
                <ele>299.0</ele>
                <time>2020-08-21T16:40:05.000Z</time>
                <name>Trackpoint 6183</name>
            </trkpt>
            <trkpt lat="50.1012352" lon="11.3994768">
                <ele>299.0</ele>
                <time>2020-08-21T16:40:06.000Z</time>
                <name>Trackpoint 6184</name>
            </trkpt>
            <trkpt lat="50.1012256" lon="11.39938">
                <ele>299.0</ele>
                <time>2020-08-21T16:40:07.000Z</time>
                <name>Trackpoint 6185</name>
            </trkpt>
            <trkpt lat="50.1012128" lon="11.3992832">
                <ele>299.0</ele>
                <time>2020-08-21T16:40:08.000Z</time>
                <name>Trackpoint 6186</name>
            </trkpt>
            <trkpt lat="50.1011968" lon="11.3991936">
                <ele>299.0</ele>
                <time>2020-08-21T16:40:09.000Z</time>
                <name>Trackpoint 6187</name>
            </trkpt>
            <trkpt lat="50.1011808" lon="11.3990984">
                <ele>299.0</ele>
                <time>2020-08-21T16:40:10.000Z</time>
                <name>Trackpoint 6188</name>
            </trkpt>
            <trkpt lat="50.1011648" lon="11.3990072">
                <ele>299.0</ele>
                <time>2020-08-21T16:40:11.000Z</time>
                <name>Trackpoint 6189</name>
            </trkpt>
            <trkpt lat="50.1011456" lon="11.3989064">
                <ele>299.0</ele>
                <time>2020-08-21T16:40:12.000Z</time>
                <name>Trackpoint 6190</name>
            </trkpt>
            <trkpt lat="50.1011392" lon="11.3988">
                <ele>299.0</ele>
                <time>2020-08-21T16:40:13.000Z</time>
                <name>Trackpoint 6191</name>
            </trkpt>
            <trkpt lat="50.1011424" lon="11.398708">
                <ele>299.0</ele>
                <time>2020-08-21T16:40:14.000Z</time>
                <name>Trackpoint 6192</name>
            </trkpt>
            <trkpt lat="50.1011008" lon="11.3986016">
                <ele>299.0</ele>
                <time>2020-08-21T16:40:15.000Z</time>
                <name>Trackpoint 6193</name>
            </trkpt>
            <trkpt lat="50.1010752" lon="11.3985008">
                <ele>299.0</ele>
                <time>2020-08-21T16:40:16.000Z</time>
                <name>Trackpoint 6194</name>
            </trkpt>
            <trkpt lat="50.1010528" lon="11.3983816">
                <ele>299.0</ele>
                <time>2020-08-21T16:40:17.000Z</time>
                <name>Trackpoint 6195</name>
            </trkpt>
            <trkpt lat="50.101024" lon="11.3982536">
                <ele>298.0</ele>
                <time>2020-08-21T16:40:18.000Z</time>
                <name>Trackpoint 6196</name>
            </trkpt>
            <trkpt lat="50.1010144" lon="11.3981552">
                <ele>298.0</ele>
                <time>2020-08-21T16:40:19.000Z</time>
                <name>Trackpoint 6197</name>
            </trkpt>
            <trkpt lat="50.1010016" lon="11.398064">
                <ele>298.0</ele>
                <time>2020-08-21T16:40:20.000Z</time>
                <name>Trackpoint 6198</name>
            </trkpt>
            <trkpt lat="50.100976" lon="11.3978952">
                <ele>300.0</ele>
                <time>2020-08-21T16:40:22.000Z</time>
                <name>Trackpoint 6199</name>
            </trkpt>
            <trkpt lat="50.10096" lon="11.3977248">
                <ele>299.0</ele>
                <time>2020-08-21T16:40:24.000Z</time>
                <name>Trackpoint 6200</name>
            </trkpt>
            <trkpt lat="50.1009408" lon="11.3975736">
                <ele>299.0</ele>
                <time>2020-08-21T16:40:26.000Z</time>
                <name>Trackpoint 6201</name>
            </trkpt>
            <trkpt lat="50.1009216" lon="11.3974048">
                <ele>299.0</ele>
                <time>2020-08-21T16:40:28.000Z</time>
                <name>Trackpoint 6202</name>
            </trkpt>
            <trkpt lat="50.1009152" lon="11.3972232">
                <ele>299.0</ele>
                <time>2020-08-21T16:40:30.000Z</time>
                <name>Trackpoint 6203</name>
            </trkpt>
            <trkpt lat="50.1009184" lon="11.3971328">
                <ele>299.0</ele>
                <time>2020-08-21T16:40:31.000Z</time>
                <name>Trackpoint 6204</name>
            </trkpt>
            <trkpt lat="50.1009248" lon="11.39696">
                <ele>299.0</ele>
                <time>2020-08-21T16:40:33.000Z</time>
                <name>Trackpoint 6205</name>
            </trkpt>
            <trkpt lat="50.1009248" lon="11.3968632">
                <ele>299.0</ele>
                <time>2020-08-21T16:40:34.000Z</time>
                <name>Trackpoint 6206</name>
            </trkpt>
            <trkpt lat="50.1009216" lon="11.3967696">
                <ele>299.0</ele>
                <time>2020-08-21T16:40:35.000Z</time>
                <name>Trackpoint 6207</name>
            </trkpt>
            <trkpt lat="50.1009056" lon="11.3965904">
                <ele>299.0</ele>
                <time>2020-08-21T16:40:37.000Z</time>
                <name>Trackpoint 6208</name>
            </trkpt>
            <trkpt lat="50.100896" lon="11.3964984">
                <ele>299.0</ele>
                <time>2020-08-21T16:40:38.000Z</time>
                <name>Trackpoint 6209</name>
            </trkpt>
            <trkpt lat="50.1008832" lon="11.3963984">
                <ele>299.0</ele>
                <time>2020-08-21T16:40:39.000Z</time>
                <name>Trackpoint 6210</name>
            </trkpt>
            <trkpt lat="50.1008736" lon="11.3962224">
                <ele>299.0</ele>
                <time>2020-08-21T16:40:41.000Z</time>
                <name>Trackpoint 6211</name>
            </trkpt>
            <trkpt lat="50.1008672" lon="11.3961312">
                <ele>299.0</ele>
                <time>2020-08-21T16:40:42.000Z</time>
                <name>Trackpoint 6212</name>
            </trkpt>
            <trkpt lat="50.100864" lon="11.3959576">
                <ele>299.0</ele>
                <time>2020-08-21T16:40:44.000Z</time>
                <name>Trackpoint 6213</name>
            </trkpt>
            <trkpt lat="50.1008672" lon="11.3957984">
                <ele>299.0</ele>
                <time>2020-08-21T16:40:46.000Z</time>
                <name>Trackpoint 6214</name>
            </trkpt>
            <trkpt lat="50.100864" lon="11.395648">
                <ele>299.0</ele>
                <time>2020-08-21T16:40:48.000Z</time>
                <name>Trackpoint 6215</name>
            </trkpt>
            <trkpt lat="50.1008672" lon="11.3955096">
                <ele>298.0</ele>
                <time>2020-08-21T16:40:50.000Z</time>
                <name>Trackpoint 6216</name>
            </trkpt>
            <trkpt lat="50.1008768" lon="11.3953848">
                <ele>298.0</ele>
                <time>2020-08-21T16:40:52.000Z</time>
                <name>Trackpoint 6217</name>
            </trkpt>
            <trkpt lat="50.10088" lon="11.3952712">
                <ele>298.0</ele>
                <time>2020-08-21T16:40:54.000Z</time>
                <name>Trackpoint 6218</name>
            </trkpt>
            <trkpt lat="50.1008832" lon="11.395132">
                <ele>298.0</ele>
                <time>2020-08-21T16:40:57.000Z</time>
                <name>Trackpoint 6219</name>
            </trkpt>
            <trkpt lat="50.1008896" lon="11.3950304">
                <ele>298.0</ele>
                <time>2020-08-21T16:40:59.000Z</time>
                <name>Trackpoint 6220</name>
            </trkpt>
            <trkpt lat="50.1009024" lon="11.3949216">
                <ele>298.0</ele>
                <time>2020-08-21T16:41:01.000Z</time>
                <name>Trackpoint 6221</name>
            </trkpt>
            <trkpt lat="50.1009184" lon="11.394812">
                <ele>297.0</ele>
                <time>2020-08-21T16:41:03.000Z</time>
                <name>Trackpoint 6222</name>
            </trkpt>
            <trkpt lat="50.1009376" lon="11.3947">
                <ele>297.0</ele>
                <time>2020-08-21T16:41:05.000Z</time>
                <name>Trackpoint 6223</name>
            </trkpt>
            <trkpt lat="50.1009472" lon="11.3945848">
                <ele>298.0</ele>
                <time>2020-08-21T16:41:07.000Z</time>
                <name>Trackpoint 6224</name>
            </trkpt>
            <trkpt lat="50.10096" lon="11.394472">
                <ele>298.0</ele>
                <time>2020-08-21T16:41:09.000Z</time>
                <name>Trackpoint 6225</name>
            </trkpt>
            <trkpt lat="50.1009856" lon="11.3943584">
                <ele>298.0</ele>
                <time>2020-08-21T16:41:11.000Z</time>
                <name>Trackpoint 6226</name>
            </trkpt>
            <trkpt lat="50.1010048" lon="11.394248">
                <ele>298.0</ele>
                <time>2020-08-21T16:41:13.000Z</time>
                <name>Trackpoint 6227</name>
            </trkpt>
            <trkpt lat="50.1010272" lon="11.3941352">
                <ele>298.0</ele>
                <time>2020-08-21T16:41:15.000Z</time>
                <name>Trackpoint 6228</name>
            </trkpt>
            <trkpt lat="50.101056" lon="11.3940048">
                <ele>298.0</ele>
                <time>2020-08-21T16:41:17.000Z</time>
                <name>Trackpoint 6229</name>
            </trkpt>
            <trkpt lat="50.1010816" lon="11.3938688">
                <ele>298.0</ele>
                <time>2020-08-21T16:41:19.000Z</time>
                <name>Trackpoint 6230</name>
            </trkpt>
            <trkpt lat="50.1011232" lon="11.393732">
                <ele>298.0</ele>
                <time>2020-08-21T16:41:21.000Z</time>
                <name>Trackpoint 6231</name>
            </trkpt>
            <trkpt lat="50.1011424" lon="11.3935816">
                <ele>298.0</ele>
                <time>2020-08-21T16:41:23.000Z</time>
                <name>Trackpoint 6232</name>
            </trkpt>
            <trkpt lat="50.1011584" lon="11.3934296">
                <ele>298.0</ele>
                <time>2020-08-21T16:41:25.000Z</time>
                <name>Trackpoint 6233</name>
            </trkpt>
            <trkpt lat="50.1011808" lon="11.3932816">
                <ele>298.0</ele>
                <time>2020-08-21T16:41:27.000Z</time>
                <name>Trackpoint 6234</name>
            </trkpt>
            <trkpt lat="50.1011936" lon="11.3931168">
                <ele>298.0</ele>
                <time>2020-08-21T16:41:29.000Z</time>
                <name>Trackpoint 6235</name>
            </trkpt>
            <trkpt lat="50.1012" lon="11.392952">
                <ele>298.0</ele>
                <time>2020-08-21T16:41:31.000Z</time>
                <name>Trackpoint 6236</name>
            </trkpt>
            <trkpt lat="50.1011968" lon="11.3928096">
                <ele>298.0</ele>
                <time>2020-08-21T16:41:33.000Z</time>
                <name>Trackpoint 6237</name>
            </trkpt>
            <trkpt lat="50.1011808" lon="11.3926888">
                <ele>298.0</ele>
                <time>2020-08-21T16:41:35.000Z</time>
                <name>Trackpoint 6238</name>
            </trkpt>
            <trkpt lat="50.1011552" lon="11.3925752">
                <ele>298.0</ele>
                <time>2020-08-21T16:41:37.000Z</time>
                <name>Trackpoint 6239</name>
            </trkpt>
            <trkpt lat="50.1010848" lon="11.392484">
                <ele>298.0</ele>
                <time>2020-08-21T16:41:39.000Z</time>
                <name>Trackpoint 6240</name>
            </trkpt>
            <trkpt lat="50.101024" lon="11.3924128">
                <ele>298.0</ele>
                <time>2020-08-21T16:41:42.000Z</time>
                <name>Trackpoint 6241</name>
            </trkpt>
            <trkpt lat="50.1009344" lon="11.3923832">
                <ele>298.0</ele>
                <time>2020-08-21T16:41:48.000Z</time>
                <name>Trackpoint 6242</name>
            </trkpt>
            <trkpt lat="50.1008192" lon="11.3923976">
                <ele>298.0</ele>
                <time>2020-08-21T16:41:51.000Z</time>
                <name>Trackpoint 6243</name>
            </trkpt>
            <trkpt lat="50.1007104" lon="11.3923952">
                <ele>298.0</ele>
                <time>2020-08-21T16:41:53.000Z</time>
                <name>Trackpoint 6244</name>
            </trkpt>
            <trkpt lat="50.1005984" lon="11.3924064">
                <ele>299.0</ele>
                <time>2020-08-21T16:41:55.000Z</time>
                <name>Trackpoint 6245</name>
            </trkpt>
            <trkpt lat="50.10048" lon="11.3924168">
                <ele>299.0</ele>
                <time>2020-08-21T16:41:57.000Z</time>
                <name>Trackpoint 6246</name>
            </trkpt>
            <trkpt lat="50.1003648" lon="11.3924152">
                <ele>299.0</ele>
                <time>2020-08-21T16:41:59.000Z</time>
                <name>Trackpoint 6247</name>
            </trkpt>
            <trkpt lat="50.1002464" lon="11.3924176">
                <ele>299.0</ele>
                <time>2020-08-21T16:42:01.000Z</time>
                <name>Trackpoint 6248</name>
            </trkpt>
            <trkpt lat="50.1001248" lon="11.392428">
                <ele>299.0</ele>
                <time>2020-08-21T16:42:03.000Z</time>
                <name>Trackpoint 6249</name>
            </trkpt>
            <trkpt lat="50.1000096" lon="11.3924448">
                <ele>299.0</ele>
                <time>2020-08-21T16:42:05.000Z</time>
                <name>Trackpoint 6250</name>
            </trkpt>
            <trkpt lat="50.0999008" lon="11.392444">
                <ele>299.0</ele>
                <time>2020-08-21T16:42:07.000Z</time>
                <name>Trackpoint 6251</name>
            </trkpt>
            <trkpt lat="50.0997824" lon="11.3924528">
                <ele>299.0</ele>
                <time>2020-08-21T16:42:09.000Z</time>
                <name>Trackpoint 6252</name>
            </trkpt>
            <trkpt lat="50.0996576" lon="11.3924616">
                <ele>299.0</ele>
                <time>2020-08-21T16:42:11.000Z</time>
                <name>Trackpoint 6253</name>
            </trkpt>
            <trkpt lat="50.099536" lon="11.3924936">
                <ele>299.0</ele>
                <time>2020-08-21T16:42:13.000Z</time>
                <name>Trackpoint 6254</name>
            </trkpt>
            <trkpt lat="50.0994144" lon="11.3925264">
                <ele>300.0</ele>
                <time>2020-08-21T16:42:15.000Z</time>
                <name>Trackpoint 6255</name>
            </trkpt>
            <trkpt lat="50.0992992" lon="11.392596">
                <ele>300.0</ele>
                <time>2020-08-21T16:42:17.000Z</time>
                <name>Trackpoint 6256</name>
            </trkpt>
            <trkpt lat="50.0991776" lon="11.3926672">
                <ele>300.0</ele>
                <time>2020-08-21T16:42:19.000Z</time>
                <name>Trackpoint 6257</name>
            </trkpt>
            <trkpt lat="50.0990624" lon="11.3927344">
                <ele>300.0</ele>
                <time>2020-08-21T16:42:21.000Z</time>
                <name>Trackpoint 6258</name>
            </trkpt>
            <trkpt lat="50.0989536" lon="11.392788">
                <ele>300.0</ele>
                <time>2020-08-21T16:42:23.000Z</time>
                <name>Trackpoint 6259</name>
            </trkpt>
            <trkpt lat="50.098848" lon="11.392808">
                <ele>300.0</ele>
                <time>2020-08-21T16:42:25.000Z</time>
                <name>Trackpoint 6260</name>
            </trkpt>
            <trkpt lat="50.0987328" lon="11.3927896">
                <ele>300.0</ele>
                <time>2020-08-21T16:42:27.000Z</time>
                <name>Trackpoint 6261</name>
            </trkpt>
            <trkpt lat="50.0986176" lon="11.3927544">
                <ele>300.0</ele>
                <time>2020-08-21T16:42:29.000Z</time>
                <name>Trackpoint 6262</name>
            </trkpt>
            <trkpt lat="50.098496" lon="11.392732">
                <ele>300.0</ele>
                <time>2020-08-21T16:42:31.000Z</time>
                <name>Trackpoint 6263</name>
            </trkpt>
            <trkpt lat="50.098368" lon="11.3927384">
                <ele>300.0</ele>
                <time>2020-08-21T16:42:33.000Z</time>
                <name>Trackpoint 6264</name>
            </trkpt>
            <trkpt lat="50.0982176" lon="11.3927536">
                <ele>300.0</ele>
                <time>2020-08-21T16:42:35.000Z</time>
                <name>Trackpoint 6265</name>
            </trkpt>
            <trkpt lat="50.0980832" lon="11.3927632">
                <ele>299.0</ele>
                <time>2020-08-21T16:42:37.000Z</time>
                <name>Trackpoint 6266</name>
            </trkpt>
            <trkpt lat="50.0979744" lon="11.39276">
                <ele>299.0</ele>
                <time>2020-08-21T16:42:39.000Z</time>
                <name>Trackpoint 6267</name>
            </trkpt>
            <trkpt lat="50.0978784" lon="11.392772">
                <ele>299.0</ele>
                <time>2020-08-21T16:42:41.000Z</time>
                <name>Trackpoint 6268</name>
            </trkpt>
            <trkpt lat="50.0977888" lon="11.3927896">
                <ele>299.0</ele>
                <time>2020-08-21T16:42:43.000Z</time>
                <name>Trackpoint 6269</name>
            </trkpt>
            <trkpt lat="50.0976896" lon="11.3927944">
                <ele>299.0</ele>
                <time>2020-08-21T16:42:46.000Z</time>
                <name>Trackpoint 6270</name>
            </trkpt>
            <trkpt lat="50.0976032" lon="11.3927288">
                <ele>299.0</ele>
                <time>2020-08-21T16:42:59.000Z</time>
                <name>Trackpoint 6271</name>
            </trkpt>
            <trkpt lat="50.0975616" lon="11.3926064">
                <ele>299.0</ele>
                <time>2020-08-21T16:43:04.000Z</time>
                <name>Trackpoint 6272</name>
            </trkpt>
            <trkpt lat="50.0975424" lon="11.3925136">
                <ele>299.0</ele>
                <time>2020-08-21T16:43:06.000Z</time>
                <name>Trackpoint 6273</name>
            </trkpt>
            <trkpt lat="50.0974912" lon="11.3924176">
                <ele>299.0</ele>
                <time>2020-08-21T16:43:08.000Z</time>
                <name>Trackpoint 6274</name>
            </trkpt>
            <trkpt lat="50.0974304" lon="11.3923232">
                <ele>299.0</ele>
                <time>2020-08-21T16:43:10.000Z</time>
                <name>Trackpoint 6275</name>
            </trkpt>
            <trkpt lat="50.0973856" lon="11.3922104">
                <ele>299.0</ele>
                <time>2020-08-21T16:43:12.000Z</time>
                <name>Trackpoint 6276</name>
            </trkpt>
            <trkpt lat="50.0973536" lon="11.3920672">
                <ele>299.0</ele>
                <time>2020-08-21T16:43:14.000Z</time>
                <name>Trackpoint 6277</name>
            </trkpt>
            <trkpt lat="50.0973248" lon="11.3919016">
                <ele>299.0</ele>
                <time>2020-08-21T16:43:16.000Z</time>
                <name>Trackpoint 6278</name>
            </trkpt>
            <trkpt lat="50.0973024" lon="11.3917304">
                <ele>299.0</ele>
                <time>2020-08-21T16:43:18.000Z</time>
                <name>Trackpoint 6279</name>
            </trkpt>
            <trkpt lat="50.0972928" lon="11.3916384">
                <ele>299.0</ele>
                <time>2020-08-21T16:43:19.000Z</time>
                <name>Trackpoint 6280</name>
            </trkpt>
            <trkpt lat="50.09728" lon="11.3914696">
                <ele>299.0</ele>
                <time>2020-08-21T16:43:21.000Z</time>
                <name>Trackpoint 6281</name>
            </trkpt>
            <trkpt lat="50.0972736" lon="11.3912952">
                <ele>299.0</ele>
                <time>2020-08-21T16:43:23.000Z</time>
                <name>Trackpoint 6282</name>
            </trkpt>
            <trkpt lat="50.0972672" lon="11.3912016">
                <ele>299.0</ele>
                <time>2020-08-21T16:43:24.000Z</time>
                <name>Trackpoint 6283</name>
            </trkpt>
            <trkpt lat="50.0972544" lon="11.3910264">
                <ele>299.0</ele>
                <time>2020-08-21T16:43:26.000Z</time>
                <name>Trackpoint 6284</name>
            </trkpt>
            <trkpt lat="50.0972352" lon="11.3908504">
                <ele>299.0</ele>
                <time>2020-08-21T16:43:28.000Z</time>
                <name>Trackpoint 6285</name>
            </trkpt>
            <trkpt lat="50.0972256" lon="11.3907536">
                <ele>299.0</ele>
                <time>2020-08-21T16:43:29.000Z</time>
                <name>Trackpoint 6286</name>
            </trkpt>
            <trkpt lat="50.0972128" lon="11.3906584">
                <ele>299.0</ele>
                <time>2020-08-21T16:43:30.000Z</time>
                <name>Trackpoint 6287</name>
            </trkpt>
            <trkpt lat="50.0972032" lon="11.3905648">
                <ele>299.0</ele>
                <time>2020-08-21T16:43:31.000Z</time>
                <name>Trackpoint 6288</name>
            </trkpt>
            <trkpt lat="50.0971904" lon="11.3904736">
                <ele>299.0</ele>
                <time>2020-08-21T16:43:32.000Z</time>
                <name>Trackpoint 6289</name>
            </trkpt>
            <trkpt lat="50.0971808" lon="11.390384">
                <ele>299.0</ele>
                <time>2020-08-21T16:43:33.000Z</time>
                <name>Trackpoint 6290</name>
            </trkpt>
            <trkpt lat="50.0971616" lon="11.3902056">
                <ele>299.0</ele>
                <time>2020-08-21T16:43:35.000Z</time>
                <name>Trackpoint 6291</name>
            </trkpt>
            <trkpt lat="50.0971328" lon="11.3900296">
                <ele>299.0</ele>
                <time>2020-08-21T16:43:37.000Z</time>
                <name>Trackpoint 6292</name>
            </trkpt>
            <trkpt lat="50.0971104" lon="11.3898688">
                <ele>299.0</ele>
                <time>2020-08-21T16:43:39.000Z</time>
                <name>Trackpoint 6293</name>
            </trkpt>
            <trkpt lat="50.097072" lon="11.3897136">
                <ele>299.0</ele>
                <time>2020-08-21T16:43:41.000Z</time>
                <name>Trackpoint 6294</name>
            </trkpt>
            <trkpt lat="50.0970304" lon="11.3895616">
                <ele>299.0</ele>
                <time>2020-08-21T16:43:43.000Z</time>
                <name>Trackpoint 6295</name>
            </trkpt>
            <trkpt lat="50.096992" lon="11.3894128">
                <ele>299.0</ele>
                <time>2020-08-21T16:43:45.000Z</time>
                <name>Trackpoint 6296</name>
            </trkpt>
            <trkpt lat="50.0969632" lon="11.38926">
                <ele>299.0</ele>
                <time>2020-08-21T16:43:47.000Z</time>
                <name>Trackpoint 6297</name>
            </trkpt>
            <trkpt lat="50.0969472" lon="11.3891112">
                <ele>299.0</ele>
                <time>2020-08-21T16:43:49.000Z</time>
                <name>Trackpoint 6298</name>
            </trkpt>
            <trkpt lat="50.0969376" lon="11.38896">
                <ele>299.0</ele>
                <time>2020-08-21T16:43:51.000Z</time>
                <name>Trackpoint 6299</name>
            </trkpt>
            <trkpt lat="50.0969472" lon="11.3888152">
                <ele>299.0</ele>
                <time>2020-08-21T16:43:53.000Z</time>
                <name>Trackpoint 6300</name>
            </trkpt>
            <trkpt lat="50.0970016" lon="11.3886736">
                <ele>298.0</ele>
                <time>2020-08-21T16:43:55.000Z</time>
                <name>Trackpoint 6301</name>
            </trkpt>
            <trkpt lat="50.0970464" lon="11.3885272">
                <ele>298.0</ele>
                <time>2020-08-21T16:43:57.000Z</time>
                <name>Trackpoint 6302</name>
            </trkpt>
            <trkpt lat="50.0970752" lon="11.3883688">
                <ele>298.0</ele>
                <time>2020-08-21T16:43:59.000Z</time>
                <name>Trackpoint 6303</name>
            </trkpt>
            <trkpt lat="50.0971008" lon="11.3882048">
                <ele>298.0</ele>
                <time>2020-08-21T16:44:01.000Z</time>
                <name>Trackpoint 6304</name>
            </trkpt>
            <trkpt lat="50.0971104" lon="11.388048">
                <ele>298.0</ele>
                <time>2020-08-21T16:44:03.000Z</time>
                <name>Trackpoint 6305</name>
            </trkpt>
            <trkpt lat="50.0971168" lon="11.387888">
                <ele>298.0</ele>
                <time>2020-08-21T16:44:05.000Z</time>
                <name>Trackpoint 6306</name>
            </trkpt>
            <trkpt lat="50.0971296" lon="11.3877184">
                <ele>298.0</ele>
                <time>2020-08-21T16:44:07.000Z</time>
                <name>Trackpoint 6307</name>
            </trkpt>
            <trkpt lat="50.0971424" lon="11.387544">
                <ele>298.0</ele>
                <time>2020-08-21T16:44:09.000Z</time>
                <name>Trackpoint 6308</name>
            </trkpt>
            <trkpt lat="50.0971456" lon="11.387452">
                <ele>298.0</ele>
                <time>2020-08-21T16:44:10.000Z</time>
                <name>Trackpoint 6309</name>
            </trkpt>
            <trkpt lat="50.0971616" lon="11.3872768">
                <ele>298.0</ele>
                <time>2020-08-21T16:44:12.000Z</time>
                <name>Trackpoint 6310</name>
            </trkpt>
            <trkpt lat="50.097168" lon="11.3871024">
                <ele>298.0</ele>
                <time>2020-08-21T16:44:14.000Z</time>
                <name>Trackpoint 6311</name>
            </trkpt>
            <trkpt lat="50.0971712" lon="11.3869304">
                <ele>298.0</ele>
                <time>2020-08-21T16:44:16.000Z</time>
                <name>Trackpoint 6312</name>
            </trkpt>
            <trkpt lat="50.0971712" lon="11.3867552">
                <ele>298.0</ele>
                <time>2020-08-21T16:44:18.000Z</time>
                <name>Trackpoint 6313</name>
            </trkpt>
            <trkpt lat="50.0971712" lon="11.3865872">
                <ele>298.0</ele>
                <time>2020-08-21T16:44:20.000Z</time>
                <name>Trackpoint 6314</name>
            </trkpt>
            <trkpt lat="50.0971744" lon="11.3864944">
                <ele>298.0</ele>
                <time>2020-08-21T16:44:21.000Z</time>
                <name>Trackpoint 6315</name>
            </trkpt>
            <trkpt lat="50.0971808" lon="11.3863424">
                <ele>298.0</ele>
                <time>2020-08-21T16:44:23.000Z</time>
                <name>Trackpoint 6316</name>
            </trkpt>
            <trkpt lat="50.097184" lon="11.3861968">
                <ele>297.0</ele>
                <time>2020-08-21T16:44:25.000Z</time>
                <name>Trackpoint 6317</name>
            </trkpt>
            <trkpt lat="50.097184" lon="11.3860592">
                <ele>297.0</ele>
                <time>2020-08-21T16:44:27.000Z</time>
                <name>Trackpoint 6318</name>
            </trkpt>
            <trkpt lat="50.0971872" lon="11.3859528">
                <ele>297.0</ele>
                <time>2020-08-21T16:44:29.000Z</time>
                <name>Trackpoint 6319</name>
            </trkpt>
            <trkpt lat="50.0972" lon="11.385852">
                <ele>297.0</ele>
                <time>2020-08-21T16:44:52.000Z</time>
                <name>Trackpoint 6320</name>
            </trkpt>
            <trkpt lat="50.0972256" lon="11.3857336">
                <ele>297.0</ele>
                <time>2020-08-21T16:44:55.000Z</time>
                <name>Trackpoint 6321</name>
            </trkpt>
            <trkpt lat="50.097232" lon="11.3856288">
                <ele>297.0</ele>
                <time>2020-08-21T16:44:57.000Z</time>
                <name>Trackpoint 6322</name>
            </trkpt>
            <trkpt lat="50.0972448" lon="11.3855048">
                <ele>297.0</ele>
                <time>2020-08-21T16:44:59.000Z</time>
                <name>Trackpoint 6323</name>
            </trkpt>
            <trkpt lat="50.0972512" lon="11.3853776">
                <ele>297.0</ele>
                <time>2020-08-21T16:45:01.000Z</time>
                <name>Trackpoint 6324</name>
            </trkpt>
            <trkpt lat="50.0972512" lon="11.3852504">
                <ele>297.0</ele>
                <time>2020-08-21T16:45:03.000Z</time>
                <name>Trackpoint 6325</name>
            </trkpt>
            <trkpt lat="50.0972608" lon="11.3851144">
                <ele>297.0</ele>
                <time>2020-08-21T16:45:05.000Z</time>
                <name>Trackpoint 6326</name>
            </trkpt>
            <trkpt lat="50.097264" lon="11.3849824">
                <ele>297.0</ele>
                <time>2020-08-21T16:45:07.000Z</time>
                <name>Trackpoint 6327</name>
            </trkpt>
            <trkpt lat="50.0972832" lon="11.3848448">
                <ele>297.0</ele>
                <time>2020-08-21T16:45:09.000Z</time>
                <name>Trackpoint 6328</name>
            </trkpt>
            <trkpt lat="50.0973088" lon="11.3847">
                <ele>297.0</ele>
                <time>2020-08-21T16:45:11.000Z</time>
                <name>Trackpoint 6329</name>
            </trkpt>
            <trkpt lat="50.0973344" lon="11.3845568">
                <ele>297.0</ele>
                <time>2020-08-21T16:45:13.000Z</time>
                <name>Trackpoint 6330</name>
            </trkpt>
            <trkpt lat="50.0973472" lon="11.3844136">
                <ele>297.0</ele>
                <time>2020-08-21T16:45:15.000Z</time>
                <name>Trackpoint 6331</name>
            </trkpt>
            <trkpt lat="50.0973664" lon="11.3842696">
                <ele>297.0</ele>
                <time>2020-08-21T16:45:17.000Z</time>
                <name>Trackpoint 6332</name>
            </trkpt>
            <trkpt lat="50.0973888" lon="11.384136">
                <ele>297.0</ele>
                <time>2020-08-21T16:45:19.000Z</time>
                <name>Trackpoint 6333</name>
            </trkpt>
            <trkpt lat="50.097424" lon="11.3839976">
                <ele>297.0</ele>
                <time>2020-08-21T16:45:21.000Z</time>
                <name>Trackpoint 6334</name>
            </trkpt>
            <trkpt lat="50.0974624" lon="11.3838568">
                <ele>297.0</ele>
                <time>2020-08-21T16:45:23.000Z</time>
                <name>Trackpoint 6335</name>
            </trkpt>
            <trkpt lat="50.097504" lon="11.3837232">
                <ele>297.0</ele>
                <time>2020-08-21T16:45:25.000Z</time>
                <name>Trackpoint 6336</name>
            </trkpt>
            <trkpt lat="50.0975392" lon="11.38358">
                <ele>297.0</ele>
                <time>2020-08-21T16:45:27.000Z</time>
                <name>Trackpoint 6337</name>
            </trkpt>
            <trkpt lat="50.0975712" lon="11.3834536">
                <ele>297.0</ele>
                <time>2020-08-21T16:45:29.000Z</time>
                <name>Trackpoint 6338</name>
            </trkpt>
            <trkpt lat="50.0976224" lon="11.3833512">
                <ele>297.0</ele>
                <time>2020-08-21T16:45:31.000Z</time>
                <name>Trackpoint 6339</name>
            </trkpt>
            <trkpt lat="50.097664" lon="11.383228">
                <ele>297.0</ele>
                <time>2020-08-21T16:45:33.000Z</time>
                <name>Trackpoint 6340</name>
            </trkpt>
            <trkpt lat="50.0976896" lon="11.3831104">
                <ele>297.0</ele>
                <time>2020-08-21T16:45:35.000Z</time>
                <name>Trackpoint 6341</name>
            </trkpt>
            <trkpt lat="50.0977088" lon="11.3830048">
                <ele>297.0</ele>
                <time>2020-08-21T16:45:37.000Z</time>
                <name>Trackpoint 6342</name>
            </trkpt>
            <trkpt lat="50.0977312" lon="11.3829008">
                <ele>297.0</ele>
                <time>2020-08-21T16:45:39.000Z</time>
                <name>Trackpoint 6343</name>
            </trkpt>
            <trkpt lat="50.09768" lon="11.3827936">
                <ele>297.0</ele>
                <time>2020-08-21T16:45:42.000Z</time>
                <name>Trackpoint 6344</name>
            </trkpt>
            <trkpt lat="50.0976" lon="11.3826968">
                <ele>297.0</ele>
                <time>2020-08-21T16:45:45.000Z</time>
                <name>Trackpoint 6345</name>
            </trkpt>
            <trkpt lat="50.0975264" lon="11.3825976">
                <ele>297.0</ele>
                <time>2020-08-21T16:45:47.000Z</time>
                <name>Trackpoint 6346</name>
            </trkpt>
            <trkpt lat="50.0974592" lon="11.3824904">
                <ele>297.0</ele>
                <time>2020-08-21T16:45:49.000Z</time>
                <name>Trackpoint 6347</name>
            </trkpt>
            <trkpt lat="50.0973888" lon="11.3824032">
                <ele>297.0</ele>
                <time>2020-08-21T16:45:51.000Z</time>
                <name>Trackpoint 6348</name>
            </trkpt>
            <trkpt lat="50.0973152" lon="11.3823248">
                <ele>297.0</ele>
                <time>2020-08-21T16:45:53.000Z</time>
                <name>Trackpoint 6349</name>
            </trkpt>
            <trkpt lat="50.0972352" lon="11.382248">
                <ele>297.0</ele>
                <time>2020-08-21T16:45:55.000Z</time>
                <name>Trackpoint 6350</name>
            </trkpt>
            <trkpt lat="50.0971552" lon="11.38216">
                <ele>297.0</ele>
                <time>2020-08-21T16:45:57.000Z</time>
                <name>Trackpoint 6351</name>
            </trkpt>
            <trkpt lat="50.0970752" lon="11.382076">
                <ele>297.0</ele>
                <time>2020-08-21T16:45:59.000Z</time>
                <name>Trackpoint 6352</name>
            </trkpt>
            <trkpt lat="50.0969888" lon="11.3819816">
                <ele>297.0</ele>
                <time>2020-08-21T16:46:01.000Z</time>
                <name>Trackpoint 6353</name>
            </trkpt>
            <trkpt lat="50.0969024" lon="11.3818864">
                <ele>297.0</ele>
                <time>2020-08-21T16:46:03.000Z</time>
                <name>Trackpoint 6354</name>
            </trkpt>
            <trkpt lat="50.0968352" lon="11.3817816">
                <ele>298.0</ele>
                <time>2020-08-21T16:46:05.000Z</time>
                <name>Trackpoint 6355</name>
            </trkpt>
            <trkpt lat="50.096752" lon="11.3816632">
                <ele>298.0</ele>
                <time>2020-08-21T16:46:07.000Z</time>
                <name>Trackpoint 6356</name>
            </trkpt>
            <trkpt lat="50.0966688" lon="11.3815568">
                <ele>298.0</ele>
                <time>2020-08-21T16:46:09.000Z</time>
                <name>Trackpoint 6357</name>
            </trkpt>
            <trkpt lat="50.0965952" lon="11.3814632">
                <ele>298.0</ele>
                <time>2020-08-21T16:46:11.000Z</time>
                <name>Trackpoint 6358</name>
            </trkpt>
            <trkpt lat="50.0965312" lon="11.3813752">
                <ele>298.0</ele>
                <time>2020-08-21T16:46:13.000Z</time>
                <name>Trackpoint 6359</name>
            </trkpt>
            <trkpt lat="50.0964736" lon="11.381304">
                <ele>298.0</ele>
                <time>2020-08-21T16:46:15.000Z</time>
                <name>Trackpoint 6360</name>
            </trkpt>
            <trkpt lat="50.0963872" lon="11.3813352">
                <ele>298.0</ele>
                <time>2020-08-21T16:46:17.000Z</time>
                <name>Trackpoint 6361</name>
            </trkpt>
            <trkpt lat="50.096288" lon="11.38138">
                <ele>298.0</ele>
                <time>2020-08-21T16:46:19.000Z</time>
                <name>Trackpoint 6362</name>
            </trkpt>
            <trkpt lat="50.096176" lon="11.38136">
                <ele>298.0</ele>
                <time>2020-08-21T16:46:22.000Z</time>
                <name>Trackpoint 6363</name>
            </trkpt>
            <trkpt lat="50.0961376" lon="11.3812168">
                <ele>298.0</ele>
                <time>2020-08-21T16:46:24.000Z</time>
                <name>Trackpoint 6364</name>
            </trkpt>
            <trkpt lat="50.0960832" lon="11.3810632">
                <ele>298.0</ele>
                <time>2020-08-21T16:46:26.000Z</time>
                <name>Trackpoint 6365</name>
            </trkpt>
            <trkpt lat="50.0960352" lon="11.3809032">
                <ele>298.0</ele>
                <time>2020-08-21T16:46:28.000Z</time>
                <name>Trackpoint 6366</name>
            </trkpt>
            <trkpt lat="50.096016" lon="11.3807448">
                <ele>298.0</ele>
                <time>2020-08-21T16:46:30.000Z</time>
                <name>Trackpoint 6367</name>
            </trkpt>
            <trkpt lat="50.0960032" lon="11.38058">
                <ele>298.0</ele>
                <time>2020-08-21T16:46:32.000Z</time>
                <name>Trackpoint 6368</name>
            </trkpt>
            <trkpt lat="50.0959712" lon="11.3804392">
                <ele>298.0</ele>
                <time>2020-08-21T16:46:34.000Z</time>
                <name>Trackpoint 6369</name>
            </trkpt>
            <trkpt lat="50.095952" lon="11.3802832">
                <ele>298.0</ele>
                <time>2020-08-21T16:46:36.000Z</time>
                <name>Trackpoint 6370</name>
            </trkpt>
            <trkpt lat="50.095952" lon="11.3801416">
                <ele>299.0</ele>
                <time>2020-08-21T16:46:38.000Z</time>
                <name>Trackpoint 6371</name>
            </trkpt>
            <trkpt lat="50.0959552" lon="11.3799784">
                <ele>299.0</ele>
                <time>2020-08-21T16:46:40.000Z</time>
                <name>Trackpoint 6372</name>
            </trkpt>
            <trkpt lat="50.095952" lon="11.3798104">
                <ele>299.0</ele>
                <time>2020-08-21T16:46:42.000Z</time>
                <name>Trackpoint 6373</name>
            </trkpt>
            <trkpt lat="50.095936" lon="11.3797216">
                <ele>299.0</ele>
                <time>2020-08-21T16:46:43.000Z</time>
                <name>Trackpoint 6374</name>
            </trkpt>
            <trkpt lat="50.09592" lon="11.3795616">
                <ele>299.0</ele>
                <time>2020-08-21T16:46:45.000Z</time>
                <name>Trackpoint 6375</name>
            </trkpt>
            <trkpt lat="50.095904" lon="11.3794072">
                <ele>299.0</ele>
                <time>2020-08-21T16:46:47.000Z</time>
                <name>Trackpoint 6376</name>
            </trkpt>
            <trkpt lat="50.0959168" lon="11.3792712">
                <ele>299.0</ele>
                <time>2020-08-21T16:46:49.000Z</time>
                <name>Trackpoint 6377</name>
            </trkpt>
            <trkpt lat="50.09592" lon="11.379124">
                <ele>299.0</ele>
                <time>2020-08-21T16:46:51.000Z</time>
                <name>Trackpoint 6378</name>
            </trkpt>
            <trkpt lat="50.0959392" lon="11.378952">
                <ele>299.0</ele>
                <time>2020-08-21T16:46:53.000Z</time>
                <name>Trackpoint 6379</name>
            </trkpt>
            <trkpt lat="50.0959488" lon="11.3788608">
                <ele>299.0</ele>
                <time>2020-08-21T16:46:54.000Z</time>
                <name>Trackpoint 6380</name>
            </trkpt>
            <trkpt lat="50.0959648" lon="11.3786936">
                <ele>299.0</ele>
                <time>2020-08-21T16:46:56.000Z</time>
                <name>Trackpoint 6381</name>
            </trkpt>
            <trkpt lat="50.0959808" lon="11.3786048">
                <ele>299.0</ele>
                <time>2020-08-21T16:46:57.000Z</time>
                <name>Trackpoint 6382</name>
            </trkpt>
            <trkpt lat="50.0960192" lon="11.3784376">
                <ele>299.0</ele>
                <time>2020-08-21T16:46:59.000Z</time>
                <name>Trackpoint 6383</name>
            </trkpt>
            <trkpt lat="50.0960704" lon="11.378292">
                <ele>299.0</ele>
                <time>2020-08-21T16:47:01.000Z</time>
                <name>Trackpoint 6384</name>
            </trkpt>
            <trkpt lat="50.0961152" lon="11.3781456">
                <ele>299.0</ele>
                <time>2020-08-21T16:47:03.000Z</time>
                <name>Trackpoint 6385</name>
            </trkpt>
            <trkpt lat="50.0961824" lon="11.3780416">
                <ele>299.0</ele>
                <time>2020-08-21T16:47:05.000Z</time>
                <name>Trackpoint 6386</name>
            </trkpt>
            <trkpt lat="50.0962336" lon="11.3779312">
                <ele>299.0</ele>
                <time>2020-08-21T16:47:07.000Z</time>
                <name>Trackpoint 6387</name>
            </trkpt>
            <trkpt lat="50.0962592" lon="11.3778312">
                <ele>299.0</ele>
                <time>2020-08-21T16:47:09.000Z</time>
                <name>Trackpoint 6388</name>
            </trkpt>
            <trkpt lat="50.0962464" lon="11.3777136">
                <ele>299.0</ele>
                <time>2020-08-21T16:47:11.000Z</time>
                <name>Trackpoint 6389</name>
            </trkpt>
            <trkpt lat="50.0962112" lon="11.37758">
                <ele>299.0</ele>
                <time>2020-08-21T16:47:13.000Z</time>
                <name>Trackpoint 6390</name>
            </trkpt>
            <trkpt lat="50.0961824" lon="11.3774536">
                <ele>299.0</ele>
                <time>2020-08-21T16:47:15.000Z</time>
                <name>Trackpoint 6391</name>
            </trkpt>
            <trkpt lat="50.0961824" lon="11.3773336">
                <ele>299.0</ele>
                <time>2020-08-21T16:47:17.000Z</time>
                <name>Trackpoint 6392</name>
            </trkpt>
            <trkpt lat="50.0961728" lon="11.3772152">
                <ele>298.0</ele>
                <time>2020-08-21T16:47:19.000Z</time>
                <name>Trackpoint 6393</name>
            </trkpt>
            <trkpt lat="50.0961536" lon="11.3770864">
                <ele>298.0</ele>
                <time>2020-08-21T16:47:21.000Z</time>
                <name>Trackpoint 6394</name>
            </trkpt>
            <trkpt lat="50.0961344" lon="11.3769552">
                <ele>298.0</ele>
                <time>2020-08-21T16:47:23.000Z</time>
                <name>Trackpoint 6395</name>
            </trkpt>
            <trkpt lat="50.096128" lon="11.3768168">
                <ele>298.0</ele>
                <time>2020-08-21T16:47:25.000Z</time>
                <name>Trackpoint 6396</name>
            </trkpt>
            <trkpt lat="50.0961088" lon="11.3766696">
                <ele>298.0</ele>
                <time>2020-08-21T16:47:27.000Z</time>
                <name>Trackpoint 6397</name>
            </trkpt>
            <trkpt lat="50.0960896" lon="11.3765272">
                <ele>298.0</ele>
                <time>2020-08-21T16:47:29.000Z</time>
                <name>Trackpoint 6398</name>
            </trkpt>
            <trkpt lat="50.0960544" lon="11.3763552">
                <ele>298.0</ele>
                <time>2020-08-21T16:47:31.000Z</time>
                <name>Trackpoint 6399</name>
            </trkpt>
            <trkpt lat="50.0960288" lon="11.3762256">
                <ele>298.0</ele>
                <time>2020-08-21T16:47:33.000Z</time>
                <name>Trackpoint 6400</name>
            </trkpt>
            <trkpt lat="50.0959968" lon="11.3761032">
                <ele>297.0</ele>
                <time>2020-08-21T16:47:35.000Z</time>
                <name>Trackpoint 6401</name>
            </trkpt>
            <trkpt lat="50.0959808" lon="11.375972">
                <ele>297.0</ele>
                <time>2020-08-21T16:47:37.000Z</time>
                <name>Trackpoint 6402</name>
            </trkpt>
            <trkpt lat="50.0959904" lon="11.37584">
                <ele>297.0</ele>
                <time>2020-08-21T16:47:39.000Z</time>
                <name>Trackpoint 6403</name>
            </trkpt>
            <trkpt lat="50.0960096" lon="11.3756912">
                <ele>297.0</ele>
                <time>2020-08-21T16:47:41.000Z</time>
                <name>Trackpoint 6404</name>
            </trkpt>
            <trkpt lat="50.096032" lon="11.3755448">
                <ele>297.0</ele>
                <time>2020-08-21T16:47:43.000Z</time>
                <name>Trackpoint 6405</name>
            </trkpt>
            <trkpt lat="50.0960704" lon="11.3754152">
                <ele>297.0</ele>
                <time>2020-08-21T16:47:45.000Z</time>
                <name>Trackpoint 6406</name>
            </trkpt>
            <trkpt lat="50.0961024" lon="11.37528">
                <ele>297.0</ele>
                <time>2020-08-21T16:47:47.000Z</time>
                <name>Trackpoint 6407</name>
            </trkpt>
            <trkpt lat="50.0961472" lon="11.3751768">
                <ele>297.0</ele>
                <time>2020-08-21T16:47:49.000Z</time>
                <name>Trackpoint 6408</name>
            </trkpt>
            <trkpt lat="50.0962144" lon="11.3751088">
                <ele>297.0</ele>
                <time>2020-08-21T16:47:51.000Z</time>
                <name>Trackpoint 6409</name>
            </trkpt>
            <trkpt lat="50.0963072" lon="11.3751496">
                <ele>297.0</ele>
                <time>2020-08-21T16:47:54.000Z</time>
                <name>Trackpoint 6410</name>
            </trkpt>
            <trkpt lat="50.0964" lon="11.3752144">
                <ele>297.0</ele>
                <time>2020-08-21T16:47:57.000Z</time>
                <name>Trackpoint 6411</name>
            </trkpt>
            <trkpt lat="50.0964928" lon="11.3752784">
                <ele>297.0</ele>
                <time>2020-08-21T16:48:00.000Z</time>
                <name>Trackpoint 6412</name>
            </trkpt>
            <trkpt lat="50.0965856" lon="11.3753072">
                <ele>297.0</ele>
                <time>2020-08-21T16:48:03.000Z</time>
                <name>Trackpoint 6413</name>
            </trkpt>
            <trkpt lat="50.096688" lon="11.3753472">
                <ele>297.0</ele>
                <time>2020-08-21T16:48:07.000Z</time>
                <name>Trackpoint 6414</name>
            </trkpt>
            <trkpt lat="50.0967648" lon="11.3753968">
                <ele>297.0</ele>
                <time>2020-08-21T16:48:32.000Z</time>
                <name>Trackpoint 6415</name>
            </trkpt>
            <trkpt lat="50.0968768" lon="11.3754232">
                <ele>297.0</ele>
                <time>2020-08-21T16:48:39.000Z</time>
                <name>Trackpoint 6416</name>
            </trkpt>
            <trkpt lat="50.0969728" lon="11.3754184">
                <ele>297.0</ele>
                <time>2020-08-21T16:48:43.000Z</time>
                <name>Trackpoint 6417</name>
            </trkpt>
            <trkpt lat="50.0970176" lon="11.3753256">
                <ele>297.0</ele>
                <time>2020-08-21T16:48:48.000Z</time>
                <name>Trackpoint 6418</name>
            </trkpt>
            <trkpt lat="50.0970432" lon="11.375232">
                <ele>297.0</ele>
                <time>2020-08-21T16:48:51.000Z</time>
                <name>Trackpoint 6419</name>
            </trkpt>
            <trkpt lat="50.0970464" lon="11.375136">
                <ele>297.0</ele>
                <time>2020-08-21T16:48:55.000Z</time>
                <name>Trackpoint 6420</name>
            </trkpt>
            <trkpt lat="50.0970656" lon="11.3750352">
                <ele>297.0</ele>
                <time>2020-08-21T16:49:03.000Z</time>
                <name>Trackpoint 6421</name>
            </trkpt>
            <trkpt lat="50.0970528" lon="11.3749112">
                <ele>297.0</ele>
                <time>2020-08-21T16:49:41.000Z</time>
                <name>Trackpoint 6422</name>
            </trkpt>
            <trkpt lat="50.0970528" lon="11.3748">
                <ele>297.0</ele>
                <time>2020-08-21T16:49:44.000Z</time>
                <name>Trackpoint 6423</name>
            </trkpt>
            <trkpt lat="50.0970496" lon="11.3746728">
                <ele>297.0</ele>
                <time>2020-08-21T16:49:46.000Z</time>
                <name>Trackpoint 6424</name>
            </trkpt>
            <trkpt lat="50.0970496" lon="11.3745536">
                <ele>297.0</ele>
                <time>2020-08-21T16:49:49.000Z</time>
                <name>Trackpoint 6425</name>
            </trkpt>
            <trkpt lat="50.0970016" lon="11.3744736">
                <ele>297.0</ele>
                <time>2020-08-21T16:49:51.000Z</time>
                <name>Trackpoint 6426</name>
            </trkpt>
            <trkpt lat="50.0969312" lon="11.3743912">
                <ele>297.0</ele>
                <time>2020-08-21T16:49:53.000Z</time>
                <name>Trackpoint 6427</name>
            </trkpt>
            <trkpt lat="50.096864" lon="11.3743312">
                <ele>297.0</ele>
                <time>2020-08-21T16:49:55.000Z</time>
                <name>Trackpoint 6428</name>
            </trkpt>
            <trkpt lat="50.0967648" lon="11.3742664">
                <ele>297.0</ele>
                <time>2020-08-21T16:49:58.000Z</time>
                <name>Trackpoint 6429</name>
            </trkpt>
            <trkpt lat="50.0966592" lon="11.3741968">
                <ele>297.0</ele>
                <time>2020-08-21T16:50:01.000Z</time>
                <name>Trackpoint 6430</name>
            </trkpt>
            <trkpt lat="50.0965888" lon="11.3741368">
                <ele>297.0</ele>
                <time>2020-08-21T16:50:03.000Z</time>
                <name>Trackpoint 6431</name>
            </trkpt>
            <trkpt lat="50.0965056" lon="11.3740504">
                <ele>297.0</ele>
                <time>2020-08-21T16:50:06.000Z</time>
                <name>Trackpoint 6432</name>
            </trkpt>
            <trkpt lat="50.0964192" lon="11.373968">
                <ele>297.0</ele>
                <time>2020-08-21T16:50:09.000Z</time>
                <name>Trackpoint 6433</name>
            </trkpt>
            <trkpt lat="50.0963264" lon="11.373908">
                <ele>298.0</ele>
                <time>2020-08-21T16:50:13.000Z</time>
                <name>Trackpoint 6434</name>
            </trkpt>
            <trkpt lat="50.096208" lon="11.37388">
                <ele>298.0</ele>
                <time>2020-08-21T16:50:16.000Z</time>
                <name>Trackpoint 6435</name>
            </trkpt>
            <trkpt lat="50.096112" lon="11.373848">
                <ele>298.0</ele>
                <time>2020-08-21T16:50:18.000Z</time>
                <name>Trackpoint 6436</name>
            </trkpt>
            <trkpt lat="50.0960096" lon="11.3738448">
                <ele>298.0</ele>
                <time>2020-08-21T16:50:21.000Z</time>
                <name>Trackpoint 6437</name>
            </trkpt>
            <trkpt lat="50.0958848" lon="11.3738448">
                <ele>298.0</ele>
                <time>2020-08-21T16:50:24.000Z</time>
                <name>Trackpoint 6438</name>
            </trkpt>
            <trkpt lat="50.0957952" lon="11.3738536">
                <ele>298.0</ele>
                <time>2020-08-21T16:50:26.000Z</time>
                <name>Trackpoint 6439</name>
            </trkpt>
            <trkpt lat="50.0957184" lon="11.3737848">
                <ele>298.0</ele>
                <time>2020-08-21T16:50:28.000Z</time>
                <name>Trackpoint 6440</name>
            </trkpt>
            <trkpt lat="50.0956768" lon="11.3736688">
                <ele>298.0</ele>
                <time>2020-08-21T16:50:30.000Z</time>
                <name>Trackpoint 6441</name>
            </trkpt>
            <trkpt lat="50.0956576" lon="11.3735712">
                <ele>298.0</ele>
                <time>2020-08-21T16:50:32.000Z</time>
                <name>Trackpoint 6442</name>
            </trkpt>
            <trkpt lat="50.0956736" lon="11.3734568">
                <ele>297.0</ele>
                <time>2020-08-21T16:50:34.000Z</time>
                <name>Trackpoint 6443</name>
            </trkpt>
            <trkpt lat="50.0957184" lon="11.3733584">
                <ele>297.0</ele>
                <time>2020-08-21T16:50:36.000Z</time>
                <name>Trackpoint 6444</name>
            </trkpt>
            <trkpt lat="50.0957728" lon="11.3732568">
                <ele>297.0</ele>
                <time>2020-08-21T16:50:38.000Z</time>
                <name>Trackpoint 6445</name>
            </trkpt>
            <trkpt lat="50.0958336" lon="11.3731672">
                <ele>297.0</ele>
                <time>2020-08-21T16:50:40.000Z</time>
                <name>Trackpoint 6446</name>
            </trkpt>
            <trkpt lat="50.0958944" lon="11.373072">
                <ele>297.0</ele>
                <time>2020-08-21T16:50:42.000Z</time>
                <name>Trackpoint 6447</name>
            </trkpt>
            <trkpt lat="50.095952" lon="11.372976">
                <ele>296.0</ele>
                <time>2020-08-21T16:50:44.000Z</time>
                <name>Trackpoint 6448</name>
            </trkpt>
            <trkpt lat="50.0960096" lon="11.3728688">
                <ele>296.0</ele>
                <time>2020-08-21T16:50:46.000Z</time>
                <name>Trackpoint 6449</name>
            </trkpt>
            <trkpt lat="50.0960608" lon="11.3727648">
                <ele>295.0</ele>
                <time>2020-08-21T16:50:48.000Z</time>
                <name>Trackpoint 6450</name>
            </trkpt>
            <trkpt lat="50.0961152" lon="11.3726568">
                <ele>295.0</ele>
                <time>2020-08-21T16:50:50.000Z</time>
                <name>Trackpoint 6451</name>
            </trkpt>
            <trkpt lat="50.0961728" lon="11.3725592">
                <ele>295.0</ele>
                <time>2020-08-21T16:50:52.000Z</time>
                <name>Trackpoint 6452</name>
            </trkpt>
            <trkpt lat="50.0962176" lon="11.372452">
                <ele>294.0</ele>
                <time>2020-08-21T16:50:54.000Z</time>
                <name>Trackpoint 6453</name>
            </trkpt>
            <trkpt lat="50.0962624" lon="11.3723496">
                <ele>293.0</ele>
                <time>2020-08-21T16:50:56.000Z</time>
                <name>Trackpoint 6454</name>
            </trkpt>
            <trkpt lat="50.0963104" lon="11.3722512">
                <ele>293.0</ele>
                <time>2020-08-21T16:50:58.000Z</time>
                <name>Trackpoint 6455</name>
            </trkpt>
            <trkpt lat="50.0963552" lon="11.3721616">
                <ele>293.0</ele>
                <time>2020-08-21T16:51:00.000Z</time>
                <name>Trackpoint 6456</name>
            </trkpt>
            <trkpt lat="50.0964" lon="11.3720704">
                <ele>293.0</ele>
                <time>2020-08-21T16:51:02.000Z</time>
                <name>Trackpoint 6457</name>
            </trkpt>
            <trkpt lat="50.0964416" lon="11.3719832">
                <ele>293.0</ele>
                <time>2020-08-21T16:51:04.000Z</time>
                <name>Trackpoint 6458</name>
            </trkpt>
            <trkpt lat="50.0964768" lon="11.3718968">
                <ele>293.0</ele>
                <time>2020-08-21T16:51:06.000Z</time>
                <name>Trackpoint 6459</name>
            </trkpt>
            <trkpt lat="50.0965184" lon="11.3717872">
                <ele>293.0</ele>
                <time>2020-08-21T16:51:09.000Z</time>
                <name>Trackpoint 6460</name>
            </trkpt>
            <trkpt lat="50.0965888" lon="11.3717248">
                <ele>291.0</ele>
                <time>2020-08-21T16:51:16.000Z</time>
                <name>Trackpoint 6461</name>
            </trkpt>
            <trkpt lat="50.0965664" lon="11.3716136">
                <ele>291.0</ele>
                <time>2020-08-21T16:51:20.000Z</time>
                <name>Trackpoint 6462</name>
            </trkpt>
            <trkpt lat="50.0965504" lon="11.3715232">
                <ele>291.0</ele>
                <time>2020-08-21T16:51:24.000Z</time>
                <name>Trackpoint 6463</name>
            </trkpt>
            <trkpt lat="50.0965376" lon="11.3716136">
                <ele>292.0</ele>
                <time>2020-08-21T16:51:30.000Z</time>
                <name>Trackpoint 6464</name>
            </trkpt>
            <trkpt lat="50.096528" lon="11.3717272">
                <ele>292.0</ele>
                <time>2020-08-21T16:51:34.000Z</time>
                <name>Trackpoint 6465</name>
            </trkpt>
            <trkpt lat="50.0965088" lon="11.3718216">
                <ele>292.0</ele>
                <time>2020-08-21T16:51:37.000Z</time>
                <name>Trackpoint 6466</name>
            </trkpt>
            <trkpt lat="50.0964672" lon="11.3719256">
                <ele>292.0</ele>
                <time>2020-08-21T16:51:40.000Z</time>
                <name>Trackpoint 6467</name>
            </trkpt>
            <trkpt lat="50.0964256" lon="11.3720128">
                <ele>292.0</ele>
                <time>2020-08-21T16:51:43.000Z</time>
                <name>Trackpoint 6468</name>
            </trkpt>
            <trkpt lat="50.096368" lon="11.3721112">
                <ele>292.0</ele>
                <time>2020-08-21T16:51:47.000Z</time>
                <name>Trackpoint 6469</name>
            </trkpt>
            <trkpt lat="50.096432" lon="11.3720416">
                <ele>291.0</ele>
                <time>2020-08-21T16:51:58.000Z</time>
                <name>Trackpoint 6470</name>
            </trkpt>
            <trkpt lat="50.0964736" lon="11.3719256">
                <ele>291.0</ele>
                <time>2020-08-21T16:52:01.000Z</time>
                <name>Trackpoint 6471</name>
            </trkpt>
            <trkpt lat="50.0965088" lon="11.371828">
                <ele>291.0</ele>
                <time>2020-08-21T16:52:03.000Z</time>
                <name>Trackpoint 6472</name>
            </trkpt>
            <trkpt lat="50.0965376" lon="11.3717216">
                <ele>291.0</ele>
                <time>2020-08-21T16:52:05.000Z</time>
                <name>Trackpoint 6473</name>
            </trkpt>
            <trkpt lat="50.0965664" lon="11.371596">
                <ele>291.0</ele>
                <time>2020-08-21T16:52:07.000Z</time>
                <name>Trackpoint 6474</name>
            </trkpt>
            <trkpt lat="50.0965856" lon="11.3714464">
                <ele>291.0</ele>
                <time>2020-08-21T16:52:09.000Z</time>
                <name>Trackpoint 6475</name>
            </trkpt>
            <trkpt lat="50.0966048" lon="11.3712968">
                <ele>291.0</ele>
                <time>2020-08-21T16:52:11.000Z</time>
                <name>Trackpoint 6476</name>
            </trkpt>
            <trkpt lat="50.0966304" lon="11.3711656">
                <ele>291.0</ele>
                <time>2020-08-21T16:52:13.000Z</time>
                <name>Trackpoint 6477</name>
            </trkpt>
            <trkpt lat="50.0966688" lon="11.3710336">
                <ele>291.0</ele>
                <time>2020-08-21T16:52:15.000Z</time>
                <name>Trackpoint 6478</name>
            </trkpt>
            <trkpt lat="50.0967232" lon="11.3709088">
                <ele>291.0</ele>
                <time>2020-08-21T16:52:17.000Z</time>
                <name>Trackpoint 6479</name>
            </trkpt>
            <trkpt lat="50.0967872" lon="11.3707952">
                <ele>291.0</ele>
                <time>2020-08-21T16:52:19.000Z</time>
                <name>Trackpoint 6480</name>
            </trkpt>
            <trkpt lat="50.0968512" lon="11.3706888">
                <ele>291.0</ele>
                <time>2020-08-21T16:52:21.000Z</time>
                <name>Trackpoint 6481</name>
            </trkpt>
            <trkpt lat="50.096912" lon="11.3706032">
                <ele>291.0</ele>
                <time>2020-08-21T16:52:23.000Z</time>
                <name>Trackpoint 6482</name>
            </trkpt>
            <trkpt lat="50.0969888" lon="11.3705464">
                <ele>291.0</ele>
                <time>2020-08-21T16:52:25.000Z</time>
                <name>Trackpoint 6483</name>
            </trkpt>
            <trkpt lat="50.0970912" lon="11.3704728">
                <ele>291.0</ele>
                <time>2020-08-21T16:52:28.000Z</time>
                <name>Trackpoint 6484</name>
            </trkpt>
            <trkpt lat="50.0971424" lon="11.3703984">
                <ele>291.0</ele>
                <time>2020-08-21T16:52:31.000Z</time>
                <name>Trackpoint 6485</name>
            </trkpt>
            <trkpt lat="50.0971168" lon="11.3702744">
                <ele>291.0</ele>
                <time>2020-08-21T16:52:35.000Z</time>
                <name>Trackpoint 6486</name>
            </trkpt>
            <trkpt lat="50.0970912" lon="11.3701848">
                <ele>291.0</ele>
                <time>2020-08-21T16:52:37.000Z</time>
                <name>Trackpoint 6487</name>
            </trkpt>
            <trkpt lat="50.0970752" lon="11.3700784">
                <ele>291.0</ele>
                <time>2020-08-21T16:52:39.000Z</time>
                <name>Trackpoint 6488</name>
            </trkpt>
            <trkpt lat="50.0970528" lon="11.369964">
                <ele>291.0</ele>
                <time>2020-08-21T16:52:41.000Z</time>
                <name>Trackpoint 6489</name>
            </trkpt>
            <trkpt lat="50.0970336" lon="11.3698384">
                <ele>291.0</ele>
                <time>2020-08-21T16:52:43.000Z</time>
                <name>Trackpoint 6490</name>
            </trkpt>
            <trkpt lat="50.097024" lon="11.3697072">
                <ele>291.0</ele>
                <time>2020-08-21T16:52:45.000Z</time>
                <name>Trackpoint 6491</name>
            </trkpt>
            <trkpt lat="50.0970144" lon="11.369568">
                <ele>290.0</ele>
                <time>2020-08-21T16:52:47.000Z</time>
                <name>Trackpoint 6492</name>
            </trkpt>
            <trkpt lat="50.0970112" lon="11.3694264">
                <ele>291.0</ele>
                <time>2020-08-21T16:52:49.000Z</time>
                <name>Trackpoint 6493</name>
            </trkpt>
            <trkpt lat="50.0970176" lon="11.3692816">
                <ele>291.0</ele>
                <time>2020-08-21T16:52:51.000Z</time>
                <name>Trackpoint 6494</name>
            </trkpt>
            <trkpt lat="50.0970272" lon="11.3691352">
                <ele>290.0</ele>
                <time>2020-08-21T16:52:53.000Z</time>
                <name>Trackpoint 6495</name>
            </trkpt>
            <trkpt lat="50.0970336" lon="11.3689896">
                <ele>290.0</ele>
                <time>2020-08-21T16:52:55.000Z</time>
                <name>Trackpoint 6496</name>
            </trkpt>
            <trkpt lat="50.0970432" lon="11.3688568">
                <ele>291.0</ele>
                <time>2020-08-21T16:52:57.000Z</time>
                <name>Trackpoint 6497</name>
            </trkpt>
            <trkpt lat="50.0970496" lon="11.3687216">
                <ele>291.0</ele>
                <time>2020-08-21T16:52:59.000Z</time>
                <name>Trackpoint 6498</name>
            </trkpt>
            <trkpt lat="50.097056" lon="11.3685776">
                <ele>291.0</ele>
                <time>2020-08-21T16:53:01.000Z</time>
                <name>Trackpoint 6499</name>
            </trkpt>
            <trkpt lat="50.097056" lon="11.3684304">
                <ele>291.0</ele>
                <time>2020-08-21T16:53:03.000Z</time>
                <name>Trackpoint 6500</name>
            </trkpt>
            <trkpt lat="50.0970656" lon="11.3682768">
                <ele>291.0</ele>
                <time>2020-08-21T16:53:05.000Z</time>
                <name>Trackpoint 6501</name>
            </trkpt>
            <trkpt lat="50.0970656" lon="11.3681272">
                <ele>290.0</ele>
                <time>2020-08-21T16:53:07.000Z</time>
                <name>Trackpoint 6502</name>
            </trkpt>
            <trkpt lat="50.0970656" lon="11.3679712">
                <ele>290.0</ele>
                <time>2020-08-21T16:53:09.000Z</time>
                <name>Trackpoint 6503</name>
            </trkpt>
            <trkpt lat="50.097056" lon="11.3678112">
                <ele>290.0</ele>
                <time>2020-08-21T16:53:11.000Z</time>
                <name>Trackpoint 6504</name>
            </trkpt>
            <trkpt lat="50.0970528" lon="11.3676552">
                <ele>290.0</ele>
                <time>2020-08-21T16:53:13.000Z</time>
                <name>Trackpoint 6505</name>
            </trkpt>
            <trkpt lat="50.0970432" lon="11.3675">
                <ele>290.0</ele>
                <time>2020-08-21T16:53:15.000Z</time>
                <name>Trackpoint 6506</name>
            </trkpt>
            <trkpt lat="50.0970272" lon="11.3673464">
                <ele>290.0</ele>
                <time>2020-08-21T16:53:17.000Z</time>
                <name>Trackpoint 6507</name>
            </trkpt>
            <trkpt lat="50.0970144" lon="11.3671904">
                <ele>290.0</ele>
                <time>2020-08-21T16:53:19.000Z</time>
                <name>Trackpoint 6508</name>
            </trkpt>
            <trkpt lat="50.0970048" lon="11.3670352">
                <ele>290.0</ele>
                <time>2020-08-21T16:53:21.000Z</time>
                <name>Trackpoint 6509</name>
            </trkpt>
            <trkpt lat="50.0969856" lon="11.3668784">
                <ele>290.0</ele>
                <time>2020-08-21T16:53:23.000Z</time>
                <name>Trackpoint 6510</name>
            </trkpt>
            <trkpt lat="50.0969664" lon="11.3667224">
                <ele>290.0</ele>
                <time>2020-08-21T16:53:25.000Z</time>
                <name>Trackpoint 6511</name>
            </trkpt>
            <trkpt lat="50.0969472" lon="11.3665816">
                <ele>290.0</ele>
                <time>2020-08-21T16:53:27.000Z</time>
                <name>Trackpoint 6512</name>
            </trkpt>
            <trkpt lat="50.0969248" lon="11.3664312">
                <ele>290.0</ele>
                <time>2020-08-21T16:53:29.000Z</time>
                <name>Trackpoint 6513</name>
            </trkpt>
            <trkpt lat="50.096896" lon="11.3662768">
                <ele>290.0</ele>
                <time>2020-08-21T16:53:31.000Z</time>
                <name>Trackpoint 6514</name>
            </trkpt>
            <trkpt lat="50.0968672" lon="11.3661296">
                <ele>290.0</ele>
                <time>2020-08-21T16:53:33.000Z</time>
                <name>Trackpoint 6515</name>
            </trkpt>
            <trkpt lat="50.0968352" lon="11.3659872">
                <ele>290.0</ele>
                <time>2020-08-21T16:53:35.000Z</time>
                <name>Trackpoint 6516</name>
            </trkpt>
            <trkpt lat="50.0968032" lon="11.36584">
                <ele>290.0</ele>
                <time>2020-08-21T16:53:37.000Z</time>
                <name>Trackpoint 6517</name>
            </trkpt>
            <trkpt lat="50.096768" lon="11.3656952">
                <ele>290.0</ele>
                <time>2020-08-21T16:53:39.000Z</time>
                <name>Trackpoint 6518</name>
            </trkpt>
            <trkpt lat="50.0967296" lon="11.365552">
                <ele>290.0</ele>
                <time>2020-08-21T16:53:41.000Z</time>
                <name>Trackpoint 6519</name>
            </trkpt>
            <trkpt lat="50.0966944" lon="11.3654096">
                <ele>290.0</ele>
                <time>2020-08-21T16:53:43.000Z</time>
                <name>Trackpoint 6520</name>
            </trkpt>
            <trkpt lat="50.0966688" lon="11.3653">
                <ele>290.0</ele>
                <time>2020-08-21T16:53:45.000Z</time>
                <name>Trackpoint 6521</name>
            </trkpt>
            <trkpt lat="50.0966304" lon="11.365196">
                <ele>290.0</ele>
                <time>2020-08-21T16:53:48.000Z</time>
                <name>Trackpoint 6522</name>
            </trkpt>
            <trkpt lat="50.0966912" lon="11.3651088">
                <ele>292.0</ele>
                <time>2020-08-21T16:57:06.000Z</time>
                <name>Trackpoint 6523</name>
            </trkpt>
            <trkpt lat="50.0967296" lon="11.3650152">
                <ele>292.0</ele>
                <time>2020-08-21T16:57:12.000Z</time>
                <name>Trackpoint 6524</name>
            </trkpt>
            <trkpt lat="50.0967136" lon="11.3649168">
                <ele>293.0</ele>
                <time>2020-08-21T16:57:49.000Z</time>
                <name>Trackpoint 6525</name>
            </trkpt>
            <trkpt lat="50.0967264" lon="11.3648016">
                <ele>293.0</ele>
                <time>2020-08-21T16:57:53.000Z</time>
                <name>Trackpoint 6526</name>
            </trkpt>
            <trkpt lat="50.0967264" lon="11.3647048">
                <ele>293.0</ele>
                <time>2020-08-21T16:57:55.000Z</time>
                <name>Trackpoint 6527</name>
            </trkpt>
            <trkpt lat="50.0967328" lon="11.3645952">
                <ele>293.0</ele>
                <time>2020-08-21T16:57:57.000Z</time>
                <name>Trackpoint 6528</name>
            </trkpt>
            <trkpt lat="50.0967392" lon="11.3644784">
                <ele>293.0</ele>
                <time>2020-08-21T16:57:59.000Z</time>
                <name>Trackpoint 6529</name>
            </trkpt>
            <trkpt lat="50.0967488" lon="11.3643568">
                <ele>294.0</ele>
                <time>2020-08-21T16:58:01.000Z</time>
                <name>Trackpoint 6530</name>
            </trkpt>
            <trkpt lat="50.0967584" lon="11.364232">
                <ele>293.0</ele>
                <time>2020-08-21T16:58:03.000Z</time>
                <name>Trackpoint 6531</name>
            </trkpt>
            <trkpt lat="50.0967584" lon="11.3641008">
                <ele>294.0</ele>
                <time>2020-08-21T16:58:05.000Z</time>
                <name>Trackpoint 6532</name>
            </trkpt>
            <trkpt lat="50.0967456" lon="11.3639736">
                <ele>294.0</ele>
                <time>2020-08-21T16:58:07.000Z</time>
                <name>Trackpoint 6533</name>
            </trkpt>
            <trkpt lat="50.0967168" lon="11.3638624">
                <ele>294.0</ele>
                <time>2020-08-21T16:58:09.000Z</time>
                <name>Trackpoint 6534</name>
            </trkpt>
            <trkpt lat="50.0966752" lon="11.3637512">
                <ele>294.0</ele>
                <time>2020-08-21T16:58:11.000Z</time>
                <name>Trackpoint 6535</name>
            </trkpt>
            <trkpt lat="50.096624" lon="11.3636576">
                <ele>294.0</ele>
                <time>2020-08-21T16:58:13.000Z</time>
                <name>Trackpoint 6536</name>
            </trkpt>
            <trkpt lat="50.09656" lon="11.3635664">
                <ele>294.0</ele>
                <time>2020-08-21T16:58:15.000Z</time>
                <name>Trackpoint 6537</name>
            </trkpt>
            <trkpt lat="50.0965088" lon="11.3634656">
                <ele>294.0</ele>
                <time>2020-08-21T16:58:17.000Z</time>
                <name>Trackpoint 6538</name>
            </trkpt>
            <trkpt lat="50.0964544" lon="11.3633616">
                <ele>294.0</ele>
                <time>2020-08-21T16:58:19.000Z</time>
                <name>Trackpoint 6539</name>
            </trkpt>
            <trkpt lat="50.0964096" lon="11.3632472">
                <ele>294.0</ele>
                <time>2020-08-21T16:58:21.000Z</time>
                <name>Trackpoint 6540</name>
            </trkpt>
            <trkpt lat="50.0963712" lon="11.3631232">
                <ele>294.0</ele>
                <time>2020-08-21T16:58:23.000Z</time>
                <name>Trackpoint 6541</name>
            </trkpt>
            <trkpt lat="50.096336" lon="11.363">
                <ele>294.0</ele>
                <time>2020-08-21T16:58:25.000Z</time>
                <name>Trackpoint 6542</name>
            </trkpt>
            <trkpt lat="50.0962944" lon="11.3628816">
                <ele>294.0</ele>
                <time>2020-08-21T16:58:27.000Z</time>
                <name>Trackpoint 6543</name>
            </trkpt>
            <trkpt lat="50.096256" lon="11.3627616">
                <ele>293.0</ele>
                <time>2020-08-21T16:58:29.000Z</time>
                <name>Trackpoint 6544</name>
            </trkpt>
            <trkpt lat="50.096208" lon="11.3626472">
                <ele>293.0</ele>
                <time>2020-08-21T16:58:31.000Z</time>
                <name>Trackpoint 6545</name>
            </trkpt>
            <trkpt lat="50.0961536" lon="11.3625384">
                <ele>293.0</ele>
                <time>2020-08-21T16:58:33.000Z</time>
                <name>Trackpoint 6546</name>
            </trkpt>
            <trkpt lat="50.0960992" lon="11.3624384">
                <ele>292.0</ele>
                <time>2020-08-21T16:58:35.000Z</time>
                <name>Trackpoint 6547</name>
            </trkpt>
            <trkpt lat="50.096048" lon="11.3623488">
                <ele>292.0</ele>
                <time>2020-08-21T16:58:37.000Z</time>
                <name>Trackpoint 6548</name>
            </trkpt>
            <trkpt lat="50.0960096" lon="11.3622664">
                <ele>293.0</ele>
                <time>2020-08-21T16:58:39.000Z</time>
                <name>Trackpoint 6549</name>
            </trkpt>
            <trkpt lat="50.0959648" lon="11.3621864">
                <ele>293.0</ele>
                <time>2020-08-21T16:58:41.000Z</time>
                <name>Trackpoint 6550</name>
            </trkpt>
            <trkpt lat="50.0959008" lon="11.3620752">
                <ele>293.0</ele>
                <time>2020-08-21T16:58:44.000Z</time>
                <name>Trackpoint 6551</name>
            </trkpt>
            <trkpt lat="50.0958656" lon="11.3619472">
                <ele>293.0</ele>
                <time>2020-08-21T16:58:47.000Z</time>
                <name>Trackpoint 6552</name>
            </trkpt>
            <trkpt lat="50.095872" lon="11.3618568">
                <ele>293.0</ele>
                <time>2020-08-21T16:58:49.000Z</time>
                <name>Trackpoint 6553</name>
            </trkpt>
            <trkpt lat="50.0959168" lon="11.3617424">
                <ele>293.0</ele>
                <time>2020-08-21T16:58:52.000Z</time>
                <name>Trackpoint 6554</name>
            </trkpt>
            <trkpt lat="50.095984" lon="11.36166">
                <ele>293.0</ele>
                <time>2020-08-21T16:58:55.000Z</time>
                <name>Trackpoint 6555</name>
            </trkpt>
            <trkpt lat="50.0960352" lon="11.3615816">
                <ele>294.0</ele>
                <time>2020-08-21T16:58:57.000Z</time>
                <name>Trackpoint 6556</name>
            </trkpt>
            <trkpt lat="50.0960928" lon="11.361488">
                <ele>294.0</ele>
                <time>2020-08-21T16:58:59.000Z</time>
                <name>Trackpoint 6557</name>
            </trkpt>
            <trkpt lat="50.0961536" lon="11.3613784">
                <ele>294.0</ele>
                <time>2020-08-21T16:59:01.000Z</time>
                <name>Trackpoint 6558</name>
            </trkpt>
            <trkpt lat="50.0962112" lon="11.3612448">
                <ele>294.0</ele>
                <time>2020-08-21T16:59:03.000Z</time>
                <name>Trackpoint 6559</name>
            </trkpt>
            <trkpt lat="50.0962688" lon="11.3611168">
                <ele>294.0</ele>
                <time>2020-08-21T16:59:05.000Z</time>
                <name>Trackpoint 6560</name>
            </trkpt>
            <trkpt lat="50.0963264" lon="11.3609688">
                <ele>294.0</ele>
                <time>2020-08-21T16:59:07.000Z</time>
                <name>Trackpoint 6561</name>
            </trkpt>
            <trkpt lat="50.0963904" lon="11.36082">
                <ele>294.0</ele>
                <time>2020-08-21T16:59:09.000Z</time>
                <name>Trackpoint 6562</name>
            </trkpt>
            <trkpt lat="50.0964704" lon="11.36068">
                <ele>294.0</ele>
                <time>2020-08-21T16:59:11.000Z</time>
                <name>Trackpoint 6563</name>
            </trkpt>
            <trkpt lat="50.0965504" lon="11.3605496">
                <ele>294.0</ele>
                <time>2020-08-21T16:59:13.000Z</time>
                <name>Trackpoint 6564</name>
            </trkpt>
            <trkpt lat="50.0966304" lon="11.3604232">
                <ele>295.0</ele>
                <time>2020-08-21T16:59:15.000Z</time>
                <name>Trackpoint 6565</name>
            </trkpt>
            <trkpt lat="50.0967104" lon="11.3603064">
                <ele>295.0</ele>
                <time>2020-08-21T16:59:17.000Z</time>
                <name>Trackpoint 6566</name>
            </trkpt>
            <trkpt lat="50.0967968" lon="11.3602064">
                <ele>295.0</ele>
                <time>2020-08-21T16:59:19.000Z</time>
                <name>Trackpoint 6567</name>
            </trkpt>
            <trkpt lat="50.0968832" lon="11.360108">
                <ele>295.0</ele>
                <time>2020-08-21T16:59:21.000Z</time>
                <name>Trackpoint 6568</name>
            </trkpt>
            <trkpt lat="50.0969728" lon="11.3600368">
                <ele>295.0</ele>
                <time>2020-08-21T16:59:23.000Z</time>
                <name>Trackpoint 6569</name>
            </trkpt>
            <trkpt lat="50.0970688" lon="11.36">
                <ele>295.0</ele>
                <time>2020-08-21T16:59:25.000Z</time>
                <name>Trackpoint 6570</name>
            </trkpt>
            <trkpt lat="50.0971712" lon="11.3600264">
                <ele>295.0</ele>
                <time>2020-08-21T16:59:27.000Z</time>
                <name>Trackpoint 6571</name>
            </trkpt>
            <trkpt lat="50.0972736" lon="11.3600928">
                <ele>295.0</ele>
                <time>2020-08-21T16:59:29.000Z</time>
                <name>Trackpoint 6572</name>
            </trkpt>
            <trkpt lat="50.0973888" lon="11.3601704">
                <ele>295.0</ele>
                <time>2020-08-21T16:59:31.000Z</time>
                <name>Trackpoint 6573</name>
            </trkpt>
            <trkpt lat="50.0974912" lon="11.3602352">
                <ele>295.0</ele>
                <time>2020-08-21T16:59:33.000Z</time>
                <name>Trackpoint 6574</name>
            </trkpt>
            <trkpt lat="50.0976" lon="11.3602816">
                <ele>295.0</ele>
                <time>2020-08-21T16:59:35.000Z</time>
                <name>Trackpoint 6575</name>
            </trkpt>
            <trkpt lat="50.0977088" lon="11.3603184">
                <ele>295.0</ele>
                <time>2020-08-21T16:59:37.000Z</time>
                <name>Trackpoint 6576</name>
            </trkpt>
            <trkpt lat="50.0978208" lon="11.3603432">
                <ele>295.0</ele>
                <time>2020-08-21T16:59:39.000Z</time>
                <name>Trackpoint 6577</name>
            </trkpt>
            <trkpt lat="50.0979392" lon="11.3603448">
                <ele>295.0</ele>
                <time>2020-08-21T16:59:41.000Z</time>
                <name>Trackpoint 6578</name>
            </trkpt>
            <trkpt lat="50.0980576" lon="11.3603288">
                <ele>295.0</ele>
                <time>2020-08-21T16:59:43.000Z</time>
                <name>Trackpoint 6579</name>
            </trkpt>
            <trkpt lat="50.098176" lon="11.360256">
                <ele>295.0</ele>
                <time>2020-08-21T16:59:45.000Z</time>
                <name>Trackpoint 6580</name>
            </trkpt>
            <trkpt lat="50.0982784" lon="11.3601648">
                <ele>295.0</ele>
                <time>2020-08-21T16:59:47.000Z</time>
                <name>Trackpoint 6581</name>
            </trkpt>
            <trkpt lat="50.0983776" lon="11.3600832">
                <ele>295.0</ele>
                <time>2020-08-21T16:59:49.000Z</time>
                <name>Trackpoint 6582</name>
            </trkpt>
            <trkpt lat="50.0984992" lon="11.3600032">
                <ele>295.0</ele>
                <time>2020-08-21T16:59:51.000Z</time>
                <name>Trackpoint 6583</name>
            </trkpt>
            <trkpt lat="50.0986208" lon="11.359948">
                <ele>295.0</ele>
                <time>2020-08-21T16:59:53.000Z</time>
                <name>Trackpoint 6584</name>
            </trkpt>
            <trkpt lat="50.0987424" lon="11.359908">
                <ele>295.0</ele>
                <time>2020-08-21T16:59:55.000Z</time>
                <name>Trackpoint 6585</name>
            </trkpt>
            <trkpt lat="50.0988576" lon="11.3599056">
                <ele>295.0</ele>
                <time>2020-08-21T16:59:57.000Z</time>
                <name>Trackpoint 6586</name>
            </trkpt>
            <trkpt lat="50.098976" lon="11.3599192">
                <ele>295.0</ele>
                <time>2020-08-21T16:59:59.000Z</time>
                <name>Trackpoint 6587</name>
            </trkpt>
            <trkpt lat="50.0990944" lon="11.3599504">
                <ele>295.0</ele>
                <time>2020-08-21T17:00:01.000Z</time>
                <name>Trackpoint 6588</name>
            </trkpt>
            <trkpt lat="50.0992128" lon="11.3599784">
                <ele>295.0</ele>
                <time>2020-08-21T17:00:03.000Z</time>
                <name>Trackpoint 6589</name>
            </trkpt>
            <trkpt lat="50.099328" lon="11.3599816">
                <ele>295.0</ele>
                <time>2020-08-21T17:00:05.000Z</time>
                <name>Trackpoint 6590</name>
            </trkpt>
            <trkpt lat="50.09944" lon="11.3599392">
                <ele>295.0</ele>
                <time>2020-08-21T17:00:07.000Z</time>
                <name>Trackpoint 6591</name>
            </trkpt>
            <trkpt lat="50.0995392" lon="11.3598616">
                <ele>294.0</ele>
                <time>2020-08-21T17:00:09.000Z</time>
                <name>Trackpoint 6592</name>
            </trkpt>
            <trkpt lat="50.0996448" lon="11.359752">
                <ele>294.0</ele>
                <time>2020-08-21T17:00:11.000Z</time>
                <name>Trackpoint 6593</name>
            </trkpt>
            <trkpt lat="50.099728" lon="11.3596224">
                <ele>294.0</ele>
                <time>2020-08-21T17:00:13.000Z</time>
                <name>Trackpoint 6594</name>
            </trkpt>
            <trkpt lat="50.0998176" lon="11.3594968">
                <ele>294.0</ele>
                <time>2020-08-21T17:00:15.000Z</time>
                <name>Trackpoint 6595</name>
            </trkpt>
            <trkpt lat="50.0999136" lon="11.3593768">
                <ele>294.0</ele>
                <time>2020-08-21T17:00:17.000Z</time>
                <name>Trackpoint 6596</name>
            </trkpt>
            <trkpt lat="50.1000128" lon="11.3592568">
                <ele>293.0</ele>
                <time>2020-08-21T17:00:19.000Z</time>
                <name>Trackpoint 6597</name>
            </trkpt>
            <trkpt lat="50.1001216" lon="11.3591336">
                <ele>293.0</ele>
                <time>2020-08-21T17:00:21.000Z</time>
                <name>Trackpoint 6598</name>
            </trkpt>
            <trkpt lat="50.100224" lon="11.3590224">
                <ele>293.0</ele>
                <time>2020-08-21T17:00:23.000Z</time>
                <name>Trackpoint 6599</name>
            </trkpt>
            <trkpt lat="50.1003392" lon="11.3589152">
                <ele>293.0</ele>
                <time>2020-08-21T17:00:25.000Z</time>
                <name>Trackpoint 6600</name>
            </trkpt>
            <trkpt lat="50.1004512" lon="11.3588064">
                <ele>293.0</ele>
                <time>2020-08-21T17:00:27.000Z</time>
                <name>Trackpoint 6601</name>
            </trkpt>
            <trkpt lat="50.1005664" lon="11.358708">
                <ele>293.0</ele>
                <time>2020-08-21T17:00:29.000Z</time>
                <name>Trackpoint 6602</name>
            </trkpt>
            <trkpt lat="50.1006784" lon="11.3586232">
                <ele>293.0</ele>
                <time>2020-08-21T17:00:31.000Z</time>
                <name>Trackpoint 6603</name>
            </trkpt>
            <trkpt lat="50.1007904" lon="11.3585368">
                <ele>293.0</ele>
                <time>2020-08-21T17:00:33.000Z</time>
                <name>Trackpoint 6604</name>
            </trkpt>
            <trkpt lat="50.1009088" lon="11.3584568">
                <ele>293.0</ele>
                <time>2020-08-21T17:00:35.000Z</time>
                <name>Trackpoint 6605</name>
            </trkpt>
            <trkpt lat="50.1010272" lon="11.35838">
                <ele>293.0</ele>
                <time>2020-08-21T17:00:37.000Z</time>
                <name>Trackpoint 6606</name>
            </trkpt>
            <trkpt lat="50.101152" lon="11.3583088">
                <ele>293.0</ele>
                <time>2020-08-21T17:00:39.000Z</time>
                <name>Trackpoint 6607</name>
            </trkpt>
            <trkpt lat="50.1012736" lon="11.35824">
                <ele>292.0</ele>
                <time>2020-08-21T17:00:41.000Z</time>
                <name>Trackpoint 6608</name>
            </trkpt>
            <trkpt lat="50.1013952" lon="11.358196">
                <ele>292.0</ele>
                <time>2020-08-21T17:00:43.000Z</time>
                <name>Trackpoint 6609</name>
            </trkpt>
            <trkpt lat="50.1015168" lon="11.3581616">
                <ele>292.0</ele>
                <time>2020-08-21T17:00:45.000Z</time>
                <name>Trackpoint 6610</name>
            </trkpt>
            <trkpt lat="50.101616" lon="11.3580736">
                <ele>291.0</ele>
                <time>2020-08-21T17:00:47.000Z</time>
                <name>Trackpoint 6611</name>
            </trkpt>
            <trkpt lat="50.1016736" lon="11.3579352">
                <ele>291.0</ele>
                <time>2020-08-21T17:00:49.000Z</time>
                <name>Trackpoint 6612</name>
            </trkpt>
            <trkpt lat="50.1016896" lon="11.3577856">
                <ele>291.0</ele>
                <time>2020-08-21T17:00:51.000Z</time>
                <name>Trackpoint 6613</name>
            </trkpt>
            <trkpt lat="50.101696" lon="11.3576184">
                <ele>291.0</ele>
                <time>2020-08-21T17:00:53.000Z</time>
                <name>Trackpoint 6614</name>
            </trkpt>
            <trkpt lat="50.1017024" lon="11.3574552">
                <ele>291.0</ele>
                <time>2020-08-21T17:00:55.000Z</time>
                <name>Trackpoint 6615</name>
            </trkpt>
            <trkpt lat="50.1017184" lon="11.3572928">
                <ele>291.0</ele>
                <time>2020-08-21T17:00:57.000Z</time>
                <name>Trackpoint 6616</name>
            </trkpt>
            <trkpt lat="50.101728" lon="11.3571304">
                <ele>291.0</ele>
                <time>2020-08-21T17:00:59.000Z</time>
                <name>Trackpoint 6617</name>
            </trkpt>
            <trkpt lat="50.1017152" lon="11.3569568">
                <ele>291.0</ele>
                <time>2020-08-21T17:01:01.000Z</time>
                <name>Trackpoint 6618</name>
            </trkpt>
            <trkpt lat="50.101664" lon="11.3568016">
                <ele>291.0</ele>
                <time>2020-08-21T17:01:03.000Z</time>
                <name>Trackpoint 6619</name>
            </trkpt>
            <trkpt lat="50.1016" lon="11.3566768">
                <ele>291.0</ele>
                <time>2020-08-21T17:01:05.000Z</time>
                <name>Trackpoint 6620</name>
            </trkpt>
            <trkpt lat="50.1015424" lon="11.356548">
                <ele>291.0</ele>
                <time>2020-08-21T17:01:07.000Z</time>
                <name>Trackpoint 6621</name>
            </trkpt>
            <trkpt lat="50.1014784" lon="11.356412">
                <ele>291.0</ele>
                <time>2020-08-21T17:01:09.000Z</time>
                <name>Trackpoint 6622</name>
            </trkpt>
            <trkpt lat="50.101424" lon="11.3562744">
                <ele>291.0</ele>
                <time>2020-08-21T17:01:11.000Z</time>
                <name>Trackpoint 6623</name>
            </trkpt>
            <trkpt lat="50.1013728" lon="11.3561472">
                <ele>291.0</ele>
                <time>2020-08-21T17:01:13.000Z</time>
                <name>Trackpoint 6624</name>
            </trkpt>
            <trkpt lat="50.1013312" lon="11.3560216">
                <ele>291.0</ele>
                <time>2020-08-21T17:01:15.000Z</time>
                <name>Trackpoint 6625</name>
            </trkpt>
            <trkpt lat="50.1012928" lon="11.3559016">
                <ele>291.0</ele>
                <time>2020-08-21T17:01:17.000Z</time>
                <name>Trackpoint 6626</name>
            </trkpt>
            <trkpt lat="50.101264" lon="11.3557816">
                <ele>291.0</ele>
                <time>2020-08-21T17:01:19.000Z</time>
                <name>Trackpoint 6627</name>
            </trkpt>
            <trkpt lat="50.1012384" lon="11.3556696">
                <ele>290.0</ele>
                <time>2020-08-21T17:01:21.000Z</time>
                <name>Trackpoint 6628</name>
            </trkpt>
            <trkpt lat="50.1012192" lon="11.35556">
                <ele>291.0</ele>
                <time>2020-08-21T17:01:24.000Z</time>
                <name>Trackpoint 6629</name>
            </trkpt>
            <trkpt lat="50.1012992" lon="11.3555048">
                <ele>291.0</ele>
                <time>2020-08-21T17:01:33.000Z</time>
                <name>Trackpoint 6630</name>
            </trkpt>
            <trkpt lat="50.1013824" lon="11.3555448">
                <ele>291.0</ele>
                <time>2020-08-21T17:01:57.000Z</time>
                <name>Trackpoint 6631</name>
            </trkpt>
            <trkpt lat="50.1013568" lon="11.3556344">
                <ele>291.0</ele>
                <time>2020-08-21T17:02:02.000Z</time>
                <name>Trackpoint 6632</name>
            </trkpt>
            <trkpt lat="50.1014176" lon="11.3555472">
                <ele>291.0</ele>
                <time>2020-08-21T17:02:26.000Z</time>
                <name>Trackpoint 6633</name>
            </trkpt>
            <trkpt lat="50.1015008" lon="11.3555">
                <ele>291.0</ele>
                <time>2020-08-21T17:02:32.000Z</time>
                <name>Trackpoint 6634</name>
            </trkpt>
            <trkpt lat="50.1015712" lon="11.3554248">
                <ele>291.0</ele>
                <time>2020-08-21T17:02:35.000Z</time>
                <name>Trackpoint 6635</name>
            </trkpt>
            <trkpt lat="50.1016128" lon="11.3552936">
                <ele>291.0</ele>
                <time>2020-08-21T17:02:37.000Z</time>
                <name>Trackpoint 6636</name>
            </trkpt>
            <trkpt lat="50.1017152" lon="11.3552328">
                <ele>291.0</ele>
                <time>2020-08-21T17:02:39.000Z</time>
                <name>Trackpoint 6637</name>
            </trkpt>
            <trkpt lat="50.101808" lon="11.3552952">
                <ele>291.0</ele>
                <time>2020-08-21T17:02:41.000Z</time>
                <name>Trackpoint 6638</name>
            </trkpt>
            <trkpt lat="50.1018944" lon="11.3553832">
                <ele>291.0</ele>
                <time>2020-08-21T17:02:43.000Z</time>
                <name>Trackpoint 6639</name>
            </trkpt>
            <trkpt lat="50.1019904" lon="11.3554472">
                <ele>291.0</ele>
                <time>2020-08-21T17:02:45.000Z</time>
                <name>Trackpoint 6640</name>
            </trkpt>
            <trkpt lat="50.1020928" lon="11.3554936">
                <ele>290.0</ele>
                <time>2020-08-21T17:02:47.000Z</time>
                <name>Trackpoint 6641</name>
            </trkpt>
            <trkpt lat="50.1022048" lon="11.355532">
                <ele>290.0</ele>
                <time>2020-08-21T17:02:49.000Z</time>
                <name>Trackpoint 6642</name>
            </trkpt>
            <trkpt lat="50.1023104" lon="11.3555568">
                <ele>289.0</ele>
                <time>2020-08-21T17:02:51.000Z</time>
                <name>Trackpoint 6643</name>
            </trkpt>
            <trkpt lat="50.1024256" lon="11.355592">
                <ele>289.0</ele>
                <time>2020-08-21T17:02:53.000Z</time>
                <name>Trackpoint 6644</name>
            </trkpt>
            <trkpt lat="50.1025344" lon="11.3556344">
                <ele>289.0</ele>
                <time>2020-08-21T17:02:55.000Z</time>
                <name>Trackpoint 6645</name>
            </trkpt>
            <trkpt lat="50.1026464" lon="11.3556808">
                <ele>289.0</ele>
                <time>2020-08-21T17:02:57.000Z</time>
                <name>Trackpoint 6646</name>
            </trkpt>
            <trkpt lat="50.1027552" lon="11.3557184">
                <ele>289.0</ele>
                <time>2020-08-21T17:02:59.000Z</time>
                <name>Trackpoint 6647</name>
            </trkpt>
            <trkpt lat="50.1028736" lon="11.355748">
                <ele>290.0</ele>
                <time>2020-08-21T17:03:01.000Z</time>
                <name>Trackpoint 6648</name>
            </trkpt>
            <trkpt lat="50.102992" lon="11.3557632">
                <ele>290.0</ele>
                <time>2020-08-21T17:03:03.000Z</time>
                <name>Trackpoint 6649</name>
            </trkpt>
            <trkpt lat="50.1031072" lon="11.3557568">
                <ele>292.0</ele>
                <time>2020-08-21T17:03:05.000Z</time>
                <name>Trackpoint 6650</name>
            </trkpt>
            <trkpt lat="50.1032192" lon="11.3557392">
                <ele>292.0</ele>
                <time>2020-08-21T17:03:07.000Z</time>
                <name>Trackpoint 6651</name>
            </trkpt>
            <trkpt lat="50.103312" lon="11.355748">
                <ele>290.0</ele>
                <time>2020-08-21T17:03:09.000Z</time>
                <name>Trackpoint 6652</name>
            </trkpt>
            <trkpt lat="50.103392" lon="11.3557952">
                <ele>290.0</ele>
                <time>2020-08-21T17:03:11.000Z</time>
                <name>Trackpoint 6653</name>
            </trkpt>
            <trkpt lat="50.1035008" lon="11.3558616">
                <ele>290.0</ele>
                <time>2020-08-21T17:03:14.000Z</time>
                <name>Trackpoint 6654</name>
            </trkpt>
            <trkpt lat="50.1035744" lon="11.3559152">
                <ele>290.0</ele>
                <time>2020-08-21T17:03:16.000Z</time>
                <name>Trackpoint 6655</name>
            </trkpt>
            <trkpt lat="50.1036832" lon="11.3559816">
                <ele>290.0</ele>
                <time>2020-08-21T17:03:19.000Z</time>
                <name>Trackpoint 6656</name>
            </trkpt>
            <trkpt lat="50.1038016" lon="11.3560264">
                <ele>290.0</ele>
                <time>2020-08-21T17:03:22.000Z</time>
                <name>Trackpoint 6657</name>
            </trkpt>
            <trkpt lat="50.103888" lon="11.3560552">
                <ele>289.0</ele>
                <time>2020-08-21T17:03:24.000Z</time>
                <name>Trackpoint 6658</name>
            </trkpt>
            <trkpt lat="50.1039776" lon="11.356096">
                <ele>290.0</ele>
                <time>2020-08-21T17:03:26.000Z</time>
                <name>Trackpoint 6659</name>
            </trkpt>
            <trkpt lat="50.1040608" lon="11.3561448">
                <ele>290.0</ele>
                <time>2020-08-21T17:03:28.000Z</time>
                <name>Trackpoint 6660</name>
            </trkpt>
            <trkpt lat="50.1041568" lon="11.3561896">
                <ele>290.0</ele>
                <time>2020-08-21T17:03:30.000Z</time>
                <name>Trackpoint 6661</name>
            </trkpt>
            <trkpt lat="50.1042432" lon="11.356232">
                <ele>290.0</ele>
                <time>2020-08-21T17:03:32.000Z</time>
                <name>Trackpoint 6662</name>
            </trkpt>
            <trkpt lat="50.1043392" lon="11.356268">
                <ele>290.0</ele>
                <time>2020-08-21T17:03:34.000Z</time>
                <name>Trackpoint 6663</name>
            </trkpt>
            <trkpt lat="50.1044416" lon="11.3563072">
                <ele>291.0</ele>
                <time>2020-08-21T17:03:36.000Z</time>
                <name>Trackpoint 6664</name>
            </trkpt>
            <trkpt lat="50.1045376" lon="11.3563408">
                <ele>291.0</ele>
                <time>2020-08-21T17:03:38.000Z</time>
                <name>Trackpoint 6665</name>
            </trkpt>
            <trkpt lat="50.1046432" lon="11.356372">
                <ele>292.0</ele>
                <time>2020-08-21T17:03:40.000Z</time>
                <name>Trackpoint 6666</name>
            </trkpt>
            <trkpt lat="50.1047424" lon="11.3563944">
                <ele>293.0</ele>
                <time>2020-08-21T17:03:42.000Z</time>
                <name>Trackpoint 6667</name>
            </trkpt>
            <trkpt lat="50.1048416" lon="11.3564168">
                <ele>292.0</ele>
                <time>2020-08-21T17:03:44.000Z</time>
                <name>Trackpoint 6668</name>
            </trkpt>
            <trkpt lat="50.1049376" lon="11.3564256">
                <ele>292.0</ele>
                <time>2020-08-21T17:03:46.000Z</time>
                <name>Trackpoint 6669</name>
            </trkpt>
            <trkpt lat="50.1050336" lon="11.3564384">
                <ele>292.0</ele>
                <time>2020-08-21T17:03:48.000Z</time>
                <name>Trackpoint 6670</name>
            </trkpt>
            <trkpt lat="50.1051328" lon="11.3564464">
                <ele>292.0</ele>
                <time>2020-08-21T17:03:50.000Z</time>
                <name>Trackpoint 6671</name>
            </trkpt>
            <trkpt lat="50.105232" lon="11.356452">
                <ele>292.0</ele>
                <time>2020-08-21T17:03:52.000Z</time>
                <name>Trackpoint 6672</name>
            </trkpt>
            <trkpt lat="50.1053344" lon="11.3564664">
                <ele>293.0</ele>
                <time>2020-08-21T17:03:54.000Z</time>
                <name>Trackpoint 6673</name>
            </trkpt>
            <trkpt lat="50.1054336" lon="11.3564832">
                <ele>293.0</ele>
                <time>2020-08-21T17:03:56.000Z</time>
                <name>Trackpoint 6674</name>
            </trkpt>
            <trkpt lat="50.1055328" lon="11.3564984">
                <ele>293.0</ele>
                <time>2020-08-21T17:03:58.000Z</time>
                <name>Trackpoint 6675</name>
            </trkpt>
            <trkpt lat="50.105632" lon="11.3565168">
                <ele>293.0</ele>
                <time>2020-08-21T17:04:00.000Z</time>
                <name>Trackpoint 6676</name>
            </trkpt>
            <trkpt lat="50.105728" lon="11.3565416">
                <ele>294.0</ele>
                <time>2020-08-21T17:04:02.000Z</time>
                <name>Trackpoint 6677</name>
            </trkpt>
            <trkpt lat="50.1058272" lon="11.35656">
                <ele>294.0</ele>
                <time>2020-08-21T17:04:04.000Z</time>
                <name>Trackpoint 6678</name>
            </trkpt>
            <trkpt lat="50.1059296" lon="11.3565832">
                <ele>294.0</ele>
                <time>2020-08-21T17:04:06.000Z</time>
                <name>Trackpoint 6679</name>
            </trkpt>
            <trkpt lat="50.106032" lon="11.356608">
                <ele>294.0</ele>
                <time>2020-08-21T17:04:08.000Z</time>
                <name>Trackpoint 6680</name>
            </trkpt>
            <trkpt lat="50.1061312" lon="11.3566376">
                <ele>294.0</ele>
                <time>2020-08-21T17:04:10.000Z</time>
                <name>Trackpoint 6681</name>
            </trkpt>
            <trkpt lat="50.1062304" lon="11.35668">
                <ele>294.0</ele>
                <time>2020-08-21T17:04:12.000Z</time>
                <name>Trackpoint 6682</name>
            </trkpt>
            <trkpt lat="50.106336" lon="11.3567112">
                <ele>295.0</ele>
                <time>2020-08-21T17:04:14.000Z</time>
                <name>Trackpoint 6683</name>
            </trkpt>
            <trkpt lat="50.1064352" lon="11.3567432">
                <ele>295.0</ele>
                <time>2020-08-21T17:04:16.000Z</time>
                <name>Trackpoint 6684</name>
            </trkpt>
            <trkpt lat="50.1065376" lon="11.356776">
                <ele>295.0</ele>
                <time>2020-08-21T17:04:18.000Z</time>
                <name>Trackpoint 6685</name>
            </trkpt>
            <trkpt lat="50.10664" lon="11.3568032">
                <ele>295.0</ele>
                <time>2020-08-21T17:04:20.000Z</time>
                <name>Trackpoint 6686</name>
            </trkpt>
            <trkpt lat="50.1067424" lon="11.3568016">
                <ele>295.0</ele>
                <time>2020-08-21T17:04:22.000Z</time>
                <name>Trackpoint 6687</name>
            </trkpt>
            <trkpt lat="50.1068512" lon="11.3567736">
                <ele>295.0</ele>
                <time>2020-08-21T17:04:24.000Z</time>
                <name>Trackpoint 6688</name>
            </trkpt>
            <trkpt lat="50.106944" lon="11.3567336">
                <ele>295.0</ele>
                <time>2020-08-21T17:04:26.000Z</time>
                <name>Trackpoint 6689</name>
            </trkpt>
            <trkpt lat="50.10704" lon="11.3566888">
                <ele>295.0</ele>
                <time>2020-08-21T17:04:28.000Z</time>
                <name>Trackpoint 6690</name>
            </trkpt>
            <trkpt lat="50.107136" lon="11.3566504">
                <ele>295.0</ele>
                <time>2020-08-21T17:04:30.000Z</time>
                <name>Trackpoint 6691</name>
            </trkpt>
            <trkpt lat="50.1072288" lon="11.3566048">
                <ele>294.0</ele>
                <time>2020-08-21T17:04:32.000Z</time>
                <name>Trackpoint 6692</name>
            </trkpt>
            <trkpt lat="50.1072896" lon="11.3565032">
                <ele>294.0</ele>
                <time>2020-08-21T17:04:34.000Z</time>
                <name>Trackpoint 6693</name>
            </trkpt>
            <trkpt lat="50.1073344" lon="11.3563768">
                <ele>294.0</ele>
                <time>2020-08-21T17:04:36.000Z</time>
                <name>Trackpoint 6694</name>
            </trkpt>
            <trkpt lat="50.107392" lon="11.3562536">
                <ele>294.0</ele>
                <time>2020-08-21T17:04:38.000Z</time>
                <name>Trackpoint 6695</name>
            </trkpt>
            <trkpt lat="50.1074688" lon="11.3561472">
                <ele>294.0</ele>
                <time>2020-08-21T17:04:40.000Z</time>
                <name>Trackpoint 6696</name>
            </trkpt>
            <trkpt lat="50.1075424" lon="11.3560448">
                <ele>293.0</ele>
                <time>2020-08-21T17:04:42.000Z</time>
                <name>Trackpoint 6697</name>
            </trkpt>
            <trkpt lat="50.1076064" lon="11.3559112">
                <ele>293.0</ele>
                <time>2020-08-21T17:04:44.000Z</time>
                <name>Trackpoint 6698</name>
            </trkpt>
            <trkpt lat="50.1076352" lon="11.3557552">
                <ele>293.0</ele>
                <time>2020-08-21T17:04:46.000Z</time>
                <name>Trackpoint 6699</name>
            </trkpt>
            <trkpt lat="50.1076416" lon="11.3555848">
                <ele>292.0</ele>
                <time>2020-08-21T17:04:48.000Z</time>
                <name>Trackpoint 6700</name>
            </trkpt>
            <trkpt lat="50.107632" lon="11.3554152">
                <ele>292.0</ele>
                <time>2020-08-21T17:04:50.000Z</time>
                <name>Trackpoint 6701</name>
            </trkpt>
            <trkpt lat="50.1076192" lon="11.35524">
                <ele>292.0</ele>
                <time>2020-08-21T17:04:52.000Z</time>
                <name>Trackpoint 6702</name>
            </trkpt>
            <trkpt lat="50.1075968" lon="11.3550632">
                <ele>292.0</ele>
                <time>2020-08-21T17:04:54.000Z</time>
                <name>Trackpoint 6703</name>
            </trkpt>
            <trkpt lat="50.1075744" lon="11.3548896">
                <ele>292.0</ele>
                <time>2020-08-21T17:04:56.000Z</time>
                <name>Trackpoint 6704</name>
            </trkpt>
            <trkpt lat="50.107552" lon="11.3547264">
                <ele>291.0</ele>
                <time>2020-08-21T17:04:58.000Z</time>
                <name>Trackpoint 6705</name>
            </trkpt>
            <trkpt lat="50.10752" lon="11.35456">
                <ele>292.0</ele>
                <time>2020-08-21T17:05:00.000Z</time>
                <name>Trackpoint 6706</name>
            </trkpt>
            <trkpt lat="50.1074976" lon="11.3543904">
                <ele>291.0</ele>
                <time>2020-08-21T17:05:02.000Z</time>
                <name>Trackpoint 6707</name>
            </trkpt>
            <trkpt lat="50.1074752" lon="11.35422">
                <ele>291.0</ele>
                <time>2020-08-21T17:05:04.000Z</time>
                <name>Trackpoint 6708</name>
            </trkpt>
            <trkpt lat="50.1074624" lon="11.3540384">
                <ele>291.0</ele>
                <time>2020-08-21T17:05:06.000Z</time>
                <name>Trackpoint 6709</name>
            </trkpt>
            <trkpt lat="50.1074592" lon="11.3539464">
                <ele>291.0</ele>
                <time>2020-08-21T17:05:07.000Z</time>
                <name>Trackpoint 6710</name>
            </trkpt>
            <trkpt lat="50.1074592" lon="11.3538552">
                <ele>291.0</ele>
                <time>2020-08-21T17:05:08.000Z</time>
                <name>Trackpoint 6711</name>
            </trkpt>
            <trkpt lat="50.1074592" lon="11.3537616">
                <ele>291.0</ele>
                <time>2020-08-21T17:05:09.000Z</time>
                <name>Trackpoint 6712</name>
            </trkpt>
            <trkpt lat="50.107472" lon="11.3535808">
                <ele>290.0</ele>
                <time>2020-08-21T17:05:11.000Z</time>
                <name>Trackpoint 6713</name>
            </trkpt>
            <trkpt lat="50.1074784" lon="11.3534832">
                <ele>290.0</ele>
                <time>2020-08-21T17:05:12.000Z</time>
                <name>Trackpoint 6714</name>
            </trkpt>
            <trkpt lat="50.1074816" lon="11.3533848">
                <ele>290.0</ele>
                <time>2020-08-21T17:05:13.000Z</time>
                <name>Trackpoint 6715</name>
            </trkpt>
            <trkpt lat="50.1074912" lon="11.3532864">
                <ele>290.0</ele>
                <time>2020-08-21T17:05:14.000Z</time>
                <name>Trackpoint 6716</name>
            </trkpt>
            <trkpt lat="50.1074976" lon="11.3531888">
                <ele>290.0</ele>
                <time>2020-08-21T17:05:15.000Z</time>
                <name>Trackpoint 6717</name>
            </trkpt>
            <trkpt lat="50.1074976" lon="11.3530904">
                <ele>290.0</ele>
                <time>2020-08-21T17:05:16.000Z</time>
                <name>Trackpoint 6718</name>
            </trkpt>
            <trkpt lat="50.1075072" lon="11.3529928">
                <ele>290.0</ele>
                <time>2020-08-21T17:05:17.000Z</time>
                <name>Trackpoint 6719</name>
            </trkpt>
            <trkpt lat="50.1075104" lon="11.3528992">
                <ele>290.0</ele>
                <time>2020-08-21T17:05:18.000Z</time>
                <name>Trackpoint 6720</name>
            </trkpt>
            <trkpt lat="50.1075168" lon="11.352808">
                <ele>290.0</ele>
                <time>2020-08-21T17:05:19.000Z</time>
                <name>Trackpoint 6721</name>
            </trkpt>
            <trkpt lat="50.1075264" lon="11.3527136">
                <ele>290.0</ele>
                <time>2020-08-21T17:05:20.000Z</time>
                <name>Trackpoint 6722</name>
            </trkpt>
            <trkpt lat="50.107536" lon="11.3525448">
                <ele>290.0</ele>
                <time>2020-08-21T17:05:22.000Z</time>
                <name>Trackpoint 6723</name>
            </trkpt>
            <trkpt lat="50.1075616" lon="11.3523768">
                <ele>290.0</ele>
                <time>2020-08-21T17:05:24.000Z</time>
                <name>Trackpoint 6724</name>
            </trkpt>
            <trkpt lat="50.107616" lon="11.3522216">
                <ele>290.0</ele>
                <time>2020-08-21T17:05:26.000Z</time>
                <name>Trackpoint 6725</name>
            </trkpt>
            <trkpt lat="50.1076928" lon="11.3521072">
                <ele>290.0</ele>
                <time>2020-08-21T17:05:28.000Z</time>
                <name>Trackpoint 6726</name>
            </trkpt>
            <trkpt lat="50.1077536" lon="11.3519648">
                <ele>290.0</ele>
                <time>2020-08-21T17:05:30.000Z</time>
                <name>Trackpoint 6727</name>
            </trkpt>
            <trkpt lat="50.1077856" lon="11.3517968">
                <ele>290.0</ele>
                <time>2020-08-21T17:05:32.000Z</time>
                <name>Trackpoint 6728</name>
            </trkpt>
            <trkpt lat="50.1078048" lon="11.35162">
                <ele>291.0</ele>
                <time>2020-08-21T17:05:34.000Z</time>
                <name>Trackpoint 6729</name>
            </trkpt>
            <trkpt lat="50.1078176" lon="11.3514416">
                <ele>291.0</ele>
                <time>2020-08-21T17:05:36.000Z</time>
                <name>Trackpoint 6730</name>
            </trkpt>
            <trkpt lat="50.1078336" lon="11.3512696">
                <ele>291.0</ele>
                <time>2020-08-21T17:05:38.000Z</time>
                <name>Trackpoint 6731</name>
            </trkpt>
            <trkpt lat="50.1078528" lon="11.3510984">
                <ele>291.0</ele>
                <time>2020-08-21T17:05:40.000Z</time>
                <name>Trackpoint 6732</name>
            </trkpt>
            <trkpt lat="50.1078688" lon="11.3509216">
                <ele>291.0</ele>
                <time>2020-08-21T17:05:42.000Z</time>
                <name>Trackpoint 6733</name>
            </trkpt>
            <trkpt lat="50.107888" lon="11.3507496">
                <ele>291.0</ele>
                <time>2020-08-21T17:05:44.000Z</time>
                <name>Trackpoint 6734</name>
            </trkpt>
            <trkpt lat="50.1078976" lon="11.35066">
                <ele>290.0</ele>
                <time>2020-08-21T17:05:45.000Z</time>
                <name>Trackpoint 6735</name>
            </trkpt>
            <trkpt lat="50.107936" lon="11.3504848">
                <ele>290.0</ele>
                <time>2020-08-21T17:05:47.000Z</time>
                <name>Trackpoint 6736</name>
            </trkpt>
            <trkpt lat="50.107968" lon="11.3503112">
                <ele>290.0</ele>
                <time>2020-08-21T17:05:49.000Z</time>
                <name>Trackpoint 6737</name>
            </trkpt>
            <trkpt lat="50.1080032" lon="11.3501368">
                <ele>290.0</ele>
                <time>2020-08-21T17:05:51.000Z</time>
                <name>Trackpoint 6738</name>
            </trkpt>
            <trkpt lat="50.1080352" lon="11.349972">
                <ele>290.0</ele>
                <time>2020-08-21T17:05:53.000Z</time>
                <name>Trackpoint 6739</name>
            </trkpt>
            <trkpt lat="50.1080576" lon="11.3498832">
                <ele>290.0</ele>
                <time>2020-08-21T17:05:54.000Z</time>
                <name>Trackpoint 6740</name>
            </trkpt>
            <trkpt lat="50.1081056" lon="11.34972">
                <ele>290.0</ele>
                <time>2020-08-21T17:05:56.000Z</time>
                <name>Trackpoint 6741</name>
            </trkpt>
            <trkpt lat="50.1081568" lon="11.34956">
                <ele>290.0</ele>
                <time>2020-08-21T17:05:58.000Z</time>
                <name>Trackpoint 6742</name>
            </trkpt>
            <trkpt lat="50.108208" lon="11.3494016">
                <ele>290.0</ele>
                <time>2020-08-21T17:06:00.000Z</time>
                <name>Trackpoint 6743</name>
            </trkpt>
            <trkpt lat="50.1082624" lon="11.3492496">
                <ele>290.0</ele>
                <time>2020-08-21T17:06:02.000Z</time>
                <name>Trackpoint 6744</name>
            </trkpt>
            <trkpt lat="50.1083072" lon="11.3490912">
                <ele>289.0</ele>
                <time>2020-08-21T17:06:04.000Z</time>
                <name>Trackpoint 6745</name>
            </trkpt>
            <trkpt lat="50.1083616" lon="11.3489368">
                <ele>289.0</ele>
                <time>2020-08-21T17:06:06.000Z</time>
                <name>Trackpoint 6746</name>
            </trkpt>
            <trkpt lat="50.108416" lon="11.3487816">
                <ele>289.0</ele>
                <time>2020-08-21T17:06:08.000Z</time>
                <name>Trackpoint 6747</name>
            </trkpt>
            <trkpt lat="50.1084736" lon="11.348632">
                <ele>289.0</ele>
                <time>2020-08-21T17:06:10.000Z</time>
                <name>Trackpoint 6748</name>
            </trkpt>
            <trkpt lat="50.108528" lon="11.3484784">
                <ele>289.0</ele>
                <time>2020-08-21T17:06:12.000Z</time>
                <name>Trackpoint 6749</name>
            </trkpt>
            <trkpt lat="50.1085824" lon="11.3483232">
                <ele>289.0</ele>
                <time>2020-08-21T17:06:14.000Z</time>
                <name>Trackpoint 6750</name>
            </trkpt>
            <trkpt lat="50.1086336" lon="11.3481648">
                <ele>289.0</ele>
                <time>2020-08-21T17:06:16.000Z</time>
                <name>Trackpoint 6751</name>
            </trkpt>
            <trkpt lat="50.1086784" lon="11.348008">
                <ele>289.0</ele>
                <time>2020-08-21T17:06:18.000Z</time>
                <name>Trackpoint 6752</name>
            </trkpt>
            <trkpt lat="50.1087232" lon="11.3478544">
                <ele>288.0</ele>
                <time>2020-08-21T17:06:20.000Z</time>
                <name>Trackpoint 6753</name>
            </trkpt>
            <trkpt lat="50.1087648" lon="11.3477">
                <ele>289.0</ele>
                <time>2020-08-21T17:06:22.000Z</time>
                <name>Trackpoint 6754</name>
            </trkpt>
            <trkpt lat="50.1088" lon="11.3475448">
                <ele>289.0</ele>
                <time>2020-08-21T17:06:24.000Z</time>
                <name>Trackpoint 6755</name>
            </trkpt>
            <trkpt lat="50.1088288" lon="11.3474">
                <ele>289.0</ele>
                <time>2020-08-21T17:06:26.000Z</time>
                <name>Trackpoint 6756</name>
            </trkpt>
            <trkpt lat="50.1088576" lon="11.3472632">
                <ele>289.0</ele>
                <time>2020-08-21T17:06:28.000Z</time>
                <name>Trackpoint 6757</name>
            </trkpt>
            <trkpt lat="50.1088864" lon="11.347128">
                <ele>289.0</ele>
                <time>2020-08-21T17:06:30.000Z</time>
                <name>Trackpoint 6758</name>
            </trkpt>
            <trkpt lat="50.1089216" lon="11.3469912">
                <ele>288.0</ele>
                <time>2020-08-21T17:06:32.000Z</time>
                <name>Trackpoint 6759</name>
            </trkpt>
            <trkpt lat="50.1089568" lon="11.3468536">
                <ele>288.0</ele>
                <time>2020-08-21T17:06:34.000Z</time>
                <name>Trackpoint 6760</name>
            </trkpt>
            <trkpt lat="50.1089888" lon="11.3467032">
                <ele>287.0</ele>
                <time>2020-08-21T17:06:36.000Z</time>
                <name>Trackpoint 6761</name>
            </trkpt>
            <trkpt lat="50.1090176" lon="11.3465368">
                <ele>288.0</ele>
                <time>2020-08-21T17:06:38.000Z</time>
                <name>Trackpoint 6762</name>
            </trkpt>
            <trkpt lat="50.1090432" lon="11.3463832">
                <ele>288.0</ele>
                <time>2020-08-21T17:06:40.000Z</time>
                <name>Trackpoint 6763</name>
            </trkpt>
            <trkpt lat="50.1090848" lon="11.3462312">
                <ele>288.0</ele>
                <time>2020-08-21T17:06:42.000Z</time>
                <name>Trackpoint 6764</name>
            </trkpt>
            <trkpt lat="50.1091232" lon="11.3460752">
                <ele>289.0</ele>
                <time>2020-08-21T17:06:44.000Z</time>
                <name>Trackpoint 6765</name>
            </trkpt>
            <trkpt lat="50.1091616" lon="11.3459184">
                <ele>289.0</ele>
                <time>2020-08-21T17:06:46.000Z</time>
                <name>Trackpoint 6766</name>
            </trkpt>
            <trkpt lat="50.1091904" lon="11.3457584">
                <ele>289.0</ele>
                <time>2020-08-21T17:06:48.000Z</time>
                <name>Trackpoint 6767</name>
            </trkpt>
            <trkpt lat="50.109216" lon="11.3456">
                <ele>289.0</ele>
                <time>2020-08-21T17:06:50.000Z</time>
                <name>Trackpoint 6768</name>
            </trkpt>
            <trkpt lat="50.1092352" lon="11.3454352">
                <ele>289.0</ele>
                <time>2020-08-21T17:06:52.000Z</time>
                <name>Trackpoint 6769</name>
            </trkpt>
            <trkpt lat="50.1092352" lon="11.3452784">
                <ele>289.0</ele>
                <time>2020-08-21T17:06:54.000Z</time>
                <name>Trackpoint 6770</name>
            </trkpt>
            <trkpt lat="50.1092288" lon="11.3451208">
                <ele>289.0</ele>
                <time>2020-08-21T17:06:56.000Z</time>
                <name>Trackpoint 6771</name>
            </trkpt>
            <trkpt lat="50.1092288" lon="11.344952">
                <ele>289.0</ele>
                <time>2020-08-21T17:06:58.000Z</time>
                <name>Trackpoint 6772</name>
            </trkpt>
            <trkpt lat="50.1092192" lon="11.3447912">
                <ele>288.0</ele>
                <time>2020-08-21T17:07:00.000Z</time>
                <name>Trackpoint 6773</name>
            </trkpt>
            <trkpt lat="50.1091904" lon="11.3446328">
                <ele>288.0</ele>
                <time>2020-08-21T17:07:02.000Z</time>
                <name>Trackpoint 6774</name>
            </trkpt>
            <trkpt lat="50.1091616" lon="11.3444816">
                <ele>288.0</ele>
                <time>2020-08-21T17:07:04.000Z</time>
                <name>Trackpoint 6775</name>
            </trkpt>
            <trkpt lat="50.10912" lon="11.3443384">
                <ele>287.0</ele>
                <time>2020-08-21T17:07:06.000Z</time>
                <name>Trackpoint 6776</name>
            </trkpt>
            <trkpt lat="50.1090688" lon="11.3442">
                <ele>287.0</ele>
                <time>2020-08-21T17:07:08.000Z</time>
                <name>Trackpoint 6777</name>
            </trkpt>
            <trkpt lat="50.1090176" lon="11.3440664">
                <ele>286.0</ele>
                <time>2020-08-21T17:07:10.000Z</time>
                <name>Trackpoint 6778</name>
            </trkpt>
            <trkpt lat="50.1089664" lon="11.3439328">
                <ele>287.0</ele>
                <time>2020-08-21T17:07:12.000Z</time>
                <name>Trackpoint 6779</name>
            </trkpt>
            <trkpt lat="50.1089184" lon="11.3437928">
                <ele>286.0</ele>
                <time>2020-08-21T17:07:14.000Z</time>
                <name>Trackpoint 6780</name>
            </trkpt>
            <trkpt lat="50.1088672" lon="11.3436544">
                <ele>286.0</ele>
                <time>2020-08-21T17:07:16.000Z</time>
                <name>Trackpoint 6781</name>
            </trkpt>
            <trkpt lat="50.1088192" lon="11.3435136">
                <ele>286.0</ele>
                <time>2020-08-21T17:07:18.000Z</time>
                <name>Trackpoint 6782</name>
            </trkpt>
            <trkpt lat="50.1087808" lon="11.343364">
                <ele>286.0</ele>
                <time>2020-08-21T17:07:20.000Z</time>
                <name>Trackpoint 6783</name>
            </trkpt>
            <trkpt lat="50.1087808" lon="11.3431968">
                <ele>286.0</ele>
                <time>2020-08-21T17:07:22.000Z</time>
                <name>Trackpoint 6784</name>
            </trkpt>
            <trkpt lat="50.1088192" lon="11.3430368">
                <ele>286.0</ele>
                <time>2020-08-21T17:07:24.000Z</time>
                <name>Trackpoint 6785</name>
            </trkpt>
            <trkpt lat="50.1088672" lon="11.3428936">
                <ele>286.0</ele>
                <time>2020-08-21T17:07:26.000Z</time>
                <name>Trackpoint 6786</name>
            </trkpt>
            <trkpt lat="50.1089024" lon="11.3427432">
                <ele>286.0</ele>
                <time>2020-08-21T17:07:28.000Z</time>
                <name>Trackpoint 6787</name>
            </trkpt>
            <trkpt lat="50.1089312" lon="11.3425904">
                <ele>286.0</ele>
                <time>2020-08-21T17:07:30.000Z</time>
                <name>Trackpoint 6788</name>
            </trkpt>
            <trkpt lat="50.1089504" lon="11.3424328">
                <ele>286.0</ele>
                <time>2020-08-21T17:07:32.000Z</time>
                <name>Trackpoint 6789</name>
            </trkpt>
            <trkpt lat="50.1089504" lon="11.3422648">
                <ele>286.0</ele>
                <time>2020-08-21T17:07:34.000Z</time>
                <name>Trackpoint 6790</name>
            </trkpt>
            <trkpt lat="50.1089504" lon="11.3421088">
                <ele>286.0</ele>
                <time>2020-08-21T17:07:36.000Z</time>
                <name>Trackpoint 6791</name>
            </trkpt>
            <trkpt lat="50.1089312" lon="11.3419464">
                <ele>286.0</ele>
                <time>2020-08-21T17:07:38.000Z</time>
                <name>Trackpoint 6792</name>
            </trkpt>
            <trkpt lat="50.1089024" lon="11.341792">
                <ele>286.0</ele>
                <time>2020-08-21T17:07:40.000Z</time>
                <name>Trackpoint 6793</name>
            </trkpt>
            <trkpt lat="50.10888" lon="11.3416256">
                <ele>285.0</ele>
                <time>2020-08-21T17:07:42.000Z</time>
                <name>Trackpoint 6794</name>
            </trkpt>
            <trkpt lat="50.1088896" lon="11.3414496">
                <ele>286.0</ele>
                <time>2020-08-21T17:07:44.000Z</time>
                <name>Trackpoint 6795</name>
            </trkpt>
            <trkpt lat="50.1088992" lon="11.34136">
                <ele>286.0</ele>
                <time>2020-08-21T17:07:45.000Z</time>
                <name>Trackpoint 6796</name>
            </trkpt>
            <trkpt lat="50.1089248" lon="11.3411904">
                <ele>286.0</ele>
                <time>2020-08-21T17:07:47.000Z</time>
                <name>Trackpoint 6797</name>
            </trkpt>
            <trkpt lat="50.1089504" lon="11.3410304">
                <ele>286.0</ele>
                <time>2020-08-21T17:07:49.000Z</time>
                <name>Trackpoint 6798</name>
            </trkpt>
            <trkpt lat="50.1089664" lon="11.3408616">
                <ele>285.0</ele>
                <time>2020-08-21T17:07:51.000Z</time>
                <name>Trackpoint 6799</name>
            </trkpt>
            <trkpt lat="50.108992" lon="11.3407024">
                <ele>285.0</ele>
                <time>2020-08-21T17:07:53.000Z</time>
                <name>Trackpoint 6800</name>
            </trkpt>
            <trkpt lat="50.1090208" lon="11.3405416">
                <ele>285.0</ele>
                <time>2020-08-21T17:07:55.000Z</time>
                <name>Trackpoint 6801</name>
            </trkpt>
            <trkpt lat="50.1090432" lon="11.34038">
                <ele>285.0</ele>
                <time>2020-08-21T17:07:57.000Z</time>
                <name>Trackpoint 6802</name>
            </trkpt>
            <trkpt lat="50.1090688" lon="11.3402208">
                <ele>285.0</ele>
                <time>2020-08-21T17:07:59.000Z</time>
                <name>Trackpoint 6803</name>
            </trkpt>
            <trkpt lat="50.1090976" lon="11.3400624">
                <ele>285.0</ele>
                <time>2020-08-21T17:08:01.000Z</time>
                <name>Trackpoint 6804</name>
            </trkpt>
            <trkpt lat="50.1091488" lon="11.3399184">
                <ele>285.0</ele>
                <time>2020-08-21T17:08:03.000Z</time>
                <name>Trackpoint 6805</name>
            </trkpt>
            <trkpt lat="50.1092192" lon="11.3397952">
                <ele>285.0</ele>
                <time>2020-08-21T17:08:05.000Z</time>
                <name>Trackpoint 6806</name>
            </trkpt>
            <trkpt lat="50.109296" lon="11.3396704">
                <ele>285.0</ele>
                <time>2020-08-21T17:08:07.000Z</time>
                <name>Trackpoint 6807</name>
            </trkpt>
            <trkpt lat="50.1093664" lon="11.3395464">
                <ele>285.0</ele>
                <time>2020-08-21T17:08:09.000Z</time>
                <name>Trackpoint 6808</name>
            </trkpt>
            <trkpt lat="50.10944" lon="11.3394184">
                <ele>285.0</ele>
                <time>2020-08-21T17:08:11.000Z</time>
                <name>Trackpoint 6809</name>
            </trkpt>
            <trkpt lat="50.1095072" lon="11.3392896">
                <ele>285.0</ele>
                <time>2020-08-21T17:08:13.000Z</time>
                <name>Trackpoint 6810</name>
            </trkpt>
            <trkpt lat="50.109568" lon="11.3391552">
                <ele>285.0</ele>
                <time>2020-08-21T17:08:15.000Z</time>
                <name>Trackpoint 6811</name>
            </trkpt>
            <trkpt lat="50.1096256" lon="11.3390168">
                <ele>285.0</ele>
                <time>2020-08-21T17:08:17.000Z</time>
                <name>Trackpoint 6812</name>
            </trkpt>
            <trkpt lat="50.1096832" lon="11.3388752">
                <ele>285.0</ele>
                <time>2020-08-21T17:08:19.000Z</time>
                <name>Trackpoint 6813</name>
            </trkpt>
            <trkpt lat="50.1097408" lon="11.3387344">
                <ele>285.0</ele>
                <time>2020-08-21T17:08:21.000Z</time>
                <name>Trackpoint 6814</name>
            </trkpt>
            <trkpt lat="50.1097984" lon="11.3385936">
                <ele>285.0</ele>
                <time>2020-08-21T17:08:23.000Z</time>
                <name>Trackpoint 6815</name>
            </trkpt>
            <trkpt lat="50.1098496" lon="11.3384504">
                <ele>285.0</ele>
                <time>2020-08-21T17:08:25.000Z</time>
                <name>Trackpoint 6816</name>
            </trkpt>
            <trkpt lat="50.1099136" lon="11.3383216">
                <ele>285.0</ele>
                <time>2020-08-21T17:08:27.000Z</time>
                <name>Trackpoint 6817</name>
            </trkpt>
            <trkpt lat="50.1100128" lon="11.3382632">
                <ele>285.0</ele>
                <time>2020-08-21T17:08:29.000Z</time>
                <name>Trackpoint 6818</name>
            </trkpt>
            <trkpt lat="50.1101184" lon="11.3382352">
                <ele>285.0</ele>
                <time>2020-08-21T17:08:31.000Z</time>
                <name>Trackpoint 6819</name>
            </trkpt>
            <trkpt lat="50.1102272" lon="11.3382056">
                <ele>285.0</ele>
                <time>2020-08-21T17:08:33.000Z</time>
                <name>Trackpoint 6820</name>
            </trkpt>
            <trkpt lat="50.1103296" lon="11.3381728">
                <ele>285.0</ele>
                <time>2020-08-21T17:08:35.000Z</time>
                <name>Trackpoint 6821</name>
            </trkpt>
            <trkpt lat="50.110432" lon="11.3381384">
                <ele>285.0</ele>
                <time>2020-08-21T17:08:37.000Z</time>
                <name>Trackpoint 6822</name>
            </trkpt>
            <trkpt lat="50.1105344" lon="11.338132">
                <ele>285.0</ele>
                <time>2020-08-21T17:08:39.000Z</time>
                <name>Trackpoint 6823</name>
            </trkpt>
            <trkpt lat="50.1106304" lon="11.3381984">
                <ele>284.0</ele>
                <time>2020-08-21T17:08:41.000Z</time>
                <name>Trackpoint 6824</name>
            </trkpt>
            <trkpt lat="50.1107104" lon="11.3382968">
                <ele>284.0</ele>
                <time>2020-08-21T17:08:43.000Z</time>
                <name>Trackpoint 6825</name>
            </trkpt>
            <trkpt lat="50.1107968" lon="11.3383888">
                <ele>284.0</ele>
                <time>2020-08-21T17:08:45.000Z</time>
                <name>Trackpoint 6826</name>
            </trkpt>
            <trkpt lat="50.110896" lon="11.338404">
                <ele>284.0</ele>
                <time>2020-08-21T17:08:47.000Z</time>
                <name>Trackpoint 6827</name>
            </trkpt>
            <trkpt lat="50.1109952" lon="11.3383616">
                <ele>284.0</ele>
                <time>2020-08-21T17:08:49.000Z</time>
                <name>Trackpoint 6828</name>
            </trkpt>
            <trkpt lat="50.1110912" lon="11.3383128">
                <ele>285.0</ele>
                <time>2020-08-21T17:08:51.000Z</time>
                <name>Trackpoint 6829</name>
            </trkpt>
            <trkpt lat="50.111184" lon="11.3382816">
                <ele>285.0</ele>
                <time>2020-08-21T17:08:53.000Z</time>
                <name>Trackpoint 6830</name>
            </trkpt>
            <trkpt lat="50.1113024" lon="11.3382616">
                <ele>285.0</ele>
                <time>2020-08-21T17:08:56.000Z</time>
                <name>Trackpoint 6831</name>
            </trkpt>
            <trkpt lat="50.111424" lon="11.3382632">
                <ele>285.0</ele>
                <time>2020-08-21T17:08:59.000Z</time>
                <name>Trackpoint 6832</name>
            </trkpt>
            <trkpt lat="50.111552" lon="11.3382632">
                <ele>285.0</ele>
                <time>2020-08-21T17:09:02.000Z</time>
                <name>Trackpoint 6833</name>
            </trkpt>
            <trkpt lat="50.111648" lon="11.3382584">
                <ele>285.0</ele>
                <time>2020-08-21T17:09:04.000Z</time>
                <name>Trackpoint 6834</name>
            </trkpt>
            <trkpt lat="50.1117472" lon="11.3382416">
                <ele>286.0</ele>
                <time>2020-08-21T17:09:06.000Z</time>
                <name>Trackpoint 6835</name>
            </trkpt>
            <trkpt lat="50.1118464" lon="11.3382184">
                <ele>286.0</ele>
                <time>2020-08-21T17:09:08.000Z</time>
                <name>Trackpoint 6836</name>
            </trkpt>
            <trkpt lat="50.1119488" lon="11.338192">
                <ele>286.0</ele>
                <time>2020-08-21T17:09:10.000Z</time>
                <name>Trackpoint 6837</name>
            </trkpt>
            <trkpt lat="50.1120448" lon="11.3381592">
                <ele>286.0</ele>
                <time>2020-08-21T17:09:12.000Z</time>
                <name>Trackpoint 6838</name>
            </trkpt>
            <trkpt lat="50.1121408" lon="11.338152">
                <ele>286.0</ele>
                <time>2020-08-21T17:09:14.000Z</time>
                <name>Trackpoint 6839</name>
            </trkpt>
            <trkpt lat="50.1122368" lon="11.3381864">
                <ele>286.0</ele>
                <time>2020-08-21T17:09:16.000Z</time>
                <name>Trackpoint 6840</name>
            </trkpt>
            <trkpt lat="50.1123264" lon="11.33824">
                <ele>286.0</ele>
                <time>2020-08-21T17:09:18.000Z</time>
                <name>Trackpoint 6841</name>
            </trkpt>
            <trkpt lat="50.1124192" lon="11.3383">
                <ele>286.0</ele>
                <time>2020-08-21T17:09:20.000Z</time>
                <name>Trackpoint 6842</name>
            </trkpt>
            <trkpt lat="50.1125056" lon="11.3383728">
                <ele>286.0</ele>
                <time>2020-08-21T17:09:22.000Z</time>
                <name>Trackpoint 6843</name>
            </trkpt>
            <trkpt lat="50.1125952" lon="11.3384552">
                <ele>286.0</ele>
                <time>2020-08-21T17:09:24.000Z</time>
                <name>Trackpoint 6844</name>
            </trkpt>
            <trkpt lat="50.1126816" lon="11.338516">
                <ele>286.0</ele>
                <time>2020-08-21T17:09:26.000Z</time>
                <name>Trackpoint 6845</name>
            </trkpt>
            <trkpt lat="50.1127808" lon="11.3385488">
                <ele>286.0</ele>
                <time>2020-08-21T17:09:28.000Z</time>
                <name>Trackpoint 6846</name>
            </trkpt>
            <trkpt lat="50.11288" lon="11.338556">
                <ele>286.0</ele>
                <time>2020-08-21T17:09:30.000Z</time>
                <name>Trackpoint 6847</name>
            </trkpt>
            <trkpt lat="50.1129792" lon="11.3385536">
                <ele>285.0</ele>
                <time>2020-08-21T17:09:32.000Z</time>
                <name>Trackpoint 6848</name>
            </trkpt>
            <trkpt lat="50.1130752" lon="11.3385584">
                <ele>285.0</ele>
                <time>2020-08-21T17:09:34.000Z</time>
                <name>Trackpoint 6849</name>
            </trkpt>
            <trkpt lat="50.113168" lon="11.3385736">
                <ele>285.0</ele>
                <time>2020-08-21T17:09:36.000Z</time>
                <name>Trackpoint 6850</name>
            </trkpt>
            <trkpt lat="50.1132896" lon="11.3386136">
                <ele>285.0</ele>
                <time>2020-08-21T17:09:39.000Z</time>
                <name>Trackpoint 6851</name>
            </trkpt>
            <trkpt lat="50.1134272" lon="11.3385896">
                <ele>285.0</ele>
                <time>2020-08-21T17:09:42.000Z</time>
                <name>Trackpoint 6852</name>
            </trkpt>
            <trkpt lat="50.1134976" lon="11.3384888">
                <ele>285.0</ele>
                <time>2020-08-21T17:09:44.000Z</time>
                <name>Trackpoint 6853</name>
            </trkpt>
            <trkpt lat="50.1135488" lon="11.3383616">
                <ele>285.0</ele>
                <time>2020-08-21T17:09:46.000Z</time>
                <name>Trackpoint 6854</name>
            </trkpt>
            <trkpt lat="50.1136128" lon="11.3382464">
                <ele>286.0</ele>
                <time>2020-08-21T17:09:48.000Z</time>
                <name>Trackpoint 6855</name>
            </trkpt>
            <trkpt lat="50.1136576" lon="11.3381272">
                <ele>286.0</ele>
                <time>2020-08-21T17:09:50.000Z</time>
                <name>Trackpoint 6856</name>
            </trkpt>
            <trkpt lat="50.1137088" lon="11.3380048">
                <ele>286.0</ele>
                <time>2020-08-21T17:09:52.000Z</time>
                <name>Trackpoint 6857</name>
            </trkpt>
            <trkpt lat="50.1137568" lon="11.3378848">
                <ele>286.0</ele>
                <time>2020-08-21T17:09:54.000Z</time>
                <name>Trackpoint 6858</name>
            </trkpt>
            <trkpt lat="50.113808" lon="11.3377736">
                <ele>286.0</ele>
                <time>2020-08-21T17:09:56.000Z</time>
                <name>Trackpoint 6859</name>
            </trkpt>
            <trkpt lat="50.1138528" lon="11.3376776">
                <ele>286.0</ele>
                <time>2020-08-21T17:09:58.000Z</time>
                <name>Trackpoint 6860</name>
            </trkpt>
            <trkpt lat="50.113904" lon="11.3376016">
                <ele>286.0</ele>
                <time>2020-08-21T17:10:00.000Z</time>
                <name>Trackpoint 6861</name>
            </trkpt>
            <trkpt lat="50.113952" lon="11.3375064">
                <ele>286.0</ele>
                <time>2020-08-21T17:10:04.000Z</time>
                <name>Trackpoint 6862</name>
            </trkpt>
            <trkpt lat="50.1139296" lon="11.3373936">
                <ele>286.0</ele>
                <time>2020-08-21T17:10:09.000Z</time>
                <name>Trackpoint 6863</name>
            </trkpt>
            <trkpt lat="50.113856" lon="11.3372832">
                <ele>286.0</ele>
                <time>2020-08-21T17:10:12.000Z</time>
                <name>Trackpoint 6864</name>
            </trkpt>
            <trkpt lat="50.1137888" lon="11.3372032">
                <ele>286.0</ele>
                <time>2020-08-21T17:10:14.000Z</time>
                <name>Trackpoint 6865</name>
            </trkpt>
            <trkpt lat="50.1137184" lon="11.3371112">
                <ele>286.0</ele>
                <time>2020-08-21T17:10:16.000Z</time>
                <name>Trackpoint 6866</name>
            </trkpt>
            <trkpt lat="50.113648" lon="11.33702">
                <ele>286.0</ele>
                <time>2020-08-21T17:10:18.000Z</time>
                <name>Trackpoint 6867</name>
            </trkpt>
            <trkpt lat="50.1135712" lon="11.3369176">
                <ele>286.0</ele>
                <time>2020-08-21T17:10:20.000Z</time>
                <name>Trackpoint 6868</name>
            </trkpt>
            <trkpt lat="50.1134944" lon="11.3368056">
                <ele>286.0</ele>
                <time>2020-08-21T17:10:22.000Z</time>
                <name>Trackpoint 6869</name>
            </trkpt>
            <trkpt lat="50.1134176" lon="11.3366968">
                <ele>287.0</ele>
                <time>2020-08-21T17:10:24.000Z</time>
                <name>Trackpoint 6870</name>
            </trkpt>
            <trkpt lat="50.1133408" lon="11.3365816">
                <ele>286.0</ele>
                <time>2020-08-21T17:10:26.000Z</time>
                <name>Trackpoint 6871</name>
            </trkpt>
            <trkpt lat="50.1132672" lon="11.3364752">
                <ele>287.0</ele>
                <time>2020-08-21T17:10:28.000Z</time>
                <name>Trackpoint 6872</name>
            </trkpt>
            <trkpt lat="50.1131936" lon="11.3363704">
                <ele>287.0</ele>
                <time>2020-08-21T17:10:30.000Z</time>
                <name>Trackpoint 6873</name>
            </trkpt>
            <trkpt lat="50.1131392" lon="11.3362528">
                <ele>287.0</ele>
                <time>2020-08-21T17:10:32.000Z</time>
                <name>Trackpoint 6874</name>
            </trkpt>
            <trkpt lat="50.113088" lon="11.3361456">
                <ele>287.0</ele>
                <time>2020-08-21T17:10:34.000Z</time>
                <name>Trackpoint 6875</name>
            </trkpt>
            <trkpt lat="50.1130336" lon="11.3360304">
                <ele>287.0</ele>
                <time>2020-08-21T17:10:36.000Z</time>
                <name>Trackpoint 6876</name>
            </trkpt>
            <trkpt lat="50.1129888" lon="11.3359272">
                <ele>287.0</ele>
                <time>2020-08-21T17:10:38.000Z</time>
                <name>Trackpoint 6877</name>
            </trkpt>
            <trkpt lat="50.112944" lon="11.3358288">
                <ele>287.0</ele>
                <time>2020-08-21T17:10:40.000Z</time>
                <name>Trackpoint 6878</name>
            </trkpt>
            <trkpt lat="50.1129152" lon="11.3357336">
                <ele>287.0</ele>
                <time>2020-08-21T17:10:42.000Z</time>
                <name>Trackpoint 6879</name>
            </trkpt>
            <trkpt lat="50.1128832" lon="11.3356368">
                <ele>287.0</ele>
                <time>2020-08-21T17:10:44.000Z</time>
                <name>Trackpoint 6880</name>
            </trkpt>
            <trkpt lat="50.1128384" lon="11.33554">
                <ele>287.0</ele>
                <time>2020-08-21T17:10:46.000Z</time>
                <name>Trackpoint 6881</name>
            </trkpt>
            <trkpt lat="50.112784" lon="11.3354432">
                <ele>287.0</ele>
                <time>2020-08-21T17:10:48.000Z</time>
                <name>Trackpoint 6882</name>
            </trkpt>
            <trkpt lat="50.1127296" lon="11.3353504">
                <ele>287.0</ele>
                <time>2020-08-21T17:10:50.000Z</time>
                <name>Trackpoint 6883</name>
            </trkpt>
            <trkpt lat="50.112672" lon="11.335272">
                <ele>287.0</ele>
                <time>2020-08-21T17:10:52.000Z</time>
                <name>Trackpoint 6884</name>
            </trkpt>
            <trkpt lat="50.1125984" lon="11.3351896">
                <ele>287.0</ele>
                <time>2020-08-21T17:10:55.000Z</time>
                <name>Trackpoint 6885</name>
            </trkpt>
            <trkpt lat="50.1126528" lon="11.335116">
                <ele>287.0</ele>
                <time>2020-08-21T17:11:08.000Z</time>
                <name>Trackpoint 6886</name>
            </trkpt>
            <trkpt lat="50.1126816" lon="11.3349984">
                <ele>286.0</ele>
                <time>2020-08-21T17:14:13.000Z</time>
                <name>Trackpoint 6887</name>
            </trkpt>
            <trkpt lat="50.112704" lon="11.3348904">
                <ele>286.0</ele>
                <time>2020-08-21T17:14:15.000Z</time>
                <name>Trackpoint 6888</name>
            </trkpt>
            <trkpt lat="50.11272" lon="11.3347656">
                <ele>286.0</ele>
                <time>2020-08-21T17:14:17.000Z</time>
                <name>Trackpoint 6889</name>
            </trkpt>
            <trkpt lat="50.1127328" lon="11.334628">
                <ele>286.0</ele>
                <time>2020-08-21T17:14:19.000Z</time>
                <name>Trackpoint 6890</name>
            </trkpt>
            <trkpt lat="50.1127328" lon="11.3344744">
                <ele>286.0</ele>
                <time>2020-08-21T17:14:21.000Z</time>
                <name>Trackpoint 6891</name>
            </trkpt>
            <trkpt lat="50.1127296" lon="11.3343152">
                <ele>286.0</ele>
                <time>2020-08-21T17:14:23.000Z</time>
                <name>Trackpoint 6892</name>
            </trkpt>
            <trkpt lat="50.1127296" lon="11.33416">
                <ele>286.0</ele>
                <time>2020-08-21T17:14:25.000Z</time>
                <name>Trackpoint 6893</name>
            </trkpt>
            <trkpt lat="50.1127424" lon="11.3340016">
                <ele>286.0</ele>
                <time>2020-08-21T17:14:27.000Z</time>
                <name>Trackpoint 6894</name>
            </trkpt>
            <trkpt lat="50.1127616" lon="11.33384">
                <ele>286.0</ele>
                <time>2020-08-21T17:14:29.000Z</time>
                <name>Trackpoint 6895</name>
            </trkpt>
            <trkpt lat="50.112784" lon="11.33368">
                <ele>286.0</ele>
                <time>2020-08-21T17:14:31.000Z</time>
                <name>Trackpoint 6896</name>
            </trkpt>
            <trkpt lat="50.1128128" lon="11.3335248">
                <ele>286.0</ele>
                <time>2020-08-21T17:14:33.000Z</time>
                <name>Trackpoint 6897</name>
            </trkpt>
            <trkpt lat="50.1128288" lon="11.33338">
                <ele>286.0</ele>
                <time>2020-08-21T17:14:35.000Z</time>
                <name>Trackpoint 6898</name>
            </trkpt>
            <trkpt lat="50.1128512" lon="11.3332328">
                <ele>286.0</ele>
                <time>2020-08-21T17:14:37.000Z</time>
                <name>Trackpoint 6899</name>
            </trkpt>
            <trkpt lat="50.1128736" lon="11.3330848">
                <ele>286.0</ele>
                <time>2020-08-21T17:14:39.000Z</time>
                <name>Trackpoint 6900</name>
            </trkpt>
            <trkpt lat="50.1128896" lon="11.3329264">
                <ele>286.0</ele>
                <time>2020-08-21T17:14:41.000Z</time>
                <name>Trackpoint 6901</name>
            </trkpt>
            <trkpt lat="50.1129152" lon="11.3327776">
                <ele>287.0</ele>
                <time>2020-08-21T17:14:43.000Z</time>
                <name>Trackpoint 6902</name>
            </trkpt>
            <trkpt lat="50.1129536" lon="11.332632">
                <ele>287.0</ele>
                <time>2020-08-21T17:14:45.000Z</time>
                <name>Trackpoint 6903</name>
            </trkpt>
            <trkpt lat="50.1129888" lon="11.3324768">
                <ele>286.0</ele>
                <time>2020-08-21T17:14:47.000Z</time>
                <name>Trackpoint 6904</name>
            </trkpt>
            <trkpt lat="50.1130304" lon="11.3323384">
                <ele>287.0</ele>
                <time>2020-08-21T17:14:49.000Z</time>
                <name>Trackpoint 6905</name>
            </trkpt>
            <trkpt lat="50.1130688" lon="11.3321896">
                <ele>286.0</ele>
                <time>2020-08-21T17:14:51.000Z</time>
                <name>Trackpoint 6906</name>
            </trkpt>
            <trkpt lat="50.1131008" lon="11.3320416">
                <ele>287.0</ele>
                <time>2020-08-21T17:14:53.000Z</time>
                <name>Trackpoint 6907</name>
            </trkpt>
            <trkpt lat="50.113136" lon="11.3318928">
                <ele>286.0</ele>
                <time>2020-08-21T17:14:55.000Z</time>
                <name>Trackpoint 6908</name>
            </trkpt>
            <trkpt lat="50.1131584" lon="11.331732">
                <ele>286.0</ele>
                <time>2020-08-21T17:14:57.000Z</time>
                <name>Trackpoint 6909</name>
            </trkpt>
            <trkpt lat="50.1131808" lon="11.3315784">
                <ele>286.0</ele>
                <time>2020-08-21T17:14:59.000Z</time>
                <name>Trackpoint 6910</name>
            </trkpt>
            <trkpt lat="50.1132" lon="11.3314384">
                <ele>286.0</ele>
                <time>2020-08-21T17:15:01.000Z</time>
                <name>Trackpoint 6911</name>
            </trkpt>
            <trkpt lat="50.113216" lon="11.3313064">
                <ele>286.0</ele>
                <time>2020-08-21T17:15:03.000Z</time>
                <name>Trackpoint 6912</name>
            </trkpt>
            <trkpt lat="50.1132512" lon="11.3312104">
                <ele>285.0</ele>
                <time>2020-08-21T17:15:05.000Z</time>
                <name>Trackpoint 6913</name>
            </trkpt>
            <trkpt lat="50.1133568" lon="11.3312256">
                <ele>285.0</ele>
                <time>2020-08-21T17:15:08.000Z</time>
                <name>Trackpoint 6914</name>
            </trkpt>
            <trkpt lat="50.1134336" lon="11.3312904">
                <ele>285.0</ele>
                <time>2020-08-21T17:15:10.000Z</time>
                <name>Trackpoint 6915</name>
            </trkpt>
            <trkpt lat="50.1135136" lon="11.3313704">
                <ele>285.0</ele>
                <time>2020-08-21T17:15:12.000Z</time>
                <name>Trackpoint 6916</name>
            </trkpt>
            <trkpt lat="50.1135968" lon="11.3314416">
                <ele>285.0</ele>
                <time>2020-08-21T17:15:14.000Z</time>
                <name>Trackpoint 6917</name>
            </trkpt>
            <trkpt lat="50.1136832" lon="11.3315136">
                <ele>285.0</ele>
                <time>2020-08-21T17:15:16.000Z</time>
                <name>Trackpoint 6918</name>
            </trkpt>
            <trkpt lat="50.1137728" lon="11.331576">
                <ele>285.0</ele>
                <time>2020-08-21T17:15:18.000Z</time>
                <name>Trackpoint 6919</name>
            </trkpt>
            <trkpt lat="50.1138624" lon="11.3316448">
                <ele>285.0</ele>
                <time>2020-08-21T17:15:20.000Z</time>
                <name>Trackpoint 6920</name>
            </trkpt>
            <trkpt lat="50.1139456" lon="11.3317144">
                <ele>284.0</ele>
                <time>2020-08-21T17:15:22.000Z</time>
                <name>Trackpoint 6921</name>
            </trkpt>
            <trkpt lat="50.1140448" lon="11.3317544">
                <ele>285.0</ele>
                <time>2020-08-21T17:15:24.000Z</time>
                <name>Trackpoint 6922</name>
            </trkpt>
            <trkpt lat="50.1141344" lon="11.3317096">
                <ele>285.0</ele>
                <time>2020-08-21T17:15:26.000Z</time>
                <name>Trackpoint 6923</name>
            </trkpt>
            <trkpt lat="50.1142144" lon="11.3316152">
                <ele>285.0</ele>
                <time>2020-08-21T17:15:28.000Z</time>
                <name>Trackpoint 6924</name>
            </trkpt>
            <trkpt lat="50.1142848" lon="11.3315064">
                <ele>285.0</ele>
                <time>2020-08-21T17:15:30.000Z</time>
                <name>Trackpoint 6925</name>
            </trkpt>
            <trkpt lat="50.114352" lon="11.331404">
                <ele>285.0</ele>
                <time>2020-08-21T17:15:32.000Z</time>
                <name>Trackpoint 6926</name>
            </trkpt>
            <trkpt lat="50.1144192" lon="11.3312976">
                <ele>285.0</ele>
                <time>2020-08-21T17:15:34.000Z</time>
                <name>Trackpoint 6927</name>
            </trkpt>
            <trkpt lat="50.1144864" lon="11.331208">
                <ele>285.0</ele>
                <time>2020-08-21T17:15:36.000Z</time>
                <name>Trackpoint 6928</name>
            </trkpt>
            <trkpt lat="50.1145696" lon="11.331172">
                <ele>285.0</ele>
                <time>2020-08-21T17:15:38.000Z</time>
                <name>Trackpoint 6929</name>
            </trkpt>
            <trkpt lat="50.1146624" lon="11.3311968">
                <ele>285.0</ele>
                <time>2020-08-21T17:15:40.000Z</time>
                <name>Trackpoint 6930</name>
            </trkpt>
            <trkpt lat="50.1147456" lon="11.3312552">
                <ele>285.0</ele>
                <time>2020-08-21T17:15:42.000Z</time>
                <name>Trackpoint 6931</name>
            </trkpt>
            <trkpt lat="50.1148352" lon="11.3313112">
                <ele>285.0</ele>
                <time>2020-08-21T17:15:44.000Z</time>
                <name>Trackpoint 6932</name>
            </trkpt>
            <trkpt lat="50.1149216" lon="11.331364">
                <ele>284.0</ele>
                <time>2020-08-21T17:15:46.000Z</time>
                <name>Trackpoint 6933</name>
            </trkpt>
            <trkpt lat="50.115024" lon="11.3314088">
                <ele>284.0</ele>
                <time>2020-08-21T17:15:48.000Z</time>
                <name>Trackpoint 6934</name>
            </trkpt>
            <trkpt lat="50.11512" lon="11.33146">
                <ele>284.0</ele>
                <time>2020-08-21T17:15:50.000Z</time>
                <name>Trackpoint 6935</name>
            </trkpt>
            <trkpt lat="50.1152128" lon="11.3315096">
                <ele>284.0</ele>
                <time>2020-08-21T17:15:52.000Z</time>
                <name>Trackpoint 6936</name>
            </trkpt>
            <trkpt lat="50.1152992" lon="11.33156">
                <ele>284.0</ele>
                <time>2020-08-21T17:15:54.000Z</time>
                <name>Trackpoint 6937</name>
            </trkpt>
            <trkpt lat="50.115392" lon="11.3316152">
                <ele>284.0</ele>
                <time>2020-08-21T17:15:56.000Z</time>
                <name>Trackpoint 6938</name>
            </trkpt>
            <trkpt lat="50.1154912" lon="11.3316616">
                <ele>284.0</ele>
                <time>2020-08-21T17:15:58.000Z</time>
                <name>Trackpoint 6939</name>
            </trkpt>
            <trkpt lat="50.1155904" lon="11.3316848">
                <ele>284.0</ele>
                <time>2020-08-21T17:16:00.000Z</time>
                <name>Trackpoint 6940</name>
            </trkpt>
            <trkpt lat="50.1156896" lon="11.331688">
                <ele>284.0</ele>
                <time>2020-08-21T17:16:02.000Z</time>
                <name>Trackpoint 6941</name>
            </trkpt>
            <trkpt lat="50.115792" lon="11.3316848">
                <ele>285.0</ele>
                <time>2020-08-21T17:16:04.000Z</time>
                <name>Trackpoint 6942</name>
            </trkpt>
            <trkpt lat="50.1158912" lon="11.3316896">
                <ele>285.0</ele>
                <time>2020-08-21T17:16:06.000Z</time>
                <name>Trackpoint 6943</name>
            </trkpt>
            <trkpt lat="50.1159904" lon="11.3316968">
                <ele>284.0</ele>
                <time>2020-08-21T17:16:08.000Z</time>
                <name>Trackpoint 6944</name>
            </trkpt>
            <trkpt lat="50.11608" lon="11.3316736">
                <ele>284.0</ele>
                <time>2020-08-21T17:16:10.000Z</time>
                <name>Trackpoint 6945</name>
            </trkpt>
            <trkpt lat="50.1161504" lon="11.3315848">
                <ele>284.0</ele>
                <time>2020-08-21T17:16:12.000Z</time>
                <name>Trackpoint 6946</name>
            </trkpt>
            <trkpt lat="50.116208" lon="11.3314816">
                <ele>285.0</ele>
                <time>2020-08-21T17:16:14.000Z</time>
                <name>Trackpoint 6947</name>
            </trkpt>
            <trkpt lat="50.1162656" lon="11.3313768">
                <ele>285.0</ele>
                <time>2020-08-21T17:16:16.000Z</time>
                <name>Trackpoint 6948</name>
            </trkpt>
            <trkpt lat="50.1163264" lon="11.331272">
                <ele>285.0</ele>
                <time>2020-08-21T17:16:18.000Z</time>
                <name>Trackpoint 6949</name>
            </trkpt>
            <trkpt lat="50.1163872" lon="11.3311656">
                <ele>285.0</ele>
                <time>2020-08-21T17:16:20.000Z</time>
                <name>Trackpoint 6950</name>
            </trkpt>
            <trkpt lat="50.1164448" lon="11.3310544">
                <ele>285.0</ele>
                <time>2020-08-21T17:16:22.000Z</time>
                <name>Trackpoint 6951</name>
            </trkpt>
            <trkpt lat="50.1165056" lon="11.3309384">
                <ele>285.0</ele>
                <time>2020-08-21T17:16:24.000Z</time>
                <name>Trackpoint 6952</name>
            </trkpt>
            <trkpt lat="50.1165568" lon="11.3308136">
                <ele>285.0</ele>
                <time>2020-08-21T17:16:26.000Z</time>
                <name>Trackpoint 6953</name>
            </trkpt>
            <trkpt lat="50.116608" lon="11.3306768">
                <ele>285.0</ele>
                <time>2020-08-21T17:16:28.000Z</time>
                <name>Trackpoint 6954</name>
            </trkpt>
            <trkpt lat="50.116656" lon="11.3305352">
                <ele>285.0</ele>
                <time>2020-08-21T17:16:30.000Z</time>
                <name>Trackpoint 6955</name>
            </trkpt>
            <trkpt lat="50.1167072" lon="11.3303984">
                <ele>285.0</ele>
                <time>2020-08-21T17:16:32.000Z</time>
                <name>Trackpoint 6956</name>
            </trkpt>
            <trkpt lat="50.1167488" lon="11.3302448">
                <ele>285.0</ele>
                <time>2020-08-21T17:16:34.000Z</time>
                <name>Trackpoint 6957</name>
            </trkpt>
            <trkpt lat="50.1168" lon="11.3301016">
                <ele>285.0</ele>
                <time>2020-08-21T17:16:36.000Z</time>
                <name>Trackpoint 6958</name>
            </trkpt>
            <trkpt lat="50.1168416" lon="11.3299568">
                <ele>285.0</ele>
                <time>2020-08-21T17:16:38.000Z</time>
                <name>Trackpoint 6959</name>
            </trkpt>
            <trkpt lat="50.1168896" lon="11.3298264">
                <ele>285.0</ele>
                <time>2020-08-21T17:16:40.000Z</time>
                <name>Trackpoint 6960</name>
            </trkpt>
            <trkpt lat="50.1169408" lon="11.329688">
                <ele>285.0</ele>
                <time>2020-08-21T17:16:42.000Z</time>
                <name>Trackpoint 6961</name>
            </trkpt>
            <trkpt lat="50.1169888" lon="11.3295448">
                <ele>285.0</ele>
                <time>2020-08-21T17:16:44.000Z</time>
                <name>Trackpoint 6962</name>
            </trkpt>
            <trkpt lat="50.1170336" lon="11.3294032">
                <ele>285.0</ele>
                <time>2020-08-21T17:16:46.000Z</time>
                <name>Trackpoint 6963</name>
            </trkpt>
            <trkpt lat="50.1170848" lon="11.3292648">
                <ele>285.0</ele>
                <time>2020-08-21T17:16:48.000Z</time>
                <name>Trackpoint 6964</name>
            </trkpt>
            <trkpt lat="50.1171328" lon="11.3291256">
                <ele>285.0</ele>
                <time>2020-08-21T17:16:50.000Z</time>
                <name>Trackpoint 6965</name>
            </trkpt>
            <trkpt lat="50.1171808" lon="11.3289856">
                <ele>285.0</ele>
                <time>2020-08-21T17:16:52.000Z</time>
                <name>Trackpoint 6966</name>
            </trkpt>
            <trkpt lat="50.117232" lon="11.3288472">
                <ele>285.0</ele>
                <time>2020-08-21T17:16:54.000Z</time>
                <name>Trackpoint 6967</name>
            </trkpt>
            <trkpt lat="50.1172768" lon="11.328696">
                <ele>285.0</ele>
                <time>2020-08-21T17:16:56.000Z</time>
                <name>Trackpoint 6968</name>
            </trkpt>
            <trkpt lat="50.1173248" lon="11.3285576">
                <ele>285.0</ele>
                <time>2020-08-21T17:16:58.000Z</time>
                <name>Trackpoint 6969</name>
            </trkpt>
            <trkpt lat="50.117376" lon="11.32842">
                <ele>285.0</ele>
                <time>2020-08-21T17:17:00.000Z</time>
                <name>Trackpoint 6970</name>
            </trkpt>
            <trkpt lat="50.117424" lon="11.3282808">
                <ele>285.0</ele>
                <time>2020-08-21T17:17:02.000Z</time>
                <name>Trackpoint 6971</name>
            </trkpt>
            <trkpt lat="50.1174752" lon="11.3281432">
                <ele>285.0</ele>
                <time>2020-08-21T17:17:04.000Z</time>
                <name>Trackpoint 6972</name>
            </trkpt>
            <trkpt lat="50.1175232" lon="11.3280112">
                <ele>286.0</ele>
                <time>2020-08-21T17:17:06.000Z</time>
                <name>Trackpoint 6973</name>
            </trkpt>
            <trkpt lat="50.1175776" lon="11.3278768">
                <ele>286.0</ele>
                <time>2020-08-21T17:17:08.000Z</time>
                <name>Trackpoint 6974</name>
            </trkpt>
            <trkpt lat="50.1176256" lon="11.32774">
                <ele>286.0</ele>
                <time>2020-08-21T17:17:10.000Z</time>
                <name>Trackpoint 6975</name>
            </trkpt>
            <trkpt lat="50.1176768" lon="11.3276056">
                <ele>286.0</ele>
                <time>2020-08-21T17:17:12.000Z</time>
                <name>Trackpoint 6976</name>
            </trkpt>
            <trkpt lat="50.1177248" lon="11.3274768">
                <ele>286.0</ele>
                <time>2020-08-21T17:17:14.000Z</time>
                <name>Trackpoint 6977</name>
            </trkpt>
            <trkpt lat="50.117776" lon="11.3273448">
                <ele>286.0</ele>
                <time>2020-08-21T17:17:16.000Z</time>
                <name>Trackpoint 6978</name>
            </trkpt>
            <trkpt lat="50.117824" lon="11.3272112">
                <ele>286.0</ele>
                <time>2020-08-21T17:17:18.000Z</time>
                <name>Trackpoint 6979</name>
            </trkpt>
            <trkpt lat="50.1178688" lon="11.3270712">
                <ele>286.0</ele>
                <time>2020-08-21T17:17:20.000Z</time>
                <name>Trackpoint 6980</name>
            </trkpt>
            <trkpt lat="50.11792" lon="11.3269368">
                <ele>286.0</ele>
                <time>2020-08-21T17:17:22.000Z</time>
                <name>Trackpoint 6981</name>
            </trkpt>
            <trkpt lat="50.117968" lon="11.3268">
                <ele>286.0</ele>
                <time>2020-08-21T17:17:24.000Z</time>
                <name>Trackpoint 6982</name>
            </trkpt>
            <trkpt lat="50.1180192" lon="11.3266672">
                <ele>286.0</ele>
                <time>2020-08-21T17:17:26.000Z</time>
                <name>Trackpoint 6983</name>
            </trkpt>
            <trkpt lat="50.118064" lon="11.3265312">
                <ele>286.0</ele>
                <time>2020-08-21T17:17:28.000Z</time>
                <name>Trackpoint 6984</name>
            </trkpt>
            <trkpt lat="50.118112" lon="11.3264">
                <ele>287.0</ele>
                <time>2020-08-21T17:17:30.000Z</time>
                <name>Trackpoint 6985</name>
            </trkpt>
            <trkpt lat="50.11816" lon="11.326272">
                <ele>287.0</ele>
                <time>2020-08-21T17:17:32.000Z</time>
                <name>Trackpoint 6986</name>
            </trkpt>
            <trkpt lat="50.1182112" lon="11.3261472">
                <ele>287.0</ele>
                <time>2020-08-21T17:17:34.000Z</time>
                <name>Trackpoint 6987</name>
            </trkpt>
            <trkpt lat="50.118256" lon="11.32602">
                <ele>287.0</ele>
                <time>2020-08-21T17:17:36.000Z</time>
                <name>Trackpoint 6988</name>
            </trkpt>
            <trkpt lat="50.1182976" lon="11.3259">
                <ele>287.0</ele>
                <time>2020-08-21T17:17:38.000Z</time>
                <name>Trackpoint 6989</name>
            </trkpt>
            <trkpt lat="50.1183232" lon="11.32578">
                <ele>287.0</ele>
                <time>2020-08-21T17:17:40.000Z</time>
                <name>Trackpoint 6990</name>
            </trkpt>
            <trkpt lat="50.1183232" lon="11.3256568">
                <ele>287.0</ele>
                <time>2020-08-21T17:17:42.000Z</time>
                <name>Trackpoint 6991</name>
            </trkpt>
            <trkpt lat="50.1182912" lon="11.3255384">
                <ele>287.0</ele>
                <time>2020-08-21T17:17:44.000Z</time>
                <name>Trackpoint 6992</name>
            </trkpt>
            <trkpt lat="50.11824" lon="11.3254368">
                <ele>288.0</ele>
                <time>2020-08-21T17:17:46.000Z</time>
                <name>Trackpoint 6993</name>
            </trkpt>
            <trkpt lat="50.1181856" lon="11.3253336">
                <ele>288.0</ele>
                <time>2020-08-21T17:17:48.000Z</time>
                <name>Trackpoint 6994</name>
            </trkpt>
            <trkpt lat="50.1181376" lon="11.3252336">
                <ele>287.0</ele>
                <time>2020-08-21T17:17:50.000Z</time>
                <name>Trackpoint 6995</name>
            </trkpt>
            <trkpt lat="50.1180928" lon="11.3251352">
                <ele>287.0</ele>
                <time>2020-08-21T17:17:52.000Z</time>
                <name>Trackpoint 6996</name>
            </trkpt>
            <trkpt lat="50.1180576" lon="11.3250304">
                <ele>287.0</ele>
                <time>2020-08-21T17:17:54.000Z</time>
                <name>Trackpoint 6997</name>
            </trkpt>
            <trkpt lat="50.1180512" lon="11.3249256">
                <ele>287.0</ele>
                <time>2020-08-21T17:17:56.000Z</time>
                <name>Trackpoint 6998</name>
            </trkpt>
            <trkpt lat="50.118064" lon="11.324812">
                <ele>287.0</ele>
                <time>2020-08-21T17:17:59.000Z</time>
                <name>Trackpoint 6999</name>
            </trkpt>
            <trkpt lat="50.1181024" lon="11.3247136">
                <ele>287.0</ele>
                <time>2020-08-21T17:18:35.000Z</time>
                <name>Trackpoint 7000</name>
            </trkpt>
            <trkpt lat="50.1181504" lon="11.3245832">
                <ele>287.0</ele>
                <time>2020-08-21T17:18:38.000Z</time>
                <name>Trackpoint 7001</name>
            </trkpt>
            <trkpt lat="50.1181824" lon="11.3244712">
                <ele>287.0</ele>
                <time>2020-08-21T17:18:40.000Z</time>
                <name>Trackpoint 7002</name>
            </trkpt>
            <trkpt lat="50.118224" lon="11.3243488">
                <ele>287.0</ele>
                <time>2020-08-21T17:18:42.000Z</time>
                <name>Trackpoint 7003</name>
            </trkpt>
            <trkpt lat="50.1182752" lon="11.3242168">
                <ele>287.0</ele>
                <time>2020-08-21T17:18:44.000Z</time>
                <name>Trackpoint 7004</name>
            </trkpt>
            <trkpt lat="50.11832" lon="11.3240744">
                <ele>287.0</ele>
                <time>2020-08-21T17:18:46.000Z</time>
                <name>Trackpoint 7005</name>
            </trkpt>
            <trkpt lat="50.1183648" lon="11.3239296">
                <ele>287.0</ele>
                <time>2020-08-21T17:18:48.000Z</time>
                <name>Trackpoint 7006</name>
            </trkpt>
            <trkpt lat="50.118416" lon="11.3237832">
                <ele>287.0</ele>
                <time>2020-08-21T17:18:50.000Z</time>
                <name>Trackpoint 7007</name>
            </trkpt>
            <trkpt lat="50.118464" lon="11.3236312">
                <ele>287.0</ele>
                <time>2020-08-21T17:18:52.000Z</time>
                <name>Trackpoint 7008</name>
            </trkpt>
            <trkpt lat="50.1185152" lon="11.3234816">
                <ele>287.0</ele>
                <time>2020-08-21T17:18:54.000Z</time>
                <name>Trackpoint 7009</name>
            </trkpt>
            <trkpt lat="50.1185632" lon="11.323328">
                <ele>287.0</ele>
                <time>2020-08-21T17:18:56.000Z</time>
                <name>Trackpoint 7010</name>
            </trkpt>
            <trkpt lat="50.1186176" lon="11.323176">
                <ele>286.0</ele>
                <time>2020-08-21T17:18:58.000Z</time>
                <name>Trackpoint 7011</name>
            </trkpt>
            <trkpt lat="50.1186688" lon="11.32302">
                <ele>286.0</ele>
                <time>2020-08-21T17:19:00.000Z</time>
                <name>Trackpoint 7012</name>
            </trkpt>
            <trkpt lat="50.11872" lon="11.3228632">
                <ele>286.0</ele>
                <time>2020-08-21T17:19:02.000Z</time>
                <name>Trackpoint 7013</name>
            </trkpt>
            <trkpt lat="50.1187744" lon="11.3227056">
                <ele>286.0</ele>
                <time>2020-08-21T17:19:04.000Z</time>
                <name>Trackpoint 7014</name>
            </trkpt>
            <trkpt lat="50.1188256" lon="11.3225416">
                <ele>286.0</ele>
                <time>2020-08-21T17:19:06.000Z</time>
                <name>Trackpoint 7015</name>
            </trkpt>
            <trkpt lat="50.1188736" lon="11.3223784">
                <ele>286.0</ele>
                <time>2020-08-21T17:19:08.000Z</time>
                <name>Trackpoint 7016</name>
            </trkpt>
            <trkpt lat="50.118928" lon="11.3222216">
                <ele>286.0</ele>
                <time>2020-08-21T17:19:10.000Z</time>
                <name>Trackpoint 7017</name>
            </trkpt>
            <trkpt lat="50.118976" lon="11.3220664">
                <ele>286.0</ele>
                <time>2020-08-21T17:19:12.000Z</time>
                <name>Trackpoint 7018</name>
            </trkpt>
            <trkpt lat="50.1190304" lon="11.3219136">
                <ele>286.0</ele>
                <time>2020-08-21T17:19:14.000Z</time>
                <name>Trackpoint 7019</name>
            </trkpt>
            <trkpt lat="50.1190752" lon="11.3217552">
                <ele>286.0</ele>
                <time>2020-08-21T17:19:16.000Z</time>
                <name>Trackpoint 7020</name>
            </trkpt>
            <trkpt lat="50.1191264" lon="11.321604">
                <ele>286.0</ele>
                <time>2020-08-21T17:19:18.000Z</time>
                <name>Trackpoint 7021</name>
            </trkpt>
            <trkpt lat="50.1191744" lon="11.321452">
                <ele>286.0</ele>
                <time>2020-08-21T17:19:20.000Z</time>
                <name>Trackpoint 7022</name>
            </trkpt>
            <trkpt lat="50.1192256" lon="11.3212992">
                <ele>286.0</ele>
                <time>2020-08-21T17:19:22.000Z</time>
                <name>Trackpoint 7023</name>
            </trkpt>
            <trkpt lat="50.1192768" lon="11.321152">
                <ele>286.0</ele>
                <time>2020-08-21T17:19:24.000Z</time>
                <name>Trackpoint 7024</name>
            </trkpt>
            <trkpt lat="50.119328" lon="11.3210024">
                <ele>286.0</ele>
                <time>2020-08-21T17:19:26.000Z</time>
                <name>Trackpoint 7025</name>
            </trkpt>
            <trkpt lat="50.119376" lon="11.3208504">
                <ele>286.0</ele>
                <time>2020-08-21T17:19:28.000Z</time>
                <name>Trackpoint 7026</name>
            </trkpt>
            <trkpt lat="50.1194272" lon="11.3206968">
                <ele>286.0</ele>
                <time>2020-08-21T17:19:30.000Z</time>
                <name>Trackpoint 7027</name>
            </trkpt>
            <trkpt lat="50.119472" lon="11.3205472">
                <ele>286.0</ele>
                <time>2020-08-21T17:19:32.000Z</time>
                <name>Trackpoint 7028</name>
            </trkpt>
            <trkpt lat="50.1195232" lon="11.3203968">
                <ele>285.0</ele>
                <time>2020-08-21T17:19:34.000Z</time>
                <name>Trackpoint 7029</name>
            </trkpt>
            <trkpt lat="50.1195712" lon="11.3202464">
                <ele>285.0</ele>
                <time>2020-08-21T17:19:36.000Z</time>
                <name>Trackpoint 7030</name>
            </trkpt>
            <trkpt lat="50.1196224" lon="11.3200952">
                <ele>285.0</ele>
                <time>2020-08-21T17:19:38.000Z</time>
                <name>Trackpoint 7031</name>
            </trkpt>
            <trkpt lat="50.1196672" lon="11.3199456">
                <ele>285.0</ele>
                <time>2020-08-21T17:19:40.000Z</time>
                <name>Trackpoint 7032</name>
            </trkpt>
            <trkpt lat="50.1197152" lon="11.3197984">
                <ele>285.0</ele>
                <time>2020-08-21T17:19:42.000Z</time>
                <name>Trackpoint 7033</name>
            </trkpt>
            <trkpt lat="50.1197664" lon="11.3196536">
                <ele>285.0</ele>
                <time>2020-08-21T17:19:44.000Z</time>
                <name>Trackpoint 7034</name>
            </trkpt>
            <trkpt lat="50.119808" lon="11.31952">
                <ele>285.0</ele>
                <time>2020-08-21T17:19:46.000Z</time>
                <name>Trackpoint 7035</name>
            </trkpt>
            <trkpt lat="50.1198496" lon="11.3193912">
                <ele>285.0</ele>
                <time>2020-08-21T17:19:48.000Z</time>
                <name>Trackpoint 7036</name>
            </trkpt>
            <trkpt lat="50.1198848" lon="11.3192784">
                <ele>285.0</ele>
                <time>2020-08-21T17:19:50.000Z</time>
                <name>Trackpoint 7037</name>
            </trkpt>
            <trkpt lat="50.1199232" lon="11.3191864">
                <ele>285.0</ele>
                <time>2020-08-21T17:19:52.000Z</time>
                <name>Trackpoint 7038</name>
            </trkpt>
            <trkpt lat="50.1200064" lon="11.3191">
                <ele>285.0</ele>
                <time>2020-08-21T17:19:55.000Z</time>
                <name>Trackpoint 7039</name>
            </trkpt>
            <trkpt lat="50.1201184" lon="11.319112">
                <ele>285.0</ele>
                <time>2020-08-21T17:19:58.000Z</time>
                <name>Trackpoint 7040</name>
            </trkpt>
            <trkpt lat="50.1202016" lon="11.3191568">
                <ele>285.0</ele>
                <time>2020-08-21T17:20:00.000Z</time>
                <name>Trackpoint 7041</name>
            </trkpt>
            <trkpt lat="50.1202816" lon="11.3191984">
                <ele>285.0</ele>
                <time>2020-08-21T17:20:02.000Z</time>
                <name>Trackpoint 7042</name>
            </trkpt>
            <trkpt lat="50.1204032" lon="11.319248">
                <ele>285.0</ele>
                <time>2020-08-21T17:20:05.000Z</time>
                <name>Trackpoint 7043</name>
            </trkpt>
            <trkpt lat="50.1205088" lon="11.3192856">
                <ele>285.0</ele>
                <time>2020-08-21T17:20:08.000Z</time>
                <name>Trackpoint 7044</name>
            </trkpt>
            <trkpt lat="50.120608" lon="11.319252">
                <ele>285.0</ele>
                <time>2020-08-21T17:20:13.000Z</time>
                <name>Trackpoint 7045</name>
            </trkpt>
            <trkpt lat="50.1206272" lon="11.319152">
                <ele>285.0</ele>
                <time>2020-08-21T17:20:20.000Z</time>
                <name>Trackpoint 7046</name>
            </trkpt>
            <trkpt lat="50.1206528" lon="11.3190416">
                <ele>285.0</ele>
                <time>2020-08-21T17:20:22.000Z</time>
                <name>Trackpoint 7047</name>
            </trkpt>
            <trkpt lat="50.1206944" lon="11.31892">
                <ele>285.0</ele>
                <time>2020-08-21T17:20:24.000Z</time>
                <name>Trackpoint 7048</name>
            </trkpt>
            <trkpt lat="50.1207424" lon="11.3187984">
                <ele>285.0</ele>
                <time>2020-08-21T17:20:26.000Z</time>
                <name>Trackpoint 7049</name>
            </trkpt>
            <trkpt lat="50.1208" lon="11.3186768">
                <ele>285.0</ele>
                <time>2020-08-21T17:20:28.000Z</time>
                <name>Trackpoint 7050</name>
            </trkpt>
            <trkpt lat="50.1208544" lon="11.3185504">
                <ele>285.0</ele>
                <time>2020-08-21T17:20:30.000Z</time>
                <name>Trackpoint 7051</name>
            </trkpt>
            <trkpt lat="50.1208992" lon="11.3184168">
                <ele>285.0</ele>
                <time>2020-08-21T17:20:32.000Z</time>
                <name>Trackpoint 7052</name>
            </trkpt>
            <trkpt lat="50.120944" lon="11.318272">
                <ele>285.0</ele>
                <time>2020-08-21T17:20:34.000Z</time>
                <name>Trackpoint 7053</name>
            </trkpt>
            <trkpt lat="50.120992" lon="11.3181248">
                <ele>285.0</ele>
                <time>2020-08-21T17:20:36.000Z</time>
                <name>Trackpoint 7054</name>
            </trkpt>
            <trkpt lat="50.12104" lon="11.317984">
                <ele>285.0</ele>
                <time>2020-08-21T17:20:38.000Z</time>
                <name>Trackpoint 7055</name>
            </trkpt>
            <trkpt lat="50.1210784" lon="11.3178232">
                <ele>285.0</ele>
                <time>2020-08-21T17:20:40.000Z</time>
                <name>Trackpoint 7056</name>
            </trkpt>
            <trkpt lat="50.1211168" lon="11.317672">
                <ele>285.0</ele>
                <time>2020-08-21T17:20:42.000Z</time>
                <name>Trackpoint 7057</name>
            </trkpt>
            <trkpt lat="50.1211712" lon="11.3175336">
                <ele>285.0</ele>
                <time>2020-08-21T17:20:44.000Z</time>
                <name>Trackpoint 7058</name>
            </trkpt>
            <trkpt lat="50.121216" lon="11.3173784">
                <ele>285.0</ele>
                <time>2020-08-21T17:20:46.000Z</time>
                <name>Trackpoint 7059</name>
            </trkpt>
            <trkpt lat="50.1212608" lon="11.3172232">
                <ele>285.0</ele>
                <time>2020-08-21T17:20:48.000Z</time>
                <name>Trackpoint 7060</name>
            </trkpt>
            <trkpt lat="50.1213152" lon="11.3170768">
                <ele>285.0</ele>
                <time>2020-08-21T17:20:50.000Z</time>
                <name>Trackpoint 7061</name>
            </trkpt>
            <trkpt lat="50.1213632" lon="11.3169248">
                <ele>285.0</ele>
                <time>2020-08-21T17:20:52.000Z</time>
                <name>Trackpoint 7062</name>
            </trkpt>
            <trkpt lat="50.1214208" lon="11.3167752">
                <ele>285.0</ele>
                <time>2020-08-21T17:20:54.000Z</time>
                <name>Trackpoint 7063</name>
            </trkpt>
            <trkpt lat="50.121472" lon="11.3166264">
                <ele>285.0</ele>
                <time>2020-08-21T17:20:56.000Z</time>
                <name>Trackpoint 7064</name>
            </trkpt>
            <trkpt lat="50.1215264" lon="11.316472">
                <ele>284.0</ele>
                <time>2020-08-21T17:20:58.000Z</time>
                <name>Trackpoint 7065</name>
            </trkpt>
            <trkpt lat="50.1215776" lon="11.3163272">
                <ele>284.0</ele>
                <time>2020-08-21T17:21:00.000Z</time>
                <name>Trackpoint 7066</name>
            </trkpt>
            <trkpt lat="50.1216288" lon="11.3161848">
                <ele>285.0</ele>
                <time>2020-08-21T17:21:02.000Z</time>
                <name>Trackpoint 7067</name>
            </trkpt>
            <trkpt lat="50.12168" lon="11.3160432">
                <ele>284.0</ele>
                <time>2020-08-21T17:21:04.000Z</time>
                <name>Trackpoint 7068</name>
            </trkpt>
            <trkpt lat="50.1217344" lon="11.3159">
                <ele>284.0</ele>
                <time>2020-08-21T17:21:06.000Z</time>
                <name>Trackpoint 7069</name>
            </trkpt>
            <trkpt lat="50.1217888" lon="11.3157568">
                <ele>285.0</ele>
                <time>2020-08-21T17:21:08.000Z</time>
                <name>Trackpoint 7070</name>
            </trkpt>
            <trkpt lat="50.1218464" lon="11.315612">
                <ele>285.0</ele>
                <time>2020-08-21T17:21:10.000Z</time>
                <name>Trackpoint 7071</name>
            </trkpt>
            <trkpt lat="50.1218944" lon="11.3154832">
                <ele>285.0</ele>
                <time>2020-08-21T17:21:12.000Z</time>
                <name>Trackpoint 7072</name>
            </trkpt>
            <trkpt lat="50.1219552" lon="11.3153432">
                <ele>285.0</ele>
                <time>2020-08-21T17:21:14.000Z</time>
                <name>Trackpoint 7073</name>
            </trkpt>
            <trkpt lat="50.1220128" lon="11.3152">
                <ele>285.0</ele>
                <time>2020-08-21T17:21:16.000Z</time>
                <name>Trackpoint 7074</name>
            </trkpt>
            <trkpt lat="50.1220736" lon="11.315068">
                <ele>285.0</ele>
                <time>2020-08-21T17:21:18.000Z</time>
                <name>Trackpoint 7075</name>
            </trkpt>
            <trkpt lat="50.1221344" lon="11.314932">
                <ele>285.0</ele>
                <time>2020-08-21T17:21:20.000Z</time>
                <name>Trackpoint 7076</name>
            </trkpt>
            <trkpt lat="50.1221888" lon="11.314792">
                <ele>285.0</ele>
                <time>2020-08-21T17:21:22.000Z</time>
                <name>Trackpoint 7077</name>
            </trkpt>
            <trkpt lat="50.1222464" lon="11.3146464">
                <ele>285.0</ele>
                <time>2020-08-21T17:21:24.000Z</time>
                <name>Trackpoint 7078</name>
            </trkpt>
            <trkpt lat="50.122304" lon="11.3144976">
                <ele>285.0</ele>
                <time>2020-08-21T17:21:26.000Z</time>
                <name>Trackpoint 7079</name>
            </trkpt>
            <trkpt lat="50.1223616" lon="11.3143504">
                <ele>285.0</ele>
                <time>2020-08-21T17:21:28.000Z</time>
                <name>Trackpoint 7080</name>
            </trkpt>
            <trkpt lat="50.1224096" lon="11.3142016">
                <ele>285.0</ele>
                <time>2020-08-21T17:21:30.000Z</time>
                <name>Trackpoint 7081</name>
            </trkpt>
            <trkpt lat="50.1224672" lon="11.3140472">
                <ele>285.0</ele>
                <time>2020-08-21T17:21:32.000Z</time>
                <name>Trackpoint 7082</name>
            </trkpt>
            <trkpt lat="50.1225216" lon="11.3138904">
                <ele>285.0</ele>
                <time>2020-08-21T17:21:34.000Z</time>
                <name>Trackpoint 7083</name>
            </trkpt>
            <trkpt lat="50.1225792" lon="11.3137328">
                <ele>285.0</ele>
                <time>2020-08-21T17:21:36.000Z</time>
                <name>Trackpoint 7084</name>
            </trkpt>
            <trkpt lat="50.122624" lon="11.3135816">
                <ele>285.0</ele>
                <time>2020-08-21T17:21:38.000Z</time>
                <name>Trackpoint 7085</name>
            </trkpt>
            <trkpt lat="50.1226784" lon="11.313428">
                <ele>285.0</ele>
                <time>2020-08-21T17:21:40.000Z</time>
                <name>Trackpoint 7086</name>
            </trkpt>
            <trkpt lat="50.1227328" lon="11.3132712">
                <ele>285.0</ele>
                <time>2020-08-21T17:21:42.000Z</time>
                <name>Trackpoint 7087</name>
            </trkpt>
            <trkpt lat="50.1227904" lon="11.3131104">
                <ele>285.0</ele>
                <time>2020-08-21T17:21:44.000Z</time>
                <name>Trackpoint 7088</name>
            </trkpt>
            <trkpt lat="50.1228416" lon="11.312948">
                <ele>285.0</ele>
                <time>2020-08-21T17:21:46.000Z</time>
                <name>Trackpoint 7089</name>
            </trkpt>
            <trkpt lat="50.1228928" lon="11.3127848">
                <ele>284.0</ele>
                <time>2020-08-21T17:21:48.000Z</time>
                <name>Trackpoint 7090</name>
            </trkpt>
            <trkpt lat="50.1229472" lon="11.31262">
                <ele>284.0</ele>
                <time>2020-08-21T17:21:50.000Z</time>
                <name>Trackpoint 7091</name>
            </trkpt>
            <trkpt lat="50.122992" lon="11.3124536">
                <ele>284.0</ele>
                <time>2020-08-21T17:21:52.000Z</time>
                <name>Trackpoint 7092</name>
            </trkpt>
            <trkpt lat="50.1230208" lon="11.3122864">
                <ele>284.0</ele>
                <time>2020-08-21T17:21:54.000Z</time>
                <name>Trackpoint 7093</name>
            </trkpt>
            <trkpt lat="50.1230496" lon="11.3121216">
                <ele>284.0</ele>
                <time>2020-08-21T17:21:56.000Z</time>
                <name>Trackpoint 7094</name>
            </trkpt>
            <trkpt lat="50.1230816" lon="11.3119552">
                <ele>284.0</ele>
                <time>2020-08-21T17:21:58.000Z</time>
                <name>Trackpoint 7095</name>
            </trkpt>
            <trkpt lat="50.1231104" lon="11.3117912">
                <ele>284.0</ele>
                <time>2020-08-21T17:22:00.000Z</time>
                <name>Trackpoint 7096</name>
            </trkpt>
            <trkpt lat="50.1231488" lon="11.3116264">
                <ele>284.0</ele>
                <time>2020-08-21T17:22:02.000Z</time>
                <name>Trackpoint 7097</name>
            </trkpt>
            <trkpt lat="50.1231904" lon="11.3114656">
                <ele>284.0</ele>
                <time>2020-08-21T17:22:04.000Z</time>
                <name>Trackpoint 7098</name>
            </trkpt>
            <trkpt lat="50.1232384" lon="11.3113016">
                <ele>284.0</ele>
                <time>2020-08-21T17:22:06.000Z</time>
                <name>Trackpoint 7099</name>
            </trkpt>
            <trkpt lat="50.12328" lon="11.3111296">
                <ele>284.0</ele>
                <time>2020-08-21T17:22:08.000Z</time>
                <name>Trackpoint 7100</name>
            </trkpt>
            <trkpt lat="50.1233216" lon="11.3109568">
                <ele>284.0</ele>
                <time>2020-08-21T17:22:10.000Z</time>
                <name>Trackpoint 7101</name>
            </trkpt>
            <trkpt lat="50.12336" lon="11.310792">
                <ele>284.0</ele>
                <time>2020-08-21T17:22:12.000Z</time>
                <name>Trackpoint 7102</name>
            </trkpt>
            <trkpt lat="50.1233952" lon="11.310628">
                <ele>284.0</ele>
                <time>2020-08-21T17:22:14.000Z</time>
                <name>Trackpoint 7103</name>
            </trkpt>
            <trkpt lat="50.1234336" lon="11.310456">
                <ele>284.0</ele>
                <time>2020-08-21T17:22:16.000Z</time>
                <name>Trackpoint 7104</name>
            </trkpt>
            <trkpt lat="50.1234688" lon="11.310304">
                <ele>284.0</ele>
                <time>2020-08-21T17:22:18.000Z</time>
                <name>Trackpoint 7105</name>
            </trkpt>
            <trkpt lat="50.1235072" lon="11.3101464">
                <ele>284.0</ele>
                <time>2020-08-21T17:22:20.000Z</time>
                <name>Trackpoint 7106</name>
            </trkpt>
            <trkpt lat="50.1235584" lon="11.3099832">
                <ele>284.0</ele>
                <time>2020-08-21T17:22:22.000Z</time>
                <name>Trackpoint 7107</name>
            </trkpt>
            <trkpt lat="50.1236032" lon="11.3098152">
                <ele>284.0</ele>
                <time>2020-08-21T17:22:24.000Z</time>
                <name>Trackpoint 7108</name>
            </trkpt>
            <trkpt lat="50.1236256" lon="11.3097248">
                <ele>284.0</ele>
                <time>2020-08-21T17:22:25.000Z</time>
                <name>Trackpoint 7109</name>
            </trkpt>
            <trkpt lat="50.123664" lon="11.3095528">
                <ele>284.0</ele>
                <time>2020-08-21T17:22:27.000Z</time>
                <name>Trackpoint 7110</name>
            </trkpt>
            <trkpt lat="50.1237056" lon="11.309392">
                <ele>284.0</ele>
                <time>2020-08-21T17:22:29.000Z</time>
                <name>Trackpoint 7111</name>
            </trkpt>
            <trkpt lat="50.123712" lon="11.309288">
                <ele>284.0</ele>
                <time>2020-08-21T17:22:30.000Z</time>
                <name>Trackpoint 7112</name>
            </trkpt>
            <trkpt lat="50.1237312" lon="11.3091984">
                <ele>284.0</ele>
                <time>2020-08-21T17:22:31.000Z</time>
                <name>Trackpoint 7113</name>
            </trkpt>
            <trkpt lat="50.1237568" lon="11.3091048">
                <ele>284.0</ele>
                <time>2020-08-21T17:22:32.000Z</time>
                <name>Trackpoint 7114</name>
            </trkpt>
            <trkpt lat="50.123776" lon="11.3090112">
                <ele>284.0</ele>
                <time>2020-08-21T17:22:33.000Z</time>
                <name>Trackpoint 7115</name>
            </trkpt>
            <trkpt lat="50.1238016" lon="11.3089248">
                <ele>284.0</ele>
                <time>2020-08-21T17:22:34.000Z</time>
                <name>Trackpoint 7116</name>
            </trkpt>
            <trkpt lat="50.123824" lon="11.3088352">
                <ele>284.0</ele>
                <time>2020-08-21T17:22:35.000Z</time>
                <name>Trackpoint 7117</name>
            </trkpt>
            <trkpt lat="50.1238432" lon="11.3087432">
                <ele>284.0</ele>
                <time>2020-08-21T17:22:36.000Z</time>
                <name>Trackpoint 7118</name>
            </trkpt>
            <trkpt lat="50.1238656" lon="11.3086504">
                <ele>284.0</ele>
                <time>2020-08-21T17:22:37.000Z</time>
                <name>Trackpoint 7119</name>
            </trkpt>
            <trkpt lat="50.1238944" lon="11.3085544">
                <ele>284.0</ele>
                <time>2020-08-21T17:22:38.000Z</time>
                <name>Trackpoint 7120</name>
            </trkpt>
            <trkpt lat="50.1239168" lon="11.3084584">
                <ele>284.0</ele>
                <time>2020-08-21T17:22:39.000Z</time>
                <name>Trackpoint 7121</name>
            </trkpt>
            <trkpt lat="50.1239424" lon="11.3083624">
                <ele>284.0</ele>
                <time>2020-08-21T17:22:40.000Z</time>
                <name>Trackpoint 7122</name>
            </trkpt>
            <trkpt lat="50.1239648" lon="11.3082736">
                <ele>284.0</ele>
                <time>2020-08-21T17:22:41.000Z</time>
                <name>Trackpoint 7123</name>
            </trkpt>
            <trkpt lat="50.1239936" lon="11.30818">
                <ele>284.0</ele>
                <time>2020-08-21T17:22:42.000Z</time>
                <name>Trackpoint 7124</name>
            </trkpt>
            <trkpt lat="50.124016" lon="11.308088">
                <ele>284.0</ele>
                <time>2020-08-21T17:22:43.000Z</time>
                <name>Trackpoint 7125</name>
            </trkpt>
            <trkpt lat="50.1240416" lon="11.3079952">
                <ele>284.0</ele>
                <time>2020-08-21T17:22:44.000Z</time>
                <name>Trackpoint 7126</name>
            </trkpt>
            <trkpt lat="50.124064" lon="11.3078984">
                <ele>285.0</ele>
                <time>2020-08-21T17:22:45.000Z</time>
                <name>Trackpoint 7127</name>
            </trkpt>
            <trkpt lat="50.1240896" lon="11.3078016">
                <ele>285.0</ele>
                <time>2020-08-21T17:22:46.000Z</time>
                <name>Trackpoint 7128</name>
            </trkpt>
            <trkpt lat="50.124112" lon="11.3077072">
                <ele>285.0</ele>
                <time>2020-08-21T17:22:47.000Z</time>
                <name>Trackpoint 7129</name>
            </trkpt>
            <trkpt lat="50.1241344" lon="11.3076096">
                <ele>285.0</ele>
                <time>2020-08-21T17:22:48.000Z</time>
                <name>Trackpoint 7130</name>
            </trkpt>
            <trkpt lat="50.1241536" lon="11.3075152">
                <ele>285.0</ele>
                <time>2020-08-21T17:22:49.000Z</time>
                <name>Trackpoint 7131</name>
            </trkpt>
            <trkpt lat="50.1241792" lon="11.30742">
                <ele>285.0</ele>
                <time>2020-08-21T17:22:50.000Z</time>
                <name>Trackpoint 7132</name>
            </trkpt>
            <trkpt lat="50.1242112" lon="11.3073304">
                <ele>285.0</ele>
                <time>2020-08-21T17:22:51.000Z</time>
                <name>Trackpoint 7133</name>
            </trkpt>
            <trkpt lat="50.1242336" lon="11.3072392">
                <ele>285.0</ele>
                <time>2020-08-21T17:22:52.000Z</time>
                <name>Trackpoint 7134</name>
            </trkpt>
            <trkpt lat="50.124256" lon="11.307152">
                <ele>285.0</ele>
                <time>2020-08-21T17:22:53.000Z</time>
                <name>Trackpoint 7135</name>
            </trkpt>
            <trkpt lat="50.1242784" lon="11.30706">
                <ele>284.0</ele>
                <time>2020-08-21T17:22:54.000Z</time>
                <name>Trackpoint 7136</name>
            </trkpt>
            <trkpt lat="50.1243008" lon="11.3069632">
                <ele>284.0</ele>
                <time>2020-08-21T17:22:55.000Z</time>
                <name>Trackpoint 7137</name>
            </trkpt>
            <trkpt lat="50.12432" lon="11.3068648">
                <ele>284.0</ele>
                <time>2020-08-21T17:22:56.000Z</time>
                <name>Trackpoint 7138</name>
            </trkpt>
            <trkpt lat="50.1243392" lon="11.3067648">
                <ele>284.0</ele>
                <time>2020-08-21T17:22:57.000Z</time>
                <name>Trackpoint 7139</name>
            </trkpt>
            <trkpt lat="50.124368" lon="11.306668">
                <ele>285.0</ele>
                <time>2020-08-21T17:22:58.000Z</time>
                <name>Trackpoint 7140</name>
            </trkpt>
            <trkpt lat="50.1243904" lon="11.3065728">
                <ele>285.0</ele>
                <time>2020-08-21T17:22:59.000Z</time>
                <name>Trackpoint 7141</name>
            </trkpt>
            <trkpt lat="50.1244096" lon="11.3064784">
                <ele>285.0</ele>
                <time>2020-08-21T17:23:00.000Z</time>
                <name>Trackpoint 7142</name>
            </trkpt>
            <trkpt lat="50.124432" lon="11.30638">
                <ele>285.0</ele>
                <time>2020-08-21T17:23:01.000Z</time>
                <name>Trackpoint 7143</name>
            </trkpt>
            <trkpt lat="50.1244544" lon="11.30628">
                <ele>285.0</ele>
                <time>2020-08-21T17:23:02.000Z</time>
                <name>Trackpoint 7144</name>
            </trkpt>
            <trkpt lat="50.1244736" lon="11.3061848">
                <ele>285.0</ele>
                <time>2020-08-21T17:23:03.000Z</time>
                <name>Trackpoint 7145</name>
            </trkpt>
            <trkpt lat="50.1244896" lon="11.3060864">
                <ele>284.0</ele>
                <time>2020-08-21T17:23:04.000Z</time>
                <name>Trackpoint 7146</name>
            </trkpt>
            <trkpt lat="50.124512" lon="11.305988">
                <ele>284.0</ele>
                <time>2020-08-21T17:23:05.000Z</time>
                <name>Trackpoint 7147</name>
            </trkpt>
            <trkpt lat="50.1245312" lon="11.3058856">
                <ele>284.0</ele>
                <time>2020-08-21T17:23:06.000Z</time>
                <name>Trackpoint 7148</name>
            </trkpt>
            <trkpt lat="50.1245504" lon="11.3057816">
                <ele>284.0</ele>
                <time>2020-08-21T17:23:07.000Z</time>
                <name>Trackpoint 7149</name>
            </trkpt>
            <trkpt lat="50.124576" lon="11.30568">
                <ele>284.0</ele>
                <time>2020-08-21T17:23:08.000Z</time>
                <name>Trackpoint 7150</name>
            </trkpt>
            <trkpt lat="50.1245952" lon="11.3055784">
                <ele>284.0</ele>
                <time>2020-08-21T17:23:09.000Z</time>
                <name>Trackpoint 7151</name>
            </trkpt>
            <trkpt lat="50.1246176" lon="11.3054784">
                <ele>284.0</ele>
                <time>2020-08-21T17:23:10.000Z</time>
                <name>Trackpoint 7152</name>
            </trkpt>
            <trkpt lat="50.1246464" lon="11.3053776">
                <ele>284.0</ele>
                <time>2020-08-21T17:23:11.000Z</time>
                <name>Trackpoint 7153</name>
            </trkpt>
            <trkpt lat="50.1246688" lon="11.3052728">
                <ele>284.0</ele>
                <time>2020-08-21T17:23:12.000Z</time>
                <name>Trackpoint 7154</name>
            </trkpt>
            <trkpt lat="50.124688" lon="11.305172">
                <ele>284.0</ele>
                <time>2020-08-21T17:23:13.000Z</time>
                <name>Trackpoint 7155</name>
            </trkpt>
            <trkpt lat="50.1247072" lon="11.3050696">
                <ele>284.0</ele>
                <time>2020-08-21T17:23:14.000Z</time>
                <name>Trackpoint 7156</name>
            </trkpt>
            <trkpt lat="50.12472" lon="11.3049632">
                <ele>284.0</ele>
                <time>2020-08-21T17:23:15.000Z</time>
                <name>Trackpoint 7157</name>
            </trkpt>
            <trkpt lat="50.1247392" lon="11.3048584">
                <ele>284.0</ele>
                <time>2020-08-21T17:23:16.000Z</time>
                <name>Trackpoint 7158</name>
            </trkpt>
            <trkpt lat="50.124752" lon="11.3047536">
                <ele>284.0</ele>
                <time>2020-08-21T17:23:17.000Z</time>
                <name>Trackpoint 7159</name>
            </trkpt>
            <trkpt lat="50.1247648" lon="11.304648">
                <ele>284.0</ele>
                <time>2020-08-21T17:23:18.000Z</time>
                <name>Trackpoint 7160</name>
            </trkpt>
            <trkpt lat="50.1247744" lon="11.3045368">
                <ele>284.0</ele>
                <time>2020-08-21T17:23:19.000Z</time>
                <name>Trackpoint 7161</name>
            </trkpt>
            <trkpt lat="50.124784" lon="11.304428">
                <ele>284.0</ele>
                <time>2020-08-21T17:23:20.000Z</time>
                <name>Trackpoint 7162</name>
            </trkpt>
            <trkpt lat="50.1247904" lon="11.3043184">
                <ele>284.0</ele>
                <time>2020-08-21T17:23:21.000Z</time>
                <name>Trackpoint 7163</name>
            </trkpt>
            <trkpt lat="50.1247904" lon="11.3042072">
                <ele>284.0</ele>
                <time>2020-08-21T17:23:22.000Z</time>
                <name>Trackpoint 7164</name>
            </trkpt>
            <trkpt lat="50.1247936" lon="11.3041">
                <ele>284.0</ele>
                <time>2020-08-21T17:23:23.000Z</time>
                <name>Trackpoint 7165</name>
            </trkpt>
            <trkpt lat="50.1248032" lon="11.3039968">
                <ele>284.0</ele>
                <time>2020-08-21T17:23:24.000Z</time>
                <name>Trackpoint 7166</name>
            </trkpt>
            <trkpt lat="50.1248032" lon="11.3038864">
                <ele>284.0</ele>
                <time>2020-08-21T17:23:25.000Z</time>
                <name>Trackpoint 7167</name>
            </trkpt>
            <trkpt lat="50.1247968" lon="11.303772">
                <ele>284.0</ele>
                <time>2020-08-21T17:23:26.000Z</time>
                <name>Trackpoint 7168</name>
            </trkpt>
            <trkpt lat="50.1247968" lon="11.3036616">
                <ele>284.0</ele>
                <time>2020-08-21T17:23:27.000Z</time>
                <name>Trackpoint 7169</name>
            </trkpt>
            <trkpt lat="50.1247936" lon="11.3035496">
                <ele>284.0</ele>
                <time>2020-08-21T17:23:28.000Z</time>
                <name>Trackpoint 7170</name>
            </trkpt>
            <trkpt lat="50.1247904" lon="11.3034448">
                <ele>284.0</ele>
                <time>2020-08-21T17:23:29.000Z</time>
                <name>Trackpoint 7171</name>
            </trkpt>
            <trkpt lat="50.1247904" lon="11.3033352">
                <ele>284.0</ele>
                <time>2020-08-21T17:23:30.000Z</time>
                <name>Trackpoint 7172</name>
            </trkpt>
            <trkpt lat="50.1247904" lon="11.303228">
                <ele>284.0</ele>
                <time>2020-08-21T17:23:31.000Z</time>
                <name>Trackpoint 7173</name>
            </trkpt>
            <trkpt lat="50.1247872" lon="11.3031232">
                <ele>284.0</ele>
                <time>2020-08-21T17:23:32.000Z</time>
                <name>Trackpoint 7174</name>
            </trkpt>
            <trkpt lat="50.1247872" lon="11.3030184">
                <ele>284.0</ele>
                <time>2020-08-21T17:23:33.000Z</time>
                <name>Trackpoint 7175</name>
            </trkpt>
            <trkpt lat="50.124784" lon="11.3029096">
                <ele>284.0</ele>
                <time>2020-08-21T17:23:34.000Z</time>
                <name>Trackpoint 7176</name>
            </trkpt>
            <trkpt lat="50.1247776" lon="11.3028048">
                <ele>284.0</ele>
                <time>2020-08-21T17:23:35.000Z</time>
                <name>Trackpoint 7177</name>
            </trkpt>
            <trkpt lat="50.1247744" lon="11.3027">
                <ele>284.0</ele>
                <time>2020-08-21T17:23:36.000Z</time>
                <name>Trackpoint 7178</name>
            </trkpt>
            <trkpt lat="50.1247744" lon="11.3025968">
                <ele>284.0</ele>
                <time>2020-08-21T17:23:37.000Z</time>
                <name>Trackpoint 7179</name>
            </trkpt>
            <trkpt lat="50.1247744" lon="11.302492">
                <ele>284.0</ele>
                <time>2020-08-21T17:23:38.000Z</time>
                <name>Trackpoint 7180</name>
            </trkpt>
            <trkpt lat="50.1247744" lon="11.3023928">
                <ele>284.0</ele>
                <time>2020-08-21T17:23:39.000Z</time>
                <name>Trackpoint 7181</name>
            </trkpt>
            <trkpt lat="50.1247776" lon="11.302288">
                <ele>284.0</ele>
                <time>2020-08-21T17:23:40.000Z</time>
                <name>Trackpoint 7182</name>
            </trkpt>
            <trkpt lat="50.1247872" lon="11.302188">
                <ele>284.0</ele>
                <time>2020-08-21T17:23:41.000Z</time>
                <name>Trackpoint 7183</name>
            </trkpt>
            <trkpt lat="50.1247904" lon="11.3020872">
                <ele>284.0</ele>
                <time>2020-08-21T17:23:42.000Z</time>
                <name>Trackpoint 7184</name>
            </trkpt>
            <trkpt lat="50.1248032" lon="11.3019848">
                <ele>284.0</ele>
                <time>2020-08-21T17:23:43.000Z</time>
                <name>Trackpoint 7185</name>
            </trkpt>
            <trkpt lat="50.1248128" lon="11.3018816">
                <ele>284.0</ele>
                <time>2020-08-21T17:23:44.000Z</time>
                <name>Trackpoint 7186</name>
            </trkpt>
            <trkpt lat="50.1248288" lon="11.30178">
                <ele>284.0</ele>
                <time>2020-08-21T17:23:45.000Z</time>
                <name>Trackpoint 7187</name>
            </trkpt>
            <trkpt lat="50.124848" lon="11.3016832">
                <ele>284.0</ele>
                <time>2020-08-21T17:23:46.000Z</time>
                <name>Trackpoint 7188</name>
            </trkpt>
            <trkpt lat="50.124864" lon="11.301592">
                <ele>284.0</ele>
                <time>2020-08-21T17:23:47.000Z</time>
                <name>Trackpoint 7189</name>
            </trkpt>
            <trkpt lat="50.1248768" lon="11.3014984">
                <ele>284.0</ele>
                <time>2020-08-21T17:23:48.000Z</time>
                <name>Trackpoint 7190</name>
            </trkpt>
            <trkpt lat="50.124896" lon="11.3014048">
                <ele>284.0</ele>
                <time>2020-08-21T17:23:49.000Z</time>
                <name>Trackpoint 7191</name>
            </trkpt>
            <trkpt lat="50.124912" lon="11.301316">
                <ele>284.0</ele>
                <time>2020-08-21T17:23:50.000Z</time>
                <name>Trackpoint 7192</name>
            </trkpt>
            <trkpt lat="50.124928" lon="11.3012248">
                <ele>284.0</ele>
                <time>2020-08-21T17:23:51.000Z</time>
                <name>Trackpoint 7193</name>
            </trkpt>
            <trkpt lat="50.1249472" lon="11.3011328">
                <ele>284.0</ele>
                <time>2020-08-21T17:23:52.000Z</time>
                <name>Trackpoint 7194</name>
            </trkpt>
            <trkpt lat="50.1249536" lon="11.3010352">
                <ele>284.0</ele>
                <time>2020-08-21T17:23:53.000Z</time>
                <name>Trackpoint 7195</name>
            </trkpt>
            <trkpt lat="50.1249568" lon="11.3009368">
                <ele>284.0</ele>
                <time>2020-08-21T17:23:54.000Z</time>
                <name>Trackpoint 7196</name>
            </trkpt>
            <trkpt lat="50.1249664" lon="11.3008416">
                <ele>284.0</ele>
                <time>2020-08-21T17:23:55.000Z</time>
                <name>Trackpoint 7197</name>
            </trkpt>
            <trkpt lat="50.1249664" lon="11.300748">
                <ele>284.0</ele>
                <time>2020-08-21T17:23:56.000Z</time>
                <name>Trackpoint 7198</name>
            </trkpt>
            <trkpt lat="50.1249664" lon="11.3006552">
                <ele>284.0</ele>
                <time>2020-08-21T17:23:57.000Z</time>
                <name>Trackpoint 7199</name>
            </trkpt>
            <trkpt lat="50.1249632" lon="11.3005552">
                <ele>284.0</ele>
                <time>2020-08-21T17:23:58.000Z</time>
                <name>Trackpoint 7200</name>
            </trkpt>
            <trkpt lat="50.1249632" lon="11.3004568">
                <ele>284.0</ele>
                <time>2020-08-21T17:23:59.000Z</time>
                <name>Trackpoint 7201</name>
            </trkpt>
            <trkpt lat="50.1249632" lon="11.3003616">
                <ele>284.0</ele>
                <time>2020-08-21T17:24:00.000Z</time>
                <name>Trackpoint 7202</name>
            </trkpt>
            <trkpt lat="50.1249536" lon="11.300268">
                <ele>284.0</ele>
                <time>2020-08-21T17:24:01.000Z</time>
                <name>Trackpoint 7203</name>
            </trkpt>
            <trkpt lat="50.1249504" lon="11.3001768">
                <ele>284.0</ele>
                <time>2020-08-21T17:24:02.000Z</time>
                <name>Trackpoint 7204</name>
            </trkpt>
            <trkpt lat="50.1249472" lon="11.3000848">
                <ele>284.0</ele>
                <time>2020-08-21T17:24:03.000Z</time>
                <name>Trackpoint 7205</name>
            </trkpt>
            <trkpt lat="50.1249472" lon="11.2999048">
                <ele>284.0</ele>
                <time>2020-08-21T17:24:05.000Z</time>
                <name>Trackpoint 7206</name>
            </trkpt>
            <trkpt lat="50.1249472" lon="11.299728">
                <ele>284.0</ele>
                <time>2020-08-21T17:24:07.000Z</time>
                <name>Trackpoint 7207</name>
            </trkpt>
            <trkpt lat="50.1249472" lon="11.2995584">
                <ele>284.0</ele>
                <time>2020-08-21T17:24:09.000Z</time>
                <name>Trackpoint 7208</name>
            </trkpt>
            <trkpt lat="50.1249376" lon="11.2993896">
                <ele>284.0</ele>
                <time>2020-08-21T17:24:11.000Z</time>
                <name>Trackpoint 7209</name>
            </trkpt>
            <trkpt lat="50.1249152" lon="11.2992216">
                <ele>283.0</ele>
                <time>2020-08-21T17:24:13.000Z</time>
                <name>Trackpoint 7210</name>
            </trkpt>
            <trkpt lat="50.1248896" lon="11.29908">
                <ele>283.0</ele>
                <time>2020-08-21T17:24:15.000Z</time>
                <name>Trackpoint 7211</name>
            </trkpt>
            <trkpt lat="50.1248672" lon="11.2989664">
                <ele>283.0</ele>
                <time>2020-08-21T17:24:17.000Z</time>
                <name>Trackpoint 7212</name>
            </trkpt>
            <trkpt lat="50.124832" lon="11.2988616">
                <ele>283.0</ele>
                <time>2020-08-21T17:24:19.000Z</time>
                <name>Trackpoint 7213</name>
            </trkpt>
            <trkpt lat="50.1248032" lon="11.298748">
                <ele>283.0</ele>
                <time>2020-08-21T17:24:21.000Z</time>
                <name>Trackpoint 7214</name>
            </trkpt>
            <trkpt lat="50.1247648" lon="11.2986232">
                <ele>283.0</ele>
                <time>2020-08-21T17:24:23.000Z</time>
                <name>Trackpoint 7215</name>
            </trkpt>
            <trkpt lat="50.124736" lon="11.2984952">
                <ele>283.0</ele>
                <time>2020-08-21T17:24:25.000Z</time>
                <name>Trackpoint 7216</name>
            </trkpt>
            <trkpt lat="50.1247296" lon="11.29834">
                <ele>283.0</ele>
                <time>2020-08-21T17:24:27.000Z</time>
                <name>Trackpoint 7217</name>
            </trkpt>
            <trkpt lat="50.1247264" lon="11.2981704">
                <ele>283.0</ele>
                <time>2020-08-21T17:24:29.000Z</time>
                <name>Trackpoint 7218</name>
            </trkpt>
            <trkpt lat="50.1247264" lon="11.2980096">
                <ele>283.0</ele>
                <time>2020-08-21T17:24:31.000Z</time>
                <name>Trackpoint 7219</name>
            </trkpt>
            <trkpt lat="50.12472" lon="11.2978624">
                <ele>283.0</ele>
                <time>2020-08-21T17:24:33.000Z</time>
                <name>Trackpoint 7220</name>
            </trkpt>
            <trkpt lat="50.12472" lon="11.2977">
                <ele>283.0</ele>
                <time>2020-08-21T17:24:35.000Z</time>
                <name>Trackpoint 7221</name>
            </trkpt>
            <trkpt lat="50.1247104" lon="11.297548">
                <ele>284.0</ele>
                <time>2020-08-21T17:24:37.000Z</time>
                <name>Trackpoint 7222</name>
            </trkpt>
            <trkpt lat="50.1246976" lon="11.2974144">
                <ele>285.0</ele>
                <time>2020-08-21T17:24:39.000Z</time>
                <name>Trackpoint 7223</name>
            </trkpt>
            <trkpt lat="50.1246688" lon="11.2972632">
                <ele>284.0</ele>
                <time>2020-08-21T17:24:41.000Z</time>
                <name>Trackpoint 7224</name>
            </trkpt>
            <trkpt lat="50.12464" lon="11.2971096">
                <ele>284.0</ele>
                <time>2020-08-21T17:24:43.000Z</time>
                <name>Trackpoint 7225</name>
            </trkpt>
            <trkpt lat="50.1246176" lon="11.2969648">
                <ele>284.0</ele>
                <time>2020-08-21T17:24:45.000Z</time>
                <name>Trackpoint 7226</name>
            </trkpt>
            <trkpt lat="50.124592" lon="11.296832">
                <ele>283.0</ele>
                <time>2020-08-21T17:24:47.000Z</time>
                <name>Trackpoint 7227</name>
            </trkpt>
            <trkpt lat="50.124576" lon="11.2966984">
                <ele>283.0</ele>
                <time>2020-08-21T17:24:49.000Z</time>
                <name>Trackpoint 7228</name>
            </trkpt>
            <trkpt lat="50.124576" lon="11.2965744">
                <ele>284.0</ele>
                <time>2020-08-21T17:24:51.000Z</time>
                <name>Trackpoint 7229</name>
            </trkpt>
            <trkpt lat="50.1246112" lon="11.2964112">
                <ele>283.0</ele>
                <time>2020-08-21T17:24:53.000Z</time>
                <name>Trackpoint 7230</name>
            </trkpt>
            <trkpt lat="50.1246304" lon="11.2962536">
                <ele>283.0</ele>
                <time>2020-08-21T17:24:55.000Z</time>
                <name>Trackpoint 7231</name>
            </trkpt>
            <trkpt lat="50.1246272" lon="11.2961216">
                <ele>283.0</ele>
                <time>2020-08-21T17:24:57.000Z</time>
                <name>Trackpoint 7232</name>
            </trkpt>
            <trkpt lat="50.1246144" lon="11.295988">
                <ele>283.0</ele>
                <time>2020-08-21T17:24:59.000Z</time>
                <name>Trackpoint 7233</name>
            </trkpt>
            <trkpt lat="50.1246112" lon="11.2958416">
                <ele>283.0</ele>
                <time>2020-08-21T17:25:01.000Z</time>
                <name>Trackpoint 7234</name>
            </trkpt>
            <trkpt lat="50.1246208" lon="11.2956896">
                <ele>283.0</ele>
                <time>2020-08-21T17:25:03.000Z</time>
                <name>Trackpoint 7235</name>
            </trkpt>
            <trkpt lat="50.1246464" lon="11.2955112">
                <ele>283.0</ele>
                <time>2020-08-21T17:25:05.000Z</time>
                <name>Trackpoint 7236</name>
            </trkpt>
            <trkpt lat="50.1246848" lon="11.295348">
                <ele>283.0</ele>
                <time>2020-08-21T17:25:07.000Z</time>
                <name>Trackpoint 7237</name>
            </trkpt>
            <trkpt lat="50.12472" lon="11.29518">
                <ele>283.0</ele>
                <time>2020-08-21T17:25:09.000Z</time>
                <name>Trackpoint 7238</name>
            </trkpt>
            <trkpt lat="50.1247584" lon="11.2950112">
                <ele>283.0</ele>
                <time>2020-08-21T17:25:11.000Z</time>
                <name>Trackpoint 7239</name>
            </trkpt>
            <trkpt lat="50.1247936" lon="11.2948328">
                <ele>282.0</ele>
                <time>2020-08-21T17:25:13.000Z</time>
                <name>Trackpoint 7240</name>
            </trkpt>
            <trkpt lat="50.1248128" lon="11.2947384">
                <ele>282.0</ele>
                <time>2020-08-21T17:25:14.000Z</time>
                <name>Trackpoint 7241</name>
            </trkpt>
            <trkpt lat="50.124832" lon="11.2946464">
                <ele>283.0</ele>
                <time>2020-08-21T17:25:15.000Z</time>
                <name>Trackpoint 7242</name>
            </trkpt>
            <trkpt lat="50.1248512" lon="11.2945568">
                <ele>283.0</ele>
                <time>2020-08-21T17:25:16.000Z</time>
                <name>Trackpoint 7243</name>
            </trkpt>
            <trkpt lat="50.1248672" lon="11.294468">
                <ele>283.0</ele>
                <time>2020-08-21T17:25:17.000Z</time>
                <name>Trackpoint 7244</name>
            </trkpt>
            <trkpt lat="50.1248736" lon="11.2943">
                <ele>283.0</ele>
                <time>2020-08-21T17:25:19.000Z</time>
                <name>Trackpoint 7245</name>
            </trkpt>
            <trkpt lat="50.1248864" lon="11.2941464">
                <ele>283.0</ele>
                <time>2020-08-21T17:25:21.000Z</time>
                <name>Trackpoint 7246</name>
            </trkpt>
            <trkpt lat="50.1249088" lon="11.294">
                <ele>283.0</ele>
                <time>2020-08-21T17:25:23.000Z</time>
                <name>Trackpoint 7247</name>
            </trkpt>
            <trkpt lat="50.1249568" lon="11.2938992">
                <ele>283.0</ele>
                <time>2020-08-21T17:25:25.000Z</time>
                <name>Trackpoint 7248</name>
            </trkpt>
            <trkpt lat="50.1250464" lon="11.2938784">
                <ele>283.0</ele>
                <time>2020-08-21T17:25:27.000Z</time>
                <name>Trackpoint 7249</name>
            </trkpt>
            <trkpt lat="50.1251456" lon="11.2939032">
                <ele>283.0</ele>
                <time>2020-08-21T17:25:29.000Z</time>
                <name>Trackpoint 7250</name>
            </trkpt>
            <trkpt lat="50.125264" lon="11.293952">
                <ele>283.0</ele>
                <time>2020-08-21T17:25:32.000Z</time>
                <name>Trackpoint 7251</name>
            </trkpt>
            <trkpt lat="50.12536" lon="11.2938944">
                <ele>283.0</ele>
                <time>2020-08-21T17:25:36.000Z</time>
                <name>Trackpoint 7252</name>
            </trkpt>
            <trkpt lat="50.1253728" lon="11.2937848">
                <ele>283.0</ele>
                <time>2020-08-21T17:25:38.000Z</time>
                <name>Trackpoint 7253</name>
            </trkpt>
            <trkpt lat="50.1253856" lon="11.2936512">
                <ele>283.0</ele>
                <time>2020-08-21T17:25:40.000Z</time>
                <name>Trackpoint 7254</name>
            </trkpt>
            <trkpt lat="50.1253952" lon="11.2935104">
                <ele>283.0</ele>
                <time>2020-08-21T17:25:42.000Z</time>
                <name>Trackpoint 7255</name>
            </trkpt>
            <trkpt lat="50.1254112" lon="11.2933664">
                <ele>283.0</ele>
                <time>2020-08-21T17:25:44.000Z</time>
                <name>Trackpoint 7256</name>
            </trkpt>
            <trkpt lat="50.125408" lon="11.2931992">
                <ele>283.0</ele>
                <time>2020-08-21T17:25:46.000Z</time>
                <name>Trackpoint 7257</name>
            </trkpt>
            <trkpt lat="50.1254144" lon="11.2930416">
                <ele>283.0</ele>
                <time>2020-08-21T17:25:48.000Z</time>
                <name>Trackpoint 7258</name>
            </trkpt>
            <trkpt lat="50.1254272" lon="11.2928864">
                <ele>283.0</ele>
                <time>2020-08-21T17:25:50.000Z</time>
                <name>Trackpoint 7259</name>
            </trkpt>
            <trkpt lat="50.12544" lon="11.2927176">
                <ele>283.0</ele>
                <time>2020-08-21T17:25:52.000Z</time>
                <name>Trackpoint 7260</name>
            </trkpt>
            <trkpt lat="50.1254432" lon="11.2925352">
                <ele>283.0</ele>
                <time>2020-08-21T17:25:54.000Z</time>
                <name>Trackpoint 7261</name>
            </trkpt>
            <trkpt lat="50.1254464" lon="11.2924416">
                <ele>283.0</ele>
                <time>2020-08-21T17:25:55.000Z</time>
                <name>Trackpoint 7262</name>
            </trkpt>
            <trkpt lat="50.1254528" lon="11.2922736">
                <ele>284.0</ele>
                <time>2020-08-21T17:25:57.000Z</time>
                <name>Trackpoint 7263</name>
            </trkpt>
            <trkpt lat="50.1254688" lon="11.2921112">
                <ele>284.0</ele>
                <time>2020-08-21T17:25:59.000Z</time>
                <name>Trackpoint 7264</name>
            </trkpt>
            <trkpt lat="50.1254688" lon="11.2919552">
                <ele>285.0</ele>
                <time>2020-08-21T17:26:01.000Z</time>
                <name>Trackpoint 7265</name>
            </trkpt>
            <trkpt lat="50.1254784" lon="11.291792">
                <ele>285.0</ele>
                <time>2020-08-21T17:26:03.000Z</time>
                <name>Trackpoint 7266</name>
            </trkpt>
            <trkpt lat="50.125488" lon="11.291612">
                <ele>285.0</ele>
                <time>2020-08-21T17:26:05.000Z</time>
                <name>Trackpoint 7267</name>
            </trkpt>
            <trkpt lat="50.1254944" lon="11.29152">
                <ele>285.0</ele>
                <time>2020-08-21T17:26:06.000Z</time>
                <name>Trackpoint 7268</name>
            </trkpt>
            <trkpt lat="50.125504" lon="11.2914264">
                <ele>285.0</ele>
                <time>2020-08-21T17:26:07.000Z</time>
                <name>Trackpoint 7269</name>
            </trkpt>
            <trkpt lat="50.1255104" lon="11.2913312">
                <ele>285.0</ele>
                <time>2020-08-21T17:26:08.000Z</time>
                <name>Trackpoint 7270</name>
            </trkpt>
            <trkpt lat="50.12552" lon="11.2912328">
                <ele>285.0</ele>
                <time>2020-08-21T17:26:09.000Z</time>
                <name>Trackpoint 7271</name>
            </trkpt>
            <trkpt lat="50.1255232" lon="11.2911328">
                <ele>285.0</ele>
                <time>2020-08-21T17:26:10.000Z</time>
                <name>Trackpoint 7272</name>
            </trkpt>
            <trkpt lat="50.1255264" lon="11.291032">
                <ele>285.0</ele>
                <time>2020-08-21T17:26:11.000Z</time>
                <name>Trackpoint 7273</name>
            </trkpt>
            <trkpt lat="50.1255328" lon="11.2909232">
                <ele>285.0</ele>
                <time>2020-08-21T17:26:12.000Z</time>
                <name>Trackpoint 7274</name>
            </trkpt>
            <trkpt lat="50.1255424" lon="11.290816">
                <ele>285.0</ele>
                <time>2020-08-21T17:26:13.000Z</time>
                <name>Trackpoint 7275</name>
            </trkpt>
            <trkpt lat="50.1255424" lon="11.2907184">
                <ele>285.0</ele>
                <time>2020-08-21T17:26:14.000Z</time>
                <name>Trackpoint 7276</name>
            </trkpt>
            <trkpt lat="50.1255488" lon="11.2906128">
                <ele>285.0</ele>
                <time>2020-08-21T17:26:15.000Z</time>
                <name>Trackpoint 7277</name>
            </trkpt>
            <trkpt lat="50.1255584" lon="11.2905104">
                <ele>285.0</ele>
                <time>2020-08-21T17:26:16.000Z</time>
                <name>Trackpoint 7278</name>
            </trkpt>
            <trkpt lat="50.1255648" lon="11.2904056">
                <ele>285.0</ele>
                <time>2020-08-21T17:26:17.000Z</time>
                <name>Trackpoint 7279</name>
            </trkpt>
            <trkpt lat="50.125568" lon="11.2902968">
                <ele>285.0</ele>
                <time>2020-08-21T17:26:18.000Z</time>
                <name>Trackpoint 7280</name>
            </trkpt>
            <trkpt lat="50.1255712" lon="11.2901936">
                <ele>285.0</ele>
                <time>2020-08-21T17:26:19.000Z</time>
                <name>Trackpoint 7281</name>
            </trkpt>
            <trkpt lat="50.1255776" lon="11.2900888">
                <ele>285.0</ele>
                <time>2020-08-21T17:26:20.000Z</time>
                <name>Trackpoint 7282</name>
            </trkpt>
            <trkpt lat="50.125584" lon="11.2899848">
                <ele>285.0</ele>
                <time>2020-08-21T17:26:21.000Z</time>
                <name>Trackpoint 7283</name>
            </trkpt>
            <trkpt lat="50.1255872" lon="11.2898864">
                <ele>285.0</ele>
                <time>2020-08-21T17:26:22.000Z</time>
                <name>Trackpoint 7284</name>
            </trkpt>
            <trkpt lat="50.1255936" lon="11.2897864">
                <ele>285.0</ele>
                <time>2020-08-21T17:26:23.000Z</time>
                <name>Trackpoint 7285</name>
            </trkpt>
            <trkpt lat="50.1256" lon="11.2896832">
                <ele>285.0</ele>
                <time>2020-08-21T17:26:24.000Z</time>
                <name>Trackpoint 7286</name>
            </trkpt>
            <trkpt lat="50.1256032" lon="11.2895848">
                <ele>285.0</ele>
                <time>2020-08-21T17:26:25.000Z</time>
                <name>Trackpoint 7287</name>
            </trkpt>
            <trkpt lat="50.1256064" lon="11.2894888">
                <ele>285.0</ele>
                <time>2020-08-21T17:26:26.000Z</time>
                <name>Trackpoint 7288</name>
            </trkpt>
            <trkpt lat="50.1256128" lon="11.2893936">
                <ele>285.0</ele>
                <time>2020-08-21T17:26:27.000Z</time>
                <name>Trackpoint 7289</name>
            </trkpt>
            <trkpt lat="50.1256192" lon="11.2892984">
                <ele>285.0</ele>
                <time>2020-08-21T17:26:28.000Z</time>
                <name>Trackpoint 7290</name>
            </trkpt>
            <trkpt lat="50.1256224" lon="11.2892016">
                <ele>285.0</ele>
                <time>2020-08-21T17:26:29.000Z</time>
                <name>Trackpoint 7291</name>
            </trkpt>
            <trkpt lat="50.1256256" lon="11.2891064">
                <ele>285.0</ele>
                <time>2020-08-21T17:26:30.000Z</time>
                <name>Trackpoint 7292</name>
            </trkpt>
            <trkpt lat="50.1256288" lon="11.289008">
                <ele>285.0</ele>
                <time>2020-08-21T17:26:31.000Z</time>
                <name>Trackpoint 7293</name>
            </trkpt>
            <trkpt lat="50.1256384" lon="11.2889144">
                <ele>285.0</ele>
                <time>2020-08-21T17:26:32.000Z</time>
                <name>Trackpoint 7294</name>
            </trkpt>
            <trkpt lat="50.1256416" lon="11.2888168">
                <ele>285.0</ele>
                <time>2020-08-21T17:26:33.000Z</time>
                <name>Trackpoint 7295</name>
            </trkpt>
            <trkpt lat="50.125648" lon="11.2887232">
                <ele>285.0</ele>
                <time>2020-08-21T17:26:34.000Z</time>
                <name>Trackpoint 7296</name>
            </trkpt>
            <trkpt lat="50.1256576" lon="11.2886264">
                <ele>285.0</ele>
                <time>2020-08-21T17:26:35.000Z</time>
                <name>Trackpoint 7297</name>
            </trkpt>
            <trkpt lat="50.1256608" lon="11.2885288">
                <ele>285.0</ele>
                <time>2020-08-21T17:26:36.000Z</time>
                <name>Trackpoint 7298</name>
            </trkpt>
            <trkpt lat="50.1256608" lon="11.2884328">
                <ele>285.0</ele>
                <time>2020-08-21T17:26:37.000Z</time>
                <name>Trackpoint 7299</name>
            </trkpt>
            <trkpt lat="50.1256672" lon="11.2883384">
                <ele>285.0</ele>
                <time>2020-08-21T17:26:38.000Z</time>
                <name>Trackpoint 7300</name>
            </trkpt>
            <trkpt lat="50.1256704" lon="11.2882384">
                <ele>285.0</ele>
                <time>2020-08-21T17:26:39.000Z</time>
                <name>Trackpoint 7301</name>
            </trkpt>
            <trkpt lat="50.1256704" lon="11.28814">
                <ele>285.0</ele>
                <time>2020-08-21T17:26:40.000Z</time>
                <name>Trackpoint 7302</name>
            </trkpt>
            <trkpt lat="50.1256768" lon="11.2880448">
                <ele>285.0</ele>
                <time>2020-08-21T17:26:41.000Z</time>
                <name>Trackpoint 7303</name>
            </trkpt>
            <trkpt lat="50.1256768" lon="11.2879488">
                <ele>285.0</ele>
                <time>2020-08-21T17:26:42.000Z</time>
                <name>Trackpoint 7304</name>
            </trkpt>
            <trkpt lat="50.1256832" lon="11.2878488">
                <ele>285.0</ele>
                <time>2020-08-21T17:26:43.000Z</time>
                <name>Trackpoint 7305</name>
            </trkpt>
            <trkpt lat="50.1256896" lon="11.2877432">
                <ele>285.0</ele>
                <time>2020-08-21T17:26:44.000Z</time>
                <name>Trackpoint 7306</name>
            </trkpt>
            <trkpt lat="50.1256992" lon="11.2876416">
                <ele>285.0</ele>
                <time>2020-08-21T17:26:45.000Z</time>
                <name>Trackpoint 7307</name>
            </trkpt>
            <trkpt lat="50.1257024" lon="11.2875384">
                <ele>285.0</ele>
                <time>2020-08-21T17:26:46.000Z</time>
                <name>Trackpoint 7308</name>
            </trkpt>
            <trkpt lat="50.1257056" lon="11.2874368">
                <ele>285.0</ele>
                <time>2020-08-21T17:26:47.000Z</time>
                <name>Trackpoint 7309</name>
            </trkpt>
            <trkpt lat="50.125712" lon="11.28734">
                <ele>285.0</ele>
                <time>2020-08-21T17:26:48.000Z</time>
                <name>Trackpoint 7310</name>
            </trkpt>
            <trkpt lat="50.1257184" lon="11.2872464">
                <ele>285.0</ele>
                <time>2020-08-21T17:26:49.000Z</time>
                <name>Trackpoint 7311</name>
            </trkpt>
            <trkpt lat="50.1257216" lon="11.2871464">
                <ele>285.0</ele>
                <time>2020-08-21T17:26:50.000Z</time>
                <name>Trackpoint 7312</name>
            </trkpt>
            <trkpt lat="50.1257248" lon="11.2870528">
                <ele>285.0</ele>
                <time>2020-08-21T17:26:51.000Z</time>
                <name>Trackpoint 7313</name>
            </trkpt>
            <trkpt lat="50.1257312" lon="11.2869584">
                <ele>285.0</ele>
                <time>2020-08-21T17:26:52.000Z</time>
                <name>Trackpoint 7314</name>
            </trkpt>
            <trkpt lat="50.1257312" lon="11.2868656">
                <ele>285.0</ele>
                <time>2020-08-21T17:26:53.000Z</time>
                <name>Trackpoint 7315</name>
            </trkpt>
            <trkpt lat="50.1257408" lon="11.286768">
                <ele>285.0</ele>
                <time>2020-08-21T17:26:54.000Z</time>
                <name>Trackpoint 7316</name>
            </trkpt>
            <trkpt lat="50.125744" lon="11.286672">
                <ele>285.0</ele>
                <time>2020-08-21T17:26:55.000Z</time>
                <name>Trackpoint 7317</name>
            </trkpt>
            <trkpt lat="50.125744" lon="11.2865752">
                <ele>285.0</ele>
                <time>2020-08-21T17:26:56.000Z</time>
                <name>Trackpoint 7318</name>
            </trkpt>
            <trkpt lat="50.1257504" lon="11.2864816">
                <ele>285.0</ele>
                <time>2020-08-21T17:26:57.000Z</time>
                <name>Trackpoint 7319</name>
            </trkpt>
            <trkpt lat="50.1257568" lon="11.286384">
                <ele>285.0</ele>
                <time>2020-08-21T17:26:58.000Z</time>
                <name>Trackpoint 7320</name>
            </trkpt>
            <trkpt lat="50.1257664" lon="11.286292">
                <ele>285.0</ele>
                <time>2020-08-21T17:26:59.000Z</time>
                <name>Trackpoint 7321</name>
            </trkpt>
            <trkpt lat="50.1257792" lon="11.2861072">
                <ele>285.0</ele>
                <time>2020-08-21T17:27:01.000Z</time>
                <name>Trackpoint 7322</name>
            </trkpt>
            <trkpt lat="50.1257984" lon="11.2859336">
                <ele>285.0</ele>
                <time>2020-08-21T17:27:03.000Z</time>
                <name>Trackpoint 7323</name>
            </trkpt>
            <trkpt lat="50.1258176" lon="11.2857616">
                <ele>285.0</ele>
                <time>2020-08-21T17:27:05.000Z</time>
                <name>Trackpoint 7324</name>
            </trkpt>
            <trkpt lat="50.1258176" lon="11.285592">
                <ele>285.0</ele>
                <time>2020-08-21T17:27:07.000Z</time>
                <name>Trackpoint 7325</name>
            </trkpt>
            <trkpt lat="50.1258112" lon="11.2854168">
                <ele>285.0</ele>
                <time>2020-08-21T17:27:09.000Z</time>
                <name>Trackpoint 7326</name>
            </trkpt>
            <trkpt lat="50.1258208" lon="11.2852496">
                <ele>285.0</ele>
                <time>2020-08-21T17:27:11.000Z</time>
                <name>Trackpoint 7327</name>
            </trkpt>
            <trkpt lat="50.1258304" lon="11.28508">
                <ele>285.0</ele>
                <time>2020-08-21T17:27:13.000Z</time>
                <name>Trackpoint 7328</name>
            </trkpt>
            <trkpt lat="50.1258272" lon="11.2849232">
                <ele>286.0</ele>
                <time>2020-08-21T17:27:15.000Z</time>
                <name>Trackpoint 7329</name>
            </trkpt>
            <trkpt lat="50.1258272" lon="11.2847496">
                <ele>286.0</ele>
                <time>2020-08-21T17:27:17.000Z</time>
                <name>Trackpoint 7330</name>
            </trkpt>
            <trkpt lat="50.1258304" lon="11.2846584">
                <ele>286.0</ele>
                <time>2020-08-21T17:27:18.000Z</time>
                <name>Trackpoint 7331</name>
            </trkpt>
            <trkpt lat="50.12584" lon="11.2845632">
                <ele>286.0</ele>
                <time>2020-08-21T17:27:19.000Z</time>
                <name>Trackpoint 7332</name>
            </trkpt>
            <trkpt lat="50.1258464" lon="11.28446">
                <ele>286.0</ele>
                <time>2020-08-21T17:27:20.000Z</time>
                <name>Trackpoint 7333</name>
            </trkpt>
            <trkpt lat="50.1258496" lon="11.2843584">
                <ele>286.0</ele>
                <time>2020-08-21T17:27:21.000Z</time>
                <name>Trackpoint 7334</name>
            </trkpt>
            <trkpt lat="50.1258496" lon="11.2842648">
                <ele>286.0</ele>
                <time>2020-08-21T17:27:22.000Z</time>
                <name>Trackpoint 7335</name>
            </trkpt>
            <trkpt lat="50.1258464" lon="11.2841616">
                <ele>286.0</ele>
                <time>2020-08-21T17:27:23.000Z</time>
                <name>Trackpoint 7336</name>
            </trkpt>
            <trkpt lat="50.1258496" lon="11.2840592">
                <ele>286.0</ele>
                <time>2020-08-21T17:27:24.000Z</time>
                <name>Trackpoint 7337</name>
            </trkpt>
            <trkpt lat="50.1258592" lon="11.2839568">
                <ele>286.0</ele>
                <time>2020-08-21T17:27:25.000Z</time>
                <name>Trackpoint 7338</name>
            </trkpt>
            <trkpt lat="50.1258624" lon="11.283852">
                <ele>285.0</ele>
                <time>2020-08-21T17:27:26.000Z</time>
                <name>Trackpoint 7339</name>
            </trkpt>
            <trkpt lat="50.1258688" lon="11.2837464">
                <ele>285.0</ele>
                <time>2020-08-21T17:27:27.000Z</time>
                <name>Trackpoint 7340</name>
            </trkpt>
            <trkpt lat="50.125872" lon="11.2836464">
                <ele>285.0</ele>
                <time>2020-08-21T17:27:28.000Z</time>
                <name>Trackpoint 7341</name>
            </trkpt>
            <trkpt lat="50.1258816" lon="11.2835448">
                <ele>286.0</ele>
                <time>2020-08-21T17:27:29.000Z</time>
                <name>Trackpoint 7342</name>
            </trkpt>
            <trkpt lat="50.1258848" lon="11.2834464">
                <ele>286.0</ele>
                <time>2020-08-21T17:27:30.000Z</time>
                <name>Trackpoint 7343</name>
            </trkpt>
            <trkpt lat="50.1258848" lon="11.2833432">
                <ele>286.0</ele>
                <time>2020-08-21T17:27:31.000Z</time>
                <name>Trackpoint 7344</name>
            </trkpt>
            <trkpt lat="50.125888" lon="11.2832416">
                <ele>286.0</ele>
                <time>2020-08-21T17:27:32.000Z</time>
                <name>Trackpoint 7345</name>
            </trkpt>
            <trkpt lat="50.1258912" lon="11.2831432">
                <ele>286.0</ele>
                <time>2020-08-21T17:27:33.000Z</time>
                <name>Trackpoint 7346</name>
            </trkpt>
            <trkpt lat="50.1259008" lon="11.2830464">
                <ele>286.0</ele>
                <time>2020-08-21T17:27:34.000Z</time>
                <name>Trackpoint 7347</name>
            </trkpt>
            <trkpt lat="50.1259072" lon="11.2829488">
                <ele>286.0</ele>
                <time>2020-08-21T17:27:35.000Z</time>
                <name>Trackpoint 7348</name>
            </trkpt>
            <trkpt lat="50.1259104" lon="11.2828464">
                <ele>286.0</ele>
                <time>2020-08-21T17:27:36.000Z</time>
                <name>Trackpoint 7349</name>
            </trkpt>
            <trkpt lat="50.1259232" lon="11.2827456">
                <ele>286.0</ele>
                <time>2020-08-21T17:27:37.000Z</time>
                <name>Trackpoint 7350</name>
            </trkpt>
            <trkpt lat="50.1259264" lon="11.2826432">
                <ele>286.0</ele>
                <time>2020-08-21T17:27:38.000Z</time>
                <name>Trackpoint 7351</name>
            </trkpt>
            <trkpt lat="50.1259264" lon="11.2825416">
                <ele>286.0</ele>
                <time>2020-08-21T17:27:39.000Z</time>
                <name>Trackpoint 7352</name>
            </trkpt>
            <trkpt lat="50.125936" lon="11.2824448">
                <ele>286.0</ele>
                <time>2020-08-21T17:27:40.000Z</time>
                <name>Trackpoint 7353</name>
            </trkpt>
            <trkpt lat="50.1259392" lon="11.2823488">
                <ele>286.0</ele>
                <time>2020-08-21T17:27:41.000Z</time>
                <name>Trackpoint 7354</name>
            </trkpt>
            <trkpt lat="50.1259424" lon="11.2822488">
                <ele>286.0</ele>
                <time>2020-08-21T17:27:42.000Z</time>
                <name>Trackpoint 7355</name>
            </trkpt>
            <trkpt lat="50.1259456" lon="11.2821504">
                <ele>286.0</ele>
                <time>2020-08-21T17:27:43.000Z</time>
                <name>Trackpoint 7356</name>
            </trkpt>
            <trkpt lat="50.1259552" lon="11.2820528">
                <ele>286.0</ele>
                <time>2020-08-21T17:27:44.000Z</time>
                <name>Trackpoint 7357</name>
            </trkpt>
            <trkpt lat="50.1259616" lon="11.2819584">
                <ele>286.0</ele>
                <time>2020-08-21T17:27:45.000Z</time>
                <name>Trackpoint 7358</name>
            </trkpt>
            <trkpt lat="50.125968" lon="11.2818632">
                <ele>286.0</ele>
                <time>2020-08-21T17:27:46.000Z</time>
                <name>Trackpoint 7359</name>
            </trkpt>
            <trkpt lat="50.1259808" lon="11.2817632">
                <ele>286.0</ele>
                <time>2020-08-21T17:27:47.000Z</time>
                <name>Trackpoint 7360</name>
            </trkpt>
            <trkpt lat="50.1259872" lon="11.2816688">
                <ele>286.0</ele>
                <time>2020-08-21T17:27:48.000Z</time>
                <name>Trackpoint 7361</name>
            </trkpt>
            <trkpt lat="50.126" lon="11.2815712">
                <ele>286.0</ele>
                <time>2020-08-21T17:27:49.000Z</time>
                <name>Trackpoint 7362</name>
            </trkpt>
            <trkpt lat="50.1260064" lon="11.2814768">
                <ele>286.0</ele>
                <time>2020-08-21T17:27:50.000Z</time>
                <name>Trackpoint 7363</name>
            </trkpt>
            <trkpt lat="50.1260192" lon="11.2813856">
                <ele>286.0</ele>
                <time>2020-08-21T17:27:51.000Z</time>
                <name>Trackpoint 7364</name>
            </trkpt>
            <trkpt lat="50.1260352" lon="11.2812952">
                <ele>286.0</ele>
                <time>2020-08-21T17:27:52.000Z</time>
                <name>Trackpoint 7365</name>
            </trkpt>
            <trkpt lat="50.1260448" lon="11.2812008">
                <ele>286.0</ele>
                <time>2020-08-21T17:27:53.000Z</time>
                <name>Trackpoint 7366</name>
            </trkpt>
            <trkpt lat="50.1260608" lon="11.2810248">
                <ele>286.0</ele>
                <time>2020-08-21T17:27:55.000Z</time>
                <name>Trackpoint 7367</name>
            </trkpt>
            <trkpt lat="50.12608" lon="11.2808568">
                <ele>286.0</ele>
                <time>2020-08-21T17:27:57.000Z</time>
                <name>Trackpoint 7368</name>
            </trkpt>
            <trkpt lat="50.1260832" lon="11.2806968">
                <ele>285.0</ele>
                <time>2020-08-21T17:27:59.000Z</time>
                <name>Trackpoint 7369</name>
            </trkpt>
            <trkpt lat="50.126096" lon="11.2805272">
                <ele>285.0</ele>
                <time>2020-08-21T17:28:01.000Z</time>
                <name>Trackpoint 7370</name>
            </trkpt>
            <trkpt lat="50.12608" lon="11.2803672">
                <ele>285.0</ele>
                <time>2020-08-21T17:28:03.000Z</time>
                <name>Trackpoint 7371</name>
            </trkpt>
            <trkpt lat="50.126" lon="11.280236">
                <ele>285.0</ele>
                <time>2020-08-21T17:28:05.000Z</time>
                <name>Trackpoint 7372</name>
            </trkpt>
            <trkpt lat="50.1259104" lon="11.2801568">
                <ele>285.0</ele>
                <time>2020-08-21T17:28:07.000Z</time>
                <name>Trackpoint 7373</name>
            </trkpt>
            <trkpt lat="50.1258464" lon="11.2800528">
                <ele>285.0</ele>
                <time>2020-08-21T17:28:09.000Z</time>
                <name>Trackpoint 7374</name>
            </trkpt>
            <trkpt lat="50.1258592" lon="11.2799232">
                <ele>285.0</ele>
                <time>2020-08-21T17:28:11.000Z</time>
                <name>Trackpoint 7375</name>
            </trkpt>
            <trkpt lat="50.1259104" lon="11.2798336">
                <ele>285.0</ele>
                <time>2020-08-21T17:28:13.000Z</time>
                <name>Trackpoint 7376</name>
            </trkpt>
            <trkpt lat="50.1259648" lon="11.2797168">
                <ele>285.0</ele>
                <time>2020-08-21T17:28:15.000Z</time>
                <name>Trackpoint 7377</name>
            </trkpt>
            <trkpt lat="50.1260096" lon="11.27958">
                <ele>285.0</ele>
                <time>2020-08-21T17:28:17.000Z</time>
                <name>Trackpoint 7378</name>
            </trkpt>
            <trkpt lat="50.126064" lon="11.2794176">
                <ele>284.0</ele>
                <time>2020-08-21T17:28:19.000Z</time>
                <name>Trackpoint 7379</name>
            </trkpt>
            <trkpt lat="50.1261216" lon="11.2792504">
                <ele>284.0</ele>
                <time>2020-08-21T17:28:21.000Z</time>
                <name>Trackpoint 7380</name>
            </trkpt>
            <trkpt lat="50.1261472" lon="11.2791632">
                <ele>284.0</ele>
                <time>2020-08-21T17:28:22.000Z</time>
                <name>Trackpoint 7381</name>
            </trkpt>
            <trkpt lat="50.1261888" lon="11.278992">
                <ele>284.0</ele>
                <time>2020-08-21T17:28:24.000Z</time>
                <name>Trackpoint 7382</name>
            </trkpt>
            <trkpt lat="50.1262016" lon="11.2789024">
                <ele>284.0</ele>
                <time>2020-08-21T17:28:25.000Z</time>
                <name>Trackpoint 7383</name>
            </trkpt>
            <trkpt lat="50.126208" lon="11.2788112">
                <ele>284.0</ele>
                <time>2020-08-21T17:28:26.000Z</time>
                <name>Trackpoint 7384</name>
            </trkpt>
            <trkpt lat="50.126224" lon="11.2786376">
                <ele>284.0</ele>
                <time>2020-08-21T17:28:28.000Z</time>
                <name>Trackpoint 7385</name>
            </trkpt>
            <trkpt lat="50.1262368" lon="11.2784632">
                <ele>284.0</ele>
                <time>2020-08-21T17:28:30.000Z</time>
                <name>Trackpoint 7386</name>
            </trkpt>
            <trkpt lat="50.1262528" lon="11.278288">
                <ele>284.0</ele>
                <time>2020-08-21T17:28:32.000Z</time>
                <name>Trackpoint 7387</name>
            </trkpt>
            <trkpt lat="50.1262688" lon="11.2781088">
                <ele>284.0</ele>
                <time>2020-08-21T17:28:34.000Z</time>
                <name>Trackpoint 7388</name>
            </trkpt>
            <trkpt lat="50.1262848" lon="11.2779328">
                <ele>284.0</ele>
                <time>2020-08-21T17:28:36.000Z</time>
                <name>Trackpoint 7389</name>
            </trkpt>
            <trkpt lat="50.1262976" lon="11.27784">
                <ele>284.0</ele>
                <time>2020-08-21T17:28:37.000Z</time>
                <name>Trackpoint 7390</name>
            </trkpt>
            <trkpt lat="50.1262976" lon="11.2777416">
                <ele>284.0</ele>
                <time>2020-08-21T17:28:38.000Z</time>
                <name>Trackpoint 7391</name>
            </trkpt>
            <trkpt lat="50.12632" lon="11.2775672">
                <ele>284.0</ele>
                <time>2020-08-21T17:28:40.000Z</time>
                <name>Trackpoint 7392</name>
            </trkpt>
            <trkpt lat="50.1263264" lon="11.2774712">
                <ele>284.0</ele>
                <time>2020-08-21T17:28:41.000Z</time>
                <name>Trackpoint 7393</name>
            </trkpt>
            <trkpt lat="50.126336" lon="11.27738">
                <ele>283.0</ele>
                <time>2020-08-21T17:28:42.000Z</time>
                <name>Trackpoint 7394</name>
            </trkpt>
            <trkpt lat="50.1263424" lon="11.2772888">
                <ele>283.0</ele>
                <time>2020-08-21T17:28:43.000Z</time>
                <name>Trackpoint 7395</name>
            </trkpt>
            <trkpt lat="50.126352" lon="11.2771984">
                <ele>283.0</ele>
                <time>2020-08-21T17:28:44.000Z</time>
                <name>Trackpoint 7396</name>
            </trkpt>
            <trkpt lat="50.1263616" lon="11.2771064">
                <ele>283.0</ele>
                <time>2020-08-21T17:28:45.000Z</time>
                <name>Trackpoint 7397</name>
            </trkpt>
            <trkpt lat="50.126368" lon="11.2770136">
                <ele>283.0</ele>
                <time>2020-08-21T17:28:46.000Z</time>
                <name>Trackpoint 7398</name>
            </trkpt>
            <trkpt lat="50.1263808" lon="11.2769216">
                <ele>282.0</ele>
                <time>2020-08-21T17:28:47.000Z</time>
                <name>Trackpoint 7399</name>
            </trkpt>
            <trkpt lat="50.1263936" lon="11.276832">
                <ele>282.0</ele>
                <time>2020-08-21T17:28:48.000Z</time>
                <name>Trackpoint 7400</name>
            </trkpt>
            <trkpt lat="50.1264" lon="11.27674">
                <ele>282.0</ele>
                <time>2020-08-21T17:28:49.000Z</time>
                <name>Trackpoint 7401</name>
            </trkpt>
            <trkpt lat="50.1264128" lon="11.2766448">
                <ele>282.0</ele>
                <time>2020-08-21T17:28:50.000Z</time>
                <name>Trackpoint 7402</name>
            </trkpt>
            <trkpt lat="50.1264192" lon="11.2765528">
                <ele>282.0</ele>
                <time>2020-08-21T17:28:51.000Z</time>
                <name>Trackpoint 7403</name>
            </trkpt>
            <trkpt lat="50.126432" lon="11.27646">
                <ele>282.0</ele>
                <time>2020-08-21T17:28:52.000Z</time>
                <name>Trackpoint 7404</name>
            </trkpt>
            <trkpt lat="50.1264384" lon="11.2763664">
                <ele>282.0</ele>
                <time>2020-08-21T17:28:53.000Z</time>
                <name>Trackpoint 7405</name>
            </trkpt>
            <trkpt lat="50.126448" lon="11.276272">
                <ele>283.0</ele>
                <time>2020-08-21T17:28:54.000Z</time>
                <name>Trackpoint 7406</name>
            </trkpt>
            <trkpt lat="50.1264608" lon="11.2761784">
                <ele>283.0</ele>
                <time>2020-08-21T17:28:55.000Z</time>
                <name>Trackpoint 7407</name>
            </trkpt>
            <trkpt lat="50.1264672" lon="11.2760848">
                <ele>283.0</ele>
                <time>2020-08-21T17:28:56.000Z</time>
                <name>Trackpoint 7408</name>
            </trkpt>
            <trkpt lat="50.12648" lon="11.2759896">
                <ele>283.0</ele>
                <time>2020-08-21T17:28:57.000Z</time>
                <name>Trackpoint 7409</name>
            </trkpt>
            <trkpt lat="50.1264864" lon="11.2758936">
                <ele>282.0</ele>
                <time>2020-08-21T17:28:58.000Z</time>
                <name>Trackpoint 7410</name>
            </trkpt>
            <trkpt lat="50.1264992" lon="11.2757984">
                <ele>282.0</ele>
                <time>2020-08-21T17:28:59.000Z</time>
                <name>Trackpoint 7411</name>
            </trkpt>
            <trkpt lat="50.126512" lon="11.2757056">
                <ele>282.0</ele>
                <time>2020-08-21T17:29:00.000Z</time>
                <name>Trackpoint 7412</name>
            </trkpt>
            <trkpt lat="50.1265216" lon="11.2756136">
                <ele>282.0</ele>
                <time>2020-08-21T17:29:01.000Z</time>
                <name>Trackpoint 7413</name>
            </trkpt>
            <trkpt lat="50.1265344" lon="11.27552">
                <ele>282.0</ele>
                <time>2020-08-21T17:29:02.000Z</time>
                <name>Trackpoint 7414</name>
            </trkpt>
            <trkpt lat="50.126544" lon="11.2754272">
                <ele>282.0</ele>
                <time>2020-08-21T17:29:03.000Z</time>
                <name>Trackpoint 7415</name>
            </trkpt>
            <trkpt lat="50.12656" lon="11.2753352">
                <ele>282.0</ele>
                <time>2020-08-21T17:29:04.000Z</time>
                <name>Trackpoint 7416</name>
            </trkpt>
            <trkpt lat="50.1265728" lon="11.275244">
                <ele>282.0</ele>
                <time>2020-08-21T17:29:05.000Z</time>
                <name>Trackpoint 7417</name>
            </trkpt>
            <trkpt lat="50.1265824" lon="11.2751512">
                <ele>282.0</ele>
                <time>2020-08-21T17:29:06.000Z</time>
                <name>Trackpoint 7418</name>
            </trkpt>
            <trkpt lat="50.1265984" lon="11.2750584">
                <ele>282.0</ele>
                <time>2020-08-21T17:29:07.000Z</time>
                <name>Trackpoint 7419</name>
            </trkpt>
            <trkpt lat="50.1266112" lon="11.2749632">
                <ele>282.0</ele>
                <time>2020-08-21T17:29:08.000Z</time>
                <name>Trackpoint 7420</name>
            </trkpt>
            <trkpt lat="50.126624" lon="11.2748696">
                <ele>282.0</ele>
                <time>2020-08-21T17:29:09.000Z</time>
                <name>Trackpoint 7421</name>
            </trkpt>
            <trkpt lat="50.1266368" lon="11.2747768">
                <ele>282.0</ele>
                <time>2020-08-21T17:29:10.000Z</time>
                <name>Trackpoint 7422</name>
            </trkpt>
            <trkpt lat="50.1266464" lon="11.2746832">
                <ele>282.0</ele>
                <time>2020-08-21T17:29:11.000Z</time>
                <name>Trackpoint 7423</name>
            </trkpt>
            <trkpt lat="50.1266624" lon="11.2745912">
                <ele>282.0</ele>
                <time>2020-08-21T17:29:12.000Z</time>
                <name>Trackpoint 7424</name>
            </trkpt>
            <trkpt lat="50.1266784" lon="11.2744968">
                <ele>283.0</ele>
                <time>2020-08-21T17:29:13.000Z</time>
                <name>Trackpoint 7425</name>
            </trkpt>
            <trkpt lat="50.1266944" lon="11.2744048">
                <ele>283.0</ele>
                <time>2020-08-21T17:29:14.000Z</time>
                <name>Trackpoint 7426</name>
            </trkpt>
            <trkpt lat="50.126704" lon="11.274308">
                <ele>282.0</ele>
                <time>2020-08-21T17:29:15.000Z</time>
                <name>Trackpoint 7427</name>
            </trkpt>
            <trkpt lat="50.1267168" lon="11.274212">
                <ele>282.0</ele>
                <time>2020-08-21T17:29:16.000Z</time>
                <name>Trackpoint 7428</name>
            </trkpt>
            <trkpt lat="50.1267328" lon="11.2741168">
                <ele>282.0</ele>
                <time>2020-08-21T17:29:17.000Z</time>
                <name>Trackpoint 7429</name>
            </trkpt>
            <trkpt lat="50.1267424" lon="11.2740232">
                <ele>282.0</ele>
                <time>2020-08-21T17:29:18.000Z</time>
                <name>Trackpoint 7430</name>
            </trkpt>
            <trkpt lat="50.1267552" lon="11.2739288">
                <ele>282.0</ele>
                <time>2020-08-21T17:29:19.000Z</time>
                <name>Trackpoint 7431</name>
            </trkpt>
            <trkpt lat="50.1267712" lon="11.2738312">
                <ele>282.0</ele>
                <time>2020-08-21T17:29:20.000Z</time>
                <name>Trackpoint 7432</name>
            </trkpt>
            <trkpt lat="50.1267808" lon="11.2737376">
                <ele>282.0</ele>
                <time>2020-08-21T17:29:21.000Z</time>
                <name>Trackpoint 7433</name>
            </trkpt>
            <trkpt lat="50.1267968" lon="11.2736456">
                <ele>282.0</ele>
                <time>2020-08-21T17:29:22.000Z</time>
                <name>Trackpoint 7434</name>
            </trkpt>
            <trkpt lat="50.1268128" lon="11.2735528">
                <ele>282.0</ele>
                <time>2020-08-21T17:29:23.000Z</time>
                <name>Trackpoint 7435</name>
            </trkpt>
            <trkpt lat="50.126832" lon="11.27346">
                <ele>282.0</ele>
                <time>2020-08-21T17:29:24.000Z</time>
                <name>Trackpoint 7436</name>
            </trkpt>
            <trkpt lat="50.1268512" lon="11.2733672">
                <ele>282.0</ele>
                <time>2020-08-21T17:29:25.000Z</time>
                <name>Trackpoint 7437</name>
            </trkpt>
            <trkpt lat="50.1268608" lon="11.2732736">
                <ele>281.0</ele>
                <time>2020-08-21T17:29:26.000Z</time>
                <name>Trackpoint 7438</name>
            </trkpt>
            <trkpt lat="50.1268768" lon="11.2731784">
                <ele>281.0</ele>
                <time>2020-08-21T17:29:27.000Z</time>
                <name>Trackpoint 7439</name>
            </trkpt>
            <trkpt lat="50.1268896" lon="11.273084">
                <ele>281.0</ele>
                <time>2020-08-21T17:29:28.000Z</time>
                <name>Trackpoint 7440</name>
            </trkpt>
            <trkpt lat="50.1269024" lon="11.2729904">
                <ele>281.0</ele>
                <time>2020-08-21T17:29:29.000Z</time>
                <name>Trackpoint 7441</name>
            </trkpt>
            <trkpt lat="50.1269216" lon="11.2728968">
                <ele>281.0</ele>
                <time>2020-08-21T17:29:30.000Z</time>
                <name>Trackpoint 7442</name>
            </trkpt>
            <trkpt lat="50.1269376" lon="11.2728016">
                <ele>281.0</ele>
                <time>2020-08-21T17:29:31.000Z</time>
                <name>Trackpoint 7443</name>
            </trkpt>
            <trkpt lat="50.1269536" lon="11.2727048">
                <ele>281.0</ele>
                <time>2020-08-21T17:29:32.000Z</time>
                <name>Trackpoint 7444</name>
            </trkpt>
            <trkpt lat="50.1269696" lon="11.2726152">
                <ele>281.0</ele>
                <time>2020-08-21T17:29:33.000Z</time>
                <name>Trackpoint 7445</name>
            </trkpt>
            <trkpt lat="50.1269824" lon="11.27252">
                <ele>281.0</ele>
                <time>2020-08-21T17:29:34.000Z</time>
                <name>Trackpoint 7446</name>
            </trkpt>
            <trkpt lat="50.1269984" lon="11.2724264">
                <ele>281.0</ele>
                <time>2020-08-21T17:29:35.000Z</time>
                <name>Trackpoint 7447</name>
            </trkpt>
            <trkpt lat="50.1270144" lon="11.2723368">
                <ele>281.0</ele>
                <time>2020-08-21T17:29:36.000Z</time>
                <name>Trackpoint 7448</name>
            </trkpt>
            <trkpt lat="50.1270304" lon="11.2722464">
                <ele>281.0</ele>
                <time>2020-08-21T17:29:37.000Z</time>
                <name>Trackpoint 7449</name>
            </trkpt>
            <trkpt lat="50.1270496" lon="11.2721568">
                <ele>281.0</ele>
                <time>2020-08-21T17:29:38.000Z</time>
                <name>Trackpoint 7450</name>
            </trkpt>
            <trkpt lat="50.1270592" lon="11.2720672">
                <ele>281.0</ele>
                <time>2020-08-21T17:29:39.000Z</time>
                <name>Trackpoint 7451</name>
            </trkpt>
            <trkpt lat="50.1270784" lon="11.2719768">
                <ele>281.0</ele>
                <time>2020-08-21T17:29:40.000Z</time>
                <name>Trackpoint 7452</name>
            </trkpt>
            <trkpt lat="50.1271104" lon="11.271796">
                <ele>281.0</ele>
                <time>2020-08-21T17:29:42.000Z</time>
                <name>Trackpoint 7453</name>
            </trkpt>
            <trkpt lat="50.1271232" lon="11.2717048">
                <ele>281.0</ele>
                <time>2020-08-21T17:29:43.000Z</time>
                <name>Trackpoint 7454</name>
            </trkpt>
            <trkpt lat="50.127136" lon="11.2716152">
                <ele>281.0</ele>
                <time>2020-08-21T17:29:44.000Z</time>
                <name>Trackpoint 7455</name>
            </trkpt>
            <trkpt lat="50.127152" lon="11.2715264">
                <ele>281.0</ele>
                <time>2020-08-21T17:29:45.000Z</time>
                <name>Trackpoint 7456</name>
            </trkpt>
            <trkpt lat="50.127168" lon="11.2714368">
                <ele>281.0</ele>
                <time>2020-08-21T17:29:46.000Z</time>
                <name>Trackpoint 7457</name>
            </trkpt>
            <trkpt lat="50.1271808" lon="11.2713472">
                <ele>281.0</ele>
                <time>2020-08-21T17:29:47.000Z</time>
                <name>Trackpoint 7458</name>
            </trkpt>
            <trkpt lat="50.1271968" lon="11.2712568">
                <ele>281.0</ele>
                <time>2020-08-21T17:29:48.000Z</time>
                <name>Trackpoint 7459</name>
            </trkpt>
            <trkpt lat="50.1272224" lon="11.2710784">
                <ele>281.0</ele>
                <time>2020-08-21T17:29:50.000Z</time>
                <name>Trackpoint 7460</name>
            </trkpt>
            <trkpt lat="50.1272352" lon="11.2709848">
                <ele>280.0</ele>
                <time>2020-08-21T17:29:51.000Z</time>
                <name>Trackpoint 7461</name>
            </trkpt>
            <trkpt lat="50.127248" lon="11.270892">
                <ele>280.0</ele>
                <time>2020-08-21T17:29:52.000Z</time>
                <name>Trackpoint 7462</name>
            </trkpt>
            <trkpt lat="50.1272608" lon="11.2708016">
                <ele>280.0</ele>
                <time>2020-08-21T17:29:53.000Z</time>
                <name>Trackpoint 7463</name>
            </trkpt>
            <trkpt lat="50.1272864" lon="11.2706232">
                <ele>280.0</ele>
                <time>2020-08-21T17:29:55.000Z</time>
                <name>Trackpoint 7464</name>
            </trkpt>
            <trkpt lat="50.127312" lon="11.2704448">
                <ele>280.0</ele>
                <time>2020-08-21T17:29:57.000Z</time>
                <name>Trackpoint 7465</name>
            </trkpt>
            <trkpt lat="50.1273376" lon="11.270264">
                <ele>280.0</ele>
                <time>2020-08-21T17:29:59.000Z</time>
                <name>Trackpoint 7466</name>
            </trkpt>
            <trkpt lat="50.1273536" lon="11.2701728">
                <ele>280.0</ele>
                <time>2020-08-21T17:30:00.000Z</time>
                <name>Trackpoint 7467</name>
            </trkpt>
            <trkpt lat="50.1273664" lon="11.2700832">
                <ele>280.0</ele>
                <time>2020-08-21T17:30:01.000Z</time>
                <name>Trackpoint 7468</name>
            </trkpt>
            <trkpt lat="50.1273792" lon="11.2699936">
                <ele>280.0</ele>
                <time>2020-08-21T17:30:02.000Z</time>
                <name>Trackpoint 7469</name>
            </trkpt>
            <trkpt lat="50.1273952" lon="11.2699048">
                <ele>280.0</ele>
                <time>2020-08-21T17:30:03.000Z</time>
                <name>Trackpoint 7470</name>
            </trkpt>
            <trkpt lat="50.1274144" lon="11.2698152">
                <ele>280.0</ele>
                <time>2020-08-21T17:30:04.000Z</time>
                <name>Trackpoint 7471</name>
            </trkpt>
            <trkpt lat="50.1274496" lon="11.269644">
                <ele>280.0</ele>
                <time>2020-08-21T17:30:06.000Z</time>
                <name>Trackpoint 7472</name>
            </trkpt>
            <trkpt lat="50.1274848" lon="11.269472">
                <ele>281.0</ele>
                <time>2020-08-21T17:30:08.000Z</time>
                <name>Trackpoint 7473</name>
            </trkpt>
            <trkpt lat="50.1274976" lon="11.2693784">
                <ele>280.0</ele>
                <time>2020-08-21T17:30:09.000Z</time>
                <name>Trackpoint 7474</name>
            </trkpt>
            <trkpt lat="50.1275136" lon="11.2692896">
                <ele>281.0</ele>
                <time>2020-08-21T17:30:10.000Z</time>
                <name>Trackpoint 7475</name>
            </trkpt>
            <trkpt lat="50.1275328" lon="11.2692016">
                <ele>281.0</ele>
                <time>2020-08-21T17:30:11.000Z</time>
                <name>Trackpoint 7476</name>
            </trkpt>
            <trkpt lat="50.1275744" lon="11.2690288">
                <ele>280.0</ele>
                <time>2020-08-21T17:30:13.000Z</time>
                <name>Trackpoint 7477</name>
            </trkpt>
            <trkpt lat="50.1275968" lon="11.26894">
                <ele>281.0</ele>
                <time>2020-08-21T17:30:14.000Z</time>
                <name>Trackpoint 7478</name>
            </trkpt>
            <trkpt lat="50.1276128" lon="11.2688488">
                <ele>281.0</ele>
                <time>2020-08-21T17:30:15.000Z</time>
                <name>Trackpoint 7479</name>
            </trkpt>
            <trkpt lat="50.1276512" lon="11.26868">
                <ele>281.0</ele>
                <time>2020-08-21T17:30:17.000Z</time>
                <name>Trackpoint 7480</name>
            </trkpt>
            <trkpt lat="50.1276864" lon="11.26852">
                <ele>281.0</ele>
                <time>2020-08-21T17:30:19.000Z</time>
                <name>Trackpoint 7481</name>
            </trkpt>
            <trkpt lat="50.127728" lon="11.2683464">
                <ele>281.0</ele>
                <time>2020-08-21T17:30:21.000Z</time>
                <name>Trackpoint 7482</name>
            </trkpt>
            <trkpt lat="50.1277376" lon="11.2682464">
                <ele>280.0</ele>
                <time>2020-08-21T17:30:22.000Z</time>
                <name>Trackpoint 7483</name>
            </trkpt>
            <trkpt lat="50.1277568" lon="11.2681568">
                <ele>280.0</ele>
                <time>2020-08-21T17:30:23.000Z</time>
                <name>Trackpoint 7484</name>
            </trkpt>
            <trkpt lat="50.1277984" lon="11.2679856">
                <ele>280.0</ele>
                <time>2020-08-21T17:30:25.000Z</time>
                <name>Trackpoint 7485</name>
            </trkpt>
            <trkpt lat="50.1278432" lon="11.26782">
                <ele>280.0</ele>
                <time>2020-08-21T17:30:27.000Z</time>
                <name>Trackpoint 7486</name>
            </trkpt>
            <trkpt lat="50.1278848" lon="11.2676536">
                <ele>280.0</ele>
                <time>2020-08-21T17:30:29.000Z</time>
                <name>Trackpoint 7487</name>
            </trkpt>
            <trkpt lat="50.1279296" lon="11.2674888">
                <ele>280.0</ele>
                <time>2020-08-21T17:30:31.000Z</time>
                <name>Trackpoint 7488</name>
            </trkpt>
            <trkpt lat="50.1279712" lon="11.2673232">
                <ele>280.0</ele>
                <time>2020-08-21T17:30:33.000Z</time>
                <name>Trackpoint 7489</name>
            </trkpt>
            <trkpt lat="50.1280096" lon="11.2671544">
                <ele>280.0</ele>
                <time>2020-08-21T17:30:35.000Z</time>
                <name>Trackpoint 7490</name>
            </trkpt>
            <trkpt lat="50.1280224" lon="11.2669832">
                <ele>280.0</ele>
                <time>2020-08-21T17:30:37.000Z</time>
                <name>Trackpoint 7491</name>
            </trkpt>
            <trkpt lat="50.1280096" lon="11.2668136">
                <ele>280.0</ele>
                <time>2020-08-21T17:30:39.000Z</time>
                <name>Trackpoint 7492</name>
            </trkpt>
            <trkpt lat="50.128016" lon="11.2666464">
                <ele>280.0</ele>
                <time>2020-08-21T17:30:41.000Z</time>
                <name>Trackpoint 7493</name>
            </trkpt>
            <trkpt lat="50.1280544" lon="11.2664968">
                <ele>280.0</ele>
                <time>2020-08-21T17:30:43.000Z</time>
                <name>Trackpoint 7494</name>
            </trkpt>
            <trkpt lat="50.1281024" lon="11.2663536">
                <ele>281.0</ele>
                <time>2020-08-21T17:30:45.000Z</time>
                <name>Trackpoint 7495</name>
            </trkpt>
            <trkpt lat="50.128144" lon="11.2662096">
                <ele>281.0</ele>
                <time>2020-08-21T17:30:47.000Z</time>
                <name>Trackpoint 7496</name>
            </trkpt>
            <trkpt lat="50.1281856" lon="11.2660712">
                <ele>281.0</ele>
                <time>2020-08-21T17:30:49.000Z</time>
                <name>Trackpoint 7497</name>
            </trkpt>
            <trkpt lat="50.1282272" lon="11.265928">
                <ele>282.0</ele>
                <time>2020-08-21T17:30:51.000Z</time>
                <name>Trackpoint 7498</name>
            </trkpt>
            <trkpt lat="50.1282656" lon="11.2657816">
                <ele>282.0</ele>
                <time>2020-08-21T17:30:53.000Z</time>
                <name>Trackpoint 7499</name>
            </trkpt>
            <trkpt lat="50.1283072" lon="11.2656336">
                <ele>282.0</ele>
                <time>2020-08-21T17:30:55.000Z</time>
                <name>Trackpoint 7500</name>
            </trkpt>
            <trkpt lat="50.1283488" lon="11.2654896">
                <ele>282.0</ele>
                <time>2020-08-21T17:30:57.000Z</time>
                <name>Trackpoint 7501</name>
            </trkpt>
            <trkpt lat="50.1284064" lon="11.2653568">
                <ele>282.0</ele>
                <time>2020-08-21T17:30:59.000Z</time>
                <name>Trackpoint 7502</name>
            </trkpt>
            <trkpt lat="50.1284736" lon="11.2652328">
                <ele>282.0</ele>
                <time>2020-08-21T17:31:01.000Z</time>
                <name>Trackpoint 7503</name>
            </trkpt>
            <trkpt lat="50.1285472" lon="11.2651064">
                <ele>282.0</ele>
                <time>2020-08-21T17:31:03.000Z</time>
                <name>Trackpoint 7504</name>
            </trkpt>
            <trkpt lat="50.1286176" lon="11.2649584">
                <ele>281.0</ele>
                <time>2020-08-21T17:31:05.000Z</time>
                <name>Trackpoint 7505</name>
            </trkpt>
            <trkpt lat="50.128672" lon="11.2647896">
                <ele>281.0</ele>
                <time>2020-08-21T17:31:07.000Z</time>
                <name>Trackpoint 7506</name>
            </trkpt>
            <trkpt lat="50.1287232" lon="11.2646112">
                <ele>281.0</ele>
                <time>2020-08-21T17:31:09.000Z</time>
                <name>Trackpoint 7507</name>
            </trkpt>
            <trkpt lat="50.1287488" lon="11.2645216">
                <ele>281.0</ele>
                <time>2020-08-21T17:31:10.000Z</time>
                <name>Trackpoint 7508</name>
            </trkpt>
            <trkpt lat="50.1287712" lon="11.2644328">
                <ele>281.0</ele>
                <time>2020-08-21T17:31:11.000Z</time>
                <name>Trackpoint 7509</name>
            </trkpt>
            <trkpt lat="50.1288" lon="11.2643448">
                <ele>281.0</ele>
                <time>2020-08-21T17:31:12.000Z</time>
                <name>Trackpoint 7510</name>
            </trkpt>
            <trkpt lat="50.1288448" lon="11.2641736">
                <ele>281.0</ele>
                <time>2020-08-21T17:31:14.000Z</time>
                <name>Trackpoint 7511</name>
            </trkpt>
            <trkpt lat="50.128896" lon="11.2640064">
                <ele>281.0</ele>
                <time>2020-08-21T17:31:16.000Z</time>
                <name>Trackpoint 7512</name>
            </trkpt>
            <trkpt lat="50.1289408" lon="11.2638384">
                <ele>281.0</ele>
                <time>2020-08-21T17:31:18.000Z</time>
                <name>Trackpoint 7513</name>
            </trkpt>
            <trkpt lat="50.1289856" lon="11.2636744">
                <ele>281.0</ele>
                <time>2020-08-21T17:31:20.000Z</time>
                <name>Trackpoint 7514</name>
            </trkpt>
            <trkpt lat="50.1290336" lon="11.2635096">
                <ele>281.0</ele>
                <time>2020-08-21T17:31:22.000Z</time>
                <name>Trackpoint 7515</name>
            </trkpt>
            <trkpt lat="50.1290784" lon="11.2633536">
                <ele>281.0</ele>
                <time>2020-08-21T17:31:24.000Z</time>
                <name>Trackpoint 7516</name>
            </trkpt>
            <trkpt lat="50.1291232" lon="11.2631968">
                <ele>281.0</ele>
                <time>2020-08-21T17:31:26.000Z</time>
                <name>Trackpoint 7517</name>
            </trkpt>
            <trkpt lat="50.129168" lon="11.2630392">
                <ele>281.0</ele>
                <time>2020-08-21T17:31:28.000Z</time>
                <name>Trackpoint 7518</name>
            </trkpt>
            <trkpt lat="50.129216" lon="11.2628848">
                <ele>281.0</ele>
                <time>2020-08-21T17:31:30.000Z</time>
                <name>Trackpoint 7519</name>
            </trkpt>
            <trkpt lat="50.129264" lon="11.26274">
                <ele>281.0</ele>
                <time>2020-08-21T17:31:32.000Z</time>
                <name>Trackpoint 7520</name>
            </trkpt>
            <trkpt lat="50.1293184" lon="11.2625904">
                <ele>281.0</ele>
                <time>2020-08-21T17:31:34.000Z</time>
                <name>Trackpoint 7521</name>
            </trkpt>
            <trkpt lat="50.1293632" lon="11.2624384">
                <ele>281.0</ele>
                <time>2020-08-21T17:31:36.000Z</time>
                <name>Trackpoint 7522</name>
            </trkpt>
            <trkpt lat="50.1294112" lon="11.262288">
                <ele>281.0</ele>
                <time>2020-08-21T17:31:38.000Z</time>
                <name>Trackpoint 7523</name>
            </trkpt>
            <trkpt lat="50.1294592" lon="11.2621344">
                <ele>281.0</ele>
                <time>2020-08-21T17:31:40.000Z</time>
                <name>Trackpoint 7524</name>
            </trkpt>
            <trkpt lat="50.1295104" lon="11.2619888">
                <ele>281.0</ele>
                <time>2020-08-21T17:31:42.000Z</time>
                <name>Trackpoint 7525</name>
            </trkpt>
            <trkpt lat="50.1295552" lon="11.2618376">
                <ele>280.0</ele>
                <time>2020-08-21T17:31:44.000Z</time>
                <name>Trackpoint 7526</name>
            </trkpt>
            <trkpt lat="50.1296096" lon="11.2616904">
                <ele>281.0</ele>
                <time>2020-08-21T17:31:46.000Z</time>
                <name>Trackpoint 7527</name>
            </trkpt>
            <trkpt lat="50.1296576" lon="11.2615336">
                <ele>280.0</ele>
                <time>2020-08-21T17:31:48.000Z</time>
                <name>Trackpoint 7528</name>
            </trkpt>
            <trkpt lat="50.1297088" lon="11.2613824">
                <ele>280.0</ele>
                <time>2020-08-21T17:31:50.000Z</time>
                <name>Trackpoint 7529</name>
            </trkpt>
            <trkpt lat="50.12976" lon="11.2612352">
                <ele>280.0</ele>
                <time>2020-08-21T17:31:52.000Z</time>
                <name>Trackpoint 7530</name>
            </trkpt>
            <trkpt lat="50.1298016" lon="11.26108">
                <ele>281.0</ele>
                <time>2020-08-21T17:31:54.000Z</time>
                <name>Trackpoint 7531</name>
            </trkpt>
            <trkpt lat="50.1298496" lon="11.2609304">
                <ele>281.0</ele>
                <time>2020-08-21T17:31:56.000Z</time>
                <name>Trackpoint 7532</name>
            </trkpt>
            <trkpt lat="50.1299008" lon="11.2607872">
                <ele>281.0</ele>
                <time>2020-08-21T17:31:58.000Z</time>
                <name>Trackpoint 7533</name>
            </trkpt>
            <trkpt lat="50.1299424" lon="11.2606552">
                <ele>281.0</ele>
                <time>2020-08-21T17:32:00.000Z</time>
                <name>Trackpoint 7534</name>
            </trkpt>
            <trkpt lat="50.1299904" lon="11.2605312">
                <ele>281.0</ele>
                <time>2020-08-21T17:32:02.000Z</time>
                <name>Trackpoint 7535</name>
            </trkpt>
            <trkpt lat="50.130032" lon="11.2604048">
                <ele>281.0</ele>
                <time>2020-08-21T17:32:04.000Z</time>
                <name>Trackpoint 7536</name>
            </trkpt>
            <trkpt lat="50.1300672" lon="11.260272">
                <ele>281.0</ele>
                <time>2020-08-21T17:32:06.000Z</time>
                <name>Trackpoint 7537</name>
            </trkpt>
            <trkpt lat="50.130112" lon="11.2601416">
                <ele>282.0</ele>
                <time>2020-08-21T17:32:08.000Z</time>
                <name>Trackpoint 7538</name>
            </trkpt>
            <trkpt lat="50.13016" lon="11.2600272">
                <ele>283.0</ele>
                <time>2020-08-21T17:32:10.000Z</time>
                <name>Trackpoint 7539</name>
            </trkpt>
            <trkpt lat="50.1301984" lon="11.259916">
                <ele>283.0</ele>
                <time>2020-08-21T17:32:12.000Z</time>
                <name>Trackpoint 7540</name>
            </trkpt>
            <trkpt lat="50.1302368" lon="11.2598152">
                <ele>282.0</ele>
                <time>2020-08-21T17:32:14.000Z</time>
                <name>Trackpoint 7541</name>
            </trkpt>
            <trkpt lat="50.1302752" lon="11.2597112">
                <ele>282.0</ele>
                <time>2020-08-21T17:32:16.000Z</time>
                <name>Trackpoint 7542</name>
            </trkpt>
            <trkpt lat="50.13032" lon="11.2596032">
                <ele>282.0</ele>
                <time>2020-08-21T17:32:18.000Z</time>
                <name>Trackpoint 7543</name>
            </trkpt>
            <trkpt lat="50.130368" lon="11.2594744">
                <ele>282.0</ele>
                <time>2020-08-21T17:32:20.000Z</time>
                <name>Trackpoint 7544</name>
            </trkpt>
            <trkpt lat="50.1304256" lon="11.259328">
                <ele>282.0</ele>
                <time>2020-08-21T17:32:22.000Z</time>
                <name>Trackpoint 7545</name>
            </trkpt>
            <trkpt lat="50.1304864" lon="11.2591688">
                <ele>281.0</ele>
                <time>2020-08-21T17:32:24.000Z</time>
                <name>Trackpoint 7546</name>
            </trkpt>
            <trkpt lat="50.1305504" lon="11.2589976">
                <ele>281.0</ele>
                <time>2020-08-21T17:32:26.000Z</time>
                <name>Trackpoint 7547</name>
            </trkpt>
            <trkpt lat="50.1305856" lon="11.258908">
                <ele>280.0</ele>
                <time>2020-08-21T17:32:27.000Z</time>
                <name>Trackpoint 7548</name>
            </trkpt>
            <trkpt lat="50.1306144" lon="11.2588192">
                <ele>280.0</ele>
                <time>2020-08-21T17:32:28.000Z</time>
                <name>Trackpoint 7549</name>
            </trkpt>
            <trkpt lat="50.1306496" lon="11.2587296">
                <ele>280.0</ele>
                <time>2020-08-21T17:32:29.000Z</time>
                <name>Trackpoint 7550</name>
            </trkpt>
            <trkpt lat="50.1306848" lon="11.2586432">
                <ele>280.0</ele>
                <time>2020-08-21T17:32:30.000Z</time>
                <name>Trackpoint 7551</name>
            </trkpt>
            <trkpt lat="50.1307168" lon="11.2585584">
                <ele>280.0</ele>
                <time>2020-08-21T17:32:31.000Z</time>
                <name>Trackpoint 7552</name>
            </trkpt>
            <trkpt lat="50.130752" lon="11.2584712">
                <ele>279.0</ele>
                <time>2020-08-21T17:32:32.000Z</time>
                <name>Trackpoint 7553</name>
            </trkpt>
            <trkpt lat="50.130784" lon="11.258384">
                <ele>279.0</ele>
                <time>2020-08-21T17:32:33.000Z</time>
                <name>Trackpoint 7554</name>
            </trkpt>
            <trkpt lat="50.130816" lon="11.2582952">
                <ele>279.0</ele>
                <time>2020-08-21T17:32:34.000Z</time>
                <name>Trackpoint 7555</name>
            </trkpt>
            <trkpt lat="50.1308512" lon="11.2582064">
                <ele>279.0</ele>
                <time>2020-08-21T17:32:35.000Z</time>
                <name>Trackpoint 7556</name>
            </trkpt>
            <trkpt lat="50.1308832" lon="11.2581184">
                <ele>279.0</ele>
                <time>2020-08-21T17:32:36.000Z</time>
                <name>Trackpoint 7557</name>
            </trkpt>
            <trkpt lat="50.130912" lon="11.258032">
                <ele>279.0</ele>
                <time>2020-08-21T17:32:37.000Z</time>
                <name>Trackpoint 7558</name>
            </trkpt>
            <trkpt lat="50.130944" lon="11.2579416">
                <ele>279.0</ele>
                <time>2020-08-21T17:32:38.000Z</time>
                <name>Trackpoint 7559</name>
            </trkpt>
            <trkpt lat="50.1309728" lon="11.2578552">
                <ele>279.0</ele>
                <time>2020-08-21T17:32:39.000Z</time>
                <name>Trackpoint 7560</name>
            </trkpt>
            <trkpt lat="50.1310336" lon="11.2576888">
                <ele>279.0</ele>
                <time>2020-08-21T17:32:41.000Z</time>
                <name>Trackpoint 7561</name>
            </trkpt>
            <trkpt lat="50.1310656" lon="11.257604">
                <ele>279.0</ele>
                <time>2020-08-21T17:32:42.000Z</time>
                <name>Trackpoint 7562</name>
            </trkpt>
            <trkpt lat="50.1311008" lon="11.2575184">
                <ele>279.0</ele>
                <time>2020-08-21T17:32:43.000Z</time>
                <name>Trackpoint 7563</name>
            </trkpt>
            <trkpt lat="50.1311616" lon="11.2573544">
                <ele>279.0</ele>
                <time>2020-08-21T17:32:45.000Z</time>
                <name>Trackpoint 7564</name>
            </trkpt>
            <trkpt lat="50.1312256" lon="11.2572">
                <ele>279.0</ele>
                <time>2020-08-21T17:32:47.000Z</time>
                <name>Trackpoint 7565</name>
            </trkpt>
            <trkpt lat="50.1312896" lon="11.2570448">
                <ele>279.0</ele>
                <time>2020-08-21T17:32:49.000Z</time>
                <name>Trackpoint 7566</name>
            </trkpt>
            <trkpt lat="50.1313568" lon="11.256888">
                <ele>279.0</ele>
                <time>2020-08-21T17:32:51.000Z</time>
                <name>Trackpoint 7567</name>
            </trkpt>
            <trkpt lat="50.1314208" lon="11.2567384">
                <ele>279.0</ele>
                <time>2020-08-21T17:32:53.000Z</time>
                <name>Trackpoint 7568</name>
            </trkpt>
            <trkpt lat="50.1314816" lon="11.2565832">
                <ele>279.0</ele>
                <time>2020-08-21T17:32:55.000Z</time>
                <name>Trackpoint 7569</name>
            </trkpt>
            <trkpt lat="50.1315456" lon="11.2564312">
                <ele>279.0</ele>
                <time>2020-08-21T17:32:57.000Z</time>
                <name>Trackpoint 7570</name>
            </trkpt>
            <trkpt lat="50.1316064" lon="11.2562816">
                <ele>279.0</ele>
                <time>2020-08-21T17:32:59.000Z</time>
                <name>Trackpoint 7571</name>
            </trkpt>
            <trkpt lat="50.1316672" lon="11.256128">
                <ele>279.0</ele>
                <time>2020-08-21T17:33:01.000Z</time>
                <name>Trackpoint 7572</name>
            </trkpt>
            <trkpt lat="50.1317376" lon="11.255988">
                <ele>279.0</ele>
                <time>2020-08-21T17:33:03.000Z</time>
                <name>Trackpoint 7573</name>
            </trkpt>
            <trkpt lat="50.1318016" lon="11.2558416">
                <ele>279.0</ele>
                <time>2020-08-21T17:33:05.000Z</time>
                <name>Trackpoint 7574</name>
            </trkpt>
            <trkpt lat="50.1318624" lon="11.2556952">
                <ele>279.0</ele>
                <time>2020-08-21T17:33:07.000Z</time>
                <name>Trackpoint 7575</name>
            </trkpt>
            <trkpt lat="50.13192" lon="11.2555504">
                <ele>279.0</ele>
                <time>2020-08-21T17:33:09.000Z</time>
                <name>Trackpoint 7576</name>
            </trkpt>
            <trkpt lat="50.1319808" lon="11.2554016">
                <ele>279.0</ele>
                <time>2020-08-21T17:33:11.000Z</time>
                <name>Trackpoint 7577</name>
            </trkpt>
            <trkpt lat="50.1320416" lon="11.2552616">
                <ele>279.0</ele>
                <time>2020-08-21T17:33:13.000Z</time>
                <name>Trackpoint 7578</name>
            </trkpt>
            <trkpt lat="50.1321056" lon="11.2551248">
                <ele>279.0</ele>
                <time>2020-08-21T17:33:15.000Z</time>
                <name>Trackpoint 7579</name>
            </trkpt>
            <trkpt lat="50.1321664" lon="11.2549848">
                <ele>279.0</ele>
                <time>2020-08-21T17:33:17.000Z</time>
                <name>Trackpoint 7580</name>
            </trkpt>
            <trkpt lat="50.1322304" lon="11.2548464">
                <ele>280.0</ele>
                <time>2020-08-21T17:33:19.000Z</time>
                <name>Trackpoint 7581</name>
            </trkpt>
            <trkpt lat="50.1322848" lon="11.2547104">
                <ele>280.0</ele>
                <time>2020-08-21T17:33:21.000Z</time>
                <name>Trackpoint 7582</name>
            </trkpt>
            <trkpt lat="50.1323424" lon="11.2545784">
                <ele>280.0</ele>
                <time>2020-08-21T17:33:23.000Z</time>
                <name>Trackpoint 7583</name>
            </trkpt>
            <trkpt lat="50.1323968" lon="11.2544448">
                <ele>280.0</ele>
                <time>2020-08-21T17:33:25.000Z</time>
                <name>Trackpoint 7584</name>
            </trkpt>
            <trkpt lat="50.1324544" lon="11.2543112">
                <ele>280.0</ele>
                <time>2020-08-21T17:33:27.000Z</time>
                <name>Trackpoint 7585</name>
            </trkpt>
            <trkpt lat="50.1325088" lon="11.2541888">
                <ele>280.0</ele>
                <time>2020-08-21T17:33:29.000Z</time>
                <name>Trackpoint 7586</name>
            </trkpt>
            <trkpt lat="50.1325568" lon="11.25408">
                <ele>281.0</ele>
                <time>2020-08-21T17:33:31.000Z</time>
                <name>Trackpoint 7587</name>
            </trkpt>
            <trkpt lat="50.1326016" lon="11.253992">
                <ele>281.0</ele>
                <time>2020-08-21T17:33:33.000Z</time>
                <name>Trackpoint 7588</name>
            </trkpt>
            <trkpt lat="50.1326944" lon="11.2539456">
                <ele>282.0</ele>
                <time>2020-08-21T17:33:36.000Z</time>
                <name>Trackpoint 7589</name>
            </trkpt>
            <trkpt lat="50.1328064" lon="11.253988">
                <ele>281.0</ele>
                <time>2020-08-21T17:33:40.000Z</time>
                <name>Trackpoint 7590</name>
            </trkpt>
            <trkpt lat="50.1329184" lon="11.2540416">
                <ele>280.0</ele>
                <time>2020-08-21T17:33:43.000Z</time>
                <name>Trackpoint 7591</name>
            </trkpt>
            <trkpt lat="50.133008" lon="11.2540712">
                <ele>280.0</ele>
                <time>2020-08-21T17:33:45.000Z</time>
                <name>Trackpoint 7592</name>
            </trkpt>
            <trkpt lat="50.1330944" lon="11.2541">
                <ele>280.0</ele>
                <time>2020-08-21T17:33:47.000Z</time>
                <name>Trackpoint 7593</name>
            </trkpt>
            <trkpt lat="50.1332" lon="11.25412">
                <ele>280.0</ele>
                <time>2020-08-21T17:33:49.000Z</time>
                <name>Trackpoint 7594</name>
            </trkpt>
            <trkpt lat="50.133312" lon="11.25414">
                <ele>281.0</ele>
                <time>2020-08-21T17:33:51.000Z</time>
                <name>Trackpoint 7595</name>
            </trkpt>
            <trkpt lat="50.1334112" lon="11.2541504">
                <ele>281.0</ele>
                <time>2020-08-21T17:33:53.000Z</time>
                <name>Trackpoint 7596</name>
            </trkpt>
            <trkpt lat="50.1335424" lon="11.2541736">
                <ele>281.0</ele>
                <time>2020-08-21T17:33:56.000Z</time>
                <name>Trackpoint 7597</name>
            </trkpt>
            <trkpt lat="50.133648" lon="11.2541664">
                <ele>281.0</ele>
                <time>2020-08-21T17:33:59.000Z</time>
                <name>Trackpoint 7598</name>
            </trkpt>
            <trkpt lat="50.1336896" lon="11.2540752">
                <ele>282.0</ele>
                <time>2020-08-21T17:34:01.000Z</time>
                <name>Trackpoint 7599</name>
            </trkpt>
            <trkpt lat="50.133744" lon="11.2539704">
                <ele>282.0</ele>
                <time>2020-08-21T17:34:03.000Z</time>
                <name>Trackpoint 7600</name>
            </trkpt>
            <trkpt lat="50.133808" lon="11.2538728">
                <ele>282.0</ele>
                <time>2020-08-21T17:34:05.000Z</time>
                <name>Trackpoint 7601</name>
            </trkpt>
            <trkpt lat="50.1338816" lon="11.2537872">
                <ele>282.0</ele>
                <time>2020-08-21T17:34:07.000Z</time>
                <name>Trackpoint 7602</name>
            </trkpt>
            <trkpt lat="50.1339424" lon="11.2536872">
                <ele>282.0</ele>
                <time>2020-08-21T17:34:09.000Z</time>
                <name>Trackpoint 7603</name>
            </trkpt>
            <trkpt lat="50.1340064" lon="11.25358">
                <ele>282.0</ele>
                <time>2020-08-21T17:34:11.000Z</time>
                <name>Trackpoint 7604</name>
            </trkpt>
            <trkpt lat="50.13408" lon="11.2534704">
                <ele>281.0</ele>
                <time>2020-08-21T17:34:13.000Z</time>
                <name>Trackpoint 7605</name>
            </trkpt>
            <trkpt lat="50.1341472" lon="11.2533568">
                <ele>281.0</ele>
                <time>2020-08-21T17:34:15.000Z</time>
                <name>Trackpoint 7606</name>
            </trkpt>
            <trkpt lat="50.1342176" lon="11.253232">
                <ele>281.0</ele>
                <time>2020-08-21T17:34:17.000Z</time>
                <name>Trackpoint 7607</name>
            </trkpt>
            <trkpt lat="50.1342816" lon="11.2531016">
                <ele>281.0</ele>
                <time>2020-08-21T17:34:19.000Z</time>
                <name>Trackpoint 7608</name>
            </trkpt>
            <trkpt lat="50.1343424" lon="11.2529696">
                <ele>281.0</ele>
                <time>2020-08-21T17:34:21.000Z</time>
                <name>Trackpoint 7609</name>
            </trkpt>
            <trkpt lat="50.1344032" lon="11.2528288">
                <ele>281.0</ele>
                <time>2020-08-21T17:34:23.000Z</time>
                <name>Trackpoint 7610</name>
            </trkpt>
            <trkpt lat="50.1344896" lon="11.2527312">
                <ele>281.0</ele>
                <time>2020-08-21T17:34:25.000Z</time>
                <name>Trackpoint 7611</name>
            </trkpt>
            <trkpt lat="50.1345984" lon="11.2527536">
                <ele>280.0</ele>
                <time>2020-08-21T17:34:27.000Z</time>
                <name>Trackpoint 7612</name>
            </trkpt>
            <trkpt lat="50.1346784" lon="11.25282">
                <ele>279.0</ele>
                <time>2020-08-21T17:34:30.000Z</time>
                <name>Trackpoint 7613</name>
            </trkpt>
            <trkpt lat="50.1347648" lon="11.2528552">
                <ele>280.0</ele>
                <time>2020-08-21T17:35:00.000Z</time>
                <name>Trackpoint 7614</name>
            </trkpt>
            <trkpt lat="50.1348864" lon="11.2528584">
                <ele>280.0</ele>
                <time>2020-08-21T17:35:04.000Z</time>
                <name>Trackpoint 7615</name>
            </trkpt>
            <trkpt lat="50.1350112" lon="11.2528384">
                <ele>280.0</ele>
                <time>2020-08-21T17:35:07.000Z</time>
                <name>Trackpoint 7616</name>
            </trkpt>
            <trkpt lat="50.1350976" lon="11.2528088">
                <ele>280.0</ele>
                <time>2020-08-21T17:35:09.000Z</time>
                <name>Trackpoint 7617</name>
            </trkpt>
            <trkpt lat="50.135184" lon="11.2527648">
                <ele>280.0</ele>
                <time>2020-08-21T17:35:11.000Z</time>
                <name>Trackpoint 7618</name>
            </trkpt>
            <trkpt lat="50.1352704" lon="11.2527088">
                <ele>280.0</ele>
                <time>2020-08-21T17:35:13.000Z</time>
                <name>Trackpoint 7619</name>
            </trkpt>
            <trkpt lat="50.1353536" lon="11.2526448">
                <ele>280.0</ele>
                <time>2020-08-21T17:35:15.000Z</time>
                <name>Trackpoint 7620</name>
            </trkpt>
            <trkpt lat="50.1354336" lon="11.252568">
                <ele>280.0</ele>
                <time>2020-08-21T17:35:17.000Z</time>
                <name>Trackpoint 7621</name>
            </trkpt>
            <trkpt lat="50.1355136" lon="11.2524904">
                <ele>280.0</ele>
                <time>2020-08-21T17:35:19.000Z</time>
                <name>Trackpoint 7622</name>
            </trkpt>
            <trkpt lat="50.1356" lon="11.2524144">
                <ele>280.0</ele>
                <time>2020-08-21T17:35:21.000Z</time>
                <name>Trackpoint 7623</name>
            </trkpt>
            <trkpt lat="50.1356864" lon="11.2523432">
                <ele>279.0</ele>
                <time>2020-08-21T17:35:23.000Z</time>
                <name>Trackpoint 7624</name>
            </trkpt>
            <trkpt lat="50.1357696" lon="11.2522736">
                <ele>279.0</ele>
                <time>2020-08-21T17:35:25.000Z</time>
                <name>Trackpoint 7625</name>
            </trkpt>
            <trkpt lat="50.1358464" lon="11.2521952">
                <ele>279.0</ele>
                <time>2020-08-21T17:35:27.000Z</time>
                <name>Trackpoint 7626</name>
            </trkpt>
            <trkpt lat="50.1359264" lon="11.2521096">
                <ele>280.0</ele>
                <time>2020-08-21T17:35:29.000Z</time>
                <name>Trackpoint 7627</name>
            </trkpt>
            <trkpt lat="50.136" lon="11.25202">
                <ele>280.0</ele>
                <time>2020-08-21T17:35:31.000Z</time>
                <name>Trackpoint 7628</name>
            </trkpt>
            <trkpt lat="50.1360768" lon="11.2519256">
                <ele>279.0</ele>
                <time>2020-08-21T17:35:33.000Z</time>
                <name>Trackpoint 7629</name>
            </trkpt>
            <trkpt lat="50.1361536" lon="11.2518184">
                <ele>280.0</ele>
                <time>2020-08-21T17:35:35.000Z</time>
                <name>Trackpoint 7630</name>
            </trkpt>
            <trkpt lat="50.1362176" lon="11.2517048">
                <ele>280.0</ele>
                <time>2020-08-21T17:35:37.000Z</time>
                <name>Trackpoint 7631</name>
            </trkpt>
            <trkpt lat="50.1362912" lon="11.25158">
                <ele>280.0</ele>
                <time>2020-08-21T17:35:39.000Z</time>
                <name>Trackpoint 7632</name>
            </trkpt>
            <trkpt lat="50.136352" lon="11.251456">
                <ele>280.0</ele>
                <time>2020-08-21T17:35:41.000Z</time>
                <name>Trackpoint 7633</name>
            </trkpt>
            <trkpt lat="50.136416" lon="11.2513384">
                <ele>280.0</ele>
                <time>2020-08-21T17:35:43.000Z</time>
                <name>Trackpoint 7634</name>
            </trkpt>
            <trkpt lat="50.13648" lon="11.2512128">
                <ele>280.0</ele>
                <time>2020-08-21T17:35:45.000Z</time>
                <name>Trackpoint 7635</name>
            </trkpt>
            <trkpt lat="50.1365408" lon="11.2510832">
                <ele>280.0</ele>
                <time>2020-08-21T17:35:47.000Z</time>
                <name>Trackpoint 7636</name>
            </trkpt>
            <trkpt lat="50.136592" lon="11.2509496">
                <ele>280.0</ele>
                <time>2020-08-21T17:35:49.000Z</time>
                <name>Trackpoint 7637</name>
            </trkpt>
            <trkpt lat="50.1366496" lon="11.2508272">
                <ele>280.0</ele>
                <time>2020-08-21T17:35:51.000Z</time>
                <name>Trackpoint 7638</name>
            </trkpt>
            <trkpt lat="50.1366912" lon="11.2506888">
                <ele>280.0</ele>
                <time>2020-08-21T17:35:53.000Z</time>
                <name>Trackpoint 7639</name>
            </trkpt>
            <trkpt lat="50.1367328" lon="11.250564">
                <ele>280.0</ele>
                <time>2020-08-21T17:35:55.000Z</time>
                <name>Trackpoint 7640</name>
            </trkpt>
            <trkpt lat="50.1367808" lon="11.2504456">
                <ele>280.0</ele>
                <time>2020-08-21T17:35:57.000Z</time>
                <name>Trackpoint 7641</name>
            </trkpt>
            <trkpt lat="50.1368192" lon="11.2503296">
                <ele>280.0</ele>
                <time>2020-08-21T17:35:59.000Z</time>
                <name>Trackpoint 7642</name>
            </trkpt>
            <trkpt lat="50.1368832" lon="11.25024">
                <ele>280.0</ele>
                <time>2020-08-21T17:36:01.000Z</time>
                <name>Trackpoint 7643</name>
            </trkpt>
            <trkpt lat="50.1369856" lon="11.2502744">
                <ele>280.0</ele>
                <time>2020-08-21T17:36:04.000Z</time>
                <name>Trackpoint 7644</name>
            </trkpt>
            <trkpt lat="50.1370816" lon="11.2503664">
                <ele>280.0</ele>
                <time>2020-08-21T17:36:07.000Z</time>
                <name>Trackpoint 7645</name>
            </trkpt>
            <trkpt lat="50.1371776" lon="11.25044">
                <ele>280.0</ele>
                <time>2020-08-21T17:36:10.000Z</time>
                <name>Trackpoint 7646</name>
            </trkpt>
            <trkpt lat="50.137264" lon="11.2505168">
                <ele>280.0</ele>
                <time>2020-08-21T17:36:13.000Z</time>
                <name>Trackpoint 7647</name>
            </trkpt>
            <trkpt lat="50.1373184" lon="11.2506112">
                <ele>280.0</ele>
                <time>2020-08-21T17:36:16.000Z</time>
                <name>Trackpoint 7648</name>
            </trkpt>
            <trkpt lat="50.1373632" lon="11.2507016">
                <ele>279.0</ele>
                <time>2020-08-21T17:36:31.000Z</time>
                <name>Trackpoint 7649</name>
            </trkpt>
            <trkpt lat="50.1374208" lon="11.2507864">
                <ele>279.0</ele>
                <time>2020-08-21T17:36:34.000Z</time>
                <name>Trackpoint 7650</name>
            </trkpt>
            <trkpt lat="50.1374816" lon="11.2508648">
                <ele>279.0</ele>
                <time>2020-08-21T17:36:37.000Z</time>
                <name>Trackpoint 7651</name>
            </trkpt>
            <trkpt lat="50.1375424" lon="11.2507952">
                <ele>279.0</ele>
                <time>2020-08-21T17:37:06.000Z</time>
                <name>Trackpoint 7652</name>
            </trkpt>
            <trkpt lat="50.1375776" lon="11.2506952">
                <ele>279.0</ele>
                <time>2020-08-21T17:37:10.000Z</time>
                <name>Trackpoint 7653</name>
            </trkpt>
            <trkpt lat="50.1376032" lon="11.2506016">
                <ele>279.0</ele>
                <time>2020-08-21T17:37:13.000Z</time>
                <name>Trackpoint 7654</name>
            </trkpt>
            <trkpt lat="50.1376384" lon="11.2504952">
                <ele>279.0</ele>
                <time>2020-08-21T17:37:17.000Z</time>
                <name>Trackpoint 7655</name>
            </trkpt>
            <trkpt lat="50.1376736" lon="11.2504016">
                <ele>279.0</ele>
                <time>2020-08-21T17:38:08.000Z</time>
                <name>Trackpoint 7656</name>
            </trkpt>
            <trkpt lat="50.1376928" lon="11.250312">
                <ele>279.0</ele>
                <time>2020-08-21T17:38:11.000Z</time>
                <name>Trackpoint 7657</name>
            </trkpt>
            <trkpt lat="50.1377184" lon="11.2502216">
                <ele>279.0</ele>
                <time>2020-08-21T17:38:13.000Z</time>
                <name>Trackpoint 7658</name>
            </trkpt>
            <trkpt lat="50.1377472" lon="11.2501184">
                <ele>280.0</ele>
                <time>2020-08-21T17:38:15.000Z</time>
                <name>Trackpoint 7659</name>
            </trkpt>
            <trkpt lat="50.1377824" lon="11.2500032">
                <ele>280.0</ele>
                <time>2020-08-21T17:38:17.000Z</time>
                <name>Trackpoint 7660</name>
            </trkpt>
            <trkpt lat="50.1378176" lon="11.24988">
                <ele>280.0</ele>
                <time>2020-08-21T17:38:19.000Z</time>
                <name>Trackpoint 7661</name>
            </trkpt>
            <trkpt lat="50.137856" lon="11.2497528">
                <ele>280.0</ele>
                <time>2020-08-21T17:38:21.000Z</time>
                <name>Trackpoint 7662</name>
            </trkpt>
            <trkpt lat="50.1378912" lon="11.2496168">
                <ele>281.0</ele>
                <time>2020-08-21T17:38:23.000Z</time>
                <name>Trackpoint 7663</name>
            </trkpt>
            <trkpt lat="50.1379232" lon="11.2494816">
                <ele>281.0</ele>
                <time>2020-08-21T17:38:25.000Z</time>
                <name>Trackpoint 7664</name>
            </trkpt>
            <trkpt lat="50.1379584" lon="11.2493416">
                <ele>281.0</ele>
                <time>2020-08-21T17:38:27.000Z</time>
                <name>Trackpoint 7665</name>
            </trkpt>
            <trkpt lat="50.1379936" lon="11.2492048">
                <ele>282.0</ele>
                <time>2020-08-21T17:38:29.000Z</time>
                <name>Trackpoint 7666</name>
            </trkpt>
            <trkpt lat="50.1380256" lon="11.2490816">
                <ele>281.0</ele>
                <time>2020-08-21T17:38:31.000Z</time>
                <name>Trackpoint 7667</name>
            </trkpt>
            <trkpt lat="50.1380704" lon="11.2489584">
                <ele>282.0</ele>
                <time>2020-08-21T17:38:33.000Z</time>
                <name>Trackpoint 7668</name>
            </trkpt>
            <trkpt lat="50.138112" lon="11.2488432">
                <ele>282.0</ele>
                <time>2020-08-21T17:38:35.000Z</time>
                <name>Trackpoint 7669</name>
            </trkpt>
            <trkpt lat="50.138144" lon="11.2487448">
                <ele>282.0</ele>
                <time>2020-08-21T17:38:37.000Z</time>
                <name>Trackpoint 7670</name>
            </trkpt>
            <trkpt lat="50.1381792" lon="11.2486448">
                <ele>282.0</ele>
                <time>2020-08-21T17:38:40.000Z</time>
                <name>Trackpoint 7671</name>
            </trkpt>
            <trkpt lat="50.1381792" lon="11.2485504">
                <ele>281.0</ele>
                <time>2020-08-21T17:39:13.000Z</time>
                <name>Trackpoint 7672</name>
            </trkpt>
            <trkpt lat="50.1381152" lon="11.2484712">
                <ele>281.0</ele>
                <time>2020-08-21T17:39:18.000Z</time>
                <name>Trackpoint 7673</name>
            </trkpt>
            <trkpt lat="50.13808" lon="11.2483704">
                <ele>281.0</ele>
                <time>2020-08-21T17:39:21.000Z</time>
                <name>Trackpoint 7674</name>
            </trkpt>
            <trkpt lat="50.138064" lon="11.2482456">
                <ele>281.0</ele>
                <time>2020-08-21T17:39:23.000Z</time>
                <name>Trackpoint 7675</name>
            </trkpt>
            <trkpt lat="50.1380192" lon="11.248132">
                <ele>281.0</ele>
                <time>2020-08-21T17:39:25.000Z</time>
                <name>Trackpoint 7676</name>
            </trkpt>
            <trkpt lat="50.1379456" lon="11.2480232">
                <ele>281.0</ele>
                <time>2020-08-21T17:39:27.000Z</time>
                <name>Trackpoint 7677</name>
            </trkpt>
            <trkpt lat="50.137872" lon="11.2479112">
                <ele>281.0</ele>
                <time>2020-08-21T17:39:29.000Z</time>
                <name>Trackpoint 7678</name>
            </trkpt>
            <trkpt lat="50.137792" lon="11.2477976">
                <ele>281.0</ele>
                <time>2020-08-21T17:39:31.000Z</time>
                <name>Trackpoint 7679</name>
            </trkpt>
            <trkpt lat="50.137712" lon="11.2476968">
                <ele>281.0</ele>
                <time>2020-08-21T17:39:33.000Z</time>
                <name>Trackpoint 7680</name>
            </trkpt>
            <trkpt lat="50.1376224" lon="11.2476016">
                <ele>282.0</ele>
                <time>2020-08-21T17:39:35.000Z</time>
                <name>Trackpoint 7681</name>
            </trkpt>
            <trkpt lat="50.137536" lon="11.2475136">
                <ele>282.0</ele>
                <time>2020-08-21T17:39:37.000Z</time>
                <name>Trackpoint 7682</name>
            </trkpt>
            <trkpt lat="50.1374432" lon="11.2474272">
                <ele>282.0</ele>
                <time>2020-08-21T17:39:39.000Z</time>
                <name>Trackpoint 7683</name>
            </trkpt>
            <trkpt lat="50.1373568" lon="11.2473424">
                <ele>282.0</ele>
                <time>2020-08-21T17:39:41.000Z</time>
                <name>Trackpoint 7684</name>
            </trkpt>
            <trkpt lat="50.137264" lon="11.2472624">
                <ele>282.0</ele>
                <time>2020-08-21T17:39:43.000Z</time>
                <name>Trackpoint 7685</name>
            </trkpt>
            <trkpt lat="50.1371776" lon="11.2471752">
                <ele>283.0</ele>
                <time>2020-08-21T17:39:45.000Z</time>
                <name>Trackpoint 7686</name>
            </trkpt>
            <trkpt lat="50.137088" lon="11.2470864">
                <ele>282.0</ele>
                <time>2020-08-21T17:39:47.000Z</time>
                <name>Trackpoint 7687</name>
            </trkpt>
            <trkpt lat="50.1369984" lon="11.2470032">
                <ele>283.0</ele>
                <time>2020-08-21T17:39:49.000Z</time>
                <name>Trackpoint 7688</name>
            </trkpt>
            <trkpt lat="50.1369088" lon="11.246912">
                <ele>283.0</ele>
                <time>2020-08-21T17:39:51.000Z</time>
                <name>Trackpoint 7689</name>
            </trkpt>
            <trkpt lat="50.1368224" lon="11.2468184">
                <ele>283.0</ele>
                <time>2020-08-21T17:39:53.000Z</time>
                <name>Trackpoint 7690</name>
            </trkpt>
            <trkpt lat="50.1367296" lon="11.2467232">
                <ele>283.0</ele>
                <time>2020-08-21T17:39:55.000Z</time>
                <name>Trackpoint 7691</name>
            </trkpt>
            <trkpt lat="50.1366464" lon="11.2466248">
                <ele>283.0</ele>
                <time>2020-08-21T17:39:57.000Z</time>
                <name>Trackpoint 7692</name>
            </trkpt>
            <trkpt lat="50.1365632" lon="11.2465312">
                <ele>283.0</ele>
                <time>2020-08-21T17:39:59.000Z</time>
                <name>Trackpoint 7693</name>
            </trkpt>
            <trkpt lat="50.1364832" lon="11.2464304">
                <ele>283.0</ele>
                <time>2020-08-21T17:40:01.000Z</time>
                <name>Trackpoint 7694</name>
            </trkpt>
            <trkpt lat="50.1364032" lon="11.2463352">
                <ele>283.0</ele>
                <time>2020-08-21T17:40:03.000Z</time>
                <name>Trackpoint 7695</name>
            </trkpt>
            <trkpt lat="50.1363232" lon="11.2462456">
                <ele>284.0</ele>
                <time>2020-08-21T17:40:05.000Z</time>
                <name>Trackpoint 7696</name>
            </trkpt>
            <trkpt lat="50.1362496" lon="11.2461632">
                <ele>284.0</ele>
                <time>2020-08-21T17:40:07.000Z</time>
                <name>Trackpoint 7697</name>
            </trkpt>
            <trkpt lat="50.1361888" lon="11.2460784">
                <ele>284.0</ele>
                <time>2020-08-21T17:40:09.000Z</time>
                <name>Trackpoint 7698</name>
            </trkpt>
            <trkpt lat="50.136112" lon="11.2459984">
                <ele>284.0</ele>
                <time>2020-08-21T17:40:11.000Z</time>
                <name>Trackpoint 7699</name>
            </trkpt>
            <trkpt lat="50.136032" lon="11.2459072">
                <ele>284.0</ele>
                <time>2020-08-21T17:40:13.000Z</time>
                <name>Trackpoint 7700</name>
            </trkpt>
            <trkpt lat="50.135952" lon="11.2458112">
                <ele>284.0</ele>
                <time>2020-08-21T17:40:15.000Z</time>
                <name>Trackpoint 7701</name>
            </trkpt>
            <trkpt lat="50.1358784" lon="11.2457184">
                <ele>285.0</ele>
                <time>2020-08-21T17:40:17.000Z</time>
                <name>Trackpoint 7702</name>
            </trkpt>
            <trkpt lat="50.1358112" lon="11.2456168">
                <ele>285.0</ele>
                <time>2020-08-21T17:40:19.000Z</time>
                <name>Trackpoint 7703</name>
            </trkpt>
            <trkpt lat="50.1357376" lon="11.2455168">
                <ele>284.0</ele>
                <time>2020-08-21T17:40:21.000Z</time>
                <name>Trackpoint 7704</name>
            </trkpt>
            <trkpt lat="50.135632" lon="11.2454184">
                <ele>284.0</ele>
                <time>2020-08-21T17:40:23.000Z</time>
                <name>Trackpoint 7705</name>
            </trkpt>
            <trkpt lat="50.1355232" lon="11.2453336">
                <ele>284.0</ele>
                <time>2020-08-21T17:40:25.000Z</time>
                <name>Trackpoint 7706</name>
            </trkpt>
            <trkpt lat="50.1354112" lon="11.2452568">
                <ele>284.0</ele>
                <time>2020-08-21T17:40:27.000Z</time>
                <name>Trackpoint 7707</name>
            </trkpt>
            <trkpt lat="50.1352896" lon="11.24518">
                <ele>284.0</ele>
                <time>2020-08-21T17:40:29.000Z</time>
                <name>Trackpoint 7708</name>
            </trkpt>
            <trkpt lat="50.1351712" lon="11.2451096">
                <ele>284.0</ele>
                <time>2020-08-21T17:40:31.000Z</time>
                <name>Trackpoint 7709</name>
            </trkpt>
            <trkpt lat="50.1350464" lon="11.245044">
                <ele>284.0</ele>
                <time>2020-08-21T17:40:33.000Z</time>
                <name>Trackpoint 7710</name>
            </trkpt>
            <trkpt lat="50.1349312" lon="11.2449888">
                <ele>284.0</ele>
                <time>2020-08-21T17:40:35.000Z</time>
                <name>Trackpoint 7711</name>
            </trkpt>
            <trkpt lat="50.134832" lon="11.2449464">
                <ele>284.0</ele>
                <time>2020-08-21T17:40:37.000Z</time>
                <name>Trackpoint 7712</name>
            </trkpt>
            <trkpt lat="50.13472" lon="11.2448904">
                <ele>284.0</ele>
                <time>2020-08-21T17:40:40.000Z</time>
                <name>Trackpoint 7713</name>
            </trkpt>
            <trkpt lat="50.1346368" lon="11.2448304">
                <ele>285.0</ele>
                <time>2020-08-21T17:41:02.000Z</time>
                <name>Trackpoint 7714</name>
            </trkpt>
            <trkpt lat="50.1345472" lon="11.2447704">
                <ele>285.0</ele>
                <time>2020-08-21T17:41:05.000Z</time>
                <name>Trackpoint 7715</name>
            </trkpt>
            <trkpt lat="50.1344256" lon="11.2447216">
                <ele>285.0</ele>
                <time>2020-08-21T17:41:08.000Z</time>
                <name>Trackpoint 7716</name>
            </trkpt>
            <trkpt lat="50.1343264" lon="11.2446848">
                <ele>285.0</ele>
                <time>2020-08-21T17:41:10.000Z</time>
                <name>Trackpoint 7717</name>
            </trkpt>
            <trkpt lat="50.134224" lon="11.244648">
                <ele>285.0</ele>
                <time>2020-08-21T17:41:12.000Z</time>
                <name>Trackpoint 7718</name>
            </trkpt>
            <trkpt lat="50.1341088" lon="11.2446232">
                <ele>285.0</ele>
                <time>2020-08-21T17:41:14.000Z</time>
                <name>Trackpoint 7719</name>
            </trkpt>
            <trkpt lat="50.1339904" lon="11.2446">
                <ele>285.0</ele>
                <time>2020-08-21T17:41:16.000Z</time>
                <name>Trackpoint 7720</name>
            </trkpt>
            <trkpt lat="50.1338784" lon="11.2445872">
                <ele>285.0</ele>
                <time>2020-08-21T17:41:18.000Z</time>
                <name>Trackpoint 7721</name>
            </trkpt>
            <trkpt lat="50.1337728" lon="11.2445744">
                <ele>285.0</ele>
                <time>2020-08-21T17:41:20.000Z</time>
                <name>Trackpoint 7722</name>
            </trkpt>
            <trkpt lat="50.13368" lon="11.244568">
                <ele>285.0</ele>
                <time>2020-08-21T17:41:22.000Z</time>
                <name>Trackpoint 7723</name>
            </trkpt>
            <trkpt lat="50.1335808" lon="11.2445568">
                <ele>285.0</ele>
                <time>2020-08-21T17:41:24.000Z</time>
                <name>Trackpoint 7724</name>
            </trkpt>
            <trkpt lat="50.1334496" lon="11.2445448">
                <ele>285.0</ele>
                <time>2020-08-21T17:41:27.000Z</time>
                <name>Trackpoint 7725</name>
            </trkpt>
            <trkpt lat="50.1333152" lon="11.2445152">
                <ele>285.0</ele>
                <time>2020-08-21T17:41:30.000Z</time>
                <name>Trackpoint 7726</name>
            </trkpt>
            <trkpt lat="50.1331776" lon="11.2444824">
                <ele>285.0</ele>
                <time>2020-08-21T17:41:33.000Z</time>
                <name>Trackpoint 7727</name>
            </trkpt>
            <trkpt lat="50.133072" lon="11.2444752">
                <ele>285.0</ele>
                <time>2020-08-21T17:41:35.000Z</time>
                <name>Trackpoint 7728</name>
            </trkpt>
            <trkpt lat="50.132976" lon="11.2444416">
                <ele>285.0</ele>
                <time>2020-08-21T17:41:37.000Z</time>
                <name>Trackpoint 7729</name>
            </trkpt>
            <trkpt lat="50.1328896" lon="11.2444112">
                <ele>285.0</ele>
                <time>2020-08-21T17:41:39.000Z</time>
                <name>Trackpoint 7730</name>
            </trkpt>
            <trkpt lat="50.1327904" lon="11.2443784">
                <ele>285.0</ele>
                <time>2020-08-21T17:41:41.000Z</time>
                <name>Trackpoint 7731</name>
            </trkpt>
            <trkpt lat="50.1327008" lon="11.2443512">
                <ele>285.0</ele>
                <time>2020-08-21T17:41:43.000Z</time>
                <name>Trackpoint 7732</name>
            </trkpt>
            <trkpt lat="50.1326176" lon="11.2443168">
                <ele>285.0</ele>
                <time>2020-08-21T17:41:45.000Z</time>
                <name>Trackpoint 7733</name>
            </trkpt>
            <trkpt lat="50.132512" lon="11.2442504">
                <ele>285.0</ele>
                <time>2020-08-21T17:41:48.000Z</time>
                <name>Trackpoint 7734</name>
            </trkpt>
            <trkpt lat="50.1324096" lon="11.2442064">
                <ele>285.0</ele>
                <time>2020-08-21T17:41:51.000Z</time>
                <name>Trackpoint 7735</name>
            </trkpt>
            <trkpt lat="50.1323104" lon="11.2442112">
                <ele>285.0</ele>
                <time>2020-08-21T17:41:55.000Z</time>
                <name>Trackpoint 7736</name>
            </trkpt>
            <trkpt lat="50.1322336" lon="11.2441584">
                <ele>285.0</ele>
                <time>2020-08-21T17:41:59.000Z</time>
                <name>Trackpoint 7737</name>
            </trkpt>
            <trkpt lat="50.1321728" lon="11.2440768">
                <ele>285.0</ele>
                <time>2020-08-21T17:42:03.000Z</time>
                <name>Trackpoint 7738</name>
            </trkpt>
            <trkpt lat="50.132192" lon="11.2439632">
                <ele>285.0</ele>
                <time>2020-08-21T17:42:58.000Z</time>
                <name>Trackpoint 7739</name>
            </trkpt>
            <trkpt lat="50.1322208" lon="11.243872">
                <ele>284.0</ele>
                <time>2020-08-21T17:43:01.000Z</time>
                <name>Trackpoint 7740</name>
            </trkpt>
            <trkpt lat="50.132304" lon="11.2437912">
                <ele>285.0</ele>
                <time>2020-08-21T17:43:05.000Z</time>
                <name>Trackpoint 7741</name>
            </trkpt>
            <trkpt lat="50.1323744" lon="11.2437064">
                <ele>285.0</ele>
                <time>2020-08-21T17:43:08.000Z</time>
                <name>Trackpoint 7742</name>
            </trkpt>
            <trkpt lat="50.132432" lon="11.243604">
                <ele>285.0</ele>
                <time>2020-08-21T17:43:11.000Z</time>
                <name>Trackpoint 7743</name>
            </trkpt>
            <trkpt lat="50.1324896" lon="11.2434952">
                <ele>286.0</ele>
                <time>2020-08-21T17:43:14.000Z</time>
                <name>Trackpoint 7744</name>
            </trkpt>
            <trkpt lat="50.1325344" lon="11.2433832">
                <ele>289.0</ele>
                <time>2020-08-21T17:43:17.000Z</time>
                <name>Trackpoint 7745</name>
            </trkpt>
            <trkpt lat="50.1325728" lon="11.2432696">
                <ele>288.0</ele>
                <time>2020-08-21T17:43:20.000Z</time>
                <name>Trackpoint 7746</name>
            </trkpt>
            <trkpt lat="50.1326016" lon="11.2431816">
                <ele>287.0</ele>
                <time>2020-08-21T17:43:22.000Z</time>
                <name>Trackpoint 7747</name>
            </trkpt>
            <trkpt lat="50.1326208" lon="11.2430488">
                <ele>287.0</ele>
                <time>2020-08-21T17:43:25.000Z</time>
                <name>Trackpoint 7748</name>
            </trkpt>
            <trkpt lat="50.1326208" lon="11.2429184">
                <ele>288.0</ele>
                <time>2020-08-21T17:43:28.000Z</time>
                <name>Trackpoint 7749</name>
            </trkpt>
            <trkpt lat="50.1326144" lon="11.2428264">
                <ele>288.0</ele>
                <time>2020-08-21T17:43:30.000Z</time>
                <name>Trackpoint 7750</name>
            </trkpt>
            <trkpt lat="50.1326016" lon="11.242732">
                <ele>288.0</ele>
                <time>2020-08-21T17:43:32.000Z</time>
                <name>Trackpoint 7751</name>
            </trkpt>
            <trkpt lat="50.1325888" lon="11.2426328">
                <ele>288.0</ele>
                <time>2020-08-21T17:43:34.000Z</time>
                <name>Trackpoint 7752</name>
            </trkpt>
            <trkpt lat="50.1325632" lon="11.2425184">
                <ele>289.0</ele>
                <time>2020-08-21T17:43:37.000Z</time>
                <name>Trackpoint 7753</name>
            </trkpt>
            <trkpt lat="50.13256" lon="11.2424152">
                <ele>291.0</ele>
                <time>2020-08-21T17:44:37.000Z</time>
                <name>Trackpoint 7754</name>
            </trkpt>
            <trkpt lat="50.1325408" lon="11.2423248">
                <ele>291.0</ele>
                <time>2020-08-21T17:44:39.000Z</time>
                <name>Trackpoint 7755</name>
            </trkpt>
            <trkpt lat="50.1325312" lon="11.2422304">
                <ele>291.0</ele>
                <time>2020-08-21T17:44:41.000Z</time>
                <name>Trackpoint 7756</name>
            </trkpt>
            <trkpt lat="50.1325344" lon="11.242124">
                <ele>291.0</ele>
                <time>2020-08-21T17:44:43.000Z</time>
                <name>Trackpoint 7757</name>
            </trkpt>
            <trkpt lat="50.1325344" lon="11.2420056">
                <ele>292.0</ele>
                <time>2020-08-21T17:44:45.000Z</time>
                <name>Trackpoint 7758</name>
            </trkpt>
            <trkpt lat="50.1325216" lon="11.2418832">
                <ele>293.0</ele>
                <time>2020-08-21T17:44:47.000Z</time>
                <name>Trackpoint 7759</name>
            </trkpt>
            <trkpt lat="50.1325024" lon="11.241768">
                <ele>293.0</ele>
                <time>2020-08-21T17:44:49.000Z</time>
                <name>Trackpoint 7760</name>
            </trkpt>
            <trkpt lat="50.1324832" lon="11.2416512">
                <ele>292.0</ele>
                <time>2020-08-21T17:44:51.000Z</time>
                <name>Trackpoint 7761</name>
            </trkpt>
            <trkpt lat="50.1324608" lon="11.241544">
                <ele>291.0</ele>
                <time>2020-08-21T17:44:53.000Z</time>
                <name>Trackpoint 7762</name>
            </trkpt>
            <trkpt lat="50.1324448" lon="11.2414264">
                <ele>291.0</ele>
                <time>2020-08-21T17:44:55.000Z</time>
                <name>Trackpoint 7763</name>
            </trkpt>
            <trkpt lat="50.1324288" lon="11.2412952">
                <ele>291.0</ele>
                <time>2020-08-21T17:44:57.000Z</time>
                <name>Trackpoint 7764</name>
            </trkpt>
            <trkpt lat="50.1324128" lon="11.2411632">
                <ele>292.0</ele>
                <time>2020-08-21T17:44:59.000Z</time>
                <name>Trackpoint 7765</name>
            </trkpt>
            <trkpt lat="50.1323968" lon="11.2410336">
                <ele>292.0</ele>
                <time>2020-08-21T17:45:01.000Z</time>
                <name>Trackpoint 7766</name>
            </trkpt>
            <trkpt lat="50.1323904" lon="11.2409088">
                <ele>292.0</ele>
                <time>2020-08-21T17:45:03.000Z</time>
                <name>Trackpoint 7767</name>
            </trkpt>
            <trkpt lat="50.1323808" lon="11.2407816">
                <ele>292.0</ele>
                <time>2020-08-21T17:45:05.000Z</time>
                <name>Trackpoint 7768</name>
            </trkpt>
            <trkpt lat="50.1323744" lon="11.2406584">
                <ele>292.0</ele>
                <time>2020-08-21T17:45:07.000Z</time>
                <name>Trackpoint 7769</name>
            </trkpt>
            <trkpt lat="50.1323712" lon="11.2405328">
                <ele>292.0</ele>
                <time>2020-08-21T17:45:09.000Z</time>
                <name>Trackpoint 7770</name>
            </trkpt>
            <trkpt lat="50.1323648" lon="11.2404072">
                <ele>293.0</ele>
                <time>2020-08-21T17:45:11.000Z</time>
                <name>Trackpoint 7771</name>
            </trkpt>
            <trkpt lat="50.1323584" lon="11.24028">
                <ele>293.0</ele>
                <time>2020-08-21T17:45:13.000Z</time>
                <name>Trackpoint 7772</name>
            </trkpt>
            <trkpt lat="50.1323584" lon="11.2401536">
                <ele>293.0</ele>
                <time>2020-08-21T17:45:15.000Z</time>
                <name>Trackpoint 7773</name>
            </trkpt>
            <trkpt lat="50.1323552" lon="11.24002">
                <ele>294.0</ele>
                <time>2020-08-21T17:45:17.000Z</time>
                <name>Trackpoint 7774</name>
            </trkpt>
            <trkpt lat="50.132352" lon="11.2398816">
                <ele>294.0</ele>
                <time>2020-08-21T17:45:19.000Z</time>
                <name>Trackpoint 7775</name>
            </trkpt>
            <trkpt lat="50.132352" lon="11.2397416">
                <ele>294.0</ele>
                <time>2020-08-21T17:45:21.000Z</time>
                <name>Trackpoint 7776</name>
            </trkpt>
            <trkpt lat="50.1323552" lon="11.2396032">
                <ele>294.0</ele>
                <time>2020-08-21T17:45:23.000Z</time>
                <name>Trackpoint 7777</name>
            </trkpt>
            <trkpt lat="50.1323584" lon="11.2394664">
                <ele>294.0</ele>
                <time>2020-08-21T17:45:25.000Z</time>
                <name>Trackpoint 7778</name>
            </trkpt>
            <trkpt lat="50.132352" lon="11.239328">
                <ele>294.0</ele>
                <time>2020-08-21T17:45:27.000Z</time>
                <name>Trackpoint 7779</name>
            </trkpt>
            <trkpt lat="50.1323328" lon="11.2391928">
                <ele>294.0</ele>
                <time>2020-08-21T17:45:29.000Z</time>
                <name>Trackpoint 7780</name>
            </trkpt>
            <trkpt lat="50.1323168" lon="11.2390584">
                <ele>294.0</ele>
                <time>2020-08-21T17:45:31.000Z</time>
                <name>Trackpoint 7781</name>
            </trkpt>
            <trkpt lat="50.13232" lon="11.23892">
                <ele>294.0</ele>
                <time>2020-08-21T17:45:33.000Z</time>
                <name>Trackpoint 7782</name>
            </trkpt>
            <trkpt lat="50.132336" lon="11.2387688">
                <ele>294.0</ele>
                <time>2020-08-21T17:45:35.000Z</time>
                <name>Trackpoint 7783</name>
            </trkpt>
            <trkpt lat="50.1323584" lon="11.23862">
                <ele>294.0</ele>
                <time>2020-08-21T17:45:37.000Z</time>
                <name>Trackpoint 7784</name>
            </trkpt>
            <trkpt lat="50.1323776" lon="11.2384632">
                <ele>294.0</ele>
                <time>2020-08-21T17:45:39.000Z</time>
                <name>Trackpoint 7785</name>
            </trkpt>
            <trkpt lat="50.1324032" lon="11.238312">
                <ele>295.0</ele>
                <time>2020-08-21T17:45:41.000Z</time>
                <name>Trackpoint 7786</name>
            </trkpt>
            <trkpt lat="50.1324352" lon="11.2381648">
                <ele>295.0</ele>
                <time>2020-08-21T17:45:43.000Z</time>
                <name>Trackpoint 7787</name>
            </trkpt>
            <trkpt lat="50.132464" lon="11.2380216">
                <ele>294.0</ele>
                <time>2020-08-21T17:45:45.000Z</time>
                <name>Trackpoint 7788</name>
            </trkpt>
            <trkpt lat="50.1324992" lon="11.2378832">
                <ele>294.0</ele>
                <time>2020-08-21T17:45:47.000Z</time>
                <name>Trackpoint 7789</name>
            </trkpt>
            <trkpt lat="50.1325312" lon="11.2377368">
                <ele>294.0</ele>
                <time>2020-08-21T17:45:49.000Z</time>
                <name>Trackpoint 7790</name>
            </trkpt>
            <trkpt lat="50.1325632" lon="11.2376">
                <ele>294.0</ele>
                <time>2020-08-21T17:45:51.000Z</time>
                <name>Trackpoint 7791</name>
            </trkpt>
            <trkpt lat="50.1326112" lon="11.2374584">
                <ele>294.0</ele>
                <time>2020-08-21T17:45:53.000Z</time>
                <name>Trackpoint 7792</name>
            </trkpt>
            <trkpt lat="50.1326624" lon="11.2373216">
                <ele>295.0</ele>
                <time>2020-08-21T17:45:55.000Z</time>
                <name>Trackpoint 7793</name>
            </trkpt>
            <trkpt lat="50.1327232" lon="11.2371848">
                <ele>296.0</ele>
                <time>2020-08-21T17:45:57.000Z</time>
                <name>Trackpoint 7794</name>
            </trkpt>
            <trkpt lat="50.1327872" lon="11.237048">
                <ele>295.0</ele>
                <time>2020-08-21T17:45:59.000Z</time>
                <name>Trackpoint 7795</name>
            </trkpt>
            <trkpt lat="50.1328512" lon="11.2369096">
                <ele>295.0</ele>
                <time>2020-08-21T17:46:01.000Z</time>
                <name>Trackpoint 7796</name>
            </trkpt>
            <trkpt lat="50.132912" lon="11.23678">
                <ele>295.0</ele>
                <time>2020-08-21T17:46:03.000Z</time>
                <name>Trackpoint 7797</name>
            </trkpt>
            <trkpt lat="50.132976" lon="11.2366384">
                <ele>295.0</ele>
                <time>2020-08-21T17:46:05.000Z</time>
                <name>Trackpoint 7798</name>
            </trkpt>
            <trkpt lat="50.1330464" lon="11.2365048">
                <ele>295.0</ele>
                <time>2020-08-21T17:46:07.000Z</time>
                <name>Trackpoint 7799</name>
            </trkpt>
            <trkpt lat="50.1331136" lon="11.2363752">
                <ele>295.0</ele>
                <time>2020-08-21T17:46:09.000Z</time>
                <name>Trackpoint 7800</name>
            </trkpt>
            <trkpt lat="50.1331872" lon="11.236232">
                <ele>294.0</ele>
                <time>2020-08-21T17:46:11.000Z</time>
                <name>Trackpoint 7801</name>
            </trkpt>
            <trkpt lat="50.1332544" lon="11.2360832">
                <ele>293.0</ele>
                <time>2020-08-21T17:46:13.000Z</time>
                <name>Trackpoint 7802</name>
            </trkpt>
            <trkpt lat="50.1333312" lon="11.2359368">
                <ele>293.0</ele>
                <time>2020-08-21T17:46:15.000Z</time>
                <name>Trackpoint 7803</name>
            </trkpt>
            <trkpt lat="50.1334112" lon="11.2357816">
                <ele>292.0</ele>
                <time>2020-08-21T17:46:17.000Z</time>
                <name>Trackpoint 7804</name>
            </trkpt>
            <trkpt lat="50.1334528" lon="11.2357">
                <ele>292.0</ele>
                <time>2020-08-21T17:46:18.000Z</time>
                <name>Trackpoint 7805</name>
            </trkpt>
            <trkpt lat="50.1334912" lon="11.2356128">
                <ele>291.0</ele>
                <time>2020-08-21T17:46:19.000Z</time>
                <name>Trackpoint 7806</name>
            </trkpt>
            <trkpt lat="50.1335328" lon="11.2355232">
                <ele>291.0</ele>
                <time>2020-08-21T17:46:20.000Z</time>
                <name>Trackpoint 7807</name>
            </trkpt>
            <trkpt lat="50.1335712" lon="11.2354336">
                <ele>291.0</ele>
                <time>2020-08-21T17:46:21.000Z</time>
                <name>Trackpoint 7808</name>
            </trkpt>
            <trkpt lat="50.133616" lon="11.2353488">
                <ele>290.0</ele>
                <time>2020-08-21T17:46:22.000Z</time>
                <name>Trackpoint 7809</name>
            </trkpt>
            <trkpt lat="50.1336608" lon="11.2352584">
                <ele>290.0</ele>
                <time>2020-08-21T17:46:23.000Z</time>
                <name>Trackpoint 7810</name>
            </trkpt>
            <trkpt lat="50.1337024" lon="11.235164">
                <ele>289.0</ele>
                <time>2020-08-21T17:46:24.000Z</time>
                <name>Trackpoint 7811</name>
            </trkpt>
            <trkpt lat="50.133744" lon="11.2350664">
                <ele>289.0</ele>
                <time>2020-08-21T17:46:25.000Z</time>
                <name>Trackpoint 7812</name>
            </trkpt>
            <trkpt lat="50.1337824" lon="11.2349664">
                <ele>288.0</ele>
                <time>2020-08-21T17:46:26.000Z</time>
                <name>Trackpoint 7813</name>
            </trkpt>
            <trkpt lat="50.133824" lon="11.2348672">
                <ele>288.0</ele>
                <time>2020-08-21T17:46:27.000Z</time>
                <name>Trackpoint 7814</name>
            </trkpt>
            <trkpt lat="50.1338624" lon="11.2347616">
                <ele>288.0</ele>
                <time>2020-08-21T17:46:28.000Z</time>
                <name>Trackpoint 7815</name>
            </trkpt>
            <trkpt lat="50.1338944" lon="11.2346536">
                <ele>288.0</ele>
                <time>2020-08-21T17:46:29.000Z</time>
                <name>Trackpoint 7816</name>
            </trkpt>
            <trkpt lat="50.1339232" lon="11.2345416">
                <ele>288.0</ele>
                <time>2020-08-21T17:46:30.000Z</time>
                <name>Trackpoint 7817</name>
            </trkpt>
            <trkpt lat="50.1339392" lon="11.2344312">
                <ele>288.0</ele>
                <time>2020-08-21T17:46:31.000Z</time>
                <name>Trackpoint 7818</name>
            </trkpt>
            <trkpt lat="50.133952" lon="11.2343304">
                <ele>288.0</ele>
                <time>2020-08-21T17:46:32.000Z</time>
                <name>Trackpoint 7819</name>
            </trkpt>
            <trkpt lat="50.1339808" lon="11.2342392">
                <ele>288.0</ele>
                <time>2020-08-21T17:46:33.000Z</time>
                <name>Trackpoint 7820</name>
            </trkpt>
            <trkpt lat="50.1340512" lon="11.2340736">
                <ele>287.0</ele>
                <time>2020-08-21T17:46:35.000Z</time>
                <name>Trackpoint 7821</name>
            </trkpt>
            <trkpt lat="50.1340928" lon="11.2339896">
                <ele>287.0</ele>
                <time>2020-08-21T17:46:36.000Z</time>
                <name>Trackpoint 7822</name>
            </trkpt>
            <trkpt lat="50.134128" lon="11.2338984">
                <ele>286.0</ele>
                <time>2020-08-21T17:46:37.000Z</time>
                <name>Trackpoint 7823</name>
            </trkpt>
            <trkpt lat="50.1341664" lon="11.2338016">
                <ele>285.0</ele>
                <time>2020-08-21T17:46:38.000Z</time>
                <name>Trackpoint 7824</name>
            </trkpt>
            <trkpt lat="50.1342016" lon="11.2337">
                <ele>285.0</ele>
                <time>2020-08-21T17:46:39.000Z</time>
                <name>Trackpoint 7825</name>
            </trkpt>
            <trkpt lat="50.1342304" lon="11.233592">
                <ele>285.0</ele>
                <time>2020-08-21T17:46:40.000Z</time>
                <name>Trackpoint 7826</name>
            </trkpt>
            <trkpt lat="50.1342624" lon="11.2334784">
                <ele>285.0</ele>
                <time>2020-08-21T17:46:41.000Z</time>
                <name>Trackpoint 7827</name>
            </trkpt>
            <trkpt lat="50.1342912" lon="11.233368">
                <ele>284.0</ele>
                <time>2020-08-21T17:46:42.000Z</time>
                <name>Trackpoint 7828</name>
            </trkpt>
            <trkpt lat="50.13432" lon="11.233256">
                <ele>284.0</ele>
                <time>2020-08-21T17:46:43.000Z</time>
                <name>Trackpoint 7829</name>
            </trkpt>
            <trkpt lat="50.1343456" lon="11.233144">
                <ele>284.0</ele>
                <time>2020-08-21T17:46:44.000Z</time>
                <name>Trackpoint 7830</name>
            </trkpt>
            <trkpt lat="50.134368" lon="11.2330328">
                <ele>284.0</ele>
                <time>2020-08-21T17:46:45.000Z</time>
                <name>Trackpoint 7831</name>
            </trkpt>
            <trkpt lat="50.1343904" lon="11.2329216">
                <ele>284.0</ele>
                <time>2020-08-21T17:46:46.000Z</time>
                <name>Trackpoint 7832</name>
            </trkpt>
            <trkpt lat="50.134416" lon="11.2328128">
                <ele>284.0</ele>
                <time>2020-08-21T17:46:47.000Z</time>
                <name>Trackpoint 7833</name>
            </trkpt>
            <trkpt lat="50.1344384" lon="11.2327032">
                <ele>284.0</ele>
                <time>2020-08-21T17:46:48.000Z</time>
                <name>Trackpoint 7834</name>
            </trkpt>
            <trkpt lat="50.1344608" lon="11.2325952">
                <ele>284.0</ele>
                <time>2020-08-21T17:46:49.000Z</time>
                <name>Trackpoint 7835</name>
            </trkpt>
            <trkpt lat="50.1344832" lon="11.2324888">
                <ele>284.0</ele>
                <time>2020-08-21T17:46:50.000Z</time>
                <name>Trackpoint 7836</name>
            </trkpt>
            <trkpt lat="50.1345024" lon="11.2323848">
                <ele>284.0</ele>
                <time>2020-08-21T17:46:51.000Z</time>
                <name>Trackpoint 7837</name>
            </trkpt>
            <trkpt lat="50.1345248" lon="11.2322848">
                <ele>284.0</ele>
                <time>2020-08-21T17:46:52.000Z</time>
                <name>Trackpoint 7838</name>
            </trkpt>
            <trkpt lat="50.1345472" lon="11.2321832">
                <ele>283.0</ele>
                <time>2020-08-21T17:46:53.000Z</time>
                <name>Trackpoint 7839</name>
            </trkpt>
            <trkpt lat="50.1345664" lon="11.2320832">
                <ele>283.0</ele>
                <time>2020-08-21T17:46:54.000Z</time>
                <name>Trackpoint 7840</name>
            </trkpt>
            <trkpt lat="50.1345856" lon="11.2319848">
                <ele>283.0</ele>
                <time>2020-08-21T17:46:55.000Z</time>
                <name>Trackpoint 7841</name>
            </trkpt>
            <trkpt lat="50.1346048" lon="11.2318872">
                <ele>283.0</ele>
                <time>2020-08-21T17:46:56.000Z</time>
                <name>Trackpoint 7842</name>
            </trkpt>
            <trkpt lat="50.1346272" lon="11.2317888">
                <ele>283.0</ele>
                <time>2020-08-21T17:46:57.000Z</time>
                <name>Trackpoint 7843</name>
            </trkpt>
            <trkpt lat="50.1346464" lon="11.2316904">
                <ele>283.0</ele>
                <time>2020-08-21T17:46:58.000Z</time>
                <name>Trackpoint 7844</name>
            </trkpt>
            <trkpt lat="50.1346656" lon="11.2315928">
                <ele>283.0</ele>
                <time>2020-08-21T17:46:59.000Z</time>
                <name>Trackpoint 7845</name>
            </trkpt>
            <trkpt lat="50.1346816" lon="11.2314984">
                <ele>283.0</ele>
                <time>2020-08-21T17:47:00.000Z</time>
                <name>Trackpoint 7846</name>
            </trkpt>
            <trkpt lat="50.134704" lon="11.2314056">
                <ele>283.0</ele>
                <time>2020-08-21T17:47:01.000Z</time>
                <name>Trackpoint 7847</name>
            </trkpt>
            <trkpt lat="50.1347264" lon="11.2313144">
                <ele>283.0</ele>
                <time>2020-08-21T17:47:02.000Z</time>
                <name>Trackpoint 7848</name>
            </trkpt>
            <trkpt lat="50.1347456" lon="11.2312248">
                <ele>283.0</ele>
                <time>2020-08-21T17:47:03.000Z</time>
                <name>Trackpoint 7849</name>
            </trkpt>
            <trkpt lat="50.1347616" lon="11.2311336">
                <ele>283.0</ele>
                <time>2020-08-21T17:47:04.000Z</time>
                <name>Trackpoint 7850</name>
            </trkpt>
            <trkpt lat="50.1347744" lon="11.2310432">
                <ele>283.0</ele>
                <time>2020-08-21T17:47:05.000Z</time>
                <name>Trackpoint 7851</name>
            </trkpt>
            <trkpt lat="50.1347936" lon="11.2308768">
                <ele>284.0</ele>
                <time>2020-08-21T17:47:07.000Z</time>
                <name>Trackpoint 7852</name>
            </trkpt>
            <trkpt lat="50.1348224" lon="11.2307256">
                <ele>284.0</ele>
                <time>2020-08-21T17:47:09.000Z</time>
                <name>Trackpoint 7853</name>
            </trkpt>
            <trkpt lat="50.1348608" lon="11.2305816">
                <ele>285.0</ele>
                <time>2020-08-21T17:47:11.000Z</time>
                <name>Trackpoint 7854</name>
            </trkpt>
            <trkpt lat="50.1349024" lon="11.2304488">
                <ele>285.0</ele>
                <time>2020-08-21T17:47:13.000Z</time>
                <name>Trackpoint 7855</name>
            </trkpt>
            <trkpt lat="50.1349408" lon="11.2303104">
                <ele>285.0</ele>
                <time>2020-08-21T17:47:15.000Z</time>
                <name>Trackpoint 7856</name>
            </trkpt>
            <trkpt lat="50.1349728" lon="11.2301752">
                <ele>284.0</ele>
                <time>2020-08-21T17:47:17.000Z</time>
                <name>Trackpoint 7857</name>
            </trkpt>
            <trkpt lat="50.1350016" lon="11.2300464">
                <ele>285.0</ele>
                <time>2020-08-21T17:47:19.000Z</time>
                <name>Trackpoint 7858</name>
            </trkpt>
            <trkpt lat="50.1350368" lon="11.2299184">
                <ele>285.0</ele>
                <time>2020-08-21T17:47:21.000Z</time>
                <name>Trackpoint 7859</name>
            </trkpt>
            <trkpt lat="50.1350656" lon="11.2297896">
                <ele>285.0</ele>
                <time>2020-08-21T17:47:23.000Z</time>
                <name>Trackpoint 7860</name>
            </trkpt>
            <trkpt lat="50.1350976" lon="11.2296536">
                <ele>285.0</ele>
                <time>2020-08-21T17:47:25.000Z</time>
                <name>Trackpoint 7861</name>
            </trkpt>
            <trkpt lat="50.1351424" lon="11.2295176">
                <ele>285.0</ele>
                <time>2020-08-21T17:47:27.000Z</time>
                <name>Trackpoint 7862</name>
            </trkpt>
            <trkpt lat="50.1352" lon="11.2293784">
                <ele>284.0</ele>
                <time>2020-08-21T17:47:29.000Z</time>
                <name>Trackpoint 7863</name>
            </trkpt>
            <trkpt lat="50.1352352" lon="11.229292">
                <ele>284.0</ele>
                <time>2020-08-21T17:47:30.000Z</time>
                <name>Trackpoint 7864</name>
            </trkpt>
            <trkpt lat="50.1352992" lon="11.2291144">
                <ele>284.0</ele>
                <time>2020-08-21T17:47:32.000Z</time>
                <name>Trackpoint 7865</name>
            </trkpt>
            <trkpt lat="50.1353344" lon="11.229016">
                <ele>284.0</ele>
                <time>2020-08-21T17:47:33.000Z</time>
                <name>Trackpoint 7866</name>
            </trkpt>
            <trkpt lat="50.1353696" lon="11.2289168">
                <ele>284.0</ele>
                <time>2020-08-21T17:47:34.000Z</time>
                <name>Trackpoint 7867</name>
            </trkpt>
            <trkpt lat="50.1354144" lon="11.228804">
                <ele>284.0</ele>
                <time>2020-08-21T17:47:35.000Z</time>
                <name>Trackpoint 7868</name>
            </trkpt>
            <trkpt lat="50.135456" lon="11.2286904">
                <ele>284.0</ele>
                <time>2020-08-21T17:47:36.000Z</time>
                <name>Trackpoint 7869</name>
            </trkpt>
            <trkpt lat="50.1355008" lon="11.2285784">
                <ele>284.0</ele>
                <time>2020-08-21T17:47:37.000Z</time>
                <name>Trackpoint 7870</name>
            </trkpt>
            <trkpt lat="50.1355392" lon="11.2284744">
                <ele>284.0</ele>
                <time>2020-08-21T17:47:38.000Z</time>
                <name>Trackpoint 7871</name>
            </trkpt>
            <trkpt lat="50.1355904" lon="11.2283696">
                <ele>284.0</ele>
                <time>2020-08-21T17:47:39.000Z</time>
                <name>Trackpoint 7872</name>
            </trkpt>
            <trkpt lat="50.1356384" lon="11.2282584">
                <ele>284.0</ele>
                <time>2020-08-21T17:47:40.000Z</time>
                <name>Trackpoint 7873</name>
            </trkpt>
            <trkpt lat="50.1356864" lon="11.2281504">
                <ele>284.0</ele>
                <time>2020-08-21T17:47:41.000Z</time>
                <name>Trackpoint 7874</name>
            </trkpt>
            <trkpt lat="50.1357312" lon="11.228028">
                <ele>285.0</ele>
                <time>2020-08-21T17:47:42.000Z</time>
                <name>Trackpoint 7875</name>
            </trkpt>
            <trkpt lat="50.1357664" lon="11.2279256">
                <ele>284.0</ele>
                <time>2020-08-21T17:47:43.000Z</time>
                <name>Trackpoint 7876</name>
            </trkpt>
            <trkpt lat="50.1358048" lon="11.2278248">
                <ele>284.0</ele>
                <time>2020-08-21T17:47:44.000Z</time>
                <name>Trackpoint 7877</name>
            </trkpt>
            <trkpt lat="50.1358336" lon="11.227728">
                <ele>284.0</ele>
                <time>2020-08-21T17:47:45.000Z</time>
                <name>Trackpoint 7878</name>
            </trkpt>
            <trkpt lat="50.1358752" lon="11.2276312">
                <ele>284.0</ele>
                <time>2020-08-21T17:47:46.000Z</time>
                <name>Trackpoint 7879</name>
            </trkpt>
            <trkpt lat="50.1359136" lon="11.2275384">
                <ele>284.0</ele>
                <time>2020-08-21T17:47:47.000Z</time>
                <name>Trackpoint 7880</name>
            </trkpt>
            <trkpt lat="50.1359488" lon="11.2274504">
                <ele>284.0</ele>
                <time>2020-08-21T17:47:48.000Z</time>
                <name>Trackpoint 7881</name>
            </trkpt>
            <trkpt lat="50.1359872" lon="11.2273576">
                <ele>284.0</ele>
                <time>2020-08-21T17:47:49.000Z</time>
                <name>Trackpoint 7882</name>
            </trkpt>
            <trkpt lat="50.1360192" lon="11.2272632">
                <ele>283.0</ele>
                <time>2020-08-21T17:47:50.000Z</time>
                <name>Trackpoint 7883</name>
            </trkpt>
            <trkpt lat="50.1360512" lon="11.227172">
                <ele>283.0</ele>
                <time>2020-08-21T17:47:51.000Z</time>
                <name>Trackpoint 7884</name>
            </trkpt>
            <trkpt lat="50.1361088" lon="11.2270168">
                <ele>283.0</ele>
                <time>2020-08-21T17:47:53.000Z</time>
                <name>Trackpoint 7885</name>
            </trkpt>
            <trkpt lat="50.136176" lon="11.2268552">
                <ele>283.0</ele>
                <time>2020-08-21T17:47:55.000Z</time>
                <name>Trackpoint 7886</name>
            </trkpt>
            <trkpt lat="50.1362432" lon="11.2267336">
                <ele>284.0</ele>
                <time>2020-08-21T17:47:56.000Z</time>
                <name>Trackpoint 7887</name>
            </trkpt>
            <trkpt lat="50.1362912" lon="11.2266528">
                <ele>284.0</ele>
                <time>2020-08-21T17:47:57.000Z</time>
                <name>Trackpoint 7888</name>
            </trkpt>
            <trkpt lat="50.1363328" lon="11.226572">
                <ele>284.0</ele>
                <time>2020-08-21T17:47:58.000Z</time>
                <name>Trackpoint 7889</name>
            </trkpt>
            <trkpt lat="50.1364256" lon="11.2264208">
                <ele>284.0</ele>
                <time>2020-08-21T17:48:00.000Z</time>
                <name>Trackpoint 7890</name>
            </trkpt>
            <trkpt lat="50.1364672" lon="11.2263344">
                <ele>284.0</ele>
                <time>2020-08-21T17:48:01.000Z</time>
                <name>Trackpoint 7891</name>
            </trkpt>
            <trkpt lat="50.136512" lon="11.226252">
                <ele>284.0</ele>
                <time>2020-08-21T17:48:02.000Z</time>
                <name>Trackpoint 7892</name>
            </trkpt>
            <trkpt lat="50.1365696" lon="11.2261712">
                <ele>284.0</ele>
                <time>2020-08-21T17:48:03.000Z</time>
                <name>Trackpoint 7893</name>
            </trkpt>
            <trkpt lat="50.136624" lon="11.2260904">
                <ele>284.0</ele>
                <time>2020-08-21T17:48:04.000Z</time>
                <name>Trackpoint 7894</name>
            </trkpt>
            <trkpt lat="50.1366848" lon="11.22602">
                <ele>284.0</ele>
                <time>2020-08-21T17:48:05.000Z</time>
                <name>Trackpoint 7895</name>
            </trkpt>
            <trkpt lat="50.1368032" lon="11.2259056">
                <ele>284.0</ele>
                <time>2020-08-21T17:48:07.000Z</time>
                <name>Trackpoint 7896</name>
            </trkpt>
            <trkpt lat="50.1369024" lon="11.2257536">
                <ele>284.0</ele>
                <time>2020-08-21T17:48:09.000Z</time>
                <name>Trackpoint 7897</name>
            </trkpt>
            <trkpt lat="50.1369472" lon="11.225672">
                <ele>284.0</ele>
                <time>2020-08-21T17:48:10.000Z</time>
                <name>Trackpoint 7898</name>
            </trkpt>
            <trkpt lat="50.1369888" lon="11.225592">
                <ele>284.0</ele>
                <time>2020-08-21T17:48:11.000Z</time>
                <name>Trackpoint 7899</name>
            </trkpt>
            <trkpt lat="50.1370304" lon="11.2255112">
                <ele>284.0</ele>
                <time>2020-08-21T17:48:12.000Z</time>
                <name>Trackpoint 7900</name>
            </trkpt>
            <trkpt lat="50.1371168" lon="11.2253616">
                <ele>284.0</ele>
                <time>2020-08-21T17:48:14.000Z</time>
                <name>Trackpoint 7901</name>
            </trkpt>
            <trkpt lat="50.1371904" lon="11.2252304">
                <ele>284.0</ele>
                <time>2020-08-21T17:48:16.000Z</time>
                <name>Trackpoint 7902</name>
            </trkpt>
            <trkpt lat="50.1372768" lon="11.2251056">
                <ele>284.0</ele>
                <time>2020-08-21T17:48:18.000Z</time>
                <name>Trackpoint 7903</name>
            </trkpt>
            <trkpt lat="50.1373696" lon="11.2249944">
                <ele>285.0</ele>
                <time>2020-08-21T17:48:20.000Z</time>
                <name>Trackpoint 7904</name>
            </trkpt>
            <trkpt lat="50.1374656" lon="11.2249008">
                <ele>285.0</ele>
                <time>2020-08-21T17:48:22.000Z</time>
                <name>Trackpoint 7905</name>
            </trkpt>
            <trkpt lat="50.1375616" lon="11.2248">
                <ele>285.0</ele>
                <time>2020-08-21T17:48:24.000Z</time>
                <name>Trackpoint 7906</name>
            </trkpt>
            <trkpt lat="50.1376544" lon="11.2246864">
                <ele>285.0</ele>
                <time>2020-08-21T17:48:26.000Z</time>
                <name>Trackpoint 7907</name>
            </trkpt>
            <trkpt lat="50.1377376" lon="11.2245752">
                <ele>285.0</ele>
                <time>2020-08-21T17:48:28.000Z</time>
                <name>Trackpoint 7908</name>
            </trkpt>
            <trkpt lat="50.1378176" lon="11.2244704">
                <ele>285.0</ele>
                <time>2020-08-21T17:48:30.000Z</time>
                <name>Trackpoint 7909</name>
            </trkpt>
            <trkpt lat="50.1379136" lon="11.2243968">
                <ele>284.0</ele>
                <time>2020-08-21T17:48:32.000Z</time>
                <name>Trackpoint 7910</name>
            </trkpt>
            <trkpt lat="50.138" lon="11.2243136">
                <ele>283.0</ele>
                <time>2020-08-21T17:48:34.000Z</time>
                <name>Trackpoint 7911</name>
            </trkpt>
            <trkpt lat="50.13808" lon="11.2242144">
                <ele>283.0</ele>
                <time>2020-08-21T17:48:36.000Z</time>
                <name>Trackpoint 7912</name>
            </trkpt>
            <trkpt lat="50.1381632" lon="11.2241048">
                <ele>282.0</ele>
                <time>2020-08-21T17:48:38.000Z</time>
                <name>Trackpoint 7913</name>
            </trkpt>
            <trkpt lat="50.1382368" lon="11.2239864">
                <ele>283.0</ele>
                <time>2020-08-21T17:48:40.000Z</time>
                <name>Trackpoint 7914</name>
            </trkpt>
            <trkpt lat="50.1383136" lon="11.223864">
                <ele>283.0</ele>
                <time>2020-08-21T17:48:42.000Z</time>
                <name>Trackpoint 7915</name>
            </trkpt>
            <trkpt lat="50.1383808" lon="11.2237416">
                <ele>283.0</ele>
                <time>2020-08-21T17:48:44.000Z</time>
                <name>Trackpoint 7916</name>
            </trkpt>
            <trkpt lat="50.1384384" lon="11.2236232">
                <ele>283.0</ele>
                <time>2020-08-21T17:48:46.000Z</time>
                <name>Trackpoint 7917</name>
            </trkpt>
            <trkpt lat="50.1384896" lon="11.22352">
                <ele>283.0</ele>
                <time>2020-08-21T17:48:48.000Z</time>
                <name>Trackpoint 7918</name>
            </trkpt>
            <trkpt lat="50.1385344" lon="11.2234272">
                <ele>283.0</ele>
                <time>2020-08-21T17:48:50.000Z</time>
                <name>Trackpoint 7919</name>
            </trkpt>
            <trkpt lat="50.1385856" lon="11.2233352">
                <ele>282.0</ele>
                <time>2020-08-21T17:48:52.000Z</time>
                <name>Trackpoint 7920</name>
            </trkpt>
            <trkpt lat="50.1386464" lon="11.22324">
                <ele>283.0</ele>
                <time>2020-08-21T17:48:55.000Z</time>
                <name>Trackpoint 7921</name>
            </trkpt>
            <trkpt lat="50.1385504" lon="11.2232984">
                <ele>282.0</ele>
                <time>2020-08-21T17:49:42.000Z</time>
                <name>Trackpoint 7922</name>
            </trkpt>
            <trkpt lat="50.1386368" lon="11.2232352">
                <ele>282.0</ele>
                <time>2020-08-21T17:49:49.000Z</time>
                <name>Trackpoint 7923</name>
            </trkpt>
            <trkpt lat="50.1386688" lon="11.2231392">
                <ele>282.0</ele>
                <time>2020-08-21T17:49:53.000Z</time>
                <name>Trackpoint 7924</name>
            </trkpt>
            <trkpt lat="50.1387328" lon="11.2230552">
                <ele>282.0</ele>
                <time>2020-08-21T17:49:58.000Z</time>
                <name>Trackpoint 7925</name>
            </trkpt>
            <trkpt lat="50.1387904" lon="11.2229584">
                <ele>282.0</ele>
                <time>2020-08-21T17:50:02.000Z</time>
                <name>Trackpoint 7926</name>
            </trkpt>
            <trkpt lat="50.1388512" lon="11.2228672">
                <ele>282.0</ele>
                <time>2020-08-21T17:50:06.000Z</time>
                <name>Trackpoint 7927</name>
            </trkpt>
            <trkpt lat="50.1388928" lon="11.2227824">
                <ele>282.0</ele>
                <time>2020-08-21T17:50:09.000Z</time>
                <name>Trackpoint 7928</name>
            </trkpt>
            <trkpt lat="50.1389184" lon="11.2226896">
                <ele>282.0</ele>
                <time>2020-08-21T17:50:18.000Z</time>
                <name>Trackpoint 7929</name>
            </trkpt>
            <trkpt lat="50.1389632" lon="11.2226104">
                <ele>282.0</ele>
                <time>2020-08-21T17:50:39.000Z</time>
                <name>Trackpoint 7930</name>
            </trkpt>
            <trkpt lat="50.1389952" lon="11.2225168">
                <ele>282.0</ele>
                <time>2020-08-21T17:50:43.000Z</time>
                <name>Trackpoint 7931</name>
            </trkpt>
            <trkpt lat="50.1389984" lon="11.2224232">
                <ele>283.0</ele>
                <time>2020-08-21T17:51:16.000Z</time>
                <name>Trackpoint 7932</name>
            </trkpt>
            <trkpt lat="50.1389472" lon="11.2223352">
                <ele>283.0</ele>
                <time>2020-08-21T17:51:20.000Z</time>
                <name>Trackpoint 7933</name>
            </trkpt>
            <trkpt lat="50.1389088" lon="11.222252">
                <ele>283.0</ele>
                <time>2020-08-21T17:51:23.000Z</time>
                <name>Trackpoint 7934</name>
            </trkpt>
            <trkpt lat="50.1388704" lon="11.222168">
                <ele>283.0</ele>
                <time>2020-08-21T17:51:26.000Z</time>
                <name>Trackpoint 7935</name>
            </trkpt>
            <trkpt lat="50.1388448" lon="11.2220672">
                <ele>283.0</ele>
                <time>2020-08-21T17:51:29.000Z</time>
                <name>Trackpoint 7936</name>
            </trkpt>
            <trkpt lat="50.1388096" lon="11.2219832">
                <ele>283.0</ele>
                <time>2020-08-21T17:51:32.000Z</time>
                <name>Trackpoint 7937</name>
            </trkpt>
            <trkpt lat="50.1387552" lon="11.2218904">
                <ele>283.0</ele>
                <time>2020-08-21T17:51:35.000Z</time>
                <name>Trackpoint 7938</name>
            </trkpt>
            <trkpt lat="50.1387104" lon="11.221784">
                <ele>283.0</ele>
                <time>2020-08-21T17:51:38.000Z</time>
                <name>Trackpoint 7939</name>
            </trkpt>
            <trkpt lat="50.1386944" lon="11.2216768">
                <ele>283.0</ele>
                <time>2020-08-21T17:51:41.000Z</time>
                <name>Trackpoint 7940</name>
            </trkpt>
            <trkpt lat="50.1387008" lon="11.221572">
                <ele>283.0</ele>
                <time>2020-08-21T17:51:43.000Z</time>
                <name>Trackpoint 7941</name>
            </trkpt>
            <trkpt lat="50.138784" lon="11.2214896">
                <ele>283.0</ele>
                <time>2020-08-21T17:51:46.000Z</time>
                <name>Trackpoint 7942</name>
            </trkpt>
            <trkpt lat="50.1388288" lon="11.2214016">
                <ele>283.0</ele>
                <time>2020-08-21T17:51:48.000Z</time>
                <name>Trackpoint 7943</name>
            </trkpt>
            <trkpt lat="50.1388768" lon="11.2212896">
                <ele>283.0</ele>
                <time>2020-08-21T17:51:50.000Z</time>
                <name>Trackpoint 7944</name>
            </trkpt>
            <trkpt lat="50.1389472" lon="11.2211912">
                <ele>283.0</ele>
                <time>2020-08-21T17:51:52.000Z</time>
                <name>Trackpoint 7945</name>
            </trkpt>
            <trkpt lat="50.1390432" lon="11.2210528">
                <ele>283.0</ele>
                <time>2020-08-21T17:51:54.000Z</time>
                <name>Trackpoint 7946</name>
            </trkpt>
            <trkpt lat="50.1391136" lon="11.2209128">
                <ele>283.0</ele>
                <time>2020-08-21T17:51:56.000Z</time>
                <name>Trackpoint 7947</name>
            </trkpt>
            <trkpt lat="50.1392032" lon="11.220772">
                <ele>283.0</ele>
                <time>2020-08-21T17:51:58.000Z</time>
                <name>Trackpoint 7948</name>
            </trkpt>
            <trkpt lat="50.1392704" lon="11.2206352">
                <ele>283.0</ele>
                <time>2020-08-21T17:52:00.000Z</time>
                <name>Trackpoint 7949</name>
            </trkpt>
            <trkpt lat="50.1393312" lon="11.2205016">
                <ele>283.0</ele>
                <time>2020-08-21T17:52:02.000Z</time>
                <name>Trackpoint 7950</name>
            </trkpt>
            <trkpt lat="50.1393856" lon="11.2203712">
                <ele>283.0</ele>
                <time>2020-08-21T17:52:04.000Z</time>
                <name>Trackpoint 7951</name>
            </trkpt>
            <trkpt lat="50.1394304" lon="11.2202384">
                <ele>283.0</ele>
                <time>2020-08-21T17:52:06.000Z</time>
                <name>Trackpoint 7952</name>
            </trkpt>
            <trkpt lat="50.1394688" lon="11.2201168">
                <ele>284.0</ele>
                <time>2020-08-21T17:52:08.000Z</time>
                <name>Trackpoint 7953</name>
            </trkpt>
            <trkpt lat="50.139504" lon="11.2199696">
                <ele>284.0</ele>
                <time>2020-08-21T17:52:10.000Z</time>
                <name>Trackpoint 7954</name>
            </trkpt>
            <trkpt lat="50.1395296" lon="11.2198312">
                <ele>284.0</ele>
                <time>2020-08-21T17:52:12.000Z</time>
                <name>Trackpoint 7955</name>
            </trkpt>
            <trkpt lat="50.1395616" lon="11.2197288">
                <ele>285.0</ele>
                <time>2020-08-21T17:52:14.000Z</time>
                <name>Trackpoint 7956</name>
            </trkpt>
            <trkpt lat="50.1395872" lon="11.2196128">
                <ele>285.0</ele>
                <time>2020-08-21T17:52:16.000Z</time>
                <name>Trackpoint 7957</name>
            </trkpt>
            <trkpt lat="50.1396128" lon="11.219492">
                <ele>287.0</ele>
                <time>2020-08-21T17:52:18.000Z</time>
                <name>Trackpoint 7958</name>
            </trkpt>
            <trkpt lat="50.1396384" lon="11.2193672">
                <ele>287.0</ele>
                <time>2020-08-21T17:52:20.000Z</time>
                <name>Trackpoint 7959</name>
            </trkpt>
            <trkpt lat="50.1396672" lon="11.2192288">
                <ele>287.0</ele>
                <time>2020-08-21T17:52:22.000Z</time>
                <name>Trackpoint 7960</name>
            </trkpt>
            <trkpt lat="50.1397024" lon="11.2190784">
                <ele>286.0</ele>
                <time>2020-08-21T17:52:24.000Z</time>
                <name>Trackpoint 7961</name>
            </trkpt>
            <trkpt lat="50.1397504" lon="11.218908">
                <ele>286.0</ele>
                <time>2020-08-21T17:52:26.000Z</time>
                <name>Trackpoint 7962</name>
            </trkpt>
            <trkpt lat="50.1397696" lon="11.2188152">
                <ele>286.0</ele>
                <time>2020-08-21T17:52:27.000Z</time>
                <name>Trackpoint 7963</name>
            </trkpt>
            <trkpt lat="50.1397984" lon="11.218712">
                <ele>286.0</ele>
                <time>2020-08-21T17:52:28.000Z</time>
                <name>Trackpoint 7964</name>
            </trkpt>
            <trkpt lat="50.1398176" lon="11.218612">
                <ele>286.0</ele>
                <time>2020-08-21T17:52:29.000Z</time>
                <name>Trackpoint 7965</name>
            </trkpt>
            <trkpt lat="50.1398368" lon="11.2185096">
                <ele>286.0</ele>
                <time>2020-08-21T17:52:30.000Z</time>
                <name>Trackpoint 7966</name>
            </trkpt>
            <trkpt lat="50.139856" lon="11.2184088">
                <ele>286.0</ele>
                <time>2020-08-21T17:52:31.000Z</time>
                <name>Trackpoint 7967</name>
            </trkpt>
            <trkpt lat="50.139872" lon="11.2183088">
                <ele>286.0</ele>
                <time>2020-08-21T17:52:32.000Z</time>
                <name>Trackpoint 7968</name>
            </trkpt>
            <trkpt lat="50.1399008" lon="11.2182064">
                <ele>286.0</ele>
                <time>2020-08-21T17:52:33.000Z</time>
                <name>Trackpoint 7969</name>
            </trkpt>
            <trkpt lat="50.1399232" lon="11.2181056">
                <ele>286.0</ele>
                <time>2020-08-21T17:52:34.000Z</time>
                <name>Trackpoint 7970</name>
            </trkpt>
            <trkpt lat="50.1399488" lon="11.2180048">
                <ele>286.0</ele>
                <time>2020-08-21T17:52:35.000Z</time>
                <name>Trackpoint 7971</name>
            </trkpt>
            <trkpt lat="50.1399776" lon="11.2179048">
                <ele>286.0</ele>
                <time>2020-08-21T17:52:36.000Z</time>
                <name>Trackpoint 7972</name>
            </trkpt>
            <trkpt lat="50.14" lon="11.2178048">
                <ele>285.0</ele>
                <time>2020-08-21T17:52:37.000Z</time>
                <name>Trackpoint 7973</name>
            </trkpt>
            <trkpt lat="50.1400224" lon="11.2177096">
                <ele>286.0</ele>
                <time>2020-08-21T17:52:38.000Z</time>
                <name>Trackpoint 7974</name>
            </trkpt>
            <trkpt lat="50.1400448" lon="11.2176152">
                <ele>286.0</ele>
                <time>2020-08-21T17:52:39.000Z</time>
                <name>Trackpoint 7975</name>
            </trkpt>
            <trkpt lat="50.140064" lon="11.2175216">
                <ele>287.0</ele>
                <time>2020-08-21T17:52:40.000Z</time>
                <name>Trackpoint 7976</name>
            </trkpt>
            <trkpt lat="50.1400832" lon="11.217428">
                <ele>287.0</ele>
                <time>2020-08-21T17:52:41.000Z</time>
                <name>Trackpoint 7977</name>
            </trkpt>
            <trkpt lat="50.1401024" lon="11.2173368">
                <ele>287.0</ele>
                <time>2020-08-21T17:52:42.000Z</time>
                <name>Trackpoint 7978</name>
            </trkpt>
            <trkpt lat="50.1401216" lon="11.2172472">
                <ele>287.0</ele>
                <time>2020-08-21T17:52:43.000Z</time>
                <name>Trackpoint 7979</name>
            </trkpt>
            <trkpt lat="50.1401408" lon="11.2171568">
                <ele>287.0</ele>
                <time>2020-08-21T17:52:44.000Z</time>
                <name>Trackpoint 7980</name>
            </trkpt>
            <trkpt lat="50.1401632" lon="11.2170688">
                <ele>287.0</ele>
                <time>2020-08-21T17:52:45.000Z</time>
                <name>Trackpoint 7981</name>
            </trkpt>
            <trkpt lat="50.1401792" lon="11.21698">
                <ele>288.0</ele>
                <time>2020-08-21T17:52:46.000Z</time>
                <name>Trackpoint 7982</name>
            </trkpt>
            <trkpt lat="50.1402144" lon="11.216812">
                <ele>288.0</ele>
                <time>2020-08-21T17:52:48.000Z</time>
                <name>Trackpoint 7983</name>
            </trkpt>
            <trkpt lat="50.140256" lon="11.216652">
                <ele>288.0</ele>
                <time>2020-08-21T17:52:50.000Z</time>
                <name>Trackpoint 7984</name>
            </trkpt>
            <trkpt lat="50.1402976" lon="11.2164984">
                <ele>288.0</ele>
                <time>2020-08-21T17:52:52.000Z</time>
                <name>Trackpoint 7985</name>
            </trkpt>
            <trkpt lat="50.1403392" lon="11.2163464">
                <ele>290.0</ele>
                <time>2020-08-21T17:52:54.000Z</time>
                <name>Trackpoint 7986</name>
            </trkpt>
            <trkpt lat="50.140384" lon="11.2162">
                <ele>291.0</ele>
                <time>2020-08-21T17:52:56.000Z</time>
                <name>Trackpoint 7987</name>
            </trkpt>
            <trkpt lat="50.1404384" lon="11.2160552">
                <ele>292.0</ele>
                <time>2020-08-21T17:52:58.000Z</time>
                <name>Trackpoint 7988</name>
            </trkpt>
            <trkpt lat="50.1404928" lon="11.2159184">
                <ele>293.0</ele>
                <time>2020-08-21T17:53:00.000Z</time>
                <name>Trackpoint 7989</name>
            </trkpt>
            <trkpt lat="50.1405408" lon="11.2157936">
                <ele>293.0</ele>
                <time>2020-08-21T17:53:02.000Z</time>
                <name>Trackpoint 7990</name>
            </trkpt>
            <trkpt lat="50.1406048" lon="11.2156752">
                <ele>294.0</ele>
                <time>2020-08-21T17:53:04.000Z</time>
                <name>Trackpoint 7991</name>
            </trkpt>
            <trkpt lat="50.1406528" lon="11.2155736">
                <ele>293.0</ele>
                <time>2020-08-21T17:53:06.000Z</time>
                <name>Trackpoint 7992</name>
            </trkpt>
            <trkpt lat="50.1406976" lon="11.2154688">
                <ele>293.0</ele>
                <time>2020-08-21T17:53:22.000Z</time>
                <name>Trackpoint 7993</name>
            </trkpt>
            <trkpt lat="50.1407552" lon="11.2153432">
                <ele>293.0</ele>
                <time>2020-08-21T17:53:25.000Z</time>
                <name>Trackpoint 7994</name>
            </trkpt>
            <trkpt lat="50.1407968" lon="11.2152432">
                <ele>293.0</ele>
                <time>2020-08-21T17:53:27.000Z</time>
                <name>Trackpoint 7995</name>
            </trkpt>
            <trkpt lat="50.1408512" lon="11.2151248">
                <ele>292.0</ele>
                <time>2020-08-21T17:53:29.000Z</time>
                <name>Trackpoint 7996</name>
            </trkpt>
            <trkpt lat="50.140912" lon="11.2149952">
                <ele>292.0</ele>
                <time>2020-08-21T17:53:31.000Z</time>
                <name>Trackpoint 7997</name>
            </trkpt>
            <trkpt lat="50.1409728" lon="11.214864">
                <ele>292.0</ele>
                <time>2020-08-21T17:53:33.000Z</time>
                <name>Trackpoint 7998</name>
            </trkpt>
            <trkpt lat="50.1410336" lon="11.2147232">
                <ele>292.0</ele>
                <time>2020-08-21T17:53:35.000Z</time>
                <name>Trackpoint 7999</name>
            </trkpt>
            <trkpt lat="50.1410976" lon="11.2145816">
                <ele>291.0</ele>
                <time>2020-08-21T17:53:37.000Z</time>
                <name>Trackpoint 8000</name>
            </trkpt>
            <trkpt lat="50.141168" lon="11.2144344">
                <ele>291.0</ele>
                <time>2020-08-21T17:53:39.000Z</time>
                <name>Trackpoint 8001</name>
            </trkpt>
            <trkpt lat="50.1412384" lon="11.214276">
                <ele>290.0</ele>
                <time>2020-08-21T17:53:41.000Z</time>
                <name>Trackpoint 8002</name>
            </trkpt>
            <trkpt lat="50.141312" lon="11.2141288">
                <ele>289.0</ele>
                <time>2020-08-21T17:53:43.000Z</time>
                <name>Trackpoint 8003</name>
            </trkpt>
            <trkpt lat="50.1413792" lon="11.2139768">
                <ele>290.0</ele>
                <time>2020-08-21T17:53:45.000Z</time>
                <name>Trackpoint 8004</name>
            </trkpt>
            <trkpt lat="50.1414176" lon="11.2138952">
                <ele>290.0</ele>
                <time>2020-08-21T17:53:46.000Z</time>
                <name>Trackpoint 8005</name>
            </trkpt>
            <trkpt lat="50.141456" lon="11.2138096">
                <ele>289.0</ele>
                <time>2020-08-21T17:53:47.000Z</time>
                <name>Trackpoint 8006</name>
            </trkpt>
            <trkpt lat="50.1415264" lon="11.2136584">
                <ele>289.0</ele>
                <time>2020-08-21T17:53:49.000Z</time>
                <name>Trackpoint 8007</name>
            </trkpt>
            <trkpt lat="50.1415936" lon="11.2135">
                <ele>289.0</ele>
                <time>2020-08-21T17:53:51.000Z</time>
                <name>Trackpoint 8008</name>
            </trkpt>
            <trkpt lat="50.1416544" lon="11.213344">
                <ele>289.0</ele>
                <time>2020-08-21T17:53:53.000Z</time>
                <name>Trackpoint 8009</name>
            </trkpt>
            <trkpt lat="50.1416864" lon="11.2132416">
                <ele>289.0</ele>
                <time>2020-08-21T17:53:54.000Z</time>
                <name>Trackpoint 8010</name>
            </trkpt>
            <trkpt lat="50.1417152" lon="11.2131256">
                <ele>289.0</ele>
                <time>2020-08-21T17:53:55.000Z</time>
                <name>Trackpoint 8011</name>
            </trkpt>
            <trkpt lat="50.141744" lon="11.213012">
                <ele>289.0</ele>
                <time>2020-08-21T17:53:56.000Z</time>
                <name>Trackpoint 8012</name>
            </trkpt>
            <trkpt lat="50.1417632" lon="11.2128952">
                <ele>289.0</ele>
                <time>2020-08-21T17:53:57.000Z</time>
                <name>Trackpoint 8013</name>
            </trkpt>
            <trkpt lat="50.1417696" lon="11.2127712">
                <ele>289.0</ele>
                <time>2020-08-21T17:53:58.000Z</time>
                <name>Trackpoint 8014</name>
            </trkpt>
            <trkpt lat="50.1417472" lon="11.2126448">
                <ele>289.0</ele>
                <time>2020-08-21T17:53:59.000Z</time>
                <name>Trackpoint 8015</name>
            </trkpt>
            <trkpt lat="50.1417152" lon="11.2125216">
                <ele>289.0</ele>
                <time>2020-08-21T17:54:00.000Z</time>
                <name>Trackpoint 8016</name>
            </trkpt>
            <trkpt lat="50.1416768" lon="11.2123784">
                <ele>289.0</ele>
                <time>2020-08-21T17:54:01.000Z</time>
                <name>Trackpoint 8017</name>
            </trkpt>
            <trkpt lat="50.141648" lon="11.2122352">
                <ele>288.0</ele>
                <time>2020-08-21T17:54:02.000Z</time>
                <name>Trackpoint 8018</name>
            </trkpt>
            <trkpt lat="50.141616" lon="11.2121">
                <ele>288.0</ele>
                <time>2020-08-21T17:54:03.000Z</time>
                <name>Trackpoint 8019</name>
            </trkpt>
            <trkpt lat="50.1415904" lon="11.2119768">
                <ele>288.0</ele>
                <time>2020-08-21T17:54:04.000Z</time>
                <name>Trackpoint 8020</name>
            </trkpt>
            <trkpt lat="50.1415584" lon="11.2118768">
                <ele>288.0</ele>
                <time>2020-08-21T17:54:05.000Z</time>
                <name>Trackpoint 8021</name>
            </trkpt>
            <trkpt lat="50.141536" lon="11.2117864">
                <ele>288.0</ele>
                <time>2020-08-21T17:54:06.000Z</time>
                <name>Trackpoint 8022</name>
            </trkpt>
            <trkpt lat="50.14152" lon="11.2116968">
                <ele>288.0</ele>
                <time>2020-08-21T17:54:07.000Z</time>
                <name>Trackpoint 8023</name>
            </trkpt>
            <trkpt lat="50.1415488" lon="11.2115544">
                <ele>287.0</ele>
                <time>2020-08-21T17:54:09.000Z</time>
                <name>Trackpoint 8024</name>
            </trkpt>
            <trkpt lat="50.1415904" lon="11.2114624">
                <ele>287.0</ele>
                <time>2020-08-21T17:54:11.000Z</time>
                <name>Trackpoint 8025</name>
            </trkpt>
            <trkpt lat="50.1416384" lon="11.2113504">
                <ele>286.0</ele>
                <time>2020-08-21T17:54:13.000Z</time>
                <name>Trackpoint 8026</name>
            </trkpt>
            <trkpt lat="50.1416928" lon="11.2112304">
                <ele>286.0</ele>
                <time>2020-08-21T17:54:15.000Z</time>
                <name>Trackpoint 8027</name>
            </trkpt>
            <trkpt lat="50.1417344" lon="11.2111352">
                <ele>286.0</ele>
                <time>2020-08-21T17:54:17.000Z</time>
                <name>Trackpoint 8028</name>
            </trkpt>
            <trkpt lat="50.1417856" lon="11.2110384">
                <ele>285.0</ele>
                <time>2020-08-21T17:54:19.000Z</time>
                <name>Trackpoint 8029</name>
            </trkpt>
            <trkpt lat="50.1418144" lon="11.210932">
                <ele>285.0</ele>
                <time>2020-08-21T17:54:21.000Z</time>
                <name>Trackpoint 8030</name>
            </trkpt>
            <trkpt lat="50.141872" lon="11.2107952">
                <ele>284.0</ele>
                <time>2020-08-21T17:54:23.000Z</time>
                <name>Trackpoint 8031</name>
            </trkpt>
            <trkpt lat="50.1419232" lon="11.2106552">
                <ele>284.0</ele>
                <time>2020-08-21T17:54:25.000Z</time>
                <name>Trackpoint 8032</name>
            </trkpt>
            <trkpt lat="50.141984" lon="11.2105016">
                <ele>284.0</ele>
                <time>2020-08-21T17:54:27.000Z</time>
                <name>Trackpoint 8033</name>
            </trkpt>
            <trkpt lat="50.1420448" lon="11.210352">
                <ele>284.0</ele>
                <time>2020-08-21T17:54:29.000Z</time>
                <name>Trackpoint 8034</name>
            </trkpt>
            <trkpt lat="50.142112" lon="11.2102168">
                <ele>283.0</ele>
                <time>2020-08-21T17:54:31.000Z</time>
                <name>Trackpoint 8035</name>
            </trkpt>
            <trkpt lat="50.1421664" lon="11.2100664">
                <ele>283.0</ele>
                <time>2020-08-21T17:54:33.000Z</time>
                <name>Trackpoint 8036</name>
            </trkpt>
            <trkpt lat="50.1422144" lon="11.2099336">
                <ele>283.0</ele>
                <time>2020-08-21T17:54:35.000Z</time>
                <name>Trackpoint 8037</name>
            </trkpt>
            <trkpt lat="50.142272" lon="11.2098064">
                <ele>282.0</ele>
                <time>2020-08-21T17:54:37.000Z</time>
                <name>Trackpoint 8038</name>
            </trkpt>
            <trkpt lat="50.1423264" lon="11.2096784">
                <ele>282.0</ele>
                <time>2020-08-21T17:54:39.000Z</time>
                <name>Trackpoint 8039</name>
            </trkpt>
            <trkpt lat="50.1423808" lon="11.2095768">
                <ele>282.0</ele>
                <time>2020-08-21T17:54:41.000Z</time>
                <name>Trackpoint 8040</name>
            </trkpt>
            <trkpt lat="50.1424288" lon="11.2094944">
                <ele>281.0</ele>
                <time>2020-08-21T17:54:43.000Z</time>
                <name>Trackpoint 8041</name>
            </trkpt>
            <trkpt lat="50.14248" lon="11.209412">
                <ele>281.0</ele>
                <time>2020-08-21T17:54:45.000Z</time>
                <name>Trackpoint 8042</name>
            </trkpt>
            <trkpt lat="50.14256" lon="11.2093048">
                <ele>281.0</ele>
                <time>2020-08-21T17:54:48.000Z</time>
                <name>Trackpoint 8043</name>
            </trkpt>
            <trkpt lat="50.142624" lon="11.2092184">
                <ele>281.0</ele>
                <time>2020-08-21T17:54:50.000Z</time>
                <name>Trackpoint 8044</name>
            </trkpt>
            <trkpt lat="50.1426784" lon="11.2091368">
                <ele>281.0</ele>
                <time>2020-08-21T17:54:52.000Z</time>
                <name>Trackpoint 8045</name>
            </trkpt>
            <trkpt lat="50.1427424" lon="11.209052">
                <ele>281.0</ele>
                <time>2020-08-21T17:54:54.000Z</time>
                <name>Trackpoint 8046</name>
            </trkpt>
            <trkpt lat="50.1428192" lon="11.2089656">
                <ele>281.0</ele>
                <time>2020-08-21T17:54:56.000Z</time>
                <name>Trackpoint 8047</name>
            </trkpt>
            <trkpt lat="50.14288" lon="11.2088736">
                <ele>281.0</ele>
                <time>2020-08-21T17:54:58.000Z</time>
                <name>Trackpoint 8048</name>
            </trkpt>
            <trkpt lat="50.14296" lon="11.2087472">
                <ele>282.0</ele>
                <time>2020-08-21T17:55:00.000Z</time>
                <name>Trackpoint 8049</name>
            </trkpt>
            <trkpt lat="50.143008" lon="11.20866">
                <ele>281.0</ele>
                <time>2020-08-21T17:55:01.000Z</time>
                <name>Trackpoint 8050</name>
            </trkpt>
            <trkpt lat="50.143056" lon="11.2085752">
                <ele>281.0</ele>
                <time>2020-08-21T17:55:02.000Z</time>
                <name>Trackpoint 8051</name>
            </trkpt>
            <trkpt lat="50.1431136" lon="11.2084864">
                <ele>281.0</ele>
                <time>2020-08-21T17:55:04.000Z</time>
                <name>Trackpoint 8052</name>
            </trkpt>
            <trkpt lat="50.1431648" lon="11.2083816">
                <ele>281.0</ele>
                <time>2020-08-21T17:55:06.000Z</time>
                <name>Trackpoint 8053</name>
            </trkpt>
            <trkpt lat="50.1432224" lon="11.20828">
                <ele>281.0</ele>
                <time>2020-08-21T17:55:09.000Z</time>
                <name>Trackpoint 8054</name>
            </trkpt>
            <trkpt lat="50.1432928" lon="11.208192">
                <ele>280.0</ele>
                <time>2020-08-21T17:55:12.000Z</time>
                <name>Trackpoint 8055</name>
            </trkpt>
            <trkpt lat="50.1433664" lon="11.2081216">
                <ele>280.0</ele>
                <time>2020-08-21T17:55:15.000Z</time>
                <name>Trackpoint 8056</name>
            </trkpt>
            <trkpt lat="50.1434336" lon="11.2080616">
                <ele>280.0</ele>
                <time>2020-08-21T17:55:17.000Z</time>
                <name>Trackpoint 8057</name>
            </trkpt>
            <trkpt lat="50.143504" lon="11.2079984">
                <ele>280.0</ele>
                <time>2020-08-21T17:55:19.000Z</time>
                <name>Trackpoint 8058</name>
            </trkpt>
            <trkpt lat="50.143632" lon="11.2078448">
                <ele>280.0</ele>
                <time>2020-08-21T17:55:21.000Z</time>
                <name>Trackpoint 8059</name>
            </trkpt>
            <trkpt lat="50.1437312" lon="11.2077936">
                <ele>280.0</ele>
                <time>2020-08-21T17:55:24.000Z</time>
                <name>Trackpoint 8060</name>
            </trkpt>
            <trkpt lat="50.1438336" lon="11.20776">
                <ele>281.0</ele>
                <time>2020-08-21T17:55:28.000Z</time>
                <name>Trackpoint 8061</name>
            </trkpt>
            <trkpt lat="50.1439232" lon="11.2077168">
                <ele>281.0</ele>
                <time>2020-08-21T17:55:31.000Z</time>
                <name>Trackpoint 8062</name>
            </trkpt>
            <trkpt lat="50.1440224" lon="11.2076584">
                <ele>282.0</ele>
                <time>2020-08-21T17:55:34.000Z</time>
                <name>Trackpoint 8063</name>
            </trkpt>
            <trkpt lat="50.1441472" lon="11.2075568">
                <ele>282.0</ele>
                <time>2020-08-21T17:55:37.000Z</time>
                <name>Trackpoint 8064</name>
            </trkpt>
            <trkpt lat="50.1442464" lon="11.2075168">
                <ele>282.0</ele>
                <time>2020-08-21T17:55:40.000Z</time>
                <name>Trackpoint 8065</name>
            </trkpt>
            <trkpt lat="50.144336" lon="11.2074872">
                <ele>282.0</ele>
                <time>2020-08-21T17:55:44.000Z</time>
                <name>Trackpoint 8066</name>
            </trkpt>
            <trkpt lat="50.1444192" lon="11.2074448">
                <ele>282.0</ele>
                <time>2020-08-21T17:55:48.000Z</time>
                <name>Trackpoint 8067</name>
            </trkpt>
            <trkpt lat="50.1445184" lon="11.2073816">
                <ele>282.0</ele>
                <time>2020-08-21T17:55:54.000Z</time>
                <name>Trackpoint 8068</name>
            </trkpt>
            <trkpt lat="50.1445952" lon="11.2073336">
                <ele>282.0</ele>
                <time>2020-08-21T17:55:57.000Z</time>
                <name>Trackpoint 8069</name>
            </trkpt>
            <trkpt lat="50.144672" lon="11.2072672">
                <ele>282.0</ele>
                <time>2020-08-21T17:56:02.000Z</time>
                <name>Trackpoint 8070</name>
            </trkpt>
            <trkpt lat="50.1447424" lon="11.2072096">
                <ele>283.0</ele>
                <time>2020-08-21T17:56:05.000Z</time>
                <name>Trackpoint 8071</name>
            </trkpt>
            <trkpt lat="50.144864" lon="11.2071464">
                <ele>284.0</ele>
                <time>2020-08-21T17:56:09.000Z</time>
                <name>Trackpoint 8072</name>
            </trkpt>
            <trkpt lat="50.1449312" lon="11.2070664">
                <ele>284.0</ele>
                <time>2020-08-21T17:56:12.000Z</time>
                <name>Trackpoint 8073</name>
            </trkpt>
            <trkpt lat="50.1450048" lon="11.2070064">
                <ele>285.0</ele>
                <time>2020-08-21T17:56:16.000Z</time>
                <name>Trackpoint 8074</name>
            </trkpt>
            <trkpt lat="50.1450752" lon="11.206948">
                <ele>285.0</ele>
                <time>2020-08-21T17:56:19.000Z</time>
                <name>Trackpoint 8075</name>
            </trkpt>
            <trkpt lat="50.145184" lon="11.2068752">
                <ele>286.0</ele>
                <time>2020-08-21T17:56:22.000Z</time>
                <name>Trackpoint 8076</name>
            </trkpt>
            <trkpt lat="50.1452512" lon="11.2067856">
                <ele>286.0</ele>
                <time>2020-08-21T17:56:26.000Z</time>
                <name>Trackpoint 8077</name>
            </trkpt>
            <trkpt lat="50.1453088" lon="11.206712">
                <ele>286.0</ele>
                <time>2020-08-21T17:56:29.000Z</time>
                <name>Trackpoint 8078</name>
            </trkpt>
            <trkpt lat="50.1453888" lon="11.2066432">
                <ele>287.0</ele>
                <time>2020-08-21T17:56:32.000Z</time>
                <name>Trackpoint 8079</name>
            </trkpt>
            <trkpt lat="50.1454688" lon="11.2065312">
                <ele>287.0</ele>
                <time>2020-08-21T17:56:34.000Z</time>
                <name>Trackpoint 8080</name>
            </trkpt>
            <trkpt lat="50.14552" lon="11.2064448">
                <ele>288.0</ele>
                <time>2020-08-21T17:56:37.000Z</time>
                <name>Trackpoint 8081</name>
            </trkpt>
            <trkpt lat="50.1455648" lon="11.206364">
                <ele>288.0</ele>
                <time>2020-08-21T17:56:40.000Z</time>
                <name>Trackpoint 8082</name>
            </trkpt>
            <trkpt lat="50.1456416" lon="11.2063016">
                <ele>288.0</ele>
                <time>2020-08-21T17:56:43.000Z</time>
                <name>Trackpoint 8083</name>
            </trkpt>
            <trkpt lat="50.1457024" lon="11.2061904">
                <ele>289.0</ele>
                <time>2020-08-21T17:56:46.000Z</time>
                <name>Trackpoint 8084</name>
            </trkpt>
            <trkpt lat="50.14576" lon="11.206092">
                <ele>289.0</ele>
                <time>2020-08-21T17:56:49.000Z</time>
                <name>Trackpoint 8085</name>
            </trkpt>
            <trkpt lat="50.1458176" lon="11.205992">
                <ele>289.0</ele>
                <time>2020-08-21T17:56:52.000Z</time>
                <name>Trackpoint 8086</name>
            </trkpt>
            <trkpt lat="50.1458656" lon="11.2059088">
                <ele>290.0</ele>
                <time>2020-08-21T17:56:55.000Z</time>
                <name>Trackpoint 8087</name>
            </trkpt>
            <trkpt lat="50.1459264" lon="11.2058216">
                <ele>290.0</ele>
                <time>2020-08-21T17:56:58.000Z</time>
                <name>Trackpoint 8088</name>
            </trkpt>
            <trkpt lat="50.1459744" lon="11.20572">
                <ele>290.0</ele>
                <time>2020-08-21T17:57:01.000Z</time>
                <name>Trackpoint 8089</name>
            </trkpt>
            <trkpt lat="50.146016" lon="11.2056328">
                <ele>290.0</ele>
                <time>2020-08-21T17:57:03.000Z</time>
                <name>Trackpoint 8090</name>
            </trkpt>
            <trkpt lat="50.14608" lon="11.2055032">
                <ele>290.0</ele>
                <time>2020-08-21T17:57:06.000Z</time>
                <name>Trackpoint 8091</name>
            </trkpt>
            <trkpt lat="50.1461312" lon="11.2053936">
                <ele>290.0</ele>
                <time>2020-08-21T17:57:09.000Z</time>
                <name>Trackpoint 8092</name>
            </trkpt>
            <trkpt lat="50.146176" lon="11.20528">
                <ele>291.0</ele>
                <time>2020-08-21T17:57:12.000Z</time>
                <name>Trackpoint 8093</name>
            </trkpt>
            <trkpt lat="50.1462208" lon="11.205192">
                <ele>291.0</ele>
                <time>2020-08-21T17:57:14.000Z</time>
                <name>Trackpoint 8094</name>
            </trkpt>
            <trkpt lat="50.146272" lon="11.2050984">
                <ele>291.0</ele>
                <time>2020-08-21T17:57:17.000Z</time>
                <name>Trackpoint 8095</name>
            </trkpt>
            <trkpt lat="50.1463136" lon="11.2050112">
                <ele>291.0</ele>
                <time>2020-08-21T17:57:20.000Z</time>
                <name>Trackpoint 8096</name>
            </trkpt>
            <trkpt lat="50.1463744" lon="11.2048976">
                <ele>292.0</ele>
                <time>2020-08-21T17:57:24.000Z</time>
                <name>Trackpoint 8097</name>
            </trkpt>
            <trkpt lat="50.1464096" lon="11.2047928">
                <ele>293.0</ele>
                <time>2020-08-21T17:57:27.000Z</time>
                <name>Trackpoint 8098</name>
            </trkpt>
            <trkpt lat="50.1464416" lon="11.2046984">
                <ele>293.0</ele>
                <time>2020-08-21T17:57:30.000Z</time>
                <name>Trackpoint 8099</name>
            </trkpt>
            <trkpt lat="50.14648" lon="11.2046096">
                <ele>293.0</ele>
                <time>2020-08-21T17:57:33.000Z</time>
                <name>Trackpoint 8100</name>
            </trkpt>
            <trkpt lat="50.1465216" lon="11.2044848">
                <ele>294.0</ele>
                <time>2020-08-21T17:57:36.000Z</time>
                <name>Trackpoint 8101</name>
            </trkpt>
            <trkpt lat="50.1465792" lon="11.2043984">
                <ele>294.0</ele>
                <time>2020-08-21T17:57:38.000Z</time>
                <name>Trackpoint 8102</name>
            </trkpt>
            <trkpt lat="50.1465984" lon="11.204304">
                <ele>294.0</ele>
                <time>2020-08-21T17:57:42.000Z</time>
                <name>Trackpoint 8103</name>
            </trkpt>
            <trkpt lat="50.1466336" lon="11.2042">
                <ele>295.0</ele>
                <time>2020-08-21T17:57:45.000Z</time>
                <name>Trackpoint 8104</name>
            </trkpt>
            <trkpt lat="50.1466624" lon="11.2040984">
                <ele>295.0</ele>
                <time>2020-08-21T17:57:47.000Z</time>
                <name>Trackpoint 8105</name>
            </trkpt>
            <trkpt lat="50.1467168" lon="11.2040168">
                <ele>295.0</ele>
                <time>2020-08-21T17:57:49.000Z</time>
                <name>Trackpoint 8106</name>
            </trkpt>
            <trkpt lat="50.1467488" lon="11.2039184">
                <ele>295.0</ele>
                <time>2020-08-21T17:57:51.000Z</time>
                <name>Trackpoint 8107</name>
            </trkpt>
            <trkpt lat="50.1467712" lon="11.203828">
                <ele>295.0</ele>
                <time>2020-08-21T17:57:53.000Z</time>
                <name>Trackpoint 8108</name>
            </trkpt>
            <trkpt lat="50.1467936" lon="11.2037248">
                <ele>295.0</ele>
                <time>2020-08-21T17:57:55.000Z</time>
                <name>Trackpoint 8109</name>
            </trkpt>
            <trkpt lat="50.1468192" lon="11.2036104">
                <ele>296.0</ele>
                <time>2020-08-21T17:57:58.000Z</time>
                <name>Trackpoint 8110</name>
            </trkpt>
            <trkpt lat="50.1468416" lon="11.2034864">
                <ele>296.0</ele>
                <time>2020-08-21T17:58:01.000Z</time>
                <name>Trackpoint 8111</name>
            </trkpt>
            <trkpt lat="50.1468736" lon="11.2033632">
                <ele>296.0</ele>
                <time>2020-08-21T17:58:03.000Z</time>
                <name>Trackpoint 8112</name>
            </trkpt>
            <trkpt lat="50.1469024" lon="11.2032648">
                <ele>296.0</ele>
                <time>2020-08-21T17:58:05.000Z</time>
                <name>Trackpoint 8113</name>
            </trkpt>
            <trkpt lat="50.1469216" lon="11.2031616">
                <ele>296.0</ele>
                <time>2020-08-21T17:58:07.000Z</time>
                <name>Trackpoint 8114</name>
            </trkpt>
            <trkpt lat="50.14696" lon="11.2030248">
                <ele>297.0</ele>
                <time>2020-08-21T17:58:10.000Z</time>
                <name>Trackpoint 8115</name>
            </trkpt>
            <trkpt lat="50.1469856" lon="11.2029264">
                <ele>297.0</ele>
                <time>2020-08-21T17:58:11.000Z</time>
                <name>Trackpoint 8116</name>
            </trkpt>
            <trkpt lat="50.147008" lon="11.2027928">
                <ele>297.0</ele>
                <time>2020-08-21T17:58:13.000Z</time>
                <name>Trackpoint 8117</name>
            </trkpt>
            <trkpt lat="50.1470496" lon="11.2026728">
                <ele>297.0</ele>
                <time>2020-08-21T17:58:16.000Z</time>
                <name>Trackpoint 8118</name>
            </trkpt>
            <trkpt lat="50.1470944" lon="11.202568">
                <ele>298.0</ele>
                <time>2020-08-21T17:58:18.000Z</time>
                <name>Trackpoint 8119</name>
            </trkpt>
            <trkpt lat="50.1471328" lon="11.2024472">
                <ele>298.0</ele>
                <time>2020-08-21T17:58:20.000Z</time>
                <name>Trackpoint 8120</name>
            </trkpt>
            <trkpt lat="50.1471648" lon="11.2023264">
                <ele>298.0</ele>
                <time>2020-08-21T17:58:22.000Z</time>
                <name>Trackpoint 8121</name>
            </trkpt>
            <trkpt lat="50.1471904" lon="11.2022048">
                <ele>298.0</ele>
                <time>2020-08-21T17:58:24.000Z</time>
                <name>Trackpoint 8122</name>
            </trkpt>
            <trkpt lat="50.147216" lon="11.2020664">
                <ele>298.0</ele>
                <time>2020-08-21T17:58:26.000Z</time>
                <name>Trackpoint 8123</name>
            </trkpt>
            <trkpt lat="50.1472544" lon="11.2019704">
                <ele>298.0</ele>
                <time>2020-08-21T17:58:27.000Z</time>
                <name>Trackpoint 8124</name>
            </trkpt>
            <trkpt lat="50.1473056" lon="11.201852">
                <ele>298.0</ele>
                <time>2020-08-21T17:58:29.000Z</time>
                <name>Trackpoint 8125</name>
            </trkpt>
            <trkpt lat="50.1473344" lon="11.201748">
                <ele>299.0</ele>
                <time>2020-08-21T17:58:32.000Z</time>
                <name>Trackpoint 8126</name>
            </trkpt>
            <trkpt lat="50.1473376" lon="11.2016536">
                <ele>299.0</ele>
                <time>2020-08-21T17:58:34.000Z</time>
                <name>Trackpoint 8127</name>
            </trkpt>
            <trkpt lat="50.1473568" lon="11.2015336">
                <ele>299.0</ele>
                <time>2020-08-21T17:58:37.000Z</time>
                <name>Trackpoint 8128</name>
            </trkpt>
            <trkpt lat="50.1473728" lon="11.2014064">
                <ele>299.0</ele>
                <time>2020-08-21T17:58:40.000Z</time>
                <name>Trackpoint 8129</name>
            </trkpt>
            <trkpt lat="50.1473984" lon="11.2012752">
                <ele>299.0</ele>
                <time>2020-08-21T17:58:43.000Z</time>
                <name>Trackpoint 8130</name>
            </trkpt>
            <trkpt lat="50.1474112" lon="11.2011672">
                <ele>299.0</ele>
                <time>2020-08-21T17:58:45.000Z</time>
                <name>Trackpoint 8131</name>
            </trkpt>
            <trkpt lat="50.1474144" lon="11.2010744">
                <ele>299.0</ele>
                <time>2020-08-21T17:58:47.000Z</time>
                <name>Trackpoint 8132</name>
            </trkpt>
            <trkpt lat="50.1474368" lon="11.2009752">
                <ele>299.0</ele>
                <time>2020-08-21T17:58:50.000Z</time>
                <name>Trackpoint 8133</name>
            </trkpt>
            <trkpt lat="50.1474496" lon="11.2008832">
                <ele>299.0</ele>
                <time>2020-08-21T17:58:53.000Z</time>
                <name>Trackpoint 8134</name>
            </trkpt>
            <trkpt lat="50.1474816" lon="11.2007648">
                <ele>299.0</ele>
                <time>2020-08-21T17:58:55.000Z</time>
                <name>Trackpoint 8135</name>
            </trkpt>
            <trkpt lat="50.1475072" lon="11.2006504">
                <ele>299.0</ele>
                <time>2020-08-21T17:58:57.000Z</time>
                <name>Trackpoint 8136</name>
            </trkpt>
            <trkpt lat="50.1475328" lon="11.2005192">
                <ele>299.0</ele>
                <time>2020-08-21T17:58:59.000Z</time>
                <name>Trackpoint 8137</name>
            </trkpt>
            <trkpt lat="50.1475456" lon="11.20042">
                <ele>299.0</ele>
                <time>2020-08-21T17:59:01.000Z</time>
                <name>Trackpoint 8138</name>
            </trkpt>
            <trkpt lat="50.1475872" lon="11.200312">
                <ele>299.0</ele>
                <time>2020-08-21T17:59:03.000Z</time>
                <name>Trackpoint 8139</name>
            </trkpt>
            <trkpt lat="50.1476288" lon="11.2001632">
                <ele>299.0</ele>
                <time>2020-08-21T17:59:05.000Z</time>
                <name>Trackpoint 8140</name>
            </trkpt>
            <trkpt lat="50.147712" lon="11.2000352">
                <ele>299.0</ele>
                <time>2020-08-21T17:59:07.000Z</time>
                <name>Trackpoint 8141</name>
            </trkpt>
            <trkpt lat="50.1478016" lon="11.199912">
                <ele>299.0</ele>
                <time>2020-08-21T17:59:09.000Z</time>
                <name>Trackpoint 8142</name>
            </trkpt>
            <trkpt lat="50.1478752" lon="11.199832">
                <ele>300.0</ele>
                <time>2020-08-21T17:59:11.000Z</time>
                <name>Trackpoint 8143</name>
            </trkpt>
            <trkpt lat="50.1479584" lon="11.1997216">
                <ele>300.0</ele>
                <time>2020-08-21T17:59:13.000Z</time>
                <name>Trackpoint 8144</name>
            </trkpt>
            <trkpt lat="50.1480096" lon="11.1996336">
                <ele>300.0</ele>
                <time>2020-08-21T17:59:14.000Z</time>
                <name>Trackpoint 8145</name>
            </trkpt>
            <trkpt lat="50.1480864" lon="11.1995032">
                <ele>300.0</ele>
                <time>2020-08-21T17:59:15.000Z</time>
                <name>Trackpoint 8146</name>
            </trkpt>
            <trkpt lat="50.1481376" lon="11.199424">
                <ele>300.0</ele>
                <time>2020-08-21T17:59:16.000Z</time>
                <name>Trackpoint 8147</name>
            </trkpt>
            <trkpt lat="50.1482304" lon="11.1992952">
                <ele>300.0</ele>
                <time>2020-08-21T17:59:18.000Z</time>
                <name>Trackpoint 8148</name>
            </trkpt>
            <trkpt lat="50.1483264" lon="11.19916">
                <ele>299.0</ele>
                <time>2020-08-21T17:59:20.000Z</time>
                <name>Trackpoint 8149</name>
            </trkpt>
            <trkpt lat="50.1484" lon="11.1990232">
                <ele>299.0</ele>
                <time>2020-08-21T17:59:22.000Z</time>
                <name>Trackpoint 8150</name>
            </trkpt>
            <trkpt lat="50.1484416" lon="11.1989184">
                <ele>299.0</ele>
                <time>2020-08-21T17:59:24.000Z</time>
                <name>Trackpoint 8151</name>
            </trkpt>
            <trkpt lat="50.1484704" lon="11.1987832">
                <ele>298.0</ele>
                <time>2020-08-21T17:59:26.000Z</time>
                <name>Trackpoint 8152</name>
            </trkpt>
            <trkpt lat="50.1485088" lon="11.1986368">
                <ele>298.0</ele>
                <time>2020-08-21T17:59:28.000Z</time>
                <name>Trackpoint 8153</name>
            </trkpt>
            <trkpt lat="50.1485408" lon="11.1985264">
                <ele>297.0</ele>
                <time>2020-08-21T17:59:30.000Z</time>
                <name>Trackpoint 8154</name>
            </trkpt>
            <trkpt lat="50.1485952" lon="11.1984464">
                <ele>295.0</ele>
                <time>2020-08-21T17:59:33.000Z</time>
                <name>Trackpoint 8155</name>
            </trkpt>
            <trkpt lat="50.1486432" lon="11.1983696">
                <ele>295.0</ele>
                <time>2020-08-21T17:59:36.000Z</time>
                <name>Trackpoint 8156</name>
            </trkpt>
            <trkpt lat="50.1487168" lon="11.1982648">
                <ele>294.0</ele>
                <time>2020-08-21T17:59:40.000Z</time>
                <name>Trackpoint 8157</name>
            </trkpt>
            <trkpt lat="50.148784" lon="11.198172">
                <ele>293.0</ele>
                <time>2020-08-21T17:59:43.000Z</time>
                <name>Trackpoint 8158</name>
            </trkpt>
            <trkpt lat="50.1488672" lon="11.1981032">
                <ele>293.0</ele>
                <time>2020-08-21T17:59:47.000Z</time>
                <name>Trackpoint 8159</name>
            </trkpt>
            <trkpt lat="50.148976" lon="11.198116">
                <ele>292.0</ele>
                <time>2020-08-21T17:59:51.000Z</time>
                <name>Trackpoint 8160</name>
            </trkpt>
            <trkpt lat="50.1490912" lon="11.198116">
                <ele>293.0</ele>
                <time>2020-08-21T17:59:54.000Z</time>
                <name>Trackpoint 8161</name>
            </trkpt>
            <trkpt lat="50.149184" lon="11.1980584">
                <ele>292.0</ele>
                <time>2020-08-21T17:59:56.000Z</time>
                <name>Trackpoint 8162</name>
            </trkpt>
            <trkpt lat="50.1492832" lon="11.1979464">
                <ele>291.0</ele>
                <time>2020-08-21T17:59:58.000Z</time>
                <name>Trackpoint 8163</name>
            </trkpt>
            <trkpt lat="50.14936" lon="11.1978232">
                <ele>291.0</ele>
                <time>2020-08-21T18:00:00.000Z</time>
                <name>Trackpoint 8164</name>
            </trkpt>
            <trkpt lat="50.149424" lon="11.1977056">
                <ele>290.0</ele>
                <time>2020-08-21T18:00:02.000Z</time>
                <name>Trackpoint 8165</name>
            </trkpt>
            <trkpt lat="50.1494784" lon="11.197592">
                <ele>290.0</ele>
                <time>2020-08-21T18:00:04.000Z</time>
                <name>Trackpoint 8166</name>
            </trkpt>
            <trkpt lat="50.1495232" lon="11.1974736">
                <ele>289.0</ele>
                <time>2020-08-21T18:00:06.000Z</time>
                <name>Trackpoint 8167</name>
            </trkpt>
            <trkpt lat="50.1495616" lon="11.1973432">
                <ele>288.0</ele>
                <time>2020-08-21T18:00:08.000Z</time>
                <name>Trackpoint 8168</name>
            </trkpt>
            <trkpt lat="50.1496" lon="11.1972016">
                <ele>289.0</ele>
                <time>2020-08-21T18:00:10.000Z</time>
                <name>Trackpoint 8169</name>
            </trkpt>
            <trkpt lat="50.149632" lon="11.1970432">
                <ele>289.0</ele>
                <time>2020-08-21T18:00:12.000Z</time>
                <name>Trackpoint 8170</name>
            </trkpt>
            <trkpt lat="50.1496608" lon="11.1968672">
                <ele>289.0</ele>
                <time>2020-08-21T18:00:14.000Z</time>
                <name>Trackpoint 8171</name>
            </trkpt>
            <trkpt lat="50.1496672" lon="11.1967696">
                <ele>289.0</ele>
                <time>2020-08-21T18:00:15.000Z</time>
                <name>Trackpoint 8172</name>
            </trkpt>
            <trkpt lat="50.1496736" lon="11.1966736">
                <ele>289.0</ele>
                <time>2020-08-21T18:00:16.000Z</time>
                <name>Trackpoint 8173</name>
            </trkpt>
            <trkpt lat="50.1496736" lon="11.1965736">
                <ele>290.0</ele>
                <time>2020-08-21T18:00:17.000Z</time>
                <name>Trackpoint 8174</name>
            </trkpt>
            <trkpt lat="50.1496576" lon="11.1964568">
                <ele>290.0</ele>
                <time>2020-08-21T18:00:18.000Z</time>
                <name>Trackpoint 8175</name>
            </trkpt>
            <trkpt lat="50.1496416" lon="11.1963328">
                <ele>289.0</ele>
                <time>2020-08-21T18:00:19.000Z</time>
                <name>Trackpoint 8176</name>
            </trkpt>
            <trkpt lat="50.1496352" lon="11.1962016">
                <ele>289.0</ele>
                <time>2020-08-21T18:00:20.000Z</time>
                <name>Trackpoint 8177</name>
            </trkpt>
            <trkpt lat="50.1496192" lon="11.19606">
                <ele>288.0</ele>
                <time>2020-08-21T18:00:21.000Z</time>
                <name>Trackpoint 8178</name>
            </trkpt>
            <trkpt lat="50.1496128" lon="11.19592">
                <ele>287.0</ele>
                <time>2020-08-21T18:00:22.000Z</time>
                <name>Trackpoint 8179</name>
            </trkpt>
            <trkpt lat="50.1496032" lon="11.1957776">
                <ele>286.0</ele>
                <time>2020-08-21T18:00:23.000Z</time>
                <name>Trackpoint 8180</name>
            </trkpt>
            <trkpt lat="50.1496032" lon="11.1956368">
                <ele>285.0</ele>
                <time>2020-08-21T18:00:24.000Z</time>
                <name>Trackpoint 8181</name>
            </trkpt>
            <trkpt lat="50.1496096" lon="11.1954984">
                <ele>284.0</ele>
                <time>2020-08-21T18:00:25.000Z</time>
                <name>Trackpoint 8182</name>
            </trkpt>
            <trkpt lat="50.1496128" lon="11.19536">
                <ele>284.0</ele>
                <time>2020-08-21T18:00:26.000Z</time>
                <name>Trackpoint 8183</name>
            </trkpt>
            <trkpt lat="50.1496192" lon="11.1952264">
                <ele>283.0</ele>
                <time>2020-08-21T18:00:27.000Z</time>
                <name>Trackpoint 8184</name>
            </trkpt>
            <trkpt lat="50.1496288" lon="11.1950976">
                <ele>283.0</ele>
                <time>2020-08-21T18:00:28.000Z</time>
                <name>Trackpoint 8185</name>
            </trkpt>
            <trkpt lat="50.149632" lon="11.19498">
                <ele>283.0</ele>
                <time>2020-08-21T18:00:29.000Z</time>
                <name>Trackpoint 8186</name>
            </trkpt>
            <trkpt lat="50.1496224" lon="11.1948632">
                <ele>283.0</ele>
                <time>2020-08-21T18:00:30.000Z</time>
                <name>Trackpoint 8187</name>
            </trkpt>
            <trkpt lat="50.1496192" lon="11.1947544">
                <ele>283.0</ele>
                <time>2020-08-21T18:00:31.000Z</time>
                <name>Trackpoint 8188</name>
            </trkpt>
            <trkpt lat="50.1496032" lon="11.194656">
                <ele>283.0</ele>
                <time>2020-08-21T18:00:32.000Z</time>
                <name>Trackpoint 8189</name>
            </trkpt>
            <trkpt lat="50.1495776" lon="11.1944904">
                <ele>283.0</ele>
                <time>2020-08-21T18:00:34.000Z</time>
                <name>Trackpoint 8190</name>
            </trkpt>
            <trkpt lat="50.1495488" lon="11.1943512">
                <ele>283.0</ele>
                <time>2020-08-21T18:00:36.000Z</time>
                <name>Trackpoint 8191</name>
            </trkpt>
            <trkpt lat="50.1495296" lon="11.1942352">
                <ele>283.0</ele>
                <time>2020-08-21T18:00:38.000Z</time>
                <name>Trackpoint 8192</name>
            </trkpt>
            <trkpt lat="50.1495104" lon="11.1941336">
                <ele>283.0</ele>
                <time>2020-08-21T18:00:40.000Z</time>
                <name>Trackpoint 8193</name>
            </trkpt>
            <trkpt lat="50.1494912" lon="11.19404">
                <ele>283.0</ele>
                <time>2020-08-21T18:00:42.000Z</time>
                <name>Trackpoint 8194</name>
            </trkpt>
            <trkpt lat="50.149472" lon="11.1939432">
                <ele>284.0</ele>
                <time>2020-08-21T18:00:44.000Z</time>
                <name>Trackpoint 8195</name>
            </trkpt>
            <trkpt lat="50.1494432" lon="11.1938448">
                <ele>283.0</ele>
                <time>2020-08-21T18:00:46.000Z</time>
                <name>Trackpoint 8196</name>
            </trkpt>
            <trkpt lat="50.149424" lon="11.1937504">
                <ele>283.0</ele>
                <time>2020-08-21T18:00:48.000Z</time>
                <name>Trackpoint 8197</name>
            </trkpt>
            <trkpt lat="50.1493952" lon="11.1936576">
                <ele>284.0</ele>
                <time>2020-08-21T18:00:50.000Z</time>
                <name>Trackpoint 8198</name>
            </trkpt>
            <trkpt lat="50.1493696" lon="11.1935632">
                <ele>284.0</ele>
                <time>2020-08-21T18:00:52.000Z</time>
                <name>Trackpoint 8199</name>
            </trkpt>
            <trkpt lat="50.149344" lon="11.1934672">
                <ele>284.0</ele>
                <time>2020-08-21T18:00:54.000Z</time>
                <name>Trackpoint 8200</name>
            </trkpt>
            <trkpt lat="50.1493184" lon="11.193372">
                <ele>284.0</ele>
                <time>2020-08-21T18:00:56.000Z</time>
                <name>Trackpoint 8201</name>
            </trkpt>
            <trkpt lat="50.149296" lon="11.1932784">
                <ele>285.0</ele>
                <time>2020-08-21T18:00:58.000Z</time>
                <name>Trackpoint 8202</name>
            </trkpt>
            <trkpt lat="50.1492736" lon="11.1931888">
                <ele>285.0</ele>
                <time>2020-08-21T18:01:00.000Z</time>
                <name>Trackpoint 8203</name>
            </trkpt>
            <trkpt lat="50.1492352" lon="11.1930688">
                <ele>286.0</ele>
                <time>2020-08-21T18:01:03.000Z</time>
                <name>Trackpoint 8204</name>
            </trkpt>
            <trkpt lat="50.1492096" lon="11.192964">
                <ele>286.0</ele>
                <time>2020-08-21T18:01:06.000Z</time>
                <name>Trackpoint 8205</name>
            </trkpt>
            <trkpt lat="50.1491808" lon="11.1928704">
                <ele>287.0</ele>
                <time>2020-08-21T18:01:11.000Z</time>
                <name>Trackpoint 8206</name>
            </trkpt>
            <trkpt lat="50.149136" lon="11.1927816">
                <ele>287.0</ele>
                <time>2020-08-21T18:03:17.000Z</time>
                <name>Trackpoint 8207</name>
            </trkpt>
            <trkpt lat="50.1491008" lon="11.1926632">
                <ele>287.0</ele>
                <time>2020-08-21T18:03:20.000Z</time>
                <name>Trackpoint 8208</name>
            </trkpt>
            <trkpt lat="50.1490656" lon="11.1925424">
                <ele>287.0</ele>
                <time>2020-08-21T18:03:23.000Z</time>
                <name>Trackpoint 8209</name>
            </trkpt>
            <trkpt lat="50.1490336" lon="11.1924352">
                <ele>287.0</ele>
                <time>2020-08-21T18:03:26.000Z</time>
                <name>Trackpoint 8210</name>
            </trkpt>
            <trkpt lat="50.1489984" lon="11.1923352">
                <ele>287.0</ele>
                <time>2020-08-21T18:03:29.000Z</time>
                <name>Trackpoint 8211</name>
            </trkpt>
            <trkpt lat="50.148976" lon="11.1922432">
                <ele>287.0</ele>
                <time>2020-08-21T18:04:09.000Z</time>
                <name>Trackpoint 8212</name>
            </trkpt>
            <trkpt lat="50.14896" lon="11.1921456">
                <ele>287.0</ele>
                <time>2020-08-21T18:04:12.000Z</time>
                <name>Trackpoint 8213</name>
            </trkpt>
            <trkpt lat="50.1489344" lon="11.1920208">
                <ele>287.0</ele>
                <time>2020-08-21T18:04:15.000Z</time>
                <name>Trackpoint 8214</name>
            </trkpt>
            <trkpt lat="50.1489184" lon="11.191928">
                <ele>287.0</ele>
                <time>2020-08-21T18:04:17.000Z</time>
                <name>Trackpoint 8215</name>
            </trkpt>
            <trkpt lat="50.1489024" lon="11.1918336">
                <ele>288.0</ele>
                <time>2020-08-21T18:04:19.000Z</time>
                <name>Trackpoint 8216</name>
            </trkpt>
            <trkpt lat="50.1488864" lon="11.1917352">
                <ele>288.0</ele>
                <time>2020-08-21T18:04:21.000Z</time>
                <name>Trackpoint 8217</name>
            </trkpt>
            <trkpt lat="50.14888" lon="11.1916368">
                <ele>288.0</ele>
                <time>2020-08-21T18:04:23.000Z</time>
                <name>Trackpoint 8218</name>
            </trkpt>
            <trkpt lat="50.148864" lon="11.1915376">
                <ele>288.0</ele>
                <time>2020-08-21T18:04:25.000Z</time>
                <name>Trackpoint 8219</name>
            </trkpt>
            <trkpt lat="50.1488544" lon="11.19144">
                <ele>288.0</ele>
                <time>2020-08-21T18:04:27.000Z</time>
                <name>Trackpoint 8220</name>
            </trkpt>
            <trkpt lat="50.1488416" lon="11.1913456">
                <ele>289.0</ele>
                <time>2020-08-21T18:04:29.000Z</time>
                <name>Trackpoint 8221</name>
            </trkpt>
            <trkpt lat="50.1488352" lon="11.191248">
                <ele>289.0</ele>
                <time>2020-08-21T18:04:31.000Z</time>
                <name>Trackpoint 8222</name>
            </trkpt>
            <trkpt lat="50.1488256" lon="11.1911472">
                <ele>289.0</ele>
                <time>2020-08-21T18:04:33.000Z</time>
                <name>Trackpoint 8223</name>
            </trkpt>
            <trkpt lat="50.148816" lon="11.1910488">
                <ele>289.0</ele>
                <time>2020-08-21T18:04:35.000Z</time>
                <name>Trackpoint 8224</name>
            </trkpt>
            <trkpt lat="50.1488128" lon="11.1909416">
                <ele>289.0</ele>
                <time>2020-08-21T18:04:37.000Z</time>
                <name>Trackpoint 8225</name>
            </trkpt>
            <trkpt lat="50.1488064" lon="11.1908376">
                <ele>289.0</ele>
                <time>2020-08-21T18:04:39.000Z</time>
                <name>Trackpoint 8226</name>
            </trkpt>
            <trkpt lat="50.1488" lon="11.1907264">
                <ele>289.0</ele>
                <time>2020-08-21T18:04:41.000Z</time>
                <name>Trackpoint 8227</name>
            </trkpt>
            <trkpt lat="50.1487968" lon="11.1906168">
                <ele>290.0</ele>
                <time>2020-08-21T18:04:43.000Z</time>
                <name>Trackpoint 8228</name>
            </trkpt>
            <trkpt lat="50.1487968" lon="11.1905096">
                <ele>290.0</ele>
                <time>2020-08-21T18:04:45.000Z</time>
                <name>Trackpoint 8229</name>
            </trkpt>
            <trkpt lat="50.1487936" lon="11.1904024">
                <ele>290.0</ele>
                <time>2020-08-21T18:04:47.000Z</time>
                <name>Trackpoint 8230</name>
            </trkpt>
            <trkpt lat="50.1487968" lon="11.1902984">
                <ele>290.0</ele>
                <time>2020-08-21T18:04:49.000Z</time>
                <name>Trackpoint 8231</name>
            </trkpt>
            <trkpt lat="50.1487968" lon="11.1901888">
                <ele>291.0</ele>
                <time>2020-08-21T18:04:51.000Z</time>
                <name>Trackpoint 8232</name>
            </trkpt>
            <trkpt lat="50.1488032" lon="11.1900816">
                <ele>291.0</ele>
                <time>2020-08-21T18:04:53.000Z</time>
                <name>Trackpoint 8233</name>
            </trkpt>
            <trkpt lat="50.1488128" lon="11.1899768">
                <ele>290.0</ele>
                <time>2020-08-21T18:04:55.000Z</time>
                <name>Trackpoint 8234</name>
            </trkpt>
            <trkpt lat="50.148816" lon="11.189872">
                <ele>290.0</ele>
                <time>2020-08-21T18:04:57.000Z</time>
                <name>Trackpoint 8235</name>
            </trkpt>
            <trkpt lat="50.1488256" lon="11.1897688">
                <ele>290.0</ele>
                <time>2020-08-21T18:04:59.000Z</time>
                <name>Trackpoint 8236</name>
            </trkpt>
            <trkpt lat="50.148832" lon="11.1896648">
                <ele>290.0</ele>
                <time>2020-08-21T18:05:01.000Z</time>
                <name>Trackpoint 8237</name>
            </trkpt>
            <trkpt lat="50.1488416" lon="11.18956">
                <ele>291.0</ele>
                <time>2020-08-21T18:05:03.000Z</time>
                <name>Trackpoint 8238</name>
            </trkpt>
            <trkpt lat="50.148848" lon="11.1894552">
                <ele>291.0</ele>
                <time>2020-08-21T18:05:05.000Z</time>
                <name>Trackpoint 8239</name>
            </trkpt>
            <trkpt lat="50.1488576" lon="11.1893504">
                <ele>291.0</ele>
                <time>2020-08-21T18:05:07.000Z</time>
                <name>Trackpoint 8240</name>
            </trkpt>
            <trkpt lat="50.1488672" lon="11.1892472">
                <ele>291.0</ele>
                <time>2020-08-21T18:05:09.000Z</time>
                <name>Trackpoint 8241</name>
            </trkpt>
            <trkpt lat="50.1488768" lon="11.1891448">
                <ele>291.0</ele>
                <time>2020-08-21T18:05:11.000Z</time>
                <name>Trackpoint 8242</name>
            </trkpt>
            <trkpt lat="50.1488864" lon="11.1890432">
                <ele>292.0</ele>
                <time>2020-08-21T18:05:13.000Z</time>
                <name>Trackpoint 8243</name>
            </trkpt>
            <trkpt lat="50.1488928" lon="11.1889416">
                <ele>292.0</ele>
                <time>2020-08-21T18:05:15.000Z</time>
                <name>Trackpoint 8244</name>
            </trkpt>
            <trkpt lat="50.1488992" lon="11.188844">
                <ele>292.0</ele>
                <time>2020-08-21T18:05:17.000Z</time>
                <name>Trackpoint 8245</name>
            </trkpt>
            <trkpt lat="50.1489056" lon="11.1887464">
                <ele>292.0</ele>
                <time>2020-08-21T18:05:19.000Z</time>
                <name>Trackpoint 8246</name>
            </trkpt>
            <trkpt lat="50.1489152" lon="11.1886552">
                <ele>292.0</ele>
                <time>2020-08-21T18:05:21.000Z</time>
                <name>Trackpoint 8247</name>
            </trkpt>
            <trkpt lat="50.1489216" lon="11.1885592">
                <ele>292.0</ele>
                <time>2020-08-21T18:05:23.000Z</time>
                <name>Trackpoint 8248</name>
            </trkpt>
            <trkpt lat="50.1489248" lon="11.1884648">
                <ele>292.0</ele>
                <time>2020-08-21T18:05:25.000Z</time>
                <name>Trackpoint 8249</name>
            </trkpt>
            <trkpt lat="50.1489344" lon="11.1883688">
                <ele>293.0</ele>
                <time>2020-08-21T18:05:27.000Z</time>
                <name>Trackpoint 8250</name>
            </trkpt>
            <trkpt lat="50.1489408" lon="11.1882712">
                <ele>293.0</ele>
                <time>2020-08-21T18:05:29.000Z</time>
                <name>Trackpoint 8251</name>
            </trkpt>
            <trkpt lat="50.1489472" lon="11.18818">
                <ele>294.0</ele>
                <time>2020-08-21T18:05:31.000Z</time>
                <name>Trackpoint 8252</name>
            </trkpt>
            <trkpt lat="50.1489536" lon="11.188084">
                <ele>294.0</ele>
                <time>2020-08-21T18:05:33.000Z</time>
                <name>Trackpoint 8253</name>
            </trkpt>
            <trkpt lat="50.1489568" lon="11.187988">
                <ele>295.0</ele>
                <time>2020-08-21T18:05:35.000Z</time>
                <name>Trackpoint 8254</name>
            </trkpt>
            <trkpt lat="50.14896" lon="11.1878952">
                <ele>296.0</ele>
                <time>2020-08-21T18:05:37.000Z</time>
                <name>Trackpoint 8255</name>
            </trkpt>
            <trkpt lat="50.1489632" lon="11.1877984">
                <ele>297.0</ele>
                <time>2020-08-21T18:05:39.000Z</time>
                <name>Trackpoint 8256</name>
            </trkpt>
            <trkpt lat="50.14896" lon="11.1877">
                <ele>297.0</ele>
                <time>2020-08-21T18:05:41.000Z</time>
                <name>Trackpoint 8257</name>
            </trkpt>
            <trkpt lat="50.1489568" lon="11.1876024">
                <ele>297.0</ele>
                <time>2020-08-21T18:05:43.000Z</time>
                <name>Trackpoint 8258</name>
            </trkpt>
            <trkpt lat="50.1489632" lon="11.1875016">
                <ele>298.0</ele>
                <time>2020-08-21T18:05:45.000Z</time>
                <name>Trackpoint 8259</name>
            </trkpt>
            <trkpt lat="50.1489728" lon="11.1874">
                <ele>298.0</ele>
                <time>2020-08-21T18:05:47.000Z</time>
                <name>Trackpoint 8260</name>
            </trkpt>
            <trkpt lat="50.1489824" lon="11.1872952">
                <ele>298.0</ele>
                <time>2020-08-21T18:05:49.000Z</time>
                <name>Trackpoint 8261</name>
            </trkpt>
            <trkpt lat="50.1489952" lon="11.187192">
                <ele>298.0</ele>
                <time>2020-08-21T18:05:51.000Z</time>
                <name>Trackpoint 8262</name>
            </trkpt>
            <trkpt lat="50.1490048" lon="11.1870896">
                <ele>298.0</ele>
                <time>2020-08-21T18:05:53.000Z</time>
                <name>Trackpoint 8263</name>
            </trkpt>
            <trkpt lat="50.149024" lon="11.1869848">
                <ele>298.0</ele>
                <time>2020-08-21T18:05:55.000Z</time>
                <name>Trackpoint 8264</name>
            </trkpt>
            <trkpt lat="50.14904" lon="11.1868824">
                <ele>298.0</ele>
                <time>2020-08-21T18:05:57.000Z</time>
                <name>Trackpoint 8265</name>
            </trkpt>
            <trkpt lat="50.1490624" lon="11.1867768">
                <ele>298.0</ele>
                <time>2020-08-21T18:05:59.000Z</time>
                <name>Trackpoint 8266</name>
            </trkpt>
            <trkpt lat="50.1490848" lon="11.1866704">
                <ele>298.0</ele>
                <time>2020-08-21T18:06:01.000Z</time>
                <name>Trackpoint 8267</name>
            </trkpt>
            <trkpt lat="50.1491136" lon="11.1865656">
                <ele>298.0</ele>
                <time>2020-08-21T18:06:03.000Z</time>
                <name>Trackpoint 8268</name>
            </trkpt>
            <trkpt lat="50.1491392" lon="11.1864632">
                <ele>298.0</ele>
                <time>2020-08-21T18:06:05.000Z</time>
                <name>Trackpoint 8269</name>
            </trkpt>
            <trkpt lat="50.1491648" lon="11.18636">
                <ele>297.0</ele>
                <time>2020-08-21T18:06:07.000Z</time>
                <name>Trackpoint 8270</name>
            </trkpt>
            <trkpt lat="50.1491904" lon="11.1862472">
                <ele>297.0</ele>
                <time>2020-08-21T18:06:09.000Z</time>
                <name>Trackpoint 8271</name>
            </trkpt>
            <trkpt lat="50.149216" lon="11.1861288">
                <ele>296.0</ele>
                <time>2020-08-21T18:06:11.000Z</time>
                <name>Trackpoint 8272</name>
            </trkpt>
            <trkpt lat="50.1492416" lon="11.1860016">
                <ele>296.0</ele>
                <time>2020-08-21T18:06:13.000Z</time>
                <name>Trackpoint 8273</name>
            </trkpt>
            <trkpt lat="50.149264" lon="11.185872">
                <ele>296.0</ele>
                <time>2020-08-21T18:06:15.000Z</time>
                <name>Trackpoint 8274</name>
            </trkpt>
            <trkpt lat="50.1492832" lon="11.1857416">
                <ele>296.0</ele>
                <time>2020-08-21T18:06:17.000Z</time>
                <name>Trackpoint 8275</name>
            </trkpt>
            <trkpt lat="50.1493024" lon="11.1856096">
                <ele>296.0</ele>
                <time>2020-08-21T18:06:19.000Z</time>
                <name>Trackpoint 8276</name>
            </trkpt>
            <trkpt lat="50.1493216" lon="11.1854824">
                <ele>296.0</ele>
                <time>2020-08-21T18:06:21.000Z</time>
                <name>Trackpoint 8277</name>
            </trkpt>
            <trkpt lat="50.1493408" lon="11.1853512">
                <ele>296.0</ele>
                <time>2020-08-21T18:06:23.000Z</time>
                <name>Trackpoint 8278</name>
            </trkpt>
            <trkpt lat="50.1493568" lon="11.1852248">
                <ele>296.0</ele>
                <time>2020-08-21T18:06:25.000Z</time>
                <name>Trackpoint 8279</name>
            </trkpt>
            <trkpt lat="50.1493728" lon="11.1851032">
                <ele>296.0</ele>
                <time>2020-08-21T18:06:27.000Z</time>
                <name>Trackpoint 8280</name>
            </trkpt>
            <trkpt lat="50.1493888" lon="11.1849816">
                <ele>296.0</ele>
                <time>2020-08-21T18:06:29.000Z</time>
                <name>Trackpoint 8281</name>
            </trkpt>
            <trkpt lat="50.1493952" lon="11.1848648">
                <ele>296.0</ele>
                <time>2020-08-21T18:06:31.000Z</time>
                <name>Trackpoint 8282</name>
            </trkpt>
            <trkpt lat="50.1494112" lon="11.1847536">
                <ele>297.0</ele>
                <time>2020-08-21T18:06:33.000Z</time>
                <name>Trackpoint 8283</name>
            </trkpt>
            <trkpt lat="50.1494336" lon="11.1846512">
                <ele>297.0</ele>
                <time>2020-08-21T18:06:35.000Z</time>
                <name>Trackpoint 8284</name>
            </trkpt>
            <trkpt lat="50.1494592" lon="11.1845504">
                <ele>297.0</ele>
                <time>2020-08-21T18:06:37.000Z</time>
                <name>Trackpoint 8285</name>
            </trkpt>
            <trkpt lat="50.1494816" lon="11.1844464">
                <ele>297.0</ele>
                <time>2020-08-21T18:06:39.000Z</time>
                <name>Trackpoint 8286</name>
            </trkpt>
            <trkpt lat="50.1495104" lon="11.1843464">
                <ele>297.0</ele>
                <time>2020-08-21T18:06:41.000Z</time>
                <name>Trackpoint 8287</name>
            </trkpt>
            <trkpt lat="50.1495392" lon="11.1842472">
                <ele>297.0</ele>
                <time>2020-08-21T18:06:43.000Z</time>
                <name>Trackpoint 8288</name>
            </trkpt>
            <trkpt lat="50.1495712" lon="11.1841488">
                <ele>297.0</ele>
                <time>2020-08-21T18:06:45.000Z</time>
                <name>Trackpoint 8289</name>
            </trkpt>
            <trkpt lat="50.1496032" lon="11.1840488">
                <ele>298.0</ele>
                <time>2020-08-21T18:06:47.000Z</time>
                <name>Trackpoint 8290</name>
            </trkpt>
            <trkpt lat="50.1496352" lon="11.1839448">
                <ele>298.0</ele>
                <time>2020-08-21T18:06:49.000Z</time>
                <name>Trackpoint 8291</name>
            </trkpt>
            <trkpt lat="50.1496704" lon="11.1838368">
                <ele>298.0</ele>
                <time>2020-08-21T18:06:51.000Z</time>
                <name>Trackpoint 8292</name>
            </trkpt>
            <trkpt lat="50.1496928" lon="11.1837184">
                <ele>298.0</ele>
                <time>2020-08-21T18:06:53.000Z</time>
                <name>Trackpoint 8293</name>
            </trkpt>
            <trkpt lat="50.149712" lon="11.1836008">
                <ele>298.0</ele>
                <time>2020-08-21T18:06:55.000Z</time>
                <name>Trackpoint 8294</name>
            </trkpt>
            <trkpt lat="50.1497216" lon="11.1834872">
                <ele>298.0</ele>
                <time>2020-08-21T18:06:57.000Z</time>
                <name>Trackpoint 8295</name>
            </trkpt>
            <trkpt lat="50.1497312" lon="11.1833712">
                <ele>298.0</ele>
                <time>2020-08-21T18:06:59.000Z</time>
                <name>Trackpoint 8296</name>
            </trkpt>
            <trkpt lat="50.1497376" lon="11.1832536">
                <ele>298.0</ele>
                <time>2020-08-21T18:07:01.000Z</time>
                <name>Trackpoint 8297</name>
            </trkpt>
            <trkpt lat="50.1497504" lon="11.1831352">
                <ele>298.0</ele>
                <time>2020-08-21T18:07:03.000Z</time>
                <name>Trackpoint 8298</name>
            </trkpt>
            <trkpt lat="50.14976" lon="11.1830104">
                <ele>298.0</ele>
                <time>2020-08-21T18:07:05.000Z</time>
                <name>Trackpoint 8299</name>
            </trkpt>
            <trkpt lat="50.149776" lon="11.1828872">
                <ele>298.0</ele>
                <time>2020-08-21T18:07:07.000Z</time>
                <name>Trackpoint 8300</name>
            </trkpt>
            <trkpt lat="50.1497888" lon="11.1827632">
                <ele>298.0</ele>
                <time>2020-08-21T18:07:09.000Z</time>
                <name>Trackpoint 8301</name>
            </trkpt>
            <trkpt lat="50.1497952" lon="11.1826384">
                <ele>298.0</ele>
                <time>2020-08-21T18:07:11.000Z</time>
                <name>Trackpoint 8302</name>
            </trkpt>
            <trkpt lat="50.149808" lon="11.1825048">
                <ele>298.0</ele>
                <time>2020-08-21T18:07:13.000Z</time>
                <name>Trackpoint 8303</name>
            </trkpt>
            <trkpt lat="50.1498272" lon="11.182368">
                <ele>297.0</ele>
                <time>2020-08-21T18:07:15.000Z</time>
                <name>Trackpoint 8304</name>
            </trkpt>
            <trkpt lat="50.1498464" lon="11.182228">
                <ele>297.0</ele>
                <time>2020-08-21T18:07:17.000Z</time>
                <name>Trackpoint 8305</name>
            </trkpt>
            <trkpt lat="50.1498656" lon="11.1820896">
                <ele>297.0</ele>
                <time>2020-08-21T18:07:19.000Z</time>
                <name>Trackpoint 8306</name>
            </trkpt>
            <trkpt lat="50.1498784" lon="11.1819496">
                <ele>298.0</ele>
                <time>2020-08-21T18:07:21.000Z</time>
                <name>Trackpoint 8307</name>
            </trkpt>
            <trkpt lat="50.1498944" lon="11.1818104">
                <ele>298.0</ele>
                <time>2020-08-21T18:07:23.000Z</time>
                <name>Trackpoint 8308</name>
            </trkpt>
            <trkpt lat="50.1499104" lon="11.1816728">
                <ele>297.0</ele>
                <time>2020-08-21T18:07:25.000Z</time>
                <name>Trackpoint 8309</name>
            </trkpt>
            <trkpt lat="50.1499264" lon="11.1815368">
                <ele>297.0</ele>
                <time>2020-08-21T18:07:27.000Z</time>
                <name>Trackpoint 8310</name>
            </trkpt>
            <trkpt lat="50.1499392" lon="11.1813968">
                <ele>297.0</ele>
                <time>2020-08-21T18:07:29.000Z</time>
                <name>Trackpoint 8311</name>
            </trkpt>
            <trkpt lat="50.1499552" lon="11.1812512">
                <ele>297.0</ele>
                <time>2020-08-21T18:07:31.000Z</time>
                <name>Trackpoint 8312</name>
            </trkpt>
            <trkpt lat="50.1499744" lon="11.1811104">
                <ele>297.0</ele>
                <time>2020-08-21T18:07:33.000Z</time>
                <name>Trackpoint 8313</name>
            </trkpt>
            <trkpt lat="50.1499936" lon="11.1809664">
                <ele>297.0</ele>
                <time>2020-08-21T18:07:35.000Z</time>
                <name>Trackpoint 8314</name>
            </trkpt>
            <trkpt lat="50.150016" lon="11.1808272">
                <ele>297.0</ele>
                <time>2020-08-21T18:07:37.000Z</time>
                <name>Trackpoint 8315</name>
            </trkpt>
            <trkpt lat="50.1500288" lon="11.1806848">
                <ele>297.0</ele>
                <time>2020-08-21T18:07:39.000Z</time>
                <name>Trackpoint 8316</name>
            </trkpt>
            <trkpt lat="50.1500384" lon="11.180556">
                <ele>298.0</ele>
                <time>2020-08-21T18:07:41.000Z</time>
                <name>Trackpoint 8317</name>
            </trkpt>
            <trkpt lat="50.1500448" lon="11.1804536">
                <ele>298.0</ele>
                <time>2020-08-21T18:07:43.000Z</time>
                <name>Trackpoint 8318</name>
            </trkpt>
            <trkpt lat="50.1500544" lon="11.1803248">
                <ele>299.0</ele>
                <time>2020-08-21T18:07:46.000Z</time>
                <name>Trackpoint 8319</name>
            </trkpt>
            <trkpt lat="50.1500832" lon="11.1802232">
                <ele>300.0</ele>
                <time>2020-08-21T18:07:49.000Z</time>
                <name>Trackpoint 8320</name>
            </trkpt>
            <trkpt lat="50.1501824" lon="11.1802064">
                <ele>298.0</ele>
                <time>2020-08-21T18:07:54.000Z</time>
                <name>Trackpoint 8321</name>
            </trkpt>
            <trkpt lat="50.1502912" lon="11.1802256">
                <ele>295.0</ele>
                <time>2020-08-21T18:07:58.000Z</time>
                <name>Trackpoint 8322</name>
            </trkpt>
            <trkpt lat="50.1504064" lon="11.1802168">
                <ele>295.0</ele>
                <time>2020-08-21T18:08:02.000Z</time>
                <name>Trackpoint 8323</name>
            </trkpt>
            <trkpt lat="50.1505312" lon="11.1802168">
                <ele>295.0</ele>
                <time>2020-08-21T18:08:06.000Z</time>
                <name>Trackpoint 8324</name>
            </trkpt>
            <trkpt lat="50.1506272" lon="11.1802216">
                <ele>296.0</ele>
                <time>2020-08-21T18:08:10.000Z</time>
                <name>Trackpoint 8325</name>
            </trkpt>
            <trkpt lat="50.1507264" lon="11.180192">
                <ele>295.0</ele>
                <time>2020-08-21T18:08:52.000Z</time>
                <name>Trackpoint 8326</name>
            </trkpt>
            <trkpt lat="50.1508288" lon="11.1801792">
                <ele>294.0</ele>
                <time>2020-08-21T18:08:56.000Z</time>
                <name>Trackpoint 8327</name>
            </trkpt>
            <trkpt lat="50.1509408" lon="11.180128">
                <ele>294.0</ele>
                <time>2020-08-21T18:09:00.000Z</time>
                <name>Trackpoint 8328</name>
            </trkpt>
            <trkpt lat="50.1510432" lon="11.1800672">
                <ele>294.0</ele>
                <time>2020-08-21T18:09:03.000Z</time>
                <name>Trackpoint 8329</name>
            </trkpt>
            <trkpt lat="50.15112" lon="11.180008">
                <ele>294.0</ele>
                <time>2020-08-21T18:09:05.000Z</time>
                <name>Trackpoint 8330</name>
            </trkpt>
            <trkpt lat="50.1512096" lon="11.1799472">
                <ele>294.0</ele>
                <time>2020-08-21T18:09:07.000Z</time>
                <name>Trackpoint 8331</name>
            </trkpt>
            <trkpt lat="50.1513088" lon="11.1798648">
                <ele>293.0</ele>
                <time>2020-08-21T18:09:09.000Z</time>
                <name>Trackpoint 8332</name>
            </trkpt>
            <trkpt lat="50.1514176" lon="11.1797752">
                <ele>292.0</ele>
                <time>2020-08-21T18:09:11.000Z</time>
                <name>Trackpoint 8333</name>
            </trkpt>
            <trkpt lat="50.151536" lon="11.179664">
                <ele>290.0</ele>
                <time>2020-08-21T18:09:13.000Z</time>
                <name>Trackpoint 8334</name>
            </trkpt>
            <trkpt lat="50.1516576" lon="11.1795368">
                <ele>288.0</ele>
                <time>2020-08-21T18:09:15.000Z</time>
                <name>Trackpoint 8335</name>
            </trkpt>
            <trkpt lat="50.1517216" lon="11.1794616">
                <ele>287.0</ele>
                <time>2020-08-21T18:09:16.000Z</time>
                <name>Trackpoint 8336</name>
            </trkpt>
            <trkpt lat="50.1517856" lon="11.1793784">
                <ele>287.0</ele>
                <time>2020-08-21T18:09:17.000Z</time>
                <name>Trackpoint 8337</name>
            </trkpt>
            <trkpt lat="50.1518432" lon="11.1792896">
                <ele>286.0</ele>
                <time>2020-08-21T18:09:18.000Z</time>
                <name>Trackpoint 8338</name>
            </trkpt>
            <trkpt lat="50.1518976" lon="11.1791952">
                <ele>286.0</ele>
                <time>2020-08-21T18:09:19.000Z</time>
                <name>Trackpoint 8339</name>
            </trkpt>
            <trkpt lat="50.151952" lon="11.1790936">
                <ele>285.0</ele>
                <time>2020-08-21T18:09:20.000Z</time>
                <name>Trackpoint 8340</name>
            </trkpt>
            <trkpt lat="50.1519968" lon="11.178984">
                <ele>284.0</ele>
                <time>2020-08-21T18:09:21.000Z</time>
                <name>Trackpoint 8341</name>
            </trkpt>
            <trkpt lat="50.1520352" lon="11.1788664">
                <ele>284.0</ele>
                <time>2020-08-21T18:09:22.000Z</time>
                <name>Trackpoint 8342</name>
            </trkpt>
            <trkpt lat="50.152064" lon="11.1787416">
                <ele>283.0</ele>
                <time>2020-08-21T18:09:23.000Z</time>
                <name>Trackpoint 8343</name>
            </trkpt>
            <trkpt lat="50.1520832" lon="11.1786168">
                <ele>282.0</ele>
                <time>2020-08-21T18:09:24.000Z</time>
                <name>Trackpoint 8344</name>
            </trkpt>
            <trkpt lat="50.1521024" lon="11.1784912">
                <ele>282.0</ele>
                <time>2020-08-21T18:09:25.000Z</time>
                <name>Trackpoint 8345</name>
            </trkpt>
            <trkpt lat="50.1521184" lon="11.178364">
                <ele>281.0</ele>
                <time>2020-08-21T18:09:26.000Z</time>
                <name>Trackpoint 8346</name>
            </trkpt>
            <trkpt lat="50.1521344" lon="11.1782368">
                <ele>280.0</ele>
                <time>2020-08-21T18:09:27.000Z</time>
                <name>Trackpoint 8347</name>
            </trkpt>
            <trkpt lat="50.1521504" lon="11.1781128">
                <ele>279.0</ele>
                <time>2020-08-21T18:09:28.000Z</time>
                <name>Trackpoint 8348</name>
            </trkpt>
            <trkpt lat="50.1521696" lon="11.1779944">
                <ele>279.0</ele>
                <time>2020-08-21T18:09:29.000Z</time>
                <name>Trackpoint 8349</name>
            </trkpt>
            <trkpt lat="50.1521792" lon="11.1778736">
                <ele>280.0</ele>
                <time>2020-08-21T18:09:30.000Z</time>
                <name>Trackpoint 8350</name>
            </trkpt>
            <trkpt lat="50.1521952" lon="11.17776">
                <ele>281.0</ele>
                <time>2020-08-21T18:09:31.000Z</time>
                <name>Trackpoint 8351</name>
            </trkpt>
            <trkpt lat="50.1521984" lon="11.1776552">
                <ele>281.0</ele>
                <time>2020-08-21T18:09:32.000Z</time>
                <name>Trackpoint 8352</name>
            </trkpt>
            <trkpt lat="50.1522112" lon="11.1775528">
                <ele>280.0</ele>
                <time>2020-08-21T18:09:33.000Z</time>
                <name>Trackpoint 8353</name>
            </trkpt>
            <trkpt lat="50.1522144" lon="11.177452">
                <ele>281.0</ele>
                <time>2020-08-21T18:09:34.000Z</time>
                <name>Trackpoint 8354</name>
            </trkpt>
            <trkpt lat="50.1522144" lon="11.1773528">
                <ele>282.0</ele>
                <time>2020-08-21T18:09:35.000Z</time>
                <name>Trackpoint 8355</name>
            </trkpt>
            <trkpt lat="50.1522144" lon="11.177192">
                <ele>281.0</ele>
                <time>2020-08-21T18:09:37.000Z</time>
                <name>Trackpoint 8356</name>
            </trkpt>
            <trkpt lat="50.1522112" lon="11.1770496">
                <ele>281.0</ele>
                <time>2020-08-21T18:09:39.000Z</time>
                <name>Trackpoint 8357</name>
            </trkpt>
            <trkpt lat="50.1522016" lon="11.1769352">
                <ele>281.0</ele>
                <time>2020-08-21T18:09:41.000Z</time>
                <name>Trackpoint 8358</name>
            </trkpt>
            <trkpt lat="50.1521952" lon="11.1768264">
                <ele>283.0</ele>
                <time>2020-08-21T18:09:43.000Z</time>
                <name>Trackpoint 8359</name>
            </trkpt>
            <trkpt lat="50.152208" lon="11.1767">
                <ele>283.0</ele>
                <time>2020-08-21T18:09:46.000Z</time>
                <name>Trackpoint 8360</name>
            </trkpt>
            <trkpt lat="50.1522208" lon="11.1766032">
                <ele>283.0</ele>
                <time>2020-08-21T18:09:48.000Z</time>
                <name>Trackpoint 8361</name>
            </trkpt>
            <trkpt lat="50.1522368" lon="11.1765048">
                <ele>284.0</ele>
                <time>2020-08-21T18:09:50.000Z</time>
                <name>Trackpoint 8362</name>
            </trkpt>
            <trkpt lat="50.1522528" lon="11.176392">
                <ele>287.0</ele>
                <time>2020-08-21T18:09:52.000Z</time>
                <name>Trackpoint 8363</name>
            </trkpt>
            <trkpt lat="50.1522688" lon="11.1762984">
                <ele>288.0</ele>
                <time>2020-08-21T18:09:54.000Z</time>
                <name>Trackpoint 8364</name>
            </trkpt>
            <trkpt lat="50.1522816" lon="11.1762064">
                <ele>287.0</ele>
                <time>2020-08-21T18:09:56.000Z</time>
                <name>Trackpoint 8365</name>
            </trkpt>
            <trkpt lat="50.1523008" lon="11.1761064">
                <ele>286.0</ele>
                <time>2020-08-21T18:09:58.000Z</time>
                <name>Trackpoint 8366</name>
            </trkpt>
            <trkpt lat="50.1523328" lon="11.1760184">
                <ele>288.0</ele>
                <time>2020-08-21T18:10:00.000Z</time>
                <name>Trackpoint 8367</name>
            </trkpt>
            <trkpt lat="50.1523616" lon="11.1759216">
                <ele>288.0</ele>
                <time>2020-08-21T18:10:02.000Z</time>
                <name>Trackpoint 8368</name>
            </trkpt>
            <trkpt lat="50.1523968" lon="11.1758184">
                <ele>289.0</ele>
                <time>2020-08-21T18:10:04.000Z</time>
                <name>Trackpoint 8369</name>
            </trkpt>
            <trkpt lat="50.1524224" lon="11.1757048">
                <ele>290.0</ele>
                <time>2020-08-21T18:10:06.000Z</time>
                <name>Trackpoint 8370</name>
            </trkpt>
            <trkpt lat="50.1524512" lon="11.1755752">
                <ele>290.0</ele>
                <time>2020-08-21T18:10:08.000Z</time>
                <name>Trackpoint 8371</name>
            </trkpt>
            <trkpt lat="50.1524672" lon="11.1754616">
                <ele>286.0</ele>
                <time>2020-08-21T18:10:10.000Z</time>
                <name>Trackpoint 8372</name>
            </trkpt>
            <trkpt lat="50.1524768" lon="11.1753584">
                <ele>286.0</ele>
                <time>2020-08-21T18:10:12.000Z</time>
                <name>Trackpoint 8373</name>
            </trkpt>
            <trkpt lat="50.1525312" lon="11.1752592">
                <ele>285.0</ele>
                <time>2020-08-21T18:10:15.000Z</time>
                <name>Trackpoint 8374</name>
            </trkpt>
            <trkpt lat="50.1526368" lon="11.1752984">
                <ele>284.0</ele>
                <time>2020-08-21T18:10:18.000Z</time>
                <name>Trackpoint 8375</name>
            </trkpt>
            <trkpt lat="50.1527264" lon="11.175348">
                <ele>283.0</ele>
                <time>2020-08-21T18:10:20.000Z</time>
                <name>Trackpoint 8376</name>
            </trkpt>
            <trkpt lat="50.1528288" lon="11.1753904">
                <ele>283.0</ele>
                <time>2020-08-21T18:10:22.000Z</time>
                <name>Trackpoint 8377</name>
            </trkpt>
            <trkpt lat="50.1529344" lon="11.1754376">
                <ele>283.0</ele>
                <time>2020-08-21T18:10:24.000Z</time>
                <name>Trackpoint 8378</name>
            </trkpt>
            <trkpt lat="50.1530368" lon="11.1754936">
                <ele>283.0</ele>
                <time>2020-08-21T18:10:26.000Z</time>
                <name>Trackpoint 8379</name>
            </trkpt>
            <trkpt lat="50.1531264" lon="11.1755696">
                <ele>282.0</ele>
                <time>2020-08-21T18:10:28.000Z</time>
                <name>Trackpoint 8380</name>
            </trkpt>
            <trkpt lat="50.1532128" lon="11.1756432">
                <ele>282.0</ele>
                <time>2020-08-21T18:10:30.000Z</time>
                <name>Trackpoint 8381</name>
            </trkpt>
            <trkpt lat="50.1533248" lon="11.1756832">
                <ele>282.0</ele>
                <time>2020-08-21T18:10:33.000Z</time>
                <name>Trackpoint 8382</name>
            </trkpt>
            <trkpt lat="50.1533952" lon="11.1755864">
                <ele>282.0</ele>
                <time>2020-08-21T18:10:37.000Z</time>
                <name>Trackpoint 8383</name>
            </trkpt>
            <trkpt lat="50.153408" lon="11.1754952">
                <ele>282.0</ele>
                <time>2020-08-21T18:10:39.000Z</time>
                <name>Trackpoint 8384</name>
            </trkpt>
            <trkpt lat="50.153392" lon="11.1753856">
                <ele>281.0</ele>
                <time>2020-08-21T18:10:41.000Z</time>
                <name>Trackpoint 8385</name>
            </trkpt>
            <trkpt lat="50.1533472" lon="11.1752704">
                <ele>281.0</ele>
                <time>2020-08-21T18:10:43.000Z</time>
                <name>Trackpoint 8386</name>
            </trkpt>
            <trkpt lat="50.1533056" lon="11.1751472">
                <ele>279.0</ele>
                <time>2020-08-21T18:10:45.000Z</time>
                <name>Trackpoint 8387</name>
            </trkpt>
            <trkpt lat="50.1533056" lon="11.1750448">
                <ele>278.0</ele>
                <time>2020-08-21T18:10:47.000Z</time>
                <name>Trackpoint 8388</name>
            </trkpt>
            <trkpt lat="50.1533664" lon="11.1749696">
                <ele>277.0</ele>
                <time>2020-08-21T18:10:49.000Z</time>
                <name>Trackpoint 8389</name>
            </trkpt>
            <trkpt lat="50.1534432" lon="11.1748936">
                <ele>277.0</ele>
                <time>2020-08-21T18:10:51.000Z</time>
                <name>Trackpoint 8390</name>
            </trkpt>
            <trkpt lat="50.153504" lon="11.1747888">
                <ele>277.0</ele>
                <time>2020-08-21T18:10:53.000Z</time>
                <name>Trackpoint 8391</name>
            </trkpt>
            <trkpt lat="50.1535392" lon="11.17464">
                <ele>277.0</ele>
                <time>2020-08-21T18:10:55.000Z</time>
                <name>Trackpoint 8392</name>
            </trkpt>
            <trkpt lat="50.1535488" lon="11.1744536">
                <ele>278.0</ele>
                <time>2020-08-21T18:10:57.000Z</time>
                <name>Trackpoint 8393</name>
            </trkpt>
            <trkpt lat="50.153552" lon="11.1743544">
                <ele>279.0</ele>
                <time>2020-08-21T18:10:58.000Z</time>
                <name>Trackpoint 8394</name>
            </trkpt>
            <trkpt lat="50.1535584" lon="11.1742584">
                <ele>278.0</ele>
                <time>2020-08-21T18:10:59.000Z</time>
                <name>Trackpoint 8395</name>
            </trkpt>
            <trkpt lat="50.1535616" lon="11.1741632">
                <ele>278.0</ele>
                <time>2020-08-21T18:11:00.000Z</time>
                <name>Trackpoint 8396</name>
            </trkpt>
            <trkpt lat="50.1535648" lon="11.1740704">
                <ele>278.0</ele>
                <time>2020-08-21T18:11:01.000Z</time>
                <name>Trackpoint 8397</name>
            </trkpt>
            <trkpt lat="50.153568" lon="11.1739768">
                <ele>278.0</ele>
                <time>2020-08-21T18:11:02.000Z</time>
                <name>Trackpoint 8398</name>
            </trkpt>
            <trkpt lat="50.1535648" lon="11.1738856">
                <ele>278.0</ele>
                <time>2020-08-21T18:11:03.000Z</time>
                <name>Trackpoint 8399</name>
            </trkpt>
            <trkpt lat="50.1535648" lon="11.1737944">
                <ele>277.0</ele>
                <time>2020-08-21T18:11:04.000Z</time>
                <name>Trackpoint 8400</name>
            </trkpt>
            <trkpt lat="50.1535904" lon="11.1736296">
                <ele>276.0</ele>
                <time>2020-08-21T18:11:06.000Z</time>
                <name>Trackpoint 8401</name>
            </trkpt>
            <trkpt lat="50.153664" lon="11.1734952">
                <ele>275.0</ele>
                <time>2020-08-21T18:11:08.000Z</time>
                <name>Trackpoint 8402</name>
            </trkpt>
            <trkpt lat="50.15376" lon="11.1733712">
                <ele>274.0</ele>
                <time>2020-08-21T18:11:10.000Z</time>
                <name>Trackpoint 8403</name>
            </trkpt>
            <trkpt lat="50.153872" lon="11.173268">
                <ele>275.0</ele>
                <time>2020-08-21T18:11:12.000Z</time>
                <name>Trackpoint 8404</name>
            </trkpt>
            <trkpt lat="50.1539872" lon="11.1731552">
                <ele>274.0</ele>
                <time>2020-08-21T18:11:14.000Z</time>
                <name>Trackpoint 8405</name>
            </trkpt>
            <trkpt lat="50.1540896" lon="11.1730368">
                <ele>274.0</ele>
                <time>2020-08-21T18:11:16.000Z</time>
                <name>Trackpoint 8406</name>
            </trkpt>
            <trkpt lat="50.1541824" lon="11.1729032">
                <ele>273.0</ele>
                <time>2020-08-21T18:11:18.000Z</time>
                <name>Trackpoint 8407</name>
            </trkpt>
            <trkpt lat="50.1542624" lon="11.172756">
                <ele>273.0</ele>
                <time>2020-08-21T18:11:20.000Z</time>
                <name>Trackpoint 8408</name>
            </trkpt>
            <trkpt lat="50.1543424" lon="11.1726104">
                <ele>273.0</ele>
                <time>2020-08-21T18:11:22.000Z</time>
                <name>Trackpoint 8409</name>
            </trkpt>
            <trkpt lat="50.1544192" lon="11.1724584">
                <ele>272.0</ele>
                <time>2020-08-21T18:11:24.000Z</time>
                <name>Trackpoint 8410</name>
            </trkpt>
            <trkpt lat="50.1544928" lon="11.1723">
                <ele>271.0</ele>
                <time>2020-08-21T18:11:26.000Z</time>
                <name>Trackpoint 8411</name>
            </trkpt>
            <trkpt lat="50.15456" lon="11.1721384">
                <ele>270.0</ele>
                <time>2020-08-21T18:11:28.000Z</time>
                <name>Trackpoint 8412</name>
            </trkpt>
            <trkpt lat="50.1546272" lon="11.1719816">
                <ele>270.0</ele>
                <time>2020-08-21T18:11:30.000Z</time>
                <name>Trackpoint 8413</name>
            </trkpt>
            <trkpt lat="50.1546944" lon="11.1718216">
                <ele>270.0</ele>
                <time>2020-08-21T18:11:32.000Z</time>
                <name>Trackpoint 8414</name>
            </trkpt>
            <trkpt lat="50.1547584" lon="11.1716648">
                <ele>269.0</ele>
                <time>2020-08-21T18:11:34.000Z</time>
                <name>Trackpoint 8415</name>
            </trkpt>
            <trkpt lat="50.1548192" lon="11.1715">
                <ele>269.0</ele>
                <time>2020-08-21T18:11:36.000Z</time>
                <name>Trackpoint 8416</name>
            </trkpt>
            <trkpt lat="50.1548768" lon="11.1713352">
                <ele>269.0</ele>
                <time>2020-08-21T18:11:38.000Z</time>
                <name>Trackpoint 8417</name>
            </trkpt>
            <trkpt lat="50.1549312" lon="11.171168">
                <ele>270.0</ele>
                <time>2020-08-21T18:11:40.000Z</time>
                <name>Trackpoint 8418</name>
            </trkpt>
            <trkpt lat="50.1549568" lon="11.170988">
                <ele>270.0</ele>
                <time>2020-08-21T18:11:42.000Z</time>
                <name>Trackpoint 8419</name>
            </trkpt>
            <trkpt lat="50.1549568" lon="11.1708968">
                <ele>270.0</ele>
                <time>2020-08-21T18:11:43.000Z</time>
                <name>Trackpoint 8420</name>
            </trkpt>
            <trkpt lat="50.1549504" lon="11.1707224">
                <ele>270.0</ele>
                <time>2020-08-21T18:11:45.000Z</time>
                <name>Trackpoint 8421</name>
            </trkpt>
            <trkpt lat="50.1549344" lon="11.1705504">
                <ele>270.0</ele>
                <time>2020-08-21T18:11:47.000Z</time>
                <name>Trackpoint 8422</name>
            </trkpt>
            <trkpt lat="50.1549216" lon="11.1703752">
                <ele>271.0</ele>
                <time>2020-08-21T18:11:49.000Z</time>
                <name>Trackpoint 8423</name>
            </trkpt>
            <trkpt lat="50.1549024" lon="11.1702072">
                <ele>271.0</ele>
                <time>2020-08-21T18:11:51.000Z</time>
                <name>Trackpoint 8424</name>
            </trkpt>
            <trkpt lat="50.1548896" lon="11.1700352">
                <ele>271.0</ele>
                <time>2020-08-21T18:11:53.000Z</time>
                <name>Trackpoint 8425</name>
            </trkpt>
            <trkpt lat="50.1548704" lon="11.1698648">
                <ele>271.0</ele>
                <time>2020-08-21T18:11:55.000Z</time>
                <name>Trackpoint 8426</name>
            </trkpt>
            <trkpt lat="50.1548544" lon="11.1696968">
                <ele>272.0</ele>
                <time>2020-08-21T18:11:57.000Z</time>
                <name>Trackpoint 8427</name>
            </trkpt>
            <trkpt lat="50.1548384" lon="11.1695248">
                <ele>272.0</ele>
                <time>2020-08-21T18:11:59.000Z</time>
                <name>Trackpoint 8428</name>
            </trkpt>
            <trkpt lat="50.1548224" lon="11.1693584">
                <ele>272.0</ele>
                <time>2020-08-21T18:12:01.000Z</time>
                <name>Trackpoint 8429</name>
            </trkpt>
            <trkpt lat="50.1548032" lon="11.1691904">
                <ele>273.0</ele>
                <time>2020-08-21T18:12:03.000Z</time>
                <name>Trackpoint 8430</name>
            </trkpt>
            <trkpt lat="50.1547904" lon="11.1690256">
                <ele>273.0</ele>
                <time>2020-08-21T18:12:05.000Z</time>
                <name>Trackpoint 8431</name>
            </trkpt>
            <trkpt lat="50.1548032" lon="11.168868">
                <ele>273.0</ele>
                <time>2020-08-21T18:12:07.000Z</time>
                <name>Trackpoint 8432</name>
            </trkpt>
            <trkpt lat="50.1548608" lon="11.1687384">
                <ele>272.0</ele>
                <time>2020-08-21T18:12:09.000Z</time>
                <name>Trackpoint 8433</name>
            </trkpt>
            <trkpt lat="50.1549408" lon="11.1686448">
                <ele>272.0</ele>
                <time>2020-08-21T18:12:11.000Z</time>
                <name>Trackpoint 8434</name>
            </trkpt>
            <trkpt lat="50.1550368" lon="11.1685936">
                <ele>272.0</ele>
                <time>2020-08-21T18:12:13.000Z</time>
                <name>Trackpoint 8435</name>
            </trkpt>
            <trkpt lat="50.1551392" lon="11.16856">
                <ele>272.0</ele>
                <time>2020-08-21T18:12:15.000Z</time>
                <name>Trackpoint 8436</name>
            </trkpt>
            <trkpt lat="50.155232" lon="11.1685016">
                <ele>272.0</ele>
                <time>2020-08-21T18:12:17.000Z</time>
                <name>Trackpoint 8437</name>
            </trkpt>
            <trkpt lat="50.155328" lon="11.1684216">
                <ele>272.0</ele>
                <time>2020-08-21T18:12:19.000Z</time>
                <name>Trackpoint 8438</name>
            </trkpt>
            <trkpt lat="50.1554016" lon="11.168312">
                <ele>271.0</ele>
                <time>2020-08-21T18:12:21.000Z</time>
                <name>Trackpoint 8439</name>
            </trkpt>
            <trkpt lat="50.155456" lon="11.168172">
                <ele>271.0</ele>
                <time>2020-08-21T18:12:23.000Z</time>
                <name>Trackpoint 8440</name>
            </trkpt>
            <trkpt lat="50.155488" lon="11.1680088">
                <ele>272.0</ele>
                <time>2020-08-21T18:12:25.000Z</time>
                <name>Trackpoint 8441</name>
            </trkpt>
            <trkpt lat="50.1555008" lon="11.1678416">
                <ele>272.0</ele>
                <time>2020-08-21T18:12:27.000Z</time>
                <name>Trackpoint 8442</name>
            </trkpt>
            <trkpt lat="50.1554976" lon="11.1676768">
                <ele>272.0</ele>
                <time>2020-08-21T18:12:29.000Z</time>
                <name>Trackpoint 8443</name>
            </trkpt>
            <trkpt lat="50.155472" lon="11.1675168">
                <ele>272.0</ele>
                <time>2020-08-21T18:12:31.000Z</time>
                <name>Trackpoint 8444</name>
            </trkpt>
            <trkpt lat="50.1554528" lon="11.1673472">
                <ele>272.0</ele>
                <time>2020-08-21T18:12:33.000Z</time>
                <name>Trackpoint 8445</name>
            </trkpt>
            <trkpt lat="50.1554368" lon="11.1671736">
                <ele>271.0</ele>
                <time>2020-08-21T18:12:35.000Z</time>
                <name>Trackpoint 8446</name>
            </trkpt>
            <trkpt lat="50.1554208" lon="11.167">
                <ele>271.0</ele>
                <time>2020-08-21T18:12:37.000Z</time>
                <name>Trackpoint 8447</name>
            </trkpt>
            <trkpt lat="50.1554176" lon="11.1668192">
                <ele>271.0</ele>
                <time>2020-08-21T18:12:39.000Z</time>
                <name>Trackpoint 8448</name>
            </trkpt>
            <trkpt lat="50.1554208" lon="11.1666448">
                <ele>272.0</ele>
                <time>2020-08-21T18:12:41.000Z</time>
                <name>Trackpoint 8449</name>
            </trkpt>
            <trkpt lat="50.1554336" lon="11.1664712">
                <ele>272.0</ele>
                <time>2020-08-21T18:12:43.000Z</time>
                <name>Trackpoint 8450</name>
            </trkpt>
            <trkpt lat="50.1554496" lon="11.1663">
                <ele>272.0</ele>
                <time>2020-08-21T18:12:45.000Z</time>
                <name>Trackpoint 8451</name>
            </trkpt>
            <trkpt lat="50.1554656" lon="11.1661192">
                <ele>272.0</ele>
                <time>2020-08-21T18:12:47.000Z</time>
                <name>Trackpoint 8452</name>
            </trkpt>
            <trkpt lat="50.155488" lon="11.1659568">
                <ele>272.0</ele>
                <time>2020-08-21T18:12:49.000Z</time>
                <name>Trackpoint 8453</name>
            </trkpt>
            <trkpt lat="50.1555168" lon="11.165796">
                <ele>272.0</ele>
                <time>2020-08-21T18:12:51.000Z</time>
                <name>Trackpoint 8454</name>
            </trkpt>
            <trkpt lat="50.155552" lon="11.1656416">
                <ele>271.0</ele>
                <time>2020-08-21T18:12:53.000Z</time>
                <name>Trackpoint 8455</name>
            </trkpt>
            <trkpt lat="50.1555776" lon="11.165492">
                <ele>270.0</ele>
                <time>2020-08-21T18:12:55.000Z</time>
                <name>Trackpoint 8456</name>
            </trkpt>
            <trkpt lat="50.1556096" lon="11.1653384">
                <ele>270.0</ele>
                <time>2020-08-21T18:12:57.000Z</time>
                <name>Trackpoint 8457</name>
            </trkpt>
            <trkpt lat="50.1556352" lon="11.1651848">
                <ele>269.0</ele>
                <time>2020-08-21T18:12:59.000Z</time>
                <name>Trackpoint 8458</name>
            </trkpt>
            <trkpt lat="50.1556576" lon="11.1650184">
                <ele>269.0</ele>
                <time>2020-08-21T18:13:01.000Z</time>
                <name>Trackpoint 8459</name>
            </trkpt>
            <trkpt lat="50.1556832" lon="11.164852">
                <ele>270.0</ele>
                <time>2020-08-21T18:13:03.000Z</time>
                <name>Trackpoint 8460</name>
            </trkpt>
            <trkpt lat="50.1556992" lon="11.1646832">
                <ele>270.0</ele>
                <time>2020-08-21T18:13:05.000Z</time>
                <name>Trackpoint 8461</name>
            </trkpt>
            <trkpt lat="50.1557184" lon="11.1645136">
                <ele>269.0</ele>
                <time>2020-08-21T18:13:07.000Z</time>
                <name>Trackpoint 8462</name>
            </trkpt>
            <trkpt lat="50.1557312" lon="11.1643416">
                <ele>270.0</ele>
                <time>2020-08-21T18:13:09.000Z</time>
                <name>Trackpoint 8463</name>
            </trkpt>
            <trkpt lat="50.1557344" lon="11.1642504">
                <ele>269.0</ele>
                <time>2020-08-21T18:13:10.000Z</time>
                <name>Trackpoint 8464</name>
            </trkpt>
            <trkpt lat="50.1557472" lon="11.1640728">
                <ele>270.0</ele>
                <time>2020-08-21T18:13:12.000Z</time>
                <name>Trackpoint 8465</name>
            </trkpt>
            <trkpt lat="50.1557632" lon="11.1639">
                <ele>271.0</ele>
                <time>2020-08-21T18:13:14.000Z</time>
                <name>Trackpoint 8466</name>
            </trkpt>
            <trkpt lat="50.1557728" lon="11.1637296">
                <ele>271.0</ele>
                <time>2020-08-21T18:13:16.000Z</time>
                <name>Trackpoint 8467</name>
            </trkpt>
            <trkpt lat="50.1557888" lon="11.1635568">
                <ele>271.0</ele>
                <time>2020-08-21T18:13:18.000Z</time>
                <name>Trackpoint 8468</name>
            </trkpt>
            <trkpt lat="50.1557952" lon="11.1633904">
                <ele>271.0</ele>
                <time>2020-08-21T18:13:20.000Z</time>
                <name>Trackpoint 8469</name>
            </trkpt>
            <trkpt lat="50.155792" lon="11.163232">
                <ele>271.0</ele>
                <time>2020-08-21T18:13:22.000Z</time>
                <name>Trackpoint 8470</name>
            </trkpt>
            <trkpt lat="50.1557952" lon="11.1630824">
                <ele>271.0</ele>
                <time>2020-08-21T18:13:24.000Z</time>
                <name>Trackpoint 8471</name>
            </trkpt>
            <trkpt lat="50.1557952" lon="11.1629352">
                <ele>271.0</ele>
                <time>2020-08-21T18:13:26.000Z</time>
                <name>Trackpoint 8472</name>
            </trkpt>
            <trkpt lat="50.1557952" lon="11.162784">
                <ele>271.0</ele>
                <time>2020-08-21T18:13:28.000Z</time>
                <name>Trackpoint 8473</name>
            </trkpt>
            <trkpt lat="50.1557856" lon="11.1626304">
                <ele>271.0</ele>
                <time>2020-08-21T18:13:30.000Z</time>
                <name>Trackpoint 8474</name>
            </trkpt>
            <trkpt lat="50.155776" lon="11.162472">
                <ele>272.0</ele>
                <time>2020-08-21T18:13:32.000Z</time>
                <name>Trackpoint 8475</name>
            </trkpt>
            <trkpt lat="50.155776" lon="11.1623088">
                <ele>272.0</ele>
                <time>2020-08-21T18:13:34.000Z</time>
                <name>Trackpoint 8476</name>
            </trkpt>
            <trkpt lat="50.1557792" lon="11.1621376">
                <ele>272.0</ele>
                <time>2020-08-21T18:13:36.000Z</time>
                <name>Trackpoint 8477</name>
            </trkpt>
            <trkpt lat="50.155776" lon="11.1619752">
                <ele>272.0</ele>
                <time>2020-08-21T18:13:38.000Z</time>
                <name>Trackpoint 8478</name>
            </trkpt>
            <trkpt lat="50.1557696" lon="11.161812">
                <ele>272.0</ele>
                <time>2020-08-21T18:13:40.000Z</time>
                <name>Trackpoint 8479</name>
            </trkpt>
            <trkpt lat="50.1557632" lon="11.1616448">
                <ele>272.0</ele>
                <time>2020-08-21T18:13:42.000Z</time>
                <name>Trackpoint 8480</name>
            </trkpt>
            <trkpt lat="50.1557568" lon="11.1614784">
                <ele>272.0</ele>
                <time>2020-08-21T18:13:44.000Z</time>
                <name>Trackpoint 8481</name>
            </trkpt>
            <trkpt lat="50.1557472" lon="11.1613152">
                <ele>272.0</ele>
                <time>2020-08-21T18:13:46.000Z</time>
                <name>Trackpoint 8482</name>
            </trkpt>
            <trkpt lat="50.1557376" lon="11.1611544">
                <ele>272.0</ele>
                <time>2020-08-21T18:13:48.000Z</time>
                <name>Trackpoint 8483</name>
            </trkpt>
            <trkpt lat="50.1557312" lon="11.1609936">
                <ele>272.0</ele>
                <time>2020-08-21T18:13:50.000Z</time>
                <name>Trackpoint 8484</name>
            </trkpt>
            <trkpt lat="50.1557184" lon="11.1608312">
                <ele>271.0</ele>
                <time>2020-08-21T18:13:52.000Z</time>
                <name>Trackpoint 8485</name>
            </trkpt>
            <trkpt lat="50.1557088" lon="11.1606704">
                <ele>271.0</ele>
                <time>2020-08-21T18:13:54.000Z</time>
                <name>Trackpoint 8486</name>
            </trkpt>
            <trkpt lat="50.1556928" lon="11.1605064">
                <ele>271.0</ele>
                <time>2020-08-21T18:13:56.000Z</time>
                <name>Trackpoint 8487</name>
            </trkpt>
            <trkpt lat="50.1556736" lon="11.160348">
                <ele>271.0</ele>
                <time>2020-08-21T18:13:58.000Z</time>
                <name>Trackpoint 8488</name>
            </trkpt>
            <trkpt lat="50.1556512" lon="11.1601912">
                <ele>271.0</ele>
                <time>2020-08-21T18:14:00.000Z</time>
                <name>Trackpoint 8489</name>
            </trkpt>
            <trkpt lat="50.1556288" lon="11.1600416">
                <ele>271.0</ele>
                <time>2020-08-21T18:14:02.000Z</time>
                <name>Trackpoint 8490</name>
            </trkpt>
            <trkpt lat="50.1556064" lon="11.1598928">
                <ele>271.0</ele>
                <time>2020-08-21T18:14:04.000Z</time>
                <name>Trackpoint 8491</name>
            </trkpt>
            <trkpt lat="50.1555776" lon="11.159748">
                <ele>271.0</ele>
                <time>2020-08-21T18:14:06.000Z</time>
                <name>Trackpoint 8492</name>
            </trkpt>
            <trkpt lat="50.155552" lon="11.1596016">
                <ele>270.0</ele>
                <time>2020-08-21T18:14:08.000Z</time>
                <name>Trackpoint 8493</name>
            </trkpt>
            <trkpt lat="50.1555328" lon="11.15946">
                <ele>270.0</ele>
                <time>2020-08-21T18:14:10.000Z</time>
                <name>Trackpoint 8494</name>
            </trkpt>
            <trkpt lat="50.1555264" lon="11.15932">
                <ele>271.0</ele>
                <time>2020-08-21T18:14:12.000Z</time>
                <name>Trackpoint 8495</name>
            </trkpt>
            <trkpt lat="50.1555264" lon="11.1591728">
                <ele>270.0</ele>
                <time>2020-08-21T18:14:14.000Z</time>
                <name>Trackpoint 8496</name>
            </trkpt>
            <trkpt lat="50.155536" lon="11.1590272">
                <ele>270.0</ele>
                <time>2020-08-21T18:14:16.000Z</time>
                <name>Trackpoint 8497</name>
            </trkpt>
            <trkpt lat="50.1555488" lon="11.158888">
                <ele>270.0</ele>
                <time>2020-08-21T18:14:18.000Z</time>
                <name>Trackpoint 8498</name>
            </trkpt>
            <trkpt lat="50.1555648" lon="11.1587488">
                <ele>269.0</ele>
                <time>2020-08-21T18:14:20.000Z</time>
                <name>Trackpoint 8499</name>
            </trkpt>
            <trkpt lat="50.1555776" lon="11.15862">
                <ele>269.0</ele>
                <time>2020-08-21T18:14:22.000Z</time>
                <name>Trackpoint 8500</name>
            </trkpt>
            <trkpt lat="50.1556" lon="11.1585016">
                <ele>269.0</ele>
                <time>2020-08-21T18:14:24.000Z</time>
                <name>Trackpoint 8501</name>
            </trkpt>
            <trkpt lat="50.1556128" lon="11.1583832">
                <ele>270.0</ele>
                <time>2020-08-21T18:14:26.000Z</time>
                <name>Trackpoint 8502</name>
            </trkpt>
            <trkpt lat="50.1556192" lon="11.1582768">
                <ele>270.0</ele>
                <time>2020-08-21T18:14:28.000Z</time>
                <name>Trackpoint 8503</name>
            </trkpt>
            <trkpt lat="50.1556288" lon="11.158172">
                <ele>271.0</ele>
                <time>2020-08-21T18:14:30.000Z</time>
                <name>Trackpoint 8504</name>
            </trkpt>
            <trkpt lat="50.1556192" lon="11.1580752">
                <ele>271.0</ele>
                <time>2020-08-21T18:14:32.000Z</time>
                <name>Trackpoint 8505</name>
            </trkpt>
            <trkpt lat="50.1556256" lon="11.1579688">
                <ele>272.0</ele>
                <time>2020-08-21T18:14:34.000Z</time>
                <name>Trackpoint 8506</name>
            </trkpt>
            <trkpt lat="50.1556256" lon="11.1578664">
                <ele>272.0</ele>
                <time>2020-08-21T18:14:36.000Z</time>
                <name>Trackpoint 8507</name>
            </trkpt>
            <trkpt lat="50.1556352" lon="11.157768">
                <ele>272.0</ele>
                <time>2020-08-21T18:14:38.000Z</time>
                <name>Trackpoint 8508</name>
            </trkpt>
            <trkpt lat="50.1556576" lon="11.1576744">
                <ele>272.0</ele>
                <time>2020-08-21T18:14:40.000Z</time>
                <name>Trackpoint 8509</name>
            </trkpt>
            <trkpt lat="50.1556736" lon="11.157568">
                <ele>272.0</ele>
                <time>2020-08-21T18:14:42.000Z</time>
                <name>Trackpoint 8510</name>
            </trkpt>
            <trkpt lat="50.1556896" lon="11.1574624">
                <ele>272.0</ele>
                <time>2020-08-21T18:14:44.000Z</time>
                <name>Trackpoint 8511</name>
            </trkpt>
            <trkpt lat="50.1557088" lon="11.1573496">
                <ele>273.0</ele>
                <time>2020-08-21T18:14:46.000Z</time>
                <name>Trackpoint 8512</name>
            </trkpt>
            <trkpt lat="50.155728" lon="11.1572336">
                <ele>273.0</ele>
                <time>2020-08-21T18:14:48.000Z</time>
                <name>Trackpoint 8513</name>
            </trkpt>
            <trkpt lat="50.1557376" lon="11.15712">
                <ele>273.0</ele>
                <time>2020-08-21T18:14:50.000Z</time>
                <name>Trackpoint 8514</name>
            </trkpt>
            <trkpt lat="50.1557632" lon="11.1569992">
                <ele>273.0</ele>
                <time>2020-08-21T18:14:52.000Z</time>
                <name>Trackpoint 8515</name>
            </trkpt>
            <trkpt lat="50.1557792" lon="11.15688">
                <ele>273.0</ele>
                <time>2020-08-21T18:14:54.000Z</time>
                <name>Trackpoint 8516</name>
            </trkpt>
            <trkpt lat="50.1558048" lon="11.1567552">
                <ele>273.0</ele>
                <time>2020-08-21T18:14:56.000Z</time>
                <name>Trackpoint 8517</name>
            </trkpt>
            <trkpt lat="50.1558272" lon="11.1566232">
                <ele>272.0</ele>
                <time>2020-08-21T18:14:58.000Z</time>
                <name>Trackpoint 8518</name>
            </trkpt>
            <trkpt lat="50.1558432" lon="11.1564848">
                <ele>271.0</ele>
                <time>2020-08-21T18:15:00.000Z</time>
                <name>Trackpoint 8519</name>
            </trkpt>
            <trkpt lat="50.1558656" lon="11.1563584">
                <ele>271.0</ele>
                <time>2020-08-21T18:15:02.000Z</time>
                <name>Trackpoint 8520</name>
            </trkpt>
            <trkpt lat="50.1558848" lon="11.1562344">
                <ele>271.0</ele>
                <time>2020-08-21T18:15:04.000Z</time>
                <name>Trackpoint 8521</name>
            </trkpt>
            <trkpt lat="50.1559072" lon="11.1561184">
                <ele>272.0</ele>
                <time>2020-08-21T18:15:06.000Z</time>
                <name>Trackpoint 8522</name>
            </trkpt>
            <trkpt lat="50.1559232" lon="11.1559912">
                <ele>273.0</ele>
                <time>2020-08-21T18:15:08.000Z</time>
                <name>Trackpoint 8523</name>
            </trkpt>
            <trkpt lat="50.1559456" lon="11.1558712">
                <ele>274.0</ele>
                <time>2020-08-21T18:15:10.000Z</time>
                <name>Trackpoint 8524</name>
            </trkpt>
            <trkpt lat="50.1559648" lon="11.1557512">
                <ele>274.0</ele>
                <time>2020-08-21T18:15:12.000Z</time>
                <name>Trackpoint 8525</name>
            </trkpt>
            <trkpt lat="50.155984" lon="11.1556256">
                <ele>275.0</ele>
                <time>2020-08-21T18:15:14.000Z</time>
                <name>Trackpoint 8526</name>
            </trkpt>
            <trkpt lat="50.1559968" lon="11.1554984">
                <ele>274.0</ele>
                <time>2020-08-21T18:15:16.000Z</time>
                <name>Trackpoint 8527</name>
            </trkpt>
            <trkpt lat="50.1560128" lon="11.1553816">
                <ele>274.0</ele>
                <time>2020-08-21T18:15:18.000Z</time>
                <name>Trackpoint 8528</name>
            </trkpt>
            <trkpt lat="50.1560224" lon="11.1552496">
                <ele>275.0</ele>
                <time>2020-08-21T18:15:20.000Z</time>
                <name>Trackpoint 8529</name>
            </trkpt>
            <trkpt lat="50.1560256" lon="11.1551104">
                <ele>274.0</ele>
                <time>2020-08-21T18:15:22.000Z</time>
                <name>Trackpoint 8530</name>
            </trkpt>
            <trkpt lat="50.1560352" lon="11.1549568">
                <ele>275.0</ele>
                <time>2020-08-21T18:15:24.000Z</time>
                <name>Trackpoint 8531</name>
            </trkpt>
            <trkpt lat="50.1560352" lon="11.154808">
                <ele>274.0</ele>
                <time>2020-08-21T18:15:26.000Z</time>
                <name>Trackpoint 8532</name>
            </trkpt>
            <trkpt lat="50.1560416" lon="11.1546672">
                <ele>274.0</ele>
                <time>2020-08-21T18:15:28.000Z</time>
                <name>Trackpoint 8533</name>
            </trkpt>
            <trkpt lat="50.1560544" lon="11.1545184">
                <ele>276.0</ele>
                <time>2020-08-21T18:15:30.000Z</time>
                <name>Trackpoint 8534</name>
            </trkpt>
            <trkpt lat="50.1560672" lon="11.1543664">
                <ele>276.0</ele>
                <time>2020-08-21T18:15:32.000Z</time>
                <name>Trackpoint 8535</name>
            </trkpt>
            <trkpt lat="50.1560736" lon="11.1541968">
                <ele>276.0</ele>
                <time>2020-08-21T18:15:34.000Z</time>
                <name>Trackpoint 8536</name>
            </trkpt>
            <trkpt lat="50.1560768" lon="11.1540248">
                <ele>277.0</ele>
                <time>2020-08-21T18:15:36.000Z</time>
                <name>Trackpoint 8537</name>
            </trkpt>
            <trkpt lat="50.1560832" lon="11.1538536">
                <ele>276.0</ele>
                <time>2020-08-21T18:15:38.000Z</time>
                <name>Trackpoint 8538</name>
            </trkpt>
            <trkpt lat="50.1560864" lon="11.1537616">
                <ele>276.0</ele>
                <time>2020-08-21T18:15:39.000Z</time>
                <name>Trackpoint 8539</name>
            </trkpt>
            <trkpt lat="50.1560864" lon="11.1536704">
                <ele>275.0</ele>
                <time>2020-08-21T18:15:40.000Z</time>
                <name>Trackpoint 8540</name>
            </trkpt>
            <trkpt lat="50.1560896" lon="11.153572">
                <ele>276.0</ele>
                <time>2020-08-21T18:15:41.000Z</time>
                <name>Trackpoint 8541</name>
            </trkpt>
            <trkpt lat="50.1560928" lon="11.1534784">
                <ele>275.0</ele>
                <time>2020-08-21T18:15:42.000Z</time>
                <name>Trackpoint 8542</name>
            </trkpt>
            <trkpt lat="50.156096" lon="11.1533848">
                <ele>276.0</ele>
                <time>2020-08-21T18:15:43.000Z</time>
                <name>Trackpoint 8543</name>
            </trkpt>
            <trkpt lat="50.1561024" lon="11.153288">
                <ele>276.0</ele>
                <time>2020-08-21T18:15:44.000Z</time>
                <name>Trackpoint 8544</name>
            </trkpt>
            <trkpt lat="50.1561056" lon="11.1531112">
                <ele>276.0</ele>
                <time>2020-08-21T18:15:46.000Z</time>
                <name>Trackpoint 8545</name>
            </trkpt>
            <trkpt lat="50.1561152" lon="11.15294">
                <ele>276.0</ele>
                <time>2020-08-21T18:15:48.000Z</time>
                <name>Trackpoint 8546</name>
            </trkpt>
            <trkpt lat="50.156128" lon="11.1527864">
                <ele>276.0</ele>
                <time>2020-08-21T18:15:50.000Z</time>
                <name>Trackpoint 8547</name>
            </trkpt>
            <trkpt lat="50.156144" lon="11.152648">
                <ele>276.0</ele>
                <time>2020-08-21T18:15:52.000Z</time>
                <name>Trackpoint 8548</name>
            </trkpt>
            <trkpt lat="50.1561664" lon="11.1525336">
                <ele>276.0</ele>
                <time>2020-08-21T18:15:54.000Z</time>
                <name>Trackpoint 8549</name>
            </trkpt>
            <trkpt lat="50.1562016" lon="11.1524312">
                <ele>276.0</ele>
                <time>2020-08-21T18:15:56.000Z</time>
                <name>Trackpoint 8550</name>
            </trkpt>
            <trkpt lat="50.1562272" lon="11.1523336">
                <ele>276.0</ele>
                <time>2020-08-21T18:15:58.000Z</time>
                <name>Trackpoint 8551</name>
            </trkpt>
            <trkpt lat="50.1562528" lon="11.1522448">
                <ele>276.0</ele>
                <time>2020-08-21T18:16:00.000Z</time>
                <name>Trackpoint 8552</name>
            </trkpt>
            <trkpt lat="50.156272" lon="11.152152">
                <ele>276.0</ele>
                <time>2020-08-21T18:16:02.000Z</time>
                <name>Trackpoint 8553</name>
            </trkpt>
            <trkpt lat="50.156288" lon="11.1520464">
                <ele>276.0</ele>
                <time>2020-08-21T18:16:04.000Z</time>
                <name>Trackpoint 8554</name>
            </trkpt>
            <trkpt lat="50.156288" lon="11.1519216">
                <ele>276.0</ele>
                <time>2020-08-21T18:16:07.000Z</time>
                <name>Trackpoint 8555</name>
            </trkpt>
            <trkpt lat="50.1562816" lon="11.1518224">
                <ele>276.0</ele>
                <time>2020-08-21T18:16:10.000Z</time>
                <name>Trackpoint 8556</name>
            </trkpt>
            <trkpt lat="50.1562848" lon="11.1517088">
                <ele>276.0</ele>
                <time>2020-08-21T18:16:14.000Z</time>
                <name>Trackpoint 8557</name>
            </trkpt>
            <trkpt lat="50.1563136" lon="11.151584">
                <ele>276.0</ele>
                <time>2020-08-21T18:16:17.000Z</time>
                <name>Trackpoint 8558</name>
            </trkpt>
            <trkpt lat="50.1563424" lon="11.1514568">
                <ele>276.0</ele>
                <time>2020-08-21T18:16:19.000Z</time>
                <name>Trackpoint 8559</name>
            </trkpt>
            <trkpt lat="50.1563808" lon="11.151308">
                <ele>276.0</ele>
                <time>2020-08-21T18:16:21.000Z</time>
                <name>Trackpoint 8560</name>
            </trkpt>
            <trkpt lat="50.1564256" lon="11.1511336">
                <ele>276.0</ele>
                <time>2020-08-21T18:16:23.000Z</time>
                <name>Trackpoint 8561</name>
            </trkpt>
            <trkpt lat="50.1564448" lon="11.1510384">
                <ele>276.0</ele>
                <time>2020-08-21T18:16:24.000Z</time>
                <name>Trackpoint 8562</name>
            </trkpt>
            <trkpt lat="50.1564736" lon="11.1509336">
                <ele>276.0</ele>
                <time>2020-08-21T18:16:25.000Z</time>
                <name>Trackpoint 8563</name>
            </trkpt>
            <trkpt lat="50.1565056" lon="11.1508264">
                <ele>276.0</ele>
                <time>2020-08-21T18:16:26.000Z</time>
                <name>Trackpoint 8564</name>
            </trkpt>
            <trkpt lat="50.1565408" lon="11.1507232">
                <ele>275.0</ele>
                <time>2020-08-21T18:16:27.000Z</time>
                <name>Trackpoint 8565</name>
            </trkpt>
            <trkpt lat="50.1565792" lon="11.1506232">
                <ele>275.0</ele>
                <time>2020-08-21T18:16:28.000Z</time>
                <name>Trackpoint 8566</name>
            </trkpt>
            <trkpt lat="50.1566208" lon="11.1505296">
                <ele>275.0</ele>
                <time>2020-08-21T18:16:29.000Z</time>
                <name>Trackpoint 8567</name>
            </trkpt>
            <trkpt lat="50.1566624" lon="11.1504384">
                <ele>275.0</ele>
                <time>2020-08-21T18:16:30.000Z</time>
                <name>Trackpoint 8568</name>
            </trkpt>
            <trkpt lat="50.1567072" lon="11.1503536">
                <ele>274.0</ele>
                <time>2020-08-21T18:16:31.000Z</time>
                <name>Trackpoint 8569</name>
            </trkpt>
            <trkpt lat="50.1567456" lon="11.1502664">
                <ele>274.0</ele>
                <time>2020-08-21T18:16:32.000Z</time>
                <name>Trackpoint 8570</name>
            </trkpt>
            <trkpt lat="50.156784" lon="11.1501768">
                <ele>274.0</ele>
                <time>2020-08-21T18:16:33.000Z</time>
                <name>Trackpoint 8571</name>
            </trkpt>
            <trkpt lat="50.1568192" lon="11.1500856">
                <ele>273.0</ele>
                <time>2020-08-21T18:16:34.000Z</time>
                <name>Trackpoint 8572</name>
            </trkpt>
            <trkpt lat="50.1568576" lon="11.1499984">
                <ele>272.0</ele>
                <time>2020-08-21T18:16:35.000Z</time>
                <name>Trackpoint 8573</name>
            </trkpt>
            <trkpt lat="50.1569024" lon="11.1499136">
                <ele>272.0</ele>
                <time>2020-08-21T18:16:36.000Z</time>
                <name>Trackpoint 8574</name>
            </trkpt>
            <trkpt lat="50.1569504" lon="11.1498344">
                <ele>272.0</ele>
                <time>2020-08-21T18:16:37.000Z</time>
                <name>Trackpoint 8575</name>
            </trkpt>
            <trkpt lat="50.1570048" lon="11.14976">
                <ele>271.0</ele>
                <time>2020-08-21T18:16:38.000Z</time>
                <name>Trackpoint 8576</name>
            </trkpt>
            <trkpt lat="50.15712" lon="11.1496248">
                <ele>271.0</ele>
                <time>2020-08-21T18:16:40.000Z</time>
                <name>Trackpoint 8577</name>
            </trkpt>
            <trkpt lat="50.1572352" lon="11.1495112">
                <ele>271.0</ele>
                <time>2020-08-21T18:16:42.000Z</time>
                <name>Trackpoint 8578</name>
            </trkpt>
            <trkpt lat="50.1573472" lon="11.1494352">
                <ele>270.0</ele>
                <time>2020-08-21T18:16:44.000Z</time>
                <name>Trackpoint 8579</name>
            </trkpt>
            <trkpt lat="50.1574656" lon="11.1493904">
                <ele>270.0</ele>
                <time>2020-08-21T18:16:46.000Z</time>
                <name>Trackpoint 8580</name>
            </trkpt>
            <trkpt lat="50.1575936" lon="11.1493632">
                <ele>270.0</ele>
                <time>2020-08-21T18:16:48.000Z</time>
                <name>Trackpoint 8581</name>
            </trkpt>
            <trkpt lat="50.1577216" lon="11.1493352">
                <ele>270.0</ele>
                <time>2020-08-21T18:16:50.000Z</time>
                <name>Trackpoint 8582</name>
            </trkpt>
            <trkpt lat="50.15784" lon="11.149308">
                <ele>271.0</ele>
                <time>2020-08-21T18:16:52.000Z</time>
                <name>Trackpoint 8583</name>
            </trkpt>
            <trkpt lat="50.1579584" lon="11.1492784">
                <ele>271.0</ele>
                <time>2020-08-21T18:16:54.000Z</time>
                <name>Trackpoint 8584</name>
            </trkpt>
            <trkpt lat="50.1580736" lon="11.149248">
                <ele>271.0</ele>
                <time>2020-08-21T18:16:56.000Z</time>
                <name>Trackpoint 8585</name>
            </trkpt>
            <trkpt lat="50.158176" lon="11.1492072">
                <ele>271.0</ele>
                <time>2020-08-21T18:16:58.000Z</time>
                <name>Trackpoint 8586</name>
            </trkpt>
            <trkpt lat="50.1582848" lon="11.1491616">
                <ele>271.0</ele>
                <time>2020-08-21T18:17:00.000Z</time>
                <name>Trackpoint 8587</name>
            </trkpt>
            <trkpt lat="50.1583936" lon="11.1491248">
                <ele>271.0</ele>
                <time>2020-08-21T18:17:02.000Z</time>
                <name>Trackpoint 8588</name>
            </trkpt>
            <trkpt lat="50.1585152" lon="11.149088">
                <ele>271.0</ele>
                <time>2020-08-21T18:17:04.000Z</time>
                <name>Trackpoint 8589</name>
            </trkpt>
            <trkpt lat="50.1586304" lon="11.1490488">
                <ele>271.0</ele>
                <time>2020-08-21T18:17:06.000Z</time>
                <name>Trackpoint 8590</name>
            </trkpt>
            <trkpt lat="50.1587456" lon="11.1490248">
                <ele>271.0</ele>
                <time>2020-08-21T18:17:08.000Z</time>
                <name>Trackpoint 8591</name>
            </trkpt>
            <trkpt lat="50.1588544" lon="11.14902">
                <ele>269.0</ele>
                <time>2020-08-21T18:17:10.000Z</time>
                <name>Trackpoint 8592</name>
            </trkpt>
            <trkpt lat="50.1589536" lon="11.1490272">
                <ele>269.0</ele>
                <time>2020-08-21T18:17:12.000Z</time>
                <name>Trackpoint 8593</name>
            </trkpt>
            <trkpt lat="50.1590528" lon="11.14904">
                <ele>269.0</ele>
                <time>2020-08-21T18:17:14.000Z</time>
                <name>Trackpoint 8594</name>
            </trkpt>
            <trkpt lat="50.1591552" lon="11.1490584">
                <ele>269.0</ele>
                <time>2020-08-21T18:17:16.000Z</time>
                <name>Trackpoint 8595</name>
            </trkpt>
            <trkpt lat="50.159264" lon="11.149088">
                <ele>269.0</ele>
                <time>2020-08-21T18:17:18.000Z</time>
                <name>Trackpoint 8596</name>
            </trkpt>
            <trkpt lat="50.1593664" lon="11.1491248">
                <ele>268.0</ele>
                <time>2020-08-21T18:17:20.000Z</time>
                <name>Trackpoint 8597</name>
            </trkpt>
            <trkpt lat="50.159472" lon="11.1491544">
                <ele>269.0</ele>
                <time>2020-08-21T18:17:22.000Z</time>
                <name>Trackpoint 8598</name>
            </trkpt>
            <trkpt lat="50.1595776" lon="11.1491808">
                <ele>269.0</ele>
                <time>2020-08-21T18:17:24.000Z</time>
                <name>Trackpoint 8599</name>
            </trkpt>
            <trkpt lat="50.1596864" lon="11.149212">
                <ele>269.0</ele>
                <time>2020-08-21T18:17:26.000Z</time>
                <name>Trackpoint 8600</name>
            </trkpt>
            <trkpt lat="50.1598016" lon="11.1492432">
                <ele>269.0</ele>
                <time>2020-08-21T18:17:28.000Z</time>
                <name>Trackpoint 8601</name>
            </trkpt>
            <trkpt lat="50.1599136" lon="11.1492792">
                <ele>269.0</ele>
                <time>2020-08-21T18:17:30.000Z</time>
                <name>Trackpoint 8602</name>
            </trkpt>
            <trkpt lat="50.1600256" lon="11.1493256">
                <ele>269.0</ele>
                <time>2020-08-21T18:17:32.000Z</time>
                <name>Trackpoint 8603</name>
            </trkpt>
            <trkpt lat="50.160144" lon="11.1493816">
                <ele>268.0</ele>
                <time>2020-08-21T18:17:34.000Z</time>
                <name>Trackpoint 8604</name>
            </trkpt>
            <trkpt lat="50.1602464" lon="11.1494448">
                <ele>269.0</ele>
                <time>2020-08-21T18:17:36.000Z</time>
                <name>Trackpoint 8605</name>
            </trkpt>
            <trkpt lat="50.1603392" lon="11.1495048">
                <ele>269.0</ele>
                <time>2020-08-21T18:17:38.000Z</time>
                <name>Trackpoint 8606</name>
            </trkpt>
            <trkpt lat="50.1604224" lon="11.1495504">
                <ele>269.0</ele>
                <time>2020-08-21T18:17:40.000Z</time>
                <name>Trackpoint 8607</name>
            </trkpt>
            <trkpt lat="50.160544" lon="11.149616">
                <ele>268.0</ele>
                <time>2020-08-21T18:17:43.000Z</time>
                <name>Trackpoint 8608</name>
            </trkpt>
            <trkpt lat="50.1606208" lon="11.1496648">
                <ele>268.0</ele>
                <time>2020-08-21T18:17:45.000Z</time>
                <name>Trackpoint 8609</name>
            </trkpt>
            <trkpt lat="50.1607008" lon="11.1497096">
                <ele>268.0</ele>
                <time>2020-08-21T18:17:47.000Z</time>
                <name>Trackpoint 8610</name>
            </trkpt>
            <trkpt lat="50.160816" lon="11.1497736">
                <ele>267.0</ele>
                <time>2020-08-21T18:17:50.000Z</time>
                <name>Trackpoint 8611</name>
            </trkpt>
            <trkpt lat="50.1609312" lon="11.1498336">
                <ele>268.0</ele>
                <time>2020-08-21T18:17:53.000Z</time>
                <name>Trackpoint 8612</name>
            </trkpt>
            <trkpt lat="50.1610144" lon="11.1498744">
                <ele>268.0</ele>
                <time>2020-08-21T18:17:55.000Z</time>
                <name>Trackpoint 8613</name>
            </trkpt>
            <trkpt lat="50.1611264" lon="11.1499328">
                <ele>268.0</ele>
                <time>2020-08-21T18:17:58.000Z</time>
                <name>Trackpoint 8614</name>
            </trkpt>
            <trkpt lat="50.1612288" lon="11.149988">
                <ele>268.0</ele>
                <time>2020-08-21T18:18:01.000Z</time>
                <name>Trackpoint 8615</name>
            </trkpt>
            <trkpt lat="50.1613248" lon="11.1500416">
                <ele>267.0</ele>
                <time>2020-08-21T18:18:04.000Z</time>
                <name>Trackpoint 8616</name>
            </trkpt>
            <trkpt lat="50.1614144" lon="11.1500968">
                <ele>267.0</ele>
                <time>2020-08-21T18:18:07.000Z</time>
                <name>Trackpoint 8617</name>
            </trkpt>
            <trkpt lat="50.161504" lon="11.1501416">
                <ele>267.0</ele>
                <time>2020-08-21T18:18:10.000Z</time>
                <name>Trackpoint 8618</name>
            </trkpt>
            <trkpt lat="50.1615968" lon="11.1501968">
                <ele>267.0</ele>
                <time>2020-08-21T18:18:13.000Z</time>
                <name>Trackpoint 8619</name>
            </trkpt>
            <trkpt lat="50.1617088" lon="11.1502552">
                <ele>267.0</ele>
                <time>2020-08-21T18:18:16.000Z</time>
                <name>Trackpoint 8620</name>
            </trkpt>
            <trkpt lat="50.161792" lon="11.1502984">
                <ele>267.0</ele>
                <time>2020-08-21T18:18:18.000Z</time>
                <name>Trackpoint 8621</name>
            </trkpt>
            <trkpt lat="50.1619104" lon="11.1503688">
                <ele>267.0</ele>
                <time>2020-08-21T18:18:21.000Z</time>
                <name>Trackpoint 8622</name>
            </trkpt>
            <trkpt lat="50.1619904" lon="11.1504184">
                <ele>267.0</ele>
                <time>2020-08-21T18:18:23.000Z</time>
                <name>Trackpoint 8623</name>
            </trkpt>
            <trkpt lat="50.1620736" lon="11.1504672">
                <ele>266.0</ele>
                <time>2020-08-21T18:18:25.000Z</time>
                <name>Trackpoint 8624</name>
            </trkpt>
            <trkpt lat="50.1621696" lon="11.1505136">
                <ele>266.0</ele>
                <time>2020-08-21T18:18:27.000Z</time>
                <name>Trackpoint 8625</name>
            </trkpt>
            <trkpt lat="50.1622592" lon="11.1505584">
                <ele>266.0</ele>
                <time>2020-08-21T18:18:29.000Z</time>
                <name>Trackpoint 8626</name>
            </trkpt>
            <trkpt lat="50.1623648" lon="11.1506208">
                <ele>266.0</ele>
                <time>2020-08-21T18:18:32.000Z</time>
                <name>Trackpoint 8627</name>
            </trkpt>
            <trkpt lat="50.1624704" lon="11.1506928">
                <ele>267.0</ele>
                <time>2020-08-21T18:18:35.000Z</time>
                <name>Trackpoint 8628</name>
            </trkpt>
            <trkpt lat="50.1625504" lon="11.1507368">
                <ele>266.0</ele>
                <time>2020-08-21T18:18:37.000Z</time>
                <name>Trackpoint 8629</name>
            </trkpt>
            <trkpt lat="50.16264" lon="11.1507864">
                <ele>266.0</ele>
                <time>2020-08-21T18:18:39.000Z</time>
                <name>Trackpoint 8630</name>
            </trkpt>
            <trkpt lat="50.1627296" lon="11.15084">
                <ele>266.0</ele>
                <time>2020-08-21T18:18:41.000Z</time>
                <name>Trackpoint 8631</name>
            </trkpt>
            <trkpt lat="50.1628224" lon="11.1508952">
                <ele>266.0</ele>
                <time>2020-08-21T18:18:43.000Z</time>
                <name>Trackpoint 8632</name>
            </trkpt>
            <trkpt lat="50.1629152" lon="11.1509464">
                <ele>266.0</ele>
                <time>2020-08-21T18:18:45.000Z</time>
                <name>Trackpoint 8633</name>
            </trkpt>
            <trkpt lat="50.1630144" lon="11.1510016">
                <ele>266.0</ele>
                <time>2020-08-21T18:18:47.000Z</time>
                <name>Trackpoint 8634</name>
            </trkpt>
            <trkpt lat="50.1631168" lon="11.15106">
                <ele>266.0</ele>
                <time>2020-08-21T18:18:49.000Z</time>
                <name>Trackpoint 8635</name>
            </trkpt>
            <trkpt lat="50.163216" lon="11.1511088">
                <ele>266.0</ele>
                <time>2020-08-21T18:18:51.000Z</time>
                <name>Trackpoint 8636</name>
            </trkpt>
            <trkpt lat="50.1633152" lon="11.1511552">
                <ele>267.0</ele>
                <time>2020-08-21T18:18:53.000Z</time>
                <name>Trackpoint 8637</name>
            </trkpt>
            <trkpt lat="50.1634144" lon="11.1511936">
                <ele>266.0</ele>
                <time>2020-08-21T18:18:55.000Z</time>
                <name>Trackpoint 8638</name>
            </trkpt>
            <trkpt lat="50.1635136" lon="11.1512336">
                <ele>267.0</ele>
                <time>2020-08-21T18:18:57.000Z</time>
                <name>Trackpoint 8639</name>
            </trkpt>
            <trkpt lat="50.1636096" lon="11.1512736">
                <ele>267.0</ele>
                <time>2020-08-21T18:18:59.000Z</time>
                <name>Trackpoint 8640</name>
            </trkpt>
            <trkpt lat="50.1636992" lon="11.151312">
                <ele>267.0</ele>
                <time>2020-08-21T18:19:01.000Z</time>
                <name>Trackpoint 8641</name>
            </trkpt>
            <trkpt lat="50.163792" lon="11.1513504">
                <ele>266.0</ele>
                <time>2020-08-21T18:19:03.000Z</time>
                <name>Trackpoint 8642</name>
            </trkpt>
            <trkpt lat="50.1639168" lon="11.151388">
                <ele>266.0</ele>
                <time>2020-08-21T18:19:06.000Z</time>
                <name>Trackpoint 8643</name>
            </trkpt>
            <trkpt lat="50.1640128" lon="11.1514256">
                <ele>266.0</ele>
                <time>2020-08-21T18:19:08.000Z</time>
                <name>Trackpoint 8644</name>
            </trkpt>
            <trkpt lat="50.1641152" lon="11.1514584">
                <ele>267.0</ele>
                <time>2020-08-21T18:19:10.000Z</time>
                <name>Trackpoint 8645</name>
            </trkpt>
            <trkpt lat="50.1642112" lon="11.1514832">
                <ele>267.0</ele>
                <time>2020-08-21T18:19:12.000Z</time>
                <name>Trackpoint 8646</name>
            </trkpt>
            <trkpt lat="50.164336" lon="11.1514928">
                <ele>268.0</ele>
                <time>2020-08-21T18:19:15.000Z</time>
                <name>Trackpoint 8647</name>
            </trkpt>
            <trkpt lat="50.1644448" lon="11.1514952">
                <ele>268.0</ele>
                <time>2020-08-21T18:19:18.000Z</time>
                <name>Trackpoint 8648</name>
            </trkpt>
            <trkpt lat="50.1645344" lon="11.1514632">
                <ele>269.0</ele>
                <time>2020-08-21T18:19:21.000Z</time>
                <name>Trackpoint 8649</name>
            </trkpt>
            <trkpt lat="50.1646336" lon="11.151452">
                <ele>269.0</ele>
                <time>2020-08-21T18:19:25.000Z</time>
                <name>Trackpoint 8650</name>
            </trkpt>
            <trkpt lat="50.164752" lon="11.1514328">
                <ele>269.0</ele>
                <time>2020-08-21T18:19:29.000Z</time>
                <name>Trackpoint 8651</name>
            </trkpt>
            <trkpt lat="50.164864" lon="11.1514168">
                <ele>269.0</ele>
                <time>2020-08-21T18:19:32.000Z</time>
                <name>Trackpoint 8652</name>
            </trkpt>
            <trkpt lat="50.1649664" lon="11.1513904">
                <ele>269.0</ele>
                <time>2020-08-21T18:19:35.000Z</time>
                <name>Trackpoint 8653</name>
            </trkpt>
            <trkpt lat="50.1650784" lon="11.1513464">
                <ele>269.0</ele>
                <time>2020-08-21T18:19:38.000Z</time>
                <name>Trackpoint 8654</name>
            </trkpt>
            <trkpt lat="50.1651584" lon="11.1512984">
                <ele>269.0</ele>
                <time>2020-08-21T18:19:40.000Z</time>
                <name>Trackpoint 8655</name>
            </trkpt>
            <trkpt lat="50.1652448" lon="11.1512544">
                <ele>269.0</ele>
                <time>2020-08-21T18:19:42.000Z</time>
                <name>Trackpoint 8656</name>
            </trkpt>
            <trkpt lat="50.1653504" lon="11.1511984">
                <ele>269.0</ele>
                <time>2020-08-21T18:19:45.000Z</time>
                <name>Trackpoint 8657</name>
            </trkpt>
            <trkpt lat="50.1654272" lon="11.151136">
                <ele>268.0</ele>
                <time>2020-08-21T18:19:48.000Z</time>
                <name>Trackpoint 8658</name>
            </trkpt>
            <trkpt lat="50.1655232" lon="11.1510912">
                <ele>269.0</ele>
                <time>2020-08-21T18:19:51.000Z</time>
                <name>Trackpoint 8659</name>
            </trkpt>
            <trkpt lat="50.1656128" lon="11.1510784">
                <ele>269.0</ele>
                <time>2020-08-21T18:19:55.000Z</time>
                <name>Trackpoint 8660</name>
            </trkpt>
            <trkpt lat="50.1657152" lon="11.1510632">
                <ele>269.0</ele>
                <time>2020-08-21T18:19:59.000Z</time>
                <name>Trackpoint 8661</name>
            </trkpt>
            <trkpt lat="50.1658272" lon="11.1510312">
                <ele>269.0</ele>
                <time>2020-08-21T18:20:04.000Z</time>
                <name>Trackpoint 8662</name>
            </trkpt>
            <trkpt lat="50.1658784" lon="11.1509384">
                <ele>266.0</ele>
                <time>2020-08-21T18:22:03.000Z</time>
                <name>Trackpoint 8663</name>
            </trkpt>
            <trkpt lat="50.1658144" lon="11.150844">
                <ele>264.0</ele>
                <time>2020-08-21T18:22:06.000Z</time>
                <name>Trackpoint 8664</name>
            </trkpt>
            <trkpt lat="50.1657664" lon="11.1507632">
                <ele>263.0</ele>
                <time>2020-08-21T18:22:08.000Z</time>
                <name>Trackpoint 8665</name>
            </trkpt>
            <trkpt lat="50.165728" lon="11.1506584">
                <ele>262.0</ele>
                <time>2020-08-21T18:22:10.000Z</time>
                <name>Trackpoint 8666</name>
            </trkpt>
            <trkpt lat="50.165696" lon="11.1505544">
                <ele>261.0</ele>
                <time>2020-08-21T18:22:12.000Z</time>
                <name>Trackpoint 8667</name>
            </trkpt>
            <trkpt lat="50.1656672" lon="11.1504496">
                <ele>259.0</ele>
                <time>2020-08-21T18:22:14.000Z</time>
                <name>Trackpoint 8668</name>
            </trkpt>
            <trkpt lat="50.1656384" lon="11.1503384">
                <ele>258.0</ele>
                <time>2020-08-21T18:22:16.000Z</time>
                <name>Trackpoint 8669</name>
            </trkpt>
            <trkpt lat="50.1656064" lon="11.1502288">
                <ele>257.0</ele>
                <time>2020-08-21T18:22:18.000Z</time>
                <name>Trackpoint 8670</name>
            </trkpt>
            <trkpt lat="50.1655808" lon="11.1501152">
                <ele>256.0</ele>
                <time>2020-08-21T18:22:20.000Z</time>
                <name>Trackpoint 8671</name>
            </trkpt>
            <trkpt lat="50.1655616" lon="11.1499984">
                <ele>256.0</ele>
                <time>2020-08-21T18:22:22.000Z</time>
                <name>Trackpoint 8672</name>
            </trkpt>
            <trkpt lat="50.1655424" lon="11.1498784">
                <ele>256.0</ele>
                <time>2020-08-21T18:22:24.000Z</time>
                <name>Trackpoint 8673</name>
            </trkpt>
            <trkpt lat="50.1655072" lon="11.1497632">
                <ele>256.0</ele>
                <time>2020-08-21T18:22:26.000Z</time>
                <name>Trackpoint 8674</name>
            </trkpt>
            <trkpt lat="50.1654688" lon="11.1496464">
                <ele>255.0</ele>
                <time>2020-08-21T18:22:28.000Z</time>
                <name>Trackpoint 8675</name>
            </trkpt>
            <trkpt lat="50.1654176" lon="11.149524">
                <ele>255.0</ele>
                <time>2020-08-21T18:22:30.000Z</time>
                <name>Trackpoint 8676</name>
            </trkpt>
            <trkpt lat="50.1653696" lon="11.1494168">
                <ele>254.0</ele>
                <time>2020-08-21T18:22:32.000Z</time>
                <name>Trackpoint 8677</name>
            </trkpt>
            <trkpt lat="50.1653216" lon="11.1493">
                <ele>254.0</ele>
                <time>2020-08-21T18:22:34.000Z</time>
                <name>Trackpoint 8678</name>
            </trkpt>
            <trkpt lat="50.165264" lon="11.1491816">
                <ele>255.0</ele>
                <time>2020-08-21T18:22:36.000Z</time>
                <name>Trackpoint 8679</name>
            </trkpt>
            <trkpt lat="50.1652192" lon="11.1490544">
                <ele>255.0</ele>
                <time>2020-08-21T18:22:38.000Z</time>
                <name>Trackpoint 8680</name>
            </trkpt>
            <trkpt lat="50.1651776" lon="11.1489288">
                <ele>254.0</ele>
                <time>2020-08-21T18:22:40.000Z</time>
                <name>Trackpoint 8681</name>
            </trkpt>
            <trkpt lat="50.1651232" lon="11.148804">
                <ele>254.0</ele>
                <time>2020-08-21T18:22:42.000Z</time>
                <name>Trackpoint 8682</name>
            </trkpt>
            <trkpt lat="50.1650624" lon="11.14868">
                <ele>254.0</ele>
                <time>2020-08-21T18:22:44.000Z</time>
                <name>Trackpoint 8683</name>
            </trkpt>
            <trkpt lat="50.164992" lon="11.1485552">
                <ele>254.0</ele>
                <time>2020-08-21T18:22:46.000Z</time>
                <name>Trackpoint 8684</name>
            </trkpt>
            <trkpt lat="50.164912" lon="11.148428">
                <ele>254.0</ele>
                <time>2020-08-21T18:22:48.000Z</time>
                <name>Trackpoint 8685</name>
            </trkpt>
            <trkpt lat="50.1648288" lon="11.148296">
                <ele>254.0</ele>
                <time>2020-08-21T18:22:50.000Z</time>
                <name>Trackpoint 8686</name>
            </trkpt>
            <trkpt lat="50.1647424" lon="11.1481648">
                <ele>253.0</ele>
                <time>2020-08-21T18:22:52.000Z</time>
                <name>Trackpoint 8687</name>
            </trkpt>
            <trkpt lat="50.164656" lon="11.1480328">
                <ele>253.0</ele>
                <time>2020-08-21T18:22:54.000Z</time>
                <name>Trackpoint 8688</name>
            </trkpt>
            <trkpt lat="50.1645856" lon="11.1479232">
                <ele>253.0</ele>
                <time>2020-08-21T18:22:56.000Z</time>
                <name>Trackpoint 8689</name>
            </trkpt>
            <trkpt lat="50.1645056" lon="11.1478344">
                <ele>254.0</ele>
                <time>2020-08-21T18:22:59.000Z</time>
                <name>Trackpoint 8690</name>
            </trkpt>
            <trkpt lat="50.1644768" lon="11.1477472">
                <ele>257.0</ele>
                <time>2020-08-21T18:23:02.000Z</time>
                <name>Trackpoint 8691</name>
            </trkpt>
            <trkpt lat="50.1644352" lon="11.1476616">
                <ele>262.0</ele>
                <time>2020-08-21T18:23:19.000Z</time>
                <name>Trackpoint 8692</name>
            </trkpt>
            <trkpt lat="50.1643616" lon="11.1475552">
                <ele>262.0</ele>
                <time>2020-08-21T18:23:23.000Z</time>
                <name>Trackpoint 8693</name>
            </trkpt>
            <trkpt lat="50.1643104" lon="11.1474464">
                <ele>262.0</ele>
                <time>2020-08-21T18:23:25.000Z</time>
                <name>Trackpoint 8694</name>
            </trkpt>
            <trkpt lat="50.1642528" lon="11.14734">
                <ele>263.0</ele>
                <time>2020-08-21T18:23:27.000Z</time>
                <name>Trackpoint 8695</name>
            </trkpt>
            <trkpt lat="50.164176" lon="11.1472464">
                <ele>263.0</ele>
                <time>2020-08-21T18:23:29.000Z</time>
                <name>Trackpoint 8696</name>
            </trkpt>
            <trkpt lat="50.1640992" lon="11.1471592">
                <ele>263.0</ele>
                <time>2020-08-21T18:23:31.000Z</time>
                <name>Trackpoint 8697</name>
            </trkpt>
            <trkpt lat="50.164016" lon="11.1470816">
                <ele>263.0</ele>
                <time>2020-08-21T18:23:33.000Z</time>
                <name>Trackpoint 8698</name>
            </trkpt>
            <trkpt lat="50.1639264" lon="11.1470072">
                <ele>264.0</ele>
                <time>2020-08-21T18:23:35.000Z</time>
                <name>Trackpoint 8699</name>
            </trkpt>
            <trkpt lat="50.1638304" lon="11.1469152">
                <ele>265.0</ele>
                <time>2020-08-21T18:23:37.000Z</time>
                <name>Trackpoint 8700</name>
            </trkpt>
            <trkpt lat="50.1637472" lon="11.1468432">
                <ele>266.0</ele>
                <time>2020-08-21T18:23:39.000Z</time>
                <name>Trackpoint 8701</name>
            </trkpt>
            <trkpt lat="50.1636608" lon="11.1467712">
                <ele>266.0</ele>
                <time>2020-08-21T18:23:41.000Z</time>
                <name>Trackpoint 8702</name>
            </trkpt>
            <trkpt lat="50.1635744" lon="11.1466936">
                <ele>266.0</ele>
                <time>2020-08-21T18:23:43.000Z</time>
                <name>Trackpoint 8703</name>
            </trkpt>
            <trkpt lat="50.163488" lon="11.1466048">
                <ele>266.0</ele>
                <time>2020-08-21T18:23:45.000Z</time>
                <name>Trackpoint 8704</name>
            </trkpt>
            <trkpt lat="50.1634048" lon="11.1465104">
                <ele>266.0</ele>
                <time>2020-08-21T18:23:47.000Z</time>
                <name>Trackpoint 8705</name>
            </trkpt>
            <trkpt lat="50.1633216" lon="11.1464216">
                <ele>266.0</ele>
                <time>2020-08-21T18:23:49.000Z</time>
                <name>Trackpoint 8706</name>
            </trkpt>
            <trkpt lat="50.1632384" lon="11.146312">
                <ele>267.0</ele>
                <time>2020-08-21T18:23:51.000Z</time>
                <name>Trackpoint 8707</name>
            </trkpt>
            <trkpt lat="50.1631552" lon="11.1462272">
                <ele>267.0</ele>
                <time>2020-08-21T18:23:53.000Z</time>
                <name>Trackpoint 8708</name>
            </trkpt>
            <trkpt lat="50.163072" lon="11.1461296">
                <ele>267.0</ele>
                <time>2020-08-21T18:23:55.000Z</time>
                <name>Trackpoint 8709</name>
            </trkpt>
            <trkpt lat="50.1629792" lon="11.1460312">
                <ele>267.0</ele>
                <time>2020-08-21T18:23:57.000Z</time>
                <name>Trackpoint 8710</name>
            </trkpt>
            <trkpt lat="50.1628928" lon="11.1459312">
                <ele>267.0</ele>
                <time>2020-08-21T18:23:59.000Z</time>
                <name>Trackpoint 8711</name>
            </trkpt>
            <trkpt lat="50.1628" lon="11.14584">
                <ele>267.0</ele>
                <time>2020-08-21T18:24:01.000Z</time>
                <name>Trackpoint 8712</name>
            </trkpt>
            <trkpt lat="50.1627136" lon="11.1457464">
                <ele>266.0</ele>
                <time>2020-08-21T18:24:03.000Z</time>
                <name>Trackpoint 8713</name>
            </trkpt>
            <trkpt lat="50.1626272" lon="11.1456544">
                <ele>266.0</ele>
                <time>2020-08-21T18:24:05.000Z</time>
                <name>Trackpoint 8714</name>
            </trkpt>
            <trkpt lat="50.1625472" lon="11.1455448">
                <ele>267.0</ele>
                <time>2020-08-21T18:24:07.000Z</time>
                <name>Trackpoint 8715</name>
            </trkpt>
            <trkpt lat="50.1624704" lon="11.1454296">
                <ele>267.0</ele>
                <time>2020-08-21T18:24:09.000Z</time>
                <name>Trackpoint 8716</name>
            </trkpt>
            <trkpt lat="50.1624096" lon="11.1453136">
                <ele>267.0</ele>
                <time>2020-08-21T18:24:11.000Z</time>
                <name>Trackpoint 8717</name>
            </trkpt>
            <trkpt lat="50.1623648" lon="11.1451968">
                <ele>267.0</ele>
                <time>2020-08-21T18:24:13.000Z</time>
                <name>Trackpoint 8718</name>
            </trkpt>
            <trkpt lat="50.1623264" lon="11.14508">
                <ele>268.0</ele>
                <time>2020-08-21T18:24:15.000Z</time>
                <name>Trackpoint 8719</name>
            </trkpt>
            <trkpt lat="50.1622912" lon="11.1449648">
                <ele>268.0</ele>
                <time>2020-08-21T18:24:17.000Z</time>
                <name>Trackpoint 8720</name>
            </trkpt>
            <trkpt lat="50.1622624" lon="11.144852">
                <ele>269.0</ele>
                <time>2020-08-21T18:24:19.000Z</time>
                <name>Trackpoint 8721</name>
            </trkpt>
            <trkpt lat="50.1622368" lon="11.1447264">
                <ele>269.0</ele>
                <time>2020-08-21T18:24:21.000Z</time>
                <name>Trackpoint 8722</name>
            </trkpt>
            <trkpt lat="50.162208" lon="11.144604">
                <ele>269.0</ele>
                <time>2020-08-21T18:24:23.000Z</time>
                <name>Trackpoint 8723</name>
            </trkpt>
            <trkpt lat="50.1621824" lon="11.1444904">
                <ele>270.0</ele>
                <time>2020-08-21T18:24:25.000Z</time>
                <name>Trackpoint 8724</name>
            </trkpt>
            <trkpt lat="50.1621504" lon="11.1443704">
                <ele>270.0</ele>
                <time>2020-08-21T18:24:27.000Z</time>
                <name>Trackpoint 8725</name>
            </trkpt>
            <trkpt lat="50.1621216" lon="11.1442448">
                <ele>271.0</ele>
                <time>2020-08-21T18:24:29.000Z</time>
                <name>Trackpoint 8726</name>
            </trkpt>
            <trkpt lat="50.1620928" lon="11.1441184">
                <ele>272.0</ele>
                <time>2020-08-21T18:24:31.000Z</time>
                <name>Trackpoint 8727</name>
            </trkpt>
            <trkpt lat="50.1620672" lon="11.1439912">
                <ele>272.0</ele>
                <time>2020-08-21T18:24:33.000Z</time>
                <name>Trackpoint 8728</name>
            </trkpt>
            <trkpt lat="50.1620448" lon="11.14386">
                <ele>273.0</ele>
                <time>2020-08-21T18:24:35.000Z</time>
                <name>Trackpoint 8729</name>
            </trkpt>
            <trkpt lat="50.1620288" lon="11.143732">
                <ele>274.0</ele>
                <time>2020-08-21T18:24:37.000Z</time>
                <name>Trackpoint 8730</name>
            </trkpt>
            <trkpt lat="50.1620096" lon="11.1435984">
                <ele>274.0</ele>
                <time>2020-08-21T18:24:39.000Z</time>
                <name>Trackpoint 8731</name>
            </trkpt>
            <trkpt lat="50.1619872" lon="11.1434696">
                <ele>275.0</ele>
                <time>2020-08-21T18:24:41.000Z</time>
                <name>Trackpoint 8732</name>
            </trkpt>
            <trkpt lat="50.1619616" lon="11.1433496">
                <ele>275.0</ele>
                <time>2020-08-21T18:24:43.000Z</time>
                <name>Trackpoint 8733</name>
            </trkpt>
            <trkpt lat="50.1619392" lon="11.1432312">
                <ele>275.0</ele>
                <time>2020-08-21T18:24:45.000Z</time>
                <name>Trackpoint 8734</name>
            </trkpt>
            <trkpt lat="50.1619136" lon="11.1431216">
                <ele>275.0</ele>
                <time>2020-08-21T18:24:47.000Z</time>
                <name>Trackpoint 8735</name>
            </trkpt>
            <trkpt lat="50.161888" lon="11.1430104">
                <ele>275.0</ele>
                <time>2020-08-21T18:24:49.000Z</time>
                <name>Trackpoint 8736</name>
            </trkpt>
            <trkpt lat="50.1618624" lon="11.1428872">
                <ele>274.0</ele>
                <time>2020-08-21T18:24:51.000Z</time>
                <name>Trackpoint 8737</name>
            </trkpt>
            <trkpt lat="50.16184" lon="11.1427696">
                <ele>274.0</ele>
                <time>2020-08-21T18:24:53.000Z</time>
                <name>Trackpoint 8738</name>
            </trkpt>
            <trkpt lat="50.161808" lon="11.1426496">
                <ele>273.0</ele>
                <time>2020-08-21T18:24:55.000Z</time>
                <name>Trackpoint 8739</name>
            </trkpt>
            <trkpt lat="50.161776" lon="11.14252">
                <ele>272.0</ele>
                <time>2020-08-21T18:24:57.000Z</time>
                <name>Trackpoint 8740</name>
            </trkpt>
            <trkpt lat="50.16176" lon="11.1423752">
                <ele>272.0</ele>
                <time>2020-08-21T18:24:59.000Z</time>
                <name>Trackpoint 8741</name>
            </trkpt>
            <trkpt lat="50.161744" lon="11.1422232">
                <ele>273.0</ele>
                <time>2020-08-21T18:25:01.000Z</time>
                <name>Trackpoint 8742</name>
            </trkpt>
            <trkpt lat="50.1617248" lon="11.1420632">
                <ele>273.0</ele>
                <time>2020-08-21T18:25:03.000Z</time>
                <name>Trackpoint 8743</name>
            </trkpt>
            <trkpt lat="50.1617056" lon="11.1418864">
                <ele>273.0</ele>
                <time>2020-08-21T18:25:05.000Z</time>
                <name>Trackpoint 8744</name>
            </trkpt>
            <trkpt lat="50.161696" lon="11.1417936">
                <ele>272.0</ele>
                <time>2020-08-21T18:25:06.000Z</time>
                <name>Trackpoint 8745</name>
            </trkpt>
            <trkpt lat="50.1616736" lon="11.1416016">
                <ele>272.0</ele>
                <time>2020-08-21T18:24:09.000Z</time>
                <name>Trackpoint 8746</name>
            </trkpt>
            <trkpt lat="50.161664" lon="11.1415008">
                <ele>272.0</ele>
                <time>2020-08-21T18:24:10.000Z</time>
                <name>Trackpoint 8747</name>
            </trkpt>
            <trkpt lat="50.161648" lon="11.1413984">
                <ele>272.0</ele>
                <time>2020-08-21T18:24:11.000Z</time>
                <name>Trackpoint 8748</name>
            </trkpt>
            <trkpt lat="50.1616256" lon="11.1412936">
                <ele>272.0</ele>
                <time>2020-08-21T18:24:12.000Z</time>
                <name>Trackpoint 8749</name>
            </trkpt>
            <trkpt lat="50.1616064" lon="11.1411864">
                <ele>271.0</ele>
                <time>2020-08-21T18:24:13.000Z</time>
                <name>Trackpoint 8750</name>
            </trkpt>
            <trkpt lat="50.161584" lon="11.1410776">
                <ele>271.0</ele>
                <time>2020-08-21T18:24:14.000Z</time>
                <name>Trackpoint 8751</name>
            </trkpt>
            <trkpt lat="50.1615616" lon="11.140968">
                <ele>270.0</ele>
                <time>2020-08-21T18:24:15.000Z</time>
                <name>Trackpoint 8752</name>
            </trkpt>
            <trkpt lat="50.1615424" lon="11.1408552">
                <ele>270.0</ele>
                <time>2020-08-21T18:24:16.000Z</time>
                <name>Trackpoint 8753</name>
            </trkpt>
            <trkpt lat="50.1615232" lon="11.1407416">
                <ele>270.0</ele>
                <time>2020-08-21T18:24:17.000Z</time>
                <name>Trackpoint 8754</name>
            </trkpt>
            <trkpt lat="50.161504" lon="11.1406248">
                <ele>270.0</ele>
                <time>2020-08-21T18:24:18.000Z</time>
                <name>Trackpoint 8755</name>
            </trkpt>
            <trkpt lat="50.1614912" lon="11.1405096">
                <ele>270.0</ele>
                <time>2020-08-21T18:24:19.000Z</time>
                <name>Trackpoint 8756</name>
            </trkpt>
            <trkpt lat="50.161472" lon="11.1403952">
                <ele>269.0</ele>
                <time>2020-08-21T18:24:20.000Z</time>
                <name>Trackpoint 8757</name>
            </trkpt>
            <trkpt lat="50.1614528" lon="11.1402816">
                <ele>269.0</ele>
                <time>2020-08-21T18:24:21.000Z</time>
                <name>Trackpoint 8758</name>
            </trkpt>
            <trkpt lat="50.1614432" lon="11.1401704">
                <ele>269.0</ele>
                <time>2020-08-21T18:24:22.000Z</time>
                <name>Trackpoint 8759</name>
            </trkpt>
            <trkpt lat="50.1614272" lon="11.1400584">
                <ele>269.0</ele>
                <time>2020-08-21T18:24:23.000Z</time>
                <name>Trackpoint 8760</name>
            </trkpt>
            <trkpt lat="50.1614112" lon="11.139952">
                <ele>269.0</ele>
                <time>2020-08-21T18:24:24.000Z</time>
                <name>Trackpoint 8761</name>
            </trkpt>
            <trkpt lat="50.1613952" lon="11.1398448">
                <ele>268.0</ele>
                <time>2020-08-21T18:24:25.000Z</time>
                <name>Trackpoint 8762</name>
            </trkpt>
            <trkpt lat="50.1613792" lon="11.13974">
                <ele>268.0</ele>
                <time>2020-08-21T18:24:26.000Z</time>
                <name>Trackpoint 8763</name>
            </trkpt>
            <trkpt lat="50.1613728" lon="11.1396368">
                <ele>268.0</ele>
                <time>2020-08-21T18:24:27.000Z</time>
                <name>Trackpoint 8764</name>
            </trkpt>
            <trkpt lat="50.1613632" lon="11.1395368">
                <ele>267.0</ele>
                <time>2020-08-21T18:24:28.000Z</time>
                <name>Trackpoint 8765</name>
            </trkpt>
            <trkpt lat="50.1613472" lon="11.1394416">
                <ele>267.0</ele>
                <time>2020-08-21T18:24:29.000Z</time>
                <name>Trackpoint 8766</name>
            </trkpt>
            <trkpt lat="50.1613344" lon="11.139348">
                <ele>267.0</ele>
                <time>2020-08-21T18:24:30.000Z</time>
                <name>Trackpoint 8767</name>
            </trkpt>
            <trkpt lat="50.1613376" lon="11.1392536">
                <ele>267.0</ele>
                <time>2020-08-21T18:24:31.000Z</time>
                <name>Trackpoint 8768</name>
            </trkpt>
            <trkpt lat="50.1613344" lon="11.13916">
                <ele>267.0</ele>
                <time>2020-08-21T18:24:32.000Z</time>
                <name>Trackpoint 8769</name>
            </trkpt>
            <trkpt lat="50.1613312" lon="11.1390688">
                <ele>267.0</ele>
                <time>2020-08-21T18:24:33.000Z</time>
                <name>Trackpoint 8770</name>
            </trkpt>
            <trkpt lat="50.161328" lon="11.1389736">
                <ele>267.0</ele>
                <time>2020-08-21T18:24:34.000Z</time>
                <name>Trackpoint 8771</name>
            </trkpt>
            <trkpt lat="50.1613248" lon="11.1388816">
                <ele>266.0</ele>
                <time>2020-08-21T18:24:35.000Z</time>
                <name>Trackpoint 8772</name>
            </trkpt>
            <trkpt lat="50.1613152" lon="11.138792">
                <ele>266.0</ele>
                <time>2020-08-21T18:24:36.000Z</time>
                <name>Trackpoint 8773</name>
            </trkpt>
            <trkpt lat="50.161312" lon="11.1386992">
                <ele>266.0</ele>
                <time>2020-08-21T18:24:37.000Z</time>
                <name>Trackpoint 8774</name>
            </trkpt>
            <trkpt lat="50.1613056" lon="11.1385248">
                <ele>266.0</ele>
                <time>2020-08-21T18:24:39.000Z</time>
                <name>Trackpoint 8775</name>
            </trkpt>
            <trkpt lat="50.1612992" lon="11.1383552">
                <ele>265.0</ele>
                <time>2020-08-21T18:24:41.000Z</time>
                <name>Trackpoint 8776</name>
            </trkpt>
            <trkpt lat="50.1612928" lon="11.1381904">
                <ele>266.0</ele>
                <time>2020-08-21T18:24:43.000Z</time>
                <name>Trackpoint 8777</name>
            </trkpt>
            <trkpt lat="50.161296" lon="11.1380256">
                <ele>266.0</ele>
                <time>2020-08-21T18:24:45.000Z</time>
                <name>Trackpoint 8778</name>
            </trkpt>
            <trkpt lat="50.161328" lon="11.1378672">
                <ele>265.0</ele>
                <time>2020-08-21T18:24:47.000Z</time>
                <name>Trackpoint 8779</name>
            </trkpt>
            <trkpt lat="50.161344" lon="11.1377">
                <ele>265.0</ele>
                <time>2020-08-21T18:24:49.000Z</time>
                <name>Trackpoint 8780</name>
            </trkpt>
            <trkpt lat="50.1613504" lon="11.1375312">
                <ele>265.0</ele>
                <time>2020-08-21T18:24:51.000Z</time>
                <name>Trackpoint 8781</name>
            </trkpt>
            <trkpt lat="50.1613504" lon="11.13736">
                <ele>265.0</ele>
                <time>2020-08-21T18:24:53.000Z</time>
                <name>Trackpoint 8782</name>
            </trkpt>
            <trkpt lat="50.1613568" lon="11.1371872">
                <ele>265.0</ele>
                <time>2020-08-21T18:24:55.000Z</time>
                <name>Trackpoint 8783</name>
            </trkpt>
            <trkpt lat="50.1613696" lon="11.1370136">
                <ele>265.0</ele>
                <time>2020-08-21T18:24:57.000Z</time>
                <name>Trackpoint 8784</name>
            </trkpt>
            <trkpt lat="50.161376" lon="11.1368416">
                <ele>265.0</ele>
                <time>2020-08-21T18:24:59.000Z</time>
                <name>Trackpoint 8785</name>
            </trkpt>
            <trkpt lat="50.1613984" lon="11.1366704">
                <ele>264.0</ele>
                <time>2020-08-21T18:25:01.000Z</time>
                <name>Trackpoint 8786</name>
            </trkpt>
            <trkpt lat="50.1614176" lon="11.1365">
                <ele>264.0</ele>
                <time>2020-08-21T18:25:03.000Z</time>
                <name>Trackpoint 8787</name>
            </trkpt>
            <trkpt lat="50.1614368" lon="11.1363264">
                <ele>264.0</ele>
                <time>2020-08-21T18:25:05.000Z</time>
                <name>Trackpoint 8788</name>
            </trkpt>
            <trkpt lat="50.1614624" lon="11.1361536">
                <ele>264.0</ele>
                <time>2020-08-21T18:25:07.000Z</time>
                <name>Trackpoint 8789</name>
            </trkpt>
            <trkpt lat="50.161488" lon="11.1359816">
                <ele>265.0</ele>
                <time>2020-08-21T18:25:09.000Z</time>
                <name>Trackpoint 8790</name>
            </trkpt>
            <trkpt lat="50.1615136" lon="11.1358144">
                <ele>265.0</ele>
                <time>2020-08-21T18:25:11.000Z</time>
                <name>Trackpoint 8791</name>
            </trkpt>
            <trkpt lat="50.1615456" lon="11.1356496">
                <ele>265.0</ele>
                <time>2020-08-21T18:25:13.000Z</time>
                <name>Trackpoint 8792</name>
            </trkpt>
            <trkpt lat="50.1615712" lon="11.1354888">
                <ele>264.0</ele>
                <time>2020-08-21T18:25:15.000Z</time>
                <name>Trackpoint 8793</name>
            </trkpt>
            <trkpt lat="50.1615968" lon="11.1353256">
                <ele>265.0</ele>
                <time>2020-08-21T18:25:17.000Z</time>
                <name>Trackpoint 8794</name>
            </trkpt>
            <trkpt lat="50.1616256" lon="11.1351616">
                <ele>265.0</ele>
                <time>2020-08-21T18:25:19.000Z</time>
                <name>Trackpoint 8795</name>
            </trkpt>
            <trkpt lat="50.1616544" lon="11.135">
                <ele>265.0</ele>
                <time>2020-08-21T18:25:21.000Z</time>
                <name>Trackpoint 8796</name>
            </trkpt>
            <trkpt lat="50.1616832" lon="11.134836">
                <ele>265.0</ele>
                <time>2020-08-21T18:25:23.000Z</time>
                <name>Trackpoint 8797</name>
            </trkpt>
            <trkpt lat="50.1617024" lon="11.1346752">
                <ele>265.0</ele>
                <time>2020-08-21T18:25:25.000Z</time>
                <name>Trackpoint 8798</name>
            </trkpt>
            <trkpt lat="50.1617248" lon="11.1345232">
                <ele>264.0</ele>
                <time>2020-08-21T18:25:27.000Z</time>
                <name>Trackpoint 8799</name>
            </trkpt>
            <trkpt lat="50.1617472" lon="11.1343736">
                <ele>264.0</ele>
                <time>2020-08-21T18:25:29.000Z</time>
                <name>Trackpoint 8800</name>
            </trkpt>
            <trkpt lat="50.1617664" lon="11.1342152">
                <ele>264.0</ele>
                <time>2020-08-21T18:25:31.000Z</time>
                <name>Trackpoint 8801</name>
            </trkpt>
            <trkpt lat="50.1617824" lon="11.1340536">
                <ele>264.0</ele>
                <time>2020-08-21T18:25:33.000Z</time>
                <name>Trackpoint 8802</name>
            </trkpt>
            <trkpt lat="50.1617952" lon="11.1338856">
                <ele>263.0</ele>
                <time>2020-08-21T18:25:35.000Z</time>
                <name>Trackpoint 8803</name>
            </trkpt>
            <trkpt lat="50.161808" lon="11.1337216">
                <ele>263.0</ele>
                <time>2020-08-21T18:25:37.000Z</time>
                <name>Trackpoint 8804</name>
            </trkpt>
            <trkpt lat="50.1618112" lon="11.133556">
                <ele>263.0</ele>
                <time>2020-08-21T18:25:39.000Z</time>
                <name>Trackpoint 8805</name>
            </trkpt>
            <trkpt lat="50.1618208" lon="11.1333952">
                <ele>263.0</ele>
                <time>2020-08-21T18:25:41.000Z</time>
                <name>Trackpoint 8806</name>
            </trkpt>
            <trkpt lat="50.161824" lon="11.133232">
                <ele>263.0</ele>
                <time>2020-08-21T18:25:43.000Z</time>
                <name>Trackpoint 8807</name>
            </trkpt>
            <trkpt lat="50.1618336" lon="11.1330672">
                <ele>263.0</ele>
                <time>2020-08-21T18:25:45.000Z</time>
                <name>Trackpoint 8808</name>
            </trkpt>
            <trkpt lat="50.16184" lon="11.1329">
                <ele>263.0</ele>
                <time>2020-08-21T18:25:47.000Z</time>
                <name>Trackpoint 8809</name>
            </trkpt>
            <trkpt lat="50.16184" lon="11.1327352">
                <ele>263.0</ele>
                <time>2020-08-21T18:25:49.000Z</time>
                <name>Trackpoint 8810</name>
            </trkpt>
            <trkpt lat="50.16184" lon="11.1325704">
                <ele>263.0</ele>
                <time>2020-08-21T18:25:51.000Z</time>
                <name>Trackpoint 8811</name>
            </trkpt>
            <trkpt lat="50.1618304" lon="11.132408">
                <ele>263.0</ele>
                <time>2020-08-21T18:25:53.000Z</time>
                <name>Trackpoint 8812</name>
            </trkpt>
            <trkpt lat="50.1618272" lon="11.1322448">
                <ele>263.0</ele>
                <time>2020-08-21T18:25:55.000Z</time>
                <name>Trackpoint 8813</name>
            </trkpt>
            <trkpt lat="50.1618272" lon="11.1320816">
                <ele>263.0</ele>
                <time>2020-08-21T18:25:57.000Z</time>
                <name>Trackpoint 8814</name>
            </trkpt>
            <trkpt lat="50.161824" lon="11.1319152">
                <ele>263.0</ele>
                <time>2020-08-21T18:25:59.000Z</time>
                <name>Trackpoint 8815</name>
            </trkpt>
            <trkpt lat="50.1618144" lon="11.131752">
                <ele>263.0</ele>
                <time>2020-08-21T18:26:01.000Z</time>
                <name>Trackpoint 8816</name>
            </trkpt>
            <trkpt lat="50.161808" lon="11.1315896">
                <ele>263.0</ele>
                <time>2020-08-21T18:26:03.000Z</time>
                <name>Trackpoint 8817</name>
            </trkpt>
            <trkpt lat="50.1617856" lon="11.1314312">
                <ele>263.0</ele>
                <time>2020-08-21T18:26:05.000Z</time>
                <name>Trackpoint 8818</name>
            </trkpt>
            <trkpt lat="50.1617696" lon="11.1312768">
                <ele>263.0</ele>
                <time>2020-08-21T18:26:07.000Z</time>
                <name>Trackpoint 8819</name>
            </trkpt>
            <trkpt lat="50.16176" lon="11.1311184">
                <ele>262.0</ele>
                <time>2020-08-21T18:26:09.000Z</time>
                <name>Trackpoint 8820</name>
            </trkpt>
            <trkpt lat="50.161744" lon="11.1309608">
                <ele>262.0</ele>
                <time>2020-08-21T18:26:11.000Z</time>
                <name>Trackpoint 8821</name>
            </trkpt>
            <trkpt lat="50.1617216" lon="11.1308032">
                <ele>262.0</ele>
                <time>2020-08-21T18:26:13.000Z</time>
                <name>Trackpoint 8822</name>
            </trkpt>
            <trkpt lat="50.1617088" lon="11.1306448">
                <ele>262.0</ele>
                <time>2020-08-21T18:26:15.000Z</time>
                <name>Trackpoint 8823</name>
            </trkpt>
            <trkpt lat="50.1616896" lon="11.130484">
                <ele>261.0</ele>
                <time>2020-08-21T18:26:17.000Z</time>
                <name>Trackpoint 8824</name>
            </trkpt>
            <trkpt lat="50.1616832" lon="11.1303256">
                <ele>261.0</ele>
                <time>2020-08-21T18:26:19.000Z</time>
                <name>Trackpoint 8825</name>
            </trkpt>
            <trkpt lat="50.1616704" lon="11.13016">
                <ele>261.0</ele>
                <time>2020-08-21T18:26:21.000Z</time>
                <name>Trackpoint 8826</name>
            </trkpt>
            <trkpt lat="50.161664" lon="11.1300032">
                <ele>261.0</ele>
                <time>2020-08-21T18:26:23.000Z</time>
                <name>Trackpoint 8827</name>
            </trkpt>
            <trkpt lat="50.1616448" lon="11.1298448">
                <ele>261.0</ele>
                <time>2020-08-21T18:26:25.000Z</time>
                <name>Trackpoint 8828</name>
            </trkpt>
            <trkpt lat="50.1616288" lon="11.1296968">
                <ele>261.0</ele>
                <time>2020-08-21T18:26:27.000Z</time>
                <name>Trackpoint 8829</name>
            </trkpt>
            <trkpt lat="50.1616224" lon="11.1295544">
                <ele>261.0</ele>
                <time>2020-08-21T18:26:29.000Z</time>
                <name>Trackpoint 8830</name>
            </trkpt>
            <trkpt lat="50.161616" lon="11.1294248">
                <ele>260.0</ele>
                <time>2020-08-21T18:26:31.000Z</time>
                <name>Trackpoint 8831</name>
            </trkpt>
            <trkpt lat="50.1616128" lon="11.1293">
                <ele>260.0</ele>
                <time>2020-08-21T18:26:33.000Z</time>
                <name>Trackpoint 8832</name>
            </trkpt>
            <trkpt lat="50.1616128" lon="11.1291848">
                <ele>260.0</ele>
                <time>2020-08-21T18:26:35.000Z</time>
                <name>Trackpoint 8833</name>
            </trkpt>
            <trkpt lat="50.1616096" lon="11.1290664">
                <ele>259.0</ele>
                <time>2020-08-21T18:26:37.000Z</time>
                <name>Trackpoint 8834</name>
            </trkpt>
            <trkpt lat="50.1616032" lon="11.1289384">
                <ele>259.0</ele>
                <time>2020-08-21T18:26:39.000Z</time>
                <name>Trackpoint 8835</name>
            </trkpt>
            <trkpt lat="50.1615904" lon="11.128792">
                <ele>260.0</ele>
                <time>2020-08-21T18:26:41.000Z</time>
                <name>Trackpoint 8836</name>
            </trkpt>
            <trkpt lat="50.1615744" lon="11.1286448">
                <ele>260.0</ele>
                <time>2020-08-21T18:26:43.000Z</time>
                <name>Trackpoint 8837</name>
            </trkpt>
            <trkpt lat="50.1615648" lon="11.1285064">
                <ele>261.0</ele>
                <time>2020-08-21T18:26:45.000Z</time>
                <name>Trackpoint 8838</name>
            </trkpt>
            <trkpt lat="50.1615616" lon="11.1283752">
                <ele>261.0</ele>
                <time>2020-08-21T18:26:47.000Z</time>
                <name>Trackpoint 8839</name>
            </trkpt>
            <trkpt lat="50.1615648" lon="11.1282352">
                <ele>261.0</ele>
                <time>2020-08-21T18:26:49.000Z</time>
                <name>Trackpoint 8840</name>
            </trkpt>
            <trkpt lat="50.1615616" lon="11.1280872">
                <ele>262.0</ele>
                <time>2020-08-21T18:26:51.000Z</time>
                <name>Trackpoint 8841</name>
            </trkpt>
            <trkpt lat="50.1615648" lon="11.127936">
                <ele>262.0</ele>
                <time>2020-08-21T18:26:53.000Z</time>
                <name>Trackpoint 8842</name>
            </trkpt>
            <trkpt lat="50.1615616" lon="11.12778">
                <ele>262.0</ele>
                <time>2020-08-21T18:26:55.000Z</time>
                <name>Trackpoint 8843</name>
            </trkpt>
            <trkpt lat="50.1615552" lon="11.1276184">
                <ele>262.0</ele>
                <time>2020-08-21T18:26:57.000Z</time>
                <name>Trackpoint 8844</name>
            </trkpt>
            <trkpt lat="50.161552" lon="11.127452">
                <ele>263.0</ele>
                <time>2020-08-21T18:26:59.000Z</time>
                <name>Trackpoint 8845</name>
            </trkpt>
            <trkpt lat="50.1615552" lon="11.1272824">
                <ele>263.0</ele>
                <time>2020-08-21T18:27:01.000Z</time>
                <name>Trackpoint 8846</name>
            </trkpt>
            <trkpt lat="50.1615648" lon="11.1271184">
                <ele>263.0</ele>
                <time>2020-08-21T18:27:03.000Z</time>
                <name>Trackpoint 8847</name>
            </trkpt>
            <trkpt lat="50.161568" lon="11.12696">
                <ele>262.0</ele>
                <time>2020-08-21T18:27:05.000Z</time>
                <name>Trackpoint 8848</name>
            </trkpt>
            <trkpt lat="50.1615712" lon="11.1268016">
                <ele>262.0</ele>
                <time>2020-08-21T18:27:07.000Z</time>
                <name>Trackpoint 8849</name>
            </trkpt>
            <trkpt lat="50.161584" lon="11.1266448">
                <ele>262.0</ele>
                <time>2020-08-21T18:27:09.000Z</time>
                <name>Trackpoint 8850</name>
            </trkpt>
            <trkpt lat="50.161584" lon="11.12648">
                <ele>262.0</ele>
                <time>2020-08-21T18:27:11.000Z</time>
                <name>Trackpoint 8851</name>
            </trkpt>
            <trkpt lat="50.1615872" lon="11.1263288">
                <ele>261.0</ele>
                <time>2020-08-21T18:27:13.000Z</time>
                <name>Trackpoint 8852</name>
            </trkpt>
            <trkpt lat="50.1615904" lon="11.126172">
                <ele>261.0</ele>
                <time>2020-08-21T18:27:15.000Z</time>
                <name>Trackpoint 8853</name>
            </trkpt>
            <trkpt lat="50.1615968" lon="11.1260168">
                <ele>260.0</ele>
                <time>2020-08-21T18:27:17.000Z</time>
                <name>Trackpoint 8854</name>
            </trkpt>
            <trkpt lat="50.1615904" lon="11.12584">
                <ele>261.0</ele>
                <time>2020-08-21T18:27:19.000Z</time>
                <name>Trackpoint 8855</name>
            </trkpt>
            <trkpt lat="50.1615872" lon="11.1256648">
                <ele>262.0</ele>
                <time>2020-08-21T18:27:21.000Z</time>
                <name>Trackpoint 8856</name>
            </trkpt>
            <trkpt lat="50.1615872" lon="11.125492">
                <ele>261.0</ele>
                <time>2020-08-21T18:27:23.000Z</time>
                <name>Trackpoint 8857</name>
            </trkpt>
            <trkpt lat="50.161584" lon="11.1253168">
                <ele>262.0</ele>
                <time>2020-08-21T18:27:25.000Z</time>
                <name>Trackpoint 8858</name>
            </trkpt>
            <trkpt lat="50.1615744" lon="11.12514">
                <ele>262.0</ele>
                <time>2020-08-21T18:27:27.000Z</time>
                <name>Trackpoint 8859</name>
            </trkpt>
            <trkpt lat="50.1615712" lon="11.1249648">
                <ele>262.0</ele>
                <time>2020-08-21T18:27:29.000Z</time>
                <name>Trackpoint 8860</name>
            </trkpt>
            <trkpt lat="50.1615616" lon="11.124792">
                <ele>262.0</ele>
                <time>2020-08-21T18:27:31.000Z</time>
                <name>Trackpoint 8861</name>
            </trkpt>
            <trkpt lat="50.161552" lon="11.1246184">
                <ele>261.0</ele>
                <time>2020-08-21T18:27:33.000Z</time>
                <name>Trackpoint 8862</name>
            </trkpt>
            <trkpt lat="50.161536" lon="11.1244488">
                <ele>261.0</ele>
                <time>2020-08-21T18:27:35.000Z</time>
                <name>Trackpoint 8863</name>
            </trkpt>
            <trkpt lat="50.1615328" lon="11.1242712">
                <ele>261.0</ele>
                <time>2020-08-21T18:27:37.000Z</time>
                <name>Trackpoint 8864</name>
            </trkpt>
            <trkpt lat="50.1615072" lon="11.124108">
                <ele>260.0</ele>
                <time>2020-08-21T18:28:38.000Z</time>
                <name>Trackpoint 8865</name>
            </trkpt>
            <trkpt lat="50.1614784" lon="11.1239584">
                <ele>260.0</ele>
                <time>2020-08-21T18:28:40.000Z</time>
                <name>Trackpoint 8866</name>
            </trkpt>
            <trkpt lat="50.161456" lon="11.1238048">
                <ele>262.0</ele>
                <time>2020-08-21T18:28:42.000Z</time>
                <name>Trackpoint 8867</name>
            </trkpt>
            <trkpt lat="50.1614272" lon="11.1236616">
                <ele>262.0</ele>
                <time>2020-08-21T18:28:44.000Z</time>
                <name>Trackpoint 8868</name>
            </trkpt>
            <trkpt lat="50.161392" lon="11.1235168">
                <ele>262.0</ele>
                <time>2020-08-21T18:28:46.000Z</time>
                <name>Trackpoint 8869</name>
            </trkpt>
            <trkpt lat="50.1613632" lon="11.1233656">
                <ele>262.0</ele>
                <time>2020-08-21T18:28:48.000Z</time>
                <name>Trackpoint 8870</name>
            </trkpt>
            <trkpt lat="50.161328" lon="11.1232184">
                <ele>263.0</ele>
                <time>2020-08-21T18:28:50.000Z</time>
                <name>Trackpoint 8871</name>
            </trkpt>
            <trkpt lat="50.161296" lon="11.1230744">
                <ele>264.0</ele>
                <time>2020-08-21T18:28:52.000Z</time>
                <name>Trackpoint 8872</name>
            </trkpt>
            <trkpt lat="50.1612672" lon="11.1229288">
                <ele>264.0</ele>
                <time>2020-08-21T18:28:54.000Z</time>
                <name>Trackpoint 8873</name>
            </trkpt>
            <trkpt lat="50.1612288" lon="11.1227752">
                <ele>264.0</ele>
                <time>2020-08-21T18:28:56.000Z</time>
                <name>Trackpoint 8874</name>
            </trkpt>
            <trkpt lat="50.1611936" lon="11.12262">
                <ele>264.0</ele>
                <time>2020-08-21T18:28:58.000Z</time>
                <name>Trackpoint 8875</name>
            </trkpt>
            <trkpt lat="50.161152" lon="11.122468">
                <ele>264.0</ele>
                <time>2020-08-21T18:29:00.000Z</time>
                <name>Trackpoint 8876</name>
            </trkpt>
            <trkpt lat="50.1611136" lon="11.122316">
                <ele>264.0</ele>
                <time>2020-08-21T18:29:02.000Z</time>
                <name>Trackpoint 8877</name>
            </trkpt>
            <trkpt lat="50.1610784" lon="11.1221584">
                <ele>264.0</ele>
                <time>2020-08-21T18:29:04.000Z</time>
                <name>Trackpoint 8878</name>
            </trkpt>
            <trkpt lat="50.1610368" lon="11.1220016">
                <ele>264.0</ele>
                <time>2020-08-21T18:29:06.000Z</time>
                <name>Trackpoint 8879</name>
            </trkpt>
            <trkpt lat="50.1609952" lon="11.1218392">
                <ele>264.0</ele>
                <time>2020-08-21T18:29:08.000Z</time>
                <name>Trackpoint 8880</name>
            </trkpt>
            <trkpt lat="50.16096" lon="11.1216744">
                <ele>264.0</ele>
                <time>2020-08-21T18:29:10.000Z</time>
                <name>Trackpoint 8881</name>
            </trkpt>
            <trkpt lat="50.1609344" lon="11.1215096">
                <ele>264.0</ele>
                <time>2020-08-21T18:29:12.000Z</time>
                <name>Trackpoint 8882</name>
            </trkpt>
            <trkpt lat="50.1609024" lon="11.121344">
                <ele>264.0</ele>
                <time>2020-08-21T18:29:14.000Z</time>
                <name>Trackpoint 8883</name>
            </trkpt>
            <trkpt lat="50.1608864" lon="11.1211816">
                <ele>264.0</ele>
                <time>2020-08-21T18:29:16.000Z</time>
                <name>Trackpoint 8884</name>
            </trkpt>
            <trkpt lat="50.1608768" lon="11.1210184">
                <ele>264.0</ele>
                <time>2020-08-21T18:29:18.000Z</time>
                <name>Trackpoint 8885</name>
            </trkpt>
            <trkpt lat="50.1608704" lon="11.1208552">
                <ele>264.0</ele>
                <time>2020-08-21T18:29:20.000Z</time>
                <name>Trackpoint 8886</name>
            </trkpt>
            <trkpt lat="50.1608608" lon="11.1207064">
                <ele>264.0</ele>
                <time>2020-08-21T18:29:22.000Z</time>
                <name>Trackpoint 8887</name>
            </trkpt>
            <trkpt lat="50.1608672" lon="11.1205584">
                <ele>264.0</ele>
                <time>2020-08-21T18:29:24.000Z</time>
                <name>Trackpoint 8888</name>
            </trkpt>
            <trkpt lat="50.1608704" lon="11.1204232">
                <ele>264.0</ele>
                <time>2020-08-21T18:29:26.000Z</time>
                <name>Trackpoint 8889</name>
            </trkpt>
            <trkpt lat="50.1608992" lon="11.12028">
                <ele>263.0</ele>
                <time>2020-08-21T18:29:28.000Z</time>
                <name>Trackpoint 8890</name>
            </trkpt>
            <trkpt lat="50.160912" lon="11.120136">
                <ele>263.0</ele>
                <time>2020-08-21T18:29:30.000Z</time>
                <name>Trackpoint 8891</name>
            </trkpt>
            <trkpt lat="50.1609312" lon="11.1199864">
                <ele>263.0</ele>
                <time>2020-08-21T18:29:32.000Z</time>
                <name>Trackpoint 8892</name>
            </trkpt>
            <trkpt lat="50.1609408" lon="11.1198432">
                <ele>263.0</ele>
                <time>2020-08-21T18:29:34.000Z</time>
                <name>Trackpoint 8893</name>
            </trkpt>
            <trkpt lat="50.1609536" lon="11.1196936">
                <ele>264.0</ele>
                <time>2020-08-21T18:29:36.000Z</time>
                <name>Trackpoint 8894</name>
            </trkpt>
            <trkpt lat="50.160976" lon="11.1195448">
                <ele>264.0</ele>
                <time>2020-08-21T18:29:38.000Z</time>
                <name>Trackpoint 8895</name>
            </trkpt>
            <trkpt lat="50.160992" lon="11.1193984">
                <ele>266.0</ele>
                <time>2020-08-21T18:29:40.000Z</time>
                <name>Trackpoint 8896</name>
            </trkpt>
            <trkpt lat="50.1610016" lon="11.1192664">
                <ele>266.0</ele>
                <time>2020-08-21T18:29:42.000Z</time>
                <name>Trackpoint 8897</name>
            </trkpt>
            <trkpt lat="50.1610016" lon="11.1191504">
                <ele>266.0</ele>
                <time>2020-08-21T18:29:44.000Z</time>
                <name>Trackpoint 8898</name>
            </trkpt>
            <trkpt lat="50.1610144" lon="11.1190368">
                <ele>266.0</ele>
                <time>2020-08-21T18:29:46.000Z</time>
                <name>Trackpoint 8899</name>
            </trkpt>
            <trkpt lat="50.1610272" lon="11.118928">
                <ele>266.0</ele>
                <time>2020-08-21T18:29:48.000Z</time>
                <name>Trackpoint 8900</name>
            </trkpt>
            <trkpt lat="50.1610464" lon="11.1188136">
                <ele>266.0</ele>
                <time>2020-08-21T18:29:50.000Z</time>
                <name>Trackpoint 8901</name>
            </trkpt>
            <trkpt lat="50.1610656" lon="11.1187">
                <ele>265.0</ele>
                <time>2020-08-21T18:29:52.000Z</time>
                <name>Trackpoint 8902</name>
            </trkpt>
            <trkpt lat="50.1611104" lon="11.1186088">
                <ele>267.0</ele>
                <time>2020-08-21T18:29:54.000Z</time>
                <name>Trackpoint 8903</name>
            </trkpt>
            <trkpt lat="50.1611552" lon="11.1184864">
                <ele>269.0</ele>
                <time>2020-08-21T18:29:57.000Z</time>
                <name>Trackpoint 8904</name>
            </trkpt>
            <trkpt lat="50.161136" lon="11.1184064">
                <ele>266.0</ele>
                <time>2020-08-22T08:27:07.000Z</time>
                <name>Trackpoint 67</name>
            </trkpt>
            <trkpt lat="50.16112" lon="11.1183904">
                <ele>266.0</ele>
                <time>2020-08-22T08:28:48.000Z</time>
                <name>Trackpoint 68</name>
            </trkpt>
            <trkpt lat="50.1610944" lon="11.1182816">
                <ele>266.0</ele>
                <time>2020-08-22T08:28:55.000Z</time>
                <name>Trackpoint 69</name>
            </trkpt>
            <trkpt lat="50.1610464" lon="11.1182048">
                <ele>265.0</ele>
                <time>2020-08-22T08:28:58.000Z</time>
                <name>Trackpoint 70</name>
            </trkpt>
            <trkpt lat="50.1609664" lon="11.1181352">
                <ele>266.0</ele>
                <time>2020-08-22T08:29:03.000Z</time>
                <name>Trackpoint 71</name>
            </trkpt>
            <trkpt lat="50.1608864" lon="11.1180496">
                <ele>266.0</ele>
                <time>2020-08-22T08:29:07.000Z</time>
                <name>Trackpoint 72</name>
            </trkpt>
            <trkpt lat="50.1608576" lon="11.1179616">
                <ele>267.0</ele>
                <time>2020-08-22T08:29:09.000Z</time>
                <name>Trackpoint 73</name>
            </trkpt>
            <trkpt lat="50.160848" lon="11.1178648">
                <ele>268.0</ele>
                <time>2020-08-22T08:29:11.000Z</time>
                <name>Trackpoint 74</name>
            </trkpt>
            <trkpt lat="50.160832" lon="11.117772">
                <ele>268.0</ele>
                <time>2020-08-22T08:29:13.000Z</time>
                <name>Trackpoint 75</name>
            </trkpt>
            <trkpt lat="50.1608192" lon="11.1176384">
                <ele>268.0</ele>
                <time>2020-08-22T08:29:16.000Z</time>
                <name>Trackpoint 76</name>
            </trkpt>
            <trkpt lat="50.1608128" lon="11.1175336">
                <ele>269.0</ele>
                <time>2020-08-22T08:29:18.000Z</time>
                <name>Trackpoint 77</name>
            </trkpt>
            <trkpt lat="50.1608032" lon="11.1174248">
                <ele>268.0</ele>
                <time>2020-08-22T08:29:20.000Z</time>
                <name>Trackpoint 78</name>
            </trkpt>
            <trkpt lat="50.1608" lon="11.1173312">
                <ele>268.0</ele>
                <time>2020-08-22T08:29:22.000Z</time>
                <name>Trackpoint 79</name>
            </trkpt>
            <trkpt lat="50.1608" lon="11.1172384">
                <ele>268.0</ele>
                <time>2020-08-22T08:29:24.000Z</time>
                <name>Trackpoint 80</name>
            </trkpt>
            <trkpt lat="50.1608" lon="11.1171104">
                <ele>268.0</ele>
                <time>2020-08-22T08:29:27.000Z</time>
                <name>Trackpoint 81</name>
            </trkpt>
            <trkpt lat="50.1608096" lon="11.117008">
                <ele>270.0</ele>
                <time>2020-08-22T08:29:30.000Z</time>
                <name>Trackpoint 82</name>
            </trkpt>
            <trkpt lat="50.160816" lon="11.116912">
                <ele>270.0</ele>
                <time>2020-08-22T08:29:35.000Z</time>
                <name>Trackpoint 83</name>
            </trkpt>
            <trkpt lat="50.1607584" lon="11.116832">
                <ele>269.0</ele>
                <time>2020-08-22T08:29:40.000Z</time>
                <name>Trackpoint 84</name>
            </trkpt>
            <trkpt lat="50.160736" lon="11.11672">
                <ele>269.0</ele>
                <time>2020-08-22T08:29:43.000Z</time>
                <name>Trackpoint 85</name>
            </trkpt>
            <trkpt lat="50.1607296" lon="11.11662">
                <ele>269.0</ele>
                <time>2020-08-22T08:29:45.000Z</time>
                <name>Trackpoint 86</name>
            </trkpt>
            <trkpt lat="50.16072" lon="11.1165048">
                <ele>269.0</ele>
                <time>2020-08-22T08:29:47.000Z</time>
                <name>Trackpoint 87</name>
            </trkpt>
            <trkpt lat="50.1607136" lon="11.1163752">
                <ele>269.0</ele>
                <time>2020-08-22T08:29:49.000Z</time>
                <name>Trackpoint 88</name>
            </trkpt>
            <trkpt lat="50.1607008" lon="11.1162416">
                <ele>269.0</ele>
                <time>2020-08-22T08:29:51.000Z</time>
                <name>Trackpoint 89</name>
            </trkpt>
            <trkpt lat="50.1607008" lon="11.116112">
                <ele>269.0</ele>
                <time>2020-08-22T08:29:53.000Z</time>
                <name>Trackpoint 90</name>
            </trkpt>
            <trkpt lat="50.1607008" lon="11.1159736">
                <ele>269.0</ele>
                <time>2020-08-22T08:29:55.000Z</time>
                <name>Trackpoint 91</name>
            </trkpt>
            <trkpt lat="50.1607104" lon="11.1158352">
                <ele>269.0</ele>
                <time>2020-08-22T08:29:57.000Z</time>
                <name>Trackpoint 92</name>
            </trkpt>
            <trkpt lat="50.1607104" lon="11.1156928">
                <ele>268.0</ele>
                <time>2020-08-22T08:29:59.000Z</time>
                <name>Trackpoint 93</name>
            </trkpt>
            <trkpt lat="50.1607136" lon="11.1155552">
                <ele>268.0</ele>
                <time>2020-08-22T08:30:01.000Z</time>
                <name>Trackpoint 94</name>
            </trkpt>
            <trkpt lat="50.16072" lon="11.11542">
                <ele>268.0</ele>
                <time>2020-08-22T08:30:03.000Z</time>
                <name>Trackpoint 95</name>
            </trkpt>
            <trkpt lat="50.1607296" lon="11.1152848">
                <ele>268.0</ele>
                <time>2020-08-22T08:30:05.000Z</time>
                <name>Trackpoint 96</name>
            </trkpt>
            <trkpt lat="50.160736" lon="11.11518">
                <ele>269.0</ele>
                <time>2020-08-22T08:30:07.000Z</time>
                <name>Trackpoint 97</name>
            </trkpt>
            <trkpt lat="50.1607424" lon="11.1150848">
                <ele>269.0</ele>
                <time>2020-08-22T08:30:09.000Z</time>
                <name>Trackpoint 98</name>
            </trkpt>
            <trkpt lat="50.1607488" lon="11.1149928">
                <ele>269.0</ele>
                <time>2020-08-22T08:30:11.000Z</time>
                <name>Trackpoint 99</name>
            </trkpt>
            <trkpt lat="50.1607584" lon="11.1148552">
                <ele>269.0</ele>
                <time>2020-08-22T08:30:14.000Z</time>
                <name>Trackpoint 100</name>
            </trkpt>
            <trkpt lat="50.1607552" lon="11.11476">
                <ele>269.0</ele>
                <time>2020-08-22T08:30:16.000Z</time>
                <name>Trackpoint 101</name>
            </trkpt>
            <trkpt lat="50.1607552" lon="11.1146632">
                <ele>269.0</ele>
                <time>2020-08-22T08:30:18.000Z</time>
                <name>Trackpoint 102</name>
            </trkpt>
            <trkpt lat="50.1607616" lon="11.1145696">
                <ele>268.0</ele>
                <time>2020-08-22T08:30:20.000Z</time>
                <name>Trackpoint 103</name>
            </trkpt>
            <trkpt lat="50.1607776" lon="11.1144552">
                <ele>267.0</ele>
                <time>2020-08-22T08:30:23.000Z</time>
                <name>Trackpoint 104</name>
            </trkpt>
            <trkpt lat="50.160752" lon="11.1143616">
                <ele>267.0</ele>
                <time>2020-08-22T08:31:40.000Z</time>
                <name>Trackpoint 105</name>
            </trkpt>
            <trkpt lat="50.1606624" lon="11.1143304">
                <ele>267.0</ele>
                <time>2020-08-22T08:31:45.000Z</time>
                <name>Trackpoint 106</name>
            </trkpt>
            <trkpt lat="50.16056" lon="11.1143448">
                <ele>267.0</ele>
                <time>2020-08-22T08:31:48.000Z</time>
                <name>Trackpoint 107</name>
            </trkpt>
            <trkpt lat="50.1604448" lon="11.114364">
                <ele>267.0</ele>
                <time>2020-08-22T08:31:51.000Z</time>
                <name>Trackpoint 108</name>
            </trkpt>
            <trkpt lat="50.1603136" lon="11.1143864">
                <ele>267.0</ele>
                <time>2020-08-22T08:31:54.000Z</time>
                <name>Trackpoint 109</name>
            </trkpt>
            <trkpt lat="50.1601856" lon="11.1144136">
                <ele>266.0</ele>
                <time>2020-08-22T08:31:57.000Z</time>
                <name>Trackpoint 110</name>
            </trkpt>
            <trkpt lat="50.160096" lon="11.1144288">
                <ele>266.0</ele>
                <time>2020-08-22T08:31:59.000Z</time>
                <name>Trackpoint 111</name>
            </trkpt>
            <trkpt lat="50.159968" lon="11.1144536">
                <ele>266.0</ele>
                <time>2020-08-22T08:32:02.000Z</time>
                <name>Trackpoint 112</name>
            </trkpt>
            <trkpt lat="50.1598784" lon="11.1144664">
                <ele>266.0</ele>
                <time>2020-08-22T08:32:04.000Z</time>
                <name>Trackpoint 113</name>
            </trkpt>
            <trkpt lat="50.1597824" lon="11.1144832">
                <ele>265.0</ele>
                <time>2020-08-22T08:32:06.000Z</time>
                <name>Trackpoint 114</name>
            </trkpt>
            <trkpt lat="50.1596864" lon="11.1145016">
                <ele>265.0</ele>
                <time>2020-08-22T08:32:08.000Z</time>
                <name>Trackpoint 115</name>
            </trkpt>
            <trkpt lat="50.1595808" lon="11.1145184">
                <ele>264.0</ele>
                <time>2020-08-22T08:32:10.000Z</time>
                <name>Trackpoint 116</name>
            </trkpt>
            <trkpt lat="50.1594688" lon="11.11454">
                <ele>264.0</ele>
                <time>2020-08-22T08:32:12.000Z</time>
                <name>Trackpoint 117</name>
            </trkpt>
            <trkpt lat="50.1593536" lon="11.1145688">
                <ele>263.0</ele>
                <time>2020-08-22T08:32:14.000Z</time>
                <name>Trackpoint 118</name>
            </trkpt>
            <trkpt lat="50.159248" lon="11.1146088">
                <ele>263.0</ele>
                <time>2020-08-22T08:32:16.000Z</time>
                <name>Trackpoint 119</name>
            </trkpt>
            <trkpt lat="50.1591424" lon="11.11466">
                <ele>263.0</ele>
                <time>2020-08-22T08:32:18.000Z</time>
                <name>Trackpoint 120</name>
            </trkpt>
            <trkpt lat="50.15904" lon="11.1147216">
                <ele>264.0</ele>
                <time>2020-08-22T08:32:20.000Z</time>
                <name>Trackpoint 121</name>
            </trkpt>
            <trkpt lat="50.158928" lon="11.1147872">
                <ele>264.0</ele>
                <time>2020-08-22T08:32:22.000Z</time>
                <name>Trackpoint 122</name>
            </trkpt>
            <trkpt lat="50.1588128" lon="11.1148504">
                <ele>266.0</ele>
                <time>2020-08-22T08:32:24.000Z</time>
                <name>Trackpoint 123</name>
            </trkpt>
            <trkpt lat="50.1587072" lon="11.1149064">
                <ele>266.0</ele>
                <time>2020-08-22T08:32:26.000Z</time>
                <name>Trackpoint 124</name>
            </trkpt>
            <trkpt lat="50.1586048" lon="11.1149656">
                <ele>266.0</ele>
                <time>2020-08-22T08:32:28.000Z</time>
                <name>Trackpoint 125</name>
            </trkpt>
            <trkpt lat="50.1585088" lon="11.1150176">
                <ele>266.0</ele>
                <time>2020-08-22T08:32:30.000Z</time>
                <name>Trackpoint 126</name>
            </trkpt>
            <trkpt lat="50.1584128" lon="11.1150712">
                <ele>265.0</ele>
                <time>2020-08-22T08:32:32.000Z</time>
                <name>Trackpoint 127</name>
            </trkpt>
            <trkpt lat="50.1583264" lon="11.1151112">
                <ele>265.0</ele>
                <time>2020-08-22T08:32:34.000Z</time>
                <name>Trackpoint 128</name>
            </trkpt>
            <trkpt lat="50.15824" lon="11.1151488">
                <ele>266.0</ele>
                <time>2020-08-22T08:32:36.000Z</time>
                <name>Trackpoint 129</name>
            </trkpt>
            <trkpt lat="50.1581504" lon="11.1151896">
                <ele>266.0</ele>
                <time>2020-08-22T08:32:38.000Z</time>
                <name>Trackpoint 130</name>
            </trkpt>
            <trkpt lat="50.1580576" lon="11.1152312">
                <ele>266.0</ele>
                <time>2020-08-22T08:32:40.000Z</time>
                <name>Trackpoint 131</name>
            </trkpt>
            <trkpt lat="50.157968" lon="11.1152712">
                <ele>266.0</ele>
                <time>2020-08-22T08:32:42.000Z</time>
                <name>Trackpoint 132</name>
            </trkpt>
            <trkpt lat="50.1578752" lon="11.1153096">
                <ele>266.0</ele>
                <time>2020-08-22T08:32:44.000Z</time>
                <name>Trackpoint 133</name>
            </trkpt>
            <trkpt lat="50.1577824" lon="11.1153536">
                <ele>266.0</ele>
                <time>2020-08-22T08:32:46.000Z</time>
                <name>Trackpoint 134</name>
            </trkpt>
            <trkpt lat="50.1576896" lon="11.1153936">
                <ele>266.0</ele>
                <time>2020-08-22T08:32:48.000Z</time>
                <name>Trackpoint 135</name>
            </trkpt>
            <trkpt lat="50.1575968" lon="11.1154336">
                <ele>266.0</ele>
                <time>2020-08-22T08:32:50.000Z</time>
                <name>Trackpoint 136</name>
            </trkpt>
            <trkpt lat="50.1575104" lon="11.1154744">
                <ele>266.0</ele>
                <time>2020-08-22T08:32:52.000Z</time>
                <name>Trackpoint 137</name>
            </trkpt>
            <trkpt lat="50.1574208" lon="11.115512">
                <ele>266.0</ele>
                <time>2020-08-22T08:32:54.000Z</time>
                <name>Trackpoint 138</name>
            </trkpt>
            <trkpt lat="50.1573248" lon="11.1155528">
                <ele>266.0</ele>
                <time>2020-08-22T08:32:56.000Z</time>
                <name>Trackpoint 139</name>
            </trkpt>
            <trkpt lat="50.1572224" lon="11.1156016">
                <ele>265.0</ele>
                <time>2020-08-22T08:32:58.000Z</time>
                <name>Trackpoint 140</name>
            </trkpt>
            <trkpt lat="50.1571072" lon="11.1156552">
                <ele>265.0</ele>
                <time>2020-08-22T08:33:00.000Z</time>
                <name>Trackpoint 141</name>
            </trkpt>
            <trkpt lat="50.1569888" lon="11.1157104">
                <ele>265.0</ele>
                <time>2020-08-22T08:33:02.000Z</time>
                <name>Trackpoint 142</name>
            </trkpt>
            <trkpt lat="50.1568672" lon="11.1157664">
                <ele>265.0</ele>
                <time>2020-08-22T08:33:04.000Z</time>
                <name>Trackpoint 143</name>
            </trkpt>
            <trkpt lat="50.1567456" lon="11.1158216">
                <ele>265.0</ele>
                <time>2020-08-22T08:33:06.000Z</time>
                <name>Trackpoint 144</name>
            </trkpt>
            <trkpt lat="50.1566304" lon="11.1158752">
                <ele>265.0</ele>
                <time>2020-08-22T08:33:08.000Z</time>
                <name>Trackpoint 145</name>
            </trkpt>
            <trkpt lat="50.1565408" lon="11.1159184">
                <ele>265.0</ele>
                <time>2020-08-22T08:33:10.000Z</time>
                <name>Trackpoint 146</name>
            </trkpt>
            <trkpt lat="50.1564512" lon="11.1158912">
                <ele>266.0</ele>
                <time>2020-08-22T08:33:14.000Z</time>
                <name>Trackpoint 147</name>
            </trkpt>
            <trkpt lat="50.156432" lon="11.1157712">
                <ele>266.0</ele>
                <time>2020-08-22T08:33:17.000Z</time>
                <name>Trackpoint 148</name>
            </trkpt>
            <trkpt lat="50.1564256" lon="11.1156552">
                <ele>267.0</ele>
                <time>2020-08-22T08:33:19.000Z</time>
                <name>Trackpoint 149</name>
            </trkpt>
            <trkpt lat="50.1564032" lon="11.1155328">
                <ele>267.0</ele>
                <time>2020-08-22T08:33:21.000Z</time>
                <name>Trackpoint 150</name>
            </trkpt>
            <trkpt lat="50.1563712" lon="11.115388">
                <ele>267.0</ele>
                <time>2020-08-22T08:33:23.000Z</time>
                <name>Trackpoint 151</name>
            </trkpt>
            <trkpt lat="50.1563392" lon="11.1152232">
                <ele>267.0</ele>
                <time>2020-08-22T08:33:25.000Z</time>
                <name>Trackpoint 152</name>
            </trkpt>
            <trkpt lat="50.156304" lon="11.1150704">
                <ele>267.0</ele>
                <time>2020-08-22T08:33:27.000Z</time>
                <name>Trackpoint 153</name>
            </trkpt>
            <trkpt lat="50.1562656" lon="11.1149168">
                <ele>268.0</ele>
                <time>2020-08-22T08:33:29.000Z</time>
                <name>Trackpoint 154</name>
            </trkpt>
            <trkpt lat="50.1562304" lon="11.1147672">
                <ele>267.0</ele>
                <time>2020-08-22T08:33:31.000Z</time>
                <name>Trackpoint 155</name>
            </trkpt>
            <trkpt lat="50.1561952" lon="11.114616">
                <ele>267.0</ele>
                <time>2020-08-22T08:33:33.000Z</time>
                <name>Trackpoint 156</name>
            </trkpt>
            <trkpt lat="50.1561664" lon="11.1144784">
                <ele>267.0</ele>
                <time>2020-08-22T08:33:35.000Z</time>
                <name>Trackpoint 157</name>
            </trkpt>
            <trkpt lat="50.1561248" lon="11.1143504">
                <ele>269.0</ele>
                <time>2020-08-22T08:33:37.000Z</time>
                <name>Trackpoint 158</name>
            </trkpt>
            <trkpt lat="50.1560928" lon="11.1142352">
                <ele>270.0</ele>
                <time>2020-08-22T08:33:39.000Z</time>
                <name>Trackpoint 159</name>
            </trkpt>
            <trkpt lat="50.156064" lon="11.1141008">
                <ele>270.0</ele>
                <time>2020-08-22T08:33:41.000Z</time>
                <name>Trackpoint 160</name>
            </trkpt>
            <trkpt lat="50.156032" lon="11.1139736">
                <ele>271.0</ele>
                <time>2020-08-22T08:33:43.000Z</time>
                <name>Trackpoint 161</name>
            </trkpt>
            <trkpt lat="50.1560032" lon="11.1138488">
                <ele>271.0</ele>
                <time>2020-08-22T08:33:45.000Z</time>
                <name>Trackpoint 162</name>
            </trkpt>
            <trkpt lat="50.1559744" lon="11.1137304">
                <ele>270.0</ele>
                <time>2020-08-22T08:33:47.000Z</time>
                <name>Trackpoint 163</name>
            </trkpt>
            <trkpt lat="50.1559456" lon="11.1136152">
                <ele>269.0</ele>
                <time>2020-08-22T08:33:49.000Z</time>
                <name>Trackpoint 164</name>
            </trkpt>
            <trkpt lat="50.1559168" lon="11.1134904">
                <ele>268.0</ele>
                <time>2020-08-22T08:33:51.000Z</time>
                <name>Trackpoint 165</name>
            </trkpt>
            <trkpt lat="50.1558912" lon="11.113348">
                <ele>267.0</ele>
                <time>2020-08-22T08:33:53.000Z</time>
                <name>Trackpoint 166</name>
            </trkpt>
            <trkpt lat="50.1558624" lon="11.1132088">
                <ele>267.0</ele>
                <time>2020-08-22T08:33:55.000Z</time>
                <name>Trackpoint 167</name>
            </trkpt>
            <trkpt lat="50.1558304" lon="11.1130616">
                <ele>267.0</ele>
                <time>2020-08-22T08:33:57.000Z</time>
                <name>Trackpoint 168</name>
            </trkpt>
            <trkpt lat="50.1557952" lon="11.1129104">
                <ele>267.0</ele>
                <time>2020-08-22T08:33:59.000Z</time>
                <name>Trackpoint 169</name>
            </trkpt>
            <trkpt lat="50.1557632" lon="11.1127528">
                <ele>266.0</ele>
                <time>2020-08-22T08:34:01.000Z</time>
                <name>Trackpoint 170</name>
            </trkpt>
            <trkpt lat="50.1557248" lon="11.1125984">
                <ele>266.0</ele>
                <time>2020-08-22T08:34:03.000Z</time>
                <name>Trackpoint 171</name>
            </trkpt>
            <trkpt lat="50.1556864" lon="11.1124432">
                <ele>266.0</ele>
                <time>2020-08-22T08:34:05.000Z</time>
                <name>Trackpoint 172</name>
            </trkpt>
            <trkpt lat="50.1556512" lon="11.1123016">
                <ele>266.0</ele>
                <time>2020-08-22T08:34:07.000Z</time>
                <name>Trackpoint 173</name>
            </trkpt>
            <trkpt lat="50.155616" lon="11.1121656">
                <ele>266.0</ele>
                <time>2020-08-22T08:34:09.000Z</time>
                <name>Trackpoint 174</name>
            </trkpt>
            <trkpt lat="50.1555904" lon="11.1120416">
                <ele>266.0</ele>
                <time>2020-08-22T08:34:11.000Z</time>
                <name>Trackpoint 175</name>
            </trkpt>
            <trkpt lat="50.1555584" lon="11.1119336">
                <ele>266.0</ele>
                <time>2020-08-22T08:34:13.000Z</time>
                <name>Trackpoint 176</name>
            </trkpt>
            <trkpt lat="50.1555328" lon="11.1118336">
                <ele>266.0</ele>
                <time>2020-08-22T08:34:15.000Z</time>
                <name>Trackpoint 177</name>
            </trkpt>
            <trkpt lat="50.1555104" lon="11.1117296">
                <ele>265.0</ele>
                <time>2020-08-22T08:34:19.000Z</time>
                <name>Trackpoint 178</name>
            </trkpt>
            <trkpt lat="50.1554784" lon="11.111624">
                <ele>266.0</ele>
                <time>2020-08-22T08:36:39.000Z</time>
                <name>Trackpoint 179</name>
            </trkpt>
            <trkpt lat="50.155456" lon="11.111524">
                <ele>266.0</ele>
                <time>2020-08-22T08:36:42.000Z</time>
                <name>Trackpoint 180</name>
            </trkpt>
            <trkpt lat="50.1554304" lon="11.1114016">
                <ele>266.0</ele>
                <time>2020-08-22T08:36:45.000Z</time>
                <name>Trackpoint 181</name>
            </trkpt>
            <trkpt lat="50.1554176" lon="11.1112768">
                <ele>266.0</ele>
                <time>2020-08-22T08:36:48.000Z</time>
                <name>Trackpoint 182</name>
            </trkpt>
            <trkpt lat="50.1553952" lon="11.111132">
                <ele>266.0</ele>
                <time>2020-08-22T08:36:51.000Z</time>
                <name>Trackpoint 183</name>
            </trkpt>
            <trkpt lat="50.1553696" lon="11.1110184">
                <ele>266.0</ele>
                <time>2020-08-22T08:36:53.000Z</time>
                <name>Trackpoint 184</name>
            </trkpt>
            <trkpt lat="50.1553344" lon="11.1108752">
                <ele>266.0</ele>
                <time>2020-08-22T08:36:55.000Z</time>
                <name>Trackpoint 185</name>
            </trkpt>
            <trkpt lat="50.1552992" lon="11.1107384">
                <ele>266.0</ele>
                <time>2020-08-22T08:36:57.000Z</time>
                <name>Trackpoint 186</name>
            </trkpt>
            <trkpt lat="50.1552576" lon="11.1105984">
                <ele>267.0</ele>
                <time>2020-08-22T08:36:59.000Z</time>
                <name>Trackpoint 187</name>
            </trkpt>
            <trkpt lat="50.1552192" lon="11.110448">
                <ele>266.0</ele>
                <time>2020-08-22T08:37:01.000Z</time>
                <name>Trackpoint 188</name>
            </trkpt>
            <trkpt lat="50.1551776" lon="11.1102848">
                <ele>266.0</ele>
                <time>2020-08-22T08:37:03.000Z</time>
                <name>Trackpoint 189</name>
            </trkpt>
            <trkpt lat="50.1551552" lon="11.1101968">
                <ele>266.0</ele>
                <time>2020-08-22T08:37:04.000Z</time>
                <name>Trackpoint 190</name>
            </trkpt>
            <trkpt lat="50.1551136" lon="11.1100264">
                <ele>266.0</ele>
                <time>2020-08-22T08:37:06.000Z</time>
                <name>Trackpoint 191</name>
            </trkpt>
            <trkpt lat="50.155072" lon="11.1098784">
                <ele>266.0</ele>
                <time>2020-08-22T08:37:08.000Z</time>
                <name>Trackpoint 192</name>
            </trkpt>
            <trkpt lat="50.1550336" lon="11.1097272">
                <ele>266.0</ele>
                <time>2020-08-22T08:37:10.000Z</time>
                <name>Trackpoint 193</name>
            </trkpt>
            <trkpt lat="50.1549888" lon="11.1095584">
                <ele>267.0</ele>
                <time>2020-08-22T08:37:12.000Z</time>
                <name>Trackpoint 194</name>
            </trkpt>
            <trkpt lat="50.1549632" lon="11.1094712">
                <ele>266.0</ele>
                <time>2020-08-22T08:37:13.000Z</time>
                <name>Trackpoint 195</name>
            </trkpt>
            <trkpt lat="50.1549216" lon="11.1093128">
                <ele>266.0</ele>
                <time>2020-08-22T08:37:15.000Z</time>
                <name>Trackpoint 196</name>
            </trkpt>
            <trkpt lat="50.15488" lon="11.1091584">
                <ele>266.0</ele>
                <time>2020-08-22T08:37:17.000Z</time>
                <name>Trackpoint 197</name>
            </trkpt>
            <trkpt lat="50.1548384" lon="11.1090072">
                <ele>266.0</ele>
                <time>2020-08-22T08:37:19.000Z</time>
                <name>Trackpoint 198</name>
            </trkpt>
            <trkpt lat="50.1547904" lon="11.108844">
                <ele>266.0</ele>
                <time>2020-08-22T08:37:21.000Z</time>
                <name>Trackpoint 199</name>
            </trkpt>
            <trkpt lat="50.1547328" lon="11.1086928">
                <ele>266.0</ele>
                <time>2020-08-22T08:37:23.000Z</time>
                <name>Trackpoint 200</name>
            </trkpt>
            <trkpt lat="50.154656" lon="11.1085584">
                <ele>266.0</ele>
                <time>2020-08-22T08:37:25.000Z</time>
                <name>Trackpoint 201</name>
            </trkpt>
            <trkpt lat="50.1545792" lon="11.108432">
                <ele>266.0</ele>
                <time>2020-08-22T08:37:27.000Z</time>
                <name>Trackpoint 202</name>
            </trkpt>
            <trkpt lat="50.154496" lon="11.1083088">
                <ele>266.0</ele>
                <time>2020-08-22T08:37:29.000Z</time>
                <name>Trackpoint 203</name>
            </trkpt>
            <trkpt lat="50.154416" lon="11.1081896">
                <ele>266.0</ele>
                <time>2020-08-22T08:37:31.000Z</time>
                <name>Trackpoint 204</name>
            </trkpt>
            <trkpt lat="50.154336" lon="11.1080664">
                <ele>266.0</ele>
                <time>2020-08-22T08:37:33.000Z</time>
                <name>Trackpoint 205</name>
            </trkpt>
            <trkpt lat="50.1542816" lon="11.1079456">
                <ele>266.0</ele>
                <time>2020-08-22T08:37:35.000Z</time>
                <name>Trackpoint 206</name>
            </trkpt>
            <trkpt lat="50.15424" lon="11.1078144">
                <ele>266.0</ele>
                <time>2020-08-22T08:37:37.000Z</time>
                <name>Trackpoint 207</name>
            </trkpt>
            <trkpt lat="50.154208" lon="11.107692">
                <ele>266.0</ele>
                <time>2020-08-22T08:37:39.000Z</time>
                <name>Trackpoint 208</name>
            </trkpt>
            <trkpt lat="50.154176" lon="11.1075736">
                <ele>266.0</ele>
                <time>2020-08-22T08:37:41.000Z</time>
                <name>Trackpoint 209</name>
            </trkpt>
            <trkpt lat="50.1541248" lon="11.1074248">
                <ele>266.0</ele>
                <time>2020-08-22T08:37:43.000Z</time>
                <name>Trackpoint 210</name>
            </trkpt>
            <trkpt lat="50.1540832" lon="11.1072464">
                <ele>266.0</ele>
                <time>2020-08-22T08:37:45.000Z</time>
                <name>Trackpoint 211</name>
            </trkpt>
            <trkpt lat="50.1540608" lon="11.1070832">
                <ele>266.0</ele>
                <time>2020-08-22T08:37:47.000Z</time>
                <name>Trackpoint 212</name>
            </trkpt>
            <trkpt lat="50.154048" lon="11.1069208">
                <ele>266.0</ele>
                <time>2020-08-22T08:37:49.000Z</time>
                <name>Trackpoint 213</name>
            </trkpt>
            <trkpt lat="50.1540448" lon="11.1067416">
                <ele>266.0</ele>
                <time>2020-08-22T08:37:51.000Z</time>
                <name>Trackpoint 214</name>
            </trkpt>
            <trkpt lat="50.1540416" lon="11.1066416">
                <ele>266.0</ele>
                <time>2020-08-22T08:37:52.000Z</time>
                <name>Trackpoint 215</name>
            </trkpt>
            <trkpt lat="50.1540288" lon="11.106528">
                <ele>266.0</ele>
                <time>2020-08-22T08:37:53.000Z</time>
                <name>Trackpoint 216</name>
            </trkpt>
            <trkpt lat="50.1540256" lon="11.1064352">
                <ele>266.0</ele>
                <time>2020-08-22T08:37:54.000Z</time>
                <name>Trackpoint 217</name>
            </trkpt>
            <trkpt lat="50.154016" lon="11.1063048">
                <ele>266.0</ele>
                <time>2020-08-22T08:37:56.000Z</time>
                <name>Trackpoint 218</name>
            </trkpt>
            <trkpt lat="50.1539968" lon="11.1061896">
                <ele>266.0</ele>
                <time>2020-08-22T08:37:58.000Z</time>
                <name>Trackpoint 219</name>
            </trkpt>
            <trkpt lat="50.1539648" lon="11.1060264">
                <ele>266.0</ele>
                <time>2020-08-22T08:38:00.000Z</time>
                <name>Trackpoint 220</name>
            </trkpt>
            <trkpt lat="50.1539264" lon="11.1058528">
                <ele>266.0</ele>
                <time>2020-08-22T08:38:02.000Z</time>
                <name>Trackpoint 221</name>
            </trkpt>
            <trkpt lat="50.1538912" lon="11.1056736">
                <ele>266.0</ele>
                <time>2020-08-22T08:38:04.000Z</time>
                <name>Trackpoint 222</name>
            </trkpt>
            <trkpt lat="50.153872" lon="11.1055832">
                <ele>266.0</ele>
                <time>2020-08-22T08:38:05.000Z</time>
                <name>Trackpoint 223</name>
            </trkpt>
            <trkpt lat="50.1538432" lon="11.1054248">
                <ele>267.0</ele>
                <time>2020-08-22T08:38:07.000Z</time>
                <name>Trackpoint 224</name>
            </trkpt>
            <trkpt lat="50.153808" lon="11.105264">
                <ele>266.0</ele>
                <time>2020-08-22T08:38:09.000Z</time>
                <name>Trackpoint 225</name>
            </trkpt>
            <trkpt lat="50.1537824" lon="11.1050952">
                <ele>267.0</ele>
                <time>2020-08-22T08:38:11.000Z</time>
                <name>Trackpoint 226</name>
            </trkpt>
            <trkpt lat="50.1537664" lon="11.1050056">
                <ele>267.0</ele>
                <time>2020-08-22T08:38:12.000Z</time>
                <name>Trackpoint 227</name>
            </trkpt>
            <trkpt lat="50.1537408" lon="11.10484">
                <ele>267.0</ele>
                <time>2020-08-22T08:38:14.000Z</time>
                <name>Trackpoint 228</name>
            </trkpt>
            <trkpt lat="50.153712" lon="11.1046832">
                <ele>267.0</ele>
                <time>2020-08-22T08:38:16.000Z</time>
                <name>Trackpoint 229</name>
            </trkpt>
            <trkpt lat="50.1536896" lon="11.1044904">
                <ele>267.0</ele>
                <time>2020-08-22T08:38:18.000Z</time>
                <name>Trackpoint 230</name>
            </trkpt>
            <trkpt lat="50.15368" lon="11.1043984">
                <ele>267.0</ele>
                <time>2020-08-22T08:38:19.000Z</time>
                <name>Trackpoint 231</name>
            </trkpt>
            <trkpt lat="50.153664" lon="11.1043056">
                <ele>268.0</ele>
                <time>2020-08-22T08:38:20.000Z</time>
                <name>Trackpoint 232</name>
            </trkpt>
            <trkpt lat="50.153648" lon="11.1042168">
                <ele>268.0</ele>
                <time>2020-08-22T08:38:21.000Z</time>
                <name>Trackpoint 233</name>
            </trkpt>
            <trkpt lat="50.1536256" lon="11.1040472">
                <ele>269.0</ele>
                <time>2020-08-22T08:38:23.000Z</time>
                <name>Trackpoint 234</name>
            </trkpt>
            <trkpt lat="50.1536032" lon="11.103884">
                <ele>269.0</ele>
                <time>2020-08-22T08:38:25.000Z</time>
                <name>Trackpoint 235</name>
            </trkpt>
            <trkpt lat="50.1535808" lon="11.1037352">
                <ele>269.0</ele>
                <time>2020-08-22T08:38:27.000Z</time>
                <name>Trackpoint 236</name>
            </trkpt>
            <trkpt lat="50.1535648" lon="11.1035736">
                <ele>269.0</ele>
                <time>2020-08-22T08:38:29.000Z</time>
                <name>Trackpoint 237</name>
            </trkpt>
            <trkpt lat="50.1535488" lon="11.1034">
                <ele>269.0</ele>
                <time>2020-08-22T08:38:31.000Z</time>
                <name>Trackpoint 238</name>
            </trkpt>
            <trkpt lat="50.1535424" lon="11.1033088">
                <ele>268.0</ele>
                <time>2020-08-22T08:38:32.000Z</time>
                <name>Trackpoint 239</name>
            </trkpt>
            <trkpt lat="50.1535328" lon="11.1031448">
                <ele>266.0</ele>
                <time>2020-08-22T08:38:34.000Z</time>
                <name>Trackpoint 240</name>
            </trkpt>
            <trkpt lat="50.1535104" lon="11.102972">
                <ele>266.0</ele>
                <time>2020-08-22T08:38:36.000Z</time>
                <name>Trackpoint 241</name>
            </trkpt>
            <trkpt lat="50.1535008" lon="11.1028816">
                <ele>266.0</ele>
                <time>2020-08-22T08:38:37.000Z</time>
                <name>Trackpoint 242</name>
            </trkpt>
            <trkpt lat="50.153488" lon="11.102792">
                <ele>266.0</ele>
                <time>2020-08-22T08:38:38.000Z</time>
                <name>Trackpoint 243</name>
            </trkpt>
            <trkpt lat="50.153472" lon="11.1027">
                <ele>266.0</ele>
                <time>2020-08-22T08:38:39.000Z</time>
                <name>Trackpoint 244</name>
            </trkpt>
            <trkpt lat="50.1534624" lon="11.1025984">
                <ele>266.0</ele>
                <time>2020-08-22T08:38:40.000Z</time>
                <name>Trackpoint 245</name>
            </trkpt>
            <trkpt lat="50.1534464" lon="11.1025048">
                <ele>266.0</ele>
                <time>2020-08-22T08:38:41.000Z</time>
                <name>Trackpoint 246</name>
            </trkpt>
            <trkpt lat="50.1534336" lon="11.1024112">
                <ele>266.0</ele>
                <time>2020-08-22T08:38:42.000Z</time>
                <name>Trackpoint 247</name>
            </trkpt>
            <trkpt lat="50.153424" lon="11.1023184">
                <ele>266.0</ele>
                <time>2020-08-22T08:38:43.000Z</time>
                <name>Trackpoint 248</name>
            </trkpt>
            <trkpt lat="50.1534144" lon="11.1022032">
                <ele>266.0</ele>
                <time>2020-08-22T08:38:44.000Z</time>
                <name>Trackpoint 249</name>
            </trkpt>
            <trkpt lat="50.1533888" lon="11.1020344">
                <ele>266.0</ele>
                <time>2020-08-22T08:38:46.000Z</time>
                <name>Trackpoint 250</name>
            </trkpt>
            <trkpt lat="50.1533696" lon="11.1018616">
                <ele>266.0</ele>
                <time>2020-08-22T08:38:48.000Z</time>
                <name>Trackpoint 251</name>
            </trkpt>
            <trkpt lat="50.1533472" lon="11.1016976">
                <ele>266.0</ele>
                <time>2020-08-22T08:38:50.000Z</time>
                <name>Trackpoint 252</name>
            </trkpt>
            <trkpt lat="50.1533248" lon="11.1015264">
                <ele>267.0</ele>
                <time>2020-08-22T08:38:52.000Z</time>
                <name>Trackpoint 253</name>
            </trkpt>
            <trkpt lat="50.153312" lon="11.1014368">
                <ele>267.0</ele>
                <time>2020-08-22T08:38:53.000Z</time>
                <name>Trackpoint 254</name>
            </trkpt>
            <trkpt lat="50.153296" lon="11.1012832">
                <ele>267.0</ele>
                <time>2020-08-22T08:38:55.000Z</time>
                <name>Trackpoint 255</name>
            </trkpt>
            <trkpt lat="50.1532768" lon="11.10112">
                <ele>267.0</ele>
                <time>2020-08-22T08:38:57.000Z</time>
                <name>Trackpoint 256</name>
            </trkpt>
            <trkpt lat="50.1532608" lon="11.1009328">
                <ele>268.0</ele>
                <time>2020-08-22T08:38:59.000Z</time>
                <name>Trackpoint 257</name>
            </trkpt>
            <trkpt lat="50.1532448" lon="11.1008384">
                <ele>268.0</ele>
                <time>2020-08-22T08:39:00.000Z</time>
                <name>Trackpoint 258</name>
            </trkpt>
            <trkpt lat="50.1532288" lon="11.1007456">
                <ele>268.0</ele>
                <time>2020-08-22T08:39:01.000Z</time>
                <name>Trackpoint 259</name>
            </trkpt>
            <trkpt lat="50.1532096" lon="11.1005752">
                <ele>268.0</ele>
                <time>2020-08-22T08:39:03.000Z</time>
                <name>Trackpoint 260</name>
            </trkpt>
            <trkpt lat="50.1531968" lon="11.10048">
                <ele>268.0</ele>
                <time>2020-08-22T08:39:04.000Z</time>
                <name>Trackpoint 261</name>
            </trkpt>
            <trkpt lat="50.1531872" lon="11.10038">
                <ele>268.0</ele>
                <time>2020-08-22T08:39:05.000Z</time>
                <name>Trackpoint 262</name>
            </trkpt>
            <trkpt lat="50.1531744" lon="11.1002848">
                <ele>268.0</ele>
                <time>2020-08-22T08:39:06.000Z</time>
                <name>Trackpoint 263</name>
            </trkpt>
            <trkpt lat="50.1531648" lon="11.1001928">
                <ele>268.0</ele>
                <time>2020-08-22T08:39:07.000Z</time>
                <name>Trackpoint 264</name>
            </trkpt>
            <trkpt lat="50.153152" lon="11.1001016">
                <ele>268.0</ele>
                <time>2020-08-22T08:39:08.000Z</time>
                <name>Trackpoint 265</name>
            </trkpt>
            <trkpt lat="50.1531328" lon="11.0999216">
                <ele>268.0</ele>
                <time>2020-08-22T08:39:10.000Z</time>
                <name>Trackpoint 266</name>
            </trkpt>
            <trkpt lat="50.1531168" lon="11.0997584">
                <ele>267.0</ele>
                <time>2020-08-22T08:39:12.000Z</time>
                <name>Trackpoint 267</name>
            </trkpt>
            <trkpt lat="50.1530976" lon="11.0996048">
                <ele>267.0</ele>
                <time>2020-08-22T08:39:14.000Z</time>
                <name>Trackpoint 268</name>
            </trkpt>
            <trkpt lat="50.1530784" lon="11.0994584">
                <ele>267.0</ele>
                <time>2020-08-22T08:39:16.000Z</time>
                <name>Trackpoint 269</name>
            </trkpt>
            <trkpt lat="50.1530624" lon="11.0992816">
                <ele>267.0</ele>
                <time>2020-08-22T08:39:18.000Z</time>
                <name>Trackpoint 270</name>
            </trkpt>
            <trkpt lat="50.1530464" lon="11.0991136">
                <ele>267.0</ele>
                <time>2020-08-22T08:39:20.000Z</time>
                <name>Trackpoint 271</name>
            </trkpt>
            <trkpt lat="50.1530272" lon="11.09894">
                <ele>267.0</ele>
                <time>2020-08-22T08:39:22.000Z</time>
                <name>Trackpoint 272</name>
            </trkpt>
            <trkpt lat="50.1530048" lon="11.0987552">
                <ele>267.0</ele>
                <time>2020-08-22T08:39:24.000Z</time>
                <name>Trackpoint 273</name>
            </trkpt>
            <trkpt lat="50.1529888" lon="11.0985944">
                <ele>267.0</ele>
                <time>2020-08-22T08:39:26.000Z</time>
                <name>Trackpoint 274</name>
            </trkpt>
            <trkpt lat="50.1529696" lon="11.0984312">
                <ele>267.0</ele>
                <time>2020-08-22T08:39:28.000Z</time>
                <name>Trackpoint 275</name>
            </trkpt>
            <trkpt lat="50.1529632" lon="11.0983296">
                <ele>266.0</ele>
                <time>2020-08-22T08:39:29.000Z</time>
                <name>Trackpoint 276</name>
            </trkpt>
            <trkpt lat="50.1529376" lon="11.0981576">
                <ele>266.0</ele>
                <time>2020-08-22T08:39:31.000Z</time>
                <name>Trackpoint 277</name>
            </trkpt>
            <trkpt lat="50.1529184" lon="11.0979816">
                <ele>266.0</ele>
                <time>2020-08-22T08:39:33.000Z</time>
                <name>Trackpoint 278</name>
            </trkpt>
            <trkpt lat="50.1529056" lon="11.0978216">
                <ele>266.0</ele>
                <time>2020-08-22T08:39:35.000Z</time>
                <name>Trackpoint 279</name>
            </trkpt>
            <trkpt lat="50.1528768" lon="11.0976296">
                <ele>266.0</ele>
                <time>2020-08-22T08:39:37.000Z</time>
                <name>Trackpoint 280</name>
            </trkpt>
            <trkpt lat="50.1528672" lon="11.0975368">
                <ele>266.0</ele>
                <time>2020-08-22T08:39:38.000Z</time>
                <name>Trackpoint 281</name>
            </trkpt>
            <trkpt lat="50.1528448" lon="11.0973816">
                <ele>267.0</ele>
                <time>2020-08-22T08:39:40.000Z</time>
                <name>Trackpoint 282</name>
            </trkpt>
            <trkpt lat="50.152816" lon="11.097208">
                <ele>267.0</ele>
                <time>2020-08-22T08:39:42.000Z</time>
                <name>Trackpoint 283</name>
            </trkpt>
            <trkpt lat="50.1528" lon="11.0970432">
                <ele>267.0</ele>
                <time>2020-08-22T08:39:44.000Z</time>
                <name>Trackpoint 284</name>
            </trkpt>
            <trkpt lat="50.1527872" lon="11.09688">
                <ele>267.0</ele>
                <time>2020-08-22T08:39:46.000Z</time>
                <name>Trackpoint 285</name>
            </trkpt>
            <trkpt lat="50.1527744" lon="11.0967904">
                <ele>267.0</ele>
                <time>2020-08-22T08:39:47.000Z</time>
                <name>Trackpoint 286</name>
            </trkpt>
            <trkpt lat="50.1527648" lon="11.0966184">
                <ele>267.0</ele>
                <time>2020-08-22T08:39:49.000Z</time>
                <name>Trackpoint 287</name>
            </trkpt>
            <trkpt lat="50.1527488" lon="11.0964536">
                <ele>268.0</ele>
                <time>2020-08-22T08:39:51.000Z</time>
                <name>Trackpoint 288</name>
            </trkpt>
            <trkpt lat="50.152736" lon="11.0963584">
                <ele>268.0</ele>
                <time>2020-08-22T08:39:52.000Z</time>
                <name>Trackpoint 289</name>
            </trkpt>
            <trkpt lat="50.1527136" lon="11.0961936">
                <ele>268.0</ele>
                <time>2020-08-22T08:39:54.000Z</time>
                <name>Trackpoint 290</name>
            </trkpt>
            <trkpt lat="50.1526976" lon="11.0961048">
                <ele>268.0</ele>
                <time>2020-08-22T08:39:55.000Z</time>
                <name>Trackpoint 291</name>
            </trkpt>
            <trkpt lat="50.152672" lon="11.0959368">
                <ele>268.0</ele>
                <time>2020-08-22T08:39:57.000Z</time>
                <name>Trackpoint 292</name>
            </trkpt>
            <trkpt lat="50.1526464" lon="11.0957816">
                <ele>268.0</ele>
                <time>2020-08-22T08:39:59.000Z</time>
                <name>Trackpoint 293</name>
            </trkpt>
            <trkpt lat="50.1526176" lon="11.0956024">
                <ele>269.0</ele>
                <time>2020-08-22T08:40:01.000Z</time>
                <name>Trackpoint 294</name>
            </trkpt>
            <trkpt lat="50.152608" lon="11.095424">
                <ele>269.0</ele>
                <time>2020-08-22T08:40:03.000Z</time>
                <name>Trackpoint 295</name>
            </trkpt>
            <trkpt lat="50.152608" lon="11.095328">
                <ele>269.0</ele>
                <time>2020-08-22T08:40:04.000Z</time>
                <name>Trackpoint 296</name>
            </trkpt>
            <trkpt lat="50.152608" lon="11.0951592">
                <ele>269.0</ele>
                <time>2020-08-22T08:40:06.000Z</time>
                <name>Trackpoint 297</name>
            </trkpt>
            <trkpt lat="50.1526016" lon="11.0949968">
                <ele>269.0</ele>
                <time>2020-08-22T08:40:08.000Z</time>
                <name>Trackpoint 298</name>
            </trkpt>
            <trkpt lat="50.152592" lon="11.0948264">
                <ele>269.0</ele>
                <time>2020-08-22T08:40:10.000Z</time>
                <name>Trackpoint 299</name>
            </trkpt>
            <trkpt lat="50.152576" lon="11.0947352">
                <ele>269.0</ele>
                <time>2020-08-22T08:40:11.000Z</time>
                <name>Trackpoint 300</name>
            </trkpt>
            <trkpt lat="50.1525536" lon="11.0945816">
                <ele>269.0</ele>
                <time>2020-08-22T08:40:13.000Z</time>
                <name>Trackpoint 301</name>
            </trkpt>
            <trkpt lat="50.152528" lon="11.0944048">
                <ele>269.0</ele>
                <time>2020-08-22T08:40:15.000Z</time>
                <name>Trackpoint 302</name>
            </trkpt>
            <trkpt lat="50.1524992" lon="11.09426">
                <ele>269.0</ele>
                <time>2020-08-22T08:40:17.000Z</time>
                <name>Trackpoint 303</name>
            </trkpt>
            <trkpt lat="50.1524768" lon="11.0941288">
                <ele>269.0</ele>
                <time>2020-08-22T08:40:19.000Z</time>
                <name>Trackpoint 304</name>
            </trkpt>
            <trkpt lat="50.1524544" lon="11.0939912">
                <ele>269.0</ele>
                <time>2020-08-22T08:40:21.000Z</time>
                <name>Trackpoint 305</name>
            </trkpt>
            <trkpt lat="50.1524224" lon="11.0938552">
                <ele>269.0</ele>
                <time>2020-08-22T08:40:23.000Z</time>
                <name>Trackpoint 306</name>
            </trkpt>
            <trkpt lat="50.1524032" lon="11.0937384">
                <ele>269.0</ele>
                <time>2020-08-22T08:40:25.000Z</time>
                <name>Trackpoint 307</name>
            </trkpt>
            <trkpt lat="50.1523872" lon="11.0936296">
                <ele>269.0</ele>
                <time>2020-08-22T08:40:27.000Z</time>
                <name>Trackpoint 308</name>
            </trkpt>
            <trkpt lat="50.152368" lon="11.0934888">
                <ele>269.0</ele>
                <time>2020-08-22T08:40:29.000Z</time>
                <name>Trackpoint 309</name>
            </trkpt>
            <trkpt lat="50.152352" lon="11.0933352">
                <ele>269.0</ele>
                <time>2020-08-22T08:40:31.000Z</time>
                <name>Trackpoint 310</name>
            </trkpt>
            <trkpt lat="50.1523168" lon="11.0932">
                <ele>269.0</ele>
                <time>2020-08-22T08:40:33.000Z</time>
                <name>Trackpoint 311</name>
            </trkpt>
            <trkpt lat="50.1523104" lon="11.0930208">
                <ele>269.0</ele>
                <time>2020-08-22T08:40:35.000Z</time>
                <name>Trackpoint 312</name>
            </trkpt>
            <trkpt lat="50.1522752" lon="11.0928768">
                <ele>269.0</ele>
                <time>2020-08-22T08:40:37.000Z</time>
                <name>Trackpoint 313</name>
            </trkpt>
            <trkpt lat="50.1522496" lon="11.0927312">
                <ele>269.0</ele>
                <time>2020-08-22T08:40:39.000Z</time>
                <name>Trackpoint 314</name>
            </trkpt>
            <trkpt lat="50.1522336" lon="11.0925864">
                <ele>269.0</ele>
                <time>2020-08-22T08:40:41.000Z</time>
                <name>Trackpoint 315</name>
            </trkpt>
            <trkpt lat="50.152208" lon="11.09244">
                <ele>269.0</ele>
                <time>2020-08-22T08:40:43.000Z</time>
                <name>Trackpoint 316</name>
            </trkpt>
            <trkpt lat="50.1521888" lon="11.0923144">
                <ele>269.0</ele>
                <time>2020-08-22T08:40:45.000Z</time>
                <name>Trackpoint 317</name>
            </trkpt>
            <trkpt lat="50.1521792" lon="11.0921696">
                <ele>269.0</ele>
                <time>2020-08-22T08:40:47.000Z</time>
                <name>Trackpoint 318</name>
            </trkpt>
            <trkpt lat="50.1521568" lon="11.0920288">
                <ele>269.0</ele>
                <time>2020-08-22T08:40:49.000Z</time>
                <name>Trackpoint 319</name>
            </trkpt>
            <trkpt lat="50.1521408" lon="11.0918848">
                <ele>269.0</ele>
                <time>2020-08-22T08:40:51.000Z</time>
                <name>Trackpoint 320</name>
            </trkpt>
            <trkpt lat="50.1521408" lon="11.0917328">
                <ele>269.0</ele>
                <time>2020-08-22T08:40:53.000Z</time>
                <name>Trackpoint 321</name>
            </trkpt>
            <trkpt lat="50.1521408" lon="11.0916184">
                <ele>269.0</ele>
                <time>2020-08-22T08:40:54.000Z</time>
                <name>Trackpoint 322</name>
            </trkpt>
            <trkpt lat="50.15216" lon="11.09152">
                <ele>269.0</ele>
                <time>2020-08-22T08:40:56.000Z</time>
                <name>Trackpoint 323</name>
            </trkpt>
            <trkpt lat="50.1521952" lon="11.0914136">
                <ele>269.0</ele>
                <time>2020-08-22T08:41:26.000Z</time>
                <name>Trackpoint 324</name>
            </trkpt>
            <trkpt lat="50.1522016" lon="11.0913136">
                <ele>269.0</ele>
                <time>2020-08-22T08:41:30.000Z</time>
                <name>Trackpoint 325</name>
            </trkpt>
            <trkpt lat="50.1522112" lon="11.0912048">
                <ele>269.0</ele>
                <time>2020-08-22T08:41:33.000Z</time>
                <name>Trackpoint 326</name>
            </trkpt>
            <trkpt lat="50.1522144" lon="11.091112">
                <ele>269.0</ele>
                <time>2020-08-22T08:41:35.000Z</time>
                <name>Trackpoint 327</name>
            </trkpt>
            <trkpt lat="50.1522336" lon="11.0909616">
                <ele>269.0</ele>
                <time>2020-08-22T08:41:38.000Z</time>
                <name>Trackpoint 328</name>
            </trkpt>
            <trkpt lat="50.1522432" lon="11.090852">
                <ele>269.0</ele>
                <time>2020-08-22T08:41:40.000Z</time>
                <name>Trackpoint 329</name>
            </trkpt>
            <trkpt lat="50.1522528" lon="11.0907552">
                <ele>269.0</ele>
                <time>2020-08-22T08:41:42.000Z</time>
                <name>Trackpoint 330</name>
            </trkpt>
            <trkpt lat="50.1522496" lon="11.090616">
                <ele>269.0</ele>
                <time>2020-08-22T08:41:45.000Z</time>
                <name>Trackpoint 331</name>
            </trkpt>
            <trkpt lat="50.1522528" lon="11.0905216">
                <ele>269.0</ele>
                <time>2020-08-22T08:41:47.000Z</time>
                <name>Trackpoint 332</name>
            </trkpt>
            <trkpt lat="50.15224" lon="11.0904216">
                <ele>269.0</ele>
                <time>2020-08-22T08:41:49.000Z</time>
                <name>Trackpoint 333</name>
            </trkpt>
            <trkpt lat="50.1522496" lon="11.0903168">
                <ele>270.0</ele>
                <time>2020-08-22T08:41:51.000Z</time>
                <name>Trackpoint 334</name>
            </trkpt>
            <trkpt lat="50.1522592" lon="11.090208">
                <ele>270.0</ele>
                <time>2020-08-22T08:41:53.000Z</time>
                <name>Trackpoint 335</name>
            </trkpt>
            <trkpt lat="50.152272" lon="11.0901048">
                <ele>270.0</ele>
                <time>2020-08-22T08:41:55.000Z</time>
                <name>Trackpoint 336</name>
            </trkpt>
            <trkpt lat="50.1523072" lon="11.08998">
                <ele>270.0</ele>
                <time>2020-08-22T08:41:58.000Z</time>
                <name>Trackpoint 337</name>
            </trkpt>
            <trkpt lat="50.1523328" lon="11.0898704">
                <ele>270.0</ele>
                <time>2020-08-22T08:42:00.000Z</time>
                <name>Trackpoint 338</name>
            </trkpt>
            <trkpt lat="50.1523584" lon="11.0897704">
                <ele>270.0</ele>
                <time>2020-08-22T08:42:02.000Z</time>
                <name>Trackpoint 339</name>
            </trkpt>
            <trkpt lat="50.1523904" lon="11.0896768">
                <ele>270.0</ele>
                <time>2020-08-22T08:42:04.000Z</time>
                <name>Trackpoint 340</name>
            </trkpt>
            <trkpt lat="50.152432" lon="11.0895792">
                <ele>270.0</ele>
                <time>2020-08-22T08:42:06.000Z</time>
                <name>Trackpoint 341</name>
            </trkpt>
            <trkpt lat="50.1524736" lon="11.0894816">
                <ele>271.0</ele>
                <time>2020-08-22T08:42:08.000Z</time>
                <name>Trackpoint 342</name>
            </trkpt>
            <trkpt lat="50.1525216" lon="11.0893696">
                <ele>271.0</ele>
                <time>2020-08-22T08:42:10.000Z</time>
                <name>Trackpoint 343</name>
            </trkpt>
            <trkpt lat="50.1525568" lon="11.0892496">
                <ele>271.0</ele>
                <time>2020-08-22T08:42:12.000Z</time>
                <name>Trackpoint 344</name>
            </trkpt>
            <trkpt lat="50.152592" lon="11.089124">
                <ele>271.0</ele>
                <time>2020-08-22T08:42:14.000Z</time>
                <name>Trackpoint 345</name>
            </trkpt>
            <trkpt lat="50.1526208" lon="11.089">
                <ele>272.0</ele>
                <time>2020-08-22T08:42:16.000Z</time>
                <name>Trackpoint 346</name>
            </trkpt>
            <trkpt lat="50.152656" lon="11.0888768">
                <ele>273.0</ele>
                <time>2020-08-22T08:42:18.000Z</time>
                <name>Trackpoint 347</name>
            </trkpt>
            <trkpt lat="50.152688" lon="11.0887416">
                <ele>275.0</ele>
                <time>2020-08-22T08:42:20.000Z</time>
                <name>Trackpoint 348</name>
            </trkpt>
            <trkpt lat="50.15272" lon="11.0885784">
                <ele>273.0</ele>
                <time>2020-08-22T08:42:22.000Z</time>
                <name>Trackpoint 349</name>
            </trkpt>
            <trkpt lat="50.152752" lon="11.0884312">
                <ele>273.0</ele>
                <time>2020-08-22T08:42:24.000Z</time>
                <name>Trackpoint 350</name>
            </trkpt>
            <trkpt lat="50.1527776" lon="11.088288">
                <ele>274.0</ele>
                <time>2020-08-22T08:42:26.000Z</time>
                <name>Trackpoint 351</name>
            </trkpt>
            <trkpt lat="50.1528128" lon="11.0881656">
                <ele>274.0</ele>
                <time>2020-08-22T08:42:28.000Z</time>
                <name>Trackpoint 352</name>
            </trkpt>
            <trkpt lat="50.1528384" lon="11.088028">
                <ele>275.0</ele>
                <time>2020-08-22T08:42:30.000Z</time>
                <name>Trackpoint 353</name>
            </trkpt>
            <trkpt lat="50.1528512" lon="11.0879024">
                <ele>278.0</ele>
                <time>2020-08-22T08:42:32.000Z</time>
                <name>Trackpoint 354</name>
            </trkpt>
            <trkpt lat="50.1528672" lon="11.0877752">
                <ele>278.0</ele>
                <time>2020-08-22T08:42:34.000Z</time>
                <name>Trackpoint 355</name>
            </trkpt>
            <trkpt lat="50.1528896" lon="11.0876376">
                <ele>276.0</ele>
                <time>2020-08-22T08:42:36.000Z</time>
                <name>Trackpoint 356</name>
            </trkpt>
            <trkpt lat="50.1529088" lon="11.0875">
                <ele>275.0</ele>
                <time>2020-08-22T08:42:38.000Z</time>
                <name>Trackpoint 357</name>
            </trkpt>
            <trkpt lat="50.1529248" lon="11.087352">
                <ele>275.0</ele>
                <time>2020-08-22T08:42:40.000Z</time>
                <name>Trackpoint 358</name>
            </trkpt>
            <trkpt lat="50.1529248" lon="11.0872024">
                <ele>274.0</ele>
                <time>2020-08-22T08:42:42.000Z</time>
                <name>Trackpoint 359</name>
            </trkpt>
            <trkpt lat="50.1529248" lon="11.0870504">
                <ele>274.0</ele>
                <time>2020-08-22T08:42:44.000Z</time>
                <name>Trackpoint 360</name>
            </trkpt>
            <trkpt lat="50.1529184" lon="11.086908">
                <ele>274.0</ele>
                <time>2020-08-22T08:42:46.000Z</time>
                <name>Trackpoint 361</name>
            </trkpt>
            <trkpt lat="50.1529152" lon="11.0867728">
                <ele>274.0</ele>
                <time>2020-08-22T08:42:48.000Z</time>
                <name>Trackpoint 362</name>
            </trkpt>
            <trkpt lat="50.1528992" lon="11.0866344">
                <ele>274.0</ele>
                <time>2020-08-22T08:42:50.000Z</time>
                <name>Trackpoint 363</name>
            </trkpt>
            <trkpt lat="50.1528832" lon="11.0865072">
                <ele>275.0</ele>
                <time>2020-08-22T08:42:52.000Z</time>
                <name>Trackpoint 364</name>
            </trkpt>
            <trkpt lat="50.1528672" lon="11.0863784">
                <ele>275.0</ele>
                <time>2020-08-22T08:42:54.000Z</time>
                <name>Trackpoint 365</name>
            </trkpt>
            <trkpt lat="50.152832" lon="11.086264">
                <ele>276.0</ele>
                <time>2020-08-22T08:42:56.000Z</time>
                <name>Trackpoint 366</name>
            </trkpt>
            <trkpt lat="50.1527968" lon="11.08614">
                <ele>277.0</ele>
                <time>2020-08-22T08:42:58.000Z</time>
                <name>Trackpoint 367</name>
            </trkpt>
            <trkpt lat="50.152768" lon="11.0860208">
                <ele>277.0</ele>
                <time>2020-08-22T08:43:00.000Z</time>
                <name>Trackpoint 368</name>
            </trkpt>
            <trkpt lat="50.152736" lon="11.0858944">
                <ele>277.0</ele>
                <time>2020-08-22T08:43:02.000Z</time>
                <name>Trackpoint 369</name>
            </trkpt>
            <trkpt lat="50.1527008" lon="11.0857752">
                <ele>277.0</ele>
                <time>2020-08-22T08:43:04.000Z</time>
                <name>Trackpoint 370</name>
            </trkpt>
            <trkpt lat="50.1526656" lon="11.0856416">
                <ele>277.0</ele>
                <time>2020-08-22T08:43:06.000Z</time>
                <name>Trackpoint 371</name>
            </trkpt>
            <trkpt lat="50.1526208" lon="11.0855064">
                <ele>277.0</ele>
                <time>2020-08-22T08:43:08.000Z</time>
                <name>Trackpoint 372</name>
            </trkpt>
            <trkpt lat="50.1525856" lon="11.085372">
                <ele>277.0</ele>
                <time>2020-08-22T08:43:10.000Z</time>
                <name>Trackpoint 373</name>
            </trkpt>
            <trkpt lat="50.1525504" lon="11.0852336">
                <ele>276.0</ele>
                <time>2020-08-22T08:43:12.000Z</time>
                <name>Trackpoint 374</name>
            </trkpt>
            <trkpt lat="50.1525184" lon="11.0850984">
                <ele>276.0</ele>
                <time>2020-08-22T08:43:14.000Z</time>
                <name>Trackpoint 375</name>
            </trkpt>
            <trkpt lat="50.1524896" lon="11.0849664">
                <ele>276.0</ele>
                <time>2020-08-22T08:43:16.000Z</time>
                <name>Trackpoint 376</name>
            </trkpt>
            <trkpt lat="50.1524672" lon="11.0848464">
                <ele>276.0</ele>
                <time>2020-08-22T08:43:18.000Z</time>
                <name>Trackpoint 377</name>
            </trkpt>
            <trkpt lat="50.1524512" lon="11.0847304">
                <ele>276.0</ele>
                <time>2020-08-22T08:43:20.000Z</time>
                <name>Trackpoint 378</name>
            </trkpt>
            <trkpt lat="50.1524352" lon="11.084612">
                <ele>276.0</ele>
                <time>2020-08-22T08:43:22.000Z</time>
                <name>Trackpoint 379</name>
            </trkpt>
            <trkpt lat="50.1524288" lon="11.084508">
                <ele>276.0</ele>
                <time>2020-08-22T08:43:24.000Z</time>
                <name>Trackpoint 380</name>
            </trkpt>
            <trkpt lat="50.1524288" lon="11.0844032">
                <ele>276.0</ele>
                <time>2020-08-22T08:43:26.000Z</time>
                <name>Trackpoint 381</name>
            </trkpt>
            <trkpt lat="50.1524576" lon="11.0842888">
                <ele>275.0</ele>
                <time>2020-08-22T08:43:29.000Z</time>
                <name>Trackpoint 382</name>
            </trkpt>
            <trkpt lat="50.1525024" lon="11.0841976">
                <ele>275.0</ele>
                <time>2020-08-22T08:43:33.000Z</time>
                <name>Trackpoint 383</name>
            </trkpt>
            <trkpt lat="50.1524992" lon="11.0841048">
                <ele>274.0</ele>
                <time>2020-08-22T08:43:36.000Z</time>
                <name>Trackpoint 384</name>
            </trkpt>
            <trkpt lat="50.152448" lon="11.0840104">
                <ele>274.0</ele>
                <time>2020-08-22T08:44:11.000Z</time>
                <name>Trackpoint 385</name>
            </trkpt>
            <trkpt lat="50.1523936" lon="11.083932">
                <ele>274.0</ele>
                <time>2020-08-22T08:44:16.000Z</time>
                <name>Trackpoint 386</name>
            </trkpt>
            <trkpt lat="50.1523552" lon="11.0838472">
                <ele>274.0</ele>
                <time>2020-08-22T08:44:20.000Z</time>
                <name>Trackpoint 387</name>
            </trkpt>
            <trkpt lat="50.1523232" lon="11.083752">
                <ele>277.0</ele>
                <time>2020-08-22T08:44:25.000Z</time>
                <name>Trackpoint 388</name>
            </trkpt>
            <trkpt lat="50.1523232" lon="11.0836536">
                <ele>275.0</ele>
                <time>2020-08-22T08:44:56.000Z</time>
                <name>Trackpoint 389</name>
            </trkpt>
            <trkpt lat="50.1522624" lon="11.0837248">
                <ele>275.0</ele>
                <time>2020-08-22T08:49:07.000Z</time>
                <name>Trackpoint 390</name>
            </trkpt>
            <trkpt lat="50.15216" lon="11.083732">
                <ele>274.0</ele>
                <time>2020-08-22T08:49:13.000Z</time>
                <name>Trackpoint 391</name>
            </trkpt>
            <trkpt lat="50.1520768" lon="11.0836872">
                <ele>274.0</ele>
                <time>2020-08-22T08:49:16.000Z</time>
                <name>Trackpoint 392</name>
            </trkpt>
            <trkpt lat="50.1519936" lon="11.0836336">
                <ele>275.0</ele>
                <time>2020-08-22T08:49:19.000Z</time>
                <name>Trackpoint 393</name>
            </trkpt>
            <trkpt lat="50.151904" lon="11.0835752">
                <ele>276.0</ele>
                <time>2020-08-22T08:49:22.000Z</time>
                <name>Trackpoint 394</name>
            </trkpt>
            <trkpt lat="50.1518176" lon="11.0835152">
                <ele>277.0</ele>
                <time>2020-08-22T08:49:25.000Z</time>
                <name>Trackpoint 395</name>
            </trkpt>
            <trkpt lat="50.1517344" lon="11.0834416">
                <ele>277.0</ele>
                <time>2020-08-22T08:49:28.000Z</time>
                <name>Trackpoint 396</name>
            </trkpt>
            <trkpt lat="50.1516448" lon="11.083372">
                <ele>278.0</ele>
                <time>2020-08-22T08:49:31.000Z</time>
                <name>Trackpoint 397</name>
            </trkpt>
            <trkpt lat="50.1515648" lon="11.0833016">
                <ele>278.0</ele>
                <time>2020-08-22T08:49:34.000Z</time>
                <name>Trackpoint 398</name>
            </trkpt>
            <trkpt lat="50.1514784" lon="11.0832304">
                <ele>279.0</ele>
                <time>2020-08-22T08:49:37.000Z</time>
                <name>Trackpoint 399</name>
            </trkpt>
            <trkpt lat="50.1513824" lon="11.0831848">
                <ele>280.0</ele>
                <time>2020-08-22T08:49:40.000Z</time>
                <name>Trackpoint 400</name>
            </trkpt>
            <trkpt lat="50.15128" lon="11.0831536">
                <ele>280.0</ele>
                <time>2020-08-22T08:49:43.000Z</time>
                <name>Trackpoint 401</name>
            </trkpt>
            <trkpt lat="50.1511776" lon="11.0831344">
                <ele>280.0</ele>
                <time>2020-08-22T08:49:46.000Z</time>
                <name>Trackpoint 402</name>
            </trkpt>
            <trkpt lat="50.1510784" lon="11.08314">
                <ele>281.0</ele>
                <time>2020-08-22T08:49:49.000Z</time>
                <name>Trackpoint 403</name>
            </trkpt>
            <trkpt lat="50.1509856" lon="11.083168">
                <ele>281.0</ele>
                <time>2020-08-22T08:49:52.000Z</time>
                <name>Trackpoint 404</name>
            </trkpt>
            <trkpt lat="50.1508832" lon="11.0832008">
                <ele>281.0</ele>
                <time>2020-08-22T08:49:56.000Z</time>
                <name>Trackpoint 405</name>
            </trkpt>
            <trkpt lat="50.1507904" lon="11.0832392">
                <ele>281.0</ele>
                <time>2020-08-22T08:50:23.000Z</time>
                <name>Trackpoint 406</name>
            </trkpt>
            <trkpt lat="50.1506816" lon="11.083272">
                <ele>282.0</ele>
                <time>2020-08-22T08:50:27.000Z</time>
                <name>Trackpoint 407</name>
            </trkpt>
            <trkpt lat="50.1505728" lon="11.083252">
                <ele>282.0</ele>
                <time>2020-08-22T08:50:31.000Z</time>
                <name>Trackpoint 408</name>
            </trkpt>
            <trkpt lat="50.1505408" lon="11.083128">
                <ele>282.0</ele>
                <time>2020-08-22T08:50:34.000Z</time>
                <name>Trackpoint 409</name>
            </trkpt>
            <trkpt lat="50.1505216" lon="11.0830232">
                <ele>282.0</ele>
                <time>2020-08-22T08:50:36.000Z</time>
                <name>Trackpoint 410</name>
            </trkpt>
            <trkpt lat="50.150496" lon="11.0828984">
                <ele>282.0</ele>
                <time>2020-08-22T08:50:38.000Z</time>
                <name>Trackpoint 411</name>
            </trkpt>
            <trkpt lat="50.1504768" lon="11.0827768">
                <ele>283.0</ele>
                <time>2020-08-22T08:50:40.000Z</time>
                <name>Trackpoint 412</name>
            </trkpt>
            <trkpt lat="50.1504672" lon="11.082652">
                <ele>283.0</ele>
                <time>2020-08-22T08:50:42.000Z</time>
                <name>Trackpoint 413</name>
            </trkpt>
            <trkpt lat="50.150448" lon="11.0825264">
                <ele>283.0</ele>
                <time>2020-08-22T08:50:44.000Z</time>
                <name>Trackpoint 414</name>
            </trkpt>
            <trkpt lat="50.1504288" lon="11.082412">
                <ele>283.0</ele>
                <time>2020-08-22T08:50:46.000Z</time>
                <name>Trackpoint 415</name>
            </trkpt>
            <trkpt lat="50.1504128" lon="11.0822896">
                <ele>283.0</ele>
                <time>2020-08-22T08:50:48.000Z</time>
                <name>Trackpoint 416</name>
            </trkpt>
            <trkpt lat="50.1503744" lon="11.0821312">
                <ele>283.0</ele>
                <time>2020-08-22T08:50:50.000Z</time>
                <name>Trackpoint 417</name>
            </trkpt>
            <trkpt lat="50.1503616" lon="11.0819416">
                <ele>283.0</ele>
                <time>2020-08-22T08:50:52.000Z</time>
                <name>Trackpoint 418</name>
            </trkpt>
            <trkpt lat="50.150336" lon="11.0817744">
                <ele>284.0</ele>
                <time>2020-08-22T08:50:54.000Z</time>
                <name>Trackpoint 419</name>
            </trkpt>
            <trkpt lat="50.1503136" lon="11.0816152">
                <ele>284.0</ele>
                <time>2020-08-22T08:50:56.000Z</time>
                <name>Trackpoint 420</name>
            </trkpt>
            <trkpt lat="50.1502912" lon="11.0814664">
                <ele>284.0</ele>
                <time>2020-08-22T08:50:58.000Z</time>
                <name>Trackpoint 421</name>
            </trkpt>
            <trkpt lat="50.1502688" lon="11.0813152">
                <ele>284.0</ele>
                <time>2020-08-22T08:51:00.000Z</time>
                <name>Trackpoint 422</name>
            </trkpt>
            <trkpt lat="50.1502624" lon="11.0812184">
                <ele>284.0</ele>
                <time>2020-08-22T08:51:01.000Z</time>
                <name>Trackpoint 423</name>
            </trkpt>
            <trkpt lat="50.1502464" lon="11.0810672">
                <ele>284.0</ele>
                <time>2020-08-22T08:51:03.000Z</time>
                <name>Trackpoint 424</name>
            </trkpt>
            <trkpt lat="50.1502144" lon="11.0809096">
                <ele>284.0</ele>
                <time>2020-08-22T08:51:05.000Z</time>
                <name>Trackpoint 425</name>
            </trkpt>
            <trkpt lat="50.150208" lon="11.0808096">
                <ele>284.0</ele>
                <time>2020-08-22T08:51:06.000Z</time>
                <name>Trackpoint 426</name>
            </trkpt>
            <trkpt lat="50.150192" lon="11.0806904">
                <ele>284.0</ele>
                <time>2020-08-22T08:51:07.000Z</time>
                <name>Trackpoint 427</name>
            </trkpt>
            <trkpt lat="50.1501632" lon="11.0805432">
                <ele>285.0</ele>
                <time>2020-08-22T08:51:08.000Z</time>
                <name>Trackpoint 428</name>
            </trkpt>
            <trkpt lat="50.1501472" lon="11.080428">
                <ele>285.0</ele>
                <time>2020-08-22T08:51:09.000Z</time>
                <name>Trackpoint 429</name>
            </trkpt>
            <trkpt lat="50.1501344" lon="11.0803344">
                <ele>285.0</ele>
                <time>2020-08-22T08:51:10.000Z</time>
                <name>Trackpoint 430</name>
            </trkpt>
            <trkpt lat="50.1501056" lon="11.0801696">
                <ele>285.0</ele>
                <time>2020-08-22T08:51:12.000Z</time>
                <name>Trackpoint 431</name>
            </trkpt>
            <trkpt lat="50.1500864" lon="11.0799968">
                <ele>285.0</ele>
                <time>2020-08-22T08:51:14.000Z</time>
                <name>Trackpoint 432</name>
            </trkpt>
            <trkpt lat="50.1500736" lon="11.0798264">
                <ele>284.0</ele>
                <time>2020-08-22T08:51:16.000Z</time>
                <name>Trackpoint 433</name>
            </trkpt>
            <trkpt lat="50.1500576" lon="11.0796632">
                <ele>284.0</ele>
                <time>2020-08-22T08:51:18.000Z</time>
                <name>Trackpoint 434</name>
            </trkpt>
            <trkpt lat="50.1500448" lon="11.0794984">
                <ele>284.0</ele>
                <time>2020-08-22T08:51:20.000Z</time>
                <name>Trackpoint 435</name>
            </trkpt>
            <trkpt lat="50.1500256" lon="11.0793352">
                <ele>284.0</ele>
                <time>2020-08-22T08:51:22.000Z</time>
                <name>Trackpoint 436</name>
            </trkpt>
            <trkpt lat="50.15" lon="11.0791832">
                <ele>284.0</ele>
                <time>2020-08-22T08:51:24.000Z</time>
                <name>Trackpoint 437</name>
            </trkpt>
            <trkpt lat="50.1499744" lon="11.0790232">
                <ele>284.0</ele>
                <time>2020-08-22T08:51:26.000Z</time>
                <name>Trackpoint 438</name>
            </trkpt>
            <trkpt lat="50.149952" lon="11.07886">
                <ele>284.0</ele>
                <time>2020-08-22T08:51:28.000Z</time>
                <name>Trackpoint 439</name>
            </trkpt>
            <trkpt lat="50.1499296" lon="11.0787032">
                <ele>284.0</ele>
                <time>2020-08-22T08:51:30.000Z</time>
                <name>Trackpoint 440</name>
            </trkpt>
            <trkpt lat="50.14992" lon="11.0785776">
                <ele>283.0</ele>
                <time>2020-08-22T08:51:32.000Z</time>
                <name>Trackpoint 441</name>
            </trkpt>
            <trkpt lat="50.1499072" lon="11.0784184">
                <ele>283.0</ele>
                <time>2020-08-22T08:51:34.000Z</time>
                <name>Trackpoint 442</name>
            </trkpt>
            <trkpt lat="50.1498784" lon="11.0782672">
                <ele>284.0</ele>
                <time>2020-08-22T08:51:36.000Z</time>
                <name>Trackpoint 443</name>
            </trkpt>
            <trkpt lat="50.149856" lon="11.0781152">
                <ele>284.0</ele>
                <time>2020-08-22T08:51:38.000Z</time>
                <name>Trackpoint 444</name>
            </trkpt>
            <trkpt lat="50.1498336" lon="11.0780152">
                <ele>284.0</ele>
                <time>2020-08-22T08:51:39.000Z</time>
                <name>Trackpoint 445</name>
            </trkpt>
            <trkpt lat="50.1497952" lon="11.0778648">
                <ele>284.0</ele>
                <time>2020-08-22T08:51:41.000Z</time>
                <name>Trackpoint 446</name>
            </trkpt>
            <trkpt lat="50.1497536" lon="11.0777064">
                <ele>284.0</ele>
                <time>2020-08-22T08:51:43.000Z</time>
                <name>Trackpoint 447</name>
            </trkpt>
            <trkpt lat="50.1497216" lon="11.0775448">
                <ele>284.0</ele>
                <time>2020-08-22T08:51:45.000Z</time>
                <name>Trackpoint 448</name>
            </trkpt>
            <trkpt lat="50.1496864" lon="11.0774048">
                <ele>285.0</ele>
                <time>2020-08-22T08:51:47.000Z</time>
                <name>Trackpoint 449</name>
            </trkpt>
            <trkpt lat="50.1496384" lon="11.0772848">
                <ele>284.0</ele>
                <time>2020-08-22T08:51:49.000Z</time>
                <name>Trackpoint 450</name>
            </trkpt>
            <trkpt lat="50.1495808" lon="11.0771848">
                <ele>284.0</ele>
                <time>2020-08-22T08:51:51.000Z</time>
                <name>Trackpoint 451</name>
            </trkpt>
            <trkpt lat="50.149536" lon="11.0770384">
                <ele>284.0</ele>
                <time>2020-08-22T08:51:53.000Z</time>
                <name>Trackpoint 452</name>
            </trkpt>
            <trkpt lat="50.1495072" lon="11.0769392">
                <ele>284.0</ele>
                <time>2020-08-22T08:51:54.000Z</time>
                <name>Trackpoint 453</name>
            </trkpt>
            <trkpt lat="50.1494528" lon="11.0767616">
                <ele>284.0</ele>
                <time>2020-08-22T08:51:56.000Z</time>
                <name>Trackpoint 454</name>
            </trkpt>
            <trkpt lat="50.1494176" lon="11.076676">
                <ele>284.0</ele>
                <time>2020-08-22T08:51:57.000Z</time>
                <name>Trackpoint 455</name>
            </trkpt>
            <trkpt lat="50.1493824" lon="11.0765864">
                <ele>284.0</ele>
                <time>2020-08-22T08:51:58.000Z</time>
                <name>Trackpoint 456</name>
            </trkpt>
            <trkpt lat="50.1493504" lon="11.0764968">
                <ele>284.0</ele>
                <time>2020-08-22T08:51:59.000Z</time>
                <name>Trackpoint 457</name>
            </trkpt>
            <trkpt lat="50.149312" lon="11.076408">
                <ele>284.0</ele>
                <time>2020-08-22T08:52:00.000Z</time>
                <name>Trackpoint 458</name>
            </trkpt>
            <trkpt lat="50.1492704" lon="11.0763256">
                <ele>284.0</ele>
                <time>2020-08-22T08:52:01.000Z</time>
                <name>Trackpoint 459</name>
            </trkpt>
            <trkpt lat="50.1492224" lon="11.0762144">
                <ele>284.0</ele>
                <time>2020-08-22T08:52:02.000Z</time>
                <name>Trackpoint 460</name>
            </trkpt>
            <trkpt lat="50.149184" lon="11.0761296">
                <ele>284.0</ele>
                <time>2020-08-22T08:52:03.000Z</time>
                <name>Trackpoint 461</name>
            </trkpt>
            <trkpt lat="50.1491424" lon="11.0760448">
                <ele>284.0</ele>
                <time>2020-08-22T08:52:04.000Z</time>
                <name>Trackpoint 462</name>
            </trkpt>
            <trkpt lat="50.1491008" lon="11.07596">
                <ele>284.0</ele>
                <time>2020-08-22T08:52:05.000Z</time>
                <name>Trackpoint 463</name>
            </trkpt>
            <trkpt lat="50.149072" lon="11.0758712">
                <ele>284.0</ele>
                <time>2020-08-22T08:52:06.000Z</time>
                <name>Trackpoint 464</name>
            </trkpt>
            <trkpt lat="50.1490464" lon="11.0757768">
                <ele>284.0</ele>
                <time>2020-08-22T08:52:07.000Z</time>
                <name>Trackpoint 465</name>
            </trkpt>
            <trkpt lat="50.1490208" lon="11.0756864">
                <ele>284.0</ele>
                <time>2020-08-22T08:52:08.000Z</time>
                <name>Trackpoint 466</name>
            </trkpt>
            <trkpt lat="50.1489984" lon="11.0755928">
                <ele>284.0</ele>
                <time>2020-08-22T08:52:09.000Z</time>
                <name>Trackpoint 467</name>
            </trkpt>
            <trkpt lat="50.1489728" lon="11.0755064">
                <ele>284.0</ele>
                <time>2020-08-22T08:52:10.000Z</time>
                <name>Trackpoint 468</name>
            </trkpt>
            <trkpt lat="50.1489472" lon="11.075412">
                <ele>284.0</ele>
                <time>2020-08-22T08:52:11.000Z</time>
                <name>Trackpoint 469</name>
            </trkpt>
            <trkpt lat="50.148928" lon="11.0753184">
                <ele>284.0</ele>
                <time>2020-08-22T08:52:12.000Z</time>
                <name>Trackpoint 470</name>
            </trkpt>
            <trkpt lat="50.1489024" lon="11.0752296">
                <ele>284.0</ele>
                <time>2020-08-22T08:52:13.000Z</time>
                <name>Trackpoint 471</name>
            </trkpt>
            <trkpt lat="50.1488768" lon="11.0751384">
                <ele>284.0</ele>
                <time>2020-08-22T08:52:14.000Z</time>
                <name>Trackpoint 472</name>
            </trkpt>
            <trkpt lat="50.1488192" lon="11.0749768">
                <ele>284.0</ele>
                <time>2020-08-22T08:52:16.000Z</time>
                <name>Trackpoint 473</name>
            </trkpt>
            <trkpt lat="50.1487744" lon="11.0748032">
                <ele>284.0</ele>
                <time>2020-08-22T08:52:18.000Z</time>
                <name>Trackpoint 474</name>
            </trkpt>
            <trkpt lat="50.1487264" lon="11.0746416">
                <ele>285.0</ele>
                <time>2020-08-22T08:52:20.000Z</time>
                <name>Trackpoint 475</name>
            </trkpt>
            <trkpt lat="50.1486848" lon="11.0745032">
                <ele>285.0</ele>
                <time>2020-08-22T08:52:22.000Z</time>
                <name>Trackpoint 476</name>
            </trkpt>
            <trkpt lat="50.1486784" lon="11.0744064">
                <ele>284.0</ele>
                <time>2020-08-22T08:52:23.000Z</time>
                <name>Trackpoint 477</name>
            </trkpt>
            <trkpt lat="50.14864" lon="11.0742368">
                <ele>284.0</ele>
                <time>2020-08-22T08:52:25.000Z</time>
                <name>Trackpoint 478</name>
            </trkpt>
            <trkpt lat="50.1485984" lon="11.0740816">
                <ele>284.0</ele>
                <time>2020-08-22T08:52:27.000Z</time>
                <name>Trackpoint 479</name>
            </trkpt>
            <trkpt lat="50.1485504" lon="11.073932">
                <ele>285.0</ele>
                <time>2020-08-22T08:52:29.000Z</time>
                <name>Trackpoint 480</name>
            </trkpt>
            <trkpt lat="50.1485056" lon="11.0737816">
                <ele>285.0</ele>
                <time>2020-08-22T08:52:31.000Z</time>
                <name>Trackpoint 481</name>
            </trkpt>
            <trkpt lat="50.1484768" lon="11.0735616">
                <ele>285.0</ele>
                <time>2020-08-22T08:52:33.000Z</time>
                <name>Trackpoint 482</name>
            </trkpt>
            <trkpt lat="50.148464" lon="11.0734704">
                <ele>285.0</ele>
                <time>2020-08-22T08:52:34.000Z</time>
                <name>Trackpoint 483</name>
            </trkpt>
            <trkpt lat="50.1484576" lon="11.0733784">
                <ele>285.0</ele>
                <time>2020-08-22T08:52:35.000Z</time>
                <name>Trackpoint 484</name>
            </trkpt>
            <trkpt lat="50.1484224" lon="11.0732144">
                <ele>283.0</ele>
                <time>2020-08-22T08:52:37.000Z</time>
                <name>Trackpoint 485</name>
            </trkpt>
            <trkpt lat="50.1483872" lon="11.0730448">
                <ele>283.0</ele>
                <time>2020-08-22T08:52:39.000Z</time>
                <name>Trackpoint 486</name>
            </trkpt>
            <trkpt lat="50.1483584" lon="11.07288">
                <ele>282.0</ele>
                <time>2020-08-22T08:52:41.000Z</time>
                <name>Trackpoint 487</name>
            </trkpt>
            <trkpt lat="50.1483488" lon="11.07278">
                <ele>282.0</ele>
                <time>2020-08-22T08:52:42.000Z</time>
                <name>Trackpoint 488</name>
            </trkpt>
            <trkpt lat="50.1483104" lon="11.0726232">
                <ele>282.0</ele>
                <time>2020-08-22T08:52:44.000Z</time>
                <name>Trackpoint 489</name>
            </trkpt>
            <trkpt lat="50.1482848" lon="11.0724552">
                <ele>282.0</ele>
                <time>2020-08-22T08:52:46.000Z</time>
                <name>Trackpoint 490</name>
            </trkpt>
            <trkpt lat="50.1482496" lon="11.0723064">
                <ele>282.0</ele>
                <time>2020-08-22T08:52:48.000Z</time>
                <name>Trackpoint 491</name>
            </trkpt>
            <trkpt lat="50.1482176" lon="11.0721528">
                <ele>282.0</ele>
                <time>2020-08-22T08:52:50.000Z</time>
                <name>Trackpoint 492</name>
            </trkpt>
            <trkpt lat="50.1481856" lon="11.0719672">
                <ele>281.0</ele>
                <time>2020-08-22T08:52:52.000Z</time>
                <name>Trackpoint 493</name>
            </trkpt>
            <trkpt lat="50.1481504" lon="11.0718144">
                <ele>282.0</ele>
                <time>2020-08-22T08:52:54.000Z</time>
                <name>Trackpoint 494</name>
            </trkpt>
            <trkpt lat="50.148112" lon="11.07166">
                <ele>282.0</ele>
                <time>2020-08-22T08:52:56.000Z</time>
                <name>Trackpoint 495</name>
            </trkpt>
            <trkpt lat="50.1481088" lon="11.0715664">
                <ele>281.0</ele>
                <time>2020-08-22T08:52:57.000Z</time>
                <name>Trackpoint 496</name>
            </trkpt>
            <trkpt lat="50.1480736" lon="11.0714064">
                <ele>282.0</ele>
                <time>2020-08-22T08:52:59.000Z</time>
                <name>Trackpoint 497</name>
            </trkpt>
            <trkpt lat="50.1480416" lon="11.071252">
                <ele>282.0</ele>
                <time>2020-08-22T08:53:01.000Z</time>
                <name>Trackpoint 498</name>
            </trkpt>
            <trkpt lat="50.1480064" lon="11.0711024">
                <ele>283.0</ele>
                <time>2020-08-22T08:53:03.000Z</time>
                <name>Trackpoint 499</name>
            </trkpt>
            <trkpt lat="50.1479712" lon="11.070956">
                <ele>285.0</ele>
                <time>2020-08-22T08:53:05.000Z</time>
                <name>Trackpoint 500</name>
            </trkpt>
            <trkpt lat="50.1479424" lon="11.0708016">
                <ele>284.0</ele>
                <time>2020-08-22T08:53:07.000Z</time>
                <name>Trackpoint 501</name>
            </trkpt>
            <trkpt lat="50.1479104" lon="11.0706568">
                <ele>284.0</ele>
                <time>2020-08-22T08:53:09.000Z</time>
                <name>Trackpoint 502</name>
            </trkpt>
            <trkpt lat="50.147888" lon="11.0705232">
                <ele>284.0</ele>
                <time>2020-08-22T08:53:11.000Z</time>
                <name>Trackpoint 503</name>
            </trkpt>
            <trkpt lat="50.1478752" lon="11.0704216">
                <ele>283.0</ele>
                <time>2020-08-22T08:53:13.000Z</time>
                <name>Trackpoint 504</name>
            </trkpt>
            <trkpt lat="50.1478528" lon="11.0703224">
                <ele>283.0</ele>
                <time>2020-08-22T08:53:17.000Z</time>
                <name>Trackpoint 505</name>
            </trkpt>
            <trkpt lat="50.1478496" lon="11.0702248">
                <ele>283.0</ele>
                <time>2020-08-22T08:53:45.000Z</time>
                <name>Trackpoint 506</name>
            </trkpt>
            <trkpt lat="50.1478304" lon="11.070084">
                <ele>283.0</ele>
                <time>2020-08-22T08:53:48.000Z</time>
                <name>Trackpoint 507</name>
            </trkpt>
            <trkpt lat="50.1477952" lon="11.0699432">
                <ele>283.0</ele>
                <time>2020-08-22T08:53:51.000Z</time>
                <name>Trackpoint 508</name>
            </trkpt>
            <trkpt lat="50.1477696" lon="11.069832">
                <ele>283.0</ele>
                <time>2020-08-22T08:53:53.000Z</time>
                <name>Trackpoint 509</name>
            </trkpt>
            <trkpt lat="50.147744" lon="11.0697296">
                <ele>283.0</ele>
                <time>2020-08-22T08:53:55.000Z</time>
                <name>Trackpoint 510</name>
            </trkpt>
            <trkpt lat="50.1477152" lon="11.0696048">
                <ele>283.0</ele>
                <time>2020-08-22T08:53:57.000Z</time>
                <name>Trackpoint 511</name>
            </trkpt>
            <trkpt lat="50.147696" lon="11.0694352">
                <ele>282.0</ele>
                <time>2020-08-22T08:53:59.000Z</time>
                <name>Trackpoint 512</name>
            </trkpt>
            <trkpt lat="50.1476736" lon="11.0693128">
                <ele>283.0</ele>
                <time>2020-08-22T08:54:01.000Z</time>
                <name>Trackpoint 513</name>
            </trkpt>
            <trkpt lat="50.1476416" lon="11.0691928">
                <ele>283.0</ele>
                <time>2020-08-22T08:54:03.000Z</time>
                <name>Trackpoint 514</name>
            </trkpt>
            <trkpt lat="50.1476096" lon="11.0690536">
                <ele>283.0</ele>
                <time>2020-08-22T08:54:05.000Z</time>
                <name>Trackpoint 515</name>
            </trkpt>
            <trkpt lat="50.1475744" lon="11.0689184">
                <ele>283.0</ele>
                <time>2020-08-22T08:54:07.000Z</time>
                <name>Trackpoint 516</name>
            </trkpt>
            <trkpt lat="50.1475488" lon="11.0687768">
                <ele>282.0</ele>
                <time>2020-08-22T08:54:09.000Z</time>
                <name>Trackpoint 517</name>
            </trkpt>
            <trkpt lat="50.1474976" lon="11.0686952">
                <ele>282.0</ele>
                <time>2020-08-22T08:54:11.000Z</time>
                <name>Trackpoint 518</name>
            </trkpt>
            <trkpt lat="50.1474624" lon="11.0685584">
                <ele>282.0</ele>
                <time>2020-08-22T08:54:13.000Z</time>
                <name>Trackpoint 519</name>
            </trkpt>
            <trkpt lat="50.1474272" lon="11.0684344">
                <ele>282.0</ele>
                <time>2020-08-22T08:54:15.000Z</time>
                <name>Trackpoint 520</name>
            </trkpt>
            <trkpt lat="50.1473888" lon="11.0683336">
                <ele>283.0</ele>
                <time>2020-08-22T08:54:17.000Z</time>
                <name>Trackpoint 521</name>
            </trkpt>
            <trkpt lat="50.1473632" lon="11.0682336">
                <ele>283.0</ele>
                <time>2020-08-22T08:54:19.000Z</time>
                <name>Trackpoint 522</name>
            </trkpt>
            <trkpt lat="50.1473376" lon="11.0681288">
                <ele>283.0</ele>
                <time>2020-08-22T08:54:21.000Z</time>
                <name>Trackpoint 523</name>
            </trkpt>
            <trkpt lat="50.147328" lon="11.0680312">
                <ele>282.0</ele>
                <time>2020-08-22T08:54:23.000Z</time>
                <name>Trackpoint 524</name>
            </trkpt>
            <trkpt lat="50.1472896" lon="11.0679264">
                <ele>280.0</ele>
                <time>2020-08-22T08:54:44.000Z</time>
                <name>Trackpoint 525</name>
            </trkpt>
            <trkpt lat="50.1472544" lon="11.0678056">
                <ele>280.0</ele>
                <time>2020-08-22T08:54:48.000Z</time>
                <name>Trackpoint 526</name>
            </trkpt>
            <trkpt lat="50.147232" lon="11.0677048">
                <ele>279.0</ele>
                <time>2020-08-22T08:54:50.000Z</time>
                <name>Trackpoint 527</name>
            </trkpt>
            <trkpt lat="50.1472" lon="11.0675768">
                <ele>279.0</ele>
                <time>2020-08-22T08:54:52.000Z</time>
                <name>Trackpoint 528</name>
            </trkpt>
            <trkpt lat="50.1471872" lon="11.0674232">
                <ele>279.0</ele>
                <time>2020-08-22T08:54:54.000Z</time>
                <name>Trackpoint 529</name>
            </trkpt>
            <trkpt lat="50.1471392" lon="11.0672912">
                <ele>279.0</ele>
                <time>2020-08-22T08:54:56.000Z</time>
                <name>Trackpoint 530</name>
            </trkpt>
            <trkpt lat="50.1470976" lon="11.0671552">
                <ele>280.0</ele>
                <time>2020-08-22T08:54:58.000Z</time>
                <name>Trackpoint 531</name>
            </trkpt>
            <trkpt lat="50.1470592" lon="11.0670248">
                <ele>280.0</ele>
                <time>2020-08-22T08:55:00.000Z</time>
                <name>Trackpoint 532</name>
            </trkpt>
            <trkpt lat="50.1470368" lon="11.066908">
                <ele>280.0</ele>
                <time>2020-08-22T08:55:02.000Z</time>
                <name>Trackpoint 533</name>
            </trkpt>
            <trkpt lat="50.1470208" lon="11.0668064">
                <ele>281.0</ele>
                <time>2020-08-22T08:55:05.000Z</time>
                <name>Trackpoint 534</name>
            </trkpt>
            <trkpt lat="50.1470208" lon="11.0666912">
                <ele>278.0</ele>
                <time>2020-08-22T08:55:10.000Z</time>
                <name>Trackpoint 535</name>
            </trkpt>
            <trkpt lat="50.1469792" lon="11.0665864">
                <ele>277.0</ele>
                <time>2020-08-22T09:07:23.000Z</time>
                <name>Trackpoint 536</name>
            </trkpt>
            <trkpt lat="50.1469792" lon="11.0664584">
                <ele>277.0</ele>
                <time>2020-08-22T09:07:27.000Z</time>
                <name>Trackpoint 537</name>
            </trkpt>
            <trkpt lat="50.1469536" lon="11.0663568">
                <ele>277.0</ele>
                <time>2020-08-22T09:07:29.000Z</time>
                <name>Trackpoint 538</name>
            </trkpt>
            <trkpt lat="50.1469024" lon="11.0662472">
                <ele>277.0</ele>
                <time>2020-08-22T09:07:31.000Z</time>
                <name>Trackpoint 539</name>
            </trkpt>
            <trkpt lat="50.1468352" lon="11.0660984">
                <ele>277.0</ele>
                <time>2020-08-22T09:07:33.000Z</time>
                <name>Trackpoint 540</name>
            </trkpt>
            <trkpt lat="50.146768" lon="11.0659568">
                <ele>277.0</ele>
                <time>2020-08-22T09:07:35.000Z</time>
                <name>Trackpoint 541</name>
            </trkpt>
            <trkpt lat="50.1467072" lon="11.0658032">
                <ele>277.0</ele>
                <time>2020-08-22T09:07:37.000Z</time>
                <name>Trackpoint 542</name>
            </trkpt>
            <trkpt lat="50.1466336" lon="11.065668">
                <ele>277.0</ele>
                <time>2020-08-22T09:07:39.000Z</time>
                <name>Trackpoint 543</name>
            </trkpt>
            <trkpt lat="50.1465696" lon="11.065512">
                <ele>277.0</ele>
                <time>2020-08-22T09:07:41.000Z</time>
                <name>Trackpoint 544</name>
            </trkpt>
            <trkpt lat="50.1465344" lon="11.0654232">
                <ele>277.0</ele>
                <time>2020-08-22T09:07:42.000Z</time>
                <name>Trackpoint 545</name>
            </trkpt>
            <trkpt lat="50.1464736" lon="11.0652616">
                <ele>277.0</ele>
                <time>2020-08-22T09:07:44.000Z</time>
                <name>Trackpoint 546</name>
            </trkpt>
            <trkpt lat="50.1464224" lon="11.0651128">
                <ele>277.0</ele>
                <time>2020-08-22T09:07:46.000Z</time>
                <name>Trackpoint 547</name>
            </trkpt>
            <trkpt lat="50.1463744" lon="11.0649832">
                <ele>277.0</ele>
                <time>2020-08-22T09:07:48.000Z</time>
                <name>Trackpoint 548</name>
            </trkpt>
            <trkpt lat="50.146336" lon="11.0648568">
                <ele>277.0</ele>
                <time>2020-08-22T09:07:50.000Z</time>
                <name>Trackpoint 549</name>
            </trkpt>
            <trkpt lat="50.1463008" lon="11.0647424">
                <ele>277.0</ele>
                <time>2020-08-22T09:07:52.000Z</time>
                <name>Trackpoint 550</name>
            </trkpt>
            <trkpt lat="50.1462656" lon="11.0646248">
                <ele>277.0</ele>
                <time>2020-08-22T09:07:54.000Z</time>
                <name>Trackpoint 551</name>
            </trkpt>
            <trkpt lat="50.14624" lon="11.0645136">
                <ele>277.0</ele>
                <time>2020-08-22T09:07:56.000Z</time>
                <name>Trackpoint 552</name>
            </trkpt>
            <trkpt lat="50.1462272" lon="11.064388">
                <ele>277.0</ele>
                <time>2020-08-22T09:07:58.000Z</time>
                <name>Trackpoint 553</name>
            </trkpt>
            <trkpt lat="50.1462624" lon="11.0642016">
                <ele>277.0</ele>
                <time>2020-08-22T09:08:00.000Z</time>
                <name>Trackpoint 554</name>
            </trkpt>
            <trkpt lat="50.146256" lon="11.064056">
                <ele>277.0</ele>
                <time>2020-08-22T09:08:02.000Z</time>
                <name>Trackpoint 555</name>
            </trkpt>
            <trkpt lat="50.14624" lon="11.0639432">
                <ele>277.0</ele>
                <time>2020-08-22T09:08:05.000Z</time>
                <name>Trackpoint 556</name>
            </trkpt>
            <trkpt lat="50.14624" lon="11.0638464">
                <ele>278.0</ele>
                <time>2020-08-22T09:08:11.000Z</time>
                <name>Trackpoint 557</name>
            </trkpt>
            <trkpt lat="50.1461952" lon="11.0637512">
                <ele>278.0</ele>
                <time>2020-08-22T09:09:51.000Z</time>
                <name>Trackpoint 558</name>
            </trkpt>
            <trkpt lat="50.1461344" lon="11.0636568">
                <ele>278.0</ele>
                <time>2020-08-22T09:09:54.000Z</time>
                <name>Trackpoint 559</name>
            </trkpt>
            <trkpt lat="50.14608" lon="11.0635568">
                <ele>277.0</ele>
                <time>2020-08-22T09:09:57.000Z</time>
                <name>Trackpoint 560</name>
            </trkpt>
            <trkpt lat="50.146016" lon="11.06346">
                <ele>277.0</ele>
                <time>2020-08-22T09:10:00.000Z</time>
                <name>Trackpoint 561</name>
            </trkpt>
            <trkpt lat="50.145936" lon="11.0633648">
                <ele>277.0</ele>
                <time>2020-08-22T09:10:03.000Z</time>
                <name>Trackpoint 562</name>
            </trkpt>
            <trkpt lat="50.1459456" lon="11.0631912">
                <ele>277.0</ele>
                <time>2020-08-22T09:10:05.000Z</time>
                <name>Trackpoint 563</name>
            </trkpt>
            <trkpt lat="50.145904" lon="11.0631104">
                <ele>277.0</ele>
                <time>2020-08-22T09:10:08.000Z</time>
                <name>Trackpoint 564</name>
            </trkpt>
            <trkpt lat="50.1458496" lon="11.0629968">
                <ele>277.0</ele>
                <time>2020-08-22T09:10:11.000Z</time>
                <name>Trackpoint 565</name>
            </trkpt>
            <trkpt lat="50.1458016" lon="11.0628928">
                <ele>277.0</ele>
                <time>2020-08-22T09:10:14.000Z</time>
                <name>Trackpoint 566</name>
            </trkpt>
            <trkpt lat="50.1457376" lon="11.0627944">
                <ele>277.0</ele>
                <time>2020-08-22T09:10:17.000Z</time>
                <name>Trackpoint 567</name>
            </trkpt>
            <trkpt lat="50.1456832" lon="11.062712">
                <ele>277.0</ele>
                <time>2020-08-22T09:10:20.000Z</time>
                <name>Trackpoint 568</name>
            </trkpt>
            <trkpt lat="50.145648" lon="11.06262">
                <ele>277.0</ele>
                <time>2020-08-22T09:10:23.000Z</time>
                <name>Trackpoint 569</name>
            </trkpt>
            <trkpt lat="50.1455776" lon="11.0625152">
                <ele>277.0</ele>
                <time>2020-08-22T09:10:26.000Z</time>
                <name>Trackpoint 570</name>
            </trkpt>
            <trkpt lat="50.1455488" lon="11.0624288">
                <ele>277.0</ele>
                <time>2020-08-22T09:10:28.000Z</time>
                <name>Trackpoint 571</name>
            </trkpt>
            <trkpt lat="50.1455072" lon="11.0623376">
                <ele>277.0</ele>
                <time>2020-08-22T09:10:30.000Z</time>
                <name>Trackpoint 572</name>
            </trkpt>
            <trkpt lat="50.1454848" lon="11.0622304">
                <ele>277.0</ele>
                <time>2020-08-22T09:10:32.000Z</time>
                <name>Trackpoint 573</name>
            </trkpt>
            <trkpt lat="50.1454368" lon="11.0621136">
                <ele>277.0</ele>
                <time>2020-08-22T09:10:35.000Z</time>
                <name>Trackpoint 574</name>
            </trkpt>
            <trkpt lat="50.1454208" lon="11.06202">
                <ele>277.0</ele>
                <time>2020-08-22T09:10:38.000Z</time>
                <name>Trackpoint 575</name>
            </trkpt>
            <trkpt lat="50.1454048" lon="11.0619184">
                <ele>277.0</ele>
                <time>2020-08-22T09:10:45.000Z</time>
                <name>Trackpoint 576</name>
            </trkpt>
            <trkpt lat="50.1453008" lon="11.0617547">
                <ele>283.0</ele>
                <time>2020-08-22T09:21:23.000Z</time>
                <name>Trackpoint 586</name>
            </trkpt>
            <trkpt lat="50.1452525" lon="11.0616211">
                <ele>283.0</ele>
                <time>2020-08-22T09:21:26.000Z</time>
                <name>Trackpoint 587</name>
            </trkpt>
            <trkpt lat="50.1452203" lon="11.0615377">
                <ele>283.0</ele>
                <time>2020-08-22T09:21:29.000Z</time>
                <name>Trackpoint 588</name>
            </trkpt>
            <trkpt lat="50.1451898" lon="11.0614763">
                <ele>283.0</ele>
                <time>2020-08-22T09:21:32.000Z</time>
                <name>Trackpoint 589</name>
            </trkpt>
            <trkpt lat="50.1451744" lon="11.061428">
                <ele>283.0</ele>
                <time>2020-08-22T09:21:36.000Z</time>
                <name>Trackpoint 590</name>
            </trkpt>
            <trkpt lat="50.1451354" lon="11.0612812">
                <ele>283.0</ele>
                <time>2020-08-22T09:21:39.000Z</time>
                <name>Trackpoint 591</name>
            </trkpt>
            <trkpt lat="50.145085" lon="11.0610608">
                <ele>283.0</ele>
                <time>2020-08-22T09:21:43.000Z</time>
                <name>Trackpoint 593</name>
            </trkpt>
            <trkpt lat="50.145033" lon="11.0608413">
                <ele>283.0</ele>
                <time>2020-08-22T09:21:47.000Z</time>
                <name>Trackpoint 595</name>
            </trkpt>
            <trkpt lat="50.1449728" lon="11.0606272">
                <ele>283.0</ele>
                <time>2020-08-22T09:21:51.000Z</time>
                <name>Trackpoint 597</name>
            </trkpt>
            <trkpt lat="50.1449152" lon="11.0605184">
                <ele>283.0</ele>
                <time>2020-08-22T09:21:53.000Z</time>
                <name>Trackpoint 598</name>
            </trkpt>
            <trkpt lat="50.144896" lon="11.0603488">
                <ele>283.0</ele>
                <time>2020-08-22T09:21:55.000Z</time>
                <name>Trackpoint 599</name>
            </trkpt>
            <trkpt lat="50.144896" lon="11.0602552">
                <ele>283.0</ele>
                <time>2020-08-22T09:21:56.000Z</time>
                <name>Trackpoint 600</name>
            </trkpt>
            <trkpt lat="50.1448896" lon="11.0600768">
                <ele>283.0</ele>
                <time>2020-08-22T09:21:58.000Z</time>
                <name>Trackpoint 601</name>
            </trkpt>
            <trkpt lat="50.1448544" lon="11.05992">
                <ele>283.0</ele>
                <time>2020-08-22T09:22:00.000Z</time>
                <name>Trackpoint 602</name>
            </trkpt>
            <trkpt lat="50.144832" lon="11.0597984">
                <ele>283.0</ele>
                <time>2020-08-22T09:22:02.000Z</time>
                <name>Trackpoint 603</name>
            </trkpt>
            <trkpt lat="50.1448128" lon="11.0596904">
                <ele>283.0</ele>
                <time>2020-08-22T09:22:04.000Z</time>
                <name>Trackpoint 604</name>
            </trkpt>
            <trkpt lat="50.144784" lon="11.0595768">
                <ele>283.0</ele>
                <time>2020-08-22T09:22:06.000Z</time>
                <name>Trackpoint 605</name>
            </trkpt>
            <trkpt lat="50.1447424" lon="11.0594528">
                <ele>283.0</ele>
                <time>2020-08-22T09:22:08.000Z</time>
                <name>Trackpoint 606</name>
            </trkpt>
            <trkpt lat="50.1447104" lon="11.059328">
                <ele>283.0</ele>
                <time>2020-08-22T09:22:10.000Z</time>
                <name>Trackpoint 607</name>
            </trkpt>
            <trkpt lat="50.1446848" lon="11.0592184">
                <ele>282.0</ele>
                <time>2020-08-22T09:22:12.000Z</time>
                <name>Trackpoint 608</name>
            </trkpt>
            <trkpt lat="50.144656" lon="11.0591272">
                <ele>281.0</ele>
                <time>2020-08-22T09:22:15.000Z</time>
                <name>Trackpoint 609</name>
            </trkpt>
            <trkpt lat="50.1446144" lon="11.059036">
                <ele>281.0</ele>
                <time>2020-08-22T09:22:21.000Z</time>
                <name>Trackpoint 610</name>
            </trkpt>
            <trkpt lat="50.1445632" lon="11.0589512">
                <ele>281.0</ele>
                <time>2020-08-22T09:23:29.000Z</time>
                <name>Trackpoint 611</name>
            </trkpt>
            <trkpt lat="50.1445344" lon="11.05884">
                <ele>281.0</ele>
                <time>2020-08-22T09:23:31.000Z</time>
                <name>Trackpoint 612</name>
            </trkpt>
            <trkpt lat="50.1445248" lon="11.0587416">
                <ele>281.0</ele>
                <time>2020-08-22T09:23:32.000Z</time>
                <name>Trackpoint 613</name>
            </trkpt>
            <trkpt lat="50.144512" lon="11.058652">
                <ele>281.0</ele>
                <time>2020-08-22T09:23:33.000Z</time>
                <name>Trackpoint 614</name>
            </trkpt>
            <trkpt lat="50.144496" lon="11.0585632">
                <ele>281.0</ele>
                <time>2020-08-22T09:23:34.000Z</time>
                <name>Trackpoint 615</name>
            </trkpt>
            <trkpt lat="50.1444864" lon="11.0584736">
                <ele>281.0</ele>
                <time>2020-08-22T09:23:35.000Z</time>
                <name>Trackpoint 616</name>
            </trkpt>
            <trkpt lat="50.1444672" lon="11.0583032">
                <ele>281.0</ele>
                <time>2020-08-22T09:23:37.000Z</time>
                <name>Trackpoint 617</name>
            </trkpt>
            <trkpt lat="50.1444448" lon="11.0581352">
                <ele>281.0</ele>
                <time>2020-08-22T09:23:39.000Z</time>
                <name>Trackpoint 618</name>
            </trkpt>
            <trkpt lat="50.1444064" lon="11.0580104">
                <ele>281.0</ele>
                <time>2020-08-22T09:23:41.000Z</time>
                <name>Trackpoint 619</name>
            </trkpt>
            <trkpt lat="50.144368" lon="11.0579136">
                <ele>281.0</ele>
                <time>2020-08-22T09:23:43.000Z</time>
                <name>Trackpoint 620</name>
            </trkpt>
            <trkpt lat="50.1443552" lon="11.05782">
                <ele>281.0</ele>
                <time>2020-08-22T09:23:44.000Z</time>
                <name>Trackpoint 621</name>
            </trkpt>
            <trkpt lat="50.144352" lon="11.0577224">
                <ele>281.0</ele>
                <time>2020-08-22T09:23:45.000Z</time>
                <name>Trackpoint 622</name>
            </trkpt>
            <trkpt lat="50.1443488" lon="11.0576264">
                <ele>281.0</ele>
                <time>2020-08-22T09:23:46.000Z</time>
                <name>Trackpoint 623</name>
            </trkpt>
            <trkpt lat="50.1443456" lon="11.0575352">
                <ele>281.0</ele>
                <time>2020-08-22T09:23:47.000Z</time>
                <name>Trackpoint 624</name>
            </trkpt>
            <trkpt lat="50.144336" lon="11.057444">
                <ele>281.0</ele>
                <time>2020-08-22T09:23:48.000Z</time>
                <name>Trackpoint 625</name>
            </trkpt>
            <trkpt lat="50.14432" lon="11.057288">
                <ele>281.0</ele>
                <time>2020-08-22T09:23:50.000Z</time>
                <name>Trackpoint 626</name>
            </trkpt>
            <trkpt lat="50.1443264" lon="11.0571248">
                <ele>281.0</ele>
                <time>2020-08-22T09:23:52.000Z</time>
                <name>Trackpoint 627</name>
            </trkpt>
            <trkpt lat="50.1443328" lon="11.0569896">
                <ele>281.0</ele>
                <time>2020-08-22T09:23:53.000Z</time>
                <name>Trackpoint 628</name>
            </trkpt>
            <trkpt lat="50.1443136" lon="11.056824">
                <ele>281.0</ele>
                <time>2020-08-22T09:23:55.000Z</time>
                <name>Trackpoint 629</name>
            </trkpt>
            <trkpt lat="50.1442944" lon="11.0566584">
                <ele>281.0</ele>
                <time>2020-08-22T09:23:57.000Z</time>
                <name>Trackpoint 630</name>
            </trkpt>
            <trkpt lat="50.1442656" lon="11.0565144">
                <ele>281.0</ele>
                <time>2020-08-22T09:23:59.000Z</time>
                <name>Trackpoint 631</name>
            </trkpt>
            <trkpt lat="50.1442464" lon="11.0564016">
                <ele>281.0</ele>
                <time>2020-08-22T09:24:01.000Z</time>
                <name>Trackpoint 632</name>
            </trkpt>
            <trkpt lat="50.14416" lon="11.05632">
                <ele>281.0</ele>
                <time>2020-08-22T09:24:33.000Z</time>
                <name>Trackpoint 633</name>
            </trkpt>
            <trkpt lat="50.1440896" lon="11.0562296">
                <ele>281.0</ele>
                <time>2020-08-22T09:24:38.000Z</time>
                <name>Trackpoint 634</name>
            </trkpt>
            <trkpt lat="50.1440224" lon="11.0561048">
                <ele>281.0</ele>
                <time>2020-08-22T09:24:41.000Z</time>
                <name>Trackpoint 635</name>
            </trkpt>
            <trkpt lat="50.1439712" lon="11.056008">
                <ele>281.0</ele>
                <time>2020-08-22T09:24:43.000Z</time>
                <name>Trackpoint 636</name>
            </trkpt>
            <trkpt lat="50.1439168" lon="11.0559128">
                <ele>281.0</ele>
                <time>2020-08-22T09:24:45.000Z</time>
                <name>Trackpoint 637</name>
            </trkpt>
            <trkpt lat="50.143856" lon="11.055828">
                <ele>281.0</ele>
                <time>2020-08-22T09:24:47.000Z</time>
                <name>Trackpoint 638</name>
            </trkpt>
            <trkpt lat="50.1437952" lon="11.0557416">
                <ele>281.0</ele>
                <time>2020-08-22T09:24:49.000Z</time>
                <name>Trackpoint 639</name>
            </trkpt>
            <trkpt lat="50.1437376" lon="11.0556568">
                <ele>281.0</ele>
                <time>2020-08-22T09:24:51.000Z</time>
                <name>Trackpoint 640</name>
            </trkpt>
            <trkpt lat="50.1436768" lon="11.0555512">
                <ele>281.0</ele>
                <time>2020-08-22T09:24:54.000Z</time>
                <name>Trackpoint 641</name>
            </trkpt>
            <trkpt lat="50.1436224" lon="11.0554616">
                <ele>281.0</ele>
                <time>2020-08-22T09:25:01.000Z</time>
                <name>Trackpoint 642</name>
            </trkpt>
            <trkpt lat="50.14352" lon="11.055384">
                <ele>279.0</ele>
                <time>2020-08-22T09:27:05.000Z</time>
                <name>Trackpoint 643</name>
            </trkpt>
            <trkpt lat="50.1434592" lon="11.055292">
                <ele>278.0</ele>
                <time>2020-08-22T09:27:11.000Z</time>
                <name>Trackpoint 644</name>
            </trkpt>
            <trkpt lat="50.1433728" lon="11.0553504">
                <ele>278.0</ele>
                <time>2020-08-22T09:27:38.000Z</time>
                <name>Trackpoint 645</name>
            </trkpt>
            <trkpt lat="50.1433984" lon="11.055464">
                <ele>277.0</ele>
                <time>2020-08-22T09:27:42.000Z</time>
                <name>Trackpoint 646</name>
            </trkpt>
            <trkpt lat="50.1433856" lon="11.0555552">
                <ele>277.0</ele>
                <time>2020-08-22T09:27:45.000Z</time>
                <name>Trackpoint 647</name>
            </trkpt>
            <trkpt lat="50.143344" lon="11.0556352">
                <ele>278.0</ele>
                <time>2020-08-22T09:27:49.000Z</time>
                <name>Trackpoint 648</name>
            </trkpt>
            <trkpt lat="50.1432928" lon="11.0557216">
                <ele>275.0</ele>
                <time>2020-08-22T09:28:26.000Z</time>
                <name>Trackpoint 649</name>
            </trkpt>
            <trkpt lat="50.1432192" lon="11.0558384">
                <ele>275.0</ele>
                <time>2020-08-22T09:28:29.000Z</time>
                <name>Trackpoint 650</name>
            </trkpt>
            <trkpt lat="50.1431616" lon="11.0559432">
                <ele>275.0</ele>
                <time>2020-08-22T09:28:31.000Z</time>
                <name>Trackpoint 651</name>
            </trkpt>
            <trkpt lat="50.1431072" lon="11.0560512">
                <ele>275.0</ele>
                <time>2020-08-22T09:28:33.000Z</time>
                <name>Trackpoint 652</name>
            </trkpt>
            <trkpt lat="50.1430368" lon="11.0561616">
                <ele>275.0</ele>
                <time>2020-08-22T09:28:35.000Z</time>
                <name>Trackpoint 653</name>
            </trkpt>
            <trkpt lat="50.1429664" lon="11.0562784">
                <ele>275.0</ele>
                <time>2020-08-22T09:28:37.000Z</time>
                <name>Trackpoint 654</name>
            </trkpt>
            <trkpt lat="50.1429024" lon="11.0564072">
                <ele>275.0</ele>
                <time>2020-08-22T09:28:39.000Z</time>
                <name>Trackpoint 655</name>
            </trkpt>
            <trkpt lat="50.142816" lon="11.0565032">
                <ele>275.0</ele>
                <time>2020-08-22T09:28:41.000Z</time>
                <name>Trackpoint 656</name>
            </trkpt>
            <trkpt lat="50.1427392" lon="11.0566232">
                <ele>275.0</ele>
                <time>2020-08-22T09:28:43.000Z</time>
                <name>Trackpoint 657</name>
            </trkpt>
            <trkpt lat="50.142656" lon="11.05676">
                <ele>275.0</ele>
                <time>2020-08-22T09:28:45.000Z</time>
                <name>Trackpoint 658</name>
            </trkpt>
            <trkpt lat="50.1425792" lon="11.05688">
                <ele>275.0</ele>
                <time>2020-08-22T09:28:47.000Z</time>
                <name>Trackpoint 659</name>
            </trkpt>
            <trkpt lat="50.1425024" lon="11.057">
                <ele>275.0</ele>
                <time>2020-08-22T09:28:49.000Z</time>
                <name>Trackpoint 660</name>
            </trkpt>
            <trkpt lat="50.1424256" lon="11.0571184">
                <ele>275.0</ele>
                <time>2020-08-22T09:28:51.000Z</time>
                <name>Trackpoint 661</name>
            </trkpt>
            <trkpt lat="50.1423584" lon="11.0572272">
                <ele>275.0</ele>
                <time>2020-08-22T09:28:53.000Z</time>
                <name>Trackpoint 662</name>
            </trkpt>
            <trkpt lat="50.1422752" lon="11.05734">
                <ele>275.0</ele>
                <time>2020-08-22T09:28:55.000Z</time>
                <name>Trackpoint 663</name>
            </trkpt>
            <trkpt lat="50.1422048" lon="11.0574568">
                <ele>274.0</ele>
                <time>2020-08-22T09:28:57.000Z</time>
                <name>Trackpoint 664</name>
            </trkpt>
            <trkpt lat="50.1421408" lon="11.0575912">
                <ele>274.0</ele>
                <time>2020-08-22T09:28:59.000Z</time>
                <name>Trackpoint 665</name>
            </trkpt>
            <trkpt lat="50.1420736" lon="11.057716">
                <ele>274.0</ele>
                <time>2020-08-22T09:29:01.000Z</time>
                <name>Trackpoint 666</name>
            </trkpt>
            <trkpt lat="50.1419968" lon="11.0578296">
                <ele>274.0</ele>
                <time>2020-08-22T09:29:03.000Z</time>
                <name>Trackpoint 667</name>
            </trkpt>
            <trkpt lat="50.1419264" lon="11.0579384">
                <ele>274.0</ele>
                <time>2020-08-22T09:29:05.000Z</time>
                <name>Trackpoint 668</name>
            </trkpt>
            <trkpt lat="50.141856" lon="11.05806">
                <ele>274.0</ele>
                <time>2020-08-22T09:29:07.000Z</time>
                <name>Trackpoint 669</name>
            </trkpt>
            <trkpt lat="50.1417888" lon="11.0581936">
                <ele>274.0</ele>
                <time>2020-08-22T09:29:09.000Z</time>
                <name>Trackpoint 670</name>
            </trkpt>
            <trkpt lat="50.1417088" lon="11.0583296">
                <ele>274.0</ele>
                <time>2020-08-22T09:29:11.000Z</time>
                <name>Trackpoint 671</name>
            </trkpt>
            <trkpt lat="50.1416448" lon="11.0584568">
                <ele>274.0</ele>
                <time>2020-08-22T09:29:13.000Z</time>
                <name>Trackpoint 672</name>
            </trkpt>
            <trkpt lat="50.1415744" lon="11.0585696">
                <ele>274.0</ele>
                <time>2020-08-22T09:29:15.000Z</time>
                <name>Trackpoint 673</name>
            </trkpt>
            <trkpt lat="50.141472" lon="11.0585816">
                <ele>274.0</ele>
                <time>2020-08-22T09:29:17.000Z</time>
                <name>Trackpoint 674</name>
            </trkpt>
            <trkpt lat="50.1413728" lon="11.0585184">
                <ele>273.0</ele>
                <time>2020-08-22T09:29:19.000Z</time>
                <name>Trackpoint 675</name>
            </trkpt>
            <trkpt lat="50.1412928" lon="11.05844">
                <ele>273.0</ele>
                <time>2020-08-22T09:29:21.000Z</time>
                <name>Trackpoint 676</name>
            </trkpt>
            <trkpt lat="50.1412128" lon="11.0583664">
                <ele>273.0</ele>
                <time>2020-08-22T09:29:23.000Z</time>
                <name>Trackpoint 677</name>
            </trkpt>
            <trkpt lat="50.1411488" lon="11.058296">
                <ele>272.0</ele>
                <time>2020-08-22T09:29:25.000Z</time>
                <name>Trackpoint 678</name>
            </trkpt>
            <trkpt lat="50.1410752" lon="11.0582264">
                <ele>272.0</ele>
                <time>2020-08-22T09:29:27.000Z</time>
                <name>Trackpoint 679</name>
            </trkpt>
            <trkpt lat="50.141008" lon="11.0581648">
                <ele>271.0</ele>
                <time>2020-08-22T09:29:29.000Z</time>
                <name>Trackpoint 680</name>
            </trkpt>
            <trkpt lat="50.1409344" lon="11.058108">
                <ele>271.0</ele>
                <time>2020-08-22T09:29:31.000Z</time>
                <name>Trackpoint 681</name>
            </trkpt>
            <trkpt lat="50.1408608" lon="11.0580456">
                <ele>272.0</ele>
                <time>2020-08-22T09:29:33.000Z</time>
                <name>Trackpoint 682</name>
            </trkpt>
            <trkpt lat="50.1407808" lon="11.0579928">
                <ele>272.0</ele>
                <time>2020-08-22T09:29:35.000Z</time>
                <name>Trackpoint 683</name>
            </trkpt>
            <trkpt lat="50.140704" lon="11.0579368">
                <ele>273.0</ele>
                <time>2020-08-22T09:29:37.000Z</time>
                <name>Trackpoint 684</name>
            </trkpt>
            <trkpt lat="50.1405952" lon="11.0578744">
                <ele>273.0</ele>
                <time>2020-08-22T09:29:40.000Z</time>
                <name>Trackpoint 685</name>
            </trkpt>
            <trkpt lat="50.1404832" lon="11.0578048">
                <ele>274.0</ele>
                <time>2020-08-22T09:29:43.000Z</time>
                <name>Trackpoint 686</name>
            </trkpt>
            <trkpt lat="50.140368" lon="11.0577496">
                <ele>275.0</ele>
                <time>2020-08-22T09:29:46.000Z</time>
                <name>Trackpoint 687</name>
            </trkpt>
            <trkpt lat="50.140256" lon="11.0577096">
                <ele>274.0</ele>
                <time>2020-08-22T09:29:49.000Z</time>
                <name>Trackpoint 688</name>
            </trkpt>
            <trkpt lat="50.140144" lon="11.0576832">
                <ele>276.0</ele>
                <time>2020-08-22T09:29:52.000Z</time>
                <name>Trackpoint 689</name>
            </trkpt>
            <trkpt lat="50.1400256" lon="11.0576752">
                <ele>276.0</ele>
                <time>2020-08-22T09:29:55.000Z</time>
                <name>Trackpoint 690</name>
            </trkpt>
            <trkpt lat="50.1399104" lon="11.0576712">
                <ele>277.0</ele>
                <time>2020-08-22T09:29:58.000Z</time>
                <name>Trackpoint 691</name>
            </trkpt>
            <trkpt lat="50.1397984" lon="11.0576888">
                <ele>276.0</ele>
                <time>2020-08-22T09:30:01.000Z</time>
                <name>Trackpoint 692</name>
            </trkpt>
            <trkpt lat="50.1396928" lon="11.0577272">
                <ele>277.0</ele>
                <time>2020-08-22T09:30:04.000Z</time>
                <name>Trackpoint 693</name>
            </trkpt>
            <trkpt lat="50.1395936" lon="11.057772">
                <ele>277.0</ele>
                <time>2020-08-22T09:30:07.000Z</time>
                <name>Trackpoint 694</name>
            </trkpt>
            <trkpt lat="50.1394752" lon="11.057852">
                <ele>277.0</ele>
                <time>2020-08-22T09:30:10.000Z</time>
                <name>Trackpoint 695</name>
            </trkpt>
            <trkpt lat="50.139392" lon="11.0578968">
                <ele>278.0</ele>
                <time>2020-08-22T09:30:12.000Z</time>
                <name>Trackpoint 696</name>
            </trkpt>
            <trkpt lat="50.1393056" lon="11.0579416">
                <ele>278.0</ele>
                <time>2020-08-22T09:30:14.000Z</time>
                <name>Trackpoint 697</name>
            </trkpt>
            <trkpt lat="50.1392256" lon="11.0580032">
                <ele>278.0</ele>
                <time>2020-08-22T09:30:16.000Z</time>
                <name>Trackpoint 698</name>
            </trkpt>
            <trkpt lat="50.1391456" lon="11.058068">
                <ele>278.0</ele>
                <time>2020-08-22T09:30:18.000Z</time>
                <name>Trackpoint 699</name>
            </trkpt>
            <trkpt lat="50.1390752" lon="11.0581304">
                <ele>278.0</ele>
                <time>2020-08-22T09:30:20.000Z</time>
                <name>Trackpoint 700</name>
            </trkpt>
            <trkpt lat="50.138976" lon="11.0581976">
                <ele>278.0</ele>
                <time>2020-08-22T09:30:23.000Z</time>
                <name>Trackpoint 701</name>
            </trkpt>
            <trkpt lat="50.138864" lon="11.0582848">
                <ele>279.0</ele>
                <time>2020-08-22T09:30:26.000Z</time>
                <name>Trackpoint 702</name>
            </trkpt>
            <trkpt lat="50.138768" lon="11.0583632">
                <ele>279.0</ele>
                <time>2020-08-22T09:30:29.000Z</time>
                <name>Trackpoint 703</name>
            </trkpt>
            <trkpt lat="50.1386784" lon="11.0584432">
                <ele>279.0</ele>
                <time>2020-08-22T09:30:32.000Z</time>
                <name>Trackpoint 704</name>
            </trkpt>
            <trkpt lat="50.1385952" lon="11.0585168">
                <ele>279.0</ele>
                <time>2020-08-22T09:30:35.000Z</time>
                <name>Trackpoint 705</name>
            </trkpt>
            <trkpt lat="50.1384992" lon="11.0585944">
                <ele>279.0</ele>
                <time>2020-08-22T09:30:38.000Z</time>
                <name>Trackpoint 706</name>
            </trkpt>
            <trkpt lat="50.1384064" lon="11.058672">
                <ele>280.0</ele>
                <time>2020-08-22T09:30:41.000Z</time>
                <name>Trackpoint 707</name>
            </trkpt>
            <trkpt lat="50.138336" lon="11.0587328">
                <ele>280.0</ele>
                <time>2020-08-22T09:30:43.000Z</time>
                <name>Trackpoint 708</name>
            </trkpt>
            <trkpt lat="50.1382688" lon="11.0587968">
                <ele>280.0</ele>
                <time>2020-08-22T09:30:45.000Z</time>
                <name>Trackpoint 709</name>
            </trkpt>
            <trkpt lat="50.138176" lon="11.0588768">
                <ele>280.0</ele>
                <time>2020-08-22T09:30:48.000Z</time>
                <name>Trackpoint 710</name>
            </trkpt>
            <trkpt lat="50.1381024" lon="11.0589464">
                <ele>280.0</ele>
                <time>2020-08-22T09:30:51.000Z</time>
                <name>Trackpoint 711</name>
            </trkpt>
            <trkpt lat="50.138016" lon="11.0590232">
                <ele>280.0</ele>
                <time>2020-08-22T09:30:55.000Z</time>
                <name>Trackpoint 712</name>
            </trkpt>
            <trkpt lat="50.1379328" lon="11.0590936">
                <ele>280.0</ele>
                <time>2020-08-22T09:30:58.000Z</time>
                <name>Trackpoint 713</name>
            </trkpt>
            <trkpt lat="50.1378528" lon="11.0591672">
                <ele>280.0</ele>
                <time>2020-08-22T09:31:01.000Z</time>
                <name>Trackpoint 714</name>
            </trkpt>
            <trkpt lat="50.1377856" lon="11.0592368">
                <ele>280.0</ele>
                <time>2020-08-22T09:31:03.000Z</time>
                <name>Trackpoint 715</name>
            </trkpt>
            <trkpt lat="50.137712" lon="11.0592944">
                <ele>280.0</ele>
                <time>2020-08-22T09:31:05.000Z</time>
                <name>Trackpoint 716</name>
            </trkpt>
            <trkpt lat="50.1376384" lon="11.0593656">
                <ele>281.0</ele>
                <time>2020-08-22T09:31:07.000Z</time>
                <name>Trackpoint 717</name>
            </trkpt>
            <trkpt lat="50.137568" lon="11.0594456">
                <ele>281.0</ele>
                <time>2020-08-22T09:31:09.000Z</time>
                <name>Trackpoint 718</name>
            </trkpt>
            <trkpt lat="50.137504" lon="11.0595248">
                <ele>281.0</ele>
                <time>2020-08-22T09:31:11.000Z</time>
                <name>Trackpoint 719</name>
            </trkpt>
            <trkpt lat="50.13744" lon="11.0596">
                <ele>282.0</ele>
                <time>2020-08-22T09:31:13.000Z</time>
                <name>Trackpoint 720</name>
            </trkpt>
            <trkpt lat="50.1373696" lon="11.0596736">
                <ele>282.0</ele>
                <time>2020-08-22T09:31:15.000Z</time>
                <name>Trackpoint 721</name>
            </trkpt>
            <trkpt lat="50.1373088" lon="11.0597552">
                <ele>282.0</ele>
                <time>2020-08-22T09:31:17.000Z</time>
                <name>Trackpoint 722</name>
            </trkpt>
            <trkpt lat="50.1372416" lon="11.0598296">
                <ele>282.0</ele>
                <time>2020-08-22T09:31:19.000Z</time>
                <name>Trackpoint 723</name>
            </trkpt>
            <trkpt lat="50.1371776" lon="11.0599016">
                <ele>281.0</ele>
                <time>2020-08-22T09:31:21.000Z</time>
                <name>Trackpoint 724</name>
            </trkpt>
            <trkpt lat="50.1371104" lon="11.059992">
                <ele>281.0</ele>
                <time>2020-08-22T09:31:23.000Z</time>
                <name>Trackpoint 725</name>
            </trkpt>
            <trkpt lat="50.1370592" lon="11.0600728">
                <ele>281.0</ele>
                <time>2020-08-22T09:31:25.000Z</time>
                <name>Trackpoint 726</name>
            </trkpt>
            <trkpt lat="50.136992" lon="11.0601464">
                <ele>281.0</ele>
                <time>2020-08-22T09:31:27.000Z</time>
                <name>Trackpoint 727</name>
            </trkpt>
            <trkpt lat="50.1369312" lon="11.0602152">
                <ele>281.0</ele>
                <time>2020-08-22T09:31:29.000Z</time>
                <name>Trackpoint 728</name>
            </trkpt>
            <trkpt lat="50.1368672" lon="11.0603104">
                <ele>281.0</ele>
                <time>2020-08-22T09:31:32.000Z</time>
                <name>Trackpoint 729</name>
            </trkpt>
            <trkpt lat="50.1368288" lon="11.0604448">
                <ele>281.0</ele>
                <time>2020-08-22T09:31:35.000Z</time>
                <name>Trackpoint 730</name>
            </trkpt>
            <trkpt lat="50.1367264" lon="11.0605488">
                <ele>282.0</ele>
                <time>2020-08-22T09:31:37.000Z</time>
                <name>Trackpoint 731</name>
            </trkpt>
            <trkpt lat="50.1366112" lon="11.060588">
                <ele>282.0</ele>
                <time>2020-08-22T09:31:39.000Z</time>
                <name>Trackpoint 732</name>
            </trkpt>
            <trkpt lat="50.1365536" lon="11.060668">
                <ele>282.0</ele>
                <time>2020-08-22T09:31:41.000Z</time>
                <name>Trackpoint 733</name>
            </trkpt>
            <trkpt lat="50.1364928" lon="11.0607464">
                <ele>282.0</ele>
                <time>2020-08-22T09:31:43.000Z</time>
                <name>Trackpoint 734</name>
            </trkpt>
            <trkpt lat="50.136448" lon="11.0608416">
                <ele>283.0</ele>
                <time>2020-08-22T09:31:45.000Z</time>
                <name>Trackpoint 735</name>
            </trkpt>
            <trkpt lat="50.1363936" lon="11.0609312">
                <ele>284.0</ele>
                <time>2020-08-22T09:31:47.000Z</time>
                <name>Trackpoint 736</name>
            </trkpt>
            <trkpt lat="50.1363136" lon="11.060888">
                <ele>285.0</ele>
                <time>2020-08-22T09:31:51.000Z</time>
                <name>Trackpoint 737</name>
            </trkpt>
            <trkpt lat="50.1362752" lon="11.0607992">
                <ele>286.0</ele>
                <time>2020-08-22T09:31:53.000Z</time>
                <name>Trackpoint 738</name>
            </trkpt>
            <trkpt lat="50.1362464" lon="11.0606984">
                <ele>287.0</ele>
                <time>2020-08-22T09:31:55.000Z</time>
                <name>Trackpoint 739</name>
            </trkpt>
            <trkpt lat="50.1362144" lon="11.0605936">
                <ele>288.0</ele>
                <time>2020-08-22T09:31:57.000Z</time>
                <name>Trackpoint 740</name>
            </trkpt>
            <trkpt lat="50.1361888" lon="11.0604848">
                <ele>288.0</ele>
                <time>2020-08-22T09:31:59.000Z</time>
                <name>Trackpoint 741</name>
            </trkpt>
            <trkpt lat="50.136144" lon="11.0603648">
                <ele>289.0</ele>
                <time>2020-08-22T09:32:01.000Z</time>
                <name>Trackpoint 742</name>
            </trkpt>
            <trkpt lat="50.1360864" lon="11.0602568">
                <ele>289.0</ele>
                <time>2020-08-22T09:32:03.000Z</time>
                <name>Trackpoint 743</name>
            </trkpt>
            <trkpt lat="50.1360288" lon="11.0601504">
                <ele>289.0</ele>
                <time>2020-08-22T09:32:05.000Z</time>
                <name>Trackpoint 744</name>
            </trkpt>
            <trkpt lat="50.1359712" lon="11.060048">
                <ele>289.0</ele>
                <time>2020-08-22T09:32:07.000Z</time>
                <name>Trackpoint 745</name>
            </trkpt>
            <trkpt lat="50.135904" lon="11.059952">
                <ele>289.0</ele>
                <time>2020-08-22T09:32:09.000Z</time>
                <name>Trackpoint 746</name>
            </trkpt>
            <trkpt lat="50.1358528" lon="11.0598288">
                <ele>289.0</ele>
                <time>2020-08-22T09:32:11.000Z</time>
                <name>Trackpoint 747</name>
            </trkpt>
            <trkpt lat="50.1358048" lon="11.0597048">
                <ele>290.0</ele>
                <time>2020-08-22T09:32:13.000Z</time>
                <name>Trackpoint 748</name>
            </trkpt>
            <trkpt lat="50.1357536" lon="11.0595816">
                <ele>290.0</ele>
                <time>2020-08-22T09:32:15.000Z</time>
                <name>Trackpoint 749</name>
            </trkpt>
            <trkpt lat="50.1357088" lon="11.0594616">
                <ele>290.0</ele>
                <time>2020-08-22T09:32:17.000Z</time>
                <name>Trackpoint 750</name>
            </trkpt>
            <trkpt lat="50.1356544" lon="11.0593504">
                <ele>290.0</ele>
                <time>2020-08-22T09:32:19.000Z</time>
                <name>Trackpoint 751</name>
            </trkpt>
            <trkpt lat="50.1356064" lon="11.0592344">
                <ele>290.0</ele>
                <time>2020-08-22T09:32:21.000Z</time>
                <name>Trackpoint 752</name>
            </trkpt>
            <trkpt lat="50.1355424" lon="11.0591232">
                <ele>290.0</ele>
                <time>2020-08-22T09:32:23.000Z</time>
                <name>Trackpoint 753</name>
            </trkpt>
            <trkpt lat="50.135488" lon="11.0590216">
                <ele>290.0</ele>
                <time>2020-08-22T09:32:25.000Z</time>
                <name>Trackpoint 754</name>
            </trkpt>
            <trkpt lat="50.1354208" lon="11.058924">
                <ele>290.0</ele>
                <time>2020-08-22T09:32:27.000Z</time>
                <name>Trackpoint 755</name>
            </trkpt>
            <trkpt lat="50.1353536" lon="11.05882">
                <ele>290.0</ele>
                <time>2020-08-22T09:32:29.000Z</time>
                <name>Trackpoint 756</name>
            </trkpt>
            <trkpt lat="50.13528" lon="11.058708">
                <ele>289.0</ele>
                <time>2020-08-22T09:32:31.000Z</time>
                <name>Trackpoint 757</name>
            </trkpt>
            <trkpt lat="50.1352" lon="11.0586144">
                <ele>288.0</ele>
                <time>2020-08-22T09:32:33.000Z</time>
                <name>Trackpoint 758</name>
            </trkpt>
            <trkpt lat="50.1351168" lon="11.0585336">
                <ele>288.0</ele>
                <time>2020-08-22T09:32:35.000Z</time>
                <name>Trackpoint 759</name>
            </trkpt>
            <trkpt lat="50.1350336" lon="11.0584448">
                <ele>288.0</ele>
                <time>2020-08-22T09:32:37.000Z</time>
                <name>Trackpoint 760</name>
            </trkpt>
            <trkpt lat="50.1349536" lon="11.0583584">
                <ele>287.0</ele>
                <time>2020-08-22T09:32:39.000Z</time>
                <name>Trackpoint 761</name>
            </trkpt>
            <trkpt lat="50.1348768" lon="11.05826">
                <ele>287.0</ele>
                <time>2020-08-22T09:32:41.000Z</time>
                <name>Trackpoint 762</name>
            </trkpt>
            <trkpt lat="50.1347968" lon="11.0581568">
                <ele>288.0</ele>
                <time>2020-08-22T09:32:43.000Z</time>
                <name>Trackpoint 763</name>
            </trkpt>
            <trkpt lat="50.1347168" lon="11.05806">
                <ele>288.0</ele>
                <time>2020-08-22T09:32:45.000Z</time>
                <name>Trackpoint 764</name>
            </trkpt>
            <trkpt lat="50.1346432" lon="11.0579632">
                <ele>288.0</ele>
                <time>2020-08-22T09:32:47.000Z</time>
                <name>Trackpoint 765</name>
            </trkpt>
            <trkpt lat="50.134576" lon="11.0578568">
                <ele>288.0</ele>
                <time>2020-08-22T09:32:49.000Z</time>
                <name>Trackpoint 766</name>
            </trkpt>
            <trkpt lat="50.1345056" lon="11.057772">
                <ele>290.0</ele>
                <time>2020-08-22T09:32:51.000Z</time>
                <name>Trackpoint 767</name>
            </trkpt>
            <trkpt lat="50.1344288" lon="11.057676">
                <ele>291.0</ele>
                <time>2020-08-22T09:32:53.000Z</time>
                <name>Trackpoint 768</name>
            </trkpt>
            <trkpt lat="50.1343616" lon="11.05758">
                <ele>291.0</ele>
                <time>2020-08-22T09:32:55.000Z</time>
                <name>Trackpoint 769</name>
            </trkpt>
            <trkpt lat="50.1343008" lon="11.0574904">
                <ele>293.0</ele>
                <time>2020-08-22T09:32:57.000Z</time>
                <name>Trackpoint 770</name>
            </trkpt>
            <trkpt lat="50.1342368" lon="11.0574016">
                <ele>292.0</ele>
                <time>2020-08-22T09:32:59.000Z</time>
                <name>Trackpoint 771</name>
            </trkpt>
            <trkpt lat="50.1341792" lon="11.057288">
                <ele>292.0</ele>
                <time>2020-08-22T09:33:01.000Z</time>
                <name>Trackpoint 772</name>
            </trkpt>
            <trkpt lat="50.134112" lon="11.0571648">
                <ele>292.0</ele>
                <time>2020-08-22T09:33:03.000Z</time>
                <name>Trackpoint 773</name>
            </trkpt>
            <trkpt lat="50.134048" lon="11.0570568">
                <ele>292.0</ele>
                <time>2020-08-22T09:33:05.000Z</time>
                <name>Trackpoint 774</name>
            </trkpt>
            <trkpt lat="50.1339872" lon="11.0569216">
                <ele>291.0</ele>
                <time>2020-08-22T09:33:07.000Z</time>
                <name>Trackpoint 775</name>
            </trkpt>
            <trkpt lat="50.1339296" lon="11.0567912">
                <ele>291.0</ele>
                <time>2020-08-22T09:33:09.000Z</time>
                <name>Trackpoint 776</name>
            </trkpt>
            <trkpt lat="50.1338656" lon="11.0566656">
                <ele>291.0</ele>
                <time>2020-08-22T09:33:11.000Z</time>
                <name>Trackpoint 777</name>
            </trkpt>
            <trkpt lat="50.1338016" lon="11.0565432">
                <ele>291.0</ele>
                <time>2020-08-22T09:33:13.000Z</time>
                <name>Trackpoint 778</name>
            </trkpt>
            <trkpt lat="50.1337408" lon="11.056412">
                <ele>290.0</ele>
                <time>2020-08-22T09:33:15.000Z</time>
                <name>Trackpoint 779</name>
            </trkpt>
            <trkpt lat="50.13368" lon="11.0562912">
                <ele>291.0</ele>
                <time>2020-08-22T09:33:17.000Z</time>
                <name>Trackpoint 780</name>
            </trkpt>
            <trkpt lat="50.1336128" lon="11.0561704">
                <ele>291.0</ele>
                <time>2020-08-22T09:33:19.000Z</time>
                <name>Trackpoint 781</name>
            </trkpt>
            <trkpt lat="50.1335456" lon="11.056064">
                <ele>291.0</ele>
                <time>2020-08-22T09:33:21.000Z</time>
                <name>Trackpoint 782</name>
            </trkpt>
            <trkpt lat="50.1334816" lon="11.055948">
                <ele>291.0</ele>
                <time>2020-08-22T09:33:23.000Z</time>
                <name>Trackpoint 783</name>
            </trkpt>
            <trkpt lat="50.1334176" lon="11.0558272">
                <ele>291.0</ele>
                <time>2020-08-22T09:33:25.000Z</time>
                <name>Trackpoint 784</name>
            </trkpt>
            <trkpt lat="50.1333568" lon="11.0556944">
                <ele>290.0</ele>
                <time>2020-08-22T09:33:27.000Z</time>
                <name>Trackpoint 785</name>
            </trkpt>
            <trkpt lat="50.1332928" lon="11.0555688">
                <ele>289.0</ele>
                <time>2020-08-22T09:33:29.000Z</time>
                <name>Trackpoint 786</name>
            </trkpt>
            <trkpt lat="50.1332256" lon="11.0554616">
                <ele>289.0</ele>
                <time>2020-08-22T09:33:31.000Z</time>
                <name>Trackpoint 787</name>
            </trkpt>
            <trkpt lat="50.1331552" lon="11.0553464">
                <ele>289.0</ele>
                <time>2020-08-22T09:33:33.000Z</time>
                <name>Trackpoint 788</name>
            </trkpt>
            <trkpt lat="50.1330848" lon="11.055228">
                <ele>288.0</ele>
                <time>2020-08-22T09:33:35.000Z</time>
                <name>Trackpoint 789</name>
            </trkpt>
            <trkpt lat="50.1330144" lon="11.0551136">
                <ele>288.0</ele>
                <time>2020-08-22T09:33:37.000Z</time>
                <name>Trackpoint 790</name>
            </trkpt>
            <trkpt lat="50.1329472" lon="11.0550032">
                <ele>287.0</ele>
                <time>2020-08-22T09:33:39.000Z</time>
                <name>Trackpoint 791</name>
            </trkpt>
            <trkpt lat="50.1328736" lon="11.0549048">
                <ele>287.0</ele>
                <time>2020-08-22T09:33:41.000Z</time>
                <name>Trackpoint 792</name>
            </trkpt>
            <trkpt lat="50.1327968" lon="11.0547984">
                <ele>287.0</ele>
                <time>2020-08-22T09:33:43.000Z</time>
                <name>Trackpoint 793</name>
            </trkpt>
            <trkpt lat="50.1327136" lon="11.0547016">
                <ele>287.0</ele>
                <time>2020-08-22T09:33:45.000Z</time>
                <name>Trackpoint 794</name>
            </trkpt>
            <trkpt lat="50.1326304" lon="11.0545968">
                <ele>287.0</ele>
                <time>2020-08-22T09:33:47.000Z</time>
                <name>Trackpoint 795</name>
            </trkpt>
            <trkpt lat="50.1325376" lon="11.0544904">
                <ele>286.0</ele>
                <time>2020-08-22T09:33:49.000Z</time>
                <name>Trackpoint 796</name>
            </trkpt>
            <trkpt lat="50.1324512" lon="11.0543768">
                <ele>286.0</ele>
                <time>2020-08-22T09:33:51.000Z</time>
                <name>Trackpoint 797</name>
            </trkpt>
            <trkpt lat="50.1323648" lon="11.0542632">
                <ele>286.0</ele>
                <time>2020-08-22T09:33:53.000Z</time>
                <name>Trackpoint 798</name>
            </trkpt>
            <trkpt lat="50.1322848" lon="11.0541464">
                <ele>286.0</ele>
                <time>2020-08-22T09:33:55.000Z</time>
                <name>Trackpoint 799</name>
            </trkpt>
            <trkpt lat="50.1322112" lon="11.0540312">
                <ele>286.0</ele>
                <time>2020-08-22T09:33:57.000Z</time>
                <name>Trackpoint 800</name>
            </trkpt>
            <trkpt lat="50.1321376" lon="11.0539248">
                <ele>286.0</ele>
                <time>2020-08-22T09:33:59.000Z</time>
                <name>Trackpoint 801</name>
            </trkpt>
            <trkpt lat="50.132064" lon="11.0538216">
                <ele>286.0</ele>
                <time>2020-08-22T09:34:01.000Z</time>
                <name>Trackpoint 802</name>
            </trkpt>
            <trkpt lat="50.1319968" lon="11.0537208">
                <ele>286.0</ele>
                <time>2020-08-22T09:34:03.000Z</time>
                <name>Trackpoint 803</name>
            </trkpt>
            <trkpt lat="50.1319232" lon="11.0536216">
                <ele>286.0</ele>
                <time>2020-08-22T09:34:05.000Z</time>
                <name>Trackpoint 804</name>
            </trkpt>
            <trkpt lat="50.1318432" lon="11.053532">
                <ele>286.0</ele>
                <time>2020-08-22T09:34:07.000Z</time>
                <name>Trackpoint 805</name>
            </trkpt>
            <trkpt lat="50.1317632" lon="11.05346">
                <ele>286.0</ele>
                <time>2020-08-22T09:34:09.000Z</time>
                <name>Trackpoint 806</name>
            </trkpt>
            <trkpt lat="50.1316864" lon="11.053376">
                <ele>287.0</ele>
                <time>2020-08-22T09:34:11.000Z</time>
                <name>Trackpoint 807</name>
            </trkpt>
            <trkpt lat="50.1316096" lon="11.0532952">
                <ele>287.0</ele>
                <time>2020-08-22T09:34:13.000Z</time>
                <name>Trackpoint 808</name>
            </trkpt>
            <trkpt lat="50.1315392" lon="11.0532152">
                <ele>287.0</ele>
                <time>2020-08-22T09:34:15.000Z</time>
                <name>Trackpoint 809</name>
            </trkpt>
            <trkpt lat="50.1314848" lon="11.05314">
                <ele>287.0</ele>
                <time>2020-08-22T09:34:17.000Z</time>
                <name>Trackpoint 810</name>
            </trkpt>
            <trkpt lat="50.1314112" lon="11.0530392">
                <ele>287.0</ele>
                <time>2020-08-22T09:34:20.000Z</time>
                <name>Trackpoint 811</name>
            </trkpt>
            <trkpt lat="50.1313888" lon="11.0529984">
                <ele>287.0</ele>
                <time>2020-08-22T09:35:20.000Z</time>
                <name>Trackpoint 812</name>
            </trkpt>
            <trkpt lat="50.1313408" lon="11.052912">
                <ele>287.0</ele>
                <time>2020-08-22T09:35:24.000Z</time>
                <name>Trackpoint 813</name>
            </trkpt>
            <trkpt lat="50.1312672" lon="11.0528048">
                <ele>287.0</ele>
                <time>2020-08-22T09:35:27.000Z</time>
                <name>Trackpoint 814</name>
            </trkpt>
            <trkpt lat="50.1312224" lon="11.0527248">
                <ele>286.0</ele>
                <time>2020-08-22T09:35:29.000Z</time>
                <name>Trackpoint 815</name>
            </trkpt>
            <trkpt lat="50.131168" lon="11.0526352">
                <ele>286.0</ele>
                <time>2020-08-22T09:35:31.000Z</time>
                <name>Trackpoint 816</name>
            </trkpt>
            <trkpt lat="50.131104" lon="11.052544">
                <ele>286.0</ele>
                <time>2020-08-22T09:35:33.000Z</time>
                <name>Trackpoint 817</name>
            </trkpt>
            <trkpt lat="50.1310336" lon="11.0524568">
                <ele>285.0</ele>
                <time>2020-08-22T09:35:35.000Z</time>
                <name>Trackpoint 818</name>
            </trkpt>
            <trkpt lat="50.1309504" lon="11.052388">
                <ele>284.0</ele>
                <time>2020-08-22T09:35:37.000Z</time>
                <name>Trackpoint 819</name>
            </trkpt>
            <trkpt lat="50.1308608" lon="11.0523344">
                <ele>284.0</ele>
                <time>2020-08-22T09:35:39.000Z</time>
                <name>Trackpoint 820</name>
            </trkpt>
            <trkpt lat="50.1307712" lon="11.052268">
                <ele>285.0</ele>
                <time>2020-08-22T09:35:41.000Z</time>
                <name>Trackpoint 821</name>
            </trkpt>
            <trkpt lat="50.1306816" lon="11.052208">
                <ele>286.0</ele>
                <time>2020-08-22T09:35:43.000Z</time>
                <name>Trackpoint 822</name>
            </trkpt>
            <trkpt lat="50.1305952" lon="11.052152">
                <ele>286.0</ele>
                <time>2020-08-22T09:35:45.000Z</time>
                <name>Trackpoint 823</name>
            </trkpt>
            <trkpt lat="50.130512" lon="11.0520912">
                <ele>286.0</ele>
                <time>2020-08-22T09:35:47.000Z</time>
                <name>Trackpoint 824</name>
            </trkpt>
            <trkpt lat="50.1304256" lon="11.0520336">
                <ele>287.0</ele>
                <time>2020-08-22T09:35:49.000Z</time>
                <name>Trackpoint 825</name>
            </trkpt>
            <trkpt lat="50.130336" lon="11.05198">
                <ele>287.0</ele>
                <time>2020-08-22T09:35:51.000Z</time>
                <name>Trackpoint 826</name>
            </trkpt>
            <trkpt lat="50.1302528" lon="11.051924">
                <ele>287.0</ele>
                <time>2020-08-22T09:35:53.000Z</time>
                <name>Trackpoint 827</name>
            </trkpt>
            <trkpt lat="50.1301664" lon="11.05186">
                <ele>287.0</ele>
                <time>2020-08-22T09:35:55.000Z</time>
                <name>Trackpoint 828</name>
            </trkpt>
            <trkpt lat="50.1300864" lon="11.0518064">
                <ele>288.0</ele>
                <time>2020-08-22T09:35:57.000Z</time>
                <name>Trackpoint 829</name>
            </trkpt>
            <trkpt lat="50.1300064" lon="11.0517584">
                <ele>288.0</ele>
                <time>2020-08-22T09:35:59.000Z</time>
                <name>Trackpoint 830</name>
            </trkpt>
            <trkpt lat="50.12992" lon="11.0517032">
                <ele>288.0</ele>
                <time>2020-08-22T09:36:01.000Z</time>
                <name>Trackpoint 831</name>
            </trkpt>
            <trkpt lat="50.12984" lon="11.0516464">
                <ele>289.0</ele>
                <time>2020-08-22T09:36:03.000Z</time>
                <name>Trackpoint 832</name>
            </trkpt>
            <trkpt lat="50.12976" lon="11.051588">
                <ele>289.0</ele>
                <time>2020-08-22T09:36:05.000Z</time>
                <name>Trackpoint 833</name>
            </trkpt>
            <trkpt lat="50.1296832" lon="11.0515344">
                <ele>289.0</ele>
                <time>2020-08-22T09:36:07.000Z</time>
                <name>Trackpoint 834</name>
            </trkpt>
            <trkpt lat="50.1296032" lon="11.0514872">
                <ele>289.0</ele>
                <time>2020-08-22T09:36:09.000Z</time>
                <name>Trackpoint 835</name>
            </trkpt>
            <trkpt lat="50.1294912" lon="11.0514184">
                <ele>289.0</ele>
                <time>2020-08-22T09:36:12.000Z</time>
                <name>Trackpoint 836</name>
            </trkpt>
            <trkpt lat="50.1294112" lon="11.0513648">
                <ele>289.0</ele>
                <time>2020-08-22T09:36:14.000Z</time>
                <name>Trackpoint 837</name>
            </trkpt>
            <trkpt lat="50.1292992" lon="11.0512896">
                <ele>290.0</ele>
                <time>2020-08-22T09:36:17.000Z</time>
                <name>Trackpoint 838</name>
            </trkpt>
            <trkpt lat="50.1292192" lon="11.05124">
                <ele>290.0</ele>
                <time>2020-08-22T09:36:19.000Z</time>
                <name>Trackpoint 839</name>
            </trkpt>
            <trkpt lat="50.129104" lon="11.0511688">
                <ele>291.0</ele>
                <time>2020-08-22T09:36:22.000Z</time>
                <name>Trackpoint 840</name>
            </trkpt>
            <trkpt lat="50.1290272" lon="11.0511112">
                <ele>291.0</ele>
                <time>2020-08-22T09:36:24.000Z</time>
                <name>Trackpoint 841</name>
            </trkpt>
            <trkpt lat="50.1289472" lon="11.0510568">
                <ele>291.0</ele>
                <time>2020-08-22T09:36:26.000Z</time>
                <name>Trackpoint 842</name>
            </trkpt>
            <trkpt lat="50.1288672" lon="11.0510064">
                <ele>292.0</ele>
                <time>2020-08-22T09:36:28.000Z</time>
                <name>Trackpoint 843</name>
            </trkpt>
            <trkpt lat="50.1287904" lon="11.0509568">
                <ele>292.0</ele>
                <time>2020-08-22T09:36:30.000Z</time>
                <name>Trackpoint 844</name>
            </trkpt>
            <trkpt lat="50.1287104" lon="11.0509072">
                <ele>292.0</ele>
                <time>2020-08-22T09:36:32.000Z</time>
                <name>Trackpoint 845</name>
            </trkpt>
            <trkpt lat="50.1286304" lon="11.0508568">
                <ele>292.0</ele>
                <time>2020-08-22T09:36:34.000Z</time>
                <name>Trackpoint 846</name>
            </trkpt>
            <trkpt lat="50.12856" lon="11.0508">
                <ele>292.0</ele>
                <time>2020-08-22T09:36:36.000Z</time>
                <name>Trackpoint 847</name>
            </trkpt>
            <trkpt lat="50.1284832" lon="11.050748">
                <ele>292.0</ele>
                <time>2020-08-22T09:36:38.000Z</time>
                <name>Trackpoint 848</name>
            </trkpt>
            <trkpt lat="50.1284032" lon="11.0506984">
                <ele>292.0</ele>
                <time>2020-08-22T09:36:40.000Z</time>
                <name>Trackpoint 849</name>
            </trkpt>
            <trkpt lat="50.1283264" lon="11.0506464">
                <ele>292.0</ele>
                <time>2020-08-22T09:36:42.000Z</time>
                <name>Trackpoint 850</name>
            </trkpt>
            <trkpt lat="50.1282464" lon="11.0505952">
                <ele>293.0</ele>
                <time>2020-08-22T09:36:44.000Z</time>
                <name>Trackpoint 851</name>
            </trkpt>
            <trkpt lat="50.1281664" lon="11.0505488">
                <ele>293.0</ele>
                <time>2020-08-22T09:36:46.000Z</time>
                <name>Trackpoint 852</name>
            </trkpt>
            <trkpt lat="50.1280896" lon="11.0504984">
                <ele>293.0</ele>
                <time>2020-08-22T09:36:48.000Z</time>
                <name>Trackpoint 853</name>
            </trkpt>
            <trkpt lat="50.1280096" lon="11.05044">
                <ele>293.0</ele>
                <time>2020-08-22T09:36:50.000Z</time>
                <name>Trackpoint 854</name>
            </trkpt>
            <trkpt lat="50.1279328" lon="11.0503864">
                <ele>293.0</ele>
                <time>2020-08-22T09:36:52.000Z</time>
                <name>Trackpoint 855</name>
            </trkpt>
            <trkpt lat="50.1278496" lon="11.0503368">
                <ele>293.0</ele>
                <time>2020-08-22T09:36:54.000Z</time>
                <name>Trackpoint 856</name>
            </trkpt>
            <trkpt lat="50.1277728" lon="11.0502864">
                <ele>293.0</ele>
                <time>2020-08-22T09:36:56.000Z</time>
                <name>Trackpoint 857</name>
            </trkpt>
            <trkpt lat="50.1276928" lon="11.050228">
                <ele>293.0</ele>
                <time>2020-08-22T09:36:58.000Z</time>
                <name>Trackpoint 858</name>
            </trkpt>
            <trkpt lat="50.127616" lon="11.0501736">
                <ele>293.0</ele>
                <time>2020-08-22T09:37:00.000Z</time>
                <name>Trackpoint 859</name>
            </trkpt>
            <trkpt lat="50.127536" lon="11.0501248">
                <ele>294.0</ele>
                <time>2020-08-22T09:37:02.000Z</time>
                <name>Trackpoint 860</name>
            </trkpt>
            <trkpt lat="50.127456" lon="11.0500784">
                <ele>294.0</ele>
                <time>2020-08-22T09:37:04.000Z</time>
                <name>Trackpoint 861</name>
            </trkpt>
            <trkpt lat="50.1273792" lon="11.0500248">
                <ele>294.0</ele>
                <time>2020-08-22T09:37:06.000Z</time>
                <name>Trackpoint 862</name>
            </trkpt>
            <trkpt lat="50.1272736" lon="11.0499432">
                <ele>295.0</ele>
                <time>2020-08-22T09:37:09.000Z</time>
                <name>Trackpoint 863</name>
            </trkpt>
            <trkpt lat="50.1271616" lon="11.0498736">
                <ele>295.0</ele>
                <time>2020-08-22T09:37:12.000Z</time>
                <name>Trackpoint 864</name>
            </trkpt>
            <trkpt lat="50.1270528" lon="11.0498088">
                <ele>295.0</ele>
                <time>2020-08-22T09:37:15.000Z</time>
                <name>Trackpoint 865</name>
            </trkpt>
            <trkpt lat="50.1269408" lon="11.0497448">
                <ele>295.0</ele>
                <time>2020-08-22T09:37:18.000Z</time>
                <name>Trackpoint 866</name>
            </trkpt>
            <trkpt lat="50.1268352" lon="11.049672">
                <ele>296.0</ele>
                <time>2020-08-22T09:37:21.000Z</time>
                <name>Trackpoint 867</name>
            </trkpt>
            <trkpt lat="50.1267296" lon="11.0495968">
                <ele>296.0</ele>
                <time>2020-08-22T09:37:24.000Z</time>
                <name>Trackpoint 868</name>
            </trkpt>
            <trkpt lat="50.1266208" lon="11.0495232">
                <ele>296.0</ele>
                <time>2020-08-22T09:37:27.000Z</time>
                <name>Trackpoint 869</name>
            </trkpt>
            <trkpt lat="50.1265152" lon="11.0494472">
                <ele>297.0</ele>
                <time>2020-08-22T09:37:30.000Z</time>
                <name>Trackpoint 870</name>
            </trkpt>
            <trkpt lat="50.1264064" lon="11.0493816">
                <ele>297.0</ele>
                <time>2020-08-22T09:37:33.000Z</time>
                <name>Trackpoint 871</name>
            </trkpt>
            <trkpt lat="50.1262976" lon="11.04932">
                <ele>297.0</ele>
                <time>2020-08-22T09:37:36.000Z</time>
                <name>Trackpoint 872</name>
            </trkpt>
            <trkpt lat="50.1261824" lon="11.04926">
                <ele>297.0</ele>
                <time>2020-08-22T09:37:39.000Z</time>
                <name>Trackpoint 873</name>
            </trkpt>
            <trkpt lat="50.1260672" lon="11.0492232">
                <ele>298.0</ele>
                <time>2020-08-22T09:37:42.000Z</time>
                <name>Trackpoint 874</name>
            </trkpt>
            <trkpt lat="50.1259552" lon="11.0491752">
                <ele>298.0</ele>
                <time>2020-08-22T09:37:45.000Z</time>
                <name>Trackpoint 875</name>
            </trkpt>
            <trkpt lat="50.125872" lon="11.0491384">
                <ele>298.0</ele>
                <time>2020-08-22T09:37:47.000Z</time>
                <name>Trackpoint 876</name>
            </trkpt>
            <trkpt lat="50.1257568" lon="11.0490776">
                <ele>299.0</ele>
                <time>2020-08-22T09:37:50.000Z</time>
                <name>Trackpoint 877</name>
            </trkpt>
            <trkpt lat="50.1256416" lon="11.0490104">
                <ele>298.0</ele>
                <time>2020-08-22T09:37:53.000Z</time>
                <name>Trackpoint 878</name>
            </trkpt>
            <trkpt lat="50.125568" lon="11.0489464">
                <ele>298.0</ele>
                <time>2020-08-22T09:37:55.000Z</time>
                <name>Trackpoint 879</name>
            </trkpt>
            <trkpt lat="50.1254912" lon="11.0488752">
                <ele>298.0</ele>
                <time>2020-08-22T09:37:57.000Z</time>
                <name>Trackpoint 880</name>
            </trkpt>
            <trkpt lat="50.1254112" lon="11.0488064">
                <ele>298.0</ele>
                <time>2020-08-22T09:37:59.000Z</time>
                <name>Trackpoint 881</name>
            </trkpt>
            <trkpt lat="50.1253344" lon="11.0487384">
                <ele>298.0</ele>
                <time>2020-08-22T09:38:01.000Z</time>
                <name>Trackpoint 882</name>
            </trkpt>
            <trkpt lat="50.1252608" lon="11.0486696">
                <ele>298.0</ele>
                <time>2020-08-22T09:38:03.000Z</time>
                <name>Trackpoint 883</name>
            </trkpt>
            <trkpt lat="50.1251808" lon="11.0486024">
                <ele>298.0</ele>
                <time>2020-08-22T09:38:05.000Z</time>
                <name>Trackpoint 884</name>
            </trkpt>
            <trkpt lat="50.1250976" lon="11.0485352">
                <ele>298.0</ele>
                <time>2020-08-22T09:38:07.000Z</time>
                <name>Trackpoint 885</name>
            </trkpt>
            <trkpt lat="50.1250272" lon="11.0484712">
                <ele>298.0</ele>
                <time>2020-08-22T09:38:09.000Z</time>
                <name>Trackpoint 886</name>
            </trkpt>
            <trkpt lat="50.124928" lon="11.0483864">
                <ele>297.0</ele>
                <time>2020-08-22T09:38:12.000Z</time>
                <name>Trackpoint 887</name>
            </trkpt>
            <trkpt lat="50.1248352" lon="11.0483064">
                <ele>297.0</ele>
                <time>2020-08-22T09:38:15.000Z</time>
                <name>Trackpoint 888</name>
            </trkpt>
            <trkpt lat="50.1247328" lon="11.0482352">
                <ele>297.0</ele>
                <time>2020-08-22T09:38:18.000Z</time>
                <name>Trackpoint 889</name>
            </trkpt>
            <trkpt lat="50.1246272" lon="11.048192">
                <ele>296.0</ele>
                <time>2020-08-22T09:38:21.000Z</time>
                <name>Trackpoint 890</name>
            </trkpt>
            <trkpt lat="50.124528" lon="11.0481752">
                <ele>295.0</ele>
                <time>2020-08-22T09:38:24.000Z</time>
                <name>Trackpoint 891</name>
            </trkpt>
            <trkpt lat="50.124432" lon="11.0481904">
                <ele>295.0</ele>
                <time>2020-08-22T09:38:27.000Z</time>
                <name>Trackpoint 892</name>
            </trkpt>
            <trkpt lat="50.1243392" lon="11.0482848">
                <ele>295.0</ele>
                <time>2020-08-22T09:38:30.000Z</time>
                <name>Trackpoint 893</name>
            </trkpt>
            <trkpt lat="50.124272" lon="11.0483688">
                <ele>296.0</ele>
                <time>2020-08-22T09:38:33.000Z</time>
                <name>Trackpoint 894</name>
            </trkpt>
            <trkpt lat="50.124208" lon="11.0484352">
                <ele>296.0</ele>
                <time>2020-08-22T09:39:11.000Z</time>
                <name>Trackpoint 895</name>
            </trkpt>
            <trkpt lat="50.1241152" lon="11.0484832">
                <ele>296.0</ele>
                <time>2020-08-22T09:39:15.000Z</time>
                <name>Trackpoint 896</name>
            </trkpt>
            <trkpt lat="50.1240544" lon="11.0484168">
                <ele>296.0</ele>
                <time>2020-08-22T09:39:18.000Z</time>
                <name>Trackpoint 897</name>
            </trkpt>
            <trkpt lat="50.1240192" lon="11.0483168">
                <ele>296.0</ele>
                <time>2020-08-22T09:39:20.000Z</time>
                <name>Trackpoint 898</name>
            </trkpt>
            <trkpt lat="50.1239712" lon="11.0482104">
                <ele>295.0</ele>
                <time>2020-08-22T09:39:22.000Z</time>
                <name>Trackpoint 899</name>
            </trkpt>
            <trkpt lat="50.1239296" lon="11.0481016">
                <ele>295.0</ele>
                <time>2020-08-22T09:39:24.000Z</time>
                <name>Trackpoint 900</name>
            </trkpt>
            <trkpt lat="50.1238848" lon="11.047988">
                <ele>295.0</ele>
                <time>2020-08-22T09:39:26.000Z</time>
                <name>Trackpoint 901</name>
            </trkpt>
            <trkpt lat="50.1238368" lon="11.0478736">
                <ele>295.0</ele>
                <time>2020-08-22T09:39:28.000Z</time>
                <name>Trackpoint 902</name>
            </trkpt>
            <trkpt lat="50.1237856" lon="11.0477616">
                <ele>295.0</ele>
                <time>2020-08-22T09:39:30.000Z</time>
                <name>Trackpoint 903</name>
            </trkpt>
            <trkpt lat="50.1237344" lon="11.0476448">
                <ele>294.0</ele>
                <time>2020-08-22T09:39:32.000Z</time>
                <name>Trackpoint 904</name>
            </trkpt>
            <trkpt lat="50.1236928" lon="11.0475264">
                <ele>295.0</ele>
                <time>2020-08-22T09:39:34.000Z</time>
                <name>Trackpoint 905</name>
            </trkpt>
            <trkpt lat="50.1236416" lon="11.047412">
                <ele>295.0</ele>
                <time>2020-08-22T09:39:36.000Z</time>
                <name>Trackpoint 906</name>
            </trkpt>
            <trkpt lat="50.1235968" lon="11.0473048">
                <ele>294.0</ele>
                <time>2020-08-22T09:39:38.000Z</time>
                <name>Trackpoint 907</name>
            </trkpt>
            <trkpt lat="50.1235456" lon="11.0471952">
                <ele>294.0</ele>
                <time>2020-08-22T09:39:40.000Z</time>
                <name>Trackpoint 908</name>
            </trkpt>
            <trkpt lat="50.1235008" lon="11.0470784">
                <ele>293.0</ele>
                <time>2020-08-22T09:39:42.000Z</time>
                <name>Trackpoint 909</name>
            </trkpt>
            <trkpt lat="50.1234528" lon="11.0469648">
                <ele>292.0</ele>
                <time>2020-08-22T09:39:44.000Z</time>
                <name>Trackpoint 910</name>
            </trkpt>
            <trkpt lat="50.1233984" lon="11.046848">
                <ele>291.0</ele>
                <time>2020-08-22T09:39:46.000Z</time>
                <name>Trackpoint 911</name>
            </trkpt>
            <trkpt lat="50.1233472" lon="11.0467216">
                <ele>291.0</ele>
                <time>2020-08-22T09:39:48.000Z</time>
                <name>Trackpoint 912</name>
            </trkpt>
            <trkpt lat="50.1232896" lon="11.0465968">
                <ele>291.0</ele>
                <time>2020-08-22T09:39:50.000Z</time>
                <name>Trackpoint 913</name>
            </trkpt>
            <trkpt lat="50.1232384" lon="11.046476">
                <ele>290.0</ele>
                <time>2020-08-22T09:39:52.000Z</time>
                <name>Trackpoint 914</name>
            </trkpt>
            <trkpt lat="50.123184" lon="11.0463536">
                <ele>290.0</ele>
                <time>2020-08-22T09:39:54.000Z</time>
                <name>Trackpoint 915</name>
            </trkpt>
            <trkpt lat="50.1231296" lon="11.04624">
                <ele>290.0</ele>
                <time>2020-08-22T09:39:56.000Z</time>
                <name>Trackpoint 916</name>
            </trkpt>
            <trkpt lat="50.1230784" lon="11.046132">
                <ele>290.0</ele>
                <time>2020-08-22T09:39:58.000Z</time>
                <name>Trackpoint 917</name>
            </trkpt>
            <trkpt lat="50.1230304" lon="11.0460192">
                <ele>290.0</ele>
                <time>2020-08-22T09:40:00.000Z</time>
                <name>Trackpoint 918</name>
            </trkpt>
            <trkpt lat="50.122992" lon="11.0459016">
                <ele>289.0</ele>
                <time>2020-08-22T09:40:02.000Z</time>
                <name>Trackpoint 919</name>
            </trkpt>
            <trkpt lat="50.12296" lon="11.0457696">
                <ele>289.0</ele>
                <time>2020-08-22T09:40:04.000Z</time>
                <name>Trackpoint 920</name>
            </trkpt>
            <trkpt lat="50.1229408" lon="11.0456248">
                <ele>289.0</ele>
                <time>2020-08-22T09:40:06.000Z</time>
                <name>Trackpoint 921</name>
            </trkpt>
            <trkpt lat="50.1229408" lon="11.0454664">
                <ele>289.0</ele>
                <time>2020-08-22T09:40:08.000Z</time>
                <name>Trackpoint 922</name>
            </trkpt>
            <trkpt lat="50.1229472" lon="11.0453728">
                <ele>289.0</ele>
                <time>2020-08-22T09:40:09.000Z</time>
                <name>Trackpoint 923</name>
            </trkpt>
            <trkpt lat="50.1229824" lon="11.0451896">
                <ele>289.0</ele>
                <time>2020-08-22T09:40:11.000Z</time>
                <name>Trackpoint 924</name>
            </trkpt>
            <trkpt lat="50.123008" lon="11.045096">
                <ele>288.0</ele>
                <time>2020-08-22T09:40:12.000Z</time>
                <name>Trackpoint 925</name>
            </trkpt>
            <trkpt lat="50.1230464" lon="11.0450016">
                <ele>288.0</ele>
                <time>2020-08-22T09:40:13.000Z</time>
                <name>Trackpoint 926</name>
            </trkpt>
            <trkpt lat="50.1230848" lon="11.0449088">
                <ele>288.0</ele>
                <time>2020-08-22T09:40:14.000Z</time>
                <name>Trackpoint 927</name>
            </trkpt>
            <trkpt lat="50.1231264" lon="11.0448048">
                <ele>287.0</ele>
                <time>2020-08-22T09:40:15.000Z</time>
                <name>Trackpoint 928</name>
            </trkpt>
            <trkpt lat="50.1231712" lon="11.0447032">
                <ele>287.0</ele>
                <time>2020-08-22T09:40:16.000Z</time>
                <name>Trackpoint 929</name>
            </trkpt>
            <trkpt lat="50.1232192" lon="11.0445984">
                <ele>286.0</ele>
                <time>2020-08-22T09:40:17.000Z</time>
                <name>Trackpoint 930</name>
            </trkpt>
            <trkpt lat="50.123264" lon="11.044492">
                <ele>286.0</ele>
                <time>2020-08-22T09:40:18.000Z</time>
                <name>Trackpoint 931</name>
            </trkpt>
            <trkpt lat="50.1233152" lon="11.0443824">
                <ele>285.0</ele>
                <time>2020-08-22T09:40:19.000Z</time>
                <name>Trackpoint 932</name>
            </trkpt>
            <trkpt lat="50.1233664" lon="11.0442696">
                <ele>285.0</ele>
                <time>2020-08-22T09:40:20.000Z</time>
                <name>Trackpoint 933</name>
            </trkpt>
            <trkpt lat="50.1234208" lon="11.04416">
                <ele>284.0</ele>
                <time>2020-08-22T09:40:21.000Z</time>
                <name>Trackpoint 934</name>
            </trkpt>
            <trkpt lat="50.1234656" lon="11.044048">
                <ele>284.0</ele>
                <time>2020-08-22T09:40:22.000Z</time>
                <name>Trackpoint 935</name>
            </trkpt>
            <trkpt lat="50.1235136" lon="11.0439352">
                <ele>284.0</ele>
                <time>2020-08-22T09:40:23.000Z</time>
                <name>Trackpoint 936</name>
            </trkpt>
            <trkpt lat="50.123552" lon="11.0438168">
                <ele>284.0</ele>
                <time>2020-08-22T09:40:24.000Z</time>
                <name>Trackpoint 937</name>
            </trkpt>
            <trkpt lat="50.1235808" lon="11.0436952">
                <ele>283.0</ele>
                <time>2020-08-22T09:40:25.000Z</time>
                <name>Trackpoint 938</name>
            </trkpt>
            <trkpt lat="50.1235968" lon="11.0435688">
                <ele>283.0</ele>
                <time>2020-08-22T09:40:26.000Z</time>
                <name>Trackpoint 939</name>
            </trkpt>
            <trkpt lat="50.1236" lon="11.0434376">
                <ele>283.0</ele>
                <time>2020-08-22T09:40:27.000Z</time>
                <name>Trackpoint 940</name>
            </trkpt>
            <trkpt lat="50.1235936" lon="11.0433128">
                <ele>283.0</ele>
                <time>2020-08-22T09:40:28.000Z</time>
                <name>Trackpoint 941</name>
            </trkpt>
            <trkpt lat="50.1235744" lon="11.043192">
                <ele>283.0</ele>
                <time>2020-08-22T09:40:29.000Z</time>
                <name>Trackpoint 942</name>
            </trkpt>
            <trkpt lat="50.123552" lon="11.0430744">
                <ele>284.0</ele>
                <time>2020-08-22T09:40:30.000Z</time>
                <name>Trackpoint 943</name>
            </trkpt>
            <trkpt lat="50.1235232" lon="11.0429696">
                <ele>283.0</ele>
                <time>2020-08-22T09:40:31.000Z</time>
                <name>Trackpoint 944</name>
            </trkpt>
            <trkpt lat="50.1234976" lon="11.0428816">
                <ele>283.0</ele>
                <time>2020-08-22T09:40:32.000Z</time>
                <name>Trackpoint 945</name>
            </trkpt>
            <trkpt lat="50.1234592" lon="11.0427736">
                <ele>283.0</ele>
                <time>2020-08-22T09:40:34.000Z</time>
                <name>Trackpoint 946</name>
            </trkpt>
            <trkpt lat="50.1234368" lon="11.0426848">
                <ele>284.0</ele>
                <time>2020-08-22T09:41:03.000Z</time>
                <name>Trackpoint 947</name>
            </trkpt>
            <trkpt lat="50.1233792" lon="11.0425752">
                <ele>284.0</ele>
                <time>2020-08-22T09:41:07.000Z</time>
                <name>Trackpoint 948</name>
            </trkpt>
            <trkpt lat="50.1233216" lon="11.042448">
                <ele>284.0</ele>
                <time>2020-08-22T09:41:10.000Z</time>
                <name>Trackpoint 949</name>
            </trkpt>
            <trkpt lat="50.1232704" lon="11.0423416">
                <ele>284.0</ele>
                <time>2020-08-22T09:41:12.000Z</time>
                <name>Trackpoint 950</name>
            </trkpt>
            <trkpt lat="50.1232192" lon="11.0422336">
                <ele>284.0</ele>
                <time>2020-08-22T09:41:14.000Z</time>
                <name>Trackpoint 951</name>
            </trkpt>
            <trkpt lat="50.1231648" lon="11.0421112">
                <ele>284.0</ele>
                <time>2020-08-22T09:41:16.000Z</time>
                <name>Trackpoint 952</name>
            </trkpt>
            <trkpt lat="50.1231008" lon="11.041988">
                <ele>284.0</ele>
                <time>2020-08-22T09:41:18.000Z</time>
                <name>Trackpoint 953</name>
            </trkpt>
            <trkpt lat="50.1230368" lon="11.0418552">
                <ele>284.0</ele>
                <time>2020-08-22T09:41:20.000Z</time>
                <name>Trackpoint 954</name>
            </trkpt>
            <trkpt lat="50.1229696" lon="11.0417136">
                <ele>284.0</ele>
                <time>2020-08-22T09:41:22.000Z</time>
                <name>Trackpoint 955</name>
            </trkpt>
            <trkpt lat="50.1229088" lon="11.0415736">
                <ele>284.0</ele>
                <time>2020-08-22T09:41:24.000Z</time>
                <name>Trackpoint 956</name>
            </trkpt>
            <trkpt lat="50.1228608" lon="11.0414336">
                <ele>284.0</ele>
                <time>2020-08-22T09:41:26.000Z</time>
                <name>Trackpoint 957</name>
            </trkpt>
            <trkpt lat="50.1228128" lon="11.0412752">
                <ele>284.0</ele>
                <time>2020-08-22T09:41:28.000Z</time>
                <name>Trackpoint 958</name>
            </trkpt>
            <trkpt lat="50.1227488" lon="11.0411528">
                <ele>284.0</ele>
                <time>2020-08-22T09:41:30.000Z</time>
                <name>Trackpoint 959</name>
            </trkpt>
            <trkpt lat="50.122688" lon="11.041032">
                <ele>284.0</ele>
                <time>2020-08-22T09:41:32.000Z</time>
                <name>Trackpoint 960</name>
            </trkpt>
            <trkpt lat="50.1226112" lon="11.0408936">
                <ele>283.0</ele>
                <time>2020-08-22T09:41:34.000Z</time>
                <name>Trackpoint 961</name>
            </trkpt>
            <trkpt lat="50.1225472" lon="11.04076">
                <ele>283.0</ele>
                <time>2020-08-22T09:41:36.000Z</time>
                <name>Trackpoint 962</name>
            </trkpt>
            <trkpt lat="50.1224704" lon="11.0406168">
                <ele>283.0</ele>
                <time>2020-08-22T09:41:38.000Z</time>
                <name>Trackpoint 963</name>
            </trkpt>
            <trkpt lat="50.122416" lon="11.040472">
                <ele>282.0</ele>
                <time>2020-08-22T09:41:40.000Z</time>
                <name>Trackpoint 964</name>
            </trkpt>
            <trkpt lat="50.122384" lon="11.0403032">
                <ele>282.0</ele>
                <time>2020-08-22T09:41:42.000Z</time>
                <name>Trackpoint 965</name>
            </trkpt>
            <trkpt lat="50.1224032" lon="11.0401336">
                <ele>281.0</ele>
                <time>2020-08-22T09:41:44.000Z</time>
                <name>Trackpoint 966</name>
            </trkpt>
            <trkpt lat="50.122416" lon="11.0400432">
                <ele>281.0</ele>
                <time>2020-08-22T09:41:45.000Z</time>
                <name>Trackpoint 967</name>
            </trkpt>
            <trkpt lat="50.122448" lon="11.039868">
                <ele>281.0</ele>
                <time>2020-08-22T09:41:47.000Z</time>
                <name>Trackpoint 968</name>
            </trkpt>
            <trkpt lat="50.12248" lon="11.0397032">
                <ele>281.0</ele>
                <time>2020-08-22T09:41:49.000Z</time>
                <name>Trackpoint 969</name>
            </trkpt>
            <trkpt lat="50.1224896" lon="11.0395336">
                <ele>281.0</ele>
                <time>2020-08-22T09:41:51.000Z</time>
                <name>Trackpoint 970</name>
            </trkpt>
            <trkpt lat="50.12248" lon="11.0393664">
                <ele>281.0</ele>
                <time>2020-08-22T09:41:53.000Z</time>
                <name>Trackpoint 971</name>
            </trkpt>
            <trkpt lat="50.1224448" lon="11.0392064">
                <ele>281.0</ele>
                <time>2020-08-22T09:41:55.000Z</time>
                <name>Trackpoint 972</name>
            </trkpt>
            <trkpt lat="50.1223936" lon="11.0390632">
                <ele>281.0</ele>
                <time>2020-08-22T09:41:57.000Z</time>
                <name>Trackpoint 973</name>
            </trkpt>
            <trkpt lat="50.122336" lon="11.0389368">
                <ele>281.0</ele>
                <time>2020-08-22T09:41:59.000Z</time>
                <name>Trackpoint 974</name>
            </trkpt>
            <trkpt lat="50.1222848" lon="11.0388048">
                <ele>281.0</ele>
                <time>2020-08-22T09:42:01.000Z</time>
                <name>Trackpoint 975</name>
            </trkpt>
            <trkpt lat="50.1222336" lon="11.0386848">
                <ele>281.0</ele>
                <time>2020-08-22T09:42:03.000Z</time>
                <name>Trackpoint 976</name>
            </trkpt>
            <trkpt lat="50.1221856" lon="11.0385864">
                <ele>281.0</ele>
                <time>2020-08-22T09:42:05.000Z</time>
                <name>Trackpoint 977</name>
            </trkpt>
            <trkpt lat="50.1221472" lon="11.0385016">
                <ele>281.0</ele>
                <time>2020-08-22T09:42:07.000Z</time>
                <name>Trackpoint 978</name>
            </trkpt>
            <trkpt lat="50.122112" lon="11.0383904">
                <ele>281.0</ele>
                <time>2020-08-22T09:42:10.000Z</time>
                <name>Trackpoint 979</name>
            </trkpt>
            <trkpt lat="50.1221024" lon="11.0382472">
                <ele>281.0</ele>
                <time>2020-08-22T09:42:13.000Z</time>
                <name>Trackpoint 980</name>
            </trkpt>
            <trkpt lat="50.1220832" lon="11.0381248">
                <ele>281.0</ele>
                <time>2020-08-22T09:42:15.000Z</time>
                <name>Trackpoint 981</name>
            </trkpt>
            <trkpt lat="50.1220576" lon="11.0379952">
                <ele>281.0</ele>
                <time>2020-08-22T09:42:17.000Z</time>
                <name>Trackpoint 982</name>
            </trkpt>
            <trkpt lat="50.122016" lon="11.037864">
                <ele>281.0</ele>
                <time>2020-08-22T09:42:19.000Z</time>
                <name>Trackpoint 983</name>
            </trkpt>
            <trkpt lat="50.121968" lon="11.0377528">
                <ele>281.0</ele>
                <time>2020-08-22T09:42:21.000Z</time>
                <name>Trackpoint 984</name>
            </trkpt>
            <trkpt lat="50.1219392" lon="11.0376256">
                <ele>281.0</ele>
                <time>2020-08-22T09:42:23.000Z</time>
                <name>Trackpoint 985</name>
            </trkpt>
            <trkpt lat="50.1219104" lon="11.0375096">
                <ele>281.0</ele>
                <time>2020-08-22T09:42:25.000Z</time>
                <name>Trackpoint 986</name>
            </trkpt>
            <trkpt lat="50.121856" lon="11.0373688">
                <ele>281.0</ele>
                <time>2020-08-22T09:42:27.000Z</time>
                <name>Trackpoint 987</name>
            </trkpt>
            <trkpt lat="50.1217952" lon="11.0372512">
                <ele>281.0</ele>
                <time>2020-08-22T09:42:29.000Z</time>
                <name>Trackpoint 988</name>
            </trkpt>
            <trkpt lat="50.1217344" lon="11.0371552">
                <ele>281.0</ele>
                <time>2020-08-22T09:42:31.000Z</time>
                <name>Trackpoint 989</name>
            </trkpt>
            <trkpt lat="50.1216768" lon="11.0370816">
                <ele>281.0</ele>
                <time>2020-08-22T09:42:33.000Z</time>
                <name>Trackpoint 990</name>
            </trkpt>
            <trkpt lat="50.1216192" lon="11.0369568">
                <ele>280.0</ele>
                <time>2020-08-22T09:42:36.000Z</time>
                <name>Trackpoint 991</name>
            </trkpt>
            <trkpt lat="50.1215776" lon="11.036868">
                <ele>280.0</ele>
                <time>2020-08-22T09:42:38.000Z</time>
                <name>Trackpoint 992</name>
            </trkpt>
            <trkpt lat="50.121552" lon="11.036748">
                <ele>280.0</ele>
                <time>2020-08-22T09:42:40.000Z</time>
                <name>Trackpoint 993</name>
            </trkpt>
            <trkpt lat="50.1215616" lon="11.036656">
                <ele>280.0</ele>
                <time>2020-08-22T09:42:41.000Z</time>
                <name>Trackpoint 994</name>
            </trkpt>
            <trkpt lat="50.121616" lon="11.0365152">
                <ele>281.0</ele>
                <time>2020-08-22T09:42:43.000Z</time>
                <name>Trackpoint 995</name>
            </trkpt>
            <trkpt lat="50.1217056" lon="11.0363968">
                <ele>281.0</ele>
                <time>2020-08-22T09:42:45.000Z</time>
                <name>Trackpoint 996</name>
            </trkpt>
            <trkpt lat="50.1217856" lon="11.036268">
                <ele>281.0</ele>
                <time>2020-08-22T09:42:47.000Z</time>
                <name>Trackpoint 997</name>
            </trkpt>
            <trkpt lat="50.1218688" lon="11.0361584">
                <ele>281.0</ele>
                <time>2020-08-22T09:42:49.000Z</time>
                <name>Trackpoint 998</name>
            </trkpt>
            <trkpt lat="50.1219552" lon="11.03606">
                <ele>281.0</ele>
                <time>2020-08-22T09:42:51.000Z</time>
                <name>Trackpoint 999</name>
            </trkpt>
            <trkpt lat="50.1220352" lon="11.035952">
                <ele>281.0</ele>
                <time>2020-08-22T09:42:53.000Z</time>
                <name>Trackpoint 1000</name>
            </trkpt>
            <trkpt lat="50.1221024" lon="11.0358888">
                <ele>281.0</ele>
                <time>2020-08-22T09:42:55.000Z</time>
                <name>Trackpoint 1001</name>
            </trkpt>
            <trkpt lat="50.1220512" lon="11.0358136">
                <ele>281.0</ele>
                <time>2020-08-22T09:43:05.000Z</time>
                <name>Trackpoint 1002</name>
            </trkpt>
            <trkpt lat="50.1221632" lon="11.0357504">
                <ele>282.0</ele>
                <time>2020-08-22T09:43:18.000Z</time>
                <name>Trackpoint 1003</name>
            </trkpt>
            <trkpt lat="50.1222048" lon="11.035668">
                <ele>282.0</ele>
                <time>2020-08-22T09:43:20.000Z</time>
                <name>Trackpoint 1004</name>
            </trkpt>
            <trkpt lat="50.1222368" lon="11.0355552">
                <ele>282.0</ele>
                <time>2020-08-22T09:43:22.000Z</time>
                <name>Trackpoint 1005</name>
            </trkpt>
            <trkpt lat="50.1222816" lon="11.0354272">
                <ele>282.0</ele>
                <time>2020-08-22T09:43:24.000Z</time>
                <name>Trackpoint 1006</name>
            </trkpt>
            <trkpt lat="50.1223168" lon="11.0352944">
                <ele>282.0</ele>
                <time>2020-08-22T09:43:26.000Z</time>
                <name>Trackpoint 1007</name>
            </trkpt>
            <trkpt lat="50.1223744" lon="11.0351664">
                <ele>282.0</ele>
                <time>2020-08-22T09:43:28.000Z</time>
                <name>Trackpoint 1008</name>
            </trkpt>
            <trkpt lat="50.122448" lon="11.03504">
                <ele>282.0</ele>
                <time>2020-08-22T09:43:30.000Z</time>
                <name>Trackpoint 1009</name>
            </trkpt>
            <trkpt lat="50.1225312" lon="11.0349432">
                <ele>282.0</ele>
                <time>2020-08-22T09:43:32.000Z</time>
                <name>Trackpoint 1010</name>
            </trkpt>
            <trkpt lat="50.1226304" lon="11.034868">
                <ele>282.0</ele>
                <time>2020-08-22T09:43:34.000Z</time>
                <name>Trackpoint 1011</name>
            </trkpt>
            <trkpt lat="50.1227264" lon="11.0348016">
                <ele>282.0</ele>
                <time>2020-08-22T09:43:36.000Z</time>
                <name>Trackpoint 1012</name>
            </trkpt>
            <trkpt lat="50.1228096" lon="11.0347344">
                <ele>282.0</ele>
                <time>2020-08-22T09:43:38.000Z</time>
                <name>Trackpoint 1013</name>
            </trkpt>
            <trkpt lat="50.1228896" lon="11.0346768">
                <ele>282.0</ele>
                <time>2020-08-22T09:43:40.000Z</time>
                <name>Trackpoint 1014</name>
            </trkpt>
            <trkpt lat="50.1229728" lon="11.0346368">
                <ele>283.0</ele>
                <time>2020-08-22T09:43:42.000Z</time>
                <name>Trackpoint 1015</name>
            </trkpt>
            <trkpt lat="50.123056" lon="11.0345648">
                <ele>283.0</ele>
                <time>2020-08-22T09:43:45.000Z</time>
                <name>Trackpoint 1016</name>
            </trkpt>
            <trkpt lat="50.1230848" lon="11.0344584">
                <ele>283.0</ele>
                <time>2020-08-22T09:43:48.000Z</time>
                <name>Trackpoint 1017</name>
            </trkpt>
            <trkpt lat="50.123072" lon="11.0343616">
                <ele>282.0</ele>
                <time>2020-08-22T09:43:50.000Z</time>
                <name>Trackpoint 1018</name>
            </trkpt>
            <trkpt lat="50.1230496" lon="11.0342712">
                <ele>282.0</ele>
                <time>2020-08-22T09:43:52.000Z</time>
                <name>Trackpoint 1019</name>
            </trkpt>
            <trkpt lat="50.1229984" lon="11.0341464">
                <ele>282.0</ele>
                <time>2020-08-22T09:43:55.000Z</time>
                <name>Trackpoint 1020</name>
            </trkpt>
            <trkpt lat="50.122944" lon="11.0340456">
                <ele>282.0</ele>
                <time>2020-08-22T09:43:57.000Z</time>
                <name>Trackpoint 1021</name>
            </trkpt>
            <trkpt lat="50.1228896" lon="11.0339296">
                <ele>281.0</ele>
                <time>2020-08-22T09:43:59.000Z</time>
                <name>Trackpoint 1022</name>
            </trkpt>
            <trkpt lat="50.122832" lon="11.033816">
                <ele>281.0</ele>
                <time>2020-08-22T09:44:01.000Z</time>
                <name>Trackpoint 1023</name>
            </trkpt>
            <trkpt lat="50.1227808" lon="11.0336912">
                <ele>281.0</ele>
                <time>2020-08-22T09:44:03.000Z</time>
                <name>Trackpoint 1024</name>
            </trkpt>
            <trkpt lat="50.1227104" lon="11.033564">
                <ele>281.0</ele>
                <time>2020-08-22T09:44:05.000Z</time>
                <name>Trackpoint 1025</name>
            </trkpt>
            <trkpt lat="50.1226592" lon="11.0333992">
                <ele>280.0</ele>
                <time>2020-08-22T09:44:07.000Z</time>
                <name>Trackpoint 1026</name>
            </trkpt>
            <trkpt lat="50.1225952" lon="11.033252">
                <ele>280.0</ele>
                <time>2020-08-22T09:44:09.000Z</time>
                <name>Trackpoint 1027</name>
            </trkpt>
            <trkpt lat="50.1225216" lon="11.0331096">
                <ele>280.0</ele>
                <time>2020-08-22T09:44:11.000Z</time>
                <name>Trackpoint 1028</name>
            </trkpt>
            <trkpt lat="50.122464" lon="11.0329568">
                <ele>279.0</ele>
                <time>2020-08-22T09:44:13.000Z</time>
                <name>Trackpoint 1029</name>
            </trkpt>
            <trkpt lat="50.122416" lon="11.0328752">
                <ele>279.0</ele>
                <time>2020-08-22T09:44:14.000Z</time>
                <name>Trackpoint 1030</name>
            </trkpt>
            <trkpt lat="50.122352" lon="11.0327584">
                <ele>278.0</ele>
                <time>2020-08-22T09:44:16.000Z</time>
                <name>Trackpoint 1031</name>
            </trkpt>
            <trkpt lat="50.1222816" lon="11.0326408">
                <ele>278.0</ele>
                <time>2020-08-22T09:44:18.000Z</time>
                <name>Trackpoint 1032</name>
            </trkpt>
            <trkpt lat="50.1222048" lon="11.032512">
                <ele>277.0</ele>
                <time>2020-08-22T09:44:20.000Z</time>
                <name>Trackpoint 1033</name>
            </trkpt>
            <trkpt lat="50.1221312" lon="11.03238">
                <ele>277.0</ele>
                <time>2020-08-22T09:44:22.000Z</time>
                <name>Trackpoint 1034</name>
            </trkpt>
            <trkpt lat="50.1220672" lon="11.0322648">
                <ele>276.0</ele>
                <time>2020-08-22T09:44:24.000Z</time>
                <name>Trackpoint 1035</name>
            </trkpt>
            <trkpt lat="50.1219968" lon="11.0321464">
                <ele>275.0</ele>
                <time>2020-08-22T09:44:26.000Z</time>
                <name>Trackpoint 1036</name>
            </trkpt>
            <trkpt lat="50.12192" lon="11.0320264">
                <ele>275.0</ele>
                <time>2020-08-22T09:44:28.000Z</time>
                <name>Trackpoint 1037</name>
            </trkpt>
            <trkpt lat="50.1218592" lon="11.0319032">
                <ele>274.0</ele>
                <time>2020-08-22T09:44:30.000Z</time>
                <name>Trackpoint 1038</name>
            </trkpt>
            <trkpt lat="50.121792" lon="11.0317848">
                <ele>273.0</ele>
                <time>2020-08-22T09:44:32.000Z</time>
                <name>Trackpoint 1039</name>
            </trkpt>
            <trkpt lat="50.121792" lon="11.0316488">
                <ele>274.0</ele>
                <time>2020-08-22T09:44:34.000Z</time>
                <name>Trackpoint 1040</name>
            </trkpt>
            <trkpt lat="50.1218336" lon="11.0315168">
                <ele>274.0</ele>
                <time>2020-08-22T09:44:36.000Z</time>
                <name>Trackpoint 1041</name>
            </trkpt>
            <trkpt lat="50.121856" lon="11.0313904">
                <ele>274.0</ele>
                <time>2020-08-22T09:44:38.000Z</time>
                <name>Trackpoint 1042</name>
            </trkpt>
            <trkpt lat="50.1218528" lon="11.0312744">
                <ele>274.0</ele>
                <time>2020-08-22T09:44:40.000Z</time>
                <name>Trackpoint 1043</name>
            </trkpt>
            <trkpt lat="50.1218784" lon="11.0311648">
                <ele>273.0</ele>
                <time>2020-08-22T09:44:42.000Z</time>
                <name>Trackpoint 1044</name>
            </trkpt>
            <trkpt lat="50.1219392" lon="11.0310624">
                <ele>273.0</ele>
                <time>2020-08-22T09:44:44.000Z</time>
                <name>Trackpoint 1045</name>
            </trkpt>
            <trkpt lat="50.122016" lon="11.0309536">
                <ele>273.0</ele>
                <time>2020-08-22T09:44:46.000Z</time>
                <name>Trackpoint 1046</name>
            </trkpt>
            <trkpt lat="50.1220928" lon="11.0308336">
                <ele>273.0</ele>
                <time>2020-08-22T09:44:48.000Z</time>
                <name>Trackpoint 1047</name>
            </trkpt>
            <trkpt lat="50.122176" lon="11.0307064">
                <ele>273.0</ele>
                <time>2020-08-22T09:44:50.000Z</time>
                <name>Trackpoint 1048</name>
            </trkpt>
            <trkpt lat="50.1222624" lon="11.0305704">
                <ele>273.0</ele>
                <time>2020-08-22T09:44:52.000Z</time>
                <name>Trackpoint 1049</name>
            </trkpt>
            <trkpt lat="50.122352" lon="11.0304296">
                <ele>273.0</ele>
                <time>2020-08-22T09:44:54.000Z</time>
                <name>Trackpoint 1050</name>
            </trkpt>
            <trkpt lat="50.1224448" lon="11.0302848">
                <ele>272.0</ele>
                <time>2020-08-22T09:44:56.000Z</time>
                <name>Trackpoint 1051</name>
            </trkpt>
            <trkpt lat="50.1225344" lon="11.0301384">
                <ele>272.0</ele>
                <time>2020-08-22T09:44:58.000Z</time>
                <name>Trackpoint 1052</name>
            </trkpt>
            <trkpt lat="50.1225792" lon="11.03006">
                <ele>271.0</ele>
                <time>2020-08-22T09:44:59.000Z</time>
                <name>Trackpoint 1053</name>
            </trkpt>
            <trkpt lat="50.122624" lon="11.02998">
                <ele>271.0</ele>
                <time>2020-08-22T09:45:00.000Z</time>
                <name>Trackpoint 1054</name>
            </trkpt>
            <trkpt lat="50.1226624" lon="11.0298984">
                <ele>271.0</ele>
                <time>2020-08-22T09:45:01.000Z</time>
                <name>Trackpoint 1055</name>
            </trkpt>
            <trkpt lat="50.122704" lon="11.0298144">
                <ele>271.0</ele>
                <time>2020-08-22T09:45:02.000Z</time>
                <name>Trackpoint 1056</name>
            </trkpt>
            <trkpt lat="50.1227392" lon="11.0297296">
                <ele>271.0</ele>
                <time>2020-08-22T09:45:03.000Z</time>
                <name>Trackpoint 1057</name>
            </trkpt>
            <trkpt lat="50.1227776" lon="11.0296448">
                <ele>271.0</ele>
                <time>2020-08-22T09:45:04.000Z</time>
                <name>Trackpoint 1058</name>
            </trkpt>
            <trkpt lat="50.1228096" lon="11.02956">
                <ele>271.0</ele>
                <time>2020-08-22T09:45:05.000Z</time>
                <name>Trackpoint 1059</name>
            </trkpt>
            <trkpt lat="50.1228448" lon="11.0294736">
                <ele>271.0</ele>
                <time>2020-08-22T09:45:06.000Z</time>
                <name>Trackpoint 1060</name>
            </trkpt>
            <trkpt lat="50.1228768" lon="11.0293864">
                <ele>271.0</ele>
                <time>2020-08-22T09:45:07.000Z</time>
                <name>Trackpoint 1061</name>
            </trkpt>
            <trkpt lat="50.1229088" lon="11.0293016">
                <ele>271.0</ele>
                <time>2020-08-22T09:45:08.000Z</time>
                <name>Trackpoint 1062</name>
            </trkpt>
            <trkpt lat="50.1229408" lon="11.0292168">
                <ele>271.0</ele>
                <time>2020-08-22T09:45:09.000Z</time>
                <name>Trackpoint 1063</name>
            </trkpt>
            <trkpt lat="50.1229984" lon="11.0290536">
                <ele>271.0</ele>
                <time>2020-08-22T09:45:11.000Z</time>
                <name>Trackpoint 1064</name>
            </trkpt>
            <trkpt lat="50.1230496" lon="11.0289072">
                <ele>271.0</ele>
                <time>2020-08-22T09:45:13.000Z</time>
                <name>Trackpoint 1065</name>
            </trkpt>
            <trkpt lat="50.123104" lon="11.0287768">
                <ele>272.0</ele>
                <time>2020-08-22T09:45:15.000Z</time>
                <name>Trackpoint 1066</name>
            </trkpt>
            <trkpt lat="50.1231552" lon="11.0286528">
                <ele>272.0</ele>
                <time>2020-08-22T09:45:17.000Z</time>
                <name>Trackpoint 1067</name>
            </trkpt>
            <trkpt lat="50.1232032" lon="11.0285432">
                <ele>273.0</ele>
                <time>2020-08-22T09:45:19.000Z</time>
                <name>Trackpoint 1068</name>
            </trkpt>
            <trkpt lat="50.1232544" lon="11.0284344">
                <ele>273.0</ele>
                <time>2020-08-22T09:45:21.000Z</time>
                <name>Trackpoint 1069</name>
            </trkpt>
            <trkpt lat="50.1233056" lon="11.028328">
                <ele>273.0</ele>
                <time>2020-08-22T09:45:23.000Z</time>
                <name>Trackpoint 1070</name>
            </trkpt>
            <trkpt lat="50.1233632" lon="11.0282272">
                <ele>274.0</ele>
                <time>2020-08-22T09:45:25.000Z</time>
                <name>Trackpoint 1071</name>
            </trkpt>
            <trkpt lat="50.1234272" lon="11.0281288">
                <ele>275.0</ele>
                <time>2020-08-22T09:45:27.000Z</time>
                <name>Trackpoint 1072</name>
            </trkpt>
            <trkpt lat="50.1234944" lon="11.02804">
                <ele>275.0</ele>
                <time>2020-08-22T09:45:29.000Z</time>
                <name>Trackpoint 1073</name>
            </trkpt>
            <trkpt lat="50.1235584" lon="11.0279552">
                <ele>275.0</ele>
                <time>2020-08-22T09:45:31.000Z</time>
                <name>Trackpoint 1074</name>
            </trkpt>
            <trkpt lat="50.1236224" lon="11.0278704">
                <ele>275.0</ele>
                <time>2020-08-22T09:45:33.000Z</time>
                <name>Trackpoint 1075</name>
            </trkpt>
            <trkpt lat="50.1236928" lon="11.0277904">
                <ele>276.0</ele>
                <time>2020-08-22T09:45:35.000Z</time>
                <name>Trackpoint 1076</name>
            </trkpt>
            <trkpt lat="50.12376" lon="11.027712">
                <ele>275.0</ele>
                <time>2020-08-22T09:45:37.000Z</time>
                <name>Trackpoint 1077</name>
            </trkpt>
            <trkpt lat="50.123824" lon="11.0276344">
                <ele>276.0</ele>
                <time>2020-08-22T09:45:39.000Z</time>
                <name>Trackpoint 1078</name>
            </trkpt>
            <trkpt lat="50.1238912" lon="11.027552">
                <ele>276.0</ele>
                <time>2020-08-22T09:45:41.000Z</time>
                <name>Trackpoint 1079</name>
            </trkpt>
            <trkpt lat="50.1239552" lon="11.0274712">
                <ele>276.0</ele>
                <time>2020-08-22T09:45:43.000Z</time>
                <name>Trackpoint 1080</name>
            </trkpt>
            <trkpt lat="50.1240192" lon="11.0274">
                <ele>277.0</ele>
                <time>2020-08-22T09:45:45.000Z</time>
                <name>Trackpoint 1081</name>
            </trkpt>
            <trkpt lat="50.12408" lon="11.0273264">
                <ele>277.0</ele>
                <time>2020-08-22T09:45:47.000Z</time>
                <name>Trackpoint 1082</name>
            </trkpt>
            <trkpt lat="50.12416" lon="11.0272264">
                <ele>277.0</ele>
                <time>2020-08-22T09:45:50.000Z</time>
                <name>Trackpoint 1083</name>
            </trkpt>
            <trkpt lat="50.1242368" lon="11.0271368">
                <ele>277.0</ele>
                <time>2020-08-22T09:45:53.000Z</time>
                <name>Trackpoint 1084</name>
            </trkpt>
            <trkpt lat="50.1243008" lon="11.0270656">
                <ele>277.0</ele>
                <time>2020-08-22T09:45:56.000Z</time>
                <name>Trackpoint 1085</name>
            </trkpt>
            <trkpt lat="50.1243616" lon="11.0269832">
                <ele>277.0</ele>
                <time>2020-08-22T09:46:47.000Z</time>
                <name>Trackpoint 1086</name>
            </trkpt>
            <trkpt lat="50.1244416" lon="11.0268936">
                <ele>278.0</ele>
                <time>2020-08-22T09:46:50.000Z</time>
                <name>Trackpoint 1087</name>
            </trkpt>
            <trkpt lat="50.124512" lon="11.026816">
                <ele>277.0</ele>
                <time>2020-08-22T09:46:52.000Z</time>
                <name>Trackpoint 1088</name>
            </trkpt>
            <trkpt lat="50.1245792" lon="11.0267296">
                <ele>277.0</ele>
                <time>2020-08-22T09:46:54.000Z</time>
                <name>Trackpoint 1089</name>
            </trkpt>
            <trkpt lat="50.1246656" lon="11.02662">
                <ele>277.0</ele>
                <time>2020-08-22T09:46:56.000Z</time>
                <name>Trackpoint 1090</name>
            </trkpt>
            <trkpt lat="50.1247488" lon="11.02652">
                <ele>277.0</ele>
                <time>2020-08-22T09:46:58.000Z</time>
                <name>Trackpoint 1091</name>
            </trkpt>
            <trkpt lat="50.1248352" lon="11.0264256">
                <ele>276.0</ele>
                <time>2020-08-22T09:47:00.000Z</time>
                <name>Trackpoint 1092</name>
            </trkpt>
            <trkpt lat="50.1249184" lon="11.0263232">
                <ele>276.0</ele>
                <time>2020-08-22T09:47:02.000Z</time>
                <name>Trackpoint 1093</name>
            </trkpt>
            <trkpt lat="50.1249952" lon="11.0262136">
                <ele>276.0</ele>
                <time>2020-08-22T09:47:04.000Z</time>
                <name>Trackpoint 1094</name>
            </trkpt>
            <trkpt lat="50.1250816" lon="11.026112">
                <ele>277.0</ele>
                <time>2020-08-22T09:47:06.000Z</time>
                <name>Trackpoint 1095</name>
            </trkpt>
            <trkpt lat="50.1251552" lon="11.0260096">
                <ele>277.0</ele>
                <time>2020-08-22T09:47:08.000Z</time>
                <name>Trackpoint 1096</name>
            </trkpt>
            <trkpt lat="50.125232" lon="11.0259016">
                <ele>276.0</ele>
                <time>2020-08-22T09:47:10.000Z</time>
                <name>Trackpoint 1097</name>
            </trkpt>
            <trkpt lat="50.1253152" lon="11.025788">
                <ele>276.0</ele>
                <time>2020-08-22T09:47:12.000Z</time>
                <name>Trackpoint 1098</name>
            </trkpt>
            <trkpt lat="50.1253952" lon="11.0256632">
                <ele>276.0</ele>
                <time>2020-08-22T09:47:14.000Z</time>
                <name>Trackpoint 1099</name>
            </trkpt>
            <trkpt lat="50.1254784" lon="11.025532">
                <ele>275.0</ele>
                <time>2020-08-22T09:47:16.000Z</time>
                <name>Trackpoint 1100</name>
            </trkpt>
            <trkpt lat="50.1255616" lon="11.0253896">
                <ele>275.0</ele>
                <time>2020-08-22T09:47:18.000Z</time>
                <name>Trackpoint 1101</name>
            </trkpt>
            <trkpt lat="50.1256448" lon="11.0252384">
                <ele>275.0</ele>
                <time>2020-08-22T09:47:20.000Z</time>
                <name>Trackpoint 1102</name>
            </trkpt>
            <trkpt lat="50.1256864" lon="11.0251552">
                <ele>274.0</ele>
                <time>2020-08-22T09:47:21.000Z</time>
                <name>Trackpoint 1103</name>
            </trkpt>
            <trkpt lat="50.125728" lon="11.025072">
                <ele>274.0</ele>
                <time>2020-08-22T09:47:22.000Z</time>
                <name>Trackpoint 1104</name>
            </trkpt>
            <trkpt lat="50.1257792" lon="11.024988">
                <ele>273.0</ele>
                <time>2020-08-22T09:47:23.000Z</time>
                <name>Trackpoint 1105</name>
            </trkpt>
            <trkpt lat="50.1258304" lon="11.0249072">
                <ele>273.0</ele>
                <time>2020-08-22T09:47:24.000Z</time>
                <name>Trackpoint 1106</name>
            </trkpt>
            <trkpt lat="50.1258816" lon="11.0248216">
                <ele>273.0</ele>
                <time>2020-08-22T09:47:25.000Z</time>
                <name>Trackpoint 1107</name>
            </trkpt>
            <trkpt lat="50.125936" lon="11.0247352">
                <ele>272.0</ele>
                <time>2020-08-22T09:47:26.000Z</time>
                <name>Trackpoint 1108</name>
            </trkpt>
            <trkpt lat="50.1259872" lon="11.0246448">
                <ele>271.0</ele>
                <time>2020-08-22T09:47:27.000Z</time>
                <name>Trackpoint 1109</name>
            </trkpt>
            <trkpt lat="50.1260416" lon="11.0245512">
                <ele>271.0</ele>
                <time>2020-08-22T09:47:28.000Z</time>
                <name>Trackpoint 1110</name>
            </trkpt>
            <trkpt lat="50.126096" lon="11.0244576">
                <ele>270.0</ele>
                <time>2020-08-22T09:47:29.000Z</time>
                <name>Trackpoint 1111</name>
            </trkpt>
            <trkpt lat="50.1261472" lon="11.0243632">
                <ele>270.0</ele>
                <time>2020-08-22T09:47:30.000Z</time>
                <name>Trackpoint 1112</name>
            </trkpt>
            <trkpt lat="50.1262048" lon="11.0242664">
                <ele>269.0</ele>
                <time>2020-08-22T09:47:31.000Z</time>
                <name>Trackpoint 1113</name>
            </trkpt>
            <trkpt lat="50.1262592" lon="11.024168">
                <ele>268.0</ele>
                <time>2020-08-22T09:47:32.000Z</time>
                <name>Trackpoint 1114</name>
            </trkpt>
            <trkpt lat="50.1263168" lon="11.024068">
                <ele>268.0</ele>
                <time>2020-08-22T09:47:33.000Z</time>
                <name>Trackpoint 1115</name>
            </trkpt>
            <trkpt lat="50.1263744" lon="11.0239696">
                <ele>267.0</ele>
                <time>2020-08-22T09:47:34.000Z</time>
                <name>Trackpoint 1116</name>
            </trkpt>
            <trkpt lat="50.126432" lon="11.0238704">
                <ele>267.0</ele>
                <time>2020-08-22T09:47:35.000Z</time>
                <name>Trackpoint 1117</name>
            </trkpt>
            <trkpt lat="50.1264864" lon="11.0237712">
                <ele>266.0</ele>
                <time>2020-08-22T09:47:36.000Z</time>
                <name>Trackpoint 1118</name>
            </trkpt>
            <trkpt lat="50.126544" lon="11.023672">
                <ele>266.0</ele>
                <time>2020-08-22T09:47:37.000Z</time>
                <name>Trackpoint 1119</name>
            </trkpt>
            <trkpt lat="50.1266048" lon="11.0235752">
                <ele>265.0</ele>
                <time>2020-08-22T09:47:38.000Z</time>
                <name>Trackpoint 1120</name>
            </trkpt>
            <trkpt lat="50.1266624" lon="11.0234768">
                <ele>265.0</ele>
                <time>2020-08-22T09:47:39.000Z</time>
                <name>Trackpoint 1121</name>
            </trkpt>
            <trkpt lat="50.12672" lon="11.0233784">
                <ele>265.0</ele>
                <time>2020-08-22T09:47:40.000Z</time>
                <name>Trackpoint 1122</name>
            </trkpt>
            <trkpt lat="50.1267744" lon="11.0232832">
                <ele>264.0</ele>
                <time>2020-08-22T09:47:41.000Z</time>
                <name>Trackpoint 1123</name>
            </trkpt>
            <trkpt lat="50.126832" lon="11.0231896">
                <ele>264.0</ele>
                <time>2020-08-22T09:47:42.000Z</time>
                <name>Trackpoint 1124</name>
            </trkpt>
            <trkpt lat="50.1268832" lon="11.0231">
                <ele>264.0</ele>
                <time>2020-08-22T09:47:43.000Z</time>
                <name>Trackpoint 1125</name>
            </trkpt>
            <trkpt lat="50.1269344" lon="11.0230112">
                <ele>264.0</ele>
                <time>2020-08-22T09:47:44.000Z</time>
                <name>Trackpoint 1126</name>
            </trkpt>
            <trkpt lat="50.1269888" lon="11.0229232">
                <ele>264.0</ele>
                <time>2020-08-22T09:47:45.000Z</time>
                <name>Trackpoint 1127</name>
            </trkpt>
            <trkpt lat="50.1270336" lon="11.0228344">
                <ele>264.0</ele>
                <time>2020-08-22T09:47:46.000Z</time>
                <name>Trackpoint 1128</name>
            </trkpt>
            <trkpt lat="50.127088" lon="11.022752">
                <ele>263.0</ele>
                <time>2020-08-22T09:47:47.000Z</time>
                <name>Trackpoint 1129</name>
            </trkpt>
            <trkpt lat="50.127136" lon="11.022668">
                <ele>263.0</ele>
                <time>2020-08-22T09:47:48.000Z</time>
                <name>Trackpoint 1130</name>
            </trkpt>
            <trkpt lat="50.1271808" lon="11.0225888">
                <ele>263.0</ele>
                <time>2020-08-22T09:47:49.000Z</time>
                <name>Trackpoint 1131</name>
            </trkpt>
            <trkpt lat="50.1272288" lon="11.0225064">
                <ele>263.0</ele>
                <time>2020-08-22T09:47:50.000Z</time>
                <name>Trackpoint 1132</name>
            </trkpt>
            <trkpt lat="50.1273184" lon="11.0223504">
                <ele>263.0</ele>
                <time>2020-08-22T09:47:52.000Z</time>
                <name>Trackpoint 1133</name>
            </trkpt>
            <trkpt lat="50.1273664" lon="11.0222728">
                <ele>263.0</ele>
                <time>2020-08-22T09:47:53.000Z</time>
                <name>Trackpoint 1134</name>
            </trkpt>
            <trkpt lat="50.1274464" lon="11.0221392">
                <ele>262.0</ele>
                <time>2020-08-22T09:47:55.000Z</time>
                <name>Trackpoint 1135</name>
            </trkpt>
            <trkpt lat="50.1275104" lon="11.0220296">
                <ele>262.0</ele>
                <time>2020-08-22T09:47:57.000Z</time>
                <name>Trackpoint 1136</name>
            </trkpt>
            <trkpt lat="50.1275584" lon="11.0219448">
                <ele>262.0</ele>
                <time>2020-08-22T09:47:59.000Z</time>
                <name>Trackpoint 1137</name>
            </trkpt>
            <trkpt lat="50.1276032" lon="11.0218664">
                <ele>262.0</ele>
                <time>2020-08-22T09:48:02.000Z</time>
                <name>Trackpoint 1138</name>
            </trkpt>
            <trkpt lat="50.1276384" lon="11.0217736">
                <ele>262.0</ele>
                <time>2020-08-22T09:48:05.000Z</time>
                <name>Trackpoint 1139</name>
            </trkpt>
            <trkpt lat="50.1277184" lon="11.0217312">
                <ele>262.0</ele>
                <time>2020-08-22T09:48:09.000Z</time>
                <name>Trackpoint 1140</name>
            </trkpt>
            <trkpt lat="50.1278176" lon="11.0217584">
                <ele>262.0</ele>
                <time>2020-08-22T09:48:14.000Z</time>
                <name>Trackpoint 1141</name>
            </trkpt>
            <trkpt lat="50.1278368" lon="11.0216648">
                <ele>262.0</ele>
                <time>2020-08-22T09:48:17.000Z</time>
                <name>Trackpoint 1142</name>
            </trkpt>
            <trkpt lat="50.1277888" lon="11.021528">
                <ele>262.0</ele>
                <time>2020-08-22T09:48:20.000Z</time>
                <name>Trackpoint 1143</name>
            </trkpt>
            <trkpt lat="50.1277312" lon="11.0214168">
                <ele>262.0</ele>
                <time>2020-08-22T09:48:22.000Z</time>
                <name>Trackpoint 1144</name>
            </trkpt>
            <trkpt lat="50.1276576" lon="11.0213032">
                <ele>262.0</ele>
                <time>2020-08-22T09:48:24.000Z</time>
                <name>Trackpoint 1145</name>
            </trkpt>
            <trkpt lat="50.1275776" lon="11.0211912">
                <ele>261.0</ele>
                <time>2020-08-22T09:48:26.000Z</time>
                <name>Trackpoint 1146</name>
            </trkpt>
            <trkpt lat="50.1274912" lon="11.0210736">
                <ele>261.0</ele>
                <time>2020-08-22T09:48:28.000Z</time>
                <name>Trackpoint 1147</name>
            </trkpt>
            <trkpt lat="50.1273952" lon="11.0209648">
                <ele>261.0</ele>
                <time>2020-08-22T09:48:30.000Z</time>
                <name>Trackpoint 1148</name>
            </trkpt>
            <trkpt lat="50.1273088" lon="11.0208456">
                <ele>261.0</ele>
                <time>2020-08-22T09:48:32.000Z</time>
                <name>Trackpoint 1149</name>
            </trkpt>
            <trkpt lat="50.1272096" lon="11.0207184">
                <ele>261.0</ele>
                <time>2020-08-22T09:48:34.000Z</time>
                <name>Trackpoint 1150</name>
            </trkpt>
            <trkpt lat="50.1271136" lon="11.0205984">
                <ele>260.0</ele>
                <time>2020-08-22T09:48:36.000Z</time>
                <name>Trackpoint 1151</name>
            </trkpt>
            <trkpt lat="50.1270016" lon="11.0204888">
                <ele>260.0</ele>
                <time>2020-08-22T09:48:38.000Z</time>
                <name>Trackpoint 1152</name>
            </trkpt>
            <trkpt lat="50.1269088" lon="11.0203712">
                <ele>260.0</ele>
                <time>2020-08-22T09:48:40.000Z</time>
                <name>Trackpoint 1153</name>
            </trkpt>
            <trkpt lat="50.1268128" lon="11.0202552">
                <ele>260.0</ele>
                <time>2020-08-22T09:48:42.000Z</time>
                <name>Trackpoint 1154</name>
            </trkpt>
            <trkpt lat="50.12672" lon="11.0201464">
                <ele>260.0</ele>
                <time>2020-08-22T09:48:44.000Z</time>
                <name>Trackpoint 1155</name>
            </trkpt>
            <trkpt lat="50.1266336" lon="11.0200328">
                <ele>260.0</ele>
                <time>2020-08-22T09:48:46.000Z</time>
                <name>Trackpoint 1156</name>
            </trkpt>
            <trkpt lat="50.126544" lon="11.0199248">
                <ele>260.0</ele>
                <time>2020-08-22T09:48:48.000Z</time>
                <name>Trackpoint 1157</name>
            </trkpt>
            <trkpt lat="50.1264576" lon="11.0198224">
                <ele>260.0</ele>
                <time>2020-08-22T09:48:50.000Z</time>
                <name>Trackpoint 1158</name>
            </trkpt>
            <trkpt lat="50.1263744" lon="11.01972">
                <ele>260.0</ele>
                <time>2020-08-22T09:48:52.000Z</time>
                <name>Trackpoint 1159</name>
            </trkpt>
            <trkpt lat="50.1262848" lon="11.0196168">
                <ele>261.0</ele>
                <time>2020-08-22T09:48:54.000Z</time>
                <name>Trackpoint 1160</name>
            </trkpt>
            <trkpt lat="50.1262016" lon="11.0195128">
                <ele>261.0</ele>
                <time>2020-08-22T09:48:56.000Z</time>
                <name>Trackpoint 1161</name>
            </trkpt>
            <trkpt lat="50.1261152" lon="11.0194104">
                <ele>261.0</ele>
                <time>2020-08-22T09:48:58.000Z</time>
                <name>Trackpoint 1162</name>
            </trkpt>
            <trkpt lat="50.1260288" lon="11.0193072">
                <ele>260.0</ele>
                <time>2020-08-22T09:49:00.000Z</time>
                <name>Trackpoint 1163</name>
            </trkpt>
            <trkpt lat="50.1259392" lon="11.0192072">
                <ele>260.0</ele>
                <time>2020-08-22T09:49:02.000Z</time>
                <name>Trackpoint 1164</name>
            </trkpt>
            <trkpt lat="50.1258464" lon="11.0190952">
                <ele>261.0</ele>
                <time>2020-08-22T09:49:04.000Z</time>
                <name>Trackpoint 1165</name>
            </trkpt>
            <trkpt lat="50.1257568" lon="11.01898">
                <ele>261.0</ele>
                <time>2020-08-22T09:49:06.000Z</time>
                <name>Trackpoint 1166</name>
            </trkpt>
            <trkpt lat="50.1256672" lon="11.0188712">
                <ele>261.0</ele>
                <time>2020-08-22T09:49:08.000Z</time>
                <name>Trackpoint 1167</name>
            </trkpt>
            <trkpt lat="50.1255808" lon="11.01876">
                <ele>261.0</ele>
                <time>2020-08-22T09:49:10.000Z</time>
                <name>Trackpoint 1168</name>
            </trkpt>
            <trkpt lat="50.125488" lon="11.0186568">
                <ele>261.0</ele>
                <time>2020-08-22T09:49:12.000Z</time>
                <name>Trackpoint 1169</name>
            </trkpt>
            <trkpt lat="50.1254016" lon="11.0185472">
                <ele>261.0</ele>
                <time>2020-08-22T09:49:14.000Z</time>
                <name>Trackpoint 1170</name>
            </trkpt>
            <trkpt lat="50.125312" lon="11.01844">
                <ele>261.0</ele>
                <time>2020-08-22T09:49:16.000Z</time>
                <name>Trackpoint 1171</name>
            </trkpt>
            <trkpt lat="50.1252256" lon="11.018336">
                <ele>261.0</ele>
                <time>2020-08-22T09:49:18.000Z</time>
                <name>Trackpoint 1172</name>
            </trkpt>
            <trkpt lat="50.125136" lon="11.0182312">
                <ele>261.0</ele>
                <time>2020-08-22T09:49:20.000Z</time>
                <name>Trackpoint 1173</name>
            </trkpt>
            <trkpt lat="50.1250528" lon="11.018124">
                <ele>261.0</ele>
                <time>2020-08-22T09:49:22.000Z</time>
                <name>Trackpoint 1174</name>
            </trkpt>
            <trkpt lat="50.1249664" lon="11.01802">
                <ele>261.0</ele>
                <time>2020-08-22T09:49:24.000Z</time>
                <name>Trackpoint 1175</name>
            </trkpt>
            <trkpt lat="50.1248832" lon="11.0179072">
                <ele>260.0</ele>
                <time>2020-08-22T09:49:26.000Z</time>
                <name>Trackpoint 1176</name>
            </trkpt>
            <trkpt lat="50.1247936" lon="11.0177936">
                <ele>260.0</ele>
                <time>2020-08-22T09:49:28.000Z</time>
                <name>Trackpoint 1177</name>
            </trkpt>
            <trkpt lat="50.1246976" lon="11.0176872">
                <ele>260.0</ele>
                <time>2020-08-22T09:49:30.000Z</time>
                <name>Trackpoint 1178</name>
            </trkpt>
            <trkpt lat="50.1246048" lon="11.0175696">
                <ele>260.0</ele>
                <time>2020-08-22T09:49:32.000Z</time>
                <name>Trackpoint 1179</name>
            </trkpt>
            <trkpt lat="50.1244992" lon="11.0174616">
                <ele>260.0</ele>
                <time>2020-08-22T09:49:34.000Z</time>
                <name>Trackpoint 1180</name>
            </trkpt>
            <trkpt lat="50.1244064" lon="11.0173264">
                <ele>261.0</ele>
                <time>2020-08-22T09:49:36.000Z</time>
                <name>Trackpoint 1181</name>
            </trkpt>
            <trkpt lat="50.1243072" lon="11.017208">
                <ele>261.0</ele>
                <time>2020-08-22T09:49:38.000Z</time>
                <name>Trackpoint 1182</name>
            </trkpt>
            <trkpt lat="50.124208" lon="11.0170896">
                <ele>260.0</ele>
                <time>2020-08-22T09:49:40.000Z</time>
                <name>Trackpoint 1183</name>
            </trkpt>
            <trkpt lat="50.1241024" lon="11.0169824">
                <ele>260.0</ele>
                <time>2020-08-22T09:49:42.000Z</time>
                <name>Trackpoint 1184</name>
            </trkpt>
            <trkpt lat="50.124" lon="11.0168832">
                <ele>260.0</ele>
                <time>2020-08-22T09:49:44.000Z</time>
                <name>Trackpoint 1185</name>
            </trkpt>
            <trkpt lat="50.1238912" lon="11.0168">
                <ele>259.0</ele>
                <time>2020-08-22T09:49:46.000Z</time>
                <name>Trackpoint 1186</name>
            </trkpt>
            <trkpt lat="50.1237984" lon="11.0166928">
                <ele>259.0</ele>
                <time>2020-08-22T09:49:48.000Z</time>
                <name>Trackpoint 1187</name>
            </trkpt>
            <trkpt lat="50.1237152" lon="11.0165832">
                <ele>259.0</ele>
                <time>2020-08-22T09:49:50.000Z</time>
                <name>Trackpoint 1188</name>
            </trkpt>
            <trkpt lat="50.1236256" lon="11.0164672">
                <ele>258.0</ele>
                <time>2020-08-22T09:49:52.000Z</time>
                <name>Trackpoint 1189</name>
            </trkpt>
            <trkpt lat="50.1235424" lon="11.016352">
                <ele>258.0</ele>
                <time>2020-08-22T09:49:54.000Z</time>
                <name>Trackpoint 1190</name>
            </trkpt>
            <trkpt lat="50.1234656" lon="11.0162152">
                <ele>258.0</ele>
                <time>2020-08-22T09:49:56.000Z</time>
                <name>Trackpoint 1191</name>
            </trkpt>
            <trkpt lat="50.1233984" lon="11.016084">
                <ele>258.0</ele>
                <time>2020-08-22T09:49:58.000Z</time>
                <name>Trackpoint 1192</name>
            </trkpt>
            <trkpt lat="50.1233056" lon="11.015972">
                <ele>258.0</ele>
                <time>2020-08-22T09:50:00.000Z</time>
                <name>Trackpoint 1193</name>
            </trkpt>
            <trkpt lat="50.1232192" lon="11.0158552">
                <ele>257.0</ele>
                <time>2020-08-22T09:50:02.000Z</time>
                <name>Trackpoint 1194</name>
            </trkpt>
            <trkpt lat="50.12312" lon="11.0157568">
                <ele>257.0</ele>
                <time>2020-08-22T09:50:04.000Z</time>
                <name>Trackpoint 1195</name>
            </trkpt>
            <trkpt lat="50.1230208" lon="11.0156496">
                <ele>256.0</ele>
                <time>2020-08-22T09:50:06.000Z</time>
                <name>Trackpoint 1196</name>
            </trkpt>
            <trkpt lat="50.122944" lon="11.015536">
                <ele>256.0</ele>
                <time>2020-08-22T09:50:08.000Z</time>
                <name>Trackpoint 1197</name>
            </trkpt>
            <trkpt lat="50.1228576" lon="11.0154264">
                <ele>256.0</ele>
                <time>2020-08-22T09:50:10.000Z</time>
                <name>Trackpoint 1198</name>
            </trkpt>
            <trkpt lat="50.122768" lon="11.0153176">
                <ele>255.0</ele>
                <time>2020-08-22T09:50:12.000Z</time>
                <name>Trackpoint 1199</name>
            </trkpt>
            <trkpt lat="50.1226848" lon="11.0152104">
                <ele>255.0</ele>
                <time>2020-08-22T09:50:14.000Z</time>
                <name>Trackpoint 1200</name>
            </trkpt>
            <trkpt lat="50.1225952" lon="11.0151016">
                <ele>255.0</ele>
                <time>2020-08-22T09:50:16.000Z</time>
                <name>Trackpoint 1201</name>
            </trkpt>
            <trkpt lat="50.1225056" lon="11.0149944">
                <ele>256.0</ele>
                <time>2020-08-22T09:50:18.000Z</time>
                <name>Trackpoint 1202</name>
            </trkpt>
            <trkpt lat="50.122416" lon="11.0148936">
                <ele>256.0</ele>
                <time>2020-08-22T09:50:20.000Z</time>
                <name>Trackpoint 1203</name>
            </trkpt>
            <trkpt lat="50.1223296" lon="11.0147864">
                <ele>256.0</ele>
                <time>2020-08-22T09:50:22.000Z</time>
                <name>Trackpoint 1204</name>
            </trkpt>
            <trkpt lat="50.1222368" lon="11.014684">
                <ele>256.0</ele>
                <time>2020-08-22T09:50:24.000Z</time>
                <name>Trackpoint 1205</name>
            </trkpt>
            <trkpt lat="50.1221632" lon="11.0145752">
                <ele>255.0</ele>
                <time>2020-08-22T09:50:26.000Z</time>
                <name>Trackpoint 1206</name>
            </trkpt>
            <trkpt lat="50.1220768" lon="11.0144656">
                <ele>255.0</ele>
                <time>2020-08-22T09:50:28.000Z</time>
                <name>Trackpoint 1207</name>
            </trkpt>
            <trkpt lat="50.121984" lon="11.0143544">
                <ele>255.0</ele>
                <time>2020-08-22T09:50:30.000Z</time>
                <name>Trackpoint 1208</name>
            </trkpt>
            <trkpt lat="50.1218912" lon="11.0142448">
                <ele>255.0</ele>
                <time>2020-08-22T09:50:32.000Z</time>
                <name>Trackpoint 1209</name>
            </trkpt>
            <trkpt lat="50.1218048" lon="11.0141424">
                <ele>255.0</ele>
                <time>2020-08-22T09:50:34.000Z</time>
                <name>Trackpoint 1210</name>
            </trkpt>
            <trkpt lat="50.1217216" lon="11.014044">
                <ele>255.0</ele>
                <time>2020-08-22T09:50:36.000Z</time>
                <name>Trackpoint 1211</name>
            </trkpt>
            <trkpt lat="50.1216672" lon="11.0139616">
                <ele>255.0</ele>
                <time>2020-08-22T09:50:38.000Z</time>
                <name>Trackpoint 1212</name>
            </trkpt>
            <trkpt lat="50.1216" lon="11.0138912">
                <ele>255.0</ele>
                <time>2020-08-22T09:50:41.000Z</time>
                <name>Trackpoint 1213</name>
            </trkpt>
            <trkpt lat="50.1215296" lon="11.0138128">
                <ele>254.0</ele>
                <time>2020-08-22T09:52:55.000Z</time>
                <name>Trackpoint 1214</name>
            </trkpt>
            <trkpt lat="50.121456" lon="11.0137168">
                <ele>254.0</ele>
                <time>2020-08-22T09:52:58.000Z</time>
                <name>Trackpoint 1215</name>
            </trkpt>
            <trkpt lat="50.1213888" lon="11.0136344">
                <ele>254.0</ele>
                <time>2020-08-22T09:53:00.000Z</time>
                <name>Trackpoint 1216</name>
            </trkpt>
            <trkpt lat="50.121328" lon="11.0135544">
                <ele>253.0</ele>
                <time>2020-08-22T09:53:02.000Z</time>
                <name>Trackpoint 1217</name>
            </trkpt>
            <trkpt lat="50.1212576" lon="11.013472">
                <ele>253.0</ele>
                <time>2020-08-22T09:53:04.000Z</time>
                <name>Trackpoint 1218</name>
            </trkpt>
            <trkpt lat="50.121184" lon="11.0133864">
                <ele>253.0</ele>
                <time>2020-08-22T09:53:06.000Z</time>
                <name>Trackpoint 1219</name>
            </trkpt>
            <trkpt lat="50.1211136" lon="11.0132984">
                <ele>253.0</ele>
                <time>2020-08-22T09:53:08.000Z</time>
                <name>Trackpoint 1220</name>
            </trkpt>
            <trkpt lat="50.1210336" lon="11.0132016">
                <ele>253.0</ele>
                <time>2020-08-22T09:53:10.000Z</time>
                <name>Trackpoint 1221</name>
            </trkpt>
            <trkpt lat="50.1209632" lon="11.0131056">
                <ele>253.0</ele>
                <time>2020-08-22T09:53:12.000Z</time>
                <name>Trackpoint 1222</name>
            </trkpt>
            <trkpt lat="50.120896" lon="11.0130304">
                <ele>253.0</ele>
                <time>2020-08-22T09:53:14.000Z</time>
                <name>Trackpoint 1223</name>
            </trkpt>
            <trkpt lat="50.1207872" lon="11.0130464">
                <ele>254.0</ele>
                <time>2020-08-22T09:53:17.000Z</time>
                <name>Trackpoint 1224</name>
            </trkpt>
            <trkpt lat="50.1207008" lon="11.0130104">
                <ele>255.0</ele>
                <time>2020-08-22T09:53:19.000Z</time>
                <name>Trackpoint 1225</name>
            </trkpt>
            <trkpt lat="50.1206016" lon="11.0129144">
                <ele>255.0</ele>
                <time>2020-08-22T09:53:22.000Z</time>
                <name>Trackpoint 1226</name>
            </trkpt>
            <trkpt lat="50.120528" lon="11.0128432">
                <ele>256.0</ele>
                <time>2020-08-22T09:53:24.000Z</time>
                <name>Trackpoint 1227</name>
            </trkpt>
            <trkpt lat="50.1204576" lon="11.0127824">
                <ele>256.0</ele>
                <time>2020-08-22T09:53:26.000Z</time>
                <name>Trackpoint 1228</name>
            </trkpt>
            <trkpt lat="50.120368" lon="11.0127016">
                <ele>256.0</ele>
                <time>2020-08-22T09:53:28.000Z</time>
                <name>Trackpoint 1229</name>
            </trkpt>
            <trkpt lat="50.1202784" lon="11.01262">
                <ele>257.0</ele>
                <time>2020-08-22T09:53:30.000Z</time>
                <name>Trackpoint 1230</name>
            </trkpt>
            <trkpt lat="50.120192" lon="11.012544">
                <ele>257.0</ele>
                <time>2020-08-22T09:53:32.000Z</time>
                <name>Trackpoint 1231</name>
            </trkpt>
            <trkpt lat="50.1201088" lon="11.012468">
                <ele>257.0</ele>
                <time>2020-08-22T09:53:34.000Z</time>
                <name>Trackpoint 1232</name>
            </trkpt>
            <trkpt lat="50.1200224" lon="11.0123864">
                <ele>258.0</ele>
                <time>2020-08-22T09:53:36.000Z</time>
                <name>Trackpoint 1233</name>
            </trkpt>
            <trkpt lat="50.1199456" lon="11.0122944">
                <ele>258.0</ele>
                <time>2020-08-22T09:53:38.000Z</time>
                <name>Trackpoint 1234</name>
            </trkpt>
            <trkpt lat="50.119872" lon="11.0122136">
                <ele>258.0</ele>
                <time>2020-08-22T09:53:40.000Z</time>
                <name>Trackpoint 1235</name>
            </trkpt>
            <trkpt lat="50.119792" lon="11.0121448">
                <ele>259.0</ele>
                <time>2020-08-22T09:53:42.000Z</time>
                <name>Trackpoint 1236</name>
            </trkpt>
            <trkpt lat="50.1197152" lon="11.0120752">
                <ele>260.0</ele>
                <time>2020-08-22T09:53:44.000Z</time>
                <name>Trackpoint 1237</name>
            </trkpt>
            <trkpt lat="50.1196416" lon="11.0119952">
                <ele>260.0</ele>
                <time>2020-08-22T09:53:46.000Z</time>
                <name>Trackpoint 1238</name>
            </trkpt>
            <trkpt lat="50.1195616" lon="11.0119264">
                <ele>261.0</ele>
                <time>2020-08-22T09:53:48.000Z</time>
                <name>Trackpoint 1239</name>
            </trkpt>
            <trkpt lat="50.1194816" lon="11.0118512">
                <ele>262.0</ele>
                <time>2020-08-22T09:53:50.000Z</time>
                <name>Trackpoint 1240</name>
            </trkpt>
            <trkpt lat="50.1194016" lon="11.0117632">
                <ele>263.0</ele>
                <time>2020-08-22T09:53:52.000Z</time>
                <name>Trackpoint 1241</name>
            </trkpt>
            <trkpt lat="50.1193344" lon="11.0116984">
                <ele>263.0</ele>
                <time>2020-08-22T09:53:54.000Z</time>
                <name>Trackpoint 1242</name>
            </trkpt>
            <trkpt lat="50.1192576" lon="11.011628">
                <ele>264.0</ele>
                <time>2020-08-22T09:53:56.000Z</time>
                <name>Trackpoint 1243</name>
            </trkpt>
            <trkpt lat="50.1191776" lon="11.0115544">
                <ele>264.0</ele>
                <time>2020-08-22T09:53:58.000Z</time>
                <name>Trackpoint 1244</name>
            </trkpt>
            <trkpt lat="50.1190944" lon="11.0114768">
                <ele>264.0</ele>
                <time>2020-08-22T09:54:00.000Z</time>
                <name>Trackpoint 1245</name>
            </trkpt>
            <trkpt lat="50.1190176" lon="11.0113984">
                <ele>264.0</ele>
                <time>2020-08-22T09:54:02.000Z</time>
                <name>Trackpoint 1246</name>
            </trkpt>
            <trkpt lat="50.1189472" lon="11.01134">
                <ele>264.0</ele>
                <time>2020-08-22T09:54:04.000Z</time>
                <name>Trackpoint 1247</name>
            </trkpt>
            <trkpt lat="50.1188704" lon="11.011276">
                <ele>264.0</ele>
                <time>2020-08-22T09:54:06.000Z</time>
                <name>Trackpoint 1248</name>
            </trkpt>
            <trkpt lat="50.1187872" lon="11.0112216">
                <ele>264.0</ele>
                <time>2020-08-22T09:54:08.000Z</time>
                <name>Trackpoint 1249</name>
            </trkpt>
            <trkpt lat="50.1187136" lon="11.0111688">
                <ele>264.0</ele>
                <time>2020-08-22T09:54:10.000Z</time>
                <name>Trackpoint 1250</name>
            </trkpt>
            <trkpt lat="50.1186432" lon="11.0110848">
                <ele>263.0</ele>
                <time>2020-08-22T09:54:12.000Z</time>
                <name>Trackpoint 1251</name>
            </trkpt>
            <trkpt lat="50.1185728" lon="11.0110232">
                <ele>263.0</ele>
                <time>2020-08-22T09:54:14.000Z</time>
                <name>Trackpoint 1252</name>
            </trkpt>
            <trkpt lat="50.1184768" lon="11.0109392">
                <ele>263.0</ele>
                <time>2020-08-22T09:54:17.000Z</time>
                <name>Trackpoint 1253</name>
            </trkpt>
            <trkpt lat="50.1183712" lon="11.0108816">
                <ele>264.0</ele>
                <time>2020-08-22T09:54:20.000Z</time>
                <name>Trackpoint 1254</name>
            </trkpt>
            <trkpt lat="50.1183008" lon="11.0108248">
                <ele>264.0</ele>
                <time>2020-08-22T09:54:22.000Z</time>
                <name>Trackpoint 1255</name>
            </trkpt>
            <trkpt lat="50.1182048" lon="11.0107472">
                <ele>264.0</ele>
                <time>2020-08-22T09:54:25.000Z</time>
                <name>Trackpoint 1256</name>
            </trkpt>
            <trkpt lat="50.1181216" lon="11.0106936">
                <ele>264.0</ele>
                <time>2020-08-22T09:54:28.000Z</time>
                <name>Trackpoint 1257</name>
            </trkpt>
            <trkpt lat="50.1180352" lon="11.0106552">
                <ele>265.0</ele>
                <time>2020-08-22T09:54:31.000Z</time>
                <name>Trackpoint 1258</name>
            </trkpt>
            <trkpt lat="50.1179456" lon="11.0106248">
                <ele>266.0</ele>
                <time>2020-08-22T09:54:34.000Z</time>
                <name>Trackpoint 1259</name>
            </trkpt>
            <trkpt lat="50.117856" lon="11.0106152">
                <ele>267.0</ele>
                <time>2020-08-22T09:54:37.000Z</time>
                <name>Trackpoint 1260</name>
            </trkpt>
            <trkpt lat="50.1177632" lon="11.010576">
                <ele>268.0</ele>
                <time>2020-08-22T09:54:40.000Z</time>
                <name>Trackpoint 1261</name>
            </trkpt>
            <trkpt lat="50.1176992" lon="11.0104648">
                <ele>267.0</ele>
                <time>2020-08-22T09:54:43.000Z</time>
                <name>Trackpoint 1262</name>
            </trkpt>
            <trkpt lat="50.1176288" lon="11.0103712">
                <ele>267.0</ele>
                <time>2020-08-22T09:54:46.000Z</time>
                <name>Trackpoint 1263</name>
            </trkpt>
            <trkpt lat="50.1175616" lon="11.0102816">
                <ele>268.0</ele>
                <time>2020-08-22T09:54:49.000Z</time>
                <name>Trackpoint 1264</name>
            </trkpt>
            <trkpt lat="50.117504" lon="11.0101696">
                <ele>268.0</ele>
                <time>2020-08-22T09:54:52.000Z</time>
                <name>Trackpoint 1265</name>
            </trkpt>
            <trkpt lat="50.1174208" lon="11.0100936">
                <ele>268.0</ele>
                <time>2020-08-22T09:54:55.000Z</time>
                <name>Trackpoint 1266</name>
            </trkpt>
            <trkpt lat="50.1173088" lon="11.0101296">
                <ele>269.0</ele>
                <time>2020-08-22T09:54:59.000Z</time>
                <name>Trackpoint 1267</name>
            </trkpt>
            <trkpt lat="50.1172192" lon="11.0101904">
                <ele>269.0</ele>
                <time>2020-08-22T09:55:02.000Z</time>
                <name>Trackpoint 1268</name>
            </trkpt>
            <trkpt lat="50.1171264" lon="11.0102528">
                <ele>270.0</ele>
                <time>2020-08-22T09:55:05.000Z</time>
                <name>Trackpoint 1269</name>
            </trkpt>
            <trkpt lat="50.1170336" lon="11.0103168">
                <ele>271.0</ele>
                <time>2020-08-22T09:55:08.000Z</time>
                <name>Trackpoint 1270</name>
            </trkpt>
            <trkpt lat="50.1169536" lon="11.0103848">
                <ele>271.0</ele>
                <time>2020-08-22T09:55:11.000Z</time>
                <name>Trackpoint 1271</name>
            </trkpt>
            <trkpt lat="50.1168672" lon="11.010464">
                <ele>272.0</ele>
                <time>2020-08-22T09:55:14.000Z</time>
                <name>Trackpoint 1272</name>
            </trkpt>
            <trkpt lat="50.1167936" lon="11.0105512">
                <ele>272.0</ele>
                <time>2020-08-22T09:55:17.000Z</time>
                <name>Trackpoint 1273</name>
            </trkpt>
            <trkpt lat="50.1167264" lon="11.0106352">
                <ele>272.0</ele>
                <time>2020-08-22T09:55:20.000Z</time>
                <name>Trackpoint 1274</name>
            </trkpt>
            <trkpt lat="50.1166528" lon="11.0107072">
                <ele>272.0</ele>
                <time>2020-08-22T09:55:23.000Z</time>
                <name>Trackpoint 1275</name>
            </trkpt>
            <trkpt lat="50.1165856" lon="11.010792">
                <ele>272.0</ele>
                <time>2020-08-22T09:55:28.000Z</time>
                <name>Trackpoint 1276</name>
            </trkpt>
            <trkpt lat="50.1164896" lon="11.010812">
                <ele>272.0</ele>
                <time>2020-08-22T09:55:33.000Z</time>
                <name>Trackpoint 1277</name>
            </trkpt>
            <trkpt lat="50.1164448" lon="11.0107168">
                <ele>272.0</ele>
                <time>2020-08-22T09:55:35.000Z</time>
                <name>Trackpoint 1278</name>
            </trkpt>
            <trkpt lat="50.1164032" lon="11.0105984">
                <ele>272.0</ele>
                <time>2020-08-22T09:55:37.000Z</time>
                <name>Trackpoint 1279</name>
            </trkpt>
            <trkpt lat="50.1163552" lon="11.0104736">
                <ele>272.0</ele>
                <time>2020-08-22T09:55:39.000Z</time>
                <name>Trackpoint 1280</name>
            </trkpt>
            <trkpt lat="50.116304" lon="11.0103352">
                <ele>272.0</ele>
                <time>2020-08-22T09:55:41.000Z</time>
                <name>Trackpoint 1281</name>
            </trkpt>
            <trkpt lat="50.11624" lon="11.0101944">
                <ele>272.0</ele>
                <time>2020-08-22T09:55:43.000Z</time>
                <name>Trackpoint 1282</name>
            </trkpt>
            <trkpt lat="50.116176" lon="11.0100544">
                <ele>271.0</ele>
                <time>2020-08-22T09:55:45.000Z</time>
                <name>Trackpoint 1283</name>
            </trkpt>
            <trkpt lat="50.1161184" lon="11.0099048">
                <ele>271.0</ele>
                <time>2020-08-22T09:55:47.000Z</time>
                <name>Trackpoint 1284</name>
            </trkpt>
            <trkpt lat="50.1160576" lon="11.009744">
                <ele>271.0</ele>
                <time>2020-08-22T09:55:49.000Z</time>
                <name>Trackpoint 1285</name>
            </trkpt>
            <trkpt lat="50.1159936" lon="11.00958">
                <ele>270.0</ele>
                <time>2020-08-22T09:55:51.000Z</time>
                <name>Trackpoint 1286</name>
            </trkpt>
            <trkpt lat="50.1159296" lon="11.00942">
                <ele>270.0</ele>
                <time>2020-08-22T09:55:53.000Z</time>
                <name>Trackpoint 1287</name>
            </trkpt>
            <trkpt lat="50.1158912" lon="11.0093384">
                <ele>270.0</ele>
                <time>2020-08-22T09:55:54.000Z</time>
                <name>Trackpoint 1288</name>
            </trkpt>
            <trkpt lat="50.1158208" lon="11.0091752">
                <ele>269.0</ele>
                <time>2020-08-22T09:55:56.000Z</time>
                <name>Trackpoint 1289</name>
            </trkpt>
            <trkpt lat="50.1157792" lon="11.0090952">
                <ele>269.0</ele>
                <time>2020-08-22T09:55:57.000Z</time>
                <name>Trackpoint 1290</name>
            </trkpt>
            <trkpt lat="50.115744" lon="11.0090112">
                <ele>269.0</ele>
                <time>2020-08-22T09:55:58.000Z</time>
                <name>Trackpoint 1291</name>
            </trkpt>
            <trkpt lat="50.1157088" lon="11.0089264">
                <ele>269.0</ele>
                <time>2020-08-22T09:55:59.000Z</time>
                <name>Trackpoint 1292</name>
            </trkpt>
            <trkpt lat="50.115664" lon="11.0088384">
                <ele>269.0</ele>
                <time>2020-08-22T09:56:00.000Z</time>
                <name>Trackpoint 1293</name>
            </trkpt>
            <trkpt lat="50.115584" lon="11.0086744">
                <ele>269.0</ele>
                <time>2020-08-22T09:56:02.000Z</time>
                <name>Trackpoint 1294</name>
            </trkpt>
            <trkpt lat="50.115504" lon="11.0085136">
                <ele>268.0</ele>
                <time>2020-08-22T09:56:04.000Z</time>
                <name>Trackpoint 1295</name>
            </trkpt>
            <trkpt lat="50.1154656" lon="11.0084288">
                <ele>268.0</ele>
                <time>2020-08-22T09:56:05.000Z</time>
                <name>Trackpoint 1296</name>
            </trkpt>
            <trkpt lat="50.1153952" lon="11.008268">
                <ele>267.0</ele>
                <time>2020-08-22T09:56:07.000Z</time>
                <name>Trackpoint 1297</name>
            </trkpt>
            <trkpt lat="50.1153568" lon="11.0081864">
                <ele>266.0</ele>
                <time>2020-08-22T09:56:08.000Z</time>
                <name>Trackpoint 1298</name>
            </trkpt>
            <trkpt lat="50.11528" lon="11.0080184">
                <ele>264.0</ele>
                <time>2020-08-22T09:56:10.000Z</time>
                <name>Trackpoint 1299</name>
            </trkpt>
            <trkpt lat="50.1152352" lon="11.007928">
                <ele>264.0</ele>
                <time>2020-08-22T09:56:11.000Z</time>
                <name>Trackpoint 1300</name>
            </trkpt>
            <trkpt lat="50.1151808" lon="11.0078424">
                <ele>263.0</ele>
                <time>2020-08-22T09:56:12.000Z</time>
                <name>Trackpoint 1301</name>
            </trkpt>
            <trkpt lat="50.115136" lon="11.0077536">
                <ele>262.0</ele>
                <time>2020-08-22T09:56:13.000Z</time>
                <name>Trackpoint 1302</name>
            </trkpt>
            <trkpt lat="50.115088" lon="11.0076616">
                <ele>262.0</ele>
                <time>2020-08-22T09:56:14.000Z</time>
                <name>Trackpoint 1303</name>
            </trkpt>
            <trkpt lat="50.11504" lon="11.007568">
                <ele>261.0</ele>
                <time>2020-08-22T09:56:15.000Z</time>
                <name>Trackpoint 1304</name>
            </trkpt>
            <trkpt lat="50.1149888" lon="11.0074752">
                <ele>261.0</ele>
                <time>2020-08-22T09:56:16.000Z</time>
                <name>Trackpoint 1305</name>
            </trkpt>
            <trkpt lat="50.1149344" lon="11.0073784">
                <ele>261.0</ele>
                <time>2020-08-22T09:56:17.000Z</time>
                <name>Trackpoint 1306</name>
            </trkpt>
            <trkpt lat="50.11488" lon="11.0072816">
                <ele>261.0</ele>
                <time>2020-08-22T09:56:18.000Z</time>
                <name>Trackpoint 1307</name>
            </trkpt>
            <trkpt lat="50.1148288" lon="11.0071832">
                <ele>261.0</ele>
                <time>2020-08-22T09:56:19.000Z</time>
                <name>Trackpoint 1308</name>
            </trkpt>
            <trkpt lat="50.1147904" lon="11.0070896">
                <ele>261.0</ele>
                <time>2020-08-22T09:56:20.000Z</time>
                <name>Trackpoint 1309</name>
            </trkpt>
            <trkpt lat="50.1147488" lon="11.0070016">
                <ele>261.0</ele>
                <time>2020-08-22T09:56:21.000Z</time>
                <name>Trackpoint 1310</name>
            </trkpt>
            <trkpt lat="50.1146688" lon="11.006848">
                <ele>262.0</ele>
                <time>2020-08-22T09:56:23.000Z</time>
                <name>Trackpoint 1311</name>
            </trkpt>
            <trkpt lat="50.1146016" lon="11.006708">
                <ele>262.0</ele>
                <time>2020-08-22T09:56:25.000Z</time>
                <name>Trackpoint 1312</name>
            </trkpt>
            <trkpt lat="50.1145408" lon="11.00658">
                <ele>262.0</ele>
                <time>2020-08-22T09:56:27.000Z</time>
                <name>Trackpoint 1313</name>
            </trkpt>
            <trkpt lat="50.1144768" lon="11.0064632">
                <ele>262.0</ele>
                <time>2020-08-22T09:56:29.000Z</time>
                <name>Trackpoint 1314</name>
            </trkpt>
            <trkpt lat="50.1144096" lon="11.0063464">
                <ele>262.0</ele>
                <time>2020-08-22T09:56:31.000Z</time>
                <name>Trackpoint 1315</name>
            </trkpt>
            <trkpt lat="50.114352" lon="11.0062248">
                <ele>261.0</ele>
                <time>2020-08-22T09:56:33.000Z</time>
                <name>Trackpoint 1316</name>
            </trkpt>
            <trkpt lat="50.1142816" lon="11.006112">
                <ele>261.0</ele>
                <time>2020-08-22T09:56:35.000Z</time>
                <name>Trackpoint 1317</name>
            </trkpt>
            <trkpt lat="50.1142112" lon="11.005988">
                <ele>261.0</ele>
                <time>2020-08-22T09:56:37.000Z</time>
                <name>Trackpoint 1318</name>
            </trkpt>
            <trkpt lat="50.1141472" lon="11.0058632">
                <ele>260.0</ele>
                <time>2020-08-22T09:56:39.000Z</time>
                <name>Trackpoint 1319</name>
            </trkpt>
            <trkpt lat="50.11408" lon="11.0057432">
                <ele>260.0</ele>
                <time>2020-08-22T09:56:41.000Z</time>
                <name>Trackpoint 1320</name>
            </trkpt>
            <trkpt lat="50.1140096" lon="11.0056248">
                <ele>260.0</ele>
                <time>2020-08-22T09:56:43.000Z</time>
                <name>Trackpoint 1321</name>
            </trkpt>
            <trkpt lat="50.1139456" lon="11.005504">
                <ele>260.0</ele>
                <time>2020-08-22T09:56:45.000Z</time>
                <name>Trackpoint 1322</name>
            </trkpt>
            <trkpt lat="50.1138816" lon="11.00538">
                <ele>260.0</ele>
                <time>2020-08-22T09:56:47.000Z</time>
                <name>Trackpoint 1323</name>
            </trkpt>
            <trkpt lat="50.1138176" lon="11.0052584">
                <ele>259.0</ele>
                <time>2020-08-22T09:56:49.000Z</time>
                <name>Trackpoint 1324</name>
            </trkpt>
            <trkpt lat="50.1137536" lon="11.005128">
                <ele>260.0</ele>
                <time>2020-08-22T09:56:51.000Z</time>
                <name>Trackpoint 1325</name>
            </trkpt>
            <trkpt lat="50.1136832" lon="11.0050136">
                <ele>260.0</ele>
                <time>2020-08-22T09:56:53.000Z</time>
                <name>Trackpoint 1326</name>
            </trkpt>
            <trkpt lat="50.1136192" lon="11.0048888">
                <ele>260.0</ele>
                <time>2020-08-22T09:56:55.000Z</time>
                <name>Trackpoint 1327</name>
            </trkpt>
            <trkpt lat="50.1135584" lon="11.0047664">
                <ele>260.0</ele>
                <time>2020-08-22T09:56:57.000Z</time>
                <name>Trackpoint 1328</name>
            </trkpt>
            <trkpt lat="50.1134752" lon="11.0046432">
                <ele>261.0</ele>
                <time>2020-08-22T09:56:59.000Z</time>
                <name>Trackpoint 1329</name>
            </trkpt>
            <trkpt lat="50.1134112" lon="11.0045216">
                <ele>261.0</ele>
                <time>2020-08-22T09:57:01.000Z</time>
                <name>Trackpoint 1330</name>
            </trkpt>
            <trkpt lat="50.1133408" lon="11.004392">
                <ele>261.0</ele>
                <time>2020-08-22T09:57:03.000Z</time>
                <name>Trackpoint 1331</name>
            </trkpt>
            <trkpt lat="50.11328" lon="11.0042736">
                <ele>260.0</ele>
                <time>2020-08-22T09:57:05.000Z</time>
                <name>Trackpoint 1332</name>
            </trkpt>
            <trkpt lat="50.1132128" lon="11.0041416">
                <ele>260.0</ele>
                <time>2020-08-22T09:57:07.000Z</time>
                <name>Trackpoint 1333</name>
            </trkpt>
            <trkpt lat="50.1131392" lon="11.0040168">
                <ele>260.0</ele>
                <time>2020-08-22T09:57:09.000Z</time>
                <name>Trackpoint 1334</name>
            </trkpt>
            <trkpt lat="50.113072" lon="11.0038904">
                <ele>260.0</ele>
                <time>2020-08-22T09:57:11.000Z</time>
                <name>Trackpoint 1335</name>
            </trkpt>
            <trkpt lat="50.1130016" lon="11.0037632">
                <ele>260.0</ele>
                <time>2020-08-22T09:57:13.000Z</time>
                <name>Trackpoint 1336</name>
            </trkpt>
            <trkpt lat="50.1129344" lon="11.0036336">
                <ele>260.0</ele>
                <time>2020-08-22T09:57:15.000Z</time>
                <name>Trackpoint 1337</name>
            </trkpt>
            <trkpt lat="50.1128608" lon="11.0035064">
                <ele>260.0</ele>
                <time>2020-08-22T09:57:17.000Z</time>
                <name>Trackpoint 1338</name>
            </trkpt>
            <trkpt lat="50.1127968" lon="11.0033752">
                <ele>259.0</ele>
                <time>2020-08-22T09:57:19.000Z</time>
                <name>Trackpoint 1339</name>
            </trkpt>
            <trkpt lat="50.1127296" lon="11.003248">
                <ele>259.0</ele>
                <time>2020-08-22T09:57:21.000Z</time>
                <name>Trackpoint 1340</name>
            </trkpt>
            <trkpt lat="50.1126592" lon="11.0031184">
                <ele>259.0</ele>
                <time>2020-08-22T09:57:23.000Z</time>
                <name>Trackpoint 1341</name>
            </trkpt>
            <trkpt lat="50.112592" lon="11.0029896">
                <ele>259.0</ele>
                <time>2020-08-22T09:57:25.000Z</time>
                <name>Trackpoint 1342</name>
            </trkpt>
            <trkpt lat="50.1125216" lon="11.0028584">
                <ele>259.0</ele>
                <time>2020-08-22T09:57:27.000Z</time>
                <name>Trackpoint 1343</name>
            </trkpt>
            <trkpt lat="50.1124544" lon="11.0027248">
                <ele>259.0</ele>
                <time>2020-08-22T09:57:29.000Z</time>
                <name>Trackpoint 1344</name>
            </trkpt>
            <trkpt lat="50.112384" lon="11.0025952">
                <ele>259.0</ele>
                <time>2020-08-22T09:57:31.000Z</time>
                <name>Trackpoint 1345</name>
            </trkpt>
            <trkpt lat="50.1123136" lon="11.0024584">
                <ele>259.0</ele>
                <time>2020-08-22T09:57:33.000Z</time>
                <name>Trackpoint 1346</name>
            </trkpt>
            <trkpt lat="50.1122432" lon="11.0023232">
                <ele>259.0</ele>
                <time>2020-08-22T09:57:35.000Z</time>
                <name>Trackpoint 1347</name>
            </trkpt>
            <trkpt lat="50.112176" lon="11.0021912">
                <ele>259.0</ele>
                <time>2020-08-22T09:57:37.000Z</time>
                <name>Trackpoint 1348</name>
            </trkpt>
            <trkpt lat="50.1121088" lon="11.002064">
                <ele>259.0</ele>
                <time>2020-08-22T09:57:39.000Z</time>
                <name>Trackpoint 1349</name>
            </trkpt>
            <trkpt lat="50.112048" lon="11.0019376">
                <ele>258.0</ele>
                <time>2020-08-22T09:57:41.000Z</time>
                <name>Trackpoint 1350</name>
            </trkpt>
            <trkpt lat="50.1119904" lon="11.0018216">
                <ele>257.0</ele>
                <time>2020-08-22T09:57:43.000Z</time>
                <name>Trackpoint 1351</name>
            </trkpt>
            <trkpt lat="50.1119232" lon="11.0017008">
                <ele>257.0</ele>
                <time>2020-08-22T09:57:45.000Z</time>
                <name>Trackpoint 1352</name>
            </trkpt>
            <trkpt lat="50.111856" lon="11.0015648">
                <ele>258.0</ele>
                <time>2020-08-22T09:57:47.000Z</time>
                <name>Trackpoint 1353</name>
            </trkpt>
            <trkpt lat="50.111792" lon="11.00144">
                <ele>258.0</ele>
                <time>2020-08-22T09:57:49.000Z</time>
                <name>Trackpoint 1354</name>
            </trkpt>
            <trkpt lat="50.111728" lon="11.0013176">
                <ele>258.0</ele>
                <time>2020-08-22T09:57:51.000Z</time>
                <name>Trackpoint 1355</name>
            </trkpt>
            <trkpt lat="50.1116672" lon="11.0012016">
                <ele>258.0</ele>
                <time>2020-08-22T09:57:53.000Z</time>
                <name>Trackpoint 1356</name>
            </trkpt>
            <trkpt lat="50.1116064" lon="11.0010792">
                <ele>258.0</ele>
                <time>2020-08-22T09:57:55.000Z</time>
                <name>Trackpoint 1357</name>
            </trkpt>
            <trkpt lat="50.1115456" lon="11.0009616">
                <ele>258.0</ele>
                <time>2020-08-22T09:57:57.000Z</time>
                <name>Trackpoint 1358</name>
            </trkpt>
            <trkpt lat="50.1114912" lon="11.0008424">
                <ele>259.0</ele>
                <time>2020-08-22T09:57:59.000Z</time>
                <name>Trackpoint 1359</name>
            </trkpt>
            <trkpt lat="50.11144" lon="11.00074">
                <ele>259.0</ele>
                <time>2020-08-22T09:58:01.000Z</time>
                <name>Trackpoint 1360</name>
            </trkpt>
            <trkpt lat="50.1113888" lon="11.00064">
                <ele>260.0</ele>
                <time>2020-08-22T09:58:03.000Z</time>
                <name>Trackpoint 1361</name>
            </trkpt>
            <trkpt lat="50.1113344" lon="11.0005504">
                <ele>260.0</ele>
                <time>2020-08-22T09:58:05.000Z</time>
                <name>Trackpoint 1362</name>
            </trkpt>
            <trkpt lat="50.1112832" lon="11.000452">
                <ele>260.0</ele>
                <time>2020-08-22T09:58:07.000Z</time>
                <name>Trackpoint 1363</name>
            </trkpt>
            <trkpt lat="50.1112256" lon="11.0003432">
                <ele>262.0</ele>
                <time>2020-08-22T09:58:09.000Z</time>
                <name>Trackpoint 1364</name>
            </trkpt>
            <trkpt lat="50.1111744" lon="11.0002472">
                <ele>262.0</ele>
                <time>2020-08-22T09:58:11.000Z</time>
                <name>Trackpoint 1365</name>
            </trkpt>
            <trkpt lat="50.1111232" lon="11.0001552">
                <ele>262.0</ele>
                <time>2020-08-22T09:58:13.000Z</time>
                <name>Trackpoint 1366</name>
            </trkpt>
            <trkpt lat="50.111072" lon="11.0000688">
                <ele>262.0</ele>
                <time>2020-08-22T09:58:15.000Z</time>
                <name>Trackpoint 1367</name>
            </trkpt>
            <trkpt lat="50.1110144" lon="10.9999736">
                <ele>262.0</ele>
                <time>2020-08-22T09:58:17.000Z</time>
                <name>Trackpoint 1368</name>
            </trkpt>
            <trkpt lat="50.1109632" lon="10.9998888">
                <ele>262.0</ele>
                <time>2020-08-22T09:58:19.000Z</time>
                <name>Trackpoint 1369</name>
            </trkpt>
            <trkpt lat="50.1109152" lon="10.9998016">
                <ele>262.0</ele>
                <time>2020-08-22T09:58:21.000Z</time>
                <name>Trackpoint 1370</name>
            </trkpt>
            <trkpt lat="50.1108736" lon="10.999712">
                <ele>261.0</ele>
                <time>2020-08-22T09:58:23.000Z</time>
                <name>Trackpoint 1371</name>
            </trkpt>
            <trkpt lat="50.1108256" lon="10.9996096">
                <ele>262.0</ele>
                <time>2020-08-22T09:58:25.000Z</time>
                <name>Trackpoint 1372</name>
            </trkpt>
            <trkpt lat="50.1107872" lon="10.9995136">
                <ele>261.0</ele>
                <time>2020-08-22T09:58:27.000Z</time>
                <name>Trackpoint 1373</name>
            </trkpt>
            <trkpt lat="50.1107392" lon="10.999416">
                <ele>261.0</ele>
                <time>2020-08-22T09:58:29.000Z</time>
                <name>Trackpoint 1374</name>
            </trkpt>
            <trkpt lat="50.110688" lon="10.9993184">
                <ele>261.0</ele>
                <time>2020-08-22T09:58:31.000Z</time>
                <name>Trackpoint 1375</name>
            </trkpt>
            <trkpt lat="50.1106304" lon="10.9992264">
                <ele>261.0</ele>
                <time>2020-08-22T09:58:33.000Z</time>
                <name>Trackpoint 1376</name>
            </trkpt>
            <trkpt lat="50.110576" lon="10.99912">
                <ele>261.0</ele>
                <time>2020-08-22T09:58:35.000Z</time>
                <name>Trackpoint 1377</name>
            </trkpt>
            <trkpt lat="50.1105248" lon="10.9990032">
                <ele>261.0</ele>
                <time>2020-08-22T09:58:37.000Z</time>
                <name>Trackpoint 1378</name>
            </trkpt>
            <trkpt lat="50.1104672" lon="10.9988784">
                <ele>261.0</ele>
                <time>2020-08-22T09:58:39.000Z</time>
                <name>Trackpoint 1379</name>
            </trkpt>
            <trkpt lat="50.1104064" lon="10.9987496">
                <ele>261.0</ele>
                <time>2020-08-22T09:58:41.000Z</time>
                <name>Trackpoint 1380</name>
            </trkpt>
            <trkpt lat="50.110352" lon="10.9986152">
                <ele>261.0</ele>
                <time>2020-08-22T09:58:43.000Z</time>
                <name>Trackpoint 1381</name>
            </trkpt>
            <trkpt lat="50.1102912" lon="10.9984888">
                <ele>261.0</ele>
                <time>2020-08-22T09:58:45.000Z</time>
                <name>Trackpoint 1382</name>
            </trkpt>
            <trkpt lat="50.1102304" lon="10.9983664">
                <ele>261.0</ele>
                <time>2020-08-22T09:58:47.000Z</time>
                <name>Trackpoint 1383</name>
            </trkpt>
            <trkpt lat="50.110176" lon="10.9982456">
                <ele>261.0</ele>
                <time>2020-08-22T09:58:49.000Z</time>
                <name>Trackpoint 1384</name>
            </trkpt>
            <trkpt lat="50.1101184" lon="10.998128">
                <ele>261.0</ele>
                <time>2020-08-22T09:58:51.000Z</time>
                <name>Trackpoint 1385</name>
            </trkpt>
            <trkpt lat="50.1100576" lon="10.9980152">
                <ele>261.0</ele>
                <time>2020-08-22T09:58:53.000Z</time>
                <name>Trackpoint 1386</name>
            </trkpt>
            <trkpt lat="50.1100032" lon="10.9979112">
                <ele>261.0</ele>
                <time>2020-08-22T09:58:55.000Z</time>
                <name>Trackpoint 1387</name>
            </trkpt>
            <trkpt lat="50.1099552" lon="10.9978112">
                <ele>261.0</ele>
                <time>2020-08-22T09:58:57.000Z</time>
                <name>Trackpoint 1388</name>
            </trkpt>
            <trkpt lat="50.1099008" lon="10.9977128">
                <ele>261.0</ele>
                <time>2020-08-22T09:58:59.000Z</time>
                <name>Trackpoint 1389</name>
            </trkpt>
            <trkpt lat="50.109856" lon="10.9976152">
                <ele>261.0</ele>
                <time>2020-08-22T09:59:01.000Z</time>
                <name>Trackpoint 1390</name>
            </trkpt>
            <trkpt lat="50.1098112" lon="10.9975256">
                <ele>261.0</ele>
                <time>2020-08-22T09:59:03.000Z</time>
                <name>Trackpoint 1391</name>
            </trkpt>
            <trkpt lat="50.1097728" lon="10.99744">
                <ele>261.0</ele>
                <time>2020-08-22T09:59:05.000Z</time>
                <name>Trackpoint 1392</name>
            </trkpt>
            <trkpt lat="50.1097248" lon="10.9973552">
                <ele>261.0</ele>
                <time>2020-08-22T09:59:07.000Z</time>
                <name>Trackpoint 1393</name>
            </trkpt>
            <trkpt lat="50.1097056" lon="10.9972632">
                <ele>261.0</ele>
                <time>2020-08-22T09:59:09.000Z</time>
                <name>Trackpoint 1394</name>
            </trkpt>
            <trkpt lat="50.1096864" lon="10.9971616">
                <ele>261.0</ele>
                <time>2020-08-22T09:59:11.000Z</time>
                <name>Trackpoint 1395</name>
            </trkpt>
            <trkpt lat="50.1096448" lon="10.99706">
                <ele>261.0</ele>
                <time>2020-08-22T09:59:13.000Z</time>
                <name>Trackpoint 1396</name>
            </trkpt>
            <trkpt lat="50.1095744" lon="10.9969704">
                <ele>262.0</ele>
                <time>2020-08-22T09:59:15.000Z</time>
                <name>Trackpoint 1397</name>
            </trkpt>
            <trkpt lat="50.10952" lon="10.996872">
                <ele>262.0</ele>
                <time>2020-08-22T09:59:17.000Z</time>
                <name>Trackpoint 1398</name>
            </trkpt>
            <trkpt lat="50.1094656" lon="10.9967696">
                <ele>261.0</ele>
                <time>2020-08-22T09:59:19.000Z</time>
                <name>Trackpoint 1399</name>
            </trkpt>
            <trkpt lat="50.1094144" lon="10.9966696">
                <ele>262.0</ele>
                <time>2020-08-22T09:59:21.000Z</time>
                <name>Trackpoint 1400</name>
            </trkpt>
            <trkpt lat="50.1093408" lon="10.9965864">
                <ele>262.0</ele>
                <time>2020-08-22T09:59:23.000Z</time>
                <name>Trackpoint 1401</name>
            </trkpt>
            <trkpt lat="50.109264" lon="10.9965112">
                <ele>262.0</ele>
                <time>2020-08-22T09:59:25.000Z</time>
                <name>Trackpoint 1402</name>
            </trkpt>
            <trkpt lat="50.1091872" lon="10.9964568">
                <ele>261.0</ele>
                <time>2020-08-22T09:59:27.000Z</time>
                <name>Trackpoint 1403</name>
            </trkpt>
            <trkpt lat="50.1090816" lon="10.9963968">
                <ele>262.0</ele>
                <time>2020-08-22T09:59:30.000Z</time>
                <name>Trackpoint 1404</name>
            </trkpt>
            <trkpt lat="50.1090272" lon="10.9963104">
                <ele>262.0</ele>
                <time>2020-08-22T09:59:34.000Z</time>
                <name>Trackpoint 1405</name>
            </trkpt>
            <trkpt lat="50.1090112" lon="10.99622">
                <ele>259.0</ele>
                <time>2020-08-22T09:59:40.000Z</time>
                <name>Trackpoint 1406</name>
            </trkpt>
            <trkpt lat="50.1090272" lon="10.9961232">
                <ele>259.0</ele>
                <time>2020-08-22T09:59:45.000Z</time>
                <name>Trackpoint 1407</name>
            </trkpt>
            <trkpt lat="50.1090848" lon="10.996028">
                <ele>260.0</ele>
                <time>2020-08-22T09:59:49.000Z</time>
                <name>Trackpoint 1408</name>
            </trkpt>
            <trkpt lat="50.1091552" lon="10.9959584">
                <ele>260.0</ele>
                <time>2020-08-22T09:59:52.000Z</time>
                <name>Trackpoint 1409</name>
            </trkpt>
            <trkpt lat="50.1092" lon="10.9958496">
                <ele>260.0</ele>
                <time>2020-08-22T09:59:55.000Z</time>
                <name>Trackpoint 1410</name>
            </trkpt>
            <trkpt lat="50.1092896" lon="10.9957616">
                <ele>260.0</ele>
                <time>2020-08-22T09:59:59.000Z</time>
                <name>Trackpoint 1411</name>
            </trkpt>
            <trkpt lat="50.1094144" lon="10.9957552">
                <ele>260.0</ele>
                <time>2020-08-22T10:00:02.000Z</time>
                <name>Trackpoint 1412</name>
            </trkpt>
            <trkpt lat="50.1094784" lon="10.995644">
                <ele>260.0</ele>
                <time>2020-08-22T10:00:05.000Z</time>
                <name>Trackpoint 1413</name>
            </trkpt>
            <trkpt lat="50.1094784" lon="10.9955216">
                <ele>260.0</ele>
                <time>2020-08-22T10:00:07.000Z</time>
                <name>Trackpoint 1414</name>
            </trkpt>
            <trkpt lat="50.1094528" lon="10.995392">
                <ele>260.0</ele>
                <time>2020-08-22T10:00:09.000Z</time>
                <name>Trackpoint 1415</name>
            </trkpt>
            <trkpt lat="50.1094272" lon="10.9952736">
                <ele>260.0</ele>
                <time>2020-08-22T10:00:11.000Z</time>
                <name>Trackpoint 1416</name>
            </trkpt>
            <trkpt lat="50.1094048" lon="10.9951488">
                <ele>261.0</ele>
                <time>2020-08-22T10:00:13.000Z</time>
                <name>Trackpoint 1417</name>
            </trkpt>
            <trkpt lat="50.1093888" lon="10.9950152">
                <ele>261.0</ele>
                <time>2020-08-22T10:00:15.000Z</time>
                <name>Trackpoint 1418</name>
            </trkpt>
            <trkpt lat="50.1093632" lon="10.9949056">
                <ele>261.0</ele>
                <time>2020-08-22T10:00:17.000Z</time>
                <name>Trackpoint 1419</name>
            </trkpt>
            <trkpt lat="50.1093152" lon="10.994792">
                <ele>261.0</ele>
                <time>2020-08-22T10:00:19.000Z</time>
                <name>Trackpoint 1420</name>
            </trkpt>
            <trkpt lat="50.1092608" lon="10.9946936">
                <ele>261.0</ele>
                <time>2020-08-22T10:00:21.000Z</time>
                <name>Trackpoint 1421</name>
            </trkpt>
            <trkpt lat="50.1092032" lon="10.9945968">
                <ele>261.0</ele>
                <time>2020-08-22T10:00:23.000Z</time>
                <name>Trackpoint 1422</name>
            </trkpt>
            <trkpt lat="50.1091392" lon="10.9945">
                <ele>260.0</ele>
                <time>2020-08-22T10:00:25.000Z</time>
                <name>Trackpoint 1423</name>
            </trkpt>
            <trkpt lat="50.1090688" lon="10.9944088">
                <ele>261.0</ele>
                <time>2020-08-22T10:00:27.000Z</time>
                <name>Trackpoint 1424</name>
            </trkpt>
            <trkpt lat="50.1090016" lon="10.9943448">
                <ele>261.0</ele>
                <time>2020-08-22T10:00:29.000Z</time>
                <name>Trackpoint 1425</name>
            </trkpt>
            <trkpt lat="50.1089312" lon="10.9942776">
                <ele>261.0</ele>
                <time>2020-08-22T10:00:31.000Z</time>
                <name>Trackpoint 1426</name>
            </trkpt>
            <trkpt lat="50.1088448" lon="10.9941832">
                <ele>261.0</ele>
                <time>2020-08-22T10:00:34.000Z</time>
                <name>Trackpoint 1427</name>
            </trkpt>
            <trkpt lat="50.1087456" lon="10.9941264">
                <ele>261.0</ele>
                <time>2020-08-22T10:00:37.000Z</time>
                <name>Trackpoint 1428</name>
            </trkpt>
            <trkpt lat="50.1086624" lon="10.9940328">
                <ele>261.0</ele>
                <time>2020-08-22T10:00:40.000Z</time>
                <name>Trackpoint 1429</name>
            </trkpt>
            <trkpt lat="50.1086016" lon="10.9939648">
                <ele>261.0</ele>
                <time>2020-08-22T10:00:42.000Z</time>
                <name>Trackpoint 1430</name>
            </trkpt>
            <trkpt lat="50.108528" lon="10.9938944">
                <ele>261.0</ele>
                <time>2020-08-22T10:00:44.000Z</time>
                <name>Trackpoint 1431</name>
            </trkpt>
            <trkpt lat="50.1084608" lon="10.993816">
                <ele>262.0</ele>
                <time>2020-08-22T10:00:46.000Z</time>
                <name>Trackpoint 1432</name>
            </trkpt>
            <trkpt lat="50.1084" lon="10.9937336">
                <ele>262.0</ele>
                <time>2020-08-22T10:00:48.000Z</time>
                <name>Trackpoint 1433</name>
            </trkpt>
            <trkpt lat="50.1083424" lon="10.9936448">
                <ele>262.0</ele>
                <time>2020-08-22T10:00:50.000Z</time>
                <name>Trackpoint 1434</name>
            </trkpt>
            <trkpt lat="50.1082848" lon="10.993548">
                <ele>262.0</ele>
                <time>2020-08-22T10:00:52.000Z</time>
                <name>Trackpoint 1435</name>
            </trkpt>
            <trkpt lat="50.1082336" lon="10.9934504">
                <ele>262.0</ele>
                <time>2020-08-22T10:00:54.000Z</time>
                <name>Trackpoint 1436</name>
            </trkpt>
            <trkpt lat="50.1081856" lon="10.993352">
                <ele>262.0</ele>
                <time>2020-08-22T10:00:56.000Z</time>
                <name>Trackpoint 1437</name>
            </trkpt>
            <trkpt lat="50.1081376" lon="10.9932416">
                <ele>262.0</ele>
                <time>2020-08-22T10:00:58.000Z</time>
                <name>Trackpoint 1438</name>
            </trkpt>
            <trkpt lat="50.108096" lon="10.9931424">
                <ele>262.0</ele>
                <time>2020-08-22T10:01:00.000Z</time>
                <name>Trackpoint 1439</name>
            </trkpt>
            <trkpt lat="50.1080544" lon="10.99304">
                <ele>262.0</ele>
                <time>2020-08-22T10:01:03.000Z</time>
                <name>Trackpoint 1440</name>
            </trkpt>
            <trkpt lat="50.1080384" lon="10.9929336">
                <ele>262.0</ele>
                <time>2020-08-22T10:01:05.000Z</time>
                <name>Trackpoint 1441</name>
            </trkpt>
            <trkpt lat="50.1080256" lon="10.9928304">
                <ele>263.0</ele>
                <time>2020-08-22T10:01:07.000Z</time>
                <name>Trackpoint 1442</name>
            </trkpt>
            <trkpt lat="50.1079936" lon="10.9927416">
                <ele>263.0</ele>
                <time>2020-08-22T10:01:09.000Z</time>
                <name>Trackpoint 1443</name>
            </trkpt>
            <trkpt lat="50.1079488" lon="10.9926392">
                <ele>263.0</ele>
                <time>2020-08-22T10:01:11.000Z</time>
                <name>Trackpoint 1444</name>
            </trkpt>
            <trkpt lat="50.1079104" lon="10.992512">
                <ele>263.0</ele>
                <time>2020-08-22T10:01:13.000Z</time>
                <name>Trackpoint 1445</name>
            </trkpt>
            <trkpt lat="50.107872" lon="10.9923664">
                <ele>263.0</ele>
                <time>2020-08-22T10:01:15.000Z</time>
                <name>Trackpoint 1446</name>
            </trkpt>
            <trkpt lat="50.1078528" lon="10.9922216">
                <ele>264.0</ele>
                <time>2020-08-22T10:01:17.000Z</time>
                <name>Trackpoint 1447</name>
            </trkpt>
            <trkpt lat="50.1078304" lon="10.9920784">
                <ele>264.0</ele>
                <time>2020-08-22T10:01:19.000Z</time>
                <name>Trackpoint 1448</name>
            </trkpt>
            <trkpt lat="50.1077952" lon="10.991932">
                <ele>264.0</ele>
                <time>2020-08-22T10:01:21.000Z</time>
                <name>Trackpoint 1449</name>
            </trkpt>
            <trkpt lat="50.1077728" lon="10.991792">
                <ele>264.0</ele>
                <time>2020-08-22T10:01:23.000Z</time>
                <name>Trackpoint 1450</name>
            </trkpt>
            <trkpt lat="50.1077504" lon="10.9916512">
                <ele>264.0</ele>
                <time>2020-08-22T10:01:25.000Z</time>
                <name>Trackpoint 1451</name>
            </trkpt>
            <trkpt lat="50.1077152" lon="10.9915112">
                <ele>264.0</ele>
                <time>2020-08-22T10:01:27.000Z</time>
                <name>Trackpoint 1452</name>
            </trkpt>
            <trkpt lat="50.1076864" lon="10.9913728">
                <ele>264.0</ele>
                <time>2020-08-22T10:01:29.000Z</time>
                <name>Trackpoint 1453</name>
            </trkpt>
            <trkpt lat="50.107648" lon="10.9912392">
                <ele>264.0</ele>
                <time>2020-08-22T10:01:31.000Z</time>
                <name>Trackpoint 1454</name>
            </trkpt>
            <trkpt lat="50.107616" lon="10.991112">
                <ele>264.0</ele>
                <time>2020-08-22T10:01:33.000Z</time>
                <name>Trackpoint 1455</name>
            </trkpt>
            <trkpt lat="50.1075808" lon="10.9909848">
                <ele>264.0</ele>
                <time>2020-08-22T10:01:35.000Z</time>
                <name>Trackpoint 1456</name>
            </trkpt>
            <trkpt lat="50.1075552" lon="10.9908416">
                <ele>264.0</ele>
                <time>2020-08-22T10:01:37.000Z</time>
                <name>Trackpoint 1457</name>
            </trkpt>
            <trkpt lat="50.1075392" lon="10.9907528">
                <ele>264.0</ele>
                <time>2020-08-22T10:01:38.000Z</time>
                <name>Trackpoint 1458</name>
            </trkpt>
            <trkpt lat="50.1075104" lon="10.9906256">
                <ele>264.0</ele>
                <time>2020-08-22T10:01:40.000Z</time>
                <name>Trackpoint 1459</name>
            </trkpt>
            <trkpt lat="50.107472" lon="10.9905016">
                <ele>264.0</ele>
                <time>2020-08-22T10:01:42.000Z</time>
                <name>Trackpoint 1460</name>
            </trkpt>
            <trkpt lat="50.1074336" lon="10.990368">
                <ele>264.0</ele>
                <time>2020-08-22T10:01:44.000Z</time>
                <name>Trackpoint 1461</name>
            </trkpt>
            <trkpt lat="50.1073888" lon="10.9902336">
                <ele>264.0</ele>
                <time>2020-08-22T10:01:46.000Z</time>
                <name>Trackpoint 1462</name>
            </trkpt>
            <trkpt lat="50.1073536" lon="10.9900904">
                <ele>264.0</ele>
                <time>2020-08-22T10:01:48.000Z</time>
                <name>Trackpoint 1463</name>
            </trkpt>
            <trkpt lat="50.1073184" lon="10.9899456">
                <ele>264.0</ele>
                <time>2020-08-22T10:01:50.000Z</time>
                <name>Trackpoint 1464</name>
            </trkpt>
            <trkpt lat="50.10728" lon="10.9897832">
                <ele>263.0</ele>
                <time>2020-08-22T10:01:52.000Z</time>
                <name>Trackpoint 1465</name>
            </trkpt>
            <trkpt lat="50.1072608" lon="10.9896288">
                <ele>263.0</ele>
                <time>2020-08-22T10:01:54.000Z</time>
                <name>Trackpoint 1466</name>
            </trkpt>
            <trkpt lat="50.107232" lon="10.9894712">
                <ele>263.0</ele>
                <time>2020-08-22T10:01:56.000Z</time>
                <name>Trackpoint 1467</name>
            </trkpt>
            <trkpt lat="50.1072" lon="10.9893112">
                <ele>263.0</ele>
                <time>2020-08-22T10:01:58.000Z</time>
                <name>Trackpoint 1468</name>
            </trkpt>
            <trkpt lat="50.1071776" lon="10.9891568">
                <ele>263.0</ele>
                <time>2020-08-22T10:02:00.000Z</time>
                <name>Trackpoint 1469</name>
            </trkpt>
            <trkpt lat="50.1071648" lon="10.9890016">
                <ele>263.0</ele>
                <time>2020-08-22T10:02:02.000Z</time>
                <name>Trackpoint 1470</name>
            </trkpt>
            <trkpt lat="50.1071488" lon="10.9888552">
                <ele>263.0</ele>
                <time>2020-08-22T10:02:04.000Z</time>
                <name>Trackpoint 1471</name>
            </trkpt>
            <trkpt lat="50.1071328" lon="10.9887312">
                <ele>263.0</ele>
                <time>2020-08-22T10:02:06.000Z</time>
                <name>Trackpoint 1472</name>
            </trkpt>
            <trkpt lat="50.10712" lon="10.9886312">
                <ele>263.0</ele>
                <time>2020-08-22T10:02:08.000Z</time>
                <name>Trackpoint 1473</name>
            </trkpt>
            <trkpt lat="50.107104" lon="10.9885">
                <ele>263.0</ele>
                <time>2020-08-22T10:02:10.000Z</time>
                <name>Trackpoint 1474</name>
            </trkpt>
            <trkpt lat="50.1070592" lon="10.9884008">
                <ele>263.0</ele>
                <time>2020-08-22T10:02:12.000Z</time>
                <name>Trackpoint 1475</name>
            </trkpt>
            <trkpt lat="50.1069568" lon="10.988392">
                <ele>263.0</ele>
                <time>2020-08-22T10:02:15.000Z</time>
                <name>Trackpoint 1476</name>
            </trkpt>
            <trkpt lat="50.1068448" lon="10.9884416">
                <ele>264.0</ele>
                <time>2020-08-22T10:02:18.000Z</time>
                <name>Trackpoint 1477</name>
            </trkpt>
            <trkpt lat="50.106752" lon="10.9884728">
                <ele>264.0</ele>
                <time>2020-08-22T10:02:21.000Z</time>
                <name>Trackpoint 1478</name>
            </trkpt>
            <trkpt lat="50.10664" lon="10.988508">
                <ele>262.0</ele>
                <time>2020-08-22T10:02:57.000Z</time>
                <name>Trackpoint 1479</name>
            </trkpt>
            <trkpt lat="50.1065408" lon="10.988572">
                <ele>262.0</ele>
                <time>2020-08-22T10:03:00.000Z</time>
                <name>Trackpoint 1480</name>
            </trkpt>
            <trkpt lat="50.106464" lon="10.98862">
                <ele>262.0</ele>
                <time>2020-08-22T10:03:02.000Z</time>
                <name>Trackpoint 1481</name>
            </trkpt>
            <trkpt lat="50.106384" lon="10.9886736">
                <ele>262.0</ele>
                <time>2020-08-22T10:03:04.000Z</time>
                <name>Trackpoint 1482</name>
            </trkpt>
            <trkpt lat="50.1062912" lon="10.9887264">
                <ele>262.0</ele>
                <time>2020-08-22T10:03:06.000Z</time>
                <name>Trackpoint 1483</name>
            </trkpt>
            <trkpt lat="50.1061984" lon="10.9887888">
                <ele>262.0</ele>
                <time>2020-08-22T10:03:08.000Z</time>
                <name>Trackpoint 1484</name>
            </trkpt>
            <trkpt lat="50.1060992" lon="10.9888496">
                <ele>262.0</ele>
                <time>2020-08-22T10:03:10.000Z</time>
                <name>Trackpoint 1485</name>
            </trkpt>
            <trkpt lat="50.1060032" lon="10.9889048">
                <ele>262.0</ele>
                <time>2020-08-22T10:03:12.000Z</time>
                <name>Trackpoint 1486</name>
            </trkpt>
            <trkpt lat="50.1058944" lon="10.9889472">
                <ele>263.0</ele>
                <time>2020-08-22T10:03:14.000Z</time>
                <name>Trackpoint 1487</name>
            </trkpt>
            <trkpt lat="50.1057984" lon="10.98896">
                <ele>264.0</ele>
                <time>2020-08-22T10:03:16.000Z</time>
                <name>Trackpoint 1488</name>
            </trkpt>
            <trkpt lat="50.1056992" lon="10.988932">
                <ele>264.0</ele>
                <time>2020-08-22T10:03:18.000Z</time>
                <name>Trackpoint 1489</name>
            </trkpt>
            <trkpt lat="50.1056096" lon="10.9888632">
                <ele>265.0</ele>
                <time>2020-08-22T10:03:20.000Z</time>
                <name>Trackpoint 1490</name>
            </trkpt>
            <trkpt lat="50.1055296" lon="10.988776">
                <ele>265.0</ele>
                <time>2020-08-22T10:03:22.000Z</time>
                <name>Trackpoint 1491</name>
            </trkpt>
            <trkpt lat="50.1054688" lon="10.9886688">
                <ele>265.0</ele>
                <time>2020-08-22T10:03:24.000Z</time>
                <name>Trackpoint 1492</name>
            </trkpt>
            <trkpt lat="50.1054048" lon="10.9885416">
                <ele>264.0</ele>
                <time>2020-08-22T10:03:26.000Z</time>
                <name>Trackpoint 1493</name>
            </trkpt>
            <trkpt lat="50.1053376" lon="10.9884232">
                <ele>264.0</ele>
                <time>2020-08-22T10:03:28.000Z</time>
                <name>Trackpoint 1494</name>
            </trkpt>
            <trkpt lat="50.1052768" lon="10.9883016">
                <ele>264.0</ele>
                <time>2020-08-22T10:03:30.000Z</time>
                <name>Trackpoint 1495</name>
            </trkpt>
            <trkpt lat="50.1052064" lon="10.9881896">
                <ele>264.0</ele>
                <time>2020-08-22T10:03:32.000Z</time>
                <name>Trackpoint 1496</name>
            </trkpt>
            <trkpt lat="50.105136" lon="10.9880752">
                <ele>264.0</ele>
                <time>2020-08-22T10:03:34.000Z</time>
                <name>Trackpoint 1497</name>
            </trkpt>
            <trkpt lat="50.105072" lon="10.987964">
                <ele>264.0</ele>
                <time>2020-08-22T10:03:36.000Z</time>
                <name>Trackpoint 1498</name>
            </trkpt>
            <trkpt lat="50.1050048" lon="10.9878432">
                <ele>265.0</ele>
                <time>2020-08-22T10:03:38.000Z</time>
                <name>Trackpoint 1499</name>
            </trkpt>
            <trkpt lat="50.1049408" lon="10.9877264">
                <ele>265.0</ele>
                <time>2020-08-22T10:03:40.000Z</time>
                <name>Trackpoint 1500</name>
            </trkpt>
            <trkpt lat="50.1048864" lon="10.987608">
                <ele>265.0</ele>
                <time>2020-08-22T10:03:42.000Z</time>
                <name>Trackpoint 1501</name>
            </trkpt>
            <trkpt lat="50.1048256" lon="10.9875168">
                <ele>265.0</ele>
                <time>2020-08-22T10:03:44.000Z</time>
                <name>Trackpoint 1502</name>
            </trkpt>
            <trkpt lat="50.1047712" lon="10.9873936">
                <ele>265.0</ele>
                <time>2020-08-22T10:03:46.000Z</time>
                <name>Trackpoint 1503</name>
            </trkpt>
            <trkpt lat="50.1047136" lon="10.9872616">
                <ele>265.0</ele>
                <time>2020-08-22T10:03:48.000Z</time>
                <name>Trackpoint 1504</name>
            </trkpt>
            <trkpt lat="50.1046496" lon="10.9871416">
                <ele>265.0</ele>
                <time>2020-08-22T10:03:50.000Z</time>
                <name>Trackpoint 1505</name>
            </trkpt>
            <trkpt lat="50.1045888" lon="10.9870192">
                <ele>265.0</ele>
                <time>2020-08-22T10:03:52.000Z</time>
                <name>Trackpoint 1506</name>
            </trkpt>
            <trkpt lat="50.104528" lon="10.9869">
                <ele>265.0</ele>
                <time>2020-08-22T10:03:54.000Z</time>
                <name>Trackpoint 1507</name>
            </trkpt>
            <trkpt lat="50.1044704" lon="10.9867824">
                <ele>265.0</ele>
                <time>2020-08-22T10:03:56.000Z</time>
                <name>Trackpoint 1508</name>
            </trkpt>
            <trkpt lat="50.1044096" lon="10.9866648">
                <ele>264.0</ele>
                <time>2020-08-22T10:03:58.000Z</time>
                <name>Trackpoint 1509</name>
            </trkpt>
            <trkpt lat="50.104352" lon="10.9865512">
                <ele>264.0</ele>
                <time>2020-08-22T10:04:00.000Z</time>
                <name>Trackpoint 1510</name>
            </trkpt>
            <trkpt lat="50.1042976" lon="10.98644">
                <ele>264.0</ele>
                <time>2020-08-22T10:04:02.000Z</time>
                <name>Trackpoint 1511</name>
            </trkpt>
            <trkpt lat="50.1042304" lon="10.9863256">
                <ele>264.0</ele>
                <time>2020-08-22T10:04:04.000Z</time>
                <name>Trackpoint 1512</name>
            </trkpt>
            <trkpt lat="50.1041632" lon="10.986208">
                <ele>264.0</ele>
                <time>2020-08-22T10:04:06.000Z</time>
                <name>Trackpoint 1513</name>
            </trkpt>
            <trkpt lat="50.1041056" lon="10.9860936">
                <ele>264.0</ele>
                <time>2020-08-22T10:04:08.000Z</time>
                <name>Trackpoint 1514</name>
            </trkpt>
            <trkpt lat="50.1040448" lon="10.9860088">
                <ele>264.0</ele>
                <time>2020-08-22T10:04:10.000Z</time>
                <name>Trackpoint 1515</name>
            </trkpt>
            <trkpt lat="50.1039936" lon="10.9859104">
                <ele>265.0</ele>
                <time>2020-08-22T10:04:12.000Z</time>
                <name>Trackpoint 1516</name>
            </trkpt>
            <trkpt lat="50.1039456" lon="10.9857504">
                <ele>264.0</ele>
                <time>2020-08-22T10:04:14.000Z</time>
                <name>Trackpoint 1517</name>
            </trkpt>
            <trkpt lat="50.1038944" lon="10.9856192">
                <ele>264.0</ele>
                <time>2020-08-22T10:04:16.000Z</time>
                <name>Trackpoint 1518</name>
            </trkpt>
            <trkpt lat="50.1038272" lon="10.9854984">
                <ele>264.0</ele>
                <time>2020-08-22T10:04:18.000Z</time>
                <name>Trackpoint 1519</name>
            </trkpt>
            <trkpt lat="50.103776" lon="10.98538">
                <ele>264.0</ele>
                <time>2020-08-22T10:04:20.000Z</time>
                <name>Trackpoint 1520</name>
            </trkpt>
            <trkpt lat="50.1037152" lon="10.9852632">
                <ele>264.0</ele>
                <time>2020-08-22T10:04:22.000Z</time>
                <name>Trackpoint 1521</name>
            </trkpt>
            <trkpt lat="50.1036576" lon="10.9851504">
                <ele>264.0</ele>
                <time>2020-08-22T10:04:24.000Z</time>
                <name>Trackpoint 1522</name>
            </trkpt>
            <trkpt lat="50.1035872" lon="10.9850328">
                <ele>265.0</ele>
                <time>2020-08-22T10:04:26.000Z</time>
                <name>Trackpoint 1523</name>
            </trkpt>
            <trkpt lat="50.103536" lon="10.9849128">
                <ele>265.0</ele>
                <time>2020-08-22T10:04:28.000Z</time>
                <name>Trackpoint 1524</name>
            </trkpt>
            <trkpt lat="50.1034688" lon="10.984792">
                <ele>265.0</ele>
                <time>2020-08-22T10:04:30.000Z</time>
                <name>Trackpoint 1525</name>
            </trkpt>
            <trkpt lat="50.1034176" lon="10.9846888">
                <ele>265.0</ele>
                <time>2020-08-22T10:04:32.000Z</time>
                <name>Trackpoint 1526</name>
            </trkpt>
            <trkpt lat="50.1033504" lon="10.9845696">
                <ele>266.0</ele>
                <time>2020-08-22T10:04:34.000Z</time>
                <name>Trackpoint 1527</name>
            </trkpt>
            <trkpt lat="50.1032928" lon="10.9844416">
                <ele>266.0</ele>
                <time>2020-08-22T10:04:36.000Z</time>
                <name>Trackpoint 1528</name>
            </trkpt>
            <trkpt lat="50.1032448" lon="10.984328">
                <ele>266.0</ele>
                <time>2020-08-22T10:04:38.000Z</time>
                <name>Trackpoint 1529</name>
            </trkpt>
            <trkpt lat="50.1031808" lon="10.9842016">
                <ele>266.0</ele>
                <time>2020-08-22T10:04:40.000Z</time>
                <name>Trackpoint 1530</name>
            </trkpt>
            <trkpt lat="50.1031104" lon="10.9840696">
                <ele>266.0</ele>
                <time>2020-08-22T10:04:42.000Z</time>
                <name>Trackpoint 1531</name>
            </trkpt>
            <trkpt lat="50.1030336" lon="10.983956">
                <ele>265.0</ele>
                <time>2020-08-22T10:04:44.000Z</time>
                <name>Trackpoint 1532</name>
            </trkpt>
            <trkpt lat="50.1029504" lon="10.9838784">
                <ele>265.0</ele>
                <time>2020-08-22T10:04:46.000Z</time>
                <name>Trackpoint 1533</name>
            </trkpt>
            <trkpt lat="50.10288" lon="10.98378">
                <ele>265.0</ele>
                <time>2020-08-22T10:04:48.000Z</time>
                <name>Trackpoint 1534</name>
            </trkpt>
            <trkpt lat="50.102816" lon="10.9836584">
                <ele>265.0</ele>
                <time>2020-08-22T10:04:50.000Z</time>
                <name>Trackpoint 1535</name>
            </trkpt>
            <trkpt lat="50.1027552" lon="10.9835368">
                <ele>266.0</ele>
                <time>2020-08-22T10:04:52.000Z</time>
                <name>Trackpoint 1536</name>
            </trkpt>
            <trkpt lat="50.1026912" lon="10.9834296">
                <ele>266.0</ele>
                <time>2020-08-22T10:04:54.000Z</time>
                <name>Trackpoint 1537</name>
            </trkpt>
            <trkpt lat="50.1026304" lon="10.9833152">
                <ele>266.0</ele>
                <time>2020-08-22T10:04:56.000Z</time>
                <name>Trackpoint 1538</name>
            </trkpt>
            <trkpt lat="50.1025728" lon="10.9831952">
                <ele>266.0</ele>
                <time>2020-08-22T10:04:58.000Z</time>
                <name>Trackpoint 1539</name>
            </trkpt>
            <trkpt lat="50.102512" lon="10.9830768">
                <ele>266.0</ele>
                <time>2020-08-22T10:05:00.000Z</time>
                <name>Trackpoint 1540</name>
            </trkpt>
            <trkpt lat="50.102448" lon="10.9829664">
                <ele>265.0</ele>
                <time>2020-08-22T10:05:02.000Z</time>
                <name>Trackpoint 1541</name>
            </trkpt>
            <trkpt lat="50.1023872" lon="10.982852">
                <ele>265.0</ele>
                <time>2020-08-22T10:05:04.000Z</time>
                <name>Trackpoint 1542</name>
            </trkpt>
            <trkpt lat="50.1023296" lon="10.9827384">
                <ele>265.0</ele>
                <time>2020-08-22T10:05:06.000Z</time>
                <name>Trackpoint 1543</name>
            </trkpt>
            <trkpt lat="50.1022688" lon="10.9826184">
                <ele>265.0</ele>
                <time>2020-08-22T10:05:08.000Z</time>
                <name>Trackpoint 1544</name>
            </trkpt>
            <trkpt lat="50.102208" lon="10.9825016">
                <ele>265.0</ele>
                <time>2020-08-22T10:05:10.000Z</time>
                <name>Trackpoint 1545</name>
            </trkpt>
            <trkpt lat="50.1021472" lon="10.9823864">
                <ele>264.0</ele>
                <time>2020-08-22T10:05:12.000Z</time>
                <name>Trackpoint 1546</name>
            </trkpt>
            <trkpt lat="50.1020864" lon="10.9822728">
                <ele>265.0</ele>
                <time>2020-08-22T10:05:14.000Z</time>
                <name>Trackpoint 1547</name>
            </trkpt>
            <trkpt lat="50.1020256" lon="10.9821552">
                <ele>265.0</ele>
                <time>2020-08-22T10:05:16.000Z</time>
                <name>Trackpoint 1548</name>
            </trkpt>
            <trkpt lat="50.101968" lon="10.9820344">
                <ele>265.0</ele>
                <time>2020-08-22T10:05:18.000Z</time>
                <name>Trackpoint 1549</name>
            </trkpt>
            <trkpt lat="50.1019008" lon="10.9819208">
                <ele>265.0</ele>
                <time>2020-08-22T10:05:20.000Z</time>
                <name>Trackpoint 1550</name>
            </trkpt>
            <trkpt lat="50.1018368" lon="10.9818064">
                <ele>265.0</ele>
                <time>2020-08-22T10:05:22.000Z</time>
                <name>Trackpoint 1551</name>
            </trkpt>
            <trkpt lat="50.1017728" lon="10.9816904">
                <ele>264.0</ele>
                <time>2020-08-22T10:05:24.000Z</time>
                <name>Trackpoint 1552</name>
            </trkpt>
            <trkpt lat="50.101712" lon="10.9815712">
                <ele>264.0</ele>
                <time>2020-08-22T10:05:26.000Z</time>
                <name>Trackpoint 1553</name>
            </trkpt>
            <trkpt lat="50.1016544" lon="10.981448">
                <ele>264.0</ele>
                <time>2020-08-22T10:05:28.000Z</time>
                <name>Trackpoint 1554</name>
            </trkpt>
            <trkpt lat="50.1015936" lon="10.9813336">
                <ele>265.0</ele>
                <time>2020-08-22T10:05:30.000Z</time>
                <name>Trackpoint 1555</name>
            </trkpt>
            <trkpt lat="50.1015328" lon="10.9812248">
                <ele>265.0</ele>
                <time>2020-08-22T10:05:32.000Z</time>
                <name>Trackpoint 1556</name>
            </trkpt>
            <trkpt lat="50.1014752" lon="10.9811184">
                <ele>265.0</ele>
                <time>2020-08-22T10:05:34.000Z</time>
                <name>Trackpoint 1557</name>
            </trkpt>
            <trkpt lat="50.1014176" lon="10.9809984">
                <ele>264.0</ele>
                <time>2020-08-22T10:05:36.000Z</time>
                <name>Trackpoint 1558</name>
            </trkpt>
            <trkpt lat="50.10136" lon="10.9808928">
                <ele>264.0</ele>
                <time>2020-08-22T10:05:38.000Z</time>
                <name>Trackpoint 1559</name>
            </trkpt>
            <trkpt lat="50.101312" lon="10.9807984">
                <ele>264.0</ele>
                <time>2020-08-22T10:05:40.000Z</time>
                <name>Trackpoint 1560</name>
            </trkpt>
            <trkpt lat="50.101264" lon="10.9807128">
                <ele>264.0</ele>
                <time>2020-08-22T10:05:42.000Z</time>
                <name>Trackpoint 1561</name>
            </trkpt>
            <trkpt lat="50.1012128" lon="10.9805936">
                <ele>264.0</ele>
                <time>2020-08-22T10:05:45.000Z</time>
                <name>Trackpoint 1562</name>
            </trkpt>
            <trkpt lat="50.1011584" lon="10.9804952">
                <ele>264.0</ele>
                <time>2020-08-22T10:05:48.000Z</time>
                <name>Trackpoint 1563</name>
            </trkpt>
            <trkpt lat="50.1010976" lon="10.9804">
                <ele>265.0</ele>
                <time>2020-08-22T10:05:52.000Z</time>
                <name>Trackpoint 1564</name>
            </trkpt>
            <trkpt lat="50.101056" lon="10.9803168">
                <ele>265.0</ele>
                <time>2020-08-22T10:07:44.000Z</time>
                <name>Trackpoint 1565</name>
            </trkpt>
            <trkpt lat="50.1010208" lon="10.9802264">
                <ele>265.0</ele>
                <time>2020-08-22T10:07:47.000Z</time>
                <name>Trackpoint 1566</name>
            </trkpt>
            <trkpt lat="50.1009536" lon="10.9801152">
                <ele>265.0</ele>
                <time>2020-08-22T10:07:50.000Z</time>
                <name>Trackpoint 1567</name>
            </trkpt>
            <trkpt lat="50.1009024" lon="10.9800128">
                <ele>265.0</ele>
                <time>2020-08-22T10:07:52.000Z</time>
                <name>Trackpoint 1568</name>
            </trkpt>
            <trkpt lat="50.100848" lon="10.979912">
                <ele>265.0</ele>
                <time>2020-08-22T10:07:54.000Z</time>
                <name>Trackpoint 1569</name>
            </trkpt>
            <trkpt lat="50.1008" lon="10.9798024">
                <ele>265.0</ele>
                <time>2020-08-22T10:07:56.000Z</time>
                <name>Trackpoint 1570</name>
            </trkpt>
            <trkpt lat="50.1007392" lon="10.9796984">
                <ele>265.0</ele>
                <time>2020-08-22T10:07:58.000Z</time>
                <name>Trackpoint 1571</name>
            </trkpt>
            <trkpt lat="50.100688" lon="10.9795888">
                <ele>265.0</ele>
                <time>2020-08-22T10:08:00.000Z</time>
                <name>Trackpoint 1572</name>
            </trkpt>
            <trkpt lat="50.1006272" lon="10.9794728">
                <ele>266.0</ele>
                <time>2020-08-22T10:08:02.000Z</time>
                <name>Trackpoint 1573</name>
            </trkpt>
            <trkpt lat="50.100576" lon="10.9793616">
                <ele>266.0</ele>
                <time>2020-08-22T10:08:04.000Z</time>
                <name>Trackpoint 1574</name>
            </trkpt>
            <trkpt lat="50.1005184" lon="10.979248">
                <ele>266.0</ele>
                <time>2020-08-22T10:08:06.000Z</time>
                <name>Trackpoint 1575</name>
            </trkpt>
            <trkpt lat="50.1004608" lon="10.979132">
                <ele>266.0</ele>
                <time>2020-08-22T10:08:08.000Z</time>
                <name>Trackpoint 1576</name>
            </trkpt>
            <trkpt lat="50.1004064" lon="10.9790136">
                <ele>266.0</ele>
                <time>2020-08-22T10:08:10.000Z</time>
                <name>Trackpoint 1577</name>
            </trkpt>
            <trkpt lat="50.1003456" lon="10.9788984">
                <ele>266.0</ele>
                <time>2020-08-22T10:08:12.000Z</time>
                <name>Trackpoint 1578</name>
            </trkpt>
            <trkpt lat="50.1002912" lon="10.9787864">
                <ele>266.0</ele>
                <time>2020-08-22T10:08:14.000Z</time>
                <name>Trackpoint 1579</name>
            </trkpt>
            <trkpt lat="50.1002336" lon="10.9786728">
                <ele>266.0</ele>
                <time>2020-08-22T10:08:16.000Z</time>
                <name>Trackpoint 1580</name>
            </trkpt>
            <trkpt lat="50.1001728" lon="10.9785656">
                <ele>266.0</ele>
                <time>2020-08-22T10:08:18.000Z</time>
                <name>Trackpoint 1581</name>
            </trkpt>
            <trkpt lat="50.100112" lon="10.9784536">
                <ele>266.0</ele>
                <time>2020-08-22T10:08:20.000Z</time>
                <name>Trackpoint 1582</name>
            </trkpt>
            <trkpt lat="50.1000512" lon="10.9783472">
                <ele>266.0</ele>
                <time>2020-08-22T10:08:22.000Z</time>
                <name>Trackpoint 1583</name>
            </trkpt>
            <trkpt lat="50.0999904" lon="10.97824">
                <ele>266.0</ele>
                <time>2020-08-22T10:08:24.000Z</time>
                <name>Trackpoint 1584</name>
            </trkpt>
            <trkpt lat="50.0999296" lon="10.9781336">
                <ele>266.0</ele>
                <time>2020-08-22T10:08:26.000Z</time>
                <name>Trackpoint 1585</name>
            </trkpt>
            <trkpt lat="50.0998752" lon="10.9780256">
                <ele>266.0</ele>
                <time>2020-08-22T10:08:28.000Z</time>
                <name>Trackpoint 1586</name>
            </trkpt>
            <trkpt lat="50.0998112" lon="10.9779216">
                <ele>266.0</ele>
                <time>2020-08-22T10:08:30.000Z</time>
                <name>Trackpoint 1587</name>
            </trkpt>
            <trkpt lat="50.0997536" lon="10.9778184">
                <ele>266.0</ele>
                <time>2020-08-22T10:08:32.000Z</time>
                <name>Trackpoint 1588</name>
            </trkpt>
            <trkpt lat="50.0996928" lon="10.977712">
                <ele>266.0</ele>
                <time>2020-08-22T10:08:34.000Z</time>
                <name>Trackpoint 1589</name>
            </trkpt>
            <trkpt lat="50.099632" lon="10.9776152">
                <ele>266.0</ele>
                <time>2020-08-22T10:08:36.000Z</time>
                <name>Trackpoint 1590</name>
            </trkpt>
            <trkpt lat="50.0995872" lon="10.977524">
                <ele>265.0</ele>
                <time>2020-08-22T10:08:38.000Z</time>
                <name>Trackpoint 1591</name>
            </trkpt>
            <trkpt lat="50.099536" lon="10.9774312">
                <ele>266.0</ele>
                <time>2020-08-22T10:08:40.000Z</time>
                <name>Trackpoint 1592</name>
            </trkpt>
            <trkpt lat="50.099488" lon="10.9773352">
                <ele>266.0</ele>
                <time>2020-08-22T10:08:42.000Z</time>
                <name>Trackpoint 1593</name>
            </trkpt>
            <trkpt lat="50.099424" lon="10.97724">
                <ele>265.0</ele>
                <time>2020-08-22T10:08:44.000Z</time>
                <name>Trackpoint 1594</name>
            </trkpt>
            <trkpt lat="50.09936" lon="10.9771368">
                <ele>266.0</ele>
                <time>2020-08-22T10:08:46.000Z</time>
                <name>Trackpoint 1595</name>
            </trkpt>
            <trkpt lat="50.099296" lon="10.9770272">
                <ele>266.0</ele>
                <time>2020-08-22T10:08:48.000Z</time>
                <name>Trackpoint 1596</name>
            </trkpt>
            <trkpt lat="50.0992288" lon="10.9769184">
                <ele>265.0</ele>
                <time>2020-08-22T10:08:50.000Z</time>
                <name>Trackpoint 1597</name>
            </trkpt>
            <trkpt lat="50.0991552" lon="10.9767984">
                <ele>266.0</ele>
                <time>2020-08-22T10:08:52.000Z</time>
                <name>Trackpoint 1598</name>
            </trkpt>
            <trkpt lat="50.0990944" lon="10.9766768">
                <ele>266.0</ele>
                <time>2020-08-22T10:08:54.000Z</time>
                <name>Trackpoint 1599</name>
            </trkpt>
            <trkpt lat="50.0990208" lon="10.97656">
                <ele>266.0</ele>
                <time>2020-08-22T10:08:56.000Z</time>
                <name>Trackpoint 1600</name>
            </trkpt>
            <trkpt lat="50.0989536" lon="10.9764384">
                <ele>266.0</ele>
                <time>2020-08-22T10:08:58.000Z</time>
                <name>Trackpoint 1601</name>
            </trkpt>
            <trkpt lat="50.09888" lon="10.9763184">
                <ele>266.0</ele>
                <time>2020-08-22T10:09:00.000Z</time>
                <name>Trackpoint 1602</name>
            </trkpt>
            <trkpt lat="50.0988128" lon="10.9761984">
                <ele>265.0</ele>
                <time>2020-08-22T10:09:02.000Z</time>
                <name>Trackpoint 1603</name>
            </trkpt>
            <trkpt lat="50.0987488" lon="10.9760784">
                <ele>265.0</ele>
                <time>2020-08-22T10:09:04.000Z</time>
                <name>Trackpoint 1604</name>
            </trkpt>
            <trkpt lat="50.0986784" lon="10.9759632">
                <ele>265.0</ele>
                <time>2020-08-22T10:09:06.000Z</time>
                <name>Trackpoint 1605</name>
            </trkpt>
            <trkpt lat="50.0986112" lon="10.975848">
                <ele>265.0</ele>
                <time>2020-08-22T10:09:08.000Z</time>
                <name>Trackpoint 1606</name>
            </trkpt>
            <trkpt lat="50.0985408" lon="10.9757344">
                <ele>265.0</ele>
                <time>2020-08-22T10:09:10.000Z</time>
                <name>Trackpoint 1607</name>
            </trkpt>
            <trkpt lat="50.0984672" lon="10.9756272">
                <ele>264.0</ele>
                <time>2020-08-22T10:09:12.000Z</time>
                <name>Trackpoint 1608</name>
            </trkpt>
            <trkpt lat="50.0983968" lon="10.9755112">
                <ele>264.0</ele>
                <time>2020-08-22T10:09:14.000Z</time>
                <name>Trackpoint 1609</name>
            </trkpt>
            <trkpt lat="50.0983168" lon="10.9753904">
                <ele>264.0</ele>
                <time>2020-08-22T10:09:16.000Z</time>
                <name>Trackpoint 1610</name>
            </trkpt>
            <trkpt lat="50.0982368" lon="10.9752712">
                <ele>264.0</ele>
                <time>2020-08-22T10:09:18.000Z</time>
                <name>Trackpoint 1611</name>
            </trkpt>
            <trkpt lat="50.09816" lon="10.9751568">
                <ele>264.0</ele>
                <time>2020-08-22T10:09:20.000Z</time>
                <name>Trackpoint 1612</name>
            </trkpt>
            <trkpt lat="50.0980832" lon="10.9750368">
                <ele>264.0</ele>
                <time>2020-08-22T10:09:22.000Z</time>
                <name>Trackpoint 1613</name>
            </trkpt>
            <trkpt lat="50.0980064" lon="10.9749144">
                <ele>264.0</ele>
                <time>2020-08-22T10:09:24.000Z</time>
                <name>Trackpoint 1614</name>
            </trkpt>
            <trkpt lat="50.097936" lon="10.9747984">
                <ele>264.0</ele>
                <time>2020-08-22T10:09:26.000Z</time>
                <name>Trackpoint 1615</name>
            </trkpt>
            <trkpt lat="50.0978592" lon="10.974684">
                <ele>264.0</ele>
                <time>2020-08-22T10:09:28.000Z</time>
                <name>Trackpoint 1616</name>
            </trkpt>
            <trkpt lat="50.0977824" lon="10.9745776">
                <ele>264.0</ele>
                <time>2020-08-22T10:09:30.000Z</time>
                <name>Trackpoint 1617</name>
            </trkpt>
            <trkpt lat="50.0977056" lon="10.974468">
                <ele>264.0</ele>
                <time>2020-08-22T10:09:32.000Z</time>
                <name>Trackpoint 1618</name>
            </trkpt>
            <trkpt lat="50.097632" lon="10.9743544">
                <ele>264.0</ele>
                <time>2020-08-22T10:09:34.000Z</time>
                <name>Trackpoint 1619</name>
            </trkpt>
            <trkpt lat="50.0975584" lon="10.9742384">
                <ele>264.0</ele>
                <time>2020-08-22T10:09:36.000Z</time>
                <name>Trackpoint 1620</name>
            </trkpt>
            <trkpt lat="50.0974816" lon="10.9741232">
                <ele>264.0</ele>
                <time>2020-08-22T10:09:38.000Z</time>
                <name>Trackpoint 1621</name>
            </trkpt>
            <trkpt lat="50.0974048" lon="10.9740088">
                <ele>264.0</ele>
                <time>2020-08-22T10:09:40.000Z</time>
                <name>Trackpoint 1622</name>
            </trkpt>
            <trkpt lat="50.097328" lon="10.9738976">
                <ele>264.0</ele>
                <time>2020-08-22T10:09:42.000Z</time>
                <name>Trackpoint 1623</name>
            </trkpt>
            <trkpt lat="50.097264" lon="10.97378">
                <ele>263.0</ele>
                <time>2020-08-22T10:09:44.000Z</time>
                <name>Trackpoint 1624</name>
            </trkpt>
            <trkpt lat="50.0971936" lon="10.9736368">
                <ele>263.0</ele>
                <time>2020-08-22T10:09:46.000Z</time>
                <name>Trackpoint 1625</name>
            </trkpt>
            <trkpt lat="50.0971424" lon="10.9734672">
                <ele>263.0</ele>
                <time>2020-08-22T10:09:48.000Z</time>
                <name>Trackpoint 1626</name>
            </trkpt>
            <trkpt lat="50.0971136" lon="10.9733712">
                <ele>263.0</ele>
                <time>2020-08-22T10:09:49.000Z</time>
                <name>Trackpoint 1627</name>
            </trkpt>
            <trkpt lat="50.0970912" lon="10.9732712">
                <ele>263.0</ele>
                <time>2020-08-22T10:09:50.000Z</time>
                <name>Trackpoint 1628</name>
            </trkpt>
            <trkpt lat="50.097072" lon="10.9731728">
                <ele>263.0</ele>
                <time>2020-08-22T10:09:51.000Z</time>
                <name>Trackpoint 1629</name>
            </trkpt>
            <trkpt lat="50.0970528" lon="10.9730768">
                <ele>263.0</ele>
                <time>2020-08-22T10:09:52.000Z</time>
                <name>Trackpoint 1630</name>
            </trkpt>
            <trkpt lat="50.0970368" lon="10.9729816">
                <ele>263.0</ele>
                <time>2020-08-22T10:09:53.000Z</time>
                <name>Trackpoint 1631</name>
            </trkpt>
            <trkpt lat="50.0970272" lon="10.9728872">
                <ele>264.0</ele>
                <time>2020-08-22T10:09:54.000Z</time>
                <name>Trackpoint 1632</name>
            </trkpt>
            <trkpt lat="50.0970112" lon="10.9727936">
                <ele>264.0</ele>
                <time>2020-08-22T10:09:55.000Z</time>
                <name>Trackpoint 1633</name>
            </trkpt>
            <trkpt lat="50.096992" lon="10.9726984">
                <ele>264.0</ele>
                <time>2020-08-22T10:09:56.000Z</time>
                <name>Trackpoint 1634</name>
            </trkpt>
            <trkpt lat="50.0969824" lon="10.9726048">
                <ele>264.0</ele>
                <time>2020-08-22T10:09:57.000Z</time>
                <name>Trackpoint 1635</name>
            </trkpt>
            <trkpt lat="50.0969632" lon="10.9725104">
                <ele>264.0</ele>
                <time>2020-08-22T10:09:58.000Z</time>
                <name>Trackpoint 1636</name>
            </trkpt>
            <trkpt lat="50.0969472" lon="10.9724128">
                <ele>264.0</ele>
                <time>2020-08-22T10:09:59.000Z</time>
                <name>Trackpoint 1637</name>
            </trkpt>
            <trkpt lat="50.0969312" lon="10.9723152">
                <ele>264.0</ele>
                <time>2020-08-22T10:10:00.000Z</time>
                <name>Trackpoint 1638</name>
            </trkpt>
            <trkpt lat="50.096912" lon="10.9722232">
                <ele>264.0</ele>
                <time>2020-08-22T10:10:01.000Z</time>
                <name>Trackpoint 1639</name>
            </trkpt>
            <trkpt lat="50.096896" lon="10.972128">
                <ele>264.0</ele>
                <time>2020-08-22T10:10:02.000Z</time>
                <name>Trackpoint 1640</name>
            </trkpt>
            <trkpt lat="50.0968736" lon="10.972036">
                <ele>264.0</ele>
                <time>2020-08-22T10:10:03.000Z</time>
                <name>Trackpoint 1641</name>
            </trkpt>
            <trkpt lat="50.096848" lon="10.9719488">
                <ele>264.0</ele>
                <time>2020-08-22T10:10:04.000Z</time>
                <name>Trackpoint 1642</name>
            </trkpt>
            <trkpt lat="50.0968256" lon="10.9718584">
                <ele>263.0</ele>
                <time>2020-08-22T10:10:05.000Z</time>
                <name>Trackpoint 1643</name>
            </trkpt>
            <trkpt lat="50.0968032" lon="10.9717664">
                <ele>263.0</ele>
                <time>2020-08-22T10:10:06.000Z</time>
                <name>Trackpoint 1644</name>
            </trkpt>
            <trkpt lat="50.096784" lon="10.9716752">
                <ele>263.0</ele>
                <time>2020-08-22T10:10:07.000Z</time>
                <name>Trackpoint 1645</name>
            </trkpt>
            <trkpt lat="50.0967584" lon="10.9715816">
                <ele>263.0</ele>
                <time>2020-08-22T10:10:08.000Z</time>
                <name>Trackpoint 1646</name>
            </trkpt>
            <trkpt lat="50.0967392" lon="10.9714872">
                <ele>263.0</ele>
                <time>2020-08-22T10:10:09.000Z</time>
                <name>Trackpoint 1647</name>
            </trkpt>
            <trkpt lat="50.0967232" lon="10.971392">
                <ele>263.0</ele>
                <time>2020-08-22T10:10:10.000Z</time>
                <name>Trackpoint 1648</name>
            </trkpt>
            <trkpt lat="50.096704" lon="10.971296">
                <ele>263.0</ele>
                <time>2020-08-22T10:10:11.000Z</time>
                <name>Trackpoint 1649</name>
            </trkpt>
            <trkpt lat="50.0966848" lon="10.9712">
                <ele>262.0</ele>
                <time>2020-08-22T10:10:12.000Z</time>
                <name>Trackpoint 1650</name>
            </trkpt>
            <trkpt lat="50.0966592" lon="10.9711104">
                <ele>262.0</ele>
                <time>2020-08-22T10:10:13.000Z</time>
                <name>Trackpoint 1651</name>
            </trkpt>
            <trkpt lat="50.0966368" lon="10.9710216">
                <ele>262.0</ele>
                <time>2020-08-22T10:10:14.000Z</time>
                <name>Trackpoint 1652</name>
            </trkpt>
            <trkpt lat="50.0966144" lon="10.9709328">
                <ele>262.0</ele>
                <time>2020-08-22T10:10:15.000Z</time>
                <name>Trackpoint 1653</name>
            </trkpt>
            <trkpt lat="50.0965568" lon="10.9707672">
                <ele>262.0</ele>
                <time>2020-08-22T10:10:17.000Z</time>
                <name>Trackpoint 1654</name>
            </trkpt>
            <trkpt lat="50.0964992" lon="10.9706048">
                <ele>262.0</ele>
                <time>2020-08-22T10:10:19.000Z</time>
                <name>Trackpoint 1655</name>
            </trkpt>
            <trkpt lat="50.096448" lon="10.970444">
                <ele>262.0</ele>
                <time>2020-08-22T10:10:21.000Z</time>
                <name>Trackpoint 1656</name>
            </trkpt>
            <trkpt lat="50.0963936" lon="10.970292">
                <ele>262.0</ele>
                <time>2020-08-22T10:10:23.000Z</time>
                <name>Trackpoint 1657</name>
            </trkpt>
            <trkpt lat="50.0963392" lon="10.9701496">
                <ele>262.0</ele>
                <time>2020-08-22T10:10:25.000Z</time>
                <name>Trackpoint 1658</name>
            </trkpt>
            <trkpt lat="50.0962816" lon="10.9700248">
                <ele>262.0</ele>
                <time>2020-08-22T10:10:27.000Z</time>
                <name>Trackpoint 1659</name>
            </trkpt>
            <trkpt lat="50.0962304" lon="10.9699336">
                <ele>261.0</ele>
                <time>2020-08-22T10:10:29.000Z</time>
                <name>Trackpoint 1660</name>
            </trkpt>
            <trkpt lat="50.0961472" lon="10.9698552">
                <ele>261.0</ele>
                <time>2020-08-22T10:10:32.000Z</time>
                <name>Trackpoint 1661</name>
            </trkpt>
            <trkpt lat="50.0960512" lon="10.9697968">
                <ele>260.0</ele>
                <time>2020-08-22T10:10:36.000Z</time>
                <name>Trackpoint 1662</name>
            </trkpt>
            <trkpt lat="50.0960096" lon="10.9697136">
                <ele>260.0</ele>
                <time>2020-08-22T10:13:06.000Z</time>
                <name>Trackpoint 1663</name>
            </trkpt>
            <trkpt lat="50.096032" lon="10.96962">
                <ele>260.0</ele>
                <time>2020-08-22T10:13:09.000Z</time>
                <name>Trackpoint 1664</name>
            </trkpt>
            <trkpt lat="50.0960384" lon="10.9695232">
                <ele>259.0</ele>
                <time>2020-08-22T10:13:11.000Z</time>
                <name>Trackpoint 1665</name>
            </trkpt>
            <trkpt lat="50.0960512" lon="10.969408">
                <ele>259.0</ele>
                <time>2020-08-22T10:13:13.000Z</time>
                <name>Trackpoint 1666</name>
            </trkpt>
            <trkpt lat="50.0960608" lon="10.969288">
                <ele>259.0</ele>
                <time>2020-08-22T10:13:15.000Z</time>
                <name>Trackpoint 1667</name>
            </trkpt>
            <trkpt lat="50.0960576" lon="10.9691448">
                <ele>259.0</ele>
                <time>2020-08-22T10:13:17.000Z</time>
                <name>Trackpoint 1668</name>
            </trkpt>
            <trkpt lat="50.0960576" lon="10.9689816">
                <ele>258.0</ele>
                <time>2020-08-22T10:13:19.000Z</time>
                <name>Trackpoint 1669</name>
            </trkpt>
            <trkpt lat="50.096048" lon="10.9688064">
                <ele>258.0</ele>
                <time>2020-08-22T10:13:21.000Z</time>
                <name>Trackpoint 1670</name>
            </trkpt>
            <trkpt lat="50.0960384" lon="10.9686248">
                <ele>258.0</ele>
                <time>2020-08-22T10:13:23.000Z</time>
                <name>Trackpoint 1671</name>
            </trkpt>
            <trkpt lat="50.0960288" lon="10.9685352">
                <ele>258.0</ele>
                <time>2020-08-22T10:13:24.000Z</time>
                <name>Trackpoint 1672</name>
            </trkpt>
            <trkpt lat="50.096" lon="10.9683584">
                <ele>258.0</ele>
                <time>2020-08-22T10:13:26.000Z</time>
                <name>Trackpoint 1673</name>
            </trkpt>
            <trkpt lat="50.095984" lon="10.968268">
                <ele>258.0</ele>
                <time>2020-08-22T10:13:27.000Z</time>
                <name>Trackpoint 1674</name>
            </trkpt>
            <trkpt lat="50.0959424" lon="10.9680904">
                <ele>258.0</ele>
                <time>2020-08-22T10:13:29.000Z</time>
                <name>Trackpoint 1675</name>
            </trkpt>
            <trkpt lat="50.0959168" lon="10.9680008">
                <ele>258.0</ele>
                <time>2020-08-22T10:13:30.000Z</time>
                <name>Trackpoint 1676</name>
            </trkpt>
            <trkpt lat="50.0958976" lon="10.967912">
                <ele>258.0</ele>
                <time>2020-08-22T10:13:31.000Z</time>
                <name>Trackpoint 1677</name>
            </trkpt>
            <trkpt lat="50.0958752" lon="10.9678232">
                <ele>258.0</ele>
                <time>2020-08-22T10:13:32.000Z</time>
                <name>Trackpoint 1678</name>
            </trkpt>
            <trkpt lat="50.0958528" lon="10.967736">
                <ele>258.0</ele>
                <time>2020-08-22T10:13:33.000Z</time>
                <name>Trackpoint 1679</name>
            </trkpt>
            <trkpt lat="50.0958112" lon="10.967564">
                <ele>258.0</ele>
                <time>2020-08-22T10:13:35.000Z</time>
                <name>Trackpoint 1680</name>
            </trkpt>
            <trkpt lat="50.0957824" lon="10.9674784">
                <ele>258.0</ele>
                <time>2020-08-22T10:13:36.000Z</time>
                <name>Trackpoint 1681</name>
            </trkpt>
            <trkpt lat="50.0957376" lon="10.9673072">
                <ele>258.0</ele>
                <time>2020-08-22T10:13:38.000Z</time>
                <name>Trackpoint 1682</name>
            </trkpt>
            <trkpt lat="50.095712" lon="10.9672184">
                <ele>258.0</ele>
                <time>2020-08-22T10:13:39.000Z</time>
                <name>Trackpoint 1683</name>
            </trkpt>
            <trkpt lat="50.0956832" lon="10.9671296">
                <ele>258.0</ele>
                <time>2020-08-22T10:13:40.000Z</time>
                <name>Trackpoint 1684</name>
            </trkpt>
            <trkpt lat="50.0956608" lon="10.96704">
                <ele>258.0</ele>
                <time>2020-08-22T10:13:41.000Z</time>
                <name>Trackpoint 1685</name>
            </trkpt>
            <trkpt lat="50.0956352" lon="10.9669504">
                <ele>258.0</ele>
                <time>2020-08-22T10:13:42.000Z</time>
                <name>Trackpoint 1686</name>
            </trkpt>
            <trkpt lat="50.0956128" lon="10.9668616">
                <ele>258.0</ele>
                <time>2020-08-22T10:13:43.000Z</time>
                <name>Trackpoint 1687</name>
            </trkpt>
            <trkpt lat="50.095584" lon="10.966772">
                <ele>258.0</ele>
                <time>2020-08-22T10:13:44.000Z</time>
                <name>Trackpoint 1688</name>
            </trkpt>
            <trkpt lat="50.0955584" lon="10.9666832">
                <ele>258.0</ele>
                <time>2020-08-22T10:13:45.000Z</time>
                <name>Trackpoint 1689</name>
            </trkpt>
            <trkpt lat="50.095536" lon="10.9665944">
                <ele>259.0</ele>
                <time>2020-08-22T10:13:46.000Z</time>
                <name>Trackpoint 1690</name>
            </trkpt>
            <trkpt lat="50.0955136" lon="10.9665072">
                <ele>259.0</ele>
                <time>2020-08-22T10:13:47.000Z</time>
                <name>Trackpoint 1691</name>
            </trkpt>
            <trkpt lat="50.0954656" lon="10.9663352">
                <ele>258.0</ele>
                <time>2020-08-22T10:13:49.000Z</time>
                <name>Trackpoint 1692</name>
            </trkpt>
            <trkpt lat="50.0954208" lon="10.966164">
                <ele>258.0</ele>
                <time>2020-08-22T10:13:51.000Z</time>
                <name>Trackpoint 1693</name>
            </trkpt>
            <trkpt lat="50.0953664" lon="10.9659904">
                <ele>259.0</ele>
                <time>2020-08-22T10:13:53.000Z</time>
                <name>Trackpoint 1694</name>
            </trkpt>
            <trkpt lat="50.095344" lon="10.9659032">
                <ele>259.0</ele>
                <time>2020-08-22T10:13:54.000Z</time>
                <name>Trackpoint 1695</name>
            </trkpt>
            <trkpt lat="50.0953216" lon="10.9658144">
                <ele>258.0</ele>
                <time>2020-08-22T10:13:55.000Z</time>
                <name>Trackpoint 1696</name>
            </trkpt>
            <trkpt lat="50.09528" lon="10.96564">
                <ele>259.0</ele>
                <time>2020-08-22T10:13:57.000Z</time>
                <name>Trackpoint 1697</name>
            </trkpt>
            <trkpt lat="50.0952288" lon="10.9654728">
                <ele>259.0</ele>
                <time>2020-08-22T10:13:59.000Z</time>
                <name>Trackpoint 1698</name>
            </trkpt>
            <trkpt lat="50.0951872" lon="10.9653128">
                <ele>259.0</ele>
                <time>2020-08-22T10:14:01.000Z</time>
                <name>Trackpoint 1699</name>
            </trkpt>
            <trkpt lat="50.0951456" lon="10.9651568">
                <ele>258.0</ele>
                <time>2020-08-22T10:14:03.000Z</time>
                <name>Trackpoint 1700</name>
            </trkpt>
            <trkpt lat="50.0950848" lon="10.9650248">
                <ele>258.0</ele>
                <time>2020-08-22T10:14:05.000Z</time>
                <name>Trackpoint 1701</name>
            </trkpt>
            <trkpt lat="50.0950208" lon="10.9648888">
                <ele>258.0</ele>
                <time>2020-08-22T10:14:07.000Z</time>
                <name>Trackpoint 1702</name>
            </trkpt>
            <trkpt lat="50.0949696" lon="10.9647416">
                <ele>258.0</ele>
                <time>2020-08-22T10:14:09.000Z</time>
                <name>Trackpoint 1703</name>
            </trkpt>
            <trkpt lat="50.094928" lon="10.964588">
                <ele>259.0</ele>
                <time>2020-08-22T10:14:11.000Z</time>
                <name>Trackpoint 1704</name>
            </trkpt>
            <trkpt lat="50.0948864" lon="10.9644384">
                <ele>259.0</ele>
                <time>2020-08-22T10:14:13.000Z</time>
                <name>Trackpoint 1705</name>
            </trkpt>
            <trkpt lat="50.0948448" lon="10.9642896">
                <ele>259.0</ele>
                <time>2020-08-22T10:14:15.000Z</time>
                <name>Trackpoint 1706</name>
            </trkpt>
            <trkpt lat="50.0948" lon="10.9641384">
                <ele>260.0</ele>
                <time>2020-08-22T10:14:17.000Z</time>
                <name>Trackpoint 1707</name>
            </trkpt>
            <trkpt lat="50.0947584" lon="10.9639856">
                <ele>260.0</ele>
                <time>2020-08-22T10:14:19.000Z</time>
                <name>Trackpoint 1708</name>
            </trkpt>
            <trkpt lat="50.0947136" lon="10.9638336">
                <ele>260.0</ele>
                <time>2020-08-22T10:14:21.000Z</time>
                <name>Trackpoint 1709</name>
            </trkpt>
            <trkpt lat="50.0946848" lon="10.9636872">
                <ele>259.0</ele>
                <time>2020-08-22T10:14:23.000Z</time>
                <name>Trackpoint 1710</name>
            </trkpt>
            <trkpt lat="50.0946592" lon="10.9635432">
                <ele>259.0</ele>
                <time>2020-08-22T10:14:25.000Z</time>
                <name>Trackpoint 1711</name>
            </trkpt>
            <trkpt lat="50.0946528" lon="10.9634112">
                <ele>258.0</ele>
                <time>2020-08-22T10:14:27.000Z</time>
                <name>Trackpoint 1712</name>
            </trkpt>
            <trkpt lat="50.0946688" lon="10.9632568">
                <ele>258.0</ele>
                <time>2020-08-22T10:14:29.000Z</time>
                <name>Trackpoint 1713</name>
            </trkpt>
            <trkpt lat="50.0946624" lon="10.963088">
                <ele>258.0</ele>
                <time>2020-08-22T10:14:31.000Z</time>
                <name>Trackpoint 1714</name>
            </trkpt>
            <trkpt lat="50.0946528" lon="10.9629232">
                <ele>258.0</ele>
                <time>2020-08-22T10:14:33.000Z</time>
                <name>Trackpoint 1715</name>
            </trkpt>
            <trkpt lat="50.0946496" lon="10.962764">
                <ele>258.0</ele>
                <time>2020-08-22T10:14:35.000Z</time>
                <name>Trackpoint 1716</name>
            </trkpt>
            <trkpt lat="50.0946464" lon="10.9626128">
                <ele>258.0</ele>
                <time>2020-08-22T10:14:37.000Z</time>
                <name>Trackpoint 1717</name>
            </trkpt>
            <trkpt lat="50.0946592" lon="10.9624544">
                <ele>258.0</ele>
                <time>2020-08-22T10:14:39.000Z</time>
                <name>Trackpoint 1718</name>
            </trkpt>
            <trkpt lat="50.094688" lon="10.9623">
                <ele>258.0</ele>
                <time>2020-08-22T10:14:41.000Z</time>
                <name>Trackpoint 1719</name>
            </trkpt>
            <trkpt lat="50.0946976" lon="10.9621432">
                <ele>257.0</ele>
                <time>2020-08-22T10:14:43.000Z</time>
                <name>Trackpoint 1720</name>
            </trkpt>
            <trkpt lat="50.0946976" lon="10.9620016">
                <ele>257.0</ele>
                <time>2020-08-22T10:14:45.000Z</time>
                <name>Trackpoint 1721</name>
            </trkpt>
            <trkpt lat="50.0947232" lon="10.96186">
                <ele>257.0</ele>
                <time>2020-08-22T10:14:47.000Z</time>
                <name>Trackpoint 1722</name>
            </trkpt>
            <trkpt lat="50.0947488" lon="10.9617184">
                <ele>257.0</ele>
                <time>2020-08-22T10:14:49.000Z</time>
                <name>Trackpoint 1723</name>
            </trkpt>
            <trkpt lat="50.0947872" lon="10.9615736">
                <ele>256.0</ele>
                <time>2020-08-22T10:14:51.000Z</time>
                <name>Trackpoint 1724</name>
            </trkpt>
            <trkpt lat="50.0948288" lon="10.961436">
                <ele>256.0</ele>
                <time>2020-08-22T10:14:53.000Z</time>
                <name>Trackpoint 1725</name>
            </trkpt>
            <trkpt lat="50.0948768" lon="10.9612952">
                <ele>257.0</ele>
                <time>2020-08-22T10:14:55.000Z</time>
                <name>Trackpoint 1726</name>
            </trkpt>
            <trkpt lat="50.0949248" lon="10.961152">
                <ele>256.0</ele>
                <time>2020-08-22T10:14:57.000Z</time>
                <name>Trackpoint 1727</name>
            </trkpt>
            <trkpt lat="50.0949696" lon="10.9610056">
                <ele>256.0</ele>
                <time>2020-08-22T10:14:59.000Z</time>
                <name>Trackpoint 1728</name>
            </trkpt>
            <trkpt lat="50.0950176" lon="10.96086">
                <ele>255.0</ele>
                <time>2020-08-22T10:15:01.000Z</time>
                <name>Trackpoint 1729</name>
            </trkpt>
            <trkpt lat="50.0950656" lon="10.9607184">
                <ele>255.0</ele>
                <time>2020-08-22T10:15:03.000Z</time>
                <name>Trackpoint 1730</name>
            </trkpt>
            <trkpt lat="50.0951104" lon="10.9605816">
                <ele>255.0</ele>
                <time>2020-08-22T10:15:05.000Z</time>
                <name>Trackpoint 1731</name>
            </trkpt>
            <trkpt lat="50.0951072" lon="10.9604368">
                <ele>255.0</ele>
                <time>2020-08-22T10:15:07.000Z</time>
                <name>Trackpoint 1732</name>
            </trkpt>
            <trkpt lat="50.0950432" lon="10.9603328">
                <ele>255.0</ele>
                <time>2020-08-22T10:15:09.000Z</time>
                <name>Trackpoint 1733</name>
            </trkpt>
            <trkpt lat="50.0949632" lon="10.9602384">
                <ele>254.0</ele>
                <time>2020-08-22T10:15:12.000Z</time>
                <name>Trackpoint 1734</name>
            </trkpt>
            <trkpt lat="50.0949248" lon="10.9601568">
                <ele>254.0</ele>
                <time>2020-08-22T10:15:15.000Z</time>
                <name>Trackpoint 1735</name>
            </trkpt>
            <trkpt lat="50.0949632" lon="10.9600712">
                <ele>255.0</ele>
                <time>2020-08-22T10:15:46.000Z</time>
                <name>Trackpoint 1736</name>
            </trkpt>
            <trkpt lat="50.0949376" lon="10.9599832">
                <ele>255.0</ele>
                <time>2020-08-22T10:16:20.000Z</time>
                <name>Trackpoint 1737</name>
            </trkpt>
            <trkpt lat="50.0948672" lon="10.9598848">
                <ele>255.0</ele>
                <time>2020-08-22T10:16:23.000Z</time>
                <name>Trackpoint 1738</name>
            </trkpt>
            <trkpt lat="50.0948064" lon="10.9598048">
                <ele>255.0</ele>
                <time>2020-08-22T10:16:25.000Z</time>
                <name>Trackpoint 1739</name>
            </trkpt>
            <trkpt lat="50.0947424" lon="10.9597184">
                <ele>255.0</ele>
                <time>2020-08-22T10:16:27.000Z</time>
                <name>Trackpoint 1740</name>
            </trkpt>
            <trkpt lat="50.094672" lon="10.959628">
                <ele>255.0</ele>
                <time>2020-08-22T10:16:29.000Z</time>
                <name>Trackpoint 1741</name>
            </trkpt>
            <trkpt lat="50.094608" lon="10.959532">
                <ele>255.0</ele>
                <time>2020-08-22T10:16:31.000Z</time>
                <name>Trackpoint 1742</name>
            </trkpt>
            <trkpt lat="50.0945344" lon="10.9594336">
                <ele>255.0</ele>
                <time>2020-08-22T10:16:33.000Z</time>
                <name>Trackpoint 1743</name>
            </trkpt>
            <trkpt lat="50.094464" lon="10.9593352">
                <ele>255.0</ele>
                <time>2020-08-22T10:16:35.000Z</time>
                <name>Trackpoint 1744</name>
            </trkpt>
            <trkpt lat="50.0943904" lon="10.95924">
                <ele>255.0</ele>
                <time>2020-08-22T10:16:37.000Z</time>
                <name>Trackpoint 1745</name>
            </trkpt>
            <trkpt lat="50.0943136" lon="10.95914">
                <ele>255.0</ele>
                <time>2020-08-22T10:16:39.000Z</time>
                <name>Trackpoint 1746</name>
            </trkpt>
            <trkpt lat="50.0942432" lon="10.9590456">
                <ele>255.0</ele>
                <time>2020-08-22T10:16:41.000Z</time>
                <name>Trackpoint 1747</name>
            </trkpt>
            <trkpt lat="50.0941696" lon="10.9589456">
                <ele>255.0</ele>
                <time>2020-08-22T10:16:43.000Z</time>
                <name>Trackpoint 1748</name>
            </trkpt>
            <trkpt lat="50.0940928" lon="10.958848">
                <ele>254.0</ele>
                <time>2020-08-22T10:16:45.000Z</time>
                <name>Trackpoint 1749</name>
            </trkpt>
            <trkpt lat="50.094016" lon="10.9587448">
                <ele>254.0</ele>
                <time>2020-08-22T10:16:47.000Z</time>
                <name>Trackpoint 1750</name>
            </trkpt>
            <trkpt lat="50.0939488" lon="10.9586432">
                <ele>254.0</ele>
                <time>2020-08-22T10:16:49.000Z</time>
                <name>Trackpoint 1751</name>
            </trkpt>
            <trkpt lat="50.093872" lon="10.958544">
                <ele>253.0</ele>
                <time>2020-08-22T10:16:51.000Z</time>
                <name>Trackpoint 1752</name>
            </trkpt>
            <trkpt lat="50.0937984" lon="10.9584328">
                <ele>253.0</ele>
                <time>2020-08-22T10:16:53.000Z</time>
                <name>Trackpoint 1753</name>
            </trkpt>
            <trkpt lat="50.0937248" lon="10.9583216">
                <ele>252.0</ele>
                <time>2020-08-22T10:16:55.000Z</time>
                <name>Trackpoint 1754</name>
            </trkpt>
            <trkpt lat="50.0936416" lon="10.958208">
                <ele>252.0</ele>
                <time>2020-08-22T10:16:57.000Z</time>
                <name>Trackpoint 1755</name>
            </trkpt>
            <trkpt lat="50.0935616" lon="10.9580936">
                <ele>252.0</ele>
                <time>2020-08-22T10:16:59.000Z</time>
                <name>Trackpoint 1756</name>
            </trkpt>
            <trkpt lat="50.0934752" lon="10.9579832">
                <ele>254.0</ele>
                <time>2020-08-22T10:17:01.000Z</time>
                <name>Trackpoint 1757</name>
            </trkpt>
            <trkpt lat="50.0933888" lon="10.9579064">
                <ele>254.0</ele>
                <time>2020-08-22T10:17:03.000Z</time>
                <name>Trackpoint 1758</name>
            </trkpt>
            <trkpt lat="50.09328" lon="10.9578712">
                <ele>255.0</ele>
                <time>2020-08-22T10:17:05.000Z</time>
                <name>Trackpoint 1759</name>
            </trkpt>
            <trkpt lat="50.0931776" lon="10.957876">
                <ele>255.0</ele>
                <time>2020-08-22T10:17:07.000Z</time>
                <name>Trackpoint 1760</name>
            </trkpt>
            <trkpt lat="50.0930752" lon="10.9579232">
                <ele>254.0</ele>
                <time>2020-08-22T10:17:09.000Z</time>
                <name>Trackpoint 1761</name>
            </trkpt>
            <trkpt lat="50.0929792" lon="10.9580024">
                <ele>254.0</ele>
                <time>2020-08-22T10:17:11.000Z</time>
                <name>Trackpoint 1762</name>
            </trkpt>
            <trkpt lat="50.0928768" lon="10.9580744">
                <ele>255.0</ele>
                <time>2020-08-22T10:17:13.000Z</time>
                <name>Trackpoint 1763</name>
            </trkpt>
            <trkpt lat="50.0927744" lon="10.9581496">
                <ele>255.0</ele>
                <time>2020-08-22T10:17:15.000Z</time>
                <name>Trackpoint 1764</name>
            </trkpt>
            <trkpt lat="50.0926752" lon="10.9582168">
                <ele>255.0</ele>
                <time>2020-08-22T10:17:17.000Z</time>
                <name>Trackpoint 1765</name>
            </trkpt>
            <trkpt lat="50.0925728" lon="10.9582728">
                <ele>254.0</ele>
                <time>2020-08-22T10:17:19.000Z</time>
                <name>Trackpoint 1766</name>
            </trkpt>
            <trkpt lat="50.0924608" lon="10.95832">
                <ele>254.0</ele>
                <time>2020-08-22T10:17:21.000Z</time>
                <name>Trackpoint 1767</name>
            </trkpt>
            <trkpt lat="50.0923552" lon="10.9583584">
                <ele>254.0</ele>
                <time>2020-08-22T10:17:23.000Z</time>
                <name>Trackpoint 1768</name>
            </trkpt>
            <trkpt lat="50.0922464" lon="10.958388">
                <ele>254.0</ele>
                <time>2020-08-22T10:17:25.000Z</time>
                <name>Trackpoint 1769</name>
            </trkpt>
            <trkpt lat="50.0921376" lon="10.9584152">
                <ele>254.0</ele>
                <time>2020-08-22T10:17:27.000Z</time>
                <name>Trackpoint 1770</name>
            </trkpt>
            <trkpt lat="50.0920288" lon="10.95844">
                <ele>254.0</ele>
                <time>2020-08-22T10:17:29.000Z</time>
                <name>Trackpoint 1771</name>
            </trkpt>
            <trkpt lat="50.09192" lon="10.9584576">
                <ele>254.0</ele>
                <time>2020-08-22T10:17:31.000Z</time>
                <name>Trackpoint 1772</name>
            </trkpt>
            <trkpt lat="50.0918112" lon="10.9584576">
                <ele>254.0</ele>
                <time>2020-08-22T10:17:33.000Z</time>
                <name>Trackpoint 1773</name>
            </trkpt>
            <trkpt lat="50.0917056" lon="10.9584264">
                <ele>254.0</ele>
                <time>2020-08-22T10:17:35.000Z</time>
                <name>Trackpoint 1774</name>
            </trkpt>
            <trkpt lat="50.0916" lon="10.9583768">
                <ele>254.0</ele>
                <time>2020-08-22T10:17:37.000Z</time>
                <name>Trackpoint 1775</name>
            </trkpt>
            <trkpt lat="50.0915008" lon="10.9583128">
                <ele>254.0</ele>
                <time>2020-08-22T10:17:39.000Z</time>
                <name>Trackpoint 1776</name>
            </trkpt>
            <trkpt lat="50.0914144" lon="10.9582304">
                <ele>254.0</ele>
                <time>2020-08-22T10:17:41.000Z</time>
                <name>Trackpoint 1777</name>
            </trkpt>
            <trkpt lat="50.0913472" lon="10.9581344">
                <ele>254.0</ele>
                <time>2020-08-22T10:17:43.000Z</time>
                <name>Trackpoint 1778</name>
            </trkpt>
            <trkpt lat="50.0912832" lon="10.9580296">
                <ele>254.0</ele>
                <time>2020-08-22T10:17:45.000Z</time>
                <name>Trackpoint 1779</name>
            </trkpt>
            <trkpt lat="50.091216" lon="10.9579184">
                <ele>253.0</ele>
                <time>2020-08-22T10:17:47.000Z</time>
                <name>Trackpoint 1780</name>
            </trkpt>
            <trkpt lat="50.0911552" lon="10.9578">
                <ele>253.0</ele>
                <time>2020-08-22T10:17:49.000Z</time>
                <name>Trackpoint 1781</name>
            </trkpt>
            <trkpt lat="50.091104" lon="10.9576768">
                <ele>253.0</ele>
                <time>2020-08-22T10:17:51.000Z</time>
                <name>Trackpoint 1782</name>
            </trkpt>
            <trkpt lat="50.0910496" lon="10.957552">
                <ele>252.0</ele>
                <time>2020-08-22T10:17:53.000Z</time>
                <name>Trackpoint 1783</name>
            </trkpt>
            <trkpt lat="50.0909952" lon="10.9574216">
                <ele>252.0</ele>
                <time>2020-08-22T10:17:55.000Z</time>
                <name>Trackpoint 1784</name>
            </trkpt>
            <trkpt lat="50.09096" lon="10.9572888">
                <ele>252.0</ele>
                <time>2020-08-22T10:17:57.000Z</time>
                <name>Trackpoint 1785</name>
            </trkpt>
            <trkpt lat="50.0909184" lon="10.9571464">
                <ele>252.0</ele>
                <time>2020-08-22T10:17:59.000Z</time>
                <name>Trackpoint 1786</name>
            </trkpt>
            <trkpt lat="50.0908864" lon="10.9569928">
                <ele>252.0</ele>
                <time>2020-08-22T10:18:01.000Z</time>
                <name>Trackpoint 1787</name>
            </trkpt>
            <trkpt lat="50.0908512" lon="10.9568416">
                <ele>253.0</ele>
                <time>2020-08-22T10:18:03.000Z</time>
                <name>Trackpoint 1788</name>
            </trkpt>
            <trkpt lat="50.0908128" lon="10.9566896">
                <ele>253.0</ele>
                <time>2020-08-22T10:18:05.000Z</time>
                <name>Trackpoint 1789</name>
            </trkpt>
            <trkpt lat="50.0907744" lon="10.9565384">
                <ele>253.0</ele>
                <time>2020-08-22T10:18:07.000Z</time>
                <name>Trackpoint 1790</name>
            </trkpt>
            <trkpt lat="50.0907392" lon="10.9563912">
                <ele>253.0</ele>
                <time>2020-08-22T10:18:09.000Z</time>
                <name>Trackpoint 1791</name>
            </trkpt>
            <trkpt lat="50.0906912" lon="10.956252">
                <ele>253.0</ele>
                <time>2020-08-22T10:18:11.000Z</time>
                <name>Trackpoint 1792</name>
            </trkpt>
            <trkpt lat="50.09064" lon="10.9561128">
                <ele>253.0</ele>
                <time>2020-08-22T10:18:13.000Z</time>
                <name>Trackpoint 1793</name>
            </trkpt>
            <trkpt lat="50.0905824" lon="10.9559768">
                <ele>253.0</ele>
                <time>2020-08-22T10:18:15.000Z</time>
                <name>Trackpoint 1794</name>
            </trkpt>
            <trkpt lat="50.0905216" lon="10.9558496">
                <ele>253.0</ele>
                <time>2020-08-22T10:18:17.000Z</time>
                <name>Trackpoint 1795</name>
            </trkpt>
            <trkpt lat="50.090448" lon="10.9557352">
                <ele>254.0</ele>
                <time>2020-08-22T10:18:19.000Z</time>
                <name>Trackpoint 1796</name>
            </trkpt>
            <trkpt lat="50.0903712" lon="10.9556328">
                <ele>254.0</ele>
                <time>2020-08-22T10:18:21.000Z</time>
                <name>Trackpoint 1797</name>
            </trkpt>
            <trkpt lat="50.0902848" lon="10.9555456">
                <ele>253.0</ele>
                <time>2020-08-22T10:18:23.000Z</time>
                <name>Trackpoint 1798</name>
            </trkpt>
            <trkpt lat="50.090192" lon="10.9554816">
                <ele>253.0</ele>
                <time>2020-08-22T10:18:25.000Z</time>
                <name>Trackpoint 1799</name>
            </trkpt>
            <trkpt lat="50.090096" lon="10.9554432">
                <ele>253.0</ele>
                <time>2020-08-22T10:18:27.000Z</time>
                <name>Trackpoint 1800</name>
            </trkpt>
            <trkpt lat="50.0899968" lon="10.955428">
                <ele>254.0</ele>
                <time>2020-08-22T10:18:29.000Z</time>
                <name>Trackpoint 1801</name>
            </trkpt>
            <trkpt lat="50.0898976" lon="10.9554184">
                <ele>254.0</ele>
                <time>2020-08-22T10:18:31.000Z</time>
                <name>Trackpoint 1802</name>
            </trkpt>
            <trkpt lat="50.0897984" lon="10.9553984">
                <ele>254.0</ele>
                <time>2020-08-22T10:18:33.000Z</time>
                <name>Trackpoint 1803</name>
            </trkpt>
            <trkpt lat="50.0896992" lon="10.9553808">
                <ele>253.0</ele>
                <time>2020-08-22T10:18:35.000Z</time>
                <name>Trackpoint 1804</name>
            </trkpt>
            <trkpt lat="50.0896" lon="10.9553736">
                <ele>253.0</ele>
                <time>2020-08-22T10:18:37.000Z</time>
                <name>Trackpoint 1805</name>
            </trkpt>
            <trkpt lat="50.089504" lon="10.9553544">
                <ele>254.0</ele>
                <time>2020-08-22T10:18:39.000Z</time>
                <name>Trackpoint 1806</name>
            </trkpt>
            <trkpt lat="50.0894048" lon="10.9553336">
                <ele>254.0</ele>
                <time>2020-08-22T10:18:41.000Z</time>
                <name>Trackpoint 1807</name>
            </trkpt>
            <trkpt lat="50.0893056" lon="10.9553216">
                <ele>254.0</ele>
                <time>2020-08-22T10:18:43.000Z</time>
                <name>Trackpoint 1808</name>
            </trkpt>
            <trkpt lat="50.0892064" lon="10.9553048">
                <ele>254.0</ele>
                <time>2020-08-22T10:18:45.000Z</time>
                <name>Trackpoint 1809</name>
            </trkpt>
            <trkpt lat="50.0891104" lon="10.9552768">
                <ele>254.0</ele>
                <time>2020-08-22T10:18:47.000Z</time>
                <name>Trackpoint 1810</name>
            </trkpt>
            <trkpt lat="50.089008" lon="10.9552696">
                <ele>254.0</ele>
                <time>2020-08-22T10:18:49.000Z</time>
                <name>Trackpoint 1811</name>
            </trkpt>
            <trkpt lat="50.088912" lon="10.9552584">
                <ele>254.0</ele>
                <time>2020-08-22T10:18:51.000Z</time>
                <name>Trackpoint 1812</name>
            </trkpt>
            <trkpt lat="50.0888128" lon="10.9552368">
                <ele>254.0</ele>
                <time>2020-08-22T10:18:53.000Z</time>
                <name>Trackpoint 1813</name>
            </trkpt>
            <trkpt lat="50.08872" lon="10.9552288">
                <ele>254.0</ele>
                <time>2020-08-22T10:18:55.000Z</time>
                <name>Trackpoint 1814</name>
            </trkpt>
            <trkpt lat="50.0886144" lon="10.9552152">
                <ele>254.0</ele>
                <time>2020-08-22T10:18:57.000Z</time>
                <name>Trackpoint 1815</name>
            </trkpt>
            <trkpt lat="50.0885152" lon="10.9552">
                <ele>255.0</ele>
                <time>2020-08-22T10:18:59.000Z</time>
                <name>Trackpoint 1816</name>
            </trkpt>
            <trkpt lat="50.088416" lon="10.9551848">
                <ele>255.0</ele>
                <time>2020-08-22T10:19:01.000Z</time>
                <name>Trackpoint 1817</name>
            </trkpt>
            <trkpt lat="50.0883168" lon="10.9551632">
                <ele>255.0</ele>
                <time>2020-08-22T10:19:03.000Z</time>
                <name>Trackpoint 1818</name>
            </trkpt>
            <trkpt lat="50.0882144" lon="10.9551496">
                <ele>255.0</ele>
                <time>2020-08-22T10:19:05.000Z</time>
                <name>Trackpoint 1819</name>
            </trkpt>
            <trkpt lat="50.0881152" lon="10.9551384">
                <ele>254.0</ele>
                <time>2020-08-22T10:19:07.000Z</time>
                <name>Trackpoint 1820</name>
            </trkpt>
            <trkpt lat="50.088016" lon="10.9551112">
                <ele>254.0</ele>
                <time>2020-08-22T10:19:09.000Z</time>
                <name>Trackpoint 1821</name>
            </trkpt>
            <trkpt lat="50.0879168" lon="10.9550864">
                <ele>254.0</ele>
                <time>2020-08-22T10:19:11.000Z</time>
                <name>Trackpoint 1822</name>
            </trkpt>
            <trkpt lat="50.0878208" lon="10.95506">
                <ele>255.0</ele>
                <time>2020-08-22T10:19:13.000Z</time>
                <name>Trackpoint 1823</name>
            </trkpt>
            <trkpt lat="50.0876928" lon="10.9550112">
                <ele>255.0</ele>
                <time>2020-08-22T10:19:16.000Z</time>
                <name>Trackpoint 1824</name>
            </trkpt>
            <trkpt lat="50.0876096" lon="10.9549688">
                <ele>255.0</ele>
                <time>2020-08-22T10:19:18.000Z</time>
                <name>Trackpoint 1825</name>
            </trkpt>
            <trkpt lat="50.087536" lon="10.9549112">
                <ele>255.0</ele>
                <time>2020-08-22T10:19:20.000Z</time>
                <name>Trackpoint 1826</name>
            </trkpt>
            <trkpt lat="50.0874496" lon="10.9548464">
                <ele>255.0</ele>
                <time>2020-08-22T10:19:22.000Z</time>
                <name>Trackpoint 1827</name>
            </trkpt>
            <trkpt lat="50.08736" lon="10.9547832">
                <ele>255.0</ele>
                <time>2020-08-22T10:19:24.000Z</time>
                <name>Trackpoint 1828</name>
            </trkpt>
            <trkpt lat="50.0872832" lon="10.954708">
                <ele>255.0</ele>
                <time>2020-08-22T10:19:26.000Z</time>
                <name>Trackpoint 1829</name>
            </trkpt>
            <trkpt lat="50.0872" lon="10.9546448">
                <ele>255.0</ele>
                <time>2020-08-22T10:19:28.000Z</time>
                <name>Trackpoint 1830</name>
            </trkpt>
            <trkpt lat="50.0871072" lon="10.9545816">
                <ele>255.0</ele>
                <time>2020-08-22T10:19:30.000Z</time>
                <name>Trackpoint 1831</name>
            </trkpt>
            <trkpt lat="50.087024" lon="10.9545224">
                <ele>255.0</ele>
                <time>2020-08-22T10:19:32.000Z</time>
                <name>Trackpoint 1832</name>
            </trkpt>
            <trkpt lat="50.086928" lon="10.95448">
                <ele>255.0</ele>
                <time>2020-08-22T10:19:34.000Z</time>
                <name>Trackpoint 1833</name>
            </trkpt>
            <trkpt lat="50.0868288" lon="10.9544352">
                <ele>255.0</ele>
                <time>2020-08-22T10:19:36.000Z</time>
                <name>Trackpoint 1834</name>
            </trkpt>
            <trkpt lat="50.0867296" lon="10.9544048">
                <ele>255.0</ele>
                <time>2020-08-22T10:19:38.000Z</time>
                <name>Trackpoint 1835</name>
            </trkpt>
            <trkpt lat="50.086624" lon="10.9543664">
                <ele>255.0</ele>
                <time>2020-08-22T10:19:40.000Z</time>
                <name>Trackpoint 1836</name>
            </trkpt>
            <trkpt lat="50.0865216" lon="10.9543368">
                <ele>255.0</ele>
                <time>2020-08-22T10:19:42.000Z</time>
                <name>Trackpoint 1837</name>
            </trkpt>
            <trkpt lat="50.0864192" lon="10.9543112">
                <ele>254.0</ele>
                <time>2020-08-22T10:19:44.000Z</time>
                <name>Trackpoint 1838</name>
            </trkpt>
            <trkpt lat="50.08632" lon="10.9542864">
                <ele>254.0</ele>
                <time>2020-08-22T10:19:46.000Z</time>
                <name>Trackpoint 1839</name>
            </trkpt>
            <trkpt lat="50.0862208" lon="10.9542664">
                <ele>254.0</ele>
                <time>2020-08-22T10:19:48.000Z</time>
                <name>Trackpoint 1840</name>
            </trkpt>
            <trkpt lat="50.0861248" lon="10.9542448">
                <ele>254.0</ele>
                <time>2020-08-22T10:19:50.000Z</time>
                <name>Trackpoint 1841</name>
            </trkpt>
            <trkpt lat="50.0860256" lon="10.95422">
                <ele>254.0</ele>
                <time>2020-08-22T10:19:52.000Z</time>
                <name>Trackpoint 1842</name>
            </trkpt>
            <trkpt lat="50.0859264" lon="10.9541904">
                <ele>254.0</ele>
                <time>2020-08-22T10:19:54.000Z</time>
                <name>Trackpoint 1843</name>
            </trkpt>
            <trkpt lat="50.0858432" lon="10.9541504">
                <ele>255.0</ele>
                <time>2020-08-22T10:19:56.000Z</time>
                <name>Trackpoint 1844</name>
            </trkpt>
            <trkpt lat="50.0857472" lon="10.9540984">
                <ele>255.0</ele>
                <time>2020-08-22T10:19:58.000Z</time>
                <name>Trackpoint 1845</name>
            </trkpt>
            <trkpt lat="50.0856544" lon="10.9540504">
                <ele>255.0</ele>
                <time>2020-08-22T10:20:00.000Z</time>
                <name>Trackpoint 1846</name>
            </trkpt>
            <trkpt lat="50.0855584" lon="10.9539984">
                <ele>255.0</ele>
                <time>2020-08-22T10:20:02.000Z</time>
                <name>Trackpoint 1847</name>
            </trkpt>
            <trkpt lat="50.0854752" lon="10.9539432">
                <ele>255.0</ele>
                <time>2020-08-22T10:20:04.000Z</time>
                <name>Trackpoint 1848</name>
            </trkpt>
            <trkpt lat="50.0853888" lon="10.953888">
                <ele>255.0</ele>
                <time>2020-08-22T10:20:06.000Z</time>
                <name>Trackpoint 1849</name>
            </trkpt>
            <trkpt lat="50.0852928" lon="10.9538336">
                <ele>255.0</ele>
                <time>2020-08-22T10:20:08.000Z</time>
                <name>Trackpoint 1850</name>
            </trkpt>
            <trkpt lat="50.0852064" lon="10.953756">
                <ele>255.0</ele>
                <time>2020-08-22T10:20:10.000Z</time>
                <name>Trackpoint 1851</name>
            </trkpt>
            <trkpt lat="50.08512" lon="10.9536912">
                <ele>255.0</ele>
                <time>2020-08-22T10:20:12.000Z</time>
                <name>Trackpoint 1852</name>
            </trkpt>
            <trkpt lat="50.0850336" lon="10.9536336">
                <ele>255.0</ele>
                <time>2020-08-22T10:20:14.000Z</time>
                <name>Trackpoint 1853</name>
            </trkpt>
            <trkpt lat="50.0849408" lon="10.9535704">
                <ele>255.0</ele>
                <time>2020-08-22T10:20:16.000Z</time>
                <name>Trackpoint 1854</name>
            </trkpt>
            <trkpt lat="50.0848608" lon="10.9534952">
                <ele>255.0</ele>
                <time>2020-08-22T10:20:18.000Z</time>
                <name>Trackpoint 1855</name>
            </trkpt>
            <trkpt lat="50.0847776" lon="10.9534168">
                <ele>255.0</ele>
                <time>2020-08-22T10:20:20.000Z</time>
                <name>Trackpoint 1856</name>
            </trkpt>
            <trkpt lat="50.0846976" lon="10.9533616">
                <ele>255.0</ele>
                <time>2020-08-22T10:20:22.000Z</time>
                <name>Trackpoint 1857</name>
            </trkpt>
            <trkpt lat="50.0846208" lon="10.9532968">
                <ele>253.0</ele>
                <time>2020-08-22T10:21:05.000Z</time>
                <name>Trackpoint 1858</name>
            </trkpt>
            <trkpt lat="50.084544" lon="10.9532496">
                <ele>253.0</ele>
                <time>2020-08-22T10:21:08.000Z</time>
                <name>Trackpoint 1859</name>
            </trkpt>
            <trkpt lat="50.0844416" lon="10.9531832">
                <ele>254.0</ele>
                <time>2020-08-22T10:21:11.000Z</time>
                <name>Trackpoint 1860</name>
            </trkpt>
            <trkpt lat="50.0843648" lon="10.9531336">
                <ele>254.0</ele>
                <time>2020-08-22T10:21:13.000Z</time>
                <name>Trackpoint 1861</name>
            </trkpt>
            <trkpt lat="50.0842848" lon="10.9530832">
                <ele>254.0</ele>
                <time>2020-08-22T10:21:15.000Z</time>
                <name>Trackpoint 1862</name>
            </trkpt>
            <trkpt lat="50.084208" lon="10.9530248">
                <ele>254.0</ele>
                <time>2020-08-22T10:21:17.000Z</time>
                <name>Trackpoint 1863</name>
            </trkpt>
            <trkpt lat="50.0841376" lon="10.9529648">
                <ele>254.0</ele>
                <time>2020-08-22T10:21:19.000Z</time>
                <name>Trackpoint 1864</name>
            </trkpt>
            <trkpt lat="50.0840544" lon="10.9528704">
                <ele>254.0</ele>
                <time>2020-08-22T10:21:22.000Z</time>
                <name>Trackpoint 1865</name>
            </trkpt>
            <trkpt lat="50.0839872" lon="10.9527752">
                <ele>253.0</ele>
                <time>2020-08-22T10:21:25.000Z</time>
                <name>Trackpoint 1866</name>
            </trkpt>
            <trkpt lat="50.0839232" lon="10.9526864">
                <ele>253.0</ele>
                <time>2020-08-22T10:21:28.000Z</time>
                <name>Trackpoint 1867</name>
            </trkpt>
            <trkpt lat="50.0838688" lon="10.9525944">
                <ele>252.0</ele>
                <time>2020-08-22T10:21:30.000Z</time>
                <name>Trackpoint 1868</name>
            </trkpt>
            <trkpt lat="50.0838176" lon="10.9525136">
                <ele>252.0</ele>
                <time>2020-08-22T10:21:32.000Z</time>
                <name>Trackpoint 1869</name>
            </trkpt>
            <trkpt lat="50.0837664" lon="10.9524232">
                <ele>252.0</ele>
                <time>2020-08-22T10:21:34.000Z</time>
                <name>Trackpoint 1870</name>
            </trkpt>
            <trkpt lat="50.083712" lon="10.9523336">
                <ele>252.0</ele>
                <time>2020-08-22T10:21:36.000Z</time>
                <name>Trackpoint 1871</name>
            </trkpt>
            <trkpt lat="50.0836672" lon="10.9522112">
                <ele>253.0</ele>
                <time>2020-08-22T10:21:38.000Z</time>
                <name>Trackpoint 1872</name>
            </trkpt>
            <trkpt lat="50.0836224" lon="10.9520928">
                <ele>253.0</ele>
                <time>2020-08-22T10:21:40.000Z</time>
                <name>Trackpoint 1873</name>
            </trkpt>
            <trkpt lat="50.0835808" lon="10.9519704">
                <ele>253.0</ele>
                <time>2020-08-22T10:21:42.000Z</time>
                <name>Trackpoint 1874</name>
            </trkpt>
            <trkpt lat="50.0835328" lon="10.9518608">
                <ele>253.0</ele>
                <time>2020-08-22T10:21:44.000Z</time>
                <name>Trackpoint 1875</name>
            </trkpt>
            <trkpt lat="50.0835008" lon="10.951768">
                <ele>253.0</ele>
                <time>2020-08-22T10:21:46.000Z</time>
                <name>Trackpoint 1876</name>
            </trkpt>
            <trkpt lat="50.0834848" lon="10.951676">
                <ele>252.0</ele>
                <time>2020-08-22T10:22:10.000Z</time>
                <name>Trackpoint 1877</name>
            </trkpt>
            <trkpt lat="50.0834528" lon="10.951576">
                <ele>252.0</ele>
                <time>2020-08-22T10:22:13.000Z</time>
                <name>Trackpoint 1878</name>
            </trkpt>
            <trkpt lat="50.083424" lon="10.95148">
                <ele>252.0</ele>
                <time>2020-08-22T10:22:15.000Z</time>
                <name>Trackpoint 1879</name>
            </trkpt>
            <trkpt lat="50.0833888" lon="10.951368">
                <ele>252.0</ele>
                <time>2020-08-22T10:22:17.000Z</time>
                <name>Trackpoint 1880</name>
            </trkpt>
            <trkpt lat="50.08336" lon="10.9512456">
                <ele>251.0</ele>
                <time>2020-08-22T10:22:19.000Z</time>
                <name>Trackpoint 1881</name>
            </trkpt>
            <trkpt lat="50.0833344" lon="10.9511048">
                <ele>251.0</ele>
                <time>2020-08-22T10:22:21.000Z</time>
                <name>Trackpoint 1882</name>
            </trkpt>
            <trkpt lat="50.083312" lon="10.9509624">
                <ele>252.0</ele>
                <time>2020-08-22T10:22:23.000Z</time>
                <name>Trackpoint 1883</name>
            </trkpt>
            <trkpt lat="50.0832896" lon="10.9508136">
                <ele>252.0</ele>
                <time>2020-08-22T10:22:25.000Z</time>
                <name>Trackpoint 1884</name>
            </trkpt>
            <trkpt lat="50.08328" lon="10.9506616">
                <ele>252.0</ele>
                <time>2020-08-22T10:22:27.000Z</time>
                <name>Trackpoint 1885</name>
            </trkpt>
            <trkpt lat="50.0832704" lon="10.950508">
                <ele>252.0</ele>
                <time>2020-08-22T10:22:29.000Z</time>
                <name>Trackpoint 1886</name>
            </trkpt>
            <trkpt lat="50.0832608" lon="10.9503536">
                <ele>252.0</ele>
                <time>2020-08-22T10:22:31.000Z</time>
                <name>Trackpoint 1887</name>
            </trkpt>
            <trkpt lat="50.0832352" lon="10.9502016">
                <ele>252.0</ele>
                <time>2020-08-22T10:22:33.000Z</time>
                <name>Trackpoint 1888</name>
            </trkpt>
            <trkpt lat="50.0832064" lon="10.9500512">
                <ele>252.0</ele>
                <time>2020-08-22T10:22:35.000Z</time>
                <name>Trackpoint 1889</name>
            </trkpt>
            <trkpt lat="50.0831744" lon="10.9499">
                <ele>252.0</ele>
                <time>2020-08-22T10:22:37.000Z</time>
                <name>Trackpoint 1890</name>
            </trkpt>
            <trkpt lat="50.0831488" lon="10.949748">
                <ele>253.0</ele>
                <time>2020-08-22T10:22:39.000Z</time>
                <name>Trackpoint 1891</name>
            </trkpt>
            <trkpt lat="50.08312" lon="10.9496072">
                <ele>252.0</ele>
                <time>2020-08-22T10:22:41.000Z</time>
                <name>Trackpoint 1892</name>
            </trkpt>
            <trkpt lat="50.0830816" lon="10.9494664">
                <ele>252.0</ele>
                <time>2020-08-22T10:22:43.000Z</time>
                <name>Trackpoint 1893</name>
            </trkpt>
            <trkpt lat="50.0830496" lon="10.9493216">
                <ele>252.0</ele>
                <time>2020-08-22T10:22:45.000Z</time>
                <name>Trackpoint 1894</name>
            </trkpt>
            <trkpt lat="50.0830144" lon="10.9491768">
                <ele>252.0</ele>
                <time>2020-08-22T10:22:47.000Z</time>
                <name>Trackpoint 1895</name>
            </trkpt>
            <trkpt lat="50.0829856" lon="10.9490368">
                <ele>252.0</ele>
                <time>2020-08-22T10:22:49.000Z</time>
                <name>Trackpoint 1896</name>
            </trkpt>
            <trkpt lat="50.0829536" lon="10.9489">
                <ele>252.0</ele>
                <time>2020-08-22T10:22:51.000Z</time>
                <name>Trackpoint 1897</name>
            </trkpt>
            <trkpt lat="50.0829248" lon="10.9487688">
                <ele>252.0</ele>
                <time>2020-08-22T10:22:53.000Z</time>
                <name>Trackpoint 1898</name>
            </trkpt>
            <trkpt lat="50.0828928" lon="10.9486416">
                <ele>252.0</ele>
                <time>2020-08-22T10:22:55.000Z</time>
                <name>Trackpoint 1899</name>
            </trkpt>
            <trkpt lat="50.0828736" lon="10.9485232">
                <ele>252.0</ele>
                <time>2020-08-22T10:22:57.000Z</time>
                <name>Trackpoint 1900</name>
            </trkpt>
            <trkpt lat="50.082864" lon="10.948428">
                <ele>252.0</ele>
                <time>2020-08-22T10:22:59.000Z</time>
                <name>Trackpoint 1901</name>
            </trkpt>
            <trkpt lat="50.0828512" lon="10.9483184">
                <ele>250.0</ele>
                <time>2020-08-22T10:23:21.000Z</time>
                <name>Trackpoint 1902</name>
            </trkpt>
            <trkpt lat="50.0828288" lon="10.9482184">
                <ele>250.0</ele>
                <time>2020-08-22T10:23:24.000Z</time>
                <name>Trackpoint 1903</name>
            </trkpt>
            <trkpt lat="50.082816" lon="10.9481248">
                <ele>250.0</ele>
                <time>2020-08-22T10:23:26.000Z</time>
                <name>Trackpoint 1904</name>
            </trkpt>
            <trkpt lat="50.0828032" lon="10.9480112">
                <ele>250.0</ele>
                <time>2020-08-22T10:23:28.000Z</time>
                <name>Trackpoint 1905</name>
            </trkpt>
            <trkpt lat="50.0827744" lon="10.947888">
                <ele>250.0</ele>
                <time>2020-08-22T10:23:30.000Z</time>
                <name>Trackpoint 1906</name>
            </trkpt>
            <trkpt lat="50.0827648" lon="10.9477584">
                <ele>250.0</ele>
                <time>2020-08-22T10:23:32.000Z</time>
                <name>Trackpoint 1907</name>
            </trkpt>
            <trkpt lat="50.0827584" lon="10.947628">
                <ele>250.0</ele>
                <time>2020-08-22T10:23:34.000Z</time>
                <name>Trackpoint 1908</name>
            </trkpt>
            <trkpt lat="50.0827328" lon="10.9474832">
                <ele>250.0</ele>
                <time>2020-08-22T10:23:36.000Z</time>
                <name>Trackpoint 1909</name>
            </trkpt>
            <trkpt lat="50.0827264" lon="10.9473488">
                <ele>250.0</ele>
                <time>2020-08-22T10:23:38.000Z</time>
                <name>Trackpoint 1910</name>
            </trkpt>
            <trkpt lat="50.0827232" lon="10.9472336">
                <ele>250.0</ele>
                <time>2020-08-22T10:23:40.000Z</time>
                <name>Trackpoint 1911</name>
            </trkpt>
            <trkpt lat="50.0826944" lon="10.9470984">
                <ele>250.0</ele>
                <time>2020-08-22T10:23:42.000Z</time>
                <name>Trackpoint 1912</name>
            </trkpt>
            <trkpt lat="50.0826496" lon="10.9469632">
                <ele>250.0</ele>
                <time>2020-08-22T10:23:44.000Z</time>
                <name>Trackpoint 1913</name>
            </trkpt>
            <trkpt lat="50.0826112" lon="10.94686">
                <ele>250.0</ele>
                <time>2020-08-22T10:23:46.000Z</time>
                <name>Trackpoint 1914</name>
            </trkpt>
            <trkpt lat="50.0825472" lon="10.9467784">
                <ele>250.0</ele>
                <time>2020-08-22T10:23:48.000Z</time>
                <name>Trackpoint 1915</name>
            </trkpt>
            <trkpt lat="50.0824096" lon="10.9468024">
                <ele>251.0</ele>
                <time>2020-08-22T10:23:51.000Z</time>
                <name>Trackpoint 1916</name>
            </trkpt>
            <trkpt lat="50.0823264" lon="10.9468616">
                <ele>251.0</ele>
                <time>2020-08-22T10:23:53.000Z</time>
                <name>Trackpoint 1917</name>
            </trkpt>
            <trkpt lat="50.08224" lon="10.94692">
                <ele>252.0</ele>
                <time>2020-08-22T10:23:55.000Z</time>
                <name>Trackpoint 1918</name>
            </trkpt>
            <trkpt lat="50.0821504" lon="10.9469608">
                <ele>253.0</ele>
                <time>2020-08-22T10:23:57.000Z</time>
                <name>Trackpoint 1919</name>
            </trkpt>
            <trkpt lat="50.0820608" lon="10.9470128">
                <ele>253.0</ele>
                <time>2020-08-22T10:23:59.000Z</time>
                <name>Trackpoint 1920</name>
            </trkpt>
            <trkpt lat="50.0819808" lon="10.947068">
                <ele>253.0</ele>
                <time>2020-08-22T10:24:01.000Z</time>
                <name>Trackpoint 1921</name>
            </trkpt>
            <trkpt lat="50.0818944" lon="10.947132">
                <ele>253.0</ele>
                <time>2020-08-22T10:24:03.000Z</time>
                <name>Trackpoint 1922</name>
            </trkpt>
            <trkpt lat="50.0818208" lon="10.9471952">
                <ele>254.0</ele>
                <time>2020-08-22T10:24:05.000Z</time>
                <name>Trackpoint 1923</name>
            </trkpt>
            <trkpt lat="50.0817504" lon="10.947264">
                <ele>254.0</ele>
                <time>2020-08-22T10:24:07.000Z</time>
                <name>Trackpoint 1924</name>
            </trkpt>
            <trkpt lat="50.0816768" lon="10.94732">
                <ele>254.0</ele>
                <time>2020-08-22T10:24:09.000Z</time>
                <name>Trackpoint 1925</name>
            </trkpt>
            <trkpt lat="50.0815808" lon="10.9473248">
                <ele>254.0</ele>
                <time>2020-08-22T10:24:13.000Z</time>
                <name>Trackpoint 1926</name>
            </trkpt>
            <trkpt lat="50.0815584" lon="10.9472248">
                <ele>255.0</ele>
                <time>2020-08-22T10:24:33.000Z</time>
                <name>Trackpoint 1927</name>
            </trkpt>
            <trkpt lat="50.0815264" lon="10.9471304">
                <ele>255.0</ele>
                <time>2020-08-22T10:24:35.000Z</time>
                <name>Trackpoint 1928</name>
            </trkpt>
            <trkpt lat="50.0814752" lon="10.9470432">
                <ele>255.0</ele>
                <time>2020-08-22T10:24:37.000Z</time>
                <name>Trackpoint 1929</name>
            </trkpt>
            <trkpt lat="50.0814272" lon="10.9469536">
                <ele>255.0</ele>
                <time>2020-08-22T10:24:39.000Z</time>
                <name>Trackpoint 1930</name>
            </trkpt>
            <trkpt lat="50.081376" lon="10.9468632">
                <ele>255.0</ele>
                <time>2020-08-22T10:24:41.000Z</time>
                <name>Trackpoint 1931</name>
            </trkpt>
            <trkpt lat="50.0813056" lon="10.9467448">
                <ele>255.0</ele>
                <time>2020-08-22T10:24:44.000Z</time>
                <name>Trackpoint 1932</name>
            </trkpt>
            <trkpt lat="50.0812192" lon="10.9466448">
                <ele>254.0</ele>
                <time>2020-08-22T10:24:47.000Z</time>
                <name>Trackpoint 1933</name>
            </trkpt>
            <trkpt lat="50.081136" lon="10.9465712">
                <ele>254.0</ele>
                <time>2020-08-22T10:24:50.000Z</time>
                <name>Trackpoint 1934</name>
            </trkpt>
            <trkpt lat="50.0810592" lon="10.9465064">
                <ele>254.0</ele>
                <time>2020-08-22T10:24:53.000Z</time>
                <name>Trackpoint 1935</name>
            </trkpt>
            <trkpt lat="50.080976" lon="10.9464168">
                <ele>254.0</ele>
                <time>2020-08-22T10:24:57.000Z</time>
                <name>Trackpoint 1936</name>
            </trkpt>
            <trkpt lat="50.08088" lon="10.9463584">
                <ele>254.0</ele>
                <time>2020-08-22T10:25:00.000Z</time>
                <name>Trackpoint 1937</name>
            </trkpt>
            <trkpt lat="50.0807616" lon="10.9463104">
                <ele>254.0</ele>
                <time>2020-08-22T10:25:03.000Z</time>
                <name>Trackpoint 1938</name>
            </trkpt>
            <trkpt lat="50.0806304" lon="10.9462632">
                <ele>254.0</ele>
                <time>2020-08-22T10:25:06.000Z</time>
                <name>Trackpoint 1939</name>
            </trkpt>
            <trkpt lat="50.080544" lon="10.9462368">
                <ele>254.0</ele>
                <time>2020-08-22T10:25:08.000Z</time>
                <name>Trackpoint 1940</name>
            </trkpt>
            <trkpt lat="50.080448" lon="10.9462072">
                <ele>254.0</ele>
                <time>2020-08-22T10:25:10.000Z</time>
                <name>Trackpoint 1941</name>
            </trkpt>
            <trkpt lat="50.080336" lon="10.9461848">
                <ele>254.0</ele>
                <time>2020-08-22T10:25:12.000Z</time>
                <name>Trackpoint 1942</name>
            </trkpt>
            <trkpt lat="50.0802304" lon="10.946188">
                <ele>254.0</ele>
                <time>2020-08-22T10:25:14.000Z</time>
                <name>Trackpoint 1943</name>
            </trkpt>
            <trkpt lat="50.080128" lon="10.946212">
                <ele>254.0</ele>
                <time>2020-08-22T10:25:16.000Z</time>
                <name>Trackpoint 1944</name>
            </trkpt>
            <trkpt lat="50.0800256" lon="10.946252">
                <ele>254.0</ele>
                <time>2020-08-22T10:25:18.000Z</time>
                <name>Trackpoint 1945</name>
            </trkpt>
            <trkpt lat="50.0799264" lon="10.946308">
                <ele>254.0</ele>
                <time>2020-08-22T10:25:20.000Z</time>
                <name>Trackpoint 1946</name>
            </trkpt>
            <trkpt lat="50.0798272" lon="10.9463816">
                <ele>254.0</ele>
                <time>2020-08-22T10:25:22.000Z</time>
                <name>Trackpoint 1947</name>
            </trkpt>
            <trkpt lat="50.0797312" lon="10.9464712">
                <ele>253.0</ele>
                <time>2020-08-22T10:25:24.000Z</time>
                <name>Trackpoint 1948</name>
            </trkpt>
            <trkpt lat="50.0796384" lon="10.9465648">
                <ele>253.0</ele>
                <time>2020-08-22T10:25:26.000Z</time>
                <name>Trackpoint 1949</name>
            </trkpt>
            <trkpt lat="50.0795488" lon="10.9466616">
                <ele>253.0</ele>
                <time>2020-08-22T10:25:28.000Z</time>
                <name>Trackpoint 1950</name>
            </trkpt>
            <trkpt lat="50.079456" lon="10.94676">
                <ele>253.0</ele>
                <time>2020-08-22T10:25:30.000Z</time>
                <name>Trackpoint 1951</name>
            </trkpt>
            <trkpt lat="50.0793632" lon="10.946848">
                <ele>253.0</ele>
                <time>2020-08-22T10:25:32.000Z</time>
                <name>Trackpoint 1952</name>
            </trkpt>
            <trkpt lat="50.0792736" lon="10.9469408">
                <ele>253.0</ele>
                <time>2020-08-22T10:25:34.000Z</time>
                <name>Trackpoint 1953</name>
            </trkpt>
            <trkpt lat="50.079184" lon="10.94704">
                <ele>253.0</ele>
                <time>2020-08-22T10:25:36.000Z</time>
                <name>Trackpoint 1954</name>
            </trkpt>
            <trkpt lat="50.0790944" lon="10.9471352">
                <ele>253.0</ele>
                <time>2020-08-22T10:25:38.000Z</time>
                <name>Trackpoint 1955</name>
            </trkpt>
            <trkpt lat="50.0789984" lon="10.94722">
                <ele>253.0</ele>
                <time>2020-08-22T10:25:40.000Z</time>
                <name>Trackpoint 1956</name>
            </trkpt>
            <trkpt lat="50.0789056" lon="10.9473088">
                <ele>252.0</ele>
                <time>2020-08-22T10:25:42.000Z</time>
                <name>Trackpoint 1957</name>
            </trkpt>
            <trkpt lat="50.0788192" lon="10.9474">
                <ele>252.0</ele>
                <time>2020-08-22T10:25:44.000Z</time>
                <name>Trackpoint 1958</name>
            </trkpt>
            <trkpt lat="50.0787264" lon="10.947492">
                <ele>252.0</ele>
                <time>2020-08-22T10:25:46.000Z</time>
                <name>Trackpoint 1959</name>
            </trkpt>
            <trkpt lat="50.0786368" lon="10.9475848">
                <ele>252.0</ele>
                <time>2020-08-22T10:25:48.000Z</time>
                <name>Trackpoint 1960</name>
            </trkpt>
            <trkpt lat="50.078544" lon="10.9476696">
                <ele>252.0</ele>
                <time>2020-08-22T10:25:50.000Z</time>
                <name>Trackpoint 1961</name>
            </trkpt>
            <trkpt lat="50.0784576" lon="10.947768">
                <ele>252.0</ele>
                <time>2020-08-22T10:25:52.000Z</time>
                <name>Trackpoint 1962</name>
            </trkpt>
            <trkpt lat="50.0783648" lon="10.94786">
                <ele>252.0</ele>
                <time>2020-08-22T10:25:54.000Z</time>
                <name>Trackpoint 1963</name>
            </trkpt>
            <trkpt lat="50.0782688" lon="10.947944">
                <ele>252.0</ele>
                <time>2020-08-22T10:25:56.000Z</time>
                <name>Trackpoint 1964</name>
            </trkpt>
            <trkpt lat="50.0781792" lon="10.948036">
                <ele>252.0</ele>
                <time>2020-08-22T10:25:58.000Z</time>
                <name>Trackpoint 1965</name>
            </trkpt>
            <trkpt lat="50.0780864" lon="10.9481296">
                <ele>252.0</ele>
                <time>2020-08-22T10:26:00.000Z</time>
                <name>Trackpoint 1966</name>
            </trkpt>
            <trkpt lat="50.0779968" lon="10.9482248">
                <ele>252.0</ele>
                <time>2020-08-22T10:26:02.000Z</time>
                <name>Trackpoint 1967</name>
            </trkpt>
            <trkpt lat="50.0779104" lon="10.9483168">
                <ele>252.0</ele>
                <time>2020-08-22T10:26:04.000Z</time>
                <name>Trackpoint 1968</name>
            </trkpt>
            <trkpt lat="50.0778208" lon="10.9484056">
                <ele>252.0</ele>
                <time>2020-08-22T10:26:06.000Z</time>
                <name>Trackpoint 1969</name>
            </trkpt>
            <trkpt lat="50.077728" lon="10.948492">
                <ele>252.0</ele>
                <time>2020-08-22T10:26:08.000Z</time>
                <name>Trackpoint 1970</name>
            </trkpt>
            <trkpt lat="50.0776416" lon="10.948584">
                <ele>252.0</ele>
                <time>2020-08-22T10:26:10.000Z</time>
                <name>Trackpoint 1971</name>
            </trkpt>
            <trkpt lat="50.0775456" lon="10.9486768">
                <ele>251.0</ele>
                <time>2020-08-22T10:26:12.000Z</time>
                <name>Trackpoint 1972</name>
            </trkpt>
            <trkpt lat="50.0774528" lon="10.9487712">
                <ele>251.0</ele>
                <time>2020-08-22T10:26:14.000Z</time>
                <name>Trackpoint 1973</name>
            </trkpt>
            <trkpt lat="50.0773632" lon="10.9488584">
                <ele>251.0</ele>
                <time>2020-08-22T10:26:16.000Z</time>
                <name>Trackpoint 1974</name>
            </trkpt>
            <trkpt lat="50.0772672" lon="10.94894">
                <ele>251.0</ele>
                <time>2020-08-22T10:26:18.000Z</time>
                <name>Trackpoint 1975</name>
            </trkpt>
            <trkpt lat="50.0771744" lon="10.9490272">
                <ele>251.0</ele>
                <time>2020-08-22T10:26:20.000Z</time>
                <name>Trackpoint 1976</name>
            </trkpt>
            <trkpt lat="50.0770848" lon="10.9491104">
                <ele>251.0</ele>
                <time>2020-08-22T10:26:22.000Z</time>
                <name>Trackpoint 1977</name>
            </trkpt>
            <trkpt lat="50.0769888" lon="10.949188">
                <ele>251.0</ele>
                <time>2020-08-22T10:26:24.000Z</time>
                <name>Trackpoint 1978</name>
            </trkpt>
            <trkpt lat="50.0768896" lon="10.9492616">
                <ele>251.0</ele>
                <time>2020-08-22T10:26:26.000Z</time>
                <name>Trackpoint 1979</name>
            </trkpt>
            <trkpt lat="50.0767904" lon="10.94934">
                <ele>251.0</ele>
                <time>2020-08-22T10:26:28.000Z</time>
                <name>Trackpoint 1980</name>
            </trkpt>
            <trkpt lat="50.0766976" lon="10.9494288">
                <ele>252.0</ele>
                <time>2020-08-22T10:26:30.000Z</time>
                <name>Trackpoint 1981</name>
            </trkpt>
            <trkpt lat="50.0766112" lon="10.9495184">
                <ele>252.0</ele>
                <time>2020-08-22T10:26:32.000Z</time>
                <name>Trackpoint 1982</name>
            </trkpt>
            <trkpt lat="50.0765152" lon="10.9495952">
                <ele>251.0</ele>
                <time>2020-08-22T10:26:34.000Z</time>
                <name>Trackpoint 1983</name>
            </trkpt>
            <trkpt lat="50.0764192" lon="10.9496696">
                <ele>251.0</ele>
                <time>2020-08-22T10:26:36.000Z</time>
                <name>Trackpoint 1984</name>
            </trkpt>
            <trkpt lat="50.0763296" lon="10.9497568">
                <ele>251.0</ele>
                <time>2020-08-22T10:26:38.000Z</time>
                <name>Trackpoint 1985</name>
            </trkpt>
            <trkpt lat="50.0762368" lon="10.949848">
                <ele>251.0</ele>
                <time>2020-08-22T10:26:40.000Z</time>
                <name>Trackpoint 1986</name>
            </trkpt>
            <trkpt lat="50.0761504" lon="10.9499368">
                <ele>251.0</ele>
                <time>2020-08-22T10:26:42.000Z</time>
                <name>Trackpoint 1987</name>
            </trkpt>
            <trkpt lat="50.0760576" lon="10.9500248">
                <ele>251.0</ele>
                <time>2020-08-22T10:26:44.000Z</time>
                <name>Trackpoint 1988</name>
            </trkpt>
            <trkpt lat="50.0759712" lon="10.9501152">
                <ele>251.0</ele>
                <time>2020-08-22T10:26:46.000Z</time>
                <name>Trackpoint 1989</name>
            </trkpt>
            <trkpt lat="50.0758816" lon="10.9502088">
                <ele>251.0</ele>
                <time>2020-08-22T10:26:48.000Z</time>
                <name>Trackpoint 1990</name>
            </trkpt>
            <trkpt lat="50.0757952" lon="10.9503032">
                <ele>251.0</ele>
                <time>2020-08-22T10:26:50.000Z</time>
                <name>Trackpoint 1991</name>
            </trkpt>
            <trkpt lat="50.0757056" lon="10.9503984">
                <ele>251.0</ele>
                <time>2020-08-22T10:26:52.000Z</time>
                <name>Trackpoint 1992</name>
            </trkpt>
            <trkpt lat="50.0756224" lon="10.950492">
                <ele>251.0</ele>
                <time>2020-08-22T10:26:54.000Z</time>
                <name>Trackpoint 1993</name>
            </trkpt>
            <trkpt lat="50.0755392" lon="10.9505856">
                <ele>251.0</ele>
                <time>2020-08-22T10:26:56.000Z</time>
                <name>Trackpoint 1994</name>
            </trkpt>
            <trkpt lat="50.0754624" lon="10.9506816">
                <ele>251.0</ele>
                <time>2020-08-22T10:26:58.000Z</time>
                <name>Trackpoint 1995</name>
            </trkpt>
            <trkpt lat="50.0753952" lon="10.9507752">
                <ele>251.0</ele>
                <time>2020-08-22T10:27:00.000Z</time>
                <name>Trackpoint 1996</name>
            </trkpt>
            <trkpt lat="50.0753312" lon="10.95086">
                <ele>251.0</ele>
                <time>2020-08-22T10:27:02.000Z</time>
                <name>Trackpoint 1997</name>
            </trkpt>
            <trkpt lat="50.0752672" lon="10.9509624">
                <ele>251.0</ele>
                <time>2020-08-22T10:27:05.000Z</time>
                <name>Trackpoint 1998</name>
            </trkpt>
            <trkpt lat="50.0752096" lon="10.9510432">
                <ele>251.0</ele>
                <time>2020-08-22T10:27:09.000Z</time>
                <name>Trackpoint 1999</name>
            </trkpt>
            <trkpt lat="50.075168" lon="10.9511272">
                <ele>250.0</ele>
                <time>2020-08-22T10:27:32.000Z</time>
                <name>Trackpoint 2000</name>
            </trkpt>
            <trkpt lat="50.0751008" lon="10.9512232">
                <ele>250.0</ele>
                <time>2020-08-22T10:27:35.000Z</time>
                <name>Trackpoint 2001</name>
            </trkpt>
            <trkpt lat="50.0750496" lon="10.951312">
                <ele>250.0</ele>
                <time>2020-08-22T10:27:37.000Z</time>
                <name>Trackpoint 2002</name>
            </trkpt>
            <trkpt lat="50.074992" lon="10.9514048">
                <ele>250.0</ele>
                <time>2020-08-22T10:27:39.000Z</time>
                <name>Trackpoint 2003</name>
            </trkpt>
            <trkpt lat="50.0749312" lon="10.9514984">
                <ele>250.0</ele>
                <time>2020-08-22T10:27:41.000Z</time>
                <name>Trackpoint 2004</name>
            </trkpt>
            <trkpt lat="50.0748736" lon="10.951596">
                <ele>250.0</ele>
                <time>2020-08-22T10:27:43.000Z</time>
                <name>Trackpoint 2005</name>
            </trkpt>
            <trkpt lat="50.0748096" lon="10.9516984">
                <ele>250.0</ele>
                <time>2020-08-22T10:27:45.000Z</time>
                <name>Trackpoint 2006</name>
            </trkpt>
            <trkpt lat="50.0747456" lon="10.9518032">
                <ele>250.0</ele>
                <time>2020-08-22T10:27:47.000Z</time>
                <name>Trackpoint 2007</name>
            </trkpt>
            <trkpt lat="50.0746816" lon="10.9519128">
                <ele>250.0</ele>
                <time>2020-08-22T10:27:49.000Z</time>
                <name>Trackpoint 2008</name>
            </trkpt>
            <trkpt lat="50.0746144" lon="10.9520216">
                <ele>250.0</ele>
                <time>2020-08-22T10:27:51.000Z</time>
                <name>Trackpoint 2009</name>
            </trkpt>
            <trkpt lat="50.0745504" lon="10.9521264">
                <ele>250.0</ele>
                <time>2020-08-22T10:27:53.000Z</time>
                <name>Trackpoint 2010</name>
            </trkpt>
            <trkpt lat="50.0744896" lon="10.9522352">
                <ele>251.0</ele>
                <time>2020-08-22T10:27:55.000Z</time>
                <name>Trackpoint 2011</name>
            </trkpt>
            <trkpt lat="50.0744288" lon="10.9523432">
                <ele>251.0</ele>
                <time>2020-08-22T10:27:57.000Z</time>
                <name>Trackpoint 2012</name>
            </trkpt>
            <trkpt lat="50.074368" lon="10.9524536">
                <ele>251.0</ele>
                <time>2020-08-22T10:27:59.000Z</time>
                <name>Trackpoint 2013</name>
            </trkpt>
            <trkpt lat="50.0743104" lon="10.952572">
                <ele>250.0</ele>
                <time>2020-08-22T10:28:01.000Z</time>
                <name>Trackpoint 2014</name>
            </trkpt>
            <trkpt lat="50.0742528" lon="10.9526952">
                <ele>250.0</ele>
                <time>2020-08-22T10:28:03.000Z</time>
                <name>Trackpoint 2015</name>
            </trkpt>
            <trkpt lat="50.0741984" lon="10.952824">
                <ele>250.0</ele>
                <time>2020-08-22T10:28:05.000Z</time>
                <name>Trackpoint 2016</name>
            </trkpt>
            <trkpt lat="50.0741344" lon="10.9529464">
                <ele>251.0</ele>
                <time>2020-08-22T10:28:07.000Z</time>
                <name>Trackpoint 2017</name>
            </trkpt>
            <trkpt lat="50.0740864" lon="10.953076">
                <ele>251.0</ele>
                <time>2020-08-22T10:28:09.000Z</time>
                <name>Trackpoint 2018</name>
            </trkpt>
            <trkpt lat="50.074032" lon="10.9531984">
                <ele>251.0</ele>
                <time>2020-08-22T10:28:11.000Z</time>
                <name>Trackpoint 2019</name>
            </trkpt>
            <trkpt lat="50.0739904" lon="10.9533216">
                <ele>251.0</ele>
                <time>2020-08-22T10:28:13.000Z</time>
                <name>Trackpoint 2020</name>
            </trkpt>
            <trkpt lat="50.0739392" lon="10.9534416">
                <ele>251.0</ele>
                <time>2020-08-22T10:28:15.000Z</time>
                <name>Trackpoint 2021</name>
            </trkpt>
            <trkpt lat="50.0738944" lon="10.953564">
                <ele>251.0</ele>
                <time>2020-08-22T10:28:17.000Z</time>
                <name>Trackpoint 2022</name>
            </trkpt>
            <trkpt lat="50.07384" lon="10.9536864">
                <ele>250.0</ele>
                <time>2020-08-22T10:28:19.000Z</time>
                <name>Trackpoint 2023</name>
            </trkpt>
            <trkpt lat="50.0737824" lon="10.9538152">
                <ele>251.0</ele>
                <time>2020-08-22T10:28:21.000Z</time>
                <name>Trackpoint 2024</name>
            </trkpt>
            <trkpt lat="50.0737312" lon="10.953948">
                <ele>250.0</ele>
                <time>2020-08-22T10:28:23.000Z</time>
                <name>Trackpoint 2025</name>
            </trkpt>
            <trkpt lat="50.0736736" lon="10.9540864">
                <ele>250.0</ele>
                <time>2020-08-22T10:28:25.000Z</time>
                <name>Trackpoint 2026</name>
            </trkpt>
            <trkpt lat="50.0736096" lon="10.9542112">
                <ele>250.0</ele>
                <time>2020-08-22T10:28:27.000Z</time>
                <name>Trackpoint 2027</name>
            </trkpt>
            <trkpt lat="50.0735232" lon="10.9543184">
                <ele>250.0</ele>
                <time>2020-08-22T10:28:29.000Z</time>
                <name>Trackpoint 2028</name>
            </trkpt>
            <trkpt lat="50.0734336" lon="10.9544048">
                <ele>250.0</ele>
                <time>2020-08-22T10:28:31.000Z</time>
                <name>Trackpoint 2029</name>
            </trkpt>
            <trkpt lat="50.0733408" lon="10.9544872">
                <ele>250.0</ele>
                <time>2020-08-22T10:28:33.000Z</time>
                <name>Trackpoint 2030</name>
            </trkpt>
            <trkpt lat="50.0732448" lon="10.9545632">
                <ele>250.0</ele>
                <time>2020-08-22T10:28:35.000Z</time>
                <name>Trackpoint 2031</name>
            </trkpt>
            <trkpt lat="50.0731552" lon="10.9546368">
                <ele>250.0</ele>
                <time>2020-08-22T10:28:37.000Z</time>
                <name>Trackpoint 2032</name>
            </trkpt>
            <trkpt lat="50.0730624" lon="10.9547056">
                <ele>250.0</ele>
                <time>2020-08-22T10:28:39.000Z</time>
                <name>Trackpoint 2033</name>
            </trkpt>
            <trkpt lat="50.0729728" lon="10.9547552">
                <ele>250.0</ele>
                <time>2020-08-22T10:28:41.000Z</time>
                <name>Trackpoint 2034</name>
            </trkpt>
            <trkpt lat="50.0728832" lon="10.954788">
                <ele>250.0</ele>
                <time>2020-08-22T10:28:43.000Z</time>
                <name>Trackpoint 2035</name>
            </trkpt>
            <trkpt lat="50.0727552" lon="10.9548128">
                <ele>250.0</ele>
                <time>2020-08-22T10:28:46.000Z</time>
                <name>Trackpoint 2036</name>
            </trkpt>
            <trkpt lat="50.0726304" lon="10.95482">
                <ele>249.0</ele>
                <time>2020-08-22T10:28:49.000Z</time>
                <name>Trackpoint 2037</name>
            </trkpt>
            <trkpt lat="50.072512" lon="10.954812">
                <ele>249.0</ele>
                <time>2020-08-22T10:28:52.000Z</time>
                <name>Trackpoint 2038</name>
            </trkpt>
            <trkpt lat="50.0724064" lon="10.9548064">
                <ele>249.0</ele>
                <time>2020-08-22T10:28:55.000Z</time>
                <name>Trackpoint 2039</name>
            </trkpt>
            <trkpt lat="50.072304" lon="10.9548056">
                <ele>249.0</ele>
                <time>2020-08-22T10:29:26.000Z</time>
                <name>Trackpoint 2040</name>
            </trkpt>
            <trkpt lat="50.0721888" lon="10.9548216">
                <ele>249.0</ele>
                <time>2020-08-22T10:29:30.000Z</time>
                <name>Trackpoint 2041</name>
            </trkpt>
            <trkpt lat="50.0720992" lon="10.9548568">
                <ele>249.0</ele>
                <time>2020-08-22T10:29:33.000Z</time>
                <name>Trackpoint 2042</name>
            </trkpt>
            <trkpt lat="50.072" lon="10.95488">
                <ele>250.0</ele>
                <time>2020-08-22T10:29:37.000Z</time>
                <name>Trackpoint 2043</name>
            </trkpt>
            <trkpt lat="50.0719104" lon="10.9549176">
                <ele>251.0</ele>
                <time>2020-08-22T10:29:41.000Z</time>
                <name>Trackpoint 2044</name>
            </trkpt>
            <trkpt lat="50.0718656" lon="10.9549984">
                <ele>252.0</ele>
                <time>2020-08-22T10:29:45.000Z</time>
                <name>Trackpoint 2045</name>
            </trkpt>
            <trkpt lat="50.0718688" lon="10.9550936">
                <ele>251.0</ele>
                <time>2020-08-22T10:29:49.000Z</time>
                <name>Trackpoint 2046</name>
            </trkpt>
            <trkpt lat="50.0719264" lon="10.955004">
                <ele>251.0</ele>
                <time>2020-08-22T10:29:56.000Z</time>
                <name>Trackpoint 2047</name>
            </trkpt>
            <trkpt lat="50.0718432" lon="10.95492">
                <ele>250.0</ele>
                <time>2020-08-22T10:30:00.000Z</time>
                <name>Trackpoint 2048</name>
            </trkpt>
            <trkpt lat="50.0717312" lon="10.9549016">
                <ele>250.0</ele>
                <time>2020-08-22T10:30:03.000Z</time>
                <name>Trackpoint 2049</name>
            </trkpt>
            <trkpt lat="50.0716128" lon="10.9548584">
                <ele>250.0</ele>
                <time>2020-08-22T10:30:06.000Z</time>
                <name>Trackpoint 2050</name>
            </trkpt>
            <trkpt lat="50.0714912" lon="10.954812">
                <ele>251.0</ele>
                <time>2020-08-22T10:30:09.000Z</time>
                <name>Trackpoint 2051</name>
            </trkpt>
            <trkpt lat="50.071376" lon="10.9547664">
                <ele>251.0</ele>
                <time>2020-08-22T10:30:12.000Z</time>
                <name>Trackpoint 2052</name>
            </trkpt>
            <trkpt lat="50.0712992" lon="10.9547192">
                <ele>251.0</ele>
                <time>2020-08-22T10:30:14.000Z</time>
                <name>Trackpoint 2053</name>
            </trkpt>
            <trkpt lat="50.071216" lon="10.9546616">
                <ele>252.0</ele>
                <time>2020-08-22T10:30:16.000Z</time>
                <name>Trackpoint 2054</name>
            </trkpt>
            <trkpt lat="50.0711328" lon="10.9546072">
                <ele>253.0</ele>
                <time>2020-08-22T10:30:18.000Z</time>
                <name>Trackpoint 2055</name>
            </trkpt>
            <trkpt lat="50.0710496" lon="10.9545616">
                <ele>254.0</ele>
                <time>2020-08-22T10:30:20.000Z</time>
                <name>Trackpoint 2056</name>
            </trkpt>
            <trkpt lat="50.0709696" lon="10.95452">
                <ele>253.0</ele>
                <time>2020-08-22T10:30:22.000Z</time>
                <name>Trackpoint 2057</name>
            </trkpt>
            <trkpt lat="50.0708768" lon="10.9544696">
                <ele>253.0</ele>
                <time>2020-08-22T10:30:24.000Z</time>
                <name>Trackpoint 2058</name>
            </trkpt>
            <trkpt lat="50.0707904" lon="10.9544288">
                <ele>253.0</ele>
                <time>2020-08-22T10:30:26.000Z</time>
                <name>Trackpoint 2059</name>
            </trkpt>
            <trkpt lat="50.0707008" lon="10.95438">
                <ele>253.0</ele>
                <time>2020-08-22T10:30:28.000Z</time>
                <name>Trackpoint 2060</name>
            </trkpt>
            <trkpt lat="50.0706112" lon="10.9543384">
                <ele>254.0</ele>
                <time>2020-08-22T10:30:30.000Z</time>
                <name>Trackpoint 2061</name>
            </trkpt>
            <trkpt lat="50.0705216" lon="10.9543">
                <ele>254.0</ele>
                <time>2020-08-22T10:30:32.000Z</time>
                <name>Trackpoint 2062</name>
            </trkpt>
            <trkpt lat="50.0704352" lon="10.9542712">
                <ele>254.0</ele>
                <time>2020-08-22T10:30:34.000Z</time>
                <name>Trackpoint 2063</name>
            </trkpt>
            <trkpt lat="50.0703424" lon="10.9542568">
                <ele>255.0</ele>
                <time>2020-08-22T10:30:36.000Z</time>
                <name>Trackpoint 2064</name>
            </trkpt>
            <trkpt lat="50.0702592" lon="10.9542912">
                <ele>255.0</ele>
                <time>2020-08-22T10:30:38.000Z</time>
                <name>Trackpoint 2065</name>
            </trkpt>
            <trkpt lat="50.0701952" lon="10.9543736">
                <ele>255.0</ele>
                <time>2020-08-22T10:30:40.000Z</time>
                <name>Trackpoint 2066</name>
            </trkpt>
            <trkpt lat="50.0701376" lon="10.9544736">
                <ele>254.0</ele>
                <time>2020-08-22T10:30:42.000Z</time>
                <name>Trackpoint 2067</name>
            </trkpt>
            <trkpt lat="50.0700864" lon="10.95458">
                <ele>254.0</ele>
                <time>2020-08-22T10:30:44.000Z</time>
                <name>Trackpoint 2068</name>
            </trkpt>
            <trkpt lat="50.0700256" lon="10.9546608">
                <ele>255.0</ele>
                <time>2020-08-22T10:30:46.000Z</time>
                <name>Trackpoint 2069</name>
            </trkpt>
            <trkpt lat="50.0698976" lon="10.9546808">
                <ele>254.0</ele>
                <time>2020-08-22T10:30:49.000Z</time>
                <name>Trackpoint 2070</name>
            </trkpt>
            <trkpt lat="50.0698048" lon="10.9546368">
                <ele>254.0</ele>
                <time>2020-08-22T10:30:51.000Z</time>
                <name>Trackpoint 2071</name>
            </trkpt>
            <trkpt lat="50.0697088" lon="10.9545968">
                <ele>254.0</ele>
                <time>2020-08-22T10:30:53.000Z</time>
                <name>Trackpoint 2072</name>
            </trkpt>
            <trkpt lat="50.0696192" lon="10.9545648">
                <ele>254.0</ele>
                <time>2020-08-22T10:30:55.000Z</time>
                <name>Trackpoint 2073</name>
            </trkpt>
            <trkpt lat="50.0695232" lon="10.9545344">
                <ele>255.0</ele>
                <time>2020-08-22T10:30:57.000Z</time>
                <name>Trackpoint 2074</name>
            </trkpt>
            <trkpt lat="50.0694272" lon="10.9545024">
                <ele>255.0</ele>
                <time>2020-08-22T10:30:59.000Z</time>
                <name>Trackpoint 2075</name>
            </trkpt>
            <trkpt lat="50.0693312" lon="10.9544648">
                <ele>255.0</ele>
                <time>2020-08-22T10:31:01.000Z</time>
                <name>Trackpoint 2076</name>
            </trkpt>
            <trkpt lat="50.069232" lon="10.9544264">
                <ele>255.0</ele>
                <time>2020-08-22T10:31:03.000Z</time>
                <name>Trackpoint 2077</name>
            </trkpt>
            <trkpt lat="50.0691328" lon="10.9543896">
                <ele>256.0</ele>
                <time>2020-08-22T10:31:05.000Z</time>
                <name>Trackpoint 2078</name>
            </trkpt>
            <trkpt lat="50.0690368" lon="10.95436">
                <ele>256.0</ele>
                <time>2020-08-22T10:31:07.000Z</time>
                <name>Trackpoint 2079</name>
            </trkpt>
            <trkpt lat="50.0689472" lon="10.9543248">
                <ele>256.0</ele>
                <time>2020-08-22T10:31:09.000Z</time>
                <name>Trackpoint 2080</name>
            </trkpt>
            <trkpt lat="50.0688512" lon="10.9543">
                <ele>255.0</ele>
                <time>2020-08-22T10:31:11.000Z</time>
                <name>Trackpoint 2081</name>
            </trkpt>
            <trkpt lat="50.0687584" lon="10.9542712">
                <ele>255.0</ele>
                <time>2020-08-22T10:31:13.000Z</time>
                <name>Trackpoint 2082</name>
            </trkpt>
            <trkpt lat="50.0686656" lon="10.9542368">
                <ele>255.0</ele>
                <time>2020-08-22T10:31:15.000Z</time>
                <name>Trackpoint 2083</name>
            </trkpt>
            <trkpt lat="50.068576" lon="10.9542016">
                <ele>255.0</ele>
                <time>2020-08-22T10:31:17.000Z</time>
                <name>Trackpoint 2084</name>
            </trkpt>
            <trkpt lat="50.0684896" lon="10.9541656">
                <ele>255.0</ele>
                <time>2020-08-22T10:31:19.000Z</time>
                <name>Trackpoint 2085</name>
            </trkpt>
            <trkpt lat="50.0684" lon="10.9541168">
                <ele>256.0</ele>
                <time>2020-08-22T10:31:21.000Z</time>
                <name>Trackpoint 2086</name>
            </trkpt>
            <trkpt lat="50.0683168" lon="10.9540768">
                <ele>256.0</ele>
                <time>2020-08-22T10:31:23.000Z</time>
                <name>Trackpoint 2087</name>
            </trkpt>
            <trkpt lat="50.0682304" lon="10.9540392">
                <ele>257.0</ele>
                <time>2020-08-22T10:31:25.000Z</time>
                <name>Trackpoint 2088</name>
            </trkpt>
            <trkpt lat="50.0681376" lon="10.953992">
                <ele>257.0</ele>
                <time>2020-08-22T10:31:27.000Z</time>
                <name>Trackpoint 2089</name>
            </trkpt>
            <trkpt lat="50.0680512" lon="10.9539384">
                <ele>258.0</ele>
                <time>2020-08-22T10:31:29.000Z</time>
                <name>Trackpoint 2090</name>
            </trkpt>
            <trkpt lat="50.067968" lon="10.9538768">
                <ele>258.0</ele>
                <time>2020-08-22T10:31:31.000Z</time>
                <name>Trackpoint 2091</name>
            </trkpt>
            <trkpt lat="50.0678848" lon="10.9538032">
                <ele>258.0</ele>
                <time>2020-08-22T10:31:33.000Z</time>
                <name>Trackpoint 2092</name>
            </trkpt>
            <trkpt lat="50.0678144" lon="10.9537232">
                <ele>258.0</ele>
                <time>2020-08-22T10:31:35.000Z</time>
                <name>Trackpoint 2093</name>
            </trkpt>
            <trkpt lat="50.0677376" lon="10.9536352">
                <ele>258.0</ele>
                <time>2020-08-22T10:31:37.000Z</time>
                <name>Trackpoint 2094</name>
            </trkpt>
            <trkpt lat="50.067664" lon="10.9535328">
                <ele>257.0</ele>
                <time>2020-08-22T10:31:39.000Z</time>
                <name>Trackpoint 2095</name>
            </trkpt>
            <trkpt lat="50.0676" lon="10.9534152">
                <ele>257.0</ele>
                <time>2020-08-22T10:31:41.000Z</time>
                <name>Trackpoint 2096</name>
            </trkpt>
            <trkpt lat="50.0675392" lon="10.953288">
                <ele>256.0</ele>
                <time>2020-08-22T10:31:43.000Z</time>
                <name>Trackpoint 2097</name>
            </trkpt>
            <trkpt lat="50.0674752" lon="10.9531544">
                <ele>256.0</ele>
                <time>2020-08-22T10:31:45.000Z</time>
                <name>Trackpoint 2098</name>
            </trkpt>
            <trkpt lat="50.0674048" lon="10.9530296">
                <ele>255.0</ele>
                <time>2020-08-22T10:31:47.000Z</time>
                <name>Trackpoint 2099</name>
            </trkpt>
            <trkpt lat="50.0673344" lon="10.952924">
                <ele>256.0</ele>
                <time>2020-08-22T10:31:49.000Z</time>
                <name>Trackpoint 2100</name>
            </trkpt>
            <trkpt lat="50.0672448" lon="10.9528328">
                <ele>255.0</ele>
                <time>2020-08-22T10:31:51.000Z</time>
                <name>Trackpoint 2101</name>
            </trkpt>
            <trkpt lat="50.0671616" lon="10.9527632">
                <ele>255.0</ele>
                <time>2020-08-22T10:31:53.000Z</time>
                <name>Trackpoint 2102</name>
            </trkpt>
            <trkpt lat="50.0670976" lon="10.9526568">
                <ele>255.0</ele>
                <time>2020-08-22T10:31:55.000Z</time>
                <name>Trackpoint 2103</name>
            </trkpt>
            <trkpt lat="50.0670688" lon="10.9525272">
                <ele>254.0</ele>
                <time>2020-08-22T10:31:57.000Z</time>
                <name>Trackpoint 2104</name>
            </trkpt>
            <trkpt lat="50.0670368" lon="10.9523952">
                <ele>254.0</ele>
                <time>2020-08-22T10:31:59.000Z</time>
                <name>Trackpoint 2105</name>
            </trkpt>
            <trkpt lat="50.0669888" lon="10.9522536">
                <ele>254.0</ele>
                <time>2020-08-22T10:32:01.000Z</time>
                <name>Trackpoint 2106</name>
            </trkpt>
            <trkpt lat="50.0669376" lon="10.9521128">
                <ele>254.0</ele>
                <time>2020-08-22T10:32:03.000Z</time>
                <name>Trackpoint 2107</name>
            </trkpt>
            <trkpt lat="50.0668672" lon="10.95198">
                <ele>254.0</ele>
                <time>2020-08-22T10:32:05.000Z</time>
                <name>Trackpoint 2108</name>
            </trkpt>
            <trkpt lat="50.0667968" lon="10.9518544">
                <ele>254.0</ele>
                <time>2020-08-22T10:32:07.000Z</time>
                <name>Trackpoint 2109</name>
            </trkpt>
            <trkpt lat="50.0667264" lon="10.951728">
                <ele>254.0</ele>
                <time>2020-08-22T10:32:09.000Z</time>
                <name>Trackpoint 2110</name>
            </trkpt>
            <trkpt lat="50.0666624" lon="10.9515936">
                <ele>254.0</ele>
                <time>2020-08-22T10:32:11.000Z</time>
                <name>Trackpoint 2111</name>
            </trkpt>
            <trkpt lat="50.0666112" lon="10.9514464">
                <ele>255.0</ele>
                <time>2020-08-22T10:32:13.000Z</time>
                <name>Trackpoint 2112</name>
            </trkpt>
            <trkpt lat="50.0665632" lon="10.951328">
                <ele>255.0</ele>
                <time>2020-08-22T10:32:15.000Z</time>
                <name>Trackpoint 2113</name>
            </trkpt>
            <trkpt lat="50.0665056" lon="10.9511872">
                <ele>255.0</ele>
                <time>2020-08-22T10:32:17.000Z</time>
                <name>Trackpoint 2114</name>
            </trkpt>
            <trkpt lat="50.0664608" lon="10.9510568">
                <ele>254.0</ele>
                <time>2020-08-22T10:32:19.000Z</time>
                <name>Trackpoint 2115</name>
            </trkpt>
            <trkpt lat="50.0663936" lon="10.9509064">
                <ele>254.0</ele>
                <time>2020-08-22T10:32:21.000Z</time>
                <name>Trackpoint 2116</name>
            </trkpt>
            <trkpt lat="50.066336" lon="10.9507688">
                <ele>254.0</ele>
                <time>2020-08-22T10:32:23.000Z</time>
                <name>Trackpoint 2117</name>
            </trkpt>
            <trkpt lat="50.0662816" lon="10.9506168">
                <ele>254.0</ele>
                <time>2020-08-22T10:32:25.000Z</time>
                <name>Trackpoint 2118</name>
            </trkpt>
            <trkpt lat="50.0662272" lon="10.950472">
                <ele>253.0</ele>
                <time>2020-08-22T10:32:27.000Z</time>
                <name>Trackpoint 2119</name>
            </trkpt>
            <trkpt lat="50.0661728" lon="10.9503296">
                <ele>253.0</ele>
                <time>2020-08-22T10:32:29.000Z</time>
                <name>Trackpoint 2120</name>
            </trkpt>
            <trkpt lat="50.0661152" lon="10.9501752">
                <ele>254.0</ele>
                <time>2020-08-22T10:32:31.000Z</time>
                <name>Trackpoint 2121</name>
            </trkpt>
            <trkpt lat="50.0660736" lon="10.9500288">
                <ele>252.0</ele>
                <time>2020-08-22T10:32:33.000Z</time>
                <name>Trackpoint 2122</name>
            </trkpt>
            <trkpt lat="50.0660256" lon="10.949888">
                <ele>252.0</ele>
                <time>2020-08-22T10:32:35.000Z</time>
                <name>Trackpoint 2123</name>
            </trkpt>
            <trkpt lat="50.0659744" lon="10.949752">
                <ele>251.0</ele>
                <time>2020-08-22T10:32:37.000Z</time>
                <name>Trackpoint 2124</name>
            </trkpt>
            <trkpt lat="50.0659136" lon="10.9496168">
                <ele>251.0</ele>
                <time>2020-08-22T10:32:39.000Z</time>
                <name>Trackpoint 2125</name>
            </trkpt>
            <trkpt lat="50.0658688" lon="10.9494784">
                <ele>251.0</ele>
                <time>2020-08-22T10:32:41.000Z</time>
                <name>Trackpoint 2126</name>
            </trkpt>
            <trkpt lat="50.065824" lon="10.9493352">
                <ele>251.0</ele>
                <time>2020-08-22T10:32:43.000Z</time>
                <name>Trackpoint 2127</name>
            </trkpt>
            <trkpt lat="50.0657664" lon="10.9491816">
                <ele>251.0</ele>
                <time>2020-08-22T10:32:45.000Z</time>
                <name>Trackpoint 2128</name>
            </trkpt>
            <trkpt lat="50.065696" lon="10.9490472">
                <ele>251.0</ele>
                <time>2020-08-22T10:32:47.000Z</time>
                <name>Trackpoint 2129</name>
            </trkpt>
            <trkpt lat="50.065632" lon="10.9489184">
                <ele>251.0</ele>
                <time>2020-08-22T10:32:49.000Z</time>
                <name>Trackpoint 2130</name>
            </trkpt>
            <trkpt lat="50.0655744" lon="10.9487848">
                <ele>250.0</ele>
                <time>2020-08-22T10:32:51.000Z</time>
                <name>Trackpoint 2131</name>
            </trkpt>
            <trkpt lat="50.0655168" lon="10.9486568">
                <ele>250.0</ele>
                <time>2020-08-22T10:32:53.000Z</time>
                <name>Trackpoint 2132</name>
            </trkpt>
            <trkpt lat="50.0654592" lon="10.948532">
                <ele>249.0</ele>
                <time>2020-08-22T10:32:55.000Z</time>
                <name>Trackpoint 2133</name>
            </trkpt>
            <trkpt lat="50.0654016" lon="10.948412">
                <ele>249.0</ele>
                <time>2020-08-22T10:32:57.000Z</time>
                <name>Trackpoint 2134</name>
            </trkpt>
            <trkpt lat="50.0653472" lon="10.9483032">
                <ele>249.0</ele>
                <time>2020-08-22T10:32:59.000Z</time>
                <name>Trackpoint 2135</name>
            </trkpt>
            <trkpt lat="50.0652928" lon="10.9482136">
                <ele>248.0</ele>
                <time>2020-08-22T10:33:01.000Z</time>
                <name>Trackpoint 2136</name>
            </trkpt>
            <trkpt lat="50.0652416" lon="10.948136">
                <ele>248.0</ele>
                <time>2020-08-22T10:33:03.000Z</time>
                <name>Trackpoint 2137</name>
            </trkpt>
            <trkpt lat="50.0651808" lon="10.94806">
                <ele>248.0</ele>
                <time>2020-08-22T10:33:06.000Z</time>
                <name>Trackpoint 2138</name>
            </trkpt>
            <trkpt lat="50.0651232" lon="10.9479888">
                <ele>248.0</ele>
                <time>2020-08-22T10:33:53.000Z</time>
                <name>Trackpoint 2139</name>
            </trkpt>
            <trkpt lat="50.0650432" lon="10.9479176">
                <ele>248.0</ele>
                <time>2020-08-22T10:33:56.000Z</time>
                <name>Trackpoint 2140</name>
            </trkpt>
            <trkpt lat="50.0649408" lon="10.9478352">
                <ele>248.0</ele>
                <time>2020-08-22T10:33:59.000Z</time>
                <name>Trackpoint 2141</name>
            </trkpt>
            <trkpt lat="50.0648576" lon="10.947788">
                <ele>248.0</ele>
                <time>2020-08-22T10:34:01.000Z</time>
                <name>Trackpoint 2142</name>
            </trkpt>
            <trkpt lat="50.0647808" lon="10.9477368">
                <ele>248.0</ele>
                <time>2020-08-22T10:34:03.000Z</time>
                <name>Trackpoint 2143</name>
            </trkpt>
            <trkpt lat="50.064704" lon="10.947668">
                <ele>249.0</ele>
                <time>2020-08-22T10:34:05.000Z</time>
                <name>Trackpoint 2144</name>
            </trkpt>
            <trkpt lat="50.0646272" lon="10.947592">
                <ele>249.0</ele>
                <time>2020-08-22T10:34:07.000Z</time>
                <name>Trackpoint 2145</name>
            </trkpt>
            <trkpt lat="50.06456" lon="10.9474952">
                <ele>249.0</ele>
                <time>2020-08-22T10:34:09.000Z</time>
                <name>Trackpoint 2146</name>
            </trkpt>
            <trkpt lat="50.0645024" lon="10.9473696">
                <ele>248.0</ele>
                <time>2020-08-22T10:34:11.000Z</time>
                <name>Trackpoint 2147</name>
            </trkpt>
            <trkpt lat="50.064448" lon="10.9472248">
                <ele>248.0</ele>
                <time>2020-08-22T10:34:13.000Z</time>
                <name>Trackpoint 2148</name>
            </trkpt>
            <trkpt lat="50.0644064" lon="10.9470704">
                <ele>248.0</ele>
                <time>2020-08-22T10:34:15.000Z</time>
                <name>Trackpoint 2149</name>
            </trkpt>
            <trkpt lat="50.0643552" lon="10.9469248">
                <ele>248.0</ele>
                <time>2020-08-22T10:34:17.000Z</time>
                <name>Trackpoint 2150</name>
            </trkpt>
            <trkpt lat="50.0642944" lon="10.9467832">
                <ele>247.0</ele>
                <time>2020-08-22T10:34:19.000Z</time>
                <name>Trackpoint 2151</name>
            </trkpt>
            <trkpt lat="50.0642208" lon="10.9466496">
                <ele>247.0</ele>
                <time>2020-08-22T10:34:21.000Z</time>
                <name>Trackpoint 2152</name>
            </trkpt>
            <trkpt lat="50.064144" lon="10.9465152">
                <ele>247.0</ele>
                <time>2020-08-22T10:34:23.000Z</time>
                <name>Trackpoint 2153</name>
            </trkpt>
            <trkpt lat="50.0640768" lon="10.9463728">
                <ele>247.0</ele>
                <time>2020-08-22T10:34:25.000Z</time>
                <name>Trackpoint 2154</name>
            </trkpt>
            <trkpt lat="50.064" lon="10.9462344">
                <ele>246.0</ele>
                <time>2020-08-22T10:34:27.000Z</time>
                <name>Trackpoint 2155</name>
            </trkpt>
            <trkpt lat="50.0639168" lon="10.9461032">
                <ele>246.0</ele>
                <time>2020-08-22T10:34:29.000Z</time>
                <name>Trackpoint 2156</name>
            </trkpt>
            <trkpt lat="50.06384" lon="10.94598">
                <ele>246.0</ele>
                <time>2020-08-22T10:34:31.000Z</time>
                <name>Trackpoint 2157</name>
            </trkpt>
            <trkpt lat="50.0637664" lon="10.9458648">
                <ele>246.0</ele>
                <time>2020-08-22T10:34:33.000Z</time>
                <name>Trackpoint 2158</name>
            </trkpt>
            <trkpt lat="50.0637024" lon="10.9457512">
                <ele>246.0</ele>
                <time>2020-08-22T10:34:35.000Z</time>
                <name>Trackpoint 2159</name>
            </trkpt>
            <trkpt lat="50.0636448" lon="10.9456552">
                <ele>247.0</ele>
                <time>2020-08-22T10:34:37.000Z</time>
                <name>Trackpoint 2160</name>
            </trkpt>
            <trkpt lat="50.0635936" lon="10.9455672">
                <ele>247.0</ele>
                <time>2020-08-22T10:34:39.000Z</time>
                <name>Trackpoint 2161</name>
            </trkpt>
            <trkpt lat="50.0635488" lon="10.9454832">
                <ele>246.0</ele>
                <time>2020-08-22T10:34:41.000Z</time>
                <name>Trackpoint 2162</name>
            </trkpt>
            <trkpt lat="50.0634848" lon="10.9453632">
                <ele>246.0</ele>
                <time>2020-08-22T10:34:44.000Z</time>
                <name>Trackpoint 2163</name>
            </trkpt>
            <trkpt lat="50.06344" lon="10.9452848">
                <ele>245.0</ele>
                <time>2020-08-22T10:34:46.000Z</time>
                <name>Trackpoint 2164</name>
            </trkpt>
            <trkpt lat="50.063376" lon="10.9451912">
                <ele>245.0</ele>
                <time>2020-08-22T10:34:49.000Z</time>
                <name>Trackpoint 2165</name>
            </trkpt>
            <trkpt lat="50.0633248" lon="10.9451016">
                <ele>245.0</ele>
                <time>2020-08-22T10:34:53.000Z</time>
                <name>Trackpoint 2166</name>
            </trkpt>
            <trkpt lat="50.0633696" lon="10.945204">
                <ele>252.0</ele>
                <time>2020-08-22T10:40:04.000Z</time>
                <name>Trackpoint 2167</name>
            </trkpt>
            <trkpt lat="50.0634144" lon="10.9453096">
                <ele>253.0</ele>
                <time>2020-08-22T10:40:08.000Z</time>
                <name>Trackpoint 2168</name>
            </trkpt>
            <trkpt lat="50.0633536" lon="10.9453896">
                <ele>253.0</ele>
                <time>2020-08-22T10:40:11.000Z</time>
                <name>Trackpoint 2169</name>
            </trkpt>
            <trkpt lat="50.0632832" lon="10.9454672">
                <ele>253.0</ele>
                <time>2020-08-22T10:40:14.000Z</time>
                <name>Trackpoint 2170</name>
            </trkpt>
            <trkpt lat="50.0632064" lon="10.9455384">
                <ele>253.0</ele>
                <time>2020-08-22T10:40:17.000Z</time>
                <name>Trackpoint 2171</name>
            </trkpt>
            <trkpt lat="50.0631328" lon="10.9456016">
                <ele>254.0</ele>
                <time>2020-08-22T10:40:20.000Z</time>
                <name>Trackpoint 2172</name>
            </trkpt>
            <trkpt lat="50.0630464" lon="10.9456728">
                <ele>254.0</ele>
                <time>2020-08-22T10:40:24.000Z</time>
                <name>Trackpoint 2173</name>
            </trkpt>
            <trkpt lat="50.0630112" lon="10.9455864">
                <ele>254.0</ele>
                <time>2020-08-22T10:40:30.000Z</time>
                <name>Trackpoint 2174</name>
            </trkpt>
            <trkpt lat="50.0630592" lon="10.945492">
                <ele>255.0</ele>
                <time>2020-08-22T10:40:33.000Z</time>
                <name>Trackpoint 2175</name>
            </trkpt>
            <trkpt lat="50.0631072" lon="10.9454">
                <ele>255.0</ele>
                <time>2020-08-22T10:40:36.000Z</time>
                <name>Trackpoint 2176</name>
            </trkpt>
            <trkpt lat="50.0631552" lon="10.945316">
                <ele>254.0</ele>
                <time>2020-08-22T10:40:39.000Z</time>
                <name>Trackpoint 2177</name>
            </trkpt>
            <trkpt lat="50.0632064" lon="10.94524">
                <ele>255.0</ele>
                <time>2020-08-22T10:41:07.000Z</time>
                <name>Trackpoint 2178</name>
            </trkpt>
            <trkpt lat="50.0632864" lon="10.9451488">
                <ele>255.0</ele>
                <time>2020-08-22T10:41:11.000Z</time>
                <name>Trackpoint 2179</name>
            </trkpt>
            <trkpt lat="50.0633664" lon="10.9450512">
                <ele>255.0</ele>
                <time>2020-08-22T10:41:14.000Z</time>
                <name>Trackpoint 2180</name>
            </trkpt>
            <trkpt lat="50.06344" lon="10.9449568">
                <ele>254.0</ele>
                <time>2020-08-22T10:41:17.000Z</time>
                <name>Trackpoint 2181</name>
            </trkpt>
            <trkpt lat="50.063504" lon="10.944888">
                <ele>254.0</ele>
                <time>2020-08-22T10:41:20.000Z</time>
                <name>Trackpoint 2182</name>
            </trkpt>
            <trkpt lat="50.063568" lon="10.9448072">
                <ele>254.0</ele>
                <time>2020-08-22T10:41:38.000Z</time>
                <name>Trackpoint 2183</name>
            </trkpt>
            <trkpt lat="50.0636416" lon="10.9447344">
                <ele>254.0</ele>
                <time>2020-08-22T10:41:41.000Z</time>
                <name>Trackpoint 2184</name>
            </trkpt>
            <trkpt lat="50.0637088" lon="10.9446624">
                <ele>254.0</ele>
                <time>2020-08-22T10:41:44.000Z</time>
                <name>Trackpoint 2185</name>
            </trkpt>
            <trkpt lat="50.0637728" lon="10.9445912">
                <ele>254.0</ele>
                <time>2020-08-22T10:41:47.000Z</time>
                <name>Trackpoint 2186</name>
            </trkpt>
            <trkpt lat="50.0638336" lon="10.9445232">
                <ele>253.0</ele>
                <time>2020-08-22T10:41:50.000Z</time>
                <name>Trackpoint 2187</name>
            </trkpt>
            <trkpt lat="50.06392" lon="10.944444">
                <ele>253.0</ele>
                <time>2020-08-22T10:41:53.000Z</time>
                <name>Trackpoint 2188</name>
            </trkpt>
            <trkpt lat="50.064016" lon="10.9443504">
                <ele>253.0</ele>
                <time>2020-08-22T10:41:56.000Z</time>
                <name>Trackpoint 2189</name>
            </trkpt>
            <trkpt lat="50.0640832" lon="10.944288">
                <ele>253.0</ele>
                <time>2020-08-22T10:41:58.000Z</time>
                <name>Trackpoint 2190</name>
            </trkpt>
            <trkpt lat="50.0641504" lon="10.944228">
                <ele>253.0</ele>
                <time>2020-08-22T10:42:00.000Z</time>
                <name>Trackpoint 2191</name>
            </trkpt>
            <trkpt lat="50.0642176" lon="10.9441616">
                <ele>253.0</ele>
                <time>2020-08-22T10:42:02.000Z</time>
                <name>Trackpoint 2192</name>
            </trkpt>
            <trkpt lat="50.0643168" lon="10.9440744">
                <ele>253.0</ele>
                <time>2020-08-22T10:42:05.000Z</time>
                <name>Trackpoint 2193</name>
            </trkpt>
            <trkpt lat="50.064416" lon="10.9439984">
                <ele>252.0</ele>
                <time>2020-08-22T10:42:08.000Z</time>
                <name>Trackpoint 2194</name>
            </trkpt>
            <trkpt lat="50.0645216" lon="10.94392">
                <ele>252.0</ele>
                <time>2020-08-22T10:42:11.000Z</time>
                <name>Trackpoint 2195</name>
            </trkpt>
            <trkpt lat="50.0646016" lon="10.9438712">
                <ele>252.0</ele>
                <time>2020-08-22T10:42:13.000Z</time>
                <name>Trackpoint 2196</name>
            </trkpt>
            <trkpt lat="50.0646848" lon="10.9438232">
                <ele>252.0</ele>
                <time>2020-08-22T10:42:15.000Z</time>
                <name>Trackpoint 2197</name>
            </trkpt>
            <trkpt lat="50.0647648" lon="10.9437784">
                <ele>252.0</ele>
                <time>2020-08-22T10:42:17.000Z</time>
                <name>Trackpoint 2198</name>
            </trkpt>
            <trkpt lat="50.0648416" lon="10.9437248">
                <ele>252.0</ele>
                <time>2020-08-22T10:42:19.000Z</time>
                <name>Trackpoint 2199</name>
            </trkpt>
            <trkpt lat="50.0649184" lon="10.9436712">
                <ele>252.0</ele>
                <time>2020-08-22T10:42:21.000Z</time>
                <name>Trackpoint 2200</name>
            </trkpt>
            <trkpt lat="50.0649952" lon="10.9436128">
                <ele>252.0</ele>
                <time>2020-08-22T10:42:23.000Z</time>
                <name>Trackpoint 2201</name>
            </trkpt>
            <trkpt lat="50.065104" lon="10.9435352">
                <ele>252.0</ele>
                <time>2020-08-22T10:42:26.000Z</time>
                <name>Trackpoint 2202</name>
            </trkpt>
            <trkpt lat="50.0651808" lon="10.9434832">
                <ele>252.0</ele>
                <time>2020-08-22T10:42:28.000Z</time>
                <name>Trackpoint 2203</name>
            </trkpt>
            <trkpt lat="50.0652608" lon="10.9434344">
                <ele>252.0</ele>
                <time>2020-08-22T10:42:30.000Z</time>
                <name>Trackpoint 2204</name>
            </trkpt>
            <trkpt lat="50.0653376" lon="10.9433816">
                <ele>252.0</ele>
                <time>2020-08-22T10:42:32.000Z</time>
                <name>Trackpoint 2205</name>
            </trkpt>
            <trkpt lat="50.0654144" lon="10.9433248">
                <ele>252.0</ele>
                <time>2020-08-22T10:42:34.000Z</time>
                <name>Trackpoint 2206</name>
            </trkpt>
            <trkpt lat="50.0655008" lon="10.9432768">
                <ele>252.0</ele>
                <time>2020-08-22T10:42:37.000Z</time>
                <name>Trackpoint 2207</name>
            </trkpt>
            <trkpt lat="50.06552" lon="10.94318">
                <ele>251.0</ele>
                <time>2020-08-22T10:42:51.000Z</time>
                <name>Trackpoint 2208</name>
            </trkpt>
            <trkpt lat="50.0654784" lon="10.943084">
                <ele>252.0</ele>
                <time>2020-08-22T10:42:54.000Z</time>
                <name>Trackpoint 2209</name>
            </trkpt>
            <trkpt lat="50.065392" lon="10.9430288">
                <ele>252.0</ele>
                <time>2020-08-22T10:42:57.000Z</time>
                <name>Trackpoint 2210</name>
            </trkpt>
            <trkpt lat="50.0653088" lon="10.9429448">
                <ele>252.0</ele>
                <time>2020-08-22T10:43:00.000Z</time>
                <name>Trackpoint 2211</name>
            </trkpt>
            <trkpt lat="50.0652576" lon="10.9428664">
                <ele>252.0</ele>
                <time>2020-08-22T10:43:02.000Z</time>
                <name>Trackpoint 2212</name>
            </trkpt>
            <trkpt lat="50.0651904" lon="10.9427608">
                <ele>252.0</ele>
                <time>2020-08-22T10:43:05.000Z</time>
                <name>Trackpoint 2213</name>
            </trkpt>
            <trkpt lat="50.0651296" lon="10.9426568">
                <ele>252.0</ele>
                <time>2020-08-22T10:43:08.000Z</time>
                <name>Trackpoint 2214</name>
            </trkpt>
            <trkpt lat="50.06512" lon="10.9425624">
                <ele>251.0</ele>
                <time>2020-08-22T10:43:11.000Z</time>
                <name>Trackpoint 2215</name>
            </trkpt>
            <trkpt lat="50.0651552" lon="10.9424648">
                <ele>251.0</ele>
                <time>2020-08-22T10:43:24.000Z</time>
                <name>Trackpoint 2216</name>
            </trkpt>
            <trkpt lat="50.0651968" lon="10.942384">
                <ele>251.0</ele>
                <time>2020-08-22T10:43:27.000Z</time>
                <name>Trackpoint 2217</name>
            </trkpt>
            <trkpt lat="50.0652736" lon="10.9422776">
                <ele>251.0</ele>
                <time>2020-08-22T10:43:30.000Z</time>
                <name>Trackpoint 2218</name>
            </trkpt>
            <trkpt lat="50.065312" lon="10.9421864">
                <ele>251.0</ele>
                <time>2020-08-22T10:43:32.000Z</time>
                <name>Trackpoint 2219</name>
            </trkpt>
            <trkpt lat="50.0653472" lon="10.9420816">
                <ele>251.0</ele>
                <time>2020-08-22T10:43:34.000Z</time>
                <name>Trackpoint 2220</name>
            </trkpt>
            <trkpt lat="50.0653696" lon="10.94198">
                <ele>252.0</ele>
                <time>2020-08-22T10:43:36.000Z</time>
                <name>Trackpoint 2221</name>
            </trkpt>
            <trkpt lat="50.0653824" lon="10.9418824">
                <ele>252.0</ele>
                <time>2020-08-22T10:43:38.000Z</time>
                <name>Trackpoint 2222</name>
            </trkpt>
            <trkpt lat="50.0653984" lon="10.9417912">
                <ele>253.0</ele>
                <time>2020-08-22T10:43:40.000Z</time>
                <name>Trackpoint 2223</name>
            </trkpt>
            <trkpt lat="50.0654016" lon="10.9416952">
                <ele>254.0</ele>
                <time>2020-08-22T10:43:42.000Z</time>
                <name>Trackpoint 2224</name>
            </trkpt>
            <trkpt lat="50.065408" lon="10.9415912">
                <ele>254.0</ele>
                <time>2020-08-22T10:44:03.000Z</time>
                <name>Trackpoint 2225</name>
            </trkpt>
            <trkpt lat="50.065408" lon="10.9414704">
                <ele>254.0</ele>
                <time>2020-08-22T10:44:07.000Z</time>
                <name>Trackpoint 2226</name>
            </trkpt>
            <trkpt lat="50.0653216" lon="10.9414056">
                <ele>254.0</ele>
                <time>2020-08-22T10:44:10.000Z</time>
                <name>Trackpoint 2227</name>
            </trkpt>
            <trkpt lat="50.0652096" lon="10.941372">
                <ele>253.0</ele>
                <time>2020-08-22T10:44:13.000Z</time>
                <name>Trackpoint 2228</name>
            </trkpt>
            <trkpt lat="50.0650944" lon="10.9413368">
                <ele>253.0</ele>
                <time>2020-08-22T10:44:16.000Z</time>
                <name>Trackpoint 2229</name>
            </trkpt>
            <trkpt lat="50.0651424" lon="10.9414168">
                <ele>253.0</ele>
                <time>2020-08-22T10:44:27.000Z</time>
                <name>Trackpoint 2230</name>
            </trkpt>
            <trkpt lat="50.0652192" lon="10.9414728">
                <ele>253.0</ele>
                <time>2020-08-22T10:44:49.000Z</time>
                <name>Trackpoint 2231</name>
            </trkpt>
            <trkpt lat="50.0652" lon="10.9413744">
                <ele>253.0</ele>
                <time>2020-08-22T10:45:16.000Z</time>
                <name>Trackpoint 2232</name>
            </trkpt>
            <trkpt lat="50.0650816" lon="10.9413536">
                <ele>253.0</ele>
                <time>2020-08-22T10:45:19.000Z</time>
                <name>Trackpoint 2233</name>
            </trkpt>
            <trkpt lat="50.0649696" lon="10.9413216">
                <ele>253.0</ele>
                <time>2020-08-22T10:45:22.000Z</time>
                <name>Trackpoint 2234</name>
            </trkpt>
            <trkpt lat="50.0648608" lon="10.9412896">
                <ele>253.0</ele>
                <time>2020-08-22T10:45:25.000Z</time>
                <name>Trackpoint 2235</name>
            </trkpt>
            <trkpt lat="50.0647456" lon="10.9412672">
                <ele>253.0</ele>
                <time>2020-08-22T10:45:28.000Z</time>
                <name>Trackpoint 2236</name>
            </trkpt>
            <trkpt lat="50.064624" lon="10.941252">
                <ele>253.0</ele>
                <time>2020-08-22T10:45:31.000Z</time>
                <name>Trackpoint 2237</name>
            </trkpt>
            <trkpt lat="50.0645152" lon="10.9412336">
                <ele>253.0</ele>
                <time>2020-08-22T10:45:34.000Z</time>
                <name>Trackpoint 2238</name>
            </trkpt>
            <trkpt lat="50.0644064" lon="10.9412144">
                <ele>253.0</ele>
                <time>2020-08-22T10:45:36.000Z</time>
                <name>Trackpoint 2239</name>
            </trkpt>
            <trkpt lat="50.0642976" lon="10.9412016">
                <ele>253.0</ele>
                <time>2020-08-22T10:45:38.000Z</time>
                <name>Trackpoint 2240</name>
            </trkpt>
            <trkpt lat="50.0641856" lon="10.941188">
                <ele>253.0</ele>
                <time>2020-08-22T10:45:40.000Z</time>
                <name>Trackpoint 2241</name>
            </trkpt>
            <trkpt lat="50.0640768" lon="10.9411768">
                <ele>253.0</ele>
                <time>2020-08-22T10:45:42.000Z</time>
                <name>Trackpoint 2242</name>
            </trkpt>
            <trkpt lat="50.0639712" lon="10.9411944">
                <ele>253.0</ele>
                <time>2020-08-22T10:45:44.000Z</time>
                <name>Trackpoint 2243</name>
            </trkpt>
            <trkpt lat="50.0638656" lon="10.9412168">
                <ele>253.0</ele>
                <time>2020-08-22T10:45:46.000Z</time>
                <name>Trackpoint 2244</name>
            </trkpt>
            <trkpt lat="50.0637472" lon="10.9412296">
                <ele>253.0</ele>
                <time>2020-08-22T10:45:48.000Z</time>
                <name>Trackpoint 2245</name>
            </trkpt>
            <trkpt lat="50.063632" lon="10.94126">
                <ele>253.0</ele>
                <time>2020-08-22T10:45:50.000Z</time>
                <name>Trackpoint 2246</name>
            </trkpt>
            <trkpt lat="50.0635232" lon="10.9412968">
                <ele>253.0</ele>
                <time>2020-08-22T10:45:52.000Z</time>
                <name>Trackpoint 2247</name>
            </trkpt>
            <trkpt lat="50.0634112" lon="10.941328">
                <ele>253.0</ele>
                <time>2020-08-22T10:45:54.000Z</time>
                <name>Trackpoint 2248</name>
            </trkpt>
            <trkpt lat="50.0633056" lon="10.9413568">
                <ele>252.0</ele>
                <time>2020-08-22T10:45:56.000Z</time>
                <name>Trackpoint 2249</name>
            </trkpt>
            <trkpt lat="50.0632032" lon="10.9413928">
                <ele>252.0</ele>
                <time>2020-08-22T10:45:58.000Z</time>
                <name>Trackpoint 2250</name>
            </trkpt>
            <trkpt lat="50.0630944" lon="10.941428">
                <ele>252.0</ele>
                <time>2020-08-22T10:46:00.000Z</time>
                <name>Trackpoint 2251</name>
            </trkpt>
            <trkpt lat="50.0629984" lon="10.9414568">
                <ele>252.0</ele>
                <time>2020-08-22T10:46:02.000Z</time>
                <name>Trackpoint 2252</name>
            </trkpt>
            <trkpt lat="50.0628992" lon="10.9414952">
                <ele>252.0</ele>
                <time>2020-08-22T10:46:04.000Z</time>
                <name>Trackpoint 2253</name>
            </trkpt>
            <trkpt lat="50.0627968" lon="10.941548">
                <ele>252.0</ele>
                <time>2020-08-22T10:46:06.000Z</time>
                <name>Trackpoint 2254</name>
            </trkpt>
            <trkpt lat="50.0626976" lon="10.9415912">
                <ele>252.0</ele>
                <time>2020-08-22T10:46:08.000Z</time>
                <name>Trackpoint 2255</name>
            </trkpt>
            <trkpt lat="50.0625952" lon="10.9416112">
                <ele>252.0</ele>
                <time>2020-08-22T10:46:10.000Z</time>
                <name>Trackpoint 2256</name>
            </trkpt>
            <trkpt lat="50.0624992" lon="10.941604">
                <ele>252.0</ele>
                <time>2020-08-22T10:46:12.000Z</time>
                <name>Trackpoint 2257</name>
            </trkpt>
            <trkpt lat="50.0623968" lon="10.9415864">
                <ele>252.0</ele>
                <time>2020-08-22T10:46:14.000Z</time>
                <name>Trackpoint 2258</name>
            </trkpt>
            <trkpt lat="50.0622912" lon="10.9415712">
                <ele>252.0</ele>
                <time>2020-08-22T10:46:16.000Z</time>
                <name>Trackpoint 2259</name>
            </trkpt>
            <trkpt lat="50.062176" lon="10.9415648">
                <ele>252.0</ele>
                <time>2020-08-22T10:46:18.000Z</time>
                <name>Trackpoint 2260</name>
            </trkpt>
            <trkpt lat="50.0620608" lon="10.9415552">
                <ele>252.0</ele>
                <time>2020-08-22T10:46:20.000Z</time>
                <name>Trackpoint 2261</name>
            </trkpt>
            <trkpt lat="50.0619456" lon="10.9415416">
                <ele>252.0</ele>
                <time>2020-08-22T10:46:22.000Z</time>
                <name>Trackpoint 2262</name>
            </trkpt>
            <trkpt lat="50.0618336" lon="10.941528">
                <ele>251.0</ele>
                <time>2020-08-22T10:46:24.000Z</time>
                <name>Trackpoint 2263</name>
            </trkpt>
            <trkpt lat="50.0617216" lon="10.9415128">
                <ele>251.0</ele>
                <time>2020-08-22T10:46:26.000Z</time>
                <name>Trackpoint 2264</name>
            </trkpt>
            <trkpt lat="50.0616096" lon="10.9415032">
                <ele>251.0</ele>
                <time>2020-08-22T10:46:28.000Z</time>
                <name>Trackpoint 2265</name>
            </trkpt>
            <trkpt lat="50.0615008" lon="10.941492">
                <ele>251.0</ele>
                <time>2020-08-22T10:46:30.000Z</time>
                <name>Trackpoint 2266</name>
            </trkpt>
            <trkpt lat="50.0613888" lon="10.9414784">
                <ele>251.0</ele>
                <time>2020-08-22T10:46:32.000Z</time>
                <name>Trackpoint 2267</name>
            </trkpt>
            <trkpt lat="50.0612832" lon="10.9414568">
                <ele>251.0</ele>
                <time>2020-08-22T10:46:34.000Z</time>
                <name>Trackpoint 2268</name>
            </trkpt>
            <trkpt lat="50.0611808" lon="10.9414232">
                <ele>251.0</ele>
                <time>2020-08-22T10:46:36.000Z</time>
                <name>Trackpoint 2269</name>
            </trkpt>
            <trkpt lat="50.0610688" lon="10.9413816">
                <ele>251.0</ele>
                <time>2020-08-22T10:46:38.000Z</time>
                <name>Trackpoint 2270</name>
            </trkpt>
            <trkpt lat="50.0609632" lon="10.9413272">
                <ele>251.0</ele>
                <time>2020-08-22T10:46:40.000Z</time>
                <name>Trackpoint 2271</name>
            </trkpt>
            <trkpt lat="50.0608544" lon="10.9412568">
                <ele>251.0</ele>
                <time>2020-08-22T10:46:42.000Z</time>
                <name>Trackpoint 2272</name>
            </trkpt>
            <trkpt lat="50.0607552" lon="10.9411784">
                <ele>250.0</ele>
                <time>2020-08-22T10:46:44.000Z</time>
                <name>Trackpoint 2273</name>
            </trkpt>
            <trkpt lat="50.0606656" lon="10.9410864">
                <ele>250.0</ele>
                <time>2020-08-22T10:46:46.000Z</time>
                <name>Trackpoint 2274</name>
            </trkpt>
            <trkpt lat="50.0605696" lon="10.941">
                <ele>250.0</ele>
                <time>2020-08-22T10:46:48.000Z</time>
                <name>Trackpoint 2275</name>
            </trkpt>
            <trkpt lat="50.0604768" lon="10.9409104">
                <ele>250.0</ele>
                <time>2020-08-22T10:46:50.000Z</time>
                <name>Trackpoint 2276</name>
            </trkpt>
            <trkpt lat="50.0603872" lon="10.9408216">
                <ele>250.0</ele>
                <time>2020-08-22T10:46:52.000Z</time>
                <name>Trackpoint 2277</name>
            </trkpt>
            <trkpt lat="50.060304" lon="10.9407216">
                <ele>250.0</ele>
                <time>2020-08-22T10:46:54.000Z</time>
                <name>Trackpoint 2278</name>
            </trkpt>
            <trkpt lat="50.0602112" lon="10.9406168">
                <ele>250.0</ele>
                <time>2020-08-22T10:46:56.000Z</time>
                <name>Trackpoint 2279</name>
            </trkpt>
            <trkpt lat="50.0601152" lon="10.940512">
                <ele>250.0</ele>
                <time>2020-08-22T10:46:58.000Z</time>
                <name>Trackpoint 2280</name>
            </trkpt>
            <trkpt lat="50.0600192" lon="10.9404024">
                <ele>250.0</ele>
                <time>2020-08-22T10:47:00.000Z</time>
                <name>Trackpoint 2281</name>
            </trkpt>
            <trkpt lat="50.0599296" lon="10.9402904">
                <ele>250.0</ele>
                <time>2020-08-22T10:47:02.000Z</time>
                <name>Trackpoint 2282</name>
            </trkpt>
            <trkpt lat="50.0598528" lon="10.940184">
                <ele>250.0</ele>
                <time>2020-08-22T10:47:04.000Z</time>
                <name>Trackpoint 2283</name>
            </trkpt>
            <trkpt lat="50.05976" lon="10.9400584">
                <ele>250.0</ele>
                <time>2020-08-22T10:47:06.000Z</time>
                <name>Trackpoint 2284</name>
            </trkpt>
            <trkpt lat="50.0596768" lon="10.939932">
                <ele>250.0</ele>
                <time>2020-08-22T10:47:08.000Z</time>
                <name>Trackpoint 2285</name>
            </trkpt>
            <trkpt lat="50.0595968" lon="10.9398216">
                <ele>250.0</ele>
                <time>2020-08-22T10:47:10.000Z</time>
                <name>Trackpoint 2286</name>
            </trkpt>
            <trkpt lat="50.059504" lon="10.9397112">
                <ele>250.0</ele>
                <time>2020-08-22T10:47:12.000Z</time>
                <name>Trackpoint 2287</name>
            </trkpt>
            <trkpt lat="50.0594176" lon="10.9396">
                <ele>250.0</ele>
                <time>2020-08-22T10:47:14.000Z</time>
                <name>Trackpoint 2288</name>
            </trkpt>
            <trkpt lat="50.0593312" lon="10.9394848">
                <ele>250.0</ele>
                <time>2020-08-22T10:47:16.000Z</time>
                <name>Trackpoint 2289</name>
            </trkpt>
            <trkpt lat="50.0592512" lon="10.9393616">
                <ele>250.0</ele>
                <time>2020-08-22T10:47:18.000Z</time>
                <name>Trackpoint 2290</name>
            </trkpt>
            <trkpt lat="50.0591744" lon="10.9392336">
                <ele>250.0</ele>
                <time>2020-08-22T10:47:20.000Z</time>
                <name>Trackpoint 2291</name>
            </trkpt>
            <trkpt lat="50.059104" lon="10.9390968">
                <ele>250.0</ele>
                <time>2020-08-22T10:47:22.000Z</time>
                <name>Trackpoint 2292</name>
            </trkpt>
            <trkpt lat="50.0590176" lon="10.9389784">
                <ele>250.0</ele>
                <time>2020-08-22T10:47:24.000Z</time>
                <name>Trackpoint 2293</name>
            </trkpt>
            <trkpt lat="50.0589344" lon="10.9388488">
                <ele>250.0</ele>
                <time>2020-08-22T10:47:26.000Z</time>
                <name>Trackpoint 2294</name>
            </trkpt>
            <trkpt lat="50.0588832" lon="10.938688">
                <ele>249.0</ele>
                <time>2020-08-22T10:47:28.000Z</time>
                <name>Trackpoint 2295</name>
            </trkpt>
            <trkpt lat="50.0588096" lon="10.9385336">
                <ele>249.0</ele>
                <time>2020-08-22T10:47:30.000Z</time>
                <name>Trackpoint 2296</name>
            </trkpt>
            <trkpt lat="50.0587488" lon="10.9383848">
                <ele>249.0</ele>
                <time>2020-08-22T10:47:32.000Z</time>
                <name>Trackpoint 2297</name>
            </trkpt>
            <trkpt lat="50.0586816" lon="10.9382488">
                <ele>249.0</ele>
                <time>2020-08-22T10:47:34.000Z</time>
                <name>Trackpoint 2298</name>
            </trkpt>
            <trkpt lat="50.058624" lon="10.9381168">
                <ele>249.0</ele>
                <time>2020-08-22T10:47:36.000Z</time>
                <name>Trackpoint 2299</name>
            </trkpt>
            <trkpt lat="50.0585664" lon="10.937988">
                <ele>249.0</ele>
                <time>2020-08-22T10:47:38.000Z</time>
                <name>Trackpoint 2300</name>
            </trkpt>
            <trkpt lat="50.0585152" lon="10.9378632">
                <ele>248.0</ele>
                <time>2020-08-22T10:47:40.000Z</time>
                <name>Trackpoint 2301</name>
            </trkpt>
            <trkpt lat="50.0584704" lon="10.9377472">
                <ele>248.0</ele>
                <time>2020-08-22T10:47:42.000Z</time>
                <name>Trackpoint 2302</name>
            </trkpt>
            <trkpt lat="50.0584384" lon="10.9376184">
                <ele>248.0</ele>
                <time>2020-08-22T10:47:44.000Z</time>
                <name>Trackpoint 2303</name>
            </trkpt>
            <trkpt lat="50.0583776" lon="10.937484">
                <ele>247.0</ele>
                <time>2020-08-22T10:47:46.000Z</time>
                <name>Trackpoint 2304</name>
            </trkpt>
            <trkpt lat="50.0583104" lon="10.9373568">
                <ele>247.0</ele>
                <time>2020-08-22T10:47:48.000Z</time>
                <name>Trackpoint 2305</name>
            </trkpt>
            <trkpt lat="50.0582464" lon="10.9372264">
                <ele>247.0</ele>
                <time>2020-08-22T10:47:50.000Z</time>
                <name>Trackpoint 2306</name>
            </trkpt>
            <trkpt lat="50.0581792" lon="10.9371032">
                <ele>247.0</ele>
                <time>2020-08-22T10:47:52.000Z</time>
                <name>Trackpoint 2307</name>
            </trkpt>
            <trkpt lat="50.058112" lon="10.93698">
                <ele>247.0</ele>
                <time>2020-08-22T10:47:54.000Z</time>
                <name>Trackpoint 2308</name>
            </trkpt>
            <trkpt lat="50.0580448" lon="10.9368688">
                <ele>247.0</ele>
                <time>2020-08-22T10:47:56.000Z</time>
                <name>Trackpoint 2309</name>
            </trkpt>
            <trkpt lat="50.0579712" lon="10.9367536">
                <ele>247.0</ele>
                <time>2020-08-22T10:47:58.000Z</time>
                <name>Trackpoint 2310</name>
            </trkpt>
            <trkpt lat="50.0579008" lon="10.9366352">
                <ele>247.0</ele>
                <time>2020-08-22T10:48:00.000Z</time>
                <name>Trackpoint 2311</name>
            </trkpt>
            <trkpt lat="50.057824" lon="10.9365416">
                <ele>247.0</ele>
                <time>2020-08-22T10:48:02.000Z</time>
                <name>Trackpoint 2312</name>
            </trkpt>
            <trkpt lat="50.0577504" lon="10.9364408">
                <ele>247.0</ele>
                <time>2020-08-22T10:48:04.000Z</time>
                <name>Trackpoint 2313</name>
            </trkpt>
            <trkpt lat="50.0576832" lon="10.93634">
                <ele>247.0</ele>
                <time>2020-08-22T10:48:06.000Z</time>
                <name>Trackpoint 2314</name>
            </trkpt>
            <trkpt lat="50.0575904" lon="10.9362352">
                <ele>247.0</ele>
                <time>2020-08-22T10:48:09.000Z</time>
                <name>Trackpoint 2315</name>
            </trkpt>
            <trkpt lat="50.0575232" lon="10.9361296">
                <ele>247.0</ele>
                <time>2020-08-22T10:48:11.000Z</time>
                <name>Trackpoint 2316</name>
            </trkpt>
            <trkpt lat="50.0574656" lon="10.93602">
                <ele>247.0</ele>
                <time>2020-08-22T10:48:13.000Z</time>
                <name>Trackpoint 2317</name>
            </trkpt>
            <trkpt lat="50.0574112" lon="10.9359032">
                <ele>247.0</ele>
                <time>2020-08-22T10:48:15.000Z</time>
                <name>Trackpoint 2318</name>
            </trkpt>
            <trkpt lat="50.0573088" lon="10.9357592">
                <ele>246.0</ele>
                <time>2020-08-22T10:48:17.000Z</time>
                <name>Trackpoint 2319</name>
            </trkpt>
            <trkpt lat="50.0572096" lon="10.93566">
                <ele>246.0</ele>
                <time>2020-08-22T10:48:19.000Z</time>
                <name>Trackpoint 2320</name>
            </trkpt>
            <trkpt lat="50.0571328" lon="10.9355424">
                <ele>246.0</ele>
                <time>2020-08-22T10:48:21.000Z</time>
                <name>Trackpoint 2321</name>
            </trkpt>
            <trkpt lat="50.057056" lon="10.9354448">
                <ele>247.0</ele>
                <time>2020-08-22T10:48:23.000Z</time>
                <name>Trackpoint 2322</name>
            </trkpt>
            <trkpt lat="50.0569888" lon="10.9353416">
                <ele>247.0</ele>
                <time>2020-08-22T10:48:25.000Z</time>
                <name>Trackpoint 2323</name>
            </trkpt>
            <trkpt lat="50.0569152" lon="10.9352328">
                <ele>248.0</ele>
                <time>2020-08-22T10:48:27.000Z</time>
                <name>Trackpoint 2324</name>
            </trkpt>
            <trkpt lat="50.0568384" lon="10.9351368">
                <ele>248.0</ele>
                <time>2020-08-22T10:48:29.000Z</time>
                <name>Trackpoint 2325</name>
            </trkpt>
            <trkpt lat="50.056768" lon="10.9350368">
                <ele>248.0</ele>
                <time>2020-08-22T10:48:31.000Z</time>
                <name>Trackpoint 2326</name>
            </trkpt>
            <trkpt lat="50.0566912" lon="10.9349384">
                <ele>248.0</ele>
                <time>2020-08-22T10:48:33.000Z</time>
                <name>Trackpoint 2327</name>
            </trkpt>
            <trkpt lat="50.0566112" lon="10.9348432">
                <ele>248.0</ele>
                <time>2020-08-22T10:48:35.000Z</time>
                <name>Trackpoint 2328</name>
            </trkpt>
            <trkpt lat="50.0565184" lon="10.9347536">
                <ele>248.0</ele>
                <time>2020-08-22T10:48:37.000Z</time>
                <name>Trackpoint 2329</name>
            </trkpt>
            <trkpt lat="50.0564192" lon="10.93466">
                <ele>249.0</ele>
                <time>2020-08-22T10:48:39.000Z</time>
                <name>Trackpoint 2330</name>
            </trkpt>
            <trkpt lat="50.0563232" lon="10.9345568">
                <ele>248.0</ele>
                <time>2020-08-22T10:48:41.000Z</time>
                <name>Trackpoint 2331</name>
            </trkpt>
            <trkpt lat="50.056224" lon="10.9344432">
                <ele>249.0</ele>
                <time>2020-08-22T10:48:43.000Z</time>
                <name>Trackpoint 2332</name>
            </trkpt>
            <trkpt lat="50.0561376" lon="10.9343296">
                <ele>249.0</ele>
                <time>2020-08-22T10:48:45.000Z</time>
                <name>Trackpoint 2333</name>
            </trkpt>
            <trkpt lat="50.056048" lon="10.9342168">
                <ele>249.0</ele>
                <time>2020-08-22T10:48:47.000Z</time>
                <name>Trackpoint 2334</name>
            </trkpt>
            <trkpt lat="50.055968" lon="10.9341024">
                <ele>248.0</ele>
                <time>2020-08-22T10:48:49.000Z</time>
                <name>Trackpoint 2335</name>
            </trkpt>
            <trkpt lat="50.055888" lon="10.9339864">
                <ele>248.0</ele>
                <time>2020-08-22T10:48:51.000Z</time>
                <name>Trackpoint 2336</name>
            </trkpt>
            <trkpt lat="50.055808" lon="10.93388">
                <ele>248.0</ele>
                <time>2020-08-22T10:48:53.000Z</time>
                <name>Trackpoint 2337</name>
            </trkpt>
            <trkpt lat="50.055728" lon="10.933768">
                <ele>248.0</ele>
                <time>2020-08-22T10:48:55.000Z</time>
                <name>Trackpoint 2338</name>
            </trkpt>
            <trkpt lat="50.0556512" lon="10.933652">
                <ele>248.0</ele>
                <time>2020-08-22T10:48:57.000Z</time>
                <name>Trackpoint 2339</name>
            </trkpt>
            <trkpt lat="50.0555712" lon="10.9335432">
                <ele>248.0</ele>
                <time>2020-08-22T10:48:59.000Z</time>
                <name>Trackpoint 2340</name>
            </trkpt>
            <trkpt lat="50.055488" lon="10.933432">
                <ele>248.0</ele>
                <time>2020-08-22T10:49:01.000Z</time>
                <name>Trackpoint 2341</name>
            </trkpt>
            <trkpt lat="50.055408" lon="10.933316">
                <ele>248.0</ele>
                <time>2020-08-22T10:49:03.000Z</time>
                <name>Trackpoint 2342</name>
            </trkpt>
            <trkpt lat="50.0553216" lon="10.9332">
                <ele>248.0</ele>
                <time>2020-08-22T10:49:05.000Z</time>
                <name>Trackpoint 2343</name>
            </trkpt>
            <trkpt lat="50.0552416" lon="10.9330856">
                <ele>247.0</ele>
                <time>2020-08-22T10:49:07.000Z</time>
                <name>Trackpoint 2344</name>
            </trkpt>
            <trkpt lat="50.0551552" lon="10.932968">
                <ele>247.0</ele>
                <time>2020-08-22T10:49:09.000Z</time>
                <name>Trackpoint 2345</name>
            </trkpt>
            <trkpt lat="50.0550688" lon="10.9328544">
                <ele>247.0</ele>
                <time>2020-08-22T10:49:11.000Z</time>
                <name>Trackpoint 2346</name>
            </trkpt>
            <trkpt lat="50.0549888" lon="10.9327384">
                <ele>247.0</ele>
                <time>2020-08-22T10:49:13.000Z</time>
                <name>Trackpoint 2347</name>
            </trkpt>
            <trkpt lat="50.0549056" lon="10.9326264">
                <ele>248.0</ele>
                <time>2020-08-22T10:49:15.000Z</time>
                <name>Trackpoint 2348</name>
            </trkpt>
            <trkpt lat="50.0548256" lon="10.9325152">
                <ele>248.0</ele>
                <time>2020-08-22T10:49:17.000Z</time>
                <name>Trackpoint 2349</name>
            </trkpt>
            <trkpt lat="50.0547424" lon="10.9324064">
                <ele>248.0</ele>
                <time>2020-08-22T10:49:19.000Z</time>
                <name>Trackpoint 2350</name>
            </trkpt>
            <trkpt lat="50.0546656" lon="10.9322952">
                <ele>248.0</ele>
                <time>2020-08-22T10:49:21.000Z</time>
                <name>Trackpoint 2351</name>
            </trkpt>
            <trkpt lat="50.054592" lon="10.9321768">
                <ele>248.0</ele>
                <time>2020-08-22T10:49:23.000Z</time>
                <name>Trackpoint 2352</name>
            </trkpt>
            <trkpt lat="50.0545184" lon="10.93206">
                <ele>248.0</ele>
                <time>2020-08-22T10:49:25.000Z</time>
                <name>Trackpoint 2353</name>
            </trkpt>
            <trkpt lat="50.0544544" lon="10.9319416">
                <ele>248.0</ele>
                <time>2020-08-22T10:49:27.000Z</time>
                <name>Trackpoint 2354</name>
            </trkpt>
            <trkpt lat="50.0543904" lon="10.9318216">
                <ele>248.0</ele>
                <time>2020-08-22T10:49:29.000Z</time>
                <name>Trackpoint 2355</name>
            </trkpt>
            <trkpt lat="50.0543296" lon="10.9316968">
                <ele>248.0</ele>
                <time>2020-08-22T10:49:31.000Z</time>
                <name>Trackpoint 2356</name>
            </trkpt>
            <trkpt lat="50.054272" lon="10.9315704">
                <ele>248.0</ele>
                <time>2020-08-22T10:49:33.000Z</time>
                <name>Trackpoint 2357</name>
            </trkpt>
            <trkpt lat="50.0542208" lon="10.9314432">
                <ele>248.0</ele>
                <time>2020-08-22T10:49:35.000Z</time>
                <name>Trackpoint 2358</name>
            </trkpt>
            <trkpt lat="50.0541728" lon="10.931316">
                <ele>248.0</ele>
                <time>2020-08-22T10:49:37.000Z</time>
                <name>Trackpoint 2359</name>
            </trkpt>
            <trkpt lat="50.054128" lon="10.9311896">
                <ele>249.0</ele>
                <time>2020-08-22T10:49:39.000Z</time>
                <name>Trackpoint 2360</name>
            </trkpt>
            <trkpt lat="50.05408" lon="10.9310648">
                <ele>249.0</ele>
                <time>2020-08-22T10:49:41.000Z</time>
                <name>Trackpoint 2361</name>
            </trkpt>
            <trkpt lat="50.054032" lon="10.9309456">
                <ele>249.0</ele>
                <time>2020-08-22T10:49:43.000Z</time>
                <name>Trackpoint 2362</name>
            </trkpt>
            <trkpt lat="50.0539808" lon="10.9308272">
                <ele>249.0</ele>
                <time>2020-08-22T10:49:45.000Z</time>
                <name>Trackpoint 2363</name>
            </trkpt>
            <trkpt lat="50.0539296" lon="10.930708">
                <ele>249.0</ele>
                <time>2020-08-22T10:49:47.000Z</time>
                <name>Trackpoint 2364</name>
            </trkpt>
            <trkpt lat="50.0538624" lon="10.9305984">
                <ele>250.0</ele>
                <time>2020-08-22T10:49:49.000Z</time>
                <name>Trackpoint 2365</name>
            </trkpt>
            <trkpt lat="50.0538016" lon="10.9304936">
                <ele>250.0</ele>
                <time>2020-08-22T10:49:51.000Z</time>
                <name>Trackpoint 2366</name>
            </trkpt>
            <trkpt lat="50.0537344" lon="10.9303952">
                <ele>250.0</ele>
                <time>2020-08-22T10:49:53.000Z</time>
                <name>Trackpoint 2367</name>
            </trkpt>
            <trkpt lat="50.0536608" lon="10.9303016">
                <ele>250.0</ele>
                <time>2020-08-22T10:49:55.000Z</time>
                <name>Trackpoint 2368</name>
            </trkpt>
            <trkpt lat="50.0535808" lon="10.9302168">
                <ele>250.0</ele>
                <time>2020-08-22T10:49:57.000Z</time>
                <name>Trackpoint 2369</name>
            </trkpt>
            <trkpt lat="50.0534944" lon="10.9301368">
                <ele>250.0</ele>
                <time>2020-08-22T10:49:59.000Z</time>
                <name>Trackpoint 2370</name>
            </trkpt>
            <trkpt lat="50.053408" lon="10.930052">
                <ele>250.0</ele>
                <time>2020-08-22T10:50:01.000Z</time>
                <name>Trackpoint 2371</name>
            </trkpt>
            <trkpt lat="50.0533248" lon="10.929968">
                <ele>250.0</ele>
                <time>2020-08-22T10:50:03.000Z</time>
                <name>Trackpoint 2372</name>
            </trkpt>
            <trkpt lat="50.0532384" lon="10.9298824">
                <ele>250.0</ele>
                <time>2020-08-22T10:50:05.000Z</time>
                <name>Trackpoint 2373</name>
            </trkpt>
            <trkpt lat="50.0531552" lon="10.9298016">
                <ele>250.0</ele>
                <time>2020-08-22T10:50:07.000Z</time>
                <name>Trackpoint 2374</name>
            </trkpt>
            <trkpt lat="50.0530752" lon="10.92972">
                <ele>250.0</ele>
                <time>2020-08-22T10:50:09.000Z</time>
                <name>Trackpoint 2375</name>
            </trkpt>
            <trkpt lat="50.0529856" lon="10.9296312">
                <ele>250.0</ele>
                <time>2020-08-22T10:50:11.000Z</time>
                <name>Trackpoint 2376</name>
            </trkpt>
            <trkpt lat="50.0528896" lon="10.9295456">
                <ele>250.0</ele>
                <time>2020-08-22T10:50:13.000Z</time>
                <name>Trackpoint 2377</name>
            </trkpt>
            <trkpt lat="50.0528" lon="10.9294568">
                <ele>250.0</ele>
                <time>2020-08-22T10:50:15.000Z</time>
                <name>Trackpoint 2378</name>
            </trkpt>
            <trkpt lat="50.052704" lon="10.929372">
                <ele>250.0</ele>
                <time>2020-08-22T10:50:17.000Z</time>
                <name>Trackpoint 2379</name>
            </trkpt>
            <trkpt lat="50.052608" lon="10.9292816">
                <ele>250.0</ele>
                <time>2020-08-22T10:50:19.000Z</time>
                <name>Trackpoint 2380</name>
            </trkpt>
            <trkpt lat="50.0525184" lon="10.9291896">
                <ele>250.0</ele>
                <time>2020-08-22T10:50:21.000Z</time>
                <name>Trackpoint 2381</name>
            </trkpt>
            <trkpt lat="50.0524448" lon="10.9291048">
                <ele>251.0</ele>
                <time>2020-08-22T10:50:23.000Z</time>
                <name>Trackpoint 2382</name>
            </trkpt>
            <trkpt lat="50.052384" lon="10.9290336">
                <ele>251.0</ele>
                <time>2020-08-22T10:50:25.000Z</time>
                <name>Trackpoint 2383</name>
            </trkpt>
            <trkpt lat="50.0523104" lon="10.9289752">
                <ele>251.0</ele>
                <time>2020-08-22T10:50:28.000Z</time>
                <name>Trackpoint 2384</name>
            </trkpt>
            <trkpt lat="50.052192" lon="10.928944">
                <ele>251.0</ele>
                <time>2020-08-22T10:50:31.000Z</time>
                <name>Trackpoint 2385</name>
            </trkpt>
            <trkpt lat="50.052096" lon="10.9289016">
                <ele>251.0</ele>
                <time>2020-08-22T10:50:33.000Z</time>
                <name>Trackpoint 2386</name>
            </trkpt>
            <trkpt lat="50.0519968" lon="10.9288328">
                <ele>251.0</ele>
                <time>2020-08-22T10:50:35.000Z</time>
                <name>Trackpoint 2387</name>
            </trkpt>
            <trkpt lat="50.0519104" lon="10.928748">
                <ele>251.0</ele>
                <time>2020-08-22T10:50:37.000Z</time>
                <name>Trackpoint 2388</name>
            </trkpt>
            <trkpt lat="50.0518144" lon="10.9286808">
                <ele>251.0</ele>
                <time>2020-08-22T10:50:39.000Z</time>
                <name>Trackpoint 2389</name>
            </trkpt>
            <trkpt lat="50.0517344" lon="10.9286072">
                <ele>251.0</ele>
                <time>2020-08-22T10:50:41.000Z</time>
                <name>Trackpoint 2390</name>
            </trkpt>
            <trkpt lat="50.0516704" lon="10.9285096">
                <ele>251.0</ele>
                <time>2020-08-22T10:50:44.000Z</time>
                <name>Trackpoint 2391</name>
            </trkpt>
            <trkpt lat="50.0515968" lon="10.9284384">
                <ele>250.0</ele>
                <time>2020-08-22T10:50:47.000Z</time>
                <name>Trackpoint 2392</name>
            </trkpt>
            <trkpt lat="50.0515104" lon="10.9283288">
                <ele>250.0</ele>
                <time>2020-08-22T10:50:50.000Z</time>
                <name>Trackpoint 2393</name>
            </trkpt>
            <trkpt lat="50.0514464" lon="10.92826">
                <ele>250.0</ele>
                <time>2020-08-22T10:50:52.000Z</time>
                <name>Trackpoint 2394</name>
            </trkpt>
            <trkpt lat="50.0513792" lon="10.9281864">
                <ele>250.0</ele>
                <time>2020-08-22T10:50:54.000Z</time>
                <name>Trackpoint 2395</name>
            </trkpt>
            <trkpt lat="50.051312" lon="10.9281016">
                <ele>250.0</ele>
                <time>2020-08-22T10:51:29.000Z</time>
                <name>Trackpoint 2396</name>
            </trkpt>
            <trkpt lat="50.0513696" lon="10.9281968">
                <ele>250.0</ele>
                <time>2020-08-22T10:51:35.000Z</time>
                <name>Trackpoint 2397</name>
            </trkpt>
            <trkpt lat="50.0514208" lon="10.9282776">
                <ele>250.0</ele>
                <time>2020-08-22T10:51:38.000Z</time>
                <name>Trackpoint 2398</name>
            </trkpt>
            <trkpt lat="50.0514944" lon="10.9283752">
                <ele>250.0</ele>
                <time>2020-08-22T10:51:41.000Z</time>
                <name>Trackpoint 2399</name>
            </trkpt>
            <trkpt lat="50.0515552" lon="10.9284752">
                <ele>250.0</ele>
                <time>2020-08-22T10:51:44.000Z</time>
                <name>Trackpoint 2400</name>
            </trkpt>
            <trkpt lat="50.0515776" lon="10.9285984">
                <ele>250.0</ele>
                <time>2020-08-22T10:51:47.000Z</time>
                <name>Trackpoint 2401</name>
            </trkpt>
            <trkpt lat="50.0515648" lon="10.928708">
                <ele>250.0</ele>
                <time>2020-08-22T10:51:49.000Z</time>
                <name>Trackpoint 2402</name>
            </trkpt>
            <trkpt lat="50.0515264" lon="10.92884">
                <ele>250.0</ele>
                <time>2020-08-22T10:51:51.000Z</time>
                <name>Trackpoint 2403</name>
            </trkpt>
            <trkpt lat="50.0514912" lon="10.928964">
                <ele>250.0</ele>
                <time>2020-08-22T10:51:53.000Z</time>
                <name>Trackpoint 2404</name>
            </trkpt>
            <trkpt lat="50.0514656" lon="10.9290736">
                <ele>250.0</ele>
                <time>2020-08-22T10:51:55.000Z</time>
                <name>Trackpoint 2405</name>
            </trkpt>
            <trkpt lat="50.0514336" lon="10.9292">
                <ele>250.0</ele>
                <time>2020-08-22T10:51:57.000Z</time>
                <name>Trackpoint 2406</name>
            </trkpt>
            <trkpt lat="50.0513984" lon="10.929332">
                <ele>250.0</ele>
                <time>2020-08-22T10:51:59.000Z</time>
                <name>Trackpoint 2407</name>
            </trkpt>
            <trkpt lat="50.0513568" lon="10.9294656">
                <ele>250.0</ele>
                <time>2020-08-22T10:52:01.000Z</time>
                <name>Trackpoint 2408</name>
            </trkpt>
            <trkpt lat="50.051328" lon="10.9296032">
                <ele>250.0</ele>
                <time>2020-08-22T10:52:03.000Z</time>
                <name>Trackpoint 2409</name>
            </trkpt>
            <trkpt lat="50.0512832" lon="10.9297336">
                <ele>250.0</ele>
                <time>2020-08-22T10:52:05.000Z</time>
                <name>Trackpoint 2410</name>
            </trkpt>
            <trkpt lat="50.051248" lon="10.929876">
                <ele>250.0</ele>
                <time>2020-08-22T10:52:07.000Z</time>
                <name>Trackpoint 2411</name>
            </trkpt>
            <trkpt lat="50.0512" lon="10.93002">
                <ele>250.0</ele>
                <time>2020-08-22T10:52:09.000Z</time>
                <name>Trackpoint 2412</name>
            </trkpt>
            <trkpt lat="50.0511488" lon="10.9301584">
                <ele>250.0</ele>
                <time>2020-08-22T10:52:11.000Z</time>
                <name>Trackpoint 2413</name>
            </trkpt>
            <trkpt lat="50.0510912" lon="10.9302928">
                <ele>250.0</ele>
                <time>2020-08-22T10:52:13.000Z</time>
                <name>Trackpoint 2414</name>
            </trkpt>
            <trkpt lat="50.0510208" lon="10.9304152">
                <ele>250.0</ele>
                <time>2020-08-22T10:52:15.000Z</time>
                <name>Trackpoint 2415</name>
            </trkpt>
            <trkpt lat="50.0509632" lon="10.930556">
                <ele>250.0</ele>
                <time>2020-08-22T10:52:17.000Z</time>
                <name>Trackpoint 2416</name>
            </trkpt>
            <trkpt lat="50.0509056" lon="10.9307">
                <ele>250.0</ele>
                <time>2020-08-22T10:52:19.000Z</time>
                <name>Trackpoint 2417</name>
            </trkpt>
            <trkpt lat="50.0508512" lon="10.9308384">
                <ele>250.0</ele>
                <time>2020-08-22T10:52:21.000Z</time>
                <name>Trackpoint 2418</name>
            </trkpt>
            <trkpt lat="50.0507968" lon="10.930968">
                <ele>250.0</ele>
                <time>2020-08-22T10:52:23.000Z</time>
                <name>Trackpoint 2419</name>
            </trkpt>
            <trkpt lat="50.0507424" lon="10.9310888">
                <ele>250.0</ele>
                <time>2020-08-22T10:52:25.000Z</time>
                <name>Trackpoint 2420</name>
            </trkpt>
            <trkpt lat="50.0506784" lon="10.9312136">
                <ele>250.0</ele>
                <time>2020-08-22T10:52:27.000Z</time>
                <name>Trackpoint 2421</name>
            </trkpt>
            <trkpt lat="50.0506144" lon="10.9313448">
                <ele>250.0</ele>
                <time>2020-08-22T10:52:29.000Z</time>
                <name>Trackpoint 2422</name>
            </trkpt>
            <trkpt lat="50.0505536" lon="10.9314784">
                <ele>250.0</ele>
                <time>2020-08-22T10:52:31.000Z</time>
                <name>Trackpoint 2423</name>
            </trkpt>
            <trkpt lat="50.050496" lon="10.9316168">
                <ele>250.0</ele>
                <time>2020-08-22T10:52:33.000Z</time>
                <name>Trackpoint 2424</name>
            </trkpt>
            <trkpt lat="50.0504288" lon="10.9317504">
                <ele>250.0</ele>
                <time>2020-08-22T10:52:35.000Z</time>
                <name>Trackpoint 2425</name>
            </trkpt>
            <trkpt lat="50.0503776" lon="10.9318952">
                <ele>250.0</ele>
                <time>2020-08-22T10:52:37.000Z</time>
                <name>Trackpoint 2426</name>
            </trkpt>
            <trkpt lat="50.0503136" lon="10.9320272">
                <ele>250.0</ele>
                <time>2020-08-22T10:52:39.000Z</time>
                <name>Trackpoint 2427</name>
            </trkpt>
            <trkpt lat="50.050256" lon="10.9321632">
                <ele>250.0</ele>
                <time>2020-08-22T10:52:41.000Z</time>
                <name>Trackpoint 2428</name>
            </trkpt>
            <trkpt lat="50.0501984" lon="10.9323">
                <ele>250.0</ele>
                <time>2020-08-22T10:52:43.000Z</time>
                <name>Trackpoint 2429</name>
            </trkpt>
            <trkpt lat="50.0501312" lon="10.9324304">
                <ele>250.0</ele>
                <time>2020-08-22T10:52:45.000Z</time>
                <name>Trackpoint 2430</name>
            </trkpt>
            <trkpt lat="50.0500768" lon="10.9325648">
                <ele>250.0</ele>
                <time>2020-08-22T10:52:47.000Z</time>
                <name>Trackpoint 2431</name>
            </trkpt>
            <trkpt lat="50.0500192" lon="10.9327024">
                <ele>250.0</ele>
                <time>2020-08-22T10:52:49.000Z</time>
                <name>Trackpoint 2432</name>
            </trkpt>
            <trkpt lat="50.0499616" lon="10.9328368">
                <ele>250.0</ele>
                <time>2020-08-22T10:52:51.000Z</time>
                <name>Trackpoint 2433</name>
            </trkpt>
            <trkpt lat="50.0499072" lon="10.9329704">
                <ele>250.0</ele>
                <time>2020-08-22T10:52:53.000Z</time>
                <name>Trackpoint 2434</name>
            </trkpt>
            <trkpt lat="50.0498528" lon="10.9331032">
                <ele>250.0</ele>
                <time>2020-08-22T10:52:55.000Z</time>
                <name>Trackpoint 2435</name>
            </trkpt>
            <trkpt lat="50.0498016" lon="10.9332312">
                <ele>250.0</ele>
                <time>2020-08-22T10:52:57.000Z</time>
                <name>Trackpoint 2436</name>
            </trkpt>
            <trkpt lat="50.0497472" lon="10.9333496">
                <ele>249.0</ele>
                <time>2020-08-22T10:52:59.000Z</time>
                <name>Trackpoint 2437</name>
            </trkpt>
            <trkpt lat="50.0497024" lon="10.9334568">
                <ele>249.0</ele>
                <time>2020-08-22T10:53:01.000Z</time>
                <name>Trackpoint 2438</name>
            </trkpt>
            <trkpt lat="50.0496608" lon="10.9335648">
                <ele>249.0</ele>
                <time>2020-08-22T10:53:03.000Z</time>
                <name>Trackpoint 2439</name>
            </trkpt>
            <trkpt lat="50.0496224" lon="10.9336792">
                <ele>249.0</ele>
                <time>2020-08-22T10:53:05.000Z</time>
                <name>Trackpoint 2440</name>
            </trkpt>
            <trkpt lat="50.0495936" lon="10.933788">
                <ele>249.0</ele>
                <time>2020-08-22T10:53:07.000Z</time>
                <name>Trackpoint 2441</name>
            </trkpt>
            <trkpt lat="50.049552" lon="10.933904">
                <ele>249.0</ele>
                <time>2020-08-22T10:53:10.000Z</time>
                <name>Trackpoint 2442</name>
            </trkpt>
            <trkpt lat="50.0495232" lon="10.933996">
                <ele>249.0</ele>
                <time>2020-08-22T10:53:41.000Z</time>
                <name>Trackpoint 2443</name>
            </trkpt>
            <trkpt lat="50.0494112" lon="10.934016">
                <ele>250.0</ele>
                <time>2020-08-22T10:53:46.000Z</time>
                <name>Trackpoint 2444</name>
            </trkpt>
            <trkpt lat="50.049312" lon="10.9340216">
                <ele>250.0</ele>
                <time>2020-08-22T10:53:50.000Z</time>
                <name>Trackpoint 2445</name>
            </trkpt>
            <trkpt lat="50.049216" lon="10.9340248">
                <ele>248.0</ele>
                <time>2020-08-22T10:54:14.000Z</time>
                <name>Trackpoint 2446</name>
            </trkpt>
            <trkpt lat="50.0490976" lon="10.9340152">
                <ele>248.0</ele>
                <time>2020-08-22T10:54:18.000Z</time>
                <name>Trackpoint 2447</name>
            </trkpt>
            <trkpt lat="50.0489856" lon="10.9340048">
                <ele>248.0</ele>
                <time>2020-08-22T10:54:21.000Z</time>
                <name>Trackpoint 2448</name>
            </trkpt>
            <trkpt lat="50.048864" lon="10.9340184">
                <ele>248.0</ele>
                <time>2020-08-22T10:54:24.000Z</time>
                <name>Trackpoint 2449</name>
            </trkpt>
            <trkpt lat="50.048736" lon="10.9340432">
                <ele>247.0</ele>
                <time>2020-08-22T10:54:27.000Z</time>
                <name>Trackpoint 2450</name>
            </trkpt>
            <trkpt lat="50.0486464" lon="10.9340712">
                <ele>247.0</ele>
                <time>2020-08-22T10:54:29.000Z</time>
                <name>Trackpoint 2451</name>
            </trkpt>
            <trkpt lat="50.0485536" lon="10.9341072">
                <ele>247.0</ele>
                <time>2020-08-22T10:54:31.000Z</time>
                <name>Trackpoint 2452</name>
            </trkpt>
            <trkpt lat="50.0484608" lon="10.9341424">
                <ele>247.0</ele>
                <time>2020-08-22T10:54:33.000Z</time>
                <name>Trackpoint 2453</name>
            </trkpt>
            <trkpt lat="50.0483744" lon="10.93418">
                <ele>247.0</ele>
                <time>2020-08-22T10:54:35.000Z</time>
                <name>Trackpoint 2454</name>
            </trkpt>
            <trkpt lat="50.0482816" lon="10.9342184">
                <ele>247.0</ele>
                <time>2020-08-22T10:54:37.000Z</time>
                <name>Trackpoint 2455</name>
            </trkpt>
            <trkpt lat="50.0481952" lon="10.93426">
                <ele>247.0</ele>
                <time>2020-08-22T10:54:39.000Z</time>
                <name>Trackpoint 2456</name>
            </trkpt>
            <trkpt lat="50.0481024" lon="10.9342968">
                <ele>247.0</ele>
                <time>2020-08-22T10:54:41.000Z</time>
                <name>Trackpoint 2457</name>
            </trkpt>
            <trkpt lat="50.0480128" lon="10.9343392">
                <ele>247.0</ele>
                <time>2020-08-22T10:54:43.000Z</time>
                <name>Trackpoint 2458</name>
            </trkpt>
            <trkpt lat="50.04792" lon="10.9343792">
                <ele>247.0</ele>
                <time>2020-08-22T10:54:45.000Z</time>
                <name>Trackpoint 2459</name>
            </trkpt>
            <trkpt lat="50.047824" lon="10.9344168">
                <ele>247.0</ele>
                <time>2020-08-22T10:54:47.000Z</time>
                <name>Trackpoint 2460</name>
            </trkpt>
            <trkpt lat="50.047728" lon="10.934452">
                <ele>247.0</ele>
                <time>2020-08-22T10:54:49.000Z</time>
                <name>Trackpoint 2461</name>
            </trkpt>
            <trkpt lat="50.0476352" lon="10.9344816">
                <ele>247.0</ele>
                <time>2020-08-22T10:54:51.000Z</time>
                <name>Trackpoint 2462</name>
            </trkpt>
            <trkpt lat="50.0475424" lon="10.9345056">
                <ele>247.0</ele>
                <time>2020-08-22T10:54:53.000Z</time>
                <name>Trackpoint 2463</name>
            </trkpt>
            <trkpt lat="50.0474176" lon="10.9345448">
                <ele>248.0</ele>
                <time>2020-08-22T10:54:56.000Z</time>
                <name>Trackpoint 2464</name>
            </trkpt>
            <trkpt lat="50.0472896" lon="10.9345816">
                <ele>248.0</ele>
                <time>2020-08-22T10:54:59.000Z</time>
                <name>Trackpoint 2465</name>
            </trkpt>
            <trkpt lat="50.0471712" lon="10.9346464">
                <ele>248.0</ele>
                <time>2020-08-22T10:55:02.000Z</time>
                <name>Trackpoint 2466</name>
            </trkpt>
            <trkpt lat="50.0470688" lon="10.9347312">
                <ele>248.0</ele>
                <time>2020-08-22T10:55:05.000Z</time>
                <name>Trackpoint 2467</name>
            </trkpt>
            <trkpt lat="50.0470016" lon="10.9347984">
                <ele>247.0</ele>
                <time>2020-08-22T10:55:07.000Z</time>
                <name>Trackpoint 2468</name>
            </trkpt>
            <trkpt lat="50.0469408" lon="10.9348672">
                <ele>246.0</ele>
                <time>2020-08-22T10:55:09.000Z</time>
                <name>Trackpoint 2469</name>
            </trkpt>
            <trkpt lat="50.0468416" lon="10.9349432">
                <ele>246.0</ele>
                <time>2020-08-22T10:55:12.000Z</time>
                <name>Trackpoint 2470</name>
            </trkpt>
            <trkpt lat="50.0467392" lon="10.934968">
                <ele>246.0</ele>
                <time>2020-08-22T10:55:15.000Z</time>
                <name>Trackpoint 2471</name>
            </trkpt>
            <trkpt lat="50.04664" lon="10.9349472">
                <ele>246.0</ele>
                <time>2020-08-22T10:55:18.000Z</time>
                <name>Trackpoint 2472</name>
            </trkpt>
            <trkpt lat="50.0465536" lon="10.934912">
                <ele>246.0</ele>
                <time>2020-08-22T10:55:21.000Z</time>
                <name>Trackpoint 2473</name>
            </trkpt>
            <trkpt lat="50.0464928" lon="10.9348296">
                <ele>247.0</ele>
                <time>2020-08-22T10:55:50.000Z</time>
                <name>Trackpoint 2474</name>
            </trkpt>
            <trkpt lat="50.0464128" lon="10.93476">
                <ele>247.0</ele>
                <time>2020-08-22T10:55:54.000Z</time>
                <name>Trackpoint 2475</name>
            </trkpt>
            <trkpt lat="50.0463456" lon="10.9346952">
                <ele>247.0</ele>
                <time>2020-08-22T10:55:57.000Z</time>
                <name>Trackpoint 2476</name>
            </trkpt>
            <trkpt lat="50.0462432" lon="10.9346112">
                <ele>247.0</ele>
                <time>2020-08-22T10:56:00.000Z</time>
                <name>Trackpoint 2477</name>
            </trkpt>
            <trkpt lat="50.046176" lon="10.9345376">
                <ele>247.0</ele>
                <time>2020-08-22T10:56:02.000Z</time>
                <name>Trackpoint 2478</name>
            </trkpt>
            <trkpt lat="50.0461088" lon="10.9344568">
                <ele>247.0</ele>
                <time>2020-08-22T10:56:04.000Z</time>
                <name>Trackpoint 2479</name>
            </trkpt>
            <trkpt lat="50.0460352" lon="10.9343792">
                <ele>248.0</ele>
                <time>2020-08-22T10:56:06.000Z</time>
                <name>Trackpoint 2480</name>
            </trkpt>
            <trkpt lat="50.0459584" lon="10.9343008">
                <ele>248.0</ele>
                <time>2020-08-22T10:56:08.000Z</time>
                <name>Trackpoint 2481</name>
            </trkpt>
            <trkpt lat="50.0458752" lon="10.9342144">
                <ele>248.0</ele>
                <time>2020-08-22T10:56:10.000Z</time>
                <name>Trackpoint 2482</name>
            </trkpt>
            <trkpt lat="50.045792" lon="10.9341288">
                <ele>247.0</ele>
                <time>2020-08-22T10:56:12.000Z</time>
                <name>Trackpoint 2483</name>
            </trkpt>
            <trkpt lat="50.0457088" lon="10.93404">
                <ele>247.0</ele>
                <time>2020-08-22T10:56:14.000Z</time>
                <name>Trackpoint 2484</name>
            </trkpt>
            <trkpt lat="50.0456192" lon="10.9339568">
                <ele>247.0</ele>
                <time>2020-08-22T10:56:16.000Z</time>
                <name>Trackpoint 2485</name>
            </trkpt>
            <trkpt lat="50.045536" lon="10.9338712">
                <ele>247.0</ele>
                <time>2020-08-22T10:56:18.000Z</time>
                <name>Trackpoint 2486</name>
            </trkpt>
            <trkpt lat="50.045456" lon="10.9337864">
                <ele>247.0</ele>
                <time>2020-08-22T10:56:20.000Z</time>
                <name>Trackpoint 2487</name>
            </trkpt>
            <trkpt lat="50.0453696" lon="10.9337032">
                <ele>247.0</ele>
                <time>2020-08-22T10:56:22.000Z</time>
                <name>Trackpoint 2488</name>
            </trkpt>
            <trkpt lat="50.0452768" lon="10.9336168">
                <ele>247.0</ele>
                <time>2020-08-22T10:56:24.000Z</time>
                <name>Trackpoint 2489</name>
            </trkpt>
            <trkpt lat="50.0451936" lon="10.93354">
                <ele>247.0</ele>
                <time>2020-08-22T10:56:26.000Z</time>
                <name>Trackpoint 2490</name>
            </trkpt>
            <trkpt lat="50.04512" lon="10.9334568">
                <ele>247.0</ele>
                <time>2020-08-22T10:56:28.000Z</time>
                <name>Trackpoint 2491</name>
            </trkpt>
            <trkpt lat="50.0450528" lon="10.9333664">
                <ele>247.0</ele>
                <time>2020-08-22T10:56:30.000Z</time>
                <name>Trackpoint 2492</name>
            </trkpt>
            <trkpt lat="50.0449984" lon="10.9332536">
                <ele>246.0</ele>
                <time>2020-08-22T10:56:32.000Z</time>
                <name>Trackpoint 2493</name>
            </trkpt>
            <trkpt lat="50.0449568" lon="10.9331328">
                <ele>246.0</ele>
                <time>2020-08-22T10:56:34.000Z</time>
                <name>Trackpoint 2494</name>
            </trkpt>
            <trkpt lat="50.0449184" lon="10.9330032">
                <ele>246.0</ele>
                <time>2020-08-22T10:56:36.000Z</time>
                <name>Trackpoint 2495</name>
            </trkpt>
            <trkpt lat="50.0448864" lon="10.9328808">
                <ele>246.0</ele>
                <time>2020-08-22T10:56:38.000Z</time>
                <name>Trackpoint 2496</name>
            </trkpt>
            <trkpt lat="50.0448576" lon="10.93274">
                <ele>246.0</ele>
                <time>2020-08-22T10:56:40.000Z</time>
                <name>Trackpoint 2497</name>
            </trkpt>
            <trkpt lat="50.044816" lon="10.9326032">
                <ele>246.0</ele>
                <time>2020-08-22T10:56:42.000Z</time>
                <name>Trackpoint 2498</name>
            </trkpt>
            <trkpt lat="50.0447744" lon="10.9324664">
                <ele>246.0</ele>
                <time>2020-08-22T10:56:44.000Z</time>
                <name>Trackpoint 2499</name>
            </trkpt>
            <trkpt lat="50.0447264" lon="10.9323384">
                <ele>246.0</ele>
                <time>2020-08-22T10:56:46.000Z</time>
                <name>Trackpoint 2500</name>
            </trkpt>
            <trkpt lat="50.044688" lon="10.9322368">
                <ele>246.0</ele>
                <time>2020-08-22T10:56:48.000Z</time>
                <name>Trackpoint 2501</name>
            </trkpt>
            <trkpt lat="50.0446272" lon="10.9321296">
                <ele>246.0</ele>
                <time>2020-08-22T10:56:50.000Z</time>
                <name>Trackpoint 2502</name>
            </trkpt>
            <trkpt lat="50.04456" lon="10.9320152">
                <ele>246.0</ele>
                <time>2020-08-22T10:56:52.000Z</time>
                <name>Trackpoint 2503</name>
            </trkpt>
            <trkpt lat="50.0444896" lon="10.9319048">
                <ele>246.0</ele>
                <time>2020-08-22T10:56:54.000Z</time>
                <name>Trackpoint 2504</name>
            </trkpt>
            <trkpt lat="50.0444224" lon="10.931804">
                <ele>246.0</ele>
                <time>2020-08-22T10:56:56.000Z</time>
                <name>Trackpoint 2505</name>
            </trkpt>
            <trkpt lat="50.044336" lon="10.9317016">
                <ele>246.0</ele>
                <time>2020-08-22T10:56:58.000Z</time>
                <name>Trackpoint 2506</name>
            </trkpt>
            <trkpt lat="50.0442464" lon="10.9316016">
                <ele>246.0</ele>
                <time>2020-08-22T10:57:00.000Z</time>
                <name>Trackpoint 2507</name>
            </trkpt>
            <trkpt lat="50.0441664" lon="10.9315256">
                <ele>246.0</ele>
                <time>2020-08-22T10:57:02.000Z</time>
                <name>Trackpoint 2508</name>
            </trkpt>
            <trkpt lat="50.0440736" lon="10.931448">
                <ele>246.0</ele>
                <time>2020-08-22T10:57:04.000Z</time>
                <name>Trackpoint 2509</name>
            </trkpt>
            <trkpt lat="50.0439872" lon="10.9313648">
                <ele>245.0</ele>
                <time>2020-08-22T10:57:06.000Z</time>
                <name>Trackpoint 2510</name>
            </trkpt>
            <trkpt lat="50.0438912" lon="10.9312784">
                <ele>245.0</ele>
                <time>2020-08-22T10:57:08.000Z</time>
                <name>Trackpoint 2511</name>
            </trkpt>
            <trkpt lat="50.043792" lon="10.9312088">
                <ele>245.0</ele>
                <time>2020-08-22T10:57:10.000Z</time>
                <name>Trackpoint 2512</name>
            </trkpt>
            <trkpt lat="50.0436864" lon="10.9311352">
                <ele>245.0</ele>
                <time>2020-08-22T10:57:12.000Z</time>
                <name>Trackpoint 2513</name>
            </trkpt>
            <trkpt lat="50.0435744" lon="10.9310752">
                <ele>245.0</ele>
                <time>2020-08-22T10:57:14.000Z</time>
                <name>Trackpoint 2514</name>
            </trkpt>
            <trkpt lat="50.0434688" lon="10.9310328">
                <ele>245.0</ele>
                <time>2020-08-22T10:57:16.000Z</time>
                <name>Trackpoint 2515</name>
            </trkpt>
            <trkpt lat="50.0433632" lon="10.9309904">
                <ele>245.0</ele>
                <time>2020-08-22T10:57:18.000Z</time>
                <name>Trackpoint 2516</name>
            </trkpt>
            <trkpt lat="50.0432576" lon="10.9309456">
                <ele>245.0</ele>
                <time>2020-08-22T10:57:20.000Z</time>
                <name>Trackpoint 2517</name>
            </trkpt>
            <trkpt lat="50.0431552" lon="10.9309032">
                <ele>245.0</ele>
                <time>2020-08-22T10:57:22.000Z</time>
                <name>Trackpoint 2518</name>
            </trkpt>
            <trkpt lat="50.0430528" lon="10.930868">
                <ele>245.0</ele>
                <time>2020-08-22T10:57:24.000Z</time>
                <name>Trackpoint 2519</name>
            </trkpt>
            <trkpt lat="50.0429376" lon="10.930848">
                <ele>245.0</ele>
                <time>2020-08-22T10:57:26.000Z</time>
                <name>Trackpoint 2520</name>
            </trkpt>
            <trkpt lat="50.042832" lon="10.9308416">
                <ele>245.0</ele>
                <time>2020-08-22T10:57:28.000Z</time>
                <name>Trackpoint 2521</name>
            </trkpt>
            <trkpt lat="50.0427232" lon="10.9308616">
                <ele>244.0</ele>
                <time>2020-08-22T10:57:30.000Z</time>
                <name>Trackpoint 2522</name>
            </trkpt>
            <trkpt lat="50.0426208" lon="10.9309032">
                <ele>244.0</ele>
                <time>2020-08-22T10:57:32.000Z</time>
                <name>Trackpoint 2523</name>
            </trkpt>
            <trkpt lat="50.0425184" lon="10.9309528">
                <ele>244.0</ele>
                <time>2020-08-22T10:57:34.000Z</time>
                <name>Trackpoint 2524</name>
            </trkpt>
            <trkpt lat="50.0424224" lon="10.9310064">
                <ele>244.0</ele>
                <time>2020-08-22T10:57:36.000Z</time>
                <name>Trackpoint 2525</name>
            </trkpt>
            <trkpt lat="50.04232" lon="10.93102">
                <ele>244.0</ele>
                <time>2020-08-22T10:57:38.000Z</time>
                <name>Trackpoint 2526</name>
            </trkpt>
            <trkpt lat="50.0422336" lon="10.9309632">
                <ele>244.0</ele>
                <time>2020-08-22T10:57:40.000Z</time>
                <name>Trackpoint 2527</name>
            </trkpt>
            <trkpt lat="50.0421664" lon="10.9308504">
                <ele>244.0</ele>
                <time>2020-08-22T10:57:42.000Z</time>
                <name>Trackpoint 2528</name>
            </trkpt>
            <trkpt lat="50.0421056" lon="10.930708">
                <ele>244.0</ele>
                <time>2020-08-22T10:57:44.000Z</time>
                <name>Trackpoint 2529</name>
            </trkpt>
            <trkpt lat="50.0420384" lon="10.930576">
                <ele>244.0</ele>
                <time>2020-08-22T10:57:46.000Z</time>
                <name>Trackpoint 2530</name>
            </trkpt>
            <trkpt lat="50.0419744" lon="10.9304464">
                <ele>244.0</ele>
                <time>2020-08-22T10:57:48.000Z</time>
                <name>Trackpoint 2531</name>
            </trkpt>
            <trkpt lat="50.0419072" lon="10.9303168">
                <ele>244.0</ele>
                <time>2020-08-22T10:57:50.000Z</time>
                <name>Trackpoint 2532</name>
            </trkpt>
            <trkpt lat="50.0418432" lon="10.9301856">
                <ele>244.0</ele>
                <time>2020-08-22T10:57:52.000Z</time>
                <name>Trackpoint 2533</name>
            </trkpt>
            <trkpt lat="50.0417696" lon="10.9300544">
                <ele>244.0</ele>
                <time>2020-08-22T10:57:54.000Z</time>
                <name>Trackpoint 2534</name>
            </trkpt>
            <trkpt lat="50.0416992" lon="10.9299424">
                <ele>245.0</ele>
                <time>2020-08-22T10:57:56.000Z</time>
                <name>Trackpoint 2535</name>
            </trkpt>
            <trkpt lat="50.0416192" lon="10.9298488">
                <ele>245.0</ele>
                <time>2020-08-22T10:57:58.000Z</time>
                <name>Trackpoint 2536</name>
            </trkpt>
            <trkpt lat="50.0415264" lon="10.9297688">
                <ele>245.0</ele>
                <time>2020-08-22T10:58:00.000Z</time>
                <name>Trackpoint 2537</name>
            </trkpt>
            <trkpt lat="50.041424" lon="10.9296888">
                <ele>245.0</ele>
                <time>2020-08-22T10:58:02.000Z</time>
                <name>Trackpoint 2538</name>
            </trkpt>
            <trkpt lat="50.0413248" lon="10.9296128">
                <ele>245.0</ele>
                <time>2020-08-22T10:58:04.000Z</time>
                <name>Trackpoint 2539</name>
            </trkpt>
            <trkpt lat="50.0412224" lon="10.9295568">
                <ele>245.0</ele>
                <time>2020-08-22T10:58:06.000Z</time>
                <name>Trackpoint 2540</name>
            </trkpt>
            <trkpt lat="50.0411136" lon="10.9295104">
                <ele>245.0</ele>
                <time>2020-08-22T10:58:08.000Z</time>
                <name>Trackpoint 2541</name>
            </trkpt>
            <trkpt lat="50.0410048" lon="10.9294768">
                <ele>245.0</ele>
                <time>2020-08-22T10:58:10.000Z</time>
                <name>Trackpoint 2542</name>
            </trkpt>
            <trkpt lat="50.0408928" lon="10.9294552">
                <ele>245.0</ele>
                <time>2020-08-22T10:58:12.000Z</time>
                <name>Trackpoint 2543</name>
            </trkpt>
            <trkpt lat="50.0407776" lon="10.9294464">
                <ele>245.0</ele>
                <time>2020-08-22T10:58:14.000Z</time>
                <name>Trackpoint 2544</name>
            </trkpt>
            <trkpt lat="50.0406656" lon="10.9294504">
                <ele>245.0</ele>
                <time>2020-08-22T10:58:16.000Z</time>
                <name>Trackpoint 2545</name>
            </trkpt>
            <trkpt lat="50.0405568" lon="10.9294528">
                <ele>245.0</ele>
                <time>2020-08-22T10:58:18.000Z</time>
                <name>Trackpoint 2546</name>
            </trkpt>
            <trkpt lat="50.0404512" lon="10.9294584">
                <ele>245.0</ele>
                <time>2020-08-22T10:58:20.000Z</time>
                <name>Trackpoint 2547</name>
            </trkpt>
            <trkpt lat="50.0403488" lon="10.9294632">
                <ele>245.0</ele>
                <time>2020-08-22T10:58:22.000Z</time>
                <name>Trackpoint 2548</name>
            </trkpt>
            <trkpt lat="50.0402368" lon="10.929472">
                <ele>245.0</ele>
                <time>2020-08-22T10:58:24.000Z</time>
                <name>Trackpoint 2549</name>
            </trkpt>
            <trkpt lat="50.0401312" lon="10.9294968">
                <ele>245.0</ele>
                <time>2020-08-22T10:58:26.000Z</time>
                <name>Trackpoint 2550</name>
            </trkpt>
            <trkpt lat="50.0400288" lon="10.9295416">
                <ele>245.0</ele>
                <time>2020-08-22T10:58:28.000Z</time>
                <name>Trackpoint 2551</name>
            </trkpt>
            <trkpt lat="50.0399232" lon="10.9296">
                <ele>245.0</ele>
                <time>2020-08-22T10:58:30.000Z</time>
                <name>Trackpoint 2552</name>
            </trkpt>
            <trkpt lat="50.0398208" lon="10.9296648">
                <ele>245.0</ele>
                <time>2020-08-22T10:58:32.000Z</time>
                <name>Trackpoint 2553</name>
            </trkpt>
            <trkpt lat="50.0397248" lon="10.9297368">
                <ele>245.0</ele>
                <time>2020-08-22T10:58:34.000Z</time>
                <name>Trackpoint 2554</name>
            </trkpt>
            <trkpt lat="50.039632" lon="10.9298152">
                <ele>244.0</ele>
                <time>2020-08-22T10:58:36.000Z</time>
                <name>Trackpoint 2555</name>
            </trkpt>
            <trkpt lat="50.0395424" lon="10.9299096">
                <ele>244.0</ele>
                <time>2020-08-22T10:58:38.000Z</time>
                <name>Trackpoint 2556</name>
            </trkpt>
            <trkpt lat="50.0394528" lon="10.9299968">
                <ele>244.0</ele>
                <time>2020-08-22T10:58:40.000Z</time>
                <name>Trackpoint 2557</name>
            </trkpt>
            <trkpt lat="50.0393632" lon="10.9300816">
                <ele>245.0</ele>
                <time>2020-08-22T10:58:42.000Z</time>
                <name>Trackpoint 2558</name>
            </trkpt>
            <trkpt lat="50.0392768" lon="10.9301656">
                <ele>245.0</ele>
                <time>2020-08-22T10:58:44.000Z</time>
                <name>Trackpoint 2559</name>
            </trkpt>
            <trkpt lat="50.0391872" lon="10.930252">
                <ele>244.0</ele>
                <time>2020-08-22T10:58:46.000Z</time>
                <name>Trackpoint 2560</name>
            </trkpt>
            <trkpt lat="50.0391072" lon="10.9303352">
                <ele>244.0</ele>
                <time>2020-08-22T10:58:48.000Z</time>
                <name>Trackpoint 2561</name>
            </trkpt>
            <trkpt lat="50.039024" lon="10.9304152">
                <ele>244.0</ele>
                <time>2020-08-22T10:58:50.000Z</time>
                <name>Trackpoint 2562</name>
            </trkpt>
            <trkpt lat="50.0389344" lon="10.9304848">
                <ele>243.0</ele>
                <time>2020-08-22T10:58:52.000Z</time>
                <name>Trackpoint 2563</name>
            </trkpt>
            <trkpt lat="50.0388384" lon="10.930536">
                <ele>243.0</ele>
                <time>2020-08-22T10:58:54.000Z</time>
                <name>Trackpoint 2564</name>
            </trkpt>
            <trkpt lat="50.0387392" lon="10.9305664">
                <ele>243.0</ele>
                <time>2020-08-22T10:58:56.000Z</time>
                <name>Trackpoint 2565</name>
            </trkpt>
            <trkpt lat="50.0386464" lon="10.9305752">
                <ele>243.0</ele>
                <time>2020-08-22T10:58:58.000Z</time>
                <name>Trackpoint 2566</name>
            </trkpt>
            <trkpt lat="50.0385248" lon="10.9305664">
                <ele>244.0</ele>
                <time>2020-08-22T10:59:01.000Z</time>
                <name>Trackpoint 2567</name>
            </trkpt>
            <trkpt lat="50.0384128" lon="10.9305536">
                <ele>244.0</ele>
                <time>2020-08-22T10:59:04.000Z</time>
                <name>Trackpoint 2568</name>
            </trkpt>
            <trkpt lat="50.0383072" lon="10.9305152">
                <ele>244.0</ele>
                <time>2020-08-22T10:59:08.000Z</time>
                <name>Trackpoint 2569</name>
            </trkpt>
            <trkpt lat="50.0382208" lon="10.9304848">
                <ele>245.0</ele>
                <time>2020-08-22T11:00:00.000Z</time>
                <name>Trackpoint 2570</name>
            </trkpt>
            <trkpt lat="50.0381312" lon="10.9304704">
                <ele>245.0</ele>
                <time>2020-08-22T11:00:03.000Z</time>
                <name>Trackpoint 2571</name>
            </trkpt>
            <trkpt lat="50.038016" lon="10.9304552">
                <ele>245.0</ele>
                <time>2020-08-22T11:00:06.000Z</time>
                <name>Trackpoint 2572</name>
            </trkpt>
            <trkpt lat="50.0378944" lon="10.9304288">
                <ele>245.0</ele>
                <time>2020-08-22T11:00:09.000Z</time>
                <name>Trackpoint 2573</name>
            </trkpt>
            <trkpt lat="50.0377664" lon="10.9303976">
                <ele>246.0</ele>
                <time>2020-08-22T11:00:12.000Z</time>
                <name>Trackpoint 2574</name>
            </trkpt>
            <trkpt lat="50.0376768" lon="10.930384">
                <ele>246.0</ele>
                <time>2020-08-22T11:00:14.000Z</time>
                <name>Trackpoint 2575</name>
            </trkpt>
            <trkpt lat="50.0375872" lon="10.93036">
                <ele>246.0</ele>
                <time>2020-08-22T11:00:16.000Z</time>
                <name>Trackpoint 2576</name>
            </trkpt>
            <trkpt lat="50.0374944" lon="10.9303328">
                <ele>246.0</ele>
                <time>2020-08-22T11:00:18.000Z</time>
                <name>Trackpoint 2577</name>
            </trkpt>
            <trkpt lat="50.0373984" lon="10.9303152">
                <ele>246.0</ele>
                <time>2020-08-22T11:00:20.000Z</time>
                <name>Trackpoint 2578</name>
            </trkpt>
            <trkpt lat="50.0373024" lon="10.930308">
                <ele>246.0</ele>
                <time>2020-08-22T11:00:22.000Z</time>
                <name>Trackpoint 2579</name>
            </trkpt>
            <trkpt lat="50.0372096" lon="10.9302904">
                <ele>246.0</ele>
                <time>2020-08-22T11:00:24.000Z</time>
                <name>Trackpoint 2580</name>
            </trkpt>
            <trkpt lat="50.03712" lon="10.9302616">
                <ele>246.0</ele>
                <time>2020-08-22T11:00:26.000Z</time>
                <name>Trackpoint 2581</name>
            </trkpt>
            <trkpt lat="50.0370304" lon="10.930228">
                <ele>245.0</ele>
                <time>2020-08-22T11:00:28.000Z</time>
                <name>Trackpoint 2582</name>
            </trkpt>
            <trkpt lat="50.0369344" lon="10.9302064">
                <ele>245.0</ele>
                <time>2020-08-22T11:00:30.000Z</time>
                <name>Trackpoint 2583</name>
            </trkpt>
            <trkpt lat="50.0368384" lon="10.9301904">
                <ele>245.0</ele>
                <time>2020-08-22T11:00:32.000Z</time>
                <name>Trackpoint 2584</name>
            </trkpt>
            <trkpt lat="50.0367392" lon="10.9301664">
                <ele>245.0</ele>
                <time>2020-08-22T11:00:34.000Z</time>
                <name>Trackpoint 2585</name>
            </trkpt>
            <trkpt lat="50.0366464" lon="10.9301392">
                <ele>245.0</ele>
                <time>2020-08-22T11:00:36.000Z</time>
                <name>Trackpoint 2586</name>
            </trkpt>
            <trkpt lat="50.0365472" lon="10.9301208">
                <ele>245.0</ele>
                <time>2020-08-22T11:00:38.000Z</time>
                <name>Trackpoint 2587</name>
            </trkpt>
            <trkpt lat="50.0364544" lon="10.9301016">
                <ele>245.0</ele>
                <time>2020-08-22T11:00:40.000Z</time>
                <name>Trackpoint 2588</name>
            </trkpt>
            <trkpt lat="50.0363616" lon="10.9300744">
                <ele>245.0</ele>
                <time>2020-08-22T11:00:42.000Z</time>
                <name>Trackpoint 2589</name>
            </trkpt>
            <trkpt lat="50.0362656" lon="10.930032">
                <ele>245.0</ele>
                <time>2020-08-22T11:00:44.000Z</time>
                <name>Trackpoint 2590</name>
            </trkpt>
            <trkpt lat="50.0361696" lon="10.9299936">
                <ele>245.0</ele>
                <time>2020-08-22T11:00:46.000Z</time>
                <name>Trackpoint 2591</name>
            </trkpt>
            <trkpt lat="50.0360768" lon="10.9299472">
                <ele>245.0</ele>
                <time>2020-08-22T11:00:48.000Z</time>
                <name>Trackpoint 2592</name>
            </trkpt>
            <trkpt lat="50.035984" lon="10.9298952">
                <ele>244.0</ele>
                <time>2020-08-22T11:00:50.000Z</time>
                <name>Trackpoint 2593</name>
            </trkpt>
            <trkpt lat="50.0358912" lon="10.9298384">
                <ele>245.0</ele>
                <time>2020-08-22T11:00:52.000Z</time>
                <name>Trackpoint 2594</name>
            </trkpt>
            <trkpt lat="50.035808" lon="10.9297832">
                <ele>245.0</ele>
                <time>2020-08-22T11:00:54.000Z</time>
                <name>Trackpoint 2595</name>
            </trkpt>
            <trkpt lat="50.035728" lon="10.9297304">
                <ele>245.0</ele>
                <time>2020-08-22T11:00:56.000Z</time>
                <name>Trackpoint 2596</name>
            </trkpt>
            <trkpt lat="50.0356512" lon="10.9296816">
                <ele>245.0</ele>
                <time>2020-08-22T11:00:58.000Z</time>
                <name>Trackpoint 2597</name>
            </trkpt>
            <trkpt lat="50.0355712" lon="10.9296304">
                <ele>244.0</ele>
                <time>2020-08-22T11:01:00.000Z</time>
                <name>Trackpoint 2598</name>
            </trkpt>
            <trkpt lat="50.0354848" lon="10.9295784">
                <ele>244.0</ele>
                <time>2020-08-22T11:01:02.000Z</time>
                <name>Trackpoint 2599</name>
            </trkpt>
            <trkpt lat="50.0353856" lon="10.929532">
                <ele>244.0</ele>
                <time>2020-08-22T11:01:04.000Z</time>
                <name>Trackpoint 2600</name>
            </trkpt>
            <trkpt lat="50.0352896" lon="10.9294704">
                <ele>244.0</ele>
                <time>2020-08-22T11:01:06.000Z</time>
                <name>Trackpoint 2601</name>
            </trkpt>
            <trkpt lat="50.0351872" lon="10.9294096">
                <ele>244.0</ele>
                <time>2020-08-22T11:01:08.000Z</time>
                <name>Trackpoint 2602</name>
            </trkpt>
            <trkpt lat="50.0350848" lon="10.9293496">
                <ele>244.0</ele>
                <time>2020-08-22T11:01:10.000Z</time>
                <name>Trackpoint 2603</name>
            </trkpt>
            <trkpt lat="50.0349856" lon="10.9292832">
                <ele>245.0</ele>
                <time>2020-08-22T11:01:12.000Z</time>
                <name>Trackpoint 2604</name>
            </trkpt>
            <trkpt lat="50.03488" lon="10.9292152">
                <ele>244.0</ele>
                <time>2020-08-22T11:01:14.000Z</time>
                <name>Trackpoint 2605</name>
            </trkpt>
            <trkpt lat="50.034784" lon="10.9291536">
                <ele>244.0</ele>
                <time>2020-08-22T11:01:16.000Z</time>
                <name>Trackpoint 2606</name>
            </trkpt>
            <trkpt lat="50.0346784" lon="10.9290936">
                <ele>245.0</ele>
                <time>2020-08-22T11:01:18.000Z</time>
                <name>Trackpoint 2607</name>
            </trkpt>
            <trkpt lat="50.034576" lon="10.9290312">
                <ele>244.0</ele>
                <time>2020-08-22T11:01:20.000Z</time>
                <name>Trackpoint 2608</name>
            </trkpt>
            <trkpt lat="50.0344768" lon="10.9289664">
                <ele>244.0</ele>
                <time>2020-08-22T11:01:22.000Z</time>
                <name>Trackpoint 2609</name>
            </trkpt>
            <trkpt lat="50.0343808" lon="10.9289">
                <ele>244.0</ele>
                <time>2020-08-22T11:01:24.000Z</time>
                <name>Trackpoint 2610</name>
            </trkpt>
            <trkpt lat="50.034288" lon="10.92886">
                <ele>244.0</ele>
                <time>2020-08-22T11:01:26.000Z</time>
                <name>Trackpoint 2611</name>
            </trkpt>
            <trkpt lat="50.0342016" lon="10.9289104">
                <ele>244.0</ele>
                <time>2020-08-22T11:01:28.000Z</time>
                <name>Trackpoint 2612</name>
            </trkpt>
            <trkpt lat="50.0341344" lon="10.9290216">
                <ele>243.0</ele>
                <time>2020-08-22T11:01:30.000Z</time>
                <name>Trackpoint 2613</name>
            </trkpt>
            <trkpt lat="50.0340896" lon="10.9291632">
                <ele>243.0</ele>
                <time>2020-08-22T11:01:32.000Z</time>
                <name>Trackpoint 2614</name>
            </trkpt>
            <trkpt lat="50.0340384" lon="10.9293032">
                <ele>242.0</ele>
                <time>2020-08-22T11:01:34.000Z</time>
                <name>Trackpoint 2615</name>
            </trkpt>
            <trkpt lat="50.0340032" lon="10.9294416">
                <ele>240.0</ele>
                <time>2020-08-22T11:01:36.000Z</time>
                <name>Trackpoint 2616</name>
            </trkpt>
            <trkpt lat="50.0339648" lon="10.9295656">
                <ele>240.0</ele>
                <time>2020-08-22T11:01:38.000Z</time>
                <name>Trackpoint 2617</name>
            </trkpt>
            <trkpt lat="50.03392" lon="10.9296848">
                <ele>241.0</ele>
                <time>2020-08-22T11:01:40.000Z</time>
                <name>Trackpoint 2618</name>
            </trkpt>
            <trkpt lat="50.0338816" lon="10.9297984">
                <ele>241.0</ele>
                <time>2020-08-22T11:01:42.000Z</time>
                <name>Trackpoint 2619</name>
            </trkpt>
            <trkpt lat="50.0338432" lon="10.929912">
                <ele>241.0</ele>
                <time>2020-08-22T11:01:44.000Z</time>
                <name>Trackpoint 2620</name>
            </trkpt>
            <trkpt lat="50.0338016" lon="10.930032">
                <ele>241.0</ele>
                <time>2020-08-22T11:01:46.000Z</time>
                <name>Trackpoint 2621</name>
            </trkpt>
            <trkpt lat="50.0337568" lon="10.9301552">
                <ele>241.0</ele>
                <time>2020-08-22T11:01:48.000Z</time>
                <name>Trackpoint 2622</name>
            </trkpt>
            <trkpt lat="50.0337056" lon="10.9302752">
                <ele>241.0</ele>
                <time>2020-08-22T11:01:50.000Z</time>
                <name>Trackpoint 2623</name>
            </trkpt>
            <trkpt lat="50.033648" lon="10.9303816">
                <ele>241.0</ele>
                <time>2020-08-22T11:01:52.000Z</time>
                <name>Trackpoint 2624</name>
            </trkpt>
            <trkpt lat="50.0335744" lon="10.9304616">
                <ele>241.0</ele>
                <time>2020-08-22T11:01:54.000Z</time>
                <name>Trackpoint 2625</name>
            </trkpt>
            <trkpt lat="50.033488" lon="10.93052">
                <ele>241.0</ele>
                <time>2020-08-22T11:01:56.000Z</time>
                <name>Trackpoint 2626</name>
            </trkpt>
            <trkpt lat="50.0334016" lon="10.9305736">
                <ele>241.0</ele>
                <time>2020-08-22T11:01:58.000Z</time>
                <name>Trackpoint 2627</name>
            </trkpt>
            <trkpt lat="50.0333088" lon="10.9306232">
                <ele>241.0</ele>
                <time>2020-08-22T11:02:00.000Z</time>
                <name>Trackpoint 2628</name>
            </trkpt>
            <trkpt lat="50.0332192" lon="10.9306736">
                <ele>242.0</ele>
                <time>2020-08-22T11:02:02.000Z</time>
                <name>Trackpoint 2629</name>
            </trkpt>
            <trkpt lat="50.0331392" lon="10.9307216">
                <ele>242.0</ele>
                <time>2020-08-22T11:02:04.000Z</time>
                <name>Trackpoint 2630</name>
            </trkpt>
            <trkpt lat="50.0330592" lon="10.9307672">
                <ele>242.0</ele>
                <time>2020-08-22T11:02:06.000Z</time>
                <name>Trackpoint 2631</name>
            </trkpt>
            <trkpt lat="50.032944" lon="10.9308328">
                <ele>241.0</ele>
                <time>2020-08-22T11:02:09.000Z</time>
                <name>Trackpoint 2632</name>
            </trkpt>
            <trkpt lat="50.0328384" lon="10.9308928">
                <ele>241.0</ele>
                <time>2020-08-22T11:02:12.000Z</time>
                <name>Trackpoint 2633</name>
            </trkpt>
            <trkpt lat="50.0327584" lon="10.9309368">
                <ele>241.0</ele>
                <time>2020-08-22T11:02:14.000Z</time>
                <name>Trackpoint 2634</name>
            </trkpt>
            <trkpt lat="50.032672" lon="10.9309904">
                <ele>242.0</ele>
                <time>2020-08-22T11:02:16.000Z</time>
                <name>Trackpoint 2635</name>
            </trkpt>
            <trkpt lat="50.0325856" lon="10.9310416">
                <ele>242.0</ele>
                <time>2020-08-22T11:02:18.000Z</time>
                <name>Trackpoint 2636</name>
            </trkpt>
            <trkpt lat="50.032496" lon="10.9310968">
                <ele>242.0</ele>
                <time>2020-08-22T11:02:20.000Z</time>
                <name>Trackpoint 2637</name>
            </trkpt>
            <trkpt lat="50.0324128" lon="10.93116">
                <ele>241.0</ele>
                <time>2020-08-22T11:02:22.000Z</time>
                <name>Trackpoint 2638</name>
            </trkpt>
            <trkpt lat="50.0323296" lon="10.9312216">
                <ele>241.0</ele>
                <time>2020-08-22T11:02:24.000Z</time>
                <name>Trackpoint 2639</name>
            </trkpt>
            <trkpt lat="50.0322496" lon="10.9312888">
                <ele>241.0</ele>
                <time>2020-08-22T11:02:26.000Z</time>
                <name>Trackpoint 2640</name>
            </trkpt>
            <trkpt lat="50.0321664" lon="10.9313584">
                <ele>241.0</ele>
                <time>2020-08-22T11:02:28.000Z</time>
                <name>Trackpoint 2641</name>
            </trkpt>
            <trkpt lat="50.0320832" lon="10.9314296">
                <ele>241.0</ele>
                <time>2020-08-22T11:02:30.000Z</time>
                <name>Trackpoint 2642</name>
            </trkpt>
            <trkpt lat="50.032" lon="10.9314984">
                <ele>241.0</ele>
                <time>2020-08-22T11:02:32.000Z</time>
                <name>Trackpoint 2643</name>
            </trkpt>
            <trkpt lat="50.0319168" lon="10.931572">
                <ele>241.0</ele>
                <time>2020-08-22T11:02:34.000Z</time>
                <name>Trackpoint 2644</name>
            </trkpt>
            <trkpt lat="50.0318336" lon="10.9316416">
                <ele>241.0</ele>
                <time>2020-08-22T11:02:36.000Z</time>
                <name>Trackpoint 2645</name>
            </trkpt>
            <trkpt lat="50.0317536" lon="10.9317104">
                <ele>241.0</ele>
                <time>2020-08-22T11:02:38.000Z</time>
                <name>Trackpoint 2646</name>
            </trkpt>
            <trkpt lat="50.0316704" lon="10.9317752">
                <ele>241.0</ele>
                <time>2020-08-22T11:02:40.000Z</time>
                <name>Trackpoint 2647</name>
            </trkpt>
            <trkpt lat="50.0315808" lon="10.9318464">
                <ele>240.0</ele>
                <time>2020-08-22T11:02:42.000Z</time>
                <name>Trackpoint 2648</name>
            </trkpt>
            <trkpt lat="50.0314976" lon="10.9319216">
                <ele>240.0</ele>
                <time>2020-08-22T11:02:44.000Z</time>
                <name>Trackpoint 2649</name>
            </trkpt>
            <trkpt lat="50.0314112" lon="10.932">
                <ele>240.0</ele>
                <time>2020-08-22T11:02:46.000Z</time>
                <name>Trackpoint 2650</name>
            </trkpt>
            <trkpt lat="50.0313216" lon="10.932072">
                <ele>240.0</ele>
                <time>2020-08-22T11:02:48.000Z</time>
                <name>Trackpoint 2651</name>
            </trkpt>
            <trkpt lat="50.0312384" lon="10.9321368">
                <ele>240.0</ele>
                <time>2020-08-22T11:02:50.000Z</time>
                <name>Trackpoint 2652</name>
            </trkpt>
            <trkpt lat="50.0311456" lon="10.9321832">
                <ele>240.0</ele>
                <time>2020-08-22T11:02:52.000Z</time>
                <name>Trackpoint 2653</name>
            </trkpt>
            <trkpt lat="50.0310144" lon="10.9321696">
                <ele>241.0</ele>
                <time>2020-08-22T11:02:55.000Z</time>
                <name>Trackpoint 2654</name>
            </trkpt>
            <trkpt lat="50.0309344" lon="10.9320896">
                <ele>241.0</ele>
                <time>2020-08-22T11:02:57.000Z</time>
                <name>Trackpoint 2655</name>
            </trkpt>
            <trkpt lat="50.030864" lon="10.9319872">
                <ele>241.0</ele>
                <time>2020-08-22T11:02:59.000Z</time>
                <name>Trackpoint 2656</name>
            </trkpt>
            <trkpt lat="50.0307936" lon="10.9318888">
                <ele>241.0</ele>
                <time>2020-08-22T11:03:01.000Z</time>
                <name>Trackpoint 2657</name>
            </trkpt>
            <trkpt lat="50.03072" lon="10.9317936">
                <ele>241.0</ele>
                <time>2020-08-22T11:03:03.000Z</time>
                <name>Trackpoint 2658</name>
            </trkpt>
            <trkpt lat="50.0306432" lon="10.9317">
                <ele>241.0</ele>
                <time>2020-08-22T11:03:05.000Z</time>
                <name>Trackpoint 2659</name>
            </trkpt>
            <trkpt lat="50.0305696" lon="10.9316064">
                <ele>241.0</ele>
                <time>2020-08-22T11:03:07.000Z</time>
                <name>Trackpoint 2660</name>
            </trkpt>
            <trkpt lat="50.0304992" lon="10.9315208">
                <ele>241.0</ele>
                <time>2020-08-22T11:03:09.000Z</time>
                <name>Trackpoint 2661</name>
            </trkpt>
            <trkpt lat="50.0304288" lon="10.9314432">
                <ele>241.0</ele>
                <time>2020-08-22T11:03:11.000Z</time>
                <name>Trackpoint 2662</name>
            </trkpt>
            <trkpt lat="50.0303296" lon="10.931352">
                <ele>240.0</ele>
                <time>2020-08-22T11:03:14.000Z</time>
                <name>Trackpoint 2663</name>
            </trkpt>
            <trkpt lat="50.0302688" lon="10.9312824">
                <ele>241.0</ele>
                <time>2020-08-22T11:03:16.000Z</time>
                <name>Trackpoint 2664</name>
            </trkpt>
            <trkpt lat="50.0301824" lon="10.9311888">
                <ele>241.0</ele>
                <time>2020-08-22T11:03:19.000Z</time>
                <name>Trackpoint 2665</name>
            </trkpt>
            <trkpt lat="50.0300928" lon="10.9311048">
                <ele>241.0</ele>
                <time>2020-08-22T11:03:22.000Z</time>
                <name>Trackpoint 2666</name>
            </trkpt>
            <trkpt lat="50.0300064" lon="10.9310048">
                <ele>241.0</ele>
                <time>2020-08-22T11:03:25.000Z</time>
                <name>Trackpoint 2667</name>
            </trkpt>
            <trkpt lat="50.0299392" lon="10.9309352">
                <ele>241.0</ele>
                <time>2020-08-22T11:03:27.000Z</time>
                <name>Trackpoint 2668</name>
            </trkpt>
            <trkpt lat="50.0298752" lon="10.930868">
                <ele>241.0</ele>
                <time>2020-08-22T11:03:29.000Z</time>
                <name>Trackpoint 2669</name>
            </trkpt>
            <trkpt lat="50.0297856" lon="10.9307832">
                <ele>241.0</ele>
                <time>2020-08-22T11:03:32.000Z</time>
                <name>Trackpoint 2670</name>
            </trkpt>
            <trkpt lat="50.029696" lon="10.93072">
                <ele>242.0</ele>
                <time>2020-08-22T11:03:35.000Z</time>
                <name>Trackpoint 2671</name>
            </trkpt>
            <trkpt lat="50.0296032" lon="10.9306616">
                <ele>242.0</ele>
                <time>2020-08-22T11:03:39.000Z</time>
                <name>Trackpoint 2672</name>
            </trkpt>
            <trkpt lat="50.0295072" lon="10.9306152">
                <ele>242.0</ele>
                <time>2020-08-22T11:03:43.000Z</time>
                <name>Trackpoint 2673</name>
            </trkpt>
            <trkpt lat="50.0294144" lon="10.93058">
                <ele>242.0</ele>
                <time>2020-08-22T11:03:46.000Z</time>
                <name>Trackpoint 2674</name>
            </trkpt>
            <trkpt lat="50.0293088" lon="10.9305648">
                <ele>242.0</ele>
                <time>2020-08-22T11:03:49.000Z</time>
                <name>Trackpoint 2675</name>
            </trkpt>
            <trkpt lat="50.0291872" lon="10.930556">
                <ele>242.0</ele>
                <time>2020-08-22T11:03:52.000Z</time>
                <name>Trackpoint 2676</name>
            </trkpt>
            <trkpt lat="50.029072" lon="10.9305488">
                <ele>242.0</ele>
                <time>2020-08-22T11:03:55.000Z</time>
                <name>Trackpoint 2677</name>
            </trkpt>
            <trkpt lat="50.0289504" lon="10.9305352">
                <ele>242.0</ele>
                <time>2020-08-22T11:03:58.000Z</time>
                <name>Trackpoint 2678</name>
            </trkpt>
            <trkpt lat="50.0288576" lon="10.9305248">
                <ele>241.0</ele>
                <time>2020-08-22T11:04:00.000Z</time>
                <name>Trackpoint 2679</name>
            </trkpt>
            <trkpt lat="50.0287232" lon="10.9305152">
                <ele>241.0</ele>
                <time>2020-08-22T11:04:03.000Z</time>
                <name>Trackpoint 2680</name>
            </trkpt>
            <trkpt lat="50.0285888" lon="10.9305032">
                <ele>241.0</ele>
                <time>2020-08-22T11:04:06.000Z</time>
                <name>Trackpoint 2681</name>
            </trkpt>
            <trkpt lat="50.028496" lon="10.9304912">
                <ele>241.0</ele>
                <time>2020-08-22T11:04:08.000Z</time>
                <name>Trackpoint 2682</name>
            </trkpt>
            <trkpt lat="50.0284032" lon="10.9304616">
                <ele>241.0</ele>
                <time>2020-08-22T11:04:10.000Z</time>
                <name>Trackpoint 2683</name>
            </trkpt>
            <trkpt lat="50.0283136" lon="10.9304288">
                <ele>241.0</ele>
                <time>2020-08-22T11:04:12.000Z</time>
                <name>Trackpoint 2684</name>
            </trkpt>
            <trkpt lat="50.0282272" lon="10.9303888">
                <ele>241.0</ele>
                <time>2020-08-22T11:04:14.000Z</time>
                <name>Trackpoint 2685</name>
            </trkpt>
            <trkpt lat="50.0281408" lon="10.9303464">
                <ele>241.0</ele>
                <time>2020-08-22T11:04:16.000Z</time>
                <name>Trackpoint 2686</name>
            </trkpt>
            <trkpt lat="50.0280448" lon="10.9303168">
                <ele>241.0</ele>
                <time>2020-08-22T11:04:18.000Z</time>
                <name>Trackpoint 2687</name>
            </trkpt>
            <trkpt lat="50.0279552" lon="10.930288">
                <ele>241.0</ele>
                <time>2020-08-22T11:04:20.000Z</time>
                <name>Trackpoint 2688</name>
            </trkpt>
            <trkpt lat="50.0278656" lon="10.930252">
                <ele>241.0</ele>
                <time>2020-08-22T11:04:22.000Z</time>
                <name>Trackpoint 2689</name>
            </trkpt>
            <trkpt lat="50.0277696" lon="10.93022">
                <ele>241.0</ele>
                <time>2020-08-22T11:04:24.000Z</time>
                <name>Trackpoint 2690</name>
            </trkpt>
            <trkpt lat="50.0276768" lon="10.930192">
                <ele>241.0</ele>
                <time>2020-08-22T11:04:26.000Z</time>
                <name>Trackpoint 2691</name>
            </trkpt>
            <trkpt lat="50.0275808" lon="10.9301632">
                <ele>241.0</ele>
                <time>2020-08-22T11:04:28.000Z</time>
                <name>Trackpoint 2692</name>
            </trkpt>
            <trkpt lat="50.0274848" lon="10.9301384">
                <ele>241.0</ele>
                <time>2020-08-22T11:04:30.000Z</time>
                <name>Trackpoint 2693</name>
            </trkpt>
            <trkpt lat="50.0273856" lon="10.9301232">
                <ele>241.0</ele>
                <time>2020-08-22T11:04:32.000Z</time>
                <name>Trackpoint 2694</name>
            </trkpt>
            <trkpt lat="50.0272896" lon="10.9301216">
                <ele>241.0</ele>
                <time>2020-08-22T11:04:34.000Z</time>
                <name>Trackpoint 2695</name>
            </trkpt>
            <trkpt lat="50.0271936" lon="10.9301392">
                <ele>241.0</ele>
                <time>2020-08-22T11:04:36.000Z</time>
                <name>Trackpoint 2696</name>
            </trkpt>
            <trkpt lat="50.0271008" lon="10.9301816">
                <ele>240.0</ele>
                <time>2020-08-22T11:04:38.000Z</time>
                <name>Trackpoint 2697</name>
            </trkpt>
            <trkpt lat="50.0270112" lon="10.9302384">
                <ele>240.0</ele>
                <time>2020-08-22T11:04:40.000Z</time>
                <name>Trackpoint 2698</name>
            </trkpt>
            <trkpt lat="50.0269248" lon="10.9302992">
                <ele>240.0</ele>
                <time>2020-08-22T11:04:42.000Z</time>
                <name>Trackpoint 2699</name>
            </trkpt>
            <trkpt lat="50.026848" lon="10.9303816">
                <ele>240.0</ele>
                <time>2020-08-22T11:04:44.000Z</time>
                <name>Trackpoint 2700</name>
            </trkpt>
            <trkpt lat="50.026768" lon="10.9304688">
                <ele>240.0</ele>
                <time>2020-08-22T11:04:46.000Z</time>
                <name>Trackpoint 2701</name>
            </trkpt>
            <trkpt lat="50.0266912" lon="10.9305448">
                <ele>240.0</ele>
                <time>2020-08-22T11:04:48.000Z</time>
                <name>Trackpoint 2702</name>
            </trkpt>
            <trkpt lat="50.026608" lon="10.9306184">
                <ele>239.0</ele>
                <time>2020-08-22T11:04:50.000Z</time>
                <name>Trackpoint 2703</name>
            </trkpt>
            <trkpt lat="50.026528" lon="10.930692">
                <ele>239.0</ele>
                <time>2020-08-22T11:04:52.000Z</time>
                <name>Trackpoint 2704</name>
            </trkpt>
            <trkpt lat="50.026448" lon="10.9307736">
                <ele>239.0</ele>
                <time>2020-08-22T11:04:54.000Z</time>
                <name>Trackpoint 2705</name>
            </trkpt>
            <trkpt lat="50.026368" lon="10.9308504">
                <ele>239.0</ele>
                <time>2020-08-22T11:04:56.000Z</time>
                <name>Trackpoint 2706</name>
            </trkpt>
            <trkpt lat="50.0262848" lon="10.9309184">
                <ele>239.0</ele>
                <time>2020-08-22T11:04:58.000Z</time>
                <name>Trackpoint 2707</name>
            </trkpt>
            <trkpt lat="50.0261984" lon="10.9309816">
                <ele>239.0</ele>
                <time>2020-08-22T11:05:00.000Z</time>
                <name>Trackpoint 2708</name>
            </trkpt>
            <trkpt lat="50.026112" lon="10.9310352">
                <ele>239.0</ele>
                <time>2020-08-22T11:05:02.000Z</time>
                <name>Trackpoint 2709</name>
            </trkpt>
            <trkpt lat="50.0260192" lon="10.9310768">
                <ele>239.0</ele>
                <time>2020-08-22T11:05:04.000Z</time>
                <name>Trackpoint 2710</name>
            </trkpt>
            <trkpt lat="50.0259296" lon="10.9311216">
                <ele>240.0</ele>
                <time>2020-08-22T11:05:06.000Z</time>
                <name>Trackpoint 2711</name>
            </trkpt>
            <trkpt lat="50.0258432" lon="10.9311616">
                <ele>239.0</ele>
                <time>2020-08-22T11:05:08.000Z</time>
                <name>Trackpoint 2712</name>
            </trkpt>
            <trkpt lat="50.0257568" lon="10.9312064">
                <ele>239.0</ele>
                <time>2020-08-22T11:05:10.000Z</time>
                <name>Trackpoint 2713</name>
            </trkpt>
            <trkpt lat="50.0256704" lon="10.9312448">
                <ele>240.0</ele>
                <time>2020-08-22T11:05:12.000Z</time>
                <name>Trackpoint 2714</name>
            </trkpt>
            <trkpt lat="50.0255808" lon="10.9312848">
                <ele>240.0</ele>
                <time>2020-08-22T11:05:14.000Z</time>
                <name>Trackpoint 2715</name>
            </trkpt>
            <trkpt lat="50.0254912" lon="10.9313248">
                <ele>240.0</ele>
                <time>2020-08-22T11:05:16.000Z</time>
                <name>Trackpoint 2716</name>
            </trkpt>
            <trkpt lat="50.0254016" lon="10.9313672">
                <ele>240.0</ele>
                <time>2020-08-22T11:05:18.000Z</time>
                <name>Trackpoint 2717</name>
            </trkpt>
            <trkpt lat="50.0253152" lon="10.9314096">
                <ele>240.0</ele>
                <time>2020-08-22T11:05:20.000Z</time>
                <name>Trackpoint 2718</name>
            </trkpt>
            <trkpt lat="50.0252256" lon="10.9314544">
                <ele>240.0</ele>
                <time>2020-08-22T11:05:22.000Z</time>
                <name>Trackpoint 2719</name>
            </trkpt>
            <trkpt lat="50.025136" lon="10.9314968">
                <ele>240.0</ele>
                <time>2020-08-22T11:05:24.000Z</time>
                <name>Trackpoint 2720</name>
            </trkpt>
            <trkpt lat="50.0250432" lon="10.9315392">
                <ele>240.0</ele>
                <time>2020-08-22T11:05:26.000Z</time>
                <name>Trackpoint 2721</name>
            </trkpt>
            <trkpt lat="50.0249504" lon="10.9315816">
                <ele>240.0</ele>
                <time>2020-08-22T11:05:28.000Z</time>
                <name>Trackpoint 2722</name>
            </trkpt>
            <trkpt lat="50.0248608" lon="10.9316256">
                <ele>240.0</ele>
                <time>2020-08-22T11:05:30.000Z</time>
                <name>Trackpoint 2723</name>
            </trkpt>
            <trkpt lat="50.024768" lon="10.9316728">
                <ele>240.0</ele>
                <time>2020-08-22T11:05:32.000Z</time>
                <name>Trackpoint 2724</name>
            </trkpt>
            <trkpt lat="50.0246816" lon="10.9317152">
                <ele>239.0</ele>
                <time>2020-08-22T11:05:34.000Z</time>
                <name>Trackpoint 2725</name>
            </trkpt>
            <trkpt lat="50.0245888" lon="10.931744">
                <ele>240.0</ele>
                <time>2020-08-22T11:05:36.000Z</time>
                <name>Trackpoint 2726</name>
            </trkpt>
            <trkpt lat="50.0244576" lon="10.9317576">
                <ele>240.0</ele>
                <time>2020-08-22T11:05:39.000Z</time>
                <name>Trackpoint 2727</name>
            </trkpt>
            <trkpt lat="50.024368" lon="10.9317376">
                <ele>240.0</ele>
                <time>2020-08-22T11:05:41.000Z</time>
                <name>Trackpoint 2728</name>
            </trkpt>
            <trkpt lat="50.0242848" lon="10.931692">
                <ele>240.0</ele>
                <time>2020-08-22T11:05:43.000Z</time>
                <name>Trackpoint 2729</name>
            </trkpt>
            <trkpt lat="50.0242048" lon="10.931632">
                <ele>240.0</ele>
                <time>2020-08-22T11:05:45.000Z</time>
                <name>Trackpoint 2730</name>
            </trkpt>
            <trkpt lat="50.0241248" lon="10.9315592">
                <ele>240.0</ele>
                <time>2020-08-22T11:05:47.000Z</time>
                <name>Trackpoint 2731</name>
            </trkpt>
            <trkpt lat="50.0240448" lon="10.9314832">
                <ele>240.0</ele>
                <time>2020-08-22T11:05:49.000Z</time>
                <name>Trackpoint 2732</name>
            </trkpt>
            <trkpt lat="50.0239648" lon="10.9314048">
                <ele>240.0</ele>
                <time>2020-08-22T11:05:51.000Z</time>
                <name>Trackpoint 2733</name>
            </trkpt>
            <trkpt lat="50.0238816" lon="10.9313272">
                <ele>240.0</ele>
                <time>2020-08-22T11:05:53.000Z</time>
                <name>Trackpoint 2734</name>
            </trkpt>
            <trkpt lat="50.0237984" lon="10.9312512">
                <ele>239.0</ele>
                <time>2020-08-22T11:05:55.000Z</time>
                <name>Trackpoint 2735</name>
            </trkpt>
            <trkpt lat="50.0237184" lon="10.93118">
                <ele>239.0</ele>
                <time>2020-08-22T11:05:57.000Z</time>
                <name>Trackpoint 2736</name>
            </trkpt>
            <trkpt lat="50.0236448" lon="10.9310968">
                <ele>239.0</ele>
                <time>2020-08-22T11:05:59.000Z</time>
                <name>Trackpoint 2737</name>
            </trkpt>
            <trkpt lat="50.0235648" lon="10.9310152">
                <ele>239.0</ele>
                <time>2020-08-22T11:06:01.000Z</time>
                <name>Trackpoint 2738</name>
            </trkpt>
            <trkpt lat="50.0234848" lon="10.9309416">
                <ele>239.0</ele>
                <time>2020-08-22T11:06:03.000Z</time>
                <name>Trackpoint 2739</name>
            </trkpt>
            <trkpt lat="50.023408" lon="10.9308656">
                <ele>239.0</ele>
                <time>2020-08-22T11:06:05.000Z</time>
                <name>Trackpoint 2740</name>
            </trkpt>
            <trkpt lat="50.0233312" lon="10.9307944">
                <ele>239.0</ele>
                <time>2020-08-22T11:06:07.000Z</time>
                <name>Trackpoint 2741</name>
            </trkpt>
            <trkpt lat="50.0232576" lon="10.9307248">
                <ele>239.0</ele>
                <time>2020-08-22T11:06:09.000Z</time>
                <name>Trackpoint 2742</name>
            </trkpt>
            <trkpt lat="50.0231872" lon="10.9306584">
                <ele>239.0</ele>
                <time>2020-08-22T11:06:11.000Z</time>
                <name>Trackpoint 2743</name>
            </trkpt>
            <trkpt lat="50.0231136" lon="10.9305896">
                <ele>239.0</ele>
                <time>2020-08-22T11:06:13.000Z</time>
                <name>Trackpoint 2744</name>
            </trkpt>
            <trkpt lat="50.0230432" lon="10.9305216">
                <ele>239.0</ele>
                <time>2020-08-22T11:06:15.000Z</time>
                <name>Trackpoint 2745</name>
            </trkpt>
            <trkpt lat="50.0229728" lon="10.9304584">
                <ele>239.0</ele>
                <time>2020-08-22T11:06:17.000Z</time>
                <name>Trackpoint 2746</name>
            </trkpt>
            <trkpt lat="50.0229024" lon="10.9303976">
                <ele>240.0</ele>
                <time>2020-08-22T11:06:19.000Z</time>
                <name>Trackpoint 2747</name>
            </trkpt>
            <trkpt lat="50.0228096" lon="10.9303104">
                <ele>240.0</ele>
                <time>2020-08-22T11:06:22.000Z</time>
                <name>Trackpoint 2748</name>
            </trkpt>
            <trkpt lat="50.0227104" lon="10.9302264">
                <ele>239.0</ele>
                <time>2020-08-22T11:06:25.000Z</time>
                <name>Trackpoint 2749</name>
            </trkpt>
            <trkpt lat="50.0226144" lon="10.9301392">
                <ele>239.0</ele>
                <time>2020-08-22T11:06:28.000Z</time>
                <name>Trackpoint 2750</name>
            </trkpt>
            <trkpt lat="50.0225248" lon="10.9300584">
                <ele>240.0</ele>
                <time>2020-08-22T11:06:31.000Z</time>
                <name>Trackpoint 2751</name>
            </trkpt>
            <trkpt lat="50.0224544" lon="10.9299736">
                <ele>240.0</ele>
                <time>2020-08-22T11:06:34.000Z</time>
                <name>Trackpoint 2752</name>
            </trkpt>
            <trkpt lat="50.0223872" lon="10.9299048">
                <ele>240.0</ele>
                <time>2020-08-22T11:06:38.000Z</time>
                <name>Trackpoint 2753</name>
            </trkpt>
            <trkpt lat="50.022336" lon="10.9298216">
                <ele>240.0</ele>
                <time>2020-08-22T11:06:44.000Z</time>
                <name>Trackpoint 2754</name>
            </trkpt>
            <trkpt lat="50.0223808" lon="10.9297384">
                <ele>241.0</ele>
                <time>2020-08-22T11:07:10.000Z</time>
                <name>Trackpoint 2755</name>
            </trkpt>
            <trkpt lat="50.0224352" lon="10.9296304">
                <ele>241.0</ele>
                <time>2020-08-22T11:07:14.000Z</time>
                <name>Trackpoint 2756</name>
            </trkpt>
            <trkpt lat="50.0224736" lon="10.92954">
                <ele>241.0</ele>
                <time>2020-08-22T11:07:16.000Z</time>
                <name>Trackpoint 2757</name>
            </trkpt>
            <trkpt lat="50.022512" lon="10.9294328">
                <ele>240.0</ele>
                <time>2020-08-22T11:07:18.000Z</time>
                <name>Trackpoint 2758</name>
            </trkpt>
            <trkpt lat="50.022544" lon="10.9293">
                <ele>240.0</ele>
                <time>2020-08-22T11:07:20.000Z</time>
                <name>Trackpoint 2759</name>
            </trkpt>
            <trkpt lat="50.0225792" lon="10.9291552">
                <ele>240.0</ele>
                <time>2020-08-22T11:07:22.000Z</time>
                <name>Trackpoint 2760</name>
            </trkpt>
            <trkpt lat="50.0226144" lon="10.9290104">
                <ele>240.0</ele>
                <time>2020-08-22T11:07:24.000Z</time>
                <name>Trackpoint 2761</name>
            </trkpt>
            <trkpt lat="50.0226336" lon="10.92886">
                <ele>240.0</ele>
                <time>2020-08-22T11:07:26.000Z</time>
                <name>Trackpoint 2762</name>
            </trkpt>
            <trkpt lat="50.0226464" lon="10.9287056">
                <ele>240.0</ele>
                <time>2020-08-22T11:07:28.000Z</time>
                <name>Trackpoint 2763</name>
            </trkpt>
            <trkpt lat="50.022656" lon="10.9285472">
                <ele>240.0</ele>
                <time>2020-08-22T11:07:30.000Z</time>
                <name>Trackpoint 2764</name>
            </trkpt>
            <trkpt lat="50.0226624" lon="10.928376">
                <ele>240.0</ele>
                <time>2020-08-22T11:07:32.000Z</time>
                <name>Trackpoint 2765</name>
            </trkpt>
            <trkpt lat="50.0226784" lon="10.9282112">
                <ele>240.0</ele>
                <time>2020-08-22T11:07:34.000Z</time>
                <name>Trackpoint 2766</name>
            </trkpt>
            <trkpt lat="50.0226816" lon="10.9280464">
                <ele>240.0</ele>
                <time>2020-08-22T11:07:36.000Z</time>
                <name>Trackpoint 2767</name>
            </trkpt>
            <trkpt lat="50.0226944" lon="10.9278832">
                <ele>240.0</ele>
                <time>2020-08-22T11:07:38.000Z</time>
                <name>Trackpoint 2768</name>
            </trkpt>
            <trkpt lat="50.022704" lon="10.9277112">
                <ele>240.0</ele>
                <time>2020-08-22T11:07:40.000Z</time>
                <name>Trackpoint 2769</name>
            </trkpt>
            <trkpt lat="50.0227104" lon="10.927544">
                <ele>240.0</ele>
                <time>2020-08-22T11:07:42.000Z</time>
                <name>Trackpoint 2770</name>
            </trkpt>
            <trkpt lat="50.02272" lon="10.9273752">
                <ele>240.0</ele>
                <time>2020-08-22T11:07:44.000Z</time>
                <name>Trackpoint 2771</name>
            </trkpt>
            <trkpt lat="50.0227328" lon="10.9272048">
                <ele>240.0</ele>
                <time>2020-08-22T11:07:46.000Z</time>
                <name>Trackpoint 2772</name>
            </trkpt>
            <trkpt lat="50.0227392" lon="10.927036">
                <ele>240.0</ele>
                <time>2020-08-22T11:07:48.000Z</time>
                <name>Trackpoint 2773</name>
            </trkpt>
            <trkpt lat="50.0227552" lon="10.9268704">
                <ele>240.0</ele>
                <time>2020-08-22T11:07:50.000Z</time>
                <name>Trackpoint 2774</name>
            </trkpt>
            <trkpt lat="50.0227616" lon="10.926708">
                <ele>240.0</ele>
                <time>2020-08-22T11:07:52.000Z</time>
                <name>Trackpoint 2775</name>
            </trkpt>
            <trkpt lat="50.0227744" lon="10.9265448">
                <ele>240.0</ele>
                <time>2020-08-22T11:07:54.000Z</time>
                <name>Trackpoint 2776</name>
            </trkpt>
            <trkpt lat="50.0227904" lon="10.9263888">
                <ele>241.0</ele>
                <time>2020-08-22T11:07:56.000Z</time>
                <name>Trackpoint 2777</name>
            </trkpt>
            <trkpt lat="50.0228032" lon="10.9262312">
                <ele>241.0</ele>
                <time>2020-08-22T11:07:58.000Z</time>
                <name>Trackpoint 2778</name>
            </trkpt>
            <trkpt lat="50.0228128" lon="10.926068">
                <ele>241.0</ele>
                <time>2020-08-22T11:08:00.000Z</time>
                <name>Trackpoint 2779</name>
            </trkpt>
            <trkpt lat="50.0228224" lon="10.925908">
                <ele>241.0</ele>
                <time>2020-08-22T11:08:02.000Z</time>
                <name>Trackpoint 2780</name>
            </trkpt>
            <trkpt lat="50.022832" lon="10.9257472">
                <ele>241.0</ele>
                <time>2020-08-22T11:08:04.000Z</time>
                <name>Trackpoint 2781</name>
            </trkpt>
            <trkpt lat="50.0228448" lon="10.9255848">
                <ele>241.0</ele>
                <time>2020-08-22T11:08:06.000Z</time>
                <name>Trackpoint 2782</name>
            </trkpt>
            <trkpt lat="50.0228544" lon="10.9254176">
                <ele>242.0</ele>
                <time>2020-08-22T11:08:08.000Z</time>
                <name>Trackpoint 2783</name>
            </trkpt>
            <trkpt lat="50.0228608" lon="10.925252">
                <ele>241.0</ele>
                <time>2020-08-22T11:08:10.000Z</time>
                <name>Trackpoint 2784</name>
            </trkpt>
            <trkpt lat="50.0228736" lon="10.925088">
                <ele>241.0</ele>
                <time>2020-08-22T11:08:12.000Z</time>
                <name>Trackpoint 2785</name>
            </trkpt>
            <trkpt lat="50.0228832" lon="10.9249296">
                <ele>241.0</ele>
                <time>2020-08-22T11:08:14.000Z</time>
                <name>Trackpoint 2786</name>
            </trkpt>
            <trkpt lat="50.0228928" lon="10.9247712">
                <ele>241.0</ele>
                <time>2020-08-22T11:08:16.000Z</time>
                <name>Trackpoint 2787</name>
            </trkpt>
            <trkpt lat="50.0229024" lon="10.924608">
                <ele>241.0</ele>
                <time>2020-08-22T11:08:18.000Z</time>
                <name>Trackpoint 2788</name>
            </trkpt>
            <trkpt lat="50.0229152" lon="10.9244432">
                <ele>241.0</ele>
                <time>2020-08-22T11:08:20.000Z</time>
                <name>Trackpoint 2789</name>
            </trkpt>
            <trkpt lat="50.0229216" lon="10.9242712">
                <ele>242.0</ele>
                <time>2020-08-22T11:08:22.000Z</time>
                <name>Trackpoint 2790</name>
            </trkpt>
            <trkpt lat="50.0229312" lon="10.924104">
                <ele>241.0</ele>
                <time>2020-08-22T11:08:24.000Z</time>
                <name>Trackpoint 2791</name>
            </trkpt>
            <trkpt lat="50.0229376" lon="10.92394">
                <ele>241.0</ele>
                <time>2020-08-22T11:08:26.000Z</time>
                <name>Trackpoint 2792</name>
            </trkpt>
            <trkpt lat="50.0229504" lon="10.9237744">
                <ele>241.0</ele>
                <time>2020-08-22T11:08:28.000Z</time>
                <name>Trackpoint 2793</name>
            </trkpt>
            <trkpt lat="50.0229568" lon="10.9236136">
                <ele>241.0</ele>
                <time>2020-08-22T11:08:30.000Z</time>
                <name>Trackpoint 2794</name>
            </trkpt>
            <trkpt lat="50.02296" lon="10.9234536">
                <ele>241.0</ele>
                <time>2020-08-22T11:08:32.000Z</time>
                <name>Trackpoint 2795</name>
            </trkpt>
            <trkpt lat="50.0229728" lon="10.9232952">
                <ele>241.0</ele>
                <time>2020-08-22T11:08:34.000Z</time>
                <name>Trackpoint 2796</name>
            </trkpt>
            <trkpt lat="50.0229824" lon="10.9231352">
                <ele>241.0</ele>
                <time>2020-08-22T11:08:36.000Z</time>
                <name>Trackpoint 2797</name>
            </trkpt>
            <trkpt lat="50.0229984" lon="10.9229696">
                <ele>241.0</ele>
                <time>2020-08-22T11:08:38.000Z</time>
                <name>Trackpoint 2798</name>
            </trkpt>
            <trkpt lat="50.0230112" lon="10.9228">
                <ele>241.0</ele>
                <time>2020-08-22T11:08:40.000Z</time>
                <name>Trackpoint 2799</name>
            </trkpt>
            <trkpt lat="50.023024" lon="10.9226248">
                <ele>241.0</ele>
                <time>2020-08-22T11:08:42.000Z</time>
                <name>Trackpoint 2800</name>
            </trkpt>
            <trkpt lat="50.0230368" lon="10.9224464">
                <ele>241.0</ele>
                <time>2020-08-22T11:08:44.000Z</time>
                <name>Trackpoint 2801</name>
            </trkpt>
            <trkpt lat="50.0230432" lon="10.9223544">
                <ele>241.0</ele>
                <time>2020-08-22T11:08:45.000Z</time>
                <name>Trackpoint 2802</name>
            </trkpt>
            <trkpt lat="50.0230528" lon="10.9221752">
                <ele>241.0</ele>
                <time>2020-08-22T11:08:47.000Z</time>
                <name>Trackpoint 2803</name>
            </trkpt>
            <trkpt lat="50.023056" lon="10.9220848">
                <ele>241.0</ele>
                <time>2020-08-22T11:08:48.000Z</time>
                <name>Trackpoint 2804</name>
            </trkpt>
            <trkpt lat="50.023072" lon="10.9219064">
                <ele>241.0</ele>
                <time>2020-08-22T11:08:50.000Z</time>
                <name>Trackpoint 2805</name>
            </trkpt>
            <trkpt lat="50.0230784" lon="10.9217264">
                <ele>241.0</ele>
                <time>2020-08-22T11:08:52.000Z</time>
                <name>Trackpoint 2806</name>
            </trkpt>
            <trkpt lat="50.0230912" lon="10.921548">
                <ele>240.0</ele>
                <time>2020-08-22T11:08:54.000Z</time>
                <name>Trackpoint 2807</name>
            </trkpt>
            <trkpt lat="50.0231008" lon="10.9213712">
                <ele>240.0</ele>
                <time>2020-08-22T11:08:56.000Z</time>
                <name>Trackpoint 2808</name>
            </trkpt>
            <trkpt lat="50.0231104" lon="10.9212816">
                <ele>240.0</ele>
                <time>2020-08-22T11:08:57.000Z</time>
                <name>Trackpoint 2809</name>
            </trkpt>
            <trkpt lat="50.0231136" lon="10.9211912">
                <ele>240.0</ele>
                <time>2020-08-22T11:08:58.000Z</time>
                <name>Trackpoint 2810</name>
            </trkpt>
            <trkpt lat="50.0231168" lon="10.9211">
                <ele>240.0</ele>
                <time>2020-08-22T11:08:59.000Z</time>
                <name>Trackpoint 2811</name>
            </trkpt>
            <trkpt lat="50.02312" lon="10.921008">
                <ele>240.0</ele>
                <time>2020-08-22T11:09:00.000Z</time>
                <name>Trackpoint 2812</name>
            </trkpt>
            <trkpt lat="50.0231296" lon="10.9209168">
                <ele>240.0</ele>
                <time>2020-08-22T11:09:01.000Z</time>
                <name>Trackpoint 2813</name>
            </trkpt>
            <trkpt lat="50.023136" lon="10.9208248">
                <ele>240.0</ele>
                <time>2020-08-22T11:09:02.000Z</time>
                <name>Trackpoint 2814</name>
            </trkpt>
            <trkpt lat="50.0231424" lon="10.9207336">
                <ele>239.0</ele>
                <time>2020-08-22T11:09:03.000Z</time>
                <name>Trackpoint 2815</name>
            </trkpt>
            <trkpt lat="50.023152" lon="10.9206416">
                <ele>239.0</ele>
                <time>2020-08-22T11:09:04.000Z</time>
                <name>Trackpoint 2816</name>
            </trkpt>
            <trkpt lat="50.0231552" lon="10.9205504">
                <ele>239.0</ele>
                <time>2020-08-22T11:09:05.000Z</time>
                <name>Trackpoint 2817</name>
            </trkpt>
            <trkpt lat="50.0231584" lon="10.92046">
                <ele>239.0</ele>
                <time>2020-08-22T11:09:06.000Z</time>
                <name>Trackpoint 2818</name>
            </trkpt>
            <trkpt lat="50.0231712" lon="10.9202784">
                <ele>239.0</ele>
                <time>2020-08-22T11:09:08.000Z</time>
                <name>Trackpoint 2819</name>
            </trkpt>
            <trkpt lat="50.0231776" lon="10.920188">
                <ele>239.0</ele>
                <time>2020-08-22T11:09:09.000Z</time>
                <name>Trackpoint 2820</name>
            </trkpt>
            <trkpt lat="50.0231904" lon="10.9200096">
                <ele>239.0</ele>
                <time>2020-08-22T11:09:11.000Z</time>
                <name>Trackpoint 2821</name>
            </trkpt>
            <trkpt lat="50.0232" lon="10.9198352">
                <ele>239.0</ele>
                <time>2020-08-22T11:09:13.000Z</time>
                <name>Trackpoint 2822</name>
            </trkpt>
            <trkpt lat="50.0232128" lon="10.9196616">
                <ele>239.0</ele>
                <time>2020-08-22T11:09:15.000Z</time>
                <name>Trackpoint 2823</name>
            </trkpt>
            <trkpt lat="50.0232224" lon="10.9194848">
                <ele>239.0</ele>
                <time>2020-08-22T11:09:17.000Z</time>
                <name>Trackpoint 2824</name>
            </trkpt>
            <trkpt lat="50.0232352" lon="10.9193088">
                <ele>240.0</ele>
                <time>2020-08-22T11:09:19.000Z</time>
                <name>Trackpoint 2825</name>
            </trkpt>
            <trkpt lat="50.023248" lon="10.9191328">
                <ele>240.0</ele>
                <time>2020-08-22T11:09:21.000Z</time>
                <name>Trackpoint 2826</name>
            </trkpt>
            <trkpt lat="50.0232576" lon="10.9189568">
                <ele>240.0</ele>
                <time>2020-08-22T11:09:23.000Z</time>
                <name>Trackpoint 2827</name>
            </trkpt>
            <trkpt lat="50.0232736" lon="10.9187832">
                <ele>240.0</ele>
                <time>2020-08-22T11:09:25.000Z</time>
                <name>Trackpoint 2828</name>
            </trkpt>
            <trkpt lat="50.02328" lon="10.9186112">
                <ele>240.0</ele>
                <time>2020-08-22T11:09:27.000Z</time>
                <name>Trackpoint 2829</name>
            </trkpt>
            <trkpt lat="50.0232928" lon="10.9184416">
                <ele>240.0</ele>
                <time>2020-08-22T11:09:29.000Z</time>
                <name>Trackpoint 2830</name>
            </trkpt>
            <trkpt lat="50.0232992" lon="10.9182768">
                <ele>240.0</ele>
                <time>2020-08-22T11:09:31.000Z</time>
                <name>Trackpoint 2831</name>
            </trkpt>
            <trkpt lat="50.0233088" lon="10.9181144">
                <ele>240.0</ele>
                <time>2020-08-22T11:09:33.000Z</time>
                <name>Trackpoint 2832</name>
            </trkpt>
            <trkpt lat="50.0233216" lon="10.9179552">
                <ele>240.0</ele>
                <time>2020-08-22T11:09:35.000Z</time>
                <name>Trackpoint 2833</name>
            </trkpt>
            <trkpt lat="50.0233344" lon="10.9177912">
                <ele>240.0</ele>
                <time>2020-08-22T11:09:37.000Z</time>
                <name>Trackpoint 2834</name>
            </trkpt>
            <trkpt lat="50.0233408" lon="10.9176304">
                <ele>240.0</ele>
                <time>2020-08-22T11:09:39.000Z</time>
                <name>Trackpoint 2835</name>
            </trkpt>
            <trkpt lat="50.0233536" lon="10.917468">
                <ele>241.0</ele>
                <time>2020-08-22T11:09:41.000Z</time>
                <name>Trackpoint 2836</name>
            </trkpt>
            <trkpt lat="50.02336" lon="10.9173072">
                <ele>241.0</ele>
                <time>2020-08-22T11:09:43.000Z</time>
                <name>Trackpoint 2837</name>
            </trkpt>
            <trkpt lat="50.0233728" lon="10.9171512">
                <ele>241.0</ele>
                <time>2020-08-22T11:09:45.000Z</time>
                <name>Trackpoint 2838</name>
            </trkpt>
            <trkpt lat="50.0233856" lon="10.9169928">
                <ele>241.0</ele>
                <time>2020-08-22T11:09:47.000Z</time>
                <name>Trackpoint 2839</name>
            </trkpt>
            <trkpt lat="50.0233888" lon="10.9168368">
                <ele>241.0</ele>
                <time>2020-08-22T11:09:49.000Z</time>
                <name>Trackpoint 2840</name>
            </trkpt>
            <trkpt lat="50.0233952" lon="10.9166872">
                <ele>241.0</ele>
                <time>2020-08-22T11:09:51.000Z</time>
                <name>Trackpoint 2841</name>
            </trkpt>
            <trkpt lat="50.0234016" lon="10.9165424">
                <ele>240.0</ele>
                <time>2020-08-22T11:09:53.000Z</time>
                <name>Trackpoint 2842</name>
            </trkpt>
            <trkpt lat="50.0234176" lon="10.9163952">
                <ele>240.0</ele>
                <time>2020-08-22T11:09:55.000Z</time>
                <name>Trackpoint 2843</name>
            </trkpt>
            <trkpt lat="50.0234176" lon="10.9162416">
                <ele>240.0</ele>
                <time>2020-08-22T11:09:57.000Z</time>
                <name>Trackpoint 2844</name>
            </trkpt>
            <trkpt lat="50.0234304" lon="10.916088">
                <ele>240.0</ele>
                <time>2020-08-22T11:09:59.000Z</time>
                <name>Trackpoint 2845</name>
            </trkpt>
            <trkpt lat="50.02344" lon="10.9159344">
                <ele>240.0</ele>
                <time>2020-08-22T11:10:01.000Z</time>
                <name>Trackpoint 2846</name>
            </trkpt>
            <trkpt lat="50.0234528" lon="10.9157784">
                <ele>240.0</ele>
                <time>2020-08-22T11:10:03.000Z</time>
                <name>Trackpoint 2847</name>
            </trkpt>
            <trkpt lat="50.0234656" lon="10.91562">
                <ele>240.0</ele>
                <time>2020-08-22T11:10:05.000Z</time>
                <name>Trackpoint 2848</name>
            </trkpt>
            <trkpt lat="50.023472" lon="10.9154616">
                <ele>240.0</ele>
                <time>2020-08-22T11:10:07.000Z</time>
                <name>Trackpoint 2849</name>
            </trkpt>
            <trkpt lat="50.0234784" lon="10.9153032">
                <ele>240.0</ele>
                <time>2020-08-22T11:10:09.000Z</time>
                <name>Trackpoint 2850</name>
            </trkpt>
            <trkpt lat="50.0234944" lon="10.9151472">
                <ele>240.0</ele>
                <time>2020-08-22T11:10:11.000Z</time>
                <name>Trackpoint 2851</name>
            </trkpt>
            <trkpt lat="50.0235072" lon="10.9149904">
                <ele>240.0</ele>
                <time>2020-08-22T11:10:13.000Z</time>
                <name>Trackpoint 2852</name>
            </trkpt>
            <trkpt lat="50.0235104" lon="10.914832">
                <ele>240.0</ele>
                <time>2020-08-22T11:10:15.000Z</time>
                <name>Trackpoint 2853</name>
            </trkpt>
            <trkpt lat="50.0235264" lon="10.9146744">
                <ele>240.0</ele>
                <time>2020-08-22T11:10:17.000Z</time>
                <name>Trackpoint 2854</name>
            </trkpt>
            <trkpt lat="50.0235328" lon="10.91452">
                <ele>240.0</ele>
                <time>2020-08-22T11:10:19.000Z</time>
                <name>Trackpoint 2855</name>
            </trkpt>
            <trkpt lat="50.0235392" lon="10.9143632">
                <ele>240.0</ele>
                <time>2020-08-22T11:10:21.000Z</time>
                <name>Trackpoint 2856</name>
            </trkpt>
            <trkpt lat="50.023552" lon="10.9142048">
                <ele>240.0</ele>
                <time>2020-08-22T11:10:23.000Z</time>
                <name>Trackpoint 2857</name>
            </trkpt>
            <trkpt lat="50.0235552" lon="10.9140464">
                <ele>240.0</ele>
                <time>2020-08-22T11:10:25.000Z</time>
                <name>Trackpoint 2858</name>
            </trkpt>
            <trkpt lat="50.023568" lon="10.9138872">
                <ele>240.0</ele>
                <time>2020-08-22T11:10:27.000Z</time>
                <name>Trackpoint 2859</name>
            </trkpt>
            <trkpt lat="50.0235776" lon="10.9137272">
                <ele>240.0</ele>
                <time>2020-08-22T11:10:29.000Z</time>
                <name>Trackpoint 2860</name>
            </trkpt>
            <trkpt lat="50.0235904" lon="10.9135688">
                <ele>240.0</ele>
                <time>2020-08-22T11:10:31.000Z</time>
                <name>Trackpoint 2861</name>
            </trkpt>
            <trkpt lat="50.0236" lon="10.913408">
                <ele>240.0</ele>
                <time>2020-08-22T11:10:33.000Z</time>
                <name>Trackpoint 2862</name>
            </trkpt>
            <trkpt lat="50.023616" lon="10.9132496">
                <ele>240.0</ele>
                <time>2020-08-22T11:10:35.000Z</time>
                <name>Trackpoint 2863</name>
            </trkpt>
            <trkpt lat="50.0236288" lon="10.913092">
                <ele>240.0</ele>
                <time>2020-08-22T11:10:37.000Z</time>
                <name>Trackpoint 2864</name>
            </trkpt>
            <trkpt lat="50.0236384" lon="10.9129312">
                <ele>240.0</ele>
                <time>2020-08-22T11:10:39.000Z</time>
                <name>Trackpoint 2865</name>
            </trkpt>
            <trkpt lat="50.023648" lon="10.9127704">
                <ele>240.0</ele>
                <time>2020-08-22T11:10:41.000Z</time>
                <name>Trackpoint 2866</name>
            </trkpt>
            <trkpt lat="50.0236544" lon="10.912612">
                <ele>240.0</ele>
                <time>2020-08-22T11:10:43.000Z</time>
                <name>Trackpoint 2867</name>
            </trkpt>
            <trkpt lat="50.0236672" lon="10.912452">
                <ele>240.0</ele>
                <time>2020-08-22T11:10:45.000Z</time>
                <name>Trackpoint 2868</name>
            </trkpt>
            <trkpt lat="50.0236768" lon="10.9122912">
                <ele>240.0</ele>
                <time>2020-08-22T11:10:47.000Z</time>
                <name>Trackpoint 2869</name>
            </trkpt>
            <trkpt lat="50.0236864" lon="10.9121368">
                <ele>240.0</ele>
                <time>2020-08-22T11:10:49.000Z</time>
                <name>Trackpoint 2870</name>
            </trkpt>
            <trkpt lat="50.023696" lon="10.9119856">
                <ele>241.0</ele>
                <time>2020-08-22T11:10:51.000Z</time>
                <name>Trackpoint 2871</name>
            </trkpt>
            <trkpt lat="50.0237088" lon="10.9118336">
                <ele>241.0</ele>
                <time>2020-08-22T11:10:53.000Z</time>
                <name>Trackpoint 2872</name>
            </trkpt>
            <trkpt lat="50.0237184" lon="10.9116768">
                <ele>241.0</ele>
                <time>2020-08-22T11:10:55.000Z</time>
                <name>Trackpoint 2873</name>
            </trkpt>
            <trkpt lat="50.023728" lon="10.91152">
                <ele>241.0</ele>
                <time>2020-08-22T11:10:57.000Z</time>
                <name>Trackpoint 2874</name>
            </trkpt>
            <trkpt lat="50.0237344" lon="10.911364">
                <ele>241.0</ele>
                <time>2020-08-22T11:10:59.000Z</time>
                <name>Trackpoint 2875</name>
            </trkpt>
            <trkpt lat="50.0237472" lon="10.9112064">
                <ele>241.0</ele>
                <time>2020-08-22T11:11:01.000Z</time>
                <name>Trackpoint 2876</name>
            </trkpt>
            <trkpt lat="50.0237664" lon="10.911052">
                <ele>241.0</ele>
                <time>2020-08-22T11:11:03.000Z</time>
                <name>Trackpoint 2877</name>
            </trkpt>
            <trkpt lat="50.023792" lon="10.910896">
                <ele>241.0</ele>
                <time>2020-08-22T11:11:05.000Z</time>
                <name>Trackpoint 2878</name>
            </trkpt>
            <trkpt lat="50.0238144" lon="10.910744">
                <ele>241.0</ele>
                <time>2020-08-22T11:11:07.000Z</time>
                <name>Trackpoint 2879</name>
            </trkpt>
            <trkpt lat="50.0238336" lon="10.9105904">
                <ele>241.0</ele>
                <time>2020-08-22T11:11:09.000Z</time>
                <name>Trackpoint 2880</name>
            </trkpt>
            <trkpt lat="50.023856" lon="10.9104408">
                <ele>241.0</ele>
                <time>2020-08-22T11:11:11.000Z</time>
                <name>Trackpoint 2881</name>
            </trkpt>
            <trkpt lat="50.0238752" lon="10.9102872">
                <ele>241.0</ele>
                <time>2020-08-22T11:11:13.000Z</time>
                <name>Trackpoint 2882</name>
            </trkpt>
            <trkpt lat="50.023904" lon="10.9101336">
                <ele>241.0</ele>
                <time>2020-08-22T11:11:15.000Z</time>
                <name>Trackpoint 2883</name>
            </trkpt>
            <trkpt lat="50.0239264" lon="10.9099776">
                <ele>241.0</ele>
                <time>2020-08-22T11:11:17.000Z</time>
                <name>Trackpoint 2884</name>
            </trkpt>
            <trkpt lat="50.0239456" lon="10.9098264">
                <ele>241.0</ele>
                <time>2020-08-22T11:11:19.000Z</time>
                <name>Trackpoint 2885</name>
            </trkpt>
            <trkpt lat="50.0239712" lon="10.9096736">
                <ele>241.0</ele>
                <time>2020-08-22T11:11:21.000Z</time>
                <name>Trackpoint 2886</name>
            </trkpt>
            <trkpt lat="50.0240032" lon="10.9095272">
                <ele>241.0</ele>
                <time>2020-08-22T11:11:23.000Z</time>
                <name>Trackpoint 2887</name>
            </trkpt>
            <trkpt lat="50.024032" lon="10.9093768">
                <ele>242.0</ele>
                <time>2020-08-22T11:11:25.000Z</time>
                <name>Trackpoint 2888</name>
            </trkpt>
            <trkpt lat="50.0240544" lon="10.9092264">
                <ele>242.0</ele>
                <time>2020-08-22T11:11:27.000Z</time>
                <name>Trackpoint 2889</name>
            </trkpt>
            <trkpt lat="50.0240832" lon="10.9090784">
                <ele>242.0</ele>
                <time>2020-08-22T11:11:29.000Z</time>
                <name>Trackpoint 2890</name>
            </trkpt>
            <trkpt lat="50.0241056" lon="10.908932">
                <ele>242.0</ele>
                <time>2020-08-22T11:11:31.000Z</time>
                <name>Trackpoint 2891</name>
            </trkpt>
            <trkpt lat="50.024128" lon="10.9087832">
                <ele>242.0</ele>
                <time>2020-08-22T11:11:33.000Z</time>
                <name>Trackpoint 2892</name>
            </trkpt>
            <trkpt lat="50.0241536" lon="10.9086384">
                <ele>241.0</ele>
                <time>2020-08-22T11:11:35.000Z</time>
                <name>Trackpoint 2893</name>
            </trkpt>
            <trkpt lat="50.0241856" lon="10.9084952">
                <ele>241.0</ele>
                <time>2020-08-22T11:11:37.000Z</time>
                <name>Trackpoint 2894</name>
            </trkpt>
            <trkpt lat="50.0242112" lon="10.9083432">
                <ele>241.0</ele>
                <time>2020-08-22T11:11:39.000Z</time>
                <name>Trackpoint 2895</name>
            </trkpt>
            <trkpt lat="50.02424" lon="10.90818">
                <ele>241.0</ele>
                <time>2020-08-22T11:11:41.000Z</time>
                <name>Trackpoint 2896</name>
            </trkpt>
            <trkpt lat="50.0242496" lon="10.9080888">
                <ele>241.0</ele>
                <time>2020-08-22T11:11:42.000Z</time>
                <name>Trackpoint 2897</name>
            </trkpt>
            <trkpt lat="50.0242752" lon="10.9079304">
                <ele>241.0</ele>
                <time>2020-08-22T11:11:44.000Z</time>
                <name>Trackpoint 2898</name>
            </trkpt>
            <trkpt lat="50.0243104" lon="10.9077752">
                <ele>242.0</ele>
                <time>2020-08-22T11:11:46.000Z</time>
                <name>Trackpoint 2899</name>
            </trkpt>
            <trkpt lat="50.0243328" lon="10.9076136">
                <ele>242.0</ele>
                <time>2020-08-22T11:11:48.000Z</time>
                <name>Trackpoint 2900</name>
            </trkpt>
            <trkpt lat="50.0243584" lon="10.9074624">
                <ele>242.0</ele>
                <time>2020-08-22T11:11:50.000Z</time>
                <name>Trackpoint 2901</name>
            </trkpt>
            <trkpt lat="50.024384" lon="10.9073264">
                <ele>242.0</ele>
                <time>2020-08-22T11:11:52.000Z</time>
                <name>Trackpoint 2902</name>
            </trkpt>
            <trkpt lat="50.0244096" lon="10.907204">
                <ele>242.0</ele>
                <time>2020-08-22T11:11:54.000Z</time>
                <name>Trackpoint 2903</name>
            </trkpt>
            <trkpt lat="50.0244224" lon="10.9070864">
                <ele>243.0</ele>
                <time>2020-08-22T11:11:56.000Z</time>
                <name>Trackpoint 2904</name>
            </trkpt>
            <trkpt lat="50.0244096" lon="10.9069928">
                <ele>244.0</ele>
                <time>2020-08-22T11:11:58.000Z</time>
                <name>Trackpoint 2905</name>
            </trkpt>
            <trkpt lat="50.0243136" lon="10.906932">
                <ele>242.0</ele>
                <time>2020-08-22T11:12:01.000Z</time>
                <name>Trackpoint 2906</name>
            </trkpt>
            <trkpt lat="50.0242144" lon="10.9069208">
                <ele>241.0</ele>
                <time>2020-08-22T11:12:03.000Z</time>
                <name>Trackpoint 2907</name>
            </trkpt>
            <trkpt lat="50.024112" lon="10.9069096">
                <ele>242.0</ele>
                <time>2020-08-22T11:12:05.000Z</time>
                <name>Trackpoint 2908</name>
            </trkpt>
            <trkpt lat="50.0240096" lon="10.906892">
                <ele>242.0</ele>
                <time>2020-08-22T11:12:07.000Z</time>
                <name>Trackpoint 2909</name>
            </trkpt>
            <trkpt lat="50.023904" lon="10.9068736">
                <ele>242.0</ele>
                <time>2020-08-22T11:12:09.000Z</time>
                <name>Trackpoint 2910</name>
            </trkpt>
            <trkpt lat="50.0237952" lon="10.9068568">
                <ele>242.0</ele>
                <time>2020-08-22T11:12:11.000Z</time>
                <name>Trackpoint 2911</name>
            </trkpt>
            <trkpt lat="50.0236864" lon="10.9068416">
                <ele>241.0</ele>
                <time>2020-08-22T11:12:13.000Z</time>
                <name>Trackpoint 2912</name>
            </trkpt>
            <trkpt lat="50.0235744" lon="10.906832">
                <ele>241.0</ele>
                <time>2020-08-22T11:12:15.000Z</time>
                <name>Trackpoint 2913</name>
            </trkpt>
            <trkpt lat="50.0234688" lon="10.9068144">
                <ele>241.0</ele>
                <time>2020-08-22T11:12:17.000Z</time>
                <name>Trackpoint 2914</name>
            </trkpt>
            <trkpt lat="50.02336" lon="10.9067896">
                <ele>241.0</ele>
                <time>2020-08-22T11:12:19.000Z</time>
                <name>Trackpoint 2915</name>
            </trkpt>
            <trkpt lat="50.0232576" lon="10.9067536">
                <ele>241.0</ele>
                <time>2020-08-22T11:12:21.000Z</time>
                <name>Trackpoint 2916</name>
            </trkpt>
            <trkpt lat="50.0231616" lon="10.9066936">
                <ele>241.0</ele>
                <time>2020-08-22T11:12:23.000Z</time>
                <name>Trackpoint 2917</name>
            </trkpt>
            <trkpt lat="50.0230816" lon="10.9066112">
                <ele>241.0</ele>
                <time>2020-08-22T11:12:25.000Z</time>
                <name>Trackpoint 2918</name>
            </trkpt>
            <trkpt lat="50.0230112" lon="10.9065264">
                <ele>242.0</ele>
                <time>2020-08-22T11:12:27.000Z</time>
                <name>Trackpoint 2919</name>
            </trkpt>
            <trkpt lat="50.0229312" lon="10.9064416">
                <ele>242.0</ele>
                <time>2020-08-22T11:12:29.000Z</time>
                <name>Trackpoint 2920</name>
            </trkpt>
            <trkpt lat="50.0228512" lon="10.9063584">
                <ele>242.0</ele>
                <time>2020-08-22T11:12:31.000Z</time>
                <name>Trackpoint 2921</name>
            </trkpt>
            <trkpt lat="50.0227712" lon="10.9062744">
                <ele>241.0</ele>
                <time>2020-08-22T11:12:33.000Z</time>
                <name>Trackpoint 2922</name>
            </trkpt>
            <trkpt lat="50.0226976" lon="10.9062032">
                <ele>242.0</ele>
                <time>2020-08-22T11:12:35.000Z</time>
                <name>Trackpoint 2923</name>
            </trkpt>
            <trkpt lat="50.0226208" lon="10.9061248">
                <ele>242.0</ele>
                <time>2020-08-22T11:12:37.000Z</time>
                <name>Trackpoint 2924</name>
            </trkpt>
            <trkpt lat="50.022544" lon="10.9060448">
                <ele>241.0</ele>
                <time>2020-08-22T11:12:39.000Z</time>
                <name>Trackpoint 2925</name>
            </trkpt>
            <trkpt lat="50.0224672" lon="10.90596">
                <ele>241.0</ele>
                <time>2020-08-22T11:12:41.000Z</time>
                <name>Trackpoint 2926</name>
            </trkpt>
            <trkpt lat="50.0223968" lon="10.9058752">
                <ele>242.0</ele>
                <time>2020-08-22T11:12:43.000Z</time>
                <name>Trackpoint 2927</name>
            </trkpt>
            <trkpt lat="50.0223232" lon="10.9057976">
                <ele>241.0</ele>
                <time>2020-08-22T11:12:45.000Z</time>
                <name>Trackpoint 2928</name>
            </trkpt>
            <trkpt lat="50.0222496" lon="10.90572">
                <ele>242.0</ele>
                <time>2020-08-22T11:12:47.000Z</time>
                <name>Trackpoint 2929</name>
            </trkpt>
            <trkpt lat="50.0221792" lon="10.9056432">
                <ele>242.0</ele>
                <time>2020-08-22T11:12:49.000Z</time>
                <name>Trackpoint 2930</name>
            </trkpt>
            <trkpt lat="50.0221088" lon="10.9055616">
                <ele>242.0</ele>
                <time>2020-08-22T11:12:51.000Z</time>
                <name>Trackpoint 2931</name>
            </trkpt>
            <trkpt lat="50.0220352" lon="10.9054936">
                <ele>242.0</ele>
                <time>2020-08-22T11:12:53.000Z</time>
                <name>Trackpoint 2932</name>
            </trkpt>
            <trkpt lat="50.0219616" lon="10.9054296">
                <ele>242.0</ele>
                <time>2020-08-22T11:12:55.000Z</time>
                <name>Trackpoint 2933</name>
            </trkpt>
            <trkpt lat="50.021888" lon="10.9053552">
                <ele>242.0</ele>
                <time>2020-08-22T11:12:57.000Z</time>
                <name>Trackpoint 2934</name>
            </trkpt>
            <trkpt lat="50.0218176" lon="10.9052848">
                <ele>242.0</ele>
                <time>2020-08-22T11:12:59.000Z</time>
                <name>Trackpoint 2935</name>
            </trkpt>
            <trkpt lat="50.0217376" lon="10.9052288">
                <ele>242.0</ele>
                <time>2020-08-22T11:13:01.000Z</time>
                <name>Trackpoint 2936</name>
            </trkpt>
            <trkpt lat="50.0216512" lon="10.9051712">
                <ele>242.0</ele>
                <time>2020-08-22T11:13:03.000Z</time>
                <name>Trackpoint 2937</name>
            </trkpt>
            <trkpt lat="50.0215712" lon="10.9051176">
                <ele>242.0</ele>
                <time>2020-08-22T11:13:05.000Z</time>
                <name>Trackpoint 2938</name>
            </trkpt>
            <trkpt lat="50.021488" lon="10.9050664">
                <ele>242.0</ele>
                <time>2020-08-22T11:13:07.000Z</time>
                <name>Trackpoint 2939</name>
            </trkpt>
            <trkpt lat="50.0214112" lon="10.9050168">
                <ele>242.0</ele>
                <time>2020-08-22T11:13:09.000Z</time>
                <name>Trackpoint 2940</name>
            </trkpt>
            <trkpt lat="50.0213312" lon="10.9049568">
                <ele>242.0</ele>
                <time>2020-08-22T11:13:11.000Z</time>
                <name>Trackpoint 2941</name>
            </trkpt>
            <trkpt lat="50.021248" lon="10.9049016">
                <ele>242.0</ele>
                <time>2020-08-22T11:13:13.000Z</time>
                <name>Trackpoint 2942</name>
            </trkpt>
            <trkpt lat="50.021168" lon="10.904848">
                <ele>242.0</ele>
                <time>2020-08-22T11:13:15.000Z</time>
                <name>Trackpoint 2943</name>
            </trkpt>
            <trkpt lat="50.021088" lon="10.9048008">
                <ele>242.0</ele>
                <time>2020-08-22T11:13:17.000Z</time>
                <name>Trackpoint 2944</name>
            </trkpt>
            <trkpt lat="50.0210048" lon="10.9047536">
                <ele>242.0</ele>
                <time>2020-08-22T11:13:19.000Z</time>
                <name>Trackpoint 2945</name>
            </trkpt>
            <trkpt lat="50.0209184" lon="10.90472">
                <ele>242.0</ele>
                <time>2020-08-22T11:13:21.000Z</time>
                <name>Trackpoint 2946</name>
            </trkpt>
            <trkpt lat="50.0207968" lon="10.9046688">
                <ele>243.0</ele>
                <time>2020-08-22T11:13:24.000Z</time>
                <name>Trackpoint 2947</name>
            </trkpt>
            <trkpt lat="50.0206752" lon="10.9046352">
                <ele>243.0</ele>
                <time>2020-08-22T11:13:27.000Z</time>
                <name>Trackpoint 2948</name>
            </trkpt>
            <trkpt lat="50.0205504" lon="10.9045896">
                <ele>243.0</ele>
                <time>2020-08-22T11:13:30.000Z</time>
                <name>Trackpoint 2949</name>
            </trkpt>
            <trkpt lat="50.0204608" lon="10.9045752">
                <ele>243.0</ele>
                <time>2020-08-22T11:13:32.000Z</time>
                <name>Trackpoint 2950</name>
            </trkpt>
            <trkpt lat="50.0203296" lon="10.9045736">
                <ele>242.0</ele>
                <time>2020-08-22T11:13:35.000Z</time>
                <name>Trackpoint 2951</name>
            </trkpt>
            <trkpt lat="50.0202368" lon="10.9045824">
                <ele>242.0</ele>
                <time>2020-08-22T11:13:37.000Z</time>
                <name>Trackpoint 2952</name>
            </trkpt>
            <trkpt lat="50.0201024" lon="10.9046088">
                <ele>242.0</ele>
                <time>2020-08-22T11:13:40.000Z</time>
                <name>Trackpoint 2953</name>
            </trkpt>
            <trkpt lat="50.0200128" lon="10.9046184">
                <ele>242.0</ele>
                <time>2020-08-22T11:13:42.000Z</time>
                <name>Trackpoint 2954</name>
            </trkpt>
            <trkpt lat="50.0198848" lon="10.9046424">
                <ele>243.0</ele>
                <time>2020-08-22T11:13:45.000Z</time>
                <name>Trackpoint 2955</name>
            </trkpt>
            <trkpt lat="50.01976" lon="10.90466">
                <ele>243.0</ele>
                <time>2020-08-22T11:13:48.000Z</time>
                <name>Trackpoint 2956</name>
            </trkpt>
            <trkpt lat="50.0196352" lon="10.9046448">
                <ele>243.0</ele>
                <time>2020-08-22T11:13:51.000Z</time>
                <name>Trackpoint 2957</name>
            </trkpt>
            <trkpt lat="50.0195072" lon="10.904636">
                <ele>244.0</ele>
                <time>2020-08-22T11:13:54.000Z</time>
                <name>Trackpoint 2958</name>
            </trkpt>
            <trkpt lat="50.0193856" lon="10.9046224">
                <ele>244.0</ele>
                <time>2020-08-22T11:13:57.000Z</time>
                <name>Trackpoint 2959</name>
            </trkpt>
            <trkpt lat="50.0192576" lon="10.9046088">
                <ele>243.0</ele>
                <time>2020-08-22T11:14:00.000Z</time>
                <name>Trackpoint 2960</name>
            </trkpt>
            <trkpt lat="50.019136" lon="10.9046072">
                <ele>243.0</ele>
                <time>2020-08-22T11:14:03.000Z</time>
                <name>Trackpoint 2961</name>
            </trkpt>
            <trkpt lat="50.019024" lon="10.9046136">
                <ele>244.0</ele>
                <time>2020-08-22T11:14:06.000Z</time>
                <name>Trackpoint 2962</name>
            </trkpt>
            <trkpt lat="50.0189248" lon="10.9046248">
                <ele>244.0</ele>
                <time>2020-08-22T11:14:09.000Z</time>
                <name>Trackpoint 2963</name>
            </trkpt>
            <trkpt lat="50.0188192" lon="10.904636">
                <ele>244.0</ele>
                <time>2020-08-22T11:14:12.000Z</time>
                <name>Trackpoint 2964</name>
            </trkpt>
            <trkpt lat="50.018704" lon="10.9046448">
                <ele>244.0</ele>
                <time>2020-08-22T11:14:15.000Z</time>
                <name>Trackpoint 2965</name>
            </trkpt>
            <trkpt lat="50.0185856" lon="10.9046624">
                <ele>244.0</ele>
                <time>2020-08-22T11:14:18.000Z</time>
                <name>Trackpoint 2966</name>
            </trkpt>
            <trkpt lat="50.0184672" lon="10.9046744">
                <ele>245.0</ele>
                <time>2020-08-22T11:14:21.000Z</time>
                <name>Trackpoint 2967</name>
            </trkpt>
            <trkpt lat="50.0183456" lon="10.9046936">
                <ele>245.0</ele>
                <time>2020-08-22T11:14:24.000Z</time>
                <name>Trackpoint 2968</name>
            </trkpt>
            <trkpt lat="50.0182176" lon="10.9046968">
                <ele>245.0</ele>
                <time>2020-08-22T11:14:27.000Z</time>
                <name>Trackpoint 2969</name>
            </trkpt>
            <trkpt lat="50.0180832" lon="10.9047048">
                <ele>245.0</ele>
                <time>2020-08-22T11:14:30.000Z</time>
                <name>Trackpoint 2970</name>
            </trkpt>
            <trkpt lat="50.0179904" lon="10.9047136">
                <ele>245.0</ele>
                <time>2020-08-22T11:14:32.000Z</time>
                <name>Trackpoint 2971</name>
            </trkpt>
            <trkpt lat="50.0178912" lon="10.9047072">
                <ele>244.0</ele>
                <time>2020-08-22T11:14:34.000Z</time>
                <name>Trackpoint 2972</name>
            </trkpt>
            <trkpt lat="50.017792" lon="10.9046848">
                <ele>244.0</ele>
                <time>2020-08-22T11:14:36.000Z</time>
                <name>Trackpoint 2973</name>
            </trkpt>
            <trkpt lat="50.0176928" lon="10.9046536">
                <ele>244.0</ele>
                <time>2020-08-22T11:14:38.000Z</time>
                <name>Trackpoint 2974</name>
            </trkpt>
            <trkpt lat="50.0175904" lon="10.90462">
                <ele>244.0</ele>
                <time>2020-08-22T11:14:40.000Z</time>
                <name>Trackpoint 2975</name>
            </trkpt>
            <trkpt lat="50.0174816" lon="10.9045784">
                <ele>244.0</ele>
                <time>2020-08-22T11:14:42.000Z</time>
                <name>Trackpoint 2976</name>
            </trkpt>
            <trkpt lat="50.017376" lon="10.9045264">
                <ele>244.0</ele>
                <time>2020-08-22T11:14:44.000Z</time>
                <name>Trackpoint 2977</name>
            </trkpt>
            <trkpt lat="50.0172704" lon="10.90448">
                <ele>243.0</ele>
                <time>2020-08-22T11:14:46.000Z</time>
                <name>Trackpoint 2978</name>
            </trkpt>
            <trkpt lat="50.0171616" lon="10.9044288">
                <ele>243.0</ele>
                <time>2020-08-22T11:14:48.000Z</time>
                <name>Trackpoint 2979</name>
            </trkpt>
            <trkpt lat="50.0170592" lon="10.9043904">
                <ele>242.0</ele>
                <time>2020-08-22T11:14:50.000Z</time>
                <name>Trackpoint 2980</name>
            </trkpt>
            <trkpt lat="50.0169536" lon="10.90436">
                <ele>242.0</ele>
                <time>2020-08-22T11:14:52.000Z</time>
                <name>Trackpoint 2981</name>
            </trkpt>
            <trkpt lat="50.0168416" lon="10.9043352">
                <ele>242.0</ele>
                <time>2020-08-22T11:14:54.000Z</time>
                <name>Trackpoint 2982</name>
            </trkpt>
            <trkpt lat="50.016736" lon="10.9043216">
                <ele>242.0</ele>
                <time>2020-08-22T11:14:56.000Z</time>
                <name>Trackpoint 2983</name>
            </trkpt>
            <trkpt lat="50.0166336" lon="10.9043192">
                <ele>241.0</ele>
                <time>2020-08-22T11:14:58.000Z</time>
                <name>Trackpoint 2984</name>
            </trkpt>
            <trkpt lat="50.016528" lon="10.9043328">
                <ele>241.0</ele>
                <time>2020-08-22T11:15:00.000Z</time>
                <name>Trackpoint 2985</name>
            </trkpt>
            <trkpt lat="50.0164288" lon="10.9043568">
                <ele>241.0</ele>
                <time>2020-08-22T11:15:02.000Z</time>
                <name>Trackpoint 2986</name>
            </trkpt>
            <trkpt lat="50.0163296" lon="10.90438">
                <ele>241.0</ele>
                <time>2020-08-22T11:15:04.000Z</time>
                <name>Trackpoint 2987</name>
            </trkpt>
            <trkpt lat="50.01624" lon="10.9044064">
                <ele>241.0</ele>
                <time>2020-08-22T11:15:06.000Z</time>
                <name>Trackpoint 2988</name>
            </trkpt>
            <trkpt lat="50.0161472" lon="10.9044304">
                <ele>241.0</ele>
                <time>2020-08-22T11:15:08.000Z</time>
                <name>Trackpoint 2989</name>
            </trkpt>
            <trkpt lat="50.0160608" lon="10.9044584">
                <ele>242.0</ele>
                <time>2020-08-22T11:15:10.000Z</time>
                <name>Trackpoint 2990</name>
            </trkpt>
            <trkpt lat="50.0159392" lon="10.9045048">
                <ele>242.0</ele>
                <time>2020-08-22T11:15:13.000Z</time>
                <name>Trackpoint 2991</name>
            </trkpt>
            <trkpt lat="50.0158144" lon="10.9045296">
                <ele>242.0</ele>
                <time>2020-08-22T11:15:16.000Z</time>
                <name>Trackpoint 2992</name>
            </trkpt>
            <trkpt lat="50.0157088" lon="10.9045536">
                <ele>242.0</ele>
                <time>2020-08-22T11:15:19.000Z</time>
                <name>Trackpoint 2993</name>
            </trkpt>
            <trkpt lat="50.0156032" lon="10.9045736">
                <ele>241.0</ele>
                <time>2020-08-22T11:15:22.000Z</time>
                <name>Trackpoint 2994</name>
            </trkpt>
            <trkpt lat="50.0154912" lon="10.9046032">
                <ele>242.0</ele>
                <time>2020-08-22T11:15:25.000Z</time>
                <name>Trackpoint 2995</name>
            </trkpt>
            <trkpt lat="50.015376" lon="10.904632">
                <ele>241.0</ele>
                <time>2020-08-22T11:15:28.000Z</time>
                <name>Trackpoint 2996</name>
            </trkpt>
            <trkpt lat="50.0152672" lon="10.9046624">
                <ele>242.0</ele>
                <time>2020-08-22T11:15:31.000Z</time>
                <name>Trackpoint 2997</name>
            </trkpt>
            <trkpt lat="50.0151552" lon="10.9046848">
                <ele>242.0</ele>
                <time>2020-08-22T11:15:34.000Z</time>
                <name>Trackpoint 2998</name>
            </trkpt>
            <trkpt lat="50.0150464" lon="10.9047096">
                <ele>242.0</ele>
                <time>2020-08-22T11:15:37.000Z</time>
                <name>Trackpoint 2999</name>
            </trkpt>
            <trkpt lat="50.0149312" lon="10.9047344">
                <ele>242.0</ele>
                <time>2020-08-22T11:15:40.000Z</time>
                <name>Trackpoint 3000</name>
            </trkpt>
            <trkpt lat="50.0148096" lon="10.9047632">
                <ele>242.0</ele>
                <time>2020-08-22T11:15:43.000Z</time>
                <name>Trackpoint 3001</name>
            </trkpt>
            <trkpt lat="50.0147008" lon="10.9047944">
                <ele>242.0</ele>
                <time>2020-08-22T11:15:46.000Z</time>
                <name>Trackpoint 3002</name>
            </trkpt>
            <trkpt lat="50.0145984" lon="10.9048144">
                <ele>243.0</ele>
                <time>2020-08-22T11:15:49.000Z</time>
                <name>Trackpoint 3003</name>
            </trkpt>
            <trkpt lat="50.0145024" lon="10.904848">
                <ele>243.0</ele>
                <time>2020-08-22T11:15:52.000Z</time>
                <name>Trackpoint 3004</name>
            </trkpt>
            <trkpt lat="50.0144032" lon="10.9048664">
                <ele>243.0</ele>
                <time>2020-08-22T11:15:55.000Z</time>
                <name>Trackpoint 3005</name>
            </trkpt>
            <trkpt lat="50.0142976" lon="10.9048904">
                <ele>243.0</ele>
                <time>2020-08-22T11:15:58.000Z</time>
                <name>Trackpoint 3006</name>
            </trkpt>
            <trkpt lat="50.014192" lon="10.904908">
                <ele>244.0</ele>
                <time>2020-08-22T11:16:01.000Z</time>
                <name>Trackpoint 3007</name>
            </trkpt>
            <trkpt lat="50.0140864" lon="10.9049256">
                <ele>245.0</ele>
                <time>2020-08-22T11:16:04.000Z</time>
                <name>Trackpoint 3008</name>
            </trkpt>
            <trkpt lat="50.013984" lon="10.9049416">
                <ele>245.0</ele>
                <time>2020-08-22T11:16:07.000Z</time>
                <name>Trackpoint 3009</name>
            </trkpt>
            <trkpt lat="50.0138816" lon="10.90496">
                <ele>245.0</ele>
                <time>2020-08-22T11:16:10.000Z</time>
                <name>Trackpoint 3010</name>
            </trkpt>
            <trkpt lat="50.0137792" lon="10.9049816">
                <ele>246.0</ele>
                <time>2020-08-22T11:16:13.000Z</time>
                <name>Trackpoint 3011</name>
            </trkpt>
            <trkpt lat="50.0136768" lon="10.9049928">
                <ele>246.0</ele>
                <time>2020-08-22T11:16:16.000Z</time>
                <name>Trackpoint 3012</name>
            </trkpt>
            <trkpt lat="50.013568" lon="10.9049968">
                <ele>246.0</ele>
                <time>2020-08-22T11:16:19.000Z</time>
                <name>Trackpoint 3013</name>
            </trkpt>
            <trkpt lat="50.0134656" lon="10.9050064">
                <ele>246.0</ele>
                <time>2020-08-22T11:16:22.000Z</time>
                <name>Trackpoint 3014</name>
            </trkpt>
            <trkpt lat="50.0133664" lon="10.9050216">
                <ele>246.0</ele>
                <time>2020-08-22T11:16:25.000Z</time>
                <name>Trackpoint 3015</name>
            </trkpt>
            <trkpt lat="50.0132736" lon="10.9050264">
                <ele>246.0</ele>
                <time>2020-08-22T11:16:28.000Z</time>
                <name>Trackpoint 3016</name>
            </trkpt>
            <trkpt lat="50.013168" lon="10.9050312">
                <ele>246.0</ele>
                <time>2020-08-22T11:16:32.000Z</time>
                <name>Trackpoint 3017</name>
            </trkpt>
            <trkpt lat="50.013072" lon="10.9050304">
                <ele>246.0</ele>
                <time>2020-08-22T11:16:36.000Z</time>
                <name>Trackpoint 3018</name>
            </trkpt>
            <trkpt lat="50.0129632" lon="10.9050416">
                <ele>246.0</ele>
                <time>2020-08-22T11:18:01.000Z</time>
                <name>Trackpoint 3019</name>
            </trkpt>
            <trkpt lat="50.0128672" lon="10.905048">
                <ele>246.0</ele>
                <time>2020-08-22T11:18:04.000Z</time>
                <name>Trackpoint 3020</name>
            </trkpt>
            <trkpt lat="50.0127648" lon="10.9050464">
                <ele>246.0</ele>
                <time>2020-08-22T11:18:07.000Z</time>
                <name>Trackpoint 3021</name>
            </trkpt>
            <trkpt lat="50.0126528" lon="10.9050568">
                <ele>246.0</ele>
                <time>2020-08-22T11:18:10.000Z</time>
                <name>Trackpoint 3022</name>
            </trkpt>
            <trkpt lat="50.0125312" lon="10.9050664">
                <ele>246.0</ele>
                <time>2020-08-22T11:18:13.000Z</time>
                <name>Trackpoint 3023</name>
            </trkpt>
            <trkpt lat="50.0124064" lon="10.9050728">
                <ele>246.0</ele>
                <time>2020-08-22T11:18:16.000Z</time>
                <name>Trackpoint 3024</name>
            </trkpt>
            <trkpt lat="50.0122848" lon="10.9050888">
                <ele>247.0</ele>
                <time>2020-08-22T11:18:19.000Z</time>
                <name>Trackpoint 3025</name>
            </trkpt>
            <trkpt lat="50.0121568" lon="10.9050968">
                <ele>247.0</ele>
                <time>2020-08-22T11:18:22.000Z</time>
                <name>Trackpoint 3026</name>
            </trkpt>
            <trkpt lat="50.0120352" lon="10.9051016">
                <ele>247.0</ele>
                <time>2020-08-22T11:18:25.000Z</time>
                <name>Trackpoint 3027</name>
            </trkpt>
            <trkpt lat="50.01192" lon="10.9051168">
                <ele>247.0</ele>
                <time>2020-08-22T11:18:28.000Z</time>
                <name>Trackpoint 3028</name>
            </trkpt>
            <trkpt lat="50.011808" lon="10.9051512">
                <ele>247.0</ele>
                <time>2020-08-22T11:18:31.000Z</time>
                <name>Trackpoint 3029</name>
            </trkpt>
            <trkpt lat="50.0116832" lon="10.9051912">
                <ele>247.0</ele>
                <time>2020-08-22T11:18:34.000Z</time>
                <name>Trackpoint 3030</name>
            </trkpt>
            <trkpt lat="50.0115584" lon="10.9052184">
                <ele>246.0</ele>
                <time>2020-08-22T11:18:37.000Z</time>
                <name>Trackpoint 3031</name>
            </trkpt>
            <trkpt lat="50.0114304" lon="10.9052248">
                <ele>246.0</ele>
                <time>2020-08-22T11:18:40.000Z</time>
                <name>Trackpoint 3032</name>
            </trkpt>
            <trkpt lat="50.011296" lon="10.9052184">
                <ele>246.0</ele>
                <time>2020-08-22T11:18:43.000Z</time>
                <name>Trackpoint 3033</name>
            </trkpt>
            <trkpt lat="50.0112032" lon="10.9052064">
                <ele>245.0</ele>
                <time>2020-08-22T11:18:45.000Z</time>
                <name>Trackpoint 3034</name>
            </trkpt>
            <trkpt lat="50.0110752" lon="10.9051848">
                <ele>245.0</ele>
                <time>2020-08-22T11:18:48.000Z</time>
                <name>Trackpoint 3035</name>
            </trkpt>
            <trkpt lat="50.0109472" lon="10.90516">
                <ele>245.0</ele>
                <time>2020-08-22T11:18:51.000Z</time>
                <name>Trackpoint 3036</name>
            </trkpt>
            <trkpt lat="50.0108416" lon="10.9051384">
                <ele>245.0</ele>
                <time>2020-08-22T11:18:54.000Z</time>
                <name>Trackpoint 3037</name>
            </trkpt>
            <trkpt lat="50.0107616" lon="10.905068">
                <ele>245.0</ele>
                <time>2020-08-22T11:18:59.000Z</time>
                <name>Trackpoint 3038</name>
            </trkpt>
            <trkpt lat="50.0106496" lon="10.9050888">
                <ele>244.0</ele>
                <time>2020-08-22T11:19:03.000Z</time>
                <name>Trackpoint 3039</name>
            </trkpt>
            <trkpt lat="50.010528" lon="10.9050768">
                <ele>244.0</ele>
                <time>2020-08-22T11:19:06.000Z</time>
                <name>Trackpoint 3040</name>
            </trkpt>
            <trkpt lat="50.0104096" lon="10.90506">
                <ele>244.0</ele>
                <time>2020-08-22T11:19:09.000Z</time>
                <name>Trackpoint 3041</name>
            </trkpt>
            <trkpt lat="50.0103136" lon="10.9050192">
                <ele>244.0</ele>
                <time>2020-08-22T11:19:12.000Z</time>
                <name>Trackpoint 3042</name>
            </trkpt>
            <trkpt lat="50.0102336" lon="10.9049456">
                <ele>244.0</ele>
                <time>2020-08-22T11:19:16.000Z</time>
                <name>Trackpoint 3043</name>
            </trkpt>
            <trkpt lat="50.0101504" lon="10.905012">
                <ele>244.0</ele>
                <time>2020-08-22T11:19:21.000Z</time>
                <name>Trackpoint 3044</name>
            </trkpt>
            <trkpt lat="50.010144" lon="10.905124">
                <ele>245.0</ele>
                <time>2020-08-22T11:19:25.000Z</time>
                <name>Trackpoint 3045</name>
            </trkpt>
            <trkpt lat="50.010192" lon="10.9050376">
                <ele>245.0</ele>
                <time>2020-08-22T11:20:11.000Z</time>
                <name>Trackpoint 3046</name>
            </trkpt>
            <trkpt lat="50.0102304" lon="10.9049184">
                <ele>246.0</ele>
                <time>2020-08-22T11:20:14.000Z</time>
                <name>Trackpoint 3047</name>
            </trkpt>
            <trkpt lat="50.0102592" lon="10.9048032">
                <ele>246.0</ele>
                <time>2020-08-22T11:20:16.000Z</time>
                <name>Trackpoint 3048</name>
            </trkpt>
            <trkpt lat="50.0102848" lon="10.9046816">
                <ele>246.0</ele>
                <time>2020-08-22T11:20:18.000Z</time>
                <name>Trackpoint 3049</name>
            </trkpt>
            <trkpt lat="50.010304" lon="10.90456">
                <ele>246.0</ele>
                <time>2020-08-22T11:20:20.000Z</time>
                <name>Trackpoint 3050</name>
            </trkpt>
            <trkpt lat="50.0103296" lon="10.9044288">
                <ele>246.0</ele>
                <time>2020-08-22T11:20:22.000Z</time>
                <name>Trackpoint 3051</name>
            </trkpt>
            <trkpt lat="50.0103648" lon="10.9042984">
                <ele>246.0</ele>
                <time>2020-08-22T11:20:24.000Z</time>
                <name>Trackpoint 3052</name>
            </trkpt>
            <trkpt lat="50.0103904" lon="10.9041632">
                <ele>246.0</ele>
                <time>2020-08-22T11:20:26.000Z</time>
                <name>Trackpoint 3053</name>
            </trkpt>
            <trkpt lat="50.0104128" lon="10.9040248">
                <ele>246.0</ele>
                <time>2020-08-22T11:20:28.000Z</time>
                <name>Trackpoint 3054</name>
            </trkpt>
            <trkpt lat="50.0104448" lon="10.9038864">
                <ele>246.0</ele>
                <time>2020-08-22T11:20:30.000Z</time>
                <name>Trackpoint 3055</name>
            </trkpt>
            <trkpt lat="50.010464" lon="10.90374">
                <ele>246.0</ele>
                <time>2020-08-22T11:20:32.000Z</time>
                <name>Trackpoint 3056</name>
            </trkpt>
            <trkpt lat="50.0104928" lon="10.9036032">
                <ele>246.0</ele>
                <time>2020-08-22T11:20:34.000Z</time>
                <name>Trackpoint 3057</name>
            </trkpt>
            <trkpt lat="50.010528" lon="10.9034664">
                <ele>246.0</ele>
                <time>2020-08-22T11:20:36.000Z</time>
                <name>Trackpoint 3058</name>
            </trkpt>
            <trkpt lat="50.0105504" lon="10.90332">
                <ele>246.0</ele>
                <time>2020-08-22T11:20:38.000Z</time>
                <name>Trackpoint 3059</name>
            </trkpt>
            <trkpt lat="50.0105856" lon="10.9031712">
                <ele>246.0</ele>
                <time>2020-08-22T11:20:40.000Z</time>
                <name>Trackpoint 3060</name>
            </trkpt>
            <trkpt lat="50.0106208" lon="10.90302">
                <ele>246.0</ele>
                <time>2020-08-22T11:20:42.000Z</time>
                <name>Trackpoint 3061</name>
            </trkpt>
            <trkpt lat="50.010656" lon="10.9028552">
                <ele>246.0</ele>
                <time>2020-08-22T11:20:44.000Z</time>
                <name>Trackpoint 3062</name>
            </trkpt>
            <trkpt lat="50.0107072" lon="10.9027016">
                <ele>246.0</ele>
                <time>2020-08-22T11:20:46.000Z</time>
                <name>Trackpoint 3063</name>
            </trkpt>
            <trkpt lat="50.0107584" lon="10.9025496">
                <ele>246.0</ele>
                <time>2020-08-22T11:20:48.000Z</time>
                <name>Trackpoint 3064</name>
            </trkpt>
            <trkpt lat="50.0107904" lon="10.9023848">
                <ele>246.0</ele>
                <time>2020-08-22T11:20:50.000Z</time>
                <name>Trackpoint 3065</name>
            </trkpt>
            <trkpt lat="50.0108256" lon="10.9022104">
                <ele>246.0</ele>
                <time>2020-08-22T11:20:52.000Z</time>
                <name>Trackpoint 3066</name>
            </trkpt>
            <trkpt lat="50.010864" lon="10.9020384">
                <ele>246.0</ele>
                <time>2020-08-22T11:20:54.000Z</time>
                <name>Trackpoint 3067</name>
            </trkpt>
            <trkpt lat="50.0109024" lon="10.901872">
                <ele>246.0</ele>
                <time>2020-08-22T11:20:56.000Z</time>
                <name>Trackpoint 3068</name>
            </trkpt>
            <trkpt lat="50.0109472" lon="10.9017088">
                <ele>246.0</ele>
                <time>2020-08-22T11:20:58.000Z</time>
                <name>Trackpoint 3069</name>
            </trkpt>
            <trkpt lat="50.0109952" lon="10.901548">
                <ele>246.0</ele>
                <time>2020-08-22T11:21:00.000Z</time>
                <name>Trackpoint 3070</name>
            </trkpt>
            <trkpt lat="50.0110336" lon="10.9013752">
                <ele>246.0</ele>
                <time>2020-08-22T11:21:02.000Z</time>
                <name>Trackpoint 3071</name>
            </trkpt>
            <trkpt lat="50.0110784" lon="10.901212">
                <ele>246.0</ele>
                <time>2020-08-22T11:21:04.000Z</time>
                <name>Trackpoint 3072</name>
            </trkpt>
            <trkpt lat="50.01112" lon="10.9010496">
                <ele>246.0</ele>
                <time>2020-08-22T11:21:06.000Z</time>
                <name>Trackpoint 3073</name>
            </trkpt>
            <trkpt lat="50.0111648" lon="10.9008976">
                <ele>246.0</ele>
                <time>2020-08-22T11:21:08.000Z</time>
                <name>Trackpoint 3074</name>
            </trkpt>
            <trkpt lat="50.0112064" lon="10.9007456">
                <ele>246.0</ele>
                <time>2020-08-22T11:21:10.000Z</time>
                <name>Trackpoint 3075</name>
            </trkpt>
            <trkpt lat="50.0112544" lon="10.900592">
                <ele>246.0</ele>
                <time>2020-08-22T11:21:12.000Z</time>
                <name>Trackpoint 3076</name>
            </trkpt>
            <trkpt lat="50.011296" lon="10.90044">
                <ele>246.0</ele>
                <time>2020-08-22T11:21:14.000Z</time>
                <name>Trackpoint 3077</name>
            </trkpt>
            <trkpt lat="50.011344" lon="10.9002896">
                <ele>246.0</ele>
                <time>2020-08-22T11:21:16.000Z</time>
                <name>Trackpoint 3078</name>
            </trkpt>
            <trkpt lat="50.011392" lon="10.9001464">
                <ele>246.0</ele>
                <time>2020-08-22T11:21:18.000Z</time>
                <name>Trackpoint 3079</name>
            </trkpt>
            <trkpt lat="50.0114336" lon="10.9000016">
                <ele>246.0</ele>
                <time>2020-08-22T11:21:20.000Z</time>
                <name>Trackpoint 3080</name>
            </trkpt>
            <trkpt lat="50.0114816" lon="10.899868">
                <ele>246.0</ele>
                <time>2020-08-22T11:21:22.000Z</time>
                <name>Trackpoint 3081</name>
            </trkpt>
            <trkpt lat="50.0115328" lon="10.89974">
                <ele>246.0</ele>
                <time>2020-08-22T11:21:24.000Z</time>
                <name>Trackpoint 3082</name>
            </trkpt>
            <trkpt lat="50.0115808" lon="10.8996088">
                <ele>246.0</ele>
                <time>2020-08-22T11:21:26.000Z</time>
                <name>Trackpoint 3083</name>
            </trkpt>
            <trkpt lat="50.0116192" lon="10.8994728">
                <ele>247.0</ele>
                <time>2020-08-22T11:21:28.000Z</time>
                <name>Trackpoint 3084</name>
            </trkpt>
            <trkpt lat="50.011664" lon="10.8993416">
                <ele>247.0</ele>
                <time>2020-08-22T11:21:30.000Z</time>
                <name>Trackpoint 3085</name>
            </trkpt>
            <trkpt lat="50.0117088" lon="10.899208">
                <ele>247.0</ele>
                <time>2020-08-22T11:21:32.000Z</time>
                <name>Trackpoint 3086</name>
            </trkpt>
            <trkpt lat="50.0117568" lon="10.89908">
                <ele>247.0</ele>
                <time>2020-08-22T11:21:34.000Z</time>
                <name>Trackpoint 3087</name>
            </trkpt>
            <trkpt lat="50.0117952" lon="10.89894">
                <ele>247.0</ele>
                <time>2020-08-22T11:21:36.000Z</time>
                <name>Trackpoint 3088</name>
            </trkpt>
            <trkpt lat="50.0118336" lon="10.8988088">
                <ele>247.0</ele>
                <time>2020-08-22T11:21:38.000Z</time>
                <name>Trackpoint 3089</name>
            </trkpt>
            <trkpt lat="50.0118752" lon="10.898672">
                <ele>248.0</ele>
                <time>2020-08-22T11:21:40.000Z</time>
                <name>Trackpoint 3090</name>
            </trkpt>
            <trkpt lat="50.01192" lon="10.8985392">
                <ele>248.0</ele>
                <time>2020-08-22T11:21:42.000Z</time>
                <name>Trackpoint 3091</name>
            </trkpt>
            <trkpt lat="50.0119616" lon="10.8984072">
                <ele>248.0</ele>
                <time>2020-08-22T11:21:44.000Z</time>
                <name>Trackpoint 3092</name>
            </trkpt>
            <trkpt lat="50.0120064" lon="10.8982648">
                <ele>248.0</ele>
                <time>2020-08-22T11:21:46.000Z</time>
                <name>Trackpoint 3093</name>
            </trkpt>
            <trkpt lat="50.0120384" lon="10.89812">
                <ele>248.0</ele>
                <time>2020-08-22T11:21:48.000Z</time>
                <name>Trackpoint 3094</name>
            </trkpt>
            <trkpt lat="50.0120864" lon="10.89798">
                <ele>248.0</ele>
                <time>2020-08-22T11:21:50.000Z</time>
                <name>Trackpoint 3095</name>
            </trkpt>
            <trkpt lat="50.0121344" lon="10.8978456">
                <ele>248.0</ele>
                <time>2020-08-22T11:21:52.000Z</time>
                <name>Trackpoint 3096</name>
            </trkpt>
            <trkpt lat="50.0121792" lon="10.897708">
                <ele>248.0</ele>
                <time>2020-08-22T11:21:54.000Z</time>
                <name>Trackpoint 3097</name>
            </trkpt>
            <trkpt lat="50.0122304" lon="10.8975752">
                <ele>247.0</ele>
                <time>2020-08-22T11:21:56.000Z</time>
                <name>Trackpoint 3098</name>
            </trkpt>
            <trkpt lat="50.012272" lon="10.8974368">
                <ele>247.0</ele>
                <time>2020-08-22T11:21:58.000Z</time>
                <name>Trackpoint 3099</name>
            </trkpt>
            <trkpt lat="50.0123104" lon="10.8973048">
                <ele>247.0</ele>
                <time>2020-08-22T11:22:00.000Z</time>
                <name>Trackpoint 3100</name>
            </trkpt>
            <trkpt lat="50.012352" lon="10.897172">
                <ele>247.0</ele>
                <time>2020-08-22T11:22:02.000Z</time>
                <name>Trackpoint 3101</name>
            </trkpt>
            <trkpt lat="50.0123936" lon="10.89704">
                <ele>247.0</ele>
                <time>2020-08-22T11:22:04.000Z</time>
                <name>Trackpoint 3102</name>
            </trkpt>
            <trkpt lat="50.012432" lon="10.896912">
                <ele>247.0</ele>
                <time>2020-08-22T11:22:06.000Z</time>
                <name>Trackpoint 3103</name>
            </trkpt>
            <trkpt lat="50.0124672" lon="10.89678">
                <ele>247.0</ele>
                <time>2020-08-22T11:22:08.000Z</time>
                <name>Trackpoint 3104</name>
            </trkpt>
            <trkpt lat="50.012496" lon="10.8966448">
                <ele>247.0</ele>
                <time>2020-08-22T11:22:10.000Z</time>
                <name>Trackpoint 3105</name>
            </trkpt>
            <trkpt lat="50.012528" lon="10.896508">
                <ele>248.0</ele>
                <time>2020-08-22T11:22:12.000Z</time>
                <name>Trackpoint 3106</name>
            </trkpt>
            <trkpt lat="50.0125632" lon="10.896368">
                <ele>248.0</ele>
                <time>2020-08-22T11:22:14.000Z</time>
                <name>Trackpoint 3107</name>
            </trkpt>
            <trkpt lat="50.012592" lon="10.8962232">
                <ele>248.0</ele>
                <time>2020-08-22T11:22:16.000Z</time>
                <name>Trackpoint 3108</name>
            </trkpt>
            <trkpt lat="50.012624" lon="10.896076">
                <ele>248.0</ele>
                <time>2020-08-22T11:22:18.000Z</time>
                <name>Trackpoint 3109</name>
            </trkpt>
            <trkpt lat="50.0126496" lon="10.895928">
                <ele>248.0</ele>
                <time>2020-08-22T11:22:20.000Z</time>
                <name>Trackpoint 3110</name>
            </trkpt>
            <trkpt lat="50.0126752" lon="10.895792">
                <ele>249.0</ele>
                <time>2020-08-22T11:22:22.000Z</time>
                <name>Trackpoint 3111</name>
            </trkpt>
            <trkpt lat="50.0127072" lon="10.8956616">
                <ele>249.0</ele>
                <time>2020-08-22T11:22:24.000Z</time>
                <name>Trackpoint 3112</name>
            </trkpt>
            <trkpt lat="50.012736" lon="10.8955352">
                <ele>249.0</ele>
                <time>2020-08-22T11:22:26.000Z</time>
                <name>Trackpoint 3113</name>
            </trkpt>
            <trkpt lat="50.012768" lon="10.8954048">
                <ele>249.0</ele>
                <time>2020-08-22T11:22:28.000Z</time>
                <name>Trackpoint 3114</name>
            </trkpt>
            <trkpt lat="50.0127904" lon="10.8952704">
                <ele>249.0</ele>
                <time>2020-08-22T11:22:30.000Z</time>
                <name>Trackpoint 3115</name>
            </trkpt>
            <trkpt lat="50.0128224" lon="10.8951416">
                <ele>250.0</ele>
                <time>2020-08-22T11:22:32.000Z</time>
                <name>Trackpoint 3116</name>
            </trkpt>
            <trkpt lat="50.012848" lon="10.8950144">
                <ele>250.0</ele>
                <time>2020-08-22T11:22:34.000Z</time>
                <name>Trackpoint 3117</name>
            </trkpt>
            <trkpt lat="50.01288" lon="10.894888">
                <ele>250.0</ele>
                <time>2020-08-22T11:22:36.000Z</time>
                <name>Trackpoint 3118</name>
            </trkpt>
            <trkpt lat="50.0129088" lon="10.8947624">
                <ele>250.0</ele>
                <time>2020-08-22T11:22:38.000Z</time>
                <name>Trackpoint 3119</name>
            </trkpt>
            <trkpt lat="50.0129344" lon="10.8946312">
                <ele>251.0</ele>
                <time>2020-08-22T11:22:40.000Z</time>
                <name>Trackpoint 3120</name>
            </trkpt>
            <trkpt lat="50.0129664" lon="10.894508">
                <ele>251.0</ele>
                <time>2020-08-22T11:22:42.000Z</time>
                <name>Trackpoint 3121</name>
            </trkpt>
            <trkpt lat="50.0129952" lon="10.8943816">
                <ele>251.0</ele>
                <time>2020-08-22T11:22:44.000Z</time>
                <name>Trackpoint 3122</name>
            </trkpt>
            <trkpt lat="50.0130336" lon="10.8942568">
                <ele>251.0</ele>
                <time>2020-08-22T11:22:46.000Z</time>
                <name>Trackpoint 3123</name>
            </trkpt>
            <trkpt lat="50.013072" lon="10.8941352">
                <ele>251.0</ele>
                <time>2020-08-22T11:22:48.000Z</time>
                <name>Trackpoint 3124</name>
            </trkpt>
            <trkpt lat="50.0131104" lon="10.8940184">
                <ele>252.0</ele>
                <time>2020-08-22T11:22:50.000Z</time>
                <name>Trackpoint 3125</name>
            </trkpt>
            <trkpt lat="50.0131456" lon="10.8938984">
                <ele>252.0</ele>
                <time>2020-08-22T11:22:52.000Z</time>
                <name>Trackpoint 3126</name>
            </trkpt>
            <trkpt lat="50.0131872" lon="10.8937864">
                <ele>252.0</ele>
                <time>2020-08-22T11:22:54.000Z</time>
                <name>Trackpoint 3127</name>
            </trkpt>
            <trkpt lat="50.0132224" lon="10.8936656">
                <ele>252.0</ele>
                <time>2020-08-22T11:22:56.000Z</time>
                <name>Trackpoint 3128</name>
            </trkpt>
            <trkpt lat="50.0132608" lon="10.8935472">
                <ele>252.0</ele>
                <time>2020-08-22T11:22:58.000Z</time>
                <name>Trackpoint 3129</name>
            </trkpt>
            <trkpt lat="50.013312" lon="10.893448">
                <ele>252.0</ele>
                <time>2020-08-22T11:23:00.000Z</time>
                <name>Trackpoint 3130</name>
            </trkpt>
            <trkpt lat="50.0133287" lon="10.8933486">
                <ele>253.0</ele>
                <time>2020-08-22T11:23:02.000Z</time>
                <name>Trackpoint 3131</name>
            </trkpt>
            <trkpt lat="50.0133888" lon="10.8932336">
                <ele>247.0</ele>
                <time>2020-08-22T11:26:46.000Z</time>
                <name>Trackpoint 3166</name>
            </trkpt>
            <trkpt lat="50.0134609" lon="10.8932263">
                <ele>247.0</ele>
                <time>2020-08-22T11:26:54.000Z</time>
                <name>Trackpoint 3167</name>
            </trkpt>
            <trkpt lat="50.0135392" lon="10.8931704">
                <ele>247.0</ele>
                <time>2020-08-22T11:26:56.000Z</time>
                <name>Trackpoint 3168</name>
            </trkpt>
            <trkpt lat="50.0135904" lon="10.8930664">
                <ele>247.0</ele>
                <time>2020-08-22T11:26:58.000Z</time>
                <name>Trackpoint 3169</name>
            </trkpt>
            <trkpt lat="50.0136544" lon="10.8929344">
                <ele>248.0</ele>
                <time>2020-08-22T11:27:00.000Z</time>
                <name>Trackpoint 3170</name>
            </trkpt>
            <trkpt lat="50.0137056" lon="10.8928072">
                <ele>248.0</ele>
                <time>2020-08-22T11:27:02.000Z</time>
                <name>Trackpoint 3171</name>
            </trkpt>
            <trkpt lat="50.01376" lon="10.8926624">
                <ele>248.0</ele>
                <time>2020-08-22T11:27:04.000Z</time>
                <name>Trackpoint 3172</name>
            </trkpt>
            <trkpt lat="50.013808" lon="10.892524">
                <ele>248.0</ele>
                <time>2020-08-22T11:27:06.000Z</time>
                <name>Trackpoint 3173</name>
            </trkpt>
            <trkpt lat="50.0138688" lon="10.8923928">
                <ele>248.0</ele>
                <time>2020-08-22T11:27:08.000Z</time>
                <name>Trackpoint 3174</name>
            </trkpt>
            <trkpt lat="50.0139136" lon="10.8922784">
                <ele>249.0</ele>
                <time>2020-08-22T11:27:10.000Z</time>
                <name>Trackpoint 3175</name>
            </trkpt>
            <trkpt lat="50.013968" lon="10.8921744">
                <ele>249.0</ele>
                <time>2020-08-22T11:27:12.000Z</time>
                <name>Trackpoint 3176</name>
            </trkpt>
            <trkpt lat="50.0140384" lon="10.8920832">
                <ele>249.0</ele>
                <time>2020-08-22T11:27:14.000Z</time>
                <name>Trackpoint 3177</name>
            </trkpt>
            <trkpt lat="50.0141024" lon="10.8919832">
                <ele>249.0</ele>
                <time>2020-08-22T11:27:16.000Z</time>
                <name>Trackpoint 3178</name>
            </trkpt>
            <trkpt lat="50.0141568" lon="10.8918848">
                <ele>249.0</ele>
                <time>2020-08-22T11:27:18.000Z</time>
                <name>Trackpoint 3179</name>
            </trkpt>
            <trkpt lat="50.0142208" lon="10.8917912">
                <ele>249.0</ele>
                <time>2020-08-22T11:27:20.000Z</time>
                <name>Trackpoint 3180</name>
            </trkpt>
            <trkpt lat="50.0142784" lon="10.8917016">
                <ele>249.0</ele>
                <time>2020-08-22T11:27:22.000Z</time>
                <name>Trackpoint 3181</name>
            </trkpt>
            <trkpt lat="50.0143424" lon="10.8916128">
                <ele>249.0</ele>
                <time>2020-08-22T11:27:24.000Z</time>
                <name>Trackpoint 3182</name>
            </trkpt>
            <trkpt lat="50.0144192" lon="10.891532">
                <ele>249.0</ele>
                <time>2020-08-22T11:27:26.000Z</time>
                <name>Trackpoint 3183</name>
            </trkpt>
            <trkpt lat="50.0144992" lon="10.891452">
                <ele>249.0</ele>
                <time>2020-08-22T11:27:28.000Z</time>
                <name>Trackpoint 3184</name>
            </trkpt>
            <trkpt lat="50.0145824" lon="10.8913832">
                <ele>249.0</ele>
                <time>2020-08-22T11:27:30.000Z</time>
                <name>Trackpoint 3185</name>
            </trkpt>
            <trkpt lat="50.014656" lon="10.891312">
                <ele>249.0</ele>
                <time>2020-08-22T11:27:32.000Z</time>
                <name>Trackpoint 3186</name>
            </trkpt>
            <trkpt lat="50.0147328" lon="10.8912312">
                <ele>249.0</ele>
                <time>2020-08-22T11:27:34.000Z</time>
                <name>Trackpoint 3187</name>
            </trkpt>
            <trkpt lat="50.0148096" lon="10.8911688">
                <ele>249.0</ele>
                <time>2020-08-22T11:27:36.000Z</time>
                <name>Trackpoint 3188</name>
            </trkpt>
            <trkpt lat="50.0148896" lon="10.8911184">
                <ele>249.0</ele>
                <time>2020-08-22T11:27:38.000Z</time>
                <name>Trackpoint 3189</name>
            </trkpt>
            <trkpt lat="50.014976" lon="10.8910704">
                <ele>250.0</ele>
                <time>2020-08-22T11:27:40.000Z</time>
                <name>Trackpoint 3190</name>
            </trkpt>
            <trkpt lat="50.0150656" lon="10.891008">
                <ele>250.0</ele>
                <time>2020-08-22T11:27:42.000Z</time>
                <name>Trackpoint 3191</name>
            </trkpt>
            <trkpt lat="50.0151456" lon="10.8909528">
                <ele>250.0</ele>
                <time>2020-08-22T11:27:44.000Z</time>
                <name>Trackpoint 3192</name>
            </trkpt>
            <trkpt lat="50.0152288" lon="10.890888">
                <ele>250.0</ele>
                <time>2020-08-22T11:27:46.000Z</time>
                <name>Trackpoint 3193</name>
            </trkpt>
            <trkpt lat="50.0153152" lon="10.890828">
                <ele>250.0</ele>
                <time>2020-08-22T11:27:48.000Z</time>
                <name>Trackpoint 3194</name>
            </trkpt>
            <trkpt lat="50.0153984" lon="10.8907736">
                <ele>250.0</ele>
                <time>2020-08-22T11:27:50.000Z</time>
                <name>Trackpoint 3195</name>
            </trkpt>
            <trkpt lat="50.0154848" lon="10.89072">
                <ele>250.0</ele>
                <time>2020-08-22T11:27:52.000Z</time>
                <name>Trackpoint 3196</name>
            </trkpt>
            <trkpt lat="50.0155808" lon="10.890668">
                <ele>250.0</ele>
                <time>2020-08-22T11:27:54.000Z</time>
                <name>Trackpoint 3197</name>
            </trkpt>
            <trkpt lat="50.0156704" lon="10.8906">
                <ele>250.0</ele>
                <time>2020-08-22T11:27:56.000Z</time>
                <name>Trackpoint 3198</name>
            </trkpt>
            <trkpt lat="50.0157632" lon="10.89054">
                <ele>250.0</ele>
                <time>2020-08-22T11:27:58.000Z</time>
                <name>Trackpoint 3199</name>
            </trkpt>
            <trkpt lat="50.0158496" lon="10.8904896">
                <ele>250.0</ele>
                <time>2020-08-22T11:28:00.000Z</time>
                <name>Trackpoint 3200</name>
            </trkpt>
            <trkpt lat="50.0159296" lon="10.8904464">
                <ele>250.0</ele>
                <time>2020-08-22T11:28:02.000Z</time>
                <name>Trackpoint 3201</name>
            </trkpt>
            <trkpt lat="50.0160224" lon="10.8904152">
                <ele>252.0</ele>
                <time>2020-08-22T11:28:05.000Z</time>
                <name>Trackpoint 3202</name>
            </trkpt>
            <trkpt lat="50.016112" lon="10.8903752">
                <ele>254.0</ele>
                <time>2020-08-22T11:28:09.000Z</time>
                <name>Trackpoint 3203</name>
            </trkpt>
            <trkpt lat="50.0162048" lon="10.8903704">
                <ele>255.0</ele>
                <time>2020-08-22T11:28:13.000Z</time>
                <name>Trackpoint 3204</name>
            </trkpt>
            <trkpt lat="50.016304" lon="10.8903704">
                <ele>256.0</ele>
                <time>2020-08-22T11:28:17.000Z</time>
                <name>Trackpoint 3205</name>
            </trkpt>
            <trkpt lat="50.0164" lon="10.8903504">
                <ele>256.0</ele>
                <time>2020-08-22T11:28:21.000Z</time>
                <name>Trackpoint 3206</name>
            </trkpt>
            <trkpt lat="50.0165088" lon="10.8902952">
                <ele>256.0</ele>
                <time>2020-08-22T11:28:25.000Z</time>
                <name>Trackpoint 3207</name>
            </trkpt>
            <trkpt lat="50.0166048" lon="10.89024">
                <ele>257.0</ele>
                <time>2020-08-22T11:28:28.000Z</time>
                <name>Trackpoint 3208</name>
            </trkpt>
            <trkpt lat="50.0166944" lon="10.8901928">
                <ele>258.0</ele>
                <time>2020-08-22T11:28:32.000Z</time>
                <name>Trackpoint 3209</name>
            </trkpt>
            <trkpt lat="50.0167776" lon="10.8901392">
                <ele>258.0</ele>
                <time>2020-08-22T11:28:37.000Z</time>
                <name>Trackpoint 3210</name>
            </trkpt>
            <trkpt lat="50.0168352" lon="10.8900672">
                <ele>259.0</ele>
                <time>2020-08-22T11:28:45.000Z</time>
                <name>Trackpoint 3211</name>
            </trkpt>
            <trkpt lat="50.0167392" lon="10.8900584">
                <ele>259.0</ele>
                <time>2020-08-22T11:29:19.000Z</time>
                <name>Trackpoint 3212</name>
            </trkpt>
            <trkpt lat="50.0167072" lon="10.8899496">
                <ele>259.0</ele>
                <time>2020-08-22T11:29:22.000Z</time>
                <name>Trackpoint 3213</name>
            </trkpt>
            <trkpt lat="50.0166656" lon="10.8898536">
                <ele>259.0</ele>
                <time>2020-08-22T11:29:25.000Z</time>
                <name>Trackpoint 3214</name>
            </trkpt>
            <trkpt lat="50.0166176" lon="10.8897416">
                <ele>259.0</ele>
                <time>2020-08-22T11:29:28.000Z</time>
                <name>Trackpoint 3215</name>
            </trkpt>
            <trkpt lat="50.0165792" lon="10.8896512">
                <ele>258.0</ele>
                <time>2020-08-22T11:29:30.000Z</time>
                <name>Trackpoint 3216</name>
            </trkpt>
            <trkpt lat="50.0165344" lon="10.88954">
                <ele>258.0</ele>
                <time>2020-08-22T11:29:32.000Z</time>
                <name>Trackpoint 3217</name>
            </trkpt>
            <trkpt lat="50.0164704" lon="10.889428">
                <ele>257.0</ele>
                <time>2020-08-22T11:29:34.000Z</time>
                <name>Trackpoint 3218</name>
            </trkpt>
            <trkpt lat="50.0164064" lon="10.8893184">
                <ele>257.0</ele>
                <time>2020-08-22T11:29:36.000Z</time>
                <name>Trackpoint 3219</name>
            </trkpt>
            <trkpt lat="50.0163552" lon="10.8891952">
                <ele>257.0</ele>
                <time>2020-08-22T11:29:38.000Z</time>
                <name>Trackpoint 3220</name>
            </trkpt>
            <trkpt lat="50.0163168" lon="10.8890632">
                <ele>257.0</ele>
                <time>2020-08-22T11:29:40.000Z</time>
                <name>Trackpoint 3221</name>
            </trkpt>
            <trkpt lat="50.016272" lon="10.8889264">
                <ele>257.0</ele>
                <time>2020-08-22T11:29:42.000Z</time>
                <name>Trackpoint 3222</name>
            </trkpt>
            <trkpt lat="50.0162368" lon="10.888788">
                <ele>257.0</ele>
                <time>2020-08-22T11:29:44.000Z</time>
                <name>Trackpoint 3223</name>
            </trkpt>
            <trkpt lat="50.0161984" lon="10.8886384">
                <ele>257.0</ele>
                <time>2020-08-22T11:29:46.000Z</time>
                <name>Trackpoint 3224</name>
            </trkpt>
            <trkpt lat="50.01616" lon="10.8884952">
                <ele>257.0</ele>
                <time>2020-08-22T11:29:48.000Z</time>
                <name>Trackpoint 3225</name>
            </trkpt>
            <trkpt lat="50.0161088" lon="10.8883616">
                <ele>257.0</ele>
                <time>2020-08-22T11:29:50.000Z</time>
                <name>Trackpoint 3226</name>
            </trkpt>
            <trkpt lat="50.0160512" lon="10.8882304">
                <ele>256.0</ele>
                <time>2020-08-22T11:29:52.000Z</time>
                <name>Trackpoint 3227</name>
            </trkpt>
            <trkpt lat="50.0159936" lon="10.8880968">
                <ele>256.0</ele>
                <time>2020-08-22T11:29:54.000Z</time>
                <name>Trackpoint 3228</name>
            </trkpt>
            <trkpt lat="50.0159392" lon="10.8879632">
                <ele>256.0</ele>
                <time>2020-08-22T11:29:56.000Z</time>
                <name>Trackpoint 3229</name>
            </trkpt>
            <trkpt lat="50.0158752" lon="10.8878336">
                <ele>256.0</ele>
                <time>2020-08-22T11:29:58.000Z</time>
                <name>Trackpoint 3230</name>
            </trkpt>
            <trkpt lat="50.0158144" lon="10.8877">
                <ele>256.0</ele>
                <time>2020-08-22T11:30:00.000Z</time>
                <name>Trackpoint 3231</name>
            </trkpt>
            <trkpt lat="50.0157632" lon="10.8875664">
                <ele>256.0</ele>
                <time>2020-08-22T11:30:02.000Z</time>
                <name>Trackpoint 3232</name>
            </trkpt>
            <trkpt lat="50.015712" lon="10.8874384">
                <ele>256.0</ele>
                <time>2020-08-22T11:30:04.000Z</time>
                <name>Trackpoint 3233</name>
            </trkpt>
            <trkpt lat="50.015664" lon="10.8873216">
                <ele>256.0</ele>
                <time>2020-08-22T11:30:06.000Z</time>
                <name>Trackpoint 3234</name>
            </trkpt>
            <trkpt lat="50.0156288" lon="10.8872144">
                <ele>256.0</ele>
                <time>2020-08-22T11:30:08.000Z</time>
                <name>Trackpoint 3235</name>
            </trkpt>
            <trkpt lat="50.0155936" lon="10.8871168">
                <ele>257.0</ele>
                <time>2020-08-22T11:30:10.000Z</time>
                <name>Trackpoint 3236</name>
            </trkpt>
            <trkpt lat="50.0155648" lon="10.8870264">
                <ele>257.0</ele>
                <time>2020-08-22T11:30:12.000Z</time>
                <name>Trackpoint 3237</name>
            </trkpt>
            <trkpt lat="50.0155456" lon="10.8869352">
                <ele>257.0</ele>
                <time>2020-08-22T11:30:15.000Z</time>
                <name>Trackpoint 3238</name>
            </trkpt>
            <trkpt lat="50.0155296" lon="10.88684">
                <ele>257.0</ele>
                <time>2020-08-22T11:30:31.000Z</time>
                <name>Trackpoint 3239</name>
            </trkpt>
            <trkpt lat="50.015552" lon="10.886748">
                <ele>257.0</ele>
                <time>2020-08-22T11:30:36.000Z</time>
                <name>Trackpoint 3240</name>
            </trkpt>
            <trkpt lat="50.015552" lon="10.886652">
                <ele>257.0</ele>
                <time>2020-08-22T11:30:41.000Z</time>
                <name>Trackpoint 3241</name>
            </trkpt>
            <trkpt lat="50.0155168" lon="10.8867456">
                <ele>255.0</ele>
                <time>2020-08-22T12:00:08.000Z</time>
                <name>Trackpoint 3242</name>
            </trkpt>
            <trkpt lat="50.0155264" lon="10.8867304">
                <ele>254.0</ele>
                <time>2020-08-22T12:00:15.000Z</time>
                <name>Trackpoint 3243</name>
            </trkpt>
            <trkpt lat="50.015472" lon="10.886648">
                <ele>255.0</ele>
                <time>2020-08-22T12:01:43.000Z</time>
                <name>Trackpoint 3244</name>
            </trkpt>
            <trkpt lat="50.0153856" lon="10.8865632">
                <ele>255.0</ele>
                <time>2020-08-22T12:01:48.000Z</time>
                <name>Trackpoint 3245</name>
            </trkpt>
            <trkpt lat="50.0153376" lon="10.8864496">
                <ele>255.0</ele>
                <time>2020-08-22T12:01:51.000Z</time>
                <name>Trackpoint 3246</name>
            </trkpt>
            <trkpt lat="50.0153056" lon="10.88636">
                <ele>255.0</ele>
                <time>2020-08-22T12:01:53.000Z</time>
                <name>Trackpoint 3247</name>
            </trkpt>
            <trkpt lat="50.0152576" lon="10.8862584">
                <ele>255.0</ele>
                <time>2020-08-22T12:01:55.000Z</time>
                <name>Trackpoint 3248</name>
            </trkpt>
            <trkpt lat="50.0152128" lon="10.8861504">
                <ele>255.0</ele>
                <time>2020-08-22T12:01:57.000Z</time>
                <name>Trackpoint 3249</name>
            </trkpt>
            <trkpt lat="50.0151872" lon="10.8860264">
                <ele>255.0</ele>
                <time>2020-08-22T12:01:59.000Z</time>
                <name>Trackpoint 3250</name>
            </trkpt>
            <trkpt lat="50.015168" lon="10.8859016">
                <ele>255.0</ele>
                <time>2020-08-22T12:02:01.000Z</time>
                <name>Trackpoint 3251</name>
            </trkpt>
            <trkpt lat="50.0151264" lon="10.8857736">
                <ele>256.0</ele>
                <time>2020-08-22T12:02:03.000Z</time>
                <name>Trackpoint 3252</name>
            </trkpt>
            <trkpt lat="50.015056" lon="10.8856488">
                <ele>256.0</ele>
                <time>2020-08-22T12:02:05.000Z</time>
                <name>Trackpoint 3253</name>
            </trkpt>
            <trkpt lat="50.014976" lon="10.8855288">
                <ele>256.0</ele>
                <time>2020-08-22T12:02:07.000Z</time>
                <name>Trackpoint 3254</name>
            </trkpt>
            <trkpt lat="50.0149152" lon="10.8854048">
                <ele>256.0</ele>
                <time>2020-08-22T12:02:09.000Z</time>
                <name>Trackpoint 3255</name>
            </trkpt>
            <trkpt lat="50.0148416" lon="10.885288">
                <ele>256.0</ele>
                <time>2020-08-22T12:02:11.000Z</time>
                <name>Trackpoint 3256</name>
            </trkpt>
            <trkpt lat="50.0147744" lon="10.885172">
                <ele>256.0</ele>
                <time>2020-08-22T12:02:13.000Z</time>
                <name>Trackpoint 3257</name>
            </trkpt>
            <trkpt lat="50.0147168" lon="10.8850368">
                <ele>256.0</ele>
                <time>2020-08-22T12:02:15.000Z</time>
                <name>Trackpoint 3258</name>
            </trkpt>
            <trkpt lat="50.0146528" lon="10.8849032">
                <ele>256.0</ele>
                <time>2020-08-22T12:02:17.000Z</time>
                <name>Trackpoint 3259</name>
            </trkpt>
            <trkpt lat="50.0145984" lon="10.88478">
                <ele>256.0</ele>
                <time>2020-08-22T12:02:19.000Z</time>
                <name>Trackpoint 3260</name>
            </trkpt>
            <trkpt lat="50.0145504" lon="10.8846968">
                <ele>256.0</ele>
                <time>2020-08-22T12:02:21.000Z</time>
                <name>Trackpoint 3261</name>
            </trkpt>
            <trkpt lat="50.014464" lon="10.8846504">
                <ele>256.0</ele>
                <time>2020-08-22T12:02:24.000Z</time>
                <name>Trackpoint 3262</name>
            </trkpt>
            <trkpt lat="50.0143744" lon="10.884668">
                <ele>256.0</ele>
                <time>2020-08-22T12:02:28.000Z</time>
                <name>Trackpoint 3263</name>
            </trkpt>
            <trkpt lat="50.0142848" lon="10.8846776">
                <ele>257.0</ele>
                <time>2020-08-22T12:02:35.000Z</time>
                <name>Trackpoint 3264</name>
            </trkpt>
            <trkpt lat="50.0141728" lon="10.8846928">
                <ele>257.0</ele>
                <time>2020-08-22T12:03:09.000Z</time>
                <name>Trackpoint 3265</name>
            </trkpt>
            <trkpt lat="50.0140864" lon="10.8847568">
                <ele>257.0</ele>
                <time>2020-08-22T12:03:12.000Z</time>
                <name>Trackpoint 3266</name>
            </trkpt>
            <trkpt lat="50.0139648" lon="10.8847464">
                <ele>257.0</ele>
                <time>2020-08-22T12:03:15.000Z</time>
                <name>Trackpoint 3267</name>
            </trkpt>
            <trkpt lat="50.0138496" lon="10.8847536">
                <ele>257.0</ele>
                <time>2020-08-22T12:03:18.000Z</time>
                <name>Trackpoint 3268</name>
            </trkpt>
            <trkpt lat="50.0137152" lon="10.8847864">
                <ele>257.0</ele>
                <time>2020-08-22T12:03:21.000Z</time>
                <name>Trackpoint 3269</name>
            </trkpt>
            <trkpt lat="50.0136192" lon="10.8848048">
                <ele>257.0</ele>
                <time>2020-08-22T12:03:23.000Z</time>
                <name>Trackpoint 3270</name>
            </trkpt>
            <trkpt lat="50.0135104" lon="10.8848104">
                <ele>257.0</ele>
                <time>2020-08-22T12:03:25.000Z</time>
                <name>Trackpoint 3271</name>
            </trkpt>
            <trkpt lat="50.013408" lon="10.8848248">
                <ele>257.0</ele>
                <time>2020-08-22T12:03:27.000Z</time>
                <name>Trackpoint 3272</name>
            </trkpt>
            <trkpt lat="50.0132992" lon="10.8848496">
                <ele>257.0</ele>
                <time>2020-08-22T12:03:29.000Z</time>
                <name>Trackpoint 3273</name>
            </trkpt>
            <trkpt lat="50.0131904" lon="10.8848616">
                <ele>257.0</ele>
                <time>2020-08-22T12:03:31.000Z</time>
                <name>Trackpoint 3274</name>
            </trkpt>
            <trkpt lat="50.013088" lon="10.884876">
                <ele>256.0</ele>
                <time>2020-08-22T12:03:33.000Z</time>
                <name>Trackpoint 3275</name>
            </trkpt>
            <trkpt lat="50.0129856" lon="10.8848952">
                <ele>256.0</ele>
                <time>2020-08-22T12:03:35.000Z</time>
                <name>Trackpoint 3276</name>
            </trkpt>
            <trkpt lat="50.01288" lon="10.8849048">
                <ele>256.0</ele>
                <time>2020-08-22T12:03:37.000Z</time>
                <name>Trackpoint 3277</name>
            </trkpt>
            <trkpt lat="50.0127744" lon="10.8849184">
                <ele>256.0</ele>
                <time>2020-08-22T12:03:39.000Z</time>
                <name>Trackpoint 3278</name>
            </trkpt>
            <trkpt lat="50.012672" lon="10.8849312">
                <ele>256.0</ele>
                <time>2020-08-22T12:03:41.000Z</time>
                <name>Trackpoint 3279</name>
            </trkpt>
            <trkpt lat="50.0125568" lon="10.884936">
                <ele>256.0</ele>
                <time>2020-08-22T12:03:43.000Z</time>
                <name>Trackpoint 3280</name>
            </trkpt>
            <trkpt lat="50.0124352" lon="10.8849384">
                <ele>255.0</ele>
                <time>2020-08-22T12:03:45.000Z</time>
                <name>Trackpoint 3281</name>
            </trkpt>
            <trkpt lat="50.0123104" lon="10.8849296">
                <ele>255.0</ele>
                <time>2020-08-22T12:03:47.000Z</time>
                <name>Trackpoint 3282</name>
            </trkpt>
            <trkpt lat="50.012176" lon="10.8849112">
                <ele>255.0</ele>
                <time>2020-08-22T12:03:49.000Z</time>
                <name>Trackpoint 3283</name>
            </trkpt>
            <trkpt lat="50.012048" lon="10.8848912">
                <ele>254.0</ele>
                <time>2020-08-22T12:03:51.000Z</time>
                <name>Trackpoint 3284</name>
            </trkpt>
            <trkpt lat="50.01192" lon="10.8848864">
                <ele>253.0</ele>
                <time>2020-08-22T12:03:53.000Z</time>
                <name>Trackpoint 3285</name>
            </trkpt>
            <trkpt lat="50.011792" lon="10.8848888">
                <ele>253.0</ele>
                <time>2020-08-22T12:03:55.000Z</time>
                <name>Trackpoint 3286</name>
            </trkpt>
            <trkpt lat="50.011664" lon="10.8848816">
                <ele>252.0</ele>
                <time>2020-08-22T12:03:57.000Z</time>
                <name>Trackpoint 3287</name>
            </trkpt>
            <trkpt lat="50.0115392" lon="10.8848832">
                <ele>251.0</ele>
                <time>2020-08-22T12:03:59.000Z</time>
                <name>Trackpoint 3288</name>
            </trkpt>
            <trkpt lat="50.0114208" lon="10.8848952">
                <ele>251.0</ele>
                <time>2020-08-22T12:04:01.000Z</time>
                <name>Trackpoint 3289</name>
            </trkpt>
            <trkpt lat="50.0112992" lon="10.8849152">
                <ele>251.0</ele>
                <time>2020-08-22T12:04:03.000Z</time>
                <name>Trackpoint 3290</name>
            </trkpt>
            <trkpt lat="50.0111744" lon="10.8849432">
                <ele>251.0</ele>
                <time>2020-08-22T12:04:05.000Z</time>
                <name>Trackpoint 3291</name>
            </trkpt>
            <trkpt lat="50.0110592" lon="10.884976">
                <ele>251.0</ele>
                <time>2020-08-22T12:04:07.000Z</time>
                <name>Trackpoint 3292</name>
            </trkpt>
            <trkpt lat="50.010944" lon="10.8850272">
                <ele>251.0</ele>
                <time>2020-08-22T12:04:09.000Z</time>
                <name>Trackpoint 3293</name>
            </trkpt>
            <trkpt lat="50.0108288" lon="10.88508">
                <ele>250.0</ele>
                <time>2020-08-22T12:04:11.000Z</time>
                <name>Trackpoint 3294</name>
            </trkpt>
            <trkpt lat="50.01072" lon="10.885132">
                <ele>250.0</ele>
                <time>2020-08-22T12:04:13.000Z</time>
                <name>Trackpoint 3295</name>
            </trkpt>
            <trkpt lat="50.010608" lon="10.8851736">
                <ele>250.0</ele>
                <time>2020-08-22T12:04:15.000Z</time>
                <name>Trackpoint 3296</name>
            </trkpt>
            <trkpt lat="50.0104992" lon="10.8852328">
                <ele>250.0</ele>
                <time>2020-08-22T12:04:17.000Z</time>
                <name>Trackpoint 3297</name>
            </trkpt>
            <trkpt lat="50.0103872" lon="10.8853128">
                <ele>250.0</ele>
                <time>2020-08-22T12:04:19.000Z</time>
                <name>Trackpoint 3298</name>
            </trkpt>
            <trkpt lat="50.0102752" lon="10.8853848">
                <ele>250.0</ele>
                <time>2020-08-22T12:04:21.000Z</time>
                <name>Trackpoint 3299</name>
            </trkpt>
            <trkpt lat="50.0101664" lon="10.8854576">
                <ele>249.0</ele>
                <time>2020-08-22T12:04:23.000Z</time>
                <name>Trackpoint 3300</name>
            </trkpt>
            <trkpt lat="50.0100608" lon="10.8855464">
                <ele>249.0</ele>
                <time>2020-08-22T12:04:25.000Z</time>
                <name>Trackpoint 3301</name>
            </trkpt>
            <trkpt lat="50.0099616" lon="10.8856424">
                <ele>249.0</ele>
                <time>2020-08-22T12:04:27.000Z</time>
                <name>Trackpoint 3302</name>
            </trkpt>
            <trkpt lat="50.0098624" lon="10.8857384">
                <ele>249.0</ele>
                <time>2020-08-22T12:04:29.000Z</time>
                <name>Trackpoint 3303</name>
            </trkpt>
            <trkpt lat="50.0097632" lon="10.8858384">
                <ele>248.0</ele>
                <time>2020-08-22T12:04:31.000Z</time>
                <name>Trackpoint 3304</name>
            </trkpt>
            <trkpt lat="50.009664" lon="10.8859584">
                <ele>248.0</ele>
                <time>2020-08-22T12:04:33.000Z</time>
                <name>Trackpoint 3305</name>
            </trkpt>
            <trkpt lat="50.0095776" lon="10.8860816">
                <ele>248.0</ele>
                <time>2020-08-22T12:04:35.000Z</time>
                <name>Trackpoint 3306</name>
            </trkpt>
            <trkpt lat="50.0094976" lon="10.886204">
                <ele>248.0</ele>
                <time>2020-08-22T12:04:37.000Z</time>
                <name>Trackpoint 3307</name>
            </trkpt>
            <trkpt lat="50.0094208" lon="10.8863224">
                <ele>248.0</ele>
                <time>2020-08-22T12:04:39.000Z</time>
                <name>Trackpoint 3308</name>
            </trkpt>
            <trkpt lat="50.0093376" lon="10.8864384">
                <ele>248.0</ele>
                <time>2020-08-22T12:04:41.000Z</time>
                <name>Trackpoint 3309</name>
            </trkpt>
            <trkpt lat="50.0092672" lon="10.8865632">
                <ele>248.0</ele>
                <time>2020-08-22T12:04:43.000Z</time>
                <name>Trackpoint 3310</name>
            </trkpt>
            <trkpt lat="50.0091776" lon="10.88668">
                <ele>248.0</ele>
                <time>2020-08-22T12:04:45.000Z</time>
                <name>Trackpoint 3311</name>
            </trkpt>
            <trkpt lat="50.0090976" lon="10.8867912">
                <ele>248.0</ele>
                <time>2020-08-22T12:04:47.000Z</time>
                <name>Trackpoint 3312</name>
            </trkpt>
            <trkpt lat="50.0090304" lon="10.8869016">
                <ele>248.0</ele>
                <time>2020-08-22T12:04:49.000Z</time>
                <name>Trackpoint 3313</name>
            </trkpt>
            <trkpt lat="50.0089792" lon="10.8870184">
                <ele>248.0</ele>
                <time>2020-08-22T12:04:51.000Z</time>
                <name>Trackpoint 3314</name>
            </trkpt>
            <trkpt lat="50.0089312" lon="10.887132">
                <ele>248.0</ele>
                <time>2020-08-22T12:04:53.000Z</time>
                <name>Trackpoint 3315</name>
            </trkpt>
            <trkpt lat="50.0088352" lon="10.8872048">
                <ele>248.0</ele>
                <time>2020-08-22T12:04:55.000Z</time>
                <name>Trackpoint 3316</name>
            </trkpt>
            <trkpt lat="50.0087296" lon="10.8872168">
                <ele>248.0</ele>
                <time>2020-08-22T12:04:57.000Z</time>
                <name>Trackpoint 3317</name>
            </trkpt>
            <trkpt lat="50.0086048" lon="10.887212">
                <ele>247.0</ele>
                <time>2020-08-22T12:04:59.000Z</time>
                <name>Trackpoint 3318</name>
            </trkpt>
            <trkpt lat="50.0084768" lon="10.8872168">
                <ele>247.0</ele>
                <time>2020-08-22T12:05:01.000Z</time>
                <name>Trackpoint 3319</name>
            </trkpt>
            <trkpt lat="50.0083392" lon="10.8872344">
                <ele>246.0</ele>
                <time>2020-08-22T12:05:03.000Z</time>
                <name>Trackpoint 3320</name>
            </trkpt>
            <trkpt lat="50.0082016" lon="10.8872568">
                <ele>246.0</ele>
                <time>2020-08-22T12:05:05.000Z</time>
                <name>Trackpoint 3321</name>
            </trkpt>
            <trkpt lat="50.008064" lon="10.8872816">
                <ele>245.0</ele>
                <time>2020-08-22T12:05:07.000Z</time>
                <name>Trackpoint 3322</name>
            </trkpt>
            <trkpt lat="50.0079232" lon="10.8873192">
                <ele>245.0</ele>
                <time>2020-08-22T12:05:09.000Z</time>
                <name>Trackpoint 3323</name>
            </trkpt>
            <trkpt lat="50.0077888" lon="10.8873656">
                <ele>244.0</ele>
                <time>2020-08-22T12:05:11.000Z</time>
                <name>Trackpoint 3324</name>
            </trkpt>
            <trkpt lat="50.0076512" lon="10.887412">
                <ele>244.0</ele>
                <time>2020-08-22T12:05:13.000Z</time>
                <name>Trackpoint 3325</name>
            </trkpt>
            <trkpt lat="50.0075136" lon="10.8874616">
                <ele>244.0</ele>
                <time>2020-08-22T12:05:15.000Z</time>
                <name>Trackpoint 3326</name>
            </trkpt>
            <trkpt lat="50.0073856" lon="10.8875104">
                <ele>243.0</ele>
                <time>2020-08-22T12:05:17.000Z</time>
                <name>Trackpoint 3327</name>
            </trkpt>
            <trkpt lat="50.0072608" lon="10.88756">
                <ele>243.0</ele>
                <time>2020-08-22T12:05:19.000Z</time>
                <name>Trackpoint 3328</name>
            </trkpt>
            <trkpt lat="50.0071328" lon="10.8876048">
                <ele>243.0</ele>
                <time>2020-08-22T12:05:21.000Z</time>
                <name>Trackpoint 3329</name>
            </trkpt>
            <trkpt lat="50.0070048" lon="10.8876384">
                <ele>243.0</ele>
                <time>2020-08-22T12:05:23.000Z</time>
                <name>Trackpoint 3330</name>
            </trkpt>
            <trkpt lat="50.0068736" lon="10.8876736">
                <ele>243.0</ele>
                <time>2020-08-22T12:05:25.000Z</time>
                <name>Trackpoint 3331</name>
            </trkpt>
            <trkpt lat="50.0067392" lon="10.8877152">
                <ele>242.0</ele>
                <time>2020-08-22T12:05:27.000Z</time>
                <name>Trackpoint 3332</name>
            </trkpt>
            <trkpt lat="50.0066112" lon="10.887756">
                <ele>243.0</ele>
                <time>2020-08-22T12:05:29.000Z</time>
                <name>Trackpoint 3333</name>
            </trkpt>
            <trkpt lat="50.0064736" lon="10.8877936">
                <ele>243.0</ele>
                <time>2020-08-22T12:05:31.000Z</time>
                <name>Trackpoint 3334</name>
            </trkpt>
            <trkpt lat="50.0063392" lon="10.8878232">
                <ele>243.0</ele>
                <time>2020-08-22T12:05:33.000Z</time>
                <name>Trackpoint 3335</name>
            </trkpt>
            <trkpt lat="50.0062112" lon="10.88784">
                <ele>242.0</ele>
                <time>2020-08-22T12:05:35.000Z</time>
                <name>Trackpoint 3336</name>
            </trkpt>
            <trkpt lat="50.0060736" lon="10.8878568">
                <ele>242.0</ele>
                <time>2020-08-22T12:05:37.000Z</time>
                <name>Trackpoint 3337</name>
            </trkpt>
            <trkpt lat="50.0059424" lon="10.8878744">
                <ele>243.0</ele>
                <time>2020-08-22T12:05:39.000Z</time>
                <name>Trackpoint 3338</name>
            </trkpt>
            <trkpt lat="50.0058304" lon="10.8878936">
                <ele>243.0</ele>
                <time>2020-08-22T12:05:41.000Z</time>
                <name>Trackpoint 3339</name>
            </trkpt>
            <trkpt lat="50.0057152" lon="10.8879096">
                <ele>242.0</ele>
                <time>2020-08-22T12:05:43.000Z</time>
                <name>Trackpoint 3340</name>
            </trkpt>
            <trkpt lat="50.0056032" lon="10.8878872">
                <ele>242.0</ele>
                <time>2020-08-22T12:05:45.000Z</time>
                <name>Trackpoint 3341</name>
            </trkpt>
            <trkpt lat="50.0054944" lon="10.887852">
                <ele>243.0</ele>
                <time>2020-08-22T12:05:47.000Z</time>
                <name>Trackpoint 3342</name>
            </trkpt>
            <trkpt lat="50.0053824" lon="10.88784">
                <ele>243.0</ele>
                <time>2020-08-22T12:05:49.000Z</time>
                <name>Trackpoint 3343</name>
            </trkpt>
            <trkpt lat="50.0052704" lon="10.8878368">
                <ele>243.0</ele>
                <time>2020-08-22T12:05:51.000Z</time>
                <name>Trackpoint 3344</name>
            </trkpt>
            <trkpt lat="50.0051584" lon="10.88782">
                <ele>243.0</ele>
                <time>2020-08-22T12:05:53.000Z</time>
                <name>Trackpoint 3345</name>
            </trkpt>
            <trkpt lat="50.0050432" lon="10.8877984">
                <ele>243.0</ele>
                <time>2020-08-22T12:05:55.000Z</time>
                <name>Trackpoint 3346</name>
            </trkpt>
            <trkpt lat="50.0049312" lon="10.887776">
                <ele>243.0</ele>
                <time>2020-08-22T12:05:57.000Z</time>
                <name>Trackpoint 3347</name>
            </trkpt>
            <trkpt lat="50.0048224" lon="10.8877472">
                <ele>244.0</ele>
                <time>2020-08-22T12:05:59.000Z</time>
                <name>Trackpoint 3348</name>
            </trkpt>
            <trkpt lat="50.0047264" lon="10.8877248">
                <ele>244.0</ele>
                <time>2020-08-22T12:06:01.000Z</time>
                <name>Trackpoint 3349</name>
            </trkpt>
            <trkpt lat="50.004624" lon="10.8877">
                <ele>244.0</ele>
                <time>2020-08-22T12:06:03.000Z</time>
                <name>Trackpoint 3350</name>
            </trkpt>
            <trkpt lat="50.0045216" lon="10.8876736">
                <ele>244.0</ele>
                <time>2020-08-22T12:06:05.000Z</time>
                <name>Trackpoint 3351</name>
            </trkpt>
            <trkpt lat="50.0044096" lon="10.8876448">
                <ele>244.0</ele>
                <time>2020-08-22T12:06:07.000Z</time>
                <name>Trackpoint 3352</name>
            </trkpt>
            <trkpt lat="50.0042944" lon="10.887604">
                <ele>244.0</ele>
                <time>2020-08-22T12:06:09.000Z</time>
                <name>Trackpoint 3353</name>
            </trkpt>
            <trkpt lat="50.004192" lon="10.8875688">
                <ele>244.0</ele>
                <time>2020-08-22T12:06:11.000Z</time>
                <name>Trackpoint 3354</name>
            </trkpt>
            <trkpt lat="50.0040896" lon="10.88754">
                <ele>244.0</ele>
                <time>2020-08-22T12:06:13.000Z</time>
                <name>Trackpoint 3355</name>
            </trkpt>
            <trkpt lat="50.0039776" lon="10.887508">
                <ele>244.0</ele>
                <time>2020-08-22T12:06:15.000Z</time>
                <name>Trackpoint 3356</name>
            </trkpt>
            <trkpt lat="50.003872" lon="10.8874752">
                <ele>244.0</ele>
                <time>2020-08-22T12:06:17.000Z</time>
                <name>Trackpoint 3357</name>
            </trkpt>
            <trkpt lat="50.0037696" lon="10.8874432">
                <ele>243.0</ele>
                <time>2020-08-22T12:06:19.000Z</time>
                <name>Trackpoint 3358</name>
            </trkpt>
            <trkpt lat="50.0036672" lon="10.8874128">
                <ele>243.0</ele>
                <time>2020-08-22T12:06:21.000Z</time>
                <name>Trackpoint 3359</name>
            </trkpt>
            <trkpt lat="50.0035584" lon="10.8873832">
                <ele>243.0</ele>
                <time>2020-08-22T12:06:23.000Z</time>
                <name>Trackpoint 3360</name>
            </trkpt>
            <trkpt lat="50.0034528" lon="10.8873384">
                <ele>243.0</ele>
                <time>2020-08-22T12:06:25.000Z</time>
                <name>Trackpoint 3361</name>
            </trkpt>
            <trkpt lat="50.0033536" lon="10.8873064">
                <ele>243.0</ele>
                <time>2020-08-22T12:06:27.000Z</time>
                <name>Trackpoint 3362</name>
            </trkpt>
            <trkpt lat="50.0032512" lon="10.8872696">
                <ele>243.0</ele>
                <time>2020-08-22T12:06:29.000Z</time>
                <name>Trackpoint 3363</name>
            </trkpt>
            <trkpt lat="50.003152" lon="10.887232">
                <ele>243.0</ele>
                <time>2020-08-22T12:06:31.000Z</time>
                <name>Trackpoint 3364</name>
            </trkpt>
            <trkpt lat="50.0030528" lon="10.8871968">
                <ele>243.0</ele>
                <time>2020-08-22T12:06:33.000Z</time>
                <name>Trackpoint 3365</name>
            </trkpt>
            <trkpt lat="50.002944" lon="10.88716">
                <ele>243.0</ele>
                <time>2020-08-22T12:06:35.000Z</time>
                <name>Trackpoint 3366</name>
            </trkpt>
            <trkpt lat="50.0028384" lon="10.8871248">
                <ele>243.0</ele>
                <time>2020-08-22T12:06:37.000Z</time>
                <name>Trackpoint 3367</name>
            </trkpt>
            <trkpt lat="50.0027232" lon="10.8870824">
                <ele>243.0</ele>
                <time>2020-08-22T12:06:39.000Z</time>
                <name>Trackpoint 3368</name>
            </trkpt>
            <trkpt lat="50.002624" lon="10.8870512">
                <ele>243.0</ele>
                <time>2020-08-22T12:06:41.000Z</time>
                <name>Trackpoint 3369</name>
            </trkpt>
            <trkpt lat="50.0025216" lon="10.8870184">
                <ele>243.0</ele>
                <time>2020-08-22T12:06:43.000Z</time>
                <name>Trackpoint 3370</name>
            </trkpt>
            <trkpt lat="50.002416" lon="10.88698">
                <ele>242.0</ele>
                <time>2020-08-22T12:06:45.000Z</time>
                <name>Trackpoint 3371</name>
            </trkpt>
            <trkpt lat="50.0023104" lon="10.8869432">
                <ele>242.0</ele>
                <time>2020-08-22T12:06:47.000Z</time>
                <name>Trackpoint 3372</name>
            </trkpt>
            <trkpt lat="50.0022048" lon="10.8869088">
                <ele>242.0</ele>
                <time>2020-08-22T12:06:49.000Z</time>
                <name>Trackpoint 3373</name>
            </trkpt>
            <trkpt lat="50.0021024" lon="10.8868688">
                <ele>242.0</ele>
                <time>2020-08-22T12:06:51.000Z</time>
                <name>Trackpoint 3374</name>
            </trkpt>
            <trkpt lat="50.002" lon="10.8868288">
                <ele>242.0</ele>
                <time>2020-08-22T12:06:53.000Z</time>
                <name>Trackpoint 3375</name>
            </trkpt>
            <trkpt lat="50.0018944" lon="10.8867912">
                <ele>242.0</ele>
                <time>2020-08-22T12:06:55.000Z</time>
                <name>Trackpoint 3376</name>
            </trkpt>
            <trkpt lat="50.001792" lon="10.886752">
                <ele>242.0</ele>
                <time>2020-08-22T12:06:57.000Z</time>
                <name>Trackpoint 3377</name>
            </trkpt>
            <trkpt lat="50.0016896" lon="10.8867128">
                <ele>242.0</ele>
                <time>2020-08-22T12:06:59.000Z</time>
                <name>Trackpoint 3378</name>
            </trkpt>
            <trkpt lat="50.0015808" lon="10.886672">
                <ele>241.0</ele>
                <time>2020-08-22T12:07:01.000Z</time>
                <name>Trackpoint 3379</name>
            </trkpt>
            <trkpt lat="50.0014688" lon="10.8866264">
                <ele>241.0</ele>
                <time>2020-08-22T12:07:03.000Z</time>
                <name>Trackpoint 3380</name>
            </trkpt>
            <trkpt lat="50.0013568" lon="10.8865832">
                <ele>241.0</ele>
                <time>2020-08-22T12:07:05.000Z</time>
                <name>Trackpoint 3381</name>
            </trkpt>
            <trkpt lat="50.0012512" lon="10.8865416">
                <ele>241.0</ele>
                <time>2020-08-22T12:07:07.000Z</time>
                <name>Trackpoint 3382</name>
            </trkpt>
            <trkpt lat="50.0011456" lon="10.8864968">
                <ele>241.0</ele>
                <time>2020-08-22T12:07:09.000Z</time>
                <name>Trackpoint 3383</name>
            </trkpt>
            <trkpt lat="50.0010336" lon="10.886448">
                <ele>241.0</ele>
                <time>2020-08-22T12:07:11.000Z</time>
                <name>Trackpoint 3384</name>
            </trkpt>
            <trkpt lat="50.000928" lon="10.8864096">
                <ele>241.0</ele>
                <time>2020-08-22T12:07:13.000Z</time>
                <name>Trackpoint 3385</name>
            </trkpt>
            <trkpt lat="50.0008192" lon="10.8863632">
                <ele>240.0</ele>
                <time>2020-08-22T12:07:15.000Z</time>
                <name>Trackpoint 3386</name>
            </trkpt>
            <trkpt lat="50.0007136" lon="10.8863224">
                <ele>240.0</ele>
                <time>2020-08-22T12:07:17.000Z</time>
                <name>Trackpoint 3387</name>
            </trkpt>
            <trkpt lat="50.0006144" lon="10.886276">
                <ele>240.0</ele>
                <time>2020-08-22T12:07:19.000Z</time>
                <name>Trackpoint 3388</name>
            </trkpt>
            <trkpt lat="50.000528" lon="10.8862312">
                <ele>240.0</ele>
                <time>2020-08-22T12:07:21.000Z</time>
                <name>Trackpoint 3389</name>
            </trkpt>
            <trkpt lat="50.0004032" lon="10.88618">
                <ele>241.0</ele>
                <time>2020-08-22T12:07:24.000Z</time>
                <name>Trackpoint 3390</name>
            </trkpt>
            <trkpt lat="50.0003008" lon="10.8861376">
                <ele>241.0</ele>
                <time>2020-08-22T12:07:27.000Z</time>
                <name>Trackpoint 3391</name>
            </trkpt>
            <trkpt lat="50.0002112" lon="10.8860968">
                <ele>241.0</ele>
                <time>2020-08-22T12:07:30.000Z</time>
                <name>Trackpoint 3392</name>
            </trkpt>
            <trkpt lat="50.0001184" lon="10.8860568">
                <ele>241.0</ele>
                <time>2020-08-22T12:07:33.000Z</time>
                <name>Trackpoint 3393</name>
            </trkpt>
            <trkpt lat="50.0000128" lon="10.8860064">
                <ele>241.0</ele>
                <time>2020-08-22T12:07:36.000Z</time>
                <name>Trackpoint 3394</name>
            </trkpt>
            <trkpt lat="49.9998976" lon="10.885952">
                <ele>241.0</ele>
                <time>2020-08-22T12:07:39.000Z</time>
                <name>Trackpoint 3395</name>
            </trkpt>
            <trkpt lat="49.999776" lon="10.8858928">
                <ele>241.0</ele>
                <time>2020-08-22T12:07:42.000Z</time>
                <name>Trackpoint 3396</name>
            </trkpt>
            <trkpt lat="49.9996896" lon="10.8858496">
                <ele>241.0</ele>
                <time>2020-08-22T12:07:44.000Z</time>
                <name>Trackpoint 3397</name>
            </trkpt>
            <trkpt lat="49.9996064" lon="10.8857944">
                <ele>241.0</ele>
                <time>2020-08-22T12:07:46.000Z</time>
                <name>Trackpoint 3398</name>
            </trkpt>
            <trkpt lat="49.9995264" lon="10.885728">
                <ele>241.0</ele>
                <time>2020-08-22T12:07:48.000Z</time>
                <name>Trackpoint 3399</name>
            </trkpt>
            <trkpt lat="49.999472" lon="10.8856232">
                <ele>241.0</ele>
                <time>2020-08-22T12:07:50.000Z</time>
                <name>Trackpoint 3400</name>
            </trkpt>
            <trkpt lat="49.99944" lon="10.8855">
                <ele>241.0</ele>
                <time>2020-08-22T12:07:52.000Z</time>
                <name>Trackpoint 3401</name>
            </trkpt>
            <trkpt lat="49.9994016" lon="10.8853752">
                <ele>241.0</ele>
                <time>2020-08-22T12:07:54.000Z</time>
                <name>Trackpoint 3402</name>
            </trkpt>
            <trkpt lat="49.9993664" lon="10.8852456">
                <ele>241.0</ele>
                <time>2020-08-22T12:07:56.000Z</time>
                <name>Trackpoint 3403</name>
            </trkpt>
            <trkpt lat="49.999328" lon="10.8851168">
                <ele>241.0</ele>
                <time>2020-08-22T12:07:58.000Z</time>
                <name>Trackpoint 3404</name>
            </trkpt>
            <trkpt lat="49.9992928" lon="10.884992">
                <ele>241.0</ele>
                <time>2020-08-22T12:08:00.000Z</time>
                <name>Trackpoint 3405</name>
            </trkpt>
            <trkpt lat="49.9992608" lon="10.8848648">
                <ele>241.0</ele>
                <time>2020-08-22T12:08:02.000Z</time>
                <name>Trackpoint 3406</name>
            </trkpt>
            <trkpt lat="49.9992224" lon="10.8847448">
                <ele>241.0</ele>
                <time>2020-08-22T12:08:04.000Z</time>
                <name>Trackpoint 3407</name>
            </trkpt>
            <trkpt lat="49.9991904" lon="10.8846384">
                <ele>241.0</ele>
                <time>2020-08-22T12:08:06.000Z</time>
                <name>Trackpoint 3408</name>
            </trkpt>
            <trkpt lat="49.9991584" lon="10.8845464">
                <ele>241.0</ele>
                <time>2020-08-22T12:08:08.000Z</time>
                <name>Trackpoint 3409</name>
            </trkpt>
            <trkpt lat="49.9991136" lon="10.884428">
                <ele>241.0</ele>
                <time>2020-08-22T12:08:11.000Z</time>
                <name>Trackpoint 3410</name>
            </trkpt>
            <trkpt lat="49.999072" lon="10.8843096">
                <ele>241.0</ele>
                <time>2020-08-22T12:08:14.000Z</time>
                <name>Trackpoint 3411</name>
            </trkpt>
            <trkpt lat="49.99904" lon="10.8842184">
                <ele>241.0</ele>
                <time>2020-08-22T12:08:16.000Z</time>
                <name>Trackpoint 3412</name>
            </trkpt>
            <trkpt lat="49.998992" lon="10.8841288">
                <ele>241.0</ele>
                <time>2020-08-22T12:08:18.000Z</time>
                <name>Trackpoint 3413</name>
            </trkpt>
            <trkpt lat="49.9989408" lon="10.8840376">
                <ele>241.0</ele>
                <time>2020-08-22T12:08:20.000Z</time>
                <name>Trackpoint 3414</name>
            </trkpt>
            <trkpt lat="49.9988864" lon="10.883948">
                <ele>241.0</ele>
                <time>2020-08-22T12:08:22.000Z</time>
                <name>Trackpoint 3415</name>
            </trkpt>
            <trkpt lat="49.9988288" lon="10.883872">
                <ele>241.0</ele>
                <time>2020-08-22T12:08:24.000Z</time>
                <name>Trackpoint 3416</name>
            </trkpt>
            <trkpt lat="49.9987552" lon="10.8838184">
                <ele>241.0</ele>
                <time>2020-08-22T12:08:26.000Z</time>
                <name>Trackpoint 3417</name>
            </trkpt>
            <trkpt lat="49.9986432" lon="10.8837632">
                <ele>241.0</ele>
                <time>2020-08-22T12:08:29.000Z</time>
                <name>Trackpoint 3418</name>
            </trkpt>
            <trkpt lat="49.9985248" lon="10.8837184">
                <ele>240.0</ele>
                <time>2020-08-22T12:08:32.000Z</time>
                <name>Trackpoint 3419</name>
            </trkpt>
            <trkpt lat="49.9984384" lon="10.883688">
                <ele>240.0</ele>
                <time>2020-08-22T12:08:34.000Z</time>
                <name>Trackpoint 3420</name>
            </trkpt>
            <trkpt lat="49.9983488" lon="10.8836568">
                <ele>240.0</ele>
                <time>2020-08-22T12:08:36.000Z</time>
                <name>Trackpoint 3421</name>
            </trkpt>
            <trkpt lat="49.998256" lon="10.8836296">
                <ele>240.0</ele>
                <time>2020-08-22T12:08:38.000Z</time>
                <name>Trackpoint 3422</name>
            </trkpt>
            <trkpt lat="49.9981568" lon="10.8835968">
                <ele>240.0</ele>
                <time>2020-08-22T12:08:40.000Z</time>
                <name>Trackpoint 3423</name>
            </trkpt>
            <trkpt lat="49.9980608" lon="10.883556">
                <ele>240.0</ele>
                <time>2020-08-22T12:08:42.000Z</time>
                <name>Trackpoint 3424</name>
            </trkpt>
            <trkpt lat="49.997968" lon="10.8835232">
                <ele>239.0</ele>
                <time>2020-08-22T12:08:44.000Z</time>
                <name>Trackpoint 3425</name>
            </trkpt>
            <trkpt lat="49.997872" lon="10.8834912">
                <ele>239.0</ele>
                <time>2020-08-22T12:08:46.000Z</time>
                <name>Trackpoint 3426</name>
            </trkpt>
            <trkpt lat="49.9977728" lon="10.8834584">
                <ele>239.0</ele>
                <time>2020-08-22T12:08:48.000Z</time>
                <name>Trackpoint 3427</name>
            </trkpt>
            <trkpt lat="49.9976768" lon="10.8834248">
                <ele>239.0</ele>
                <time>2020-08-22T12:08:50.000Z</time>
                <name>Trackpoint 3428</name>
            </trkpt>
            <trkpt lat="49.9975808" lon="10.8833904">
                <ele>239.0</ele>
                <time>2020-08-22T12:08:52.000Z</time>
                <name>Trackpoint 3429</name>
            </trkpt>
            <trkpt lat="49.9974848" lon="10.8833568">
                <ele>239.0</ele>
                <time>2020-08-22T12:08:54.000Z</time>
                <name>Trackpoint 3430</name>
            </trkpt>
            <trkpt lat="49.9973856" lon="10.88332">
                <ele>239.0</ele>
                <time>2020-08-22T12:08:56.000Z</time>
                <name>Trackpoint 3431</name>
            </trkpt>
            <trkpt lat="49.9972928" lon="10.8832912">
                <ele>239.0</ele>
                <time>2020-08-22T12:08:58.000Z</time>
                <name>Trackpoint 3432</name>
            </trkpt>
            <trkpt lat="49.9971968" lon="10.8832568">
                <ele>239.0</ele>
                <time>2020-08-22T12:09:00.000Z</time>
                <name>Trackpoint 3433</name>
            </trkpt>
            <trkpt lat="49.9970976" lon="10.8832168">
                <ele>239.0</ele>
                <time>2020-08-22T12:09:02.000Z</time>
                <name>Trackpoint 3434</name>
            </trkpt>
            <trkpt lat="49.9970016" lon="10.8831768">
                <ele>239.0</ele>
                <time>2020-08-22T12:09:04.000Z</time>
                <name>Trackpoint 3435</name>
            </trkpt>
            <trkpt lat="49.9969088" lon="10.8831432">
                <ele>239.0</ele>
                <time>2020-08-22T12:09:06.000Z</time>
                <name>Trackpoint 3436</name>
            </trkpt>
            <trkpt lat="49.9967904" lon="10.8831032">
                <ele>239.0</ele>
                <time>2020-08-22T12:09:09.000Z</time>
                <name>Trackpoint 3437</name>
            </trkpt>
            <trkpt lat="49.9966784" lon="10.8830656">
                <ele>240.0</ele>
                <time>2020-08-22T12:09:12.000Z</time>
                <name>Trackpoint 3438</name>
            </trkpt>
            <trkpt lat="49.99656" lon="10.883012">
                <ele>240.0</ele>
                <time>2020-08-22T12:09:15.000Z</time>
                <name>Trackpoint 3439</name>
            </trkpt>
            <trkpt lat="49.996432" lon="10.8829632">
                <ele>240.0</ele>
                <time>2020-08-22T12:09:18.000Z</time>
                <name>Trackpoint 3440</name>
            </trkpt>
            <trkpt lat="49.9963456" lon="10.8829296">
                <ele>240.0</ele>
                <time>2020-08-22T12:09:20.000Z</time>
                <name>Trackpoint 3441</name>
            </trkpt>
            <trkpt lat="49.9962592" lon="10.8828896">
                <ele>239.0</ele>
                <time>2020-08-22T12:09:22.000Z</time>
                <name>Trackpoint 3442</name>
            </trkpt>
            <trkpt lat="49.9961696" lon="10.8828424">
                <ele>239.0</ele>
                <time>2020-08-22T12:09:24.000Z</time>
                <name>Trackpoint 3443</name>
            </trkpt>
            <trkpt lat="49.9960832" lon="10.8827888">
                <ele>240.0</ele>
                <time>2020-08-22T12:09:26.000Z</time>
                <name>Trackpoint 3444</name>
            </trkpt>
            <trkpt lat="49.9959968" lon="10.882724">
                <ele>240.0</ele>
                <time>2020-08-22T12:09:28.000Z</time>
                <name>Trackpoint 3445</name>
            </trkpt>
            <trkpt lat="49.9959104" lon="10.8826568">
                <ele>239.0</ele>
                <time>2020-08-22T12:09:30.000Z</time>
                <name>Trackpoint 3446</name>
            </trkpt>
            <trkpt lat="49.995824" lon="10.8825912">
                <ele>240.0</ele>
                <time>2020-08-22T12:09:32.000Z</time>
                <name>Trackpoint 3447</name>
            </trkpt>
            <trkpt lat="49.9957312" lon="10.8825304">
                <ele>240.0</ele>
                <time>2020-08-22T12:09:34.000Z</time>
                <name>Trackpoint 3448</name>
            </trkpt>
            <trkpt lat="49.9956384" lon="10.8824656">
                <ele>240.0</ele>
                <time>2020-08-22T12:09:36.000Z</time>
                <name>Trackpoint 3449</name>
            </trkpt>
            <trkpt lat="49.9955488" lon="10.8824016">
                <ele>240.0</ele>
                <time>2020-08-22T12:09:38.000Z</time>
                <name>Trackpoint 3450</name>
            </trkpt>
            <trkpt lat="49.9954688" lon="10.8823344">
                <ele>240.0</ele>
                <time>2020-08-22T12:09:40.000Z</time>
                <name>Trackpoint 3451</name>
            </trkpt>
            <trkpt lat="49.9953888" lon="10.8822696">
                <ele>240.0</ele>
                <time>2020-08-22T12:09:42.000Z</time>
                <name>Trackpoint 3452</name>
            </trkpt>
            <trkpt lat="49.9953088" lon="10.882212">
                <ele>240.0</ele>
                <time>2020-08-22T12:09:44.000Z</time>
                <name>Trackpoint 3453</name>
            </trkpt>
            <trkpt lat="49.9952288" lon="10.88216">
                <ele>240.0</ele>
                <time>2020-08-22T12:09:46.000Z</time>
                <name>Trackpoint 3454</name>
            </trkpt>
            <trkpt lat="49.995152" lon="10.8821112">
                <ele>240.0</ele>
                <time>2020-08-22T12:09:48.000Z</time>
                <name>Trackpoint 3455</name>
            </trkpt>
            <trkpt lat="49.995088" lon="10.8820464">
                <ele>240.0</ele>
                <time>2020-08-22T12:09:50.000Z</time>
                <name>Trackpoint 3456</name>
            </trkpt>
            <trkpt lat="49.9950016" lon="10.8819504">
                <ele>240.0</ele>
                <time>2020-08-22T12:09:53.000Z</time>
                <name>Trackpoint 3457</name>
            </trkpt>
            <trkpt lat="49.994928" lon="10.8818816">
                <ele>240.0</ele>
                <time>2020-08-22T12:09:55.000Z</time>
                <name>Trackpoint 3458</name>
            </trkpt>
            <trkpt lat="49.9948384" lon="10.8818328">
                <ele>240.0</ele>
                <time>2020-08-22T12:09:57.000Z</time>
                <name>Trackpoint 3459</name>
            </trkpt>
            <trkpt lat="49.9947424" lon="10.8818">
                <ele>240.0</ele>
                <time>2020-08-22T12:09:59.000Z</time>
                <name>Trackpoint 3460</name>
            </trkpt>
            <trkpt lat="49.9946528" lon="10.8817904">
                <ele>239.0</ele>
                <time>2020-08-22T12:10:01.000Z</time>
                <name>Trackpoint 3461</name>
            </trkpt>
            <trkpt lat="49.99456" lon="10.8817968">
                <ele>239.0</ele>
                <time>2020-08-22T12:10:03.000Z</time>
                <name>Trackpoint 3462</name>
            </trkpt>
            <trkpt lat="49.9944352" lon="10.88182">
                <ele>239.0</ele>
                <time>2020-08-22T12:10:06.000Z</time>
                <name>Trackpoint 3463</name>
            </trkpt>
            <trkpt lat="49.9943424" lon="10.8818552">
                <ele>238.0</ele>
                <time>2020-08-22T12:10:09.000Z</time>
                <name>Trackpoint 3464</name>
            </trkpt>
            <trkpt lat="49.9942272" lon="10.8819152">
                <ele>238.0</ele>
                <time>2020-08-22T12:10:12.000Z</time>
                <name>Trackpoint 3465</name>
            </trkpt>
            <trkpt lat="49.9941376" lon="10.8819568">
                <ele>238.0</ele>
                <time>2020-08-22T12:10:14.000Z</time>
                <name>Trackpoint 3466</name>
            </trkpt>
            <trkpt lat="49.9940544" lon="10.8819968">
                <ele>238.0</ele>
                <time>2020-08-22T12:10:16.000Z</time>
                <name>Trackpoint 3467</name>
            </trkpt>
            <trkpt lat="49.9939616" lon="10.8820352">
                <ele>238.0</ele>
                <time>2020-08-22T12:10:18.000Z</time>
                <name>Trackpoint 3468</name>
            </trkpt>
            <trkpt lat="49.9938688" lon="10.8820752">
                <ele>238.0</ele>
                <time>2020-08-22T12:10:20.000Z</time>
                <name>Trackpoint 3469</name>
            </trkpt>
            <trkpt lat="49.9937792" lon="10.8821224">
                <ele>238.0</ele>
                <time>2020-08-22T12:10:22.000Z</time>
                <name>Trackpoint 3470</name>
            </trkpt>
            <trkpt lat="49.9936576" lon="10.8821752">
                <ele>238.0</ele>
                <time>2020-08-22T12:10:25.000Z</time>
                <name>Trackpoint 3471</name>
            </trkpt>
            <trkpt lat="49.9935456" lon="10.8822272">
                <ele>238.0</ele>
                <time>2020-08-22T12:10:28.000Z</time>
                <name>Trackpoint 3472</name>
            </trkpt>
            <trkpt lat="49.9934336" lon="10.8822816">
                <ele>239.0</ele>
                <time>2020-08-22T12:10:31.000Z</time>
                <name>Trackpoint 3473</name>
            </trkpt>
            <trkpt lat="49.9933216" lon="10.8823216">
                <ele>238.0</ele>
                <time>2020-08-22T12:10:34.000Z</time>
                <name>Trackpoint 3474</name>
            </trkpt>
            <trkpt lat="49.993232" lon="10.8823768">
                <ele>238.0</ele>
                <time>2020-08-22T12:10:36.000Z</time>
                <name>Trackpoint 3475</name>
            </trkpt>
            <trkpt lat="49.9931456" lon="10.8824128">
                <ele>238.0</ele>
                <time>2020-08-22T12:10:38.000Z</time>
                <name>Trackpoint 3476</name>
            </trkpt>
            <trkpt lat="49.993056" lon="10.8824432">
                <ele>238.0</ele>
                <time>2020-08-22T12:10:40.000Z</time>
                <name>Trackpoint 3477</name>
            </trkpt>
            <trkpt lat="49.9929696" lon="10.8824752">
                <ele>238.0</ele>
                <time>2020-08-22T12:10:42.000Z</time>
                <name>Trackpoint 3478</name>
            </trkpt>
            <trkpt lat="49.9928384" lon="10.882512">
                <ele>238.0</ele>
                <time>2020-08-22T12:10:45.000Z</time>
                <name>Trackpoint 3479</name>
            </trkpt>
            <trkpt lat="49.9927104" lon="10.8825416">
                <ele>238.0</ele>
                <time>2020-08-22T12:10:48.000Z</time>
                <name>Trackpoint 3480</name>
            </trkpt>
            <trkpt lat="49.992592" lon="10.88258">
                <ele>238.0</ele>
                <time>2020-08-22T12:10:51.000Z</time>
                <name>Trackpoint 3481</name>
            </trkpt>
            <trkpt lat="49.9924736" lon="10.882604">
                <ele>239.0</ele>
                <time>2020-08-22T12:10:54.000Z</time>
                <name>Trackpoint 3482</name>
            </trkpt>
            <trkpt lat="49.9923488" lon="10.8826488">
                <ele>239.0</ele>
                <time>2020-08-22T12:10:57.000Z</time>
                <name>Trackpoint 3483</name>
            </trkpt>
            <trkpt lat="49.9922592" lon="10.88268">
                <ele>239.0</ele>
                <time>2020-08-22T12:10:59.000Z</time>
                <name>Trackpoint 3484</name>
            </trkpt>
            <trkpt lat="49.9921344" lon="10.882724">
                <ele>239.0</ele>
                <time>2020-08-22T12:11:02.000Z</time>
                <name>Trackpoint 3485</name>
            </trkpt>
            <trkpt lat="49.9920096" lon="10.8827616">
                <ele>238.0</ele>
                <time>2020-08-22T12:11:05.000Z</time>
                <name>Trackpoint 3486</name>
            </trkpt>
            <trkpt lat="49.9919232" lon="10.8827912">
                <ele>238.0</ele>
                <time>2020-08-22T12:11:07.000Z</time>
                <name>Trackpoint 3487</name>
            </trkpt>
            <trkpt lat="49.991792" lon="10.8828272">
                <ele>238.0</ele>
                <time>2020-08-22T12:11:10.000Z</time>
                <name>Trackpoint 3488</name>
            </trkpt>
            <trkpt lat="49.9917024" lon="10.8828536">
                <ele>238.0</ele>
                <time>2020-08-22T12:11:12.000Z</time>
                <name>Trackpoint 3489</name>
            </trkpt>
            <trkpt lat="49.9916128" lon="10.8828824">
                <ele>238.0</ele>
                <time>2020-08-22T12:11:14.000Z</time>
                <name>Trackpoint 3490</name>
            </trkpt>
            <trkpt lat="49.9915264" lon="10.8829136">
                <ele>238.0</ele>
                <time>2020-08-22T12:11:16.000Z</time>
                <name>Trackpoint 3491</name>
            </trkpt>
            <trkpt lat="49.9914368" lon="10.8829416">
                <ele>238.0</ele>
                <time>2020-08-22T12:11:18.000Z</time>
                <name>Trackpoint 3492</name>
            </trkpt>
            <trkpt lat="49.9913472" lon="10.8829648">
                <ele>238.0</ele>
                <time>2020-08-22T12:11:20.000Z</time>
                <name>Trackpoint 3493</name>
            </trkpt>
            <trkpt lat="49.9912576" lon="10.882988">
                <ele>238.0</ele>
                <time>2020-08-22T12:11:22.000Z</time>
                <name>Trackpoint 3494</name>
            </trkpt>
            <trkpt lat="49.9911648" lon="10.8830144">
                <ele>238.0</ele>
                <time>2020-08-22T12:11:24.000Z</time>
                <name>Trackpoint 3495</name>
            </trkpt>
            <trkpt lat="49.9910752" lon="10.8830416">
                <ele>238.0</ele>
                <time>2020-08-22T12:11:26.000Z</time>
                <name>Trackpoint 3496</name>
            </trkpt>
            <trkpt lat="49.9909888" lon="10.8830672">
                <ele>238.0</ele>
                <time>2020-08-22T12:11:28.000Z</time>
                <name>Trackpoint 3497</name>
            </trkpt>
            <trkpt lat="49.9908704" lon="10.8830968">
                <ele>237.0</ele>
                <time>2020-08-22T12:11:31.000Z</time>
                <name>Trackpoint 3498</name>
            </trkpt>
            <trkpt lat="49.990768" lon="10.883132">
                <ele>237.0</ele>
                <time>2020-08-22T12:11:34.000Z</time>
                <name>Trackpoint 3499</name>
            </trkpt>
            <trkpt lat="49.9906656" lon="10.8831656">
                <ele>237.0</ele>
                <time>2020-08-22T12:11:37.000Z</time>
                <name>Trackpoint 3500</name>
            </trkpt>
            <trkpt lat="49.9905664" lon="10.8831984">
                <ele>237.0</ele>
                <time>2020-08-22T12:11:40.000Z</time>
                <name>Trackpoint 3501</name>
            </trkpt>
            <trkpt lat="49.9904736" lon="10.8832368">
                <ele>237.0</ele>
                <time>2020-08-22T12:11:43.000Z</time>
                <name>Trackpoint 3502</name>
            </trkpt>
            <trkpt lat="49.990384" lon="10.88326">
                <ele>238.0</ele>
                <time>2020-08-22T12:12:14.000Z</time>
                <name>Trackpoint 3503</name>
            </trkpt>
            <trkpt lat="49.9902944" lon="10.883288">
                <ele>238.0</ele>
                <time>2020-08-22T12:12:18.000Z</time>
                <name>Trackpoint 3504</name>
            </trkpt>
            <trkpt lat="49.990192" lon="10.88332">
                <ele>238.0</ele>
                <time>2020-08-22T12:12:21.000Z</time>
                <name>Trackpoint 3505</name>
            </trkpt>
            <trkpt lat="49.9900768" lon="10.8833584">
                <ele>238.0</ele>
                <time>2020-08-22T12:12:24.000Z</time>
                <name>Trackpoint 3506</name>
            </trkpt>
            <trkpt lat="49.9899488" lon="10.8833968">
                <ele>238.0</ele>
                <time>2020-08-22T12:12:27.000Z</time>
                <name>Trackpoint 3507</name>
            </trkpt>
            <trkpt lat="49.9898592" lon="10.8834216">
                <ele>238.0</ele>
                <time>2020-08-22T12:12:29.000Z</time>
                <name>Trackpoint 3508</name>
            </trkpt>
            <trkpt lat="49.9897728" lon="10.8834496">
                <ele>238.0</ele>
                <time>2020-08-22T12:12:31.000Z</time>
                <name>Trackpoint 3509</name>
            </trkpt>
            <trkpt lat="49.9896864" lon="10.8834784">
                <ele>238.0</ele>
                <time>2020-08-22T12:12:33.000Z</time>
                <name>Trackpoint 3510</name>
            </trkpt>
            <trkpt lat="49.9896" lon="10.8835064">
                <ele>238.0</ele>
                <time>2020-08-22T12:12:35.000Z</time>
                <name>Trackpoint 3511</name>
            </trkpt>
            <trkpt lat="49.9895104" lon="10.8835384">
                <ele>238.0</ele>
                <time>2020-08-22T12:12:37.000Z</time>
                <name>Trackpoint 3512</name>
            </trkpt>
            <trkpt lat="49.9894176" lon="10.8835648">
                <ele>238.0</ele>
                <time>2020-08-22T12:12:39.000Z</time>
                <name>Trackpoint 3513</name>
            </trkpt>
            <trkpt lat="49.989328" lon="10.8835872">
                <ele>238.0</ele>
                <time>2020-08-22T12:12:41.000Z</time>
                <name>Trackpoint 3514</name>
            </trkpt>
            <trkpt lat="49.9892352" lon="10.8836144">
                <ele>238.0</ele>
                <time>2020-08-22T12:12:43.000Z</time>
                <name>Trackpoint 3515</name>
            </trkpt>
            <trkpt lat="49.9891424" lon="10.8836472">
                <ele>237.0</ele>
                <time>2020-08-22T12:12:45.000Z</time>
                <name>Trackpoint 3516</name>
            </trkpt>
            <trkpt lat="49.9890496" lon="10.8836736">
                <ele>237.0</ele>
                <time>2020-08-22T12:12:47.000Z</time>
                <name>Trackpoint 3517</name>
            </trkpt>
            <trkpt lat="49.9889568" lon="10.8837016">
                <ele>237.0</ele>
                <time>2020-08-22T12:12:49.000Z</time>
                <name>Trackpoint 3518</name>
            </trkpt>
            <trkpt lat="49.9888608" lon="10.883732">
                <ele>238.0</ele>
                <time>2020-08-22T12:12:51.000Z</time>
                <name>Trackpoint 3519</name>
            </trkpt>
            <trkpt lat="49.9887584" lon="10.8837616">
                <ele>238.0</ele>
                <time>2020-08-22T12:12:53.000Z</time>
                <name>Trackpoint 3520</name>
            </trkpt>
            <trkpt lat="49.988656" lon="10.883792">
                <ele>238.0</ele>
                <time>2020-08-22T12:12:55.000Z</time>
                <name>Trackpoint 3521</name>
            </trkpt>
            <trkpt lat="49.9885568" lon="10.8838216">
                <ele>238.0</ele>
                <time>2020-08-22T12:12:57.000Z</time>
                <name>Trackpoint 3522</name>
            </trkpt>
            <trkpt lat="49.9884576" lon="10.8838504">
                <ele>238.0</ele>
                <time>2020-08-22T12:12:59.000Z</time>
                <name>Trackpoint 3523</name>
            </trkpt>
            <trkpt lat="49.9883648" lon="10.8838768">
                <ele>238.0</ele>
                <time>2020-08-22T12:13:01.000Z</time>
                <name>Trackpoint 3524</name>
            </trkpt>
            <trkpt lat="49.9882688" lon="10.8839016">
                <ele>238.0</ele>
                <time>2020-08-22T12:13:03.000Z</time>
                <name>Trackpoint 3525</name>
            </trkpt>
            <trkpt lat="49.9881792" lon="10.8839256">
                <ele>238.0</ele>
                <time>2020-08-22T12:13:05.000Z</time>
                <name>Trackpoint 3526</name>
            </trkpt>
            <trkpt lat="49.9880832" lon="10.883952">
                <ele>238.0</ele>
                <time>2020-08-22T12:13:07.000Z</time>
                <name>Trackpoint 3527</name>
            </trkpt>
            <trkpt lat="49.9879904" lon="10.8839712">
                <ele>238.0</ele>
                <time>2020-08-22T12:13:09.000Z</time>
                <name>Trackpoint 3528</name>
            </trkpt>
            <trkpt lat="49.9878624" lon="10.8839848">
                <ele>238.0</ele>
                <time>2020-08-22T12:13:12.000Z</time>
                <name>Trackpoint 3529</name>
            </trkpt>
            <trkpt lat="49.987744" lon="10.8839904">
                <ele>238.0</ele>
                <time>2020-08-22T12:13:15.000Z</time>
                <name>Trackpoint 3530</name>
            </trkpt>
            <trkpt lat="49.9876256" lon="10.883988">
                <ele>238.0</ele>
                <time>2020-08-22T12:13:18.000Z</time>
                <name>Trackpoint 3531</name>
            </trkpt>
            <trkpt lat="49.9875008" lon="10.8839752">
                <ele>239.0</ele>
                <time>2020-08-22T12:13:21.000Z</time>
                <name>Trackpoint 3532</name>
            </trkpt>
            <trkpt lat="49.9873728" lon="10.8839552">
                <ele>239.0</ele>
                <time>2020-08-22T12:13:24.000Z</time>
                <name>Trackpoint 3533</name>
            </trkpt>
            <trkpt lat="49.9872448" lon="10.8839264">
                <ele>239.0</ele>
                <time>2020-08-22T12:13:27.000Z</time>
                <name>Trackpoint 3534</name>
            </trkpt>
            <trkpt lat="49.9871552" lon="10.8838952">
                <ele>239.0</ele>
                <time>2020-08-22T12:13:29.000Z</time>
                <name>Trackpoint 3535</name>
            </trkpt>
            <trkpt lat="49.9870688" lon="10.8838632">
                <ele>239.0</ele>
                <time>2020-08-22T12:13:31.000Z</time>
                <name>Trackpoint 3536</name>
            </trkpt>
            <trkpt lat="49.9869792" lon="10.8838256">
                <ele>239.0</ele>
                <time>2020-08-22T12:13:33.000Z</time>
                <name>Trackpoint 3537</name>
            </trkpt>
            <trkpt lat="49.9868928" lon="10.8837856">
                <ele>239.0</ele>
                <time>2020-08-22T12:13:35.000Z</time>
                <name>Trackpoint 3538</name>
            </trkpt>
            <trkpt lat="49.9868096" lon="10.8837416">
                <ele>239.0</ele>
                <time>2020-08-22T12:13:37.000Z</time>
                <name>Trackpoint 3539</name>
            </trkpt>
            <trkpt lat="49.9867264" lon="10.883692">
                <ele>239.0</ele>
                <time>2020-08-22T12:13:39.000Z</time>
                <name>Trackpoint 3540</name>
            </trkpt>
            <trkpt lat="49.98664" lon="10.88364">
                <ele>239.0</ele>
                <time>2020-08-22T12:13:41.000Z</time>
                <name>Trackpoint 3541</name>
            </trkpt>
            <trkpt lat="49.9865536" lon="10.8835888">
                <ele>239.0</ele>
                <time>2020-08-22T12:13:43.000Z</time>
                <name>Trackpoint 3542</name>
            </trkpt>
            <trkpt lat="49.9864736" lon="10.8835336">
                <ele>239.0</ele>
                <time>2020-08-22T12:13:45.000Z</time>
                <name>Trackpoint 3543</name>
            </trkpt>
            <trkpt lat="49.9863904" lon="10.883476">
                <ele>239.0</ele>
                <time>2020-08-22T12:13:47.000Z</time>
                <name>Trackpoint 3544</name>
            </trkpt>
            <trkpt lat="49.986304" lon="10.88342">
                <ele>239.0</ele>
                <time>2020-08-22T12:13:49.000Z</time>
                <name>Trackpoint 3545</name>
            </trkpt>
            <trkpt lat="49.986224" lon="10.8833568">
                <ele>239.0</ele>
                <time>2020-08-22T12:13:51.000Z</time>
                <name>Trackpoint 3546</name>
            </trkpt>
            <trkpt lat="49.9861344" lon="10.8832968">
                <ele>239.0</ele>
                <time>2020-08-22T12:13:53.000Z</time>
                <name>Trackpoint 3547</name>
            </trkpt>
            <trkpt lat="49.986032" lon="10.883232">
                <ele>238.0</ele>
                <time>2020-08-22T12:13:55.000Z</time>
                <name>Trackpoint 3548</name>
            </trkpt>
            <trkpt lat="49.9859168" lon="10.8831584">
                <ele>237.0</ele>
                <time>2020-08-22T12:13:57.000Z</time>
                <name>Trackpoint 3549</name>
            </trkpt>
            <trkpt lat="49.9857952" lon="10.883088">
                <ele>237.0</ele>
                <time>2020-08-22T12:13:59.000Z</time>
                <name>Trackpoint 3550</name>
            </trkpt>
            <trkpt lat="49.985696" lon="10.883032">
                <ele>238.0</ele>
                <time>2020-08-22T12:14:01.000Z</time>
                <name>Trackpoint 3551</name>
            </trkpt>
            <trkpt lat="49.9855808" lon="10.882972">
                <ele>239.0</ele>
                <time>2020-08-22T12:14:04.000Z</time>
                <name>Trackpoint 3552</name>
            </trkpt>
            <trkpt lat="49.985488" lon="10.8829272">
                <ele>239.0</ele>
                <time>2020-08-22T12:14:07.000Z</time>
                <name>Trackpoint 3553</name>
            </trkpt>
            <trkpt lat="49.9853984" lon="10.8828824">
                <ele>239.0</ele>
                <time>2020-08-22T12:14:10.000Z</time>
                <name>Trackpoint 3554</name>
            </trkpt>
            <trkpt lat="49.9852768" lon="10.8828424">
                <ele>238.0</ele>
                <time>2020-08-22T12:14:13.000Z</time>
                <name>Trackpoint 3555</name>
            </trkpt>
            <trkpt lat="49.9851776" lon="10.8828136">
                <ele>237.0</ele>
                <time>2020-08-22T12:14:15.000Z</time>
                <name>Trackpoint 3556</name>
            </trkpt>
            <trkpt lat="49.9850592" lon="10.8827784">
                <ele>237.0</ele>
                <time>2020-08-22T12:14:17.000Z</time>
                <name>Trackpoint 3557</name>
            </trkpt>
            <trkpt lat="49.9849408" lon="10.8827488">
                <ele>236.0</ele>
                <time>2020-08-22T12:14:19.000Z</time>
                <name>Trackpoint 3558</name>
            </trkpt>
            <trkpt lat="49.9848288" lon="10.8827336">
                <ele>236.0</ele>
                <time>2020-08-22T12:14:21.000Z</time>
                <name>Trackpoint 3559</name>
            </trkpt>
            <trkpt lat="49.9847296" lon="10.8827352">
                <ele>236.0</ele>
                <time>2020-08-22T12:14:23.000Z</time>
                <name>Trackpoint 3560</name>
            </trkpt>
            <trkpt lat="49.9846368" lon="10.8827552">
                <ele>236.0</ele>
                <time>2020-08-22T12:14:25.000Z</time>
                <name>Trackpoint 3561</name>
            </trkpt>
            <trkpt lat="49.9845184" lon="10.8827864">
                <ele>235.0</ele>
                <time>2020-08-22T12:14:28.000Z</time>
                <name>Trackpoint 3562</name>
            </trkpt>
            <trkpt lat="49.9844352" lon="10.8828424">
                <ele>236.0</ele>
                <time>2020-08-22T12:14:31.000Z</time>
                <name>Trackpoint 3563</name>
            </trkpt>
            <trkpt lat="49.9843968" lon="10.8829384">
                <ele>235.0</ele>
                <time>2020-08-22T12:14:33.000Z</time>
                <name>Trackpoint 3564</name>
            </trkpt>
            <trkpt lat="49.9843968" lon="10.8830384">
                <ele>235.0</ele>
                <time>2020-08-22T12:14:35.000Z</time>
                <name>Trackpoint 3565</name>
            </trkpt>
            <trkpt lat="49.9844096" lon="10.8831328">
                <ele>235.0</ele>
                <time>2020-08-22T12:14:37.000Z</time>
                <name>Trackpoint 3566</name>
            </trkpt>
            <trkpt lat="49.984352" lon="10.8832328">
                <ele>236.0</ele>
                <time>2020-08-22T12:14:40.000Z</time>
                <name>Trackpoint 3567</name>
            </trkpt>
            <trkpt lat="49.9842464" lon="10.8832664">
                <ele>236.0</ele>
                <time>2020-08-22T12:14:44.000Z</time>
                <name>Trackpoint 3568</name>
            </trkpt>
            <trkpt lat="49.9841472" lon="10.8832912">
                <ele>236.0</ele>
                <time>2020-08-22T12:14:47.000Z</time>
                <name>Trackpoint 3569</name>
            </trkpt>
            <trkpt lat="49.9840416" lon="10.8833264">
                <ele>236.0</ele>
                <time>2020-08-22T12:14:50.000Z</time>
                <name>Trackpoint 3570</name>
            </trkpt>
            <trkpt lat="49.9839392" lon="10.88336">
                <ele>236.0</ele>
                <time>2020-08-22T12:14:53.000Z</time>
                <name>Trackpoint 3571</name>
            </trkpt>
            <trkpt lat="49.9838336" lon="10.883404">
                <ele>236.0</ele>
                <time>2020-08-22T12:14:56.000Z</time>
                <name>Trackpoint 3572</name>
            </trkpt>
            <trkpt lat="49.983728" lon="10.8834496">
                <ele>236.0</ele>
                <time>2020-08-22T12:14:59.000Z</time>
                <name>Trackpoint 3573</name>
            </trkpt>
            <trkpt lat="49.9836224" lon="10.8834952">
                <ele>236.0</ele>
                <time>2020-08-22T12:15:02.000Z</time>
                <name>Trackpoint 3574</name>
            </trkpt>
            <trkpt lat="49.98352" lon="10.8835384">
                <ele>236.0</ele>
                <time>2020-08-22T12:15:05.000Z</time>
                <name>Trackpoint 3575</name>
            </trkpt>
            <trkpt lat="49.9834112" lon="10.8835872">
                <ele>236.0</ele>
                <time>2020-08-22T12:15:08.000Z</time>
                <name>Trackpoint 3576</name>
            </trkpt>
            <trkpt lat="49.9833024" lon="10.8836272">
                <ele>236.0</ele>
                <time>2020-08-22T12:15:11.000Z</time>
                <name>Trackpoint 3577</name>
            </trkpt>
            <trkpt lat="49.9831968" lon="10.88368">
                <ele>235.0</ele>
                <time>2020-08-22T12:15:14.000Z</time>
                <name>Trackpoint 3578</name>
            </trkpt>
            <trkpt lat="49.9830976" lon="10.8837272">
                <ele>236.0</ele>
                <time>2020-08-22T12:15:17.000Z</time>
                <name>Trackpoint 3579</name>
            </trkpt>
            <trkpt lat="49.9830016" lon="10.8837736">
                <ele>236.0</ele>
                <time>2020-08-22T12:15:20.000Z</time>
                <name>Trackpoint 3580</name>
            </trkpt>
            <trkpt lat="49.9828992" lon="10.883828">
                <ele>236.0</ele>
                <time>2020-08-22T12:15:23.000Z</time>
                <name>Trackpoint 3581</name>
            </trkpt>
            <trkpt lat="49.9828032" lon="10.883888">
                <ele>236.0</ele>
                <time>2020-08-22T12:15:26.000Z</time>
                <name>Trackpoint 3582</name>
            </trkpt>
            <trkpt lat="49.9827072" lon="10.8839552">
                <ele>237.0</ele>
                <time>2020-08-22T12:15:29.000Z</time>
                <name>Trackpoint 3583</name>
            </trkpt>
            <trkpt lat="49.982608" lon="10.8840264">
                <ele>238.0</ele>
                <time>2020-08-22T12:15:32.000Z</time>
                <name>Trackpoint 3584</name>
            </trkpt>
            <trkpt lat="49.982528" lon="10.8840768">
                <ele>238.0</ele>
                <time>2020-08-22T12:15:34.000Z</time>
                <name>Trackpoint 3585</name>
            </trkpt>
            <trkpt lat="49.982448" lon="10.8841184">
                <ele>238.0</ele>
                <time>2020-08-22T12:15:36.000Z</time>
                <name>Trackpoint 3586</name>
            </trkpt>
            <trkpt lat="49.982368" lon="10.8841616">
                <ele>238.0</ele>
                <time>2020-08-22T12:15:38.000Z</time>
                <name>Trackpoint 3587</name>
            </trkpt>
            <trkpt lat="49.9822528" lon="10.8842248">
                <ele>238.0</ele>
                <time>2020-08-22T12:15:41.000Z</time>
                <name>Trackpoint 3588</name>
            </trkpt>
            <trkpt lat="49.9821536" lon="10.8842784">
                <ele>239.0</ele>
                <time>2020-08-22T12:15:44.000Z</time>
                <name>Trackpoint 3589</name>
            </trkpt>
            <trkpt lat="49.9820608" lon="10.8843296">
                <ele>240.0</ele>
                <time>2020-08-22T12:15:47.000Z</time>
                <name>Trackpoint 3590</name>
            </trkpt>
            <trkpt lat="49.9819648" lon="10.8843872">
                <ele>240.0</ele>
                <time>2020-08-22T12:15:50.000Z</time>
                <name>Trackpoint 3591</name>
            </trkpt>
            <trkpt lat="49.9818688" lon="10.8844496">
                <ele>241.0</ele>
                <time>2020-08-22T12:15:53.000Z</time>
                <name>Trackpoint 3592</name>
            </trkpt>
            <trkpt lat="49.981792" lon="10.8845184">
                <ele>241.0</ele>
                <time>2020-08-22T12:15:56.000Z</time>
                <name>Trackpoint 3593</name>
            </trkpt>
            <trkpt lat="49.9817056" lon="10.8845816">
                <ele>241.0</ele>
                <time>2020-08-22T12:15:59.000Z</time>
                <name>Trackpoint 3594</name>
            </trkpt>
            <trkpt lat="49.9816128" lon="10.8846504">
                <ele>240.0</ele>
                <time>2020-08-22T12:16:02.000Z</time>
                <name>Trackpoint 3595</name>
            </trkpt>
            <trkpt lat="49.9815168" lon="10.884724">
                <ele>240.0</ele>
                <time>2020-08-22T12:16:05.000Z</time>
                <name>Trackpoint 3596</name>
            </trkpt>
            <trkpt lat="49.9814272" lon="10.8847968">
                <ele>240.0</ele>
                <time>2020-08-22T12:16:08.000Z</time>
                <name>Trackpoint 3597</name>
            </trkpt>
            <trkpt lat="49.9813504" lon="10.8848552">
                <ele>240.0</ele>
                <time>2020-08-22T12:16:24.000Z</time>
                <name>Trackpoint 3598</name>
            </trkpt>
            <trkpt lat="49.9812768" lon="10.8849224">
                <ele>240.0</ele>
                <time>2020-08-22T12:16:29.000Z</time>
                <name>Trackpoint 3599</name>
            </trkpt>
            <trkpt lat="49.9811872" lon="10.8850024">
                <ele>240.0</ele>
                <time>2020-08-22T12:16:32.000Z</time>
                <name>Trackpoint 3600</name>
            </trkpt>
            <trkpt lat="49.9810912" lon="10.8850832">
                <ele>240.0</ele>
                <time>2020-08-22T12:16:35.000Z</time>
                <name>Trackpoint 3601</name>
            </trkpt>
            <trkpt lat="49.9810176" lon="10.885148">
                <ele>241.0</ele>
                <time>2020-08-22T12:16:37.000Z</time>
                <name>Trackpoint 3602</name>
            </trkpt>
            <trkpt lat="49.9809376" lon="10.8852168">
                <ele>240.0</ele>
                <time>2020-08-22T12:16:39.000Z</time>
                <name>Trackpoint 3603</name>
            </trkpt>
            <trkpt lat="49.9808608" lon="10.8852984">
                <ele>240.0</ele>
                <time>2020-08-22T12:16:41.000Z</time>
                <name>Trackpoint 3604</name>
            </trkpt>
            <trkpt lat="49.9807808" lon="10.88538">
                <ele>240.0</ele>
                <time>2020-08-22T12:16:43.000Z</time>
                <name>Trackpoint 3605</name>
            </trkpt>
            <trkpt lat="49.9806976" lon="10.8854536">
                <ele>240.0</ele>
                <time>2020-08-22T12:16:45.000Z</time>
                <name>Trackpoint 3606</name>
            </trkpt>
            <trkpt lat="49.9806048" lon="10.885524">
                <ele>241.0</ele>
                <time>2020-08-22T12:16:47.000Z</time>
                <name>Trackpoint 3607</name>
            </trkpt>
            <trkpt lat="49.9805184" lon="10.885596">
                <ele>241.0</ele>
                <time>2020-08-22T12:16:49.000Z</time>
                <name>Trackpoint 3608</name>
            </trkpt>
            <trkpt lat="49.9804352" lon="10.8856696">
                <ele>240.0</ele>
                <time>2020-08-22T12:16:51.000Z</time>
                <name>Trackpoint 3609</name>
            </trkpt>
            <trkpt lat="49.9803552" lon="10.8857472">
                <ele>240.0</ele>
                <time>2020-08-22T12:16:53.000Z</time>
                <name>Trackpoint 3610</name>
            </trkpt>
            <trkpt lat="49.9802752" lon="10.885828">
                <ele>240.0</ele>
                <time>2020-08-22T12:16:55.000Z</time>
                <name>Trackpoint 3611</name>
            </trkpt>
            <trkpt lat="49.9802048" lon="10.8859352">
                <ele>240.0</ele>
                <time>2020-08-22T12:16:57.000Z</time>
                <name>Trackpoint 3612</name>
            </trkpt>
            <trkpt lat="49.9801728" lon="10.886068">
                <ele>240.0</ele>
                <time>2020-08-22T12:16:59.000Z</time>
                <name>Trackpoint 3613</name>
            </trkpt>
            <trkpt lat="49.9801216" lon="10.8862168">
                <ele>240.0</ele>
                <time>2020-08-22T12:17:01.000Z</time>
                <name>Trackpoint 3614</name>
            </trkpt>
            <trkpt lat="49.9800416" lon="10.8863232">
                <ele>240.0</ele>
                <time>2020-08-22T12:17:03.000Z</time>
                <name>Trackpoint 3615</name>
            </trkpt>
            <trkpt lat="49.979936" lon="10.88636">
                <ele>240.0</ele>
                <time>2020-08-22T12:17:05.000Z</time>
                <name>Trackpoint 3616</name>
            </trkpt>
            <trkpt lat="49.9798368" lon="10.886372">
                <ele>241.0</ele>
                <time>2020-08-22T12:17:07.000Z</time>
                <name>Trackpoint 3617</name>
            </trkpt>
            <trkpt lat="49.9797408" lon="10.88638">
                <ele>241.0</ele>
                <time>2020-08-22T12:17:09.000Z</time>
                <name>Trackpoint 3618</name>
            </trkpt>
            <trkpt lat="49.9796512" lon="10.8864168">
                <ele>241.0</ele>
                <time>2020-08-22T12:17:11.000Z</time>
                <name>Trackpoint 3619</name>
            </trkpt>
            <trkpt lat="49.9795712" lon="10.88648">
                <ele>241.0</ele>
                <time>2020-08-22T12:17:13.000Z</time>
                <name>Trackpoint 3620</name>
            </trkpt>
            <trkpt lat="49.9794976" lon="10.8865472">
                <ele>241.0</ele>
                <time>2020-08-22T12:17:15.000Z</time>
                <name>Trackpoint 3621</name>
            </trkpt>
            <trkpt lat="49.9793984" lon="10.8866104">
                <ele>241.0</ele>
                <time>2020-08-22T12:17:17.000Z</time>
                <name>Trackpoint 3622</name>
            </trkpt>
            <trkpt lat="49.9793024" lon="10.8866656">
                <ele>241.0</ele>
                <time>2020-08-22T12:17:19.000Z</time>
                <name>Trackpoint 3623</name>
            </trkpt>
            <trkpt lat="49.9792032" lon="10.88672">
                <ele>241.0</ele>
                <time>2020-08-22T12:17:21.000Z</time>
                <name>Trackpoint 3624</name>
            </trkpt>
            <trkpt lat="49.9791072" lon="10.8867904">
                <ele>241.0</ele>
                <time>2020-08-22T12:17:23.000Z</time>
                <name>Trackpoint 3625</name>
            </trkpt>
            <trkpt lat="49.9790144" lon="10.8868864">
                <ele>241.0</ele>
                <time>2020-08-22T12:17:25.000Z</time>
                <name>Trackpoint 3626</name>
            </trkpt>
            <trkpt lat="49.9789376" lon="10.8869816">
                <ele>240.0</ele>
                <time>2020-08-22T12:17:27.000Z</time>
                <name>Trackpoint 3627</name>
            </trkpt>
            <trkpt lat="49.9788928" lon="10.8870848">
                <ele>240.0</ele>
                <time>2020-08-22T12:17:29.000Z</time>
                <name>Trackpoint 3628</name>
            </trkpt>
            <trkpt lat="49.978816" lon="10.8871744">
                <ele>240.0</ele>
                <time>2020-08-22T12:17:31.000Z</time>
                <name>Trackpoint 3629</name>
            </trkpt>
            <trkpt lat="49.9787296" lon="10.8872656">
                <ele>240.0</ele>
                <time>2020-08-22T12:17:33.000Z</time>
                <name>Trackpoint 3630</name>
            </trkpt>
            <trkpt lat="49.9786336" lon="10.8873328">
                <ele>240.0</ele>
                <time>2020-08-22T12:17:35.000Z</time>
                <name>Trackpoint 3631</name>
            </trkpt>
            <trkpt lat="49.9785408" lon="10.887408">
                <ele>240.0</ele>
                <time>2020-08-22T12:17:37.000Z</time>
                <name>Trackpoint 3632</name>
            </trkpt>
            <trkpt lat="49.9784576" lon="10.887488">
                <ele>240.0</ele>
                <time>2020-08-22T12:17:39.000Z</time>
                <name>Trackpoint 3633</name>
            </trkpt>
            <trkpt lat="49.9783744" lon="10.8875784">
                <ele>240.0</ele>
                <time>2020-08-22T12:17:41.000Z</time>
                <name>Trackpoint 3634</name>
            </trkpt>
            <trkpt lat="49.9782976" lon="10.8876552">
                <ele>240.0</ele>
                <time>2020-08-22T12:17:43.000Z</time>
                <name>Trackpoint 3635</name>
            </trkpt>
            <trkpt lat="49.978208" lon="10.8877224">
                <ele>240.0</ele>
                <time>2020-08-22T12:17:45.000Z</time>
                <name>Trackpoint 3636</name>
            </trkpt>
            <trkpt lat="49.9781152" lon="10.8877784">
                <ele>240.0</ele>
                <time>2020-08-22T12:17:47.000Z</time>
                <name>Trackpoint 3637</name>
            </trkpt>
            <trkpt lat="49.9780224" lon="10.8878336">
                <ele>240.0</ele>
                <time>2020-08-22T12:17:49.000Z</time>
                <name>Trackpoint 3638</name>
            </trkpt>
            <trkpt lat="49.9779392" lon="10.8879">
                <ele>240.0</ele>
                <time>2020-08-22T12:17:51.000Z</time>
                <name>Trackpoint 3639</name>
            </trkpt>
            <trkpt lat="49.9778528" lon="10.887968">
                <ele>240.0</ele>
                <time>2020-08-22T12:17:53.000Z</time>
                <name>Trackpoint 3640</name>
            </trkpt>
            <trkpt lat="49.9777664" lon="10.8880304">
                <ele>240.0</ele>
                <time>2020-08-22T12:17:55.000Z</time>
                <name>Trackpoint 3641</name>
            </trkpt>
            <trkpt lat="49.9776928" lon="10.8880928">
                <ele>240.0</ele>
                <time>2020-08-22T12:17:57.000Z</time>
                <name>Trackpoint 3642</name>
            </trkpt>
            <trkpt lat="49.9776192" lon="10.888152">
                <ele>240.0</ele>
                <time>2020-08-22T12:17:59.000Z</time>
                <name>Trackpoint 3643</name>
            </trkpt>
            <trkpt lat="49.9775264" lon="10.8881976">
                <ele>240.0</ele>
                <time>2020-08-22T12:18:02.000Z</time>
                <name>Trackpoint 3644</name>
            </trkpt>
            <trkpt lat="49.9774464" lon="10.8882512">
                <ele>240.0</ele>
                <time>2020-08-22T12:18:05.000Z</time>
                <name>Trackpoint 3645</name>
            </trkpt>
            <trkpt lat="49.9773632" lon="10.8882936">
                <ele>239.0</ele>
                <time>2020-08-22T12:18:08.000Z</time>
                <name>Trackpoint 3646</name>
            </trkpt>
            <trkpt lat="49.9772832" lon="10.8883384">
                <ele>239.0</ele>
                <time>2020-08-22T12:18:11.000Z</time>
                <name>Trackpoint 3647</name>
            </trkpt>
            <trkpt lat="49.9771872" lon="10.8883752">
                <ele>239.0</ele>
                <time>2020-08-22T12:18:14.000Z</time>
                <name>Trackpoint 3648</name>
            </trkpt>
            <trkpt lat="49.977088" lon="10.8884152">
                <ele>239.0</ele>
                <time>2020-08-22T12:18:17.000Z</time>
                <name>Trackpoint 3649</name>
            </trkpt>
            <trkpt lat="49.976992" lon="10.8884472">
                <ele>240.0</ele>
                <time>2020-08-22T12:18:20.000Z</time>
                <name>Trackpoint 3650</name>
            </trkpt>
            <trkpt lat="49.9769056" lon="10.8884832">
                <ele>240.0</ele>
                <time>2020-08-22T12:18:23.000Z</time>
                <name>Trackpoint 3651</name>
            </trkpt>
            <trkpt lat="49.9768192" lon="10.8885208">
                <ele>241.0</ele>
                <time>2020-08-22T12:18:27.000Z</time>
                <name>Trackpoint 3652</name>
            </trkpt>
            <trkpt lat="49.9767264" lon="10.8885648">
                <ele>243.0</ele>
                <time>2020-08-22T12:18:52.000Z</time>
                <name>Trackpoint 3653</name>
            </trkpt>
            <trkpt lat="49.9766272" lon="10.8886072">
                <ele>243.0</ele>
                <time>2020-08-22T12:18:56.000Z</time>
                <name>Trackpoint 3654</name>
            </trkpt>
            <trkpt lat="49.9765312" lon="10.8886544">
                <ele>244.0</ele>
                <time>2020-08-22T12:19:01.000Z</time>
                <name>Trackpoint 3655</name>
            </trkpt>
            <trkpt lat="49.9764064" lon="10.8886496">
                <ele>244.0</ele>
                <time>2020-08-22T12:19:05.000Z</time>
                <name>Trackpoint 3656</name>
            </trkpt>
            <trkpt lat="49.9762944" lon="10.888668">
                <ele>245.0</ele>
                <time>2020-08-22T12:19:08.000Z</time>
                <name>Trackpoint 3657</name>
            </trkpt>
            <trkpt lat="49.9761856" lon="10.888688">
                <ele>245.0</ele>
                <time>2020-08-22T12:19:11.000Z</time>
                <name>Trackpoint 3658</name>
            </trkpt>
            <trkpt lat="49.9760832" lon="10.8887104">
                <ele>245.0</ele>
                <time>2020-08-22T12:19:14.000Z</time>
                <name>Trackpoint 3659</name>
            </trkpt>
            <trkpt lat="49.9759712" lon="10.8887216">
                <ele>245.0</ele>
                <time>2020-08-22T12:19:17.000Z</time>
                <name>Trackpoint 3660</name>
            </trkpt>
            <trkpt lat="49.975856" lon="10.8887184">
                <ele>245.0</ele>
                <time>2020-08-22T12:19:20.000Z</time>
                <name>Trackpoint 3661</name>
            </trkpt>
            <trkpt lat="49.9757504" lon="10.8887184">
                <ele>245.0</ele>
                <time>2020-08-22T12:19:23.000Z</time>
                <name>Trackpoint 3662</name>
            </trkpt>
            <trkpt lat="49.9756288" lon="10.8886944">
                <ele>246.0</ele>
                <time>2020-08-22T12:19:26.000Z</time>
                <name>Trackpoint 3663</name>
            </trkpt>
            <trkpt lat="49.9755392" lon="10.8886808">
                <ele>246.0</ele>
                <time>2020-08-22T12:19:28.000Z</time>
                <name>Trackpoint 3664</name>
            </trkpt>
            <trkpt lat="49.975408" lon="10.8886536">
                <ele>246.0</ele>
                <time>2020-08-22T12:19:31.000Z</time>
                <name>Trackpoint 3665</name>
            </trkpt>
            <trkpt lat="49.97528" lon="10.88862">
                <ele>246.0</ele>
                <time>2020-08-22T12:19:34.000Z</time>
                <name>Trackpoint 3666</name>
            </trkpt>
            <trkpt lat="49.9751968" lon="10.8885848">
                <ele>246.0</ele>
                <time>2020-08-22T12:19:36.000Z</time>
                <name>Trackpoint 3667</name>
            </trkpt>
            <trkpt lat="49.9750752" lon="10.8885496">
                <ele>247.0</ele>
                <time>2020-08-22T12:19:39.000Z</time>
                <name>Trackpoint 3668</name>
            </trkpt>
            <trkpt lat="49.9749568" lon="10.8885168">
                <ele>247.0</ele>
                <time>2020-08-22T12:19:42.000Z</time>
                <name>Trackpoint 3669</name>
            </trkpt>
            <trkpt lat="49.9748736" lon="10.888472">
                <ele>247.0</ele>
                <time>2020-08-22T12:19:44.000Z</time>
                <name>Trackpoint 3670</name>
            </trkpt>
            <trkpt lat="49.9747744" lon="10.8884136">
                <ele>247.0</ele>
                <time>2020-08-22T12:19:47.000Z</time>
                <name>Trackpoint 3671</name>
            </trkpt>
            <trkpt lat="49.974672" lon="10.8883664">
                <ele>248.0</ele>
                <time>2020-08-22T12:19:51.000Z</time>
                <name>Trackpoint 3672</name>
            </trkpt>
            <trkpt lat="49.9745856" lon="10.8883048">
                <ele>248.0</ele>
                <time>2020-08-22T12:19:58.000Z</time>
                <name>Trackpoint 3673</name>
            </trkpt>
            <trkpt lat="49.974544" lon="10.8882176">
                <ele>248.0</ele>
                <time>2020-08-22T12:20:01.000Z</time>
                <name>Trackpoint 3674</name>
            </trkpt>
            <trkpt lat="49.9744224" lon="10.8881552">
                <ele>248.0</ele>
                <time>2020-08-22T12:20:04.000Z</time>
                <name>Trackpoint 3675</name>
            </trkpt>
            <trkpt lat="49.9742912" lon="10.8881064">
                <ele>248.0</ele>
                <time>2020-08-22T12:20:07.000Z</time>
                <name>Trackpoint 3676</name>
            </trkpt>
            <trkpt lat="49.9741984" lon="10.8880768">
                <ele>248.0</ele>
                <time>2020-08-22T12:20:09.000Z</time>
                <name>Trackpoint 3677</name>
            </trkpt>
            <trkpt lat="49.9740928" lon="10.8880384">
                <ele>248.0</ele>
                <time>2020-08-22T12:20:11.000Z</time>
                <name>Trackpoint 3678</name>
            </trkpt>
            <trkpt lat="49.9739776" lon="10.8879784">
                <ele>248.0</ele>
                <time>2020-08-22T12:20:13.000Z</time>
                <name>Trackpoint 3679</name>
            </trkpt>
            <trkpt lat="49.9738528" lon="10.8879136">
                <ele>248.0</ele>
                <time>2020-08-22T12:20:15.000Z</time>
                <name>Trackpoint 3680</name>
            </trkpt>
            <trkpt lat="49.9737312" lon="10.887848">
                <ele>247.0</ele>
                <time>2020-08-22T12:20:17.000Z</time>
                <name>Trackpoint 3681</name>
            </trkpt>
            <trkpt lat="49.9736128" lon="10.8877648">
                <ele>246.0</ele>
                <time>2020-08-22T12:20:19.000Z</time>
                <name>Trackpoint 3682</name>
            </trkpt>
            <trkpt lat="49.973488" lon="10.8876936">
                <ele>245.0</ele>
                <time>2020-08-22T12:20:21.000Z</time>
                <name>Trackpoint 3683</name>
            </trkpt>
            <trkpt lat="49.9733664" lon="10.8876168">
                <ele>244.0</ele>
                <time>2020-08-22T12:20:23.000Z</time>
                <name>Trackpoint 3684</name>
            </trkpt>
            <trkpt lat="49.9732512" lon="10.8875288">
                <ele>243.0</ele>
                <time>2020-08-22T12:20:25.000Z</time>
                <name>Trackpoint 3685</name>
            </trkpt>
            <trkpt lat="49.973136" lon="10.8874368">
                <ele>246.0</ele>
                <time>2020-08-22T12:20:27.000Z</time>
                <name>Trackpoint 3686</name>
            </trkpt>
            <trkpt lat="49.9730176" lon="10.8873616">
                <ele>246.0</ele>
                <time>2020-08-22T12:20:29.000Z</time>
                <name>Trackpoint 3687</name>
            </trkpt>
            <trkpt lat="49.9729088" lon="10.8872832">
                <ele>246.0</ele>
                <time>2020-08-22T12:20:31.000Z</time>
                <name>Trackpoint 3688</name>
            </trkpt>
            <trkpt lat="49.9727968" lon="10.8871872">
                <ele>246.0</ele>
                <time>2020-08-22T12:20:33.000Z</time>
                <name>Trackpoint 3689</name>
            </trkpt>
            <trkpt lat="49.972688" lon="10.8871048">
                <ele>246.0</ele>
                <time>2020-08-22T12:20:35.000Z</time>
                <name>Trackpoint 3690</name>
            </trkpt>
            <trkpt lat="49.9725792" lon="10.88704">
                <ele>247.0</ele>
                <time>2020-08-22T12:20:37.000Z</time>
                <name>Trackpoint 3691</name>
            </trkpt>
            <trkpt lat="49.9724896" lon="10.8869336">
                <ele>247.0</ele>
                <time>2020-08-22T12:20:39.000Z</time>
                <name>Trackpoint 3692</name>
            </trkpt>
            <trkpt lat="49.9724" lon="10.8868128">
                <ele>248.0</ele>
                <time>2020-08-22T12:20:41.000Z</time>
                <name>Trackpoint 3693</name>
            </trkpt>
            <trkpt lat="49.97232" lon="10.8866928">
                <ele>248.0</ele>
                <time>2020-08-22T12:20:43.000Z</time>
                <name>Trackpoint 3694</name>
            </trkpt>
            <trkpt lat="49.9722368" lon="10.8865808">
                <ele>248.0</ele>
                <time>2020-08-22T12:20:45.000Z</time>
                <name>Trackpoint 3695</name>
            </trkpt>
            <trkpt lat="49.9721632" lon="10.8864648">
                <ele>249.0</ele>
                <time>2020-08-22T12:20:47.000Z</time>
                <name>Trackpoint 3696</name>
            </trkpt>
            <trkpt lat="49.9720928" lon="10.8863632">
                <ele>249.0</ele>
                <time>2020-08-22T12:20:49.000Z</time>
                <name>Trackpoint 3697</name>
            </trkpt>
            <trkpt lat="49.9720384" lon="10.8862848">
                <ele>249.0</ele>
                <time>2020-08-22T12:20:51.000Z</time>
                <name>Trackpoint 3698</name>
            </trkpt>
            <trkpt lat="49.971984" lon="10.8862064">
                <ele>249.0</ele>
                <time>2020-08-22T12:21:51.000Z</time>
                <name>Trackpoint 3699</name>
            </trkpt>
            <trkpt lat="49.9719168" lon="10.8861104">
                <ele>249.0</ele>
                <time>2020-08-22T12:21:55.000Z</time>
                <name>Trackpoint 3700</name>
            </trkpt>
            <trkpt lat="49.9718464" lon="10.8860032">
                <ele>249.0</ele>
                <time>2020-08-22T12:21:58.000Z</time>
                <name>Trackpoint 3701</name>
            </trkpt>
            <trkpt lat="49.9717984" lon="10.8859192">
                <ele>249.0</ele>
                <time>2020-08-22T12:22:00.000Z</time>
                <name>Trackpoint 3702</name>
            </trkpt>
            <trkpt lat="49.971744" lon="10.8858336">
                <ele>249.0</ele>
                <time>2020-08-22T12:22:02.000Z</time>
                <name>Trackpoint 3703</name>
            </trkpt>
            <trkpt lat="49.9717216" lon="10.8857216">
                <ele>249.0</ele>
                <time>2020-08-22T12:22:06.000Z</time>
                <name>Trackpoint 3704</name>
            </trkpt>
            <trkpt lat="49.9717536" lon="10.8856232">
                <ele>249.0</ele>
                <time>2020-08-22T12:22:11.000Z</time>
                <name>Trackpoint 3705</name>
            </trkpt>
            <trkpt lat="49.9717824" lon="10.885536">
                <ele>249.0</ele>
                <time>2020-08-22T12:22:51.000Z</time>
                <name>Trackpoint 3706</name>
            </trkpt>
            <trkpt lat="49.9718144" lon="10.8854376">
                <ele>249.0</ele>
                <time>2020-08-22T12:22:54.000Z</time>
                <name>Trackpoint 3707</name>
            </trkpt>
            <trkpt lat="49.9718592" lon="10.8853416">
                <ele>249.0</ele>
                <time>2020-08-22T12:22:57.000Z</time>
                <name>Trackpoint 3708</name>
            </trkpt>
            <trkpt lat="49.9718592" lon="10.8852168">
                <ele>249.0</ele>
                <time>2020-08-22T12:23:00.000Z</time>
                <name>Trackpoint 3709</name>
            </trkpt>
            <trkpt lat="49.9718208" lon="10.88512">
                <ele>249.0</ele>
                <time>2020-08-22T12:23:02.000Z</time>
                <name>Trackpoint 3710</name>
            </trkpt>
            <trkpt lat="49.9717568" lon="10.8850368">
                <ele>249.0</ele>
                <time>2020-08-22T12:23:04.000Z</time>
                <name>Trackpoint 3711</name>
            </trkpt>
            <trkpt lat="49.9716864" lon="10.8849496">
                <ele>249.0</ele>
                <time>2020-08-22T12:23:06.000Z</time>
                <name>Trackpoint 3712</name>
            </trkpt>
            <trkpt lat="49.9716064" lon="10.8848632">
                <ele>249.0</ele>
                <time>2020-08-22T12:23:08.000Z</time>
                <name>Trackpoint 3713</name>
            </trkpt>
            <trkpt lat="49.9715232" lon="10.8847848">
                <ele>249.0</ele>
                <time>2020-08-22T12:23:10.000Z</time>
                <name>Trackpoint 3714</name>
            </trkpt>
            <trkpt lat="49.97144" lon="10.8847064">
                <ele>249.0</ele>
                <time>2020-08-22T12:23:12.000Z</time>
                <name>Trackpoint 3715</name>
            </trkpt>
            <trkpt lat="49.971376" lon="10.884612">
                <ele>249.0</ele>
                <time>2020-08-22T12:23:14.000Z</time>
                <name>Trackpoint 3716</name>
            </trkpt>
            <trkpt lat="49.9713248" lon="10.8845184">
                <ele>249.0</ele>
                <time>2020-08-22T12:23:32.000Z</time>
                <name>Trackpoint 3717</name>
            </trkpt>
            <trkpt lat="49.9712448" lon="10.8844368">
                <ele>249.0</ele>
                <time>2020-08-22T12:23:35.000Z</time>
                <name>Trackpoint 3718</name>
            </trkpt>
            <trkpt lat="49.9711584" lon="10.884332">
                <ele>249.0</ele>
                <time>2020-08-22T12:23:38.000Z</time>
                <name>Trackpoint 3719</name>
            </trkpt>
            <trkpt lat="49.9711424" lon="10.8842152">
                <ele>249.0</ele>
                <time>2020-08-22T12:23:40.000Z</time>
                <name>Trackpoint 3720</name>
            </trkpt>
            <trkpt lat="49.971168" lon="10.8840752">
                <ele>249.0</ele>
                <time>2020-08-22T12:23:42.000Z</time>
                <name>Trackpoint 3721</name>
            </trkpt>
            <trkpt lat="49.9712" lon="10.8839416">
                <ele>249.0</ele>
                <time>2020-08-22T12:23:44.000Z</time>
                <name>Trackpoint 3722</name>
            </trkpt>
            <trkpt lat="49.9712288" lon="10.8838064">
                <ele>249.0</ele>
                <time>2020-08-22T12:23:46.000Z</time>
                <name>Trackpoint 3723</name>
            </trkpt>
            <trkpt lat="49.9712608" lon="10.8836672">
                <ele>249.0</ele>
                <time>2020-08-22T12:23:48.000Z</time>
                <name>Trackpoint 3724</name>
            </trkpt>
            <trkpt lat="49.9712864" lon="10.8835248">
                <ele>249.0</ele>
                <time>2020-08-22T12:23:50.000Z</time>
                <name>Trackpoint 3725</name>
            </trkpt>
            <trkpt lat="49.9712992" lon="10.8833768">
                <ele>249.0</ele>
                <time>2020-08-22T12:23:52.000Z</time>
                <name>Trackpoint 3726</name>
            </trkpt>
            <trkpt lat="49.971248" lon="10.8832504">
                <ele>249.0</ele>
                <time>2020-08-22T12:23:54.000Z</time>
                <name>Trackpoint 3727</name>
            </trkpt>
            <trkpt lat="49.9711424" lon="10.88318">
                <ele>248.0</ele>
                <time>2020-08-22T12:23:57.000Z</time>
                <name>Trackpoint 3728</name>
            </trkpt>
            <trkpt lat="49.9710144" lon="10.8831504">
                <ele>248.0</ele>
                <time>2020-08-22T12:24:00.000Z</time>
                <name>Trackpoint 3729</name>
            </trkpt>
            <trkpt lat="49.970928" lon="10.8831152">
                <ele>248.0</ele>
                <time>2020-08-22T12:24:02.000Z</time>
                <name>Trackpoint 3730</name>
            </trkpt>
            <trkpt lat="49.9708352" lon="10.883068">
                <ele>248.0</ele>
                <time>2020-08-22T12:24:04.000Z</time>
                <name>Trackpoint 3731</name>
            </trkpt>
            <trkpt lat="49.970752" lon="10.8830248">
                <ele>248.0</ele>
                <time>2020-08-22T12:24:06.000Z</time>
                <name>Trackpoint 3732</name>
            </trkpt>
            <trkpt lat="49.9706656" lon="10.8829872">
                <ele>248.0</ele>
                <time>2020-08-22T12:24:08.000Z</time>
                <name>Trackpoint 3733</name>
            </trkpt>
            <trkpt lat="49.970576" lon="10.8829416">
                <ele>248.0</ele>
                <time>2020-08-22T12:24:10.000Z</time>
                <name>Trackpoint 3734</name>
            </trkpt>
            <trkpt lat="49.9704928" lon="10.8829048">
                <ele>248.0</ele>
                <time>2020-08-22T12:24:12.000Z</time>
                <name>Trackpoint 3735</name>
            </trkpt>
            <trkpt lat="49.9703744" lon="10.8828624">
                <ele>248.0</ele>
                <time>2020-08-22T12:24:15.000Z</time>
                <name>Trackpoint 3736</name>
            </trkpt>
            <trkpt lat="49.970256" lon="10.882816">
                <ele>248.0</ele>
                <time>2020-08-22T12:24:18.000Z</time>
                <name>Trackpoint 3737</name>
            </trkpt>
            <trkpt lat="49.9701376" lon="10.8827912">
                <ele>248.0</ele>
                <time>2020-08-22T12:24:21.000Z</time>
                <name>Trackpoint 3738</name>
            </trkpt>
            <trkpt lat="49.9700128" lon="10.8828">
                <ele>247.0</ele>
                <time>2020-08-22T12:24:24.000Z</time>
                <name>Trackpoint 3739</name>
            </trkpt>
            <trkpt lat="49.9698912" lon="10.8828384">
                <ele>247.0</ele>
                <time>2020-08-22T12:24:27.000Z</time>
                <name>Trackpoint 3740</name>
            </trkpt>
            <trkpt lat="49.9698112" lon="10.8828888">
                <ele>247.0</ele>
                <time>2020-08-22T12:24:29.000Z</time>
                <name>Trackpoint 3741</name>
            </trkpt>
            <trkpt lat="49.9697408" lon="10.8829568">
                <ele>247.0</ele>
                <time>2020-08-22T12:24:31.000Z</time>
                <name>Trackpoint 3742</name>
            </trkpt>
            <trkpt lat="49.9696736" lon="10.883028">
                <ele>247.0</ele>
                <time>2020-08-22T12:24:33.000Z</time>
                <name>Trackpoint 3743</name>
            </trkpt>
            <trkpt lat="49.9696096" lon="10.8831016">
                <ele>247.0</ele>
                <time>2020-08-22T12:24:35.000Z</time>
                <name>Trackpoint 3744</name>
            </trkpt>
            <trkpt lat="49.9695328" lon="10.8831504">
                <ele>247.0</ele>
                <time>2020-08-22T12:24:37.000Z</time>
                <name>Trackpoint 3745</name>
            </trkpt>
            <trkpt lat="49.969424" lon="10.8832352">
                <ele>247.0</ele>
                <time>2020-08-22T12:24:40.000Z</time>
                <name>Trackpoint 3746</name>
            </trkpt>
            <trkpt lat="49.969312" lon="10.8832816">
                <ele>247.0</ele>
                <time>2020-08-22T12:24:43.000Z</time>
                <name>Trackpoint 3747</name>
            </trkpt>
            <trkpt lat="49.9692224" lon="10.8832904">
                <ele>247.0</ele>
                <time>2020-08-22T12:24:45.000Z</time>
                <name>Trackpoint 3748</name>
            </trkpt>
            <trkpt lat="49.9691232" lon="10.8833288">
                <ele>247.0</ele>
                <time>2020-08-22T12:24:48.000Z</time>
                <name>Trackpoint 3749</name>
            </trkpt>
            <trkpt lat="49.9690048" lon="10.8833512">
                <ele>247.0</ele>
                <time>2020-08-22T12:24:51.000Z</time>
                <name>Trackpoint 3750</name>
            </trkpt>
            <trkpt lat="49.968896" lon="10.8833648">
                <ele>247.0</ele>
                <time>2020-08-22T12:24:54.000Z</time>
                <name>Trackpoint 3751</name>
            </trkpt>
            <trkpt lat="49.9687744" lon="10.8834064">
                <ele>247.0</ele>
                <time>2020-08-22T12:24:57.000Z</time>
                <name>Trackpoint 3752</name>
            </trkpt>
            <trkpt lat="49.9686784" lon="10.8834152">
                <ele>247.0</ele>
                <time>2020-08-22T12:24:59.000Z</time>
                <name>Trackpoint 3753</name>
            </trkpt>
            <trkpt lat="49.9685568" lon="10.8834152">
                <ele>247.0</ele>
                <time>2020-08-22T12:25:01.000Z</time>
                <name>Trackpoint 3754</name>
            </trkpt>
            <trkpt lat="49.9684576" lon="10.8834432">
                <ele>247.0</ele>
                <time>2020-08-22T12:25:03.000Z</time>
                <name>Trackpoint 3755</name>
            </trkpt>
            <trkpt lat="49.968352" lon="10.8834752">
                <ele>247.0</ele>
                <time>2020-08-22T12:25:05.000Z</time>
                <name>Trackpoint 3756</name>
            </trkpt>
            <trkpt lat="49.9682496" lon="10.8835048">
                <ele>247.0</ele>
                <time>2020-08-22T12:25:07.000Z</time>
                <name>Trackpoint 3757</name>
            </trkpt>
            <trkpt lat="49.96816" lon="10.8835448">
                <ele>247.0</ele>
                <time>2020-08-22T12:25:09.000Z</time>
                <name>Trackpoint 3758</name>
            </trkpt>
            <trkpt lat="49.968064" lon="10.8835696">
                <ele>247.0</ele>
                <time>2020-08-22T12:25:11.000Z</time>
                <name>Trackpoint 3759</name>
            </trkpt>
            <trkpt lat="49.9679648" lon="10.8836">
                <ele>247.0</ele>
                <time>2020-08-22T12:25:13.000Z</time>
                <name>Trackpoint 3760</name>
            </trkpt>
            <trkpt lat="49.9678656" lon="10.8836096">
                <ele>247.0</ele>
                <time>2020-08-22T12:25:15.000Z</time>
                <name>Trackpoint 3761</name>
            </trkpt>
            <trkpt lat="49.9677504" lon="10.883612">
                <ele>247.0</ele>
                <time>2020-08-22T12:25:17.000Z</time>
                <name>Trackpoint 3762</name>
            </trkpt>
            <trkpt lat="49.9676288" lon="10.8836144">
                <ele>247.0</ele>
                <time>2020-08-22T12:25:19.000Z</time>
                <name>Trackpoint 3763</name>
            </trkpt>
            <trkpt lat="49.9674944" lon="10.8836144">
                <ele>246.0</ele>
                <time>2020-08-22T12:25:21.000Z</time>
                <name>Trackpoint 3764</name>
            </trkpt>
            <trkpt lat="49.96736" lon="10.8836096">
                <ele>246.0</ele>
                <time>2020-08-22T12:25:23.000Z</time>
                <name>Trackpoint 3765</name>
            </trkpt>
            <trkpt lat="49.967232" lon="10.8835952">
                <ele>246.0</ele>
                <time>2020-08-22T12:25:25.000Z</time>
                <name>Trackpoint 3766</name>
            </trkpt>
            <trkpt lat="49.9671008" lon="10.8835832">
                <ele>247.0</ele>
                <time>2020-08-22T12:25:27.000Z</time>
                <name>Trackpoint 3767</name>
            </trkpt>
            <trkpt lat="49.9669824" lon="10.88354">
                <ele>247.0</ele>
                <time>2020-08-22T12:25:29.000Z</time>
                <name>Trackpoint 3768</name>
            </trkpt>
            <trkpt lat="49.9668608" lon="10.8835064">
                <ele>247.0</ele>
                <time>2020-08-22T12:25:31.000Z</time>
                <name>Trackpoint 3769</name>
            </trkpt>
            <trkpt lat="49.966752" lon="10.8834632">
                <ele>247.0</ele>
                <time>2020-08-22T12:25:33.000Z</time>
                <name>Trackpoint 3770</name>
            </trkpt>
            <trkpt lat="49.9666496" lon="10.8834136">
                <ele>247.0</ele>
                <time>2020-08-22T12:25:35.000Z</time>
                <name>Trackpoint 3771</name>
            </trkpt>
            <trkpt lat="49.9665408" lon="10.8833784">
                <ele>247.0</ele>
                <time>2020-08-22T12:25:37.000Z</time>
                <name>Trackpoint 3772</name>
            </trkpt>
            <trkpt lat="49.9664224" lon="10.8833504">
                <ele>247.0</ele>
                <time>2020-08-22T12:25:39.000Z</time>
                <name>Trackpoint 3773</name>
            </trkpt>
            <trkpt lat="49.9663136" lon="10.8833168">
                <ele>247.0</ele>
                <time>2020-08-22T12:25:41.000Z</time>
                <name>Trackpoint 3774</name>
            </trkpt>
            <trkpt lat="49.9662016" lon="10.8832928">
                <ele>247.0</ele>
                <time>2020-08-22T12:25:43.000Z</time>
                <name>Trackpoint 3775</name>
            </trkpt>
            <trkpt lat="49.9660832" lon="10.8832432">
                <ele>247.0</ele>
                <time>2020-08-22T12:25:45.000Z</time>
                <name>Trackpoint 3776</name>
            </trkpt>
            <trkpt lat="49.9659776" lon="10.8831728">
                <ele>247.0</ele>
                <time>2020-08-22T12:25:47.000Z</time>
                <name>Trackpoint 3777</name>
            </trkpt>
            <trkpt lat="49.9658688" lon="10.883112">
                <ele>247.0</ele>
                <time>2020-08-22T12:25:49.000Z</time>
                <name>Trackpoint 3778</name>
            </trkpt>
            <trkpt lat="49.965776" lon="10.8830232">
                <ele>247.0</ele>
                <time>2020-08-22T12:25:51.000Z</time>
                <name>Trackpoint 3779</name>
            </trkpt>
            <trkpt lat="49.9656864" lon="10.882908">
                <ele>246.0</ele>
                <time>2020-08-22T12:25:53.000Z</time>
                <name>Trackpoint 3780</name>
            </trkpt>
            <trkpt lat="49.9656064" lon="10.88278">
                <ele>246.0</ele>
                <time>2020-08-22T12:25:55.000Z</time>
                <name>Trackpoint 3781</name>
            </trkpt>
            <trkpt lat="49.96552" lon="10.8826784">
                <ele>246.0</ele>
                <time>2020-08-22T12:25:57.000Z</time>
                <name>Trackpoint 3782</name>
            </trkpt>
            <trkpt lat="49.9654272" lon="10.882584">
                <ele>246.0</ele>
                <time>2020-08-22T12:25:59.000Z</time>
                <name>Trackpoint 3783</name>
            </trkpt>
            <trkpt lat="49.965328" lon="10.88248">
                <ele>246.0</ele>
                <time>2020-08-22T12:26:01.000Z</time>
                <name>Trackpoint 3784</name>
            </trkpt>
            <trkpt lat="49.9652352" lon="10.882372">
                <ele>246.0</ele>
                <time>2020-08-22T12:26:03.000Z</time>
                <name>Trackpoint 3785</name>
            </trkpt>
            <trkpt lat="49.9651456" lon="10.882272">
                <ele>246.0</ele>
                <time>2020-08-22T12:26:05.000Z</time>
                <name>Trackpoint 3786</name>
            </trkpt>
            <trkpt lat="49.9650464" lon="10.8821848">
                <ele>246.0</ele>
                <time>2020-08-22T12:26:07.000Z</time>
                <name>Trackpoint 3787</name>
            </trkpt>
            <trkpt lat="49.9649472" lon="10.8821048">
                <ele>246.0</ele>
                <time>2020-08-22T12:26:09.000Z</time>
                <name>Trackpoint 3788</name>
            </trkpt>
            <trkpt lat="49.9648448" lon="10.8820288">
                <ele>246.0</ele>
                <time>2020-08-22T12:26:11.000Z</time>
                <name>Trackpoint 3789</name>
            </trkpt>
            <trkpt lat="49.9647456" lon="10.881964">
                <ele>245.0</ele>
                <time>2020-08-22T12:26:13.000Z</time>
                <name>Trackpoint 3790</name>
            </trkpt>
            <trkpt lat="49.9646464" lon="10.8819088">
                <ele>245.0</ele>
                <time>2020-08-22T12:26:15.000Z</time>
                <name>Trackpoint 3791</name>
            </trkpt>
            <trkpt lat="49.9645504" lon="10.8818432">
                <ele>245.0</ele>
                <time>2020-08-22T12:26:17.000Z</time>
                <name>Trackpoint 3792</name>
            </trkpt>
            <trkpt lat="49.9644672" lon="10.8817616">
                <ele>244.0</ele>
                <time>2020-08-22T12:26:19.000Z</time>
                <name>Trackpoint 3793</name>
            </trkpt>
            <trkpt lat="49.9643776" lon="10.8816944">
                <ele>245.0</ele>
                <time>2020-08-22T12:26:21.000Z</time>
                <name>Trackpoint 3794</name>
            </trkpt>
            <trkpt lat="49.9642976" lon="10.881628">
                <ele>244.0</ele>
                <time>2020-08-22T12:26:23.000Z</time>
                <name>Trackpoint 3795</name>
            </trkpt>
            <trkpt lat="49.9642208" lon="10.8815472">
                <ele>244.0</ele>
                <time>2020-08-22T12:26:25.000Z</time>
                <name>Trackpoint 3796</name>
            </trkpt>
            <trkpt lat="49.9641344" lon="10.8814832">
                <ele>244.0</ele>
                <time>2020-08-22T12:26:27.000Z</time>
                <name>Trackpoint 3797</name>
            </trkpt>
            <trkpt lat="49.9640384" lon="10.8814448">
                <ele>244.0</ele>
                <time>2020-08-22T12:26:29.000Z</time>
                <name>Trackpoint 3798</name>
            </trkpt>
            <trkpt lat="49.9639008" lon="10.88144">
                <ele>244.0</ele>
                <time>2020-08-22T12:26:32.000Z</time>
                <name>Trackpoint 3799</name>
            </trkpt>
            <trkpt lat="49.963776" lon="10.881416">
                <ele>244.0</ele>
                <time>2020-08-22T12:26:35.000Z</time>
                <name>Trackpoint 3800</name>
            </trkpt>
            <trkpt lat="49.9637024" lon="10.8813416">
                <ele>244.0</ele>
                <time>2020-08-22T12:26:37.000Z</time>
                <name>Trackpoint 3801</name>
            </trkpt>
            <trkpt lat="49.9636448" lon="10.8812248">
                <ele>244.0</ele>
                <time>2020-08-22T12:26:39.000Z</time>
                <name>Trackpoint 3802</name>
            </trkpt>
            <trkpt lat="49.9636064" lon="10.8811064">
                <ele>244.0</ele>
                <time>2020-08-22T12:26:42.000Z</time>
                <name>Trackpoint 3803</name>
            </trkpt>
            <trkpt lat="49.9636256" lon="10.880932">
                <ele>244.0</ele>
                <time>2020-08-22T12:26:44.000Z</time>
                <name>Trackpoint 3804</name>
            </trkpt>
            <trkpt lat="49.9635808" lon="10.8807752">
                <ele>244.0</ele>
                <time>2020-08-22T12:26:46.000Z</time>
                <name>Trackpoint 3805</name>
            </trkpt>
            <trkpt lat="49.9634624" lon="10.8806896">
                <ele>244.0</ele>
                <time>2020-08-22T12:26:48.000Z</time>
                <name>Trackpoint 3806</name>
            </trkpt>
            <trkpt lat="49.9633984" lon="10.8805784">
                <ele>242.0</ele>
                <time>2020-08-22T12:26:50.000Z</time>
                <name>Trackpoint 3807</name>
            </trkpt>
            <trkpt lat="49.9632992" lon="10.88052">
                <ele>242.0</ele>
                <time>2020-08-22T12:26:52.000Z</time>
                <name>Trackpoint 3808</name>
            </trkpt>
            <trkpt lat="49.963216" lon="10.8804416">
                <ele>242.0</ele>
                <time>2020-08-22T12:26:54.000Z</time>
                <name>Trackpoint 3809</name>
            </trkpt>
            <trkpt lat="49.9631232" lon="10.8803784">
                <ele>242.0</ele>
                <time>2020-08-22T12:26:56.000Z</time>
                <name>Trackpoint 3810</name>
            </trkpt>
            <trkpt lat="49.9630368" lon="10.8802968">
                <ele>242.0</ele>
                <time>2020-08-22T12:26:58.000Z</time>
                <name>Trackpoint 3811</name>
            </trkpt>
            <trkpt lat="49.9629568" lon="10.8802144">
                <ele>242.0</ele>
                <time>2020-08-22T12:27:00.000Z</time>
                <name>Trackpoint 3812</name>
            </trkpt>
            <trkpt lat="49.9628768" lon="10.8801216">
                <ele>242.0</ele>
                <time>2020-08-22T12:27:02.000Z</time>
                <name>Trackpoint 3813</name>
            </trkpt>
            <trkpt lat="49.9627968" lon="10.8800288">
                <ele>242.0</ele>
                <time>2020-08-22T12:27:04.000Z</time>
                <name>Trackpoint 3814</name>
            </trkpt>
            <trkpt lat="49.9627232" lon="10.8799448">
                <ele>242.0</ele>
                <time>2020-08-22T12:27:06.000Z</time>
                <name>Trackpoint 3815</name>
            </trkpt>
            <trkpt lat="49.9626592" lon="10.8798616">
                <ele>242.0</ele>
                <time>2020-08-22T12:27:08.000Z</time>
                <name>Trackpoint 3816</name>
            </trkpt>
            <trkpt lat="49.962592" lon="10.8797752">
                <ele>242.0</ele>
                <time>2020-08-22T12:27:10.000Z</time>
                <name>Trackpoint 3817</name>
            </trkpt>
            <trkpt lat="49.9625248" lon="10.8796968">
                <ele>242.0</ele>
                <time>2020-08-22T12:27:12.000Z</time>
                <name>Trackpoint 3818</name>
            </trkpt>
            <trkpt lat="49.9624608" lon="10.8796232">
                <ele>242.0</ele>
                <time>2020-08-22T12:27:14.000Z</time>
                <name>Trackpoint 3819</name>
            </trkpt>
            <trkpt lat="49.9623936" lon="10.8795608">
                <ele>242.0</ele>
                <time>2020-08-22T12:27:16.000Z</time>
                <name>Trackpoint 3820</name>
            </trkpt>
            <trkpt lat="49.9623264" lon="10.879488">
                <ele>242.0</ele>
                <time>2020-08-22T12:27:18.000Z</time>
                <name>Trackpoint 3821</name>
            </trkpt>
            <trkpt lat="49.962256" lon="10.8794232">
                <ele>242.0</ele>
                <time>2020-08-22T12:27:20.000Z</time>
                <name>Trackpoint 3822</name>
            </trkpt>
            <trkpt lat="49.9621952" lon="10.8793552">
                <ele>241.0</ele>
                <time>2020-08-22T12:27:22.000Z</time>
                <name>Trackpoint 3823</name>
            </trkpt>
            <trkpt lat="49.9621152" lon="10.8792696">
                <ele>241.0</ele>
                <time>2020-08-22T12:27:25.000Z</time>
                <name>Trackpoint 3824</name>
            </trkpt>
            <trkpt lat="49.9620512" lon="10.8791952">
                <ele>241.0</ele>
                <time>2020-08-22T12:27:28.000Z</time>
                <name>Trackpoint 3825</name>
            </trkpt>
            <trkpt lat="49.9619776" lon="10.8791064">
                <ele>241.0</ele>
                <time>2020-08-22T12:27:31.000Z</time>
                <name>Trackpoint 3826</name>
            </trkpt>
            <trkpt lat="49.9618944" lon="10.8790056">
                <ele>241.0</ele>
                <time>2020-08-22T12:27:34.000Z</time>
                <name>Trackpoint 3827</name>
            </trkpt>
            <trkpt lat="49.96184" lon="10.878928">
                <ele>241.0</ele>
                <time>2020-08-22T12:27:36.000Z</time>
                <name>Trackpoint 3828</name>
            </trkpt>
            <trkpt lat="49.9617536" lon="10.8788272">
                <ele>241.0</ele>
                <time>2020-08-22T12:27:39.000Z</time>
                <name>Trackpoint 3829</name>
            </trkpt>
            <trkpt lat="49.961696" lon="10.8787544">
                <ele>241.0</ele>
                <time>2020-08-22T12:27:41.000Z</time>
                <name>Trackpoint 3830</name>
            </trkpt>
            <trkpt lat="49.9616352" lon="10.8786872">
                <ele>241.0</ele>
                <time>2020-08-22T12:27:43.000Z</time>
                <name>Trackpoint 3831</name>
            </trkpt>
            <trkpt lat="49.9615744" lon="10.878616">
                <ele>241.0</ele>
                <time>2020-08-22T12:27:45.000Z</time>
                <name>Trackpoint 3832</name>
            </trkpt>
            <trkpt lat="49.9615168" lon="10.8785416">
                <ele>241.0</ele>
                <time>2020-08-22T12:27:47.000Z</time>
                <name>Trackpoint 3833</name>
            </trkpt>
            <trkpt lat="49.9614272" lon="10.8784536">
                <ele>241.0</ele>
                <time>2020-08-22T12:27:50.000Z</time>
                <name>Trackpoint 3834</name>
            </trkpt>
            <trkpt lat="49.9613408" lon="10.8783552">
                <ele>241.0</ele>
                <time>2020-08-22T12:27:53.000Z</time>
                <name>Trackpoint 3835</name>
            </trkpt>
            <trkpt lat="49.9612544" lon="10.8782552">
                <ele>241.0</ele>
                <time>2020-08-22T12:27:56.000Z</time>
                <name>Trackpoint 3836</name>
            </trkpt>
            <trkpt lat="49.9611968" lon="10.8781816">
                <ele>241.0</ele>
                <time>2020-08-22T12:27:58.000Z</time>
                <name>Trackpoint 3837</name>
            </trkpt>
            <trkpt lat="49.9611424" lon="10.8781096">
                <ele>241.0</ele>
                <time>2020-08-22T12:28:00.000Z</time>
                <name>Trackpoint 3838</name>
            </trkpt>
            <trkpt lat="49.9610624" lon="10.8780016">
                <ele>241.0</ele>
                <time>2020-08-22T12:28:03.000Z</time>
                <name>Trackpoint 3839</name>
            </trkpt>
            <trkpt lat="49.9610112" lon="10.8779232">
                <ele>241.0</ele>
                <time>2020-08-22T12:28:05.000Z</time>
                <name>Trackpoint 3840</name>
            </trkpt>
            <trkpt lat="49.9609536" lon="10.8778384">
                <ele>241.0</ele>
                <time>2020-08-22T12:28:07.000Z</time>
                <name>Trackpoint 3841</name>
            </trkpt>
            <trkpt lat="49.9608928" lon="10.8777568">
                <ele>241.0</ele>
                <time>2020-08-22T12:28:09.000Z</time>
                <name>Trackpoint 3842</name>
            </trkpt>
            <trkpt lat="49.9608256" lon="10.8776768">
                <ele>241.0</ele>
                <time>2020-08-22T12:28:11.000Z</time>
                <name>Trackpoint 3843</name>
            </trkpt>
            <trkpt lat="49.9607712" lon="10.8775816">
                <ele>241.0</ele>
                <time>2020-08-22T12:28:13.000Z</time>
                <name>Trackpoint 3844</name>
            </trkpt>
            <trkpt lat="49.960704" lon="10.8774856">
                <ele>241.0</ele>
                <time>2020-08-22T12:28:15.000Z</time>
                <name>Trackpoint 3845</name>
            </trkpt>
            <trkpt lat="49.9606432" lon="10.877392">
                <ele>241.0</ele>
                <time>2020-08-22T12:28:17.000Z</time>
                <name>Trackpoint 3846</name>
            </trkpt>
            <trkpt lat="49.9605824" lon="10.8772944">
                <ele>241.0</ele>
                <time>2020-08-22T12:28:19.000Z</time>
                <name>Trackpoint 3847</name>
            </trkpt>
            <trkpt lat="49.9605216" lon="10.8772048">
                <ele>241.0</ele>
                <time>2020-08-22T12:28:21.000Z</time>
                <name>Trackpoint 3848</name>
            </trkpt>
            <trkpt lat="49.9604576" lon="10.8771216">
                <ele>241.0</ele>
                <time>2020-08-22T12:28:23.000Z</time>
                <name>Trackpoint 3849</name>
            </trkpt>
            <trkpt lat="49.9603968" lon="10.8770312">
                <ele>240.0</ele>
                <time>2020-08-22T12:28:25.000Z</time>
                <name>Trackpoint 3850</name>
            </trkpt>
            <trkpt lat="49.9603264" lon="10.8769448">
                <ele>241.0</ele>
                <time>2020-08-22T12:28:27.000Z</time>
                <name>Trackpoint 3851</name>
            </trkpt>
            <trkpt lat="49.9602592" lon="10.8768584">
                <ele>241.0</ele>
                <time>2020-08-22T12:28:29.000Z</time>
                <name>Trackpoint 3852</name>
            </trkpt>
            <trkpt lat="49.9601888" lon="10.8767744">
                <ele>241.0</ele>
                <time>2020-08-22T12:28:31.000Z</time>
                <name>Trackpoint 3853</name>
            </trkpt>
            <trkpt lat="49.9601216" lon="10.8766936">
                <ele>241.0</ele>
                <time>2020-08-22T12:28:33.000Z</time>
                <name>Trackpoint 3854</name>
            </trkpt>
            <trkpt lat="49.9600576" lon="10.8766168">
                <ele>241.0</ele>
                <time>2020-08-22T12:28:35.000Z</time>
                <name>Trackpoint 3855</name>
            </trkpt>
            <trkpt lat="49.9600032" lon="10.876532">
                <ele>241.0</ele>
                <time>2020-08-22T12:28:37.000Z</time>
                <name>Trackpoint 3856</name>
            </trkpt>
            <trkpt lat="49.9599488" lon="10.8764464">
                <ele>241.0</ele>
                <time>2020-08-22T12:28:39.000Z</time>
                <name>Trackpoint 3857</name>
            </trkpt>
            <trkpt lat="49.959904" lon="10.8763648">
                <ele>241.0</ele>
                <time>2020-08-22T12:28:41.000Z</time>
                <name>Trackpoint 3858</name>
            </trkpt>
            <trkpt lat="49.9598656" lon="10.87628">
                <ele>241.0</ele>
                <time>2020-08-22T12:28:43.000Z</time>
                <name>Trackpoint 3859</name>
            </trkpt>
            <trkpt lat="49.9598336" lon="10.8761952">
                <ele>241.0</ele>
                <time>2020-08-22T12:28:45.000Z</time>
                <name>Trackpoint 3860</name>
            </trkpt>
            <trkpt lat="49.9597984" lon="10.8760904">
                <ele>241.0</ele>
                <time>2020-08-22T12:28:48.000Z</time>
                <name>Trackpoint 3861</name>
            </trkpt>
            <trkpt lat="49.9597312" lon="10.8760096">
                <ele>241.0</ele>
                <time>2020-08-22T12:29:29.000Z</time>
                <name>Trackpoint 3862</name>
            </trkpt>
            <trkpt lat="49.9596352" lon="10.875968">
                <ele>241.0</ele>
                <time>2020-08-22T12:29:33.000Z</time>
                <name>Trackpoint 3863</name>
            </trkpt>
            <trkpt lat="49.959536" lon="10.875992">
                <ele>241.0</ele>
                <time>2020-08-22T12:29:36.000Z</time>
                <name>Trackpoint 3864</name>
            </trkpt>
            <trkpt lat="49.9594432" lon="10.8759384">
                <ele>241.0</ele>
                <time>2020-08-22T12:29:39.000Z</time>
                <name>Trackpoint 3865</name>
            </trkpt>
            <trkpt lat="49.9594016" lon="10.87584">
                <ele>241.0</ele>
                <time>2020-08-22T12:29:41.000Z</time>
                <name>Trackpoint 3866</name>
            </trkpt>
            <trkpt lat="49.9593888" lon="10.8757264">
                <ele>241.0</ele>
                <time>2020-08-22T12:29:43.000Z</time>
                <name>Trackpoint 3867</name>
            </trkpt>
            <trkpt lat="49.9593728" lon="10.8756">
                <ele>241.0</ele>
                <time>2020-08-22T12:29:45.000Z</time>
                <name>Trackpoint 3868</name>
            </trkpt>
            <trkpt lat="49.9593536" lon="10.8754632">
                <ele>241.0</ele>
                <time>2020-08-22T12:29:47.000Z</time>
                <name>Trackpoint 3869</name>
            </trkpt>
            <trkpt lat="49.9593376" lon="10.8753208">
                <ele>241.0</ele>
                <time>2020-08-22T12:29:49.000Z</time>
                <name>Trackpoint 3870</name>
            </trkpt>
            <trkpt lat="49.9593152" lon="10.8751768">
                <ele>241.0</ele>
                <time>2020-08-22T12:29:51.000Z</time>
                <name>Trackpoint 3871</name>
            </trkpt>
            <trkpt lat="49.9592864" lon="10.8750312">
                <ele>242.0</ele>
                <time>2020-08-22T12:29:53.000Z</time>
                <name>Trackpoint 3872</name>
            </trkpt>
            <trkpt lat="49.9592672" lon="10.8748864">
                <ele>242.0</ele>
                <time>2020-08-22T12:29:55.000Z</time>
                <name>Trackpoint 3873</name>
            </trkpt>
            <trkpt lat="49.9592544" lon="10.87474">
                <ele>242.0</ele>
                <time>2020-08-22T12:29:57.000Z</time>
                <name>Trackpoint 3874</name>
            </trkpt>
            <trkpt lat="49.9592384" lon="10.874588">
                <ele>242.0</ele>
                <time>2020-08-22T12:29:59.000Z</time>
                <name>Trackpoint 3875</name>
            </trkpt>
            <trkpt lat="49.9592224" lon="10.874432">
                <ele>242.0</ele>
                <time>2020-08-22T12:30:01.000Z</time>
                <name>Trackpoint 3876</name>
            </trkpt>
            <trkpt lat="49.9592032" lon="10.8742648">
                <ele>241.0</ele>
                <time>2020-08-22T12:30:03.000Z</time>
                <name>Trackpoint 3877</name>
            </trkpt>
            <trkpt lat="49.9591744" lon="10.8740984">
                <ele>241.0</ele>
                <time>2020-08-22T12:30:05.000Z</time>
                <name>Trackpoint 3878</name>
            </trkpt>
            <trkpt lat="49.9591488" lon="10.8739232">
                <ele>241.0</ele>
                <time>2020-08-22T12:30:07.000Z</time>
                <name>Trackpoint 3879</name>
            </trkpt>
            <trkpt lat="49.9591296" lon="10.8737496">
                <ele>241.0</ele>
                <time>2020-08-22T12:30:09.000Z</time>
                <name>Trackpoint 3880</name>
            </trkpt>
            <trkpt lat="49.959104" lon="10.8735816">
                <ele>241.0</ele>
                <time>2020-08-22T12:30:11.000Z</time>
                <name>Trackpoint 3881</name>
            </trkpt>
            <trkpt lat="49.9590784" lon="10.8734248">
                <ele>241.0</ele>
                <time>2020-08-22T12:30:13.000Z</time>
                <name>Trackpoint 3882</name>
            </trkpt>
            <trkpt lat="49.9590368" lon="10.8733064">
                <ele>241.0</ele>
                <time>2020-08-22T12:30:15.000Z</time>
                <name>Trackpoint 3883</name>
            </trkpt>
            <trkpt lat="49.958912" lon="10.8733128">
                <ele>241.0</ele>
                <time>2020-08-22T12:30:18.000Z</time>
                <name>Trackpoint 3884</name>
            </trkpt>
            <trkpt lat="49.958816" lon="10.8733616">
                <ele>240.0</ele>
                <time>2020-08-22T12:30:20.000Z</time>
                <name>Trackpoint 3885</name>
            </trkpt>
            <trkpt lat="49.9587264" lon="10.8734128">
                <ele>240.0</ele>
                <time>2020-08-22T12:30:22.000Z</time>
                <name>Trackpoint 3886</name>
            </trkpt>
            <trkpt lat="49.9586496" lon="10.8734704">
                <ele>240.0</ele>
                <time>2020-08-22T12:30:24.000Z</time>
                <name>Trackpoint 3887</name>
            </trkpt>
            <trkpt lat="49.9585472" lon="10.8735248">
                <ele>240.0</ele>
                <time>2020-08-22T12:30:26.000Z</time>
                <name>Trackpoint 3888</name>
            </trkpt>
            <trkpt lat="49.9584544" lon="10.87356">
                <ele>240.0</ele>
                <time>2020-08-22T12:30:28.000Z</time>
                <name>Trackpoint 3889</name>
            </trkpt>
            <trkpt lat="49.9583712" lon="10.8736232">
                <ele>240.0</ele>
                <time>2020-08-22T12:30:30.000Z</time>
                <name>Trackpoint 3890</name>
            </trkpt>
            <trkpt lat="49.9582592" lon="10.8736632">
                <ele>240.0</ele>
                <time>2020-08-22T12:30:32.000Z</time>
                <name>Trackpoint 3891</name>
            </trkpt>
            <trkpt lat="49.95816" lon="10.8737088">
                <ele>240.0</ele>
                <time>2020-08-22T12:30:34.000Z</time>
                <name>Trackpoint 3892</name>
            </trkpt>
            <trkpt lat="49.9580608" lon="10.8737568">
                <ele>240.0</ele>
                <time>2020-08-22T12:30:36.000Z</time>
                <name>Trackpoint 3893</name>
            </trkpt>
            <trkpt lat="49.9579744" lon="10.8738">
                <ele>240.0</ele>
                <time>2020-08-22T12:30:38.000Z</time>
                <name>Trackpoint 3894</name>
            </trkpt>
            <trkpt lat="49.9578784" lon="10.8738072">
                <ele>240.0</ele>
                <time>2020-08-22T12:30:40.000Z</time>
                <name>Trackpoint 3895</name>
            </trkpt>
            <trkpt lat="49.9577984" lon="10.8737384">
                <ele>240.0</ele>
                <time>2020-08-22T12:30:42.000Z</time>
                <name>Trackpoint 3896</name>
            </trkpt>
            <trkpt lat="49.957728" lon="10.8736248">
                <ele>240.0</ele>
                <time>2020-08-22T12:30:44.000Z</time>
                <name>Trackpoint 3897</name>
            </trkpt>
            <trkpt lat="49.957664" lon="10.8734976">
                <ele>240.0</ele>
                <time>2020-08-22T12:30:46.000Z</time>
                <name>Trackpoint 3898</name>
            </trkpt>
            <trkpt lat="49.9575872" lon="10.8733904">
                <ele>240.0</ele>
                <time>2020-08-22T12:30:48.000Z</time>
                <name>Trackpoint 3899</name>
            </trkpt>
            <trkpt lat="49.9575072" lon="10.8732952">
                <ele>240.0</ele>
                <time>2020-08-22T12:30:50.000Z</time>
                <name>Trackpoint 3900</name>
            </trkpt>
            <trkpt lat="49.9574176" lon="10.8732016">
                <ele>240.0</ele>
                <time>2020-08-22T12:30:52.000Z</time>
                <name>Trackpoint 3901</name>
            </trkpt>
            <trkpt lat="49.9573216" lon="10.8731336">
                <ele>239.0</ele>
                <time>2020-08-22T12:30:54.000Z</time>
                <name>Trackpoint 3902</name>
            </trkpt>
            <trkpt lat="49.9572256" lon="10.8730896">
                <ele>239.0</ele>
                <time>2020-08-22T12:30:56.000Z</time>
                <name>Trackpoint 3903</name>
            </trkpt>
            <trkpt lat="49.9571264" lon="10.8730536">
                <ele>239.0</ele>
                <time>2020-08-22T12:30:58.000Z</time>
                <name>Trackpoint 3904</name>
            </trkpt>
            <trkpt lat="49.9570208" lon="10.8730296">
                <ele>239.0</ele>
                <time>2020-08-22T12:31:00.000Z</time>
                <name>Trackpoint 3905</name>
            </trkpt>
            <trkpt lat="49.9569216" lon="10.8730248">
                <ele>239.0</ele>
                <time>2020-08-22T12:31:02.000Z</time>
                <name>Trackpoint 3906</name>
            </trkpt>
            <trkpt lat="49.9568192" lon="10.8730232">
                <ele>239.0</ele>
                <time>2020-08-22T12:31:04.000Z</time>
                <name>Trackpoint 3907</name>
            </trkpt>
            <trkpt lat="49.95672" lon="10.8730152">
                <ele>239.0</ele>
                <time>2020-08-22T12:31:06.000Z</time>
                <name>Trackpoint 3908</name>
            </trkpt>
            <trkpt lat="49.9566112" lon="10.8730096">
                <ele>239.0</ele>
                <time>2020-08-22T12:31:08.000Z</time>
                <name>Trackpoint 3909</name>
            </trkpt>
            <trkpt lat="49.956512" lon="10.8730072">
                <ele>239.0</ele>
                <time>2020-08-22T12:31:10.000Z</time>
                <name>Trackpoint 3910</name>
            </trkpt>
            <trkpt lat="49.9564128" lon="10.8730072">
                <ele>239.0</ele>
                <time>2020-08-22T12:31:12.000Z</time>
                <name>Trackpoint 3911</name>
            </trkpt>
            <trkpt lat="49.9563072" lon="10.8730048">
                <ele>239.0</ele>
                <time>2020-08-22T12:31:14.000Z</time>
                <name>Trackpoint 3912</name>
            </trkpt>
            <trkpt lat="49.9562048" lon="10.8730024">
                <ele>239.0</ele>
                <time>2020-08-22T12:31:16.000Z</time>
                <name>Trackpoint 3913</name>
            </trkpt>
            <trkpt lat="49.9560928" lon="10.8730048">
                <ele>239.0</ele>
                <time>2020-08-22T12:31:18.000Z</time>
                <name>Trackpoint 3914</name>
            </trkpt>
            <trkpt lat="49.9559872" lon="10.873032">
                <ele>239.0</ele>
                <time>2020-08-22T12:31:20.000Z</time>
                <name>Trackpoint 3915</name>
            </trkpt>
            <trkpt lat="49.9558816" lon="10.8730584">
                <ele>239.0</ele>
                <time>2020-08-22T12:31:22.000Z</time>
                <name>Trackpoint 3916</name>
            </trkpt>
            <trkpt lat="49.9557824" lon="10.8731032">
                <ele>239.0</ele>
                <time>2020-08-22T12:31:24.000Z</time>
                <name>Trackpoint 3917</name>
            </trkpt>
            <trkpt lat="49.9556896" lon="10.87314">
                <ele>239.0</ele>
                <time>2020-08-22T12:31:26.000Z</time>
                <name>Trackpoint 3918</name>
            </trkpt>
            <trkpt lat="49.955584" lon="10.8731544">
                <ele>239.0</ele>
                <time>2020-08-22T12:31:28.000Z</time>
                <name>Trackpoint 3919</name>
            </trkpt>
            <trkpt lat="49.9554912" lon="10.8731416">
                <ele>239.0</ele>
                <time>2020-08-22T12:31:30.000Z</time>
                <name>Trackpoint 3920</name>
            </trkpt>
            <trkpt lat="49.9553952" lon="10.87314">
                <ele>239.0</ele>
                <time>2020-08-22T12:31:32.000Z</time>
                <name>Trackpoint 3921</name>
            </trkpt>
            <trkpt lat="49.9552928" lon="10.87312">
                <ele>239.0</ele>
                <time>2020-08-22T12:31:34.000Z</time>
                <name>Trackpoint 3922</name>
            </trkpt>
            <trkpt lat="49.9551872" lon="10.8731184">
                <ele>239.0</ele>
                <time>2020-08-22T12:31:36.000Z</time>
                <name>Trackpoint 3923</name>
            </trkpt>
            <trkpt lat="49.9550784" lon="10.87312">
                <ele>239.0</ele>
                <time>2020-08-22T12:31:38.000Z</time>
                <name>Trackpoint 3924</name>
            </trkpt>
            <trkpt lat="49.9549792" lon="10.8731">
                <ele>239.0</ele>
                <time>2020-08-22T12:31:40.000Z</time>
                <name>Trackpoint 3925</name>
            </trkpt>
            <trkpt lat="49.95488" lon="10.8730736">
                <ele>239.0</ele>
                <time>2020-08-22T12:31:42.000Z</time>
                <name>Trackpoint 3926</name>
            </trkpt>
            <trkpt lat="49.954784" lon="10.8730552">
                <ele>239.0</ele>
                <time>2020-08-22T12:31:44.000Z</time>
                <name>Trackpoint 3927</name>
            </trkpt>
            <trkpt lat="49.9546496" lon="10.8730272">
                <ele>239.0</ele>
                <time>2020-08-22T12:31:47.000Z</time>
                <name>Trackpoint 3928</name>
            </trkpt>
            <trkpt lat="49.9545248" lon="10.872996">
                <ele>239.0</ele>
                <time>2020-08-22T12:31:50.000Z</time>
                <name>Trackpoint 3929</name>
            </trkpt>
            <trkpt lat="49.9544064" lon="10.8729312">
                <ele>239.0</ele>
                <time>2020-08-22T12:31:53.000Z</time>
                <name>Trackpoint 3930</name>
            </trkpt>
            <trkpt lat="49.95432" lon="10.8728848">
                <ele>238.0</ele>
                <time>2020-08-22T12:31:55.000Z</time>
                <name>Trackpoint 3931</name>
            </trkpt>
            <trkpt lat="49.9542304" lon="10.8728488">
                <ele>238.0</ele>
                <time>2020-08-22T12:31:57.000Z</time>
                <name>Trackpoint 3932</name>
            </trkpt>
            <trkpt lat="49.9541344" lon="10.8728168">
                <ele>239.0</ele>
                <time>2020-08-22T12:31:59.000Z</time>
                <name>Trackpoint 3933</name>
            </trkpt>
            <trkpt lat="49.9540352" lon="10.8728016">
                <ele>239.0</ele>
                <time>2020-08-22T12:32:01.000Z</time>
                <name>Trackpoint 3934</name>
            </trkpt>
            <trkpt lat="49.9539008" lon="10.8728112">
                <ele>239.0</ele>
                <time>2020-08-22T12:32:04.000Z</time>
                <name>Trackpoint 3935</name>
            </trkpt>
            <trkpt lat="49.9538112" lon="10.872824">
                <ele>239.0</ele>
                <time>2020-08-22T12:32:06.000Z</time>
                <name>Trackpoint 3936</name>
            </trkpt>
            <trkpt lat="49.9537152" lon="10.8728064">
                <ele>239.0</ele>
                <time>2020-08-22T12:32:10.000Z</time>
                <name>Trackpoint 3937</name>
            </trkpt>
            <trkpt lat="49.953616" lon="10.8728136">
                <ele>239.0</ele>
                <time>2020-08-22T12:32:30.000Z</time>
                <name>Trackpoint 3938</name>
            </trkpt>
            <trkpt lat="49.9535104" lon="10.8728504">
                <ele>239.0</ele>
                <time>2020-08-22T12:32:34.000Z</time>
                <name>Trackpoint 3939</name>
            </trkpt>
            <trkpt lat="49.9534112" lon="10.8728736">
                <ele>239.0</ele>
                <time>2020-08-22T12:32:37.000Z</time>
                <name>Trackpoint 3940</name>
            </trkpt>
            <trkpt lat="49.9532992" lon="10.8729152">
                <ele>239.0</ele>
                <time>2020-08-22T12:32:40.000Z</time>
                <name>Trackpoint 3941</name>
            </trkpt>
            <trkpt lat="49.9532192" lon="10.8729936">
                <ele>239.0</ele>
                <time>2020-08-22T12:32:43.000Z</time>
                <name>Trackpoint 3942</name>
            </trkpt>
            <trkpt lat="49.9531584" lon="10.8731168">
                <ele>239.0</ele>
                <time>2020-08-22T12:32:46.000Z</time>
                <name>Trackpoint 3943</name>
            </trkpt>
            <trkpt lat="49.9530944" lon="10.8731832">
                <ele>239.0</ele>
                <time>2020-08-22T12:32:48.000Z</time>
                <name>Trackpoint 3944</name>
            </trkpt>
            <trkpt lat="49.9529984" lon="10.873208">
                <ele>238.0</ele>
                <time>2020-08-22T12:32:51.000Z</time>
                <name>Trackpoint 3945</name>
            </trkpt>
            <trkpt lat="49.9528896" lon="10.8732232">
                <ele>238.0</ele>
                <time>2020-08-22T12:32:54.000Z</time>
                <name>Trackpoint 3946</name>
            </trkpt>
            <trkpt lat="49.9527744" lon="10.8732656">
                <ele>238.0</ele>
                <time>2020-08-22T12:32:57.000Z</time>
                <name>Trackpoint 3947</name>
            </trkpt>
            <trkpt lat="49.9526624" lon="10.8732904">
                <ele>238.0</ele>
                <time>2020-08-22T12:32:59.000Z</time>
                <name>Trackpoint 3948</name>
            </trkpt>
            <trkpt lat="49.9525728" lon="10.873308">
                <ele>238.0</ele>
                <time>2020-08-22T12:33:01.000Z</time>
                <name>Trackpoint 3949</name>
            </trkpt>
            <trkpt lat="49.9524512" lon="10.8733384">
                <ele>238.0</ele>
                <time>2020-08-22T12:33:04.000Z</time>
                <name>Trackpoint 3950</name>
            </trkpt>
            <trkpt lat="49.9523584" lon="10.8733784">
                <ele>238.0</ele>
                <time>2020-08-22T12:33:06.000Z</time>
                <name>Trackpoint 3951</name>
            </trkpt>
            <trkpt lat="49.9522592" lon="10.8734376">
                <ele>238.0</ele>
                <time>2020-08-22T12:33:08.000Z</time>
                <name>Trackpoint 3952</name>
            </trkpt>
            <trkpt lat="49.9521856" lon="10.8735016">
                <ele>238.0</ele>
                <time>2020-08-22T12:33:10.000Z</time>
                <name>Trackpoint 3953</name>
            </trkpt>
            <trkpt lat="49.9520832" lon="10.8735888">
                <ele>238.0</ele>
                <time>2020-08-22T12:33:13.000Z</time>
                <name>Trackpoint 3954</name>
            </trkpt>
            <trkpt lat="49.9519968" lon="10.873636">
                <ele>238.0</ele>
                <time>2020-08-22T12:33:15.000Z</time>
                <name>Trackpoint 3955</name>
            </trkpt>
            <trkpt lat="49.9519168" lon="10.8736984">
                <ele>238.0</ele>
                <time>2020-08-22T12:33:17.000Z</time>
                <name>Trackpoint 3956</name>
            </trkpt>
            <trkpt lat="49.9518112" lon="10.8737896">
                <ele>238.0</ele>
                <time>2020-08-22T12:33:20.000Z</time>
                <name>Trackpoint 3957</name>
            </trkpt>
            <trkpt lat="49.9517376" lon="10.8739136">
                <ele>238.0</ele>
                <time>2020-08-22T12:33:23.000Z</time>
                <name>Trackpoint 3958</name>
            </trkpt>
            <trkpt lat="49.9516832" lon="10.8740416">
                <ele>238.0</ele>
                <time>2020-08-22T12:33:25.000Z</time>
                <name>Trackpoint 3959</name>
            </trkpt>
            <trkpt lat="49.9516448" lon="10.8741504">
                <ele>238.0</ele>
                <time>2020-08-22T12:33:27.000Z</time>
                <name>Trackpoint 3960</name>
            </trkpt>
            <trkpt lat="49.9515808" lon="10.8742504">
                <ele>238.0</ele>
                <time>2020-08-22T12:33:29.000Z</time>
                <name>Trackpoint 3961</name>
            </trkpt>
            <trkpt lat="49.9515008" lon="10.8743648">
                <ele>238.0</ele>
                <time>2020-08-22T12:33:31.000Z</time>
                <name>Trackpoint 3962</name>
            </trkpt>
            <trkpt lat="49.9514176" lon="10.8744696">
                <ele>238.0</ele>
                <time>2020-08-22T12:33:33.000Z</time>
                <name>Trackpoint 3963</name>
            </trkpt>
            <trkpt lat="49.9513312" lon="10.8745648">
                <ele>238.0</ele>
                <time>2020-08-22T12:33:35.000Z</time>
                <name>Trackpoint 3964</name>
            </trkpt>
            <trkpt lat="49.951248" lon="10.8746656">
                <ele>238.0</ele>
                <time>2020-08-22T12:33:37.000Z</time>
                <name>Trackpoint 3965</name>
            </trkpt>
            <trkpt lat="49.9511552" lon="10.8747632">
                <ele>238.0</ele>
                <time>2020-08-22T12:33:39.000Z</time>
                <name>Trackpoint 3966</name>
            </trkpt>
            <trkpt lat="49.9510656" lon="10.8748664">
                <ele>238.0</ele>
                <time>2020-08-22T12:33:41.000Z</time>
                <name>Trackpoint 3967</name>
            </trkpt>
            <trkpt lat="49.950976" lon="10.8749584">
                <ele>238.0</ele>
                <time>2020-08-22T12:33:43.000Z</time>
                <name>Trackpoint 3968</name>
            </trkpt>
            <trkpt lat="49.9508832" lon="10.8750712">
                <ele>238.0</ele>
                <time>2020-08-22T12:33:45.000Z</time>
                <name>Trackpoint 3969</name>
            </trkpt>
            <trkpt lat="49.9507968" lon="10.87518">
                <ele>238.0</ele>
                <time>2020-08-22T12:33:47.000Z</time>
                <name>Trackpoint 3970</name>
            </trkpt>
            <trkpt lat="49.9507264" lon="10.8753016">
                <ele>238.0</ele>
                <time>2020-08-22T12:33:49.000Z</time>
                <name>Trackpoint 3971</name>
            </trkpt>
            <trkpt lat="49.9506592" lon="10.8754304">
                <ele>238.0</ele>
                <time>2020-08-22T12:33:51.000Z</time>
                <name>Trackpoint 3972</name>
            </trkpt>
            <trkpt lat="49.9506048" lon="10.8755616">
                <ele>238.0</ele>
                <time>2020-08-22T12:33:53.000Z</time>
                <name>Trackpoint 3973</name>
            </trkpt>
            <trkpt lat="49.9505344" lon="10.8756848">
                <ele>238.0</ele>
                <time>2020-08-22T12:33:55.000Z</time>
                <name>Trackpoint 3974</name>
            </trkpt>
            <trkpt lat="49.9504768" lon="10.8758152">
                <ele>238.0</ele>
                <time>2020-08-22T12:33:57.000Z</time>
                <name>Trackpoint 3975</name>
            </trkpt>
            <trkpt lat="49.9504288" lon="10.87594">
                <ele>238.0</ele>
                <time>2020-08-22T12:33:59.000Z</time>
                <name>Trackpoint 3976</name>
            </trkpt>
            <trkpt lat="49.9503776" lon="10.8760544">
                <ele>238.0</ele>
                <time>2020-08-22T12:34:01.000Z</time>
                <name>Trackpoint 3977</name>
            </trkpt>
            <trkpt lat="49.9503168" lon="10.8761584">
                <ele>237.0</ele>
                <time>2020-08-22T12:34:03.000Z</time>
                <name>Trackpoint 3978</name>
            </trkpt>
            <trkpt lat="49.9502592" lon="10.8762552">
                <ele>237.0</ele>
                <time>2020-08-22T12:34:05.000Z</time>
                <name>Trackpoint 3979</name>
            </trkpt>
            <trkpt lat="49.950208" lon="10.87638">
                <ele>237.0</ele>
                <time>2020-08-22T12:34:07.000Z</time>
                <name>Trackpoint 3980</name>
            </trkpt>
            <trkpt lat="49.9501504" lon="10.8764984">
                <ele>237.0</ele>
                <time>2020-08-22T12:34:09.000Z</time>
                <name>Trackpoint 3981</name>
            </trkpt>
            <trkpt lat="49.9500608" lon="10.876592">
                <ele>237.0</ele>
                <time>2020-08-22T12:34:11.000Z</time>
                <name>Trackpoint 3982</name>
            </trkpt>
            <trkpt lat="49.949968" lon="10.8766816">
                <ele>237.0</ele>
                <time>2020-08-22T12:34:13.000Z</time>
                <name>Trackpoint 3983</name>
            </trkpt>
            <trkpt lat="49.9498784" lon="10.8767656">
                <ele>238.0</ele>
                <time>2020-08-22T12:34:15.000Z</time>
                <name>Trackpoint 3984</name>
            </trkpt>
            <trkpt lat="49.9498048" lon="10.87686">
                <ele>238.0</ele>
                <time>2020-08-22T12:34:17.000Z</time>
                <name>Trackpoint 3985</name>
            </trkpt>
            <trkpt lat="49.9497312" lon="10.8769464">
                <ele>238.0</ele>
                <time>2020-08-22T12:34:19.000Z</time>
                <name>Trackpoint 3986</name>
            </trkpt>
            <trkpt lat="49.9496448" lon="10.8770536">
                <ele>238.0</ele>
                <time>2020-08-22T12:34:21.000Z</time>
                <name>Trackpoint 3987</name>
            </trkpt>
            <trkpt lat="49.9495584" lon="10.8771696">
                <ele>238.0</ele>
                <time>2020-08-22T12:34:23.000Z</time>
                <name>Trackpoint 3988</name>
            </trkpt>
            <trkpt lat="49.9494528" lon="10.8772784">
                <ele>237.0</ele>
                <time>2020-08-22T12:34:25.000Z</time>
                <name>Trackpoint 3989</name>
            </trkpt>
            <trkpt lat="49.9493632" lon="10.8773672">
                <ele>237.0</ele>
                <time>2020-08-22T12:34:27.000Z</time>
                <name>Trackpoint 3990</name>
            </trkpt>
            <trkpt lat="49.9492864" lon="10.877452">
                <ele>237.0</ele>
                <time>2020-08-22T12:34:29.000Z</time>
                <name>Trackpoint 3991</name>
            </trkpt>
            <trkpt lat="49.949216" lon="10.8775416">
                <ele>237.0</ele>
                <time>2020-08-22T12:34:31.000Z</time>
                <name>Trackpoint 3992</name>
            </trkpt>
            <trkpt lat="49.949136" lon="10.8776368">
                <ele>237.0</ele>
                <time>2020-08-22T12:34:33.000Z</time>
                <name>Trackpoint 3993</name>
            </trkpt>
            <trkpt lat="49.9490496" lon="10.8777264">
                <ele>237.0</ele>
                <time>2020-08-22T12:34:35.000Z</time>
                <name>Trackpoint 3994</name>
            </trkpt>
            <trkpt lat="49.9489632" lon="10.8778136">
                <ele>236.0</ele>
                <time>2020-08-22T12:34:37.000Z</time>
                <name>Trackpoint 3995</name>
            </trkpt>
            <trkpt lat="49.9488704" lon="10.8778752">
                <ele>236.0</ele>
                <time>2020-08-22T12:34:39.000Z</time>
                <name>Trackpoint 3996</name>
            </trkpt>
            <trkpt lat="49.9487776" lon="10.8779296">
                <ele>236.0</ele>
                <time>2020-08-22T12:34:41.000Z</time>
                <name>Trackpoint 3997</name>
            </trkpt>
            <trkpt lat="49.9486816" lon="10.8779736">
                <ele>236.0</ele>
                <time>2020-08-22T12:34:43.000Z</time>
                <name>Trackpoint 3998</name>
            </trkpt>
            <trkpt lat="49.9485824" lon="10.878012">
                <ele>235.0</ele>
                <time>2020-08-22T12:34:45.000Z</time>
                <name>Trackpoint 3999</name>
            </trkpt>
            <trkpt lat="49.9484864" lon="10.8780568">
                <ele>235.0</ele>
                <time>2020-08-22T12:34:47.000Z</time>
                <name>Trackpoint 4000</name>
            </trkpt>
            <trkpt lat="49.9483904" lon="10.8780896">
                <ele>234.0</ele>
                <time>2020-08-22T12:34:49.000Z</time>
                <name>Trackpoint 4001</name>
            </trkpt>
            <trkpt lat="49.9482912" lon="10.878128">
                <ele>234.0</ele>
                <time>2020-08-22T12:34:51.000Z</time>
                <name>Trackpoint 4002</name>
            </trkpt>
            <trkpt lat="49.948192" lon="10.8781568">
                <ele>234.0</ele>
                <time>2020-08-22T12:34:53.000Z</time>
                <name>Trackpoint 4003</name>
            </trkpt>
            <trkpt lat="49.948096" lon="10.8781792">
                <ele>234.0</ele>
                <time>2020-08-22T12:34:55.000Z</time>
                <name>Trackpoint 4004</name>
            </trkpt>
            <trkpt lat="49.9479552" lon="10.8781704">
                <ele>234.0</ele>
                <time>2020-08-22T12:34:58.000Z</time>
                <name>Trackpoint 4005</name>
            </trkpt>
            <trkpt lat="49.947856" lon="10.8781472">
                <ele>236.0</ele>
                <time>2020-08-22T12:35:00.000Z</time>
                <name>Trackpoint 4006</name>
            </trkpt>
            <trkpt lat="49.9477664" lon="10.878108">
                <ele>236.0</ele>
                <time>2020-08-22T12:35:02.000Z</time>
                <name>Trackpoint 4007</name>
            </trkpt>
            <trkpt lat="49.9476768" lon="10.8780632">
                <ele>236.0</ele>
                <time>2020-08-22T12:35:04.000Z</time>
                <name>Trackpoint 4008</name>
            </trkpt>
            <trkpt lat="49.9475904" lon="10.8780184">
                <ele>237.0</ele>
                <time>2020-08-22T12:35:06.000Z</time>
                <name>Trackpoint 4009</name>
            </trkpt>
            <trkpt lat="49.9474976" lon="10.8779872">
                <ele>237.0</ele>
                <time>2020-08-22T12:35:08.000Z</time>
                <name>Trackpoint 4010</name>
            </trkpt>
            <trkpt lat="49.9473824" lon="10.8779384">
                <ele>237.0</ele>
                <time>2020-08-22T12:35:11.000Z</time>
                <name>Trackpoint 4011</name>
            </trkpt>
            <trkpt lat="49.9472736" lon="10.8778896">
                <ele>237.0</ele>
                <time>2020-08-22T12:35:14.000Z</time>
                <name>Trackpoint 4012</name>
            </trkpt>
            <trkpt lat="49.9471616" lon="10.87786">
                <ele>237.0</ele>
                <time>2020-08-22T12:35:17.000Z</time>
                <name>Trackpoint 4013</name>
            </trkpt>
            <trkpt lat="49.9470592" lon="10.877816">
                <ele>237.0</ele>
                <time>2020-08-22T12:35:20.000Z</time>
                <name>Trackpoint 4014</name>
            </trkpt>
            <trkpt lat="49.946944" lon="10.8777488">
                <ele>237.0</ele>
                <time>2020-08-22T12:35:23.000Z</time>
                <name>Trackpoint 4015</name>
            </trkpt>
            <trkpt lat="49.9468224" lon="10.8776928">
                <ele>238.0</ele>
                <time>2020-08-22T12:35:26.000Z</time>
                <name>Trackpoint 4016</name>
            </trkpt>
            <trkpt lat="49.9467392" lon="10.8776568">
                <ele>237.0</ele>
                <time>2020-08-22T12:35:28.000Z</time>
                <name>Trackpoint 4017</name>
            </trkpt>
            <trkpt lat="49.946608" lon="10.8776152">
                <ele>238.0</ele>
                <time>2020-08-22T12:35:31.000Z</time>
                <name>Trackpoint 4018</name>
            </trkpt>
            <trkpt lat="49.94648" lon="10.87756">
                <ele>237.0</ele>
                <time>2020-08-22T12:35:34.000Z</time>
                <name>Trackpoint 4019</name>
            </trkpt>
            <trkpt lat="49.9463776" lon="10.877492">
                <ele>236.0</ele>
                <time>2020-08-22T12:35:36.000Z</time>
                <name>Trackpoint 4020</name>
            </trkpt>
            <trkpt lat="49.9462688" lon="10.8774216">
                <ele>236.0</ele>
                <time>2020-08-22T12:35:38.000Z</time>
                <name>Trackpoint 4021</name>
            </trkpt>
            <trkpt lat="49.946176" lon="10.8773616">
                <ele>236.0</ele>
                <time>2020-08-22T12:35:40.000Z</time>
                <name>Trackpoint 4022</name>
            </trkpt>
            <trkpt lat="49.9460896" lon="10.877308">
                <ele>237.0</ele>
                <time>2020-08-22T12:35:42.000Z</time>
                <name>Trackpoint 4023</name>
            </trkpt>
            <trkpt lat="49.9460192" lon="10.8772448">
                <ele>237.0</ele>
                <time>2020-08-22T12:35:44.000Z</time>
                <name>Trackpoint 4024</name>
            </trkpt>
            <trkpt lat="49.9459424" lon="10.87718">
                <ele>237.0</ele>
                <time>2020-08-22T12:35:46.000Z</time>
                <name>Trackpoint 4025</name>
            </trkpt>
            <trkpt lat="49.9458688" lon="10.8771048">
                <ele>237.0</ele>
                <time>2020-08-22T12:35:48.000Z</time>
                <name>Trackpoint 4026</name>
            </trkpt>
            <trkpt lat="49.9457888" lon="10.87704">
                <ele>237.0</ele>
                <time>2020-08-22T12:35:50.000Z</time>
                <name>Trackpoint 4027</name>
            </trkpt>
            <trkpt lat="49.9457088" lon="10.87698">
                <ele>238.0</ele>
                <time>2020-08-22T12:35:52.000Z</time>
                <name>Trackpoint 4028</name>
            </trkpt>
            <trkpt lat="49.9456288" lon="10.876912">
                <ele>237.0</ele>
                <time>2020-08-22T12:35:54.000Z</time>
                <name>Trackpoint 4029</name>
            </trkpt>
            <trkpt lat="49.9455424" lon="10.8768552">
                <ele>237.0</ele>
                <time>2020-08-22T12:35:56.000Z</time>
                <name>Trackpoint 4030</name>
            </trkpt>
            <trkpt lat="49.9454496" lon="10.8768056">
                <ele>237.0</ele>
                <time>2020-08-22T12:35:58.000Z</time>
                <name>Trackpoint 4031</name>
            </trkpt>
            <trkpt lat="49.9453472" lon="10.8767408">
                <ele>237.0</ele>
                <time>2020-08-22T12:36:00.000Z</time>
                <name>Trackpoint 4032</name>
            </trkpt>
            <trkpt lat="49.9452416" lon="10.8766696">
                <ele>237.0</ele>
                <time>2020-08-22T12:36:02.000Z</time>
                <name>Trackpoint 4033</name>
            </trkpt>
            <trkpt lat="49.945136" lon="10.8766">
                <ele>237.0</ele>
                <time>2020-08-22T12:36:04.000Z</time>
                <name>Trackpoint 4034</name>
            </trkpt>
            <trkpt lat="49.9450368" lon="10.87652">
                <ele>237.0</ele>
                <time>2020-08-22T12:36:06.000Z</time>
                <name>Trackpoint 4035</name>
            </trkpt>
            <trkpt lat="49.9449376" lon="10.8764416">
                <ele>237.0</ele>
                <time>2020-08-22T12:36:08.000Z</time>
                <name>Trackpoint 4036</name>
            </trkpt>
            <trkpt lat="49.9448384" lon="10.8763752">
                <ele>237.0</ele>
                <time>2020-08-22T12:36:10.000Z</time>
                <name>Trackpoint 4037</name>
            </trkpt>
            <trkpt lat="49.944736" lon="10.8763264">
                <ele>236.0</ele>
                <time>2020-08-22T12:36:12.000Z</time>
                <name>Trackpoint 4038</name>
            </trkpt>
            <trkpt lat="49.9446208" lon="10.8762976">
                <ele>236.0</ele>
                <time>2020-08-22T12:36:14.000Z</time>
                <name>Trackpoint 4039</name>
            </trkpt>
            <trkpt lat="49.9445024" lon="10.8762576">
                <ele>236.0</ele>
                <time>2020-08-22T12:36:16.000Z</time>
                <name>Trackpoint 4040</name>
            </trkpt>
            <trkpt lat="49.9444032" lon="10.8762512">
                <ele>236.0</ele>
                <time>2020-08-22T12:36:18.000Z</time>
                <name>Trackpoint 4041</name>
            </trkpt>
            <trkpt lat="49.9443168" lon="10.8762816">
                <ele>236.0</ele>
                <time>2020-08-22T12:36:22.000Z</time>
                <name>Trackpoint 4042</name>
            </trkpt>
            <trkpt lat="49.9442944" lon="10.8762848">
                <ele>234.0</ele>
                <time>2020-08-22T12:38:04.000Z</time>
                <name>Trackpoint 4051</name>
            </trkpt>
            <trkpt lat="49.9441856" lon="10.8763">
                <ele>234.0</ele>
                <time>2020-08-22T12:38:07.000Z</time>
                <name>Trackpoint 4052</name>
            </trkpt>
            <trkpt lat="49.9440704" lon="10.8763">
                <ele>234.0</ele>
                <time>2020-08-22T12:38:10.000Z</time>
                <name>Trackpoint 4053</name>
            </trkpt>
            <trkpt lat="49.943952" lon="10.8763152">
                <ele>234.0</ele>
                <time>2020-08-22T12:38:13.000Z</time>
                <name>Trackpoint 4054</name>
            </trkpt>
            <trkpt lat="49.9438336" lon="10.8763216">
                <ele>234.0</ele>
                <time>2020-08-22T12:38:16.000Z</time>
                <name>Trackpoint 4055</name>
            </trkpt>
            <trkpt lat="49.9437056" lon="10.8763176">
                <ele>233.0</ele>
                <time>2020-08-22T12:38:19.000Z</time>
                <name>Trackpoint 4056</name>
            </trkpt>
            <trkpt lat="49.9435776" lon="10.8763288">
                <ele>233.0</ele>
                <time>2020-08-22T12:38:22.000Z</time>
                <name>Trackpoint 4057</name>
            </trkpt>
            <trkpt lat="49.9434816" lon="10.8763504">
                <ele>234.0</ele>
                <time>2020-08-22T12:38:24.000Z</time>
                <name>Trackpoint 4058</name>
            </trkpt>
            <trkpt lat="49.9433888" lon="10.876364">
                <ele>234.0</ele>
                <time>2020-08-22T12:38:26.000Z</time>
                <name>Trackpoint 4059</name>
            </trkpt>
            <trkpt lat="49.9432512" lon="10.8763752">
                <ele>233.0</ele>
                <time>2020-08-22T12:38:29.000Z</time>
                <name>Trackpoint 4060</name>
            </trkpt>
            <trkpt lat="49.9431264" lon="10.8764">
                <ele>233.0</ele>
                <time>2020-08-22T12:38:32.000Z</time>
                <name>Trackpoint 4061</name>
            </trkpt>
            <trkpt lat="49.942992" lon="10.8764336">
                <ele>233.0</ele>
                <time>2020-08-22T12:38:35.000Z</time>
                <name>Trackpoint 4062</name>
            </trkpt>
            <trkpt lat="49.9428608" lon="10.8764336">
                <ele>234.0</ele>
                <time>2020-08-22T12:38:38.000Z</time>
                <name>Trackpoint 4063</name>
            </trkpt>
            <trkpt lat="49.942768" lon="10.8764336">
                <ele>234.0</ele>
                <time>2020-08-22T12:38:40.000Z</time>
                <name>Trackpoint 4064</name>
            </trkpt>
            <trkpt lat="49.9426752" lon="10.8764232">
                <ele>234.0</ele>
                <time>2020-08-22T12:38:42.000Z</time>
                <name>Trackpoint 4065</name>
            </trkpt>
            <trkpt lat="49.9425408" lon="10.8764248">
                <ele>234.0</ele>
                <time>2020-08-22T12:38:45.000Z</time>
                <name>Trackpoint 4066</name>
            </trkpt>
            <trkpt lat="49.9424416" lon="10.8764096">
                <ele>234.0</ele>
                <time>2020-08-22T12:38:47.000Z</time>
                <name>Trackpoint 4067</name>
            </trkpt>
            <trkpt lat="49.9423424" lon="10.8763864">
                <ele>234.0</ele>
                <time>2020-08-22T12:38:49.000Z</time>
                <name>Trackpoint 4068</name>
            </trkpt>
            <trkpt lat="49.9422496" lon="10.8763464">
                <ele>234.0</ele>
                <time>2020-08-22T12:38:51.000Z</time>
                <name>Trackpoint 4069</name>
            </trkpt>
            <trkpt lat="49.9421568" lon="10.8762976">
                <ele>234.0</ele>
                <time>2020-08-22T12:38:53.000Z</time>
                <name>Trackpoint 4070</name>
            </trkpt>
            <trkpt lat="49.9420704" lon="10.8762528">
                <ele>235.0</ele>
                <time>2020-08-22T12:38:55.000Z</time>
                <name>Trackpoint 4071</name>
            </trkpt>
            <trkpt lat="49.9419776" lon="10.87626">
                <ele>235.0</ele>
                <time>2020-08-22T12:38:57.000Z</time>
                <name>Trackpoint 4072</name>
            </trkpt>
            <trkpt lat="49.9418528" lon="10.8763048">
                <ele>235.0</ele>
                <time>2020-08-22T12:39:00.000Z</time>
                <name>Trackpoint 4073</name>
            </trkpt>
            <trkpt lat="49.9417216" lon="10.8763368">
                <ele>235.0</ele>
                <time>2020-08-22T12:39:03.000Z</time>
                <name>Trackpoint 4074</name>
            </trkpt>
            <trkpt lat="49.9415936" lon="10.8763752">
                <ele>235.0</ele>
                <time>2020-08-22T12:39:06.000Z</time>
                <name>Trackpoint 4075</name>
            </trkpt>
            <trkpt lat="49.941504" lon="10.8764064">
                <ele>235.0</ele>
                <time>2020-08-22T12:39:08.000Z</time>
                <name>Trackpoint 4076</name>
            </trkpt>
            <trkpt lat="49.9414208" lon="10.8764432">
                <ele>235.0</ele>
                <time>2020-08-22T12:39:10.000Z</time>
                <name>Trackpoint 4077</name>
            </trkpt>
            <trkpt lat="49.9413344" lon="10.8764824">
                <ele>235.0</ele>
                <time>2020-08-22T12:39:12.000Z</time>
                <name>Trackpoint 4078</name>
            </trkpt>
            <trkpt lat="49.9412448" lon="10.8765184">
                <ele>236.0</ele>
                <time>2020-08-22T12:39:14.000Z</time>
                <name>Trackpoint 4079</name>
            </trkpt>
            <trkpt lat="49.9411456" lon="10.8765832">
                <ele>236.0</ele>
                <time>2020-08-22T12:39:17.000Z</time>
                <name>Trackpoint 4080</name>
            </trkpt>
            <trkpt lat="49.9410656" lon="10.8766384">
                <ele>237.0</ele>
                <time>2020-08-22T12:39:21.000Z</time>
                <name>Trackpoint 4081</name>
            </trkpt>
            <trkpt lat="49.94096" lon="10.8766472">
                <ele>236.0</ele>
                <time>2020-08-22T12:40:00.000Z</time>
                <name>Trackpoint 4082</name>
            </trkpt>
            <trkpt lat="49.9408576" lon="10.8766232">
                <ele>236.0</ele>
                <time>2020-08-22T12:40:04.000Z</time>
                <name>Trackpoint 4083</name>
            </trkpt>
            <trkpt lat="49.9407552" lon="10.87656">
                <ele>236.0</ele>
                <time>2020-08-22T12:40:07.000Z</time>
                <name>Trackpoint 4084</name>
            </trkpt>
            <trkpt lat="49.9406656" lon="10.8764584">
                <ele>236.0</ele>
                <time>2020-08-22T12:40:10.000Z</time>
                <name>Trackpoint 4085</name>
            </trkpt>
            <trkpt lat="49.9405696" lon="10.8763736">
                <ele>236.0</ele>
                <time>2020-08-22T12:40:13.000Z</time>
                <name>Trackpoint 4086</name>
            </trkpt>
            <trkpt lat="49.940448" lon="10.8763048">
                <ele>236.0</ele>
                <time>2020-08-22T12:40:16.000Z</time>
                <name>Trackpoint 4087</name>
            </trkpt>
            <trkpt lat="49.9403648" lon="10.8762664">
                <ele>236.0</ele>
                <time>2020-08-22T12:40:18.000Z</time>
                <name>Trackpoint 4088</name>
            </trkpt>
            <trkpt lat="49.9402816" lon="10.8761968">
                <ele>236.0</ele>
                <time>2020-08-22T12:40:20.000Z</time>
                <name>Trackpoint 4089</name>
            </trkpt>
            <trkpt lat="49.9402112" lon="10.8760984">
                <ele>237.0</ele>
                <time>2020-08-22T12:40:22.000Z</time>
                <name>Trackpoint 4090</name>
            </trkpt>
            <trkpt lat="49.9401504" lon="10.8759968">
                <ele>236.0</ele>
                <time>2020-08-22T12:40:24.000Z</time>
                <name>Trackpoint 4091</name>
            </trkpt>
            <trkpt lat="49.94008" lon="10.87592">
                <ele>237.0</ele>
                <time>2020-08-22T12:40:26.000Z</time>
                <name>Trackpoint 4092</name>
            </trkpt>
            <trkpt lat="49.9399552" lon="10.8759536">
                <ele>236.0</ele>
                <time>2020-08-22T12:40:29.000Z</time>
                <name>Trackpoint 4093</name>
            </trkpt>
            <trkpt lat="49.93984" lon="10.8760136">
                <ele>237.0</ele>
                <time>2020-08-22T12:40:32.000Z</time>
                <name>Trackpoint 4094</name>
            </trkpt>
            <trkpt lat="49.9397536" lon="10.8760416">
                <ele>236.0</ele>
                <time>2020-08-22T12:40:34.000Z</time>
                <name>Trackpoint 4095</name>
            </trkpt>
            <trkpt lat="49.9396288" lon="10.8760864">
                <ele>236.0</ele>
                <time>2020-08-22T12:40:37.000Z</time>
                <name>Trackpoint 4096</name>
            </trkpt>
            <trkpt lat="49.9395104" lon="10.8761232">
                <ele>237.0</ele>
                <time>2020-08-22T12:40:40.000Z</time>
                <name>Trackpoint 4097</name>
            </trkpt>
            <trkpt lat="49.939392" lon="10.8761456">
                <ele>237.0</ele>
                <time>2020-08-22T12:40:43.000Z</time>
                <name>Trackpoint 4098</name>
            </trkpt>
            <trkpt lat="49.9392704" lon="10.876172">
                <ele>237.0</ele>
                <time>2020-08-22T12:40:46.000Z</time>
                <name>Trackpoint 4099</name>
            </trkpt>
            <trkpt lat="49.9391456" lon="10.8761984">
                <ele>236.0</ele>
                <time>2020-08-22T12:40:49.000Z</time>
                <name>Trackpoint 4100</name>
            </trkpt>
            <trkpt lat="49.9390208" lon="10.87622">
                <ele>237.0</ele>
                <time>2020-08-22T12:40:52.000Z</time>
                <name>Trackpoint 4101</name>
            </trkpt>
            <trkpt lat="49.938896" lon="10.8762312">
                <ele>237.0</ele>
                <time>2020-08-22T12:40:55.000Z</time>
                <name>Trackpoint 4102</name>
            </trkpt>
            <trkpt lat="49.9387616" lon="10.8762368">
                <ele>237.0</ele>
                <time>2020-08-22T12:40:58.000Z</time>
                <name>Trackpoint 4103</name>
            </trkpt>
            <trkpt lat="49.9386688" lon="10.8762464">
                <ele>237.0</ele>
                <time>2020-08-22T12:41:00.000Z</time>
                <name>Trackpoint 4104</name>
            </trkpt>
            <trkpt lat="49.938576" lon="10.8762576">
                <ele>236.0</ele>
                <time>2020-08-22T12:41:02.000Z</time>
                <name>Trackpoint 4105</name>
            </trkpt>
            <trkpt lat="49.9384832" lon="10.8762712">
                <ele>236.0</ele>
                <time>2020-08-22T12:41:04.000Z</time>
                <name>Trackpoint 4106</name>
            </trkpt>
            <trkpt lat="49.9383904" lon="10.8762848">
                <ele>236.0</ele>
                <time>2020-08-22T12:41:06.000Z</time>
                <name>Trackpoint 4107</name>
            </trkpt>
            <trkpt lat="49.9382944" lon="10.8763">
                <ele>236.0</ele>
                <time>2020-08-22T12:41:08.000Z</time>
                <name>Trackpoint 4108</name>
            </trkpt>
            <trkpt lat="49.9381952" lon="10.8763176">
                <ele>236.0</ele>
                <time>2020-08-22T12:41:10.000Z</time>
                <name>Trackpoint 4109</name>
            </trkpt>
            <trkpt lat="49.938096" lon="10.8763368">
                <ele>236.0</ele>
                <time>2020-08-22T12:41:12.000Z</time>
                <name>Trackpoint 4110</name>
            </trkpt>
            <trkpt lat="49.9379968" lon="10.8763552">
                <ele>236.0</ele>
                <time>2020-08-22T12:41:14.000Z</time>
                <name>Trackpoint 4111</name>
            </trkpt>
            <trkpt lat="49.9378976" lon="10.8763648">
                <ele>236.0</ele>
                <time>2020-08-22T12:41:16.000Z</time>
                <name>Trackpoint 4112</name>
            </trkpt>
            <trkpt lat="49.9378016" lon="10.8763768">
                <ele>236.0</ele>
                <time>2020-08-22T12:41:18.000Z</time>
                <name>Trackpoint 4113</name>
            </trkpt>
            <trkpt lat="49.9377024" lon="10.8763888">
                <ele>235.0</ele>
                <time>2020-08-22T12:41:20.000Z</time>
                <name>Trackpoint 4114</name>
            </trkpt>
            <trkpt lat="49.9376032" lon="10.8763968">
                <ele>235.0</ele>
                <time>2020-08-22T12:41:22.000Z</time>
                <name>Trackpoint 4115</name>
            </trkpt>
            <trkpt lat="49.9375072" lon="10.8764048">
                <ele>235.0</ele>
                <time>2020-08-22T12:41:24.000Z</time>
                <name>Trackpoint 4116</name>
            </trkpt>
            <trkpt lat="49.9374112" lon="10.8764112">
                <ele>235.0</ele>
                <time>2020-08-22T12:41:26.000Z</time>
                <name>Trackpoint 4117</name>
            </trkpt>
            <trkpt lat="49.9373216" lon="10.8764264">
                <ele>235.0</ele>
                <time>2020-08-22T12:41:28.000Z</time>
                <name>Trackpoint 4118</name>
            </trkpt>
            <trkpt lat="49.937232" lon="10.8764464">
                <ele>236.0</ele>
                <time>2020-08-22T12:41:30.000Z</time>
                <name>Trackpoint 4119</name>
            </trkpt>
            <trkpt lat="49.9371456" lon="10.8764736">
                <ele>236.0</ele>
                <time>2020-08-22T12:41:32.000Z</time>
                <name>Trackpoint 4120</name>
            </trkpt>
            <trkpt lat="49.9370528" lon="10.8765072">
                <ele>236.0</ele>
                <time>2020-08-22T12:41:34.000Z</time>
                <name>Trackpoint 4121</name>
            </trkpt>
            <trkpt lat="49.9369664" lon="10.8765424">
                <ele>236.0</ele>
                <time>2020-08-22T12:41:36.000Z</time>
                <name>Trackpoint 4122</name>
            </trkpt>
            <trkpt lat="49.9368768" lon="10.8765984">
                <ele>236.0</ele>
                <time>2020-08-22T12:41:38.000Z</time>
                <name>Trackpoint 4123</name>
            </trkpt>
            <trkpt lat="49.9367968" lon="10.8766536">
                <ele>236.0</ele>
                <time>2020-08-22T12:41:40.000Z</time>
                <name>Trackpoint 4124</name>
            </trkpt>
            <trkpt lat="49.9367136" lon="10.8767048">
                <ele>236.0</ele>
                <time>2020-08-22T12:41:42.000Z</time>
                <name>Trackpoint 4125</name>
            </trkpt>
            <trkpt lat="49.9366464" lon="10.8767728">
                <ele>236.0</ele>
                <time>2020-08-22T12:41:44.000Z</time>
                <name>Trackpoint 4126</name>
            </trkpt>
            <trkpt lat="49.936576" lon="10.8768416">
                <ele>236.0</ele>
                <time>2020-08-22T12:41:46.000Z</time>
                <name>Trackpoint 4127</name>
            </trkpt>
            <trkpt lat="49.936496" lon="10.876908">
                <ele>236.0</ele>
                <time>2020-08-22T12:41:48.000Z</time>
                <name>Trackpoint 4128</name>
            </trkpt>
            <trkpt lat="49.9364064" lon="10.876984">
                <ele>237.0</ele>
                <time>2020-08-22T12:41:50.000Z</time>
                <name>Trackpoint 4129</name>
            </trkpt>
            <trkpt lat="49.9363264" lon="10.8770704">
                <ele>237.0</ele>
                <time>2020-08-22T12:41:52.000Z</time>
                <name>Trackpoint 4130</name>
            </trkpt>
            <trkpt lat="49.9362528" lon="10.8771696">
                <ele>237.0</ele>
                <time>2020-08-22T12:41:54.000Z</time>
                <name>Trackpoint 4131</name>
            </trkpt>
            <trkpt lat="49.9361792" lon="10.8772632">
                <ele>237.0</ele>
                <time>2020-08-22T12:41:56.000Z</time>
                <name>Trackpoint 4132</name>
            </trkpt>
            <trkpt lat="49.936096" lon="10.877352">
                <ele>237.0</ele>
                <time>2020-08-22T12:41:58.000Z</time>
                <name>Trackpoint 4133</name>
            </trkpt>
            <trkpt lat="49.9360096" lon="10.8774384">
                <ele>237.0</ele>
                <time>2020-08-22T12:42:00.000Z</time>
                <name>Trackpoint 4134</name>
            </trkpt>
            <trkpt lat="49.9359168" lon="10.8775216">
                <ele>237.0</ele>
                <time>2020-08-22T12:42:02.000Z</time>
                <name>Trackpoint 4135</name>
            </trkpt>
            <trkpt lat="49.935824" lon="10.8775864">
                <ele>237.0</ele>
                <time>2020-08-22T12:42:04.000Z</time>
                <name>Trackpoint 4136</name>
            </trkpt>
            <trkpt lat="49.9357312" lon="10.8776304">
                <ele>237.0</ele>
                <time>2020-08-22T12:42:06.000Z</time>
                <name>Trackpoint 4137</name>
            </trkpt>
            <trkpt lat="49.9356384" lon="10.8776568">
                <ele>237.0</ele>
                <time>2020-08-22T12:42:08.000Z</time>
                <name>Trackpoint 4138</name>
            </trkpt>
            <trkpt lat="49.935504" lon="10.877684">
                <ele>237.0</ele>
                <time>2020-08-22T12:42:11.000Z</time>
                <name>Trackpoint 4139</name>
            </trkpt>
            <trkpt lat="49.9353728" lon="10.8776728">
                <ele>237.0</ele>
                <time>2020-08-22T12:42:14.000Z</time>
                <name>Trackpoint 4140</name>
            </trkpt>
            <trkpt lat="49.9352672" lon="10.877648">
                <ele>237.0</ele>
                <time>2020-08-22T12:42:16.000Z</time>
                <name>Trackpoint 4141</name>
            </trkpt>
            <trkpt lat="49.9351648" lon="10.8776">
                <ele>237.0</ele>
                <time>2020-08-22T12:42:18.000Z</time>
                <name>Trackpoint 4142</name>
            </trkpt>
            <trkpt lat="49.9350656" lon="10.8775328">
                <ele>237.0</ele>
                <time>2020-08-22T12:42:20.000Z</time>
                <name>Trackpoint 4143</name>
            </trkpt>
            <trkpt lat="49.9349664" lon="10.877468">
                <ele>237.0</ele>
                <time>2020-08-22T12:42:22.000Z</time>
                <name>Trackpoint 4144</name>
            </trkpt>
            <trkpt lat="49.9348768" lon="10.8773896">
                <ele>237.0</ele>
                <time>2020-08-22T12:42:24.000Z</time>
                <name>Trackpoint 4145</name>
            </trkpt>
            <trkpt lat="49.9347808" lon="10.8773136">
                <ele>237.0</ele>
                <time>2020-08-22T12:42:26.000Z</time>
                <name>Trackpoint 4146</name>
            </trkpt>
            <trkpt lat="49.9347008" lon="10.87724">
                <ele>237.0</ele>
                <time>2020-08-22T12:42:28.000Z</time>
                <name>Trackpoint 4147</name>
            </trkpt>
            <trkpt lat="49.9346176" lon="10.877176">
                <ele>237.0</ele>
                <time>2020-08-22T12:42:30.000Z</time>
                <name>Trackpoint 4148</name>
            </trkpt>
            <trkpt lat="49.9345312" lon="10.8771432">
                <ele>237.0</ele>
                <time>2020-08-22T12:42:32.000Z</time>
                <name>Trackpoint 4149</name>
            </trkpt>
            <trkpt lat="49.9343936" lon="10.8771496">
                <ele>237.0</ele>
                <time>2020-08-22T12:42:35.000Z</time>
                <name>Trackpoint 4150</name>
            </trkpt>
            <trkpt lat="49.934304" lon="10.8771632">
                <ele>237.0</ele>
                <time>2020-08-22T12:42:37.000Z</time>
                <name>Trackpoint 4151</name>
            </trkpt>
            <trkpt lat="49.9342144" lon="10.8771848">
                <ele>237.0</ele>
                <time>2020-08-22T12:42:39.000Z</time>
                <name>Trackpoint 4152</name>
            </trkpt>
            <trkpt lat="49.9341056" lon="10.8772096">
                <ele>237.0</ele>
                <time>2020-08-22T12:42:42.000Z</time>
                <name>Trackpoint 4153</name>
            </trkpt>
            <trkpt lat="49.9339968" lon="10.877236">
                <ele>237.0</ele>
                <time>2020-08-22T12:42:45.000Z</time>
                <name>Trackpoint 4154</name>
            </trkpt>
            <trkpt lat="49.9338784" lon="10.8772136">
                <ele>237.0</ele>
                <time>2020-08-22T12:42:49.000Z</time>
                <name>Trackpoint 4155</name>
            </trkpt>
            <trkpt lat="49.9338272" lon="10.8771352">
                <ele>237.0</ele>
                <time>2020-08-22T12:42:52.000Z</time>
                <name>Trackpoint 4156</name>
            </trkpt>
            <trkpt lat="49.9337344" lon="10.8770616">
                <ele>237.0</ele>
                <time>2020-08-22T12:42:55.000Z</time>
                <name>Trackpoint 4157</name>
            </trkpt>
            <trkpt lat="49.9336704" lon="10.8769976">
                <ele>237.0</ele>
                <time>2020-08-22T12:42:57.000Z</time>
                <name>Trackpoint 4158</name>
            </trkpt>
            <trkpt lat="49.9335968" lon="10.8769328">
                <ele>236.0</ele>
                <time>2020-08-22T12:42:59.000Z</time>
                <name>Trackpoint 4159</name>
            </trkpt>
            <trkpt lat="49.9335168" lon="10.8768752">
                <ele>236.0</ele>
                <time>2020-08-22T12:43:01.000Z</time>
                <name>Trackpoint 4160</name>
            </trkpt>
            <trkpt lat="49.9334368" lon="10.8768216">
                <ele>236.0</ele>
                <time>2020-08-22T12:43:03.000Z</time>
                <name>Trackpoint 4161</name>
            </trkpt>
            <trkpt lat="49.9333536" lon="10.8767792">
                <ele>236.0</ele>
                <time>2020-08-22T12:43:05.000Z</time>
                <name>Trackpoint 4162</name>
            </trkpt>
            <trkpt lat="49.9332672" lon="10.8767336">
                <ele>237.0</ele>
                <time>2020-08-22T12:43:07.000Z</time>
                <name>Trackpoint 4163</name>
            </trkpt>
            <trkpt lat="49.9331552" lon="10.8766696">
                <ele>237.0</ele>
                <time>2020-08-22T12:43:10.000Z</time>
                <name>Trackpoint 4164</name>
            </trkpt>
            <trkpt lat="49.9330976" lon="10.8765984">
                <ele>237.0</ele>
                <time>2020-08-22T12:43:12.000Z</time>
                <name>Trackpoint 4165</name>
            </trkpt>
            <trkpt lat="49.9330912" lon="10.8764784">
                <ele>237.0</ele>
                <time>2020-08-22T12:43:14.000Z</time>
                <name>Trackpoint 4166</name>
            </trkpt>
            <trkpt lat="49.9330912" lon="10.876344">
                <ele>237.0</ele>
                <time>2020-08-22T12:43:16.000Z</time>
                <name>Trackpoint 4167</name>
            </trkpt>
            <trkpt lat="49.9330848" lon="10.876208">
                <ele>237.0</ele>
                <time>2020-08-22T12:43:18.000Z</time>
                <name>Trackpoint 4168</name>
            </trkpt>
            <trkpt lat="49.9330816" lon="10.876068">
                <ele>237.0</ele>
                <time>2020-08-22T12:43:20.000Z</time>
                <name>Trackpoint 4169</name>
            </trkpt>
            <trkpt lat="49.9330784" lon="10.8759168">
                <ele>237.0</ele>
                <time>2020-08-22T12:43:22.000Z</time>
                <name>Trackpoint 4170</name>
            </trkpt>
            <trkpt lat="49.9330752" lon="10.8757584">
                <ele>237.0</ele>
                <time>2020-08-22T12:43:24.000Z</time>
                <name>Trackpoint 4171</name>
            </trkpt>
            <trkpt lat="49.9330752" lon="10.8756064">
                <ele>237.0</ele>
                <time>2020-08-22T12:43:26.000Z</time>
                <name>Trackpoint 4172</name>
            </trkpt>
            <trkpt lat="49.9330624" lon="10.8754568">
                <ele>237.0</ele>
                <time>2020-08-22T12:43:28.000Z</time>
                <name>Trackpoint 4173</name>
            </trkpt>
            <trkpt lat="49.9330624" lon="10.8753048">
                <ele>237.0</ele>
                <time>2020-08-22T12:43:30.000Z</time>
                <name>Trackpoint 4174</name>
            </trkpt>
            <trkpt lat="49.933056" lon="10.8751584">
                <ele>237.0</ele>
                <time>2020-08-22T12:43:32.000Z</time>
                <name>Trackpoint 4175</name>
            </trkpt>
            <trkpt lat="49.9330496" lon="10.875016">
                <ele>237.0</ele>
                <time>2020-08-22T12:43:34.000Z</time>
                <name>Trackpoint 4176</name>
            </trkpt>
            <trkpt lat="49.9330496" lon="10.8748728">
                <ele>237.0</ele>
                <time>2020-08-22T12:43:36.000Z</time>
                <name>Trackpoint 4177</name>
            </trkpt>
            <trkpt lat="49.9330368" lon="10.8747416">
                <ele>237.0</ele>
                <time>2020-08-22T12:43:38.000Z</time>
                <name>Trackpoint 4178</name>
            </trkpt>
            <trkpt lat="49.9330304" lon="10.8746184">
                <ele>237.0</ele>
                <time>2020-08-22T12:43:40.000Z</time>
                <name>Trackpoint 4179</name>
            </trkpt>
            <trkpt lat="49.933024" lon="10.8745016">
                <ele>237.0</ele>
                <time>2020-08-22T12:43:42.000Z</time>
                <name>Trackpoint 4180</name>
            </trkpt>
            <trkpt lat="49.9330208" lon="10.8743912">
                <ele>237.0</ele>
                <time>2020-08-22T12:43:44.000Z</time>
                <name>Trackpoint 4181</name>
            </trkpt>
            <trkpt lat="49.9330208" lon="10.8742752">
                <ele>237.0</ele>
                <time>2020-08-22T12:43:46.000Z</time>
                <name>Trackpoint 4182</name>
            </trkpt>
            <trkpt lat="49.9330176" lon="10.874168">
                <ele>237.0</ele>
                <time>2020-08-22T12:43:48.000Z</time>
                <name>Trackpoint 4183</name>
            </trkpt>
            <trkpt lat="49.9330144" lon="10.8740752">
                <ele>237.0</ele>
                <time>2020-08-22T12:43:50.000Z</time>
                <name>Trackpoint 4184</name>
            </trkpt>
            <trkpt lat="49.9330144" lon="10.8739728">
                <ele>237.0</ele>
                <time>2020-08-22T12:43:52.000Z</time>
                <name>Trackpoint 4185</name>
            </trkpt>
            <trkpt lat="49.9330176" lon="10.87386">
                <ele>237.0</ele>
                <time>2020-08-22T12:43:54.000Z</time>
                <name>Trackpoint 4186</name>
            </trkpt>
            <trkpt lat="49.9330176" lon="10.8737288">
                <ele>237.0</ele>
                <time>2020-08-22T12:43:56.000Z</time>
                <name>Trackpoint 4187</name>
            </trkpt>
            <trkpt lat="49.9330176" lon="10.8736032">
                <ele>237.0</ele>
                <time>2020-08-22T12:43:58.000Z</time>
                <name>Trackpoint 4188</name>
            </trkpt>
            <trkpt lat="49.9330144" lon="10.8734616">
                <ele>237.0</ele>
                <time>2020-08-22T12:44:00.000Z</time>
                <name>Trackpoint 4189</name>
            </trkpt>
            <trkpt lat="49.9330208" lon="10.8733168">
                <ele>237.0</ele>
                <time>2020-08-22T12:44:02.000Z</time>
                <name>Trackpoint 4190</name>
            </trkpt>
            <trkpt lat="49.9330304" lon="10.8731568">
                <ele>237.0</ele>
                <time>2020-08-22T12:44:04.000Z</time>
                <name>Trackpoint 4191</name>
            </trkpt>
            <trkpt lat="49.9330336" lon="10.8730024">
                <ele>237.0</ele>
                <time>2020-08-22T12:44:06.000Z</time>
                <name>Trackpoint 4192</name>
            </trkpt>
            <trkpt lat="49.9330336" lon="10.8728464">
                <ele>236.0</ele>
                <time>2020-08-22T12:44:08.000Z</time>
                <name>Trackpoint 4193</name>
            </trkpt>
            <trkpt lat="49.93304" lon="10.8726864">
                <ele>236.0</ele>
                <time>2020-08-22T12:44:10.000Z</time>
                <name>Trackpoint 4194</name>
            </trkpt>
            <trkpt lat="49.933056" lon="10.8725272">
                <ele>236.0</ele>
                <time>2020-08-22T12:44:12.000Z</time>
                <name>Trackpoint 4195</name>
            </trkpt>
            <trkpt lat="49.9330688" lon="10.8723624">
                <ele>236.0</ele>
                <time>2020-08-22T12:44:14.000Z</time>
                <name>Trackpoint 4196</name>
            </trkpt>
            <trkpt lat="49.9330624" lon="10.8722064">
                <ele>236.0</ele>
                <time>2020-08-22T12:44:16.000Z</time>
                <name>Trackpoint 4197</name>
            </trkpt>
            <trkpt lat="49.9330592" lon="10.8720616">
                <ele>236.0</ele>
                <time>2020-08-22T12:44:18.000Z</time>
                <name>Trackpoint 4198</name>
            </trkpt>
            <trkpt lat="49.9330688" lon="10.8718952">
                <ele>236.0</ele>
                <time>2020-08-22T12:44:20.000Z</time>
                <name>Trackpoint 4199</name>
            </trkpt>
            <trkpt lat="49.9330752" lon="10.871728">
                <ele>236.0</ele>
                <time>2020-08-22T12:44:22.000Z</time>
                <name>Trackpoint 4200</name>
            </trkpt>
            <trkpt lat="49.9330848" lon="10.8715832">
                <ele>236.0</ele>
                <time>2020-08-22T12:44:24.000Z</time>
                <name>Trackpoint 4201</name>
            </trkpt>
            <trkpt lat="49.9330976" lon="10.8714352">
                <ele>236.0</ele>
                <time>2020-08-22T12:44:26.000Z</time>
                <name>Trackpoint 4202</name>
            </trkpt>
            <trkpt lat="49.933104" lon="10.871288">
                <ele>235.0</ele>
                <time>2020-08-22T12:44:28.000Z</time>
                <name>Trackpoint 4203</name>
            </trkpt>
            <trkpt lat="49.9331104" lon="10.8711184">
                <ele>235.0</ele>
                <time>2020-08-22T12:44:30.000Z</time>
                <name>Trackpoint 4204</name>
            </trkpt>
            <trkpt lat="49.9331104" lon="10.871028">
                <ele>235.0</ele>
                <time>2020-08-22T12:44:31.000Z</time>
                <name>Trackpoint 4205</name>
            </trkpt>
            <trkpt lat="49.9331168" lon="10.870856">
                <ele>235.0</ele>
                <time>2020-08-22T12:44:33.000Z</time>
                <name>Trackpoint 4206</name>
            </trkpt>
            <trkpt lat="49.9331232" lon="10.8706904">
                <ele>235.0</ele>
                <time>2020-08-22T12:44:35.000Z</time>
                <name>Trackpoint 4207</name>
            </trkpt>
            <trkpt lat="49.9331296" lon="10.8705256">
                <ele>235.0</ele>
                <time>2020-08-22T12:44:37.000Z</time>
                <name>Trackpoint 4208</name>
            </trkpt>
            <trkpt lat="49.9331168" lon="10.87036">
                <ele>234.0</ele>
                <time>2020-08-22T12:44:39.000Z</time>
                <name>Trackpoint 4209</name>
            </trkpt>
            <trkpt lat="49.9331136" lon="10.8701848">
                <ele>234.0</ele>
                <time>2020-08-22T12:44:41.000Z</time>
                <name>Trackpoint 4210</name>
            </trkpt>
            <trkpt lat="49.9331008" lon="10.8700152">
                <ele>234.0</ele>
                <time>2020-08-22T12:44:43.000Z</time>
                <name>Trackpoint 4211</name>
            </trkpt>
            <trkpt lat="49.9330912" lon="10.8698464">
                <ele>234.0</ele>
                <time>2020-08-22T12:44:45.000Z</time>
                <name>Trackpoint 4212</name>
            </trkpt>
            <trkpt lat="49.9330816" lon="10.8696848">
                <ele>234.0</ele>
                <time>2020-08-22T12:44:47.000Z</time>
                <name>Trackpoint 4213</name>
            </trkpt>
            <trkpt lat="49.9330752" lon="10.8695336">
                <ele>234.0</ele>
                <time>2020-08-22T12:44:49.000Z</time>
                <name>Trackpoint 4214</name>
            </trkpt>
            <trkpt lat="49.9330944" lon="10.8694016">
                <ele>234.0</ele>
                <time>2020-08-22T12:44:51.000Z</time>
                <name>Trackpoint 4215</name>
            </trkpt>
            <trkpt lat="49.9331136" lon="10.8692728">
                <ele>234.0</ele>
                <time>2020-08-22T12:44:53.000Z</time>
                <name>Trackpoint 4216</name>
            </trkpt>
            <trkpt lat="49.9330688" lon="10.8691752">
                <ele>234.0</ele>
                <time>2020-08-22T12:44:55.000Z</time>
                <name>Trackpoint 4217</name>
            </trkpt>
            <trkpt lat="49.9329504" lon="10.8691456">
                <ele>234.0</ele>
                <time>2020-08-22T12:44:58.000Z</time>
                <name>Trackpoint 4218</name>
            </trkpt>
            <trkpt lat="49.9328416" lon="10.8692032">
                <ele>234.0</ele>
                <time>2020-08-22T12:45:01.000Z</time>
                <name>Trackpoint 4219</name>
            </trkpt>
            <trkpt lat="49.9327552" lon="10.8692448">
                <ele>234.0</ele>
                <time>2020-08-22T12:45:04.000Z</time>
                <name>Trackpoint 4220</name>
            </trkpt>
            <trkpt lat="49.932672" lon="10.8692912">
                <ele>235.0</ele>
                <time>2020-08-22T12:45:07.000Z</time>
                <name>Trackpoint 4221</name>
            </trkpt>
            <trkpt lat="49.9325856" lon="10.8693312">
                <ele>234.0</ele>
                <time>2020-08-22T12:45:11.000Z</time>
                <name>Trackpoint 4222</name>
            </trkpt>
            <trkpt lat="49.9324992" lon="10.8693648">
                <ele>234.0</ele>
                <time>2020-08-22T12:45:51.000Z</time>
                <name>Trackpoint 4223</name>
            </trkpt>
            <trkpt lat="49.9324" lon="10.8694096">
                <ele>234.0</ele>
                <time>2020-08-22T12:45:54.000Z</time>
                <name>Trackpoint 4224</name>
            </trkpt>
            <trkpt lat="49.9323168" lon="10.8694496">
                <ele>234.0</ele>
                <time>2020-08-22T12:45:56.000Z</time>
                <name>Trackpoint 4225</name>
            </trkpt>
            <trkpt lat="49.9322304" lon="10.869496">
                <ele>234.0</ele>
                <time>2020-08-22T12:45:58.000Z</time>
                <name>Trackpoint 4226</name>
            </trkpt>
            <trkpt lat="49.9321152" lon="10.8695424">
                <ele>234.0</ele>
                <time>2020-08-22T12:46:01.000Z</time>
                <name>Trackpoint 4227</name>
            </trkpt>
            <trkpt lat="49.9319968" lon="10.8696">
                <ele>234.0</ele>
                <time>2020-08-22T12:46:04.000Z</time>
                <name>Trackpoint 4228</name>
            </trkpt>
            <trkpt lat="49.9319104" lon="10.869648">
                <ele>234.0</ele>
                <time>2020-08-22T12:46:06.000Z</time>
                <name>Trackpoint 4229</name>
            </trkpt>
            <trkpt lat="49.931824" lon="10.8697032">
                <ele>234.0</ele>
                <time>2020-08-22T12:46:08.000Z</time>
                <name>Trackpoint 4230</name>
            </trkpt>
            <trkpt lat="49.9317408" lon="10.869748">
                <ele>234.0</ele>
                <time>2020-08-22T12:46:10.000Z</time>
                <name>Trackpoint 4231</name>
            </trkpt>
            <trkpt lat="49.9316448" lon="10.8697792">
                <ele>234.0</ele>
                <time>2020-08-22T12:46:12.000Z</time>
                <name>Trackpoint 4232</name>
            </trkpt>
            <trkpt lat="49.9315552" lon="10.8698064">
                <ele>234.0</ele>
                <time>2020-08-22T12:46:14.000Z</time>
                <name>Trackpoint 4233</name>
            </trkpt>
            <trkpt lat="49.9314624" lon="10.8698152">
                <ele>234.0</ele>
                <time>2020-08-22T12:46:16.000Z</time>
                <name>Trackpoint 4234</name>
            </trkpt>
            <trkpt lat="49.9313664" lon="10.869828">
                <ele>234.0</ele>
                <time>2020-08-22T12:46:18.000Z</time>
                <name>Trackpoint 4235</name>
            </trkpt>
            <trkpt lat="49.9312768" lon="10.8698416">
                <ele>234.0</ele>
                <time>2020-08-22T12:46:20.000Z</time>
                <name>Trackpoint 4236</name>
            </trkpt>
            <trkpt lat="49.9311872" lon="10.869852">
                <ele>234.0</ele>
                <time>2020-08-22T12:46:22.000Z</time>
                <name>Trackpoint 4237</name>
            </trkpt>
            <trkpt lat="49.931088" lon="10.869832">
                <ele>235.0</ele>
                <time>2020-08-22T12:46:24.000Z</time>
                <name>Trackpoint 4238</name>
            </trkpt>
            <trkpt lat="49.9309984" lon="10.8697984">
                <ele>235.0</ele>
                <time>2020-08-22T12:46:26.000Z</time>
                <name>Trackpoint 4239</name>
            </trkpt>
            <trkpt lat="49.9308768" lon="10.8697456">
                <ele>236.0</ele>
                <time>2020-08-22T12:46:29.000Z</time>
                <name>Trackpoint 4240</name>
            </trkpt>
            <trkpt lat="49.9308" lon="10.8696984">
                <ele>236.0</ele>
                <time>2020-08-22T12:46:31.000Z</time>
                <name>Trackpoint 4241</name>
            </trkpt>
            <trkpt lat="49.93072" lon="10.8696536">
                <ele>236.0</ele>
                <time>2020-08-22T12:46:33.000Z</time>
                <name>Trackpoint 4242</name>
            </trkpt>
            <trkpt lat="49.9306368" lon="10.8696168">
                <ele>236.0</ele>
                <time>2020-08-22T12:46:35.000Z</time>
                <name>Trackpoint 4243</name>
            </trkpt>
            <trkpt lat="49.930512" lon="10.8695608">
                <ele>236.0</ele>
                <time>2020-08-22T12:46:38.000Z</time>
                <name>Trackpoint 4244</name>
            </trkpt>
            <trkpt lat="49.9303936" lon="10.8695">
                <ele>237.0</ele>
                <time>2020-08-22T12:46:41.000Z</time>
                <name>Trackpoint 4245</name>
            </trkpt>
            <trkpt lat="49.9303136" lon="10.8694584">
                <ele>237.0</ele>
                <time>2020-08-22T12:46:43.000Z</time>
                <name>Trackpoint 4246</name>
            </trkpt>
            <trkpt lat="49.9302016" lon="10.869396">
                <ele>237.0</ele>
                <time>2020-08-22T12:46:46.000Z</time>
                <name>Trackpoint 4247</name>
            </trkpt>
            <trkpt lat="49.9300992" lon="10.869344">
                <ele>238.0</ele>
                <time>2020-08-22T12:46:49.000Z</time>
                <name>Trackpoint 4248</name>
            </trkpt>
            <trkpt lat="49.930016" lon="10.8692776">
                <ele>237.0</ele>
                <time>2020-08-22T12:46:52.000Z</time>
                <name>Trackpoint 4249</name>
            </trkpt>
            <trkpt lat="49.9299456" lon="10.8692152">
                <ele>237.0</ele>
                <time>2020-08-22T12:47:29.000Z</time>
                <name>Trackpoint 4250</name>
            </trkpt>
            <trkpt lat="49.9298464" lon="10.8692368">
                <ele>236.0</ele>
                <time>2020-08-22T12:47:34.000Z</time>
                <name>Trackpoint 4251</name>
            </trkpt>
            <trkpt lat="49.9297632" lon="10.8693312">
                <ele>236.0</ele>
                <time>2020-08-22T12:47:37.000Z</time>
                <name>Trackpoint 4252</name>
            </trkpt>
            <trkpt lat="49.9296992" lon="10.8693952">
                <ele>236.0</ele>
                <time>2020-08-22T12:47:39.000Z</time>
                <name>Trackpoint 4253</name>
            </trkpt>
            <trkpt lat="49.9296064" lon="10.8694464">
                <ele>236.0</ele>
                <time>2020-08-22T12:47:41.000Z</time>
                <name>Trackpoint 4254</name>
            </trkpt>
            <trkpt lat="49.92952" lon="10.869512">
                <ele>236.0</ele>
                <time>2020-08-22T12:47:43.000Z</time>
                <name>Trackpoint 4255</name>
            </trkpt>
            <trkpt lat="49.9294368" lon="10.8695648">
                <ele>236.0</ele>
                <time>2020-08-22T12:47:45.000Z</time>
                <name>Trackpoint 4256</name>
            </trkpt>
            <trkpt lat="49.9293504" lon="10.8696272">
                <ele>236.0</ele>
                <time>2020-08-22T12:47:47.000Z</time>
                <name>Trackpoint 4257</name>
            </trkpt>
            <trkpt lat="49.9292672" lon="10.8697096">
                <ele>236.0</ele>
                <time>2020-08-22T12:47:49.000Z</time>
                <name>Trackpoint 4258</name>
            </trkpt>
            <trkpt lat="49.9291904" lon="10.869788">
                <ele>236.0</ele>
                <time>2020-08-22T12:47:51.000Z</time>
                <name>Trackpoint 4259</name>
            </trkpt>
            <trkpt lat="49.9291072" lon="10.8698528">
                <ele>236.0</ele>
                <time>2020-08-22T12:47:54.000Z</time>
                <name>Trackpoint 4260</name>
            </trkpt>
            <trkpt lat="49.9289984" lon="10.8698568">
                <ele>236.0</ele>
                <time>2020-08-22T12:48:10.000Z</time>
                <name>Trackpoint 4261</name>
            </trkpt>
            <trkpt lat="49.9289056" lon="10.8698632">
                <ele>236.0</ele>
                <time>2020-08-22T12:48:13.000Z</time>
                <name>Trackpoint 4262</name>
            </trkpt>
            <trkpt lat="49.9288096" lon="10.8699032">
                <ele>236.0</ele>
                <time>2020-08-22T12:48:16.000Z</time>
                <name>Trackpoint 4263</name>
            </trkpt>
            <trkpt lat="49.928704" lon="10.8699664">
                <ele>236.0</ele>
                <time>2020-08-22T12:48:19.000Z</time>
                <name>Trackpoint 4264</name>
            </trkpt>
            <trkpt lat="49.9285952" lon="10.8700384">
                <ele>236.0</ele>
                <time>2020-08-22T12:48:22.000Z</time>
                <name>Trackpoint 4265</name>
            </trkpt>
            <trkpt lat="49.928512" lon="10.8701184">
                <ele>236.0</ele>
                <time>2020-08-22T12:48:24.000Z</time>
                <name>Trackpoint 4266</name>
            </trkpt>
            <trkpt lat="49.9284256" lon="10.8701912">
                <ele>236.0</ele>
                <time>2020-08-22T12:48:26.000Z</time>
                <name>Trackpoint 4267</name>
            </trkpt>
            <trkpt lat="49.9283328" lon="10.8702488">
                <ele>236.0</ele>
                <time>2020-08-22T12:48:28.000Z</time>
                <name>Trackpoint 4268</name>
            </trkpt>
            <trkpt lat="49.9282432" lon="10.8703096">
                <ele>236.0</ele>
                <time>2020-08-22T12:48:30.000Z</time>
                <name>Trackpoint 4269</name>
            </trkpt>
            <trkpt lat="49.9281472" lon="10.8703744">
                <ele>236.0</ele>
                <time>2020-08-22T12:48:32.000Z</time>
                <name>Trackpoint 4270</name>
            </trkpt>
            <trkpt lat="49.9280448" lon="10.8704096">
                <ele>236.0</ele>
                <time>2020-08-22T12:48:34.000Z</time>
                <name>Trackpoint 4271</name>
            </trkpt>
            <trkpt lat="49.9279456" lon="10.8704168">
                <ele>236.0</ele>
                <time>2020-08-22T12:48:36.000Z</time>
                <name>Trackpoint 4272</name>
            </trkpt>
            <trkpt lat="49.9278336" lon="10.8704296">
                <ele>236.0</ele>
                <time>2020-08-22T12:48:38.000Z</time>
                <name>Trackpoint 4273</name>
            </trkpt>
            <trkpt lat="49.9277376" lon="10.8704296">
                <ele>236.0</ele>
                <time>2020-08-22T12:48:40.000Z</time>
                <name>Trackpoint 4274</name>
            </trkpt>
            <trkpt lat="49.9276384" lon="10.8704096">
                <ele>236.0</ele>
                <time>2020-08-22T12:48:42.000Z</time>
                <name>Trackpoint 4275</name>
            </trkpt>
            <trkpt lat="49.92752" lon="10.8703744">
                <ele>236.0</ele>
                <time>2020-08-22T12:48:45.000Z</time>
                <name>Trackpoint 4276</name>
            </trkpt>
            <trkpt lat="49.9274432" lon="10.8702944">
                <ele>236.0</ele>
                <time>2020-08-22T12:48:48.000Z</time>
                <name>Trackpoint 4277</name>
            </trkpt>
            <trkpt lat="49.9274112" lon="10.8701936">
                <ele>237.0</ele>
                <time>2020-08-22T12:48:50.000Z</time>
                <name>Trackpoint 4278</name>
            </trkpt>
            <trkpt lat="49.9273888" lon="10.8700848">
                <ele>237.0</ele>
                <time>2020-08-22T12:48:52.000Z</time>
                <name>Trackpoint 4279</name>
            </trkpt>
            <trkpt lat="49.9273696" lon="10.8699568">
                <ele>237.0</ele>
                <time>2020-08-22T12:48:54.000Z</time>
                <name>Trackpoint 4280</name>
            </trkpt>
            <trkpt lat="49.927344" lon="10.8698184">
                <ele>237.0</ele>
                <time>2020-08-22T12:48:56.000Z</time>
                <name>Trackpoint 4281</name>
            </trkpt>
            <trkpt lat="49.9273216" lon="10.869672">
                <ele>237.0</ele>
                <time>2020-08-22T12:48:58.000Z</time>
                <name>Trackpoint 4282</name>
            </trkpt>
            <trkpt lat="49.927296" lon="10.8695224">
                <ele>237.0</ele>
                <time>2020-08-22T12:49:00.000Z</time>
                <name>Trackpoint 4283</name>
            </trkpt>
            <trkpt lat="49.927264" lon="10.8693648">
                <ele>236.0</ele>
                <time>2020-08-22T12:49:02.000Z</time>
                <name>Trackpoint 4284</name>
            </trkpt>
            <trkpt lat="49.9272352" lon="10.869208">
                <ele>236.0</ele>
                <time>2020-08-22T12:49:04.000Z</time>
                <name>Trackpoint 4285</name>
            </trkpt>
            <trkpt lat="49.9272064" lon="10.8690616">
                <ele>236.0</ele>
                <time>2020-08-22T12:49:06.000Z</time>
                <name>Trackpoint 4286</name>
            </trkpt>
            <trkpt lat="49.927184" lon="10.8689272">
                <ele>236.0</ele>
                <time>2020-08-22T12:49:08.000Z</time>
                <name>Trackpoint 4287</name>
            </trkpt>
            <trkpt lat="49.9271584" lon="10.868796">
                <ele>236.0</ele>
                <time>2020-08-22T12:49:10.000Z</time>
                <name>Trackpoint 4288</name>
            </trkpt>
            <trkpt lat="49.9271424" lon="10.8686768">
                <ele>236.0</ele>
                <time>2020-08-22T12:49:12.000Z</time>
                <name>Trackpoint 4289</name>
            </trkpt>
            <trkpt lat="49.9271168" lon="10.8685448">
                <ele>237.0</ele>
                <time>2020-08-22T12:49:14.000Z</time>
                <name>Trackpoint 4290</name>
            </trkpt>
            <trkpt lat="49.9270944" lon="10.8684256">
                <ele>237.0</ele>
                <time>2020-08-22T12:49:16.000Z</time>
                <name>Trackpoint 4291</name>
            </trkpt>
            <trkpt lat="49.9270816" lon="10.8682984">
                <ele>237.0</ele>
                <time>2020-08-22T12:49:18.000Z</time>
                <name>Trackpoint 4292</name>
            </trkpt>
            <trkpt lat="49.9270624" lon="10.8681616">
                <ele>236.0</ele>
                <time>2020-08-22T12:49:20.000Z</time>
                <name>Trackpoint 4293</name>
            </trkpt>
            <trkpt lat="49.9270336" lon="10.8680248">
                <ele>236.0</ele>
                <time>2020-08-22T12:49:22.000Z</time>
                <name>Trackpoint 4294</name>
            </trkpt>
            <trkpt lat="49.9269952" lon="10.8678968">
                <ele>236.0</ele>
                <time>2020-08-22T12:49:24.000Z</time>
                <name>Trackpoint 4295</name>
            </trkpt>
            <trkpt lat="49.926944" lon="10.867788">
                <ele>236.0</ele>
                <time>2020-08-22T12:49:26.000Z</time>
                <name>Trackpoint 4296</name>
            </trkpt>
            <trkpt lat="49.9268992" lon="10.8676864">
                <ele>236.0</ele>
                <time>2020-08-22T12:49:28.000Z</time>
                <name>Trackpoint 4297</name>
            </trkpt>
            <trkpt lat="49.9268544" lon="10.8675944">
                <ele>236.0</ele>
                <time>2020-08-22T12:49:30.000Z</time>
                <name>Trackpoint 4298</name>
            </trkpt>
            <trkpt lat="49.926816" lon="10.8675072">
                <ele>235.0</ele>
                <time>2020-08-22T12:49:32.000Z</time>
                <name>Trackpoint 4299</name>
            </trkpt>
            <trkpt lat="49.9267744" lon="10.867412">
                <ele>235.0</ele>
                <time>2020-08-22T12:49:34.000Z</time>
                <name>Trackpoint 4300</name>
            </trkpt>
            <trkpt lat="49.9267232" lon="10.867316">
                <ele>236.0</ele>
                <time>2020-08-22T12:49:36.000Z</time>
                <name>Trackpoint 4301</name>
            </trkpt>
            <trkpt lat="49.9266816" lon="10.8672168">
                <ele>236.0</ele>
                <time>2020-08-22T12:49:38.000Z</time>
                <name>Trackpoint 4302</name>
            </trkpt>
            <trkpt lat="49.92664" lon="10.8671128">
                <ele>236.0</ele>
                <time>2020-08-22T12:49:40.000Z</time>
                <name>Trackpoint 4303</name>
            </trkpt>
            <trkpt lat="49.9265952" lon="10.866992">
                <ele>235.0</ele>
                <time>2020-08-22T12:49:42.000Z</time>
                <name>Trackpoint 4304</name>
            </trkpt>
            <trkpt lat="49.9265504" lon="10.8668496">
                <ele>235.0</ele>
                <time>2020-08-22T12:49:44.000Z</time>
                <name>Trackpoint 4305</name>
            </trkpt>
            <trkpt lat="49.9265088" lon="10.8667096">
                <ele>235.0</ele>
                <time>2020-08-22T12:49:46.000Z</time>
                <name>Trackpoint 4306</name>
            </trkpt>
            <trkpt lat="49.926464" lon="10.8665704">
                <ele>235.0</ele>
                <time>2020-08-22T12:49:48.000Z</time>
                <name>Trackpoint 4307</name>
            </trkpt>
            <trkpt lat="49.9264192" lon="10.8664304">
                <ele>235.0</ele>
                <time>2020-08-22T12:49:50.000Z</time>
                <name>Trackpoint 4308</name>
            </trkpt>
            <trkpt lat="49.9263648" lon="10.8662904">
                <ele>236.0</ele>
                <time>2020-08-22T12:49:52.000Z</time>
                <name>Trackpoint 4309</name>
            </trkpt>
            <trkpt lat="49.9263232" lon="10.866152">
                <ele>237.0</ele>
                <time>2020-08-22T12:49:54.000Z</time>
                <name>Trackpoint 4310</name>
            </trkpt>
            <trkpt lat="49.9262784" lon="10.8660184">
                <ele>237.0</ele>
                <time>2020-08-22T12:49:56.000Z</time>
                <name>Trackpoint 4311</name>
            </trkpt>
            <trkpt lat="49.9262272" lon="10.8658848">
                <ele>236.0</ele>
                <time>2020-08-22T12:49:58.000Z</time>
                <name>Trackpoint 4312</name>
            </trkpt>
            <trkpt lat="49.9261664" lon="10.8657616">
                <ele>236.0</ele>
                <time>2020-08-22T12:50:00.000Z</time>
                <name>Trackpoint 4313</name>
            </trkpt>
            <trkpt lat="49.9261024" lon="10.8656464">
                <ele>235.0</ele>
                <time>2020-08-22T12:50:02.000Z</time>
                <name>Trackpoint 4314</name>
            </trkpt>
            <trkpt lat="49.926032" lon="10.8655456">
                <ele>235.0</ele>
                <time>2020-08-22T12:50:04.000Z</time>
                <name>Trackpoint 4315</name>
            </trkpt>
            <trkpt lat="49.9259616" lon="10.8654496">
                <ele>235.0</ele>
                <time>2020-08-22T12:50:06.000Z</time>
                <name>Trackpoint 4316</name>
            </trkpt>
            <trkpt lat="49.9258912" lon="10.8653632">
                <ele>235.0</ele>
                <time>2020-08-22T12:50:08.000Z</time>
                <name>Trackpoint 4317</name>
            </trkpt>
            <trkpt lat="49.9258208" lon="10.8652696">
                <ele>235.0</ele>
                <time>2020-08-22T12:50:10.000Z</time>
                <name>Trackpoint 4318</name>
            </trkpt>
            <trkpt lat="49.9257472" lon="10.86518">
                <ele>235.0</ele>
                <time>2020-08-22T12:50:12.000Z</time>
                <name>Trackpoint 4319</name>
            </trkpt>
            <trkpt lat="49.9256768" lon="10.8650912">
                <ele>235.0</ele>
                <time>2020-08-22T12:50:14.000Z</time>
                <name>Trackpoint 4320</name>
            </trkpt>
            <trkpt lat="49.9256096" lon="10.8650048">
                <ele>235.0</ele>
                <time>2020-08-22T12:50:16.000Z</time>
                <name>Trackpoint 4321</name>
            </trkpt>
            <trkpt lat="49.9255424" lon="10.8649128">
                <ele>235.0</ele>
                <time>2020-08-22T12:50:18.000Z</time>
                <name>Trackpoint 4322</name>
            </trkpt>
            <trkpt lat="49.925472" lon="10.8648192">
                <ele>235.0</ele>
                <time>2020-08-22T12:50:20.000Z</time>
                <name>Trackpoint 4323</name>
            </trkpt>
            <trkpt lat="49.9254048" lon="10.8647248">
                <ele>235.0</ele>
                <time>2020-08-22T12:50:22.000Z</time>
                <name>Trackpoint 4324</name>
            </trkpt>
            <trkpt lat="49.9253376" lon="10.8646368">
                <ele>235.0</ele>
                <time>2020-08-22T12:50:24.000Z</time>
                <name>Trackpoint 4325</name>
            </trkpt>
            <trkpt lat="49.9252864" lon="10.8645512">
                <ele>235.0</ele>
                <time>2020-08-22T12:50:26.000Z</time>
                <name>Trackpoint 4326</name>
            </trkpt>
            <trkpt lat="49.9252256" lon="10.8644416">
                <ele>236.0</ele>
                <time>2020-08-22T12:50:29.000Z</time>
                <name>Trackpoint 4327</name>
            </trkpt>
            <trkpt lat="49.9251776" lon="10.8643512">
                <ele>236.0</ele>
                <time>2020-08-22T12:50:32.000Z</time>
                <name>Trackpoint 4328</name>
            </trkpt>
            <trkpt lat="49.92512" lon="10.86426">
                <ele>235.0</ele>
                <time>2020-08-22T12:50:36.000Z</time>
                <name>Trackpoint 4329</name>
            </trkpt>
            <trkpt lat="49.9250656" lon="10.8641584">
                <ele>235.0</ele>
                <time>2020-08-22T12:50:40.000Z</time>
                <name>Trackpoint 4330</name>
            </trkpt>
            <trkpt lat="49.9250016" lon="10.8640496">
                <ele>235.0</ele>
                <time>2020-08-22T12:50:43.000Z</time>
                <name>Trackpoint 4331</name>
            </trkpt>
            <trkpt lat="49.9249536" lon="10.8639672">
                <ele>235.0</ele>
                <time>2020-08-22T12:50:45.000Z</time>
                <name>Trackpoint 4332</name>
            </trkpt>
            <trkpt lat="49.924896" lon="10.8638696">
                <ele>234.0</ele>
                <time>2020-08-22T12:50:47.000Z</time>
                <name>Trackpoint 4333</name>
            </trkpt>
            <trkpt lat="49.9248352" lon="10.8637616">
                <ele>234.0</ele>
                <time>2020-08-22T12:50:49.000Z</time>
                <name>Trackpoint 4334</name>
            </trkpt>
            <trkpt lat="49.9247616" lon="10.8636448">
                <ele>233.0</ele>
                <time>2020-08-22T12:50:51.000Z</time>
                <name>Trackpoint 4335</name>
            </trkpt>
            <trkpt lat="49.924688" lon="10.8635184">
                <ele>233.0</ele>
                <time>2020-08-22T12:50:53.000Z</time>
                <name>Trackpoint 4336</name>
            </trkpt>
            <trkpt lat="49.9246208" lon="10.8633832">
                <ele>232.0</ele>
                <time>2020-08-22T12:50:55.000Z</time>
                <name>Trackpoint 4337</name>
            </trkpt>
            <trkpt lat="49.9245504" lon="10.8632616">
                <ele>232.0</ele>
                <time>2020-08-22T12:50:57.000Z</time>
                <name>Trackpoint 4338</name>
            </trkpt>
            <trkpt lat="49.92448" lon="10.86316">
                <ele>232.0</ele>
                <time>2020-08-22T12:50:59.000Z</time>
                <name>Trackpoint 4339</name>
            </trkpt>
            <trkpt lat="49.9244192" lon="10.8630688">
                <ele>232.0</ele>
                <time>2020-08-22T12:51:01.000Z</time>
                <name>Trackpoint 4340</name>
            </trkpt>
            <trkpt lat="49.9243552" lon="10.86298">
                <ele>232.0</ele>
                <time>2020-08-22T12:51:03.000Z</time>
                <name>Trackpoint 4341</name>
            </trkpt>
            <trkpt lat="49.9242432" lon="10.8629568">
                <ele>232.0</ele>
                <time>2020-08-22T12:51:06.000Z</time>
                <name>Trackpoint 4342</name>
            </trkpt>
            <trkpt lat="49.92416" lon="10.8630512">
                <ele>232.0</ele>
                <time>2020-08-22T12:51:09.000Z</time>
                <name>Trackpoint 4343</name>
            </trkpt>
            <trkpt lat="49.9240992" lon="10.8631488">
                <ele>233.0</ele>
                <time>2020-08-22T12:51:12.000Z</time>
                <name>Trackpoint 4344</name>
            </trkpt>
            <trkpt lat="49.9239872" lon="10.8631824">
                <ele>233.0</ele>
                <time>2020-08-22T12:51:16.000Z</time>
                <name>Trackpoint 4345</name>
            </trkpt>
            <trkpt lat="49.9239168" lon="10.8630936">
                <ele>234.0</ele>
                <time>2020-08-22T12:51:19.000Z</time>
                <name>Trackpoint 4346</name>
            </trkpt>
            <trkpt lat="49.9238752" lon="10.8630048">
                <ele>234.0</ele>
                <time>2020-08-22T12:51:21.000Z</time>
                <name>Trackpoint 4347</name>
            </trkpt>
            <trkpt lat="49.9238304" lon="10.8628968">
                <ele>233.0</ele>
                <time>2020-08-22T12:51:23.000Z</time>
                <name>Trackpoint 4348</name>
            </trkpt>
            <trkpt lat="49.923808" lon="10.86278">
                <ele>233.0</ele>
                <time>2020-08-22T12:51:25.000Z</time>
                <name>Trackpoint 4349</name>
            </trkpt>
            <trkpt lat="49.9237824" lon="10.8626496">
                <ele>233.0</ele>
                <time>2020-08-22T12:51:27.000Z</time>
                <name>Trackpoint 4350</name>
            </trkpt>
            <trkpt lat="49.92376" lon="10.8625232">
                <ele>233.0</ele>
                <time>2020-08-22T12:51:29.000Z</time>
                <name>Trackpoint 4351</name>
            </trkpt>
            <trkpt lat="49.9237248" lon="10.8624016">
                <ele>233.0</ele>
                <time>2020-08-22T12:51:31.000Z</time>
                <name>Trackpoint 4352</name>
            </trkpt>
            <trkpt lat="49.9236832" lon="10.8622816">
                <ele>233.0</ele>
                <time>2020-08-22T12:51:33.000Z</time>
                <name>Trackpoint 4353</name>
            </trkpt>
            <trkpt lat="49.923632" lon="10.8621632">
                <ele>233.0</ele>
                <time>2020-08-22T12:51:35.000Z</time>
                <name>Trackpoint 4354</name>
            </trkpt>
            <trkpt lat="49.9235776" lon="10.8620432">
                <ele>232.0</ele>
                <time>2020-08-22T12:51:37.000Z</time>
                <name>Trackpoint 4355</name>
            </trkpt>
            <trkpt lat="49.9235168" lon="10.8619296">
                <ele>232.0</ele>
                <time>2020-08-22T12:51:39.000Z</time>
                <name>Trackpoint 4356</name>
            </trkpt>
            <trkpt lat="49.9234496" lon="10.8618184">
                <ele>232.0</ele>
                <time>2020-08-22T12:51:41.000Z</time>
                <name>Trackpoint 4357</name>
            </trkpt>
            <trkpt lat="49.9233824" lon="10.8617216">
                <ele>232.0</ele>
                <time>2020-08-22T12:51:43.000Z</time>
                <name>Trackpoint 4358</name>
            </trkpt>
            <trkpt lat="49.9233248" lon="10.8616216">
                <ele>232.0</ele>
                <time>2020-08-22T12:51:45.000Z</time>
                <name>Trackpoint 4359</name>
            </trkpt>
            <trkpt lat="49.923264" lon="10.8615264">
                <ele>232.0</ele>
                <time>2020-08-22T12:51:47.000Z</time>
                <name>Trackpoint 4360</name>
            </trkpt>
            <trkpt lat="49.9231936" lon="10.8614352">
                <ele>232.0</ele>
                <time>2020-08-22T12:51:49.000Z</time>
                <name>Trackpoint 4361</name>
            </trkpt>
            <trkpt lat="49.9231392" lon="10.861348">
                <ele>232.0</ele>
                <time>2020-08-22T12:51:51.000Z</time>
                <name>Trackpoint 4362</name>
            </trkpt>
            <trkpt lat="49.923088" lon="10.8612672">
                <ele>231.0</ele>
                <time>2020-08-22T12:51:53.000Z</time>
                <name>Trackpoint 4363</name>
            </trkpt>
            <trkpt lat="49.92304" lon="10.8611784">
                <ele>231.0</ele>
                <time>2020-08-22T12:51:55.000Z</time>
                <name>Trackpoint 4364</name>
            </trkpt>
            <trkpt lat="49.922976" lon="10.8610872">
                <ele>231.0</ele>
                <time>2020-08-22T12:51:57.000Z</time>
                <name>Trackpoint 4365</name>
            </trkpt>
            <trkpt lat="49.922912" lon="10.8609936">
                <ele>231.0</ele>
                <time>2020-08-22T12:51:59.000Z</time>
                <name>Trackpoint 4366</name>
            </trkpt>
            <trkpt lat="49.9228448" lon="10.860904">
                <ele>231.0</ele>
                <time>2020-08-22T12:52:01.000Z</time>
                <name>Trackpoint 4367</name>
            </trkpt>
            <trkpt lat="49.9227712" lon="10.8608176">
                <ele>231.0</ele>
                <time>2020-08-22T12:52:03.000Z</time>
                <name>Trackpoint 4368</name>
            </trkpt>
            <trkpt lat="49.9226944" lon="10.8607368">
                <ele>231.0</ele>
                <time>2020-08-22T12:52:05.000Z</time>
                <name>Trackpoint 4369</name>
            </trkpt>
            <trkpt lat="49.9226272" lon="10.8606384">
                <ele>230.0</ele>
                <time>2020-08-22T12:52:07.000Z</time>
                <name>Trackpoint 4370</name>
            </trkpt>
            <trkpt lat="49.9225632" lon="10.8605272">
                <ele>230.0</ele>
                <time>2020-08-22T12:52:09.000Z</time>
                <name>Trackpoint 4371</name>
            </trkpt>
            <trkpt lat="49.9224992" lon="10.86042">
                <ele>230.0</ele>
                <time>2020-08-22T12:52:11.000Z</time>
                <name>Trackpoint 4372</name>
            </trkpt>
            <trkpt lat="49.9224288" lon="10.8603312">
                <ele>231.0</ele>
                <time>2020-08-22T12:52:13.000Z</time>
                <name>Trackpoint 4373</name>
            </trkpt>
            <trkpt lat="49.922352" lon="10.8602752">
                <ele>231.0</ele>
                <time>2020-08-22T12:52:15.000Z</time>
                <name>Trackpoint 4374</name>
            </trkpt>
            <trkpt lat="49.9222688" lon="10.8602168">
                <ele>232.0</ele>
                <time>2020-08-22T12:52:17.000Z</time>
                <name>Trackpoint 4375</name>
            </trkpt>
            <trkpt lat="49.922192" lon="10.8601528">
                <ele>232.0</ele>
                <time>2020-08-22T12:52:19.000Z</time>
                <name>Trackpoint 4376</name>
            </trkpt>
            <trkpt lat="49.9221216" lon="10.8600752">
                <ele>232.0</ele>
                <time>2020-08-22T12:52:21.000Z</time>
                <name>Trackpoint 4377</name>
            </trkpt>
            <trkpt lat="49.9220576" lon="10.859988">
                <ele>232.0</ele>
                <time>2020-08-22T12:52:23.000Z</time>
                <name>Trackpoint 4378</name>
            </trkpt>
            <trkpt lat="49.9219936" lon="10.859892">
                <ele>232.0</ele>
                <time>2020-08-22T12:52:25.000Z</time>
                <name>Trackpoint 4379</name>
            </trkpt>
            <trkpt lat="49.92192" lon="10.8597968">
                <ele>232.0</ele>
                <time>2020-08-22T12:52:27.000Z</time>
                <name>Trackpoint 4380</name>
            </trkpt>
            <trkpt lat="49.9218496" lon="10.8596952">
                <ele>231.0</ele>
                <time>2020-08-22T12:52:29.000Z</time>
                <name>Trackpoint 4381</name>
            </trkpt>
            <trkpt lat="49.921776" lon="10.85958">
                <ele>231.0</ele>
                <time>2020-08-22T12:52:31.000Z</time>
                <name>Trackpoint 4382</name>
            </trkpt>
            <trkpt lat="49.9216992" lon="10.85946">
                <ele>231.0</ele>
                <time>2020-08-22T12:52:33.000Z</time>
                <name>Trackpoint 4383</name>
            </trkpt>
            <trkpt lat="49.9216256" lon="10.8593352">
                <ele>231.0</ele>
                <time>2020-08-22T12:52:35.000Z</time>
                <name>Trackpoint 4384</name>
            </trkpt>
            <trkpt lat="49.9215648" lon="10.8592032">
                <ele>231.0</ele>
                <time>2020-08-22T12:52:37.000Z</time>
                <name>Trackpoint 4385</name>
            </trkpt>
            <trkpt lat="49.9214944" lon="10.8590832">
                <ele>231.0</ele>
                <time>2020-08-22T12:52:39.000Z</time>
                <name>Trackpoint 4386</name>
            </trkpt>
            <trkpt lat="49.9214176" lon="10.8589696">
                <ele>231.0</ele>
                <time>2020-08-22T12:52:41.000Z</time>
                <name>Trackpoint 4387</name>
            </trkpt>
            <trkpt lat="49.9213408" lon="10.858856">
                <ele>231.0</ele>
                <time>2020-08-22T12:52:43.000Z</time>
                <name>Trackpoint 4388</name>
            </trkpt>
            <trkpt lat="49.9212672" lon="10.8587416">
                <ele>231.0</ele>
                <time>2020-08-22T12:52:45.000Z</time>
                <name>Trackpoint 4389</name>
            </trkpt>
            <trkpt lat="49.9212" lon="10.8586168">
                <ele>231.0</ele>
                <time>2020-08-22T12:52:47.000Z</time>
                <name>Trackpoint 4390</name>
            </trkpt>
            <trkpt lat="49.9211264" lon="10.8584856">
                <ele>231.0</ele>
                <time>2020-08-22T12:52:49.000Z</time>
                <name>Trackpoint 4391</name>
            </trkpt>
            <trkpt lat="49.9210592" lon="10.8583472">
                <ele>231.0</ele>
                <time>2020-08-22T12:52:51.000Z</time>
                <name>Trackpoint 4392</name>
            </trkpt>
            <trkpt lat="49.9209856" lon="10.8582112">
                <ele>231.0</ele>
                <time>2020-08-22T12:52:53.000Z</time>
                <name>Trackpoint 4393</name>
            </trkpt>
            <trkpt lat="49.9209184" lon="10.8580848">
                <ele>231.0</ele>
                <time>2020-08-22T12:52:55.000Z</time>
                <name>Trackpoint 4394</name>
            </trkpt>
            <trkpt lat="49.920848" lon="10.8579616">
                <ele>231.0</ele>
                <time>2020-08-22T12:52:57.000Z</time>
                <name>Trackpoint 4395</name>
            </trkpt>
            <trkpt lat="49.920784" lon="10.8578352">
                <ele>231.0</ele>
                <time>2020-08-22T12:52:59.000Z</time>
                <name>Trackpoint 4396</name>
            </trkpt>
            <trkpt lat="49.9207104" lon="10.8577096">
                <ele>231.0</ele>
                <time>2020-08-22T12:53:01.000Z</time>
                <name>Trackpoint 4397</name>
            </trkpt>
            <trkpt lat="49.9206368" lon="10.857592">
                <ele>231.0</ele>
                <time>2020-08-22T12:53:03.000Z</time>
                <name>Trackpoint 4398</name>
            </trkpt>
            <trkpt lat="49.9205536" lon="10.8574832">
                <ele>231.0</ele>
                <time>2020-08-22T12:53:05.000Z</time>
                <name>Trackpoint 4399</name>
            </trkpt>
            <trkpt lat="49.9204704" lon="10.8573936">
                <ele>232.0</ele>
                <time>2020-08-22T12:53:07.000Z</time>
                <name>Trackpoint 4400</name>
            </trkpt>
            <trkpt lat="49.9203808" lon="10.8573368">
                <ele>232.0</ele>
                <time>2020-08-22T12:53:09.000Z</time>
                <name>Trackpoint 4401</name>
            </trkpt>
            <trkpt lat="49.9202848" lon="10.8572968">
                <ele>232.0</ele>
                <time>2020-08-22T12:53:11.000Z</time>
                <name>Trackpoint 4402</name>
            </trkpt>
            <trkpt lat="49.920192" lon="10.8572568">
                <ele>232.0</ele>
                <time>2020-08-22T12:53:13.000Z</time>
                <name>Trackpoint 4403</name>
            </trkpt>
            <trkpt lat="49.920096" lon="10.8572256">
                <ele>232.0</ele>
                <time>2020-08-22T12:53:15.000Z</time>
                <name>Trackpoint 4404</name>
            </trkpt>
            <trkpt lat="49.9200032" lon="10.8571864">
                <ele>232.0</ele>
                <time>2020-08-22T12:53:17.000Z</time>
                <name>Trackpoint 4405</name>
            </trkpt>
            <trkpt lat="49.9199104" lon="10.8571504">
                <ele>232.0</ele>
                <time>2020-08-22T12:53:19.000Z</time>
                <name>Trackpoint 4406</name>
            </trkpt>
            <trkpt lat="49.919824" lon="10.8571104">
                <ele>232.0</ele>
                <time>2020-08-22T12:53:21.000Z</time>
                <name>Trackpoint 4407</name>
            </trkpt>
            <trkpt lat="49.9197344" lon="10.8570568">
                <ele>232.0</ele>
                <time>2020-08-22T12:53:23.000Z</time>
                <name>Trackpoint 4408</name>
            </trkpt>
            <trkpt lat="49.9196512" lon="10.8570016">
                <ele>232.0</ele>
                <time>2020-08-22T12:53:25.000Z</time>
                <name>Trackpoint 4409</name>
            </trkpt>
            <trkpt lat="49.919568" lon="10.8569368">
                <ele>232.0</ele>
                <time>2020-08-22T12:53:27.000Z</time>
                <name>Trackpoint 4410</name>
            </trkpt>
            <trkpt lat="49.9194912" lon="10.8568624">
                <ele>232.0</ele>
                <time>2020-08-22T12:53:29.000Z</time>
                <name>Trackpoint 4411</name>
            </trkpt>
            <trkpt lat="49.9194112" lon="10.8567984">
                <ele>232.0</ele>
                <time>2020-08-22T12:53:31.000Z</time>
                <name>Trackpoint 4412</name>
            </trkpt>
            <trkpt lat="49.9193312" lon="10.8567336">
                <ele>232.0</ele>
                <time>2020-08-22T12:53:33.000Z</time>
                <name>Trackpoint 4413</name>
            </trkpt>
            <trkpt lat="49.9192512" lon="10.85666">
                <ele>232.0</ele>
                <time>2020-08-22T12:53:35.000Z</time>
                <name>Trackpoint 4414</name>
            </trkpt>
            <trkpt lat="49.9191712" lon="10.856588">
                <ele>232.0</ele>
                <time>2020-08-22T12:53:37.000Z</time>
                <name>Trackpoint 4415</name>
            </trkpt>
            <trkpt lat="49.9190912" lon="10.8565184">
                <ele>232.0</ele>
                <time>2020-08-22T12:53:39.000Z</time>
                <name>Trackpoint 4416</name>
            </trkpt>
            <trkpt lat="49.9190048" lon="10.8564528">
                <ele>231.0</ele>
                <time>2020-08-22T12:53:41.000Z</time>
                <name>Trackpoint 4417</name>
            </trkpt>
            <trkpt lat="49.9189184" lon="10.8563992">
                <ele>231.0</ele>
                <time>2020-08-22T12:53:43.000Z</time>
                <name>Trackpoint 4418</name>
            </trkpt>
            <trkpt lat="49.9188352" lon="10.8563568">
                <ele>231.0</ele>
                <time>2020-08-22T12:53:45.000Z</time>
                <name>Trackpoint 4419</name>
            </trkpt>
            <trkpt lat="49.9187136" lon="10.8563248">
                <ele>231.0</ele>
                <time>2020-08-22T12:53:48.000Z</time>
                <name>Trackpoint 4420</name>
            </trkpt>
            <trkpt lat="49.9185984" lon="10.856328">
                <ele>232.0</ele>
                <time>2020-08-22T12:53:51.000Z</time>
                <name>Trackpoint 4421</name>
            </trkpt>
            <trkpt lat="49.9184832" lon="10.856352">
                <ele>232.0</ele>
                <time>2020-08-22T12:53:55.000Z</time>
                <name>Trackpoint 4422</name>
            </trkpt>
            <trkpt lat="49.918368" lon="10.8563616">
                <ele>231.0</ele>
                <time>2020-08-22T12:53:59.000Z</time>
                <name>Trackpoint 4423</name>
            </trkpt>
            <trkpt lat="49.9182624" lon="10.8563656">
                <ele>232.0</ele>
                <time>2020-08-22T12:54:03.000Z</time>
                <name>Trackpoint 4424</name>
            </trkpt>
            <trkpt lat="49.9181472" lon="10.8563744">
                <ele>231.0</ele>
                <time>2020-08-22T12:54:07.000Z</time>
                <name>Trackpoint 4425</name>
            </trkpt>
            <trkpt lat="49.9180384" lon="10.8563784">
                <ele>231.0</ele>
                <time>2020-08-22T12:54:11.000Z</time>
                <name>Trackpoint 4426</name>
            </trkpt>
            <trkpt lat="49.9179488" lon="10.856388">
                <ele>232.0</ele>
                <time>2020-08-22T12:54:14.000Z</time>
                <name>Trackpoint 4427</name>
            </trkpt>
            <trkpt lat="49.9178528" lon="10.8564064">
                <ele>232.0</ele>
                <time>2020-08-22T12:54:17.000Z</time>
                <name>Trackpoint 4428</name>
            </trkpt>
            <trkpt lat="49.9177504" lon="10.8564216">
                <ele>232.0</ele>
                <time>2020-08-22T12:54:20.000Z</time>
                <name>Trackpoint 4429</name>
            </trkpt>
            <trkpt lat="49.9176512" lon="10.8564456">
                <ele>232.0</ele>
                <time>2020-08-22T12:54:23.000Z</time>
                <name>Trackpoint 4430</name>
            </trkpt>
            <trkpt lat="49.9175392" lon="10.856468">
                <ele>233.0</ele>
                <time>2020-08-22T12:54:26.000Z</time>
                <name>Trackpoint 4431</name>
            </trkpt>
            <trkpt lat="49.9174144" lon="10.8564816">
                <ele>233.0</ele>
                <time>2020-08-22T12:54:29.000Z</time>
                <name>Trackpoint 4432</name>
            </trkpt>
            <trkpt lat="49.9172928" lon="10.8565032">
                <ele>233.0</ele>
                <time>2020-08-22T12:54:32.000Z</time>
                <name>Trackpoint 4433</name>
            </trkpt>
            <trkpt lat="49.917168" lon="10.8564856">
                <ele>234.0</ele>
                <time>2020-08-22T12:54:35.000Z</time>
                <name>Trackpoint 4434</name>
            </trkpt>
            <trkpt lat="49.9170848" lon="10.8564384">
                <ele>234.0</ele>
                <time>2020-08-22T12:54:37.000Z</time>
                <name>Trackpoint 4435</name>
            </trkpt>
            <trkpt lat="49.9170144" lon="10.8563616">
                <ele>234.0</ele>
                <time>2020-08-22T12:54:39.000Z</time>
                <name>Trackpoint 4436</name>
            </trkpt>
            <trkpt lat="49.916944" lon="10.8562568">
                <ele>235.0</ele>
                <time>2020-08-22T12:54:41.000Z</time>
                <name>Trackpoint 4437</name>
            </trkpt>
            <trkpt lat="49.9168736" lon="10.856136">
                <ele>235.0</ele>
                <time>2020-08-22T12:54:43.000Z</time>
                <name>Trackpoint 4438</name>
            </trkpt>
            <trkpt lat="49.9168064" lon="10.8560064">
                <ele>235.0</ele>
                <time>2020-08-22T12:54:45.000Z</time>
                <name>Trackpoint 4439</name>
            </trkpt>
            <trkpt lat="49.9167168" lon="10.8558648">
                <ele>235.0</ele>
                <time>2020-08-22T12:54:47.000Z</time>
                <name>Trackpoint 4440</name>
            </trkpt>
            <trkpt lat="49.916608" lon="10.8557384">
                <ele>235.0</ele>
                <time>2020-08-22T12:54:49.000Z</time>
                <name>Trackpoint 4441</name>
            </trkpt>
            <trkpt lat="49.9165408" lon="10.8556744">
                <ele>236.0</ele>
                <time>2020-08-22T12:54:50.000Z</time>
                <name>Trackpoint 4442</name>
            </trkpt>
            <trkpt lat="49.9164192" lon="10.855572">
                <ele>235.0</ele>
                <time>2020-08-22T12:54:52.000Z</time>
                <name>Trackpoint 4443</name>
            </trkpt>
            <trkpt lat="49.916304" lon="10.8554752">
                <ele>235.0</ele>
                <time>2020-08-22T12:54:54.000Z</time>
                <name>Trackpoint 4444</name>
            </trkpt>
            <trkpt lat="49.916192" lon="10.8553784">
                <ele>234.0</ele>
                <time>2020-08-22T12:54:56.000Z</time>
                <name>Trackpoint 4445</name>
            </trkpt>
            <trkpt lat="49.9160736" lon="10.85532">
                <ele>234.0</ele>
                <time>2020-08-22T12:54:58.000Z</time>
                <name>Trackpoint 4446</name>
            </trkpt>
            <trkpt lat="49.9159616" lon="10.8553536">
                <ele>234.0</ele>
                <time>2020-08-22T12:55:00.000Z</time>
                <name>Trackpoint 4447</name>
            </trkpt>
            <trkpt lat="49.9158752" lon="10.8554672">
                <ele>234.0</ele>
                <time>2020-08-22T12:55:02.000Z</time>
                <name>Trackpoint 4448</name>
            </trkpt>
            <trkpt lat="49.9157984" lon="10.8556">
                <ele>234.0</ele>
                <time>2020-08-22T12:55:04.000Z</time>
                <name>Trackpoint 4449</name>
            </trkpt>
            <trkpt lat="49.9157344" lon="10.8557384">
                <ele>234.0</ele>
                <time>2020-08-22T12:55:06.000Z</time>
                <name>Trackpoint 4450</name>
            </trkpt>
            <trkpt lat="49.9156832" lon="10.8558848">
                <ele>234.0</ele>
                <time>2020-08-22T12:55:08.000Z</time>
                <name>Trackpoint 4451</name>
            </trkpt>
            <trkpt lat="49.9156416" lon="10.8560336">
                <ele>234.0</ele>
                <time>2020-08-22T12:55:10.000Z</time>
                <name>Trackpoint 4452</name>
            </trkpt>
            <trkpt lat="49.9156" lon="10.8561696">
                <ele>234.0</ele>
                <time>2020-08-22T12:55:12.000Z</time>
                <name>Trackpoint 4453</name>
            </trkpt>
            <trkpt lat="49.915536" lon="10.8562832">
                <ele>233.0</ele>
                <time>2020-08-22T12:55:14.000Z</time>
                <name>Trackpoint 4454</name>
            </trkpt>
            <trkpt lat="49.9154496" lon="10.8563608">
                <ele>234.0</ele>
                <time>2020-08-22T12:55:16.000Z</time>
                <name>Trackpoint 4455</name>
            </trkpt>
            <trkpt lat="49.91536" lon="10.8563992">
                <ele>233.0</ele>
                <time>2020-08-22T12:55:18.000Z</time>
                <name>Trackpoint 4456</name>
            </trkpt>
            <trkpt lat="49.9152608" lon="10.8564256">
                <ele>233.0</ele>
                <time>2020-08-22T12:55:20.000Z</time>
                <name>Trackpoint 4457</name>
            </trkpt>
            <trkpt lat="49.9151616" lon="10.8564392">
                <ele>233.0</ele>
                <time>2020-08-22T12:55:22.000Z</time>
                <name>Trackpoint 4458</name>
            </trkpt>
            <trkpt lat="49.9150528" lon="10.8564264">
                <ele>233.0</ele>
                <time>2020-08-22T12:55:24.000Z</time>
                <name>Trackpoint 4459</name>
            </trkpt>
            <trkpt lat="49.9149504" lon="10.8563984">
                <ele>233.0</ele>
                <time>2020-08-22T12:55:26.000Z</time>
                <name>Trackpoint 4460</name>
            </trkpt>
            <trkpt lat="49.9148512" lon="10.8563448">
                <ele>233.0</ele>
                <time>2020-08-22T12:55:28.000Z</time>
                <name>Trackpoint 4461</name>
            </trkpt>
            <trkpt lat="49.9147552" lon="10.856268">
                <ele>233.0</ele>
                <time>2020-08-22T12:55:30.000Z</time>
                <name>Trackpoint 4462</name>
            </trkpt>
            <trkpt lat="49.9146656" lon="10.8561848">
                <ele>233.0</ele>
                <time>2020-08-22T12:55:32.000Z</time>
                <name>Trackpoint 4463</name>
            </trkpt>
            <trkpt lat="49.9145664" lon="10.8561016">
                <ele>233.0</ele>
                <time>2020-08-22T12:55:34.000Z</time>
                <name>Trackpoint 4464</name>
            </trkpt>
            <trkpt lat="49.9144672" lon="10.8560536">
                <ele>233.0</ele>
                <time>2020-08-22T12:55:36.000Z</time>
                <name>Trackpoint 4465</name>
            </trkpt>
            <trkpt lat="49.9143712" lon="10.856024">
                <ele>233.0</ele>
                <time>2020-08-22T12:55:38.000Z</time>
                <name>Trackpoint 4466</name>
            </trkpt>
            <trkpt lat="49.9142752" lon="10.85598">
                <ele>233.0</ele>
                <time>2020-08-22T12:55:40.000Z</time>
                <name>Trackpoint 4467</name>
            </trkpt>
            <trkpt lat="49.9141952" lon="10.8559048">
                <ele>233.0</ele>
                <time>2020-08-22T12:55:42.000Z</time>
                <name>Trackpoint 4468</name>
            </trkpt>
            <trkpt lat="49.9141312" lon="10.8557968">
                <ele>233.0</ele>
                <time>2020-08-22T12:55:44.000Z</time>
                <name>Trackpoint 4469</name>
            </trkpt>
            <trkpt lat="49.9140672" lon="10.8556808">
                <ele>232.0</ele>
                <time>2020-08-22T12:55:46.000Z</time>
                <name>Trackpoint 4470</name>
            </trkpt>
            <trkpt lat="49.9139968" lon="10.855568">
                <ele>232.0</ele>
                <time>2020-08-22T12:55:48.000Z</time>
                <name>Trackpoint 4471</name>
            </trkpt>
            <trkpt lat="49.9139264" lon="10.85546">
                <ele>232.0</ele>
                <time>2020-08-22T12:55:50.000Z</time>
                <name>Trackpoint 4472</name>
            </trkpt>
            <trkpt lat="49.9138592" lon="10.855356">
                <ele>232.0</ele>
                <time>2020-08-22T12:55:52.000Z</time>
                <name>Trackpoint 4473</name>
            </trkpt>
            <trkpt lat="49.913792" lon="10.8552448">
                <ele>232.0</ele>
                <time>2020-08-22T12:55:54.000Z</time>
                <name>Trackpoint 4474</name>
            </trkpt>
            <trkpt lat="49.913728" lon="10.8551368">
                <ele>232.0</ele>
                <time>2020-08-22T12:55:56.000Z</time>
                <name>Trackpoint 4475</name>
            </trkpt>
            <trkpt lat="49.9136608" lon="10.8550304">
                <ele>232.0</ele>
                <time>2020-08-22T12:55:58.000Z</time>
                <name>Trackpoint 4476</name>
            </trkpt>
            <trkpt lat="49.9135968" lon="10.8549248">
                <ele>232.0</ele>
                <time>2020-08-22T12:56:00.000Z</time>
                <name>Trackpoint 4477</name>
            </trkpt>
            <trkpt lat="49.9135328" lon="10.85482">
                <ele>231.0</ele>
                <time>2020-08-22T12:56:02.000Z</time>
                <name>Trackpoint 4478</name>
            </trkpt>
            <trkpt lat="49.9134752" lon="10.8547184">
                <ele>231.0</ele>
                <time>2020-08-22T12:56:04.000Z</time>
                <name>Trackpoint 4479</name>
            </trkpt>
            <trkpt lat="49.9134144" lon="10.8546216">
                <ele>232.0</ele>
                <time>2020-08-22T12:56:06.000Z</time>
                <name>Trackpoint 4480</name>
            </trkpt>
            <trkpt lat="49.9133504" lon="10.8545264">
                <ele>232.0</ele>
                <time>2020-08-22T12:56:08.000Z</time>
                <name>Trackpoint 4481</name>
            </trkpt>
            <trkpt lat="49.9132928" lon="10.854432">
                <ele>232.0</ele>
                <time>2020-08-22T12:56:10.000Z</time>
                <name>Trackpoint 4482</name>
            </trkpt>
            <trkpt lat="49.913232" lon="10.8543352">
                <ele>232.0</ele>
                <time>2020-08-22T12:56:12.000Z</time>
                <name>Trackpoint 4483</name>
            </trkpt>
            <trkpt lat="49.9131648" lon="10.8542344">
                <ele>232.0</ele>
                <time>2020-08-22T12:56:14.000Z</time>
                <name>Trackpoint 4484</name>
            </trkpt>
            <trkpt lat="49.913104" lon="10.8541368">
                <ele>232.0</ele>
                <time>2020-08-22T12:56:16.000Z</time>
                <name>Trackpoint 4485</name>
            </trkpt>
            <trkpt lat="49.9130464" lon="10.85404">
                <ele>232.0</ele>
                <time>2020-08-22T12:56:18.000Z</time>
                <name>Trackpoint 4486</name>
            </trkpt>
            <trkpt lat="49.9129856" lon="10.85394">
                <ele>232.0</ele>
                <time>2020-08-22T12:56:20.000Z</time>
                <name>Trackpoint 4487</name>
            </trkpt>
            <trkpt lat="49.9129216" lon="10.8538376">
                <ele>232.0</ele>
                <time>2020-08-22T12:56:22.000Z</time>
                <name>Trackpoint 4488</name>
            </trkpt>
            <trkpt lat="49.9128608" lon="10.8537352">
                <ele>232.0</ele>
                <time>2020-08-22T12:56:24.000Z</time>
                <name>Trackpoint 4489</name>
            </trkpt>
            <trkpt lat="49.9128" lon="10.8536352">
                <ele>232.0</ele>
                <time>2020-08-22T12:56:26.000Z</time>
                <name>Trackpoint 4490</name>
            </trkpt>
            <trkpt lat="49.9127296" lon="10.8535336">
                <ele>232.0</ele>
                <time>2020-08-22T12:56:28.000Z</time>
                <name>Trackpoint 4491</name>
            </trkpt>
            <trkpt lat="49.9126624" lon="10.853432">
                <ele>232.0</ele>
                <time>2020-08-22T12:56:30.000Z</time>
                <name>Trackpoint 4492</name>
            </trkpt>
            <trkpt lat="49.9126016" lon="10.8533288">
                <ele>233.0</ele>
                <time>2020-08-22T12:56:32.000Z</time>
                <name>Trackpoint 4493</name>
            </trkpt>
            <trkpt lat="49.9125376" lon="10.8532248">
                <ele>233.0</ele>
                <time>2020-08-22T12:56:34.000Z</time>
                <name>Trackpoint 4494</name>
            </trkpt>
            <trkpt lat="49.9124704" lon="10.8531176">
                <ele>233.0</ele>
                <time>2020-08-22T12:56:36.000Z</time>
                <name>Trackpoint 4495</name>
            </trkpt>
            <trkpt lat="49.9124096" lon="10.8530128">
                <ele>233.0</ele>
                <time>2020-08-22T12:56:38.000Z</time>
                <name>Trackpoint 4496</name>
            </trkpt>
            <trkpt lat="49.9123424" lon="10.8529056">
                <ele>233.0</ele>
                <time>2020-08-22T12:56:40.000Z</time>
                <name>Trackpoint 4497</name>
            </trkpt>
            <trkpt lat="49.912272" lon="10.8527968">
                <ele>232.0</ele>
                <time>2020-08-22T12:56:42.000Z</time>
                <name>Trackpoint 4498</name>
            </trkpt>
            <trkpt lat="49.9122048" lon="10.8526824">
                <ele>232.0</ele>
                <time>2020-08-22T12:56:44.000Z</time>
                <name>Trackpoint 4499</name>
            </trkpt>
            <trkpt lat="49.9121408" lon="10.8525648">
                <ele>232.0</ele>
                <time>2020-08-22T12:56:46.000Z</time>
                <name>Trackpoint 4500</name>
            </trkpt>
            <trkpt lat="49.9120704" lon="10.8524416">
                <ele>233.0</ele>
                <time>2020-08-22T12:56:48.000Z</time>
                <name>Trackpoint 4501</name>
            </trkpt>
            <trkpt lat="49.9120064" lon="10.8523216">
                <ele>233.0</ele>
                <time>2020-08-22T12:56:50.000Z</time>
                <name>Trackpoint 4502</name>
            </trkpt>
            <trkpt lat="49.9119392" lon="10.8522032">
                <ele>233.0</ele>
                <time>2020-08-22T12:56:52.000Z</time>
                <name>Trackpoint 4503</name>
            </trkpt>
            <trkpt lat="49.9118688" lon="10.8520872">
                <ele>233.0</ele>
                <time>2020-08-22T12:56:54.000Z</time>
                <name>Trackpoint 4504</name>
            </trkpt>
            <trkpt lat="49.9118016" lon="10.8519672">
                <ele>233.0</ele>
                <time>2020-08-22T12:56:56.000Z</time>
                <name>Trackpoint 4505</name>
            </trkpt>
            <trkpt lat="49.9117344" lon="10.8518496">
                <ele>233.0</ele>
                <time>2020-08-22T12:56:58.000Z</time>
                <name>Trackpoint 4506</name>
            </trkpt>
            <trkpt lat="49.9116672" lon="10.8517352">
                <ele>233.0</ele>
                <time>2020-08-22T12:57:00.000Z</time>
                <name>Trackpoint 4507</name>
            </trkpt>
            <trkpt lat="49.9116032" lon="10.8516128">
                <ele>233.0</ele>
                <time>2020-08-22T12:57:02.000Z</time>
                <name>Trackpoint 4508</name>
            </trkpt>
            <trkpt lat="49.911536" lon="10.8514944">
                <ele>233.0</ele>
                <time>2020-08-22T12:57:04.000Z</time>
                <name>Trackpoint 4509</name>
            </trkpt>
            <trkpt lat="49.9114752" lon="10.8513816">
                <ele>233.0</ele>
                <time>2020-08-22T12:57:06.000Z</time>
                <name>Trackpoint 4510</name>
            </trkpt>
            <trkpt lat="49.9114176" lon="10.8512688">
                <ele>233.0</ele>
                <time>2020-08-22T12:57:08.000Z</time>
                <name>Trackpoint 4511</name>
            </trkpt>
            <trkpt lat="49.9113568" lon="10.8511496">
                <ele>233.0</ele>
                <time>2020-08-22T12:57:10.000Z</time>
                <name>Trackpoint 4512</name>
            </trkpt>
            <trkpt lat="49.9112928" lon="10.8510352">
                <ele>233.0</ele>
                <time>2020-08-22T12:57:12.000Z</time>
                <name>Trackpoint 4513</name>
            </trkpt>
            <trkpt lat="49.9112288" lon="10.85092">
                <ele>233.0</ele>
                <time>2020-08-22T12:57:14.000Z</time>
                <name>Trackpoint 4514</name>
            </trkpt>
            <trkpt lat="49.9111584" lon="10.8507984">
                <ele>232.0</ele>
                <time>2020-08-22T12:57:16.000Z</time>
                <name>Trackpoint 4515</name>
            </trkpt>
            <trkpt lat="49.9111008" lon="10.8506784">
                <ele>232.0</ele>
                <time>2020-08-22T12:57:18.000Z</time>
                <name>Trackpoint 4516</name>
            </trkpt>
            <trkpt lat="49.9110464" lon="10.8505552">
                <ele>232.0</ele>
                <time>2020-08-22T12:57:20.000Z</time>
                <name>Trackpoint 4517</name>
            </trkpt>
            <trkpt lat="49.9109888" lon="10.8504296">
                <ele>232.0</ele>
                <time>2020-08-22T12:57:22.000Z</time>
                <name>Trackpoint 4518</name>
            </trkpt>
            <trkpt lat="49.910928" lon="10.8502976">
                <ele>232.0</ele>
                <time>2020-08-22T12:57:24.000Z</time>
                <name>Trackpoint 4519</name>
            </trkpt>
            <trkpt lat="49.9108608" lon="10.8501632">
                <ele>232.0</ele>
                <time>2020-08-22T12:57:26.000Z</time>
                <name>Trackpoint 4520</name>
            </trkpt>
            <trkpt lat="49.9108" lon="10.8500248">
                <ele>232.0</ele>
                <time>2020-08-22T12:57:28.000Z</time>
                <name>Trackpoint 4521</name>
            </trkpt>
            <trkpt lat="49.9107424" lon="10.8498888">
                <ele>231.0</ele>
                <time>2020-08-22T12:57:30.000Z</time>
                <name>Trackpoint 4522</name>
            </trkpt>
            <trkpt lat="49.9106816" lon="10.8497448">
                <ele>231.0</ele>
                <time>2020-08-22T12:57:32.000Z</time>
                <name>Trackpoint 4523</name>
            </trkpt>
            <trkpt lat="49.9106336" lon="10.8495952">
                <ele>231.0</ele>
                <time>2020-08-22T12:57:34.000Z</time>
                <name>Trackpoint 4524</name>
            </trkpt>
            <trkpt lat="49.9105984" lon="10.8494368">
                <ele>230.0</ele>
                <time>2020-08-22T12:57:36.000Z</time>
                <name>Trackpoint 4525</name>
            </trkpt>
            <trkpt lat="49.9105728" lon="10.8492736">
                <ele>231.0</ele>
                <time>2020-08-22T12:57:38.000Z</time>
                <name>Trackpoint 4526</name>
            </trkpt>
            <trkpt lat="49.9105408" lon="10.8491224">
                <ele>231.0</ele>
                <time>2020-08-22T12:57:40.000Z</time>
                <name>Trackpoint 4527</name>
            </trkpt>
            <trkpt lat="49.910496" lon="10.84898">
                <ele>231.0</ele>
                <time>2020-08-22T12:57:42.000Z</time>
                <name>Trackpoint 4528</name>
            </trkpt>
            <trkpt lat="49.9104384" lon="10.8488528">
                <ele>231.0</ele>
                <time>2020-08-22T12:57:44.000Z</time>
                <name>Trackpoint 4529</name>
            </trkpt>
            <trkpt lat="49.9103776" lon="10.8487384">
                <ele>231.0</ele>
                <time>2020-08-22T12:57:46.000Z</time>
                <name>Trackpoint 4530</name>
            </trkpt>
            <trkpt lat="49.9103168" lon="10.8486184">
                <ele>231.0</ele>
                <time>2020-08-22T12:57:48.000Z</time>
                <name>Trackpoint 4531</name>
            </trkpt>
            <trkpt lat="49.9102624" lon="10.8484888">
                <ele>231.0</ele>
                <time>2020-08-22T12:57:50.000Z</time>
                <name>Trackpoint 4532</name>
            </trkpt>
            <trkpt lat="49.9102048" lon="10.8483584">
                <ele>231.0</ele>
                <time>2020-08-22T12:57:52.000Z</time>
                <name>Trackpoint 4533</name>
            </trkpt>
            <trkpt lat="49.9101472" lon="10.8482248">
                <ele>231.0</ele>
                <time>2020-08-22T12:57:54.000Z</time>
                <name>Trackpoint 4534</name>
            </trkpt>
            <trkpt lat="49.9100992" lon="10.848088">
                <ele>231.0</ele>
                <time>2020-08-22T12:57:56.000Z</time>
                <name>Trackpoint 4535</name>
            </trkpt>
            <trkpt lat="49.910048" lon="10.8479472">
                <ele>231.0</ele>
                <time>2020-08-22T12:57:58.000Z</time>
                <name>Trackpoint 4536</name>
            </trkpt>
            <trkpt lat="49.91" lon="10.8478016">
                <ele>231.0</ele>
                <time>2020-08-22T12:58:00.000Z</time>
                <name>Trackpoint 4537</name>
            </trkpt>
            <trkpt lat="49.9099488" lon="10.8476584">
                <ele>231.0</ele>
                <time>2020-08-22T12:58:02.000Z</time>
                <name>Trackpoint 4538</name>
            </trkpt>
            <trkpt lat="49.9099072" lon="10.8475088">
                <ele>231.0</ele>
                <time>2020-08-22T12:58:04.000Z</time>
                <name>Trackpoint 4539</name>
            </trkpt>
            <trkpt lat="49.9098688" lon="10.8473504">
                <ele>231.0</ele>
                <time>2020-08-22T12:58:06.000Z</time>
                <name>Trackpoint 4540</name>
            </trkpt>
            <trkpt lat="49.9098336" lon="10.8471936">
                <ele>231.0</ele>
                <time>2020-08-22T12:58:08.000Z</time>
                <name>Trackpoint 4541</name>
            </trkpt>
            <trkpt lat="49.9097952" lon="10.8470336">
                <ele>231.0</ele>
                <time>2020-08-22T12:58:10.000Z</time>
                <name>Trackpoint 4542</name>
            </trkpt>
            <trkpt lat="49.909776" lon="10.8468848">
                <ele>231.0</ele>
                <time>2020-08-22T12:58:12.000Z</time>
                <name>Trackpoint 4543</name>
            </trkpt>
            <trkpt lat="49.9097504" lon="10.846732">
                <ele>230.0</ele>
                <time>2020-08-22T12:58:14.000Z</time>
                <name>Trackpoint 4544</name>
            </trkpt>
            <trkpt lat="49.9097248" lon="10.846588">
                <ele>230.0</ele>
                <time>2020-08-22T12:58:16.000Z</time>
                <name>Trackpoint 4545</name>
            </trkpt>
            <trkpt lat="49.9096864" lon="10.846448">
                <ele>231.0</ele>
                <time>2020-08-22T12:58:18.000Z</time>
                <name>Trackpoint 4546</name>
            </trkpt>
            <trkpt lat="49.9096384" lon="10.84632">
                <ele>231.0</ele>
                <time>2020-08-22T12:58:20.000Z</time>
                <name>Trackpoint 4547</name>
            </trkpt>
            <trkpt lat="49.909584" lon="10.8461968">
                <ele>231.0</ele>
                <time>2020-08-22T12:58:22.000Z</time>
                <name>Trackpoint 4548</name>
            </trkpt>
            <trkpt lat="49.9095264" lon="10.8460816">
                <ele>231.0</ele>
                <time>2020-08-22T12:58:24.000Z</time>
                <name>Trackpoint 4549</name>
            </trkpt>
            <trkpt lat="49.9094784" lon="10.84596">
                <ele>232.0</ele>
                <time>2020-08-22T12:58:26.000Z</time>
                <name>Trackpoint 4550</name>
            </trkpt>
            <trkpt lat="49.9094304" lon="10.8458368">
                <ele>232.0</ele>
                <time>2020-08-22T12:58:28.000Z</time>
                <name>Trackpoint 4551</name>
            </trkpt>
            <trkpt lat="49.9093856" lon="10.845708">
                <ele>231.0</ele>
                <time>2020-08-22T12:58:30.000Z</time>
                <name>Trackpoint 4552</name>
            </trkpt>
            <trkpt lat="49.909344" lon="10.8455712">
                <ele>231.0</ele>
                <time>2020-08-22T12:58:32.000Z</time>
                <name>Trackpoint 4553</name>
            </trkpt>
            <trkpt lat="49.9093024" lon="10.8454288">
                <ele>231.0</ele>
                <time>2020-08-22T12:58:34.000Z</time>
                <name>Trackpoint 4554</name>
            </trkpt>
            <trkpt lat="49.9092672" lon="10.8452856">
                <ele>232.0</ele>
                <time>2020-08-22T12:58:36.000Z</time>
                <name>Trackpoint 4555</name>
            </trkpt>
            <trkpt lat="49.9092288" lon="10.845148">
                <ele>232.0</ele>
                <time>2020-08-22T12:58:38.000Z</time>
                <name>Trackpoint 4556</name>
            </trkpt>
            <trkpt lat="49.9091712" lon="10.8450416">
                <ele>232.0</ele>
                <time>2020-08-22T12:58:40.000Z</time>
                <name>Trackpoint 4557</name>
            </trkpt>
            <trkpt lat="49.9091008" lon="10.844956">
                <ele>233.0</ele>
                <time>2020-08-22T12:58:43.000Z</time>
                <name>Trackpoint 4558</name>
            </trkpt>
            <trkpt lat="49.909008" lon="10.8449432">
                <ele>233.0</ele>
                <time>2020-08-22T12:58:47.000Z</time>
                <name>Trackpoint 4559</name>
            </trkpt>
            <trkpt lat="49.9089152" lon="10.8449488">
                <ele>233.0</ele>
                <time>2020-08-22T12:58:51.000Z</time>
                <name>Trackpoint 4560</name>
            </trkpt>
            <trkpt lat="49.9088608" lon="10.8450232">
                <ele>233.0</ele>
                <time>2020-08-22T12:59:21.000Z</time>
                <name>Trackpoint 4561</name>
            </trkpt>
            <trkpt lat="49.9088128" lon="10.8451032">
                <ele>233.0</ele>
                <time>2020-08-22T12:59:23.000Z</time>
                <name>Trackpoint 4562</name>
            </trkpt>
            <trkpt lat="49.9087712" lon="10.8452104">
                <ele>233.0</ele>
                <time>2020-08-22T12:59:25.000Z</time>
                <name>Trackpoint 4563</name>
            </trkpt>
            <trkpt lat="49.908752" lon="10.8453464">
                <ele>233.0</ele>
                <time>2020-08-22T12:59:27.000Z</time>
                <name>Trackpoint 4564</name>
            </trkpt>
            <trkpt lat="49.9087296" lon="10.8454904">
                <ele>233.0</ele>
                <time>2020-08-22T12:59:29.000Z</time>
                <name>Trackpoint 4565</name>
            </trkpt>
            <trkpt lat="49.908704" lon="10.8456352">
                <ele>233.0</ele>
                <time>2020-08-22T12:59:31.000Z</time>
                <name>Trackpoint 4566</name>
            </trkpt>
            <trkpt lat="49.9086752" lon="10.8457816">
                <ele>233.0</ele>
                <time>2020-08-22T12:59:33.000Z</time>
                <name>Trackpoint 4567</name>
            </trkpt>
            <trkpt lat="49.9086496" lon="10.8459264">
                <ele>233.0</ele>
                <time>2020-08-22T12:59:35.000Z</time>
                <name>Trackpoint 4568</name>
            </trkpt>
            <trkpt lat="49.9086144" lon="10.8460664">
                <ele>233.0</ele>
                <time>2020-08-22T12:59:37.000Z</time>
                <name>Trackpoint 4569</name>
            </trkpt>
            <trkpt lat="49.908592" lon="10.8462096">
                <ele>233.0</ele>
                <time>2020-08-22T12:59:39.000Z</time>
                <name>Trackpoint 4570</name>
            </trkpt>
            <trkpt lat="49.9086048" lon="10.846352">
                <ele>233.0</ele>
                <time>2020-08-22T12:59:41.000Z</time>
                <name>Trackpoint 4571</name>
            </trkpt>
            <trkpt lat="49.9086528" lon="10.8464616">
                <ele>233.0</ele>
                <time>2020-08-22T12:59:43.000Z</time>
                <name>Trackpoint 4572</name>
            </trkpt>
            <trkpt lat="49.9087296" lon="10.8465216">
                <ele>233.0</ele>
                <time>2020-08-22T12:59:45.000Z</time>
                <name>Trackpoint 4573</name>
            </trkpt>
            <trkpt lat="49.9088448" lon="10.8465168">
                <ele>234.0</ele>
                <time>2020-08-22T12:59:48.000Z</time>
                <name>Trackpoint 4574</name>
            </trkpt>
            <trkpt lat="49.9089312" lon="10.8464432">
                <ele>235.0</ele>
                <time>2020-08-22T12:59:51.000Z</time>
                <name>Trackpoint 4575</name>
            </trkpt>
            <trkpt lat="49.908992" lon="10.84634">
                <ele>235.0</ele>
                <time>2020-08-22T12:59:54.000Z</time>
                <name>Trackpoint 4576</name>
            </trkpt>
            <trkpt lat="49.9090336" lon="10.8462288">
                <ele>235.0</ele>
                <time>2020-08-22T12:59:57.000Z</time>
                <name>Trackpoint 4577</name>
            </trkpt>
            <trkpt lat="49.9090496" lon="10.8461384">
                <ele>235.0</ele>
                <time>2020-08-22T12:59:59.000Z</time>
                <name>Trackpoint 4578</name>
            </trkpt>
            <trkpt lat="49.9090528" lon="10.8460464">
                <ele>235.0</ele>
                <time>2020-08-22T13:00:01.000Z</time>
                <name>Trackpoint 4579</name>
            </trkpt>
            <trkpt lat="49.9090432" lon="10.84594">
                <ele>235.0</ele>
                <time>2020-08-22T13:00:03.000Z</time>
                <name>Trackpoint 4580</name>
            </trkpt>
            <trkpt lat="49.9090272" lon="10.8458168">
                <ele>236.0</ele>
                <time>2020-08-22T13:00:06.000Z</time>
                <name>Trackpoint 4581</name>
            </trkpt>
            <trkpt lat="49.9090048" lon="10.845688">
                <ele>236.0</ele>
                <time>2020-08-22T13:00:09.000Z</time>
                <name>Trackpoint 4582</name>
            </trkpt>
            <trkpt lat="49.908976" lon="10.8456024">
                <ele>235.0</ele>
                <time>2020-08-22T13:00:11.000Z</time>
                <name>Trackpoint 4583</name>
            </trkpt>
            <trkpt lat="49.9089536" lon="10.8455016">
                <ele>236.0</ele>
                <time>2020-08-22T13:00:13.000Z</time>
                <name>Trackpoint 4584</name>
            </trkpt>
            <trkpt lat="49.9089344" lon="10.845404">
                <ele>236.0</ele>
                <time>2020-08-22T13:00:15.000Z</time>
                <name>Trackpoint 4585</name>
            </trkpt>
            <trkpt lat="49.9089152" lon="10.8453056">
                <ele>236.0</ele>
                <time>2020-08-22T13:00:17.000Z</time>
                <name>Trackpoint 4586</name>
            </trkpt>
            <trkpt lat="49.9088928" lon="10.8452064">
                <ele>236.0</ele>
                <time>2020-08-22T13:00:19.000Z</time>
                <name>Trackpoint 4587</name>
            </trkpt>
            <trkpt lat="49.9088672" lon="10.8451048">
                <ele>236.0</ele>
                <time>2020-08-22T13:00:21.000Z</time>
                <name>Trackpoint 4588</name>
            </trkpt>
            <trkpt lat="49.9088416" lon="10.8450032">
                <ele>236.0</ele>
                <time>2020-08-22T13:00:23.000Z</time>
                <name>Trackpoint 4589</name>
            </trkpt>
            <trkpt lat="49.9088128" lon="10.8449024">
                <ele>236.0</ele>
                <time>2020-08-22T13:00:25.000Z</time>
                <name>Trackpoint 4590</name>
            </trkpt>
            <trkpt lat="49.9087904" lon="10.8448">
                <ele>236.0</ele>
                <time>2020-08-22T13:00:27.000Z</time>
                <name>Trackpoint 4591</name>
            </trkpt>
            <trkpt lat="49.9087616" lon="10.8446864">
                <ele>237.0</ele>
                <time>2020-08-22T13:00:29.000Z</time>
                <name>Trackpoint 4592</name>
            </trkpt>
            <trkpt lat="49.9087328" lon="10.8445752">
                <ele>237.0</ele>
                <time>2020-08-22T13:00:31.000Z</time>
                <name>Trackpoint 4593</name>
            </trkpt>
            <trkpt lat="49.9087104" lon="10.8444664">
                <ele>237.0</ele>
                <time>2020-08-22T13:00:33.000Z</time>
                <name>Trackpoint 4594</name>
            </trkpt>
            <trkpt lat="49.9086976" lon="10.8443584">
                <ele>237.0</ele>
                <time>2020-08-22T13:00:35.000Z</time>
                <name>Trackpoint 4595</name>
            </trkpt>
            <trkpt lat="49.9086784" lon="10.8442648">
                <ele>237.0</ele>
                <time>2020-08-22T13:00:37.000Z</time>
                <name>Trackpoint 4596</name>
            </trkpt>
            <trkpt lat="49.9086496" lon="10.84416">
                <ele>237.0</ele>
                <time>2020-08-22T13:00:40.000Z</time>
                <name>Trackpoint 4597</name>
            </trkpt>
            <trkpt lat="49.9086176" lon="10.8440512">
                <ele>238.0</ele>
                <time>2020-08-22T13:01:06.000Z</time>
                <name>Trackpoint 4598</name>
            </trkpt>
            <trkpt lat="49.9086112" lon="10.8439504">
                <ele>238.0</ele>
                <time>2020-08-22T13:01:09.000Z</time>
                <name>Trackpoint 4599</name>
            </trkpt>
            <trkpt lat="49.908592" lon="10.8438152">
                <ele>238.0</ele>
                <time>2020-08-22T13:01:12.000Z</time>
                <name>Trackpoint 4600</name>
            </trkpt>
            <trkpt lat="49.9085696" lon="10.8437072">
                <ele>238.0</ele>
                <time>2020-08-22T13:01:14.000Z</time>
                <name>Trackpoint 4601</name>
            </trkpt>
            <trkpt lat="49.9085504" lon="10.843592">
                <ele>238.0</ele>
                <time>2020-08-22T13:01:16.000Z</time>
                <name>Trackpoint 4602</name>
            </trkpt>
            <trkpt lat="49.9085248" lon="10.8434648">
                <ele>238.0</ele>
                <time>2020-08-22T13:01:18.000Z</time>
                <name>Trackpoint 4603</name>
            </trkpt>
            <trkpt lat="49.9085088" lon="10.843344">
                <ele>238.0</ele>
                <time>2020-08-22T13:01:20.000Z</time>
                <name>Trackpoint 4604</name>
            </trkpt>
            <trkpt lat="49.9084864" lon="10.8432152">
                <ele>238.0</ele>
                <time>2020-08-22T13:01:22.000Z</time>
                <name>Trackpoint 4605</name>
            </trkpt>
            <trkpt lat="49.9084704" lon="10.8430968">
                <ele>238.0</ele>
                <time>2020-08-22T13:01:24.000Z</time>
                <name>Trackpoint 4606</name>
            </trkpt>
            <trkpt lat="49.908464" lon="10.8429768">
                <ele>238.0</ele>
                <time>2020-08-22T13:01:26.000Z</time>
                <name>Trackpoint 4607</name>
            </trkpt>
            <trkpt lat="49.908448" lon="10.8428336">
                <ele>238.0</ele>
                <time>2020-08-22T13:01:28.000Z</time>
                <name>Trackpoint 4608</name>
            </trkpt>
            <trkpt lat="49.9084352" lon="10.8426936">
                <ele>238.0</ele>
                <time>2020-08-22T13:01:30.000Z</time>
                <name>Trackpoint 4609</name>
            </trkpt>
            <trkpt lat="49.9084256" lon="10.8425512">
                <ele>238.0</ele>
                <time>2020-08-22T13:01:32.000Z</time>
                <name>Trackpoint 4610</name>
            </trkpt>
            <trkpt lat="49.9084128" lon="10.8424232">
                <ele>238.0</ele>
                <time>2020-08-22T13:01:34.000Z</time>
                <name>Trackpoint 4611</name>
            </trkpt>
            <trkpt lat="49.9084096" lon="10.8422984">
                <ele>238.0</ele>
                <time>2020-08-22T13:01:36.000Z</time>
                <name>Trackpoint 4612</name>
            </trkpt>
            <trkpt lat="49.9084" lon="10.8421816">
                <ele>238.0</ele>
                <time>2020-08-22T13:01:38.000Z</time>
                <name>Trackpoint 4613</name>
            </trkpt>
            <trkpt lat="49.908384" lon="10.8420832">
                <ele>238.0</ele>
                <time>2020-08-22T13:01:40.000Z</time>
                <name>Trackpoint 4614</name>
            </trkpt>
            <trkpt lat="49.9082976" lon="10.8420216">
                <ele>238.0</ele>
                <time>2020-08-22T13:01:43.000Z</time>
                <name>Trackpoint 4615</name>
            </trkpt>
            <trkpt lat="49.9082016" lon="10.8419584">
                <ele>238.0</ele>
                <time>2020-08-22T13:01:47.000Z</time>
                <name>Trackpoint 4616</name>
            </trkpt>
            <trkpt lat="49.9081376" lon="10.8418848">
                <ele>239.0</ele>
                <time>2020-08-22T13:01:50.000Z</time>
                <name>Trackpoint 4617</name>
            </trkpt>
            <trkpt lat="49.9080512" lon="10.8418016">
                <ele>239.0</ele>
                <time>2020-08-22T13:01:54.000Z</time>
                <name>Trackpoint 4618</name>
            </trkpt>
            <trkpt lat="49.9080128" lon="10.8417168">
                <ele>239.0</ele>
                <time>2020-08-22T13:01:57.000Z</time>
                <name>Trackpoint 4619</name>
            </trkpt>
            <trkpt lat="49.9080192" lon="10.8416008">
                <ele>239.0</ele>
                <time>2020-08-22T13:02:00.000Z</time>
                <name>Trackpoint 4620</name>
            </trkpt>
            <trkpt lat="49.908048" lon="10.8414944">
                <ele>239.0</ele>
                <time>2020-08-22T13:02:02.000Z</time>
                <name>Trackpoint 4621</name>
            </trkpt>
            <trkpt lat="49.9080736" lon="10.841376">
                <ele>239.0</ele>
                <time>2020-08-22T13:02:04.000Z</time>
                <name>Trackpoint 4622</name>
            </trkpt>
            <trkpt lat="49.908112" lon="10.8412384">
                <ele>239.0</ele>
                <time>2020-08-22T13:02:06.000Z</time>
                <name>Trackpoint 4623</name>
            </trkpt>
            <trkpt lat="49.9081376" lon="10.8410968">
                <ele>239.0</ele>
                <time>2020-08-22T13:02:08.000Z</time>
                <name>Trackpoint 4624</name>
            </trkpt>
            <trkpt lat="49.908176" lon="10.8409584">
                <ele>239.0</ele>
                <time>2020-08-22T13:02:10.000Z</time>
                <name>Trackpoint 4625</name>
            </trkpt>
            <trkpt lat="49.9082144" lon="10.8408032">
                <ele>239.0</ele>
                <time>2020-08-22T13:02:12.000Z</time>
                <name>Trackpoint 4626</name>
            </trkpt>
            <trkpt lat="49.9082592" lon="10.8406336">
                <ele>239.0</ele>
                <time>2020-08-22T13:02:14.000Z</time>
                <name>Trackpoint 4627</name>
            </trkpt>
            <trkpt lat="49.908288" lon="10.840544">
                <ele>239.0</ele>
                <time>2020-08-22T13:02:15.000Z</time>
                <name>Trackpoint 4628</name>
            </trkpt>
            <trkpt lat="49.9083136" lon="10.8404552">
                <ele>239.0</ele>
                <time>2020-08-22T13:02:16.000Z</time>
                <name>Trackpoint 4629</name>
            </trkpt>
            <trkpt lat="49.908336" lon="10.8403632">
                <ele>239.0</ele>
                <time>2020-08-22T13:02:17.000Z</time>
                <name>Trackpoint 4630</name>
            </trkpt>
            <trkpt lat="49.908368" lon="10.840272">
                <ele>239.0</ele>
                <time>2020-08-22T13:02:18.000Z</time>
                <name>Trackpoint 4631</name>
            </trkpt>
            <trkpt lat="49.9083936" lon="10.8401832">
                <ele>239.0</ele>
                <time>2020-08-22T13:02:19.000Z</time>
                <name>Trackpoint 4632</name>
            </trkpt>
            <trkpt lat="49.9084192" lon="10.840092">
                <ele>239.0</ele>
                <time>2020-08-22T13:02:20.000Z</time>
                <name>Trackpoint 4633</name>
            </trkpt>
            <trkpt lat="49.9084448" lon="10.8400032">
                <ele>239.0</ele>
                <time>2020-08-22T13:02:21.000Z</time>
                <name>Trackpoint 4634</name>
            </trkpt>
            <trkpt lat="49.9084736" lon="10.8399136">
                <ele>239.0</ele>
                <time>2020-08-22T13:02:22.000Z</time>
                <name>Trackpoint 4635</name>
            </trkpt>
            <trkpt lat="49.9084992" lon="10.8398248">
                <ele>239.0</ele>
                <time>2020-08-22T13:02:23.000Z</time>
                <name>Trackpoint 4636</name>
            </trkpt>
            <trkpt lat="49.9085248" lon="10.8397376">
                <ele>239.0</ele>
                <time>2020-08-22T13:02:24.000Z</time>
                <name>Trackpoint 4637</name>
            </trkpt>
            <trkpt lat="49.9085632" lon="10.8395704">
                <ele>239.0</ele>
                <time>2020-08-22T13:02:26.000Z</time>
                <name>Trackpoint 4638</name>
            </trkpt>
            <trkpt lat="49.9086048" lon="10.8394096">
                <ele>239.0</ele>
                <time>2020-08-22T13:02:28.000Z</time>
                <name>Trackpoint 4639</name>
            </trkpt>
            <trkpt lat="49.9086432" lon="10.8392448">
                <ele>239.0</ele>
                <time>2020-08-22T13:02:30.000Z</time>
                <name>Trackpoint 4640</name>
            </trkpt>
            <trkpt lat="49.9086848" lon="10.8390816">
                <ele>239.0</ele>
                <time>2020-08-22T13:02:32.000Z</time>
                <name>Trackpoint 4641</name>
            </trkpt>
            <trkpt lat="49.9087136" lon="10.8389256">
                <ele>239.0</ele>
                <time>2020-08-22T13:02:34.000Z</time>
                <name>Trackpoint 4642</name>
            </trkpt>
            <trkpt lat="49.9087456" lon="10.8387744">
                <ele>239.0</ele>
                <time>2020-08-22T13:02:36.000Z</time>
                <name>Trackpoint 4643</name>
            </trkpt>
            <trkpt lat="49.908784" lon="10.8386336">
                <ele>239.0</ele>
                <time>2020-08-22T13:02:38.000Z</time>
                <name>Trackpoint 4644</name>
            </trkpt>
            <trkpt lat="49.908816" lon="10.8385">
                <ele>239.0</ele>
                <time>2020-08-22T13:02:40.000Z</time>
                <name>Trackpoint 4645</name>
            </trkpt>
            <trkpt lat="49.9088416" lon="10.8383776">
                <ele>239.0</ele>
                <time>2020-08-22T13:02:42.000Z</time>
                <name>Trackpoint 4646</name>
            </trkpt>
            <trkpt lat="49.908848" lon="10.8382656">
                <ele>239.0</ele>
                <time>2020-08-22T13:02:44.000Z</time>
                <name>Trackpoint 4647</name>
            </trkpt>
            <trkpt lat="49.9088512" lon="10.8381728">
                <ele>239.0</ele>
                <time>2020-08-22T13:02:46.000Z</time>
                <name>Trackpoint 4648</name>
            </trkpt>
            <trkpt lat="49.9088672" lon="10.8380696">
                <ele>239.0</ele>
                <time>2020-08-22T13:02:49.000Z</time>
                <name>Trackpoint 4649</name>
            </trkpt>
            <trkpt lat="49.9088896" lon="10.8379768">
                <ele>239.0</ele>
                <time>2020-08-22T13:02:53.000Z</time>
                <name>Trackpoint 4650</name>
            </trkpt>
            <trkpt lat="49.9089472" lon="10.8378832">
                <ele>239.0</ele>
                <time>2020-08-22T13:03:20.000Z</time>
                <name>Trackpoint 4651</name>
            </trkpt>
            <trkpt lat="49.9089664" lon="10.837764">
                <ele>239.0</ele>
                <time>2020-08-22T13:03:23.000Z</time>
                <name>Trackpoint 4652</name>
            </trkpt>
            <trkpt lat="49.9089664" lon="10.8376264">
                <ele>239.0</ele>
                <time>2020-08-22T13:03:26.000Z</time>
                <name>Trackpoint 4653</name>
            </trkpt>
            <trkpt lat="49.9089856" lon="10.8374856">
                <ele>239.0</ele>
                <time>2020-08-22T13:03:29.000Z</time>
                <name>Trackpoint 4654</name>
            </trkpt>
            <trkpt lat="49.9089952" lon="10.837392">
                <ele>239.0</ele>
                <time>2020-08-22T13:03:31.000Z</time>
                <name>Trackpoint 4655</name>
            </trkpt>
            <trkpt lat="49.9090208" lon="10.8372944">
                <ele>239.0</ele>
                <time>2020-08-22T13:03:33.000Z</time>
                <name>Trackpoint 4656</name>
            </trkpt>
            <trkpt lat="49.9090752" lon="10.83718">
                <ele>239.0</ele>
                <time>2020-08-22T13:03:35.000Z</time>
                <name>Trackpoint 4657</name>
            </trkpt>
            <trkpt lat="49.9091232" lon="10.8370648">
                <ele>239.0</ele>
                <time>2020-08-22T13:03:37.000Z</time>
                <name>Trackpoint 4658</name>
            </trkpt>
            <trkpt lat="49.9091552" lon="10.8369464">
                <ele>239.0</ele>
                <time>2020-08-22T13:03:39.000Z</time>
                <name>Trackpoint 4659</name>
            </trkpt>
            <trkpt lat="49.9091872" lon="10.8368264">
                <ele>239.0</ele>
                <time>2020-08-22T13:03:41.000Z</time>
                <name>Trackpoint 4660</name>
            </trkpt>
            <trkpt lat="49.9092192" lon="10.8367072">
                <ele>239.0</ele>
                <time>2020-08-22T13:03:43.000Z</time>
                <name>Trackpoint 4661</name>
            </trkpt>
            <trkpt lat="49.9092416" lon="10.836588">
                <ele>239.0</ele>
                <time>2020-08-22T13:03:45.000Z</time>
                <name>Trackpoint 4662</name>
            </trkpt>
            <trkpt lat="49.9093024" lon="10.8364512">
                <ele>239.0</ele>
                <time>2020-08-22T13:03:47.000Z</time>
                <name>Trackpoint 4663</name>
            </trkpt>
            <trkpt lat="49.909328" lon="10.83632">
                <ele>239.0</ele>
                <time>2020-08-22T13:03:49.000Z</time>
                <name>Trackpoint 4664</name>
            </trkpt>
            <trkpt lat="49.9093792" lon="10.8361864">
                <ele>239.0</ele>
                <time>2020-08-22T13:03:51.000Z</time>
                <name>Trackpoint 4665</name>
            </trkpt>
            <trkpt lat="49.9094176" lon="10.8360656">
                <ele>239.0</ele>
                <time>2020-08-22T13:03:53.000Z</time>
                <name>Trackpoint 4666</name>
            </trkpt>
            <trkpt lat="49.9094432" lon="10.8359496">
                <ele>239.0</ele>
                <time>2020-08-22T13:03:55.000Z</time>
                <name>Trackpoint 4667</name>
            </trkpt>
            <trkpt lat="49.9094784" lon="10.8358648">
                <ele>239.0</ele>
                <time>2020-08-22T13:03:57.000Z</time>
                <name>Trackpoint 4668</name>
            </trkpt>
            <trkpt lat="49.9095392" lon="10.835736">
                <ele>239.0</ele>
                <time>2020-08-22T13:04:00.000Z</time>
                <name>Trackpoint 4669</name>
            </trkpt>
            <trkpt lat="49.9095808" lon="10.8356152">
                <ele>239.0</ele>
                <time>2020-08-22T13:04:02.000Z</time>
                <name>Trackpoint 4670</name>
            </trkpt>
            <trkpt lat="49.9096224" lon="10.8354816">
                <ele>239.0</ele>
                <time>2020-08-22T13:04:04.000Z</time>
                <name>Trackpoint 4671</name>
            </trkpt>
            <trkpt lat="49.909648" lon="10.8353584">
                <ele>239.0</ele>
                <time>2020-08-22T13:04:06.000Z</time>
                <name>Trackpoint 4672</name>
            </trkpt>
            <trkpt lat="49.9096768" lon="10.8352184">
                <ele>239.0</ele>
                <time>2020-08-22T13:04:08.000Z</time>
                <name>Trackpoint 4673</name>
            </trkpt>
            <trkpt lat="49.9097152" lon="10.8350888">
                <ele>239.0</ele>
                <time>2020-08-22T13:04:10.000Z</time>
                <name>Trackpoint 4674</name>
            </trkpt>
            <trkpt lat="49.9097504" lon="10.8349504">
                <ele>239.0</ele>
                <time>2020-08-22T13:04:12.000Z</time>
                <name>Trackpoint 4675</name>
            </trkpt>
            <trkpt lat="49.9097824" lon="10.8348216">
                <ele>239.0</ele>
                <time>2020-08-22T13:04:14.000Z</time>
                <name>Trackpoint 4676</name>
            </trkpt>
            <trkpt lat="49.9098144" lon="10.83468">
                <ele>239.0</ele>
                <time>2020-08-22T13:04:16.000Z</time>
                <name>Trackpoint 4677</name>
            </trkpt>
            <trkpt lat="49.9098464" lon="10.83454">
                <ele>239.0</ele>
                <time>2020-08-22T13:04:18.000Z</time>
                <name>Trackpoint 4678</name>
            </trkpt>
            <trkpt lat="49.9098944" lon="10.8344048">
                <ele>239.0</ele>
                <time>2020-08-22T13:04:20.000Z</time>
                <name>Trackpoint 4679</name>
            </trkpt>
            <trkpt lat="49.909936" lon="10.834276">
                <ele>239.0</ele>
                <time>2020-08-22T13:04:22.000Z</time>
                <name>Trackpoint 4680</name>
            </trkpt>
            <trkpt lat="49.9099872" lon="10.8341816">
                <ele>239.0</ele>
                <time>2020-08-22T13:04:24.000Z</time>
                <name>Trackpoint 4681</name>
            </trkpt>
            <trkpt lat="49.9100256" lon="10.834068">
                <ele>239.0</ele>
                <time>2020-08-22T13:04:26.000Z</time>
                <name>Trackpoint 4682</name>
            </trkpt>
            <trkpt lat="49.9100448" lon="10.8339464">
                <ele>239.0</ele>
                <time>2020-08-22T13:04:28.000Z</time>
                <name>Trackpoint 4683</name>
            </trkpt>
            <trkpt lat="49.91008" lon="10.8338432">
                <ele>239.0</ele>
                <time>2020-08-22T13:04:30.000Z</time>
                <name>Trackpoint 4684</name>
            </trkpt>
            <trkpt lat="49.910112" lon="10.8337368">
                <ele>239.0</ele>
                <time>2020-08-22T13:04:32.000Z</time>
                <name>Trackpoint 4685</name>
            </trkpt>
            <trkpt lat="49.910128" lon="10.8336264">
                <ele>239.0</ele>
                <time>2020-08-22T13:04:34.000Z</time>
                <name>Trackpoint 4686</name>
            </trkpt>
            <trkpt lat="49.9101568" lon="10.8335248">
                <ele>239.0</ele>
                <time>2020-08-22T13:04:36.000Z</time>
                <name>Trackpoint 4687</name>
            </trkpt>
            <trkpt lat="49.9101952" lon="10.8334248">
                <ele>240.0</ele>
                <time>2020-08-22T13:04:38.000Z</time>
                <name>Trackpoint 4688</name>
            </trkpt>
            <trkpt lat="49.9102432" lon="10.8333056">
                <ele>240.0</ele>
                <time>2020-08-22T13:04:40.000Z</time>
                <name>Trackpoint 4689</name>
            </trkpt>
            <trkpt lat="49.9103168" lon="10.8331736">
                <ele>240.0</ele>
                <time>2020-08-22T13:04:42.000Z</time>
                <name>Trackpoint 4690</name>
            </trkpt>
            <trkpt lat="49.9103776" lon="10.8330384">
                <ele>240.0</ele>
                <time>2020-08-22T13:04:44.000Z</time>
                <name>Trackpoint 4691</name>
            </trkpt>
            <trkpt lat="49.910432" lon="10.8329152">
                <ele>240.0</ele>
                <time>2020-08-22T13:04:46.000Z</time>
                <name>Trackpoint 4692</name>
            </trkpt>
            <trkpt lat="49.9104992" lon="10.8328016">
                <ele>240.0</ele>
                <time>2020-08-22T13:04:48.000Z</time>
                <name>Trackpoint 4693</name>
            </trkpt>
            <trkpt lat="49.9105632" lon="10.8327">
                <ele>240.0</ele>
                <time>2020-08-22T13:04:50.000Z</time>
                <name>Trackpoint 4694</name>
            </trkpt>
            <trkpt lat="49.9106112" lon="10.8325984">
                <ele>239.0</ele>
                <time>2020-08-22T13:04:52.000Z</time>
                <name>Trackpoint 4695</name>
            </trkpt>
            <trkpt lat="49.9106592" lon="10.8324496">
                <ele>239.0</ele>
                <time>2020-08-22T13:04:54.000Z</time>
                <name>Trackpoint 4696</name>
            </trkpt>
            <trkpt lat="49.9107168" lon="10.8323048">
                <ele>239.0</ele>
                <time>2020-08-22T13:04:56.000Z</time>
                <name>Trackpoint 4697</name>
            </trkpt>
            <trkpt lat="49.9107872" lon="10.8321464">
                <ele>239.0</ele>
                <time>2020-08-22T13:04:58.000Z</time>
                <name>Trackpoint 4698</name>
            </trkpt>
            <trkpt lat="49.910816" lon="10.8320576">
                <ele>239.0</ele>
                <time>2020-08-22T13:04:59.000Z</time>
                <name>Trackpoint 4699</name>
            </trkpt>
            <trkpt lat="49.9108416" lon="10.8320552">
                <ele>238.0</ele>
                <time>2020-08-22T13:11:54.000Z</time>
                <name>Trackpoint 4844</name>
            </trkpt>
            <trkpt lat="49.910896" lon="10.8320904">
                <ele>238.0</ele>
                <time>2020-08-22T13:11:58.000Z</time>
                <name>Trackpoint 4845</name>
            </trkpt>
            <trkpt lat="49.910976" lon="10.8321448">
                <ele>237.0</ele>
                <time>2020-08-22T13:12:03.000Z</time>
                <name>Trackpoint 4846</name>
            </trkpt>
            <trkpt lat="49.9110848" lon="10.8321984">
                <ele>237.0</ele>
                <time>2020-08-22T13:12:07.000Z</time>
                <name>Trackpoint 4847</name>
            </trkpt>
            <trkpt lat="49.9112" lon="10.8322112">
                <ele>237.0</ele>
                <time>2020-08-22T13:12:10.000Z</time>
                <name>Trackpoint 4848</name>
            </trkpt>
            <trkpt lat="49.911328" lon="10.8322648">
                <ele>236.0</ele>
                <time>2020-08-22T13:12:13.000Z</time>
                <name>Trackpoint 4849</name>
            </trkpt>
            <trkpt lat="49.9114304" lon="10.8323536">
                <ele>237.0</ele>
                <time>2020-08-22T13:12:16.000Z</time>
                <name>Trackpoint 4850</name>
            </trkpt>
            <trkpt lat="49.9115232" lon="10.8324168">
                <ele>237.0</ele>
                <time>2020-08-22T13:12:19.000Z</time>
                <name>Trackpoint 4851</name>
            </trkpt>
            <trkpt lat="49.9116352" lon="10.8323984">
                <ele>237.0</ele>
                <time>2020-08-22T13:12:22.000Z</time>
                <name>Trackpoint 4852</name>
            </trkpt>
            <trkpt lat="49.911728" lon="10.8324496">
                <ele>237.0</ele>
                <time>2020-08-22T13:12:24.000Z</time>
                <name>Trackpoint 4853</name>
            </trkpt>
            <trkpt lat="49.9118208" lon="10.8325136">
                <ele>237.0</ele>
                <time>2020-08-22T13:12:26.000Z</time>
                <name>Trackpoint 4854</name>
            </trkpt>
            <trkpt lat="49.9119232" lon="10.8326032">
                <ele>237.0</ele>
                <time>2020-08-22T13:12:29.000Z</time>
                <name>Trackpoint 4855</name>
            </trkpt>
            <trkpt lat="49.9120448" lon="10.83262">
                <ele>237.0</ele>
                <time>2020-08-22T13:12:32.000Z</time>
                <name>Trackpoint 4856</name>
            </trkpt>
            <trkpt lat="49.9120959" lon="10.8326935">
                <ele>237.0</ele>
                <time>2020-08-22T13:12:35.000Z</time>
                <name>Trackpoint 4857</name>
            </trkpt>
            <trkpt lat="49.9121984" lon="10.8327448">
                <ele>237.0</ele>
                <time>2020-08-22T13:12:39.000Z</time>
                <name>Trackpoint 4858</name>
            </trkpt>
            <trkpt lat="49.9122848" lon="10.832784">
                <ele>237.0</ele>
                <time>2020-08-22T13:12:42.000Z</time>
                <name>Trackpoint 4859</name>
            </trkpt>
            <trkpt lat="49.912368" lon="10.8328312">
                <ele>237.0</ele>
                <time>2020-08-22T13:12:48.000Z</time>
                <name>Trackpoint 4860</name>
            </trkpt>
            <trkpt lat="49.9124261" lon="10.8328776">
                <ele>233.0</ele>
                <time>2020-08-22T13:35:59.000Z</time>
                <name>Trackpoint 5207</name>
            </trkpt>
            <trkpt lat="49.9124832" lon="10.8327448">
                <ele>234.0</ele>
                <time>2020-08-22T13:36:02.000Z</time>
                <name>Trackpoint 5208</name>
            </trkpt>
            <trkpt lat="49.9125408" lon="10.832632">
                <ele>232.0</ele>
                <time>2020-08-22T13:36:17.000Z</time>
                <name>Trackpoint 5209</name>
            </trkpt>
            <trkpt lat="49.9125984" lon="10.8325136">
                <ele>232.0</ele>
                <time>2020-08-22T13:36:20.000Z</time>
                <name>Trackpoint 5210</name>
            </trkpt>
            <trkpt lat="49.9126464" lon="10.8324136">
                <ele>232.0</ele>
                <time>2020-08-22T13:36:22.000Z</time>
                <name>Trackpoint 5211</name>
            </trkpt>
            <trkpt lat="49.9126976" lon="10.8323048">
                <ele>232.0</ele>
                <time>2020-08-22T13:36:24.000Z</time>
                <name>Trackpoint 5212</name>
            </trkpt>
            <trkpt lat="49.9127456" lon="10.8321752">
                <ele>232.0</ele>
                <time>2020-08-22T13:36:26.000Z</time>
                <name>Trackpoint 5213</name>
            </trkpt>
            <trkpt lat="49.9128128" lon="10.8320312">
                <ele>232.0</ele>
                <time>2020-08-22T13:36:28.000Z</time>
                <name>Trackpoint 5214</name>
            </trkpt>
            <trkpt lat="49.9128608" lon="10.8319016">
                <ele>232.0</ele>
                <time>2020-08-22T13:36:30.000Z</time>
                <name>Trackpoint 5215</name>
            </trkpt>
            <trkpt lat="49.9129056" lon="10.8317616">
                <ele>232.0</ele>
                <time>2020-08-22T13:36:32.000Z</time>
                <name>Trackpoint 5216</name>
            </trkpt>
            <trkpt lat="49.9129568" lon="10.8316272">
                <ele>232.0</ele>
                <time>2020-08-22T13:36:34.000Z</time>
                <name>Trackpoint 5217</name>
            </trkpt>
            <trkpt lat="49.9130048" lon="10.8314912">
                <ele>232.0</ele>
                <time>2020-08-22T13:36:36.000Z</time>
                <name>Trackpoint 5218</name>
            </trkpt>
            <trkpt lat="49.9130464" lon="10.8313736">
                <ele>232.0</ele>
                <time>2020-08-22T13:36:38.000Z</time>
                <name>Trackpoint 5219</name>
            </trkpt>
            <trkpt lat="49.9130976" lon="10.8312464">
                <ele>232.0</ele>
                <time>2020-08-22T13:36:40.000Z</time>
                <name>Trackpoint 5220</name>
            </trkpt>
            <trkpt lat="49.9131424" lon="10.8311128">
                <ele>232.0</ele>
                <time>2020-08-22T13:36:42.000Z</time>
                <name>Trackpoint 5221</name>
            </trkpt>
            <trkpt lat="49.9131904" lon="10.8309744">
                <ele>232.0</ele>
                <time>2020-08-22T13:36:44.000Z</time>
                <name>Trackpoint 5222</name>
            </trkpt>
            <trkpt lat="49.913232" lon="10.8308352">
                <ele>232.0</ele>
                <time>2020-08-22T13:36:46.000Z</time>
                <name>Trackpoint 5223</name>
            </trkpt>
            <trkpt lat="49.91328" lon="10.830704">
                <ele>233.0</ele>
                <time>2020-08-22T13:36:48.000Z</time>
                <name>Trackpoint 5224</name>
            </trkpt>
            <trkpt lat="49.9133344" lon="10.8305632">
                <ele>233.0</ele>
                <time>2020-08-22T13:36:50.000Z</time>
                <name>Trackpoint 5225</name>
            </trkpt>
            <trkpt lat="49.9133824" lon="10.8304264">
                <ele>233.0</ele>
                <time>2020-08-22T13:36:52.000Z</time>
                <name>Trackpoint 5226</name>
            </trkpt>
            <trkpt lat="49.9134304" lon="10.8302896">
                <ele>232.0</ele>
                <time>2020-08-22T13:36:54.000Z</time>
                <name>Trackpoint 5227</name>
            </trkpt>
            <trkpt lat="49.9134752" lon="10.8301488">
                <ele>232.0</ele>
                <time>2020-08-22T13:36:56.000Z</time>
                <name>Trackpoint 5228</name>
            </trkpt>
            <trkpt lat="49.9135168" lon="10.8300016">
                <ele>233.0</ele>
                <time>2020-08-22T13:36:58.000Z</time>
                <name>Trackpoint 5229</name>
            </trkpt>
            <trkpt lat="49.913568" lon="10.829848">
                <ele>233.0</ele>
                <time>2020-08-22T13:37:00.000Z</time>
                <name>Trackpoint 5230</name>
            </trkpt>
            <trkpt lat="49.9136128" lon="10.8297016">
                <ele>233.0</ele>
                <time>2020-08-22T13:37:02.000Z</time>
                <name>Trackpoint 5231</name>
            </trkpt>
            <trkpt lat="49.9136704" lon="10.829548">
                <ele>233.0</ele>
                <time>2020-08-22T13:37:04.000Z</time>
                <name>Trackpoint 5232</name>
            </trkpt>
            <trkpt lat="49.9137184" lon="10.8294064">
                <ele>233.0</ele>
                <time>2020-08-22T13:37:06.000Z</time>
                <name>Trackpoint 5233</name>
            </trkpt>
            <trkpt lat="49.9137728" lon="10.8292616">
                <ele>233.0</ele>
                <time>2020-08-22T13:37:08.000Z</time>
                <name>Trackpoint 5234</name>
            </trkpt>
            <trkpt lat="49.9138272" lon="10.8291056">
                <ele>233.0</ele>
                <time>2020-08-22T13:37:10.000Z</time>
                <name>Trackpoint 5235</name>
            </trkpt>
            <trkpt lat="49.913872" lon="10.8289616">
                <ele>233.0</ele>
                <time>2020-08-22T13:37:12.000Z</time>
                <name>Trackpoint 5236</name>
            </trkpt>
            <trkpt lat="49.9139168" lon="10.8288152">
                <ele>233.0</ele>
                <time>2020-08-22T13:37:14.000Z</time>
                <name>Trackpoint 5237</name>
            </trkpt>
            <trkpt lat="49.9139584" lon="10.8286712">
                <ele>233.0</ele>
                <time>2020-08-22T13:37:16.000Z</time>
                <name>Trackpoint 5238</name>
            </trkpt>
            <trkpt lat="49.914" lon="10.828524">
                <ele>233.0</ele>
                <time>2020-08-22T13:37:18.000Z</time>
                <name>Trackpoint 5239</name>
            </trkpt>
            <trkpt lat="49.9140384" lon="10.8283568">
                <ele>232.0</ele>
                <time>2020-08-22T13:37:20.000Z</time>
                <name>Trackpoint 5240</name>
            </trkpt>
            <trkpt lat="49.91408" lon="10.828208">
                <ele>232.0</ele>
                <time>2020-08-22T13:37:22.000Z</time>
                <name>Trackpoint 5241</name>
            </trkpt>
            <trkpt lat="49.914112" lon="10.8280632">
                <ele>232.0</ele>
                <time>2020-08-22T13:37:24.000Z</time>
                <name>Trackpoint 5242</name>
            </trkpt>
            <trkpt lat="49.914144" lon="10.8279304">
                <ele>233.0</ele>
                <time>2020-08-22T13:37:26.000Z</time>
                <name>Trackpoint 5243</name>
            </trkpt>
            <trkpt lat="49.9141728" lon="10.8278176">
                <ele>233.0</ele>
                <time>2020-08-22T13:37:28.000Z</time>
                <name>Trackpoint 5244</name>
            </trkpt>
            <trkpt lat="49.9142112" lon="10.8277256">
                <ele>233.0</ele>
                <time>2020-08-22T13:37:30.000Z</time>
                <name>Trackpoint 5245</name>
            </trkpt>
            <trkpt lat="49.9142496" lon="10.8276192">
                <ele>232.0</ele>
                <time>2020-08-22T13:37:32.000Z</time>
                <name>Trackpoint 5246</name>
            </trkpt>
            <trkpt lat="49.9142912" lon="10.8275168">
                <ele>232.0</ele>
                <time>2020-08-22T13:37:34.000Z</time>
                <name>Trackpoint 5247</name>
            </trkpt>
            <trkpt lat="49.9143072" lon="10.8274272">
                <ele>232.0</ele>
                <time>2020-08-22T13:37:36.000Z</time>
                <name>Trackpoint 5248</name>
            </trkpt>
            <trkpt lat="49.9143168" lon="10.8273336">
                <ele>232.0</ele>
                <time>2020-08-22T13:38:25.000Z</time>
                <name>Trackpoint 5249</name>
            </trkpt>
            <trkpt lat="49.9143328" lon="10.82724">
                <ele>232.0</ele>
                <time>2020-08-22T13:38:29.000Z</time>
                <name>Trackpoint 5250</name>
            </trkpt>
            <trkpt lat="49.914368" lon="10.8271168">
                <ele>232.0</ele>
                <time>2020-08-22T13:38:32.000Z</time>
                <name>Trackpoint 5251</name>
            </trkpt>
            <trkpt lat="49.9143968" lon="10.8270016">
                <ele>232.0</ele>
                <time>2020-08-22T13:38:34.000Z</time>
                <name>Trackpoint 5252</name>
            </trkpt>
            <trkpt lat="49.9144352" lon="10.8268744">
                <ele>232.0</ele>
                <time>2020-08-22T13:38:36.000Z</time>
                <name>Trackpoint 5253</name>
            </trkpt>
            <trkpt lat="49.9144672" lon="10.8267472">
                <ele>232.0</ele>
                <time>2020-08-22T13:38:38.000Z</time>
                <name>Trackpoint 5254</name>
            </trkpt>
            <trkpt lat="49.914496" lon="10.8266096">
                <ele>233.0</ele>
                <time>2020-08-22T13:38:40.000Z</time>
                <name>Trackpoint 5255</name>
            </trkpt>
            <trkpt lat="49.9145248" lon="10.8264768">
                <ele>233.0</ele>
                <time>2020-08-22T13:38:42.000Z</time>
                <name>Trackpoint 5256</name>
            </trkpt>
            <trkpt lat="49.91456" lon="10.826348">
                <ele>233.0</ele>
                <time>2020-08-22T13:38:44.000Z</time>
                <name>Trackpoint 5257</name>
            </trkpt>
            <trkpt lat="49.9145888" lon="10.8262232">
                <ele>233.0</ele>
                <time>2020-08-22T13:38:46.000Z</time>
                <name>Trackpoint 5258</name>
            </trkpt>
            <trkpt lat="49.9146112" lon="10.8260944">
                <ele>232.0</ele>
                <time>2020-08-22T13:38:48.000Z</time>
                <name>Trackpoint 5259</name>
            </trkpt>
            <trkpt lat="49.9146432" lon="10.825956">
                <ele>232.0</ele>
                <time>2020-08-22T13:38:50.000Z</time>
                <name>Trackpoint 5260</name>
            </trkpt>
            <trkpt lat="49.9146688" lon="10.8258136">
                <ele>233.0</ele>
                <time>2020-08-22T13:38:52.000Z</time>
                <name>Trackpoint 5261</name>
            </trkpt>
            <trkpt lat="49.9147008" lon="10.8256712">
                <ele>233.0</ele>
                <time>2020-08-22T13:38:54.000Z</time>
                <name>Trackpoint 5262</name>
            </trkpt>
            <trkpt lat="49.9147296" lon="10.8255328">
                <ele>233.0</ele>
                <time>2020-08-22T13:38:56.000Z</time>
                <name>Trackpoint 5263</name>
            </trkpt>
            <trkpt lat="49.9147616" lon="10.8253984">
                <ele>233.0</ele>
                <time>2020-08-22T13:38:58.000Z</time>
                <name>Trackpoint 5264</name>
            </trkpt>
            <trkpt lat="49.9147872" lon="10.8252632">
                <ele>234.0</ele>
                <time>2020-08-22T13:39:00.000Z</time>
                <name>Trackpoint 5265</name>
            </trkpt>
            <trkpt lat="49.9148128" lon="10.8251336">
                <ele>234.0</ele>
                <time>2020-08-22T13:39:02.000Z</time>
                <name>Trackpoint 5266</name>
            </trkpt>
            <trkpt lat="49.9148384" lon="10.8250048">
                <ele>234.0</ele>
                <time>2020-08-22T13:39:04.000Z</time>
                <name>Trackpoint 5267</name>
            </trkpt>
            <trkpt lat="49.9148608" lon="10.824888">
                <ele>234.0</ele>
                <time>2020-08-22T13:39:06.000Z</time>
                <name>Trackpoint 5268</name>
            </trkpt>
            <trkpt lat="49.9148832" lon="10.8247768">
                <ele>234.0</ele>
                <time>2020-08-22T13:39:08.000Z</time>
                <name>Trackpoint 5269</name>
            </trkpt>
            <trkpt lat="49.9149056" lon="10.8246736">
                <ele>234.0</ele>
                <time>2020-08-22T13:39:10.000Z</time>
                <name>Trackpoint 5270</name>
            </trkpt>
            <trkpt lat="49.9149248" lon="10.82458">
                <ele>233.0</ele>
                <time>2020-08-22T13:39:12.000Z</time>
                <name>Trackpoint 5271</name>
            </trkpt>
            <trkpt lat="49.914944" lon="10.8244832">
                <ele>233.0</ele>
                <time>2020-08-22T13:39:34.000Z</time>
                <name>Trackpoint 5272</name>
            </trkpt>
            <trkpt lat="49.9149632" lon="10.8243648">
                <ele>233.0</ele>
                <time>2020-08-22T13:39:38.000Z</time>
                <name>Trackpoint 5273</name>
            </trkpt>
            <trkpt lat="49.9149696" lon="10.824252">
                <ele>233.0</ele>
                <time>2020-08-22T13:39:41.000Z</time>
                <name>Trackpoint 5274</name>
            </trkpt>
            <trkpt lat="49.9150016" lon="10.8241328">
                <ele>233.0</ele>
                <time>2020-08-22T13:39:44.000Z</time>
                <name>Trackpoint 5275</name>
            </trkpt>
            <trkpt lat="49.9150528" lon="10.8240184">
                <ele>233.0</ele>
                <time>2020-08-22T13:39:47.000Z</time>
                <name>Trackpoint 5276</name>
            </trkpt>
            <trkpt lat="49.9151264" lon="10.8239024">
                <ele>233.0</ele>
                <time>2020-08-22T13:39:50.000Z</time>
                <name>Trackpoint 5277</name>
            </trkpt>
            <trkpt lat="49.915184" lon="10.8238032">
                <ele>233.0</ele>
                <time>2020-08-22T13:39:52.000Z</time>
                <name>Trackpoint 5278</name>
            </trkpt>
            <trkpt lat="49.915216" lon="10.8236984">
                <ele>233.0</ele>
                <time>2020-08-22T13:39:54.000Z</time>
                <name>Trackpoint 5279</name>
            </trkpt>
            <trkpt lat="49.9152384" lon="10.8235728">
                <ele>233.0</ele>
                <time>2020-08-22T13:39:56.000Z</time>
                <name>Trackpoint 5280</name>
            </trkpt>
            <trkpt lat="49.9152768" lon="10.8234432">
                <ele>233.0</ele>
                <time>2020-08-22T13:39:58.000Z</time>
                <name>Trackpoint 5281</name>
            </trkpt>
            <trkpt lat="49.9153152" lon="10.8232968">
                <ele>233.0</ele>
                <time>2020-08-22T13:40:00.000Z</time>
                <name>Trackpoint 5282</name>
            </trkpt>
            <trkpt lat="49.9153472" lon="10.82316">
                <ele>233.0</ele>
                <time>2020-08-22T13:40:02.000Z</time>
                <name>Trackpoint 5283</name>
            </trkpt>
            <trkpt lat="49.9153696" lon="10.8230152">
                <ele>233.0</ele>
                <time>2020-08-22T13:40:04.000Z</time>
                <name>Trackpoint 5284</name>
            </trkpt>
            <trkpt lat="49.9153664" lon="10.8228728">
                <ele>233.0</ele>
                <time>2020-08-22T13:40:06.000Z</time>
                <name>Trackpoint 5285</name>
            </trkpt>
            <trkpt lat="49.9153408" lon="10.8227432">
                <ele>233.0</ele>
                <time>2020-08-22T13:40:08.000Z</time>
                <name>Trackpoint 5286</name>
            </trkpt>
            <trkpt lat="49.9153184" lon="10.8226272">
                <ele>233.0</ele>
                <time>2020-08-22T13:40:10.000Z</time>
                <name>Trackpoint 5287</name>
            </trkpt>
            <trkpt lat="49.915296" lon="10.8224872">
                <ele>233.0</ele>
                <time>2020-08-22T13:40:12.000Z</time>
                <name>Trackpoint 5288</name>
            </trkpt>
            <trkpt lat="49.9152672" lon="10.8223312">
                <ele>233.0</ele>
                <time>2020-08-22T13:40:14.000Z</time>
                <name>Trackpoint 5289</name>
            </trkpt>
            <trkpt lat="49.915248" lon="10.8221768">
                <ele>233.0</ele>
                <time>2020-08-22T13:40:16.000Z</time>
                <name>Trackpoint 5290</name>
            </trkpt>
            <trkpt lat="49.9152512" lon="10.8220304">
                <ele>233.0</ele>
                <time>2020-08-22T13:40:18.000Z</time>
                <name>Trackpoint 5291</name>
            </trkpt>
            <trkpt lat="49.915264" lon="10.82188">
                <ele>233.0</ele>
                <time>2020-08-22T13:40:20.000Z</time>
                <name>Trackpoint 5292</name>
            </trkpt>
            <trkpt lat="49.9152704" lon="10.8217248">
                <ele>233.0</ele>
                <time>2020-08-22T13:40:22.000Z</time>
                <name>Trackpoint 5293</name>
            </trkpt>
            <trkpt lat="49.9152704" lon="10.8215768">
                <ele>233.0</ele>
                <time>2020-08-22T13:40:24.000Z</time>
                <name>Trackpoint 5294</name>
            </trkpt>
            <trkpt lat="49.9152704" lon="10.8214384">
                <ele>233.0</ele>
                <time>2020-08-22T13:40:26.000Z</time>
                <name>Trackpoint 5295</name>
            </trkpt>
            <trkpt lat="49.91528" lon="10.8212984">
                <ele>233.0</ele>
                <time>2020-08-22T13:40:28.000Z</time>
                <name>Trackpoint 5296</name>
            </trkpt>
            <trkpt lat="49.9152896" lon="10.8211616">
                <ele>233.0</ele>
                <time>2020-08-22T13:40:30.000Z</time>
                <name>Trackpoint 5297</name>
            </trkpt>
            <trkpt lat="49.9152992" lon="10.8210248">
                <ele>233.0</ele>
                <time>2020-08-22T13:40:32.000Z</time>
                <name>Trackpoint 5298</name>
            </trkpt>
            <trkpt lat="49.9152992" lon="10.8208864">
                <ele>233.0</ele>
                <time>2020-08-22T13:40:34.000Z</time>
                <name>Trackpoint 5299</name>
            </trkpt>
            <trkpt lat="49.9153024" lon="10.8207552">
                <ele>233.0</ele>
                <time>2020-08-22T13:40:36.000Z</time>
                <name>Trackpoint 5300</name>
            </trkpt>
            <trkpt lat="49.9153088" lon="10.8206232">
                <ele>233.0</ele>
                <time>2020-08-22T13:40:38.000Z</time>
                <name>Trackpoint 5301</name>
            </trkpt>
            <trkpt lat="49.9153216" lon="10.82048">
                <ele>233.0</ele>
                <time>2020-08-22T13:40:40.000Z</time>
                <name>Trackpoint 5302</name>
            </trkpt>
            <trkpt lat="49.9153248" lon="10.820336">
                <ele>233.0</ele>
                <time>2020-08-22T13:40:42.000Z</time>
                <name>Trackpoint 5303</name>
            </trkpt>
            <trkpt lat="49.9153312" lon="10.8201936">
                <ele>233.0</ele>
                <time>2020-08-22T13:40:44.000Z</time>
                <name>Trackpoint 5304</name>
            </trkpt>
            <trkpt lat="49.9153376" lon="10.8200512">
                <ele>233.0</ele>
                <time>2020-08-22T13:40:46.000Z</time>
                <name>Trackpoint 5305</name>
            </trkpt>
            <trkpt lat="49.9153408" lon="10.8198968">
                <ele>233.0</ele>
                <time>2020-08-22T13:40:48.000Z</time>
                <name>Trackpoint 5306</name>
            </trkpt>
            <trkpt lat="49.9153504" lon="10.8197368">
                <ele>233.0</ele>
                <time>2020-08-22T13:40:50.000Z</time>
                <name>Trackpoint 5307</name>
            </trkpt>
            <trkpt lat="49.9153568" lon="10.81958">
                <ele>233.0</ele>
                <time>2020-08-22T13:40:52.000Z</time>
                <name>Trackpoint 5308</name>
            </trkpt>
            <trkpt lat="49.9153632" lon="10.8194152">
                <ele>233.0</ele>
                <time>2020-08-22T13:40:54.000Z</time>
                <name>Trackpoint 5309</name>
            </trkpt>
            <trkpt lat="49.9153696" lon="10.8192568">
                <ele>233.0</ele>
                <time>2020-08-22T13:40:56.000Z</time>
                <name>Trackpoint 5310</name>
            </trkpt>
            <trkpt lat="49.9153792" lon="10.8191016">
                <ele>233.0</ele>
                <time>2020-08-22T13:40:58.000Z</time>
                <name>Trackpoint 5311</name>
            </trkpt>
            <trkpt lat="49.9153824" lon="10.8189448">
                <ele>234.0</ele>
                <time>2020-08-22T13:41:00.000Z</time>
                <name>Trackpoint 5312</name>
            </trkpt>
            <trkpt lat="49.9153888" lon="10.8187864">
                <ele>234.0</ele>
                <time>2020-08-22T13:41:02.000Z</time>
                <name>Trackpoint 5313</name>
            </trkpt>
            <trkpt lat="49.9153952" lon="10.8186256">
                <ele>234.0</ele>
                <time>2020-08-22T13:41:04.000Z</time>
                <name>Trackpoint 5314</name>
            </trkpt>
            <trkpt lat="49.9154048" lon="10.818468">
                <ele>234.0</ele>
                <time>2020-08-22T13:41:06.000Z</time>
                <name>Trackpoint 5315</name>
            </trkpt>
            <trkpt lat="49.915408" lon="10.8183096">
                <ele>234.0</ele>
                <time>2020-08-22T13:41:08.000Z</time>
                <name>Trackpoint 5316</name>
            </trkpt>
            <trkpt lat="49.9154144" lon="10.8181488">
                <ele>234.0</ele>
                <time>2020-08-22T13:41:10.000Z</time>
                <name>Trackpoint 5317</name>
            </trkpt>
            <trkpt lat="49.9154208" lon="10.817988">
                <ele>234.0</ele>
                <time>2020-08-22T13:41:12.000Z</time>
                <name>Trackpoint 5318</name>
            </trkpt>
            <trkpt lat="49.9154368" lon="10.817832">
                <ele>234.0</ele>
                <time>2020-08-22T13:41:14.000Z</time>
                <name>Trackpoint 5319</name>
            </trkpt>
            <trkpt lat="49.9154432" lon="10.8176768">
                <ele>234.0</ele>
                <time>2020-08-22T13:41:16.000Z</time>
                <name>Trackpoint 5320</name>
            </trkpt>
            <trkpt lat="49.915456" lon="10.8175232">
                <ele>234.0</ele>
                <time>2020-08-22T13:41:18.000Z</time>
                <name>Trackpoint 5321</name>
            </trkpt>
            <trkpt lat="49.9154688" lon="10.817364">
                <ele>234.0</ele>
                <time>2020-08-22T13:41:20.000Z</time>
                <name>Trackpoint 5322</name>
            </trkpt>
            <trkpt lat="49.9154816" lon="10.8171984">
                <ele>234.0</ele>
                <time>2020-08-22T13:41:22.000Z</time>
                <name>Trackpoint 5323</name>
            </trkpt>
            <trkpt lat="49.9155008" lon="10.8170336">
                <ele>234.0</ele>
                <time>2020-08-22T13:41:24.000Z</time>
                <name>Trackpoint 5324</name>
            </trkpt>
            <trkpt lat="49.91552" lon="10.8168752">
                <ele>234.0</ele>
                <time>2020-08-22T13:41:26.000Z</time>
                <name>Trackpoint 5325</name>
            </trkpt>
            <trkpt lat="49.9155296" lon="10.8167136">
                <ele>234.0</ele>
                <time>2020-08-22T13:41:28.000Z</time>
                <name>Trackpoint 5326</name>
            </trkpt>
            <trkpt lat="49.9155552" lon="10.8165568">
                <ele>234.0</ele>
                <time>2020-08-22T13:41:30.000Z</time>
                <name>Trackpoint 5327</name>
            </trkpt>
            <trkpt lat="49.915568" lon="10.8164064">
                <ele>235.0</ele>
                <time>2020-08-22T13:41:32.000Z</time>
                <name>Trackpoint 5328</name>
            </trkpt>
            <trkpt lat="49.9155872" lon="10.8162472">
                <ele>235.0</ele>
                <time>2020-08-22T13:41:34.000Z</time>
                <name>Trackpoint 5329</name>
            </trkpt>
            <trkpt lat="49.9156032" lon="10.8160984">
                <ele>235.0</ele>
                <time>2020-08-22T13:41:36.000Z</time>
                <name>Trackpoint 5330</name>
            </trkpt>
            <trkpt lat="49.9156256" lon="10.8159416">
                <ele>235.0</ele>
                <time>2020-08-22T13:41:38.000Z</time>
                <name>Trackpoint 5331</name>
            </trkpt>
            <trkpt lat="49.915648" lon="10.8157752">
                <ele>235.0</ele>
                <time>2020-08-22T13:41:40.000Z</time>
                <name>Trackpoint 5332</name>
            </trkpt>
            <trkpt lat="49.9156736" lon="10.8156168">
                <ele>235.0</ele>
                <time>2020-08-22T13:41:42.000Z</time>
                <name>Trackpoint 5333</name>
            </trkpt>
            <trkpt lat="49.9156928" lon="10.8154552">
                <ele>235.0</ele>
                <time>2020-08-22T13:41:44.000Z</time>
                <name>Trackpoint 5334</name>
            </trkpt>
            <trkpt lat="49.9157056" lon="10.8153112">
                <ele>235.0</ele>
                <time>2020-08-22T13:41:46.000Z</time>
                <name>Trackpoint 5335</name>
            </trkpt>
            <trkpt lat="49.9157248" lon="10.8151904">
                <ele>235.0</ele>
                <time>2020-08-22T13:41:48.000Z</time>
                <name>Trackpoint 5336</name>
            </trkpt>
            <trkpt lat="49.9157472" lon="10.815092">
                <ele>235.0</ele>
                <time>2020-08-22T13:41:50.000Z</time>
                <name>Trackpoint 5337</name>
            </trkpt>
            <trkpt lat="49.9157856" lon="10.8149768">
                <ele>235.0</ele>
                <time>2020-08-22T13:41:53.000Z</time>
                <name>Trackpoint 5338</name>
            </trkpt>
            <trkpt lat="49.9158016" lon="10.8148744">
                <ele>235.0</ele>
                <time>2020-08-22T13:42:11.000Z</time>
                <name>Trackpoint 5339</name>
            </trkpt>
            <trkpt lat="49.9158112" lon="10.8147768">
                <ele>235.0</ele>
                <time>2020-08-22T13:42:13.000Z</time>
                <name>Trackpoint 5340</name>
            </trkpt>
            <trkpt lat="49.9158272" lon="10.814656">
                <ele>235.0</ele>
                <time>2020-08-22T13:42:15.000Z</time>
                <name>Trackpoint 5341</name>
            </trkpt>
            <trkpt lat="49.9158592" lon="10.8145136">
                <ele>235.0</ele>
                <time>2020-08-22T13:42:17.000Z</time>
                <name>Trackpoint 5342</name>
            </trkpt>
            <trkpt lat="49.9158848" lon="10.8143664">
                <ele>235.0</ele>
                <time>2020-08-22T13:42:19.000Z</time>
                <name>Trackpoint 5343</name>
            </trkpt>
            <trkpt lat="49.9159104" lon="10.8142048">
                <ele>235.0</ele>
                <time>2020-08-22T13:42:21.000Z</time>
                <name>Trackpoint 5344</name>
            </trkpt>
            <trkpt lat="49.91592" lon="10.8141136">
                <ele>235.0</ele>
                <time>2020-08-22T13:42:22.000Z</time>
                <name>Trackpoint 5345</name>
            </trkpt>
            <trkpt lat="49.915936" lon="10.8140248">
                <ele>235.0</ele>
                <time>2020-08-22T13:42:23.000Z</time>
                <name>Trackpoint 5346</name>
            </trkpt>
            <trkpt lat="49.9159552" lon="10.8138512">
                <ele>235.0</ele>
                <time>2020-08-22T13:42:25.000Z</time>
                <name>Trackpoint 5347</name>
            </trkpt>
            <trkpt lat="49.9159776" lon="10.8136856">
                <ele>235.0</ele>
                <time>2020-08-22T13:42:27.000Z</time>
                <name>Trackpoint 5348</name>
            </trkpt>
            <trkpt lat="49.916" lon="10.8135136">
                <ele>235.0</ele>
                <time>2020-08-22T13:42:29.000Z</time>
                <name>Trackpoint 5349</name>
            </trkpt>
            <trkpt lat="49.9160224" lon="10.81334">
                <ele>235.0</ele>
                <time>2020-08-22T13:42:31.000Z</time>
                <name>Trackpoint 5350</name>
            </trkpt>
            <trkpt lat="49.9160384" lon="10.8132488">
                <ele>235.0</ele>
                <time>2020-08-22T13:42:32.000Z</time>
                <name>Trackpoint 5351</name>
            </trkpt>
            <trkpt lat="49.9160576" lon="10.8131568">
                <ele>235.0</ele>
                <time>2020-08-22T13:42:33.000Z</time>
                <name>Trackpoint 5352</name>
            </trkpt>
            <trkpt lat="49.9160896" lon="10.8129864">
                <ele>235.0</ele>
                <time>2020-08-22T13:42:35.000Z</time>
                <name>Trackpoint 5353</name>
            </trkpt>
            <trkpt lat="49.9161248" lon="10.8128168">
                <ele>235.0</ele>
                <time>2020-08-22T13:42:37.000Z</time>
                <name>Trackpoint 5354</name>
            </trkpt>
            <trkpt lat="49.9161408" lon="10.8127272">
                <ele>235.0</ele>
                <time>2020-08-22T13:42:38.000Z</time>
                <name>Trackpoint 5355</name>
            </trkpt>
            <trkpt lat="49.9161728" lon="10.8125632">
                <ele>235.0</ele>
                <time>2020-08-22T13:42:40.000Z</time>
                <name>Trackpoint 5356</name>
            </trkpt>
            <trkpt lat="49.9162112" lon="10.812404">
                <ele>235.0</ele>
                <time>2020-08-22T13:42:42.000Z</time>
                <name>Trackpoint 5357</name>
            </trkpt>
            <trkpt lat="49.916256" lon="10.8122368">
                <ele>235.0</ele>
                <time>2020-08-22T13:42:44.000Z</time>
                <name>Trackpoint 5358</name>
            </trkpt>
            <trkpt lat="49.916272" lon="10.812148">
                <ele>235.0</ele>
                <time>2020-08-22T13:42:45.000Z</time>
                <name>Trackpoint 5359</name>
            </trkpt>
            <trkpt lat="49.9163136" lon="10.8119832">
                <ele>235.0</ele>
                <time>2020-08-22T13:42:47.000Z</time>
                <name>Trackpoint 5360</name>
            </trkpt>
            <trkpt lat="49.9163328" lon="10.8118952">
                <ele>235.0</ele>
                <time>2020-08-22T13:42:48.000Z</time>
                <name>Trackpoint 5361</name>
            </trkpt>
            <trkpt lat="49.916368" lon="10.8117248">
                <ele>235.0</ele>
                <time>2020-08-22T13:42:50.000Z</time>
                <name>Trackpoint 5362</name>
            </trkpt>
            <trkpt lat="49.9164096" lon="10.8115632">
                <ele>235.0</ele>
                <time>2020-08-22T13:42:52.000Z</time>
                <name>Trackpoint 5363</name>
            </trkpt>
            <trkpt lat="49.916448" lon="10.8113944">
                <ele>235.0</ele>
                <time>2020-08-22T13:42:54.000Z</time>
                <name>Trackpoint 5364</name>
            </trkpt>
            <trkpt lat="49.9164896" lon="10.8112248">
                <ele>235.0</ele>
                <time>2020-08-22T13:42:56.000Z</time>
                <name>Trackpoint 5365</name>
            </trkpt>
            <trkpt lat="49.9165216" lon="10.8110568">
                <ele>235.0</ele>
                <time>2020-08-22T13:42:58.000Z</time>
                <name>Trackpoint 5366</name>
            </trkpt>
            <trkpt lat="49.91656" lon="10.8108968">
                <ele>235.0</ele>
                <time>2020-08-22T13:43:00.000Z</time>
                <name>Trackpoint 5367</name>
            </trkpt>
            <trkpt lat="49.916608" lon="10.8107336">
                <ele>235.0</ele>
                <time>2020-08-22T13:43:02.000Z</time>
                <name>Trackpoint 5368</name>
            </trkpt>
            <trkpt lat="49.9166464" lon="10.810572">
                <ele>235.0</ele>
                <time>2020-08-22T13:43:04.000Z</time>
                <name>Trackpoint 5369</name>
            </trkpt>
            <trkpt lat="49.9166816" lon="10.8104064">
                <ele>235.0</ele>
                <time>2020-08-22T13:43:06.000Z</time>
                <name>Trackpoint 5370</name>
            </trkpt>
            <trkpt lat="49.9167264" lon="10.8102416">
                <ele>235.0</ele>
                <time>2020-08-22T13:43:08.000Z</time>
                <name>Trackpoint 5371</name>
            </trkpt>
            <trkpt lat="49.9167584" lon="10.8100856">
                <ele>235.0</ele>
                <time>2020-08-22T13:43:10.000Z</time>
                <name>Trackpoint 5372</name>
            </trkpt>
            <trkpt lat="49.9167968" lon="10.8099368">
                <ele>235.0</ele>
                <time>2020-08-22T13:43:12.000Z</time>
                <name>Trackpoint 5373</name>
            </trkpt>
            <trkpt lat="49.9168352" lon="10.809796">
                <ele>236.0</ele>
                <time>2020-08-22T13:43:14.000Z</time>
                <name>Trackpoint 5374</name>
            </trkpt>
            <trkpt lat="49.9168736" lon="10.8096568">
                <ele>236.0</ele>
                <time>2020-08-22T13:43:16.000Z</time>
                <name>Trackpoint 5375</name>
            </trkpt>
            <trkpt lat="49.9169184" lon="10.8095104">
                <ele>236.0</ele>
                <time>2020-08-22T13:43:18.000Z</time>
                <name>Trackpoint 5376</name>
            </trkpt>
            <trkpt lat="49.9169664" lon="10.8093656">
                <ele>236.0</ele>
                <time>2020-08-22T13:43:20.000Z</time>
                <name>Trackpoint 5377</name>
            </trkpt>
            <trkpt lat="49.9170112" lon="10.8092168">
                <ele>236.0</ele>
                <time>2020-08-22T13:43:22.000Z</time>
                <name>Trackpoint 5378</name>
            </trkpt>
            <trkpt lat="49.9170624" lon="10.8090736">
                <ele>236.0</ele>
                <time>2020-08-22T13:43:24.000Z</time>
                <name>Trackpoint 5379</name>
            </trkpt>
            <trkpt lat="49.9171072" lon="10.80892">
                <ele>237.0</ele>
                <time>2020-08-22T13:43:26.000Z</time>
                <name>Trackpoint 5380</name>
            </trkpt>
            <trkpt lat="49.917152" lon="10.8087656">
                <ele>237.0</ele>
                <time>2020-08-22T13:43:28.000Z</time>
                <name>Trackpoint 5381</name>
            </trkpt>
            <trkpt lat="49.9172032" lon="10.808612">
                <ele>237.0</ele>
                <time>2020-08-22T13:43:30.000Z</time>
                <name>Trackpoint 5382</name>
            </trkpt>
            <trkpt lat="49.9172512" lon="10.80846">
                <ele>237.0</ele>
                <time>2020-08-22T13:43:32.000Z</time>
                <name>Trackpoint 5383</name>
            </trkpt>
            <trkpt lat="49.9173088" lon="10.8083112">
                <ele>237.0</ele>
                <time>2020-08-22T13:43:34.000Z</time>
                <name>Trackpoint 5384</name>
            </trkpt>
            <trkpt lat="49.9173632" lon="10.8081648">
                <ele>236.0</ele>
                <time>2020-08-22T13:43:36.000Z</time>
                <name>Trackpoint 5385</name>
            </trkpt>
            <trkpt lat="49.9174144" lon="10.8080128">
                <ele>236.0</ele>
                <time>2020-08-22T13:43:38.000Z</time>
                <name>Trackpoint 5386</name>
            </trkpt>
            <trkpt lat="49.9174688" lon="10.8078632">
                <ele>236.0</ele>
                <time>2020-08-22T13:43:40.000Z</time>
                <name>Trackpoint 5387</name>
            </trkpt>
            <trkpt lat="49.9175232" lon="10.807712">
                <ele>236.0</ele>
                <time>2020-08-22T13:43:42.000Z</time>
                <name>Trackpoint 5388</name>
            </trkpt>
            <trkpt lat="49.9175744" lon="10.8075688">
                <ele>236.0</ele>
                <time>2020-08-22T13:43:44.000Z</time>
                <name>Trackpoint 5389</name>
            </trkpt>
            <trkpt lat="49.9176256" lon="10.8074328">
                <ele>236.0</ele>
                <time>2020-08-22T13:43:46.000Z</time>
                <name>Trackpoint 5390</name>
            </trkpt>
            <trkpt lat="49.9176704" lon="10.8072928">
                <ele>236.0</ele>
                <time>2020-08-22T13:43:48.000Z</time>
                <name>Trackpoint 5391</name>
            </trkpt>
            <trkpt lat="49.9177216" lon="10.8071584">
                <ele>236.0</ele>
                <time>2020-08-22T13:43:50.000Z</time>
                <name>Trackpoint 5392</name>
            </trkpt>
            <trkpt lat="49.9177824" lon="10.807032">
                <ele>236.0</ele>
                <time>2020-08-22T13:43:52.000Z</time>
                <name>Trackpoint 5393</name>
            </trkpt>
            <trkpt lat="49.91784" lon="10.8069016">
                <ele>236.0</ele>
                <time>2020-08-22T13:43:54.000Z</time>
                <name>Trackpoint 5394</name>
            </trkpt>
            <trkpt lat="49.9178912" lon="10.8067648">
                <ele>236.0</ele>
                <time>2020-08-22T13:43:56.000Z</time>
                <name>Trackpoint 5395</name>
            </trkpt>
            <trkpt lat="49.9179456" lon="10.8066232">
                <ele>236.0</ele>
                <time>2020-08-22T13:43:58.000Z</time>
                <name>Trackpoint 5396</name>
            </trkpt>
            <trkpt lat="49.9179904" lon="10.8064832">
                <ele>236.0</ele>
                <time>2020-08-22T13:44:00.000Z</time>
                <name>Trackpoint 5397</name>
            </trkpt>
            <trkpt lat="49.9180224" lon="10.8063272">
                <ele>236.0</ele>
                <time>2020-08-22T13:44:02.000Z</time>
                <name>Trackpoint 5398</name>
            </trkpt>
            <trkpt lat="49.9180576" lon="10.8061896">
                <ele>236.0</ele>
                <time>2020-08-22T13:44:04.000Z</time>
                <name>Trackpoint 5399</name>
            </trkpt>
            <trkpt lat="49.9181056" lon="10.8060728">
                <ele>236.0</ele>
                <time>2020-08-22T13:44:06.000Z</time>
                <name>Trackpoint 5400</name>
            </trkpt>
            <trkpt lat="49.9181632" lon="10.8059552">
                <ele>236.0</ele>
                <time>2020-08-22T13:44:08.000Z</time>
                <name>Trackpoint 5401</name>
            </trkpt>
            <trkpt lat="49.9182144" lon="10.8058184">
                <ele>236.0</ele>
                <time>2020-08-22T13:44:10.000Z</time>
                <name>Trackpoint 5402</name>
            </trkpt>
            <trkpt lat="49.9182464" lon="10.8056736">
                <ele>236.0</ele>
                <time>2020-08-22T13:44:12.000Z</time>
                <name>Trackpoint 5403</name>
            </trkpt>
            <trkpt lat="49.9182848" lon="10.8055352">
                <ele>236.0</ele>
                <time>2020-08-22T13:44:14.000Z</time>
                <name>Trackpoint 5404</name>
            </trkpt>
            <trkpt lat="49.9183296" lon="10.8053968">
                <ele>236.0</ele>
                <time>2020-08-22T13:44:16.000Z</time>
                <name>Trackpoint 5405</name>
            </trkpt>
            <trkpt lat="49.9183776" lon="10.80526">
                <ele>236.0</ele>
                <time>2020-08-22T13:44:18.000Z</time>
                <name>Trackpoint 5406</name>
            </trkpt>
            <trkpt lat="49.9184256" lon="10.8051232">
                <ele>236.0</ele>
                <time>2020-08-22T13:44:20.000Z</time>
                <name>Trackpoint 5407</name>
            </trkpt>
            <trkpt lat="49.9184832" lon="10.8049832">
                <ele>236.0</ele>
                <time>2020-08-22T13:44:22.000Z</time>
                <name>Trackpoint 5408</name>
            </trkpt>
            <trkpt lat="49.9185344" lon="10.80484">
                <ele>236.0</ele>
                <time>2020-08-22T13:44:24.000Z</time>
                <name>Trackpoint 5409</name>
            </trkpt>
            <trkpt lat="49.9185856" lon="10.8047016">
                <ele>235.0</ele>
                <time>2020-08-22T13:44:26.000Z</time>
                <name>Trackpoint 5410</name>
            </trkpt>
            <trkpt lat="49.9186432" lon="10.8045704">
                <ele>236.0</ele>
                <time>2020-08-22T13:44:28.000Z</time>
                <name>Trackpoint 5411</name>
            </trkpt>
            <trkpt lat="49.918704" lon="10.8044368">
                <ele>236.0</ele>
                <time>2020-08-22T13:44:30.000Z</time>
                <name>Trackpoint 5412</name>
            </trkpt>
            <trkpt lat="49.9187584" lon="10.8042984">
                <ele>236.0</ele>
                <time>2020-08-22T13:44:32.000Z</time>
                <name>Trackpoint 5413</name>
            </trkpt>
            <trkpt lat="49.9188128" lon="10.8041512">
                <ele>236.0</ele>
                <time>2020-08-22T13:44:34.000Z</time>
                <name>Trackpoint 5414</name>
            </trkpt>
            <trkpt lat="49.918864" lon="10.804004">
                <ele>236.0</ele>
                <time>2020-08-22T13:44:36.000Z</time>
                <name>Trackpoint 5415</name>
            </trkpt>
            <trkpt lat="49.9189216" lon="10.8038552">
                <ele>236.0</ele>
                <time>2020-08-22T13:44:38.000Z</time>
                <name>Trackpoint 5416</name>
            </trkpt>
            <trkpt lat="49.918976" lon="10.8037056">
                <ele>236.0</ele>
                <time>2020-08-22T13:44:40.000Z</time>
                <name>Trackpoint 5417</name>
            </trkpt>
            <trkpt lat="49.919024" lon="10.80356">
                <ele>236.0</ele>
                <time>2020-08-22T13:44:42.000Z</time>
                <name>Trackpoint 5418</name>
            </trkpt>
            <trkpt lat="49.9190784" lon="10.8034232">
                <ele>236.0</ele>
                <time>2020-08-22T13:44:44.000Z</time>
                <name>Trackpoint 5419</name>
            </trkpt>
            <trkpt lat="49.9191328" lon="10.8032864">
                <ele>236.0</ele>
                <time>2020-08-22T13:44:46.000Z</time>
                <name>Trackpoint 5420</name>
            </trkpt>
            <trkpt lat="49.9191872" lon="10.8031464">
                <ele>236.0</ele>
                <time>2020-08-22T13:44:48.000Z</time>
                <name>Trackpoint 5421</name>
            </trkpt>
            <trkpt lat="49.9192384" lon="10.8030016">
                <ele>237.0</ele>
                <time>2020-08-22T13:44:50.000Z</time>
                <name>Trackpoint 5422</name>
            </trkpt>
            <trkpt lat="49.9192928" lon="10.8028544">
                <ele>237.0</ele>
                <time>2020-08-22T13:44:52.000Z</time>
                <name>Trackpoint 5423</name>
            </trkpt>
            <trkpt lat="49.9193504" lon="10.8027112">
                <ele>236.0</ele>
                <time>2020-08-22T13:44:54.000Z</time>
                <name>Trackpoint 5424</name>
            </trkpt>
            <trkpt lat="49.9193984" lon="10.8025616">
                <ele>237.0</ele>
                <time>2020-08-22T13:44:56.000Z</time>
                <name>Trackpoint 5425</name>
            </trkpt>
            <trkpt lat="49.919456" lon="10.802412">
                <ele>237.0</ele>
                <time>2020-08-22T13:44:58.000Z</time>
                <name>Trackpoint 5426</name>
            </trkpt>
            <trkpt lat="49.9195104" lon="10.8022672">
                <ele>237.0</ele>
                <time>2020-08-22T13:45:00.000Z</time>
                <name>Trackpoint 5427</name>
            </trkpt>
            <trkpt lat="49.9195648" lon="10.802116">
                <ele>237.0</ele>
                <time>2020-08-22T13:45:02.000Z</time>
                <name>Trackpoint 5428</name>
            </trkpt>
            <trkpt lat="49.9196192" lon="10.8019712">
                <ele>236.0</ele>
                <time>2020-08-22T13:45:04.000Z</time>
                <name>Trackpoint 5429</name>
            </trkpt>
            <trkpt lat="49.9196768" lon="10.8018248">
                <ele>237.0</ele>
                <time>2020-08-22T13:45:06.000Z</time>
                <name>Trackpoint 5430</name>
            </trkpt>
            <trkpt lat="49.9197344" lon="10.8016784">
                <ele>237.0</ele>
                <time>2020-08-22T13:45:08.000Z</time>
                <name>Trackpoint 5431</name>
            </trkpt>
            <trkpt lat="49.9197856" lon="10.8015336">
                <ele>237.0</ele>
                <time>2020-08-22T13:45:10.000Z</time>
                <name>Trackpoint 5432</name>
            </trkpt>
            <trkpt lat="49.9198336" lon="10.8013848">
                <ele>237.0</ele>
                <time>2020-08-22T13:45:12.000Z</time>
                <name>Trackpoint 5433</name>
            </trkpt>
            <trkpt lat="49.919888" lon="10.80124">
                <ele>238.0</ele>
                <time>2020-08-22T13:45:14.000Z</time>
                <name>Trackpoint 5434</name>
            </trkpt>
            <trkpt lat="49.9199424" lon="10.8010912">
                <ele>238.0</ele>
                <time>2020-08-22T13:45:16.000Z</time>
                <name>Trackpoint 5435</name>
            </trkpt>
            <trkpt lat="49.9199904" lon="10.8009416">
                <ele>238.0</ele>
                <time>2020-08-22T13:45:18.000Z</time>
                <name>Trackpoint 5436</name>
            </trkpt>
            <trkpt lat="49.9200448" lon="10.800792">
                <ele>237.0</ele>
                <time>2020-08-22T13:45:20.000Z</time>
                <name>Trackpoint 5437</name>
            </trkpt>
            <trkpt lat="49.920096" lon="10.8006448">
                <ele>237.0</ele>
                <time>2020-08-22T13:45:22.000Z</time>
                <name>Trackpoint 5438</name>
            </trkpt>
            <trkpt lat="49.9201472" lon="10.8004912">
                <ele>237.0</ele>
                <time>2020-08-22T13:45:24.000Z</time>
                <name>Trackpoint 5439</name>
            </trkpt>
            <trkpt lat="49.9202016" lon="10.8003368">
                <ele>237.0</ele>
                <time>2020-08-22T13:45:26.000Z</time>
                <name>Trackpoint 5440</name>
            </trkpt>
            <trkpt lat="49.9202528" lon="10.8001808">
                <ele>237.0</ele>
                <time>2020-08-22T13:45:28.000Z</time>
                <name>Trackpoint 5441</name>
            </trkpt>
            <trkpt lat="49.9203104" lon="10.8000288">
                <ele>237.0</ele>
                <time>2020-08-22T13:45:30.000Z</time>
                <name>Trackpoint 5442</name>
            </trkpt>
            <trkpt lat="49.9203552" lon="10.7998736">
                <ele>237.0</ele>
                <time>2020-08-22T13:45:32.000Z</time>
                <name>Trackpoint 5443</name>
            </trkpt>
            <trkpt lat="49.9204064" lon="10.7997312">
                <ele>237.0</ele>
                <time>2020-08-22T13:45:34.000Z</time>
                <name>Trackpoint 5444</name>
            </trkpt>
            <trkpt lat="49.9204608" lon="10.7995864">
                <ele>237.0</ele>
                <time>2020-08-22T13:45:36.000Z</time>
                <name>Trackpoint 5445</name>
            </trkpt>
            <trkpt lat="49.920512" lon="10.799452">
                <ele>238.0</ele>
                <time>2020-08-22T13:45:38.000Z</time>
                <name>Trackpoint 5446</name>
            </trkpt>
            <trkpt lat="49.9205664" lon="10.799312">
                <ele>238.0</ele>
                <time>2020-08-22T13:45:40.000Z</time>
                <name>Trackpoint 5447</name>
            </trkpt>
            <trkpt lat="49.9206016" lon="10.7991552">
                <ele>237.0</ele>
                <time>2020-08-22T13:45:42.000Z</time>
                <name>Trackpoint 5448</name>
            </trkpt>
            <trkpt lat="49.9206592" lon="10.7990176">
                <ele>238.0</ele>
                <time>2020-08-22T13:45:44.000Z</time>
                <name>Trackpoint 5449</name>
            </trkpt>
            <trkpt lat="49.9207008" lon="10.7988656">
                <ele>238.0</ele>
                <time>2020-08-22T13:45:46.000Z</time>
                <name>Trackpoint 5450</name>
            </trkpt>
            <trkpt lat="49.920752" lon="10.7987248">
                <ele>238.0</ele>
                <time>2020-08-22T13:45:48.000Z</time>
                <name>Trackpoint 5451</name>
            </trkpt>
            <trkpt lat="49.9208" lon="10.79858">
                <ele>238.0</ele>
                <time>2020-08-22T13:45:50.000Z</time>
                <name>Trackpoint 5452</name>
            </trkpt>
            <trkpt lat="49.9208448" lon="10.7984312">
                <ele>238.0</ele>
                <time>2020-08-22T13:45:52.000Z</time>
                <name>Trackpoint 5453</name>
            </trkpt>
            <trkpt lat="49.9209056" lon="10.7983">
                <ele>238.0</ele>
                <time>2020-08-22T13:45:54.000Z</time>
                <name>Trackpoint 5454</name>
            </trkpt>
            <trkpt lat="49.92096" lon="10.7981664">
                <ele>237.0</ele>
                <time>2020-08-22T13:45:56.000Z</time>
                <name>Trackpoint 5455</name>
            </trkpt>
            <trkpt lat="49.921008" lon="10.7980216">
                <ele>237.0</ele>
                <time>2020-08-22T13:45:58.000Z</time>
                <name>Trackpoint 5456</name>
            </trkpt>
            <trkpt lat="49.9210656" lon="10.79788">
                <ele>237.0</ele>
                <time>2020-08-22T13:46:00.000Z</time>
                <name>Trackpoint 5457</name>
            </trkpt>
            <trkpt lat="49.9211072" lon="10.7977464">
                <ele>237.0</ele>
                <time>2020-08-22T13:46:02.000Z</time>
                <name>Trackpoint 5458</name>
            </trkpt>
            <trkpt lat="49.9211584" lon="10.7976048">
                <ele>238.0</ele>
                <time>2020-08-22T13:46:04.000Z</time>
                <name>Trackpoint 5459</name>
            </trkpt>
            <trkpt lat="49.9212032" lon="10.7974616">
                <ele>237.0</ele>
                <time>2020-08-22T13:46:06.000Z</time>
                <name>Trackpoint 5460</name>
            </trkpt>
            <trkpt lat="49.9212576" lon="10.7973216">
                <ele>237.0</ele>
                <time>2020-08-22T13:46:08.000Z</time>
                <name>Trackpoint 5461</name>
            </trkpt>
            <trkpt lat="49.9213056" lon="10.79718">
                <ele>237.0</ele>
                <time>2020-08-22T13:46:10.000Z</time>
                <name>Trackpoint 5462</name>
            </trkpt>
            <trkpt lat="49.92136" lon="10.79704">
                <ele>237.0</ele>
                <time>2020-08-22T13:46:12.000Z</time>
                <name>Trackpoint 5463</name>
            </trkpt>
            <trkpt lat="49.9214112" lon="10.7969">
                <ele>238.0</ele>
                <time>2020-08-22T13:46:14.000Z</time>
                <name>Trackpoint 5464</name>
            </trkpt>
            <trkpt lat="49.9214592" lon="10.7967568">
                <ele>238.0</ele>
                <time>2020-08-22T13:46:16.000Z</time>
                <name>Trackpoint 5465</name>
            </trkpt>
            <trkpt lat="49.9215072" lon="10.796608">
                <ele>238.0</ele>
                <time>2020-08-22T13:46:18.000Z</time>
                <name>Trackpoint 5466</name>
            </trkpt>
            <trkpt lat="49.9215552" lon="10.796456">
                <ele>238.0</ele>
                <time>2020-08-22T13:46:20.000Z</time>
                <name>Trackpoint 5467</name>
            </trkpt>
            <trkpt lat="49.9215968" lon="10.7963136">
                <ele>237.0</ele>
                <time>2020-08-22T13:46:22.000Z</time>
                <name>Trackpoint 5468</name>
            </trkpt>
            <trkpt lat="49.9216352" lon="10.7961584">
                <ele>237.0</ele>
                <time>2020-08-22T13:46:24.000Z</time>
                <name>Trackpoint 5469</name>
            </trkpt>
            <trkpt lat="49.9216704" lon="10.7960064">
                <ele>238.0</ele>
                <time>2020-08-22T13:46:26.000Z</time>
                <name>Trackpoint 5470</name>
            </trkpt>
            <trkpt lat="49.9216992" lon="10.79586">
                <ele>237.0</ele>
                <time>2020-08-22T13:46:28.000Z</time>
                <name>Trackpoint 5471</name>
            </trkpt>
            <trkpt lat="49.9217184" lon="10.7957352">
                <ele>237.0</ele>
                <time>2020-08-22T13:46:30.000Z</time>
                <name>Trackpoint 5472</name>
            </trkpt>
            <trkpt lat="49.9217408" lon="10.7956">
                <ele>237.0</ele>
                <time>2020-08-22T13:46:32.000Z</time>
                <name>Trackpoint 5473</name>
            </trkpt>
            <trkpt lat="49.9217632" lon="10.7954728">
                <ele>237.0</ele>
                <time>2020-08-22T13:46:34.000Z</time>
                <name>Trackpoint 5474</name>
            </trkpt>
            <trkpt lat="49.9217888" lon="10.7953528">
                <ele>237.0</ele>
                <time>2020-08-22T13:46:36.000Z</time>
                <name>Trackpoint 5475</name>
            </trkpt>
            <trkpt lat="49.9218176" lon="10.7952344">
                <ele>237.0</ele>
                <time>2020-08-22T13:46:38.000Z</time>
                <name>Trackpoint 5476</name>
            </trkpt>
            <trkpt lat="49.921856" lon="10.7951">
                <ele>236.0</ele>
                <time>2020-08-22T13:46:40.000Z</time>
                <name>Trackpoint 5477</name>
            </trkpt>
            <trkpt lat="49.921904" lon="10.7949496">
                <ele>235.0</ele>
                <time>2020-08-22T13:46:42.000Z</time>
                <name>Trackpoint 5478</name>
            </trkpt>
            <trkpt lat="49.921952" lon="10.7947776">
                <ele>234.0</ele>
                <time>2020-08-22T13:46:44.000Z</time>
                <name>Trackpoint 5479</name>
            </trkpt>
            <trkpt lat="49.9219808" lon="10.7945992">
                <ele>234.0</ele>
                <time>2020-08-22T13:46:46.000Z</time>
                <name>Trackpoint 5480</name>
            </trkpt>
            <trkpt lat="49.9219968" lon="10.7944416">
                <ele>235.0</ele>
                <time>2020-08-22T13:46:48.000Z</time>
                <name>Trackpoint 5481</name>
            </trkpt>
            <trkpt lat="49.9220096" lon="10.7943">
                <ele>235.0</ele>
                <time>2020-08-22T13:46:50.000Z</time>
                <name>Trackpoint 5482</name>
            </trkpt>
            <trkpt lat="49.9220224" lon="10.7941736">
                <ele>235.0</ele>
                <time>2020-08-22T13:46:52.000Z</time>
                <name>Trackpoint 5483</name>
            </trkpt>
            <trkpt lat="49.9220384" lon="10.7940632">
                <ele>235.0</ele>
                <time>2020-08-22T13:46:54.000Z</time>
                <name>Trackpoint 5484</name>
            </trkpt>
            <trkpt lat="49.9220544" lon="10.7939528">
                <ele>234.0</ele>
                <time>2020-08-22T13:46:56.000Z</time>
                <name>Trackpoint 5485</name>
            </trkpt>
            <trkpt lat="49.9220576" lon="10.7938344">
                <ele>234.0</ele>
                <time>2020-08-22T13:46:58.000Z</time>
                <name>Trackpoint 5486</name>
            </trkpt>
            <trkpt lat="49.9220736" lon="10.7937088">
                <ele>235.0</ele>
                <time>2020-08-22T13:47:00.000Z</time>
                <name>Trackpoint 5487</name>
            </trkpt>
            <trkpt lat="49.9220896" lon="10.79358">
                <ele>235.0</ele>
                <time>2020-08-22T13:47:02.000Z</time>
                <name>Trackpoint 5488</name>
            </trkpt>
            <trkpt lat="49.9221024" lon="10.7934504">
                <ele>235.0</ele>
                <time>2020-08-22T13:47:04.000Z</time>
                <name>Trackpoint 5489</name>
            </trkpt>
            <trkpt lat="49.9221184" lon="10.7933168">
                <ele>236.0</ele>
                <time>2020-08-22T13:47:06.000Z</time>
                <name>Trackpoint 5490</name>
            </trkpt>
            <trkpt lat="49.9221312" lon="10.7931984">
                <ele>236.0</ele>
                <time>2020-08-22T13:47:08.000Z</time>
                <name>Trackpoint 5491</name>
            </trkpt>
            <trkpt lat="49.9221504" lon="10.7930872">
                <ele>235.0</ele>
                <time>2020-08-22T13:47:10.000Z</time>
                <name>Trackpoint 5492</name>
            </trkpt>
            <trkpt lat="49.9221696" lon="10.7929672">
                <ele>236.0</ele>
                <time>2020-08-22T13:47:12.000Z</time>
                <name>Trackpoint 5493</name>
            </trkpt>
            <trkpt lat="49.9221824" lon="10.7928464">
                <ele>236.0</ele>
                <time>2020-08-22T13:47:14.000Z</time>
                <name>Trackpoint 5494</name>
            </trkpt>
            <trkpt lat="49.922192" lon="10.7927352">
                <ele>236.0</ele>
                <time>2020-08-22T13:47:16.000Z</time>
                <name>Trackpoint 5495</name>
            </trkpt>
            <trkpt lat="49.9222016" lon="10.7926328">
                <ele>236.0</ele>
                <time>2020-08-22T13:47:18.000Z</time>
                <name>Trackpoint 5496</name>
            </trkpt>
            <trkpt lat="49.9222176" lon="10.7925216">
                <ele>236.0</ele>
                <time>2020-08-22T13:47:20.000Z</time>
                <name>Trackpoint 5497</name>
            </trkpt>
            <trkpt lat="49.9222336" lon="10.7924096">
                <ele>236.0</ele>
                <time>2020-08-22T13:47:22.000Z</time>
                <name>Trackpoint 5498</name>
            </trkpt>
            <trkpt lat="49.92224" lon="10.7923072">
                <ele>237.0</ele>
                <time>2020-08-22T13:47:24.000Z</time>
                <name>Trackpoint 5499</name>
            </trkpt>
            <trkpt lat="49.9222528" lon="10.7922136">
                <ele>236.0</ele>
                <time>2020-08-22T13:47:26.000Z</time>
                <name>Trackpoint 5500</name>
            </trkpt>
            <trkpt lat="49.922272" lon="10.7920848">
                <ele>236.0</ele>
                <time>2020-08-22T13:47:29.000Z</time>
                <name>Trackpoint 5501</name>
            </trkpt>
            <trkpt lat="49.9222752" lon="10.7919616">
                <ele>236.0</ele>
                <time>2020-08-22T13:47:32.000Z</time>
                <name>Trackpoint 5502</name>
            </trkpt>
            <trkpt lat="49.9222912" lon="10.7918552">
                <ele>237.0</ele>
                <time>2020-08-22T13:47:35.000Z</time>
                <name>Trackpoint 5503</name>
            </trkpt>
            <trkpt lat="49.9223008" lon="10.7917336">
                <ele>236.0</ele>
                <time>2020-08-22T13:47:38.000Z</time>
                <name>Trackpoint 5504</name>
            </trkpt>
            <trkpt lat="49.92232" lon="10.79162">
                <ele>236.0</ele>
                <time>2020-08-22T13:47:40.000Z</time>
                <name>Trackpoint 5505</name>
            </trkpt>
            <trkpt lat="49.922336" lon="10.7914888">
                <ele>236.0</ele>
                <time>2020-08-22T13:47:42.000Z</time>
                <name>Trackpoint 5506</name>
            </trkpt>
            <trkpt lat="49.9223488" lon="10.7913512">
                <ele>237.0</ele>
                <time>2020-08-22T13:47:44.000Z</time>
                <name>Trackpoint 5507</name>
            </trkpt>
            <trkpt lat="49.9223648" lon="10.7912064">
                <ele>237.0</ele>
                <time>2020-08-22T13:47:46.000Z</time>
                <name>Trackpoint 5508</name>
            </trkpt>
            <trkpt lat="49.9223776" lon="10.7910656">
                <ele>237.0</ele>
                <time>2020-08-22T13:47:48.000Z</time>
                <name>Trackpoint 5509</name>
            </trkpt>
            <trkpt lat="49.9223936" lon="10.7909336">
                <ele>237.0</ele>
                <time>2020-08-22T13:47:50.000Z</time>
                <name>Trackpoint 5510</name>
            </trkpt>
            <trkpt lat="49.922416" lon="10.7907936">
                <ele>237.0</ele>
                <time>2020-08-22T13:47:52.000Z</time>
                <name>Trackpoint 5511</name>
            </trkpt>
            <trkpt lat="49.9224288" lon="10.7906648">
                <ele>237.0</ele>
                <time>2020-08-22T13:47:54.000Z</time>
                <name>Trackpoint 5512</name>
            </trkpt>
            <trkpt lat="49.9224448" lon="10.7905384">
                <ele>236.0</ele>
                <time>2020-08-22T13:47:56.000Z</time>
                <name>Trackpoint 5513</name>
            </trkpt>
            <trkpt lat="49.9224544" lon="10.7903984">
                <ele>236.0</ele>
                <time>2020-08-22T13:47:58.000Z</time>
                <name>Trackpoint 5514</name>
            </trkpt>
            <trkpt lat="49.9224672" lon="10.7902496">
                <ele>236.0</ele>
                <time>2020-08-22T13:48:00.000Z</time>
                <name>Trackpoint 5515</name>
            </trkpt>
            <trkpt lat="49.9224768" lon="10.7901024">
                <ele>236.0</ele>
                <time>2020-08-22T13:48:02.000Z</time>
                <name>Trackpoint 5516</name>
            </trkpt>
            <trkpt lat="49.922496" lon="10.7899568">
                <ele>236.0</ele>
                <time>2020-08-22T13:48:04.000Z</time>
                <name>Trackpoint 5517</name>
            </trkpt>
            <trkpt lat="49.922512" lon="10.7898016">
                <ele>236.0</ele>
                <time>2020-08-22T13:48:06.000Z</time>
                <name>Trackpoint 5518</name>
            </trkpt>
            <trkpt lat="49.9225248" lon="10.7896568">
                <ele>236.0</ele>
                <time>2020-08-22T13:48:08.000Z</time>
                <name>Trackpoint 5519</name>
            </trkpt>
            <trkpt lat="49.9225248" lon="10.7895048">
                <ele>236.0</ele>
                <time>2020-08-22T13:48:10.000Z</time>
                <name>Trackpoint 5520</name>
            </trkpt>
            <trkpt lat="49.9225344" lon="10.789356">
                <ele>236.0</ele>
                <time>2020-08-22T13:48:12.000Z</time>
                <name>Trackpoint 5521</name>
            </trkpt>
            <trkpt lat="49.9225472" lon="10.7891952">
                <ele>236.0</ele>
                <time>2020-08-22T13:48:14.000Z</time>
                <name>Trackpoint 5522</name>
            </trkpt>
            <trkpt lat="49.9225632" lon="10.78904">
                <ele>236.0</ele>
                <time>2020-08-22T13:48:16.000Z</time>
                <name>Trackpoint 5523</name>
            </trkpt>
            <trkpt lat="49.9225728" lon="10.78888">
                <ele>236.0</ele>
                <time>2020-08-22T13:48:18.000Z</time>
                <name>Trackpoint 5524</name>
            </trkpt>
            <trkpt lat="49.9225792" lon="10.788716">
                <ele>236.0</ele>
                <time>2020-08-22T13:48:20.000Z</time>
                <name>Trackpoint 5525</name>
            </trkpt>
            <trkpt lat="49.9225792" lon="10.7885616">
                <ele>236.0</ele>
                <time>2020-08-22T13:48:22.000Z</time>
                <name>Trackpoint 5526</name>
            </trkpt>
            <trkpt lat="49.922592" lon="10.788388">
                <ele>236.0</ele>
                <time>2020-08-22T13:48:24.000Z</time>
                <name>Trackpoint 5527</name>
            </trkpt>
            <trkpt lat="49.9226048" lon="10.7882368">
                <ele>236.0</ele>
                <time>2020-08-22T13:48:26.000Z</time>
                <name>Trackpoint 5528</name>
            </trkpt>
            <trkpt lat="49.9226144" lon="10.7880736">
                <ele>236.0</ele>
                <time>2020-08-22T13:48:28.000Z</time>
                <name>Trackpoint 5529</name>
            </trkpt>
            <trkpt lat="49.9226304" lon="10.7879112">
                <ele>236.0</ele>
                <time>2020-08-22T13:48:30.000Z</time>
                <name>Trackpoint 5530</name>
            </trkpt>
            <trkpt lat="49.9226496" lon="10.7877912">
                <ele>236.0</ele>
                <time>2020-08-22T13:48:32.000Z</time>
                <name>Trackpoint 5531</name>
            </trkpt>
            <trkpt lat="49.9226752" lon="10.7876528">
                <ele>236.0</ele>
                <time>2020-08-22T13:48:34.000Z</time>
                <name>Trackpoint 5532</name>
            </trkpt>
            <trkpt lat="49.9226912" lon="10.7874944">
                <ele>236.0</ele>
                <time>2020-08-22T13:48:36.000Z</time>
                <name>Trackpoint 5533</name>
            </trkpt>
            <trkpt lat="49.9227072" lon="10.7873472">
                <ele>236.0</ele>
                <time>2020-08-22T13:48:38.000Z</time>
                <name>Trackpoint 5534</name>
            </trkpt>
            <trkpt lat="49.9227264" lon="10.7871848">
                <ele>236.0</ele>
                <time>2020-08-22T13:48:40.000Z</time>
                <name>Trackpoint 5535</name>
            </trkpt>
            <trkpt lat="49.9227328" lon="10.787012">
                <ele>236.0</ele>
                <time>2020-08-22T13:48:42.000Z</time>
                <name>Trackpoint 5536</name>
            </trkpt>
            <trkpt lat="49.9227424" lon="10.7869192">
                <ele>236.0</ele>
                <time>2020-08-22T13:48:43.000Z</time>
                <name>Trackpoint 5537</name>
            </trkpt>
            <trkpt lat="49.922752" lon="10.78674">
                <ele>236.0</ele>
                <time>2020-08-22T13:48:45.000Z</time>
                <name>Trackpoint 5538</name>
            </trkpt>
            <trkpt lat="49.9227552" lon="10.7866496">
                <ele>236.0</ele>
                <time>2020-08-22T13:48:46.000Z</time>
                <name>Trackpoint 5539</name>
            </trkpt>
            <trkpt lat="49.9227552" lon="10.7864848">
                <ele>236.0</ele>
                <time>2020-08-22T13:48:48.000Z</time>
                <name>Trackpoint 5540</name>
            </trkpt>
            <trkpt lat="49.9227616" lon="10.78632">
                <ele>236.0</ele>
                <time>2020-08-22T13:48:50.000Z</time>
                <name>Trackpoint 5541</name>
            </trkpt>
            <trkpt lat="49.922784" lon="10.786148">
                <ele>236.0</ele>
                <time>2020-08-22T13:48:52.000Z</time>
                <name>Trackpoint 5542</name>
            </trkpt>
            <trkpt lat="49.9228032" lon="10.7859936">
                <ele>236.0</ele>
                <time>2020-08-22T13:48:54.000Z</time>
                <name>Trackpoint 5543</name>
            </trkpt>
            <trkpt lat="49.9228128" lon="10.7858432">
                <ele>236.0</ele>
                <time>2020-08-22T13:48:56.000Z</time>
                <name>Trackpoint 5544</name>
            </trkpt>
            <trkpt lat="49.9228416" lon="10.7856968">
                <ele>236.0</ele>
                <time>2020-08-22T13:48:58.000Z</time>
                <name>Trackpoint 5545</name>
            </trkpt>
            <trkpt lat="49.9228672" lon="10.7855328">
                <ele>236.0</ele>
                <time>2020-08-22T13:49:00.000Z</time>
                <name>Trackpoint 5546</name>
            </trkpt>
            <trkpt lat="49.9228704" lon="10.785368">
                <ele>236.0</ele>
                <time>2020-08-22T13:49:02.000Z</time>
                <name>Trackpoint 5547</name>
            </trkpt>
            <trkpt lat="49.9228832" lon="10.7851984">
                <ele>236.0</ele>
                <time>2020-08-22T13:49:04.000Z</time>
                <name>Trackpoint 5548</name>
            </trkpt>
            <trkpt lat="49.922896" lon="10.7850248">
                <ele>236.0</ele>
                <time>2020-08-22T13:49:06.000Z</time>
                <name>Trackpoint 5549</name>
            </trkpt>
            <trkpt lat="49.9229056" lon="10.7848616">
                <ele>236.0</ele>
                <time>2020-08-22T13:49:08.000Z</time>
                <name>Trackpoint 5550</name>
            </trkpt>
            <trkpt lat="49.9229056" lon="10.7847048">
                <ele>236.0</ele>
                <time>2020-08-22T13:49:10.000Z</time>
                <name>Trackpoint 5551</name>
            </trkpt>
            <trkpt lat="49.9229152" lon="10.7845432">
                <ele>236.0</ele>
                <time>2020-08-22T13:49:12.000Z</time>
                <name>Trackpoint 5552</name>
            </trkpt>
            <trkpt lat="49.9229312" lon="10.7843664">
                <ele>237.0</ele>
                <time>2020-08-22T13:49:14.000Z</time>
                <name>Trackpoint 5553</name>
            </trkpt>
            <trkpt lat="49.9229408" lon="10.7842728">
                <ele>237.0</ele>
                <time>2020-08-22T13:49:15.000Z</time>
                <name>Trackpoint 5554</name>
            </trkpt>
            <trkpt lat="49.9229504" lon="10.78418">
                <ele>236.0</ele>
                <time>2020-08-22T13:49:16.000Z</time>
                <name>Trackpoint 5555</name>
            </trkpt>
            <trkpt lat="49.9229568" lon="10.7840864">
                <ele>236.0</ele>
                <time>2020-08-22T13:49:17.000Z</time>
                <name>Trackpoint 5556</name>
            </trkpt>
            <trkpt lat="49.9229856" lon="10.7839272">
                <ele>236.0</ele>
                <time>2020-08-22T13:49:19.000Z</time>
                <name>Trackpoint 5557</name>
            </trkpt>
            <trkpt lat="49.9229952" lon="10.7837536">
                <ele>236.0</ele>
                <time>2020-08-22T13:49:21.000Z</time>
                <name>Trackpoint 5558</name>
            </trkpt>
            <trkpt lat="49.9230016" lon="10.7836616">
                <ele>236.0</ele>
                <time>2020-08-22T13:49:22.000Z</time>
                <name>Trackpoint 5559</name>
            </trkpt>
            <trkpt lat="49.9230112" lon="10.783564">
                <ele>236.0</ele>
                <time>2020-08-22T13:49:23.000Z</time>
                <name>Trackpoint 5560</name>
            </trkpt>
            <trkpt lat="49.9230432" lon="10.7833992">
                <ele>236.0</ele>
                <time>2020-08-22T13:49:25.000Z</time>
                <name>Trackpoint 5561</name>
            </trkpt>
            <trkpt lat="49.9230496" lon="10.78322">
                <ele>236.0</ele>
                <time>2020-08-22T13:49:27.000Z</time>
                <name>Trackpoint 5562</name>
            </trkpt>
            <trkpt lat="49.9230496" lon="10.7831296">
                <ele>236.0</ele>
                <time>2020-08-22T13:49:28.000Z</time>
                <name>Trackpoint 5563</name>
            </trkpt>
            <trkpt lat="49.9230656" lon="10.7829504">
                <ele>236.0</ele>
                <time>2020-08-22T13:49:30.000Z</time>
                <name>Trackpoint 5564</name>
            </trkpt>
            <trkpt lat="49.9230688" lon="10.7828576">
                <ele>236.0</ele>
                <time>2020-08-22T13:49:31.000Z</time>
                <name>Trackpoint 5565</name>
            </trkpt>
            <trkpt lat="49.9230752" lon="10.7827632">
                <ele>236.0</ele>
                <time>2020-08-22T13:49:32.000Z</time>
                <name>Trackpoint 5566</name>
            </trkpt>
            <trkpt lat="49.9230912" lon="10.7826744">
                <ele>236.0</ele>
                <time>2020-08-22T13:49:33.000Z</time>
                <name>Trackpoint 5567</name>
            </trkpt>
            <trkpt lat="49.92312" lon="10.7824936">
                <ele>236.0</ele>
                <time>2020-08-22T13:49:35.000Z</time>
                <name>Trackpoint 5568</name>
            </trkpt>
            <trkpt lat="49.9231328" lon="10.7824">
                <ele>236.0</ele>
                <time>2020-08-22T13:49:36.000Z</time>
                <name>Trackpoint 5569</name>
            </trkpt>
            <trkpt lat="49.9231456" lon="10.7823048">
                <ele>236.0</ele>
                <time>2020-08-22T13:49:37.000Z</time>
                <name>Trackpoint 5570</name>
            </trkpt>
            <trkpt lat="49.9231552" lon="10.7822152">
                <ele>236.0</ele>
                <time>2020-08-22T13:49:38.000Z</time>
                <name>Trackpoint 5571</name>
            </trkpt>
            <trkpt lat="49.9231648" lon="10.7821232">
                <ele>236.0</ele>
                <time>2020-08-22T13:49:39.000Z</time>
                <name>Trackpoint 5572</name>
            </trkpt>
            <trkpt lat="49.923168" lon="10.782032">
                <ele>236.0</ele>
                <time>2020-08-22T13:49:40.000Z</time>
                <name>Trackpoint 5573</name>
            </trkpt>
            <trkpt lat="49.923184" lon="10.7818544">
                <ele>236.0</ele>
                <time>2020-08-22T13:49:42.000Z</time>
                <name>Trackpoint 5574</name>
            </trkpt>
            <trkpt lat="49.9232032" lon="10.781676">
                <ele>236.0</ele>
                <time>2020-08-22T13:49:44.000Z</time>
                <name>Trackpoint 5575</name>
            </trkpt>
            <trkpt lat="49.9232192" lon="10.7815048">
                <ele>236.0</ele>
                <time>2020-08-22T13:49:46.000Z</time>
                <name>Trackpoint 5576</name>
            </trkpt>
            <trkpt lat="49.9232224" lon="10.7813456">
                <ele>235.0</ele>
                <time>2020-08-22T13:49:48.000Z</time>
                <name>Trackpoint 5577</name>
            </trkpt>
            <trkpt lat="49.9232384" lon="10.7811784">
                <ele>235.0</ele>
                <time>2020-08-22T13:49:50.000Z</time>
                <name>Trackpoint 5578</name>
            </trkpt>
            <trkpt lat="49.923248" lon="10.7810136">
                <ele>235.0</ele>
                <time>2020-08-22T13:49:52.000Z</time>
                <name>Trackpoint 5579</name>
            </trkpt>
            <trkpt lat="49.9232704" lon="10.78088">
                <ele>235.0</ele>
                <time>2020-08-22T13:49:54.000Z</time>
                <name>Trackpoint 5580</name>
            </trkpt>
            <trkpt lat="49.9232864" lon="10.7807368">
                <ele>235.0</ele>
                <time>2020-08-22T13:49:56.000Z</time>
                <name>Trackpoint 5581</name>
            </trkpt>
            <trkpt lat="49.9233024" lon="10.7805968">
                <ele>235.0</ele>
                <time>2020-08-22T13:49:58.000Z</time>
                <name>Trackpoint 5582</name>
            </trkpt>
            <trkpt lat="49.9232864" lon="10.7804896">
                <ele>235.0</ele>
                <time>2020-08-22T13:50:00.000Z</time>
                <name>Trackpoint 5583</name>
            </trkpt>
            <trkpt lat="49.9232608" lon="10.7804016">
                <ele>235.0</ele>
                <time>2020-08-22T13:50:02.000Z</time>
                <name>Trackpoint 5584</name>
            </trkpt>
            <trkpt lat="49.923248" lon="10.780296">
                <ele>235.0</ele>
                <time>2020-08-22T13:50:04.000Z</time>
                <name>Trackpoint 5585</name>
            </trkpt>
            <trkpt lat="49.9232672" lon="10.7801704">
                <ele>235.0</ele>
                <time>2020-08-22T13:50:06.000Z</time>
                <name>Trackpoint 5586</name>
            </trkpt>
            <trkpt lat="49.9232896" lon="10.7800448">
                <ele>235.0</ele>
                <time>2020-08-22T13:50:08.000Z</time>
                <name>Trackpoint 5587</name>
            </trkpt>
            <trkpt lat="49.9233088" lon="10.779912">
                <ele>235.0</ele>
                <time>2020-08-22T13:50:10.000Z</time>
                <name>Trackpoint 5588</name>
            </trkpt>
            <trkpt lat="49.9233312" lon="10.7797744">
                <ele>235.0</ele>
                <time>2020-08-22T13:50:12.000Z</time>
                <name>Trackpoint 5589</name>
            </trkpt>
            <trkpt lat="49.92336" lon="10.7796424">
                <ele>235.0</ele>
                <time>2020-08-22T13:50:14.000Z</time>
                <name>Trackpoint 5590</name>
            </trkpt>
            <trkpt lat="49.9233696" lon="10.7795064">
                <ele>235.0</ele>
                <time>2020-08-22T13:50:16.000Z</time>
                <name>Trackpoint 5591</name>
            </trkpt>
            <trkpt lat="49.9233888" lon="10.7793704">
                <ele>235.0</ele>
                <time>2020-08-22T13:50:18.000Z</time>
                <name>Trackpoint 5592</name>
            </trkpt>
            <trkpt lat="49.9234112" lon="10.7792368">
                <ele>235.0</ele>
                <time>2020-08-22T13:50:20.000Z</time>
                <name>Trackpoint 5593</name>
            </trkpt>
            <trkpt lat="49.92344" lon="10.7791032">
                <ele>235.0</ele>
                <time>2020-08-22T13:50:22.000Z</time>
                <name>Trackpoint 5594</name>
            </trkpt>
            <trkpt lat="49.9234784" lon="10.7789744">
                <ele>235.0</ele>
                <time>2020-08-22T13:50:24.000Z</time>
                <name>Trackpoint 5595</name>
            </trkpt>
            <trkpt lat="49.9235168" lon="10.7788512">
                <ele>235.0</ele>
                <time>2020-08-22T13:50:26.000Z</time>
                <name>Trackpoint 5596</name>
            </trkpt>
            <trkpt lat="49.9235392" lon="10.7787416">
                <ele>236.0</ele>
                <time>2020-08-22T13:50:28.000Z</time>
                <name>Trackpoint 5597</name>
            </trkpt>
            <trkpt lat="49.9235328" lon="10.7786448">
                <ele>235.0</ele>
                <time>2020-08-22T13:51:05.000Z</time>
                <name>Trackpoint 5598</name>
            </trkpt>
            <trkpt lat="49.9235488" lon="10.778548">
                <ele>235.0</ele>
                <time>2020-08-22T13:51:09.000Z</time>
                <name>Trackpoint 5599</name>
            </trkpt>
            <trkpt lat="49.9235648" lon="10.7784568">
                <ele>235.0</ele>
                <time>2020-08-22T13:51:11.000Z</time>
                <name>Trackpoint 5600</name>
            </trkpt>
            <trkpt lat="49.9235872" lon="10.7783472">
                <ele>235.0</ele>
                <time>2020-08-22T13:51:13.000Z</time>
                <name>Trackpoint 5601</name>
            </trkpt>
            <trkpt lat="49.9236096" lon="10.7782296">
                <ele>235.0</ele>
                <time>2020-08-22T13:51:15.000Z</time>
                <name>Trackpoint 5602</name>
            </trkpt>
            <trkpt lat="49.9236384" lon="10.7781112">
                <ele>235.0</ele>
                <time>2020-08-22T13:51:17.000Z</time>
                <name>Trackpoint 5603</name>
            </trkpt>
            <trkpt lat="49.9236576" lon="10.77798">
                <ele>235.0</ele>
                <time>2020-08-22T13:51:19.000Z</time>
                <name>Trackpoint 5604</name>
            </trkpt>
            <trkpt lat="49.9236768" lon="10.777848">
                <ele>235.0</ele>
                <time>2020-08-22T13:51:21.000Z</time>
                <name>Trackpoint 5605</name>
            </trkpt>
            <trkpt lat="49.9236992" lon="10.7777368">
                <ele>235.0</ele>
                <time>2020-08-22T13:51:23.000Z</time>
                <name>Trackpoint 5606</name>
            </trkpt>
            <trkpt lat="49.9237216" lon="10.7776336">
                <ele>235.0</ele>
                <time>2020-08-22T13:51:25.000Z</time>
                <name>Trackpoint 5607</name>
            </trkpt>
            <trkpt lat="49.923744" lon="10.7775336">
                <ele>235.0</ele>
                <time>2020-08-22T13:51:27.000Z</time>
                <name>Trackpoint 5608</name>
            </trkpt>
            <trkpt lat="49.9237568" lon="10.7774312">
                <ele>235.0</ele>
                <time>2020-08-22T13:51:29.000Z</time>
                <name>Trackpoint 5609</name>
            </trkpt>
            <trkpt lat="49.923776" lon="10.7773104">
                <ele>235.0</ele>
                <time>2020-08-22T13:51:32.000Z</time>
                <name>Trackpoint 5610</name>
            </trkpt>
            <trkpt lat="49.9237952" lon="10.7771816">
                <ele>235.0</ele>
                <time>2020-08-22T13:51:35.000Z</time>
                <name>Trackpoint 5611</name>
            </trkpt>
            <trkpt lat="49.9238176" lon="10.777072">
                <ele>235.0</ele>
                <time>2020-08-22T13:51:37.000Z</time>
                <name>Trackpoint 5612</name>
            </trkpt>
            <trkpt lat="49.9238368" lon="10.7769448">
                <ele>235.0</ele>
                <time>2020-08-22T13:51:39.000Z</time>
                <name>Trackpoint 5613</name>
            </trkpt>
            <trkpt lat="49.9238496" lon="10.776796">
                <ele>235.0</ele>
                <time>2020-08-22T13:51:41.000Z</time>
                <name>Trackpoint 5614</name>
            </trkpt>
            <trkpt lat="49.9238752" lon="10.7766552">
                <ele>235.0</ele>
                <time>2020-08-22T13:51:43.000Z</time>
                <name>Trackpoint 5615</name>
            </trkpt>
            <trkpt lat="49.9239008" lon="10.7765152">
                <ele>236.0</ele>
                <time>2020-08-22T13:51:45.000Z</time>
                <name>Trackpoint 5616</name>
            </trkpt>
            <trkpt lat="49.92392" lon="10.7763792">
                <ele>236.0</ele>
                <time>2020-08-22T13:51:47.000Z</time>
                <name>Trackpoint 5617</name>
            </trkpt>
            <trkpt lat="49.9239296" lon="10.776228">
                <ele>236.0</ele>
                <time>2020-08-22T13:51:49.000Z</time>
                <name>Trackpoint 5618</name>
            </trkpt>
            <trkpt lat="49.9239424" lon="10.7760664">
                <ele>235.0</ele>
                <time>2020-08-22T13:51:51.000Z</time>
                <name>Trackpoint 5619</name>
            </trkpt>
            <trkpt lat="49.9239616" lon="10.7759064">
                <ele>236.0</ele>
                <time>2020-08-22T13:51:53.000Z</time>
                <name>Trackpoint 5620</name>
            </trkpt>
            <trkpt lat="49.9239872" lon="10.7757632">
                <ele>236.0</ele>
                <time>2020-08-22T13:51:55.000Z</time>
                <name>Trackpoint 5621</name>
            </trkpt>
            <trkpt lat="49.9240128" lon="10.7755968">
                <ele>236.0</ele>
                <time>2020-08-22T13:51:57.000Z</time>
                <name>Trackpoint 5622</name>
            </trkpt>
            <trkpt lat="49.9240192" lon="10.7754232">
                <ele>236.0</ele>
                <time>2020-08-22T13:51:59.000Z</time>
                <name>Trackpoint 5623</name>
            </trkpt>
            <trkpt lat="49.9240224" lon="10.7752488">
                <ele>236.0</ele>
                <time>2020-08-22T13:52:01.000Z</time>
                <name>Trackpoint 5624</name>
            </trkpt>
            <trkpt lat="49.9240416" lon="10.7750864">
                <ele>236.0</ele>
                <time>2020-08-22T13:52:03.000Z</time>
                <name>Trackpoint 5625</name>
            </trkpt>
            <trkpt lat="49.9240544" lon="10.7749184">
                <ele>235.0</ele>
                <time>2020-08-22T13:52:05.000Z</time>
                <name>Trackpoint 5626</name>
            </trkpt>
            <trkpt lat="49.9240672" lon="10.7747496">
                <ele>235.0</ele>
                <time>2020-08-22T13:52:07.000Z</time>
                <name>Trackpoint 5627</name>
            </trkpt>
            <trkpt lat="49.92408" lon="10.7745736">
                <ele>235.0</ele>
                <time>2020-08-22T13:52:09.000Z</time>
                <name>Trackpoint 5628</name>
            </trkpt>
            <trkpt lat="49.924096" lon="10.7744032">
                <ele>235.0</ele>
                <time>2020-08-22T13:52:11.000Z</time>
                <name>Trackpoint 5629</name>
            </trkpt>
            <trkpt lat="49.924112" lon="10.7742256">
                <ele>236.0</ele>
                <time>2020-08-22T13:52:13.000Z</time>
                <name>Trackpoint 5630</name>
            </trkpt>
            <trkpt lat="49.9241216" lon="10.7741336">
                <ele>236.0</ele>
                <time>2020-08-22T13:52:14.000Z</time>
                <name>Trackpoint 5631</name>
            </trkpt>
            <trkpt lat="49.924128" lon="10.7740432">
                <ele>236.0</ele>
                <time>2020-08-22T13:52:15.000Z</time>
                <name>Trackpoint 5632</name>
            </trkpt>
            <trkpt lat="49.9241568" lon="10.773876">
                <ele>236.0</ele>
                <time>2020-08-22T13:52:17.000Z</time>
                <name>Trackpoint 5633</name>
            </trkpt>
            <trkpt lat="49.9241856" lon="10.7737168">
                <ele>236.0</ele>
                <time>2020-08-22T13:52:19.000Z</time>
                <name>Trackpoint 5634</name>
            </trkpt>
            <trkpt lat="49.9242208" lon="10.773552">
                <ele>236.0</ele>
                <time>2020-08-22T13:52:21.000Z</time>
                <name>Trackpoint 5635</name>
            </trkpt>
            <trkpt lat="49.9242592" lon="10.7733944">
                <ele>236.0</ele>
                <time>2020-08-22T13:52:23.000Z</time>
                <name>Trackpoint 5636</name>
            </trkpt>
            <trkpt lat="49.9243008" lon="10.7732464">
                <ele>236.0</ele>
                <time>2020-08-22T13:52:25.000Z</time>
                <name>Trackpoint 5637</name>
            </trkpt>
            <trkpt lat="49.9243424" lon="10.7731088">
                <ele>236.0</ele>
                <time>2020-08-22T13:52:27.000Z</time>
                <name>Trackpoint 5638</name>
            </trkpt>
            <trkpt lat="49.9243776" lon="10.7729784">
                <ele>236.0</ele>
                <time>2020-08-22T13:52:29.000Z</time>
                <name>Trackpoint 5639</name>
            </trkpt>
            <trkpt lat="49.9244128" lon="10.7728632">
                <ele>236.0</ele>
                <time>2020-08-22T13:52:31.000Z</time>
                <name>Trackpoint 5640</name>
            </trkpt>
            <trkpt lat="49.9245024" lon="10.7728136">
                <ele>236.0</ele>
                <time>2020-08-22T13:52:35.000Z</time>
                <name>Trackpoint 5641</name>
            </trkpt>
            <trkpt lat="49.924592" lon="10.7727584">
                <ele>235.0</ele>
                <time>2020-08-22T13:52:40.000Z</time>
                <name>Trackpoint 5642</name>
            </trkpt>
            <trkpt lat="49.9246784" lon="10.7727296">
                <ele>235.0</ele>
                <time>2020-08-22T13:53:19.000Z</time>
                <name>Trackpoint 5643</name>
            </trkpt>
            <trkpt lat="49.924704" lon="10.7726296">
                <ele>235.0</ele>
                <time>2020-08-22T13:54:37.000Z</time>
                <name>Trackpoint 5644</name>
            </trkpt>
            <trkpt lat="49.924736" lon="10.7725064">
                <ele>235.0</ele>
                <time>2020-08-22T13:54:41.000Z</time>
                <name>Trackpoint 5645</name>
            </trkpt>
            <trkpt lat="49.9247136" lon="10.7724184">
                <ele>235.0</ele>
                <time>2020-08-22T13:54:43.000Z</time>
                <name>Trackpoint 5646</name>
            </trkpt>
            <trkpt lat="49.924688" lon="10.772324">
                <ele>235.0</ele>
                <time>2020-08-22T13:54:45.000Z</time>
                <name>Trackpoint 5647</name>
            </trkpt>
            <trkpt lat="49.9246624" lon="10.772232">
                <ele>235.0</ele>
                <time>2020-08-22T13:54:47.000Z</time>
                <name>Trackpoint 5648</name>
            </trkpt>
            <trkpt lat="49.9246208" lon="10.7721392">
                <ele>235.0</ele>
                <time>2020-08-22T13:54:50.000Z</time>
                <name>Trackpoint 5649</name>
            </trkpt>
            <trkpt lat="49.9245312" lon="10.772092">
                <ele>235.0</ele>
                <time>2020-08-22T13:54:54.000Z</time>
                <name>Trackpoint 5650</name>
            </trkpt>
            <trkpt lat="49.9244768" lon="10.7719848">
                <ele>235.0</ele>
                <time>2020-08-22T13:54:58.000Z</time>
                <name>Trackpoint 5651</name>
            </trkpt>
            <trkpt lat="49.9245024" lon="10.7718888">
                <ele>234.0</ele>
                <time>2020-08-22T13:55:00.000Z</time>
                <name>Trackpoint 5652</name>
            </trkpt>
            <trkpt lat="49.9245312" lon="10.77178">
                <ele>235.0</ele>
                <time>2020-08-22T13:55:02.000Z</time>
                <name>Trackpoint 5653</name>
            </trkpt>
            <trkpt lat="49.92456" lon="10.7716576">
                <ele>235.0</ele>
                <time>2020-08-22T13:55:04.000Z</time>
                <name>Trackpoint 5654</name>
            </trkpt>
            <trkpt lat="49.924592" lon="10.771532">
                <ele>235.0</ele>
                <time>2020-08-22T13:55:06.000Z</time>
                <name>Trackpoint 5655</name>
            </trkpt>
            <trkpt lat="49.9246208" lon="10.7713968">
                <ele>235.0</ele>
                <time>2020-08-22T13:55:08.000Z</time>
                <name>Trackpoint 5656</name>
            </trkpt>
            <trkpt lat="49.9246528" lon="10.7712568">
                <ele>235.0</ele>
                <time>2020-08-22T13:55:10.000Z</time>
                <name>Trackpoint 5657</name>
            </trkpt>
            <trkpt lat="49.924688" lon="10.7711112">
                <ele>235.0</ele>
                <time>2020-08-22T13:55:12.000Z</time>
                <name>Trackpoint 5658</name>
            </trkpt>
            <trkpt lat="49.9247104" lon="10.7709664">
                <ele>235.0</ele>
                <time>2020-08-22T13:55:14.000Z</time>
                <name>Trackpoint 5659</name>
            </trkpt>
            <trkpt lat="49.9247488" lon="10.7708184">
                <ele>235.0</ele>
                <time>2020-08-22T13:55:16.000Z</time>
                <name>Trackpoint 5660</name>
            </trkpt>
            <trkpt lat="49.9247872" lon="10.7706784">
                <ele>235.0</ele>
                <time>2020-08-22T13:55:18.000Z</time>
                <name>Trackpoint 5661</name>
            </trkpt>
            <trkpt lat="49.924816" lon="10.7705296">
                <ele>235.0</ele>
                <time>2020-08-22T13:55:20.000Z</time>
                <name>Trackpoint 5662</name>
            </trkpt>
            <trkpt lat="49.9248544" lon="10.7703864">
                <ele>235.0</ele>
                <time>2020-08-22T13:55:22.000Z</time>
                <name>Trackpoint 5663</name>
            </trkpt>
            <trkpt lat="49.9248896" lon="10.7702368">
                <ele>235.0</ele>
                <time>2020-08-22T13:55:24.000Z</time>
                <name>Trackpoint 5664</name>
            </trkpt>
            <trkpt lat="49.924928" lon="10.7700816">
                <ele>235.0</ele>
                <time>2020-08-22T13:55:26.000Z</time>
                <name>Trackpoint 5665</name>
            </trkpt>
            <trkpt lat="49.92496" lon="10.7699232">
                <ele>234.0</ele>
                <time>2020-08-22T13:55:28.000Z</time>
                <name>Trackpoint 5666</name>
            </trkpt>
            <trkpt lat="49.9249984" lon="10.7697688">
                <ele>235.0</ele>
                <time>2020-08-22T13:55:30.000Z</time>
                <name>Trackpoint 5667</name>
            </trkpt>
            <trkpt lat="49.9250304" lon="10.7696136">
                <ele>235.0</ele>
                <time>2020-08-22T13:55:32.000Z</time>
                <name>Trackpoint 5668</name>
            </trkpt>
            <trkpt lat="49.9250592" lon="10.7694584">
                <ele>234.0</ele>
                <time>2020-08-22T13:55:34.000Z</time>
                <name>Trackpoint 5669</name>
            </trkpt>
            <trkpt lat="49.925088" lon="10.7693032">
                <ele>234.0</ele>
                <time>2020-08-22T13:55:36.000Z</time>
                <name>Trackpoint 5670</name>
            </trkpt>
            <trkpt lat="49.9251104" lon="10.7691432">
                <ele>234.0</ele>
                <time>2020-08-22T13:55:38.000Z</time>
                <name>Trackpoint 5671</name>
            </trkpt>
            <trkpt lat="49.925136" lon="10.7689896">
                <ele>234.0</ele>
                <time>2020-08-22T13:55:40.000Z</time>
                <name>Trackpoint 5672</name>
            </trkpt>
            <trkpt lat="49.9251584" lon="10.7688464">
                <ele>234.0</ele>
                <time>2020-08-22T13:55:42.000Z</time>
                <name>Trackpoint 5673</name>
            </trkpt>
            <trkpt lat="49.9251776" lon="10.7687032">
                <ele>235.0</ele>
                <time>2020-08-22T13:55:44.000Z</time>
                <name>Trackpoint 5674</name>
            </trkpt>
            <trkpt lat="49.9251936" lon="10.7685536">
                <ele>235.0</ele>
                <time>2020-08-22T13:55:46.000Z</time>
                <name>Trackpoint 5675</name>
            </trkpt>
            <trkpt lat="49.9252128" lon="10.7684048">
                <ele>235.0</ele>
                <time>2020-08-22T13:55:48.000Z</time>
                <name>Trackpoint 5676</name>
            </trkpt>
            <trkpt lat="49.925232" lon="10.7682568">
                <ele>235.0</ele>
                <time>2020-08-22T13:55:50.000Z</time>
                <name>Trackpoint 5677</name>
            </trkpt>
            <trkpt lat="49.9252512" lon="10.7681032">
                <ele>235.0</ele>
                <time>2020-08-22T13:55:52.000Z</time>
                <name>Trackpoint 5678</name>
            </trkpt>
            <trkpt lat="49.9252704" lon="10.767952">
                <ele>235.0</ele>
                <time>2020-08-22T13:55:54.000Z</time>
                <name>Trackpoint 5679</name>
            </trkpt>
            <trkpt lat="49.9252928" lon="10.767808">
                <ele>235.0</ele>
                <time>2020-08-22T13:55:56.000Z</time>
                <name>Trackpoint 5680</name>
            </trkpt>
            <trkpt lat="49.925312" lon="10.7676624">
                <ele>236.0</ele>
                <time>2020-08-22T13:55:58.000Z</time>
                <name>Trackpoint 5681</name>
            </trkpt>
            <trkpt lat="49.9253344" lon="10.7675168">
                <ele>236.0</ele>
                <time>2020-08-22T13:56:00.000Z</time>
                <name>Trackpoint 5682</name>
            </trkpt>
            <trkpt lat="49.9253568" lon="10.767368">
                <ele>236.0</ele>
                <time>2020-08-22T13:56:02.000Z</time>
                <name>Trackpoint 5683</name>
            </trkpt>
            <trkpt lat="49.9253792" lon="10.7672352">
                <ele>236.0</ele>
                <time>2020-08-22T13:56:04.000Z</time>
                <name>Trackpoint 5684</name>
            </trkpt>
            <trkpt lat="49.9253984" lon="10.7671">
                <ele>236.0</ele>
                <time>2020-08-22T13:56:06.000Z</time>
                <name>Trackpoint 5685</name>
            </trkpt>
            <trkpt lat="49.9254176" lon="10.7669672">
                <ele>236.0</ele>
                <time>2020-08-22T13:56:08.000Z</time>
                <name>Trackpoint 5686</name>
            </trkpt>
            <trkpt lat="49.9254432" lon="10.7668336">
                <ele>237.0</ele>
                <time>2020-08-22T13:56:10.000Z</time>
                <name>Trackpoint 5687</name>
            </trkpt>
            <trkpt lat="49.9254624" lon="10.766688">
                <ele>237.0</ele>
                <time>2020-08-22T13:56:12.000Z</time>
                <name>Trackpoint 5688</name>
            </trkpt>
            <trkpt lat="49.9254784" lon="10.7665416">
                <ele>237.0</ele>
                <time>2020-08-22T13:56:14.000Z</time>
                <name>Trackpoint 5689</name>
            </trkpt>
            <trkpt lat="49.9255072" lon="10.7664016">
                <ele>238.0</ele>
                <time>2020-08-22T13:56:16.000Z</time>
                <name>Trackpoint 5690</name>
            </trkpt>
            <trkpt lat="49.9255328" lon="10.7662552">
                <ele>237.0</ele>
                <time>2020-08-22T13:56:18.000Z</time>
                <name>Trackpoint 5691</name>
            </trkpt>
            <trkpt lat="49.9255584" lon="10.7661136">
                <ele>236.0</ele>
                <time>2020-08-22T13:56:20.000Z</time>
                <name>Trackpoint 5692</name>
            </trkpt>
            <trkpt lat="49.9255872" lon="10.765972">
                <ele>236.0</ele>
                <time>2020-08-22T13:56:22.000Z</time>
                <name>Trackpoint 5693</name>
            </trkpt>
            <trkpt lat="49.9256096" lon="10.765832">
                <ele>237.0</ele>
                <time>2020-08-22T13:56:24.000Z</time>
                <name>Trackpoint 5694</name>
            </trkpt>
            <trkpt lat="49.9256288" lon="10.7656832">
                <ele>236.0</ele>
                <time>2020-08-22T13:56:26.000Z</time>
                <name>Trackpoint 5695</name>
            </trkpt>
            <trkpt lat="49.9256544" lon="10.765536">
                <ele>235.0</ele>
                <time>2020-08-22T13:56:28.000Z</time>
                <name>Trackpoint 5696</name>
            </trkpt>
            <trkpt lat="49.9256832" lon="10.7653904">
                <ele>234.0</ele>
                <time>2020-08-22T13:56:30.000Z</time>
                <name>Trackpoint 5697</name>
            </trkpt>
            <trkpt lat="49.9257024" lon="10.7652368">
                <ele>235.0</ele>
                <time>2020-08-22T13:56:32.000Z</time>
                <name>Trackpoint 5698</name>
            </trkpt>
            <trkpt lat="49.9257248" lon="10.7650816">
                <ele>235.0</ele>
                <time>2020-08-22T13:56:34.000Z</time>
                <name>Trackpoint 5699</name>
            </trkpt>
            <trkpt lat="49.9257536" lon="10.764932">
                <ele>235.0</ele>
                <time>2020-08-22T13:56:36.000Z</time>
                <name>Trackpoint 5700</name>
            </trkpt>
            <trkpt lat="49.9257856" lon="10.7647816">
                <ele>235.0</ele>
                <time>2020-08-22T13:56:38.000Z</time>
                <name>Trackpoint 5701</name>
            </trkpt>
            <trkpt lat="49.9258112" lon="10.7646304">
                <ele>236.0</ele>
                <time>2020-08-22T13:56:40.000Z</time>
                <name>Trackpoint 5702</name>
            </trkpt>
            <trkpt lat="49.9258336" lon="10.7644728">
                <ele>235.0</ele>
                <time>2020-08-22T13:56:42.000Z</time>
                <name>Trackpoint 5703</name>
            </trkpt>
            <trkpt lat="49.9258656" lon="10.7643336">
                <ele>235.0</ele>
                <time>2020-08-22T13:56:44.000Z</time>
                <name>Trackpoint 5704</name>
            </trkpt>
            <trkpt lat="49.9258912" lon="10.7641888">
                <ele>235.0</ele>
                <time>2020-08-22T13:56:46.000Z</time>
                <name>Trackpoint 5705</name>
            </trkpt>
            <trkpt lat="49.92592" lon="10.7640536">
                <ele>235.0</ele>
                <time>2020-08-22T13:56:48.000Z</time>
                <name>Trackpoint 5706</name>
            </trkpt>
            <trkpt lat="49.9259456" lon="10.7639112">
                <ele>235.0</ele>
                <time>2020-08-22T13:56:50.000Z</time>
                <name>Trackpoint 5707</name>
            </trkpt>
            <trkpt lat="49.925968" lon="10.763768">
                <ele>236.0</ele>
                <time>2020-08-22T13:56:52.000Z</time>
                <name>Trackpoint 5708</name>
            </trkpt>
            <trkpt lat="49.9259936" lon="10.7636296">
                <ele>236.0</ele>
                <time>2020-08-22T13:56:54.000Z</time>
                <name>Trackpoint 5709</name>
            </trkpt>
            <trkpt lat="49.9260224" lon="10.7634896">
                <ele>236.0</ele>
                <time>2020-08-22T13:56:56.000Z</time>
                <name>Trackpoint 5710</name>
            </trkpt>
            <trkpt lat="49.926048" lon="10.7633512">
                <ele>236.0</ele>
                <time>2020-08-22T13:56:58.000Z</time>
                <name>Trackpoint 5711</name>
            </trkpt>
            <trkpt lat="49.9260736" lon="10.7632112">
                <ele>236.0</ele>
                <time>2020-08-22T13:57:00.000Z</time>
                <name>Trackpoint 5712</name>
            </trkpt>
            <trkpt lat="49.9261024" lon="10.7630704">
                <ele>236.0</ele>
                <time>2020-08-22T13:57:02.000Z</time>
                <name>Trackpoint 5713</name>
            </trkpt>
            <trkpt lat="49.9261312" lon="10.7629336">
                <ele>237.0</ele>
                <time>2020-08-22T13:57:04.000Z</time>
                <name>Trackpoint 5714</name>
            </trkpt>
            <trkpt lat="49.92616" lon="10.7627968">
                <ele>237.0</ele>
                <time>2020-08-22T13:57:06.000Z</time>
                <name>Trackpoint 5715</name>
            </trkpt>
            <trkpt lat="49.9261856" lon="10.7626688">
                <ele>238.0</ele>
                <time>2020-08-22T13:57:08.000Z</time>
                <name>Trackpoint 5716</name>
            </trkpt>
            <trkpt lat="49.926208" lon="10.76254">
                <ele>237.0</ele>
                <time>2020-08-22T13:57:10.000Z</time>
                <name>Trackpoint 5717</name>
            </trkpt>
            <trkpt lat="49.9262336" lon="10.76242">
                <ele>237.0</ele>
                <time>2020-08-22T13:57:12.000Z</time>
                <name>Trackpoint 5718</name>
            </trkpt>
            <trkpt lat="49.9262624" lon="10.7623016">
                <ele>238.0</ele>
                <time>2020-08-22T13:57:14.000Z</time>
                <name>Trackpoint 5719</name>
            </trkpt>
            <trkpt lat="49.926288" lon="10.76218">
                <ele>237.0</ele>
                <time>2020-08-22T13:57:16.000Z</time>
                <name>Trackpoint 5720</name>
            </trkpt>
            <trkpt lat="49.9263168" lon="10.76206">
                <ele>237.0</ele>
                <time>2020-08-22T13:57:18.000Z</time>
                <name>Trackpoint 5721</name>
            </trkpt>
            <trkpt lat="49.9263424" lon="10.76194">
                <ele>236.0</ele>
                <time>2020-08-22T13:57:20.000Z</time>
                <name>Trackpoint 5722</name>
            </trkpt>
            <trkpt lat="49.926368" lon="10.7618216">
                <ele>236.0</ele>
                <time>2020-08-22T13:57:22.000Z</time>
                <name>Trackpoint 5723</name>
            </trkpt>
            <trkpt lat="49.9263968" lon="10.7617016">
                <ele>236.0</ele>
                <time>2020-08-22T13:57:24.000Z</time>
                <name>Trackpoint 5724</name>
            </trkpt>
            <trkpt lat="49.9264288" lon="10.7615816">
                <ele>236.0</ele>
                <time>2020-08-22T13:57:26.000Z</time>
                <name>Trackpoint 5725</name>
            </trkpt>
            <trkpt lat="49.9264608" lon="10.76146">
                <ele>237.0</ele>
                <time>2020-08-22T13:57:28.000Z</time>
                <name>Trackpoint 5726</name>
            </trkpt>
            <trkpt lat="49.9264992" lon="10.7613432">
                <ele>238.0</ele>
                <time>2020-08-22T13:57:30.000Z</time>
                <name>Trackpoint 5727</name>
            </trkpt>
            <trkpt lat="49.9265408" lon="10.761224">
                <ele>238.0</ele>
                <time>2020-08-22T13:57:32.000Z</time>
                <name>Trackpoint 5728</name>
            </trkpt>
            <trkpt lat="49.9265792" lon="10.7610904">
                <ele>237.0</ele>
                <time>2020-08-22T13:57:34.000Z</time>
                <name>Trackpoint 5729</name>
            </trkpt>
            <trkpt lat="49.9266176" lon="10.76096">
                <ele>238.0</ele>
                <time>2020-08-22T13:57:36.000Z</time>
                <name>Trackpoint 5730</name>
            </trkpt>
            <trkpt lat="49.9266592" lon="10.7608216">
                <ele>237.0</ele>
                <time>2020-08-22T13:57:38.000Z</time>
                <name>Trackpoint 5731</name>
            </trkpt>
            <trkpt lat="49.9267008" lon="10.76068">
                <ele>235.0</ele>
                <time>2020-08-22T13:57:40.000Z</time>
                <name>Trackpoint 5732</name>
            </trkpt>
            <trkpt lat="49.9267424" lon="10.7605384">
                <ele>234.0</ele>
                <time>2020-08-22T13:57:42.000Z</time>
                <name>Trackpoint 5733</name>
            </trkpt>
            <trkpt lat="49.9267872" lon="10.7604">
                <ele>235.0</ele>
                <time>2020-08-22T13:57:44.000Z</time>
                <name>Trackpoint 5734</name>
            </trkpt>
            <trkpt lat="49.9268352" lon="10.7602584">
                <ele>235.0</ele>
                <time>2020-08-22T13:57:46.000Z</time>
                <name>Trackpoint 5735</name>
            </trkpt>
            <trkpt lat="49.9268768" lon="10.7601216">
                <ele>235.0</ele>
                <time>2020-08-22T13:57:48.000Z</time>
                <name>Trackpoint 5736</name>
            </trkpt>
            <trkpt lat="49.9269216" lon="10.7599824">
                <ele>234.0</ele>
                <time>2020-08-22T13:57:50.000Z</time>
                <name>Trackpoint 5737</name>
            </trkpt>
            <trkpt lat="49.9269632" lon="10.7598448">
                <ele>234.0</ele>
                <time>2020-08-22T13:57:52.000Z</time>
                <name>Trackpoint 5738</name>
            </trkpt>
            <trkpt lat="49.9270016" lon="10.7597088">
                <ele>234.0</ele>
                <time>2020-08-22T13:57:54.000Z</time>
                <name>Trackpoint 5739</name>
            </trkpt>
            <trkpt lat="49.92704" lon="10.759568">
                <ele>234.0</ele>
                <time>2020-08-22T13:57:56.000Z</time>
                <name>Trackpoint 5740</name>
            </trkpt>
            <trkpt lat="49.9270816" lon="10.7594344">
                <ele>235.0</ele>
                <time>2020-08-22T13:57:58.000Z</time>
                <name>Trackpoint 5741</name>
            </trkpt>
            <trkpt lat="49.9271264" lon="10.7593024">
                <ele>234.0</ele>
                <time>2020-08-22T13:58:00.000Z</time>
                <name>Trackpoint 5742</name>
            </trkpt>
            <trkpt lat="49.9271712" lon="10.7591664">
                <ele>235.0</ele>
                <time>2020-08-22T13:58:02.000Z</time>
                <name>Trackpoint 5743</name>
            </trkpt>
            <trkpt lat="49.9272192" lon="10.7590248">
                <ele>235.0</ele>
                <time>2020-08-22T13:58:04.000Z</time>
                <name>Trackpoint 5744</name>
            </trkpt>
            <trkpt lat="49.9272608" lon="10.7588768">
                <ele>235.0</ele>
                <time>2020-08-22T13:58:06.000Z</time>
                <name>Trackpoint 5745</name>
            </trkpt>
            <trkpt lat="49.9273056" lon="10.7587248">
                <ele>235.0</ele>
                <time>2020-08-22T13:58:08.000Z</time>
                <name>Trackpoint 5746</name>
            </trkpt>
            <trkpt lat="49.9273568" lon="10.7585696">
                <ele>236.0</ele>
                <time>2020-08-22T13:58:10.000Z</time>
                <name>Trackpoint 5747</name>
            </trkpt>
            <trkpt lat="49.9274016" lon="10.7584136">
                <ele>236.0</ele>
                <time>2020-08-22T13:58:12.000Z</time>
                <name>Trackpoint 5748</name>
            </trkpt>
            <trkpt lat="49.9274496" lon="10.7582568">
                <ele>235.0</ele>
                <time>2020-08-22T13:58:14.000Z</time>
                <name>Trackpoint 5749</name>
            </trkpt>
            <trkpt lat="49.9274944" lon="10.7581016">
                <ele>235.0</ele>
                <time>2020-08-22T13:58:16.000Z</time>
                <name>Trackpoint 5750</name>
            </trkpt>
            <trkpt lat="49.9275392" lon="10.7579568">
                <ele>236.0</ele>
                <time>2020-08-22T13:58:18.000Z</time>
                <name>Trackpoint 5751</name>
            </trkpt>
            <trkpt lat="49.9275872" lon="10.7578136">
                <ele>236.0</ele>
                <time>2020-08-22T13:58:20.000Z</time>
                <name>Trackpoint 5752</name>
            </trkpt>
            <trkpt lat="49.9276352" lon="10.7576752">
                <ele>236.0</ele>
                <time>2020-08-22T13:58:22.000Z</time>
                <name>Trackpoint 5753</name>
            </trkpt>
            <trkpt lat="49.92768" lon="10.7575416">
                <ele>236.0</ele>
                <time>2020-08-22T13:58:24.000Z</time>
                <name>Trackpoint 5754</name>
            </trkpt>
            <trkpt lat="49.927728" lon="10.757412">
                <ele>236.0</ele>
                <time>2020-08-22T13:58:26.000Z</time>
                <name>Trackpoint 5755</name>
            </trkpt>
            <trkpt lat="49.9277696" lon="10.7572784">
                <ele>236.0</ele>
                <time>2020-08-22T13:58:28.000Z</time>
                <name>Trackpoint 5756</name>
            </trkpt>
            <trkpt lat="49.9277984" lon="10.7571448">
                <ele>236.0</ele>
                <time>2020-08-22T13:58:30.000Z</time>
                <name>Trackpoint 5757</name>
            </trkpt>
            <trkpt lat="49.9278176" lon="10.7570104">
                <ele>236.0</ele>
                <time>2020-08-22T13:58:32.000Z</time>
                <name>Trackpoint 5758</name>
            </trkpt>
            <trkpt lat="49.9278336" lon="10.7568776">
                <ele>236.0</ele>
                <time>2020-08-22T13:58:34.000Z</time>
                <name>Trackpoint 5759</name>
            </trkpt>
            <trkpt lat="49.9278592" lon="10.756752">
                <ele>236.0</ele>
                <time>2020-08-22T13:58:36.000Z</time>
                <name>Trackpoint 5760</name>
            </trkpt>
            <trkpt lat="49.9278976" lon="10.7566416">
                <ele>236.0</ele>
                <time>2020-08-22T13:58:38.000Z</time>
                <name>Trackpoint 5761</name>
            </trkpt>
            <trkpt lat="49.9279168" lon="10.7565336">
                <ele>236.0</ele>
                <time>2020-08-22T13:58:40.000Z</time>
                <name>Trackpoint 5762</name>
            </trkpt>
            <trkpt lat="49.9279264" lon="10.75642">
                <ele>236.0</ele>
                <time>2020-08-22T13:58:42.000Z</time>
                <name>Trackpoint 5763</name>
            </trkpt>
            <trkpt lat="49.9279136" lon="10.7563232">
                <ele>236.0</ele>
                <time>2020-08-22T13:58:44.000Z</time>
                <name>Trackpoint 5764</name>
            </trkpt>
            <trkpt lat="49.9279136" lon="10.7562288">
                <ele>237.0</ele>
                <time>2020-08-22T13:58:46.000Z</time>
                <name>Trackpoint 5765</name>
            </trkpt>
            <trkpt lat="49.9279296" lon="10.7561">
                <ele>236.0</ele>
                <time>2020-08-22T13:58:49.000Z</time>
                <name>Trackpoint 5766</name>
            </trkpt>
            <trkpt lat="49.927936" lon="10.7559944">
                <ele>237.0</ele>
                <time>2020-08-22T13:58:51.000Z</time>
                <name>Trackpoint 5767</name>
            </trkpt>
            <trkpt lat="49.9279488" lon="10.7558832">
                <ele>236.0</ele>
                <time>2020-08-22T13:58:53.000Z</time>
                <name>Trackpoint 5768</name>
            </trkpt>
            <trkpt lat="49.9279648" lon="10.7557672">
                <ele>236.0</ele>
                <time>2020-08-22T13:58:55.000Z</time>
                <name>Trackpoint 5769</name>
            </trkpt>
            <trkpt lat="49.9279808" lon="10.7556496">
                <ele>236.0</ele>
                <time>2020-08-22T13:58:57.000Z</time>
                <name>Trackpoint 5770</name>
            </trkpt>
            <trkpt lat="49.9279968" lon="10.7555248">
                <ele>236.0</ele>
                <time>2020-08-22T13:58:59.000Z</time>
                <name>Trackpoint 5771</name>
            </trkpt>
            <trkpt lat="49.9280064" lon="10.755392">
                <ele>236.0</ele>
                <time>2020-08-22T13:59:01.000Z</time>
                <name>Trackpoint 5772</name>
            </trkpt>
            <trkpt lat="49.9280128" lon="10.7552616">
                <ele>236.0</ele>
                <time>2020-08-22T13:59:03.000Z</time>
                <name>Trackpoint 5773</name>
            </trkpt>
            <trkpt lat="49.9280288" lon="10.7551344">
                <ele>236.0</ele>
                <time>2020-08-22T13:59:05.000Z</time>
                <name>Trackpoint 5774</name>
            </trkpt>
            <trkpt lat="49.928048" lon="10.7550096">
                <ele>236.0</ele>
                <time>2020-08-22T13:59:07.000Z</time>
                <name>Trackpoint 5775</name>
            </trkpt>
            <trkpt lat="49.928064" lon="10.7548912">
                <ele>235.0</ele>
                <time>2020-08-22T13:59:09.000Z</time>
                <name>Trackpoint 5776</name>
            </trkpt>
            <trkpt lat="49.9280672" lon="10.7547568">
                <ele>235.0</ele>
                <time>2020-08-22T13:59:11.000Z</time>
                <name>Trackpoint 5777</name>
            </trkpt>
            <trkpt lat="49.9280768" lon="10.7546264">
                <ele>235.0</ele>
                <time>2020-08-22T13:59:13.000Z</time>
                <name>Trackpoint 5778</name>
            </trkpt>
            <trkpt lat="49.9280864" lon="10.7544944">
                <ele>235.0</ele>
                <time>2020-08-22T13:59:15.000Z</time>
                <name>Trackpoint 5779</name>
            </trkpt>
            <trkpt lat="49.9280896" lon="10.7543648">
                <ele>236.0</ele>
                <time>2020-08-22T13:59:17.000Z</time>
                <name>Trackpoint 5780</name>
            </trkpt>
            <trkpt lat="49.9280992" lon="10.754236">
                <ele>236.0</ele>
                <time>2020-08-22T13:59:19.000Z</time>
                <name>Trackpoint 5781</name>
            </trkpt>
            <trkpt lat="49.9281184" lon="10.7541288">
                <ele>236.0</ele>
                <time>2020-08-22T13:59:21.000Z</time>
                <name>Trackpoint 5782</name>
            </trkpt>
            <trkpt lat="49.928144" lon="10.7540168">
                <ele>236.0</ele>
                <time>2020-08-22T13:59:23.000Z</time>
                <name>Trackpoint 5783</name>
            </trkpt>
            <trkpt lat="49.9281376" lon="10.7538792">
                <ele>236.0</ele>
                <time>2020-08-22T13:59:25.000Z</time>
                <name>Trackpoint 5784</name>
            </trkpt>
            <trkpt lat="49.9281376" lon="10.7537448">
                <ele>236.0</ele>
                <time>2020-08-22T13:59:27.000Z</time>
                <name>Trackpoint 5785</name>
            </trkpt>
            <trkpt lat="49.9281376" lon="10.7536032">
                <ele>237.0</ele>
                <time>2020-08-22T13:59:29.000Z</time>
                <name>Trackpoint 5786</name>
            </trkpt>
            <trkpt lat="49.9281472" lon="10.7534752">
                <ele>236.0</ele>
                <time>2020-08-22T13:59:31.000Z</time>
                <name>Trackpoint 5787</name>
            </trkpt>
            <trkpt lat="49.9281536" lon="10.7533448">
                <ele>236.0</ele>
                <time>2020-08-22T13:59:33.000Z</time>
                <name>Trackpoint 5788</name>
            </trkpt>
            <trkpt lat="49.9281536" lon="10.753212">
                <ele>237.0</ele>
                <time>2020-08-22T13:59:35.000Z</time>
                <name>Trackpoint 5789</name>
            </trkpt>
            <trkpt lat="49.9281664" lon="10.7530816">
                <ele>237.0</ele>
                <time>2020-08-22T13:59:37.000Z</time>
                <name>Trackpoint 5790</name>
            </trkpt>
            <trkpt lat="49.928176" lon="10.7529552">
                <ele>237.0</ele>
                <time>2020-08-22T13:59:39.000Z</time>
                <name>Trackpoint 5791</name>
            </trkpt>
            <trkpt lat="49.9281856" lon="10.7528184">
                <ele>237.0</ele>
                <time>2020-08-22T13:59:41.000Z</time>
                <name>Trackpoint 5792</name>
            </trkpt>
            <trkpt lat="49.9281888" lon="10.7526752">
                <ele>238.0</ele>
                <time>2020-08-22T13:59:43.000Z</time>
                <name>Trackpoint 5793</name>
            </trkpt>
            <trkpt lat="49.9281984" lon="10.7525328">
                <ele>238.0</ele>
                <time>2020-08-22T13:59:45.000Z</time>
                <name>Trackpoint 5794</name>
            </trkpt>
            <trkpt lat="49.9282176" lon="10.752392">
                <ele>238.0</ele>
                <time>2020-08-22T13:59:47.000Z</time>
                <name>Trackpoint 5795</name>
            </trkpt>
            <trkpt lat="49.9282432" lon="10.752256">
                <ele>238.0</ele>
                <time>2020-08-22T13:59:49.000Z</time>
                <name>Trackpoint 5796</name>
            </trkpt>
            <trkpt lat="49.9282688" lon="10.7521232">
                <ele>239.0</ele>
                <time>2020-08-22T13:59:51.000Z</time>
                <name>Trackpoint 5797</name>
            </trkpt>
            <trkpt lat="49.9282912" lon="10.7519928">
                <ele>238.0</ele>
                <time>2020-08-22T13:59:53.000Z</time>
                <name>Trackpoint 5798</name>
            </trkpt>
            <trkpt lat="49.9283232" lon="10.75186">
                <ele>239.0</ele>
                <time>2020-08-22T13:59:55.000Z</time>
                <name>Trackpoint 5799</name>
            </trkpt>
            <trkpt lat="49.9283456" lon="10.7517232">
                <ele>238.0</ele>
                <time>2020-08-22T13:59:57.000Z</time>
                <name>Trackpoint 5800</name>
            </trkpt>
            <trkpt lat="49.9283584" lon="10.7515752">
                <ele>237.0</ele>
                <time>2020-08-22T13:59:59.000Z</time>
                <name>Trackpoint 5801</name>
            </trkpt>
            <trkpt lat="49.9283904" lon="10.7514448">
                <ele>237.0</ele>
                <time>2020-08-22T14:00:01.000Z</time>
                <name>Trackpoint 5802</name>
            </trkpt>
            <trkpt lat="49.928416" lon="10.7512968">
                <ele>238.0</ele>
                <time>2020-08-22T14:00:03.000Z</time>
                <name>Trackpoint 5803</name>
            </trkpt>
            <trkpt lat="49.9284576" lon="10.7511584">
                <ele>238.0</ele>
                <time>2020-08-22T14:00:05.000Z</time>
                <name>Trackpoint 5804</name>
            </trkpt>
            <trkpt lat="49.9284864" lon="10.7510136">
                <ele>238.0</ele>
                <time>2020-08-22T14:00:07.000Z</time>
                <name>Trackpoint 5805</name>
            </trkpt>
            <trkpt lat="49.928528" lon="10.750872">
                <ele>238.0</ele>
                <time>2020-08-22T14:00:09.000Z</time>
                <name>Trackpoint 5806</name>
            </trkpt>
            <trkpt lat="49.9285696" lon="10.7507352">
                <ele>238.0</ele>
                <time>2020-08-22T14:00:11.000Z</time>
                <name>Trackpoint 5807</name>
            </trkpt>
            <trkpt lat="49.9286048" lon="10.7506112">
                <ele>239.0</ele>
                <time>2020-08-22T14:00:13.000Z</time>
                <name>Trackpoint 5808</name>
            </trkpt>
            <trkpt lat="49.9286272" lon="10.75052">
                <ele>238.0</ele>
                <time>2020-08-22T14:00:17.000Z</time>
                <name>Trackpoint 5809</name>
            </trkpt>
            <trkpt lat="49.9286624" lon="10.7504216">
                <ele>238.0</ele>
                <time>2020-08-22T14:00:54.000Z</time>
                <name>Trackpoint 5810</name>
            </trkpt>
            <trkpt lat="49.9287488" lon="10.750348">
                <ele>238.0</ele>
                <time>2020-08-22T14:00:57.000Z</time>
                <name>Trackpoint 5811</name>
            </trkpt>
            <trkpt lat="49.928832" lon="10.7503072">
                <ele>238.0</ele>
                <time>2020-08-22T14:00:59.000Z</time>
                <name>Trackpoint 5812</name>
            </trkpt>
            <trkpt lat="49.9289056" lon="10.7502416">
                <ele>238.0</ele>
                <time>2020-08-22T14:01:01.000Z</time>
                <name>Trackpoint 5813</name>
            </trkpt>
            <trkpt lat="49.9289856" lon="10.7501672">
                <ele>238.0</ele>
                <time>2020-08-22T14:01:03.000Z</time>
                <name>Trackpoint 5814</name>
            </trkpt>
            <trkpt lat="49.9290656" lon="10.7500752">
                <ele>238.0</ele>
                <time>2020-08-22T14:01:05.000Z</time>
                <name>Trackpoint 5815</name>
            </trkpt>
            <trkpt lat="49.9291424" lon="10.7499768">
                <ele>238.0</ele>
                <time>2020-08-22T14:01:07.000Z</time>
                <name>Trackpoint 5816</name>
            </trkpt>
            <trkpt lat="49.9292288" lon="10.7498904">
                <ele>238.0</ele>
                <time>2020-08-22T14:01:09.000Z</time>
                <name>Trackpoint 5817</name>
            </trkpt>
            <trkpt lat="49.9293024" lon="10.7498056">
                <ele>238.0</ele>
                <time>2020-08-22T14:01:11.000Z</time>
                <name>Trackpoint 5818</name>
            </trkpt>
            <trkpt lat="49.9293824" lon="10.7497064">
                <ele>238.0</ele>
                <time>2020-08-22T14:01:13.000Z</time>
                <name>Trackpoint 5819</name>
            </trkpt>
            <trkpt lat="49.9294688" lon="10.74958">
                <ele>238.0</ele>
                <time>2020-08-22T14:01:15.000Z</time>
                <name>Trackpoint 5820</name>
            </trkpt>
            <trkpt lat="49.9295488" lon="10.749452">
                <ele>238.0</ele>
                <time>2020-08-22T14:01:17.000Z</time>
                <name>Trackpoint 5821</name>
            </trkpt>
            <trkpt lat="49.9296352" lon="10.7493016">
                <ele>238.0</ele>
                <time>2020-08-22T14:01:19.000Z</time>
                <name>Trackpoint 5822</name>
            </trkpt>
            <trkpt lat="49.929728" lon="10.7491576">
                <ele>238.0</ele>
                <time>2020-08-22T14:01:21.000Z</time>
                <name>Trackpoint 5823</name>
            </trkpt>
            <trkpt lat="49.929824" lon="10.749012">
                <ele>238.0</ele>
                <time>2020-08-22T14:01:23.000Z</time>
                <name>Trackpoint 5824</name>
            </trkpt>
            <trkpt lat="49.9299232" lon="10.748872">
                <ele>238.0</ele>
                <time>2020-08-22T14:01:25.000Z</time>
                <name>Trackpoint 5825</name>
            </trkpt>
            <trkpt lat="49.9300128" lon="10.7487224">
                <ele>238.0</ele>
                <time>2020-08-22T14:01:27.000Z</time>
                <name>Trackpoint 5826</name>
            </trkpt>
            <trkpt lat="49.930096" lon="10.7485848">
                <ele>238.0</ele>
                <time>2020-08-22T14:01:29.000Z</time>
                <name>Trackpoint 5827</name>
            </trkpt>
            <trkpt lat="49.9302016" lon="10.7484952">
                <ele>238.0</ele>
                <time>2020-08-22T14:01:31.000Z</time>
                <name>Trackpoint 5828</name>
            </trkpt>
            <trkpt lat="49.9302944" lon="10.7483728">
                <ele>239.0</ele>
                <time>2020-08-22T14:01:33.000Z</time>
                <name>Trackpoint 5829</name>
            </trkpt>
            <trkpt lat="49.9304" lon="10.7482728">
                <ele>238.0</ele>
                <time>2020-08-22T14:01:35.000Z</time>
                <name>Trackpoint 5830</name>
            </trkpt>
            <trkpt lat="49.9304832" lon="10.7481216">
                <ele>238.0</ele>
                <time>2020-08-22T14:01:37.000Z</time>
                <name>Trackpoint 5831</name>
            </trkpt>
            <trkpt lat="49.930576" lon="10.7479984">
                <ele>238.0</ele>
                <time>2020-08-22T14:01:39.000Z</time>
                <name>Trackpoint 5832</name>
            </trkpt>
            <trkpt lat="49.930656" lon="10.74788">
                <ele>238.0</ele>
                <time>2020-08-22T14:01:41.000Z</time>
                <name>Trackpoint 5833</name>
            </trkpt>
            <trkpt lat="49.9307328" lon="10.7477512">
                <ele>238.0</ele>
                <time>2020-08-22T14:01:43.000Z</time>
                <name>Trackpoint 5834</name>
            </trkpt>
            <trkpt lat="49.9308064" lon="10.747632">
                <ele>238.0</ele>
                <time>2020-08-22T14:01:45.000Z</time>
                <name>Trackpoint 5835</name>
            </trkpt>
            <trkpt lat="49.9308544" lon="10.7475008">
                <ele>238.0</ele>
                <time>2020-08-22T14:01:47.000Z</time>
                <name>Trackpoint 5836</name>
            </trkpt>
            <trkpt lat="49.9309056" lon="10.7473568">
                <ele>238.0</ele>
                <time>2020-08-22T14:01:49.000Z</time>
                <name>Trackpoint 5837</name>
            </trkpt>
            <trkpt lat="49.9309472" lon="10.7472048">
                <ele>238.0</ele>
                <time>2020-08-22T14:01:51.000Z</time>
                <name>Trackpoint 5838</name>
            </trkpt>
            <trkpt lat="49.930976" lon="10.7470616">
                <ele>238.0</ele>
                <time>2020-08-22T14:01:53.000Z</time>
                <name>Trackpoint 5839</name>
            </trkpt>
            <trkpt lat="49.9310112" lon="10.746928">
                <ele>238.0</ele>
                <time>2020-08-22T14:01:55.000Z</time>
                <name>Trackpoint 5840</name>
            </trkpt>
            <trkpt lat="49.9310336" lon="10.7467632">
                <ele>238.0</ele>
                <time>2020-08-22T14:01:57.000Z</time>
                <name>Trackpoint 5841</name>
            </trkpt>
            <trkpt lat="49.9310656" lon="10.7466072">
                <ele>238.0</ele>
                <time>2020-08-22T14:01:59.000Z</time>
                <name>Trackpoint 5842</name>
            </trkpt>
            <trkpt lat="49.931088" lon="10.7464488">
                <ele>238.0</ele>
                <time>2020-08-22T14:02:01.000Z</time>
                <name>Trackpoint 5843</name>
            </trkpt>
            <trkpt lat="49.9311136" lon="10.7462952">
                <ele>238.0</ele>
                <time>2020-08-22T14:02:03.000Z</time>
                <name>Trackpoint 5844</name>
            </trkpt>
            <trkpt lat="49.931136" lon="10.7461392">
                <ele>238.0</ele>
                <time>2020-08-22T14:02:05.000Z</time>
                <name>Trackpoint 5845</name>
            </trkpt>
            <trkpt lat="49.9311712" lon="10.7459768">
                <ele>239.0</ele>
                <time>2020-08-22T14:02:07.000Z</time>
                <name>Trackpoint 5846</name>
            </trkpt>
            <trkpt lat="49.9311968" lon="10.7458248">
                <ele>239.0</ele>
                <time>2020-08-22T14:02:09.000Z</time>
                <name>Trackpoint 5847</name>
            </trkpt>
            <trkpt lat="49.931216" lon="10.745664">
                <ele>239.0</ele>
                <time>2020-08-22T14:02:11.000Z</time>
                <name>Trackpoint 5848</name>
            </trkpt>
            <trkpt lat="49.9312416" lon="10.7455064">
                <ele>238.0</ele>
                <time>2020-08-22T14:02:13.000Z</time>
                <name>Trackpoint 5849</name>
            </trkpt>
            <trkpt lat="49.9312672" lon="10.7453544">
                <ele>238.0</ele>
                <time>2020-08-22T14:02:15.000Z</time>
                <name>Trackpoint 5850</name>
            </trkpt>
            <trkpt lat="49.9313024" lon="10.7452136">
                <ele>238.0</ele>
                <time>2020-08-22T14:02:17.000Z</time>
                <name>Trackpoint 5851</name>
            </trkpt>
            <trkpt lat="49.9313312" lon="10.7450784">
                <ele>238.0</ele>
                <time>2020-08-22T14:02:19.000Z</time>
                <name>Trackpoint 5852</name>
            </trkpt>
            <trkpt lat="49.9313536" lon="10.7449464">
                <ele>238.0</ele>
                <time>2020-08-22T14:02:21.000Z</time>
                <name>Trackpoint 5853</name>
            </trkpt>
            <trkpt lat="49.9313856" lon="10.7448104">
                <ele>238.0</ele>
                <time>2020-08-22T14:02:23.000Z</time>
                <name>Trackpoint 5854</name>
            </trkpt>
            <trkpt lat="49.9314112" lon="10.7446648">
                <ele>238.0</ele>
                <time>2020-08-22T14:02:25.000Z</time>
                <name>Trackpoint 5855</name>
            </trkpt>
            <trkpt lat="49.9314336" lon="10.7445048">
                <ele>238.0</ele>
                <time>2020-08-22T14:02:27.000Z</time>
                <name>Trackpoint 5856</name>
            </trkpt>
            <trkpt lat="49.9314688" lon="10.744344">
                <ele>238.0</ele>
                <time>2020-08-22T14:02:29.000Z</time>
                <name>Trackpoint 5857</name>
            </trkpt>
            <trkpt lat="49.9315008" lon="10.7441856">
                <ele>238.0</ele>
                <time>2020-08-22T14:02:31.000Z</time>
                <name>Trackpoint 5858</name>
            </trkpt>
            <trkpt lat="49.9315232" lon="10.7440232">
                <ele>238.0</ele>
                <time>2020-08-22T14:02:33.000Z</time>
                <name>Trackpoint 5859</name>
            </trkpt>
            <trkpt lat="49.931552" lon="10.7438632">
                <ele>238.0</ele>
                <time>2020-08-22T14:02:35.000Z</time>
                <name>Trackpoint 5860</name>
            </trkpt>
            <trkpt lat="49.9315808" lon="10.7436984">
                <ele>238.0</ele>
                <time>2020-08-22T14:02:37.000Z</time>
                <name>Trackpoint 5861</name>
            </trkpt>
            <trkpt lat="49.9316096" lon="10.7435552">
                <ele>237.0</ele>
                <time>2020-08-22T14:02:39.000Z</time>
                <name>Trackpoint 5862</name>
            </trkpt>
            <trkpt lat="49.9316416" lon="10.7433984">
                <ele>237.0</ele>
                <time>2020-08-22T14:02:41.000Z</time>
                <name>Trackpoint 5863</name>
            </trkpt>
            <trkpt lat="49.9316704" lon="10.7432416">
                <ele>236.0</ele>
                <time>2020-08-22T14:02:43.000Z</time>
                <name>Trackpoint 5864</name>
            </trkpt>
            <trkpt lat="49.9316928" lon="10.7430784">
                <ele>236.0</ele>
                <time>2020-08-22T14:02:45.000Z</time>
                <name>Trackpoint 5865</name>
            </trkpt>
            <trkpt lat="49.9317216" lon="10.7429152">
                <ele>236.0</ele>
                <time>2020-08-22T14:02:47.000Z</time>
                <name>Trackpoint 5866</name>
            </trkpt>
            <trkpt lat="49.931744" lon="10.742752">
                <ele>236.0</ele>
                <time>2020-08-22T14:02:49.000Z</time>
                <name>Trackpoint 5867</name>
            </trkpt>
            <trkpt lat="49.9317728" lon="10.7425936">
                <ele>236.0</ele>
                <time>2020-08-22T14:02:51.000Z</time>
                <name>Trackpoint 5868</name>
            </trkpt>
            <trkpt lat="49.9318016" lon="10.7424384">
                <ele>236.0</ele>
                <time>2020-08-22T14:02:53.000Z</time>
                <name>Trackpoint 5869</name>
            </trkpt>
            <trkpt lat="49.931824" lon="10.7422832">
                <ele>236.0</ele>
                <time>2020-08-22T14:02:55.000Z</time>
                <name>Trackpoint 5870</name>
            </trkpt>
            <trkpt lat="49.9318464" lon="10.7421248">
                <ele>236.0</ele>
                <time>2020-08-22T14:02:57.000Z</time>
                <name>Trackpoint 5871</name>
            </trkpt>
            <trkpt lat="49.931872" lon="10.7419656">
                <ele>237.0</ele>
                <time>2020-08-22T14:02:59.000Z</time>
                <name>Trackpoint 5872</name>
            </trkpt>
            <trkpt lat="49.931888" lon="10.7418016">
                <ele>237.0</ele>
                <time>2020-08-22T14:03:01.000Z</time>
                <name>Trackpoint 5873</name>
            </trkpt>
            <trkpt lat="49.9319168" lon="10.7416496">
                <ele>238.0</ele>
                <time>2020-08-22T14:03:03.000Z</time>
                <name>Trackpoint 5874</name>
            </trkpt>
            <trkpt lat="49.9319424" lon="10.7414976">
                <ele>238.0</ele>
                <time>2020-08-22T14:03:05.000Z</time>
                <name>Trackpoint 5875</name>
            </trkpt>
            <trkpt lat="49.9319616" lon="10.7413416">
                <ele>238.0</ele>
                <time>2020-08-22T14:03:07.000Z</time>
                <name>Trackpoint 5876</name>
            </trkpt>
            <trkpt lat="49.9319808" lon="10.7411784">
                <ele>239.0</ele>
                <time>2020-08-22T14:03:09.000Z</time>
                <name>Trackpoint 5877</name>
            </trkpt>
            <trkpt lat="49.9320096" lon="10.7410296">
                <ele>239.0</ele>
                <time>2020-08-22T14:03:11.000Z</time>
                <name>Trackpoint 5878</name>
            </trkpt>
            <trkpt lat="49.9320448" lon="10.7408832">
                <ele>240.0</ele>
                <time>2020-08-22T14:03:13.000Z</time>
                <name>Trackpoint 5879</name>
            </trkpt>
            <trkpt lat="49.9320704" lon="10.7407248">
                <ele>239.0</ele>
                <time>2020-08-22T14:03:15.000Z</time>
                <name>Trackpoint 5880</name>
            </trkpt>
            <trkpt lat="49.9321088" lon="10.7405856">
                <ele>238.0</ele>
                <time>2020-08-22T14:03:17.000Z</time>
                <name>Trackpoint 5881</name>
            </trkpt>
            <trkpt lat="49.932144" lon="10.7404344">
                <ele>238.0</ele>
                <time>2020-08-22T14:03:19.000Z</time>
                <name>Trackpoint 5882</name>
            </trkpt>
            <trkpt lat="49.9321792" lon="10.7402888">
                <ele>238.0</ele>
                <time>2020-08-22T14:03:21.000Z</time>
                <name>Trackpoint 5883</name>
            </trkpt>
            <trkpt lat="49.9322144" lon="10.7401416">
                <ele>238.0</ele>
                <time>2020-08-22T14:03:23.000Z</time>
                <name>Trackpoint 5884</name>
            </trkpt>
            <trkpt lat="49.932256" lon="10.7400048">
                <ele>237.0</ele>
                <time>2020-08-22T14:03:25.000Z</time>
                <name>Trackpoint 5885</name>
            </trkpt>
            <trkpt lat="49.9322944" lon="10.7398664">
                <ele>237.0</ele>
                <time>2020-08-22T14:03:27.000Z</time>
                <name>Trackpoint 5886</name>
            </trkpt>
            <trkpt lat="49.932336" lon="10.739732">
                <ele>236.0</ele>
                <time>2020-08-22T14:03:29.000Z</time>
                <name>Trackpoint 5887</name>
            </trkpt>
            <trkpt lat="49.9323808" lon="10.7396136">
                <ele>236.0</ele>
                <time>2020-08-22T14:03:31.000Z</time>
                <name>Trackpoint 5888</name>
            </trkpt>
            <trkpt lat="49.9324224" lon="10.7394864">
                <ele>236.0</ele>
                <time>2020-08-22T14:03:33.000Z</time>
                <name>Trackpoint 5889</name>
            </trkpt>
            <trkpt lat="49.9324672" lon="10.73936">
                <ele>235.0</ele>
                <time>2020-08-22T14:03:35.000Z</time>
                <name>Trackpoint 5890</name>
            </trkpt>
            <trkpt lat="49.9325184" lon="10.739248">
                <ele>237.0</ele>
                <time>2020-08-22T14:03:37.000Z</time>
                <name>Trackpoint 5891</name>
            </trkpt>
            <trkpt lat="49.9325728" lon="10.7391368">
                <ele>238.0</ele>
                <time>2020-08-22T14:03:39.000Z</time>
                <name>Trackpoint 5892</name>
            </trkpt>
            <trkpt lat="49.9326208" lon="10.7390216">
                <ele>239.0</ele>
                <time>2020-08-22T14:03:41.000Z</time>
                <name>Trackpoint 5893</name>
            </trkpt>
            <trkpt lat="49.9326752" lon="10.7389032">
                <ele>238.0</ele>
                <time>2020-08-22T14:03:43.000Z</time>
                <name>Trackpoint 5894</name>
            </trkpt>
            <trkpt lat="49.9327328" lon="10.7387816">
                <ele>236.0</ele>
                <time>2020-08-22T14:03:45.000Z</time>
                <name>Trackpoint 5895</name>
            </trkpt>
            <trkpt lat="49.9327904" lon="10.7386736">
                <ele>236.0</ele>
                <time>2020-08-22T14:03:47.000Z</time>
                <name>Trackpoint 5896</name>
            </trkpt>
            <trkpt lat="49.9328448" lon="10.7385664">
                <ele>236.0</ele>
                <time>2020-08-22T14:03:49.000Z</time>
                <name>Trackpoint 5897</name>
            </trkpt>
            <trkpt lat="49.9329024" lon="10.7384632">
                <ele>236.0</ele>
                <time>2020-08-22T14:03:51.000Z</time>
                <name>Trackpoint 5898</name>
            </trkpt>
            <trkpt lat="49.93296" lon="10.7383632">
                <ele>236.0</ele>
                <time>2020-08-22T14:03:53.000Z</time>
                <name>Trackpoint 5899</name>
            </trkpt>
            <trkpt lat="49.9330176" lon="10.7382616">
                <ele>236.0</ele>
                <time>2020-08-22T14:03:55.000Z</time>
                <name>Trackpoint 5900</name>
            </trkpt>
            <trkpt lat="49.9330752" lon="10.7381584">
                <ele>236.0</ele>
                <time>2020-08-22T14:03:57.000Z</time>
                <name>Trackpoint 5901</name>
            </trkpt>
            <trkpt lat="49.9331328" lon="10.7380584">
                <ele>236.0</ele>
                <time>2020-08-22T14:03:59.000Z</time>
                <name>Trackpoint 5902</name>
            </trkpt>
            <trkpt lat="49.9331936" lon="10.73796">
                <ele>236.0</ele>
                <time>2020-08-22T14:04:01.000Z</time>
                <name>Trackpoint 5903</name>
            </trkpt>
            <trkpt lat="49.9332512" lon="10.7378528">
                <ele>237.0</ele>
                <time>2020-08-22T14:04:03.000Z</time>
                <name>Trackpoint 5904</name>
            </trkpt>
            <trkpt lat="49.9333088" lon="10.7377432">
                <ele>237.0</ele>
                <time>2020-08-22T14:04:05.000Z</time>
                <name>Trackpoint 5905</name>
            </trkpt>
            <trkpt lat="49.9333664" lon="10.7376336">
                <ele>237.0</ele>
                <time>2020-08-22T14:04:07.000Z</time>
                <name>Trackpoint 5906</name>
            </trkpt>
            <trkpt lat="49.9334176" lon="10.73752">
                <ele>237.0</ele>
                <time>2020-08-22T14:04:09.000Z</time>
                <name>Trackpoint 5907</name>
            </trkpt>
            <trkpt lat="49.9334688" lon="10.7374112">
                <ele>238.0</ele>
                <time>2020-08-22T14:04:11.000Z</time>
                <name>Trackpoint 5908</name>
            </trkpt>
            <trkpt lat="49.9335104" lon="10.7373">
                <ele>239.0</ele>
                <time>2020-08-22T14:04:13.000Z</time>
                <name>Trackpoint 5909</name>
            </trkpt>
            <trkpt lat="49.933536" lon="10.7371704">
                <ele>238.0</ele>
                <time>2020-08-22T14:04:15.000Z</time>
                <name>Trackpoint 5910</name>
            </trkpt>
            <trkpt lat="49.9335648" lon="10.7370392">
                <ele>238.0</ele>
                <time>2020-08-22T14:04:17.000Z</time>
                <name>Trackpoint 5911</name>
            </trkpt>
            <trkpt lat="49.9335872" lon="10.7369">
                <ele>238.0</ele>
                <time>2020-08-22T14:04:19.000Z</time>
                <name>Trackpoint 5912</name>
            </trkpt>
            <trkpt lat="49.9336128" lon="10.7367632">
                <ele>239.0</ele>
                <time>2020-08-22T14:04:21.000Z</time>
                <name>Trackpoint 5913</name>
            </trkpt>
            <trkpt lat="49.933664" lon="10.736644">
                <ele>238.0</ele>
                <time>2020-08-22T14:04:23.000Z</time>
                <name>Trackpoint 5914</name>
            </trkpt>
            <trkpt lat="49.9337376" lon="10.7365504">
                <ele>237.0</ele>
                <time>2020-08-22T14:04:25.000Z</time>
                <name>Trackpoint 5915</name>
            </trkpt>
            <trkpt lat="49.9338144" lon="10.73646">
                <ele>237.0</ele>
                <time>2020-08-22T14:04:27.000Z</time>
                <name>Trackpoint 5916</name>
            </trkpt>
            <trkpt lat="49.9338752" lon="10.7363704">
                <ele>237.0</ele>
                <time>2020-08-22T14:04:29.000Z</time>
                <name>Trackpoint 5917</name>
            </trkpt>
            <trkpt lat="49.933984" lon="10.7363464">
                <ele>237.0</ele>
                <time>2020-08-22T14:04:32.000Z</time>
                <name>Trackpoint 5918</name>
            </trkpt>
            <trkpt lat="49.9340672" lon="10.7363832">
                <ele>237.0</ele>
                <time>2020-08-22T14:04:34.000Z</time>
                <name>Trackpoint 5919</name>
            </trkpt>
            <trkpt lat="49.9341632" lon="10.7364184">
                <ele>236.0</ele>
                <time>2020-08-22T14:04:36.000Z</time>
                <name>Trackpoint 5920</name>
            </trkpt>
            <trkpt lat="49.9342656" lon="10.7363928">
                <ele>236.0</ele>
                <time>2020-08-22T14:04:38.000Z</time>
                <name>Trackpoint 5921</name>
            </trkpt>
            <trkpt lat="49.9343552" lon="10.736312">
                <ele>236.0</ele>
                <time>2020-08-22T14:04:40.000Z</time>
                <name>Trackpoint 5922</name>
            </trkpt>
            <trkpt lat="49.9344352" lon="10.7362048">
                <ele>236.0</ele>
                <time>2020-08-22T14:04:42.000Z</time>
                <name>Trackpoint 5923</name>
            </trkpt>
            <trkpt lat="49.9345184" lon="10.7361">
                <ele>236.0</ele>
                <time>2020-08-22T14:04:44.000Z</time>
                <name>Trackpoint 5924</name>
            </trkpt>
            <trkpt lat="49.9345984" lon="10.735996">
                <ele>236.0</ele>
                <time>2020-08-22T14:04:46.000Z</time>
                <name>Trackpoint 5925</name>
            </trkpt>
            <trkpt lat="49.9346816" lon="10.7359016">
                <ele>236.0</ele>
                <time>2020-08-22T14:04:48.000Z</time>
                <name>Trackpoint 5926</name>
            </trkpt>
            <trkpt lat="49.9347616" lon="10.7358048">
                <ele>236.0</ele>
                <time>2020-08-22T14:04:50.000Z</time>
                <name>Trackpoint 5927</name>
            </trkpt>
            <trkpt lat="49.9348384" lon="10.7357032">
                <ele>236.0</ele>
                <time>2020-08-22T14:04:52.000Z</time>
                <name>Trackpoint 5928</name>
            </trkpt>
            <trkpt lat="49.9349216" lon="10.7356056">
                <ele>236.0</ele>
                <time>2020-08-22T14:04:54.000Z</time>
                <name>Trackpoint 5929</name>
            </trkpt>
            <trkpt lat="49.9350016" lon="10.7355072">
                <ele>236.0</ele>
                <time>2020-08-22T14:04:56.000Z</time>
                <name>Trackpoint 5930</name>
            </trkpt>
            <trkpt lat="49.9350816" lon="10.7354152">
                <ele>236.0</ele>
                <time>2020-08-22T14:04:58.000Z</time>
                <name>Trackpoint 5931</name>
            </trkpt>
            <trkpt lat="49.9351616" lon="10.73532">
                <ele>236.0</ele>
                <time>2020-08-22T14:05:00.000Z</time>
                <name>Trackpoint 5932</name>
            </trkpt>
            <trkpt lat="49.9352416" lon="10.735224">
                <ele>236.0</ele>
                <time>2020-08-22T14:05:02.000Z</time>
                <name>Trackpoint 5933</name>
            </trkpt>
            <trkpt lat="49.9353184" lon="10.7351216">
                <ele>236.0</ele>
                <time>2020-08-22T14:05:04.000Z</time>
                <name>Trackpoint 5934</name>
            </trkpt>
            <trkpt lat="49.9353984" lon="10.7350216">
                <ele>236.0</ele>
                <time>2020-08-22T14:05:06.000Z</time>
                <name>Trackpoint 5935</name>
            </trkpt>
            <trkpt lat="49.9354784" lon="10.7349232">
                <ele>236.0</ele>
                <time>2020-08-22T14:05:08.000Z</time>
                <name>Trackpoint 5936</name>
            </trkpt>
            <trkpt lat="49.9355584" lon="10.7348216">
                <ele>236.0</ele>
                <time>2020-08-22T14:05:10.000Z</time>
                <name>Trackpoint 5937</name>
            </trkpt>
            <trkpt lat="49.9356384" lon="10.73472">
                <ele>236.0</ele>
                <time>2020-08-22T14:05:12.000Z</time>
                <name>Trackpoint 5938</name>
            </trkpt>
            <trkpt lat="49.9357184" lon="10.7346184">
                <ele>236.0</ele>
                <time>2020-08-22T14:05:14.000Z</time>
                <name>Trackpoint 5939</name>
            </trkpt>
            <trkpt lat="49.9358016" lon="10.7345168">
                <ele>236.0</ele>
                <time>2020-08-22T14:05:16.000Z</time>
                <name>Trackpoint 5940</name>
            </trkpt>
            <trkpt lat="49.9358816" lon="10.7344152">
                <ele>236.0</ele>
                <time>2020-08-22T14:05:18.000Z</time>
                <name>Trackpoint 5941</name>
            </trkpt>
            <trkpt lat="49.9359616" lon="10.7343152">
                <ele>236.0</ele>
                <time>2020-08-22T14:05:20.000Z</time>
                <name>Trackpoint 5942</name>
            </trkpt>
            <trkpt lat="49.9360384" lon="10.7342128">
                <ele>236.0</ele>
                <time>2020-08-22T14:05:22.000Z</time>
                <name>Trackpoint 5943</name>
            </trkpt>
            <trkpt lat="49.9361184" lon="10.7341136">
                <ele>237.0</ele>
                <time>2020-08-22T14:05:24.000Z</time>
                <name>Trackpoint 5944</name>
            </trkpt>
            <trkpt lat="49.9361952" lon="10.734012">
                <ele>236.0</ele>
                <time>2020-08-22T14:05:26.000Z</time>
                <name>Trackpoint 5945</name>
            </trkpt>
            <trkpt lat="49.936272" lon="10.7339112">
                <ele>236.0</ele>
                <time>2020-08-22T14:05:28.000Z</time>
                <name>Trackpoint 5946</name>
            </trkpt>
            <trkpt lat="49.936352" lon="10.7338136">
                <ele>236.0</ele>
                <time>2020-08-22T14:05:30.000Z</time>
                <name>Trackpoint 5947</name>
            </trkpt>
            <trkpt lat="49.9364288" lon="10.7337152">
                <ele>237.0</ele>
                <time>2020-08-22T14:05:32.000Z</time>
                <name>Trackpoint 5948</name>
            </trkpt>
            <trkpt lat="49.9364992" lon="10.7336168">
                <ele>237.0</ele>
                <time>2020-08-22T14:05:34.000Z</time>
                <name>Trackpoint 5949</name>
            </trkpt>
            <trkpt lat="49.936576" lon="10.7335256">
                <ele>237.0</ele>
                <time>2020-08-22T14:05:36.000Z</time>
                <name>Trackpoint 5950</name>
            </trkpt>
            <trkpt lat="49.9366528" lon="10.7334368">
                <ele>237.0</ele>
                <time>2020-08-22T14:05:38.000Z</time>
                <name>Trackpoint 5951</name>
            </trkpt>
            <trkpt lat="49.9367264" lon="10.7333448">
                <ele>237.0</ele>
                <time>2020-08-22T14:05:40.000Z</time>
                <name>Trackpoint 5952</name>
            </trkpt>
            <trkpt lat="49.9367968" lon="10.7332536">
                <ele>237.0</ele>
                <time>2020-08-22T14:05:42.000Z</time>
                <name>Trackpoint 5953</name>
            </trkpt>
            <trkpt lat="49.9368736" lon="10.7331632">
                <ele>237.0</ele>
                <time>2020-08-22T14:05:44.000Z</time>
                <name>Trackpoint 5954</name>
            </trkpt>
            <trkpt lat="49.9369504" lon="10.7330752">
                <ele>237.0</ele>
                <time>2020-08-22T14:05:46.000Z</time>
                <name>Trackpoint 5955</name>
            </trkpt>
            <trkpt lat="49.937024" lon="10.7329864">
                <ele>237.0</ele>
                <time>2020-08-22T14:05:48.000Z</time>
                <name>Trackpoint 5956</name>
            </trkpt>
            <trkpt lat="49.9370912" lon="10.732892">
                <ele>237.0</ele>
                <time>2020-08-22T14:05:50.000Z</time>
                <name>Trackpoint 5957</name>
            </trkpt>
            <trkpt lat="49.9371648" lon="10.7327992">
                <ele>237.0</ele>
                <time>2020-08-22T14:05:52.000Z</time>
                <name>Trackpoint 5958</name>
            </trkpt>
            <trkpt lat="49.937232" lon="10.7327072">
                <ele>237.0</ele>
                <time>2020-08-22T14:05:54.000Z</time>
                <name>Trackpoint 5959</name>
            </trkpt>
            <trkpt lat="49.9373056" lon="10.7326">
                <ele>237.0</ele>
                <time>2020-08-22T14:05:56.000Z</time>
                <name>Trackpoint 5960</name>
            </trkpt>
            <trkpt lat="49.9373696" lon="10.7324864">
                <ele>237.0</ele>
                <time>2020-08-22T14:05:58.000Z</time>
                <name>Trackpoint 5961</name>
            </trkpt>
            <trkpt lat="49.9374272" lon="10.7323736">
                <ele>237.0</ele>
                <time>2020-08-22T14:06:00.000Z</time>
                <name>Trackpoint 5962</name>
            </trkpt>
            <trkpt lat="49.9375488" lon="10.7323352">
                <ele>238.0</ele>
                <time>2020-08-22T14:06:03.000Z</time>
                <name>Trackpoint 5963</name>
            </trkpt>
            <trkpt lat="49.9376672" lon="10.7322712">
                <ele>238.0</ele>
                <time>2020-08-22T14:06:06.000Z</time>
                <name>Trackpoint 5964</name>
            </trkpt>
            <trkpt lat="49.9377504" lon="10.7322168">
                <ele>238.0</ele>
                <time>2020-08-22T14:06:08.000Z</time>
                <name>Trackpoint 5965</name>
            </trkpt>
            <trkpt lat="49.9378464" lon="10.7321264">
                <ele>238.0</ele>
                <time>2020-08-22T14:06:11.000Z</time>
                <name>Trackpoint 5966</name>
            </trkpt>
            <trkpt lat="49.93792" lon="10.7320448">
                <ele>238.0</ele>
                <time>2020-08-22T14:06:13.000Z</time>
                <name>Trackpoint 5967</name>
            </trkpt>
            <trkpt lat="49.9379872" lon="10.7319744">
                <ele>238.0</ele>
                <time>2020-08-22T14:06:15.000Z</time>
                <name>Trackpoint 5968</name>
            </trkpt>
            <trkpt lat="49.9380672" lon="10.7318936">
                <ele>238.0</ele>
                <time>2020-08-22T14:06:17.000Z</time>
                <name>Trackpoint 5969</name>
            </trkpt>
            <trkpt lat="49.93816" lon="10.7318248">
                <ele>237.0</ele>
                <time>2020-08-22T14:06:19.000Z</time>
                <name>Trackpoint 5970</name>
            </trkpt>
            <trkpt lat="49.9382368" lon="10.731756">
                <ele>237.0</ele>
                <time>2020-08-22T14:06:21.000Z</time>
                <name>Trackpoint 5971</name>
            </trkpt>
            <trkpt lat="49.9383424" lon="10.7316752">
                <ele>237.0</ele>
                <time>2020-08-22T14:06:23.000Z</time>
                <name>Trackpoint 5972</name>
            </trkpt>
            <trkpt lat="49.938432" lon="10.7315776">
                <ele>237.0</ele>
                <time>2020-08-22T14:06:25.000Z</time>
                <name>Trackpoint 5973</name>
            </trkpt>
            <trkpt lat="49.9385152" lon="10.731488">
                <ele>237.0</ele>
                <time>2020-08-22T14:06:27.000Z</time>
                <name>Trackpoint 5974</name>
            </trkpt>
            <trkpt lat="49.9386112" lon="10.731412">
                <ele>237.0</ele>
                <time>2020-08-22T14:06:29.000Z</time>
                <name>Trackpoint 5975</name>
            </trkpt>
            <trkpt lat="49.9386976" lon="10.73132">
                <ele>237.0</ele>
                <time>2020-08-22T14:06:31.000Z</time>
                <name>Trackpoint 5976</name>
            </trkpt>
            <trkpt lat="49.938784" lon="10.731232">
                <ele>237.0</ele>
                <time>2020-08-22T14:06:33.000Z</time>
                <name>Trackpoint 5977</name>
            </trkpt>
            <trkpt lat="49.9388768" lon="10.7311512">
                <ele>238.0</ele>
                <time>2020-08-22T14:06:35.000Z</time>
                <name>Trackpoint 5978</name>
            </trkpt>
            <trkpt lat="49.93896" lon="10.731056">
                <ele>238.0</ele>
                <time>2020-08-22T14:06:37.000Z</time>
                <name>Trackpoint 5979</name>
            </trkpt>
            <trkpt lat="49.9390528" lon="10.730984">
                <ele>238.0</ele>
                <time>2020-08-22T14:06:39.000Z</time>
                <name>Trackpoint 5980</name>
            </trkpt>
            <trkpt lat="49.93912" lon="10.7309064">
                <ele>238.0</ele>
                <time>2020-08-22T14:06:41.000Z</time>
                <name>Trackpoint 5981</name>
            </trkpt>
            <trkpt lat="49.9391808" lon="10.7308328">
                <ele>238.0</ele>
                <time>2020-08-22T14:06:43.000Z</time>
                <name>Trackpoint 5982</name>
            </trkpt>
            <trkpt lat="49.9392928" lon="10.7307704">
                <ele>238.0</ele>
                <time>2020-08-22T14:06:45.000Z</time>
                <name>Trackpoint 5983</name>
            </trkpt>
            <trkpt lat="49.939392" lon="10.7306856">
                <ele>238.0</ele>
                <time>2020-08-22T14:06:47.000Z</time>
                <name>Trackpoint 5984</name>
            </trkpt>
            <trkpt lat="49.9394752" lon="10.7305968">
                <ele>238.0</ele>
                <time>2020-08-22T14:06:49.000Z</time>
                <name>Trackpoint 5985</name>
            </trkpt>
            <trkpt lat="49.9395744" lon="10.7305296">
                <ele>238.0</ele>
                <time>2020-08-22T14:06:51.000Z</time>
                <name>Trackpoint 5986</name>
            </trkpt>
            <trkpt lat="49.939664" lon="10.7304432">
                <ele>238.0</ele>
                <time>2020-08-22T14:06:53.000Z</time>
                <name>Trackpoint 5987</name>
            </trkpt>
            <trkpt lat="49.9397408" lon="10.73036">
                <ele>238.0</ele>
                <time>2020-08-22T14:06:55.000Z</time>
                <name>Trackpoint 5988</name>
            </trkpt>
            <trkpt lat="49.93984" lon="10.7302752">
                <ele>238.0</ele>
                <time>2020-08-22T14:06:57.000Z</time>
                <name>Trackpoint 5989</name>
            </trkpt>
            <trkpt lat="49.939888" lon="10.7301904">
                <ele>238.0</ele>
                <time>2020-08-22T14:06:58.000Z</time>
                <name>Trackpoint 5990</name>
            </trkpt>
            <trkpt lat="49.9399712" lon="10.7300904">
                <ele>238.0</ele>
                <time>2020-08-22T14:07:00.000Z</time>
                <name>Trackpoint 5991</name>
            </trkpt>
            <trkpt lat="49.9400896" lon="10.7300056">
                <ele>238.0</ele>
                <time>2020-08-22T14:07:02.000Z</time>
                <name>Trackpoint 5992</name>
            </trkpt>
            <trkpt lat="49.9402016" lon="10.7299168">
                <ele>238.0</ele>
                <time>2020-08-22T14:07:04.000Z</time>
                <name>Trackpoint 5993</name>
            </trkpt>
            <trkpt lat="49.9402816" lon="10.7298496">
                <ele>238.0</ele>
                <time>2020-08-22T14:07:06.000Z</time>
                <name>Trackpoint 5994</name>
            </trkpt>
            <trkpt lat="49.9403712" lon="10.7297936">
                <ele>238.0</ele>
                <time>2020-08-22T14:07:08.000Z</time>
                <name>Trackpoint 5995</name>
            </trkpt>
            <trkpt lat="49.9404576" lon="10.72972">
                <ele>238.0</ele>
                <time>2020-08-22T14:07:10.000Z</time>
                <name>Trackpoint 5996</name>
            </trkpt>
            <trkpt lat="49.940544" lon="10.729636">
                <ele>238.0</ele>
                <time>2020-08-22T14:07:12.000Z</time>
                <name>Trackpoint 5997</name>
            </trkpt>
            <trkpt lat="49.9406464" lon="10.7295552">
                <ele>238.0</ele>
                <time>2020-08-22T14:07:14.000Z</time>
                <name>Trackpoint 5998</name>
            </trkpt>
            <trkpt lat="49.9407264" lon="10.7294648">
                <ele>238.0</ele>
                <time>2020-08-22T14:07:16.000Z</time>
                <name>Trackpoint 5999</name>
            </trkpt>
            <trkpt lat="49.9408384" lon="10.72938">
                <ele>238.0</ele>
                <time>2020-08-22T14:07:18.000Z</time>
                <name>Trackpoint 6000</name>
            </trkpt>
            <trkpt lat="49.9409344" lon="10.7293016">
                <ele>238.0</ele>
                <time>2020-08-22T14:07:20.000Z</time>
                <name>Trackpoint 6001</name>
            </trkpt>
            <trkpt lat="49.9410432" lon="10.7292144">
                <ele>238.0</ele>
                <time>2020-08-22T14:07:22.000Z</time>
                <name>Trackpoint 6002</name>
            </trkpt>
            <trkpt lat="49.9411392" lon="10.7291416">
                <ele>238.0</ele>
                <time>2020-08-22T14:07:24.000Z</time>
                <name>Trackpoint 6003</name>
            </trkpt>
            <trkpt lat="49.9412416" lon="10.7290424">
                <ele>237.0</ele>
                <time>2020-08-22T14:07:26.000Z</time>
                <name>Trackpoint 6004</name>
            </trkpt>
            <trkpt lat="49.941344" lon="10.7289464">
                <ele>237.0</ele>
                <time>2020-08-22T14:07:28.000Z</time>
                <name>Trackpoint 6005</name>
            </trkpt>
            <trkpt lat="49.9414336" lon="10.72886">
                <ele>237.0</ele>
                <time>2020-08-22T14:07:30.000Z</time>
                <name>Trackpoint 6006</name>
            </trkpt>
            <trkpt lat="49.941536" lon="10.728768">
                <ele>237.0</ele>
                <time>2020-08-22T14:07:32.000Z</time>
                <name>Trackpoint 6007</name>
            </trkpt>
            <trkpt lat="49.941632" lon="10.7286752">
                <ele>237.0</ele>
                <time>2020-08-22T14:07:34.000Z</time>
                <name>Trackpoint 6008</name>
            </trkpt>
            <trkpt lat="49.941728" lon="10.728588">
                <ele>237.0</ele>
                <time>2020-08-22T14:07:36.000Z</time>
                <name>Trackpoint 6009</name>
            </trkpt>
            <trkpt lat="49.9418336" lon="10.72848">
                <ele>237.0</ele>
                <time>2020-08-22T14:07:38.000Z</time>
                <name>Trackpoint 6010</name>
            </trkpt>
            <trkpt lat="49.9419392" lon="10.7283832">
                <ele>236.0</ele>
                <time>2020-08-22T14:07:40.000Z</time>
                <name>Trackpoint 6011</name>
            </trkpt>
            <trkpt lat="49.9420512" lon="10.7282848">
                <ele>236.0</ele>
                <time>2020-08-22T14:07:42.000Z</time>
                <name>Trackpoint 6012</name>
            </trkpt>
            <trkpt lat="49.942144" lon="10.7281904">
                <ele>236.0</ele>
                <time>2020-08-22T14:07:44.000Z</time>
                <name>Trackpoint 6013</name>
            </trkpt>
            <trkpt lat="49.9422432" lon="10.728088">
                <ele>236.0</ele>
                <time>2020-08-22T14:07:46.000Z</time>
                <name>Trackpoint 6014</name>
            </trkpt>
            <trkpt lat="49.9423456" lon="10.7279728">
                <ele>236.0</ele>
                <time>2020-08-22T14:07:48.000Z</time>
                <name>Trackpoint 6015</name>
            </trkpt>
            <trkpt lat="49.9424416" lon="10.727868">
                <ele>235.0</ele>
                <time>2020-08-22T14:07:50.000Z</time>
                <name>Trackpoint 6016</name>
            </trkpt>
            <trkpt lat="49.9425312" lon="10.7277848">
                <ele>235.0</ele>
                <time>2020-08-22T14:07:52.000Z</time>
                <name>Trackpoint 6017</name>
            </trkpt>
            <trkpt lat="49.942624" lon="10.7277232">
                <ele>236.0</ele>
                <time>2020-08-22T14:07:54.000Z</time>
                <name>Trackpoint 6018</name>
            </trkpt>
            <trkpt lat="49.9427232" lon="10.727636">
                <ele>236.0</ele>
                <time>2020-08-22T14:07:56.000Z</time>
                <name>Trackpoint 6019</name>
            </trkpt>
            <trkpt lat="49.9428544" lon="10.7275416">
                <ele>236.0</ele>
                <time>2020-08-22T14:07:58.000Z</time>
                <name>Trackpoint 6020</name>
            </trkpt>
            <trkpt lat="49.9429632" lon="10.7274648">
                <ele>236.0</ele>
                <time>2020-08-22T14:08:00.000Z</time>
                <name>Trackpoint 6021</name>
            </trkpt>
            <trkpt lat="49.9430496" lon="10.7273768">
                <ele>237.0</ele>
                <time>2020-08-22T14:08:02.000Z</time>
                <name>Trackpoint 6022</name>
            </trkpt>
            <trkpt lat="49.9431648" lon="10.727248">
                <ele>236.0</ele>
                <time>2020-08-22T14:08:04.000Z</time>
                <name>Trackpoint 6023</name>
            </trkpt>
            <trkpt lat="49.9432832" lon="10.7271816">
                <ele>237.0</ele>
                <time>2020-08-22T14:08:06.000Z</time>
                <name>Trackpoint 6024</name>
            </trkpt>
            <trkpt lat="49.9433664" lon="10.7271048">
                <ele>237.0</ele>
                <time>2020-08-22T14:08:08.000Z</time>
                <name>Trackpoint 6025</name>
            </trkpt>
            <trkpt lat="49.9434304" lon="10.7270344">
                <ele>237.0</ele>
                <time>2020-08-22T14:08:10.000Z</time>
                <name>Trackpoint 6026</name>
            </trkpt>
            <trkpt lat="49.9435168" lon="10.7269384">
                <ele>237.0</ele>
                <time>2020-08-22T14:08:12.000Z</time>
                <name>Trackpoint 6027</name>
            </trkpt>
            <trkpt lat="49.9435872" lon="10.7268288">
                <ele>236.0</ele>
                <time>2020-08-22T14:08:13.000Z</time>
                <name>Trackpoint 6028</name>
            </trkpt>
            <trkpt lat="49.9436736" lon="10.7267512">
                <ele>236.0</ele>
                <time>2020-08-22T14:08:15.000Z</time>
                <name>Trackpoint 6029</name>
            </trkpt>
            <trkpt lat="49.9437568" lon="10.7266912">
                <ele>236.0</ele>
                <time>2020-08-22T14:08:17.000Z</time>
                <name>Trackpoint 6030</name>
            </trkpt>
            <trkpt lat="49.9438656" lon="10.726612">
                <ele>236.0</ele>
                <time>2020-08-22T14:08:19.000Z</time>
                <name>Trackpoint 6031</name>
            </trkpt>
            <trkpt lat="49.9439552" lon="10.7265264">
                <ele>236.0</ele>
                <time>2020-08-22T14:08:21.000Z</time>
                <name>Trackpoint 6032</name>
            </trkpt>
            <trkpt lat="49.9440416" lon="10.7264416">
                <ele>236.0</ele>
                <time>2020-08-22T14:08:23.000Z</time>
                <name>Trackpoint 6033</name>
            </trkpt>
            <trkpt lat="49.9441568" lon="10.7263544">
                <ele>236.0</ele>
                <time>2020-08-22T14:08:25.000Z</time>
                <name>Trackpoint 6034</name>
            </trkpt>
            <trkpt lat="49.9442816" lon="10.7262624">
                <ele>236.0</ele>
                <time>2020-08-22T14:08:27.000Z</time>
                <name>Trackpoint 6035</name>
            </trkpt>
            <trkpt lat="49.9443936" lon="10.7261848">
                <ele>236.0</ele>
                <time>2020-08-22T14:08:29.000Z</time>
                <name>Trackpoint 6036</name>
            </trkpt>
            <trkpt lat="49.944496" lon="10.7261048">
                <ele>236.0</ele>
                <time>2020-08-22T14:08:31.000Z</time>
                <name>Trackpoint 6037</name>
            </trkpt>
            <trkpt lat="49.944592" lon="10.7260264">
                <ele>236.0</ele>
                <time>2020-08-22T14:08:33.000Z</time>
                <name>Trackpoint 6038</name>
            </trkpt>
            <trkpt lat="49.9446976" lon="10.7259528">
                <ele>236.0</ele>
                <time>2020-08-22T14:08:35.000Z</time>
                <name>Trackpoint 6039</name>
            </trkpt>
            <trkpt lat="49.9447872" lon="10.7258656">
                <ele>236.0</ele>
                <time>2020-08-22T14:08:37.000Z</time>
                <name>Trackpoint 6040</name>
            </trkpt>
            <trkpt lat="49.9448544" lon="10.7257784">
                <ele>237.0</ele>
                <time>2020-08-22T14:08:39.000Z</time>
                <name>Trackpoint 6041</name>
            </trkpt>
            <trkpt lat="49.9449184" lon="10.725692">
                <ele>237.0</ele>
                <time>2020-08-22T14:08:41.000Z</time>
                <name>Trackpoint 6042</name>
            </trkpt>
            <trkpt lat="49.9450112" lon="10.7256272">
                <ele>237.0</ele>
                <time>2020-08-22T14:08:43.000Z</time>
                <name>Trackpoint 6043</name>
            </trkpt>
            <trkpt lat="49.9450848" lon="10.7255552">
                <ele>237.0</ele>
                <time>2020-08-22T14:08:45.000Z</time>
                <name>Trackpoint 6044</name>
            </trkpt>
            <trkpt lat="49.9451936" lon="10.72548">
                <ele>237.0</ele>
                <time>2020-08-22T14:08:48.000Z</time>
                <name>Trackpoint 6045</name>
            </trkpt>
            <trkpt lat="49.9452512" lon="10.7253952">
                <ele>237.0</ele>
                <time>2020-08-22T14:08:50.000Z</time>
                <name>Trackpoint 6046</name>
            </trkpt>
            <trkpt lat="49.9453568" lon="10.7253168">
                <ele>237.0</ele>
                <time>2020-08-22T14:08:53.000Z</time>
                <name>Trackpoint 6047</name>
            </trkpt>
            <trkpt lat="49.9454144" lon="10.7252352">
                <ele>237.0</ele>
                <time>2020-08-22T14:08:55.000Z</time>
                <name>Trackpoint 6048</name>
            </trkpt>
            <trkpt lat="49.9454688" lon="10.7251616">
                <ele>237.0</ele>
                <time>2020-08-22T14:08:57.000Z</time>
                <name>Trackpoint 6049</name>
            </trkpt>
            <trkpt lat="49.9455232" lon="10.7250672">
                <ele>237.0</ele>
                <time>2020-08-22T14:08:59.000Z</time>
                <name>Trackpoint 6050</name>
            </trkpt>
            <trkpt lat="49.9455712" lon="10.7249744">
                <ele>237.0</ele>
                <time>2020-08-22T14:09:01.000Z</time>
                <name>Trackpoint 6051</name>
            </trkpt>
            <trkpt lat="49.9456288" lon="10.7248984">
                <ele>237.0</ele>
                <time>2020-08-22T14:09:03.000Z</time>
                <name>Trackpoint 6052</name>
            </trkpt>
            <trkpt lat="49.9456928" lon="10.7248296">
                <ele>237.0</ele>
                <time>2020-08-22T14:09:05.000Z</time>
                <name>Trackpoint 6053</name>
            </trkpt>
            <trkpt lat="49.9457472" lon="10.7247536">
                <ele>237.0</ele>
                <time>2020-08-22T14:09:07.000Z</time>
                <name>Trackpoint 6054</name>
            </trkpt>
            <trkpt lat="49.945792" lon="10.724664">
                <ele>237.0</ele>
                <time>2020-08-22T14:09:09.000Z</time>
                <name>Trackpoint 6055</name>
            </trkpt>
            <trkpt lat="49.9458432" lon="10.724584">
                <ele>237.0</ele>
                <time>2020-08-22T14:09:11.000Z</time>
                <name>Trackpoint 6056</name>
            </trkpt>
            <trkpt lat="49.9459168" lon="10.7245">
                <ele>237.0</ele>
                <time>2020-08-22T14:09:14.000Z</time>
                <name>Trackpoint 6057</name>
            </trkpt>
            <trkpt lat="49.9459872" lon="10.7244016">
                <ele>237.0</ele>
                <time>2020-08-22T14:09:18.000Z</time>
                <name>Trackpoint 6058</name>
            </trkpt>
            <trkpt lat="49.946048" lon="10.7243072">
                <ele>237.0</ele>
                <time>2020-08-22T14:09:21.000Z</time>
                <name>Trackpoint 6059</name>
            </trkpt>
            <trkpt lat="49.946144" lon="10.7242096">
                <ele>237.0</ele>
                <time>2020-08-22T14:09:24.000Z</time>
                <name>Trackpoint 6060</name>
            </trkpt>
            <trkpt lat="49.94624" lon="10.724152">
                <ele>237.0</ele>
                <time>2020-08-22T14:09:27.000Z</time>
                <name>Trackpoint 6061</name>
            </trkpt>
            <trkpt lat="49.9463552" lon="10.7240952">
                <ele>237.0</ele>
                <time>2020-08-22T14:09:30.000Z</time>
                <name>Trackpoint 6062</name>
            </trkpt>
            <trkpt lat="49.946448" lon="10.7240632">
                <ele>237.0</ele>
                <time>2020-08-22T14:09:33.000Z</time>
                <name>Trackpoint 6063</name>
            </trkpt>
            <trkpt lat="49.9465472" lon="10.7239648">
                <ele>237.0</ele>
                <time>2020-08-22T14:09:36.000Z</time>
                <name>Trackpoint 6064</name>
            </trkpt>
            <trkpt lat="49.9466368" lon="10.7238752">
                <ele>238.0</ele>
                <time>2020-08-22T14:09:38.000Z</time>
                <name>Trackpoint 6065</name>
            </trkpt>
            <trkpt lat="49.9467744" lon="10.7237816">
                <ele>238.0</ele>
                <time>2020-08-22T14:09:40.000Z</time>
                <name>Trackpoint 6066</name>
            </trkpt>
            <trkpt lat="49.9468704" lon="10.7236856">
                <ele>238.0</ele>
                <time>2020-08-22T14:09:42.000Z</time>
                <name>Trackpoint 6067</name>
            </trkpt>
            <trkpt lat="49.9469568" lon="10.7235784">
                <ele>239.0</ele>
                <time>2020-08-22T14:09:44.000Z</time>
                <name>Trackpoint 6068</name>
            </trkpt>
            <trkpt lat="49.9470336" lon="10.72346">
                <ele>239.0</ele>
                <time>2020-08-22T14:09:46.000Z</time>
                <name>Trackpoint 6069</name>
            </trkpt>
            <trkpt lat="49.9471424" lon="10.7233688">
                <ele>239.0</ele>
                <time>2020-08-22T14:09:48.000Z</time>
                <name>Trackpoint 6070</name>
            </trkpt>
            <trkpt lat="49.9472576" lon="10.7232952">
                <ele>239.0</ele>
                <time>2020-08-22T14:09:50.000Z</time>
                <name>Trackpoint 6071</name>
            </trkpt>
            <trkpt lat="49.947392" lon="10.7232352">
                <ele>239.0</ele>
                <time>2020-08-22T14:09:52.000Z</time>
                <name>Trackpoint 6072</name>
            </trkpt>
            <trkpt lat="49.9474976" lon="10.7231464">
                <ele>239.0</ele>
                <time>2020-08-22T14:09:54.000Z</time>
                <name>Trackpoint 6073</name>
            </trkpt>
            <trkpt lat="49.9475872" lon="10.72304">
                <ele>239.0</ele>
                <time>2020-08-22T14:09:56.000Z</time>
                <name>Trackpoint 6074</name>
            </trkpt>
            <trkpt lat="49.9476672" lon="10.7229344">
                <ele>240.0</ele>
                <time>2020-08-22T14:09:58.000Z</time>
                <name>Trackpoint 6075</name>
            </trkpt>
            <trkpt lat="49.9477504" lon="10.7228296">
                <ele>240.0</ele>
                <time>2020-08-22T14:10:00.000Z</time>
                <name>Trackpoint 6076</name>
            </trkpt>
            <trkpt lat="49.947856" lon="10.72278">
                <ele>240.0</ele>
                <time>2020-08-22T14:10:02.000Z</time>
                <name>Trackpoint 6077</name>
            </trkpt>
            <trkpt lat="49.9479488" lon="10.7227064">
                <ele>240.0</ele>
                <time>2020-08-22T14:10:04.000Z</time>
                <name>Trackpoint 6078</name>
            </trkpt>
            <trkpt lat="49.9480288" lon="10.7226232">
                <ele>240.0</ele>
                <time>2020-08-22T14:10:06.000Z</time>
                <name>Trackpoint 6079</name>
            </trkpt>
            <trkpt lat="49.9481056" lon="10.7225368">
                <ele>240.0</ele>
                <time>2020-08-22T14:10:08.000Z</time>
                <name>Trackpoint 6080</name>
            </trkpt>
            <trkpt lat="49.9481856" lon="10.72246">
                <ele>241.0</ele>
                <time>2020-08-22T14:10:10.000Z</time>
                <name>Trackpoint 6081</name>
            </trkpt>
            <trkpt lat="49.9482816" lon="10.7223768">
                <ele>241.0</ele>
                <time>2020-08-22T14:10:12.000Z</time>
                <name>Trackpoint 6082</name>
            </trkpt>
            <trkpt lat="49.9483808" lon="10.7222984">
                <ele>241.0</ele>
                <time>2020-08-22T14:10:14.000Z</time>
                <name>Trackpoint 6083</name>
            </trkpt>
            <trkpt lat="49.948464" lon="10.7222272">
                <ele>241.0</ele>
                <time>2020-08-22T14:10:16.000Z</time>
                <name>Trackpoint 6084</name>
            </trkpt>
            <trkpt lat="49.9485632" lon="10.7221536">
                <ele>240.0</ele>
                <time>2020-08-22T14:10:18.000Z</time>
                <name>Trackpoint 6085</name>
            </trkpt>
            <trkpt lat="49.9486528" lon="10.722088">
                <ele>240.0</ele>
                <time>2020-08-22T14:10:20.000Z</time>
                <name>Trackpoint 6086</name>
            </trkpt>
            <trkpt lat="49.9487424" lon="10.7220112">
                <ele>240.0</ele>
                <time>2020-08-22T14:10:22.000Z</time>
                <name>Trackpoint 6087</name>
            </trkpt>
            <trkpt lat="49.9488256" lon="10.7219264">
                <ele>240.0</ele>
                <time>2020-08-22T14:10:24.000Z</time>
                <name>Trackpoint 6088</name>
            </trkpt>
            <trkpt lat="49.948912" lon="10.7218464">
                <ele>240.0</ele>
                <time>2020-08-22T14:10:26.000Z</time>
                <name>Trackpoint 6089</name>
            </trkpt>
            <trkpt lat="49.9490016" lon="10.7217752">
                <ele>240.0</ele>
                <time>2020-08-22T14:10:28.000Z</time>
                <name>Trackpoint 6090</name>
            </trkpt>
            <trkpt lat="49.9490816" lon="10.721708">
                <ele>240.0</ele>
                <time>2020-08-22T14:10:30.000Z</time>
                <name>Trackpoint 6091</name>
            </trkpt>
            <trkpt lat="49.949168" lon="10.7216384">
                <ele>240.0</ele>
                <time>2020-08-22T14:10:32.000Z</time>
                <name>Trackpoint 6092</name>
            </trkpt>
            <trkpt lat="49.949248" lon="10.7215784">
                <ele>240.0</ele>
                <time>2020-08-22T14:10:34.000Z</time>
                <name>Trackpoint 6093</name>
            </trkpt>
            <trkpt lat="49.949328" lon="10.7215032">
                <ele>239.0</ele>
                <time>2020-08-22T14:10:36.000Z</time>
                <name>Trackpoint 6094</name>
            </trkpt>
            <trkpt lat="49.9494048" lon="10.7214168">
                <ele>239.0</ele>
                <time>2020-08-22T14:10:38.000Z</time>
                <name>Trackpoint 6095</name>
            </trkpt>
            <trkpt lat="49.9494944" lon="10.7213272">
                <ele>239.0</ele>
                <time>2020-08-22T14:10:40.000Z</time>
                <name>Trackpoint 6096</name>
            </trkpt>
            <trkpt lat="49.9495744" lon="10.7212296">
                <ele>239.0</ele>
                <time>2020-08-22T14:10:42.000Z</time>
                <name>Trackpoint 6097</name>
            </trkpt>
            <trkpt lat="49.9496768" lon="10.7211352">
                <ele>239.0</ele>
                <time>2020-08-22T14:10:44.000Z</time>
                <name>Trackpoint 6098</name>
            </trkpt>
            <trkpt lat="49.949776" lon="10.7210256">
                <ele>239.0</ele>
                <time>2020-08-22T14:10:46.000Z</time>
                <name>Trackpoint 6099</name>
            </trkpt>
            <trkpt lat="49.949872" lon="10.7209056">
                <ele>239.0</ele>
                <time>2020-08-22T14:10:48.000Z</time>
                <name>Trackpoint 6100</name>
            </trkpt>
            <trkpt lat="49.949968" lon="10.7207968">
                <ele>238.0</ele>
                <time>2020-08-22T14:10:50.000Z</time>
                <name>Trackpoint 6101</name>
            </trkpt>
            <trkpt lat="49.950048" lon="10.7207">
                <ele>238.0</ele>
                <time>2020-08-22T14:10:52.000Z</time>
                <name>Trackpoint 6102</name>
            </trkpt>
            <trkpt lat="49.9501792" lon="10.7206184">
                <ele>237.0</ele>
                <time>2020-08-22T14:10:55.000Z</time>
                <name>Trackpoint 6103</name>
            </trkpt>
            <trkpt lat="49.9502976" lon="10.720504">
                <ele>237.0</ele>
                <time>2020-08-22T14:10:57.000Z</time>
                <name>Trackpoint 6104</name>
            </trkpt>
            <trkpt lat="49.9504064" lon="10.7203864">
                <ele>236.0</ele>
                <time>2020-08-22T14:10:59.000Z</time>
                <name>Trackpoint 6105</name>
            </trkpt>
            <trkpt lat="49.95048" lon="10.7202752">
                <ele>236.0</ele>
                <time>2020-08-22T14:11:01.000Z</time>
                <name>Trackpoint 6106</name>
            </trkpt>
            <trkpt lat="49.9505664" lon="10.7201744">
                <ele>236.0</ele>
                <time>2020-08-22T14:11:03.000Z</time>
                <name>Trackpoint 6107</name>
            </trkpt>
            <trkpt lat="49.9506272" lon="10.720108">
                <ele>236.0</ele>
                <time>2020-08-22T14:11:05.000Z</time>
                <name>Trackpoint 6108</name>
            </trkpt>
            <trkpt lat="49.9506912" lon="10.7200144">
                <ele>236.0</ele>
                <time>2020-08-22T14:11:07.000Z</time>
                <name>Trackpoint 6109</name>
            </trkpt>
            <trkpt lat="49.9507584" lon="10.7198984">
                <ele>236.0</ele>
                <time>2020-08-22T14:11:09.000Z</time>
                <name>Trackpoint 6110</name>
            </trkpt>
            <trkpt lat="49.9508736" lon="10.7198064">
                <ele>237.0</ele>
                <time>2020-08-22T14:11:11.000Z</time>
                <name>Trackpoint 6111</name>
            </trkpt>
            <trkpt lat="49.9509472" lon="10.7197336">
                <ele>237.0</ele>
                <time>2020-08-22T14:11:13.000Z</time>
                <name>Trackpoint 6112</name>
            </trkpt>
            <trkpt lat="49.951008" lon="10.7196576">
                <ele>237.0</ele>
                <time>2020-08-22T14:11:15.000Z</time>
                <name>Trackpoint 6113</name>
            </trkpt>
            <trkpt lat="49.9510624" lon="10.7195728">
                <ele>237.0</ele>
                <time>2020-08-22T14:11:17.000Z</time>
                <name>Trackpoint 6114</name>
            </trkpt>
            <trkpt lat="49.951136" lon="10.7194968">
                <ele>237.0</ele>
                <time>2020-08-22T14:11:19.000Z</time>
                <name>Trackpoint 6115</name>
            </trkpt>
            <trkpt lat="49.9512192" lon="10.7194144">
                <ele>237.0</ele>
                <time>2020-08-22T14:11:21.000Z</time>
                <name>Trackpoint 6116</name>
            </trkpt>
            <trkpt lat="49.9512992" lon="10.7193384">
                <ele>237.0</ele>
                <time>2020-08-22T14:11:23.000Z</time>
                <name>Trackpoint 6117</name>
            </trkpt>
            <trkpt lat="49.9513664" lon="10.7192568">
                <ele>237.0</ele>
                <time>2020-08-22T14:11:25.000Z</time>
                <name>Trackpoint 6118</name>
            </trkpt>
            <trkpt lat="49.9514464" lon="10.7191632">
                <ele>237.0</ele>
                <time>2020-08-22T14:11:27.000Z</time>
                <name>Trackpoint 6119</name>
            </trkpt>
            <trkpt lat="49.9515616" lon="10.71908">
                <ele>238.0</ele>
                <time>2020-08-22T14:11:29.000Z</time>
                <name>Trackpoint 6120</name>
            </trkpt>
            <trkpt lat="49.9516672" lon="10.7190136">
                <ele>238.0</ele>
                <time>2020-08-22T14:11:31.000Z</time>
                <name>Trackpoint 6121</name>
            </trkpt>
            <trkpt lat="49.9517568" lon="10.718912">
                <ele>238.0</ele>
                <time>2020-08-22T14:11:34.000Z</time>
                <name>Trackpoint 6122</name>
            </trkpt>
            <trkpt lat="49.9518176" lon="10.7188304">
                <ele>238.0</ele>
                <time>2020-08-22T14:11:36.000Z</time>
                <name>Trackpoint 6123</name>
            </trkpt>
            <trkpt lat="49.9519008" lon="10.7187632">
                <ele>238.0</ele>
                <time>2020-08-22T14:11:38.000Z</time>
                <name>Trackpoint 6124</name>
            </trkpt>
            <trkpt lat="49.9519872" lon="10.7186648">
                <ele>238.0</ele>
                <time>2020-08-22T14:11:40.000Z</time>
                <name>Trackpoint 6125</name>
            </trkpt>
            <trkpt lat="49.9520576" lon="10.7185696">
                <ele>237.0</ele>
                <time>2020-08-22T14:11:42.000Z</time>
                <name>Trackpoint 6126</name>
            </trkpt>
            <trkpt lat="49.9521216" lon="10.7184952">
                <ele>237.0</ele>
                <time>2020-08-22T14:11:44.000Z</time>
                <name>Trackpoint 6127</name>
            </trkpt>
            <trkpt lat="49.952224" lon="10.7183968">
                <ele>237.0</ele>
                <time>2020-08-22T14:11:46.000Z</time>
                <name>Trackpoint 6128</name>
            </trkpt>
            <trkpt lat="49.952304" lon="10.7183352">
                <ele>237.0</ele>
                <time>2020-08-22T14:11:48.000Z</time>
                <name>Trackpoint 6129</name>
            </trkpt>
            <trkpt lat="49.952384" lon="10.7182568">
                <ele>237.0</ele>
                <time>2020-08-22T14:11:51.000Z</time>
                <name>Trackpoint 6130</name>
            </trkpt>
            <trkpt lat="49.9524704" lon="10.7182">
                <ele>237.0</ele>
                <time>2020-08-22T14:11:53.000Z</time>
                <name>Trackpoint 6131</name>
            </trkpt>
            <trkpt lat="49.9525568" lon="10.7181328">
                <ele>237.0</ele>
                <time>2020-08-22T14:11:55.000Z</time>
                <name>Trackpoint 6132</name>
            </trkpt>
            <trkpt lat="49.9526368" lon="10.7180568">
                <ele>237.0</ele>
                <time>2020-08-22T14:11:57.000Z</time>
                <name>Trackpoint 6133</name>
            </trkpt>
            <trkpt lat="49.9527296" lon="10.7179496">
                <ele>237.0</ele>
                <time>2020-08-22T14:12:00.000Z</time>
                <name>Trackpoint 6134</name>
            </trkpt>
            <trkpt lat="49.9528192" lon="10.7178632">
                <ele>237.0</ele>
                <time>2020-08-22T14:12:02.000Z</time>
                <name>Trackpoint 6135</name>
            </trkpt>
            <trkpt lat="49.9529152" lon="10.7177736">
                <ele>238.0</ele>
                <time>2020-08-22T14:12:04.000Z</time>
                <name>Trackpoint 6136</name>
            </trkpt>
            <trkpt lat="49.952976" lon="10.71768">
                <ele>238.0</ele>
                <time>2020-08-22T14:12:06.000Z</time>
                <name>Trackpoint 6137</name>
            </trkpt>
            <trkpt lat="49.9530496" lon="10.7176152">
                <ele>238.0</ele>
                <time>2020-08-22T14:12:08.000Z</time>
                <name>Trackpoint 6138</name>
            </trkpt>
            <trkpt lat="49.9531328" lon="10.7175576">
                <ele>238.0</ele>
                <time>2020-08-22T14:12:10.000Z</time>
                <name>Trackpoint 6139</name>
            </trkpt>
            <trkpt lat="49.9531968" lon="10.7174904">
                <ele>238.0</ele>
                <time>2020-08-22T14:12:12.000Z</time>
                <name>Trackpoint 6140</name>
            </trkpt>
            <trkpt lat="49.9532736" lon="10.7174216">
                <ele>238.0</ele>
                <time>2020-08-22T14:12:14.000Z</time>
                <name>Trackpoint 6141</name>
            </trkpt>
            <trkpt lat="49.9533728" lon="10.7173784">
                <ele>238.0</ele>
                <time>2020-08-22T14:12:15.000Z</time>
                <name>Trackpoint 6142</name>
            </trkpt>
            <trkpt lat="49.9534432" lon="10.7173208">
                <ele>238.0</ele>
                <time>2020-08-22T14:12:17.000Z</time>
                <name>Trackpoint 6143</name>
            </trkpt>
            <trkpt lat="49.953584" lon="10.7172168">
                <ele>238.0</ele>
                <time>2020-08-22T14:12:20.000Z</time>
                <name>Trackpoint 6144</name>
            </trkpt>
            <trkpt lat="49.9536672" lon="10.7171184">
                <ele>238.0</ele>
                <time>2020-08-22T14:12:22.000Z</time>
                <name>Trackpoint 6145</name>
            </trkpt>
            <trkpt lat="49.9537504" lon="10.7170384">
                <ele>238.0</ele>
                <time>2020-08-22T14:12:24.000Z</time>
                <name>Trackpoint 6146</name>
            </trkpt>
            <trkpt lat="49.9538496" lon="10.7169552">
                <ele>238.0</ele>
                <time>2020-08-22T14:12:26.000Z</time>
                <name>Trackpoint 6147</name>
            </trkpt>
            <trkpt lat="49.9539648" lon="10.71686">
                <ele>237.0</ele>
                <time>2020-08-22T14:12:28.000Z</time>
                <name>Trackpoint 6148</name>
            </trkpt>
            <trkpt lat="49.95408" lon="10.7167416">
                <ele>237.0</ele>
                <time>2020-08-22T14:12:30.000Z</time>
                <name>Trackpoint 6149</name>
            </trkpt>
            <trkpt lat="49.954224" lon="10.7166296">
                <ele>237.0</ele>
                <time>2020-08-22T14:12:32.000Z</time>
                <name>Trackpoint 6150</name>
            </trkpt>
            <trkpt lat="49.9543008" lon="10.7165696">
                <ele>237.0</ele>
                <time>2020-08-22T14:12:33.000Z</time>
                <name>Trackpoint 6151</name>
            </trkpt>
            <trkpt lat="49.9544064" lon="10.7164768">
                <ele>237.0</ele>
                <time>2020-08-22T14:12:35.000Z</time>
                <name>Trackpoint 6152</name>
            </trkpt>
            <trkpt lat="49.9545088" lon="10.71638">
                <ele>237.0</ele>
                <time>2020-08-22T14:12:37.000Z</time>
                <name>Trackpoint 6153</name>
            </trkpt>
            <trkpt lat="49.9545952" lon="10.7162688">
                <ele>237.0</ele>
                <time>2020-08-22T14:12:39.000Z</time>
                <name>Trackpoint 6154</name>
            </trkpt>
            <trkpt lat="49.9546976" lon="10.716144">
                <ele>236.0</ele>
                <time>2020-08-22T14:12:41.000Z</time>
                <name>Trackpoint 6155</name>
            </trkpt>
            <trkpt lat="49.954768" lon="10.71606">
                <ele>236.0</ele>
                <time>2020-08-22T14:12:42.000Z</time>
                <name>Trackpoint 6156</name>
            </trkpt>
            <trkpt lat="49.95488" lon="10.715948">
                <ele>236.0</ele>
                <time>2020-08-22T14:12:44.000Z</time>
                <name>Trackpoint 6157</name>
            </trkpt>
            <trkpt lat="49.9549888" lon="10.7158368">
                <ele>236.0</ele>
                <time>2020-08-22T14:12:46.000Z</time>
                <name>Trackpoint 6158</name>
            </trkpt>
            <trkpt lat="49.9550848" lon="10.7157648">
                <ele>236.0</ele>
                <time>2020-08-22T14:12:48.000Z</time>
                <name>Trackpoint 6159</name>
            </trkpt>
            <trkpt lat="49.9552032" lon="10.7156864">
                <ele>236.0</ele>
                <time>2020-08-22T14:12:50.000Z</time>
                <name>Trackpoint 6160</name>
            </trkpt>
            <trkpt lat="49.9552864" lon="10.7156152">
                <ele>235.0</ele>
                <time>2020-08-22T14:12:52.000Z</time>
                <name>Trackpoint 6161</name>
            </trkpt>
            <trkpt lat="49.955392" lon="10.7155336">
                <ele>235.0</ele>
                <time>2020-08-22T14:12:54.000Z</time>
                <name>Trackpoint 6162</name>
            </trkpt>
            <trkpt lat="49.9554784" lon="10.7154448">
                <ele>236.0</ele>
                <time>2020-08-22T14:12:56.000Z</time>
                <name>Trackpoint 6163</name>
            </trkpt>
            <trkpt lat="49.9555808" lon="10.7153384">
                <ele>236.0</ele>
                <time>2020-08-22T14:12:58.000Z</time>
                <name>Trackpoint 6164</name>
            </trkpt>
            <trkpt lat="49.9556384" lon="10.715268">
                <ele>236.0</ele>
                <time>2020-08-22T14:12:59.000Z</time>
                <name>Trackpoint 6165</name>
            </trkpt>
            <trkpt lat="49.9557376" lon="10.71516">
                <ele>236.0</ele>
                <time>2020-08-22T14:13:01.000Z</time>
                <name>Trackpoint 6166</name>
            </trkpt>
            <trkpt lat="49.9558208" lon="10.7150496">
                <ele>236.0</ele>
                <time>2020-08-22T14:13:03.000Z</time>
                <name>Trackpoint 6167</name>
            </trkpt>
            <trkpt lat="49.9559104" lon="10.7149552">
                <ele>236.0</ele>
                <time>2020-08-22T14:13:05.000Z</time>
                <name>Trackpoint 6168</name>
            </trkpt>
            <trkpt lat="49.9560192" lon="10.7148752">
                <ele>236.0</ele>
                <time>2020-08-22T14:13:07.000Z</time>
                <name>Trackpoint 6169</name>
            </trkpt>
            <trkpt lat="49.956096" lon="10.7147976">
                <ele>236.0</ele>
                <time>2020-08-22T14:13:09.000Z</time>
                <name>Trackpoint 6170</name>
            </trkpt>
            <trkpt lat="49.9561856" lon="10.7147368">
                <ele>236.0</ele>
                <time>2020-08-22T14:13:11.000Z</time>
                <name>Trackpoint 6171</name>
            </trkpt>
            <trkpt lat="49.956256" lon="10.714668">
                <ele>236.0</ele>
                <time>2020-08-22T14:13:13.000Z</time>
                <name>Trackpoint 6172</name>
            </trkpt>
            <trkpt lat="49.9563328" lon="10.7145792">
                <ele>236.0</ele>
                <time>2020-08-22T14:13:15.000Z</time>
                <name>Trackpoint 6173</name>
            </trkpt>
            <trkpt lat="49.9564032" lon="10.7144968">
                <ele>236.0</ele>
                <time>2020-08-22T14:13:17.000Z</time>
                <name>Trackpoint 6174</name>
            </trkpt>
            <trkpt lat="49.9564736" lon="10.7144096">
                <ele>236.0</ele>
                <time>2020-08-22T14:13:19.000Z</time>
                <name>Trackpoint 6175</name>
            </trkpt>
            <trkpt lat="49.9565664" lon="10.7143072">
                <ele>236.0</ele>
                <time>2020-08-22T14:13:21.000Z</time>
                <name>Trackpoint 6176</name>
            </trkpt>
            <trkpt lat="49.9566624" lon="10.7142048">
                <ele>236.0</ele>
                <time>2020-08-22T14:13:23.000Z</time>
                <name>Trackpoint 6177</name>
            </trkpt>
            <trkpt lat="49.9567456" lon="10.7140776">
                <ele>236.0</ele>
                <time>2020-08-22T14:13:25.000Z</time>
                <name>Trackpoint 6178</name>
            </trkpt>
            <trkpt lat="49.9568352" lon="10.7139616">
                <ele>235.0</ele>
                <time>2020-08-22T14:13:27.000Z</time>
                <name>Trackpoint 6179</name>
            </trkpt>
            <trkpt lat="49.9569312" lon="10.7138456">
                <ele>235.0</ele>
                <time>2020-08-22T14:13:29.000Z</time>
                <name>Trackpoint 6180</name>
            </trkpt>
            <trkpt lat="49.9570336" lon="10.7137448">
                <ele>235.0</ele>
                <time>2020-08-22T14:13:31.000Z</time>
                <name>Trackpoint 6181</name>
            </trkpt>
            <trkpt lat="49.9571136" lon="10.713652">
                <ele>236.0</ele>
                <time>2020-08-22T14:13:33.000Z</time>
                <name>Trackpoint 6182</name>
            </trkpt>
            <trkpt lat="49.9572192" lon="10.7135648">
                <ele>236.0</ele>
                <time>2020-08-22T14:13:35.000Z</time>
                <name>Trackpoint 6183</name>
            </trkpt>
            <trkpt lat="49.957312" lon="10.713496">
                <ele>236.0</ele>
                <time>2020-08-22T14:13:37.000Z</time>
                <name>Trackpoint 6184</name>
            </trkpt>
            <trkpt lat="49.9574048" lon="10.7134584">
                <ele>235.0</ele>
                <time>2020-08-22T14:13:39.000Z</time>
                <name>Trackpoint 6185</name>
            </trkpt>
            <trkpt lat="49.9574944" lon="10.7133968">
                <ele>235.0</ele>
                <time>2020-08-22T14:14:30.000Z</time>
                <name>Trackpoint 6186</name>
            </trkpt>
            <trkpt lat="49.9575616" lon="10.7133352">
                <ele>235.0</ele>
                <time>2020-08-22T14:14:33.000Z</time>
                <name>Trackpoint 6187</name>
            </trkpt>
            <trkpt lat="49.9576544" lon="10.7132664">
                <ele>235.0</ele>
                <time>2020-08-22T14:14:36.000Z</time>
                <name>Trackpoint 6188</name>
            </trkpt>
            <trkpt lat="49.9577568" lon="10.7132128">
                <ele>235.0</ele>
                <time>2020-08-22T14:14:39.000Z</time>
                <name>Trackpoint 6189</name>
            </trkpt>
            <trkpt lat="49.9578816" lon="10.7131544">
                <ele>235.0</ele>
                <time>2020-08-22T14:14:42.000Z</time>
                <name>Trackpoint 6190</name>
            </trkpt>
            <trkpt lat="49.9579616" lon="10.7131072">
                <ele>235.0</ele>
                <time>2020-08-22T14:14:44.000Z</time>
                <name>Trackpoint 6191</name>
            </trkpt>
            <trkpt lat="49.9580512" lon="10.7130672">
                <ele>235.0</ele>
                <time>2020-08-22T14:14:46.000Z</time>
                <name>Trackpoint 6192</name>
            </trkpt>
            <trkpt lat="49.9581792" lon="10.7130232">
                <ele>235.0</ele>
                <time>2020-08-22T14:14:49.000Z</time>
                <name>Trackpoint 6193</name>
            </trkpt>
            <trkpt lat="49.9582912" lon="10.7129744">
                <ele>235.0</ele>
                <time>2020-08-22T14:14:52.000Z</time>
                <name>Trackpoint 6194</name>
            </trkpt>
            <trkpt lat="49.958384" lon="10.7129336">
                <ele>235.0</ele>
                <time>2020-08-22T14:14:55.000Z</time>
                <name>Trackpoint 6195</name>
            </trkpt>
            <trkpt lat="49.958512" lon="10.7128696">
                <ele>235.0</ele>
                <time>2020-08-22T14:14:58.000Z</time>
                <name>Trackpoint 6196</name>
            </trkpt>
            <trkpt lat="49.9586112" lon="10.7128232">
                <ele>235.0</ele>
                <time>2020-08-22T14:15:00.000Z</time>
                <name>Trackpoint 6197</name>
            </trkpt>
            <trkpt lat="49.9587168" lon="10.7127648">
                <ele>235.0</ele>
                <time>2020-08-22T14:15:02.000Z</time>
                <name>Trackpoint 6198</name>
            </trkpt>
            <trkpt lat="49.958832" lon="10.7127112">
                <ele>235.0</ele>
                <time>2020-08-22T14:15:04.000Z</time>
                <name>Trackpoint 6199</name>
            </trkpt>
            <trkpt lat="49.958928" lon="10.7126416">
                <ele>235.0</ele>
                <time>2020-08-22T14:15:06.000Z</time>
                <name>Trackpoint 6200</name>
            </trkpt>
            <trkpt lat="49.959024" lon="10.7125784">
                <ele>235.0</ele>
                <time>2020-08-22T14:15:08.000Z</time>
                <name>Trackpoint 6201</name>
            </trkpt>
            <trkpt lat="49.9591168" lon="10.7125064">
                <ele>235.0</ele>
                <time>2020-08-22T14:15:10.000Z</time>
                <name>Trackpoint 6202</name>
            </trkpt>
            <trkpt lat="49.9592128" lon="10.7124304">
                <ele>235.0</ele>
                <time>2020-08-22T14:15:12.000Z</time>
                <name>Trackpoint 6203</name>
            </trkpt>
            <trkpt lat="49.9593056" lon="10.7123496">
                <ele>235.0</ele>
                <time>2020-08-22T14:15:14.000Z</time>
                <name>Trackpoint 6204</name>
            </trkpt>
            <trkpt lat="49.9594016" lon="10.7122672">
                <ele>235.0</ele>
                <time>2020-08-22T14:15:16.000Z</time>
                <name>Trackpoint 6205</name>
            </trkpt>
            <trkpt lat="49.9594752" lon="10.7121752">
                <ele>235.0</ele>
                <time>2020-08-22T14:15:18.000Z</time>
                <name>Trackpoint 6206</name>
            </trkpt>
            <trkpt lat="49.959568" lon="10.7120936">
                <ele>234.0</ele>
                <time>2020-08-22T14:15:20.000Z</time>
                <name>Trackpoint 6207</name>
            </trkpt>
            <trkpt lat="49.959648" lon="10.7120064">
                <ele>234.0</ele>
                <time>2020-08-22T14:15:22.000Z</time>
                <name>Trackpoint 6208</name>
            </trkpt>
            <trkpt lat="49.9597312" lon="10.71192">
                <ele>234.0</ele>
                <time>2020-08-22T14:15:24.000Z</time>
                <name>Trackpoint 6209</name>
            </trkpt>
            <trkpt lat="49.959824" lon="10.7118432">
                <ele>234.0</ele>
                <time>2020-08-22T14:15:26.000Z</time>
                <name>Trackpoint 6210</name>
            </trkpt>
            <trkpt lat="49.9599136" lon="10.7117568">
                <ele>234.0</ele>
                <time>2020-08-22T14:15:28.000Z</time>
                <name>Trackpoint 6211</name>
            </trkpt>
            <trkpt lat="49.9600064" lon="10.7116784">
                <ele>234.0</ele>
                <time>2020-08-22T14:15:30.000Z</time>
                <name>Trackpoint 6212</name>
            </trkpt>
            <trkpt lat="49.9600896" lon="10.711608">
                <ele>234.0</ele>
                <time>2020-08-22T14:15:32.000Z</time>
                <name>Trackpoint 6213</name>
            </trkpt>
            <trkpt lat="49.960176" lon="10.7115272">
                <ele>234.0</ele>
                <time>2020-08-22T14:15:34.000Z</time>
                <name>Trackpoint 6214</name>
            </trkpt>
            <trkpt lat="49.9602656" lon="10.7114184">
                <ele>234.0</ele>
                <time>2020-08-22T14:15:36.000Z</time>
                <name>Trackpoint 6215</name>
            </trkpt>
            <trkpt lat="49.9603488" lon="10.7113248">
                <ele>234.0</ele>
                <time>2020-08-22T14:15:38.000Z</time>
                <name>Trackpoint 6216</name>
            </trkpt>
            <trkpt lat="49.9604352" lon="10.711244">
                <ele>234.0</ele>
                <time>2020-08-22T14:15:40.000Z</time>
                <name>Trackpoint 6217</name>
            </trkpt>
            <trkpt lat="49.9605216" lon="10.7111568">
                <ele>234.0</ele>
                <time>2020-08-22T14:15:42.000Z</time>
                <name>Trackpoint 6218</name>
            </trkpt>
            <trkpt lat="49.9606144" lon="10.7110656">
                <ele>234.0</ele>
                <time>2020-08-22T14:15:44.000Z</time>
                <name>Trackpoint 6219</name>
            </trkpt>
            <trkpt lat="49.960704" lon="10.7109744">
                <ele>234.0</ele>
                <time>2020-08-22T14:15:46.000Z</time>
                <name>Trackpoint 6220</name>
            </trkpt>
            <trkpt lat="49.9607936" lon="10.7108784">
                <ele>234.0</ele>
                <time>2020-08-22T14:15:48.000Z</time>
                <name>Trackpoint 6221</name>
            </trkpt>
            <trkpt lat="49.9608864" lon="10.710776">
                <ele>234.0</ele>
                <time>2020-08-22T14:15:50.000Z</time>
                <name>Trackpoint 6222</name>
            </trkpt>
            <trkpt lat="49.9609824" lon="10.7106712">
                <ele>233.0</ele>
                <time>2020-08-22T14:15:52.000Z</time>
                <name>Trackpoint 6223</name>
            </trkpt>
            <trkpt lat="49.9610752" lon="10.7105776">
                <ele>233.0</ele>
                <time>2020-08-22T14:15:54.000Z</time>
                <name>Trackpoint 6224</name>
            </trkpt>
            <trkpt lat="49.9611552" lon="10.7105">
                <ele>233.0</ele>
                <time>2020-08-22T14:15:56.000Z</time>
                <name>Trackpoint 6225</name>
            </trkpt>
            <trkpt lat="49.9612192" lon="10.7104216">
                <ele>233.0</ele>
                <time>2020-08-22T14:15:58.000Z</time>
                <name>Trackpoint 6226</name>
            </trkpt>
            <trkpt lat="49.961296" lon="10.7103392">
                <ele>233.0</ele>
                <time>2020-08-22T14:16:00.000Z</time>
                <name>Trackpoint 6227</name>
            </trkpt>
            <trkpt lat="49.9613984" lon="10.710232">
                <ele>233.0</ele>
                <time>2020-08-22T14:16:02.000Z</time>
                <name>Trackpoint 6228</name>
            </trkpt>
            <trkpt lat="49.961488" lon="10.7101224">
                <ele>233.0</ele>
                <time>2020-08-22T14:16:04.000Z</time>
                <name>Trackpoint 6229</name>
            </trkpt>
            <trkpt lat="49.9615584" lon="10.7100088">
                <ele>234.0</ele>
                <time>2020-08-22T14:16:06.000Z</time>
                <name>Trackpoint 6230</name>
            </trkpt>
            <trkpt lat="49.961648" lon="10.7099088">
                <ele>233.0</ele>
                <time>2020-08-22T14:16:08.000Z</time>
                <name>Trackpoint 6231</name>
            </trkpt>
            <trkpt lat="49.9617344" lon="10.7098">
                <ele>233.0</ele>
                <time>2020-08-22T14:16:10.000Z</time>
                <name>Trackpoint 6232</name>
            </trkpt>
            <trkpt lat="49.961824" lon="10.7096784">
                <ele>233.0</ele>
                <time>2020-08-22T14:16:12.000Z</time>
                <name>Trackpoint 6233</name>
            </trkpt>
            <trkpt lat="49.9619328" lon="10.709548">
                <ele>233.0</ele>
                <time>2020-08-22T14:16:14.000Z</time>
                <name>Trackpoint 6234</name>
            </trkpt>
            <trkpt lat="49.9620288" lon="10.7094048">
                <ele>233.0</ele>
                <time>2020-08-22T14:16:16.000Z</time>
                <name>Trackpoint 6235</name>
            </trkpt>
            <trkpt lat="49.9621216" lon="10.709264">
                <ele>233.0</ele>
                <time>2020-08-22T14:16:18.000Z</time>
                <name>Trackpoint 6236</name>
            </trkpt>
            <trkpt lat="49.9622144" lon="10.709128">
                <ele>233.0</ele>
                <time>2020-08-22T14:16:20.000Z</time>
                <name>Trackpoint 6237</name>
            </trkpt>
            <trkpt lat="49.9623072" lon="10.7089952">
                <ele>233.0</ele>
                <time>2020-08-22T14:16:22.000Z</time>
                <name>Trackpoint 6238</name>
            </trkpt>
            <trkpt lat="49.9624064" lon="10.7088696">
                <ele>233.0</ele>
                <time>2020-08-22T14:16:24.000Z</time>
                <name>Trackpoint 6239</name>
            </trkpt>
            <trkpt lat="49.9624928" lon="10.7087448">
                <ele>232.0</ele>
                <time>2020-08-22T14:16:26.000Z</time>
                <name>Trackpoint 6240</name>
            </trkpt>
            <trkpt lat="49.9625792" lon="10.70862">
                <ele>232.0</ele>
                <time>2020-08-22T14:16:28.000Z</time>
                <name>Trackpoint 6241</name>
            </trkpt>
            <trkpt lat="49.9626592" lon="10.7085016">
                <ele>232.0</ele>
                <time>2020-08-22T14:16:30.000Z</time>
                <name>Trackpoint 6242</name>
            </trkpt>
            <trkpt lat="49.9627392" lon="10.70838">
                <ele>232.0</ele>
                <time>2020-08-22T14:16:32.000Z</time>
                <name>Trackpoint 6243</name>
            </trkpt>
            <trkpt lat="49.9628128" lon="10.7082568">
                <ele>232.0</ele>
                <time>2020-08-22T14:16:34.000Z</time>
                <name>Trackpoint 6244</name>
            </trkpt>
            <trkpt lat="49.9629024" lon="10.7081296">
                <ele>232.0</ele>
                <time>2020-08-22T14:16:36.000Z</time>
                <name>Trackpoint 6245</name>
            </trkpt>
            <trkpt lat="49.9629792" lon="10.708012">
                <ele>232.0</ele>
                <time>2020-08-22T14:16:38.000Z</time>
                <name>Trackpoint 6246</name>
            </trkpt>
            <trkpt lat="49.9630656" lon="10.7078864">
                <ele>232.0</ele>
                <time>2020-08-22T14:16:40.000Z</time>
                <name>Trackpoint 6247</name>
            </trkpt>
            <trkpt lat="49.9631424" lon="10.7077576">
                <ele>232.0</ele>
                <time>2020-08-22T14:16:42.000Z</time>
                <name>Trackpoint 6248</name>
            </trkpt>
            <trkpt lat="49.9632192" lon="10.7076352">
                <ele>232.0</ele>
                <time>2020-08-22T14:16:44.000Z</time>
                <name>Trackpoint 6249</name>
            </trkpt>
            <trkpt lat="49.9632896" lon="10.7075096">
                <ele>232.0</ele>
                <time>2020-08-22T14:16:46.000Z</time>
                <name>Trackpoint 6250</name>
            </trkpt>
            <trkpt lat="49.963376" lon="10.7073832">
                <ele>232.0</ele>
                <time>2020-08-22T14:16:48.000Z</time>
                <name>Trackpoint 6251</name>
            </trkpt>
            <trkpt lat="49.9634432" lon="10.7072624">
                <ele>232.0</ele>
                <time>2020-08-22T14:16:50.000Z</time>
                <name>Trackpoint 6252</name>
            </trkpt>
            <trkpt lat="49.9635136" lon="10.7071384">
                <ele>231.0</ele>
                <time>2020-08-22T14:16:52.000Z</time>
                <name>Trackpoint 6253</name>
            </trkpt>
            <trkpt lat="49.9635776" lon="10.7070152">
                <ele>232.0</ele>
                <time>2020-08-22T14:16:54.000Z</time>
                <name>Trackpoint 6254</name>
            </trkpt>
            <trkpt lat="49.9636512" lon="10.7068904">
                <ele>231.0</ele>
                <time>2020-08-22T14:16:56.000Z</time>
                <name>Trackpoint 6255</name>
            </trkpt>
            <trkpt lat="49.9637152" lon="10.706772">
                <ele>231.0</ele>
                <time>2020-08-22T14:16:58.000Z</time>
                <name>Trackpoint 6256</name>
            </trkpt>
            <trkpt lat="49.963776" lon="10.7066472">
                <ele>231.0</ele>
                <time>2020-08-22T14:17:00.000Z</time>
                <name>Trackpoint 6257</name>
            </trkpt>
            <trkpt lat="49.9638368" lon="10.7065248">
                <ele>231.0</ele>
                <time>2020-08-22T14:17:02.000Z</time>
                <name>Trackpoint 6258</name>
            </trkpt>
            <trkpt lat="49.9638912" lon="10.7063984">
                <ele>230.0</ele>
                <time>2020-08-22T14:17:04.000Z</time>
                <name>Trackpoint 6259</name>
            </trkpt>
            <trkpt lat="49.963952" lon="10.7062816">
                <ele>229.0</ele>
                <time>2020-08-22T14:17:06.000Z</time>
                <name>Trackpoint 6260</name>
            </trkpt>
            <trkpt lat="49.9640096" lon="10.7061592">
                <ele>228.0</ele>
                <time>2020-08-22T14:17:08.000Z</time>
                <name>Trackpoint 6261</name>
            </trkpt>
            <trkpt lat="49.9640704" lon="10.7060368">
                <ele>227.0</ele>
                <time>2020-08-22T14:17:10.000Z</time>
                <name>Trackpoint 6262</name>
            </trkpt>
            <trkpt lat="49.964128" lon="10.7059136">
                <ele>226.0</ele>
                <time>2020-08-22T14:17:12.000Z</time>
                <name>Trackpoint 6263</name>
            </trkpt>
            <trkpt lat="49.9641824" lon="10.7057936">
                <ele>226.0</ele>
                <time>2020-08-22T14:17:14.000Z</time>
                <name>Trackpoint 6264</name>
            </trkpt>
            <trkpt lat="49.9642464" lon="10.7056704">
                <ele>225.0</ele>
                <time>2020-08-22T14:17:16.000Z</time>
                <name>Trackpoint 6265</name>
            </trkpt>
            <trkpt lat="49.9643008" lon="10.7055464">
                <ele>225.0</ele>
                <time>2020-08-22T14:17:18.000Z</time>
                <name>Trackpoint 6266</name>
            </trkpt>
            <trkpt lat="49.9643616" lon="10.7054168">
                <ele>226.0</ele>
                <time>2020-08-22T14:17:20.000Z</time>
                <name>Trackpoint 6267</name>
            </trkpt>
            <trkpt lat="49.9644352" lon="10.7052936">
                <ele>227.0</ele>
                <time>2020-08-22T14:17:22.000Z</time>
                <name>Trackpoint 6268</name>
            </trkpt>
            <trkpt lat="49.9644992" lon="10.7051752">
                <ele>227.0</ele>
                <time>2020-08-22T14:17:24.000Z</time>
                <name>Trackpoint 6269</name>
            </trkpt>
            <trkpt lat="49.96456" lon="10.7050552">
                <ele>226.0</ele>
                <time>2020-08-22T14:17:26.000Z</time>
                <name>Trackpoint 6270</name>
            </trkpt>
            <trkpt lat="49.9646176" lon="10.7049352">
                <ele>227.0</ele>
                <time>2020-08-22T14:17:28.000Z</time>
                <name>Trackpoint 6271</name>
            </trkpt>
            <trkpt lat="49.9646688" lon="10.704812">
                <ele>226.0</ele>
                <time>2020-08-22T14:17:30.000Z</time>
                <name>Trackpoint 6272</name>
            </trkpt>
            <trkpt lat="49.9647296" lon="10.704692">
                <ele>227.0</ele>
                <time>2020-08-22T14:17:32.000Z</time>
                <name>Trackpoint 6273</name>
            </trkpt>
            <trkpt lat="49.9647968" lon="10.7045696">
                <ele>227.0</ele>
                <time>2020-08-22T14:17:34.000Z</time>
                <name>Trackpoint 6274</name>
            </trkpt>
            <trkpt lat="49.9648544" lon="10.7044464">
                <ele>227.0</ele>
                <time>2020-08-22T14:17:36.000Z</time>
                <name>Trackpoint 6275</name>
            </trkpt>
            <trkpt lat="49.9649216" lon="10.7043264">
                <ele>228.0</ele>
                <time>2020-08-22T14:17:38.000Z</time>
                <name>Trackpoint 6276</name>
            </trkpt>
            <trkpt lat="49.9649824" lon="10.7042048">
                <ele>228.0</ele>
                <time>2020-08-22T14:17:40.000Z</time>
                <name>Trackpoint 6277</name>
            </trkpt>
            <trkpt lat="49.9650464" lon="10.7040984">
                <ele>228.0</ele>
                <time>2020-08-22T14:17:42.000Z</time>
                <name>Trackpoint 6278</name>
            </trkpt>
            <trkpt lat="49.965104" lon="10.7039816">
                <ele>228.0</ele>
                <time>2020-08-22T14:17:44.000Z</time>
                <name>Trackpoint 6279</name>
            </trkpt>
            <trkpt lat="49.965152" lon="10.7038584">
                <ele>226.0</ele>
                <time>2020-08-22T14:17:46.000Z</time>
                <name>Trackpoint 6280</name>
            </trkpt>
            <trkpt lat="49.965216" lon="10.7037448">
                <ele>226.0</ele>
                <time>2020-08-22T14:17:48.000Z</time>
                <name>Trackpoint 6281</name>
            </trkpt>
            <trkpt lat="49.9652832" lon="10.7036248">
                <ele>226.0</ele>
                <time>2020-08-22T14:17:50.000Z</time>
                <name>Trackpoint 6282</name>
            </trkpt>
            <trkpt lat="49.9653472" lon="10.7035">
                <ele>225.0</ele>
                <time>2020-08-22T14:17:52.000Z</time>
                <name>Trackpoint 6283</name>
            </trkpt>
            <trkpt lat="49.9654208" lon="10.7033752">
                <ele>225.0</ele>
                <time>2020-08-22T14:17:54.000Z</time>
                <name>Trackpoint 6284</name>
            </trkpt>
            <trkpt lat="49.9654912" lon="10.7032536">
                <ele>225.0</ele>
                <time>2020-08-22T14:17:56.000Z</time>
                <name>Trackpoint 6285</name>
            </trkpt>
            <trkpt lat="49.965552" lon="10.7031272">
                <ele>224.0</ele>
                <time>2020-08-22T14:17:58.000Z</time>
                <name>Trackpoint 6286</name>
            </trkpt>
            <trkpt lat="49.9656256" lon="10.7030048">
                <ele>225.0</ele>
                <time>2020-08-22T14:18:00.000Z</time>
                <name>Trackpoint 6287</name>
            </trkpt>
            <trkpt lat="49.965696" lon="10.7029">
                <ele>225.0</ele>
                <time>2020-08-22T14:18:02.000Z</time>
                <name>Trackpoint 6288</name>
            </trkpt>
            <trkpt lat="49.965776" lon="10.7028">
                <ele>226.0</ele>
                <time>2020-08-22T14:18:04.000Z</time>
                <name>Trackpoint 6289</name>
            </trkpt>
            <trkpt lat="49.9658592" lon="10.7027016">
                <ele>227.0</ele>
                <time>2020-08-22T14:18:06.000Z</time>
                <name>Trackpoint 6290</name>
            </trkpt>
            <trkpt lat="49.9659424" lon="10.7025984">
                <ele>227.0</ele>
                <time>2020-08-22T14:18:08.000Z</time>
                <name>Trackpoint 6291</name>
            </trkpt>
            <trkpt lat="49.9660096" lon="10.7024744">
                <ele>227.0</ele>
                <time>2020-08-22T14:18:10.000Z</time>
                <name>Trackpoint 6292</name>
            </trkpt>
            <trkpt lat="49.96608" lon="10.7023552">
                <ele>226.0</ele>
                <time>2020-08-22T14:18:12.000Z</time>
                <name>Trackpoint 6293</name>
            </trkpt>
            <trkpt lat="49.9661472" lon="10.7022464">
                <ele>226.0</ele>
                <time>2020-08-22T14:18:14.000Z</time>
                <name>Trackpoint 6294</name>
            </trkpt>
            <trkpt lat="49.9662208" lon="10.702144">
                <ele>226.0</ele>
                <time>2020-08-22T14:18:16.000Z</time>
                <name>Trackpoint 6295</name>
            </trkpt>
            <trkpt lat="49.9662848" lon="10.702048">
                <ele>226.0</ele>
                <time>2020-08-22T14:18:18.000Z</time>
                <name>Trackpoint 6296</name>
            </trkpt>
            <trkpt lat="49.9663552" lon="10.7019416">
                <ele>226.0</ele>
                <time>2020-08-22T14:18:20.000Z</time>
                <name>Trackpoint 6297</name>
            </trkpt>
            <trkpt lat="49.9664224" lon="10.701832">
                <ele>226.0</ele>
                <time>2020-08-22T14:18:22.000Z</time>
                <name>Trackpoint 6298</name>
            </trkpt>
            <trkpt lat="49.9664832" lon="10.7017152">
                <ele>226.0</ele>
                <time>2020-08-22T14:18:24.000Z</time>
                <name>Trackpoint 6299</name>
            </trkpt>
            <trkpt lat="49.966544" lon="10.7015936">
                <ele>226.0</ele>
                <time>2020-08-22T14:18:26.000Z</time>
                <name>Trackpoint 6300</name>
            </trkpt>
            <trkpt lat="49.9665824" lon="10.7014712">
                <ele>226.0</ele>
                <time>2020-08-22T14:18:28.000Z</time>
                <name>Trackpoint 6301</name>
            </trkpt>
            <trkpt lat="49.9666016" lon="10.7013456">
                <ele>226.0</ele>
                <time>2020-08-22T14:18:30.000Z</time>
                <name>Trackpoint 6302</name>
            </trkpt>
            <trkpt lat="49.9666208" lon="10.7012032">
                <ele>226.0</ele>
                <time>2020-08-22T14:18:32.000Z</time>
                <name>Trackpoint 6303</name>
            </trkpt>
            <trkpt lat="49.9666336" lon="10.701068">
                <ele>226.0</ele>
                <time>2020-08-22T14:18:34.000Z</time>
                <name>Trackpoint 6304</name>
            </trkpt>
            <trkpt lat="49.966624" lon="10.7009472">
                <ele>226.0</ele>
                <time>2020-08-22T14:18:36.000Z</time>
                <name>Trackpoint 6305</name>
            </trkpt>
            <trkpt lat="49.9666176" lon="10.7008304">
                <ele>227.0</ele>
                <time>2020-08-22T14:18:38.000Z</time>
                <name>Trackpoint 6306</name>
            </trkpt>
            <trkpt lat="49.9666016" lon="10.7007288">
                <ele>227.0</ele>
                <time>2020-08-22T14:18:40.000Z</time>
                <name>Trackpoint 6307</name>
            </trkpt>
            <trkpt lat="49.9665824" lon="10.700632">
                <ele>227.0</ele>
                <time>2020-08-22T14:18:42.000Z</time>
                <name>Trackpoint 6308</name>
            </trkpt>
            <trkpt lat="49.9665504" lon="10.7005032">
                <ele>227.0</ele>
                <time>2020-08-22T14:18:45.000Z</time>
                <name>Trackpoint 6309</name>
            </trkpt>
            <trkpt lat="49.9665248" lon="10.7004072">
                <ele>228.0</ele>
                <time>2020-08-22T14:18:47.000Z</time>
                <name>Trackpoint 6310</name>
            </trkpt>
            <trkpt lat="49.9665312" lon="10.70028">
                <ele>228.0</ele>
                <time>2020-08-22T14:18:49.000Z</time>
                <name>Trackpoint 6311</name>
            </trkpt>
            <trkpt lat="49.9665408" lon="10.70016">
                <ele>229.0</ele>
                <time>2020-08-22T14:18:51.000Z</time>
                <name>Trackpoint 6312</name>
            </trkpt>
            <trkpt lat="49.9665504" lon="10.7000416">
                <ele>229.0</ele>
                <time>2020-08-22T14:18:53.000Z</time>
                <name>Trackpoint 6313</name>
            </trkpt>
            <trkpt lat="49.9665664" lon="10.6999328">
                <ele>229.0</ele>
                <time>2020-08-22T14:18:55.000Z</time>
                <name>Trackpoint 6314</name>
            </trkpt>
            <trkpt lat="49.9666208" lon="10.699808">
                <ele>229.0</ele>
                <time>2020-08-22T14:18:58.000Z</time>
                <name>Trackpoint 6315</name>
            </trkpt>
            <trkpt lat="49.9666624" lon="10.6997">
                <ele>230.0</ele>
                <time>2020-08-22T14:19:00.000Z</time>
                <name>Trackpoint 6316</name>
            </trkpt>
            <trkpt lat="49.9667168" lon="10.6995968">
                <ele>230.0</ele>
                <time>2020-08-22T14:19:02.000Z</time>
                <name>Trackpoint 6317</name>
            </trkpt>
            <trkpt lat="49.9667584" lon="10.6994848">
                <ele>230.0</ele>
                <time>2020-08-22T14:19:04.000Z</time>
                <name>Trackpoint 6318</name>
            </trkpt>
            <trkpt lat="49.9667904" lon="10.699364">
                <ele>230.0</ele>
                <time>2020-08-22T14:19:06.000Z</time>
                <name>Trackpoint 6319</name>
            </trkpt>
            <trkpt lat="49.9668288" lon="10.6992616">
                <ele>230.0</ele>
                <time>2020-08-22T14:19:08.000Z</time>
                <name>Trackpoint 6320</name>
            </trkpt>
            <trkpt lat="49.9668704" lon="10.6991584">
                <ele>230.0</ele>
                <time>2020-08-22T14:19:10.000Z</time>
                <name>Trackpoint 6321</name>
            </trkpt>
            <trkpt lat="49.9669184" lon="10.699052">
                <ele>231.0</ele>
                <time>2020-08-22T14:19:12.000Z</time>
                <name>Trackpoint 6322</name>
            </trkpt>
            <trkpt lat="49.9669888" lon="10.6989384">
                <ele>231.0</ele>
                <time>2020-08-22T14:19:14.000Z</time>
                <name>Trackpoint 6323</name>
            </trkpt>
            <trkpt lat="49.9670496" lon="10.6988112">
                <ele>231.0</ele>
                <time>2020-08-22T14:19:16.000Z</time>
                <name>Trackpoint 6324</name>
            </trkpt>
            <trkpt lat="49.9671104" lon="10.6986768">
                <ele>231.0</ele>
                <time>2020-08-22T14:19:18.000Z</time>
                <name>Trackpoint 6325</name>
            </trkpt>
            <trkpt lat="49.9671456" lon="10.6985528">
                <ele>231.0</ele>
                <time>2020-08-22T14:19:20.000Z</time>
                <name>Trackpoint 6326</name>
            </trkpt>
            <trkpt lat="49.9671904" lon="10.6984368">
                <ele>231.0</ele>
                <time>2020-08-22T14:19:22.000Z</time>
                <name>Trackpoint 6327</name>
            </trkpt>
            <trkpt lat="49.967216" lon="10.6982744">
                <ele>232.0</ele>
                <time>2020-08-22T14:19:24.000Z</time>
                <name>Trackpoint 6328</name>
            </trkpt>
            <trkpt lat="49.9672416" lon="10.6981184">
                <ele>231.0</ele>
                <time>2020-08-22T14:19:26.000Z</time>
                <name>Trackpoint 6329</name>
            </trkpt>
            <trkpt lat="49.9672704" lon="10.6979448">
                <ele>231.0</ele>
                <time>2020-08-22T14:19:28.000Z</time>
                <name>Trackpoint 6330</name>
            </trkpt>
            <trkpt lat="49.9672768" lon="10.6978528">
                <ele>231.0</ele>
                <time>2020-08-22T14:19:29.000Z</time>
                <name>Trackpoint 6331</name>
            </trkpt>
            <trkpt lat="49.9672928" lon="10.6976768">
                <ele>231.0</ele>
                <time>2020-08-22T14:19:31.000Z</time>
                <name>Trackpoint 6332</name>
            </trkpt>
            <trkpt lat="49.9673056" lon="10.6975872">
                <ele>232.0</ele>
                <time>2020-08-22T14:19:32.000Z</time>
                <name>Trackpoint 6333</name>
            </trkpt>
            <trkpt lat="49.9673152" lon="10.6974152">
                <ele>232.0</ele>
                <time>2020-08-22T14:19:34.000Z</time>
                <name>Trackpoint 6334</name>
            </trkpt>
            <trkpt lat="49.967328" lon="10.697244">
                <ele>232.0</ele>
                <time>2020-08-22T14:19:36.000Z</time>
                <name>Trackpoint 6335</name>
            </trkpt>
            <trkpt lat="49.9673408" lon="10.6970728">
                <ele>232.0</ele>
                <time>2020-08-22T14:19:38.000Z</time>
                <name>Trackpoint 6336</name>
            </trkpt>
            <trkpt lat="49.9673536" lon="10.6969072">
                <ele>232.0</ele>
                <time>2020-08-22T14:19:40.000Z</time>
                <name>Trackpoint 6337</name>
            </trkpt>
            <trkpt lat="49.9673664" lon="10.6967424">
                <ele>232.0</ele>
                <time>2020-08-22T14:19:42.000Z</time>
                <name>Trackpoint 6338</name>
            </trkpt>
            <trkpt lat="49.967376" lon="10.6965752">
                <ele>232.0</ele>
                <time>2020-08-22T14:19:44.000Z</time>
                <name>Trackpoint 6339</name>
            </trkpt>
            <trkpt lat="49.9673952" lon="10.696412">
                <ele>232.0</ele>
                <time>2020-08-22T14:19:46.000Z</time>
                <name>Trackpoint 6340</name>
            </trkpt>
            <trkpt lat="49.9674144" lon="10.6962416">
                <ele>232.0</ele>
                <time>2020-08-22T14:19:48.000Z</time>
                <name>Trackpoint 6341</name>
            </trkpt>
            <trkpt lat="49.9674464" lon="10.69608">
                <ele>231.0</ele>
                <time>2020-08-22T14:19:50.000Z</time>
                <name>Trackpoint 6342</name>
            </trkpt>
            <trkpt lat="49.9674848" lon="10.6959112">
                <ele>232.0</ele>
                <time>2020-08-22T14:19:52.000Z</time>
                <name>Trackpoint 6343</name>
            </trkpt>
            <trkpt lat="49.9675232" lon="10.6957432">
                <ele>231.0</ele>
                <time>2020-08-22T14:19:54.000Z</time>
                <name>Trackpoint 6344</name>
            </trkpt>
            <trkpt lat="49.9675584" lon="10.6955768">
                <ele>231.0</ele>
                <time>2020-08-22T14:19:56.000Z</time>
                <name>Trackpoint 6345</name>
            </trkpt>
            <trkpt lat="49.9675776" lon="10.695488">
                <ele>231.0</ele>
                <time>2020-08-22T14:19:57.000Z</time>
                <name>Trackpoint 6346</name>
            </trkpt>
            <trkpt lat="49.9676256" lon="10.6953224">
                <ele>230.0</ele>
                <time>2020-08-22T14:19:59.000Z</time>
                <name>Trackpoint 6347</name>
            </trkpt>
            <trkpt lat="49.9676736" lon="10.6951584">
                <ele>230.0</ele>
                <time>2020-08-22T14:20:01.000Z</time>
                <name>Trackpoint 6348</name>
            </trkpt>
            <trkpt lat="49.9677152" lon="10.6949928">
                <ele>230.0</ele>
                <time>2020-08-22T14:20:03.000Z</time>
                <name>Trackpoint 6349</name>
            </trkpt>
            <trkpt lat="49.9677472" lon="10.6948344">
                <ele>230.0</ele>
                <time>2020-08-22T14:20:05.000Z</time>
                <name>Trackpoint 6350</name>
            </trkpt>
            <trkpt lat="49.9677856" lon="10.6946784">
                <ele>230.0</ele>
                <time>2020-08-22T14:20:07.000Z</time>
                <name>Trackpoint 6351</name>
            </trkpt>
            <trkpt lat="49.9678272" lon="10.6945064">
                <ele>230.0</ele>
                <time>2020-08-22T14:20:09.000Z</time>
                <name>Trackpoint 6352</name>
            </trkpt>
            <trkpt lat="49.9678496" lon="10.6944152">
                <ele>230.0</ele>
                <time>2020-08-22T14:20:10.000Z</time>
                <name>Trackpoint 6353</name>
            </trkpt>
            <trkpt lat="49.9678688" lon="10.6943232">
                <ele>230.0</ele>
                <time>2020-08-22T14:20:11.000Z</time>
                <name>Trackpoint 6354</name>
            </trkpt>
            <trkpt lat="49.9678912" lon="10.6942328">
                <ele>230.0</ele>
                <time>2020-08-22T14:20:12.000Z</time>
                <name>Trackpoint 6355</name>
            </trkpt>
            <trkpt lat="49.9679168" lon="10.6941432">
                <ele>230.0</ele>
                <time>2020-08-22T14:20:13.000Z</time>
                <name>Trackpoint 6356</name>
            </trkpt>
            <trkpt lat="49.9679424" lon="10.6940536">
                <ele>230.0</ele>
                <time>2020-08-22T14:20:14.000Z</time>
                <name>Trackpoint 6357</name>
            </trkpt>
            <trkpt lat="49.9679648" lon="10.69396">
                <ele>230.0</ele>
                <time>2020-08-22T14:20:15.000Z</time>
                <name>Trackpoint 6358</name>
            </trkpt>
            <trkpt lat="49.9680096" lon="10.6937888">
                <ele>230.0</ele>
                <time>2020-08-22T14:20:17.000Z</time>
                <name>Trackpoint 6359</name>
            </trkpt>
            <trkpt lat="49.968048" lon="10.6936216">
                <ele>230.0</ele>
                <time>2020-08-22T14:20:19.000Z</time>
                <name>Trackpoint 6360</name>
            </trkpt>
            <trkpt lat="49.9680832" lon="10.6934728">
                <ele>230.0</ele>
                <time>2020-08-22T14:20:21.000Z</time>
                <name>Trackpoint 6361</name>
            </trkpt>
            <trkpt lat="49.9681216" lon="10.6933472">
                <ele>230.0</ele>
                <time>2020-08-22T14:20:23.000Z</time>
                <name>Trackpoint 6362</name>
            </trkpt>
            <trkpt lat="49.9681344" lon="10.6932048">
                <ele>230.0</ele>
                <time>2020-08-22T14:20:25.000Z</time>
                <name>Trackpoint 6363</name>
            </trkpt>
            <trkpt lat="49.9681536" lon="10.6930552">
                <ele>230.0</ele>
                <time>2020-08-22T14:20:27.000Z</time>
                <name>Trackpoint 6364</name>
            </trkpt>
            <trkpt lat="49.9681824" lon="10.6929016">
                <ele>230.0</ele>
                <time>2020-08-22T14:20:29.000Z</time>
                <name>Trackpoint 6365</name>
            </trkpt>
            <trkpt lat="49.968208" lon="10.6927416">
                <ele>230.0</ele>
                <time>2020-08-22T14:20:31.000Z</time>
                <name>Trackpoint 6366</name>
            </trkpt>
            <trkpt lat="49.9682464" lon="10.6925896">
                <ele>229.0</ele>
                <time>2020-08-22T14:20:33.000Z</time>
                <name>Trackpoint 6367</name>
            </trkpt>
            <trkpt lat="49.9682816" lon="10.6924496">
                <ele>228.0</ele>
                <time>2020-08-22T14:20:35.000Z</time>
                <name>Trackpoint 6368</name>
            </trkpt>
            <trkpt lat="49.9683104" lon="10.6923304">
                <ele>228.0</ele>
                <time>2020-08-22T14:20:37.000Z</time>
                <name>Trackpoint 6369</name>
            </trkpt>
            <trkpt lat="49.9683424" lon="10.6922128">
                <ele>228.0</ele>
                <time>2020-08-22T14:20:39.000Z</time>
                <name>Trackpoint 6370</name>
            </trkpt>
            <trkpt lat="49.9683776" lon="10.6921064">
                <ele>227.0</ele>
                <time>2020-08-22T14:20:41.000Z</time>
                <name>Trackpoint 6371</name>
            </trkpt>
            <trkpt lat="49.9683968" lon="10.6919784">
                <ele>227.0</ele>
                <time>2020-08-22T14:20:43.000Z</time>
                <name>Trackpoint 6372</name>
            </trkpt>
            <trkpt lat="49.9684064" lon="10.691852">
                <ele>227.0</ele>
                <time>2020-08-22T14:20:45.000Z</time>
                <name>Trackpoint 6373</name>
            </trkpt>
            <trkpt lat="49.9684224" lon="10.691736">
                <ele>226.0</ele>
                <time>2020-08-22T14:20:47.000Z</time>
                <name>Trackpoint 6374</name>
            </trkpt>
            <trkpt lat="49.968448" lon="10.6916352">
                <ele>226.0</ele>
                <time>2020-08-22T14:20:49.000Z</time>
                <name>Trackpoint 6375</name>
            </trkpt>
            <trkpt lat="49.9684704" lon="10.69154">
                <ele>226.0</ele>
                <time>2020-08-22T14:20:51.000Z</time>
                <name>Trackpoint 6376</name>
            </trkpt>
            <trkpt lat="49.9684832" lon="10.691448">
                <ele>225.0</ele>
                <time>2020-08-22T14:20:53.000Z</time>
                <name>Trackpoint 6377</name>
            </trkpt>
            <trkpt lat="49.9685024" lon="10.6913216">
                <ele>223.0</ele>
                <time>2020-08-22T14:20:56.000Z</time>
                <name>Trackpoint 6378</name>
            </trkpt>
            <trkpt lat="49.9685248" lon="10.691212">
                <ele>223.0</ele>
                <time>2020-08-22T14:20:59.000Z</time>
                <name>Trackpoint 6379</name>
            </trkpt>
            <trkpt lat="49.9685504" lon="10.6910848">
                <ele>222.0</ele>
                <time>2020-08-22T14:21:02.000Z</time>
                <name>Trackpoint 6380</name>
            </trkpt>
            <trkpt lat="49.9685664" lon="10.6909712">
                <ele>221.0</ele>
                <time>2020-08-22T14:21:04.000Z</time>
                <name>Trackpoint 6381</name>
            </trkpt>
            <trkpt lat="49.9685824" lon="10.6908568">
                <ele>220.0</ele>
                <time>2020-08-22T14:21:06.000Z</time>
                <name>Trackpoint 6382</name>
            </trkpt>
            <trkpt lat="49.9686048" lon="10.69074">
                <ele>221.0</ele>
                <time>2020-08-22T14:21:08.000Z</time>
                <name>Trackpoint 6383</name>
            </trkpt>
            <trkpt lat="49.968624" lon="10.6906184">
                <ele>221.0</ele>
                <time>2020-08-22T14:21:10.000Z</time>
                <name>Trackpoint 6384</name>
            </trkpt>
            <trkpt lat="49.9686432" lon="10.6904984">
                <ele>221.0</ele>
                <time>2020-08-22T14:21:12.000Z</time>
                <name>Trackpoint 6385</name>
            </trkpt>
            <trkpt lat="49.9686624" lon="10.6903864">
                <ele>222.0</ele>
                <time>2020-08-22T14:21:14.000Z</time>
                <name>Trackpoint 6386</name>
            </trkpt>
            <trkpt lat="49.9686848" lon="10.6902688">
                <ele>221.0</ele>
                <time>2020-08-22T14:21:16.000Z</time>
                <name>Trackpoint 6387</name>
            </trkpt>
            <trkpt lat="49.9686976" lon="10.6901416">
                <ele>222.0</ele>
                <time>2020-08-22T14:21:18.000Z</time>
                <name>Trackpoint 6388</name>
            </trkpt>
            <trkpt lat="49.9687168" lon="10.6900104">
                <ele>222.0</ele>
                <time>2020-08-22T14:21:20.000Z</time>
                <name>Trackpoint 6389</name>
            </trkpt>
            <trkpt lat="49.968736" lon="10.6898768">
                <ele>222.0</ele>
                <time>2020-08-22T14:21:22.000Z</time>
                <name>Trackpoint 6390</name>
            </trkpt>
            <trkpt lat="49.9687488" lon="10.6897384">
                <ele>222.0</ele>
                <time>2020-08-22T14:21:24.000Z</time>
                <name>Trackpoint 6391</name>
            </trkpt>
            <trkpt lat="49.9687616" lon="10.6896">
                <ele>222.0</ele>
                <time>2020-08-22T14:21:26.000Z</time>
                <name>Trackpoint 6392</name>
            </trkpt>
            <trkpt lat="49.9687744" lon="10.6894568">
                <ele>222.0</ele>
                <time>2020-08-22T14:21:28.000Z</time>
                <name>Trackpoint 6393</name>
            </trkpt>
            <trkpt lat="49.968784" lon="10.6893104">
                <ele>222.0</ele>
                <time>2020-08-22T14:21:30.000Z</time>
                <name>Trackpoint 6394</name>
            </trkpt>
            <trkpt lat="49.9688" lon="10.6891672">
                <ele>222.0</ele>
                <time>2020-08-22T14:21:32.000Z</time>
                <name>Trackpoint 6395</name>
            </trkpt>
            <trkpt lat="49.9688096" lon="10.6890224">
                <ele>222.0</ele>
                <time>2020-08-22T14:21:34.000Z</time>
                <name>Trackpoint 6396</name>
            </trkpt>
            <trkpt lat="49.9688224" lon="10.68888">
                <ele>223.0</ele>
                <time>2020-08-22T14:21:36.000Z</time>
                <name>Trackpoint 6397</name>
            </trkpt>
            <trkpt lat="49.9688256" lon="10.6887264">
                <ele>223.0</ele>
                <time>2020-08-22T14:21:38.000Z</time>
                <name>Trackpoint 6398</name>
            </trkpt>
            <trkpt lat="49.9688352" lon="10.6885744">
                <ele>223.0</ele>
                <time>2020-08-22T14:21:40.000Z</time>
                <name>Trackpoint 6399</name>
            </trkpt>
            <trkpt lat="49.9688416" lon="10.688428">
                <ele>224.0</ele>
                <time>2020-08-22T14:21:42.000Z</time>
                <name>Trackpoint 6400</name>
            </trkpt>
            <trkpt lat="49.9688416" lon="10.6882696">
                <ele>224.0</ele>
                <time>2020-08-22T14:21:44.000Z</time>
                <name>Trackpoint 6401</name>
            </trkpt>
            <trkpt lat="49.9688576" lon="10.6881168">
                <ele>224.0</ele>
                <time>2020-08-22T14:21:46.000Z</time>
                <name>Trackpoint 6402</name>
            </trkpt>
            <trkpt lat="49.9688672" lon="10.68796">
                <ele>224.0</ele>
                <time>2020-08-22T14:21:48.000Z</time>
                <name>Trackpoint 6403</name>
            </trkpt>
            <trkpt lat="49.96888" lon="10.6878072">
                <ele>224.0</ele>
                <time>2020-08-22T14:21:50.000Z</time>
                <name>Trackpoint 6404</name>
            </trkpt>
            <trkpt lat="49.96888" lon="10.6876584">
                <ele>224.0</ele>
                <time>2020-08-22T14:21:52.000Z</time>
                <name>Trackpoint 6405</name>
            </trkpt>
            <trkpt lat="49.9688896" lon="10.6875048">
                <ele>225.0</ele>
                <time>2020-08-22T14:21:54.000Z</time>
                <name>Trackpoint 6406</name>
            </trkpt>
            <trkpt lat="49.9689056" lon="10.6873528">
                <ele>225.0</ele>
                <time>2020-08-22T14:21:56.000Z</time>
                <name>Trackpoint 6407</name>
            </trkpt>
            <trkpt lat="49.9689088" lon="10.6871984">
                <ele>225.0</ele>
                <time>2020-08-22T14:21:58.000Z</time>
                <name>Trackpoint 6408</name>
            </trkpt>
            <trkpt lat="49.9689248" lon="10.687052">
                <ele>225.0</ele>
                <time>2020-08-22T14:22:00.000Z</time>
                <name>Trackpoint 6409</name>
            </trkpt>
            <trkpt lat="49.9689408" lon="10.6869072">
                <ele>225.0</ele>
                <time>2020-08-22T14:22:02.000Z</time>
                <name>Trackpoint 6410</name>
            </trkpt>
            <trkpt lat="49.9689568" lon="10.68676">
                <ele>225.0</ele>
                <time>2020-08-22T14:22:04.000Z</time>
                <name>Trackpoint 6411</name>
            </trkpt>
            <trkpt lat="49.9689728" lon="10.68662">
                <ele>224.0</ele>
                <time>2020-08-22T14:22:06.000Z</time>
                <name>Trackpoint 6412</name>
            </trkpt>
            <trkpt lat="49.9689792" lon="10.6864864">
                <ele>224.0</ele>
                <time>2020-08-22T14:22:08.000Z</time>
                <name>Trackpoint 6413</name>
            </trkpt>
            <trkpt lat="49.9689824" lon="10.686348">
                <ele>224.0</ele>
                <time>2020-08-22T14:22:10.000Z</time>
                <name>Trackpoint 6414</name>
            </trkpt>
            <trkpt lat="49.9689888" lon="10.6862112">
                <ele>224.0</ele>
                <time>2020-08-22T14:22:12.000Z</time>
                <name>Trackpoint 6415</name>
            </trkpt>
            <trkpt lat="49.969008" lon="10.6860768">
                <ele>224.0</ele>
                <time>2020-08-22T14:22:14.000Z</time>
                <name>Trackpoint 6416</name>
            </trkpt>
            <trkpt lat="49.969024" lon="10.6859416">
                <ele>224.0</ele>
                <time>2020-08-22T14:22:16.000Z</time>
                <name>Trackpoint 6417</name>
            </trkpt>
            <trkpt lat="49.96904" lon="10.6857952">
                <ele>224.0</ele>
                <time>2020-08-22T14:22:18.000Z</time>
                <name>Trackpoint 6418</name>
            </trkpt>
            <trkpt lat="49.9690528" lon="10.6856536">
                <ele>224.0</ele>
                <time>2020-08-22T14:22:20.000Z</time>
                <name>Trackpoint 6419</name>
            </trkpt>
            <trkpt lat="49.9690624" lon="10.6855152">
                <ele>224.0</ele>
                <time>2020-08-22T14:22:22.000Z</time>
                <name>Trackpoint 6420</name>
            </trkpt>
            <trkpt lat="49.9690656" lon="10.6853664">
                <ele>224.0</ele>
                <time>2020-08-22T14:22:24.000Z</time>
                <name>Trackpoint 6421</name>
            </trkpt>
            <trkpt lat="49.969072" lon="10.6852168">
                <ele>224.0</ele>
                <time>2020-08-22T14:22:26.000Z</time>
                <name>Trackpoint 6422</name>
            </trkpt>
            <trkpt lat="49.9690848" lon="10.6850728">
                <ele>224.0</ele>
                <time>2020-08-22T14:22:28.000Z</time>
                <name>Trackpoint 6423</name>
            </trkpt>
            <trkpt lat="49.9690944" lon="10.684932">
                <ele>224.0</ele>
                <time>2020-08-22T14:22:30.000Z</time>
                <name>Trackpoint 6424</name>
            </trkpt>
            <trkpt lat="49.9690976" lon="10.684796">
                <ele>224.0</ele>
                <time>2020-08-22T14:22:32.000Z</time>
                <name>Trackpoint 6425</name>
            </trkpt>
            <trkpt lat="49.9691072" lon="10.6846616">
                <ele>224.0</ele>
                <time>2020-08-22T14:22:34.000Z</time>
                <name>Trackpoint 6426</name>
            </trkpt>
            <trkpt lat="49.96912" lon="10.68452">
                <ele>224.0</ele>
                <time>2020-08-22T14:22:36.000Z</time>
                <name>Trackpoint 6427</name>
            </trkpt>
            <trkpt lat="49.9691328" lon="10.6843768">
                <ele>224.0</ele>
                <time>2020-08-22T14:22:38.000Z</time>
                <name>Trackpoint 6428</name>
            </trkpt>
            <trkpt lat="49.969136" lon="10.6842416">
                <ele>224.0</ele>
                <time>2020-08-22T14:22:40.000Z</time>
                <name>Trackpoint 6429</name>
            </trkpt>
            <trkpt lat="49.9691424" lon="10.6841048">
                <ele>225.0</ele>
                <time>2020-08-22T14:22:42.000Z</time>
                <name>Trackpoint 6430</name>
            </trkpt>
            <trkpt lat="49.9691584" lon="10.6839712">
                <ele>225.0</ele>
                <time>2020-08-22T14:22:44.000Z</time>
                <name>Trackpoint 6431</name>
            </trkpt>
            <trkpt lat="49.9691744" lon="10.6838376">
                <ele>225.0</ele>
                <time>2020-08-22T14:22:46.000Z</time>
                <name>Trackpoint 6432</name>
            </trkpt>
            <trkpt lat="49.9691776" lon="10.6837064">
                <ele>225.0</ele>
                <time>2020-08-22T14:22:48.000Z</time>
                <name>Trackpoint 6433</name>
            </trkpt>
            <trkpt lat="49.969184" lon="10.683588">
                <ele>225.0</ele>
                <time>2020-08-22T14:22:50.000Z</time>
                <name>Trackpoint 6434</name>
            </trkpt>
            <trkpt lat="49.9692" lon="10.6834648">
                <ele>225.0</ele>
                <time>2020-08-22T14:22:52.000Z</time>
                <name>Trackpoint 6435</name>
            </trkpt>
            <trkpt lat="49.9692064" lon="10.6833384">
                <ele>225.0</ele>
                <time>2020-08-22T14:22:54.000Z</time>
                <name>Trackpoint 6436</name>
            </trkpt>
            <trkpt lat="49.969216" lon="10.6832088">
                <ele>225.0</ele>
                <time>2020-08-22T14:22:56.000Z</time>
                <name>Trackpoint 6437</name>
            </trkpt>
            <trkpt lat="49.969232" lon="10.6830784">
                <ele>226.0</ele>
                <time>2020-08-22T14:22:58.000Z</time>
                <name>Trackpoint 6438</name>
            </trkpt>
            <trkpt lat="49.9692416" lon="10.6829656">
                <ele>226.0</ele>
                <time>2020-08-22T14:23:00.000Z</time>
                <name>Trackpoint 6439</name>
            </trkpt>
            <trkpt lat="49.9692544" lon="10.682852">
                <ele>226.0</ele>
                <time>2020-08-22T14:23:02.000Z</time>
                <name>Trackpoint 6440</name>
            </trkpt>
            <trkpt lat="49.9692576" lon="10.6827352">
                <ele>226.0</ele>
                <time>2020-08-22T14:23:04.000Z</time>
                <name>Trackpoint 6441</name>
            </trkpt>
            <trkpt lat="49.9692672" lon="10.6826232">
                <ele>226.0</ele>
                <time>2020-08-22T14:23:06.000Z</time>
                <name>Trackpoint 6442</name>
            </trkpt>
            <trkpt lat="49.96928" lon="10.6825184">
                <ele>226.0</ele>
                <time>2020-08-22T14:23:08.000Z</time>
                <name>Trackpoint 6443</name>
            </trkpt>
            <trkpt lat="49.9692832" lon="10.6824064">
                <ele>227.0</ele>
                <time>2020-08-22T14:23:10.000Z</time>
                <name>Trackpoint 6444</name>
            </trkpt>
            <trkpt lat="49.9692992" lon="10.6823">
                <ele>227.0</ele>
                <time>2020-08-22T14:23:12.000Z</time>
                <name>Trackpoint 6445</name>
            </trkpt>
            <trkpt lat="49.969312" lon="10.6821936">
                <ele>228.0</ele>
                <time>2020-08-22T14:23:14.000Z</time>
                <name>Trackpoint 6446</name>
            </trkpt>
            <trkpt lat="49.9693248" lon="10.6820872">
                <ele>228.0</ele>
                <time>2020-08-22T14:23:16.000Z</time>
                <name>Trackpoint 6447</name>
            </trkpt>
            <trkpt lat="49.9693408" lon="10.681976">
                <ele>229.0</ele>
                <time>2020-08-22T14:23:18.000Z</time>
                <name>Trackpoint 6448</name>
            </trkpt>
            <trkpt lat="49.9693504" lon="10.6818616">
                <ele>230.0</ele>
                <time>2020-08-22T14:23:20.000Z</time>
                <name>Trackpoint 6449</name>
            </trkpt>
            <trkpt lat="49.96936" lon="10.6817464">
                <ele>230.0</ele>
                <time>2020-08-22T14:23:22.000Z</time>
                <name>Trackpoint 6450</name>
            </trkpt>
            <trkpt lat="49.969376" lon="10.6816304">
                <ele>231.0</ele>
                <time>2020-08-22T14:23:24.000Z</time>
                <name>Trackpoint 6451</name>
            </trkpt>
            <trkpt lat="49.969392" lon="10.6815072">
                <ele>231.0</ele>
                <time>2020-08-22T14:23:26.000Z</time>
                <name>Trackpoint 6452</name>
            </trkpt>
            <trkpt lat="49.9693984" lon="10.68138">
                <ele>231.0</ele>
                <time>2020-08-22T14:23:28.000Z</time>
                <name>Trackpoint 6453</name>
            </trkpt>
            <trkpt lat="49.9694144" lon="10.6812552">
                <ele>232.0</ele>
                <time>2020-08-22T14:23:30.000Z</time>
                <name>Trackpoint 6454</name>
            </trkpt>
            <trkpt lat="49.969424" lon="10.6811312">
                <ele>232.0</ele>
                <time>2020-08-22T14:23:32.000Z</time>
                <name>Trackpoint 6455</name>
            </trkpt>
            <trkpt lat="49.9694432" lon="10.6810128">
                <ele>232.0</ele>
                <time>2020-08-22T14:23:34.000Z</time>
                <name>Trackpoint 6456</name>
            </trkpt>
            <trkpt lat="49.969456" lon="10.680892">
                <ele>233.0</ele>
                <time>2020-08-22T14:23:36.000Z</time>
                <name>Trackpoint 6457</name>
            </trkpt>
            <trkpt lat="49.9694656" lon="10.6807672">
                <ele>233.0</ele>
                <time>2020-08-22T14:23:38.000Z</time>
                <name>Trackpoint 6458</name>
            </trkpt>
            <trkpt lat="49.9694848" lon="10.6806432">
                <ele>233.0</ele>
                <time>2020-08-22T14:23:40.000Z</time>
                <name>Trackpoint 6459</name>
            </trkpt>
            <trkpt lat="49.9695008" lon="10.6805248">
                <ele>233.0</ele>
                <time>2020-08-22T14:23:42.000Z</time>
                <name>Trackpoint 6460</name>
            </trkpt>
            <trkpt lat="49.9695104" lon="10.6804112">
                <ele>234.0</ele>
                <time>2020-08-22T14:23:44.000Z</time>
                <name>Trackpoint 6461</name>
            </trkpt>
            <trkpt lat="49.96952" lon="10.6802968">
                <ele>233.0</ele>
                <time>2020-08-22T14:23:46.000Z</time>
                <name>Trackpoint 6462</name>
            </trkpt>
            <trkpt lat="49.9695392" lon="10.6801864">
                <ele>234.0</ele>
                <time>2020-08-22T14:23:48.000Z</time>
                <name>Trackpoint 6463</name>
            </trkpt>
            <trkpt lat="49.9695552" lon="10.6800816">
                <ele>234.0</ele>
                <time>2020-08-22T14:23:50.000Z</time>
                <name>Trackpoint 6464</name>
            </trkpt>
            <trkpt lat="49.9695744" lon="10.6799816">
                <ele>234.0</ele>
                <time>2020-08-22T14:23:52.000Z</time>
                <name>Trackpoint 6465</name>
            </trkpt>
            <trkpt lat="49.9695936" lon="10.6798832">
                <ele>234.0</ele>
                <time>2020-08-22T14:23:54.000Z</time>
                <name>Trackpoint 6466</name>
            </trkpt>
            <trkpt lat="49.9696096" lon="10.6797736">
                <ele>234.0</ele>
                <time>2020-08-22T14:23:56.000Z</time>
                <name>Trackpoint 6467</name>
            </trkpt>
            <trkpt lat="49.9696224" lon="10.67966">
                <ele>235.0</ele>
                <time>2020-08-22T14:23:58.000Z</time>
                <name>Trackpoint 6468</name>
            </trkpt>
            <trkpt lat="49.9696416" lon="10.6795464">
                <ele>235.0</ele>
                <time>2020-08-22T14:24:00.000Z</time>
                <name>Trackpoint 6469</name>
            </trkpt>
            <trkpt lat="49.9696576" lon="10.6794368">
                <ele>235.0</ele>
                <time>2020-08-22T14:24:02.000Z</time>
                <name>Trackpoint 6470</name>
            </trkpt>
            <trkpt lat="49.9696736" lon="10.6793296">
                <ele>234.0</ele>
                <time>2020-08-22T14:24:04.000Z</time>
                <name>Trackpoint 6471</name>
            </trkpt>
            <trkpt lat="49.9696928" lon="10.6792232">
                <ele>235.0</ele>
                <time>2020-08-22T14:24:06.000Z</time>
                <name>Trackpoint 6472</name>
            </trkpt>
            <trkpt lat="49.969712" lon="10.6791152">
                <ele>235.0</ele>
                <time>2020-08-22T14:24:08.000Z</time>
                <name>Trackpoint 6473</name>
            </trkpt>
            <trkpt lat="49.969728" lon="10.6790048">
                <ele>234.0</ele>
                <time>2020-08-22T14:24:10.000Z</time>
                <name>Trackpoint 6474</name>
            </trkpt>
            <trkpt lat="49.9697408" lon="10.6788928">
                <ele>234.0</ele>
                <time>2020-08-22T14:24:12.000Z</time>
                <name>Trackpoint 6475</name>
            </trkpt>
            <trkpt lat="49.9697568" lon="10.6787616">
                <ele>233.0</ele>
                <time>2020-08-22T14:24:14.000Z</time>
                <name>Trackpoint 6476</name>
            </trkpt>
            <trkpt lat="49.9697792" lon="10.6786216">
                <ele>233.0</ele>
                <time>2020-08-22T14:24:16.000Z</time>
                <name>Trackpoint 6477</name>
            </trkpt>
            <trkpt lat="49.9697984" lon="10.6784872">
                <ele>233.0</ele>
                <time>2020-08-22T14:24:18.000Z</time>
                <name>Trackpoint 6478</name>
            </trkpt>
            <trkpt lat="49.9698176" lon="10.6783504">
                <ele>233.0</ele>
                <time>2020-08-22T14:24:20.000Z</time>
                <name>Trackpoint 6479</name>
            </trkpt>
            <trkpt lat="49.9698368" lon="10.6782128">
                <ele>233.0</ele>
                <time>2020-08-22T14:24:22.000Z</time>
                <name>Trackpoint 6480</name>
            </trkpt>
            <trkpt lat="49.969856" lon="10.678068">
                <ele>233.0</ele>
                <time>2020-08-22T14:24:24.000Z</time>
                <name>Trackpoint 6481</name>
            </trkpt>
            <trkpt lat="49.9698752" lon="10.6779136">
                <ele>234.0</ele>
                <time>2020-08-22T14:24:26.000Z</time>
                <name>Trackpoint 6482</name>
            </trkpt>
            <trkpt lat="49.969888" lon="10.67776">
                <ele>234.0</ele>
                <time>2020-08-22T14:24:28.000Z</time>
                <name>Trackpoint 6483</name>
            </trkpt>
            <trkpt lat="49.9699008" lon="10.6776016">
                <ele>234.0</ele>
                <time>2020-08-22T14:24:30.000Z</time>
                <name>Trackpoint 6484</name>
            </trkpt>
            <trkpt lat="49.9699168" lon="10.6774464">
                <ele>233.0</ele>
                <time>2020-08-22T14:24:32.000Z</time>
                <name>Trackpoint 6485</name>
            </trkpt>
            <trkpt lat="49.9699296" lon="10.6773144">
                <ele>233.0</ele>
                <time>2020-08-22T14:24:34.000Z</time>
                <name>Trackpoint 6486</name>
            </trkpt>
            <trkpt lat="49.9699584" lon="10.6772">
                <ele>234.0</ele>
                <time>2020-08-22T14:25:32.000Z</time>
                <name>Trackpoint 6487</name>
            </trkpt>
            <trkpt lat="49.9699584" lon="10.6771048">
                <ele>234.0</ele>
                <time>2020-08-22T14:25:34.000Z</time>
                <name>Trackpoint 6488</name>
            </trkpt>
            <trkpt lat="49.969968" lon="10.6769936">
                <ele>234.0</ele>
                <time>2020-08-22T14:25:36.000Z</time>
                <name>Trackpoint 6489</name>
            </trkpt>
            <trkpt lat="49.9699808" lon="10.6768664">
                <ele>234.0</ele>
                <time>2020-08-22T14:25:38.000Z</time>
                <name>Trackpoint 6490</name>
            </trkpt>
            <trkpt lat="49.970016" lon="10.67672">
                <ele>234.0</ele>
                <time>2020-08-22T14:25:40.000Z</time>
                <name>Trackpoint 6491</name>
            </trkpt>
            <trkpt lat="49.9700256" lon="10.6766304">
                <ele>234.0</ele>
                <time>2020-08-22T14:25:41.000Z</time>
                <name>Trackpoint 6492</name>
            </trkpt>
            <trkpt lat="49.9700576" lon="10.6764696">
                <ele>234.0</ele>
                <time>2020-08-22T14:25:43.000Z</time>
                <name>Trackpoint 6493</name>
            </trkpt>
            <trkpt lat="49.9700864" lon="10.6763">
                <ele>234.0</ele>
                <time>2020-08-22T14:25:45.000Z</time>
                <name>Trackpoint 6494</name>
            </trkpt>
            <trkpt lat="49.9700992" lon="10.67614">
                <ele>234.0</ele>
                <time>2020-08-22T14:25:47.000Z</time>
                <name>Trackpoint 6495</name>
            </trkpt>
            <trkpt lat="49.9701152" lon="10.675988">
                <ele>234.0</ele>
                <time>2020-08-22T14:25:49.000Z</time>
                <name>Trackpoint 6496</name>
            </trkpt>
            <trkpt lat="49.970128" lon="10.675852">
                <ele>234.0</ele>
                <time>2020-08-22T14:25:51.000Z</time>
                <name>Trackpoint 6497</name>
            </trkpt>
            <trkpt lat="49.9701376" lon="10.675752">
                <ele>234.0</ele>
                <time>2020-08-22T14:25:53.000Z</time>
                <name>Trackpoint 6498</name>
            </trkpt>
            <trkpt lat="49.9701888" lon="10.6756696">
                <ele>234.0</ele>
                <time>2020-08-22T14:25:56.000Z</time>
                <name>Trackpoint 6499</name>
            </trkpt>
            <trkpt lat="49.970272" lon="10.6756264">
                <ele>234.0</ele>
                <time>2020-08-22T14:25:59.000Z</time>
                <name>Trackpoint 6500</name>
            </trkpt>
            <trkpt lat="49.9703136" lon="10.6755048">
                <ele>234.0</ele>
                <time>2020-08-22T14:26:02.000Z</time>
                <name>Trackpoint 6501</name>
            </trkpt>
            <trkpt lat="49.9703232" lon="10.6753952">
                <ele>234.0</ele>
                <time>2020-08-22T14:26:04.000Z</time>
                <name>Trackpoint 6502</name>
            </trkpt>
            <trkpt lat="49.9703328" lon="10.6752664">
                <ele>233.0</ele>
                <time>2020-08-22T14:26:06.000Z</time>
                <name>Trackpoint 6503</name>
            </trkpt>
            <trkpt lat="49.9703456" lon="10.675128">
                <ele>233.0</ele>
                <time>2020-08-22T14:26:08.000Z</time>
                <name>Trackpoint 6504</name>
            </trkpt>
            <trkpt lat="49.9703488" lon="10.6749896">
                <ele>233.0</ele>
                <time>2020-08-22T14:26:10.000Z</time>
                <name>Trackpoint 6505</name>
            </trkpt>
            <trkpt lat="49.9703584" lon="10.6748384">
                <ele>233.0</ele>
                <time>2020-08-22T14:26:12.000Z</time>
                <name>Trackpoint 6506</name>
            </trkpt>
            <trkpt lat="49.9703776" lon="10.6747048">
                <ele>234.0</ele>
                <time>2020-08-22T14:26:14.000Z</time>
                <name>Trackpoint 6507</name>
            </trkpt>
            <trkpt lat="49.9704064" lon="10.6745728">
                <ele>234.0</ele>
                <time>2020-08-22T14:26:16.000Z</time>
                <name>Trackpoint 6508</name>
            </trkpt>
            <trkpt lat="49.9704288" lon="10.6744448">
                <ele>234.0</ele>
                <time>2020-08-22T14:26:18.000Z</time>
                <name>Trackpoint 6509</name>
            </trkpt>
            <trkpt lat="49.9704448" lon="10.67432">
                <ele>234.0</ele>
                <time>2020-08-22T14:26:20.000Z</time>
                <name>Trackpoint 6510</name>
            </trkpt>
            <trkpt lat="49.970448" lon="10.6742016">
                <ele>234.0</ele>
                <time>2020-08-22T14:26:22.000Z</time>
                <name>Trackpoint 6511</name>
            </trkpt>
            <trkpt lat="49.970464" lon="10.67408">
                <ele>234.0</ele>
                <time>2020-08-22T14:26:24.000Z</time>
                <name>Trackpoint 6512</name>
            </trkpt>
            <trkpt lat="49.9704864" lon="10.673948">
                <ele>234.0</ele>
                <time>2020-08-22T14:26:26.000Z</time>
                <name>Trackpoint 6513</name>
            </trkpt>
            <trkpt lat="49.9705088" lon="10.6738232">
                <ele>234.0</ele>
                <time>2020-08-22T14:26:28.000Z</time>
                <name>Trackpoint 6514</name>
            </trkpt>
            <trkpt lat="49.9705344" lon="10.6736896">
                <ele>234.0</ele>
                <time>2020-08-22T14:26:30.000Z</time>
                <name>Trackpoint 6515</name>
            </trkpt>
            <trkpt lat="49.9705536" lon="10.6735632">
                <ele>234.0</ele>
                <time>2020-08-22T14:26:32.000Z</time>
                <name>Trackpoint 6516</name>
            </trkpt>
            <trkpt lat="49.9705728" lon="10.6734248">
                <ele>234.0</ele>
                <time>2020-08-22T14:26:34.000Z</time>
                <name>Trackpoint 6517</name>
            </trkpt>
            <trkpt lat="49.9706112" lon="10.6732968">
                <ele>234.0</ele>
                <time>2020-08-22T14:26:36.000Z</time>
                <name>Trackpoint 6518</name>
            </trkpt>
            <trkpt lat="49.9706432" lon="10.6731768">
                <ele>234.0</ele>
                <time>2020-08-22T14:26:38.000Z</time>
                <name>Trackpoint 6519</name>
            </trkpt>
            <trkpt lat="49.9706688" lon="10.6730608">
                <ele>234.0</ele>
                <time>2020-08-22T14:26:40.000Z</time>
                <name>Trackpoint 6520</name>
            </trkpt>
            <trkpt lat="49.9706944" lon="10.6729384">
                <ele>234.0</ele>
                <time>2020-08-22T14:26:42.000Z</time>
                <name>Trackpoint 6521</name>
            </trkpt>
            <trkpt lat="49.9707168" lon="10.6728184">
                <ele>233.0</ele>
                <time>2020-08-22T14:26:44.000Z</time>
                <name>Trackpoint 6522</name>
            </trkpt>
            <trkpt lat="49.9707552" lon="10.6726904">
                <ele>233.0</ele>
                <time>2020-08-22T14:26:46.000Z</time>
                <name>Trackpoint 6523</name>
            </trkpt>
            <trkpt lat="49.9707872" lon="10.6725832">
                <ele>233.0</ele>
                <time>2020-08-22T14:26:48.000Z</time>
                <name>Trackpoint 6524</name>
            </trkpt>
            <trkpt lat="49.9708224" lon="10.6724768">
                <ele>233.0</ele>
                <time>2020-08-22T14:26:50.000Z</time>
                <name>Trackpoint 6525</name>
            </trkpt>
            <trkpt lat="49.9708608" lon="10.6723584">
                <ele>233.0</ele>
                <time>2020-08-22T14:26:52.000Z</time>
                <name>Trackpoint 6526</name>
            </trkpt>
            <trkpt lat="49.9709024" lon="10.67224">
                <ele>233.0</ele>
                <time>2020-08-22T14:26:54.000Z</time>
                <name>Trackpoint 6527</name>
            </trkpt>
            <trkpt lat="49.970928" lon="10.6721224">
                <ele>233.0</ele>
                <time>2020-08-22T14:26:56.000Z</time>
                <name>Trackpoint 6528</name>
            </trkpt>
            <trkpt lat="49.9709664" lon="10.6720168">
                <ele>233.0</ele>
                <time>2020-08-22T14:26:58.000Z</time>
                <name>Trackpoint 6529</name>
            </trkpt>
            <trkpt lat="49.970992" lon="10.6719064">
                <ele>233.0</ele>
                <time>2020-08-22T14:27:00.000Z</time>
                <name>Trackpoint 6530</name>
            </trkpt>
            <trkpt lat="49.971024" lon="10.6718056">
                <ele>233.0</ele>
                <time>2020-08-22T14:27:02.000Z</time>
                <name>Trackpoint 6531</name>
            </trkpt>
            <trkpt lat="49.9710496" lon="10.671692">
                <ele>233.0</ele>
                <time>2020-08-22T14:27:04.000Z</time>
                <name>Trackpoint 6532</name>
            </trkpt>
            <trkpt lat="49.971072" lon="10.6716">
                <ele>233.0</ele>
                <time>2020-08-22T14:27:06.000Z</time>
                <name>Trackpoint 6533</name>
            </trkpt>
            <trkpt lat="49.9710912" lon="10.6715096">
                <ele>233.0</ele>
                <time>2020-08-22T14:27:08.000Z</time>
                <name>Trackpoint 6534</name>
            </trkpt>
            <trkpt lat="49.9711136" lon="10.6713888">
                <ele>233.0</ele>
                <time>2020-08-22T14:27:11.000Z</time>
                <name>Trackpoint 6535</name>
            </trkpt>
            <trkpt lat="49.9711328" lon="10.6712816">
                <ele>233.0</ele>
                <time>2020-08-22T14:27:14.000Z</time>
                <name>Trackpoint 6536</name>
            </trkpt>
            <trkpt lat="49.971232" lon="10.6712368">
                <ele>232.0</ele>
                <time>2020-08-22T14:27:18.000Z</time>
                <name>Trackpoint 6537</name>
            </trkpt>
            <trkpt lat="49.9713184" lon="10.671208">
                <ele>232.0</ele>
                <time>2020-08-22T14:27:21.000Z</time>
                <name>Trackpoint 6538</name>
            </trkpt>
            <trkpt lat="49.9713792" lon="10.6711352">
                <ele>232.0</ele>
                <time>2020-08-22T14:27:24.000Z</time>
                <name>Trackpoint 6539</name>
            </trkpt>
            <trkpt lat="49.9714464" lon="10.67106">
                <ele>232.0</ele>
                <time>2020-08-22T14:27:29.000Z</time>
                <name>Trackpoint 6540</name>
            </trkpt>
            <trkpt lat="49.9715008" lon="10.6709816">
                <ele>231.0</ele>
                <time>2020-08-22T14:27:57.000Z</time>
                <name>Trackpoint 6541</name>
            </trkpt>
            <trkpt lat="49.9715552" lon="10.6708744">
                <ele>231.0</ele>
                <time>2020-08-22T14:28:00.000Z</time>
                <name>Trackpoint 6542</name>
            </trkpt>
            <trkpt lat="49.9715968" lon="10.670776">
                <ele>231.0</ele>
                <time>2020-08-22T14:28:02.000Z</time>
                <name>Trackpoint 6543</name>
            </trkpt>
            <trkpt lat="49.9716224" lon="10.6706816">
                <ele>231.0</ele>
                <time>2020-08-22T14:28:04.000Z</time>
                <name>Trackpoint 6544</name>
            </trkpt>
            <trkpt lat="49.9716544" lon="10.6705616">
                <ele>231.0</ele>
                <time>2020-08-22T14:28:07.000Z</time>
                <name>Trackpoint 6545</name>
            </trkpt>
            <trkpt lat="49.97168" lon="10.67046">
                <ele>231.0</ele>
                <time>2020-08-22T14:28:09.000Z</time>
                <name>Trackpoint 6546</name>
            </trkpt>
            <trkpt lat="49.9717216" lon="10.6703584">
                <ele>231.0</ele>
                <time>2020-08-22T14:28:12.000Z</time>
                <name>Trackpoint 6547</name>
            </trkpt>
            <trkpt lat="49.9717568" lon="10.6702584">
                <ele>231.0</ele>
                <time>2020-08-22T14:28:14.000Z</time>
                <name>Trackpoint 6548</name>
            </trkpt>
            <trkpt lat="49.9717856" lon="10.670152">
                <ele>231.0</ele>
                <time>2020-08-22T14:28:16.000Z</time>
                <name>Trackpoint 6549</name>
            </trkpt>
            <trkpt lat="49.971808" lon="10.6700584">
                <ele>231.0</ele>
                <time>2020-08-22T14:28:18.000Z</time>
                <name>Trackpoint 6550</name>
            </trkpt>
            <trkpt lat="49.9718272" lon="10.66996">
                <ele>231.0</ele>
                <time>2020-08-22T14:28:21.000Z</time>
                <name>Trackpoint 6551</name>
            </trkpt>
            <trkpt lat="49.9718528" lon="10.669864">
                <ele>231.0</ele>
                <time>2020-08-22T14:36:04.000Z</time>
                <name>Trackpoint 6552</name>
            </trkpt>
            <trkpt lat="49.9718528" lon="10.6698568">
                <ele>231.0</ele>
                <time>2020-08-22T14:53:23.000Z</time>
                <name>Trackpoint 6553</name>
            </trkpt>
            <trkpt lat="49.9719328" lon="10.6697664">
                <ele>230.0</ele>
                <time>2020-08-22T14:53:53.000Z</time>
                <name>Trackpoint 6554</name>
            </trkpt>
            <trkpt lat="49.9719872" lon="10.6696832">
                <ele>230.0</ele>
                <time>2020-08-22T14:53:55.000Z</time>
                <name>Trackpoint 6555</name>
            </trkpt>
            <trkpt lat="49.9720512" lon="10.6696064">
                <ele>230.0</ele>
                <time>2020-08-22T14:53:57.000Z</time>
                <name>Trackpoint 6556</name>
            </trkpt>
            <trkpt lat="49.9721408" lon="10.6695184">
                <ele>230.0</ele>
                <time>2020-08-22T14:54:00.000Z</time>
                <name>Trackpoint 6557</name>
            </trkpt>
            <trkpt lat="49.9722304" lon="10.6694336">
                <ele>230.0</ele>
                <time>2020-08-22T14:54:03.000Z</time>
                <name>Trackpoint 6558</name>
            </trkpt>
            <trkpt lat="49.972304" lon="10.6693736">
                <ele>230.0</ele>
                <time>2020-08-22T14:54:05.000Z</time>
                <name>Trackpoint 6559</name>
            </trkpt>
            <trkpt lat="49.9723744" lon="10.6692936">
                <ele>230.0</ele>
                <time>2020-08-22T14:54:07.000Z</time>
                <name>Trackpoint 6560</name>
            </trkpt>
            <trkpt lat="49.972448" lon="10.6692">
                <ele>230.0</ele>
                <time>2020-08-22T14:54:09.000Z</time>
                <name>Trackpoint 6561</name>
            </trkpt>
            <trkpt lat="49.972512" lon="10.6691152">
                <ele>230.0</ele>
                <time>2020-08-22T14:54:11.000Z</time>
                <name>Trackpoint 6562</name>
            </trkpt>
            <trkpt lat="49.972576" lon="10.66902">
                <ele>230.0</ele>
                <time>2020-08-22T14:54:13.000Z</time>
                <name>Trackpoint 6563</name>
            </trkpt>
            <trkpt lat="49.9726336" lon="10.668908">
                <ele>230.0</ele>
                <time>2020-08-22T14:54:15.000Z</time>
                <name>Trackpoint 6564</name>
            </trkpt>
            <trkpt lat="49.9727008" lon="10.6688048">
                <ele>230.0</ele>
                <time>2020-08-22T14:54:17.000Z</time>
                <name>Trackpoint 6565</name>
            </trkpt>
            <trkpt lat="49.9727488" lon="10.668712">
                <ele>230.0</ele>
                <time>2020-08-22T14:54:19.000Z</time>
                <name>Trackpoint 6566</name>
            </trkpt>
            <trkpt lat="49.9727872" lon="10.66862">
                <ele>230.0</ele>
                <time>2020-08-22T14:54:21.000Z</time>
                <name>Trackpoint 6567</name>
            </trkpt>
            <trkpt lat="49.9728064" lon="10.6685248">
                <ele>230.0</ele>
                <time>2020-08-22T14:54:23.000Z</time>
                <name>Trackpoint 6568</name>
            </trkpt>
            <trkpt lat="49.9728384" lon="10.6684064">
                <ele>230.0</ele>
                <time>2020-08-22T14:54:26.000Z</time>
                <name>Trackpoint 6569</name>
            </trkpt>
            <trkpt lat="49.9728672" lon="10.6683168">
                <ele>230.0</ele>
                <time>2020-08-22T14:54:29.000Z</time>
                <name>Trackpoint 6570</name>
            </trkpt>
            <trkpt lat="49.9728768" lon="10.6682184">
                <ele>230.0</ele>
                <time>2020-08-22T14:54:33.000Z</time>
                <name>Trackpoint 6571</name>
            </trkpt>
            <trkpt lat="49.972896" lon="10.6681232">
                <ele>230.0</ele>
                <time>2020-08-22T14:54:36.000Z</time>
                <name>Trackpoint 6572</name>
            </trkpt>
            <trkpt lat="49.9729088" lon="10.6680248">
                <ele>230.0</ele>
                <time>2020-08-22T14:54:38.000Z</time>
                <name>Trackpoint 6573</name>
            </trkpt>
            <trkpt lat="49.972928" lon="10.6679312">
                <ele>230.0</ele>
                <time>2020-08-22T14:54:40.000Z</time>
                <name>Trackpoint 6574</name>
            </trkpt>
            <trkpt lat="49.9729472" lon="10.6678184">
                <ele>230.0</ele>
                <time>2020-08-22T14:54:43.000Z</time>
                <name>Trackpoint 6575</name>
            </trkpt>
            <trkpt lat="49.9729728" lon="10.6677288">
                <ele>230.0</ele>
                <time>2020-08-22T14:54:46.000Z</time>
                <name>Trackpoint 6576</name>
            </trkpt>
            <trkpt lat="49.9730272" lon="10.6676304">
                <ele>229.0</ele>
                <time>2020-08-22T14:55:18.000Z</time>
                <name>Trackpoint 6577</name>
            </trkpt>
            <trkpt lat="49.9730592" lon="10.6675416">
                <ele>229.0</ele>
                <time>2020-08-22T14:55:21.000Z</time>
                <name>Trackpoint 6578</name>
            </trkpt>
            <trkpt lat="49.9730688" lon="10.6674272">
                <ele>229.0</ele>
                <time>2020-08-22T14:55:24.000Z</time>
                <name>Trackpoint 6579</name>
            </trkpt>
            <trkpt lat="49.9730688" lon="10.6673368">
                <ele>229.0</ele>
                <time>2020-08-22T14:55:27.000Z</time>
                <name>Trackpoint 6580</name>
            </trkpt>
            <trkpt lat="49.973104" lon="10.6672224">
                <ele>229.0</ele>
                <time>2020-08-22T14:55:30.000Z</time>
                <name>Trackpoint 6581</name>
            </trkpt>
            <trkpt lat="49.9731072" lon="10.6671264">
                <ele>229.0</ele>
                <time>2020-08-22T14:55:32.000Z</time>
                <name>Trackpoint 6582</name>
            </trkpt>
            <trkpt lat="49.9731104" lon="10.6670352">
                <ele>229.0</ele>
                <time>2020-08-22T14:55:35.000Z</time>
                <name>Trackpoint 6583</name>
            </trkpt>
            <trkpt lat="49.9731488" lon="10.6669432">
                <ele>229.0</ele>
                <time>2020-08-22T14:55:40.000Z</time>
                <name>Trackpoint 6584</name>
            </trkpt>
            <trkpt lat="49.9731936" lon="10.6668552">
                <ele>229.0</ele>
                <time>2020-08-22T14:55:54.000Z</time>
                <name>Trackpoint 6585</name>
            </trkpt>
            <trkpt lat="49.9732384" lon="10.666752">
                <ele>229.0</ele>
                <time>2020-08-22T14:55:59.000Z</time>
                <name>Trackpoint 6586</name>
            </trkpt>
            <trkpt lat="49.9732768" lon="10.6666496">
                <ele>229.0</ele>
                <time>2020-08-22T14:56:03.000Z</time>
                <name>Trackpoint 6587</name>
            </trkpt>
            <trkpt lat="49.9732896" lon="10.6665536">
                <ele>229.0</ele>
                <time>2020-08-22T14:56:18.000Z</time>
                <name>Trackpoint 6588</name>
            </trkpt>
            <trkpt lat="49.9732896" lon="10.6664488">
                <ele>229.0</ele>
                <time>2020-08-22T14:56:22.000Z</time>
                <name>Trackpoint 6589</name>
            </trkpt>
            <trkpt lat="49.9733024" lon="10.6663448">
                <ele>229.0</ele>
                <time>2020-08-22T14:56:26.000Z</time>
                <name>Trackpoint 6590</name>
            </trkpt>
            <trkpt lat="49.9733024" lon="10.6662432">
                <ele>229.0</ele>
                <time>2020-08-22T14:56:45.000Z</time>
                <name>Trackpoint 6591</name>
            </trkpt>
            <trkpt lat="49.9733216" lon="10.6661056">
                <ele>229.0</ele>
                <time>2020-08-22T14:56:48.000Z</time>
                <name>Trackpoint 6592</name>
            </trkpt>
            <trkpt lat="49.9733312" lon="10.6660032">
                <ele>229.0</ele>
                <time>2020-08-22T14:56:50.000Z</time>
                <name>Trackpoint 6593</name>
            </trkpt>
            <trkpt lat="49.9733472" lon="10.665908">
                <ele>229.0</ele>
                <time>2020-08-22T14:56:52.000Z</time>
                <name>Trackpoint 6594</name>
            </trkpt>
            <trkpt lat="49.9733664" lon="10.6657848">
                <ele>228.0</ele>
                <time>2020-08-22T14:56:55.000Z</time>
                <name>Trackpoint 6595</name>
            </trkpt>
            <trkpt lat="49.973376" lon="10.6656768">
                <ele>228.0</ele>
                <time>2020-08-22T14:56:57.000Z</time>
                <name>Trackpoint 6596</name>
            </trkpt>
            <trkpt lat="49.9733856" lon="10.6655576">
                <ele>228.0</ele>
                <time>2020-08-22T14:56:59.000Z</time>
                <name>Trackpoint 6597</name>
            </trkpt>
            <trkpt lat="49.9733952" lon="10.6654256">
                <ele>228.0</ele>
                <time>2020-08-22T14:57:01.000Z</time>
                <name>Trackpoint 6598</name>
            </trkpt>
            <trkpt lat="49.9734176" lon="10.6653144">
                <ele>228.0</ele>
                <time>2020-08-22T14:57:03.000Z</time>
                <name>Trackpoint 6599</name>
            </trkpt>
            <trkpt lat="49.9734528" lon="10.6651984">
                <ele>228.0</ele>
                <time>2020-08-22T14:57:05.000Z</time>
                <name>Trackpoint 6600</name>
            </trkpt>
            <trkpt lat="49.9734752" lon="10.6650688">
                <ele>228.0</ele>
                <time>2020-08-22T14:57:07.000Z</time>
                <name>Trackpoint 6601</name>
            </trkpt>
            <trkpt lat="49.973488" lon="10.6649304">
                <ele>228.0</ele>
                <time>2020-08-22T14:57:09.000Z</time>
                <name>Trackpoint 6602</name>
            </trkpt>
            <trkpt lat="49.9734848" lon="10.6647904">
                <ele>227.0</ele>
                <time>2020-08-22T14:57:11.000Z</time>
                <name>Trackpoint 6603</name>
            </trkpt>
            <trkpt lat="49.9734816" lon="10.6646608">
                <ele>228.0</ele>
                <time>2020-08-22T14:57:13.000Z</time>
                <name>Trackpoint 6604</name>
            </trkpt>
            <trkpt lat="49.9734656" lon="10.6645296">
                <ele>228.0</ele>
                <time>2020-08-22T14:57:15.000Z</time>
                <name>Trackpoint 6605</name>
            </trkpt>
            <trkpt lat="49.9734496" lon="10.6644136">
                <ele>228.0</ele>
                <time>2020-08-22T14:57:17.000Z</time>
                <name>Trackpoint 6606</name>
            </trkpt>
            <trkpt lat="49.9734304" lon="10.66428">
                <ele>228.0</ele>
                <time>2020-08-22T14:57:19.000Z</time>
                <name>Trackpoint 6607</name>
            </trkpt>
            <trkpt lat="49.9734112" lon="10.6641576">
                <ele>228.0</ele>
                <time>2020-08-22T14:57:21.000Z</time>
                <name>Trackpoint 6608</name>
            </trkpt>
            <trkpt lat="49.9733952" lon="10.6640432">
                <ele>228.0</ele>
                <time>2020-08-22T14:57:23.000Z</time>
                <name>Trackpoint 6609</name>
            </trkpt>
            <trkpt lat="49.9733856" lon="10.663932">
                <ele>228.0</ele>
                <time>2020-08-22T14:57:25.000Z</time>
                <name>Trackpoint 6610</name>
            </trkpt>
            <trkpt lat="49.9733728" lon="10.6638216">
                <ele>228.0</ele>
                <time>2020-08-22T14:57:27.000Z</time>
                <name>Trackpoint 6611</name>
            </trkpt>
            <trkpt lat="49.9733536" lon="10.6636912">
                <ele>228.0</ele>
                <time>2020-08-22T14:57:29.000Z</time>
                <name>Trackpoint 6612</name>
            </trkpt>
            <trkpt lat="49.9733312" lon="10.6635504">
                <ele>228.0</ele>
                <time>2020-08-22T14:57:31.000Z</time>
                <name>Trackpoint 6613</name>
            </trkpt>
            <trkpt lat="49.9733088" lon="10.6634152">
                <ele>228.0</ele>
                <time>2020-08-22T14:57:33.000Z</time>
                <name>Trackpoint 6614</name>
            </trkpt>
            <trkpt lat="49.9732864" lon="10.6632784">
                <ele>227.0</ele>
                <time>2020-08-22T14:57:35.000Z</time>
                <name>Trackpoint 6615</name>
            </trkpt>
            <trkpt lat="49.9732672" lon="10.6631416">
                <ele>227.0</ele>
                <time>2020-08-22T14:57:37.000Z</time>
                <name>Trackpoint 6616</name>
            </trkpt>
            <trkpt lat="49.973248" lon="10.6630032">
                <ele>227.0</ele>
                <time>2020-08-22T14:57:39.000Z</time>
                <name>Trackpoint 6617</name>
            </trkpt>
            <trkpt lat="49.9732288" lon="10.6628752">
                <ele>227.0</ele>
                <time>2020-08-22T14:57:41.000Z</time>
                <name>Trackpoint 6618</name>
            </trkpt>
            <trkpt lat="49.9732128" lon="10.6627504">
                <ele>228.0</ele>
                <time>2020-08-22T14:57:43.000Z</time>
                <name>Trackpoint 6619</name>
            </trkpt>
            <trkpt lat="49.9731968" lon="10.6626352">
                <ele>228.0</ele>
                <time>2020-08-22T14:57:45.000Z</time>
                <name>Trackpoint 6620</name>
            </trkpt>
            <trkpt lat="49.9731968" lon="10.6625016">
                <ele>228.0</ele>
                <time>2020-08-22T14:57:47.000Z</time>
                <name>Trackpoint 6621</name>
            </trkpt>
            <trkpt lat="49.973184" lon="10.662356">
                <ele>228.0</ele>
                <time>2020-08-22T14:57:49.000Z</time>
                <name>Trackpoint 6622</name>
            </trkpt>
            <trkpt lat="49.9731776" lon="10.6622632">
                <ele>228.0</ele>
                <time>2020-08-22T14:57:50.000Z</time>
                <name>Trackpoint 6623</name>
            </trkpt>
            <trkpt lat="49.9731584" lon="10.6620976">
                <ele>228.0</ele>
                <time>2020-08-22T14:57:52.000Z</time>
                <name>Trackpoint 6624</name>
            </trkpt>
            <trkpt lat="49.9731584" lon="10.661952">
                <ele>228.0</ele>
                <time>2020-08-22T14:57:54.000Z</time>
                <name>Trackpoint 6625</name>
            </trkpt>
            <trkpt lat="49.973168" lon="10.6618184">
                <ele>228.0</ele>
                <time>2020-08-22T14:57:56.000Z</time>
                <name>Trackpoint 6626</name>
            </trkpt>
            <trkpt lat="49.973168" lon="10.6616784">
                <ele>228.0</ele>
                <time>2020-08-22T14:57:58.000Z</time>
                <name>Trackpoint 6627</name>
            </trkpt>
            <trkpt lat="49.973168" lon="10.66154">
                <ele>228.0</ele>
                <time>2020-08-22T14:58:00.000Z</time>
                <name>Trackpoint 6628</name>
            </trkpt>
            <trkpt lat="49.9731584" lon="10.6614112">
                <ele>228.0</ele>
                <time>2020-08-22T14:58:02.000Z</time>
                <name>Trackpoint 6629</name>
            </trkpt>
            <trkpt lat="49.9731488" lon="10.66128">
                <ele>227.0</ele>
                <time>2020-08-22T14:58:04.000Z</time>
                <name>Trackpoint 6630</name>
            </trkpt>
            <trkpt lat="49.9731392" lon="10.661148">
                <ele>227.0</ele>
                <time>2020-08-22T14:58:06.000Z</time>
                <name>Trackpoint 6631</name>
            </trkpt>
            <trkpt lat="49.973136" lon="10.6610096">
                <ele>227.0</ele>
                <time>2020-08-22T14:58:08.000Z</time>
                <name>Trackpoint 6632</name>
            </trkpt>
            <trkpt lat="49.9731232" lon="10.6609184">
                <ele>227.0</ele>
                <time>2020-08-22T14:58:09.000Z</time>
                <name>Trackpoint 6633</name>
            </trkpt>
            <trkpt lat="49.973104" lon="10.6607616">
                <ele>227.0</ele>
                <time>2020-08-22T14:58:11.000Z</time>
                <name>Trackpoint 6634</name>
            </trkpt>
            <trkpt lat="49.9730848" lon="10.6606216">
                <ele>227.0</ele>
                <time>2020-08-22T14:58:13.000Z</time>
                <name>Trackpoint 6635</name>
            </trkpt>
            <trkpt lat="49.9730752" lon="10.6604992">
                <ele>227.0</ele>
                <time>2020-08-22T14:58:15.000Z</time>
                <name>Trackpoint 6636</name>
            </trkpt>
            <trkpt lat="49.9730592" lon="10.6603768">
                <ele>227.0</ele>
                <time>2020-08-22T14:58:17.000Z</time>
                <name>Trackpoint 6637</name>
            </trkpt>
            <trkpt lat="49.97304" lon="10.6602496">
                <ele>227.0</ele>
                <time>2020-08-22T14:58:19.000Z</time>
                <name>Trackpoint 6638</name>
            </trkpt>
            <trkpt lat="49.9730304" lon="10.6601296">
                <ele>227.0</ele>
                <time>2020-08-22T14:58:21.000Z</time>
                <name>Trackpoint 6639</name>
            </trkpt>
            <trkpt lat="49.9730176" lon="10.6600112">
                <ele>227.0</ele>
                <time>2020-08-22T14:58:23.000Z</time>
                <name>Trackpoint 6640</name>
            </trkpt>
            <trkpt lat="49.9730176" lon="10.6599104">
                <ele>227.0</ele>
                <time>2020-08-22T14:58:25.000Z</time>
                <name>Trackpoint 6641</name>
            </trkpt>
            <trkpt lat="49.9730144" lon="10.6597968">
                <ele>226.0</ele>
                <time>2020-08-22T14:58:27.000Z</time>
                <name>Trackpoint 6642</name>
            </trkpt>
            <trkpt lat="49.972992" lon="10.6596584">
                <ele>226.0</ele>
                <time>2020-08-22T14:58:29.000Z</time>
                <name>Trackpoint 6643</name>
            </trkpt>
            <trkpt lat="49.9729856" lon="10.6595552">
                <ele>226.0</ele>
                <time>2020-08-22T14:58:31.000Z</time>
                <name>Trackpoint 6644</name>
            </trkpt>
            <trkpt lat="49.9729792" lon="10.6594616">
                <ele>226.0</ele>
                <time>2020-08-22T14:58:33.000Z</time>
                <name>Trackpoint 6645</name>
            </trkpt>
            <trkpt lat="49.972976" lon="10.6593568">
                <ele>226.0</ele>
                <time>2020-08-22T14:58:35.000Z</time>
                <name>Trackpoint 6646</name>
            </trkpt>
            <trkpt lat="49.9729792" lon="10.6592304">
                <ele>226.0</ele>
                <time>2020-08-22T14:58:37.000Z</time>
                <name>Trackpoint 6647</name>
            </trkpt>
            <trkpt lat="49.972976" lon="10.6590952">
                <ele>226.0</ele>
                <time>2020-08-22T14:58:39.000Z</time>
                <name>Trackpoint 6648</name>
            </trkpt>
            <trkpt lat="49.9729792" lon="10.6589568">
                <ele>226.0</ele>
                <time>2020-08-22T14:58:41.000Z</time>
                <name>Trackpoint 6649</name>
            </trkpt>
            <trkpt lat="49.9729856" lon="10.6588032">
                <ele>226.0</ele>
                <time>2020-08-22T14:58:43.000Z</time>
                <name>Trackpoint 6650</name>
            </trkpt>
            <trkpt lat="49.9729888" lon="10.6586488">
                <ele>226.0</ele>
                <time>2020-08-22T14:58:45.000Z</time>
                <name>Trackpoint 6651</name>
            </trkpt>
            <trkpt lat="49.972992" lon="10.6585016">
                <ele>226.0</ele>
                <time>2020-08-22T14:58:47.000Z</time>
                <name>Trackpoint 6652</name>
            </trkpt>
            <trkpt lat="49.972992" lon="10.6583664">
                <ele>226.0</ele>
                <time>2020-08-22T14:58:49.000Z</time>
                <name>Trackpoint 6653</name>
            </trkpt>
            <trkpt lat="49.9730048" lon="10.6582072">
                <ele>226.0</ele>
                <time>2020-08-22T14:58:51.000Z</time>
                <name>Trackpoint 6654</name>
            </trkpt>
            <trkpt lat="49.9730112" lon="10.6580648">
                <ele>226.0</ele>
                <time>2020-08-22T14:58:53.000Z</time>
                <name>Trackpoint 6655</name>
            </trkpt>
            <trkpt lat="49.9730272" lon="10.6579368">
                <ele>226.0</ele>
                <time>2020-08-22T14:58:55.000Z</time>
                <name>Trackpoint 6656</name>
            </trkpt>
            <trkpt lat="49.9730528" lon="10.6578064">
                <ele>226.0</ele>
                <time>2020-08-22T14:58:57.000Z</time>
                <name>Trackpoint 6657</name>
            </trkpt>
            <trkpt lat="49.9730784" lon="10.6576368">
                <ele>226.0</ele>
                <time>2020-08-22T14:58:59.000Z</time>
                <name>Trackpoint 6658</name>
            </trkpt>
            <trkpt lat="49.9730912" lon="10.6575072">
                <ele>226.0</ele>
                <time>2020-08-22T14:59:01.000Z</time>
                <name>Trackpoint 6659</name>
            </trkpt>
            <trkpt lat="49.9731104" lon="10.6573832">
                <ele>226.0</ele>
                <time>2020-08-22T14:59:03.000Z</time>
                <name>Trackpoint 6660</name>
            </trkpt>
            <trkpt lat="49.9731488" lon="10.6572448">
                <ele>226.0</ele>
                <time>2020-08-22T14:59:05.000Z</time>
                <name>Trackpoint 6661</name>
            </trkpt>
            <trkpt lat="49.9731904" lon="10.6571032">
                <ele>226.0</ele>
                <time>2020-08-22T14:59:07.000Z</time>
                <name>Trackpoint 6662</name>
            </trkpt>
            <trkpt lat="49.9732352" lon="10.656972">
                <ele>226.0</ele>
                <time>2020-08-22T14:59:09.000Z</time>
                <name>Trackpoint 6663</name>
            </trkpt>
            <trkpt lat="49.9733056" lon="10.6568072">
                <ele>226.0</ele>
                <time>2020-08-22T14:59:11.000Z</time>
                <name>Trackpoint 6664</name>
            </trkpt>
            <trkpt lat="49.9733568" lon="10.65666">
                <ele>226.0</ele>
                <time>2020-08-22T14:59:13.000Z</time>
                <name>Trackpoint 6665</name>
            </trkpt>
            <trkpt lat="49.9734016" lon="10.6565176">
                <ele>226.0</ele>
                <time>2020-08-22T14:59:15.000Z</time>
                <name>Trackpoint 6666</name>
            </trkpt>
            <trkpt lat="49.9734464" lon="10.656368">
                <ele>225.0</ele>
                <time>2020-08-22T14:59:17.000Z</time>
                <name>Trackpoint 6667</name>
            </trkpt>
            <trkpt lat="49.9734912" lon="10.6562296">
                <ele>225.0</ele>
                <time>2020-08-22T14:59:19.000Z</time>
                <name>Trackpoint 6668</name>
            </trkpt>
            <trkpt lat="49.9735232" lon="10.6560896">
                <ele>225.0</ele>
                <time>2020-08-22T14:59:21.000Z</time>
                <name>Trackpoint 6669</name>
            </trkpt>
            <trkpt lat="49.9735648" lon="10.6559552">
                <ele>225.0</ele>
                <time>2020-08-22T14:59:23.000Z</time>
                <name>Trackpoint 6670</name>
            </trkpt>
            <trkpt lat="49.9736" lon="10.6558304">
                <ele>225.0</ele>
                <time>2020-08-22T14:59:25.000Z</time>
                <name>Trackpoint 6671</name>
            </trkpt>
            <trkpt lat="49.9736352" lon="10.655708">
                <ele>225.0</ele>
                <time>2020-08-22T14:59:27.000Z</time>
                <name>Trackpoint 6672</name>
            </trkpt>
            <trkpt lat="49.97368" lon="10.6555832">
                <ele>225.0</ele>
                <time>2020-08-22T14:59:29.000Z</time>
                <name>Trackpoint 6673</name>
            </trkpt>
            <trkpt lat="49.9737152" lon="10.6554384">
                <ele>225.0</ele>
                <time>2020-08-22T14:59:31.000Z</time>
                <name>Trackpoint 6674</name>
            </trkpt>
            <trkpt lat="49.9737632" lon="10.6552984">
                <ele>225.0</ele>
                <time>2020-08-22T14:59:33.000Z</time>
                <name>Trackpoint 6675</name>
            </trkpt>
            <trkpt lat="49.9738016" lon="10.6551512">
                <ele>225.0</ele>
                <time>2020-08-22T14:59:35.000Z</time>
                <name>Trackpoint 6676</name>
            </trkpt>
            <trkpt lat="49.9738464" lon="10.6550128">
                <ele>225.0</ele>
                <time>2020-08-22T14:59:37.000Z</time>
                <name>Trackpoint 6677</name>
            </trkpt>
            <trkpt lat="49.973888" lon="10.6548832">
                <ele>225.0</ele>
                <time>2020-08-22T14:59:39.000Z</time>
                <name>Trackpoint 6678</name>
            </trkpt>
            <trkpt lat="49.9739328" lon="10.654748">
                <ele>225.0</ele>
                <time>2020-08-22T14:59:41.000Z</time>
                <name>Trackpoint 6679</name>
            </trkpt>
            <trkpt lat="49.9739808" lon="10.6546288">
                <ele>225.0</ele>
                <time>2020-08-22T14:59:43.000Z</time>
                <name>Trackpoint 6680</name>
            </trkpt>
            <trkpt lat="49.9740288" lon="10.6544912">
                <ele>225.0</ele>
                <time>2020-08-22T14:59:45.000Z</time>
                <name>Trackpoint 6681</name>
            </trkpt>
            <trkpt lat="49.9740864" lon="10.6543528">
                <ele>225.0</ele>
                <time>2020-08-22T14:59:47.000Z</time>
                <name>Trackpoint 6682</name>
            </trkpt>
            <trkpt lat="49.9741376" lon="10.6542184">
                <ele>225.0</ele>
                <time>2020-08-22T14:59:49.000Z</time>
                <name>Trackpoint 6683</name>
            </trkpt>
            <trkpt lat="49.974176" lon="10.6540784">
                <ele>225.0</ele>
                <time>2020-08-22T14:59:51.000Z</time>
                <name>Trackpoint 6684</name>
            </trkpt>
            <trkpt lat="49.9742272" lon="10.6539472">
                <ele>225.0</ele>
                <time>2020-08-22T14:59:53.000Z</time>
                <name>Trackpoint 6685</name>
            </trkpt>
            <trkpt lat="49.9742784" lon="10.6537984">
                <ele>225.0</ele>
                <time>2020-08-22T14:59:55.000Z</time>
                <name>Trackpoint 6686</name>
            </trkpt>
            <trkpt lat="49.97432" lon="10.65364">
                <ele>225.0</ele>
                <time>2020-08-22T14:59:57.000Z</time>
                <name>Trackpoint 6687</name>
            </trkpt>
            <trkpt lat="49.9743552" lon="10.6535064">
                <ele>225.0</ele>
                <time>2020-08-22T14:59:59.000Z</time>
                <name>Trackpoint 6688</name>
            </trkpt>
            <trkpt lat="49.9744096" lon="10.6533696">
                <ele>225.0</ele>
                <time>2020-08-22T15:00:01.000Z</time>
                <name>Trackpoint 6689</name>
            </trkpt>
            <trkpt lat="49.9744672" lon="10.6532">
                <ele>225.0</ele>
                <time>2020-08-22T15:00:03.000Z</time>
                <name>Trackpoint 6690</name>
            </trkpt>
            <trkpt lat="49.9745216" lon="10.6530448">
                <ele>225.0</ele>
                <time>2020-08-22T15:00:05.000Z</time>
                <name>Trackpoint 6691</name>
            </trkpt>
            <trkpt lat="49.9745632" lon="10.6528904">
                <ele>225.0</ele>
                <time>2020-08-22T15:00:07.000Z</time>
                <name>Trackpoint 6692</name>
            </trkpt>
            <trkpt lat="49.9746176" lon="10.6527392">
                <ele>225.0</ele>
                <time>2020-08-22T15:00:09.000Z</time>
                <name>Trackpoint 6693</name>
            </trkpt>
            <trkpt lat="49.9746656" lon="10.6525872">
                <ele>225.0</ele>
                <time>2020-08-22T15:00:11.000Z</time>
                <name>Trackpoint 6694</name>
            </trkpt>
            <trkpt lat="49.9747008" lon="10.6525024">
                <ele>225.0</ele>
                <time>2020-08-22T15:00:12.000Z</time>
                <name>Trackpoint 6695</name>
            </trkpt>
            <trkpt lat="49.974752" lon="10.6523664">
                <ele>225.0</ele>
                <time>2020-08-22T15:00:14.000Z</time>
                <name>Trackpoint 6696</name>
            </trkpt>
            <trkpt lat="49.9747968" lon="10.6522568">
                <ele>225.0</ele>
                <time>2020-08-22T15:00:16.000Z</time>
                <name>Trackpoint 6697</name>
            </trkpt>
            <trkpt lat="49.9748384" lon="10.6521464">
                <ele>225.0</ele>
                <time>2020-08-22T15:00:18.000Z</time>
                <name>Trackpoint 6698</name>
            </trkpt>
            <trkpt lat="49.9748864" lon="10.6520456">
                <ele>225.0</ele>
                <time>2020-08-22T15:00:20.000Z</time>
                <name>Trackpoint 6699</name>
            </trkpt>
            <trkpt lat="49.9749312" lon="10.65194">
                <ele>225.0</ele>
                <time>2020-08-22T15:00:22.000Z</time>
                <name>Trackpoint 6700</name>
            </trkpt>
            <trkpt lat="49.9749664" lon="10.6518288">
                <ele>225.0</ele>
                <time>2020-08-22T15:00:24.000Z</time>
                <name>Trackpoint 6701</name>
            </trkpt>
            <trkpt lat="49.9750112" lon="10.6517232">
                <ele>225.0</ele>
                <time>2020-08-22T15:00:26.000Z</time>
                <name>Trackpoint 6702</name>
            </trkpt>
            <trkpt lat="49.9750624" lon="10.6516136">
                <ele>224.0</ele>
                <time>2020-08-22T15:00:28.000Z</time>
                <name>Trackpoint 6703</name>
            </trkpt>
            <trkpt lat="49.9751136" lon="10.6514904">
                <ele>224.0</ele>
                <time>2020-08-22T15:00:30.000Z</time>
                <name>Trackpoint 6704</name>
            </trkpt>
            <trkpt lat="49.975152" lon="10.6513656">
                <ele>225.0</ele>
                <time>2020-08-22T15:00:32.000Z</time>
                <name>Trackpoint 6705</name>
            </trkpt>
            <trkpt lat="49.9751904" lon="10.6512416">
                <ele>224.0</ele>
                <time>2020-08-22T15:00:34.000Z</time>
                <name>Trackpoint 6706</name>
            </trkpt>
            <trkpt lat="49.9752416" lon="10.651132">
                <ele>224.0</ele>
                <time>2020-08-22T15:00:36.000Z</time>
                <name>Trackpoint 6707</name>
            </trkpt>
            <trkpt lat="49.9753024" lon="10.6510152">
                <ele>224.0</ele>
                <time>2020-08-22T15:00:38.000Z</time>
                <name>Trackpoint 6708</name>
            </trkpt>
            <trkpt lat="49.9753568" lon="10.6508936">
                <ele>224.0</ele>
                <time>2020-08-22T15:00:40.000Z</time>
                <name>Trackpoint 6709</name>
            </trkpt>
            <trkpt lat="49.9754144" lon="10.650772">
                <ele>224.0</ele>
                <time>2020-08-22T15:00:42.000Z</time>
                <name>Trackpoint 6710</name>
            </trkpt>
            <trkpt lat="49.975472" lon="10.650648">
                <ele>224.0</ele>
                <time>2020-08-22T15:00:44.000Z</time>
                <name>Trackpoint 6711</name>
            </trkpt>
            <trkpt lat="49.9755328" lon="10.6505232">
                <ele>224.0</ele>
                <time>2020-08-22T15:00:46.000Z</time>
                <name>Trackpoint 6712</name>
            </trkpt>
            <trkpt lat="49.9755936" lon="10.6504">
                <ele>224.0</ele>
                <time>2020-08-22T15:00:48.000Z</time>
                <name>Trackpoint 6713</name>
            </trkpt>
            <trkpt lat="49.975632" lon="10.6503096">
                <ele>224.0</ele>
                <time>2020-08-22T15:00:50.000Z</time>
                <name>Trackpoint 6714</name>
            </trkpt>
            <trkpt lat="49.9756864" lon="10.6502136">
                <ele>224.0</ele>
                <time>2020-08-22T15:01:19.000Z</time>
                <name>Trackpoint 6715</name>
            </trkpt>
            <trkpt lat="49.9757344" lon="10.6500968">
                <ele>224.0</ele>
                <time>2020-08-22T15:01:22.000Z</time>
                <name>Trackpoint 6716</name>
            </trkpt>
            <trkpt lat="49.975776" lon="10.65">
                <ele>224.0</ele>
                <time>2020-08-22T15:01:24.000Z</time>
                <name>Trackpoint 6717</name>
            </trkpt>
            <trkpt lat="49.9758144" lon="10.6498944">
                <ele>224.0</ele>
                <time>2020-08-22T15:01:26.000Z</time>
                <name>Trackpoint 6718</name>
            </trkpt>
            <trkpt lat="49.9758656" lon="10.649792">
                <ele>224.0</ele>
                <time>2020-08-22T15:01:28.000Z</time>
                <name>Trackpoint 6719</name>
            </trkpt>
            <trkpt lat="49.9759072" lon="10.6496936">
                <ele>224.0</ele>
                <time>2020-08-22T15:01:30.000Z</time>
                <name>Trackpoint 6720</name>
            </trkpt>
            <trkpt lat="49.975952" lon="10.6495896">
                <ele>224.0</ele>
                <time>2020-08-22T15:01:32.000Z</time>
                <name>Trackpoint 6721</name>
            </trkpt>
            <trkpt lat="49.9759936" lon="10.6495">
                <ele>224.0</ele>
                <time>2020-08-22T15:01:34.000Z</time>
                <name>Trackpoint 6722</name>
            </trkpt>
            <trkpt lat="49.9760512" lon="10.6493768">
                <ele>224.0</ele>
                <time>2020-08-22T15:01:37.000Z</time>
                <name>Trackpoint 6723</name>
            </trkpt>
            <trkpt lat="49.9760928" lon="10.6492856">
                <ele>224.0</ele>
                <time>2020-08-22T15:01:39.000Z</time>
                <name>Trackpoint 6724</name>
            </trkpt>
            <trkpt lat="49.9761344" lon="10.649192">
                <ele>224.0</ele>
                <time>2020-08-22T15:01:41.000Z</time>
                <name>Trackpoint 6725</name>
            </trkpt>
            <trkpt lat="49.976176" lon="10.6490968">
                <ele>224.0</ele>
                <time>2020-08-22T15:01:43.000Z</time>
                <name>Trackpoint 6726</name>
            </trkpt>
            <trkpt lat="49.9762112" lon="10.6490032">
                <ele>224.0</ele>
                <time>2020-08-22T15:01:45.000Z</time>
                <name>Trackpoint 6727</name>
            </trkpt>
            <trkpt lat="49.9762528" lon="10.6489088">
                <ele>224.0</ele>
                <time>2020-08-22T15:01:47.000Z</time>
                <name>Trackpoint 6728</name>
            </trkpt>
            <trkpt lat="49.9762944" lon="10.6488136">
                <ele>224.0</ele>
                <time>2020-08-22T15:01:49.000Z</time>
                <name>Trackpoint 6729</name>
            </trkpt>
            <trkpt lat="49.976352" lon="10.6486992">
                <ele>225.0</ele>
                <time>2020-08-22T15:01:52.000Z</time>
                <name>Trackpoint 6730</name>
            </trkpt>
            <trkpt lat="49.9763872" lon="10.6486064">
                <ele>224.0</ele>
                <time>2020-08-22T15:02:04.000Z</time>
                <name>Trackpoint 6731</name>
            </trkpt>
            <trkpt lat="49.9764256" lon="10.6485208">
                <ele>224.0</ele>
                <time>2020-08-22T15:02:07.000Z</time>
                <name>Trackpoint 6732</name>
            </trkpt>
            <trkpt lat="49.97648" lon="10.6483984">
                <ele>224.0</ele>
                <time>2020-08-22T15:02:10.000Z</time>
                <name>Trackpoint 6733</name>
            </trkpt>
            <trkpt lat="49.9765216" lon="10.6483048">
                <ele>224.0</ele>
                <time>2020-08-22T15:02:12.000Z</time>
                <name>Trackpoint 6734</name>
            </trkpt>
            <trkpt lat="49.9765536" lon="10.6482136">
                <ele>224.0</ele>
                <time>2020-08-22T15:02:14.000Z</time>
                <name>Trackpoint 6735</name>
            </trkpt>
            <trkpt lat="49.9766016" lon="10.6481152">
                <ele>224.0</ele>
                <time>2020-08-22T15:02:16.000Z</time>
                <name>Trackpoint 6736</name>
            </trkpt>
            <trkpt lat="49.9766496" lon="10.6480104">
                <ele>224.0</ele>
                <time>2020-08-22T15:02:18.000Z</time>
                <name>Trackpoint 6737</name>
            </trkpt>
            <trkpt lat="49.976704" lon="10.6479152">
                <ele>224.0</ele>
                <time>2020-08-22T15:02:20.000Z</time>
                <name>Trackpoint 6738</name>
            </trkpt>
            <trkpt lat="49.9767648" lon="10.647832">
                <ele>224.0</ele>
                <time>2020-08-22T15:02:22.000Z</time>
                <name>Trackpoint 6739</name>
            </trkpt>
            <trkpt lat="49.9768288" lon="10.6477448">
                <ele>224.0</ele>
                <time>2020-08-22T15:02:24.000Z</time>
                <name>Trackpoint 6740</name>
            </trkpt>
            <trkpt lat="49.9768832" lon="10.6476368">
                <ele>224.0</ele>
                <time>2020-08-22T15:02:26.000Z</time>
                <name>Trackpoint 6741</name>
            </trkpt>
            <trkpt lat="49.976928" lon="10.6475112">
                <ele>224.0</ele>
                <time>2020-08-22T15:02:28.000Z</time>
                <name>Trackpoint 6742</name>
            </trkpt>
            <trkpt lat="49.9769664" lon="10.6473888">
                <ele>224.0</ele>
                <time>2020-08-22T15:02:30.000Z</time>
                <name>Trackpoint 6743</name>
            </trkpt>
            <trkpt lat="49.9769856" lon="10.6472768">
                <ele>224.0</ele>
                <time>2020-08-22T15:02:32.000Z</time>
                <name>Trackpoint 6744</name>
            </trkpt>
            <trkpt lat="49.9770304" lon="10.6471728">
                <ele>224.0</ele>
                <time>2020-08-22T15:02:34.000Z</time>
                <name>Trackpoint 6745</name>
            </trkpt>
            <trkpt lat="49.9770816" lon="10.6470648">
                <ele>224.0</ele>
                <time>2020-08-22T15:02:36.000Z</time>
                <name>Trackpoint 6746</name>
            </trkpt>
            <trkpt lat="49.9771232" lon="10.6469472">
                <ele>224.0</ele>
                <time>2020-08-22T15:02:38.000Z</time>
                <name>Trackpoint 6747</name>
            </trkpt>
            <trkpt lat="49.9771552" lon="10.6468096">
                <ele>224.0</ele>
                <time>2020-08-22T15:02:40.000Z</time>
                <name>Trackpoint 6748</name>
            </trkpt>
            <trkpt lat="49.9771904" lon="10.6466664">
                <ele>224.0</ele>
                <time>2020-08-22T15:02:42.000Z</time>
                <name>Trackpoint 6749</name>
            </trkpt>
            <trkpt lat="49.9772224" lon="10.64654">
                <ele>224.0</ele>
                <time>2020-08-22T15:02:44.000Z</time>
                <name>Trackpoint 6750</name>
            </trkpt>
            <trkpt lat="49.977248" lon="10.6464168">
                <ele>224.0</ele>
                <time>2020-08-22T15:02:46.000Z</time>
                <name>Trackpoint 6751</name>
            </trkpt>
            <trkpt lat="49.9772672" lon="10.6463">
                <ele>224.0</ele>
                <time>2020-08-22T15:02:48.000Z</time>
                <name>Trackpoint 6752</name>
            </trkpt>
            <trkpt lat="49.9772864" lon="10.6461896">
                <ele>224.0</ele>
                <time>2020-08-22T15:02:50.000Z</time>
                <name>Trackpoint 6753</name>
            </trkpt>
            <trkpt lat="49.9773344" lon="10.64608">
                <ele>224.0</ele>
                <time>2020-08-22T15:02:53.000Z</time>
                <name>Trackpoint 6754</name>
            </trkpt>
            <trkpt lat="49.9773984" lon="10.6459888">
                <ele>224.0</ele>
                <time>2020-08-22T15:02:56.000Z</time>
                <name>Trackpoint 6755</name>
            </trkpt>
            <trkpt lat="49.9774656" lon="10.6458464">
                <ele>224.0</ele>
                <time>2020-08-22T15:02:58.000Z</time>
                <name>Trackpoint 6756</name>
            </trkpt>
            <trkpt lat="49.9775008" lon="10.6457616">
                <ele>224.0</ele>
                <time>2020-08-22T15:02:59.000Z</time>
                <name>Trackpoint 6757</name>
            </trkpt>
            <trkpt lat="49.9775808" lon="10.6456016">
                <ele>224.0</ele>
                <time>2020-08-22T15:03:01.000Z</time>
                <name>Trackpoint 6758</name>
            </trkpt>
            <trkpt lat="49.9776544" lon="10.6454552">
                <ele>224.0</ele>
                <time>2020-08-22T15:03:03.000Z</time>
                <name>Trackpoint 6759</name>
            </trkpt>
            <trkpt lat="49.97768" lon="10.6453136">
                <ele>224.0</ele>
                <time>2020-08-22T15:03:05.000Z</time>
                <name>Trackpoint 6760</name>
            </trkpt>
            <trkpt lat="49.9777152" lon="10.6452304">
                <ele>224.0</ele>
                <time>2020-08-22T15:03:06.000Z</time>
                <name>Trackpoint 6761</name>
            </trkpt>
            <trkpt lat="49.9777504" lon="10.6451416">
                <ele>224.0</ele>
                <time>2020-08-22T15:03:07.000Z</time>
                <name>Trackpoint 6762</name>
            </trkpt>
            <trkpt lat="49.9777952" lon="10.6449936">
                <ele>224.0</ele>
                <time>2020-08-22T15:03:09.000Z</time>
                <name>Trackpoint 6763</name>
            </trkpt>
            <trkpt lat="49.9778432" lon="10.6448448">
                <ele>224.0</ele>
                <time>2020-08-22T15:03:11.000Z</time>
                <name>Trackpoint 6764</name>
            </trkpt>
            <trkpt lat="49.9778912" lon="10.6447152">
                <ele>224.0</ele>
                <time>2020-08-22T15:03:13.000Z</time>
                <name>Trackpoint 6765</name>
            </trkpt>
            <trkpt lat="49.9779296" lon="10.6445936">
                <ele>224.0</ele>
                <time>2020-08-22T15:03:15.000Z</time>
                <name>Trackpoint 6766</name>
            </trkpt>
            <trkpt lat="49.9779968" lon="10.6445312">
                <ele>224.0</ele>
                <time>2020-08-22T15:03:17.000Z</time>
                <name>Trackpoint 6767</name>
            </trkpt>
            <trkpt lat="49.978112" lon="10.6445216">
                <ele>224.0</ele>
                <time>2020-08-22T15:03:20.000Z</time>
                <name>Trackpoint 6768</name>
            </trkpt>
            <trkpt lat="49.9782272" lon="10.6445">
                <ele>224.0</ele>
                <time>2020-08-22T15:03:23.000Z</time>
                <name>Trackpoint 6769</name>
            </trkpt>
            <trkpt lat="49.9782912" lon="10.6444104">
                <ele>224.0</ele>
                <time>2020-08-22T15:03:25.000Z</time>
                <name>Trackpoint 6770</name>
            </trkpt>
            <trkpt lat="49.978352" lon="10.6443072">
                <ele>224.0</ele>
                <time>2020-08-22T15:03:27.000Z</time>
                <name>Trackpoint 6771</name>
            </trkpt>
            <trkpt lat="49.9784096" lon="10.6441936">
                <ele>224.0</ele>
                <time>2020-08-22T15:03:29.000Z</time>
                <name>Trackpoint 6772</name>
            </trkpt>
            <trkpt lat="49.9784576" lon="10.6440752">
                <ele>224.0</ele>
                <time>2020-08-22T15:03:31.000Z</time>
                <name>Trackpoint 6773</name>
            </trkpt>
            <trkpt lat="49.9785088" lon="10.6439616">
                <ele>224.0</ele>
                <time>2020-08-22T15:03:33.000Z</time>
                <name>Trackpoint 6774</name>
            </trkpt>
            <trkpt lat="49.9785664" lon="10.6438504">
                <ele>224.0</ele>
                <time>2020-08-22T15:03:35.000Z</time>
                <name>Trackpoint 6775</name>
            </trkpt>
            <trkpt lat="49.978624" lon="10.6437368">
                <ele>224.0</ele>
                <time>2020-08-22T15:03:37.000Z</time>
                <name>Trackpoint 6776</name>
            </trkpt>
            <trkpt lat="49.9786784" lon="10.6436184">
                <ele>224.0</ele>
                <time>2020-08-22T15:03:39.000Z</time>
                <name>Trackpoint 6777</name>
            </trkpt>
            <trkpt lat="49.9787264" lon="10.6434968">
                <ele>224.0</ele>
                <time>2020-08-22T15:03:41.000Z</time>
                <name>Trackpoint 6778</name>
            </trkpt>
            <trkpt lat="49.9787776" lon="10.6433672">
                <ele>224.0</ele>
                <time>2020-08-22T15:03:43.000Z</time>
                <name>Trackpoint 6779</name>
            </trkpt>
            <trkpt lat="49.9788288" lon="10.6432304">
                <ele>224.0</ele>
                <time>2020-08-22T15:03:45.000Z</time>
                <name>Trackpoint 6780</name>
            </trkpt>
            <trkpt lat="49.9789024" lon="10.6430928">
                <ele>224.0</ele>
                <time>2020-08-22T15:03:47.000Z</time>
                <name>Trackpoint 6781</name>
            </trkpt>
            <trkpt lat="49.9789568" lon="10.6429656">
                <ele>224.0</ele>
                <time>2020-08-22T15:03:49.000Z</time>
                <name>Trackpoint 6782</name>
            </trkpt>
            <trkpt lat="49.979008" lon="10.6428536">
                <ele>224.0</ele>
                <time>2020-08-22T15:03:51.000Z</time>
                <name>Trackpoint 6783</name>
            </trkpt>
            <trkpt lat="49.9790528" lon="10.6427344">
                <ele>224.0</ele>
                <time>2020-08-22T15:03:53.000Z</time>
                <name>Trackpoint 6784</name>
            </trkpt>
            <trkpt lat="49.979104" lon="10.6426232">
                <ele>224.0</ele>
                <time>2020-08-22T15:03:55.000Z</time>
                <name>Trackpoint 6785</name>
            </trkpt>
            <trkpt lat="49.979152" lon="10.6425064">
                <ele>224.0</ele>
                <time>2020-08-22T15:03:57.000Z</time>
                <name>Trackpoint 6786</name>
            </trkpt>
            <trkpt lat="49.9792" lon="10.6423976">
                <ele>224.0</ele>
                <time>2020-08-22T15:03:59.000Z</time>
                <name>Trackpoint 6787</name>
            </trkpt>
            <trkpt lat="49.979248" lon="10.6422968">
                <ele>224.0</ele>
                <time>2020-08-22T15:04:01.000Z</time>
                <name>Trackpoint 6788</name>
            </trkpt>
            <trkpt lat="49.9792864" lon="10.6422016">
                <ele>224.0</ele>
                <time>2020-08-22T15:04:03.000Z</time>
                <name>Trackpoint 6789</name>
            </trkpt>
            <trkpt lat="49.9793248" lon="10.6421184">
                <ele>224.0</ele>
                <time>2020-08-22T15:04:05.000Z</time>
                <name>Trackpoint 6790</name>
            </trkpt>
            <trkpt lat="49.9793504" lon="10.6420184">
                <ele>224.0</ele>
                <time>2020-08-22T15:04:07.000Z</time>
                <name>Trackpoint 6791</name>
            </trkpt>
            <trkpt lat="49.9793792" lon="10.6419264">
                <ele>223.0</ele>
                <time>2020-08-22T15:04:09.000Z</time>
                <name>Trackpoint 6792</name>
            </trkpt>
            <trkpt lat="49.9794112" lon="10.6418352">
                <ele>223.0</ele>
                <time>2020-08-22T15:04:11.000Z</time>
                <name>Trackpoint 6793</name>
            </trkpt>
            <trkpt lat="49.9794496" lon="10.64174">
                <ele>223.0</ele>
                <time>2020-08-22T15:04:13.000Z</time>
                <name>Trackpoint 6794</name>
            </trkpt>
            <trkpt lat="49.979488" lon="10.6416416">
                <ele>223.0</ele>
                <time>2020-08-22T15:04:15.000Z</time>
                <name>Trackpoint 6795</name>
            </trkpt>
            <trkpt lat="49.9795328" lon="10.6415384">
                <ele>223.0</ele>
                <time>2020-08-22T15:04:17.000Z</time>
                <name>Trackpoint 6796</name>
            </trkpt>
            <trkpt lat="49.979584" lon="10.641432">
                <ele>223.0</ele>
                <time>2020-08-22T15:04:19.000Z</time>
                <name>Trackpoint 6797</name>
            </trkpt>
            <trkpt lat="49.979632" lon="10.6413384">
                <ele>223.0</ele>
                <time>2020-08-22T15:04:21.000Z</time>
                <name>Trackpoint 6798</name>
            </trkpt>
            <trkpt lat="49.9796928" lon="10.6412384">
                <ele>223.0</ele>
                <time>2020-08-22T15:04:23.000Z</time>
                <name>Trackpoint 6799</name>
            </trkpt>
            <trkpt lat="49.9797568" lon="10.6411352">
                <ele>224.0</ele>
                <time>2020-08-22T15:04:25.000Z</time>
                <name>Trackpoint 6800</name>
            </trkpt>
            <trkpt lat="49.979824" lon="10.6410304">
                <ele>224.0</ele>
                <time>2020-08-22T15:04:27.000Z</time>
                <name>Trackpoint 6801</name>
            </trkpt>
            <trkpt lat="49.9798848" lon="10.6409232">
                <ele>223.0</ele>
                <time>2020-08-22T15:04:29.000Z</time>
                <name>Trackpoint 6802</name>
            </trkpt>
            <trkpt lat="49.9799552" lon="10.640812">
                <ele>223.0</ele>
                <time>2020-08-22T15:04:31.000Z</time>
                <name>Trackpoint 6803</name>
            </trkpt>
            <trkpt lat="49.9800096" lon="10.6406944">
                <ele>223.0</ele>
                <time>2020-08-22T15:04:33.000Z</time>
                <name>Trackpoint 6804</name>
            </trkpt>
            <trkpt lat="49.9800672" lon="10.6405736">
                <ele>223.0</ele>
                <time>2020-08-22T15:04:35.000Z</time>
                <name>Trackpoint 6805</name>
            </trkpt>
            <trkpt lat="49.9801184" lon="10.6404448">
                <ele>223.0</ele>
                <time>2020-08-22T15:04:37.000Z</time>
                <name>Trackpoint 6806</name>
            </trkpt>
            <trkpt lat="49.9801664" lon="10.6403176">
                <ele>223.0</ele>
                <time>2020-08-22T15:04:39.000Z</time>
                <name>Trackpoint 6807</name>
            </trkpt>
            <trkpt lat="49.9802176" lon="10.6402032">
                <ele>223.0</ele>
                <time>2020-08-22T15:04:41.000Z</time>
                <name>Trackpoint 6808</name>
            </trkpt>
            <trkpt lat="49.9802656" lon="10.6400944">
                <ele>223.0</ele>
                <time>2020-08-22T15:04:43.000Z</time>
                <name>Trackpoint 6809</name>
            </trkpt>
            <trkpt lat="49.9803072" lon="10.6399872">
                <ele>223.0</ele>
                <time>2020-08-22T15:04:45.000Z</time>
                <name>Trackpoint 6810</name>
            </trkpt>
            <trkpt lat="49.9803456" lon="10.6398672">
                <ele>224.0</ele>
                <time>2020-08-22T15:04:47.000Z</time>
                <name>Trackpoint 6811</name>
            </trkpt>
            <trkpt lat="49.9804" lon="10.6397448">
                <ele>223.0</ele>
                <time>2020-08-22T15:04:49.000Z</time>
                <name>Trackpoint 6812</name>
            </trkpt>
            <trkpt lat="49.9804448" lon="10.6396168">
                <ele>224.0</ele>
                <time>2020-08-22T15:04:51.000Z</time>
                <name>Trackpoint 6813</name>
            </trkpt>
            <trkpt lat="49.980496" lon="10.6394904">
                <ele>224.0</ele>
                <time>2020-08-22T15:04:53.000Z</time>
                <name>Trackpoint 6814</name>
            </trkpt>
            <trkpt lat="49.9805536" lon="10.6393568">
                <ele>224.0</ele>
                <time>2020-08-22T15:04:55.000Z</time>
                <name>Trackpoint 6815</name>
            </trkpt>
            <trkpt lat="49.9806112" lon="10.6392248">
                <ele>225.0</ele>
                <time>2020-08-22T15:04:57.000Z</time>
                <name>Trackpoint 6816</name>
            </trkpt>
            <trkpt lat="49.9806656" lon="10.6391">
                <ele>225.0</ele>
                <time>2020-08-22T15:04:59.000Z</time>
                <name>Trackpoint 6817</name>
            </trkpt>
            <trkpt lat="49.9807232" lon="10.6389736">
                <ele>225.0</ele>
                <time>2020-08-22T15:05:01.000Z</time>
                <name>Trackpoint 6818</name>
            </trkpt>
            <trkpt lat="49.9807776" lon="10.6388456">
                <ele>226.0</ele>
                <time>2020-08-22T15:05:03.000Z</time>
                <name>Trackpoint 6819</name>
            </trkpt>
            <trkpt lat="49.980832" lon="10.6387144">
                <ele>226.0</ele>
                <time>2020-08-22T15:05:05.000Z</time>
                <name>Trackpoint 6820</name>
            </trkpt>
            <trkpt lat="49.9808832" lon="10.6385872">
                <ele>225.0</ele>
                <time>2020-08-22T15:05:07.000Z</time>
                <name>Trackpoint 6821</name>
            </trkpt>
            <trkpt lat="49.9809408" lon="10.6384584">
                <ele>225.0</ele>
                <time>2020-08-22T15:05:09.000Z</time>
                <name>Trackpoint 6822</name>
            </trkpt>
            <trkpt lat="49.9809952" lon="10.6383304">
                <ele>225.0</ele>
                <time>2020-08-22T15:05:11.000Z</time>
                <name>Trackpoint 6823</name>
            </trkpt>
            <trkpt lat="49.9810432" lon="10.6382016">
                <ele>225.0</ele>
                <time>2020-08-22T15:05:13.000Z</time>
                <name>Trackpoint 6824</name>
            </trkpt>
            <trkpt lat="49.9810976" lon="10.638072">
                <ele>225.0</ele>
                <time>2020-08-22T15:05:15.000Z</time>
                <name>Trackpoint 6825</name>
            </trkpt>
            <trkpt lat="49.981152" lon="10.6379408">
                <ele>225.0</ele>
                <time>2020-08-22T15:05:17.000Z</time>
                <name>Trackpoint 6826</name>
            </trkpt>
            <trkpt lat="49.9812064" lon="10.6378088">
                <ele>224.0</ele>
                <time>2020-08-22T15:05:19.000Z</time>
                <name>Trackpoint 6827</name>
            </trkpt>
            <trkpt lat="49.9812544" lon="10.6376784">
                <ele>223.0</ele>
                <time>2020-08-22T15:05:21.000Z</time>
                <name>Trackpoint 6828</name>
            </trkpt>
            <trkpt lat="49.9813088" lon="10.6375512">
                <ele>223.0</ele>
                <time>2020-08-22T15:05:23.000Z</time>
                <name>Trackpoint 6829</name>
            </trkpt>
            <trkpt lat="49.9813504" lon="10.6374256">
                <ele>223.0</ele>
                <time>2020-08-22T15:05:25.000Z</time>
                <name>Trackpoint 6830</name>
            </trkpt>
            <trkpt lat="49.9814048" lon="10.6373016">
                <ele>222.0</ele>
                <time>2020-08-22T15:05:27.000Z</time>
                <name>Trackpoint 6831</name>
            </trkpt>
            <trkpt lat="49.9814656" lon="10.63718">
                <ele>224.0</ele>
                <time>2020-08-22T15:05:29.000Z</time>
                <name>Trackpoint 6832</name>
            </trkpt>
            <trkpt lat="49.9815136" lon="10.6370584">
                <ele>222.0</ele>
                <time>2020-08-22T15:05:31.000Z</time>
                <name>Trackpoint 6833</name>
            </trkpt>
            <trkpt lat="49.9815584" lon="10.6369368">
                <ele>222.0</ele>
                <time>2020-08-22T15:05:33.000Z</time>
                <name>Trackpoint 6834</name>
            </trkpt>
            <trkpt lat="49.9815712" lon="10.6368112">
                <ele>222.0</ele>
                <time>2020-08-22T15:05:35.000Z</time>
                <name>Trackpoint 6835</name>
            </trkpt>
            <trkpt lat="49.9815552" lon="10.6366784">
                <ele>224.0</ele>
                <time>2020-08-22T15:05:37.000Z</time>
                <name>Trackpoint 6836</name>
            </trkpt>
            <trkpt lat="49.9815168" lon="10.6365632">
                <ele>225.0</ele>
                <time>2020-08-22T15:05:39.000Z</time>
                <name>Trackpoint 6837</name>
            </trkpt>
            <trkpt lat="49.9814688" lon="10.6364672">
                <ele>225.0</ele>
                <time>2020-08-22T15:05:41.000Z</time>
                <name>Trackpoint 6838</name>
            </trkpt>
            <trkpt lat="49.9814048" lon="10.6363848">
                <ele>226.0</ele>
                <time>2020-08-22T15:05:43.000Z</time>
                <name>Trackpoint 6839</name>
            </trkpt>
            <trkpt lat="49.9813376" lon="10.6363152">
                <ele>226.0</ele>
                <time>2020-08-22T15:05:45.000Z</time>
                <name>Trackpoint 6840</name>
            </trkpt>
            <trkpt lat="49.9812768" lon="10.6362488">
                <ele>227.0</ele>
                <time>2020-08-22T15:05:47.000Z</time>
                <name>Trackpoint 6841</name>
            </trkpt>
            <trkpt lat="49.9812064" lon="10.6361504">
                <ele>226.0</ele>
                <time>2020-08-22T15:05:50.000Z</time>
                <name>Trackpoint 6842</name>
            </trkpt>
            <trkpt lat="49.9811584" lon="10.6360528">
                <ele>227.0</ele>
                <time>2020-08-22T15:05:53.000Z</time>
                <name>Trackpoint 6843</name>
            </trkpt>
            <trkpt lat="49.9812672" lon="10.6360568">
                <ele>228.0</ele>
                <time>2020-08-22T15:05:58.000Z</time>
                <name>Trackpoint 6844</name>
            </trkpt>
            <trkpt lat="49.9813472" lon="10.6361464">
                <ele>228.0</ele>
                <time>2020-08-22T15:06:01.000Z</time>
                <name>Trackpoint 6845</name>
            </trkpt>
            <trkpt lat="49.9814304" lon="10.6362184">
                <ele>229.0</ele>
                <time>2020-08-22T15:06:04.000Z</time>
                <name>Trackpoint 6846</name>
            </trkpt>
            <trkpt lat="49.9815136" lon="10.6363064">
                <ele>229.0</ele>
                <time>2020-08-22T15:06:07.000Z</time>
                <name>Trackpoint 6847</name>
            </trkpt>
            <trkpt lat="49.9816032" lon="10.6363848">
                <ele>230.0</ele>
                <time>2020-08-22T15:06:10.000Z</time>
                <name>Trackpoint 6848</name>
            </trkpt>
            <trkpt lat="49.9816928" lon="10.63636">
                <ele>231.0</ele>
                <time>2020-08-22T15:06:41.000Z</time>
                <name>Trackpoint 6849</name>
            </trkpt>
            <trkpt lat="49.981728" lon="10.636224">
                <ele>231.0</ele>
                <time>2020-08-22T15:06:44.000Z</time>
                <name>Trackpoint 6850</name>
            </trkpt>
            <trkpt lat="49.9817568" lon="10.6360912">
                <ele>231.0</ele>
                <time>2020-08-22T15:06:46.000Z</time>
                <name>Trackpoint 6851</name>
            </trkpt>
            <trkpt lat="49.9818016" lon="10.6359616">
                <ele>231.0</ele>
                <time>2020-08-22T15:06:48.000Z</time>
                <name>Trackpoint 6852</name>
            </trkpt>
            <trkpt lat="49.9818656" lon="10.6358248">
                <ele>231.0</ele>
                <time>2020-08-22T15:06:50.000Z</time>
                <name>Trackpoint 6853</name>
            </trkpt>
            <trkpt lat="49.9819328" lon="10.6356736">
                <ele>231.0</ele>
                <time>2020-08-22T15:06:52.000Z</time>
                <name>Trackpoint 6854</name>
            </trkpt>
            <trkpt lat="49.9820096" lon="10.6355088">
                <ele>231.0</ele>
                <time>2020-08-22T15:06:54.000Z</time>
                <name>Trackpoint 6855</name>
            </trkpt>
            <trkpt lat="49.9820448" lon="10.6354216">
                <ele>231.0</ele>
                <time>2020-08-22T15:06:55.000Z</time>
                <name>Trackpoint 6856</name>
            </trkpt>
            <trkpt lat="49.98208" lon="10.6353368">
                <ele>231.0</ele>
                <time>2020-08-22T15:06:56.000Z</time>
                <name>Trackpoint 6857</name>
            </trkpt>
            <trkpt lat="49.9821472" lon="10.6351632">
                <ele>230.0</ele>
                <time>2020-08-22T15:06:58.000Z</time>
                <name>Trackpoint 6858</name>
            </trkpt>
            <trkpt lat="49.9821824" lon="10.6350784">
                <ele>230.0</ele>
                <time>2020-08-22T15:06:59.000Z</time>
                <name>Trackpoint 6859</name>
            </trkpt>
            <trkpt lat="49.982208" lon="10.634992">
                <ele>230.0</ele>
                <time>2020-08-22T15:07:00.000Z</time>
                <name>Trackpoint 6860</name>
            </trkpt>
            <trkpt lat="49.9822432" lon="10.6349048">
                <ele>230.0</ele>
                <time>2020-08-22T15:07:01.000Z</time>
                <name>Trackpoint 6861</name>
            </trkpt>
            <trkpt lat="49.9822784" lon="10.63482">
                <ele>230.0</ele>
                <time>2020-08-22T15:07:02.000Z</time>
                <name>Trackpoint 6862</name>
            </trkpt>
            <trkpt lat="49.9823328" lon="10.6346528">
                <ele>230.0</ele>
                <time>2020-08-22T15:07:04.000Z</time>
                <name>Trackpoint 6863</name>
            </trkpt>
            <trkpt lat="49.9824032" lon="10.6344992">
                <ele>230.0</ele>
                <time>2020-08-22T15:07:06.000Z</time>
                <name>Trackpoint 6864</name>
            </trkpt>
            <trkpt lat="49.9824704" lon="10.6343472">
                <ele>230.0</ele>
                <time>2020-08-22T15:07:08.000Z</time>
                <name>Trackpoint 6865</name>
            </trkpt>
            <trkpt lat="49.9825376" lon="10.634196">
                <ele>230.0</ele>
                <time>2020-08-22T15:07:10.000Z</time>
                <name>Trackpoint 6866</name>
            </trkpt>
            <trkpt lat="49.9825984" lon="10.6340504">
                <ele>230.0</ele>
                <time>2020-08-22T15:07:12.000Z</time>
                <name>Trackpoint 6867</name>
            </trkpt>
            <trkpt lat="49.982656" lon="10.6339104">
                <ele>230.0</ele>
                <time>2020-08-22T15:07:14.000Z</time>
                <name>Trackpoint 6868</name>
            </trkpt>
            <trkpt lat="49.9827104" lon="10.6337744">
                <ele>230.0</ele>
                <time>2020-08-22T15:07:16.000Z</time>
                <name>Trackpoint 6869</name>
            </trkpt>
            <trkpt lat="49.982768" lon="10.6336432">
                <ele>229.0</ele>
                <time>2020-08-22T15:07:18.000Z</time>
                <name>Trackpoint 6870</name>
            </trkpt>
            <trkpt lat="49.9828256" lon="10.6335232">
                <ele>229.0</ele>
                <time>2020-08-22T15:07:20.000Z</time>
                <name>Trackpoint 6871</name>
            </trkpt>
            <trkpt lat="49.98288" lon="10.6333968">
                <ele>229.0</ele>
                <time>2020-08-22T15:07:22.000Z</time>
                <name>Trackpoint 6872</name>
            </trkpt>
            <trkpt lat="49.9829344" lon="10.633268">
                <ele>229.0</ele>
                <time>2020-08-22T15:07:24.000Z</time>
                <name>Trackpoint 6873</name>
            </trkpt>
            <trkpt lat="49.9829856" lon="10.6331456">
                <ele>229.0</ele>
                <time>2020-08-22T15:07:26.000Z</time>
                <name>Trackpoint 6874</name>
            </trkpt>
            <trkpt lat="49.9830368" lon="10.633032">
                <ele>229.0</ele>
                <time>2020-08-22T15:07:28.000Z</time>
                <name>Trackpoint 6875</name>
            </trkpt>
            <trkpt lat="49.9830816" lon="10.6329248">
                <ele>229.0</ele>
                <time>2020-08-22T15:07:30.000Z</time>
                <name>Trackpoint 6876</name>
            </trkpt>
            <trkpt lat="49.9831264" lon="10.6328232">
                <ele>229.0</ele>
                <time>2020-08-22T15:07:32.000Z</time>
                <name>Trackpoint 6877</name>
            </trkpt>
            <trkpt lat="49.983184" lon="10.6327184">
                <ele>229.0</ele>
                <time>2020-08-22T15:07:34.000Z</time>
                <name>Trackpoint 6878</name>
            </trkpt>
            <trkpt lat="49.9832352" lon="10.632604">
                <ele>228.0</ele>
                <time>2020-08-22T15:07:36.000Z</time>
                <name>Trackpoint 6879</name>
            </trkpt>
            <trkpt lat="49.9832864" lon="10.63248">
                <ele>228.0</ele>
                <time>2020-08-22T15:07:38.000Z</time>
                <name>Trackpoint 6880</name>
            </trkpt>
            <trkpt lat="49.9833344" lon="10.6323616">
                <ele>227.0</ele>
                <time>2020-08-22T15:07:40.000Z</time>
                <name>Trackpoint 6881</name>
            </trkpt>
            <trkpt lat="49.983376" lon="10.6322536">
                <ele>228.0</ele>
                <time>2020-08-22T15:07:42.000Z</time>
                <name>Trackpoint 6882</name>
            </trkpt>
            <trkpt lat="49.983424" lon="10.632156">
                <ele>228.0</ele>
                <time>2020-08-22T15:07:44.000Z</time>
                <name>Trackpoint 6883</name>
            </trkpt>
            <trkpt lat="49.9834752" lon="10.6320512">
                <ele>228.0</ele>
                <time>2020-08-22T15:07:46.000Z</time>
                <name>Trackpoint 6884</name>
            </trkpt>
            <trkpt lat="49.9835232" lon="10.6319352">
                <ele>227.0</ele>
                <time>2020-08-22T15:07:48.000Z</time>
                <name>Trackpoint 6885</name>
            </trkpt>
            <trkpt lat="49.9835744" lon="10.6318152">
                <ele>227.0</ele>
                <time>2020-08-22T15:07:50.000Z</time>
                <name>Trackpoint 6886</name>
            </trkpt>
            <trkpt lat="49.9836224" lon="10.6316832">
                <ele>227.0</ele>
                <time>2020-08-22T15:07:52.000Z</time>
                <name>Trackpoint 6887</name>
            </trkpt>
            <trkpt lat="49.9836768" lon="10.6315496">
                <ele>226.0</ele>
                <time>2020-08-22T15:07:54.000Z</time>
                <name>Trackpoint 6888</name>
            </trkpt>
            <trkpt lat="49.983728" lon="10.6314152">
                <ele>226.0</ele>
                <time>2020-08-22T15:07:56.000Z</time>
                <name>Trackpoint 6889</name>
            </trkpt>
            <trkpt lat="49.9837792" lon="10.6312848">
                <ele>225.0</ele>
                <time>2020-08-22T15:07:58.000Z</time>
                <name>Trackpoint 6890</name>
            </trkpt>
            <trkpt lat="49.9838336" lon="10.63116">
                <ele>225.0</ele>
                <time>2020-08-22T15:08:00.000Z</time>
                <name>Trackpoint 6891</name>
            </trkpt>
            <trkpt lat="49.983888" lon="10.631032">
                <ele>224.0</ele>
                <time>2020-08-22T15:08:02.000Z</time>
                <name>Trackpoint 6892</name>
            </trkpt>
            <trkpt lat="49.9839392" lon="10.6309032">
                <ele>224.0</ele>
                <time>2020-08-22T15:08:04.000Z</time>
                <name>Trackpoint 6893</name>
            </trkpt>
            <trkpt lat="49.9839872" lon="10.6307752">
                <ele>224.0</ele>
                <time>2020-08-22T15:08:06.000Z</time>
                <name>Trackpoint 6894</name>
            </trkpt>
            <trkpt lat="49.9840352" lon="10.6306488">
                <ele>224.0</ele>
                <time>2020-08-22T15:08:08.000Z</time>
                <name>Trackpoint 6895</name>
            </trkpt>
            <trkpt lat="49.9840864" lon="10.630524">
                <ele>224.0</ele>
                <time>2020-08-22T15:08:10.000Z</time>
                <name>Trackpoint 6896</name>
            </trkpt>
            <trkpt lat="49.984128" lon="10.6304">
                <ele>224.0</ele>
                <time>2020-08-22T15:08:12.000Z</time>
                <name>Trackpoint 6897</name>
            </trkpt>
            <trkpt lat="49.9841664" lon="10.6302744">
                <ele>224.0</ele>
                <time>2020-08-22T15:08:14.000Z</time>
                <name>Trackpoint 6898</name>
            </trkpt>
            <trkpt lat="49.984176" lon="10.6301448">
                <ele>224.0</ele>
                <time>2020-08-22T15:08:16.000Z</time>
                <name>Trackpoint 6899</name>
            </trkpt>
            <trkpt lat="49.9841664" lon="10.6300248">
                <ele>224.0</ele>
                <time>2020-08-22T15:08:18.000Z</time>
                <name>Trackpoint 6900</name>
            </trkpt>
            <trkpt lat="49.9841376" lon="10.6299104">
                <ele>224.0</ele>
                <time>2020-08-22T15:08:20.000Z</time>
                <name>Trackpoint 6901</name>
            </trkpt>
            <trkpt lat="49.9841056" lon="10.6298128">
                <ele>224.0</ele>
                <time>2020-08-22T15:08:22.000Z</time>
                <name>Trackpoint 6902</name>
            </trkpt>
            <trkpt lat="49.9840736" lon="10.6297152">
                <ele>224.0</ele>
                <time>2020-08-22T15:08:24.000Z</time>
                <name>Trackpoint 6903</name>
            </trkpt>
            <trkpt lat="49.9840576" lon="10.6296184">
                <ele>224.0</ele>
                <time>2020-08-22T15:08:26.000Z</time>
                <name>Trackpoint 6904</name>
            </trkpt>
            <trkpt lat="49.9840416" lon="10.6295232">
                <ele>224.0</ele>
                <time>2020-08-22T15:08:28.000Z</time>
                <name>Trackpoint 6905</name>
            </trkpt>
            <trkpt lat="49.984032" lon="10.6294248">
                <ele>224.0</ele>
                <time>2020-08-22T15:08:30.000Z</time>
                <name>Trackpoint 6906</name>
            </trkpt>
            <trkpt lat="49.9840256" lon="10.6293248">
                <ele>223.0</ele>
                <time>2020-08-22T15:08:32.000Z</time>
                <name>Trackpoint 6907</name>
            </trkpt>
            <trkpt lat="49.9840064" lon="10.6292288">
                <ele>223.0</ele>
                <time>2020-08-22T15:08:34.000Z</time>
                <name>Trackpoint 6908</name>
            </trkpt>
            <trkpt lat="49.9840128" lon="10.62912">
                <ele>223.0</ele>
                <time>2020-08-22T15:08:36.000Z</time>
                <name>Trackpoint 6909</name>
            </trkpt>
            <trkpt lat="49.9840192" lon="10.62898">
                <ele>224.0</ele>
                <time>2020-08-22T15:08:38.000Z</time>
                <name>Trackpoint 6910</name>
            </trkpt>
            <trkpt lat="49.9840352" lon="10.6288568">
                <ele>224.0</ele>
                <time>2020-08-22T15:08:40.000Z</time>
                <name>Trackpoint 6911</name>
            </trkpt>
            <trkpt lat="49.9840672" lon="10.628752">
                <ele>224.0</ele>
                <time>2020-08-22T15:08:42.000Z</time>
                <name>Trackpoint 6912</name>
            </trkpt>
            <trkpt lat="49.984096" lon="10.628636">
                <ele>224.0</ele>
                <time>2020-08-22T15:08:44.000Z</time>
                <name>Trackpoint 6913</name>
            </trkpt>
            <trkpt lat="49.9841376" lon="10.6285104">
                <ele>224.0</ele>
                <time>2020-08-22T15:08:46.000Z</time>
                <name>Trackpoint 6914</name>
            </trkpt>
            <trkpt lat="49.9841664" lon="10.6283848">
                <ele>224.0</ele>
                <time>2020-08-22T15:08:48.000Z</time>
                <name>Trackpoint 6915</name>
            </trkpt>
            <trkpt lat="49.9841984" lon="10.6282632">
                <ele>224.0</ele>
                <time>2020-08-22T15:08:50.000Z</time>
                <name>Trackpoint 6916</name>
            </trkpt>
            <trkpt lat="49.9842496" lon="10.6281336">
                <ele>224.0</ele>
                <time>2020-08-22T15:08:52.000Z</time>
                <name>Trackpoint 6917</name>
            </trkpt>
            <trkpt lat="49.9842944" lon="10.628008">
                <ele>224.0</ele>
                <time>2020-08-22T15:08:54.000Z</time>
                <name>Trackpoint 6918</name>
            </trkpt>
            <trkpt lat="49.9843296" lon="10.6278936">
                <ele>224.0</ele>
                <time>2020-08-22T15:08:56.000Z</time>
                <name>Trackpoint 6919</name>
            </trkpt>
            <trkpt lat="49.984352" lon="10.6277864">
                <ele>224.0</ele>
                <time>2020-08-22T15:08:58.000Z</time>
                <name>Trackpoint 6920</name>
            </trkpt>
            <trkpt lat="49.984384" lon="10.6276752">
                <ele>224.0</ele>
                <time>2020-08-22T15:09:00.000Z</time>
                <name>Trackpoint 6921</name>
            </trkpt>
            <trkpt lat="49.984416" lon="10.6275552">
                <ele>224.0</ele>
                <time>2020-08-22T15:09:02.000Z</time>
                <name>Trackpoint 6922</name>
            </trkpt>
            <trkpt lat="49.984448" lon="10.6274344">
                <ele>224.0</ele>
                <time>2020-08-22T15:09:04.000Z</time>
                <name>Trackpoint 6923</name>
            </trkpt>
            <trkpt lat="49.9844864" lon="10.6273184">
                <ele>224.0</ele>
                <time>2020-08-22T15:09:06.000Z</time>
                <name>Trackpoint 6924</name>
            </trkpt>
            <trkpt lat="49.984528" lon="10.6272048">
                <ele>224.0</ele>
                <time>2020-08-22T15:09:08.000Z</time>
                <name>Trackpoint 6925</name>
            </trkpt>
            <trkpt lat="49.9845728" lon="10.6270768">
                <ele>224.0</ele>
                <time>2020-08-22T15:09:10.000Z</time>
                <name>Trackpoint 6926</name>
            </trkpt>
            <trkpt lat="49.9846144" lon="10.6269568">
                <ele>224.0</ele>
                <time>2020-08-22T15:09:12.000Z</time>
                <name>Trackpoint 6927</name>
            </trkpt>
            <trkpt lat="49.9846816" lon="10.6268328">
                <ele>224.0</ele>
                <time>2020-08-22T15:09:14.000Z</time>
                <name>Trackpoint 6928</name>
            </trkpt>
            <trkpt lat="49.9847136" lon="10.6267096">
                <ele>224.0</ele>
                <time>2020-08-22T15:09:16.000Z</time>
                <name>Trackpoint 6929</name>
            </trkpt>
            <trkpt lat="49.9847456" lon="10.6265768">
                <ele>224.0</ele>
                <time>2020-08-22T15:09:18.000Z</time>
                <name>Trackpoint 6930</name>
            </trkpt>
            <trkpt lat="49.984752" lon="10.6264648">
                <ele>224.0</ele>
                <time>2020-08-22T15:09:20.000Z</time>
                <name>Trackpoint 6931</name>
            </trkpt>
            <trkpt lat="49.9847296" lon="10.6263712">
                <ele>224.0</ele>
                <time>2020-08-22T15:09:22.000Z</time>
                <name>Trackpoint 6932</name>
            </trkpt>
            <trkpt lat="49.9846656" lon="10.6262912">
                <ele>225.0</ele>
                <time>2020-08-22T15:09:25.000Z</time>
                <name>Trackpoint 6933</name>
            </trkpt>
            <trkpt lat="49.9845664" lon="10.6262104">
                <ele>228.0</ele>
                <time>2020-08-22T15:09:28.000Z</time>
                <name>Trackpoint 6934</name>
            </trkpt>
            <trkpt lat="49.9844864" lon="10.6261616">
                <ele>230.0</ele>
                <time>2020-08-22T15:09:30.000Z</time>
                <name>Trackpoint 6935</name>
            </trkpt>
            <trkpt lat="49.9843904" lon="10.6260928">
                <ele>230.0</ele>
                <time>2020-08-22T15:09:33.000Z</time>
                <name>Trackpoint 6936</name>
            </trkpt>
            <trkpt lat="49.9843296" lon="10.625972">
                <ele>231.0</ele>
                <time>2020-08-22T15:09:36.000Z</time>
                <name>Trackpoint 6937</name>
            </trkpt>
            <trkpt lat="49.9842688" lon="10.6259">
                <ele>231.0</ele>
                <time>2020-08-22T15:09:38.000Z</time>
                <name>Trackpoint 6938</name>
            </trkpt>
            <trkpt lat="49.9841856" lon="10.6258152">
                <ele>230.0</ele>
                <time>2020-08-22T15:09:41.000Z</time>
                <name>Trackpoint 6939</name>
            </trkpt>
            <trkpt lat="49.984112" lon="10.625756">
                <ele>230.0</ele>
                <time>2020-08-22T15:09:44.000Z</time>
                <name>Trackpoint 6940</name>
            </trkpt>
            <trkpt lat="49.9840288" lon="10.6256912">
                <ele>230.0</ele>
                <time>2020-08-22T15:09:48.000Z</time>
                <name>Trackpoint 6941</name>
            </trkpt>
            <trkpt lat="49.983952" lon="10.6256416">
                <ele>230.0</ele>
                <time>2020-08-22T15:09:52.000Z</time>
                <name>Trackpoint 6942</name>
            </trkpt>
            <trkpt lat="49.9839136" lon="10.6255552">
                <ele>229.0</ele>
                <time>2020-08-22T15:09:56.000Z</time>
                <name>Trackpoint 6943</name>
            </trkpt>
            <trkpt lat="49.9838304" lon="10.6254856">
                <ele>229.0</ele>
                <time>2020-08-22T15:10:18.000Z</time>
                <name>Trackpoint 6944</name>
            </trkpt>
            <trkpt lat="49.9837888" lon="10.625392">
                <ele>229.0</ele>
                <time>2020-08-22T15:10:21.000Z</time>
                <name>Trackpoint 6945</name>
            </trkpt>
            <trkpt lat="49.9838112" lon="10.6252736">
                <ele>229.0</ele>
                <time>2020-08-22T15:10:24.000Z</time>
                <name>Trackpoint 6946</name>
            </trkpt>
            <trkpt lat="49.983872" lon="10.62516">
                <ele>229.0</ele>
                <time>2020-08-22T15:10:27.000Z</time>
                <name>Trackpoint 6947</name>
            </trkpt>
            <trkpt lat="49.9839264" lon="10.6250752">
                <ele>228.0</ele>
                <time>2020-08-22T15:10:29.000Z</time>
                <name>Trackpoint 6948</name>
            </trkpt>
            <trkpt lat="49.9839776" lon="10.6249968">
                <ele>228.0</ele>
                <time>2020-08-22T15:10:31.000Z</time>
                <name>Trackpoint 6949</name>
            </trkpt>
            <trkpt lat="49.9840128" lon="10.6249048">
                <ele>229.0</ele>
                <time>2020-08-22T15:10:33.000Z</time>
                <name>Trackpoint 6950</name>
            </trkpt>
            <trkpt lat="49.9840512" lon="10.62482">
                <ele>229.0</ele>
                <time>2020-08-22T15:10:35.000Z</time>
                <name>Trackpoint 6951</name>
            </trkpt>
            <trkpt lat="49.9840928" lon="10.6247216">
                <ele>229.0</ele>
                <time>2020-08-22T15:10:37.000Z</time>
                <name>Trackpoint 6952</name>
            </trkpt>
            <trkpt lat="49.9841312" lon="10.6246096">
                <ele>229.0</ele>
                <time>2020-08-22T15:10:39.000Z</time>
                <name>Trackpoint 6953</name>
            </trkpt>
            <trkpt lat="49.9841696" lon="10.6245144">
                <ele>230.0</ele>
                <time>2020-08-22T15:10:41.000Z</time>
                <name>Trackpoint 6954</name>
            </trkpt>
            <trkpt lat="49.9842144" lon="10.6244336">
                <ele>230.0</ele>
                <time>2020-08-22T15:10:43.000Z</time>
                <name>Trackpoint 6955</name>
            </trkpt>
            <trkpt lat="49.984256" lon="10.6243432">
                <ele>230.0</ele>
                <time>2020-08-22T15:10:45.000Z</time>
                <name>Trackpoint 6956</name>
            </trkpt>
            <trkpt lat="49.9843072" lon="10.6242448">
                <ele>230.0</ele>
                <time>2020-08-22T15:10:47.000Z</time>
                <name>Trackpoint 6957</name>
            </trkpt>
            <trkpt lat="49.9843552" lon="10.624144">
                <ele>229.0</ele>
                <time>2020-08-22T15:10:49.000Z</time>
                <name>Trackpoint 6958</name>
            </trkpt>
            <trkpt lat="49.9844096" lon="10.6240368">
                <ele>228.0</ele>
                <time>2020-08-22T15:10:51.000Z</time>
                <name>Trackpoint 6959</name>
            </trkpt>
            <trkpt lat="49.984464" lon="10.6239216">
                <ele>228.0</ele>
                <time>2020-08-22T15:10:53.000Z</time>
                <name>Trackpoint 6960</name>
            </trkpt>
            <trkpt lat="49.9845248" lon="10.6238016">
                <ele>227.0</ele>
                <time>2020-08-22T15:10:55.000Z</time>
                <name>Trackpoint 6961</name>
            </trkpt>
            <trkpt lat="49.9845824" lon="10.6236712">
                <ele>227.0</ele>
                <time>2020-08-22T15:10:57.000Z</time>
                <name>Trackpoint 6962</name>
            </trkpt>
            <trkpt lat="49.9846336" lon="10.62354">
                <ele>226.0</ele>
                <time>2020-08-22T15:10:59.000Z</time>
                <name>Trackpoint 6963</name>
            </trkpt>
            <trkpt lat="49.9846912" lon="10.623412">
                <ele>226.0</ele>
                <time>2020-08-22T15:11:01.000Z</time>
                <name>Trackpoint 6964</name>
            </trkpt>
            <trkpt lat="49.9847488" lon="10.6232856">
                <ele>224.0</ele>
                <time>2020-08-22T15:11:03.000Z</time>
                <name>Trackpoint 6965</name>
            </trkpt>
            <trkpt lat="49.9848064" lon="10.6231736">
                <ele>223.0</ele>
                <time>2020-08-22T15:11:05.000Z</time>
                <name>Trackpoint 6966</name>
            </trkpt>
            <trkpt lat="49.9848672" lon="10.6230624">
                <ele>223.0</ele>
                <time>2020-08-22T15:11:07.000Z</time>
                <name>Trackpoint 6967</name>
            </trkpt>
            <trkpt lat="49.984928" lon="10.6229512">
                <ele>223.0</ele>
                <time>2020-08-22T15:11:09.000Z</time>
                <name>Trackpoint 6968</name>
            </trkpt>
            <trkpt lat="49.9849952" lon="10.6228464">
                <ele>222.0</ele>
                <time>2020-08-22T15:11:11.000Z</time>
                <name>Trackpoint 6969</name>
            </trkpt>
            <trkpt lat="49.9850624" lon="10.6227464">
                <ele>222.0</ele>
                <time>2020-08-22T15:11:13.000Z</time>
                <name>Trackpoint 6970</name>
            </trkpt>
            <trkpt lat="49.9851296" lon="10.6226464">
                <ele>221.0</ele>
                <time>2020-08-22T15:11:15.000Z</time>
                <name>Trackpoint 6971</name>
            </trkpt>
            <trkpt lat="49.9851904" lon="10.622548">
                <ele>221.0</ele>
                <time>2020-08-22T15:11:17.000Z</time>
                <name>Trackpoint 6972</name>
            </trkpt>
            <trkpt lat="49.985248" lon="10.6224472">
                <ele>222.0</ele>
                <time>2020-08-22T15:11:19.000Z</time>
                <name>Trackpoint 6973</name>
            </trkpt>
            <trkpt lat="49.9852992" lon="10.6223384">
                <ele>223.0</ele>
                <time>2020-08-22T15:11:21.000Z</time>
                <name>Trackpoint 6974</name>
            </trkpt>
            <trkpt lat="49.9853504" lon="10.6222288">
                <ele>224.0</ele>
                <time>2020-08-22T15:11:23.000Z</time>
                <name>Trackpoint 6975</name>
            </trkpt>
            <trkpt lat="49.9854048" lon="10.6221176">
                <ele>223.0</ele>
                <time>2020-08-22T15:11:25.000Z</time>
                <name>Trackpoint 6976</name>
            </trkpt>
            <trkpt lat="49.9854496" lon="10.6219984">
                <ele>224.0</ele>
                <time>2020-08-22T15:11:27.000Z</time>
                <name>Trackpoint 6977</name>
            </trkpt>
            <trkpt lat="49.9855008" lon="10.6218768">
                <ele>225.0</ele>
                <time>2020-08-22T15:11:29.000Z</time>
                <name>Trackpoint 6978</name>
            </trkpt>
            <trkpt lat="49.9855456" lon="10.6217568">
                <ele>226.0</ele>
                <time>2020-08-22T15:11:31.000Z</time>
                <name>Trackpoint 6979</name>
            </trkpt>
            <trkpt lat="49.9855904" lon="10.6216432">
                <ele>227.0</ele>
                <time>2020-08-22T15:11:33.000Z</time>
                <name>Trackpoint 6980</name>
            </trkpt>
            <trkpt lat="49.9856288" lon="10.6215352">
                <ele>227.0</ele>
                <time>2020-08-22T15:11:35.000Z</time>
                <name>Trackpoint 6981</name>
            </trkpt>
            <trkpt lat="49.9856544" lon="10.6214352">
                <ele>227.0</ele>
                <time>2020-08-22T15:11:37.000Z</time>
                <name>Trackpoint 6982</name>
            </trkpt>
            <trkpt lat="49.9856672" lon="10.6213376">
                <ele>228.0</ele>
                <time>2020-08-22T15:11:39.000Z</time>
                <name>Trackpoint 6983</name>
            </trkpt>
            <trkpt lat="49.9856832" lon="10.6212464">
                <ele>229.0</ele>
                <time>2020-08-22T15:11:41.000Z</time>
                <name>Trackpoint 6984</name>
            </trkpt>
            <trkpt lat="49.9856992" lon="10.6211568">
                <ele>229.0</ele>
                <time>2020-08-22T15:11:43.000Z</time>
                <name>Trackpoint 6985</name>
            </trkpt>
            <trkpt lat="49.9857184" lon="10.6210248">
                <ele>230.0</ele>
                <time>2020-08-22T15:11:46.000Z</time>
                <name>Trackpoint 6986</name>
            </trkpt>
            <trkpt lat="49.9857216" lon="10.6209336">
                <ele>230.0</ele>
                <time>2020-08-22T15:11:48.000Z</time>
                <name>Trackpoint 6987</name>
            </trkpt>
            <trkpt lat="49.9857344" lon="10.6208384">
                <ele>231.0</ele>
                <time>2020-08-22T15:11:50.000Z</time>
                <name>Trackpoint 6988</name>
            </trkpt>
            <trkpt lat="49.9857344" lon="10.620744">
                <ele>231.0</ele>
                <time>2020-08-22T15:11:52.000Z</time>
                <name>Trackpoint 6989</name>
            </trkpt>
            <trkpt lat="49.9857216" lon="10.6206416">
                <ele>232.0</ele>
                <time>2020-08-22T15:11:55.000Z</time>
                <name>Trackpoint 6990</name>
            </trkpt>
            <trkpt lat="49.9857376" lon="10.620548">
                <ele>232.0</ele>
                <time>2020-08-22T15:12:37.000Z</time>
                <name>Trackpoint 6991</name>
            </trkpt>
            <trkpt lat="49.9857408" lon="10.620428">
                <ele>232.0</ele>
                <time>2020-08-22T15:12:40.000Z</time>
                <name>Trackpoint 6992</name>
            </trkpt>
            <trkpt lat="49.985744" lon="10.620292">
                <ele>232.0</ele>
                <time>2020-08-22T15:12:43.000Z</time>
                <name>Trackpoint 6993</name>
            </trkpt>
            <trkpt lat="49.985744" lon="10.620196">
                <ele>232.0</ele>
                <time>2020-08-22T15:12:45.000Z</time>
                <name>Trackpoint 6994</name>
            </trkpt>
            <trkpt lat="49.9857408" lon="10.6201032">
                <ele>232.0</ele>
                <time>2020-08-22T15:12:47.000Z</time>
                <name>Trackpoint 6995</name>
            </trkpt>
            <trkpt lat="49.9857536" lon="10.6199712">
                <ele>232.0</ele>
                <time>2020-08-22T15:12:50.000Z</time>
                <name>Trackpoint 6996</name>
            </trkpt>
            <trkpt lat="49.985776" lon="10.61986">
                <ele>232.0</ele>
                <time>2020-08-22T15:12:52.000Z</time>
                <name>Trackpoint 6997</name>
            </trkpt>
            <trkpt lat="49.9857792" lon="10.6197528">
                <ele>232.0</ele>
                <time>2020-08-22T15:12:54.000Z</time>
                <name>Trackpoint 6998</name>
            </trkpt>
            <trkpt lat="49.9857824" lon="10.619648">
                <ele>232.0</ele>
                <time>2020-08-22T15:12:56.000Z</time>
                <name>Trackpoint 6999</name>
            </trkpt>
            <trkpt lat="49.9857856" lon="10.6195384">
                <ele>232.0</ele>
                <time>2020-08-22T15:12:58.000Z</time>
                <name>Trackpoint 7000</name>
            </trkpt>
            <trkpt lat="49.9857856" lon="10.6194288">
                <ele>232.0</ele>
                <time>2020-08-22T15:13:00.000Z</time>
                <name>Trackpoint 7001</name>
            </trkpt>
            <trkpt lat="49.9857888" lon="10.619324">
                <ele>232.0</ele>
                <time>2020-08-22T15:13:02.000Z</time>
                <name>Trackpoint 7002</name>
            </trkpt>
            <trkpt lat="49.9858016" lon="10.6192312">
                <ele>232.0</ele>
                <time>2020-08-22T15:13:04.000Z</time>
                <name>Trackpoint 7003</name>
            </trkpt>
            <trkpt lat="49.9858016" lon="10.619132">
                <ele>232.0</ele>
                <time>2020-08-22T15:13:06.000Z</time>
                <name>Trackpoint 7004</name>
            </trkpt>
            <trkpt lat="49.9858144" lon="10.6190144">
                <ele>232.0</ele>
                <time>2020-08-22T15:13:08.000Z</time>
                <name>Trackpoint 7005</name>
            </trkpt>
            <trkpt lat="49.9858144" lon="10.6189016">
                <ele>232.0</ele>
                <time>2020-08-22T15:13:10.000Z</time>
                <name>Trackpoint 7006</name>
            </trkpt>
            <trkpt lat="49.9858144" lon="10.6187888">
                <ele>232.0</ele>
                <time>2020-08-22T15:13:12.000Z</time>
                <name>Trackpoint 7007</name>
            </trkpt>
            <trkpt lat="49.985824" lon="10.6186768">
                <ele>232.0</ele>
                <time>2020-08-22T15:13:14.000Z</time>
                <name>Trackpoint 7008</name>
            </trkpt>
            <trkpt lat="49.9858368" lon="10.6185552">
                <ele>232.0</ele>
                <time>2020-08-22T15:13:16.000Z</time>
                <name>Trackpoint 7009</name>
            </trkpt>
            <trkpt lat="49.9858464" lon="10.6184384">
                <ele>232.0</ele>
                <time>2020-08-22T15:13:18.000Z</time>
                <name>Trackpoint 7010</name>
            </trkpt>
            <trkpt lat="49.9858752" lon="10.6183344">
                <ele>232.0</ele>
                <time>2020-08-22T15:13:20.000Z</time>
                <name>Trackpoint 7011</name>
            </trkpt>
            <trkpt lat="49.9859136" lon="10.6182232">
                <ele>232.0</ele>
                <time>2020-08-22T15:13:22.000Z</time>
                <name>Trackpoint 7012</name>
            </trkpt>
            <trkpt lat="49.985952" lon="10.618112">
                <ele>232.0</ele>
                <time>2020-08-22T15:13:24.000Z</time>
                <name>Trackpoint 7013</name>
            </trkpt>
            <trkpt lat="49.9859776" lon="10.6180016">
                <ele>232.0</ele>
                <time>2020-08-22T15:13:26.000Z</time>
                <name>Trackpoint 7014</name>
            </trkpt>
            <trkpt lat="49.9860032" lon="10.6178936">
                <ele>232.0</ele>
                <time>2020-08-22T15:13:28.000Z</time>
                <name>Trackpoint 7015</name>
            </trkpt>
            <trkpt lat="49.986032" lon="10.617792">
                <ele>232.0</ele>
                <time>2020-08-22T15:13:30.000Z</time>
                <name>Trackpoint 7016</name>
            </trkpt>
            <trkpt lat="49.9860544" lon="10.6176768">
                <ele>232.0</ele>
                <time>2020-08-22T15:13:32.000Z</time>
                <name>Trackpoint 7017</name>
            </trkpt>
            <trkpt lat="49.9860928" lon="10.6175368">
                <ele>232.0</ele>
                <time>2020-08-22T15:13:34.000Z</time>
                <name>Trackpoint 7018</name>
            </trkpt>
            <trkpt lat="49.9861376" lon="10.61736">
                <ele>232.0</ele>
                <time>2020-08-22T15:13:36.000Z</time>
                <name>Trackpoint 7019</name>
            </trkpt>
            <trkpt lat="49.9861664" lon="10.6172552">
                <ele>232.0</ele>
                <time>2020-08-22T15:13:37.000Z</time>
                <name>Trackpoint 7020</name>
            </trkpt>
            <trkpt lat="49.9861856" lon="10.6171568">
                <ele>232.0</ele>
                <time>2020-08-22T15:13:38.000Z</time>
                <name>Trackpoint 7021</name>
            </trkpt>
            <trkpt lat="49.9862112" lon="10.6170584">
                <ele>232.0</ele>
                <time>2020-08-22T15:13:39.000Z</time>
                <name>Trackpoint 7022</name>
            </trkpt>
            <trkpt lat="49.9862336" lon="10.6169552">
                <ele>232.0</ele>
                <time>2020-08-22T15:13:40.000Z</time>
                <name>Trackpoint 7023</name>
            </trkpt>
            <trkpt lat="49.9862624" lon="10.6168448">
                <ele>232.0</ele>
                <time>2020-08-22T15:13:41.000Z</time>
                <name>Trackpoint 7024</name>
            </trkpt>
            <trkpt lat="49.9862848" lon="10.61674">
                <ele>232.0</ele>
                <time>2020-08-22T15:13:42.000Z</time>
                <name>Trackpoint 7025</name>
            </trkpt>
            <trkpt lat="49.9863104" lon="10.616636">
                <ele>232.0</ele>
                <time>2020-08-22T15:13:43.000Z</time>
                <name>Trackpoint 7026</name>
            </trkpt>
            <trkpt lat="49.9863296" lon="10.6165384">
                <ele>232.0</ele>
                <time>2020-08-22T15:13:44.000Z</time>
                <name>Trackpoint 7027</name>
            </trkpt>
            <trkpt lat="49.9863456" lon="10.6164448">
                <ele>232.0</ele>
                <time>2020-08-22T15:13:45.000Z</time>
                <name>Trackpoint 7028</name>
            </trkpt>
            <trkpt lat="49.9863712" lon="10.616348">
                <ele>232.0</ele>
                <time>2020-08-22T15:13:46.000Z</time>
                <name>Trackpoint 7029</name>
            </trkpt>
            <trkpt lat="49.9864" lon="10.6162416">
                <ele>232.0</ele>
                <time>2020-08-22T15:13:47.000Z</time>
                <name>Trackpoint 7030</name>
            </trkpt>
            <trkpt lat="49.9864224" lon="10.6161432">
                <ele>232.0</ele>
                <time>2020-08-22T15:13:48.000Z</time>
                <name>Trackpoint 7031</name>
            </trkpt>
            <trkpt lat="49.9864512" lon="10.6160424">
                <ele>232.0</ele>
                <time>2020-08-22T15:13:49.000Z</time>
                <name>Trackpoint 7032</name>
            </trkpt>
            <trkpt lat="49.986464" lon="10.6159432">
                <ele>233.0</ele>
                <time>2020-08-22T15:13:50.000Z</time>
                <name>Trackpoint 7033</name>
            </trkpt>
            <trkpt lat="49.9865024" lon="10.6157712">
                <ele>232.0</ele>
                <time>2020-08-22T15:13:52.000Z</time>
                <name>Trackpoint 7034</name>
            </trkpt>
            <trkpt lat="49.9865376" lon="10.6156064">
                <ele>230.0</ele>
                <time>2020-08-22T15:13:54.000Z</time>
                <name>Trackpoint 7035</name>
            </trkpt>
            <trkpt lat="49.9865728" lon="10.615448">
                <ele>231.0</ele>
                <time>2020-08-22T15:13:56.000Z</time>
                <name>Trackpoint 7036</name>
            </trkpt>
            <trkpt lat="49.986608" lon="10.6152888">
                <ele>231.0</ele>
                <time>2020-08-22T15:13:58.000Z</time>
                <name>Trackpoint 7037</name>
            </trkpt>
            <trkpt lat="49.9866304" lon="10.61514">
                <ele>230.0</ele>
                <time>2020-08-22T15:14:00.000Z</time>
                <name>Trackpoint 7038</name>
            </trkpt>
            <trkpt lat="49.9866592" lon="10.6149784">
                <ele>230.0</ele>
                <time>2020-08-22T15:14:02.000Z</time>
                <name>Trackpoint 7039</name>
            </trkpt>
            <trkpt lat="49.9866912" lon="10.6148304">
                <ele>230.0</ele>
                <time>2020-08-22T15:14:04.000Z</time>
                <name>Trackpoint 7040</name>
            </trkpt>
            <trkpt lat="49.9867104" lon="10.6147368">
                <ele>230.0</ele>
                <time>2020-08-22T15:14:06.000Z</time>
                <name>Trackpoint 7041</name>
            </trkpt>
            <trkpt lat="49.9867264" lon="10.6146432">
                <ele>229.0</ele>
                <time>2020-08-22T15:14:54.000Z</time>
                <name>Trackpoint 7042</name>
            </trkpt>
            <trkpt lat="49.9867488" lon="10.614536">
                <ele>229.0</ele>
                <time>2020-08-22T15:14:58.000Z</time>
                <name>Trackpoint 7043</name>
            </trkpt>
            <trkpt lat="49.9867712" lon="10.6144048">
                <ele>229.0</ele>
                <time>2020-08-22T15:15:01.000Z</time>
                <name>Trackpoint 7044</name>
            </trkpt>
            <trkpt lat="49.9867872" lon="10.6143">
                <ele>229.0</ele>
                <time>2020-08-22T15:15:03.000Z</time>
                <name>Trackpoint 7045</name>
            </trkpt>
            <trkpt lat="49.9868128" lon="10.614188">
                <ele>230.0</ele>
                <time>2020-08-22T15:15:05.000Z</time>
                <name>Trackpoint 7046</name>
            </trkpt>
            <trkpt lat="49.9868352" lon="10.614068">
                <ele>230.0</ele>
                <time>2020-08-22T15:15:07.000Z</time>
                <name>Trackpoint 7047</name>
            </trkpt>
            <trkpt lat="49.9868576" lon="10.6139408">
                <ele>230.0</ele>
                <time>2020-08-22T15:15:09.000Z</time>
                <name>Trackpoint 7048</name>
            </trkpt>
            <trkpt lat="49.9868768" lon="10.6138088">
                <ele>230.0</ele>
                <time>2020-08-22T15:15:11.000Z</time>
                <name>Trackpoint 7049</name>
            </trkpt>
            <trkpt lat="49.9869056" lon="10.6136712">
                <ele>229.0</ele>
                <time>2020-08-22T15:15:13.000Z</time>
                <name>Trackpoint 7050</name>
            </trkpt>
            <trkpt lat="49.9869312" lon="10.6135368">
                <ele>229.0</ele>
                <time>2020-08-22T15:15:15.000Z</time>
                <name>Trackpoint 7051</name>
            </trkpt>
            <trkpt lat="49.9869568" lon="10.6134056">
                <ele>229.0</ele>
                <time>2020-08-22T15:15:17.000Z</time>
                <name>Trackpoint 7052</name>
            </trkpt>
            <trkpt lat="49.9869728" lon="10.6132944">
                <ele>230.0</ele>
                <time>2020-08-22T15:15:19.000Z</time>
                <name>Trackpoint 7053</name>
            </trkpt>
            <trkpt lat="49.986992" lon="10.6131872">
                <ele>230.0</ele>
                <time>2020-08-22T15:15:21.000Z</time>
                <name>Trackpoint 7054</name>
            </trkpt>
            <trkpt lat="49.9870144" lon="10.6130664">
                <ele>230.0</ele>
                <time>2020-08-22T15:15:23.000Z</time>
                <name>Trackpoint 7055</name>
            </trkpt>
            <trkpt lat="49.98704" lon="10.6129264">
                <ele>230.0</ele>
                <time>2020-08-22T15:15:25.000Z</time>
                <name>Trackpoint 7056</name>
            </trkpt>
            <trkpt lat="49.9870688" lon="10.6127784">
                <ele>229.0</ele>
                <time>2020-08-22T15:15:27.000Z</time>
                <name>Trackpoint 7057</name>
            </trkpt>
            <trkpt lat="49.9870944" lon="10.6126248">
                <ele>229.0</ele>
                <time>2020-08-22T15:15:29.000Z</time>
                <name>Trackpoint 7058</name>
            </trkpt>
            <trkpt lat="49.98712" lon="10.612476">
                <ele>229.0</ele>
                <time>2020-08-22T15:15:31.000Z</time>
                <name>Trackpoint 7059</name>
            </trkpt>
            <trkpt lat="49.9871488" lon="10.6123336">
                <ele>230.0</ele>
                <time>2020-08-22T15:15:33.000Z</time>
                <name>Trackpoint 7060</name>
            </trkpt>
            <trkpt lat="49.9871712" lon="10.6121848">
                <ele>230.0</ele>
                <time>2020-08-22T15:15:35.000Z</time>
                <name>Trackpoint 7061</name>
            </trkpt>
            <trkpt lat="49.9871904" lon="10.6120328">
                <ele>230.0</ele>
                <time>2020-08-22T15:15:37.000Z</time>
                <name>Trackpoint 7062</name>
            </trkpt>
            <trkpt lat="49.9872096" lon="10.6118832">
                <ele>230.0</ele>
                <time>2020-08-22T15:15:39.000Z</time>
                <name>Trackpoint 7063</name>
            </trkpt>
            <trkpt lat="49.9872256" lon="10.6117384">
                <ele>230.0</ele>
                <time>2020-08-22T15:15:41.000Z</time>
                <name>Trackpoint 7064</name>
            </trkpt>
            <trkpt lat="49.987232" lon="10.6116016">
                <ele>230.0</ele>
                <time>2020-08-22T15:15:43.000Z</time>
                <name>Trackpoint 7065</name>
            </trkpt>
            <trkpt lat="49.9872352" lon="10.611472">
                <ele>230.0</ele>
                <time>2020-08-22T15:15:45.000Z</time>
                <name>Trackpoint 7066</name>
            </trkpt>
            <trkpt lat="49.9872512" lon="10.611308">
                <ele>230.0</ele>
                <time>2020-08-22T15:15:47.000Z</time>
                <name>Trackpoint 7067</name>
            </trkpt>
            <trkpt lat="49.987264" lon="10.6111536">
                <ele>230.0</ele>
                <time>2020-08-22T15:15:49.000Z</time>
                <name>Trackpoint 7068</name>
            </trkpt>
            <trkpt lat="49.9872704" lon="10.6110064">
                <ele>230.0</ele>
                <time>2020-08-22T15:15:51.000Z</time>
                <name>Trackpoint 7069</name>
            </trkpt>
            <trkpt lat="49.9872736" lon="10.6108752">
                <ele>231.0</ele>
                <time>2020-08-22T15:15:53.000Z</time>
                <name>Trackpoint 7070</name>
            </trkpt>
            <trkpt lat="49.9872768" lon="10.610732">
                <ele>231.0</ele>
                <time>2020-08-22T15:15:55.000Z</time>
                <name>Trackpoint 7071</name>
            </trkpt>
            <trkpt lat="49.9872768" lon="10.6105968">
                <ele>231.0</ele>
                <time>2020-08-22T15:15:57.000Z</time>
                <name>Trackpoint 7072</name>
            </trkpt>
            <trkpt lat="49.9872736" lon="10.6104736">
                <ele>231.0</ele>
                <time>2020-08-22T15:15:59.000Z</time>
                <name>Trackpoint 7073</name>
            </trkpt>
            <trkpt lat="49.9872672" lon="10.6103496">
                <ele>231.0</ele>
                <time>2020-08-22T15:16:01.000Z</time>
                <name>Trackpoint 7074</name>
            </trkpt>
            <trkpt lat="49.9872672" lon="10.6102416">
                <ele>231.0</ele>
                <time>2020-08-22T15:16:03.000Z</time>
                <name>Trackpoint 7075</name>
            </trkpt>
            <trkpt lat="49.9872544" lon="10.6101288">
                <ele>231.0</ele>
                <time>2020-08-22T15:16:05.000Z</time>
                <name>Trackpoint 7076</name>
            </trkpt>
            <trkpt lat="49.9872512" lon="10.6100128">
                <ele>231.0</ele>
                <time>2020-08-22T15:16:07.000Z</time>
                <name>Trackpoint 7077</name>
            </trkpt>
            <trkpt lat="49.9872448" lon="10.6099008">
                <ele>231.0</ele>
                <time>2020-08-22T15:16:09.000Z</time>
                <name>Trackpoint 7078</name>
            </trkpt>
            <trkpt lat="49.9872384" lon="10.6097848">
                <ele>231.0</ele>
                <time>2020-08-22T15:16:11.000Z</time>
                <name>Trackpoint 7079</name>
            </trkpt>
            <trkpt lat="49.987232" lon="10.6096696">
                <ele>231.0</ele>
                <time>2020-08-22T15:16:13.000Z</time>
                <name>Trackpoint 7080</name>
            </trkpt>
            <trkpt lat="49.9872256" lon="10.6095512">
                <ele>231.0</ele>
                <time>2020-08-22T15:16:15.000Z</time>
                <name>Trackpoint 7081</name>
            </trkpt>
            <trkpt lat="49.9872192" lon="10.6094368">
                <ele>231.0</ele>
                <time>2020-08-22T15:16:17.000Z</time>
                <name>Trackpoint 7082</name>
            </trkpt>
            <trkpt lat="49.9872128" lon="10.6093232">
                <ele>231.0</ele>
                <time>2020-08-22T15:16:19.000Z</time>
                <name>Trackpoint 7083</name>
            </trkpt>
            <trkpt lat="49.9872064" lon="10.609208">
                <ele>231.0</ele>
                <time>2020-08-22T15:16:21.000Z</time>
                <name>Trackpoint 7084</name>
            </trkpt>
            <trkpt lat="49.9872032" lon="10.6090944">
                <ele>231.0</ele>
                <time>2020-08-22T15:16:23.000Z</time>
                <name>Trackpoint 7085</name>
            </trkpt>
            <trkpt lat="49.9871968" lon="10.6089824">
                <ele>231.0</ele>
                <time>2020-08-22T15:16:25.000Z</time>
                <name>Trackpoint 7086</name>
            </trkpt>
            <trkpt lat="49.9871936" lon="10.6088688">
                <ele>232.0</ele>
                <time>2020-08-22T15:16:27.000Z</time>
                <name>Trackpoint 7087</name>
            </trkpt>
            <trkpt lat="49.9871936" lon="10.6087576">
                <ele>232.0</ele>
                <time>2020-08-22T15:16:29.000Z</time>
                <name>Trackpoint 7088</name>
            </trkpt>
            <trkpt lat="49.9871872" lon="10.6086464">
                <ele>232.0</ele>
                <time>2020-08-22T15:16:31.000Z</time>
                <name>Trackpoint 7089</name>
            </trkpt>
            <trkpt lat="49.987184" lon="10.6085368">
                <ele>232.0</ele>
                <time>2020-08-22T15:16:33.000Z</time>
                <name>Trackpoint 7090</name>
            </trkpt>
            <trkpt lat="49.9871776" lon="10.6084232">
                <ele>232.0</ele>
                <time>2020-08-22T15:16:35.000Z</time>
                <name>Trackpoint 7091</name>
            </trkpt>
            <trkpt lat="49.9871744" lon="10.6083136">
                <ele>232.0</ele>
                <time>2020-08-22T15:16:37.000Z</time>
                <name>Trackpoint 7092</name>
            </trkpt>
            <trkpt lat="49.9871648" lon="10.6082112">
                <ele>232.0</ele>
                <time>2020-08-22T15:16:39.000Z</time>
                <name>Trackpoint 7093</name>
            </trkpt>
            <trkpt lat="49.9871584" lon="10.6081112">
                <ele>232.0</ele>
                <time>2020-08-22T15:16:41.000Z</time>
                <name>Trackpoint 7094</name>
            </trkpt>
            <trkpt lat="49.987152" lon="10.6080152">
                <ele>233.0</ele>
                <time>2020-08-22T15:16:43.000Z</time>
                <name>Trackpoint 7095</name>
            </trkpt>
            <trkpt lat="49.9871456" lon="10.6079232">
                <ele>233.0</ele>
                <time>2020-08-22T15:16:45.000Z</time>
                <name>Trackpoint 7096</name>
            </trkpt>
            <trkpt lat="49.9871392" lon="10.607832">
                <ele>233.0</ele>
                <time>2020-08-22T15:16:47.000Z</time>
                <name>Trackpoint 7097</name>
            </trkpt>
            <trkpt lat="49.9871328" lon="10.6077408">
                <ele>233.0</ele>
                <time>2020-08-22T15:16:49.000Z</time>
                <name>Trackpoint 7098</name>
            </trkpt>
            <trkpt lat="49.9871264" lon="10.6076448">
                <ele>233.0</ele>
                <time>2020-08-22T15:16:51.000Z</time>
                <name>Trackpoint 7099</name>
            </trkpt>
            <trkpt lat="49.9871136" lon="10.6075488">
                <ele>233.0</ele>
                <time>2020-08-22T15:16:53.000Z</time>
                <name>Trackpoint 7100</name>
            </trkpt>
            <trkpt lat="49.9871104" lon="10.6074496">
                <ele>234.0</ele>
                <time>2020-08-22T15:16:55.000Z</time>
                <name>Trackpoint 7101</name>
            </trkpt>
            <trkpt lat="49.9871072" lon="10.6073504">
                <ele>234.0</ele>
                <time>2020-08-22T15:16:57.000Z</time>
                <name>Trackpoint 7102</name>
            </trkpt>
            <trkpt lat="49.9870944" lon="10.6072504">
                <ele>234.0</ele>
                <time>2020-08-22T15:16:59.000Z</time>
                <name>Trackpoint 7103</name>
            </trkpt>
            <trkpt lat="49.987088" lon="10.6071504">
                <ele>234.0</ele>
                <time>2020-08-22T15:17:01.000Z</time>
                <name>Trackpoint 7104</name>
            </trkpt>
            <trkpt lat="49.9870784" lon="10.6070496">
                <ele>234.0</ele>
                <time>2020-08-22T15:17:03.000Z</time>
                <name>Trackpoint 7105</name>
            </trkpt>
            <trkpt lat="49.9870688" lon="10.606952">
                <ele>235.0</ele>
                <time>2020-08-22T15:17:05.000Z</time>
                <name>Trackpoint 7106</name>
            </trkpt>
            <trkpt lat="49.9870528" lon="10.6068536">
                <ele>235.0</ele>
                <time>2020-08-22T15:17:07.000Z</time>
                <name>Trackpoint 7107</name>
            </trkpt>
            <trkpt lat="49.9870368" lon="10.60676">
                <ele>235.0</ele>
                <time>2020-08-22T15:17:09.000Z</time>
                <name>Trackpoint 7108</name>
            </trkpt>
            <trkpt lat="49.9870304" lon="10.6066648">
                <ele>235.0</ele>
                <time>2020-08-22T15:17:11.000Z</time>
                <name>Trackpoint 7109</name>
            </trkpt>
            <trkpt lat="49.9870208" lon="10.6065664">
                <ele>235.0</ele>
                <time>2020-08-22T15:17:13.000Z</time>
                <name>Trackpoint 7110</name>
            </trkpt>
            <trkpt lat="49.987008" lon="10.606468">
                <ele>235.0</ele>
                <time>2020-08-22T15:17:15.000Z</time>
                <name>Trackpoint 7111</name>
            </trkpt>
            <trkpt lat="49.9869952" lon="10.6063736">
                <ele>235.0</ele>
                <time>2020-08-22T15:17:17.000Z</time>
                <name>Trackpoint 7112</name>
            </trkpt>
            <trkpt lat="49.9869856" lon="10.6062768">
                <ele>236.0</ele>
                <time>2020-08-22T15:17:19.000Z</time>
                <name>Trackpoint 7113</name>
            </trkpt>
            <trkpt lat="49.9869728" lon="10.6061824">
                <ele>236.0</ele>
                <time>2020-08-22T15:17:21.000Z</time>
                <name>Trackpoint 7114</name>
            </trkpt>
            <trkpt lat="49.98696" lon="10.6060848">
                <ele>236.0</ele>
                <time>2020-08-22T15:17:23.000Z</time>
                <name>Trackpoint 7115</name>
            </trkpt>
            <trkpt lat="49.9869504" lon="10.6059864">
                <ele>236.0</ele>
                <time>2020-08-22T15:17:25.000Z</time>
                <name>Trackpoint 7116</name>
            </trkpt>
            <trkpt lat="49.9869344" lon="10.6058912">
                <ele>236.0</ele>
                <time>2020-08-22T15:17:27.000Z</time>
                <name>Trackpoint 7117</name>
            </trkpt>
            <trkpt lat="49.986928" lon="10.605792">
                <ele>236.0</ele>
                <time>2020-08-22T15:17:29.000Z</time>
                <name>Trackpoint 7118</name>
            </trkpt>
            <trkpt lat="49.986912" lon="10.605692">
                <ele>237.0</ele>
                <time>2020-08-22T15:17:31.000Z</time>
                <name>Trackpoint 7119</name>
            </trkpt>
            <trkpt lat="49.9869056" lon="10.6055936">
                <ele>237.0</ele>
                <time>2020-08-22T15:17:33.000Z</time>
                <name>Trackpoint 7120</name>
            </trkpt>
            <trkpt lat="49.9868928" lon="10.6054936">
                <ele>237.0</ele>
                <time>2020-08-22T15:17:35.000Z</time>
                <name>Trackpoint 7121</name>
            </trkpt>
            <trkpt lat="49.9868864" lon="10.605396">
                <ele>236.0</ele>
                <time>2020-08-22T15:17:37.000Z</time>
                <name>Trackpoint 7122</name>
            </trkpt>
            <trkpt lat="49.9868736" lon="10.6052912">
                <ele>236.0</ele>
                <time>2020-08-22T15:17:39.000Z</time>
                <name>Trackpoint 7123</name>
            </trkpt>
            <trkpt lat="49.9868576" lon="10.6051776">
                <ele>236.0</ele>
                <time>2020-08-22T15:17:41.000Z</time>
                <name>Trackpoint 7124</name>
            </trkpt>
            <trkpt lat="49.9868512" lon="10.6050568">
                <ele>236.0</ele>
                <time>2020-08-22T15:17:43.000Z</time>
                <name>Trackpoint 7125</name>
            </trkpt>
            <trkpt lat="49.9868384" lon="10.6049296">
                <ele>235.0</ele>
                <time>2020-08-22T15:17:45.000Z</time>
                <name>Trackpoint 7126</name>
            </trkpt>
            <trkpt lat="49.9868192" lon="10.6047936">
                <ele>235.0</ele>
                <time>2020-08-22T15:17:47.000Z</time>
                <name>Trackpoint 7127</name>
            </trkpt>
            <trkpt lat="49.9868064" lon="10.6046552">
                <ele>235.0</ele>
                <time>2020-08-22T15:17:49.000Z</time>
                <name>Trackpoint 7128</name>
            </trkpt>
            <trkpt lat="49.9867904" lon="10.6045176">
                <ele>235.0</ele>
                <time>2020-08-22T15:17:51.000Z</time>
                <name>Trackpoint 7129</name>
            </trkpt>
            <trkpt lat="49.9867712" lon="10.6043904">
                <ele>235.0</ele>
                <time>2020-08-22T15:17:53.000Z</time>
                <name>Trackpoint 7130</name>
            </trkpt>
            <trkpt lat="49.9867552" lon="10.604272">
                <ele>235.0</ele>
                <time>2020-08-22T15:17:55.000Z</time>
                <name>Trackpoint 7131</name>
            </trkpt>
            <trkpt lat="49.9867328" lon="10.604168">
                <ele>235.0</ele>
                <time>2020-08-22T15:17:57.000Z</time>
                <name>Trackpoint 7132</name>
            </trkpt>
            <trkpt lat="49.9867136" lon="10.6040736">
                <ele>235.0</ele>
                <time>2020-08-22T15:17:59.000Z</time>
                <name>Trackpoint 7133</name>
            </trkpt>
            <trkpt lat="49.9866976" lon="10.6039784">
                <ele>236.0</ele>
                <time>2020-08-22T15:18:01.000Z</time>
                <name>Trackpoint 7134</name>
            </trkpt>
            <trkpt lat="49.986688" lon="10.603844">
                <ele>236.0</ele>
                <time>2020-08-22T15:18:04.000Z</time>
                <name>Trackpoint 7135</name>
            </trkpt>
            <trkpt lat="49.986688" lon="10.6037104">
                <ele>236.0</ele>
                <time>2020-08-22T15:18:07.000Z</time>
                <name>Trackpoint 7136</name>
            </trkpt>
            <trkpt lat="49.986688" lon="10.6035784">
                <ele>236.0</ele>
                <time>2020-08-22T15:18:10.000Z</time>
                <name>Trackpoint 7137</name>
            </trkpt>
            <trkpt lat="49.9866784" lon="10.6034872">
                <ele>236.0</ele>
                <time>2020-08-22T15:18:12.000Z</time>
                <name>Trackpoint 7138</name>
            </trkpt>
            <trkpt lat="49.986672" lon="10.6033936">
                <ele>237.0</ele>
                <time>2020-08-22T15:18:14.000Z</time>
                <name>Trackpoint 7139</name>
            </trkpt>
            <trkpt lat="49.9866592" lon="10.6033024">
                <ele>237.0</ele>
                <time>2020-08-22T15:18:16.000Z</time>
                <name>Trackpoint 7140</name>
            </trkpt>
            <trkpt lat="49.9866496" lon="10.6032104">
                <ele>237.0</ele>
                <time>2020-08-22T15:18:18.000Z</time>
                <name>Trackpoint 7141</name>
            </trkpt>
            <trkpt lat="49.9866336" lon="10.6031176">
                <ele>237.0</ele>
                <time>2020-08-22T15:18:20.000Z</time>
                <name>Trackpoint 7142</name>
            </trkpt>
            <trkpt lat="49.9866176" lon="10.603028">
                <ele>238.0</ele>
                <time>2020-08-22T15:18:22.000Z</time>
                <name>Trackpoint 7143</name>
            </trkpt>
            <trkpt lat="49.9865952" lon="10.6028984">
                <ele>238.0</ele>
                <time>2020-08-22T15:18:25.000Z</time>
                <name>Trackpoint 7144</name>
            </trkpt>
            <trkpt lat="49.986576" lon="10.6027744">
                <ele>239.0</ele>
                <time>2020-08-22T15:18:28.000Z</time>
                <name>Trackpoint 7145</name>
            </trkpt>
            <trkpt lat="49.9865536" lon="10.6026584">
                <ele>239.0</ele>
                <time>2020-08-22T15:18:31.000Z</time>
                <name>Trackpoint 7146</name>
            </trkpt>
            <trkpt lat="49.986528" lon="10.6025416">
                <ele>240.0</ele>
                <time>2020-08-22T15:18:34.000Z</time>
                <name>Trackpoint 7147</name>
            </trkpt>
            <trkpt lat="49.9865024" lon="10.6024216">
                <ele>240.0</ele>
                <time>2020-08-22T15:18:37.000Z</time>
                <name>Trackpoint 7148</name>
            </trkpt>
            <trkpt lat="49.9864768" lon="10.6023056">
                <ele>240.0</ele>
                <time>2020-08-22T15:18:40.000Z</time>
                <name>Trackpoint 7149</name>
            </trkpt>
            <trkpt lat="49.9864512" lon="10.6021904">
                <ele>241.0</ele>
                <time>2020-08-22T15:18:43.000Z</time>
                <name>Trackpoint 7150</name>
            </trkpt>
            <trkpt lat="49.9864192" lon="10.602072">
                <ele>241.0</ele>
                <time>2020-08-22T15:18:46.000Z</time>
                <name>Trackpoint 7151</name>
            </trkpt>
            <trkpt lat="49.9863904" lon="10.6019552">
                <ele>241.0</ele>
                <time>2020-08-22T15:18:49.000Z</time>
                <name>Trackpoint 7152</name>
            </trkpt>
            <trkpt lat="49.9863648" lon="10.6018416">
                <ele>242.0</ele>
                <time>2020-08-22T15:18:52.000Z</time>
                <name>Trackpoint 7153</name>
            </trkpt>
            <trkpt lat="49.986336" lon="10.6017352">
                <ele>242.0</ele>
                <time>2020-08-22T15:18:55.000Z</time>
                <name>Trackpoint 7154</name>
            </trkpt>
            <trkpt lat="49.9863104" lon="10.60162">
                <ele>242.0</ele>
                <time>2020-08-22T15:18:58.000Z</time>
                <name>Trackpoint 7155</name>
            </trkpt>
            <trkpt lat="49.9862816" lon="10.601508">
                <ele>242.0</ele>
                <time>2020-08-22T15:19:01.000Z</time>
                <name>Trackpoint 7156</name>
            </trkpt>
            <trkpt lat="49.9862528" lon="10.6014">
                <ele>243.0</ele>
                <time>2020-08-22T15:19:04.000Z</time>
                <name>Trackpoint 7157</name>
            </trkpt>
            <trkpt lat="49.986224" lon="10.6012832">
                <ele>243.0</ele>
                <time>2020-08-22T15:19:07.000Z</time>
                <name>Trackpoint 7158</name>
            </trkpt>
            <trkpt lat="49.9861984" lon="10.6011712">
                <ele>243.0</ele>
                <time>2020-08-22T15:19:10.000Z</time>
                <name>Trackpoint 7159</name>
            </trkpt>
            <trkpt lat="49.9861664" lon="10.60106">
                <ele>243.0</ele>
                <time>2020-08-22T15:19:13.000Z</time>
                <name>Trackpoint 7160</name>
            </trkpt>
            <trkpt lat="49.9861408" lon="10.6009432">
                <ele>244.0</ele>
                <time>2020-08-22T15:19:16.000Z</time>
                <name>Trackpoint 7161</name>
            </trkpt>
            <trkpt lat="49.9861152" lon="10.6008264">
                <ele>244.0</ele>
                <time>2020-08-22T15:19:19.000Z</time>
                <name>Trackpoint 7162</name>
            </trkpt>
            <trkpt lat="49.9860864" lon="10.6007072">
                <ele>244.0</ele>
                <time>2020-08-22T15:19:22.000Z</time>
                <name>Trackpoint 7163</name>
            </trkpt>
            <trkpt lat="49.9860608" lon="10.6005952">
                <ele>245.0</ele>
                <time>2020-08-22T15:19:25.000Z</time>
                <name>Trackpoint 7164</name>
            </trkpt>
            <trkpt lat="49.9860384" lon="10.6004848">
                <ele>245.0</ele>
                <time>2020-08-22T15:19:28.000Z</time>
                <name>Trackpoint 7165</name>
            </trkpt>
            <trkpt lat="49.9860128" lon="10.600364">
                <ele>245.0</ele>
                <time>2020-08-22T15:19:31.000Z</time>
                <name>Trackpoint 7166</name>
            </trkpt>
            <trkpt lat="49.9859872" lon="10.6002432">
                <ele>245.0</ele>
                <time>2020-08-22T15:19:34.000Z</time>
                <name>Trackpoint 7167</name>
            </trkpt>
            <trkpt lat="49.9859648" lon="10.6001192">
                <ele>245.0</ele>
                <time>2020-08-22T15:19:37.000Z</time>
                <name>Trackpoint 7168</name>
            </trkpt>
            <trkpt lat="49.985952" lon="10.5999984">
                <ele>245.0</ele>
                <time>2020-08-22T15:19:40.000Z</time>
                <name>Trackpoint 7169</name>
            </trkpt>
            <trkpt lat="49.985936" lon="10.5998696">
                <ele>246.0</ele>
                <time>2020-08-22T15:19:43.000Z</time>
                <name>Trackpoint 7170</name>
            </trkpt>
            <trkpt lat="49.98592" lon="10.5997448">
                <ele>246.0</ele>
                <time>2020-08-22T15:19:46.000Z</time>
                <name>Trackpoint 7171</name>
            </trkpt>
            <trkpt lat="49.9859008" lon="10.5996168">
                <ele>246.0</ele>
                <time>2020-08-22T15:19:49.000Z</time>
                <name>Trackpoint 7172</name>
            </trkpt>
            <trkpt lat="49.985888" lon="10.599488">
                <ele>246.0</ele>
                <time>2020-08-22T15:19:52.000Z</time>
                <name>Trackpoint 7173</name>
            </trkpt>
            <trkpt lat="49.9858784" lon="10.5993568">
                <ele>246.0</ele>
                <time>2020-08-22T15:19:55.000Z</time>
                <name>Trackpoint 7174</name>
            </trkpt>
            <trkpt lat="49.9858688" lon="10.5992336">
                <ele>246.0</ele>
                <time>2020-08-22T15:19:58.000Z</time>
                <name>Trackpoint 7175</name>
            </trkpt>
            <trkpt lat="49.9858592" lon="10.5991184">
                <ele>246.0</ele>
                <time>2020-08-22T15:20:01.000Z</time>
                <name>Trackpoint 7176</name>
            </trkpt>
            <trkpt lat="49.9858592" lon="10.5989912">
                <ele>246.0</ele>
                <time>2020-08-22T15:20:04.000Z</time>
                <name>Trackpoint 7177</name>
            </trkpt>
            <trkpt lat="49.985856" lon="10.598864">
                <ele>246.0</ele>
                <time>2020-08-22T15:20:07.000Z</time>
                <name>Trackpoint 7178</name>
            </trkpt>
            <trkpt lat="49.9858528" lon="10.598732">
                <ele>246.0</ele>
                <time>2020-08-22T15:20:10.000Z</time>
                <name>Trackpoint 7179</name>
            </trkpt>
            <trkpt lat="49.985856" lon="10.5986032">
                <ele>246.0</ele>
                <time>2020-08-22T15:20:13.000Z</time>
                <name>Trackpoint 7180</name>
            </trkpt>
            <trkpt lat="49.9858624" lon="10.5984752">
                <ele>246.0</ele>
                <time>2020-08-22T15:20:16.000Z</time>
                <name>Trackpoint 7181</name>
            </trkpt>
            <trkpt lat="49.9858592" lon="10.5983848">
                <ele>247.0</ele>
                <time>2020-08-22T15:20:18.000Z</time>
                <name>Trackpoint 7182</name>
            </trkpt>
            <trkpt lat="49.9858592" lon="10.5982464">
                <ele>247.0</ele>
                <time>2020-08-22T15:20:21.000Z</time>
                <name>Trackpoint 7183</name>
            </trkpt>
            <trkpt lat="49.9858688" lon="10.5981184">
                <ele>247.0</ele>
                <time>2020-08-22T15:20:24.000Z</time>
                <name>Trackpoint 7184</name>
            </trkpt>
            <trkpt lat="49.9858848" lon="10.5979928">
                <ele>247.0</ele>
                <time>2020-08-22T15:20:27.000Z</time>
                <name>Trackpoint 7185</name>
            </trkpt>
            <trkpt lat="49.9858944" lon="10.5979016">
                <ele>247.0</ele>
                <time>2020-08-22T15:20:29.000Z</time>
                <name>Trackpoint 7186</name>
            </trkpt>
            <trkpt lat="49.9859072" lon="10.5977672">
                <ele>247.0</ele>
                <time>2020-08-22T15:20:32.000Z</time>
                <name>Trackpoint 7187</name>
            </trkpt>
            <trkpt lat="49.9859232" lon="10.5976688">
                <ele>247.0</ele>
                <time>2020-08-22T15:20:34.000Z</time>
                <name>Trackpoint 7188</name>
            </trkpt>
            <trkpt lat="49.9859392" lon="10.59756">
                <ele>247.0</ele>
                <time>2020-08-22T15:20:36.000Z</time>
                <name>Trackpoint 7189</name>
            </trkpt>
            <trkpt lat="49.9859648" lon="10.5974464">
                <ele>246.0</ele>
                <time>2020-08-22T15:20:38.000Z</time>
                <name>Trackpoint 7190</name>
            </trkpt>
            <trkpt lat="49.9859936" lon="10.5973216">
                <ele>246.0</ele>
                <time>2020-08-22T15:20:40.000Z</time>
                <name>Trackpoint 7191</name>
            </trkpt>
            <trkpt lat="49.9860192" lon="10.5971896">
                <ele>246.0</ele>
                <time>2020-08-22T15:20:42.000Z</time>
                <name>Trackpoint 7192</name>
            </trkpt>
            <trkpt lat="49.9860512" lon="10.5970488">
                <ele>245.0</ele>
                <time>2020-08-22T15:20:44.000Z</time>
                <name>Trackpoint 7193</name>
            </trkpt>
            <trkpt lat="49.98608" lon="10.5969048">
                <ele>244.0</ele>
                <time>2020-08-22T15:20:46.000Z</time>
                <name>Trackpoint 7194</name>
            </trkpt>
            <trkpt lat="49.9861184" lon="10.5967616">
                <ele>244.0</ele>
                <time>2020-08-22T15:20:48.000Z</time>
                <name>Trackpoint 7195</name>
            </trkpt>
            <trkpt lat="49.986144" lon="10.596628">
                <ele>244.0</ele>
                <time>2020-08-22T15:20:50.000Z</time>
                <name>Trackpoint 7196</name>
            </trkpt>
            <trkpt lat="49.98616" lon="10.5965208">
                <ele>244.0</ele>
                <time>2020-08-22T15:20:52.000Z</time>
                <name>Trackpoint 7197</name>
            </trkpt>
            <trkpt lat="49.9861824" lon="10.596412">
                <ele>243.0</ele>
                <time>2020-08-22T15:20:54.000Z</time>
                <name>Trackpoint 7198</name>
            </trkpt>
            <trkpt lat="49.9862016" lon="10.5963024">
                <ele>243.0</ele>
                <time>2020-08-22T15:20:56.000Z</time>
                <name>Trackpoint 7199</name>
            </trkpt>
            <trkpt lat="49.9862144" lon="10.5961864">
                <ele>243.0</ele>
                <time>2020-08-22T15:20:58.000Z</time>
                <name>Trackpoint 7200</name>
            </trkpt>
            <trkpt lat="49.9862208" lon="10.5960416">
                <ele>242.0</ele>
                <time>2020-08-22T15:21:00.000Z</time>
                <name>Trackpoint 7201</name>
            </trkpt>
            <trkpt lat="49.9862336" lon="10.5958664">
                <ele>242.0</ele>
                <time>2020-08-22T15:21:02.000Z</time>
                <name>Trackpoint 7202</name>
            </trkpt>
            <trkpt lat="49.9862528" lon="10.5957096">
                <ele>242.0</ele>
                <time>2020-08-22T15:21:04.000Z</time>
                <name>Trackpoint 7203</name>
            </trkpt>
            <trkpt lat="49.9862784" lon="10.5955536">
                <ele>242.0</ele>
                <time>2020-08-22T15:21:06.000Z</time>
                <name>Trackpoint 7204</name>
            </trkpt>
            <trkpt lat="49.9863136" lon="10.595404">
                <ele>243.0</ele>
                <time>2020-08-22T15:21:08.000Z</time>
                <name>Trackpoint 7205</name>
            </trkpt>
            <trkpt lat="49.986352" lon="10.595272">
                <ele>243.0</ele>
                <time>2020-08-22T15:21:10.000Z</time>
                <name>Trackpoint 7206</name>
            </trkpt>
            <trkpt lat="49.9863936" lon="10.595148">
                <ele>243.0</ele>
                <time>2020-08-22T15:21:12.000Z</time>
                <name>Trackpoint 7207</name>
            </trkpt>
            <trkpt lat="49.986432" lon="10.5950336">
                <ele>244.0</ele>
                <time>2020-08-22T15:21:14.000Z</time>
                <name>Trackpoint 7208</name>
            </trkpt>
            <trkpt lat="49.9864704" lon="10.594916">
                <ele>242.0</ele>
                <time>2020-08-22T15:21:16.000Z</time>
                <name>Trackpoint 7209</name>
            </trkpt>
            <trkpt lat="49.986512" lon="10.5948088">
                <ele>243.0</ele>
                <time>2020-08-22T15:21:18.000Z</time>
                <name>Trackpoint 7210</name>
            </trkpt>
            <trkpt lat="49.9865504" lon="10.5947088">
                <ele>243.0</ele>
                <time>2020-08-22T15:21:20.000Z</time>
                <name>Trackpoint 7211</name>
            </trkpt>
            <trkpt lat="49.986592" lon="10.5946104">
                <ele>243.0</ele>
                <time>2020-08-22T15:21:22.000Z</time>
                <name>Trackpoint 7212</name>
            </trkpt>
            <trkpt lat="49.9866208" lon="10.594512">
                <ele>243.0</ele>
                <time>2020-08-22T15:21:24.000Z</time>
                <name>Trackpoint 7213</name>
            </trkpt>
            <trkpt lat="49.9866592" lon="10.5944136">
                <ele>243.0</ele>
                <time>2020-08-22T15:21:26.000Z</time>
                <name>Trackpoint 7214</name>
            </trkpt>
            <trkpt lat="49.9866944" lon="10.5943144">
                <ele>243.0</ele>
                <time>2020-08-22T15:21:28.000Z</time>
                <name>Trackpoint 7215</name>
            </trkpt>
            <trkpt lat="49.9867264" lon="10.5942072">
                <ele>243.0</ele>
                <time>2020-08-22T15:21:30.000Z</time>
                <name>Trackpoint 7216</name>
            </trkpt>
            <trkpt lat="49.9867584" lon="10.5940904">
                <ele>243.0</ele>
                <time>2020-08-22T15:21:32.000Z</time>
                <name>Trackpoint 7217</name>
            </trkpt>
            <trkpt lat="49.9867968" lon="10.5939512">
                <ele>243.0</ele>
                <time>2020-08-22T15:21:34.000Z</time>
                <name>Trackpoint 7218</name>
            </trkpt>
            <trkpt lat="49.986832" lon="10.5938032">
                <ele>243.0</ele>
                <time>2020-08-22T15:21:36.000Z</time>
                <name>Trackpoint 7219</name>
            </trkpt>
            <trkpt lat="49.9868608" lon="10.5936544">
                <ele>243.0</ele>
                <time>2020-08-22T15:21:38.000Z</time>
                <name>Trackpoint 7220</name>
            </trkpt>
            <trkpt lat="49.9868928" lon="10.5935032">
                <ele>243.0</ele>
                <time>2020-08-22T15:21:40.000Z</time>
                <name>Trackpoint 7221</name>
            </trkpt>
            <trkpt lat="49.9869184" lon="10.59334">
                <ele>243.0</ele>
                <time>2020-08-22T15:21:42.000Z</time>
                <name>Trackpoint 7222</name>
            </trkpt>
            <trkpt lat="49.9869376" lon="10.5931752">
                <ele>243.0</ele>
                <time>2020-08-22T15:21:44.000Z</time>
                <name>Trackpoint 7223</name>
            </trkpt>
            <trkpt lat="49.9869536" lon="10.5930136">
                <ele>242.0</ele>
                <time>2020-08-22T15:21:46.000Z</time>
                <name>Trackpoint 7224</name>
            </trkpt>
            <trkpt lat="49.98696" lon="10.5928816">
                <ele>242.0</ele>
                <time>2020-08-22T15:21:48.000Z</time>
                <name>Trackpoint 7225</name>
            </trkpt>
            <trkpt lat="49.986976" lon="10.5927888">
                <ele>242.0</ele>
                <time>2020-08-22T15:21:50.000Z</time>
                <name>Trackpoint 7226</name>
            </trkpt>
            <trkpt lat="49.9869888" lon="10.5926864">
                <ele>242.0</ele>
                <time>2020-08-22T15:21:52.000Z</time>
                <name>Trackpoint 7227</name>
            </trkpt>
            <trkpt lat="49.9869984" lon="10.592568">
                <ele>242.0</ele>
                <time>2020-08-22T15:21:54.000Z</time>
                <name>Trackpoint 7228</name>
            </trkpt>
            <trkpt lat="49.9870272" lon="10.59242">
                <ele>242.0</ele>
                <time>2020-08-22T15:21:56.000Z</time>
                <name>Trackpoint 7229</name>
            </trkpt>
            <trkpt lat="49.987056" lon="10.5922744">
                <ele>242.0</ele>
                <time>2020-08-22T15:21:58.000Z</time>
                <name>Trackpoint 7230</name>
            </trkpt>
            <trkpt lat="49.9870848" lon="10.5921272">
                <ele>242.0</ele>
                <time>2020-08-22T15:22:00.000Z</time>
                <name>Trackpoint 7231</name>
            </trkpt>
            <trkpt lat="49.9870944" lon="10.5920136">
                <ele>242.0</ele>
                <time>2020-08-22T15:22:02.000Z</time>
                <name>Trackpoint 7232</name>
            </trkpt>
            <trkpt lat="49.987104" lon="10.5919168">
                <ele>242.0</ele>
                <time>2020-08-22T15:22:04.000Z</time>
                <name>Trackpoint 7233</name>
            </trkpt>
            <trkpt lat="49.987104" lon="10.59182">
                <ele>242.0</ele>
                <time>2020-08-22T15:22:07.000Z</time>
                <name>Trackpoint 7234</name>
            </trkpt>
            <trkpt lat="49.9871072" lon="10.5917232">
                <ele>242.0</ele>
                <time>2020-08-22T15:22:20.000Z</time>
                <name>Trackpoint 7235</name>
            </trkpt>
            <trkpt lat="49.987136" lon="10.5915936">
                <ele>242.0</ele>
                <time>2020-08-22T15:22:24.000Z</time>
                <name>Trackpoint 7236</name>
            </trkpt>
            <trkpt lat="49.9871744" lon="10.5915016">
                <ele>242.0</ele>
                <time>2020-08-22T15:22:26.000Z</time>
                <name>Trackpoint 7237</name>
            </trkpt>
            <trkpt lat="49.9872032" lon="10.5913896">
                <ele>242.0</ele>
                <time>2020-08-22T15:22:28.000Z</time>
                <name>Trackpoint 7238</name>
            </trkpt>
            <trkpt lat="49.9872192" lon="10.5912736">
                <ele>242.0</ele>
                <time>2020-08-22T15:22:30.000Z</time>
                <name>Trackpoint 7239</name>
            </trkpt>
            <trkpt lat="49.987248" lon="10.591148">
                <ele>242.0</ele>
                <time>2020-08-22T15:22:32.000Z</time>
                <name>Trackpoint 7240</name>
            </trkpt>
            <trkpt lat="49.9872768" lon="10.591028">
                <ele>242.0</ele>
                <time>2020-08-22T15:22:34.000Z</time>
                <name>Trackpoint 7241</name>
            </trkpt>
            <trkpt lat="49.9872736" lon="10.5908696">
                <ele>242.0</ele>
                <time>2020-08-22T15:22:36.000Z</time>
                <name>Trackpoint 7242</name>
            </trkpt>
            <trkpt lat="49.9872768" lon="10.5907088">
                <ele>242.0</ele>
                <time>2020-08-22T15:22:38.000Z</time>
                <name>Trackpoint 7243</name>
            </trkpt>
            <trkpt lat="49.9872768" lon="10.5906152">
                <ele>242.0</ele>
                <time>2020-08-22T15:22:39.000Z</time>
                <name>Trackpoint 7244</name>
            </trkpt>
            <trkpt lat="49.9872832" lon="10.5905064">
                <ele>242.0</ele>
                <time>2020-08-22T15:22:40.000Z</time>
                <name>Trackpoint 7245</name>
            </trkpt>
            <trkpt lat="49.9872832" lon="10.590408">
                <ele>242.0</ele>
                <time>2020-08-22T15:22:41.000Z</time>
                <name>Trackpoint 7246</name>
            </trkpt>
            <trkpt lat="49.9872928" lon="10.5902856">
                <ele>242.0</ele>
                <time>2020-08-22T15:22:42.000Z</time>
                <name>Trackpoint 7247</name>
            </trkpt>
            <trkpt lat="49.9873088" lon="10.5901816">
                <ele>242.0</ele>
                <time>2020-08-22T15:22:43.000Z</time>
                <name>Trackpoint 7248</name>
            </trkpt>
            <trkpt lat="49.9873184" lon="10.5900696">
                <ele>242.0</ele>
                <time>2020-08-22T15:22:44.000Z</time>
                <name>Trackpoint 7249</name>
            </trkpt>
            <trkpt lat="49.987328" lon="10.589956">
                <ele>242.0</ele>
                <time>2020-08-22T15:22:45.000Z</time>
                <name>Trackpoint 7250</name>
            </trkpt>
            <trkpt lat="49.9873344" lon="10.5898464">
                <ele>242.0</ele>
                <time>2020-08-22T15:22:46.000Z</time>
                <name>Trackpoint 7251</name>
            </trkpt>
            <trkpt lat="49.9873472" lon="10.5897304">
                <ele>242.0</ele>
                <time>2020-08-22T15:22:47.000Z</time>
                <name>Trackpoint 7252</name>
            </trkpt>
            <trkpt lat="49.9873472" lon="10.58962">
                <ele>242.0</ele>
                <time>2020-08-22T15:22:48.000Z</time>
                <name>Trackpoint 7253</name>
            </trkpt>
            <trkpt lat="49.9873472" lon="10.5895216">
                <ele>242.0</ele>
                <time>2020-08-22T15:22:49.000Z</time>
                <name>Trackpoint 7254</name>
            </trkpt>
            <trkpt lat="49.9873664" lon="10.5894184">
                <ele>242.0</ele>
                <time>2020-08-22T15:22:50.000Z</time>
                <name>Trackpoint 7255</name>
            </trkpt>
            <trkpt lat="49.9873728" lon="10.5893112">
                <ele>242.0</ele>
                <time>2020-08-22T15:22:51.000Z</time>
                <name>Trackpoint 7256</name>
            </trkpt>
            <trkpt lat="49.987376" lon="10.5892">
                <ele>242.0</ele>
                <time>2020-08-22T15:22:52.000Z</time>
                <name>Trackpoint 7257</name>
            </trkpt>
            <trkpt lat="49.9873824" lon="10.5890952">
                <ele>242.0</ele>
                <time>2020-08-22T15:22:53.000Z</time>
                <name>Trackpoint 7258</name>
            </trkpt>
            <trkpt lat="49.9873856" lon="10.588992">
                <ele>242.0</ele>
                <time>2020-08-22T15:22:54.000Z</time>
                <name>Trackpoint 7259</name>
            </trkpt>
            <trkpt lat="49.9873824" lon="10.5888968">
                <ele>242.0</ele>
                <time>2020-08-22T15:22:55.000Z</time>
                <name>Trackpoint 7260</name>
            </trkpt>
            <trkpt lat="49.9874016" lon="10.588728">
                <ele>242.0</ele>
                <time>2020-08-22T15:22:57.000Z</time>
                <name>Trackpoint 7261</name>
            </trkpt>
            <trkpt lat="49.9874048" lon="10.5885736">
                <ele>242.0</ele>
                <time>2020-08-22T15:22:59.000Z</time>
                <name>Trackpoint 7262</name>
            </trkpt>
            <trkpt lat="49.9874144" lon="10.5884248">
                <ele>242.0</ele>
                <time>2020-08-22T15:23:01.000Z</time>
                <name>Trackpoint 7263</name>
            </trkpt>
            <trkpt lat="49.9874496" lon="10.5883264">
                <ele>242.0</ele>
                <time>2020-08-22T15:23:03.000Z</time>
                <name>Trackpoint 7264</name>
            </trkpt>
            <trkpt lat="49.9875136" lon="10.5882528">
                <ele>241.0</ele>
                <time>2020-08-22T15:23:05.000Z</time>
                <name>Trackpoint 7265</name>
            </trkpt>
            <trkpt lat="49.9876096" lon="10.5882352">
                <ele>241.0</ele>
                <time>2020-08-22T15:23:07.000Z</time>
                <name>Trackpoint 7266</name>
            </trkpt>
            <trkpt lat="49.9877056" lon="10.5882304">
                <ele>241.0</ele>
                <time>2020-08-22T15:23:09.000Z</time>
                <name>Trackpoint 7267</name>
            </trkpt>
            <trkpt lat="49.987808" lon="10.5882352">
                <ele>241.0</ele>
                <time>2020-08-22T15:23:11.000Z</time>
                <name>Trackpoint 7268</name>
            </trkpt>
            <trkpt lat="49.9879424" lon="10.5882264">
                <ele>241.0</ele>
                <time>2020-08-22T15:23:14.000Z</time>
                <name>Trackpoint 7269</name>
            </trkpt>
            <trkpt lat="49.9880704" lon="10.5882432">
                <ele>241.0</ele>
                <time>2020-08-22T15:23:17.000Z</time>
                <name>Trackpoint 7270</name>
            </trkpt>
            <trkpt lat="49.98816" lon="10.5882616">
                <ele>241.0</ele>
                <time>2020-08-22T15:23:19.000Z</time>
                <name>Trackpoint 7271</name>
            </trkpt>
            <trkpt lat="49.988288" lon="10.588292">
                <ele>240.0</ele>
                <time>2020-08-22T15:23:22.000Z</time>
                <name>Trackpoint 7272</name>
            </trkpt>
            <trkpt lat="49.9884224" lon="10.5882904">
                <ele>240.0</ele>
                <time>2020-08-22T15:23:25.000Z</time>
                <name>Trackpoint 7273</name>
            </trkpt>
            <trkpt lat="49.988528" lon="10.5883152">
                <ele>241.0</ele>
                <time>2020-08-22T15:23:30.000Z</time>
                <name>Trackpoint 7274</name>
            </trkpt>
            <trkpt lat="49.9886144" lon="10.5883728">
                <ele>241.0</ele>
                <time>2020-08-22T15:23:35.000Z</time>
                <name>Trackpoint 7275</name>
            </trkpt>
            <trkpt lat="49.9887136" lon="10.5884248">
                <ele>240.0</ele>
                <time>2020-08-22T15:24:36.000Z</time>
                <name>Trackpoint 7276</name>
            </trkpt>
            <trkpt lat="49.9887968" lon="10.5883888">
                <ele>239.0</ele>
                <time>2020-08-22T15:24:39.000Z</time>
                <name>Trackpoint 7277</name>
            </trkpt>
            <trkpt lat="49.9888384" lon="10.5883064">
                <ele>239.0</ele>
                <time>2020-08-22T15:24:42.000Z</time>
                <name>Trackpoint 7278</name>
            </trkpt>
            <trkpt lat="49.9888544" lon="10.5881968">
                <ele>239.0</ele>
                <time>2020-08-22T15:24:45.000Z</time>
                <name>Trackpoint 7279</name>
            </trkpt>
            <trkpt lat="49.9888256" lon="10.5880832">
                <ele>239.0</ele>
                <time>2020-08-22T15:24:48.000Z</time>
                <name>Trackpoint 7280</name>
            </trkpt>
            <trkpt lat="49.9887936" lon="10.587992">
                <ele>239.0</ele>
                <time>2020-08-22T15:24:50.000Z</time>
                <name>Trackpoint 7281</name>
            </trkpt>
            <trkpt lat="49.9887616" lon="10.5879072">
                <ele>238.0</ele>
                <time>2020-08-22T15:24:52.000Z</time>
                <name>Trackpoint 7282</name>
            </trkpt>
            <trkpt lat="49.9887648" lon="10.5877888">
                <ele>239.0</ele>
                <time>2020-08-22T15:24:55.000Z</time>
                <name>Trackpoint 7283</name>
            </trkpt>
            <trkpt lat="49.988832" lon="10.5877088">
                <ele>239.0</ele>
                <time>2020-08-22T15:24:58.000Z</time>
                <name>Trackpoint 7284</name>
            </trkpt>
            <trkpt lat="49.988912" lon="10.5876664">
                <ele>238.0</ele>
                <time>2020-08-22T15:25:00.000Z</time>
                <name>Trackpoint 7285</name>
            </trkpt>
            <trkpt lat="49.9890112" lon="10.58762">
                <ele>238.0</ele>
                <time>2020-08-22T15:25:02.000Z</time>
                <name>Trackpoint 7286</name>
            </trkpt>
            <trkpt lat="49.9891136" lon="10.5875632">
                <ele>238.0</ele>
                <time>2020-08-22T15:25:04.000Z</time>
                <name>Trackpoint 7287</name>
            </trkpt>
            <trkpt lat="49.9892096" lon="10.5875304">
                <ele>238.0</ele>
                <time>2020-08-22T15:25:06.000Z</time>
                <name>Trackpoint 7288</name>
            </trkpt>
            <trkpt lat="49.9893184" lon="10.587472">
                <ele>238.0</ele>
                <time>2020-08-22T15:25:08.000Z</time>
                <name>Trackpoint 7289</name>
            </trkpt>
            <trkpt lat="49.9894432" lon="10.5874304">
                <ele>238.0</ele>
                <time>2020-08-22T15:25:10.000Z</time>
                <name>Trackpoint 7290</name>
            </trkpt>
            <trkpt lat="49.9895488" lon="10.5873896">
                <ele>238.0</ele>
                <time>2020-08-22T15:25:12.000Z</time>
                <name>Trackpoint 7291</name>
            </trkpt>
            <trkpt lat="49.9896512" lon="10.587348">
                <ele>238.0</ele>
                <time>2020-08-22T15:25:14.000Z</time>
                <name>Trackpoint 7292</name>
            </trkpt>
            <trkpt lat="49.9897952" lon="10.5873344">
                <ele>238.0</ele>
                <time>2020-08-22T15:25:16.000Z</time>
                <name>Trackpoint 7293</name>
            </trkpt>
            <trkpt lat="49.989936" lon="10.587308">
                <ele>238.0</ele>
                <time>2020-08-22T15:25:18.000Z</time>
                <name>Trackpoint 7294</name>
            </trkpt>
            <trkpt lat="49.9900864" lon="10.5872936">
                <ele>238.0</ele>
                <time>2020-08-22T15:25:20.000Z</time>
                <name>Trackpoint 7295</name>
            </trkpt>
            <trkpt lat="49.9902336" lon="10.5872872">
                <ele>238.0</ele>
                <time>2020-08-22T15:25:22.000Z</time>
                <name>Trackpoint 7296</name>
            </trkpt>
            <trkpt lat="49.9903872" lon="10.5872896">
                <ele>237.0</ele>
                <time>2020-08-22T15:25:24.000Z</time>
                <name>Trackpoint 7297</name>
            </trkpt>
            <trkpt lat="49.9905248" lon="10.587292">
                <ele>237.0</ele>
                <time>2020-08-22T15:25:26.000Z</time>
                <name>Trackpoint 7298</name>
            </trkpt>
            <trkpt lat="49.9906592" lon="10.5872968">
                <ele>237.0</ele>
                <time>2020-08-22T15:25:28.000Z</time>
                <name>Trackpoint 7299</name>
            </trkpt>
            <trkpt lat="49.9907936" lon="10.5872944">
                <ele>237.0</ele>
                <time>2020-08-22T15:25:30.000Z</time>
                <name>Trackpoint 7300</name>
            </trkpt>
            <trkpt lat="49.9909312" lon="10.5872984">
                <ele>237.0</ele>
                <time>2020-08-22T15:25:32.000Z</time>
                <name>Trackpoint 7301</name>
            </trkpt>
            <trkpt lat="49.9910624" lon="10.5873">
                <ele>236.0</ele>
                <time>2020-08-22T15:25:34.000Z</time>
                <name>Trackpoint 7302</name>
            </trkpt>
            <trkpt lat="49.991184" lon="10.5873048">
                <ele>236.0</ele>
                <time>2020-08-22T15:25:36.000Z</time>
                <name>Trackpoint 7303</name>
            </trkpt>
            <trkpt lat="49.9912992" lon="10.587312">
                <ele>236.0</ele>
                <time>2020-08-22T15:25:38.000Z</time>
                <name>Trackpoint 7304</name>
            </trkpt>
            <trkpt lat="49.9914144" lon="10.5873184">
                <ele>236.0</ele>
                <time>2020-08-22T15:25:40.000Z</time>
                <name>Trackpoint 7305</name>
            </trkpt>
            <trkpt lat="49.9915136" lon="10.5873296">
                <ele>236.0</ele>
                <time>2020-08-22T15:25:42.000Z</time>
                <name>Trackpoint 7306</name>
            </trkpt>
            <trkpt lat="49.9916064" lon="10.5873296">
                <ele>235.0</ele>
                <time>2020-08-22T15:25:44.000Z</time>
                <name>Trackpoint 7307</name>
            </trkpt>
            <trkpt lat="49.991712" lon="10.58734">
                <ele>235.0</ele>
                <time>2020-08-22T15:25:46.000Z</time>
                <name>Trackpoint 7308</name>
            </trkpt>
            <trkpt lat="49.9918016" lon="10.5873544">
                <ele>235.0</ele>
                <time>2020-08-22T15:25:48.000Z</time>
                <name>Trackpoint 7309</name>
            </trkpt>
            <trkpt lat="49.9918976" lon="10.5873632">
                <ele>235.0</ele>
                <time>2020-08-22T15:25:50.000Z</time>
                <name>Trackpoint 7310</name>
            </trkpt>
            <trkpt lat="49.9920032" lon="10.5873736">
                <ele>235.0</ele>
                <time>2020-08-22T15:25:52.000Z</time>
                <name>Trackpoint 7311</name>
            </trkpt>
            <trkpt lat="49.9921024" lon="10.587408">
                <ele>235.0</ele>
                <time>2020-08-22T15:25:55.000Z</time>
                <name>Trackpoint 7312</name>
            </trkpt>
            <trkpt lat="49.9921984" lon="10.5874168">
                <ele>235.0</ele>
                <time>2020-08-22T15:25:57.000Z</time>
                <name>Trackpoint 7313</name>
            </trkpt>
            <trkpt lat="49.9922944" lon="10.5874272">
                <ele>235.0</ele>
                <time>2020-08-22T15:25:59.000Z</time>
                <name>Trackpoint 7314</name>
            </trkpt>
            <trkpt lat="49.9924064" lon="10.5874392">
                <ele>235.0</ele>
                <time>2020-08-22T15:26:01.000Z</time>
                <name>Trackpoint 7315</name>
            </trkpt>
            <trkpt lat="49.9925376" lon="10.5874584">
                <ele>235.0</ele>
                <time>2020-08-22T15:26:04.000Z</time>
                <name>Trackpoint 7316</name>
            </trkpt>
            <trkpt lat="49.9926272" lon="10.5874784">
                <ele>235.0</ele>
                <time>2020-08-22T15:26:06.000Z</time>
                <name>Trackpoint 7317</name>
            </trkpt>
            <trkpt lat="49.9927456" lon="10.587492">
                <ele>235.0</ele>
                <time>2020-08-22T15:26:08.000Z</time>
                <name>Trackpoint 7318</name>
            </trkpt>
            <trkpt lat="49.9928672" lon="10.5875256">
                <ele>235.0</ele>
                <time>2020-08-22T15:26:10.000Z</time>
                <name>Trackpoint 7319</name>
            </trkpt>
            <trkpt lat="49.992976" lon="10.5875584">
                <ele>234.0</ele>
                <time>2020-08-22T15:26:12.000Z</time>
                <name>Trackpoint 7320</name>
            </trkpt>
            <trkpt lat="49.9930816" lon="10.5875832">
                <ele>234.0</ele>
                <time>2020-08-22T15:26:14.000Z</time>
                <name>Trackpoint 7321</name>
            </trkpt>
            <trkpt lat="49.9931936" lon="10.5876">
                <ele>232.0</ele>
                <time>2020-08-22T15:26:16.000Z</time>
                <name>Trackpoint 7322</name>
            </trkpt>
            <trkpt lat="49.9932896" lon="10.5876264">
                <ele>231.0</ele>
                <time>2020-08-22T15:26:18.000Z</time>
                <name>Trackpoint 7323</name>
            </trkpt>
            <trkpt lat="49.9933856" lon="10.5876504">
                <ele>231.0</ele>
                <time>2020-08-22T15:26:20.000Z</time>
                <name>Trackpoint 7324</name>
            </trkpt>
            <trkpt lat="49.9934784" lon="10.5876752">
                <ele>232.0</ele>
                <time>2020-08-22T15:26:22.000Z</time>
                <name>Trackpoint 7325</name>
            </trkpt>
            <trkpt lat="49.993568" lon="10.5877016">
                <ele>232.0</ele>
                <time>2020-08-22T15:26:24.000Z</time>
                <name>Trackpoint 7326</name>
            </trkpt>
            <trkpt lat="49.9936768" lon="10.5877352">
                <ele>232.0</ele>
                <time>2020-08-22T15:26:26.000Z</time>
                <name>Trackpoint 7327</name>
            </trkpt>
            <trkpt lat="49.9937824" lon="10.5877504">
                <ele>232.0</ele>
                <time>2020-08-22T15:26:28.000Z</time>
                <name>Trackpoint 7328</name>
            </trkpt>
            <trkpt lat="49.9938816" lon="10.58778">
                <ele>232.0</ele>
                <time>2020-08-22T15:26:30.000Z</time>
                <name>Trackpoint 7329</name>
            </trkpt>
            <trkpt lat="49.9939872" lon="10.5878112">
                <ele>232.0</ele>
                <time>2020-08-22T15:26:32.000Z</time>
                <name>Trackpoint 7330</name>
            </trkpt>
            <trkpt lat="49.994096" lon="10.587836">
                <ele>232.0</ele>
                <time>2020-08-22T15:26:34.000Z</time>
                <name>Trackpoint 7331</name>
            </trkpt>
            <trkpt lat="49.9941984" lon="10.5878448">
                <ele>232.0</ele>
                <time>2020-08-22T15:26:36.000Z</time>
                <name>Trackpoint 7332</name>
            </trkpt>
            <trkpt lat="49.9943008" lon="10.5878632">
                <ele>231.0</ele>
                <time>2020-08-22T15:26:38.000Z</time>
                <name>Trackpoint 7333</name>
            </trkpt>
            <trkpt lat="49.9944" lon="10.5878984">
                <ele>231.0</ele>
                <time>2020-08-22T15:26:40.000Z</time>
                <name>Trackpoint 7334</name>
            </trkpt>
            <trkpt lat="49.9944992" lon="10.5879384">
                <ele>231.0</ele>
                <time>2020-08-22T15:26:42.000Z</time>
                <name>Trackpoint 7335</name>
            </trkpt>
            <trkpt lat="49.994592" lon="10.58796">
                <ele>232.0</ele>
                <time>2020-08-22T15:26:44.000Z</time>
                <name>Trackpoint 7336</name>
            </trkpt>
            <trkpt lat="49.9946848" lon="10.5879896">
                <ele>232.0</ele>
                <time>2020-08-22T15:26:46.000Z</time>
                <name>Trackpoint 7337</name>
            </trkpt>
            <trkpt lat="49.9947776" lon="10.588008">
                <ele>232.0</ele>
                <time>2020-08-22T15:26:48.000Z</time>
                <name>Trackpoint 7338</name>
            </trkpt>
            <trkpt lat="49.9948704" lon="10.5880144">
                <ele>232.0</ele>
                <time>2020-08-22T15:26:50.000Z</time>
                <name>Trackpoint 7339</name>
            </trkpt>
            <trkpt lat="49.9949696" lon="10.58802">
                <ele>231.0</ele>
                <time>2020-08-22T15:26:52.000Z</time>
                <name>Trackpoint 7340</name>
            </trkpt>
            <trkpt lat="49.9950976" lon="10.588068">
                <ele>232.0</ele>
                <time>2020-08-22T15:26:55.000Z</time>
                <name>Trackpoint 7341</name>
            </trkpt>
            <trkpt lat="49.9951296" lon="10.588192">
                <ele>230.0</ele>
                <time>2020-08-22T15:26:57.000Z</time>
                <name>Trackpoint 7342</name>
            </trkpt>
            <trkpt lat="49.99512" lon="10.5883152">
                <ele>229.0</ele>
                <time>2020-08-22T15:26:59.000Z</time>
                <name>Trackpoint 7343</name>
            </trkpt>
            <trkpt lat="49.9951072" lon="10.5884136">
                <ele>229.0</ele>
                <time>2020-08-22T15:27:01.000Z</time>
                <name>Trackpoint 7344</name>
            </trkpt>
            <trkpt lat="49.9950944" lon="10.5885112">
                <ele>229.0</ele>
                <time>2020-08-22T15:27:04.000Z</time>
                <name>Trackpoint 7345</name>
            </trkpt>
            <trkpt lat="49.9950976" lon="10.58864">
                <ele>227.0</ele>
                <time>2020-08-22T15:27:07.000Z</time>
                <name>Trackpoint 7346</name>
            </trkpt>
            <trkpt lat="49.995088" lon="10.5887496">
                <ele>228.0</ele>
                <time>2020-08-22T15:27:10.000Z</time>
                <name>Trackpoint 7347</name>
            </trkpt>
            <trkpt lat="49.99504" lon="10.5888296">
                <ele>226.0</ele>
                <time>2020-08-22T15:27:19.000Z</time>
                <name>Trackpoint 7348</name>
            </trkpt>
            <trkpt lat="49.9951072" lon="10.5887472">
                <ele>225.0</ele>
                <time>2020-08-22T15:54:14.000Z</time>
                <name>Trackpoint 7349</name>
            </trkpt>
            <trkpt lat="49.995136" lon="10.5886472">
                <ele>225.0</ele>
                <time>2020-08-22T15:54:17.000Z</time>
                <name>Trackpoint 7350</name>
            </trkpt>
            <trkpt lat="49.9952096" lon="10.58858">
                <ele>225.0</ele>
                <time>2020-08-22T15:54:41.000Z</time>
                <name>Trackpoint 7351</name>
            </trkpt>
            <trkpt lat="49.9951328" lon="10.5885136">
                <ele>225.0</ele>
                <time>2020-08-22T15:54:46.000Z</time>
                <name>Trackpoint 7352</name>
            </trkpt>
            <trkpt lat="49.9950944" lon="10.5884264">
                <ele>225.0</ele>
                <time>2020-08-22T15:54:50.000Z</time>
                <name>Trackpoint 7353</name>
            </trkpt>
            <trkpt lat="49.9951872" lon="10.5884304">
                <ele>225.0</ele>
                <time>2020-08-22T15:55:02.000Z</time>
                <name>Trackpoint 7354</name>
            </trkpt>
            <trkpt lat="49.995312" lon="10.5884416">
                <ele>224.0</ele>
                <time>2020-08-22T15:55:05.000Z</time>
                <name>Trackpoint 7355</name>
            </trkpt>
            <trkpt lat="49.9954048" lon="10.5884688">
                <ele>223.0</ele>
                <time>2020-08-22T15:55:07.000Z</time>
                <name>Trackpoint 7356</name>
            </trkpt>
            <trkpt lat="49.9954976" lon="10.5884864">
                <ele>223.0</ele>
                <time>2020-08-22T15:55:09.000Z</time>
                <name>Trackpoint 7357</name>
            </trkpt>
            <trkpt lat="49.9956096" lon="10.5885152">
                <ele>222.0</ele>
                <time>2020-08-22T15:55:11.000Z</time>
                <name>Trackpoint 7358</name>
            </trkpt>
            <trkpt lat="49.9957312" lon="10.5885336">
                <ele>222.0</ele>
                <time>2020-08-22T15:55:13.000Z</time>
                <name>Trackpoint 7359</name>
            </trkpt>
            <trkpt lat="49.9958496" lon="10.5885584">
                <ele>223.0</ele>
                <time>2020-08-22T15:55:15.000Z</time>
                <name>Trackpoint 7360</name>
            </trkpt>
            <trkpt lat="49.9959648" lon="10.5885832">
                <ele>223.0</ele>
                <time>2020-08-22T15:55:17.000Z</time>
                <name>Trackpoint 7361</name>
            </trkpt>
            <trkpt lat="49.9960864" lon="10.5886024">
                <ele>223.0</ele>
                <time>2020-08-22T15:55:19.000Z</time>
                <name>Trackpoint 7362</name>
            </trkpt>
            <trkpt lat="49.9962048" lon="10.5886248">
                <ele>223.0</ele>
                <time>2020-08-22T15:55:21.000Z</time>
                <name>Trackpoint 7363</name>
            </trkpt>
            <trkpt lat="49.99632" lon="10.588652">
                <ele>223.0</ele>
                <time>2020-08-22T15:55:23.000Z</time>
                <name>Trackpoint 7364</name>
            </trkpt>
            <trkpt lat="49.996432" lon="10.58868">
                <ele>223.0</ele>
                <time>2020-08-22T15:55:25.000Z</time>
                <name>Trackpoint 7365</name>
            </trkpt>
            <trkpt lat="49.9965472" lon="10.5887016">
                <ele>224.0</ele>
                <time>2020-08-22T15:55:27.000Z</time>
                <name>Trackpoint 7366</name>
            </trkpt>
            <trkpt lat="49.9966656" lon="10.5887216">
                <ele>224.0</ele>
                <time>2020-08-22T15:55:29.000Z</time>
                <name>Trackpoint 7367</name>
            </trkpt>
            <trkpt lat="49.996784" lon="10.588748">
                <ele>223.0</ele>
                <time>2020-08-22T15:55:31.000Z</time>
                <name>Trackpoint 7368</name>
            </trkpt>
            <trkpt lat="49.9969024" lon="10.5887784">
                <ele>224.0</ele>
                <time>2020-08-22T15:55:33.000Z</time>
                <name>Trackpoint 7369</name>
            </trkpt>
            <trkpt lat="49.997024" lon="10.5888016">
                <ele>224.0</ele>
                <time>2020-08-22T15:55:35.000Z</time>
                <name>Trackpoint 7370</name>
            </trkpt>
            <trkpt lat="49.9971456" lon="10.5888216">
                <ele>224.0</ele>
                <time>2020-08-22T15:55:37.000Z</time>
                <name>Trackpoint 7371</name>
            </trkpt>
            <trkpt lat="49.997264" lon="10.5888456">
                <ele>224.0</ele>
                <time>2020-08-22T15:55:39.000Z</time>
                <name>Trackpoint 7372</name>
            </trkpt>
            <trkpt lat="49.9973824" lon="10.5888704">
                <ele>224.0</ele>
                <time>2020-08-22T15:55:41.000Z</time>
                <name>Trackpoint 7373</name>
            </trkpt>
            <trkpt lat="49.9974976" lon="10.5889">
                <ele>225.0</ele>
                <time>2020-08-22T15:55:43.000Z</time>
                <name>Trackpoint 7374</name>
            </trkpt>
            <trkpt lat="49.9976096" lon="10.588932">
                <ele>225.0</ele>
                <time>2020-08-22T15:55:45.000Z</time>
                <name>Trackpoint 7375</name>
            </trkpt>
            <trkpt lat="49.997728" lon="10.58896">
                <ele>225.0</ele>
                <time>2020-08-22T15:55:47.000Z</time>
                <name>Trackpoint 7376</name>
            </trkpt>
            <trkpt lat="49.99784" lon="10.5890016">
                <ele>224.0</ele>
                <time>2020-08-22T15:55:49.000Z</time>
                <name>Trackpoint 7377</name>
            </trkpt>
            <trkpt lat="49.9979552" lon="10.5890464">
                <ele>224.0</ele>
                <time>2020-08-22T15:55:51.000Z</time>
                <name>Trackpoint 7378</name>
            </trkpt>
            <trkpt lat="49.99808" lon="10.5890912">
                <ele>224.0</ele>
                <time>2020-08-22T15:55:53.000Z</time>
                <name>Trackpoint 7379</name>
            </trkpt>
            <trkpt lat="49.998208" lon="10.58914">
                <ele>224.0</ele>
                <time>2020-08-22T15:55:55.000Z</time>
                <name>Trackpoint 7380</name>
            </trkpt>
            <trkpt lat="49.998336" lon="10.5891936">
                <ele>224.0</ele>
                <time>2020-08-22T15:55:57.000Z</time>
                <name>Trackpoint 7381</name>
            </trkpt>
            <trkpt lat="49.9984672" lon="10.5892488">
                <ele>224.0</ele>
                <time>2020-08-22T15:55:59.000Z</time>
                <name>Trackpoint 7382</name>
            </trkpt>
            <trkpt lat="49.9986016" lon="10.5893048">
                <ele>224.0</ele>
                <time>2020-08-22T15:56:01.000Z</time>
                <name>Trackpoint 7383</name>
            </trkpt>
            <trkpt lat="49.9987232" lon="10.5893672">
                <ele>224.0</ele>
                <time>2020-08-22T15:56:03.000Z</time>
                <name>Trackpoint 7384</name>
            </trkpt>
            <trkpt lat="49.9988352" lon="10.5894248">
                <ele>224.0</ele>
                <time>2020-08-22T15:56:05.000Z</time>
                <name>Trackpoint 7385</name>
            </trkpt>
            <trkpt lat="49.998944" lon="10.5894848">
                <ele>224.0</ele>
                <time>2020-08-22T15:56:07.000Z</time>
                <name>Trackpoint 7386</name>
            </trkpt>
            <trkpt lat="49.9990336" lon="10.5895504">
                <ele>224.0</ele>
                <time>2020-08-22T15:56:09.000Z</time>
                <name>Trackpoint 7387</name>
            </trkpt>
            <trkpt lat="49.99912" lon="10.589612">
                <ele>225.0</ele>
                <time>2020-08-22T15:56:11.000Z</time>
                <name>Trackpoint 7388</name>
            </trkpt>
            <trkpt lat="49.9992256" lon="10.589688">
                <ele>225.0</ele>
                <time>2020-08-22T15:56:14.000Z</time>
                <name>Trackpoint 7389</name>
            </trkpt>
            <trkpt lat="49.9992992" lon="10.58978">
                <ele>225.0</ele>
                <time>2020-08-22T15:56:17.000Z</time>
                <name>Trackpoint 7390</name>
            </trkpt>
            <trkpt lat="49.99936" lon="10.5898504">
                <ele>225.0</ele>
                <time>2020-08-22T15:56:20.000Z</time>
                <name>Trackpoint 7391</name>
            </trkpt>
            <trkpt lat="49.999424" lon="10.5899184">
                <ele>225.0</ele>
                <time>2020-08-22T15:56:24.000Z</time>
                <name>Trackpoint 7392</name>
            </trkpt>
            <trkpt lat="49.99952" lon="10.5900072">
                <ele>225.0</ele>
                <time>2020-08-22T15:56:47.000Z</time>
                <name>Trackpoint 7393</name>
            </trkpt>
            <trkpt lat="49.9995808" lon="10.5900816">
                <ele>225.0</ele>
                <time>2020-08-22T15:56:49.000Z</time>
                <name>Trackpoint 7394</name>
            </trkpt>
            <trkpt lat="49.9996576" lon="10.5901616">
                <ele>225.0</ele>
                <time>2020-08-22T15:56:51.000Z</time>
                <name>Trackpoint 7395</name>
            </trkpt>
            <trkpt lat="49.9997376" lon="10.5902504">
                <ele>225.0</ele>
                <time>2020-08-22T15:56:53.000Z</time>
                <name>Trackpoint 7396</name>
            </trkpt>
            <trkpt lat="49.9998208" lon="10.5903432">
                <ele>225.0</ele>
                <time>2020-08-22T15:56:55.000Z</time>
                <name>Trackpoint 7397</name>
            </trkpt>
            <trkpt lat="49.9999136" lon="10.590444">
                <ele>225.0</ele>
                <time>2020-08-22T15:56:57.000Z</time>
                <name>Trackpoint 7398</name>
            </trkpt>
            <trkpt lat="50.0000064" lon="10.5905384">
                <ele>224.0</ele>
                <time>2020-08-22T15:56:59.000Z</time>
                <name>Trackpoint 7399</name>
            </trkpt>
            <trkpt lat="50.0001056" lon="10.590636">
                <ele>224.0</ele>
                <time>2020-08-22T15:57:01.000Z</time>
                <name>Trackpoint 7400</name>
            </trkpt>
            <trkpt lat="50.0002112" lon="10.5907272">
                <ele>224.0</ele>
                <time>2020-08-22T15:57:03.000Z</time>
                <name>Trackpoint 7401</name>
            </trkpt>
            <trkpt lat="50.000304" lon="10.5908272">
                <ele>224.0</ele>
                <time>2020-08-22T15:57:05.000Z</time>
                <name>Trackpoint 7402</name>
            </trkpt>
            <trkpt lat="50.0004032" lon="10.5909208">
                <ele>225.0</ele>
                <time>2020-08-22T15:57:07.000Z</time>
                <name>Trackpoint 7403</name>
            </trkpt>
            <trkpt lat="50.0005088" lon="10.591012">
                <ele>225.0</ele>
                <time>2020-08-22T15:57:09.000Z</time>
                <name>Trackpoint 7404</name>
            </trkpt>
            <trkpt lat="50.000608" lon="10.5911016">
                <ele>225.0</ele>
                <time>2020-08-22T15:57:11.000Z</time>
                <name>Trackpoint 7405</name>
            </trkpt>
            <trkpt lat="50.0007072" lon="10.5911904">
                <ele>225.0</ele>
                <time>2020-08-22T15:57:13.000Z</time>
                <name>Trackpoint 7406</name>
            </trkpt>
            <trkpt lat="50.0008" lon="10.5912648">
                <ele>225.0</ele>
                <time>2020-08-22T15:57:15.000Z</time>
                <name>Trackpoint 7407</name>
            </trkpt>
            <trkpt lat="50.0008864" lon="10.5913336">
                <ele>226.0</ele>
                <time>2020-08-22T15:57:17.000Z</time>
                <name>Trackpoint 7408</name>
            </trkpt>
            <trkpt lat="50.0009728" lon="10.5913984">
                <ele>226.0</ele>
                <time>2020-08-22T15:57:19.000Z</time>
                <name>Trackpoint 7409</name>
            </trkpt>
            <trkpt lat="50.001056" lon="10.5914568">
                <ele>226.0</ele>
                <time>2020-08-22T15:57:21.000Z</time>
                <name>Trackpoint 7410</name>
            </trkpt>
            <trkpt lat="50.001136" lon="10.5915016">
                <ele>226.0</ele>
                <time>2020-08-22T15:57:23.000Z</time>
                <name>Trackpoint 7411</name>
            </trkpt>
            <trkpt lat="50.001216" lon="10.5915536">
                <ele>225.0</ele>
                <time>2020-08-22T15:57:25.000Z</time>
                <name>Trackpoint 7412</name>
            </trkpt>
            <trkpt lat="50.0013056" lon="10.591588">
                <ele>226.0</ele>
                <time>2020-08-22T15:57:27.000Z</time>
                <name>Trackpoint 7413</name>
            </trkpt>
            <trkpt lat="50.0014272" lon="10.5916344">
                <ele>225.0</ele>
                <time>2020-08-22T15:57:30.000Z</time>
                <name>Trackpoint 7414</name>
            </trkpt>
            <trkpt lat="50.0015136" lon="10.591672">
                <ele>226.0</ele>
                <time>2020-08-22T15:57:32.000Z</time>
                <name>Trackpoint 7415</name>
            </trkpt>
            <trkpt lat="50.0016256" lon="10.5917368">
                <ele>226.0</ele>
                <time>2020-08-22T15:57:35.000Z</time>
                <name>Trackpoint 7416</name>
            </trkpt>
            <trkpt lat="50.0017312" lon="10.5917816">
                <ele>225.0</ele>
                <time>2020-08-22T15:57:38.000Z</time>
                <name>Trackpoint 7417</name>
            </trkpt>
            <trkpt lat="50.001824" lon="10.5918">
                <ele>227.0</ele>
                <time>2020-08-22T15:57:40.000Z</time>
                <name>Trackpoint 7418</name>
            </trkpt>
            <trkpt lat="50.0019328" lon="10.5918016">
                <ele>226.0</ele>
                <time>2020-08-22T15:57:43.000Z</time>
                <name>Trackpoint 7419</name>
            </trkpt>
            <trkpt lat="50.0020384" lon="10.59184">
                <ele>226.0</ele>
                <time>2020-08-22T15:57:47.000Z</time>
                <name>Trackpoint 7420</name>
            </trkpt>
            <trkpt lat="50.00216" lon="10.5919168">
                <ele>226.0</ele>
                <time>2020-08-22T15:57:50.000Z</time>
                <name>Trackpoint 7421</name>
            </trkpt>
            <trkpt lat="50.0022496" lon="10.5919368">
                <ele>227.0</ele>
                <time>2020-08-22T15:57:52.000Z</time>
                <name>Trackpoint 7422</name>
            </trkpt>
            <trkpt lat="50.0023616" lon="10.5919688">
                <ele>227.0</ele>
                <time>2020-08-22T15:57:54.000Z</time>
                <name>Trackpoint 7423</name>
            </trkpt>
            <trkpt lat="50.0024832" lon="10.5920096">
                <ele>227.0</ele>
                <time>2020-08-22T15:57:56.000Z</time>
                <name>Trackpoint 7424</name>
            </trkpt>
            <trkpt lat="50.0025952" lon="10.5920384">
                <ele>227.0</ele>
                <time>2020-08-22T15:57:58.000Z</time>
                <name>Trackpoint 7425</name>
            </trkpt>
            <trkpt lat="50.002704" lon="10.5920632">
                <ele>227.0</ele>
                <time>2020-08-22T15:58:00.000Z</time>
                <name>Trackpoint 7426</name>
            </trkpt>
            <trkpt lat="50.0028224" lon="10.5920936">
                <ele>227.0</ele>
                <time>2020-08-22T15:58:02.000Z</time>
                <name>Trackpoint 7427</name>
            </trkpt>
            <trkpt lat="50.0029344" lon="10.5921088">
                <ele>227.0</ele>
                <time>2020-08-22T15:58:04.000Z</time>
                <name>Trackpoint 7428</name>
            </trkpt>
            <trkpt lat="50.0030336" lon="10.5921296">
                <ele>227.0</ele>
                <time>2020-08-22T15:58:06.000Z</time>
                <name>Trackpoint 7429</name>
            </trkpt>
            <trkpt lat="50.0031328" lon="10.592132">
                <ele>227.0</ele>
                <time>2020-08-22T15:58:08.000Z</time>
                <name>Trackpoint 7430</name>
            </trkpt>
            <trkpt lat="50.0032224" lon="10.5921032">
                <ele>227.0</ele>
                <time>2020-08-22T15:58:11.000Z</time>
                <name>Trackpoint 7431</name>
            </trkpt>
            <trkpt lat="50.0033152" lon="10.592132">
                <ele>228.0</ele>
                <time>2020-08-22T15:58:55.000Z</time>
                <name>Trackpoint 7432</name>
            </trkpt>
            <trkpt lat="50.003408" lon="10.592132">
                <ele>228.0</ele>
                <time>2020-08-22T15:58:58.000Z</time>
                <name>Trackpoint 7433</name>
            </trkpt>
            <trkpt lat="50.00352" lon="10.5921296">
                <ele>227.0</ele>
                <time>2020-08-22T15:59:01.000Z</time>
                <name>Trackpoint 7434</name>
            </trkpt>
            <trkpt lat="50.0036064" lon="10.592192">
                <ele>227.0</ele>
                <time>2020-08-22T15:59:03.000Z</time>
                <name>Trackpoint 7435</name>
            </trkpt>
            <trkpt lat="50.0036768" lon="10.5922584">
                <ele>227.0</ele>
                <time>2020-08-22T15:59:05.000Z</time>
                <name>Trackpoint 7436</name>
            </trkpt>
            <trkpt lat="50.0037504" lon="10.5923168">
                <ele>227.0</ele>
                <time>2020-08-22T15:59:07.000Z</time>
                <name>Trackpoint 7437</name>
            </trkpt>
            <trkpt lat="50.0038336" lon="10.5923928">
                <ele>227.0</ele>
                <time>2020-08-22T15:59:09.000Z</time>
                <name>Trackpoint 7438</name>
            </trkpt>
            <trkpt lat="50.0039168" lon="10.5924352">
                <ele>227.0</ele>
                <time>2020-08-22T15:59:11.000Z</time>
                <name>Trackpoint 7439</name>
            </trkpt>
            <trkpt lat="50.0040064" lon="10.5924656">
                <ele>227.0</ele>
                <time>2020-08-22T15:59:14.000Z</time>
                <name>Trackpoint 7440</name>
            </trkpt>
            <trkpt lat="50.004096" lon="10.5924856">
                <ele>226.0</ele>
                <time>2020-08-22T15:59:17.000Z</time>
                <name>Trackpoint 7441</name>
            </trkpt>
            <trkpt lat="50.0041952" lon="10.5925056">
                <ele>226.0</ele>
                <time>2020-08-22T15:59:21.000Z</time>
                <name>Trackpoint 7442</name>
            </trkpt>
            <trkpt lat="50.0042816" lon="10.5925528">
                <ele>226.0</ele>
                <time>2020-08-22T15:59:26.000Z</time>
                <name>Trackpoint 7443</name>
            </trkpt>
            <trkpt lat="50.004352" lon="10.5926136">
                <ele>225.0</ele>
                <time>2020-08-22T15:59:31.000Z</time>
                <name>Trackpoint 7444</name>
            </trkpt>
            <trkpt lat="50.004352" lon="10.5927152">
                <ele>225.0</ele>
                <time>2020-08-22T15:59:35.000Z</time>
                <name>Trackpoint 7445</name>
            </trkpt>
            <trkpt lat="50.0044416" lon="10.5926704">
                <ele>225.0</ele>
                <time>2020-08-22T15:59:41.000Z</time>
                <name>Trackpoint 7446</name>
            </trkpt>
            <trkpt lat="50.0045088" lon="10.5926016">
                <ele>225.0</ele>
                <time>2020-08-22T15:59:44.000Z</time>
                <name>Trackpoint 7447</name>
            </trkpt>
            <trkpt lat="50.004608" lon="10.5926312">
                <ele>224.0</ele>
                <time>2020-08-22T15:59:47.000Z</time>
                <name>Trackpoint 7448</name>
            </trkpt>
            <trkpt lat="50.0046624" lon="10.5927048">
                <ele>224.0</ele>
                <time>2020-08-22T15:59:50.000Z</time>
                <name>Trackpoint 7449</name>
            </trkpt>
            <trkpt lat="50.0046816" lon="10.592796">
                <ele>224.0</ele>
                <time>2020-08-22T15:59:53.000Z</time>
                <name>Trackpoint 7450</name>
            </trkpt>
            <trkpt lat="50.0046624" lon="10.5929">
                <ele>224.0</ele>
                <time>2020-08-22T15:59:56.000Z</time>
                <name>Trackpoint 7451</name>
            </trkpt>
            <trkpt lat="50.0046592" lon="10.5930232">
                <ele>225.0</ele>
                <time>2020-08-22T15:59:59.000Z</time>
                <name>Trackpoint 7452</name>
            </trkpt>
            <trkpt lat="50.0046336" lon="10.5931456">
                <ele>225.0</ele>
                <time>2020-08-22T16:00:02.000Z</time>
                <name>Trackpoint 7453</name>
            </trkpt>
            <trkpt lat="50.0046016" lon="10.5932768">
                <ele>224.0</ele>
                <time>2020-08-22T16:00:05.000Z</time>
                <name>Trackpoint 7454</name>
            </trkpt>
            <trkpt lat="50.0045696" lon="10.5933752">
                <ele>224.0</ele>
                <time>2020-08-22T16:00:07.000Z</time>
                <name>Trackpoint 7455</name>
            </trkpt>
            <trkpt lat="50.0045472" lon="10.5934664">
                <ele>224.0</ele>
                <time>2020-08-22T16:00:09.000Z</time>
                <name>Trackpoint 7456</name>
            </trkpt>
            <trkpt lat="50.0045536" lon="10.5935632">
                <ele>224.0</ele>
                <time>2020-08-22T16:00:12.000Z</time>
                <name>Trackpoint 7457</name>
            </trkpt>
            <trkpt lat="50.0046496" lon="10.5936">
                <ele>225.0</ele>
                <time>2020-08-22T16:00:20.000Z</time>
                <name>Trackpoint 7458</name>
            </trkpt>
            <trkpt lat="50.0047616" lon="10.5936344">
                <ele>225.0</ele>
                <time>2020-08-22T16:00:23.000Z</time>
                <name>Trackpoint 7459</name>
            </trkpt>
            <trkpt lat="50.00488" lon="10.5936672">
                <ele>225.0</ele>
                <time>2020-08-22T16:00:26.000Z</time>
                <name>Trackpoint 7460</name>
            </trkpt>
            <trkpt lat="50.0049856" lon="10.5937208">
                <ele>225.0</ele>
                <time>2020-08-22T16:00:28.000Z</time>
                <name>Trackpoint 7461</name>
            </trkpt>
            <trkpt lat="50.0051008" lon="10.593748">
                <ele>225.0</ele>
                <time>2020-08-22T16:00:31.000Z</time>
                <name>Trackpoint 7462</name>
            </trkpt>
            <trkpt lat="50.0051968" lon="10.5937816">
                <ele>225.0</ele>
                <time>2020-08-22T16:00:33.000Z</time>
                <name>Trackpoint 7463</name>
            </trkpt>
            <trkpt lat="50.0052832" lon="10.593828">
                <ele>225.0</ele>
                <time>2020-08-22T16:00:35.000Z</time>
                <name>Trackpoint 7464</name>
            </trkpt>
            <trkpt lat="50.0053984" lon="10.5938928">
                <ele>224.0</ele>
                <time>2020-08-22T16:00:37.000Z</time>
                <name>Trackpoint 7465</name>
            </trkpt>
            <trkpt lat="50.0055136" lon="10.5939552">
                <ele>224.0</ele>
                <time>2020-08-22T16:00:39.000Z</time>
                <name>Trackpoint 7466</name>
            </trkpt>
            <trkpt lat="50.0056256" lon="10.5940112">
                <ele>224.0</ele>
                <time>2020-08-22T16:00:41.000Z</time>
                <name>Trackpoint 7467</name>
            </trkpt>
            <trkpt lat="50.0057344" lon="10.5940704">
                <ele>224.0</ele>
                <time>2020-08-22T16:00:43.000Z</time>
                <name>Trackpoint 7468</name>
            </trkpt>
            <trkpt lat="50.0058368" lon="10.5941248">
                <ele>224.0</ele>
                <time>2020-08-22T16:00:45.000Z</time>
                <name>Trackpoint 7469</name>
            </trkpt>
            <trkpt lat="50.0059328" lon="10.5941616">
                <ele>224.0</ele>
                <time>2020-08-22T16:00:47.000Z</time>
                <name>Trackpoint 7470</name>
            </trkpt>
            <trkpt lat="50.0060288" lon="10.5941864">
                <ele>224.0</ele>
                <time>2020-08-22T16:00:49.000Z</time>
                <name>Trackpoint 7471</name>
            </trkpt>
            <trkpt lat="50.0061312" lon="10.5942136">
                <ele>224.0</ele>
                <time>2020-08-22T16:00:52.000Z</time>
                <name>Trackpoint 7472</name>
            </trkpt>
            <trkpt lat="50.0062496" lon="10.5942088">
                <ele>225.0</ele>
                <time>2020-08-22T16:01:18.000Z</time>
                <name>Trackpoint 7473</name>
            </trkpt>
            <trkpt lat="50.006352" lon="10.5942">
                <ele>225.0</ele>
                <time>2020-08-22T16:01:22.000Z</time>
                <name>Trackpoint 7474</name>
            </trkpt>
            <trkpt lat="50.0064544" lon="10.5942112">
                <ele>225.0</ele>
                <time>2020-08-22T16:01:25.000Z</time>
                <name>Trackpoint 7475</name>
            </trkpt>
            <trkpt lat="50.0065504" lon="10.5942896">
                <ele>225.0</ele>
                <time>2020-08-22T16:01:28.000Z</time>
                <name>Trackpoint 7476</name>
            </trkpt>
            <trkpt lat="50.0066272" lon="10.5943472">
                <ele>225.0</ele>
                <time>2020-08-22T16:01:30.000Z</time>
                <name>Trackpoint 7477</name>
            </trkpt>
            <trkpt lat="50.0067072" lon="10.5944072">
                <ele>225.0</ele>
                <time>2020-08-22T16:01:32.000Z</time>
                <name>Trackpoint 7478</name>
            </trkpt>
            <trkpt lat="50.0068128" lon="10.5944544">
                <ele>225.0</ele>
                <time>2020-08-22T16:01:35.000Z</time>
                <name>Trackpoint 7479</name>
            </trkpt>
            <trkpt lat="50.0068928" lon="10.5944992">
                <ele>225.0</ele>
                <time>2020-08-22T16:01:38.000Z</time>
                <name>Trackpoint 7480</name>
            </trkpt>
            <trkpt lat="50.0070272" lon="10.5945352">
                <ele>225.0</ele>
                <time>2020-08-22T16:01:41.000Z</time>
                <name>Trackpoint 7481</name>
            </trkpt>
            <trkpt lat="50.0071168" lon="10.5945656">
                <ele>225.0</ele>
                <time>2020-08-22T16:01:43.000Z</time>
                <name>Trackpoint 7482</name>
            </trkpt>
            <trkpt lat="50.0072224" lon="10.5946368">
                <ele>225.0</ele>
                <time>2020-08-22T16:01:46.000Z</time>
                <name>Trackpoint 7483</name>
            </trkpt>
            <trkpt lat="50.0073312" lon="10.5946504">
                <ele>225.0</ele>
                <time>2020-08-22T16:01:48.000Z</time>
                <name>Trackpoint 7484</name>
            </trkpt>
            <trkpt lat="50.0073056" lon="10.5947464">
                <ele>225.0</ele>
                <time>2020-08-22T16:01:51.000Z</time>
                <name>Trackpoint 7485</name>
            </trkpt>
            <trkpt lat="50.0072928" lon="10.5948584">
                <ele>225.0</ele>
                <time>2020-08-22T16:01:53.000Z</time>
                <name>Trackpoint 7486</name>
            </trkpt>
            <trkpt lat="50.007264" lon="10.5949736">
                <ele>225.0</ele>
                <time>2020-08-22T16:01:55.000Z</time>
                <name>Trackpoint 7487</name>
            </trkpt>
            <trkpt lat="50.0072128" lon="10.595132">
                <ele>225.0</ele>
                <time>2020-08-22T16:01:57.000Z</time>
                <name>Trackpoint 7488</name>
            </trkpt>
            <trkpt lat="50.0071968" lon="10.5952264">
                <ele>225.0</ele>
                <time>2020-08-22T16:01:58.000Z</time>
                <name>Trackpoint 7489</name>
            </trkpt>
            <trkpt lat="50.0071456" lon="10.5953776">
                <ele>225.0</ele>
                <time>2020-08-22T16:02:00.000Z</time>
                <name>Trackpoint 7490</name>
            </trkpt>
            <trkpt lat="50.0070816" lon="10.5955288">
                <ele>225.0</ele>
                <time>2020-08-22T16:02:02.000Z</time>
                <name>Trackpoint 7491</name>
            </trkpt>
            <trkpt lat="50.0070176" lon="10.5956736">
                <ele>225.0</ele>
                <time>2020-08-22T16:02:04.000Z</time>
                <name>Trackpoint 7492</name>
            </trkpt>
            <trkpt lat="50.0069664" lon="10.5958032">
                <ele>225.0</ele>
                <time>2020-08-22T16:02:06.000Z</time>
                <name>Trackpoint 7493</name>
            </trkpt>
            <trkpt lat="50.0069344" lon="10.5959232">
                <ele>225.0</ele>
                <time>2020-08-22T16:02:08.000Z</time>
                <name>Trackpoint 7494</name>
            </trkpt>
            <trkpt lat="50.0069312" lon="10.5960664">
                <ele>226.0</ele>
                <time>2020-08-22T16:02:10.000Z</time>
                <name>Trackpoint 7495</name>
            </trkpt>
            <trkpt lat="50.006928" lon="10.5961968">
                <ele>226.0</ele>
                <time>2020-08-22T16:02:12.000Z</time>
                <name>Trackpoint 7496</name>
            </trkpt>
            <trkpt lat="50.0069376" lon="10.5963096">
                <ele>226.0</ele>
                <time>2020-08-22T16:02:14.000Z</time>
                <name>Trackpoint 7497</name>
            </trkpt>
            <trkpt lat="50.0069984" lon="10.596428">
                <ele>225.0</ele>
                <time>2020-08-22T16:02:16.000Z</time>
                <name>Trackpoint 7498</name>
            </trkpt>
            <trkpt lat="50.0070688" lon="10.5965272">
                <ele>225.0</ele>
                <time>2020-08-22T16:02:18.000Z</time>
                <name>Trackpoint 7499</name>
            </trkpt>
            <trkpt lat="50.0071328" lon="10.596608">
                <ele>225.0</ele>
                <time>2020-08-22T16:02:20.000Z</time>
                <name>Trackpoint 7500</name>
            </trkpt>
            <trkpt lat="50.0071904" lon="10.5966784">
                <ele>226.0</ele>
                <time>2020-08-22T16:02:22.000Z</time>
                <name>Trackpoint 7501</name>
            </trkpt>
            <trkpt lat="50.0072448" lon="10.5967776">
                <ele>226.0</ele>
                <time>2020-08-22T16:02:25.000Z</time>
                <name>Trackpoint 7502</name>
            </trkpt>
            <trkpt lat="50.0073312" lon="10.596884">
                <ele>226.0</ele>
                <time>2020-08-22T16:02:27.000Z</time>
                <name>Trackpoint 7503</name>
            </trkpt>
            <trkpt lat="50.0074016" lon="10.5969632">
                <ele>226.0</ele>
                <time>2020-08-22T16:02:30.000Z</time>
                <name>Trackpoint 7504</name>
            </trkpt>
            <trkpt lat="50.0074944" lon="10.5969136">
                <ele>225.0</ele>
                <time>2020-08-22T16:02:46.000Z</time>
                <name>Trackpoint 7505</name>
            </trkpt>
            <trkpt lat="50.0075328" lon="10.5967904">
                <ele>225.0</ele>
                <time>2020-08-22T16:02:49.000Z</time>
                <name>Trackpoint 7506</name>
            </trkpt>
            <trkpt lat="50.0075488" lon="10.5966664">
                <ele>225.0</ele>
                <time>2020-08-22T16:02:52.000Z</time>
                <name>Trackpoint 7507</name>
            </trkpt>
            <trkpt lat="50.0075744" lon="10.5965704">
                <ele>225.0</ele>
                <time>2020-08-22T16:02:54.000Z</time>
                <name>Trackpoint 7508</name>
            </trkpt>
            <trkpt lat="50.0076064" lon="10.5964848">
                <ele>225.0</ele>
                <time>2020-08-22T16:02:56.000Z</time>
                <name>Trackpoint 7509</name>
            </trkpt>
            <trkpt lat="50.007664" lon="10.5963896">
                <ele>225.0</ele>
                <time>2020-08-22T16:02:58.000Z</time>
                <name>Trackpoint 7510</name>
            </trkpt>
            <trkpt lat="50.0077504" lon="10.5962552">
                <ele>225.0</ele>
                <time>2020-08-22T16:03:00.000Z</time>
                <name>Trackpoint 7511</name>
            </trkpt>
            <trkpt lat="50.007824" lon="10.5961584">
                <ele>225.0</ele>
                <time>2020-08-22T16:03:01.000Z</time>
                <name>Trackpoint 7512</name>
            </trkpt>
            <trkpt lat="50.0078816" lon="10.5960864">
                <ele>225.0</ele>
                <time>2020-08-22T16:03:02.000Z</time>
                <name>Trackpoint 7513</name>
            </trkpt>
            <trkpt lat="50.0079488" lon="10.5960232">
                <ele>225.0</ele>
                <time>2020-08-22T16:03:03.000Z</time>
                <name>Trackpoint 7514</name>
            </trkpt>
            <trkpt lat="50.0080416" lon="10.5959152">
                <ele>225.0</ele>
                <time>2020-08-22T16:03:05.000Z</time>
                <name>Trackpoint 7515</name>
            </trkpt>
            <trkpt lat="50.0081152" lon="10.5958072">
                <ele>225.0</ele>
                <time>2020-08-22T16:03:06.000Z</time>
                <name>Trackpoint 7516</name>
            </trkpt>
            <trkpt lat="50.0081792" lon="10.5956584">
                <ele>225.0</ele>
                <time>2020-08-22T16:03:08.000Z</time>
                <name>Trackpoint 7517</name>
            </trkpt>
            <trkpt lat="50.0082496" lon="10.5955384">
                <ele>225.0</ele>
                <time>2020-08-22T16:03:10.000Z</time>
                <name>Trackpoint 7518</name>
            </trkpt>
            <trkpt lat="50.0083456" lon="10.5954104">
                <ele>225.0</ele>
                <time>2020-08-22T16:03:12.000Z</time>
                <name>Trackpoint 7519</name>
            </trkpt>
            <trkpt lat="50.0084352" lon="10.5952984">
                <ele>225.0</ele>
                <time>2020-08-22T16:03:14.000Z</time>
                <name>Trackpoint 7520</name>
            </trkpt>
            <trkpt lat="50.0085408" lon="10.5951856">
                <ele>225.0</ele>
                <time>2020-08-22T16:03:16.000Z</time>
                <name>Trackpoint 7521</name>
            </trkpt>
            <trkpt lat="50.0086624" lon="10.5951096">
                <ele>226.0</ele>
                <time>2020-08-22T16:03:18.000Z</time>
                <name>Trackpoint 7522</name>
            </trkpt>
            <trkpt lat="50.0087712" lon="10.5950536">
                <ele>226.0</ele>
                <time>2020-08-22T16:03:20.000Z</time>
                <name>Trackpoint 7523</name>
            </trkpt>
            <trkpt lat="50.008864" lon="10.5950184">
                <ele>226.0</ele>
                <time>2020-08-22T16:03:22.000Z</time>
                <name>Trackpoint 7524</name>
            </trkpt>
            <trkpt lat="50.0089696" lon="10.59498">
                <ele>226.0</ele>
                <time>2020-08-22T16:03:24.000Z</time>
                <name>Trackpoint 7525</name>
            </trkpt>
            <trkpt lat="50.0090432" lon="10.5949272">
                <ele>226.0</ele>
                <time>2020-08-22T16:03:26.000Z</time>
                <name>Trackpoint 7526</name>
            </trkpt>
            <trkpt lat="50.0091584" lon="10.5948736">
                <ele>226.0</ele>
                <time>2020-08-22T16:03:29.000Z</time>
                <name>Trackpoint 7527</name>
            </trkpt>
            <trkpt lat="50.0092672" lon="10.5948584">
                <ele>226.0</ele>
                <time>2020-08-22T16:03:32.000Z</time>
                <name>Trackpoint 7528</name>
            </trkpt>
            <trkpt lat="50.0093472" lon="10.5948048">
                <ele>226.0</ele>
                <time>2020-08-22T16:03:35.000Z</time>
                <name>Trackpoint 7529</name>
            </trkpt>
            <trkpt lat="50.0094496" lon="10.5947504">
                <ele>226.0</ele>
                <time>2020-08-22T16:03:38.000Z</time>
                <name>Trackpoint 7530</name>
            </trkpt>
            <trkpt lat="50.0095584" lon="10.5947048">
                <ele>226.0</ele>
                <time>2020-08-22T16:03:42.000Z</time>
                <name>Trackpoint 7531</name>
            </trkpt>
            <trkpt lat="50.0096256" lon="10.5946256">
                <ele>227.0</ele>
                <time>2020-08-22T16:04:00.000Z</time>
                <name>Trackpoint 7532</name>
            </trkpt>
            <trkpt lat="50.0097152" lon="10.5945928">
                <ele>227.0</ele>
                <time>2020-08-22T16:04:04.000Z</time>
                <name>Trackpoint 7533</name>
            </trkpt>
            <trkpt lat="50.0097664" lon="10.5945128">
                <ele>227.0</ele>
                <time>2020-08-22T16:04:09.000Z</time>
                <name>Trackpoint 7534</name>
            </trkpt>
            <trkpt lat="50.009776" lon="10.5944216">
                <ele>227.0</ele>
                <time>2020-08-22T16:04:11.000Z</time>
                <name>Trackpoint 7535</name>
            </trkpt>
            <trkpt lat="50.0097888" lon="10.5943232">
                <ele>227.0</ele>
                <time>2020-08-22T16:04:13.000Z</time>
                <name>Trackpoint 7536</name>
            </trkpt>
            <trkpt lat="50.0098048" lon="10.5942">
                <ele>227.0</ele>
                <time>2020-08-22T16:04:15.000Z</time>
                <name>Trackpoint 7537</name>
            </trkpt>
            <trkpt lat="50.0098144" lon="10.59408">
                <ele>227.0</ele>
                <time>2020-08-22T16:04:17.000Z</time>
                <name>Trackpoint 7538</name>
            </trkpt>
            <trkpt lat="50.0098496" lon="10.593968">
                <ele>227.0</ele>
                <time>2020-08-22T16:04:19.000Z</time>
                <name>Trackpoint 7539</name>
            </trkpt>
            <trkpt lat="50.0098976" lon="10.593852">
                <ele>227.0</ele>
                <time>2020-08-22T16:04:22.000Z</time>
                <name>Trackpoint 7540</name>
            </trkpt>
            <trkpt lat="50.0099744" lon="10.5937616">
                <ele>228.0</ele>
                <time>2020-08-22T16:04:24.000Z</time>
                <name>Trackpoint 7541</name>
            </trkpt>
            <trkpt lat="50.0100128" lon="10.5936144">
                <ele>227.0</ele>
                <time>2020-08-22T16:04:26.000Z</time>
                <name>Trackpoint 7542</name>
            </trkpt>
            <trkpt lat="50.0100512" lon="10.5935096">
                <ele>228.0</ele>
                <time>2020-08-22T16:04:28.000Z</time>
                <name>Trackpoint 7543</name>
            </trkpt>
            <trkpt lat="50.010144" lon="10.5934512">
                <ele>228.0</ele>
                <time>2020-08-22T16:04:29.000Z</time>
                <name>Trackpoint 7544</name>
            </trkpt>
            <trkpt lat="50.010208" lon="10.5933416">
                <ele>228.0</ele>
                <time>2020-08-22T16:04:31.000Z</time>
                <name>Trackpoint 7545</name>
            </trkpt>
            <trkpt lat="50.0102496" lon="10.5932416">
                <ele>228.0</ele>
                <time>2020-08-22T16:04:34.000Z</time>
                <name>Trackpoint 7546</name>
            </trkpt>
            <trkpt lat="50.0103072" lon="10.5931432">
                <ele>228.0</ele>
                <time>2020-08-22T16:04:39.000Z</time>
                <name>Trackpoint 7547</name>
            </trkpt>
            <trkpt lat="50.0103584" lon="10.5930544">
                <ele>229.0</ele>
                <time>2020-08-22T16:04:56.000Z</time>
                <name>Trackpoint 7548</name>
            </trkpt>
            <trkpt lat="50.0104192" lon="10.5929368">
                <ele>229.0</ele>
                <time>2020-08-22T16:04:59.000Z</time>
                <name>Trackpoint 7549</name>
            </trkpt>
            <trkpt lat="50.0104704" lon="10.5928184">
                <ele>229.0</ele>
                <time>2020-08-22T16:05:01.000Z</time>
                <name>Trackpoint 7550</name>
            </trkpt>
            <trkpt lat="50.0105312" lon="10.5927232">
                <ele>229.0</ele>
                <time>2020-08-22T16:05:03.000Z</time>
                <name>Trackpoint 7551</name>
            </trkpt>
            <trkpt lat="50.0106048" lon="10.5926104">
                <ele>229.0</ele>
                <time>2020-08-22T16:05:05.000Z</time>
                <name>Trackpoint 7552</name>
            </trkpt>
            <trkpt lat="50.0106624" lon="10.5924864">
                <ele>229.0</ele>
                <time>2020-08-22T16:05:07.000Z</time>
                <name>Trackpoint 7553</name>
            </trkpt>
            <trkpt lat="50.010736" lon="10.5923592">
                <ele>229.0</ele>
                <time>2020-08-22T16:05:09.000Z</time>
                <name>Trackpoint 7554</name>
            </trkpt>
            <trkpt lat="50.0108" lon="10.5922272">
                <ele>229.0</ele>
                <time>2020-08-22T16:05:11.000Z</time>
                <name>Trackpoint 7555</name>
            </trkpt>
            <trkpt lat="50.0108704" lon="10.592096">
                <ele>229.0</ele>
                <time>2020-08-22T16:05:13.000Z</time>
                <name>Trackpoint 7556</name>
            </trkpt>
            <trkpt lat="50.0109376" lon="10.5919688">
                <ele>229.0</ele>
                <time>2020-08-22T16:05:15.000Z</time>
                <name>Trackpoint 7557</name>
            </trkpt>
            <trkpt lat="50.0110048" lon="10.5918192">
                <ele>229.0</ele>
                <time>2020-08-22T16:05:17.000Z</time>
                <name>Trackpoint 7558</name>
            </trkpt>
            <trkpt lat="50.0110784" lon="10.5916752">
                <ele>229.0</ele>
                <time>2020-08-22T16:05:19.000Z</time>
                <name>Trackpoint 7559</name>
            </trkpt>
            <trkpt lat="50.01112" lon="10.5915944">
                <ele>229.0</ele>
                <time>2020-08-22T16:05:20.000Z</time>
                <name>Trackpoint 7560</name>
            </trkpt>
            <trkpt lat="50.0112064" lon="10.5914496">
                <ele>229.0</ele>
                <time>2020-08-22T16:05:22.000Z</time>
                <name>Trackpoint 7561</name>
            </trkpt>
            <trkpt lat="50.0112864" lon="10.5913016">
                <ele>229.0</ele>
                <time>2020-08-22T16:05:24.000Z</time>
                <name>Trackpoint 7562</name>
            </trkpt>
            <trkpt lat="50.0113728" lon="10.5911464">
                <ele>229.0</ele>
                <time>2020-08-22T16:05:26.000Z</time>
                <name>Trackpoint 7563</name>
            </trkpt>
            <trkpt lat="50.0114112" lon="10.5910616">
                <ele>229.0</ele>
                <time>2020-08-22T16:05:27.000Z</time>
                <name>Trackpoint 7564</name>
            </trkpt>
            <trkpt lat="50.011472" lon="10.590972">
                <ele>229.0</ele>
                <time>2020-08-22T16:05:28.000Z</time>
                <name>Trackpoint 7565</name>
            </trkpt>
            <trkpt lat="50.0115168" lon="10.5908816">
                <ele>229.0</ele>
                <time>2020-08-22T16:05:29.000Z</time>
                <name>Trackpoint 7566</name>
            </trkpt>
            <trkpt lat="50.0115584" lon="10.5908">
                <ele>229.0</ele>
                <time>2020-08-22T16:05:30.000Z</time>
                <name>Trackpoint 7567</name>
            </trkpt>
            <trkpt lat="50.0116" lon="10.5907088">
                <ele>229.0</ele>
                <time>2020-08-22T16:05:31.000Z</time>
                <name>Trackpoint 7568</name>
            </trkpt>
            <trkpt lat="50.0116512" lon="10.5906152">
                <ele>229.0</ele>
                <time>2020-08-22T16:05:32.000Z</time>
                <name>Trackpoint 7569</name>
            </trkpt>
            <trkpt lat="50.0116992" lon="10.5905248">
                <ele>229.0</ele>
                <time>2020-08-22T16:05:33.000Z</time>
                <name>Trackpoint 7570</name>
            </trkpt>
            <trkpt lat="50.0117504" lon="10.5904376">
                <ele>229.0</ele>
                <time>2020-08-22T16:05:34.000Z</time>
                <name>Trackpoint 7571</name>
            </trkpt>
            <trkpt lat="50.0118016" lon="10.590352">
                <ele>229.0</ele>
                <time>2020-08-22T16:05:35.000Z</time>
                <name>Trackpoint 7572</name>
            </trkpt>
            <trkpt lat="50.0118432" lon="10.5902664">
                <ele>229.0</ele>
                <time>2020-08-22T16:05:36.000Z</time>
                <name>Trackpoint 7573</name>
            </trkpt>
            <trkpt lat="50.0118912" lon="10.5901816">
                <ele>229.0</ele>
                <time>2020-08-22T16:05:37.000Z</time>
                <name>Trackpoint 7574</name>
            </trkpt>
            <trkpt lat="50.011936" lon="10.5900936">
                <ele>229.0</ele>
                <time>2020-08-22T16:05:38.000Z</time>
                <name>Trackpoint 7575</name>
            </trkpt>
            <trkpt lat="50.0119776" lon="10.5900096">
                <ele>229.0</ele>
                <time>2020-08-22T16:05:39.000Z</time>
                <name>Trackpoint 7576</name>
            </trkpt>
            <trkpt lat="50.0120224" lon="10.5899248">
                <ele>229.0</ele>
                <time>2020-08-22T16:05:40.000Z</time>
                <name>Trackpoint 7577</name>
            </trkpt>
            <trkpt lat="50.0120704" lon="10.5898464">
                <ele>229.0</ele>
                <time>2020-08-22T16:05:41.000Z</time>
                <name>Trackpoint 7578</name>
            </trkpt>
            <trkpt lat="50.012112" lon="10.58976">
                <ele>229.0</ele>
                <time>2020-08-22T16:05:42.000Z</time>
                <name>Trackpoint 7579</name>
            </trkpt>
            <trkpt lat="50.0121952" lon="10.5896032">
                <ele>229.0</ele>
                <time>2020-08-22T16:05:44.000Z</time>
                <name>Trackpoint 7580</name>
            </trkpt>
            <trkpt lat="50.0122464" lon="10.5895256">
                <ele>229.0</ele>
                <time>2020-08-22T16:05:45.000Z</time>
                <name>Trackpoint 7581</name>
            </trkpt>
            <trkpt lat="50.0123328" lon="10.5893648">
                <ele>228.0</ele>
                <time>2020-08-22T16:05:47.000Z</time>
                <name>Trackpoint 7582</name>
            </trkpt>
            <trkpt lat="50.0123776" lon="10.5892832">
                <ele>228.0</ele>
                <time>2020-08-22T16:05:48.000Z</time>
                <name>Trackpoint 7583</name>
            </trkpt>
            <trkpt lat="50.0124256" lon="10.5892048">
                <ele>228.0</ele>
                <time>2020-08-22T16:05:49.000Z</time>
                <name>Trackpoint 7584</name>
            </trkpt>
            <trkpt lat="50.0124704" lon="10.5891248">
                <ele>228.0</ele>
                <time>2020-08-22T16:05:50.000Z</time>
                <name>Trackpoint 7585</name>
            </trkpt>
            <trkpt lat="50.0125184" lon="10.5890448">
                <ele>227.0</ele>
                <time>2020-08-22T16:05:51.000Z</time>
                <name>Trackpoint 7586</name>
            </trkpt>
            <trkpt lat="50.0125632" lon="10.5889656">
                <ele>227.0</ele>
                <time>2020-08-22T16:05:52.000Z</time>
                <name>Trackpoint 7587</name>
            </trkpt>
            <trkpt lat="50.0126112" lon="10.5888816">
                <ele>227.0</ele>
                <time>2020-08-22T16:05:53.000Z</time>
                <name>Trackpoint 7588</name>
            </trkpt>
            <trkpt lat="50.012656" lon="10.5887984">
                <ele>227.0</ele>
                <time>2020-08-22T16:05:54.000Z</time>
                <name>Trackpoint 7589</name>
            </trkpt>
            <trkpt lat="50.012704" lon="10.5887144">
                <ele>227.0</ele>
                <time>2020-08-22T16:05:55.000Z</time>
                <name>Trackpoint 7590</name>
            </trkpt>
            <trkpt lat="50.0127488" lon="10.5886296">
                <ele>226.0</ele>
                <time>2020-08-22T16:05:56.000Z</time>
                <name>Trackpoint 7591</name>
            </trkpt>
            <trkpt lat="50.0127936" lon="10.5885448">
                <ele>226.0</ele>
                <time>2020-08-22T16:05:57.000Z</time>
                <name>Trackpoint 7592</name>
            </trkpt>
            <trkpt lat="50.0128416" lon="10.58846">
                <ele>226.0</ele>
                <time>2020-08-22T16:05:58.000Z</time>
                <name>Trackpoint 7593</name>
            </trkpt>
            <trkpt lat="50.0128896" lon="10.5883752">
                <ele>226.0</ele>
                <time>2020-08-22T16:05:59.000Z</time>
                <name>Trackpoint 7594</name>
            </trkpt>
            <trkpt lat="50.0129408" lon="10.588292">
                <ele>226.0</ele>
                <time>2020-08-22T16:06:00.000Z</time>
                <name>Trackpoint 7595</name>
            </trkpt>
            <trkpt lat="50.0129888" lon="10.5882032">
                <ele>226.0</ele>
                <time>2020-08-22T16:06:01.000Z</time>
                <name>Trackpoint 7596</name>
            </trkpt>
            <trkpt lat="50.01304" lon="10.5881168">
                <ele>226.0</ele>
                <time>2020-08-22T16:06:02.000Z</time>
                <name>Trackpoint 7597</name>
            </trkpt>
            <trkpt lat="50.013088" lon="10.588028">
                <ele>226.0</ele>
                <time>2020-08-22T16:06:03.000Z</time>
                <name>Trackpoint 7598</name>
            </trkpt>
            <trkpt lat="50.0131392" lon="10.5879384">
                <ele>226.0</ele>
                <time>2020-08-22T16:06:04.000Z</time>
                <name>Trackpoint 7599</name>
            </trkpt>
            <trkpt lat="50.0131872" lon="10.5878512">
                <ele>226.0</ele>
                <time>2020-08-22T16:06:05.000Z</time>
                <name>Trackpoint 7600</name>
            </trkpt>
            <trkpt lat="50.013232" lon="10.5877664">
                <ele>226.0</ele>
                <time>2020-08-22T16:06:06.000Z</time>
                <name>Trackpoint 7601</name>
            </trkpt>
            <trkpt lat="50.0132832" lon="10.5876816">
                <ele>226.0</ele>
                <time>2020-08-22T16:06:07.000Z</time>
                <name>Trackpoint 7602</name>
            </trkpt>
            <trkpt lat="50.013328" lon="10.5876016">
                <ele>226.0</ele>
                <time>2020-08-22T16:06:08.000Z</time>
                <name>Trackpoint 7603</name>
            </trkpt>
            <trkpt lat="50.0133792" lon="10.5875216">
                <ele>226.0</ele>
                <time>2020-08-22T16:06:09.000Z</time>
                <name>Trackpoint 7604</name>
            </trkpt>
            <trkpt lat="50.0134208" lon="10.5874392">
                <ele>227.0</ele>
                <time>2020-08-22T16:06:10.000Z</time>
                <name>Trackpoint 7605</name>
            </trkpt>
            <trkpt lat="50.013504" lon="10.5873016">
                <ele>227.0</ele>
                <time>2020-08-22T16:06:12.000Z</time>
                <name>Trackpoint 7606</name>
            </trkpt>
            <trkpt lat="50.0135968" lon="10.5872088">
                <ele>227.0</ele>
                <time>2020-08-22T16:06:14.000Z</time>
                <name>Trackpoint 7607</name>
            </trkpt>
            <trkpt lat="50.0136864" lon="10.5871384">
                <ele>228.0</ele>
                <time>2020-08-22T16:06:16.000Z</time>
                <name>Trackpoint 7608</name>
            </trkpt>
            <trkpt lat="50.0137504" lon="10.5870352">
                <ele>228.0</ele>
                <time>2020-08-22T16:06:18.000Z</time>
                <name>Trackpoint 7609</name>
            </trkpt>
            <trkpt lat="50.0138016" lon="10.5869152">
                <ele>228.0</ele>
                <time>2020-08-22T16:06:20.000Z</time>
                <name>Trackpoint 7610</name>
            </trkpt>
            <trkpt lat="50.0138496" lon="10.5867832">
                <ele>228.0</ele>
                <time>2020-08-22T16:06:22.000Z</time>
                <name>Trackpoint 7611</name>
            </trkpt>
            <trkpt lat="50.013904" lon="10.586648">
                <ele>228.0</ele>
                <time>2020-08-22T16:06:24.000Z</time>
                <name>Trackpoint 7612</name>
            </trkpt>
            <trkpt lat="50.0139744" lon="10.58652">
                <ele>228.0</ele>
                <time>2020-08-22T16:06:26.000Z</time>
                <name>Trackpoint 7613</name>
            </trkpt>
            <trkpt lat="50.0140416" lon="10.5863912">
                <ele>228.0</ele>
                <time>2020-08-22T16:06:28.000Z</time>
                <name>Trackpoint 7614</name>
            </trkpt>
            <trkpt lat="50.0141024" lon="10.5862512">
                <ele>228.0</ele>
                <time>2020-08-22T16:06:30.000Z</time>
                <name>Trackpoint 7615</name>
            </trkpt>
            <trkpt lat="50.0141728" lon="10.5861">
                <ele>228.0</ele>
                <time>2020-08-22T16:06:32.000Z</time>
                <name>Trackpoint 7616</name>
            </trkpt>
            <trkpt lat="50.0142368" lon="10.5859384">
                <ele>228.0</ele>
                <time>2020-08-22T16:06:34.000Z</time>
                <name>Trackpoint 7617</name>
            </trkpt>
            <trkpt lat="50.0143008" lon="10.5857736">
                <ele>229.0</ele>
                <time>2020-08-22T16:06:36.000Z</time>
                <name>Trackpoint 7618</name>
            </trkpt>
            <trkpt lat="50.0143328" lon="10.5856888">
                <ele>229.0</ele>
                <time>2020-08-22T16:06:37.000Z</time>
                <name>Trackpoint 7619</name>
            </trkpt>
            <trkpt lat="50.0144032" lon="10.5855248">
                <ele>228.0</ele>
                <time>2020-08-22T16:06:39.000Z</time>
                <name>Trackpoint 7620</name>
            </trkpt>
            <trkpt lat="50.014464" lon="10.5853632">
                <ele>228.0</ele>
                <time>2020-08-22T16:06:41.000Z</time>
                <name>Trackpoint 7621</name>
            </trkpt>
            <trkpt lat="50.0145408" lon="10.585208">
                <ele>227.0</ele>
                <time>2020-08-22T16:06:43.000Z</time>
                <name>Trackpoint 7622</name>
            </trkpt>
            <trkpt lat="50.014608" lon="10.585036">
                <ele>227.0</ele>
                <time>2020-08-22T16:06:45.000Z</time>
                <name>Trackpoint 7623</name>
            </trkpt>
            <trkpt lat="50.01464" lon="10.5849504">
                <ele>226.0</ele>
                <time>2020-08-22T16:06:46.000Z</time>
                <name>Trackpoint 7624</name>
            </trkpt>
            <trkpt lat="50.0146752" lon="10.584864">
                <ele>225.0</ele>
                <time>2020-08-22T16:06:47.000Z</time>
                <name>Trackpoint 7625</name>
            </trkpt>
            <trkpt lat="50.0147072" lon="10.5847752">
                <ele>225.0</ele>
                <time>2020-08-22T16:06:48.000Z</time>
                <name>Trackpoint 7626</name>
            </trkpt>
            <trkpt lat="50.014768" lon="10.5846056">
                <ele>225.0</ele>
                <time>2020-08-22T16:06:50.000Z</time>
                <name>Trackpoint 7627</name>
            </trkpt>
            <trkpt lat="50.0148128" lon="10.5844424">
                <ele>225.0</ele>
                <time>2020-08-22T16:06:52.000Z</time>
                <name>Trackpoint 7628</name>
            </trkpt>
            <trkpt lat="50.0148704" lon="10.5842752">
                <ele>225.0</ele>
                <time>2020-08-22T16:06:54.000Z</time>
                <name>Trackpoint 7629</name>
            </trkpt>
            <trkpt lat="50.014928" lon="10.5841">
                <ele>224.0</ele>
                <time>2020-08-22T16:06:56.000Z</time>
                <name>Trackpoint 7630</name>
            </trkpt>
            <trkpt lat="50.0149504" lon="10.584012">
                <ele>224.0</ele>
                <time>2020-08-22T16:06:57.000Z</time>
                <name>Trackpoint 7631</name>
            </trkpt>
            <trkpt lat="50.0150048" lon="10.5838472">
                <ele>224.0</ele>
                <time>2020-08-22T16:06:59.000Z</time>
                <name>Trackpoint 7632</name>
            </trkpt>
            <trkpt lat="50.0150496" lon="10.583676">
                <ele>225.0</ele>
                <time>2020-08-22T16:07:01.000Z</time>
                <name>Trackpoint 7633</name>
            </trkpt>
            <trkpt lat="50.0150912" lon="10.5835104">
                <ele>225.0</ele>
                <time>2020-08-22T16:07:03.000Z</time>
                <name>Trackpoint 7634</name>
            </trkpt>
            <trkpt lat="50.0151392" lon="10.583348">
                <ele>225.0</ele>
                <time>2020-08-22T16:07:05.000Z</time>
                <name>Trackpoint 7635</name>
            </trkpt>
            <trkpt lat="50.015184" lon="10.583188">
                <ele>226.0</ele>
                <time>2020-08-22T16:07:07.000Z</time>
                <name>Trackpoint 7636</name>
            </trkpt>
            <trkpt lat="50.0152384" lon="10.583032">
                <ele>225.0</ele>
                <time>2020-08-22T16:07:09.000Z</time>
                <name>Trackpoint 7637</name>
            </trkpt>
            <trkpt lat="50.0152864" lon="10.5828752">
                <ele>225.0</ele>
                <time>2020-08-22T16:07:11.000Z</time>
                <name>Trackpoint 7638</name>
            </trkpt>
            <trkpt lat="50.0153344" lon="10.5827248">
                <ele>224.0</ele>
                <time>2020-08-22T16:07:13.000Z</time>
                <name>Trackpoint 7639</name>
            </trkpt>
            <trkpt lat="50.0153856" lon="10.5825752">
                <ele>224.0</ele>
                <time>2020-08-22T16:07:15.000Z</time>
                <name>Trackpoint 7640</name>
            </trkpt>
            <trkpt lat="50.0154368" lon="10.5824344">
                <ele>224.0</ele>
                <time>2020-08-22T16:07:17.000Z</time>
                <name>Trackpoint 7641</name>
            </trkpt>
            <trkpt lat="50.0154816" lon="10.5822888">
                <ele>224.0</ele>
                <time>2020-08-22T16:07:19.000Z</time>
                <name>Trackpoint 7642</name>
            </trkpt>
            <trkpt lat="50.0155168" lon="10.58214">
                <ele>225.0</ele>
                <time>2020-08-22T16:07:21.000Z</time>
                <name>Trackpoint 7643</name>
            </trkpt>
            <trkpt lat="50.0155616" lon="10.5819968">
                <ele>225.0</ele>
                <time>2020-08-22T16:07:23.000Z</time>
                <name>Trackpoint 7644</name>
            </trkpt>
            <trkpt lat="50.0155968" lon="10.5818504">
                <ele>226.0</ele>
                <time>2020-08-22T16:07:25.000Z</time>
                <name>Trackpoint 7645</name>
            </trkpt>
            <trkpt lat="50.0156448" lon="10.5817072">
                <ele>225.0</ele>
                <time>2020-08-22T16:07:27.000Z</time>
                <name>Trackpoint 7646</name>
            </trkpt>
            <trkpt lat="50.0156864" lon="10.5815552">
                <ele>226.0</ele>
                <time>2020-08-22T16:07:29.000Z</time>
                <name>Trackpoint 7647</name>
            </trkpt>
            <trkpt lat="50.0157312" lon="10.5814112">
                <ele>226.0</ele>
                <time>2020-08-22T16:07:31.000Z</time>
                <name>Trackpoint 7648</name>
            </trkpt>
            <trkpt lat="50.0157824" lon="10.5812664">
                <ele>226.0</ele>
                <time>2020-08-22T16:07:33.000Z</time>
                <name>Trackpoint 7649</name>
            </trkpt>
            <trkpt lat="50.0158304" lon="10.5811144">
                <ele>226.0</ele>
                <time>2020-08-22T16:07:35.000Z</time>
                <name>Trackpoint 7650</name>
            </trkpt>
            <trkpt lat="50.015888" lon="10.580968">
                <ele>225.0</ele>
                <time>2020-08-22T16:07:37.000Z</time>
                <name>Trackpoint 7651</name>
            </trkpt>
            <trkpt lat="50.0159392" lon="10.5808184">
                <ele>225.0</ele>
                <time>2020-08-22T16:07:39.000Z</time>
                <name>Trackpoint 7652</name>
            </trkpt>
            <trkpt lat="50.0159808" lon="10.5806664">
                <ele>225.0</ele>
                <time>2020-08-22T16:07:41.000Z</time>
                <name>Trackpoint 7653</name>
            </trkpt>
            <trkpt lat="50.0160224" lon="10.5805168">
                <ele>226.0</ele>
                <time>2020-08-22T16:07:43.000Z</time>
                <name>Trackpoint 7654</name>
            </trkpt>
            <trkpt lat="50.0160672" lon="10.5803816">
                <ele>226.0</ele>
                <time>2020-08-22T16:07:45.000Z</time>
                <name>Trackpoint 7655</name>
            </trkpt>
            <trkpt lat="50.0161088" lon="10.5802432">
                <ele>227.0</ele>
                <time>2020-08-22T16:07:47.000Z</time>
                <name>Trackpoint 7656</name>
            </trkpt>
            <trkpt lat="50.01616" lon="10.5801">
                <ele>226.0</ele>
                <time>2020-08-22T16:07:49.000Z</time>
                <name>Trackpoint 7657</name>
            </trkpt>
            <trkpt lat="50.0162048" lon="10.5799576">
                <ele>226.0</ele>
                <time>2020-08-22T16:07:51.000Z</time>
                <name>Trackpoint 7658</name>
            </trkpt>
            <trkpt lat="50.0162464" lon="10.5798216">
                <ele>225.0</ele>
                <time>2020-08-22T16:07:53.000Z</time>
                <name>Trackpoint 7659</name>
            </trkpt>
            <trkpt lat="50.0163008" lon="10.5797144">
                <ele>225.0</ele>
                <time>2020-08-22T16:07:55.000Z</time>
                <name>Trackpoint 7660</name>
            </trkpt>
            <trkpt lat="50.0163648" lon="10.57964">
                <ele>226.0</ele>
                <time>2020-08-22T16:07:57.000Z</time>
                <name>Trackpoint 7661</name>
            </trkpt>
            <trkpt lat="50.0164416" lon="10.5795816">
                <ele>226.0</ele>
                <time>2020-08-22T16:07:59.000Z</time>
                <name>Trackpoint 7662</name>
            </trkpt>
            <trkpt lat="50.0165024" lon="10.5794832">
                <ele>227.0</ele>
                <time>2020-08-22T16:08:01.000Z</time>
                <name>Trackpoint 7663</name>
            </trkpt>
            <trkpt lat="50.016544" lon="10.5793688">
                <ele>227.0</ele>
                <time>2020-08-22T16:08:03.000Z</time>
                <name>Trackpoint 7664</name>
            </trkpt>
            <trkpt lat="50.0165664" lon="10.579244">
                <ele>228.0</ele>
                <time>2020-08-22T16:08:05.000Z</time>
                <name>Trackpoint 7665</name>
            </trkpt>
            <trkpt lat="50.0165664" lon="10.579112">
                <ele>228.0</ele>
                <time>2020-08-22T16:08:07.000Z</time>
                <name>Trackpoint 7666</name>
            </trkpt>
            <trkpt lat="50.0165568" lon="10.5789616">
                <ele>227.0</ele>
                <time>2020-08-22T16:08:09.000Z</time>
                <name>Trackpoint 7667</name>
            </trkpt>
            <trkpt lat="50.0165696" lon="10.5788088">
                <ele>227.0</ele>
                <time>2020-08-22T16:08:11.000Z</time>
                <name>Trackpoint 7668</name>
            </trkpt>
            <trkpt lat="50.0166144" lon="10.5786616">
                <ele>226.0</ele>
                <time>2020-08-22T16:08:13.000Z</time>
                <name>Trackpoint 7669</name>
            </trkpt>
            <trkpt lat="50.016656" lon="10.57852">
                <ele>226.0</ele>
                <time>2020-08-22T16:08:15.000Z</time>
                <name>Trackpoint 7670</name>
            </trkpt>
            <trkpt lat="50.0167008" lon="10.5783816">
                <ele>226.0</ele>
                <time>2020-08-22T16:08:17.000Z</time>
                <name>Trackpoint 7671</name>
            </trkpt>
            <trkpt lat="50.0167456" lon="10.5782448">
                <ele>226.0</ele>
                <time>2020-08-22T16:08:19.000Z</time>
                <name>Trackpoint 7672</name>
            </trkpt>
            <trkpt lat="50.0167968" lon="10.5781096">
                <ele>226.0</ele>
                <time>2020-08-22T16:08:21.000Z</time>
                <name>Trackpoint 7673</name>
            </trkpt>
            <trkpt lat="50.016848" lon="10.5779888">
                <ele>226.0</ele>
                <time>2020-08-22T16:08:23.000Z</time>
                <name>Trackpoint 7674</name>
            </trkpt>
            <trkpt lat="50.016896" lon="10.5778552">
                <ele>225.0</ele>
                <time>2020-08-22T16:08:25.000Z</time>
                <name>Trackpoint 7675</name>
            </trkpt>
            <trkpt lat="50.0169472" lon="10.5777168">
                <ele>225.0</ele>
                <time>2020-08-22T16:08:27.000Z</time>
                <name>Trackpoint 7676</name>
            </trkpt>
            <trkpt lat="50.0170016" lon="10.5775856">
                <ele>226.0</ele>
                <time>2020-08-22T16:08:29.000Z</time>
                <name>Trackpoint 7677</name>
            </trkpt>
            <trkpt lat="50.0170528" lon="10.5774544">
                <ele>226.0</ele>
                <time>2020-08-22T16:08:31.000Z</time>
                <name>Trackpoint 7678</name>
            </trkpt>
            <trkpt lat="50.017104" lon="10.5773312">
                <ele>226.0</ele>
                <time>2020-08-22T16:08:33.000Z</time>
                <name>Trackpoint 7679</name>
            </trkpt>
            <trkpt lat="50.0171584" lon="10.5772088">
                <ele>226.0</ele>
                <time>2020-08-22T16:08:35.000Z</time>
                <name>Trackpoint 7680</name>
            </trkpt>
            <trkpt lat="50.0172096" lon="10.577088">
                <ele>226.0</ele>
                <time>2020-08-22T16:08:37.000Z</time>
                <name>Trackpoint 7681</name>
            </trkpt>
            <trkpt lat="50.0172608" lon="10.5769616">
                <ele>227.0</ele>
                <time>2020-08-22T16:08:39.000Z</time>
                <name>Trackpoint 7682</name>
            </trkpt>
            <trkpt lat="50.0173184" lon="10.5768448">
                <ele>227.0</ele>
                <time>2020-08-22T16:08:41.000Z</time>
                <name>Trackpoint 7683</name>
            </trkpt>
            <trkpt lat="50.0173792" lon="10.5767272">
                <ele>228.0</ele>
                <time>2020-08-22T16:08:43.000Z</time>
                <name>Trackpoint 7684</name>
            </trkpt>
            <trkpt lat="50.01744" lon="10.5766048">
                <ele>228.0</ele>
                <time>2020-08-22T16:08:45.000Z</time>
                <name>Trackpoint 7685</name>
            </trkpt>
            <trkpt lat="50.0175104" lon="10.5764888">
                <ele>228.0</ele>
                <time>2020-08-22T16:08:47.000Z</time>
                <name>Trackpoint 7686</name>
            </trkpt>
            <trkpt lat="50.0175776" lon="10.5763752">
                <ele>228.0</ele>
                <time>2020-08-22T16:08:49.000Z</time>
                <name>Trackpoint 7687</name>
            </trkpt>
            <trkpt lat="50.017648" lon="10.57626">
                <ele>229.0</ele>
                <time>2020-08-22T16:08:51.000Z</time>
                <name>Trackpoint 7688</name>
            </trkpt>
            <trkpt lat="50.0177152" lon="10.5761472">
                <ele>229.0</ele>
                <time>2020-08-22T16:08:53.000Z</time>
                <name>Trackpoint 7689</name>
            </trkpt>
            <trkpt lat="50.017792" lon="10.5760336">
                <ele>229.0</ele>
                <time>2020-08-22T16:08:55.000Z</time>
                <name>Trackpoint 7690</name>
            </trkpt>
            <trkpt lat="50.017872" lon="10.5759224">
                <ele>230.0</ele>
                <time>2020-08-22T16:08:57.000Z</time>
                <name>Trackpoint 7691</name>
            </trkpt>
            <trkpt lat="50.017952" lon="10.5758112">
                <ele>230.0</ele>
                <time>2020-08-22T16:08:59.000Z</time>
                <name>Trackpoint 7692</name>
            </trkpt>
            <trkpt lat="50.0180352" lon="10.5757016">
                <ele>230.0</ele>
                <time>2020-08-22T16:09:01.000Z</time>
                <name>Trackpoint 7693</name>
            </trkpt>
            <trkpt lat="50.018112" lon="10.5755952">
                <ele>230.0</ele>
                <time>2020-08-22T16:09:03.000Z</time>
                <name>Trackpoint 7694</name>
            </trkpt>
            <trkpt lat="50.0181952" lon="10.575492">
                <ele>231.0</ele>
                <time>2020-08-22T16:09:05.000Z</time>
                <name>Trackpoint 7695</name>
            </trkpt>
            <trkpt lat="50.018272" lon="10.5753896">
                <ele>231.0</ele>
                <time>2020-08-22T16:09:07.000Z</time>
                <name>Trackpoint 7696</name>
            </trkpt>
            <trkpt lat="50.0183456" lon="10.575292">
                <ele>231.0</ele>
                <time>2020-08-22T16:09:09.000Z</time>
                <name>Trackpoint 7697</name>
            </trkpt>
            <trkpt lat="50.018416" lon="10.5751896">
                <ele>231.0</ele>
                <time>2020-08-22T16:09:11.000Z</time>
                <name>Trackpoint 7698</name>
            </trkpt>
            <trkpt lat="50.0184896" lon="10.5750904">
                <ele>232.0</ele>
                <time>2020-08-22T16:09:13.000Z</time>
                <name>Trackpoint 7699</name>
            </trkpt>
            <trkpt lat="50.0185664" lon="10.5749968">
                <ele>231.0</ele>
                <time>2020-08-22T16:09:15.000Z</time>
                <name>Trackpoint 7700</name>
            </trkpt>
            <trkpt lat="50.0186432" lon="10.5748952">
                <ele>232.0</ele>
                <time>2020-08-22T16:09:17.000Z</time>
                <name>Trackpoint 7701</name>
            </trkpt>
            <trkpt lat="50.0187136" lon="10.574792">
                <ele>232.0</ele>
                <time>2020-08-22T16:09:19.000Z</time>
                <name>Trackpoint 7702</name>
            </trkpt>
            <trkpt lat="50.0187872" lon="10.5746944">
                <ele>232.0</ele>
                <time>2020-08-22T16:09:21.000Z</time>
                <name>Trackpoint 7703</name>
            </trkpt>
            <trkpt lat="50.0188608" lon="10.5745984">
                <ele>232.0</ele>
                <time>2020-08-22T16:09:23.000Z</time>
                <name>Trackpoint 7704</name>
            </trkpt>
            <trkpt lat="50.0189408" lon="10.5745016">
                <ele>231.0</ele>
                <time>2020-08-22T16:09:25.000Z</time>
                <name>Trackpoint 7705</name>
            </trkpt>
            <trkpt lat="50.0190176" lon="10.5744">
                <ele>230.0</ele>
                <time>2020-08-22T16:09:27.000Z</time>
                <name>Trackpoint 7706</name>
            </trkpt>
            <trkpt lat="50.0190912" lon="10.574304">
                <ele>230.0</ele>
                <time>2020-08-22T16:09:29.000Z</time>
                <name>Trackpoint 7707</name>
            </trkpt>
            <trkpt lat="50.019168" lon="10.5742016">
                <ele>231.0</ele>
                <time>2020-08-22T16:09:31.000Z</time>
                <name>Trackpoint 7708</name>
            </trkpt>
            <trkpt lat="50.019248" lon="10.5741056">
                <ele>231.0</ele>
                <time>2020-08-22T16:09:33.000Z</time>
                <name>Trackpoint 7709</name>
            </trkpt>
            <trkpt lat="50.0193248" lon="10.5740048">
                <ele>231.0</ele>
                <time>2020-08-22T16:09:35.000Z</time>
                <name>Trackpoint 7710</name>
            </trkpt>
            <trkpt lat="50.0194016" lon="10.5739032">
                <ele>230.0</ele>
                <time>2020-08-22T16:09:37.000Z</time>
                <name>Trackpoint 7711</name>
            </trkpt>
            <trkpt lat="50.0194784" lon="10.5738048">
                <ele>230.0</ele>
                <time>2020-08-22T16:09:39.000Z</time>
                <name>Trackpoint 7712</name>
            </trkpt>
            <trkpt lat="50.0195552" lon="10.5737088">
                <ele>230.0</ele>
                <time>2020-08-22T16:09:41.000Z</time>
                <name>Trackpoint 7713</name>
            </trkpt>
            <trkpt lat="50.0196256" lon="10.5736128">
                <ele>230.0</ele>
                <time>2020-08-22T16:09:43.000Z</time>
                <name>Trackpoint 7714</name>
            </trkpt>
            <trkpt lat="50.0196992" lon="10.5735152">
                <ele>230.0</ele>
                <time>2020-08-22T16:09:45.000Z</time>
                <name>Trackpoint 7715</name>
            </trkpt>
            <trkpt lat="50.019776" lon="10.5734232">
                <ele>231.0</ele>
                <time>2020-08-22T16:09:47.000Z</time>
                <name>Trackpoint 7716</name>
            </trkpt>
            <trkpt lat="50.0198528" lon="10.5733272">
                <ele>231.0</ele>
                <time>2020-08-22T16:09:49.000Z</time>
                <name>Trackpoint 7717</name>
            </trkpt>
            <trkpt lat="50.0199232" lon="10.5732296">
                <ele>231.0</ele>
                <time>2020-08-22T16:09:51.000Z</time>
                <name>Trackpoint 7718</name>
            </trkpt>
            <trkpt lat="50.0199968" lon="10.5731336">
                <ele>231.0</ele>
                <time>2020-08-22T16:09:53.000Z</time>
                <name>Trackpoint 7719</name>
            </trkpt>
            <trkpt lat="50.0200768" lon="10.5730312">
                <ele>231.0</ele>
                <time>2020-08-22T16:09:55.000Z</time>
                <name>Trackpoint 7720</name>
            </trkpt>
            <trkpt lat="50.0201504" lon="10.5729264">
                <ele>231.0</ele>
                <time>2020-08-22T16:09:57.000Z</time>
                <name>Trackpoint 7721</name>
            </trkpt>
            <trkpt lat="50.0202304" lon="10.5728264">
                <ele>231.0</ele>
                <time>2020-08-22T16:09:59.000Z</time>
                <name>Trackpoint 7722</name>
            </trkpt>
            <trkpt lat="50.0203008" lon="10.5727256">
                <ele>231.0</ele>
                <time>2020-08-22T16:10:01.000Z</time>
                <name>Trackpoint 7723</name>
            </trkpt>
            <trkpt lat="50.0203776" lon="10.5726216">
                <ele>230.0</ele>
                <time>2020-08-22T16:10:03.000Z</time>
                <name>Trackpoint 7724</name>
            </trkpt>
            <trkpt lat="50.0204544" lon="10.5725232">
                <ele>230.0</ele>
                <time>2020-08-22T16:10:05.000Z</time>
                <name>Trackpoint 7725</name>
            </trkpt>
            <trkpt lat="50.0205344" lon="10.5724264">
                <ele>230.0</ele>
                <time>2020-08-22T16:10:07.000Z</time>
                <name>Trackpoint 7726</name>
            </trkpt>
            <trkpt lat="50.0206112" lon="10.5723288">
                <ele>230.0</ele>
                <time>2020-08-22T16:10:09.000Z</time>
                <name>Trackpoint 7727</name>
            </trkpt>
            <trkpt lat="50.0206848" lon="10.5722336">
                <ele>230.0</ele>
                <time>2020-08-22T16:10:11.000Z</time>
                <name>Trackpoint 7728</name>
            </trkpt>
            <trkpt lat="50.0207584" lon="10.5721352">
                <ele>230.0</ele>
                <time>2020-08-22T16:10:13.000Z</time>
                <name>Trackpoint 7729</name>
            </trkpt>
            <trkpt lat="50.0208352" lon="10.572032">
                <ele>230.0</ele>
                <time>2020-08-22T16:10:15.000Z</time>
                <name>Trackpoint 7730</name>
            </trkpt>
            <trkpt lat="50.020912" lon="10.571928">
                <ele>230.0</ele>
                <time>2020-08-22T16:10:17.000Z</time>
                <name>Trackpoint 7731</name>
            </trkpt>
            <trkpt lat="50.020992" lon="10.5718296">
                <ele>231.0</ele>
                <time>2020-08-22T16:10:19.000Z</time>
                <name>Trackpoint 7732</name>
            </trkpt>
            <trkpt lat="50.021072" lon="10.5717336">
                <ele>230.0</ele>
                <time>2020-08-22T16:10:21.000Z</time>
                <name>Trackpoint 7733</name>
            </trkpt>
            <trkpt lat="50.0211488" lon="10.5716352">
                <ele>230.0</ele>
                <time>2020-08-22T16:10:23.000Z</time>
                <name>Trackpoint 7734</name>
            </trkpt>
            <trkpt lat="50.0212256" lon="10.5715368">
                <ele>230.0</ele>
                <time>2020-08-22T16:10:25.000Z</time>
                <name>Trackpoint 7735</name>
            </trkpt>
            <trkpt lat="50.0213056" lon="10.5714384">
                <ele>230.0</ele>
                <time>2020-08-22T16:10:27.000Z</time>
                <name>Trackpoint 7736</name>
            </trkpt>
            <trkpt lat="50.0213824" lon="10.5713368">
                <ele>230.0</ele>
                <time>2020-08-22T16:10:29.000Z</time>
                <name>Trackpoint 7737</name>
            </trkpt>
            <trkpt lat="50.0214624" lon="10.5712272">
                <ele>230.0</ele>
                <time>2020-08-22T16:10:31.000Z</time>
                <name>Trackpoint 7738</name>
            </trkpt>
            <trkpt lat="50.0215456" lon="10.5711144">
                <ele>230.0</ele>
                <time>2020-08-22T16:10:33.000Z</time>
                <name>Trackpoint 7739</name>
            </trkpt>
            <trkpt lat="50.021632" lon="10.5710064">
                <ele>230.0</ele>
                <time>2020-08-22T16:10:35.000Z</time>
                <name>Trackpoint 7740</name>
            </trkpt>
            <trkpt lat="50.0217184" lon="10.5708984">
                <ele>230.0</ele>
                <time>2020-08-22T16:10:37.000Z</time>
                <name>Trackpoint 7741</name>
            </trkpt>
            <trkpt lat="50.0218048" lon="10.5707864">
                <ele>230.0</ele>
                <time>2020-08-22T16:10:39.000Z</time>
                <name>Trackpoint 7742</name>
            </trkpt>
            <trkpt lat="50.021888" lon="10.5706728">
                <ele>230.0</ele>
                <time>2020-08-22T16:10:41.000Z</time>
                <name>Trackpoint 7743</name>
            </trkpt>
            <trkpt lat="50.0219776" lon="10.5705616">
                <ele>229.0</ele>
                <time>2020-08-22T16:10:43.000Z</time>
                <name>Trackpoint 7744</name>
            </trkpt>
            <trkpt lat="50.0220608" lon="10.5704416">
                <ele>229.0</ele>
                <time>2020-08-22T16:10:45.000Z</time>
                <name>Trackpoint 7745</name>
            </trkpt>
            <trkpt lat="50.022144" lon="10.570316">
                <ele>229.0</ele>
                <time>2020-08-22T16:10:47.000Z</time>
                <name>Trackpoint 7746</name>
            </trkpt>
            <trkpt lat="50.0222336" lon="10.5701952">
                <ele>229.0</ele>
                <time>2020-08-22T16:10:49.000Z</time>
                <name>Trackpoint 7747</name>
            </trkpt>
            <trkpt lat="50.02232" lon="10.5700768">
                <ele>229.0</ele>
                <time>2020-08-22T16:10:51.000Z</time>
                <name>Trackpoint 7748</name>
            </trkpt>
            <trkpt lat="50.0224032" lon="10.569952">
                <ele>229.0</ele>
                <time>2020-08-22T16:10:53.000Z</time>
                <name>Trackpoint 7749</name>
            </trkpt>
            <trkpt lat="50.0224864" lon="10.569828">
                <ele>229.0</ele>
                <time>2020-08-22T16:10:55.000Z</time>
                <name>Trackpoint 7750</name>
            </trkpt>
            <trkpt lat="50.0225664" lon="10.5697">
                <ele>229.0</ele>
                <time>2020-08-22T16:10:57.000Z</time>
                <name>Trackpoint 7751</name>
            </trkpt>
            <trkpt lat="50.0226464" lon="10.5695712">
                <ele>229.0</ele>
                <time>2020-08-22T16:10:59.000Z</time>
                <name>Trackpoint 7752</name>
            </trkpt>
            <trkpt lat="50.0227264" lon="10.56944">
                <ele>229.0</ele>
                <time>2020-08-22T16:11:01.000Z</time>
                <name>Trackpoint 7753</name>
            </trkpt>
            <trkpt lat="50.0228032" lon="10.5693104">
                <ele>228.0</ele>
                <time>2020-08-22T16:11:03.000Z</time>
                <name>Trackpoint 7754</name>
            </trkpt>
            <trkpt lat="50.02288" lon="10.5691792">
                <ele>228.0</ele>
                <time>2020-08-22T16:11:05.000Z</time>
                <name>Trackpoint 7755</name>
            </trkpt>
            <trkpt lat="50.0229568" lon="10.569052">
                <ele>229.0</ele>
                <time>2020-08-22T16:11:07.000Z</time>
                <name>Trackpoint 7756</name>
            </trkpt>
            <trkpt lat="50.0230336" lon="10.5689232">
                <ele>229.0</ele>
                <time>2020-08-22T16:11:09.000Z</time>
                <name>Trackpoint 7757</name>
            </trkpt>
            <trkpt lat="50.0231104" lon="10.5687952">
                <ele>228.0</ele>
                <time>2020-08-22T16:11:11.000Z</time>
                <name>Trackpoint 7758</name>
            </trkpt>
            <trkpt lat="50.0231872" lon="10.5686648">
                <ele>228.0</ele>
                <time>2020-08-22T16:11:13.000Z</time>
                <name>Trackpoint 7759</name>
            </trkpt>
            <trkpt lat="50.0232512" lon="10.5685416">
                <ele>228.0</ele>
                <time>2020-08-22T16:11:15.000Z</time>
                <name>Trackpoint 7760</name>
            </trkpt>
            <trkpt lat="50.0233088" lon="10.5684296">
                <ele>229.0</ele>
                <time>2020-08-22T16:11:17.000Z</time>
                <name>Trackpoint 7761</name>
            </trkpt>
            <trkpt lat="50.0233536" lon="10.5683336">
                <ele>229.0</ele>
                <time>2020-08-22T16:11:19.000Z</time>
                <name>Trackpoint 7762</name>
            </trkpt>
            <trkpt lat="50.0234112" lon="10.5682272">
                <ele>230.0</ele>
                <time>2020-08-22T16:11:22.000Z</time>
                <name>Trackpoint 7763</name>
            </trkpt>
            <trkpt lat="50.0234688" lon="10.5681384">
                <ele>229.0</ele>
                <time>2020-08-22T16:11:40.000Z</time>
                <name>Trackpoint 7764</name>
            </trkpt>
            <trkpt lat="50.023568" lon="10.5680712">
                <ele>229.0</ele>
                <time>2020-08-22T16:11:44.000Z</time>
                <name>Trackpoint 7765</name>
            </trkpt>
            <trkpt lat="50.0236352" lon="10.5680064">
                <ele>229.0</ele>
                <time>2020-08-22T16:11:46.000Z</time>
                <name>Trackpoint 7766</name>
            </trkpt>
            <trkpt lat="50.0236864" lon="10.5678984">
                <ele>229.0</ele>
                <time>2020-08-22T16:11:48.000Z</time>
                <name>Trackpoint 7767</name>
            </trkpt>
            <trkpt lat="50.0237056" lon="10.5677608">
                <ele>229.0</ele>
                <time>2020-08-22T16:11:50.000Z</time>
                <name>Trackpoint 7768</name>
            </trkpt>
            <trkpt lat="50.0237088" lon="10.567612">
                <ele>229.0</ele>
                <time>2020-08-22T16:11:52.000Z</time>
                <name>Trackpoint 7769</name>
            </trkpt>
            <trkpt lat="50.0237376" lon="10.5674648">
                <ele>229.0</ele>
                <time>2020-08-22T16:11:54.000Z</time>
                <name>Trackpoint 7770</name>
            </trkpt>
            <trkpt lat="50.0237888" lon="10.5673312">
                <ele>229.0</ele>
                <time>2020-08-22T16:11:56.000Z</time>
                <name>Trackpoint 7771</name>
            </trkpt>
            <trkpt lat="50.0238464" lon="10.5672056">
                <ele>228.0</ele>
                <time>2020-08-22T16:11:58.000Z</time>
                <name>Trackpoint 7772</name>
            </trkpt>
            <trkpt lat="50.0239072" lon="10.5670784">
                <ele>228.0</ele>
                <time>2020-08-22T16:12:00.000Z</time>
                <name>Trackpoint 7773</name>
            </trkpt>
            <trkpt lat="50.0239616" lon="10.5669472">
                <ele>228.0</ele>
                <time>2020-08-22T16:12:02.000Z</time>
                <name>Trackpoint 7774</name>
            </trkpt>
            <trkpt lat="50.0240128" lon="10.56682">
                <ele>228.0</ele>
                <time>2020-08-22T16:12:04.000Z</time>
                <name>Trackpoint 7775</name>
            </trkpt>
            <trkpt lat="50.0240704" lon="10.5666904">
                <ele>228.0</ele>
                <time>2020-08-22T16:12:06.000Z</time>
                <name>Trackpoint 7776</name>
            </trkpt>
            <trkpt lat="50.0241248" lon="10.5665576">
                <ele>228.0</ele>
                <time>2020-08-22T16:12:08.000Z</time>
                <name>Trackpoint 7777</name>
            </trkpt>
            <trkpt lat="50.0241824" lon="10.56642">
                <ele>228.0</ele>
                <time>2020-08-22T16:12:10.000Z</time>
                <name>Trackpoint 7778</name>
            </trkpt>
            <trkpt lat="50.0242336" lon="10.5662736">
                <ele>228.0</ele>
                <time>2020-08-22T16:12:12.000Z</time>
                <name>Trackpoint 7779</name>
            </trkpt>
            <trkpt lat="50.024288" lon="10.5661232">
                <ele>228.0</ele>
                <time>2020-08-22T16:12:14.000Z</time>
                <name>Trackpoint 7780</name>
            </trkpt>
            <trkpt lat="50.0243456" lon="10.5659768">
                <ele>228.0</ele>
                <time>2020-08-22T16:12:16.000Z</time>
                <name>Trackpoint 7781</name>
            </trkpt>
            <trkpt lat="50.0244" lon="10.565828">
                <ele>228.0</ele>
                <time>2020-08-22T16:12:18.000Z</time>
                <name>Trackpoint 7782</name>
            </trkpt>
            <trkpt lat="50.024448" lon="10.5656816">
                <ele>228.0</ele>
                <time>2020-08-22T16:12:20.000Z</time>
                <name>Trackpoint 7783</name>
            </trkpt>
            <trkpt lat="50.0244992" lon="10.5655368">
                <ele>228.0</ele>
                <time>2020-08-22T16:12:22.000Z</time>
                <name>Trackpoint 7784</name>
            </trkpt>
            <trkpt lat="50.0245472" lon="10.5653952">
                <ele>228.0</ele>
                <time>2020-08-22T16:12:24.000Z</time>
                <name>Trackpoint 7785</name>
            </trkpt>
            <trkpt lat="50.024592" lon="10.5652552">
                <ele>228.0</ele>
                <time>2020-08-22T16:12:26.000Z</time>
                <name>Trackpoint 7786</name>
            </trkpt>
            <trkpt lat="50.0246432" lon="10.5651152">
                <ele>228.0</ele>
                <time>2020-08-22T16:12:28.000Z</time>
                <name>Trackpoint 7787</name>
            </trkpt>
            <trkpt lat="50.0246912" lon="10.5649784">
                <ele>227.0</ele>
                <time>2020-08-22T16:12:30.000Z</time>
                <name>Trackpoint 7788</name>
            </trkpt>
            <trkpt lat="50.0247264" lon="10.5648384">
                <ele>228.0</ele>
                <time>2020-08-22T16:12:32.000Z</time>
                <name>Trackpoint 7789</name>
            </trkpt>
            <trkpt lat="50.0247584" lon="10.5647096">
                <ele>228.0</ele>
                <time>2020-08-22T16:12:34.000Z</time>
                <name>Trackpoint 7790</name>
            </trkpt>
            <trkpt lat="50.0247872" lon="10.5645848">
                <ele>227.0</ele>
                <time>2020-08-22T16:12:36.000Z</time>
                <name>Trackpoint 7791</name>
            </trkpt>
            <trkpt lat="50.0248224" lon="10.564448">
                <ele>227.0</ele>
                <time>2020-08-22T16:12:38.000Z</time>
                <name>Trackpoint 7792</name>
            </trkpt>
            <trkpt lat="50.0248576" lon="10.564308">
                <ele>227.0</ele>
                <time>2020-08-22T16:12:40.000Z</time>
                <name>Trackpoint 7793</name>
            </trkpt>
            <trkpt lat="50.0248992" lon="10.5641648">
                <ele>227.0</ele>
                <time>2020-08-22T16:12:42.000Z</time>
                <name>Trackpoint 7794</name>
            </trkpt>
            <trkpt lat="50.0249376" lon="10.5640224">
                <ele>227.0</ele>
                <time>2020-08-22T16:12:44.000Z</time>
                <name>Trackpoint 7795</name>
            </trkpt>
            <trkpt lat="50.024976" lon="10.5638768">
                <ele>227.0</ele>
                <time>2020-08-22T16:12:46.000Z</time>
                <name>Trackpoint 7796</name>
            </trkpt>
            <trkpt lat="50.0250144" lon="10.5637304">
                <ele>226.0</ele>
                <time>2020-08-22T16:12:48.000Z</time>
                <name>Trackpoint 7797</name>
            </trkpt>
            <trkpt lat="50.025056" lon="10.5635744">
                <ele>226.0</ele>
                <time>2020-08-22T16:12:50.000Z</time>
                <name>Trackpoint 7798</name>
            </trkpt>
            <trkpt lat="50.0250944" lon="10.5634184">
                <ele>226.0</ele>
                <time>2020-08-22T16:12:52.000Z</time>
                <name>Trackpoint 7799</name>
            </trkpt>
            <trkpt lat="50.0251328" lon="10.563256">
                <ele>226.0</ele>
                <time>2020-08-22T16:12:54.000Z</time>
                <name>Trackpoint 7800</name>
            </trkpt>
            <trkpt lat="50.025168" lon="10.5631">
                <ele>226.0</ele>
                <time>2020-08-22T16:12:56.000Z</time>
                <name>Trackpoint 7801</name>
            </trkpt>
            <trkpt lat="50.0252064" lon="10.562952">
                <ele>226.0</ele>
                <time>2020-08-22T16:12:58.000Z</time>
                <name>Trackpoint 7802</name>
            </trkpt>
            <trkpt lat="50.0252448" lon="10.562808">
                <ele>226.0</ele>
                <time>2020-08-22T16:13:00.000Z</time>
                <name>Trackpoint 7803</name>
            </trkpt>
            <trkpt lat="50.02528" lon="10.5626632">
                <ele>226.0</ele>
                <time>2020-08-22T16:13:02.000Z</time>
                <name>Trackpoint 7804</name>
            </trkpt>
            <trkpt lat="50.025312" lon="10.5625248">
                <ele>226.0</ele>
                <time>2020-08-22T16:13:04.000Z</time>
                <name>Trackpoint 7805</name>
            </trkpt>
            <trkpt lat="50.0253536" lon="10.5623912">
                <ele>226.0</ele>
                <time>2020-08-22T16:13:06.000Z</time>
                <name>Trackpoint 7806</name>
            </trkpt>
            <trkpt lat="50.0253856" lon="10.5622584">
                <ele>226.0</ele>
                <time>2020-08-22T16:13:08.000Z</time>
                <name>Trackpoint 7807</name>
            </trkpt>
            <trkpt lat="50.025424" lon="10.5621256">
                <ele>226.0</ele>
                <time>2020-08-22T16:13:10.000Z</time>
                <name>Trackpoint 7808</name>
            </trkpt>
            <trkpt lat="50.0254624" lon="10.5619968">
                <ele>226.0</ele>
                <time>2020-08-22T16:13:12.000Z</time>
                <name>Trackpoint 7809</name>
            </trkpt>
            <trkpt lat="50.0254944" lon="10.5618688">
                <ele>226.0</ele>
                <time>2020-08-22T16:13:14.000Z</time>
                <name>Trackpoint 7810</name>
            </trkpt>
            <trkpt lat="50.0255328" lon="10.561744">
                <ele>226.0</ele>
                <time>2020-08-22T16:13:16.000Z</time>
                <name>Trackpoint 7811</name>
            </trkpt>
            <trkpt lat="50.0255776" lon="10.5616192">
                <ele>226.0</ele>
                <time>2020-08-22T16:13:18.000Z</time>
                <name>Trackpoint 7812</name>
            </trkpt>
            <trkpt lat="50.0256192" lon="10.5614904">
                <ele>226.0</ele>
                <time>2020-08-22T16:13:20.000Z</time>
                <name>Trackpoint 7813</name>
            </trkpt>
            <trkpt lat="50.0256608" lon="10.5613648">
                <ele>226.0</ele>
                <time>2020-08-22T16:13:22.000Z</time>
                <name>Trackpoint 7814</name>
            </trkpt>
            <trkpt lat="50.0257088" lon="10.5612384">
                <ele>226.0</ele>
                <time>2020-08-22T16:13:24.000Z</time>
                <name>Trackpoint 7815</name>
            </trkpt>
            <trkpt lat="50.0257568" lon="10.5611064">
                <ele>226.0</ele>
                <time>2020-08-22T16:13:26.000Z</time>
                <name>Trackpoint 7816</name>
            </trkpt>
            <trkpt lat="50.0258112" lon="10.5609728">
                <ele>226.0</ele>
                <time>2020-08-22T16:13:28.000Z</time>
                <name>Trackpoint 7817</name>
            </trkpt>
            <trkpt lat="50.0258624" lon="10.5608352">
                <ele>225.0</ele>
                <time>2020-08-22T16:13:30.000Z</time>
                <name>Trackpoint 7818</name>
            </trkpt>
            <trkpt lat="50.0259168" lon="10.5607016">
                <ele>225.0</ele>
                <time>2020-08-22T16:13:32.000Z</time>
                <name>Trackpoint 7819</name>
            </trkpt>
            <trkpt lat="50.0259744" lon="10.5605648">
                <ele>226.0</ele>
                <time>2020-08-22T16:13:34.000Z</time>
                <name>Trackpoint 7820</name>
            </trkpt>
            <trkpt lat="50.0260352" lon="10.5604352">
                <ele>226.0</ele>
                <time>2020-08-22T16:13:36.000Z</time>
                <name>Trackpoint 7821</name>
            </trkpt>
            <trkpt lat="50.0261024" lon="10.560304">
                <ele>226.0</ele>
                <time>2020-08-22T16:13:38.000Z</time>
                <name>Trackpoint 7822</name>
            </trkpt>
            <trkpt lat="50.0261696" lon="10.5601752">
                <ele>225.0</ele>
                <time>2020-08-22T16:13:40.000Z</time>
                <name>Trackpoint 7823</name>
            </trkpt>
            <trkpt lat="50.0262368" lon="10.5600464">
                <ele>226.0</ele>
                <time>2020-08-22T16:13:42.000Z</time>
                <name>Trackpoint 7824</name>
            </trkpt>
            <trkpt lat="50.0262976" lon="10.5599096">
                <ele>226.0</ele>
                <time>2020-08-22T16:13:44.000Z</time>
                <name>Trackpoint 7825</name>
            </trkpt>
            <trkpt lat="50.026368" lon="10.5597824">
                <ele>227.0</ele>
                <time>2020-08-22T16:13:46.000Z</time>
                <name>Trackpoint 7826</name>
            </trkpt>
            <trkpt lat="50.0264448" lon="10.55966">
                <ele>227.0</ele>
                <time>2020-08-22T16:13:48.000Z</time>
                <name>Trackpoint 7827</name>
            </trkpt>
            <trkpt lat="50.0265152" lon="10.5595368">
                <ele>227.0</ele>
                <time>2020-08-22T16:13:50.000Z</time>
                <name>Trackpoint 7828</name>
            </trkpt>
            <trkpt lat="50.026592" lon="10.55942">
                <ele>227.0</ele>
                <time>2020-08-22T16:13:52.000Z</time>
                <name>Trackpoint 7829</name>
            </trkpt>
            <trkpt lat="50.026672" lon="10.559308">
                <ele>227.0</ele>
                <time>2020-08-22T16:13:54.000Z</time>
                <name>Trackpoint 7830</name>
            </trkpt>
            <trkpt lat="50.0267488" lon="10.5592">
                <ele>227.0</ele>
                <time>2020-08-22T16:13:56.000Z</time>
                <name>Trackpoint 7831</name>
            </trkpt>
            <trkpt lat="50.0268256" lon="10.5590912">
                <ele>227.0</ele>
                <time>2020-08-22T16:13:58.000Z</time>
                <name>Trackpoint 7832</name>
            </trkpt>
            <trkpt lat="50.0269024" lon="10.5589888">
                <ele>227.0</ele>
                <time>2020-08-22T16:14:00.000Z</time>
                <name>Trackpoint 7833</name>
            </trkpt>
            <trkpt lat="50.0269728" lon="10.558884">
                <ele>227.0</ele>
                <time>2020-08-22T16:14:02.000Z</time>
                <name>Trackpoint 7834</name>
            </trkpt>
            <trkpt lat="50.0270496" lon="10.5587864">
                <ele>227.0</ele>
                <time>2020-08-22T16:14:04.000Z</time>
                <name>Trackpoint 7835</name>
            </trkpt>
            <trkpt lat="50.0271232" lon="10.5586832">
                <ele>227.0</ele>
                <time>2020-08-22T16:14:06.000Z</time>
                <name>Trackpoint 7836</name>
            </trkpt>
            <trkpt lat="50.0271936" lon="10.5585848">
                <ele>227.0</ele>
                <time>2020-08-22T16:14:08.000Z</time>
                <name>Trackpoint 7837</name>
            </trkpt>
            <trkpt lat="50.0272704" lon="10.5584832">
                <ele>227.0</ele>
                <time>2020-08-22T16:14:10.000Z</time>
                <name>Trackpoint 7838</name>
            </trkpt>
            <trkpt lat="50.0273408" lon="10.5583752">
                <ele>227.0</ele>
                <time>2020-08-22T16:14:12.000Z</time>
                <name>Trackpoint 7839</name>
            </trkpt>
            <trkpt lat="50.027408" lon="10.5582712">
                <ele>227.0</ele>
                <time>2020-08-22T16:14:14.000Z</time>
                <name>Trackpoint 7840</name>
            </trkpt>
            <trkpt lat="50.0274848" lon="10.5581712">
                <ele>227.0</ele>
                <time>2020-08-22T16:14:16.000Z</time>
                <name>Trackpoint 7841</name>
            </trkpt>
            <trkpt lat="50.0275648" lon="10.5580616">
                <ele>227.0</ele>
                <time>2020-08-22T16:14:18.000Z</time>
                <name>Trackpoint 7842</name>
            </trkpt>
            <trkpt lat="50.0276448" lon="10.5579584">
                <ele>226.0</ele>
                <time>2020-08-22T16:14:20.000Z</time>
                <name>Trackpoint 7843</name>
            </trkpt>
            <trkpt lat="50.0277184" lon="10.55786">
                <ele>226.0</ele>
                <time>2020-08-22T16:14:22.000Z</time>
                <name>Trackpoint 7844</name>
            </trkpt>
            <trkpt lat="50.0277856" lon="10.5577648">
                <ele>227.0</ele>
                <time>2020-08-22T16:14:24.000Z</time>
                <name>Trackpoint 7845</name>
            </trkpt>
            <trkpt lat="50.0278464" lon="10.5576752">
                <ele>227.0</ele>
                <time>2020-08-22T16:14:26.000Z</time>
                <name>Trackpoint 7846</name>
            </trkpt>
            <trkpt lat="50.0279232" lon="10.5576032">
                <ele>228.0</ele>
                <time>2020-08-22T16:14:28.000Z</time>
                <name>Trackpoint 7847</name>
            </trkpt>
            <trkpt lat="50.0280032" lon="10.5575536">
                <ele>228.0</ele>
                <time>2020-08-22T16:14:30.000Z</time>
                <name>Trackpoint 7848</name>
            </trkpt>
            <trkpt lat="50.02808" lon="10.5575">
                <ele>229.0</ele>
                <time>2020-08-22T16:14:32.000Z</time>
                <name>Trackpoint 7849</name>
            </trkpt>
            <trkpt lat="50.02816" lon="10.5574376">
                <ele>229.0</ele>
                <time>2020-08-22T16:14:34.000Z</time>
                <name>Trackpoint 7850</name>
            </trkpt>
            <trkpt lat="50.028224" lon="10.5573632">
                <ele>230.0</ele>
                <time>2020-08-22T16:14:36.000Z</time>
                <name>Trackpoint 7851</name>
            </trkpt>
            <trkpt lat="50.0282816" lon="10.5572704">
                <ele>231.0</ele>
                <time>2020-08-22T16:14:38.000Z</time>
                <name>Trackpoint 7852</name>
            </trkpt>
            <trkpt lat="50.0283264" lon="10.5571568">
                <ele>231.0</ele>
                <time>2020-08-22T16:14:40.000Z</time>
                <name>Trackpoint 7853</name>
            </trkpt>
            <trkpt lat="50.0283648" lon="10.5570248">
                <ele>231.0</ele>
                <time>2020-08-22T16:14:42.000Z</time>
                <name>Trackpoint 7854</name>
            </trkpt>
            <trkpt lat="50.0283968" lon="10.5568832">
                <ele>231.0</ele>
                <time>2020-08-22T16:14:44.000Z</time>
                <name>Trackpoint 7855</name>
            </trkpt>
            <trkpt lat="50.0284384" lon="10.5567416">
                <ele>231.0</ele>
                <time>2020-08-22T16:14:46.000Z</time>
                <name>Trackpoint 7856</name>
            </trkpt>
            <trkpt lat="50.0284928" lon="10.5566152">
                <ele>230.0</ele>
                <time>2020-08-22T16:14:48.000Z</time>
                <name>Trackpoint 7857</name>
            </trkpt>
            <trkpt lat="50.02856" lon="10.5565032">
                <ele>230.0</ele>
                <time>2020-08-22T16:14:50.000Z</time>
                <name>Trackpoint 7858</name>
            </trkpt>
            <trkpt lat="50.0286208" lon="10.5563816">
                <ele>230.0</ele>
                <time>2020-08-22T16:14:52.000Z</time>
                <name>Trackpoint 7859</name>
            </trkpt>
            <trkpt lat="50.028688" lon="10.5562584">
                <ele>230.0</ele>
                <time>2020-08-22T16:14:54.000Z</time>
                <name>Trackpoint 7860</name>
            </trkpt>
            <trkpt lat="50.0287488" lon="10.5561312">
                <ele>230.0</ele>
                <time>2020-08-22T16:14:56.000Z</time>
                <name>Trackpoint 7861</name>
            </trkpt>
            <trkpt lat="50.0288032" lon="10.5560032">
                <ele>230.0</ele>
                <time>2020-08-22T16:14:58.000Z</time>
                <name>Trackpoint 7862</name>
            </trkpt>
            <trkpt lat="50.0288672" lon="10.5558784">
                <ele>230.0</ele>
                <time>2020-08-22T16:15:00.000Z</time>
                <name>Trackpoint 7863</name>
            </trkpt>
            <trkpt lat="50.028928" lon="10.5557584">
                <ele>231.0</ele>
                <time>2020-08-22T16:15:02.000Z</time>
                <name>Trackpoint 7864</name>
            </trkpt>
            <trkpt lat="50.0289856" lon="10.5556352">
                <ele>231.0</ele>
                <time>2020-08-22T16:15:04.000Z</time>
                <name>Trackpoint 7865</name>
            </trkpt>
            <trkpt lat="50.02904" lon="10.5555048">
                <ele>231.0</ele>
                <time>2020-08-22T16:15:06.000Z</time>
                <name>Trackpoint 7866</name>
            </trkpt>
            <trkpt lat="50.0290944" lon="10.5553776">
                <ele>231.0</ele>
                <time>2020-08-22T16:15:08.000Z</time>
                <name>Trackpoint 7867</name>
            </trkpt>
            <trkpt lat="50.0291456" lon="10.5552528">
                <ele>231.0</ele>
                <time>2020-08-22T16:15:10.000Z</time>
                <name>Trackpoint 7868</name>
            </trkpt>
            <trkpt lat="50.0291936" lon="10.5551264">
                <ele>231.0</ele>
                <time>2020-08-22T16:15:12.000Z</time>
                <name>Trackpoint 7869</name>
            </trkpt>
            <trkpt lat="50.0292448" lon="10.554992">
                <ele>231.0</ele>
                <time>2020-08-22T16:15:14.000Z</time>
                <name>Trackpoint 7870</name>
            </trkpt>
            <trkpt lat="50.0292928" lon="10.5548624">
                <ele>231.0</ele>
                <time>2020-08-22T16:15:16.000Z</time>
                <name>Trackpoint 7871</name>
            </trkpt>
            <trkpt lat="50.0293472" lon="10.5547288">
                <ele>231.0</ele>
                <time>2020-08-22T16:15:18.000Z</time>
                <name>Trackpoint 7872</name>
            </trkpt>
            <trkpt lat="50.0293952" lon="10.5545904">
                <ele>231.0</ele>
                <time>2020-08-22T16:15:20.000Z</time>
                <name>Trackpoint 7873</name>
            </trkpt>
            <trkpt lat="50.0294432" lon="10.554452">
                <ele>231.0</ele>
                <time>2020-08-22T16:15:22.000Z</time>
                <name>Trackpoint 7874</name>
            </trkpt>
            <trkpt lat="50.0294848" lon="10.5543144">
                <ele>231.0</ele>
                <time>2020-08-22T16:15:24.000Z</time>
                <name>Trackpoint 7875</name>
            </trkpt>
            <trkpt lat="50.0295328" lon="10.5541736">
                <ele>231.0</ele>
                <time>2020-08-22T16:15:26.000Z</time>
                <name>Trackpoint 7876</name>
            </trkpt>
            <trkpt lat="50.0295776" lon="10.5540368">
                <ele>231.0</ele>
                <time>2020-08-22T16:15:28.000Z</time>
                <name>Trackpoint 7877</name>
            </trkpt>
            <trkpt lat="50.0296256" lon="10.5538976">
                <ele>231.0</ele>
                <time>2020-08-22T16:15:30.000Z</time>
                <name>Trackpoint 7878</name>
            </trkpt>
            <trkpt lat="50.0296672" lon="10.5537568">
                <ele>231.0</ele>
                <time>2020-08-22T16:15:32.000Z</time>
                <name>Trackpoint 7879</name>
            </trkpt>
            <trkpt lat="50.0297056" lon="10.55362">
                <ele>231.0</ele>
                <time>2020-08-22T16:15:34.000Z</time>
                <name>Trackpoint 7880</name>
            </trkpt>
            <trkpt lat="50.0297536" lon="10.5534832">
                <ele>232.0</ele>
                <time>2020-08-22T16:15:36.000Z</time>
                <name>Trackpoint 7881</name>
            </trkpt>
            <trkpt lat="50.029792" lon="10.5533464">
                <ele>232.0</ele>
                <time>2020-08-22T16:15:38.000Z</time>
                <name>Trackpoint 7882</name>
            </trkpt>
            <trkpt lat="50.0298304" lon="10.5532016">
                <ele>232.0</ele>
                <time>2020-08-22T16:15:40.000Z</time>
                <name>Trackpoint 7883</name>
            </trkpt>
            <trkpt lat="50.029872" lon="10.5530616">
                <ele>232.0</ele>
                <time>2020-08-22T16:15:42.000Z</time>
                <name>Trackpoint 7884</name>
            </trkpt>
            <trkpt lat="50.0299104" lon="10.5529216">
                <ele>232.0</ele>
                <time>2020-08-22T16:15:44.000Z</time>
                <name>Trackpoint 7885</name>
            </trkpt>
            <trkpt lat="50.0299456" lon="10.5527832">
                <ele>232.0</ele>
                <time>2020-08-22T16:15:46.000Z</time>
                <name>Trackpoint 7886</name>
            </trkpt>
            <trkpt lat="50.0299744" lon="10.5526416">
                <ele>232.0</ele>
                <time>2020-08-22T16:15:48.000Z</time>
                <name>Trackpoint 7887</name>
            </trkpt>
            <trkpt lat="50.0300064" lon="10.5525048">
                <ele>232.0</ele>
                <time>2020-08-22T16:15:50.000Z</time>
                <name>Trackpoint 7888</name>
            </trkpt>
            <trkpt lat="50.0300384" lon="10.5523664">
                <ele>232.0</ele>
                <time>2020-08-22T16:15:52.000Z</time>
                <name>Trackpoint 7889</name>
            </trkpt>
            <trkpt lat="50.0300672" lon="10.5522216">
                <ele>232.0</ele>
                <time>2020-08-22T16:15:54.000Z</time>
                <name>Trackpoint 7890</name>
            </trkpt>
            <trkpt lat="50.0300928" lon="10.5520784">
                <ele>232.0</ele>
                <time>2020-08-22T16:15:56.000Z</time>
                <name>Trackpoint 7891</name>
            </trkpt>
            <trkpt lat="50.0301248" lon="10.5519216">
                <ele>232.0</ele>
                <time>2020-08-22T16:15:58.000Z</time>
                <name>Trackpoint 7892</name>
            </trkpt>
            <trkpt lat="50.0301536" lon="10.5517656">
                <ele>232.0</ele>
                <time>2020-08-22T16:16:00.000Z</time>
                <name>Trackpoint 7893</name>
            </trkpt>
            <trkpt lat="50.0301856" lon="10.5516008">
                <ele>231.0</ele>
                <time>2020-08-22T16:16:02.000Z</time>
                <name>Trackpoint 7894</name>
            </trkpt>
            <trkpt lat="50.0302208" lon="10.5514272">
                <ele>231.0</ele>
                <time>2020-08-22T16:16:04.000Z</time>
                <name>Trackpoint 7895</name>
            </trkpt>
            <trkpt lat="50.0302304" lon="10.5513352">
                <ele>230.0</ele>
                <time>2020-08-22T16:16:05.000Z</time>
                <name>Trackpoint 7896</name>
            </trkpt>
            <trkpt lat="50.0302464" lon="10.55124">
                <ele>230.0</ele>
                <time>2020-08-22T16:16:06.000Z</time>
                <name>Trackpoint 7897</name>
            </trkpt>
            <trkpt lat="50.0302624" lon="10.5511448">
                <ele>230.0</ele>
                <time>2020-08-22T16:16:07.000Z</time>
                <name>Trackpoint 7898</name>
            </trkpt>
            <trkpt lat="50.0302784" lon="10.5510528">
                <ele>230.0</ele>
                <time>2020-08-22T16:16:08.000Z</time>
                <name>Trackpoint 7899</name>
            </trkpt>
            <trkpt lat="50.030288" lon="10.5509584">
                <ele>230.0</ele>
                <time>2020-08-22T16:16:09.000Z</time>
                <name>Trackpoint 7900</name>
            </trkpt>
            <trkpt lat="50.030304" lon="10.5508632">
                <ele>230.0</ele>
                <time>2020-08-22T16:16:10.000Z</time>
                <name>Trackpoint 7901</name>
            </trkpt>
            <trkpt lat="50.03032" lon="10.5507648">
                <ele>230.0</ele>
                <time>2020-08-22T16:16:11.000Z</time>
                <name>Trackpoint 7902</name>
            </trkpt>
            <trkpt lat="50.0303296" lon="10.5506688">
                <ele>230.0</ele>
                <time>2020-08-22T16:16:12.000Z</time>
                <name>Trackpoint 7903</name>
            </trkpt>
            <trkpt lat="50.0303424" lon="10.5505632">
                <ele>230.0</ele>
                <time>2020-08-22T16:16:13.000Z</time>
                <name>Trackpoint 7904</name>
            </trkpt>
            <trkpt lat="50.0303488" lon="10.5504616">
                <ele>230.0</ele>
                <time>2020-08-22T16:16:14.000Z</time>
                <name>Trackpoint 7905</name>
            </trkpt>
            <trkpt lat="50.0303584" lon="10.5503616">
                <ele>230.0</ele>
                <time>2020-08-22T16:16:15.000Z</time>
                <name>Trackpoint 7906</name>
            </trkpt>
            <trkpt lat="50.030368" lon="10.5502664">
                <ele>230.0</ele>
                <time>2020-08-22T16:16:16.000Z</time>
                <name>Trackpoint 7907</name>
            </trkpt>
            <trkpt lat="50.0303776" lon="10.5501696">
                <ele>229.0</ele>
                <time>2020-08-22T16:16:17.000Z</time>
                <name>Trackpoint 7908</name>
            </trkpt>
            <trkpt lat="50.030384" lon="10.5500784">
                <ele>230.0</ele>
                <time>2020-08-22T16:16:18.000Z</time>
                <name>Trackpoint 7909</name>
            </trkpt>
            <trkpt lat="50.0303904" lon="10.5498984">
                <ele>230.0</ele>
                <time>2020-08-22T16:16:20.000Z</time>
                <name>Trackpoint 7910</name>
            </trkpt>
            <trkpt lat="50.0304032" lon="10.549728">
                <ele>229.0</ele>
                <time>2020-08-22T16:16:22.000Z</time>
                <name>Trackpoint 7911</name>
            </trkpt>
            <trkpt lat="50.030416" lon="10.5495656">
                <ele>229.0</ele>
                <time>2020-08-22T16:16:24.000Z</time>
                <name>Trackpoint 7912</name>
            </trkpt>
            <trkpt lat="50.0304224" lon="10.5494096">
                <ele>228.0</ele>
                <time>2020-08-22T16:16:26.000Z</time>
                <name>Trackpoint 7913</name>
            </trkpt>
            <trkpt lat="50.0304288" lon="10.5492672">
                <ele>228.0</ele>
                <time>2020-08-22T16:16:28.000Z</time>
                <name>Trackpoint 7914</name>
            </trkpt>
            <trkpt lat="50.0304384" lon="10.5491264">
                <ele>228.0</ele>
                <time>2020-08-22T16:16:30.000Z</time>
                <name>Trackpoint 7915</name>
            </trkpt>
            <trkpt lat="50.0304448" lon="10.5489768">
                <ele>228.0</ele>
                <time>2020-08-22T16:16:32.000Z</time>
                <name>Trackpoint 7916</name>
            </trkpt>
            <trkpt lat="50.030448" lon="10.5488384">
                <ele>228.0</ele>
                <time>2020-08-22T16:16:34.000Z</time>
                <name>Trackpoint 7917</name>
            </trkpt>
            <trkpt lat="50.0304576" lon="10.5486968">
                <ele>228.0</ele>
                <time>2020-08-22T16:16:36.000Z</time>
                <name>Trackpoint 7918</name>
            </trkpt>
            <trkpt lat="50.0304576" lon="10.5485496">
                <ele>228.0</ele>
                <time>2020-08-22T16:16:38.000Z</time>
                <name>Trackpoint 7919</name>
            </trkpt>
            <trkpt lat="50.0304608" lon="10.5483912">
                <ele>228.0</ele>
                <time>2020-08-22T16:16:40.000Z</time>
                <name>Trackpoint 7920</name>
            </trkpt>
            <trkpt lat="50.030464" lon="10.5482352">
                <ele>228.0</ele>
                <time>2020-08-22T16:16:42.000Z</time>
                <name>Trackpoint 7921</name>
            </trkpt>
            <trkpt lat="50.0304608" lon="10.5480736">
                <ele>228.0</ele>
                <time>2020-08-22T16:16:44.000Z</time>
                <name>Trackpoint 7922</name>
            </trkpt>
            <trkpt lat="50.0304576" lon="10.5479832">
                <ele>228.0</ele>
                <time>2020-08-22T16:16:45.000Z</time>
                <name>Trackpoint 7923</name>
            </trkpt>
            <trkpt lat="50.030448" lon="10.5478064">
                <ele>228.0</ele>
                <time>2020-08-22T16:16:47.000Z</time>
                <name>Trackpoint 7924</name>
            </trkpt>
            <trkpt lat="50.0304448" lon="10.5476288">
                <ele>228.0</ele>
                <time>2020-08-22T16:16:49.000Z</time>
                <name>Trackpoint 7925</name>
            </trkpt>
            <trkpt lat="50.0304416" lon="10.5474552">
                <ele>228.0</ele>
                <time>2020-08-22T16:16:51.000Z</time>
                <name>Trackpoint 7926</name>
            </trkpt>
            <trkpt lat="50.0304384" lon="10.5473">
                <ele>229.0</ele>
                <time>2020-08-22T16:16:53.000Z</time>
                <name>Trackpoint 7927</name>
            </trkpt>
            <trkpt lat="50.0304288" lon="10.5471432">
                <ele>228.0</ele>
                <time>2020-08-22T16:16:55.000Z</time>
                <name>Trackpoint 7928</name>
            </trkpt>
            <trkpt lat="50.0304288" lon="10.546984">
                <ele>228.0</ele>
                <time>2020-08-22T16:16:57.000Z</time>
                <name>Trackpoint 7929</name>
            </trkpt>
            <trkpt lat="50.0304192" lon="10.5468256">
                <ele>228.0</ele>
                <time>2020-08-22T16:16:59.000Z</time>
                <name>Trackpoint 7930</name>
            </trkpt>
            <trkpt lat="50.0304096" lon="10.5466616">
                <ele>227.0</ele>
                <time>2020-08-22T16:17:01.000Z</time>
                <name>Trackpoint 7931</name>
            </trkpt>
            <trkpt lat="50.0304" lon="10.5464984">
                <ele>228.0</ele>
                <time>2020-08-22T16:17:03.000Z</time>
                <name>Trackpoint 7932</name>
            </trkpt>
            <trkpt lat="50.0303872" lon="10.5463288">
                <ele>228.0</ele>
                <time>2020-08-22T16:17:05.000Z</time>
                <name>Trackpoint 7933</name>
            </trkpt>
            <trkpt lat="50.0303712" lon="10.5461704">
                <ele>228.0</ele>
                <time>2020-08-22T16:17:07.000Z</time>
                <name>Trackpoint 7934</name>
            </trkpt>
            <trkpt lat="50.0303648" lon="10.546012">
                <ele>228.0</ele>
                <time>2020-08-22T16:17:09.000Z</time>
                <name>Trackpoint 7935</name>
            </trkpt>
            <trkpt lat="50.030352" lon="10.5458568">
                <ele>228.0</ele>
                <time>2020-08-22T16:17:11.000Z</time>
                <name>Trackpoint 7936</name>
            </trkpt>
            <trkpt lat="50.0303392" lon="10.5457064">
                <ele>229.0</ele>
                <time>2020-08-22T16:17:13.000Z</time>
                <name>Trackpoint 7937</name>
            </trkpt>
            <trkpt lat="50.0303264" lon="10.5455568">
                <ele>229.0</ele>
                <time>2020-08-22T16:17:15.000Z</time>
                <name>Trackpoint 7938</name>
            </trkpt>
            <trkpt lat="50.0303232" lon="10.5454104">
                <ele>229.0</ele>
                <time>2020-08-22T16:17:17.000Z</time>
                <name>Trackpoint 7939</name>
            </trkpt>
            <trkpt lat="50.0303104" lon="10.5452672">
                <ele>229.0</ele>
                <time>2020-08-22T16:17:19.000Z</time>
                <name>Trackpoint 7940</name>
            </trkpt>
            <trkpt lat="50.030304" lon="10.5451248">
                <ele>229.0</ele>
                <time>2020-08-22T16:17:21.000Z</time>
                <name>Trackpoint 7941</name>
            </trkpt>
            <trkpt lat="50.0302976" lon="10.5449832">
                <ele>229.0</ele>
                <time>2020-08-22T16:17:23.000Z</time>
                <name>Trackpoint 7942</name>
            </trkpt>
            <trkpt lat="50.030288" lon="10.544844">
                <ele>229.0</ele>
                <time>2020-08-22T16:17:25.000Z</time>
                <name>Trackpoint 7943</name>
            </trkpt>
            <trkpt lat="50.0302816" lon="10.5447056">
                <ele>229.0</ele>
                <time>2020-08-22T16:17:27.000Z</time>
                <name>Trackpoint 7944</name>
            </trkpt>
            <trkpt lat="50.030272" lon="10.5445672">
                <ele>230.0</ele>
                <time>2020-08-22T16:17:29.000Z</time>
                <name>Trackpoint 7945</name>
            </trkpt>
            <trkpt lat="50.030272" lon="10.544428">
                <ele>229.0</ele>
                <time>2020-08-22T16:17:31.000Z</time>
                <name>Trackpoint 7946</name>
            </trkpt>
            <trkpt lat="50.030272" lon="10.5442888">
                <ele>229.0</ele>
                <time>2020-08-22T16:17:33.000Z</time>
                <name>Trackpoint 7947</name>
            </trkpt>
            <trkpt lat="50.0302784" lon="10.5441488">
                <ele>229.0</ele>
                <time>2020-08-22T16:17:35.000Z</time>
                <name>Trackpoint 7948</name>
            </trkpt>
            <trkpt lat="50.030272" lon="10.544008">
                <ele>229.0</ele>
                <time>2020-08-22T16:17:37.000Z</time>
                <name>Trackpoint 7949</name>
            </trkpt>
            <trkpt lat="50.030272" lon="10.543868">
                <ele>229.0</ele>
                <time>2020-08-22T16:17:39.000Z</time>
                <name>Trackpoint 7950</name>
            </trkpt>
            <trkpt lat="50.030272" lon="10.5437296">
                <ele>229.0</ele>
                <time>2020-08-22T16:17:41.000Z</time>
                <name>Trackpoint 7951</name>
            </trkpt>
            <trkpt lat="50.0302816" lon="10.5435896">
                <ele>229.0</ele>
                <time>2020-08-22T16:17:43.000Z</time>
                <name>Trackpoint 7952</name>
            </trkpt>
            <trkpt lat="50.030288" lon="10.5434488">
                <ele>228.0</ele>
                <time>2020-08-22T16:17:45.000Z</time>
                <name>Trackpoint 7953</name>
            </trkpt>
            <trkpt lat="50.0302912" lon="10.5433104">
                <ele>229.0</ele>
                <time>2020-08-22T16:17:47.000Z</time>
                <name>Trackpoint 7954</name>
            </trkpt>
            <trkpt lat="50.0302976" lon="10.5431616">
                <ele>229.0</ele>
                <time>2020-08-22T16:17:49.000Z</time>
                <name>Trackpoint 7955</name>
            </trkpt>
            <trkpt lat="50.0303072" lon="10.5430184">
                <ele>228.0</ele>
                <time>2020-08-22T16:17:51.000Z</time>
                <name>Trackpoint 7956</name>
            </trkpt>
            <trkpt lat="50.03032" lon="10.5428696">
                <ele>228.0</ele>
                <time>2020-08-22T16:17:53.000Z</time>
                <name>Trackpoint 7957</name>
            </trkpt>
            <trkpt lat="50.0303264" lon="10.5427168">
                <ele>228.0</ele>
                <time>2020-08-22T16:17:55.000Z</time>
                <name>Trackpoint 7958</name>
            </trkpt>
            <trkpt lat="50.0303392" lon="10.542572">
                <ele>228.0</ele>
                <time>2020-08-22T16:17:57.000Z</time>
                <name>Trackpoint 7959</name>
            </trkpt>
            <trkpt lat="50.0303488" lon="10.5424296">
                <ele>228.0</ele>
                <time>2020-08-22T16:17:59.000Z</time>
                <name>Trackpoint 7960</name>
            </trkpt>
            <trkpt lat="50.0303648" lon="10.542292">
                <ele>227.0</ele>
                <time>2020-08-22T16:18:01.000Z</time>
                <name>Trackpoint 7961</name>
            </trkpt>
            <trkpt lat="50.030384" lon="10.54216">
                <ele>227.0</ele>
                <time>2020-08-22T16:18:03.000Z</time>
                <name>Trackpoint 7962</name>
            </trkpt>
            <trkpt lat="50.0304032" lon="10.5420264">
                <ele>227.0</ele>
                <time>2020-08-22T16:18:05.000Z</time>
                <name>Trackpoint 7963</name>
            </trkpt>
            <trkpt lat="50.0304288" lon="10.5419">
                <ele>227.0</ele>
                <time>2020-08-22T16:18:07.000Z</time>
                <name>Trackpoint 7964</name>
            </trkpt>
            <trkpt lat="50.0304576" lon="10.5417784">
                <ele>227.0</ele>
                <time>2020-08-22T16:18:09.000Z</time>
                <name>Trackpoint 7965</name>
            </trkpt>
            <trkpt lat="50.03048" lon="10.5416696">
                <ele>227.0</ele>
                <time>2020-08-22T16:18:11.000Z</time>
                <name>Trackpoint 7966</name>
            </trkpt>
            <trkpt lat="50.0305088" lon="10.54158">
                <ele>228.0</ele>
                <time>2020-08-22T16:18:13.000Z</time>
                <name>Trackpoint 7967</name>
            </trkpt>
            <trkpt lat="50.030544" lon="10.5414952">
                <ele>227.0</ele>
                <time>2020-08-22T16:18:23.000Z</time>
                <name>Trackpoint 7968</name>
            </trkpt>
            <trkpt lat="50.0305184" lon="10.5413784">
                <ele>228.0</ele>
                <time>2020-08-22T16:19:35.000Z</time>
                <name>Trackpoint 7969</name>
            </trkpt>
            <trkpt lat="50.0305344" lon="10.5412816">
                <ele>228.0</ele>
                <time>2020-08-22T16:19:37.000Z</time>
                <name>Trackpoint 7970</name>
            </trkpt>
            <trkpt lat="50.030544" lon="10.5411728">
                <ele>228.0</ele>
                <time>2020-08-22T16:19:39.000Z</time>
                <name>Trackpoint 7971</name>
            </trkpt>
            <trkpt lat="50.0305696" lon="10.5410568">
                <ele>228.0</ele>
                <time>2020-08-22T16:19:41.000Z</time>
                <name>Trackpoint 7972</name>
            </trkpt>
            <trkpt lat="50.030608" lon="10.5409248">
                <ele>228.0</ele>
                <time>2020-08-22T16:19:43.000Z</time>
                <name>Trackpoint 7973</name>
            </trkpt>
            <trkpt lat="50.030656" lon="10.5407784">
                <ele>227.0</ele>
                <time>2020-08-22T16:19:45.000Z</time>
                <name>Trackpoint 7974</name>
            </trkpt>
            <trkpt lat="50.0306976" lon="10.5406352">
                <ele>227.0</ele>
                <time>2020-08-22T16:19:47.000Z</time>
                <name>Trackpoint 7975</name>
            </trkpt>
            <trkpt lat="50.030736" lon="10.5404864">
                <ele>227.0</ele>
                <time>2020-08-22T16:19:49.000Z</time>
                <name>Trackpoint 7976</name>
            </trkpt>
            <trkpt lat="50.0307808" lon="10.5403344">
                <ele>227.0</ele>
                <time>2020-08-22T16:19:51.000Z</time>
                <name>Trackpoint 7977</name>
            </trkpt>
            <trkpt lat="50.0308256" lon="10.5401784">
                <ele>228.0</ele>
                <time>2020-08-22T16:19:53.000Z</time>
                <name>Trackpoint 7978</name>
            </trkpt>
            <trkpt lat="50.0308768" lon="10.5400288">
                <ele>227.0</ele>
                <time>2020-08-22T16:19:55.000Z</time>
                <name>Trackpoint 7979</name>
            </trkpt>
            <trkpt lat="50.0309216" lon="10.5398776">
                <ele>227.0</ele>
                <time>2020-08-22T16:19:57.000Z</time>
                <name>Trackpoint 7980</name>
            </trkpt>
            <trkpt lat="50.0309632" lon="10.5397304">
                <ele>227.0</ele>
                <time>2020-08-22T16:19:59.000Z</time>
                <name>Trackpoint 7981</name>
            </trkpt>
            <trkpt lat="50.0310208" lon="10.5395744">
                <ele>227.0</ele>
                <time>2020-08-22T16:20:01.000Z</time>
                <name>Trackpoint 7982</name>
            </trkpt>
            <trkpt lat="50.031072" lon="10.5394248">
                <ele>226.0</ele>
                <time>2020-08-22T16:20:03.000Z</time>
                <name>Trackpoint 7983</name>
            </trkpt>
            <trkpt lat="50.03112" lon="10.5392784">
                <ele>226.0</ele>
                <time>2020-08-22T16:20:05.000Z</time>
                <name>Trackpoint 7984</name>
            </trkpt>
            <trkpt lat="50.0311648" lon="10.5391328">
                <ele>226.0</ele>
                <time>2020-08-22T16:20:07.000Z</time>
                <name>Trackpoint 7985</name>
            </trkpt>
            <trkpt lat="50.031216" lon="10.5389928">
                <ele>226.0</ele>
                <time>2020-08-22T16:20:09.000Z</time>
                <name>Trackpoint 7986</name>
            </trkpt>
            <trkpt lat="50.031264" lon="10.538852">
                <ele>226.0</ele>
                <time>2020-08-22T16:20:11.000Z</time>
                <name>Trackpoint 7987</name>
            </trkpt>
            <trkpt lat="50.0313152" lon="10.5387136">
                <ele>227.0</ele>
                <time>2020-08-22T16:20:13.000Z</time>
                <name>Trackpoint 7988</name>
            </trkpt>
            <trkpt lat="50.03136" lon="10.5385784">
                <ele>227.0</ele>
                <time>2020-08-22T16:20:15.000Z</time>
                <name>Trackpoint 7989</name>
            </trkpt>
            <trkpt lat="50.0314112" lon="10.5384384">
                <ele>227.0</ele>
                <time>2020-08-22T16:20:17.000Z</time>
                <name>Trackpoint 7990</name>
            </trkpt>
            <trkpt lat="50.031456" lon="10.5383064">
                <ele>227.0</ele>
                <time>2020-08-22T16:20:19.000Z</time>
                <name>Trackpoint 7991</name>
            </trkpt>
            <trkpt lat="50.0314976" lon="10.538168">
                <ele>227.0</ele>
                <time>2020-08-22T16:20:21.000Z</time>
                <name>Trackpoint 7992</name>
            </trkpt>
            <trkpt lat="50.0315392" lon="10.5380296">
                <ele>227.0</ele>
                <time>2020-08-22T16:20:23.000Z</time>
                <name>Trackpoint 7993</name>
            </trkpt>
            <trkpt lat="50.0315808" lon="10.537904">
                <ele>227.0</ele>
                <time>2020-08-22T16:20:25.000Z</time>
                <name>Trackpoint 7994</name>
            </trkpt>
            <trkpt lat="50.0316224" lon="10.5377704">
                <ele>227.0</ele>
                <time>2020-08-22T16:20:27.000Z</time>
                <name>Trackpoint 7995</name>
            </trkpt>
            <trkpt lat="50.0316672" lon="10.5376304">
                <ele>227.0</ele>
                <time>2020-08-22T16:20:29.000Z</time>
                <name>Trackpoint 7996</name>
            </trkpt>
            <trkpt lat="50.0317088" lon="10.5374872">
                <ele>228.0</ele>
                <time>2020-08-22T16:20:31.000Z</time>
                <name>Trackpoint 7997</name>
            </trkpt>
            <trkpt lat="50.0317408" lon="10.5373624">
                <ele>228.0</ele>
                <time>2020-08-22T16:20:33.000Z</time>
                <name>Trackpoint 7998</name>
            </trkpt>
            <trkpt lat="50.0317792" lon="10.5372264">
                <ele>228.0</ele>
                <time>2020-08-22T16:20:35.000Z</time>
                <name>Trackpoint 7999</name>
            </trkpt>
            <trkpt lat="50.0318176" lon="10.5370864">
                <ele>228.0</ele>
                <time>2020-08-22T16:20:37.000Z</time>
                <name>Trackpoint 8000</name>
            </trkpt>
            <trkpt lat="50.031856" lon="10.5369416">
                <ele>228.0</ele>
                <time>2020-08-22T16:20:39.000Z</time>
                <name>Trackpoint 8001</name>
            </trkpt>
            <trkpt lat="50.0318848" lon="10.5368048">
                <ele>228.0</ele>
                <time>2020-08-22T16:20:41.000Z</time>
                <name>Trackpoint 8002</name>
            </trkpt>
            <trkpt lat="50.0319104" lon="10.5366688">
                <ele>228.0</ele>
                <time>2020-08-22T16:20:43.000Z</time>
                <name>Trackpoint 8003</name>
            </trkpt>
            <trkpt lat="50.0319488" lon="10.536536">
                <ele>228.0</ele>
                <time>2020-08-22T16:20:45.000Z</time>
                <name>Trackpoint 8004</name>
            </trkpt>
            <trkpt lat="50.0319968" lon="10.5364336">
                <ele>228.0</ele>
                <time>2020-08-22T16:20:47.000Z</time>
                <name>Trackpoint 8005</name>
            </trkpt>
            <trkpt lat="50.0320544" lon="10.5363504">
                <ele>228.0</ele>
                <time>2020-08-22T16:20:49.000Z</time>
                <name>Trackpoint 8006</name>
            </trkpt>
            <trkpt lat="50.032096" lon="10.5362584">
                <ele>228.0</ele>
                <time>2020-08-22T16:20:51.000Z</time>
                <name>Trackpoint 8007</name>
            </trkpt>
            <trkpt lat="50.032112" lon="10.5361408">
                <ele>228.0</ele>
                <time>2020-08-22T16:20:53.000Z</time>
                <name>Trackpoint 8008</name>
            </trkpt>
            <trkpt lat="50.0321088" lon="10.5360184">
                <ele>228.0</ele>
                <time>2020-08-22T16:20:55.000Z</time>
                <name>Trackpoint 8009</name>
            </trkpt>
            <trkpt lat="50.0321088" lon="10.5358864">
                <ele>227.0</ele>
                <time>2020-08-22T16:20:57.000Z</time>
                <name>Trackpoint 8010</name>
            </trkpt>
            <trkpt lat="50.032112" lon="10.5357464">
                <ele>227.0</ele>
                <time>2020-08-22T16:20:59.000Z</time>
                <name>Trackpoint 8011</name>
            </trkpt>
            <trkpt lat="50.0321088" lon="10.5355968">
                <ele>227.0</ele>
                <time>2020-08-22T16:21:01.000Z</time>
                <name>Trackpoint 8012</name>
            </trkpt>
            <trkpt lat="50.0321056" lon="10.5354536">
                <ele>227.0</ele>
                <time>2020-08-22T16:21:03.000Z</time>
                <name>Trackpoint 8013</name>
            </trkpt>
            <trkpt lat="50.0321056" lon="10.5353296">
                <ele>227.0</ele>
                <time>2020-08-22T16:21:05.000Z</time>
                <name>Trackpoint 8014</name>
            </trkpt>
            <trkpt lat="50.0321088" lon="10.5352136">
                <ele>228.0</ele>
                <time>2020-08-22T16:21:07.000Z</time>
                <name>Trackpoint 8015</name>
            </trkpt>
            <trkpt lat="50.032128" lon="10.5351088">
                <ele>228.0</ele>
                <time>2020-08-22T16:21:09.000Z</time>
                <name>Trackpoint 8016</name>
            </trkpt>
            <trkpt lat="50.0321376" lon="10.5350128">
                <ele>229.0</ele>
                <time>2020-08-22T16:21:11.000Z</time>
                <name>Trackpoint 8017</name>
            </trkpt>
            <trkpt lat="50.0320864" lon="10.5349352">
                <ele>230.0</ele>
                <time>2020-08-22T16:21:16.000Z</time>
                <name>Trackpoint 8018</name>
            </trkpt>
            <trkpt lat="50.0320864" lon="10.5348416">
                <ele>228.0</ele>
                <time>2020-08-22T16:22:24.000Z</time>
                <name>Trackpoint 8019</name>
            </trkpt>
            <trkpt lat="50.0320992" lon="10.5347432">
                <ele>229.0</ele>
                <time>2020-08-22T16:22:27.000Z</time>
                <name>Trackpoint 8020</name>
            </trkpt>
            <trkpt lat="50.0321088" lon="10.5346472">
                <ele>229.0</ele>
                <time>2020-08-22T16:22:29.000Z</time>
                <name>Trackpoint 8021</name>
            </trkpt>
            <trkpt lat="50.032128" lon="10.5345424">
                <ele>229.0</ele>
                <time>2020-08-22T16:22:31.000Z</time>
                <name>Trackpoint 8022</name>
            </trkpt>
            <trkpt lat="50.0322144" lon="10.5344384">
                <ele>228.0</ele>
                <time>2020-08-22T16:22:34.000Z</time>
                <name>Trackpoint 8023</name>
            </trkpt>
            <trkpt lat="50.032304" lon="10.5343784">
                <ele>228.0</ele>
                <time>2020-08-22T16:22:37.000Z</time>
                <name>Trackpoint 8024</name>
            </trkpt>
            <trkpt lat="50.032368" lon="10.5342912">
                <ele>228.0</ele>
                <time>2020-08-22T16:22:41.000Z</time>
                <name>Trackpoint 8025</name>
            </trkpt>
            <trkpt lat="50.0323168" lon="10.5341784">
                <ele>228.0</ele>
                <time>2020-08-22T16:22:44.000Z</time>
                <name>Trackpoint 8026</name>
            </trkpt>
            <trkpt lat="50.0322624" lon="10.5340984">
                <ele>229.0</ele>
                <time>2020-08-22T16:22:46.000Z</time>
                <name>Trackpoint 8027</name>
            </trkpt>
            <trkpt lat="50.0322112" lon="10.5340136">
                <ele>228.0</ele>
                <time>2020-08-22T16:22:48.000Z</time>
                <name>Trackpoint 8028</name>
            </trkpt>
            <trkpt lat="50.0321568" lon="10.53392">
                <ele>229.0</ele>
                <time>2020-08-22T16:22:50.000Z</time>
                <name>Trackpoint 8029</name>
            </trkpt>
            <trkpt lat="50.0321184" lon="10.5338032">
                <ele>228.0</ele>
                <time>2020-08-22T16:22:52.000Z</time>
                <name>Trackpoint 8030</name>
            </trkpt>
            <trkpt lat="50.0320992" lon="10.5336768">
                <ele>228.0</ele>
                <time>2020-08-22T16:22:54.000Z</time>
                <name>Trackpoint 8031</name>
            </trkpt>
            <trkpt lat="50.0320768" lon="10.533548">
                <ele>228.0</ele>
                <time>2020-08-22T16:22:56.000Z</time>
                <name>Trackpoint 8032</name>
            </trkpt>
            <trkpt lat="50.0320544" lon="10.53342">
                <ele>229.0</ele>
                <time>2020-08-22T16:22:58.000Z</time>
                <name>Trackpoint 8033</name>
            </trkpt>
            <trkpt lat="50.0320288" lon="10.5332896">
                <ele>229.0</ele>
                <time>2020-08-22T16:23:00.000Z</time>
                <name>Trackpoint 8034</name>
            </trkpt>
            <trkpt lat="50.0320064" lon="10.53316">
                <ele>229.0</ele>
                <time>2020-08-22T16:23:02.000Z</time>
                <name>Trackpoint 8035</name>
            </trkpt>
            <trkpt lat="50.0319904" lon="10.5330248">
                <ele>229.0</ele>
                <time>2020-08-22T16:23:04.000Z</time>
                <name>Trackpoint 8036</name>
            </trkpt>
            <trkpt lat="50.031968" lon="10.5328864">
                <ele>229.0</ele>
                <time>2020-08-22T16:23:06.000Z</time>
                <name>Trackpoint 8037</name>
            </trkpt>
            <trkpt lat="50.0319456" lon="10.5327456">
                <ele>229.0</ele>
                <time>2020-08-22T16:23:08.000Z</time>
                <name>Trackpoint 8038</name>
            </trkpt>
            <trkpt lat="50.0319168" lon="10.5326016">
                <ele>229.0</ele>
                <time>2020-08-22T16:23:10.000Z</time>
                <name>Trackpoint 8039</name>
            </trkpt>
            <trkpt lat="50.031888" lon="10.532456">
                <ele>229.0</ele>
                <time>2020-08-22T16:23:12.000Z</time>
                <name>Trackpoint 8040</name>
            </trkpt>
            <trkpt lat="50.0318656" lon="10.5323136">
                <ele>229.0</ele>
                <time>2020-08-22T16:23:14.000Z</time>
                <name>Trackpoint 8041</name>
            </trkpt>
            <trkpt lat="50.0318336" lon="10.532168">
                <ele>229.0</ele>
                <time>2020-08-22T16:23:16.000Z</time>
                <name>Trackpoint 8042</name>
            </trkpt>
            <trkpt lat="50.0318016" lon="10.532028">
                <ele>229.0</ele>
                <time>2020-08-22T16:23:18.000Z</time>
                <name>Trackpoint 8043</name>
            </trkpt>
            <trkpt lat="50.0317728" lon="10.5318848">
                <ele>229.0</ele>
                <time>2020-08-22T16:23:20.000Z</time>
                <name>Trackpoint 8044</name>
            </trkpt>
            <trkpt lat="50.0317472" lon="10.5317384">
                <ele>229.0</ele>
                <time>2020-08-22T16:23:22.000Z</time>
                <name>Trackpoint 8045</name>
            </trkpt>
            <trkpt lat="50.0317152" lon="10.5315912">
                <ele>228.0</ele>
                <time>2020-08-22T16:23:24.000Z</time>
                <name>Trackpoint 8046</name>
            </trkpt>
            <trkpt lat="50.0316896" lon="10.5314448">
                <ele>229.0</ele>
                <time>2020-08-22T16:23:26.000Z</time>
                <name>Trackpoint 8047</name>
            </trkpt>
            <trkpt lat="50.0316608" lon="10.5312952">
                <ele>228.0</ele>
                <time>2020-08-22T16:23:28.000Z</time>
                <name>Trackpoint 8048</name>
            </trkpt>
            <trkpt lat="50.0316352" lon="10.5311432">
                <ele>228.0</ele>
                <time>2020-08-22T16:23:30.000Z</time>
                <name>Trackpoint 8049</name>
            </trkpt>
            <trkpt lat="50.0316096" lon="10.5309896">
                <ele>228.0</ele>
                <time>2020-08-22T16:23:32.000Z</time>
                <name>Trackpoint 8050</name>
            </trkpt>
            <trkpt lat="50.0315872" lon="10.5308352">
                <ele>228.0</ele>
                <time>2020-08-22T16:23:34.000Z</time>
                <name>Trackpoint 8051</name>
            </trkpt>
            <trkpt lat="50.0315616" lon="10.5306752">
                <ele>228.0</ele>
                <time>2020-08-22T16:23:36.000Z</time>
                <name>Trackpoint 8052</name>
            </trkpt>
            <trkpt lat="50.031536" lon="10.5305136">
                <ele>228.0</ele>
                <time>2020-08-22T16:23:38.000Z</time>
                <name>Trackpoint 8053</name>
            </trkpt>
            <trkpt lat="50.0315168" lon="10.5303496">
                <ele>227.0</ele>
                <time>2020-08-22T16:23:40.000Z</time>
                <name>Trackpoint 8054</name>
            </trkpt>
            <trkpt lat="50.0314944" lon="10.5301912">
                <ele>227.0</ele>
                <time>2020-08-22T16:23:42.000Z</time>
                <name>Trackpoint 8055</name>
            </trkpt>
            <trkpt lat="50.031472" lon="10.5300352">
                <ele>227.0</ele>
                <time>2020-08-22T16:23:44.000Z</time>
                <name>Trackpoint 8056</name>
            </trkpt>
            <trkpt lat="50.0314528" lon="10.5298784">
                <ele>227.0</ele>
                <time>2020-08-22T16:23:46.000Z</time>
                <name>Trackpoint 8057</name>
            </trkpt>
            <trkpt lat="50.0314336" lon="10.5297232">
                <ele>227.0</ele>
                <time>2020-08-22T16:23:48.000Z</time>
                <name>Trackpoint 8058</name>
            </trkpt>
            <trkpt lat="50.0314112" lon="10.5295696">
                <ele>227.0</ele>
                <time>2020-08-22T16:23:50.000Z</time>
                <name>Trackpoint 8059</name>
            </trkpt>
            <trkpt lat="50.0313952" lon="10.529424">
                <ele>228.0</ele>
                <time>2020-08-22T16:23:52.000Z</time>
                <name>Trackpoint 8060</name>
            </trkpt>
            <trkpt lat="50.0313792" lon="10.5292768">
                <ele>228.0</ele>
                <time>2020-08-22T16:23:54.000Z</time>
                <name>Trackpoint 8061</name>
            </trkpt>
            <trkpt lat="50.0313696" lon="10.529132">
                <ele>228.0</ele>
                <time>2020-08-22T16:23:56.000Z</time>
                <name>Trackpoint 8062</name>
            </trkpt>
            <trkpt lat="50.0313632" lon="10.5289848">
                <ele>228.0</ele>
                <time>2020-08-22T16:23:58.000Z</time>
                <name>Trackpoint 8063</name>
            </trkpt>
            <trkpt lat="50.0313568" lon="10.5288432">
                <ele>228.0</ele>
                <time>2020-08-22T16:24:00.000Z</time>
                <name>Trackpoint 8064</name>
            </trkpt>
            <trkpt lat="50.0313568" lon="10.5287048">
                <ele>228.0</ele>
                <time>2020-08-22T16:24:02.000Z</time>
                <name>Trackpoint 8065</name>
            </trkpt>
            <trkpt lat="50.0313536" lon="10.5285656">
                <ele>228.0</ele>
                <time>2020-08-22T16:24:04.000Z</time>
                <name>Trackpoint 8066</name>
            </trkpt>
            <trkpt lat="50.031344" lon="10.5284216">
                <ele>228.0</ele>
                <time>2020-08-22T16:24:06.000Z</time>
                <name>Trackpoint 8067</name>
            </trkpt>
            <trkpt lat="50.0313504" lon="10.5282816">
                <ele>228.0</ele>
                <time>2020-08-22T16:24:08.000Z</time>
                <name>Trackpoint 8068</name>
            </trkpt>
            <trkpt lat="50.0313568" lon="10.5281448">
                <ele>228.0</ele>
                <time>2020-08-22T16:24:10.000Z</time>
                <name>Trackpoint 8069</name>
            </trkpt>
            <trkpt lat="50.0313632" lon="10.5280016">
                <ele>228.0</ele>
                <time>2020-08-22T16:24:12.000Z</time>
                <name>Trackpoint 8070</name>
            </trkpt>
            <trkpt lat="50.0313696" lon="10.5278584">
                <ele>228.0</ele>
                <time>2020-08-22T16:24:14.000Z</time>
                <name>Trackpoint 8071</name>
            </trkpt>
            <trkpt lat="50.0313792" lon="10.5277184">
                <ele>227.0</ele>
                <time>2020-08-22T16:24:16.000Z</time>
                <name>Trackpoint 8072</name>
            </trkpt>
            <trkpt lat="50.0313792" lon="10.5275696">
                <ele>228.0</ele>
                <time>2020-08-22T16:24:18.000Z</time>
                <name>Trackpoint 8073</name>
            </trkpt>
            <trkpt lat="50.0313824" lon="10.5274288">
                <ele>228.0</ele>
                <time>2020-08-22T16:24:20.000Z</time>
                <name>Trackpoint 8074</name>
            </trkpt>
            <trkpt lat="50.0313888" lon="10.5272848">
                <ele>228.0</ele>
                <time>2020-08-22T16:24:22.000Z</time>
                <name>Trackpoint 8075</name>
            </trkpt>
            <trkpt lat="50.0313952" lon="10.5271432">
                <ele>227.0</ele>
                <time>2020-08-22T16:24:24.000Z</time>
                <name>Trackpoint 8076</name>
            </trkpt>
            <trkpt lat="50.0313824" lon="10.527052">
                <ele>228.0</ele>
                <time>2020-08-22T16:24:25.000Z</time>
                <name>Trackpoint 8077</name>
            </trkpt>
            <trkpt lat="50.0313824" lon="10.5269032">
                <ele>229.0</ele>
                <time>2020-08-22T16:24:27.000Z</time>
                <name>Trackpoint 8078</name>
            </trkpt>
            <trkpt lat="50.0313888" lon="10.5267584">
                <ele>229.0</ele>
                <time>2020-08-22T16:24:29.000Z</time>
                <name>Trackpoint 8079</name>
            </trkpt>
            <trkpt lat="50.0313952" lon="10.5266168">
                <ele>229.0</ele>
                <time>2020-08-22T16:24:31.000Z</time>
                <name>Trackpoint 8080</name>
            </trkpt>
            <trkpt lat="50.0313984" lon="10.5264728">
                <ele>229.0</ele>
                <time>2020-08-22T16:24:33.000Z</time>
                <name>Trackpoint 8081</name>
            </trkpt>
            <trkpt lat="50.0314016" lon="10.526332">
                <ele>230.0</ele>
                <time>2020-08-22T16:24:35.000Z</time>
                <name>Trackpoint 8082</name>
            </trkpt>
            <trkpt lat="50.0313952" lon="10.5261872">
                <ele>230.0</ele>
                <time>2020-08-22T16:24:37.000Z</time>
                <name>Trackpoint 8083</name>
            </trkpt>
            <trkpt lat="50.0313888" lon="10.5260432">
                <ele>230.0</ele>
                <time>2020-08-22T16:24:39.000Z</time>
                <name>Trackpoint 8084</name>
            </trkpt>
            <trkpt lat="50.0313792" lon="10.5259048">
                <ele>230.0</ele>
                <time>2020-08-22T16:24:41.000Z</time>
                <name>Trackpoint 8085</name>
            </trkpt>
            <trkpt lat="50.0313696" lon="10.525772">
                <ele>230.0</ele>
                <time>2020-08-22T16:24:43.000Z</time>
                <name>Trackpoint 8086</name>
            </trkpt>
            <trkpt lat="50.0313536" lon="10.5256368">
                <ele>230.0</ele>
                <time>2020-08-22T16:24:45.000Z</time>
                <name>Trackpoint 8087</name>
            </trkpt>
            <trkpt lat="50.0313344" lon="10.5255048">
                <ele>230.0</ele>
                <time>2020-08-22T16:24:47.000Z</time>
                <name>Trackpoint 8088</name>
            </trkpt>
            <trkpt lat="50.0313312" lon="10.52538">
                <ele>230.0</ele>
                <time>2020-08-22T16:24:49.000Z</time>
                <name>Trackpoint 8089</name>
            </trkpt>
            <trkpt lat="50.0313216" lon="10.5252688">
                <ele>230.0</ele>
                <time>2020-08-22T16:24:51.000Z</time>
                <name>Trackpoint 8090</name>
            </trkpt>
            <trkpt lat="50.031312" lon="10.5251616">
                <ele>230.0</ele>
                <time>2020-08-22T16:24:53.000Z</time>
                <name>Trackpoint 8091</name>
            </trkpt>
            <trkpt lat="50.0313024" lon="10.5250656">
                <ele>230.0</ele>
                <time>2020-08-22T16:24:55.000Z</time>
                <name>Trackpoint 8092</name>
            </trkpt>
            <trkpt lat="50.0312832" lon="10.524972">
                <ele>230.0</ele>
                <time>2020-08-22T16:25:00.000Z</time>
                <name>Trackpoint 8093</name>
            </trkpt>
            <trkpt lat="50.0312608" lon="10.5248472">
                <ele>229.0</ele>
                <time>2020-08-22T16:25:10.000Z</time>
                <name>Trackpoint 8094</name>
            </trkpt>
            <trkpt lat="50.0312576" lon="10.5247288">
                <ele>230.0</ele>
                <time>2020-08-22T16:25:13.000Z</time>
                <name>Trackpoint 8095</name>
            </trkpt>
            <trkpt lat="50.031232" lon="10.5246312">
                <ele>229.0</ele>
                <time>2020-08-22T16:25:16.000Z</time>
                <name>Trackpoint 8096</name>
            </trkpt>
            <trkpt lat="50.0311936" lon="10.5245448">
                <ele>229.0</ele>
                <time>2020-08-22T16:25:20.000Z</time>
                <name>Trackpoint 8097</name>
            </trkpt>
            <trkpt lat="50.031104" lon="10.5245936">
                <ele>229.0</ele>
                <time>2020-08-22T16:26:04.000Z</time>
                <name>Trackpoint 8098</name>
            </trkpt>
            <trkpt lat="50.0310624" lon="10.5247024">
                <ele>229.0</ele>
                <time>2020-08-22T16:26:07.000Z</time>
                <name>Trackpoint 8099</name>
            </trkpt>
            <trkpt lat="50.0310208" lon="10.524792">
                <ele>228.0</ele>
                <time>2020-08-22T16:26:09.000Z</time>
                <name>Trackpoint 8100</name>
            </trkpt>
            <trkpt lat="50.030944" lon="10.5248568">
                <ele>228.0</ele>
                <time>2020-08-22T16:26:11.000Z</time>
                <name>Trackpoint 8101</name>
            </trkpt>
            <trkpt lat="50.0308608" lon="10.5249072">
                <ele>228.0</ele>
                <time>2020-08-22T16:26:13.000Z</time>
                <name>Trackpoint 8102</name>
            </trkpt>
            <trkpt lat="50.0307744" lon="10.5249632">
                <ele>228.0</ele>
                <time>2020-08-22T16:26:15.000Z</time>
                <name>Trackpoint 8103</name>
            </trkpt>
            <trkpt lat="50.0306688" lon="10.5250256">
                <ele>227.0</ele>
                <time>2020-08-22T16:26:18.000Z</time>
                <name>Trackpoint 8104</name>
            </trkpt>
            <trkpt lat="50.0305792" lon="10.5251176">
                <ele>227.0</ele>
                <time>2020-08-22T16:26:21.000Z</time>
                <name>Trackpoint 8105</name>
            </trkpt>
            <trkpt lat="50.0304512" lon="10.5251504">
                <ele>227.0</ele>
                <time>2020-08-22T16:26:24.000Z</time>
                <name>Trackpoint 8106</name>
            </trkpt>
            <trkpt lat="50.0303072" lon="10.5251888">
                <ele>227.0</ele>
                <time>2020-08-22T16:26:27.000Z</time>
                <name>Trackpoint 8107</name>
            </trkpt>
            <trkpt lat="50.0302464" lon="10.5253136">
                <ele>229.0</ele>
                <time>2020-08-22T16:26:30.000Z</time>
                <name>Trackpoint 8108</name>
            </trkpt>
            <trkpt lat="50.0301536" lon="10.5254272">
                <ele>229.0</ele>
                <time>2020-08-22T16:26:32.000Z</time>
                <name>Trackpoint 8109</name>
            </trkpt>
            <trkpt lat="50.029984" lon="10.52544">
                <ele>230.0</ele>
                <time>2020-08-22T16:26:34.000Z</time>
                <name>Trackpoint 8110</name>
            </trkpt>
            <trkpt lat="50.0299136" lon="10.5253824">
                <ele>230.0</ele>
                <time>2020-08-22T16:26:35.000Z</time>
                <name>Trackpoint 8111</name>
            </trkpt>
            <trkpt lat="50.0298496" lon="10.5252864">
                <ele>230.0</ele>
                <time>2020-08-22T16:26:36.000Z</time>
                <name>Trackpoint 8112</name>
            </trkpt>
            <trkpt lat="50.029824" lon="10.5251976">
                <ele>230.0</ele>
                <time>2020-08-22T16:26:37.000Z</time>
                <name>Trackpoint 8113</name>
            </trkpt>
            <trkpt lat="50.0297824" lon="10.5251064">
                <ele>230.0</ele>
                <time>2020-08-22T16:26:38.000Z</time>
                <name>Trackpoint 8114</name>
            </trkpt>
            <trkpt lat="50.02976" lon="10.5250184">
                <ele>231.0</ele>
                <time>2020-08-22T16:26:39.000Z</time>
                <name>Trackpoint 8115</name>
            </trkpt>
            <trkpt lat="50.0297152" lon="10.5248536">
                <ele>232.0</ele>
                <time>2020-08-22T16:26:41.000Z</time>
                <name>Trackpoint 8116</name>
            </trkpt>
            <trkpt lat="50.0296864" lon="10.5246848">
                <ele>232.0</ele>
                <time>2020-08-22T16:26:43.000Z</time>
                <name>Trackpoint 8117</name>
            </trkpt>
            <trkpt lat="50.0296544" lon="10.5245152">
                <ele>232.0</ele>
                <time>2020-08-22T16:26:45.000Z</time>
                <name>Trackpoint 8118</name>
            </trkpt>
            <trkpt lat="50.0296256" lon="10.5244248">
                <ele>233.0</ele>
                <time>2020-08-22T16:26:46.000Z</time>
                <name>Trackpoint 8119</name>
            </trkpt>
            <trkpt lat="50.0296032" lon="10.5243368">
                <ele>232.0</ele>
                <time>2020-08-22T16:26:47.000Z</time>
                <name>Trackpoint 8120</name>
            </trkpt>
            <trkpt lat="50.0295872" lon="10.524248">
                <ele>232.0</ele>
                <time>2020-08-22T16:26:48.000Z</time>
                <name>Trackpoint 8121</name>
            </trkpt>
            <trkpt lat="50.0295712" lon="10.5241568">
                <ele>232.0</ele>
                <time>2020-08-22T16:26:49.000Z</time>
                <name>Trackpoint 8122</name>
            </trkpt>
            <trkpt lat="50.0295488" lon="10.5239824">
                <ele>231.0</ele>
                <time>2020-08-22T16:26:51.000Z</time>
                <name>Trackpoint 8123</name>
            </trkpt>
            <trkpt lat="50.0295328" lon="10.5238936">
                <ele>231.0</ele>
                <time>2020-08-22T16:26:52.000Z</time>
                <name>Trackpoint 8124</name>
            </trkpt>
            <trkpt lat="50.029536" lon="10.5237104">
                <ele>229.0</ele>
                <time>2020-08-22T16:26:54.000Z</time>
                <name>Trackpoint 8125</name>
            </trkpt>
            <trkpt lat="50.0295168" lon="10.523532">
                <ele>229.0</ele>
                <time>2020-08-22T16:26:56.000Z</time>
                <name>Trackpoint 8126</name>
            </trkpt>
            <trkpt lat="50.0295072" lon="10.52336">
                <ele>229.0</ele>
                <time>2020-08-22T16:26:58.000Z</time>
                <name>Trackpoint 8127</name>
            </trkpt>
            <trkpt lat="50.0294944" lon="10.5231832">
                <ele>229.0</ele>
                <time>2020-08-22T16:27:00.000Z</time>
                <name>Trackpoint 8128</name>
            </trkpt>
            <trkpt lat="50.0294784" lon="10.5230064">
                <ele>229.0</ele>
                <time>2020-08-22T16:27:02.000Z</time>
                <name>Trackpoint 8129</name>
            </trkpt>
            <trkpt lat="50.0294944" lon="10.5228432">
                <ele>229.0</ele>
                <time>2020-08-22T16:27:04.000Z</time>
                <name>Trackpoint 8130</name>
            </trkpt>
            <trkpt lat="50.0294976" lon="10.522692">
                <ele>230.0</ele>
                <time>2020-08-22T16:27:06.000Z</time>
                <name>Trackpoint 8131</name>
            </trkpt>
            <trkpt lat="50.029472" lon="10.52252">
                <ele>229.0</ele>
                <time>2020-08-22T16:27:08.000Z</time>
                <name>Trackpoint 8132</name>
            </trkpt>
            <trkpt lat="50.0294272" lon="10.5223616">
                <ele>228.0</ele>
                <time>2020-08-22T16:27:10.000Z</time>
                <name>Trackpoint 8133</name>
            </trkpt>
            <trkpt lat="50.0293632" lon="10.5222416">
                <ele>228.0</ele>
                <time>2020-08-22T16:27:12.000Z</time>
                <name>Trackpoint 8134</name>
            </trkpt>
            <trkpt lat="50.029296" lon="10.5221704">
                <ele>228.0</ele>
                <time>2020-08-22T16:27:14.000Z</time>
                <name>Trackpoint 8135</name>
            </trkpt>
            <trkpt lat="50.0292064" lon="10.5221072">
                <ele>227.0</ele>
                <time>2020-08-22T16:27:16.000Z</time>
                <name>Trackpoint 8136</name>
            </trkpt>
            <trkpt lat="50.029152" lon="10.5219832">
                <ele>226.0</ele>
                <time>2020-08-22T16:27:18.000Z</time>
                <name>Trackpoint 8137</name>
            </trkpt>
            <trkpt lat="50.0291264" lon="10.5218448">
                <ele>225.0</ele>
                <time>2020-08-22T16:27:20.000Z</time>
                <name>Trackpoint 8138</name>
            </trkpt>
            <trkpt lat="50.0291264" lon="10.5217152">
                <ele>225.0</ele>
                <time>2020-08-22T16:27:22.000Z</time>
                <name>Trackpoint 8139</name>
            </trkpt>
            <trkpt lat="50.0291552" lon="10.521588">
                <ele>225.0</ele>
                <time>2020-08-22T16:27:24.000Z</time>
                <name>Trackpoint 8140</name>
            </trkpt>
            <trkpt lat="50.0291968" lon="10.5214632">
                <ele>225.0</ele>
                <time>2020-08-22T16:27:26.000Z</time>
                <name>Trackpoint 8141</name>
            </trkpt>
            <trkpt lat="50.029248" lon="10.5213272">
                <ele>225.0</ele>
                <time>2020-08-22T16:27:28.000Z</time>
                <name>Trackpoint 8142</name>
            </trkpt>
            <trkpt lat="50.0292864" lon="10.5211912">
                <ele>225.0</ele>
                <time>2020-08-22T16:27:30.000Z</time>
                <name>Trackpoint 8143</name>
            </trkpt>
            <trkpt lat="50.0293088" lon="10.5210448">
                <ele>224.0</ele>
                <time>2020-08-22T16:27:32.000Z</time>
                <name>Trackpoint 8144</name>
            </trkpt>
            <trkpt lat="50.0293152" lon="10.5208952">
                <ele>224.0</ele>
                <time>2020-08-22T16:27:34.000Z</time>
                <name>Trackpoint 8145</name>
            </trkpt>
            <trkpt lat="50.0293184" lon="10.5207456">
                <ele>224.0</ele>
                <time>2020-08-22T16:27:36.000Z</time>
                <name>Trackpoint 8146</name>
            </trkpt>
            <trkpt lat="50.029312" lon="10.520588">
                <ele>224.0</ele>
                <time>2020-08-22T16:27:38.000Z</time>
                <name>Trackpoint 8147</name>
            </trkpt>
            <trkpt lat="50.0292992" lon="10.5204312">
                <ele>224.0</ele>
                <time>2020-08-22T16:27:40.000Z</time>
                <name>Trackpoint 8148</name>
            </trkpt>
            <trkpt lat="50.0292896" lon="10.5202616">
                <ele>224.0</ele>
                <time>2020-08-22T16:27:42.000Z</time>
                <name>Trackpoint 8149</name>
            </trkpt>
            <trkpt lat="50.029296" lon="10.5200984">
                <ele>224.0</ele>
                <time>2020-08-22T16:27:44.000Z</time>
                <name>Trackpoint 8150</name>
            </trkpt>
            <trkpt lat="50.029312" lon="10.5199432">
                <ele>224.0</ele>
                <time>2020-08-22T16:27:46.000Z</time>
                <name>Trackpoint 8151</name>
            </trkpt>
            <trkpt lat="50.0293344" lon="10.5198">
                <ele>224.0</ele>
                <time>2020-08-22T16:27:48.000Z</time>
                <name>Trackpoint 8152</name>
            </trkpt>
            <trkpt lat="50.0293536" lon="10.5196752">
                <ele>224.0</ele>
                <time>2020-08-22T16:27:50.000Z</time>
                <name>Trackpoint 8153</name>
            </trkpt>
            <trkpt lat="50.029376" lon="10.51956">
                <ele>224.0</ele>
                <time>2020-08-22T16:27:52.000Z</time>
                <name>Trackpoint 8154</name>
            </trkpt>
            <trkpt lat="50.0294144" lon="10.5194504">
                <ele>224.0</ele>
                <time>2020-08-22T16:27:54.000Z</time>
                <name>Trackpoint 8155</name>
            </trkpt>
            <trkpt lat="50.0294656" lon="10.5193464">
                <ele>224.0</ele>
                <time>2020-08-22T16:27:56.000Z</time>
                <name>Trackpoint 8156</name>
            </trkpt>
            <trkpt lat="50.0295136" lon="10.5192144">
                <ele>224.0</ele>
                <time>2020-08-22T16:27:58.000Z</time>
                <name>Trackpoint 8157</name>
            </trkpt>
            <trkpt lat="50.0295616" lon="10.5190936">
                <ele>224.0</ele>
                <time>2020-08-22T16:28:00.000Z</time>
                <name>Trackpoint 8158</name>
            </trkpt>
            <trkpt lat="50.0295904" lon="10.5189512">
                <ele>225.0</ele>
                <time>2020-08-22T16:28:02.000Z</time>
                <name>Trackpoint 8159</name>
            </trkpt>
            <trkpt lat="50.0296416" lon="10.5188112">
                <ele>225.0</ele>
                <time>2020-08-22T16:28:04.000Z</time>
                <name>Trackpoint 8160</name>
            </trkpt>
            <trkpt lat="50.0296736" lon="10.5186592">
                <ele>225.0</ele>
                <time>2020-08-22T16:28:06.000Z</time>
                <name>Trackpoint 8161</name>
            </trkpt>
            <trkpt lat="50.0297248" lon="10.5185184">
                <ele>226.0</ele>
                <time>2020-08-22T16:28:08.000Z</time>
                <name>Trackpoint 8162</name>
            </trkpt>
            <trkpt lat="50.0297728" lon="10.5183752">
                <ele>226.0</ele>
                <time>2020-08-22T16:28:10.000Z</time>
                <name>Trackpoint 8163</name>
            </trkpt>
            <trkpt lat="50.0298144" lon="10.5182288">
                <ele>227.0</ele>
                <time>2020-08-22T16:28:12.000Z</time>
                <name>Trackpoint 8164</name>
            </trkpt>
            <trkpt lat="50.02984" lon="10.5181216">
                <ele>226.0</ele>
                <time>2020-08-22T16:28:13.000Z</time>
                <name>Trackpoint 8165</name>
            </trkpt>
            <trkpt lat="50.0298624" lon="10.518032">
                <ele>225.0</ele>
                <time>2020-08-22T16:28:14.000Z</time>
                <name>Trackpoint 8166</name>
            </trkpt>
            <trkpt lat="50.0299104" lon="10.5178984">
                <ele>225.0</ele>
                <time>2020-08-22T16:28:16.000Z</time>
                <name>Trackpoint 8167</name>
            </trkpt>
            <trkpt lat="50.029952" lon="10.5177648">
                <ele>225.0</ele>
                <time>2020-08-22T16:28:18.000Z</time>
                <name>Trackpoint 8168</name>
            </trkpt>
            <trkpt lat="50.0299936" lon="10.5176336">
                <ele>225.0</ele>
                <time>2020-08-22T16:28:20.000Z</time>
                <name>Trackpoint 8169</name>
            </trkpt>
            <trkpt lat="50.030032" lon="10.5174984">
                <ele>225.0</ele>
                <time>2020-08-22T16:28:22.000Z</time>
                <name>Trackpoint 8170</name>
            </trkpt>
            <trkpt lat="50.0300608" lon="10.517348">
                <ele>226.0</ele>
                <time>2020-08-22T16:28:24.000Z</time>
                <name>Trackpoint 8171</name>
            </trkpt>
            <trkpt lat="50.0300832" lon="10.5171984">
                <ele>226.0</ele>
                <time>2020-08-22T16:28:26.000Z</time>
                <name>Trackpoint 8172</name>
            </trkpt>
            <trkpt lat="50.0301056" lon="10.5170448">
                <ele>226.0</ele>
                <time>2020-08-22T16:28:28.000Z</time>
                <name>Trackpoint 8173</name>
            </trkpt>
            <trkpt lat="50.030128" lon="10.5168936">
                <ele>225.0</ele>
                <time>2020-08-22T16:28:30.000Z</time>
                <name>Trackpoint 8174</name>
            </trkpt>
            <trkpt lat="50.030144" lon="10.5167352">
                <ele>225.0</ele>
                <time>2020-08-22T16:28:32.000Z</time>
                <name>Trackpoint 8175</name>
            </trkpt>
            <trkpt lat="50.03016" lon="10.51658">
                <ele>225.0</ele>
                <time>2020-08-22T16:28:34.000Z</time>
                <name>Trackpoint 8176</name>
            </trkpt>
            <trkpt lat="50.0301824" lon="10.516428">
                <ele>225.0</ele>
                <time>2020-08-22T16:28:36.000Z</time>
                <name>Trackpoint 8177</name>
            </trkpt>
            <trkpt lat="50.0302048" lon="10.5162688">
                <ele>225.0</ele>
                <time>2020-08-22T16:28:38.000Z</time>
                <name>Trackpoint 8178</name>
            </trkpt>
            <trkpt lat="50.0302208" lon="10.5161152">
                <ele>225.0</ele>
                <time>2020-08-22T16:28:40.000Z</time>
                <name>Trackpoint 8179</name>
            </trkpt>
            <trkpt lat="50.0302304" lon="10.5159616">
                <ele>225.0</ele>
                <time>2020-08-22T16:28:42.000Z</time>
                <name>Trackpoint 8180</name>
            </trkpt>
            <trkpt lat="50.0302656" lon="10.5158184">
                <ele>225.0</ele>
                <time>2020-08-22T16:28:44.000Z</time>
                <name>Trackpoint 8181</name>
            </trkpt>
            <trkpt lat="50.0303232" lon="10.5156936">
                <ele>225.0</ele>
                <time>2020-08-22T16:28:46.000Z</time>
                <name>Trackpoint 8182</name>
            </trkpt>
            <trkpt lat="50.030368" lon="10.515576">
                <ele>225.0</ele>
                <time>2020-08-22T16:28:48.000Z</time>
                <name>Trackpoint 8183</name>
            </trkpt>
            <trkpt lat="50.0304096" lon="10.5154648">
                <ele>225.0</ele>
                <time>2020-08-22T16:28:50.000Z</time>
                <name>Trackpoint 8184</name>
            </trkpt>
            <trkpt lat="50.0304448" lon="10.5153376">
                <ele>225.0</ele>
                <time>2020-08-22T16:28:52.000Z</time>
                <name>Trackpoint 8185</name>
            </trkpt>
            <trkpt lat="50.0304864" lon="10.5152352">
                <ele>225.0</ele>
                <time>2020-08-22T16:28:54.000Z</time>
                <name>Trackpoint 8186</name>
            </trkpt>
            <trkpt lat="50.0305376" lon="10.5151464">
                <ele>224.0</ele>
                <time>2020-08-22T16:28:56.000Z</time>
                <name>Trackpoint 8187</name>
            </trkpt>
            <trkpt lat="50.0305696" lon="10.5150608">
                <ele>225.0</ele>
                <time>2020-08-22T16:28:58.000Z</time>
                <name>Trackpoint 8188</name>
            </trkpt>
            <trkpt lat="50.0306176" lon="10.5149832">
                <ele>225.0</ele>
                <time>2020-08-22T16:29:00.000Z</time>
                <name>Trackpoint 8189</name>
            </trkpt>
            <trkpt lat="50.0306656" lon="10.5148984">
                <ele>224.0</ele>
                <time>2020-08-22T16:29:02.000Z</time>
                <name>Trackpoint 8190</name>
            </trkpt>
            <trkpt lat="50.0307008" lon="10.5148032">
                <ele>225.0</ele>
                <time>2020-08-22T16:29:04.000Z</time>
                <name>Trackpoint 8191</name>
            </trkpt>
            <trkpt lat="50.0307584" lon="10.5146936">
                <ele>225.0</ele>
                <time>2020-08-22T16:29:07.000Z</time>
                <name>Trackpoint 8192</name>
            </trkpt>
            <trkpt lat="50.0307744" lon="10.514604">
                <ele>226.0</ele>
                <time>2020-08-22T16:29:09.000Z</time>
                <name>Trackpoint 8193</name>
            </trkpt>
            <trkpt lat="50.030816" lon="10.5145168">
                <ele>227.0</ele>
                <time>2020-08-22T16:29:12.000Z</time>
                <name>Trackpoint 8194</name>
            </trkpt>
            <trkpt lat="50.0308736" lon="10.5144264">
                <ele>228.0</ele>
                <time>2020-08-22T16:31:30.000Z</time>
                <name>Trackpoint 8195</name>
            </trkpt>
            <trkpt lat="50.0308672" lon="10.5143336">
                <ele>228.0</ele>
                <time>2020-08-22T16:32:53.000Z</time>
                <name>Trackpoint 8196</name>
            </trkpt>
            <trkpt lat="50.0309024" lon="10.5142272">
                <ele>229.0</ele>
                <time>2020-08-22T16:32:56.000Z</time>
                <name>Trackpoint 8197</name>
            </trkpt>
            <trkpt lat="50.0309408" lon="10.5141096">
                <ele>229.0</ele>
                <time>2020-08-22T16:32:59.000Z</time>
                <name>Trackpoint 8198</name>
            </trkpt>
            <trkpt lat="50.030992" lon="10.5139936">
                <ele>229.0</ele>
                <time>2020-08-22T16:33:02.000Z</time>
                <name>Trackpoint 8199</name>
            </trkpt>
            <trkpt lat="50.0310368" lon="10.5138976">
                <ele>229.0</ele>
                <time>2020-08-22T16:33:05.000Z</time>
                <name>Trackpoint 8200</name>
            </trkpt>
            <trkpt lat="50.031072" lon="10.5137904">
                <ele>229.0</ele>
                <time>2020-08-22T16:33:09.000Z</time>
                <name>Trackpoint 8201</name>
            </trkpt>
            <trkpt lat="50.0310976" lon="10.5136896">
                <ele>229.0</ele>
                <time>2020-08-22T16:33:24.000Z</time>
                <name>Trackpoint 8202</name>
            </trkpt>
            <trkpt lat="50.0310656" lon="10.5135936">
                <ele>230.0</ele>
                <time>2020-08-22T16:33:44.000Z</time>
                <name>Trackpoint 8203</name>
            </trkpt>
            <trkpt lat="50.0311168" lon="10.5134952">
                <ele>230.0</ele>
                <time>2020-08-22T16:33:48.000Z</time>
                <name>Trackpoint 8204</name>
            </trkpt>
            <trkpt lat="50.031152" lon="10.5134096">
                <ele>230.0</ele>
                <time>2020-08-22T16:33:50.000Z</time>
                <name>Trackpoint 8205</name>
            </trkpt>
            <trkpt lat="50.0311904" lon="10.5133104">
                <ele>230.0</ele>
                <time>2020-08-22T16:33:52.000Z</time>
                <name>Trackpoint 8206</name>
            </trkpt>
            <trkpt lat="50.0312192" lon="10.5132168">
                <ele>230.0</ele>
                <time>2020-08-22T16:33:54.000Z</time>
                <name>Trackpoint 8207</name>
            </trkpt>
            <trkpt lat="50.0312448" lon="10.5130968">
                <ele>230.0</ele>
                <time>2020-08-22T16:33:56.000Z</time>
                <name>Trackpoint 8208</name>
            </trkpt>
            <trkpt lat="50.031296" lon="10.5129928">
                <ele>230.0</ele>
                <time>2020-08-22T16:33:58.000Z</time>
                <name>Trackpoint 8209</name>
            </trkpt>
            <trkpt lat="50.0313248" lon="10.5128984">
                <ele>230.0</ele>
                <time>2020-08-22T16:34:00.000Z</time>
                <name>Trackpoint 8210</name>
            </trkpt>
            <trkpt lat="50.0313696" lon="10.5128184">
                <ele>230.0</ele>
                <time>2020-08-22T16:34:02.000Z</time>
                <name>Trackpoint 8211</name>
            </trkpt>
            <trkpt lat="50.0314304" lon="10.512736">
                <ele>230.0</ele>
                <time>2020-08-22T16:34:05.000Z</time>
                <name>Trackpoint 8212</name>
            </trkpt>
            <trkpt lat="50.0314496" lon="10.5126352">
                <ele>230.0</ele>
                <time>2020-08-22T16:34:13.000Z</time>
                <name>Trackpoint 8213</name>
            </trkpt>
            <trkpt lat="50.031488" lon="10.5125416">
                <ele>230.0</ele>
                <time>2020-08-22T16:34:16.000Z</time>
                <name>Trackpoint 8214</name>
            </trkpt>
            <trkpt lat="50.0314912" lon="10.5124368">
                <ele>230.0</ele>
                <time>2020-08-22T16:34:18.000Z</time>
                <name>Trackpoint 8215</name>
            </trkpt>
            <trkpt lat="50.0314752" lon="10.5123184">
                <ele>230.0</ele>
                <time>2020-08-22T16:34:20.000Z</time>
                <name>Trackpoint 8216</name>
            </trkpt>
            <trkpt lat="50.0314752" lon="10.5121968">
                <ele>230.0</ele>
                <time>2020-08-22T16:34:22.000Z</time>
                <name>Trackpoint 8217</name>
            </trkpt>
            <trkpt lat="50.0314816" lon="10.5120648">
                <ele>230.0</ele>
                <time>2020-08-22T16:34:24.000Z</time>
                <name>Trackpoint 8218</name>
            </trkpt>
            <trkpt lat="50.0314752" lon="10.5119368">
                <ele>230.0</ele>
                <time>2020-08-22T16:34:26.000Z</time>
                <name>Trackpoint 8219</name>
            </trkpt>
            <trkpt lat="50.031488" lon="10.5118112">
                <ele>230.0</ele>
                <time>2020-08-22T16:34:28.000Z</time>
                <name>Trackpoint 8220</name>
            </trkpt>
            <trkpt lat="50.031504" lon="10.5117064">
                <ele>231.0</ele>
                <time>2020-08-22T16:34:30.000Z</time>
                <name>Trackpoint 8221</name>
            </trkpt>
            <trkpt lat="50.0315232" lon="10.5116168">
                <ele>231.0</ele>
                <time>2020-08-22T16:34:32.000Z</time>
                <name>Trackpoint 8222</name>
            </trkpt>
            <trkpt lat="50.0315296" lon="10.5115048">
                <ele>231.0</ele>
                <time>2020-08-22T16:34:34.000Z</time>
                <name>Trackpoint 8223</name>
            </trkpt>
            <trkpt lat="50.0315488" lon="10.5114024">
                <ele>231.0</ele>
                <time>2020-08-22T16:34:36.000Z</time>
                <name>Trackpoint 8224</name>
            </trkpt>
            <trkpt lat="50.0315552" lon="10.5113096">
                <ele>231.0</ele>
                <time>2020-08-22T16:34:38.000Z</time>
                <name>Trackpoint 8225</name>
            </trkpt>
            <trkpt lat="50.0315584" lon="10.5112">
                <ele>231.0</ele>
                <time>2020-08-22T16:34:41.000Z</time>
                <name>Trackpoint 8226</name>
            </trkpt>
            <trkpt lat="50.0315584" lon="10.5110816">
                <ele>231.0</ele>
                <time>2020-08-22T16:34:44.000Z</time>
                <name>Trackpoint 8227</name>
            </trkpt>
            <trkpt lat="50.031536" lon="10.51098">
                <ele>231.0</ele>
                <time>2020-08-22T16:34:49.000Z</time>
                <name>Trackpoint 8228</name>
            </trkpt>
            <trkpt lat="50.0316" lon="10.5109056">
                <ele>232.0</ele>
                <time>2020-08-22T16:35:16.000Z</time>
                <name>Trackpoint 8229</name>
            </trkpt>
            <trkpt lat="50.0316" lon="10.5107848">
                <ele>232.0</ele>
                <time>2020-08-22T16:35:20.000Z</time>
                <name>Trackpoint 8230</name>
            </trkpt>
            <trkpt lat="50.0316032" lon="10.5106832">
                <ele>232.0</ele>
                <time>2020-08-22T16:35:23.000Z</time>
                <name>Trackpoint 8231</name>
            </trkpt>
            <trkpt lat="50.0315904" lon="10.5105832">
                <ele>232.0</ele>
                <time>2020-08-22T16:35:49.000Z</time>
                <name>Trackpoint 8232</name>
            </trkpt>
            <trkpt lat="50.0315808" lon="10.5104888">
                <ele>232.0</ele>
                <time>2020-08-22T16:35:51.000Z</time>
                <name>Trackpoint 8233</name>
            </trkpt>
            <trkpt lat="50.031568" lon="10.5103816">
                <ele>232.0</ele>
                <time>2020-08-22T16:35:53.000Z</time>
                <name>Trackpoint 8234</name>
            </trkpt>
            <trkpt lat="50.0315712" lon="10.5102784">
                <ele>232.0</ele>
                <time>2020-08-22T16:35:55.000Z</time>
                <name>Trackpoint 8235</name>
            </trkpt>
            <trkpt lat="50.0315584" lon="10.5101736">
                <ele>232.0</ele>
                <time>2020-08-22T16:35:57.000Z</time>
                <name>Trackpoint 8236</name>
            </trkpt>
            <trkpt lat="50.0315552" lon="10.5100616">
                <ele>232.0</ele>
                <time>2020-08-22T16:35:59.000Z</time>
                <name>Trackpoint 8237</name>
            </trkpt>
            <trkpt lat="50.031552" lon="10.5099632">
                <ele>232.0</ele>
                <time>2020-08-22T16:36:01.000Z</time>
                <name>Trackpoint 8238</name>
            </trkpt>
            <trkpt lat="50.0315424" lon="10.50984">
                <ele>232.0</ele>
                <time>2020-08-22T16:36:04.000Z</time>
                <name>Trackpoint 8239</name>
            </trkpt>
            <trkpt lat="50.0315488" lon="10.5097304">
                <ele>232.0</ele>
                <time>2020-08-22T16:36:06.000Z</time>
                <name>Trackpoint 8240</name>
            </trkpt>
            <trkpt lat="50.0315488" lon="10.5096384">
                <ele>232.0</ele>
                <time>2020-08-22T16:36:08.000Z</time>
                <name>Trackpoint 8241</name>
            </trkpt>
            <trkpt lat="50.0315008" lon="10.5095168">
                <ele>232.0</ele>
                <time>2020-08-22T16:36:11.000Z</time>
                <name>Trackpoint 8242</name>
            </trkpt>
            <trkpt lat="50.0314912" lon="10.5094184">
                <ele>232.0</ele>
                <time>2020-08-22T16:36:14.000Z</time>
                <name>Trackpoint 8243</name>
            </trkpt>
            <trkpt lat="50.0314752" lon="10.5093168">
                <ele>232.0</ele>
                <time>2020-08-22T16:36:16.000Z</time>
                <name>Trackpoint 8244</name>
            </trkpt>
            <trkpt lat="50.0315008" lon="10.5091736">
                <ele>232.0</ele>
                <time>2020-08-22T16:36:18.000Z</time>
                <name>Trackpoint 8245</name>
            </trkpt>
            <trkpt lat="50.0315104" lon="10.5090504">
                <ele>232.0</ele>
                <time>2020-08-22T16:36:20.000Z</time>
                <name>Trackpoint 8246</name>
            </trkpt>
            <trkpt lat="50.0315136" lon="10.5089328">
                <ele>232.0</ele>
                <time>2020-08-22T16:36:22.000Z</time>
                <name>Trackpoint 8247</name>
            </trkpt>
            <trkpt lat="50.0315168" lon="10.508808">
                <ele>232.0</ele>
                <time>2020-08-22T16:36:24.000Z</time>
                <name>Trackpoint 8248</name>
            </trkpt>
            <trkpt lat="50.0315232" lon="10.5086696">
                <ele>232.0</ele>
                <time>2020-08-22T16:36:26.000Z</time>
                <name>Trackpoint 8249</name>
            </trkpt>
            <trkpt lat="50.0315328" lon="10.5085312">
                <ele>232.0</ele>
                <time>2020-08-22T16:36:28.000Z</time>
                <name>Trackpoint 8250</name>
            </trkpt>
            <trkpt lat="50.0315232" lon="10.5084064">
                <ele>232.0</ele>
                <time>2020-08-22T16:36:30.000Z</time>
                <name>Trackpoint 8251</name>
            </trkpt>
            <trkpt lat="50.031488" lon="10.5082848">
                <ele>232.0</ele>
                <time>2020-08-22T16:36:32.000Z</time>
                <name>Trackpoint 8252</name>
            </trkpt>
            <trkpt lat="50.0314976" lon="10.5081832">
                <ele>233.0</ele>
                <time>2020-08-22T16:36:34.000Z</time>
                <name>Trackpoint 8253</name>
            </trkpt>
            <trkpt lat="50.0315136" lon="10.508088">
                <ele>233.0</ele>
                <time>2020-08-22T16:36:36.000Z</time>
                <name>Trackpoint 8254</name>
            </trkpt>
            <trkpt lat="50.0315296" lon="10.5079848">
                <ele>233.0</ele>
                <time>2020-08-22T16:36:38.000Z</time>
                <name>Trackpoint 8255</name>
            </trkpt>
            <trkpt lat="50.031536" lon="10.5078736">
                <ele>233.0</ele>
                <time>2020-08-22T16:36:40.000Z</time>
                <name>Trackpoint 8256</name>
            </trkpt>
            <trkpt lat="50.0315488" lon="10.5077416">
                <ele>233.0</ele>
                <time>2020-08-22T16:36:42.000Z</time>
                <name>Trackpoint 8257</name>
            </trkpt>
            <trkpt lat="50.0315296" lon="10.507604">
                <ele>233.0</ele>
                <time>2020-08-22T16:36:44.000Z</time>
                <name>Trackpoint 8258</name>
            </trkpt>
            <trkpt lat="50.0315392" lon="10.5074904">
                <ele>233.0</ele>
                <time>2020-08-22T16:36:46.000Z</time>
                <name>Trackpoint 8259</name>
            </trkpt>
            <trkpt lat="50.031552" lon="10.5073864">
                <ele>233.0</ele>
                <time>2020-08-22T16:36:48.000Z</time>
                <name>Trackpoint 8260</name>
            </trkpt>
            <trkpt lat="50.0315424" lon="10.5072661">
                <ele>234.0</ele>
                <time>2020-08-22T16:36:51.000Z</time>
                <name>Trackpoint 8261</name>
            </trkpt>
            <trkpt lat="50.0315331" lon="10.5071979">
                <ele>234.0</ele>
                <time>2020-08-22T16:36:54.000Z</time>
                <name>Trackpoint 8262</name>
            </trkpt>
            <trkpt lat="50.0315235" lon="10.5071086">
                <ele>234.0</ele>
                <time>2020-08-22T16:37:05.000Z</time>
                <name>Trackpoint 8263</name>
            </trkpt>
            <trkpt lat="50.0315163" lon="10.5070223">
                <ele>235.0</ele>
                <time>2020-08-22T16:37:54.000Z</time>
                <name>Trackpoint 8264</name>
            </trkpt>
            <trkpt lat="50.031504" lon="10.5069448">
                <ele>235.0</ele>
                <time>2020-08-22T16:41:25.000Z</time>
                <name>Trackpoint 8265</name>
            </trkpt>
            <trkpt lat="50.0315104" lon="10.5068512">
                <ele>236.0</ele>
                <time>2020-08-22T16:42:41.000Z</time>
                <name>Trackpoint 8266</name>
            </trkpt>
            <trkpt lat="50.0315168" lon="10.50674">
                <ele>235.0</ele>
                <time>2020-08-22T16:43:01.000Z</time>
                <name>Trackpoint 8267</name>
            </trkpt>
            <trkpt lat="50.031504" lon="10.506608">
                <ele>235.0</ele>
                <time>2020-08-22T16:43:04.000Z</time>
                <name>Trackpoint 8268</name>
            </trkpt>
            <trkpt lat="50.0314944" lon="10.5064784">
                <ele>235.0</ele>
                <time>2020-08-22T16:43:07.000Z</time>
                <name>Trackpoint 8269</name>
            </trkpt>
            <trkpt lat="50.0314816" lon="10.50636">
                <ele>235.0</ele>
                <time>2020-08-22T16:43:11.000Z</time>
                <name>Trackpoint 8270</name>
            </trkpt>
            <trkpt lat="50.0314624" lon="10.5062536">
                <ele>235.0</ele>
                <time>2020-08-22T16:43:16.000Z</time>
                <name>Trackpoint 8271</name>
            </trkpt>
            <trkpt lat="50.0314592" lon="10.5061256">
                <ele>235.0</ele>
                <time>2020-08-22T16:43:19.000Z</time>
                <name>Trackpoint 8272</name>
            </trkpt>
            <trkpt lat="50.0314688" lon="10.5060216">
                <ele>235.0</ele>
                <time>2020-08-22T16:43:21.000Z</time>
                <name>Trackpoint 8273</name>
            </trkpt>
            <trkpt lat="50.0314752" lon="10.505912">
                <ele>235.0</ele>
                <time>2020-08-22T16:43:23.000Z</time>
                <name>Trackpoint 8274</name>
            </trkpt>
            <trkpt lat="50.031472" lon="10.5057984">
                <ele>235.0</ele>
                <time>2020-08-22T16:43:25.000Z</time>
                <name>Trackpoint 8275</name>
            </trkpt>
            <trkpt lat="50.0314592" lon="10.505676">
                <ele>235.0</ele>
                <time>2020-08-22T16:43:27.000Z</time>
                <name>Trackpoint 8276</name>
            </trkpt>
            <trkpt lat="50.0314368" lon="10.50558">
                <ele>235.0</ele>
                <time>2020-08-22T16:43:29.000Z</time>
                <name>Trackpoint 8277</name>
            </trkpt>
            <trkpt lat="50.0314496" lon="10.5054528">
                <ele>236.0</ele>
                <time>2020-08-22T16:43:31.000Z</time>
                <name>Trackpoint 8278</name>
            </trkpt>
            <trkpt lat="50.0314688" lon="10.5053368">
                <ele>236.0</ele>
                <time>2020-08-22T16:43:33.000Z</time>
                <name>Trackpoint 8279</name>
            </trkpt>
            <trkpt lat="50.031456" lon="10.5052072">
                <ele>236.0</ele>
                <time>2020-08-22T16:43:35.000Z</time>
                <name>Trackpoint 8280</name>
            </trkpt>
            <trkpt lat="50.0314528" lon="10.5050672">
                <ele>236.0</ele>
                <time>2020-08-22T16:43:37.000Z</time>
                <name>Trackpoint 8281</name>
            </trkpt>
            <trkpt lat="50.0314688" lon="10.5049264">
                <ele>236.0</ele>
                <time>2020-08-22T16:43:39.000Z</time>
                <name>Trackpoint 8282</name>
            </trkpt>
            <trkpt lat="50.0314528" lon="10.5047664">
                <ele>236.0</ele>
                <time>2020-08-22T16:43:41.000Z</time>
                <name>Trackpoint 8283</name>
            </trkpt>
            <trkpt lat="50.0314432" lon="10.504628">
                <ele>236.0</ele>
                <time>2020-08-22T16:43:43.000Z</time>
                <name>Trackpoint 8284</name>
            </trkpt>
            <trkpt lat="50.0314496" lon="10.5045072">
                <ele>236.0</ele>
                <time>2020-08-22T16:43:45.000Z</time>
                <name>Trackpoint 8285</name>
            </trkpt>
            <trkpt lat="50.0314528" lon="10.504408">
                <ele>236.0</ele>
                <time>2020-08-22T16:43:47.000Z</time>
                <name>Trackpoint 8286</name>
            </trkpt>
            <trkpt lat="50.0314432" lon="10.5042848">
                <ele>236.0</ele>
                <time>2020-08-22T16:43:49.000Z</time>
                <name>Trackpoint 8287</name>
            </trkpt>
            <trkpt lat="50.0314432" lon="10.504144">
                <ele>236.0</ele>
                <time>2020-08-22T16:43:51.000Z</time>
                <name>Trackpoint 8288</name>
            </trkpt>
            <trkpt lat="50.0314368" lon="10.5040104">
                <ele>236.0</ele>
                <time>2020-08-22T16:43:53.000Z</time>
                <name>Trackpoint 8289</name>
            </trkpt>
            <trkpt lat="50.0314304" lon="10.5038744">
                <ele>236.0</ele>
                <time>2020-08-22T16:43:55.000Z</time>
                <name>Trackpoint 8290</name>
            </trkpt>
            <trkpt lat="50.0314368" lon="10.5037448">
                <ele>236.0</ele>
                <time>2020-08-22T16:43:57.000Z</time>
                <name>Trackpoint 8291</name>
            </trkpt>
            <trkpt lat="50.03144" lon="10.5036272">
                <ele>236.0</ele>
                <time>2020-08-22T16:43:59.000Z</time>
                <name>Trackpoint 8292</name>
            </trkpt>
            <trkpt lat="50.0314432" lon="10.5035216">
                <ele>236.0</ele>
                <time>2020-08-22T16:44:01.000Z</time>
                <name>Trackpoint 8293</name>
            </trkpt>
            <trkpt lat="50.03144" lon="10.5034216">
                <ele>236.0</ele>
                <time>2020-08-22T16:44:31.000Z</time>
                <name>Trackpoint 8294</name>
            </trkpt>
            <trkpt lat="50.0314432" lon="10.5033216">
                <ele>236.0</ele>
                <time>2020-08-22T16:44:35.000Z</time>
                <name>Trackpoint 8295</name>
            </trkpt>
            <trkpt lat="50.0314496" lon="10.503228">
                <ele>236.0</ele>
                <time>2020-08-22T16:44:38.000Z</time>
                <name>Trackpoint 8296</name>
            </trkpt>
            <trkpt lat="50.031488" lon="10.5031216">
                <ele>236.0</ele>
                <time>2020-08-22T16:44:41.000Z</time>
                <name>Trackpoint 8297</name>
            </trkpt>
            <trkpt lat="50.03152" lon="10.50302">
                <ele>236.0</ele>
                <time>2020-08-22T16:44:43.000Z</time>
                <name>Trackpoint 8298</name>
            </trkpt>
            <trkpt lat="50.0315296" lon="10.5029232">
                <ele>236.0</ele>
                <time>2020-08-22T16:44:45.000Z</time>
                <name>Trackpoint 8299</name>
            </trkpt>
            <trkpt lat="50.0315552" lon="10.5027848">
                <ele>236.0</ele>
                <time>2020-08-22T16:44:47.000Z</time>
                <name>Trackpoint 8300</name>
            </trkpt>
            <trkpt lat="50.0315776" lon="10.5026368">
                <ele>236.0</ele>
                <time>2020-08-22T16:44:49.000Z</time>
                <name>Trackpoint 8301</name>
            </trkpt>
            <trkpt lat="50.0316032" lon="10.5024928">
                <ele>236.0</ele>
                <time>2020-08-22T16:44:51.000Z</time>
                <name>Trackpoint 8302</name>
            </trkpt>
            <trkpt lat="50.0316192" lon="10.5024016">
                <ele>236.0</ele>
                <time>2020-08-22T16:44:52.000Z</time>
                <name>Trackpoint 8303</name>
            </trkpt>
            <trkpt lat="50.0316288" lon="10.5023016">
                <ele>236.0</ele>
                <time>2020-08-22T16:44:53.000Z</time>
                <name>Trackpoint 8304</name>
            </trkpt>
            <trkpt lat="50.031632" lon="10.5022032">
                <ele>236.0</ele>
                <time>2020-08-22T16:44:54.000Z</time>
                <name>Trackpoint 8305</name>
            </trkpt>
            <trkpt lat="50.0316384" lon="10.50204">
                <ele>236.0</ele>
                <time>2020-08-22T16:44:56.000Z</time>
                <name>Trackpoint 8306</name>
            </trkpt>
            <trkpt lat="50.0316768" lon="10.5019056">
                <ele>236.0</ele>
                <time>2020-08-22T16:44:58.000Z</time>
                <name>Trackpoint 8307</name>
            </trkpt>
            <trkpt lat="50.0317024" lon="10.5017784">
                <ele>236.0</ele>
                <time>2020-08-22T16:45:00.000Z</time>
                <name>Trackpoint 8308</name>
            </trkpt>
            <trkpt lat="50.031728" lon="10.5016216">
                <ele>236.0</ele>
                <time>2020-08-22T16:45:02.000Z</time>
                <name>Trackpoint 8309</name>
            </trkpt>
            <trkpt lat="50.0317376" lon="10.501456">
                <ele>236.0</ele>
                <time>2020-08-22T16:45:04.000Z</time>
                <name>Trackpoint 8310</name>
            </trkpt>
            <trkpt lat="50.03176" lon="10.5013104">
                <ele>236.0</ele>
                <time>2020-08-22T16:45:06.000Z</time>
                <name>Trackpoint 8311</name>
            </trkpt>
            <trkpt lat="50.031776" lon="10.50116">
                <ele>236.0</ele>
                <time>2020-08-22T16:45:08.000Z</time>
                <name>Trackpoint 8312</name>
            </trkpt>
            <trkpt lat="50.031792" lon="10.5010456">
                <ele>236.0</ele>
                <time>2020-08-22T16:45:10.000Z</time>
                <name>Trackpoint 8313</name>
            </trkpt>
            <trkpt lat="50.0318144" lon="10.5009472">
                <ele>236.0</ele>
                <time>2020-08-22T16:45:12.000Z</time>
                <name>Trackpoint 8314</name>
            </trkpt>
            <trkpt lat="50.0318272" lon="10.500816">
                <ele>236.0</ele>
                <time>2020-08-22T16:45:14.000Z</time>
                <name>Trackpoint 8315</name>
            </trkpt>
            <trkpt lat="50.0318336" lon="10.5007152">
                <ele>236.0</ele>
                <time>2020-08-22T16:45:16.000Z</time>
                <name>Trackpoint 8316</name>
            </trkpt>
            <trkpt lat="50.0318592" lon="10.5006112">
                <ele>236.0</ele>
                <time>2020-08-22T16:45:19.000Z</time>
                <name>Trackpoint 8317</name>
            </trkpt>
            <trkpt lat="50.0319104" lon="10.500528">
                <ele>235.0</ele>
                <time>2020-08-22T16:45:21.000Z</time>
                <name>Trackpoint 8318</name>
            </trkpt>
            <trkpt lat="50.032" lon="10.5005728">
                <ele>234.0</ele>
                <time>2020-08-22T16:45:26.000Z</time>
                <name>Trackpoint 8319</name>
            </trkpt>
            <trkpt lat="50.032032" lon="10.50046">
                <ele>233.0</ele>
                <time>2020-08-22T16:45:32.000Z</time>
                <name>Trackpoint 8320</name>
            </trkpt>
            <trkpt lat="50.031984" lon="10.5003616">
                <ele>233.0</ele>
                <time>2020-08-22T16:45:36.000Z</time>
                <name>Trackpoint 8321</name>
            </trkpt>
            <trkpt lat="50.0319168" lon="10.500292">
                <ele>233.0</ele>
                <time>2020-08-22T16:45:41.000Z</time>
                <name>Trackpoint 8322</name>
            </trkpt>
            <trkpt lat="50.0319104" lon="10.5001832">
                <ele>232.0</ele>
                <time>2020-08-22T16:45:44.000Z</time>
                <name>Trackpoint 8323</name>
            </trkpt>
            <trkpt lat="50.0319264" lon="10.5000912">
                <ele>232.0</ele>
                <time>2020-08-22T16:45:46.000Z</time>
                <name>Trackpoint 8324</name>
            </trkpt>
            <trkpt lat="50.0319008" lon="10.4999904">
                <ele>232.0</ele>
                <time>2020-08-22T16:45:48.000Z</time>
                <name>Trackpoint 8325</name>
            </trkpt>
            <trkpt lat="50.0318656" lon="10.4998848">
                <ele>232.0</ele>
                <time>2020-08-22T16:45:51.000Z</time>
                <name>Trackpoint 8326</name>
            </trkpt>
            <trkpt lat="50.0318496" lon="10.4997568">
                <ele>232.0</ele>
                <time>2020-08-22T16:45:55.000Z</time>
                <name>Trackpoint 8327</name>
            </trkpt>
            <trkpt lat="50.0318464" lon="10.4996368">
                <ele>231.0</ele>
                <time>2020-08-22T16:45:57.000Z</time>
                <name>Trackpoint 8328</name>
            </trkpt>
            <trkpt lat="50.03184" lon="10.4994944">
                <ele>231.0</ele>
                <time>2020-08-22T16:45:59.000Z</time>
                <name>Trackpoint 8329</name>
            </trkpt>
            <trkpt lat="50.0318208" lon="10.4993432">
                <ele>231.0</ele>
                <time>2020-08-22T16:46:01.000Z</time>
                <name>Trackpoint 8330</name>
            </trkpt>
            <trkpt lat="50.0318304" lon="10.4992504">
                <ele>231.0</ele>
                <time>2020-08-22T16:46:02.000Z</time>
                <name>Trackpoint 8331</name>
            </trkpt>
            <trkpt lat="50.0318176" lon="10.4991304">
                <ele>231.0</ele>
                <time>2020-08-22T16:46:03.000Z</time>
                <name>Trackpoint 8332</name>
            </trkpt>
            <trkpt lat="50.0318112" lon="10.4990368">
                <ele>231.0</ele>
                <time>2020-08-22T16:46:04.000Z</time>
                <name>Trackpoint 8333</name>
            </trkpt>
            <trkpt lat="50.0317888" lon="10.4988616">
                <ele>231.0</ele>
                <time>2020-08-22T16:46:06.000Z</time>
                <name>Trackpoint 8334</name>
            </trkpt>
            <trkpt lat="50.0317664" lon="10.4987072">
                <ele>231.0</ele>
                <time>2020-08-22T16:46:08.000Z</time>
                <name>Trackpoint 8335</name>
            </trkpt>
            <trkpt lat="50.0317408" lon="10.4985312">
                <ele>231.0</ele>
                <time>2020-08-22T16:46:10.000Z</time>
                <name>Trackpoint 8336</name>
            </trkpt>
            <trkpt lat="50.0317088" lon="10.498352">
                <ele>231.0</ele>
                <time>2020-08-22T16:46:12.000Z</time>
                <name>Trackpoint 8337</name>
            </trkpt>
            <trkpt lat="50.0317024" lon="10.4982544">
                <ele>231.0</ele>
                <time>2020-08-22T16:46:13.000Z</time>
                <name>Trackpoint 8338</name>
            </trkpt>
            <trkpt lat="50.0316864" lon="10.49816">
                <ele>231.0</ele>
                <time>2020-08-22T16:46:14.000Z</time>
                <name>Trackpoint 8339</name>
            </trkpt>
            <trkpt lat="50.0316736" lon="10.4980648">
                <ele>231.0</ele>
                <time>2020-08-22T16:46:15.000Z</time>
                <name>Trackpoint 8340</name>
            </trkpt>
            <trkpt lat="50.0316608" lon="10.4978904">
                <ele>231.0</ele>
                <time>2020-08-22T16:46:17.000Z</time>
                <name>Trackpoint 8341</name>
            </trkpt>
            <trkpt lat="50.0316544" lon="10.4977064">
                <ele>231.0</ele>
                <time>2020-08-22T16:46:19.000Z</time>
                <name>Trackpoint 8342</name>
            </trkpt>
            <trkpt lat="50.0316416" lon="10.497528">
                <ele>230.0</ele>
                <time>2020-08-22T16:46:21.000Z</time>
                <name>Trackpoint 8343</name>
            </trkpt>
            <trkpt lat="50.0316384" lon="10.4973536">
                <ele>230.0</ele>
                <time>2020-08-22T16:46:23.000Z</time>
                <name>Trackpoint 8344</name>
            </trkpt>
            <trkpt lat="50.031632" lon="10.4971784">
                <ele>231.0</ele>
                <time>2020-08-22T16:46:25.000Z</time>
                <name>Trackpoint 8345</name>
            </trkpt>
            <trkpt lat="50.031632" lon="10.497084">
                <ele>230.0</ele>
                <time>2020-08-22T16:46:26.000Z</time>
                <name>Trackpoint 8346</name>
            </trkpt>
            <trkpt lat="50.0316288" lon="10.4969904">
                <ele>230.0</ele>
                <time>2020-08-22T16:46:27.000Z</time>
                <name>Trackpoint 8347</name>
            </trkpt>
            <trkpt lat="50.0316128" lon="10.4968096">
                <ele>230.0</ele>
                <time>2020-08-22T16:46:29.000Z</time>
                <name>Trackpoint 8348</name>
            </trkpt>
            <trkpt lat="50.0315936" lon="10.4966488">
                <ele>230.0</ele>
                <time>2020-08-22T16:46:31.000Z</time>
                <name>Trackpoint 8349</name>
            </trkpt>
            <trkpt lat="50.031568" lon="10.4964912">
                <ele>230.0</ele>
                <time>2020-08-22T16:46:33.000Z</time>
                <name>Trackpoint 8350</name>
            </trkpt>
            <trkpt lat="50.031552" lon="10.4963528">
                <ele>230.0</ele>
                <time>2020-08-22T16:46:35.000Z</time>
                <name>Trackpoint 8351</name>
            </trkpt>
            <trkpt lat="50.0315424" lon="10.4961968">
                <ele>230.0</ele>
                <time>2020-08-22T16:46:37.000Z</time>
                <name>Trackpoint 8352</name>
            </trkpt>
            <trkpt lat="50.0315488" lon="10.4961032">
                <ele>230.0</ele>
                <time>2020-08-22T16:46:38.000Z</time>
                <name>Trackpoint 8353</name>
            </trkpt>
            <trkpt lat="50.0315488" lon="10.4959632">
                <ele>230.0</ele>
                <time>2020-08-22T16:46:40.000Z</time>
                <name>Trackpoint 8354</name>
            </trkpt>
            <trkpt lat="50.0315392" lon="10.4958352">
                <ele>230.0</ele>
                <time>2020-08-22T16:46:42.000Z</time>
                <name>Trackpoint 8355</name>
            </trkpt>
            <trkpt lat="50.0314816" lon="10.495764">
                <ele>229.0</ele>
                <time>2020-08-22T16:46:47.000Z</time>
                <name>Trackpoint 8356</name>
            </trkpt>
            <trkpt lat="50.0313728" lon="10.49578">
                <ele>229.0</ele>
                <time>2020-08-22T16:46:50.000Z</time>
                <name>Trackpoint 8357</name>
            </trkpt>
            <trkpt lat="50.03128" lon="10.495764">
                <ele>229.0</ele>
                <time>2020-08-22T16:46:52.000Z</time>
                <name>Trackpoint 8358</name>
            </trkpt>
            <trkpt lat="50.0312032" lon="10.4957168">
                <ele>228.0</ele>
                <time>2020-08-22T16:46:54.000Z</time>
                <name>Trackpoint 8359</name>
            </trkpt>
            <trkpt lat="50.0311232" lon="10.4956568">
                <ele>228.0</ele>
                <time>2020-08-22T16:46:56.000Z</time>
                <name>Trackpoint 8360</name>
            </trkpt>
            <trkpt lat="50.0310272" lon="10.4956032">
                <ele>228.0</ele>
                <time>2020-08-22T16:46:58.000Z</time>
                <name>Trackpoint 8361</name>
            </trkpt>
            <trkpt lat="50.0309472" lon="10.4955352">
                <ele>228.0</ele>
                <time>2020-08-22T16:47:00.000Z</time>
                <name>Trackpoint 8362</name>
            </trkpt>
            <trkpt lat="50.0308768" lon="10.4954616">
                <ele>227.0</ele>
                <time>2020-08-22T16:47:04.000Z</time>
                <name>Trackpoint 8363</name>
            </trkpt>
            <trkpt lat="50.0308128" lon="10.4953768">
                <ele>227.0</ele>
                <time>2020-08-22T16:47:24.000Z</time>
                <name>Trackpoint 8364</name>
            </trkpt>
            <trkpt lat="50.030768" lon="10.4952832">
                <ele>227.0</ele>
                <time>2020-08-22T16:47:27.000Z</time>
                <name>Trackpoint 8365</name>
            </trkpt>
            <trkpt lat="50.0307616" lon="10.4951664">
                <ele>227.0</ele>
                <time>2020-08-22T16:47:31.000Z</time>
                <name>Trackpoint 8366</name>
            </trkpt>
            <trkpt lat="50.0307488" lon="10.4950248">
                <ele>227.0</ele>
                <time>2020-08-22T16:47:34.000Z</time>
                <name>Trackpoint 8367</name>
            </trkpt>
            <trkpt lat="50.0307168" lon="10.4949152">
                <ele>227.0</ele>
                <time>2020-08-22T16:47:36.000Z</time>
                <name>Trackpoint 8368</name>
            </trkpt>
            <trkpt lat="50.0307072" lon="10.4947632">
                <ele>227.0</ele>
                <time>2020-08-22T16:47:38.000Z</time>
                <name>Trackpoint 8369</name>
            </trkpt>
            <trkpt lat="50.0306944" lon="10.4946144">
                <ele>227.0</ele>
                <time>2020-08-22T16:47:40.000Z</time>
                <name>Trackpoint 8370</name>
            </trkpt>
            <trkpt lat="50.0306848" lon="10.4944464">
                <ele>227.0</ele>
                <time>2020-08-22T16:47:42.000Z</time>
                <name>Trackpoint 8371</name>
            </trkpt>
            <trkpt lat="50.0306848" lon="10.49428">
                <ele>227.0</ele>
                <time>2020-08-22T16:47:44.000Z</time>
                <name>Trackpoint 8372</name>
            </trkpt>
            <trkpt lat="50.0306976" lon="10.4941384">
                <ele>227.0</ele>
                <time>2020-08-22T16:47:46.000Z</time>
                <name>Trackpoint 8373</name>
            </trkpt>
            <trkpt lat="50.0306976" lon="10.4940136">
                <ele>227.0</ele>
                <time>2020-08-22T16:47:48.000Z</time>
                <name>Trackpoint 8374</name>
            </trkpt>
            <trkpt lat="50.0307072" lon="10.4938848">
                <ele>227.0</ele>
                <time>2020-08-22T16:47:50.000Z</time>
                <name>Trackpoint 8375</name>
            </trkpt>
            <trkpt lat="50.0307264" lon="10.493756">
                <ele>227.0</ele>
                <time>2020-08-22T16:47:52.000Z</time>
                <name>Trackpoint 8376</name>
            </trkpt>
            <trkpt lat="50.0307616" lon="10.4936352">
                <ele>227.0</ele>
                <time>2020-08-22T16:47:54.000Z</time>
                <name>Trackpoint 8377</name>
            </trkpt>
            <trkpt lat="50.0307808" lon="10.4935152">
                <ele>226.0</ele>
                <time>2020-08-22T16:47:56.000Z</time>
                <name>Trackpoint 8378</name>
            </trkpt>
            <trkpt lat="50.0307872" lon="10.4933928">
                <ele>226.0</ele>
                <time>2020-08-22T16:47:58.000Z</time>
                <name>Trackpoint 8379</name>
            </trkpt>
            <trkpt lat="50.0308" lon="10.4932736">
                <ele>226.0</ele>
                <time>2020-08-22T16:48:00.000Z</time>
                <name>Trackpoint 8380</name>
            </trkpt>
            <trkpt lat="50.0308064" lon="10.4931632">
                <ele>226.0</ele>
                <time>2020-08-22T16:48:02.000Z</time>
                <name>Trackpoint 8381</name>
            </trkpt>
            <trkpt lat="50.0308" lon="10.493056">
                <ele>226.0</ele>
                <time>2020-08-22T16:48:04.000Z</time>
                <name>Trackpoint 8382</name>
            </trkpt>
            <trkpt lat="50.030816" lon="10.4928936">
                <ele>226.0</ele>
                <time>2020-08-22T16:48:07.000Z</time>
                <name>Trackpoint 8383</name>
            </trkpt>
            <trkpt lat="50.030816" lon="10.492768">
                <ele>226.0</ele>
                <time>2020-08-22T16:48:09.000Z</time>
                <name>Trackpoint 8384</name>
            </trkpt>
            <trkpt lat="50.0308224" lon="10.4926392">
                <ele>226.0</ele>
                <time>2020-08-22T16:48:11.000Z</time>
                <name>Trackpoint 8385</name>
            </trkpt>
            <trkpt lat="50.030816" lon="10.4925016">
                <ele>226.0</ele>
                <time>2020-08-22T16:48:13.000Z</time>
                <name>Trackpoint 8386</name>
            </trkpt>
            <trkpt lat="50.0308256" lon="10.4923584">
                <ele>226.0</ele>
                <time>2020-08-22T16:48:15.000Z</time>
                <name>Trackpoint 8387</name>
            </trkpt>
            <trkpt lat="50.0308544" lon="10.4922152">
                <ele>226.0</ele>
                <time>2020-08-22T16:48:17.000Z</time>
                <name>Trackpoint 8388</name>
            </trkpt>
            <trkpt lat="50.0309024" lon="10.4920992">
                <ele>226.0</ele>
                <time>2020-08-22T16:48:19.000Z</time>
                <name>Trackpoint 8389</name>
            </trkpt>
            <trkpt lat="50.0309472" lon="10.4920032">
                <ele>226.0</ele>
                <time>2020-08-22T16:48:21.000Z</time>
                <name>Trackpoint 8390</name>
            </trkpt>
            <trkpt lat="50.0310272" lon="10.4919072">
                <ele>226.0</ele>
                <time>2020-08-22T16:48:23.000Z</time>
                <name>Trackpoint 8391</name>
            </trkpt>
            <trkpt lat="50.0310816" lon="10.4918">
                <ele>225.0</ele>
                <time>2020-08-22T16:48:25.000Z</time>
                <name>Trackpoint 8392</name>
            </trkpt>
            <trkpt lat="50.03112" lon="10.4916712">
                <ele>225.0</ele>
                <time>2020-08-22T16:48:27.000Z</time>
                <name>Trackpoint 8393</name>
            </trkpt>
            <trkpt lat="50.0311456" lon="10.4915304">
                <ele>225.0</ele>
                <time>2020-08-22T16:48:29.000Z</time>
                <name>Trackpoint 8394</name>
            </trkpt>
            <trkpt lat="50.0311648" lon="10.491392">
                <ele>225.0</ele>
                <time>2020-08-22T16:48:31.000Z</time>
                <name>Trackpoint 8395</name>
            </trkpt>
            <trkpt lat="50.0311776" lon="10.4912704">
                <ele>225.0</ele>
                <time>2020-08-22T16:48:33.000Z</time>
                <name>Trackpoint 8396</name>
            </trkpt>
            <trkpt lat="50.031184" lon="10.4911536">
                <ele>225.0</ele>
                <time>2020-08-22T16:48:35.000Z</time>
                <name>Trackpoint 8397</name>
            </trkpt>
            <trkpt lat="50.0311904" lon="10.4910296">
                <ele>225.0</ele>
                <time>2020-08-22T16:48:37.000Z</time>
                <name>Trackpoint 8398</name>
            </trkpt>
            <trkpt lat="50.031184" lon="10.490876">
                <ele>225.0</ele>
                <time>2020-08-22T16:48:39.000Z</time>
                <name>Trackpoint 8399</name>
            </trkpt>
            <trkpt lat="50.0311776" lon="10.4907104">
                <ele>225.0</ele>
                <time>2020-08-22T16:48:41.000Z</time>
                <name>Trackpoint 8400</name>
            </trkpt>
            <trkpt lat="50.0311712" lon="10.4905568">
                <ele>225.0</ele>
                <time>2020-08-22T16:48:43.000Z</time>
                <name>Trackpoint 8401</name>
            </trkpt>
            <trkpt lat="50.0311584" lon="10.4903832">
                <ele>225.0</ele>
                <time>2020-08-22T16:48:45.000Z</time>
                <name>Trackpoint 8402</name>
            </trkpt>
            <trkpt lat="50.0311584" lon="10.4902896">
                <ele>225.0</ele>
                <time>2020-08-22T16:48:46.000Z</time>
                <name>Trackpoint 8403</name>
            </trkpt>
            <trkpt lat="50.0311552" lon="10.4901248">
                <ele>225.0</ele>
                <time>2020-08-22T16:48:48.000Z</time>
                <name>Trackpoint 8404</name>
            </trkpt>
            <trkpt lat="50.0311392" lon="10.4899656">
                <ele>225.0</ele>
                <time>2020-08-22T16:48:50.000Z</time>
                <name>Trackpoint 8405</name>
            </trkpt>
            <trkpt lat="50.0311264" lon="10.4897896">
                <ele>224.0</ele>
                <time>2020-08-22T16:48:52.000Z</time>
                <name>Trackpoint 8406</name>
            </trkpt>
            <trkpt lat="50.0311168" lon="10.4897">
                <ele>224.0</ele>
                <time>2020-08-22T16:48:53.000Z</time>
                <name>Trackpoint 8407</name>
            </trkpt>
            <trkpt lat="50.031104" lon="10.4895448">
                <ele>224.0</ele>
                <time>2020-08-22T16:48:55.000Z</time>
                <name>Trackpoint 8408</name>
            </trkpt>
            <trkpt lat="50.0311008" lon="10.4893936">
                <ele>224.0</ele>
                <time>2020-08-22T16:48:57.000Z</time>
                <name>Trackpoint 8409</name>
            </trkpt>
            <trkpt lat="50.0310912" lon="10.4892264">
                <ele>224.0</ele>
                <time>2020-08-22T16:48:59.000Z</time>
                <name>Trackpoint 8410</name>
            </trkpt>
            <trkpt lat="50.0310784" lon="10.4890808">
                <ele>224.0</ele>
                <time>2020-08-22T16:49:01.000Z</time>
                <name>Trackpoint 8411</name>
            </trkpt>
            <trkpt lat="50.0310656" lon="10.4889472">
                <ele>224.0</ele>
                <time>2020-08-22T16:49:03.000Z</time>
                <name>Trackpoint 8412</name>
            </trkpt>
            <trkpt lat="50.0310624" lon="10.4888112">
                <ele>224.0</ele>
                <time>2020-08-22T16:49:05.000Z</time>
                <name>Trackpoint 8413</name>
            </trkpt>
            <trkpt lat="50.0310464" lon="10.488664">
                <ele>224.0</ele>
                <time>2020-08-22T16:49:07.000Z</time>
                <name>Trackpoint 8414</name>
            </trkpt>
            <trkpt lat="50.0310336" lon="10.4885128">
                <ele>224.0</ele>
                <time>2020-08-22T16:49:09.000Z</time>
                <name>Trackpoint 8415</name>
            </trkpt>
            <trkpt lat="50.0310208" lon="10.4883648">
                <ele>224.0</ele>
                <time>2020-08-22T16:49:11.000Z</time>
                <name>Trackpoint 8416</name>
            </trkpt>
            <trkpt lat="50.0310176" lon="10.488232">
                <ele>224.0</ele>
                <time>2020-08-22T16:49:13.000Z</time>
                <name>Trackpoint 8417</name>
            </trkpt>
            <trkpt lat="50.0310144" lon="10.4880896">
                <ele>224.0</ele>
                <time>2020-08-22T16:49:15.000Z</time>
                <name>Trackpoint 8418</name>
            </trkpt>
            <trkpt lat="50.0310048" lon="10.4879312">
                <ele>223.0</ele>
                <time>2020-08-22T16:49:17.000Z</time>
                <name>Trackpoint 8419</name>
            </trkpt>
            <trkpt lat="50.030992" lon="10.4877632">
                <ele>224.0</ele>
                <time>2020-08-22T16:49:19.000Z</time>
                <name>Trackpoint 8420</name>
            </trkpt>
            <trkpt lat="50.0309856" lon="10.487608">
                <ele>223.0</ele>
                <time>2020-08-22T16:49:21.000Z</time>
                <name>Trackpoint 8421</name>
            </trkpt>
            <trkpt lat="50.030992" lon="10.4874584">
                <ele>223.0</ele>
                <time>2020-08-22T16:49:23.000Z</time>
                <name>Trackpoint 8422</name>
            </trkpt>
            <trkpt lat="50.0309824" lon="10.4873048">
                <ele>223.0</ele>
                <time>2020-08-22T16:49:25.000Z</time>
                <name>Trackpoint 8423</name>
            </trkpt>
            <trkpt lat="50.0309792" lon="10.4871456">
                <ele>223.0</ele>
                <time>2020-08-22T16:49:27.000Z</time>
                <name>Trackpoint 8424</name>
            </trkpt>
            <trkpt lat="50.0309632" lon="10.486992">
                <ele>223.0</ele>
                <time>2020-08-22T16:49:29.000Z</time>
                <name>Trackpoint 8425</name>
            </trkpt>
            <trkpt lat="50.03096" lon="10.4868288">
                <ele>223.0</ele>
                <time>2020-08-22T16:49:31.000Z</time>
                <name>Trackpoint 8426</name>
            </trkpt>
            <trkpt lat="50.0309472" lon="10.48668">
                <ele>223.0</ele>
                <time>2020-08-22T16:49:33.000Z</time>
                <name>Trackpoint 8427</name>
            </trkpt>
            <trkpt lat="50.0309344" lon="10.4865376">
                <ele>222.0</ele>
                <time>2020-08-22T16:49:35.000Z</time>
                <name>Trackpoint 8428</name>
            </trkpt>
            <trkpt lat="50.0309216" lon="10.4863968">
                <ele>222.0</ele>
                <time>2020-08-22T16:49:37.000Z</time>
                <name>Trackpoint 8429</name>
            </trkpt>
            <trkpt lat="50.0309184" lon="10.4863016">
                <ele>222.0</ele>
                <time>2020-08-22T16:49:38.000Z</time>
                <name>Trackpoint 8430</name>
            </trkpt>
            <trkpt lat="50.030912" lon="10.486132">
                <ele>222.0</ele>
                <time>2020-08-22T16:49:40.000Z</time>
                <name>Trackpoint 8431</name>
            </trkpt>
            <trkpt lat="50.0308992" lon="10.4859848">
                <ele>222.0</ele>
                <time>2020-08-22T16:49:42.000Z</time>
                <name>Trackpoint 8432</name>
            </trkpt>
            <trkpt lat="50.0308928" lon="10.4858368">
                <ele>222.0</ele>
                <time>2020-08-22T16:49:44.000Z</time>
                <name>Trackpoint 8433</name>
            </trkpt>
            <trkpt lat="50.0308736" lon="10.4856784">
                <ele>222.0</ele>
                <time>2020-08-22T16:49:46.000Z</time>
                <name>Trackpoint 8434</name>
            </trkpt>
            <trkpt lat="50.0308544" lon="10.4855232">
                <ele>221.0</ele>
                <time>2020-08-22T16:49:48.000Z</time>
                <name>Trackpoint 8435</name>
            </trkpt>
            <trkpt lat="50.0308384" lon="10.4853784">
                <ele>221.0</ele>
                <time>2020-08-22T16:49:50.000Z</time>
                <name>Trackpoint 8436</name>
            </trkpt>
            <trkpt lat="50.0308224" lon="10.4852168">
                <ele>221.0</ele>
                <time>2020-08-22T16:49:52.000Z</time>
                <name>Trackpoint 8437</name>
            </trkpt>
            <trkpt lat="50.0308064" lon="10.4850584">
                <ele>220.0</ele>
                <time>2020-08-22T16:49:54.000Z</time>
                <name>Trackpoint 8438</name>
            </trkpt>
            <trkpt lat="50.0307872" lon="10.484908">
                <ele>221.0</ele>
                <time>2020-08-22T16:49:56.000Z</time>
                <name>Trackpoint 8439</name>
            </trkpt>
            <trkpt lat="50.0307744" lon="10.4847672">
                <ele>220.0</ele>
                <time>2020-08-22T16:49:58.000Z</time>
                <name>Trackpoint 8440</name>
            </trkpt>
            <trkpt lat="50.0307488" lon="10.48462">
                <ele>220.0</ele>
                <time>2020-08-22T16:50:00.000Z</time>
                <name>Trackpoint 8441</name>
            </trkpt>
            <trkpt lat="50.0307328" lon="10.4844648">
                <ele>220.0</ele>
                <time>2020-08-22T16:50:02.000Z</time>
                <name>Trackpoint 8442</name>
            </trkpt>
            <trkpt lat="50.0307072" lon="10.4843184">
                <ele>221.0</ele>
                <time>2020-08-22T16:50:04.000Z</time>
                <name>Trackpoint 8443</name>
            </trkpt>
            <trkpt lat="50.0306816" lon="10.4841784">
                <ele>221.0</ele>
                <time>2020-08-22T16:50:06.000Z</time>
                <name>Trackpoint 8444</name>
            </trkpt>
            <trkpt lat="50.0306592" lon="10.4840368">
                <ele>221.0</ele>
                <time>2020-08-22T16:50:08.000Z</time>
                <name>Trackpoint 8445</name>
            </trkpt>
            <trkpt lat="50.0306368" lon="10.4838936">
                <ele>221.0</ele>
                <time>2020-08-22T16:50:10.000Z</time>
                <name>Trackpoint 8446</name>
            </trkpt>
            <trkpt lat="50.0306048" lon="10.4837576">
                <ele>221.0</ele>
                <time>2020-08-22T16:50:12.000Z</time>
                <name>Trackpoint 8447</name>
            </trkpt>
            <trkpt lat="50.030576" lon="10.4836352">
                <ele>222.0</ele>
                <time>2020-08-22T16:50:14.000Z</time>
                <name>Trackpoint 8448</name>
            </trkpt>
            <trkpt lat="50.0305632" lon="10.4834992">
                <ele>221.0</ele>
                <time>2020-08-22T16:50:16.000Z</time>
                <name>Trackpoint 8449</name>
            </trkpt>
            <trkpt lat="50.0305376" lon="10.4833744">
                <ele>221.0</ele>
                <time>2020-08-22T16:50:18.000Z</time>
                <name>Trackpoint 8450</name>
            </trkpt>
            <trkpt lat="50.0305152" lon="10.4832488">
                <ele>220.0</ele>
                <time>2020-08-22T16:50:20.000Z</time>
                <name>Trackpoint 8451</name>
            </trkpt>
            <trkpt lat="50.030496" lon="10.4831136">
                <ele>219.0</ele>
                <time>2020-08-22T16:50:22.000Z</time>
                <name>Trackpoint 8452</name>
            </trkpt>
            <trkpt lat="50.0304672" lon="10.4829704">
                <ele>218.0</ele>
                <time>2020-08-22T16:50:24.000Z</time>
                <name>Trackpoint 8453</name>
            </trkpt>
            <trkpt lat="50.0304384" lon="10.4828304">
                <ele>218.0</ele>
                <time>2020-08-22T16:50:26.000Z</time>
                <name>Trackpoint 8454</name>
            </trkpt>
            <trkpt lat="50.0304032" lon="10.4826936">
                <ele>218.0</ele>
                <time>2020-08-22T16:50:28.000Z</time>
                <name>Trackpoint 8455</name>
            </trkpt>
            <trkpt lat="50.0303712" lon="10.482556">
                <ele>218.0</ele>
                <time>2020-08-22T16:50:30.000Z</time>
                <name>Trackpoint 8456</name>
            </trkpt>
            <trkpt lat="50.0303264" lon="10.4824104">
                <ele>217.0</ele>
                <time>2020-08-22T16:50:32.000Z</time>
                <name>Trackpoint 8457</name>
            </trkpt>
            <trkpt lat="50.0302848" lon="10.4822632">
                <ele>217.0</ele>
                <time>2020-08-22T16:50:34.000Z</time>
                <name>Trackpoint 8458</name>
            </trkpt>
            <trkpt lat="50.0302496" lon="10.4821192">
                <ele>217.0</ele>
                <time>2020-08-22T16:50:36.000Z</time>
                <name>Trackpoint 8459</name>
            </trkpt>
            <trkpt lat="50.030208" lon="10.4819832">
                <ele>217.0</ele>
                <time>2020-08-22T16:50:38.000Z</time>
                <name>Trackpoint 8460</name>
            </trkpt>
            <trkpt lat="50.0301664" lon="10.4818448">
                <ele>217.0</ele>
                <time>2020-08-22T16:50:40.000Z</time>
                <name>Trackpoint 8461</name>
            </trkpt>
            <trkpt lat="50.0301312" lon="10.4817352">
                <ele>217.0</ele>
                <time>2020-08-22T16:50:42.000Z</time>
                <name>Trackpoint 8462</name>
            </trkpt>
            <trkpt lat="50.0301024" lon="10.4816416">
                <ele>216.0</ele>
                <time>2020-08-22T16:51:17.000Z</time>
                <name>Trackpoint 8463</name>
            </trkpt>
            <trkpt lat="50.03008" lon="10.4815368">
                <ele>216.0</ele>
                <time>2020-08-22T16:51:22.000Z</time>
                <name>Trackpoint 8464</name>
            </trkpt>
            <trkpt lat="50.0300384" lon="10.4814184">
                <ele>217.0</ele>
                <time>2020-08-22T16:51:25.000Z</time>
                <name>Trackpoint 8465</name>
            </trkpt>
            <trkpt lat="50.0300096" lon="10.48132">
                <ele>217.0</ele>
                <time>2020-08-22T16:51:27.000Z</time>
                <name>Trackpoint 8466</name>
            </trkpt>
            <trkpt lat="50.029984" lon="10.4812144">
                <ele>217.0</ele>
                <time>2020-08-22T16:51:29.000Z</time>
                <name>Trackpoint 8467</name>
            </trkpt>
            <trkpt lat="50.0299328" lon="10.4810984">
                <ele>217.0</ele>
                <time>2020-08-22T16:51:31.000Z</time>
                <name>Trackpoint 8468</name>
            </trkpt>
            <trkpt lat="50.0298944" lon="10.4809864">
                <ele>217.0</ele>
                <time>2020-08-22T16:51:33.000Z</time>
                <name>Trackpoint 8469</name>
            </trkpt>
            <trkpt lat="50.0298528" lon="10.4808704">
                <ele>217.0</ele>
                <time>2020-08-22T16:51:35.000Z</time>
                <name>Trackpoint 8470</name>
            </trkpt>
            <trkpt lat="50.0298112" lon="10.4807528">
                <ele>216.0</ele>
                <time>2020-08-22T16:51:37.000Z</time>
                <name>Trackpoint 8471</name>
            </trkpt>
            <trkpt lat="50.0297728" lon="10.4806296">
                <ele>216.0</ele>
                <time>2020-08-22T16:51:39.000Z</time>
                <name>Trackpoint 8472</name>
            </trkpt>
            <trkpt lat="50.029728" lon="10.4805024">
                <ele>216.0</ele>
                <time>2020-08-22T16:51:41.000Z</time>
                <name>Trackpoint 8473</name>
            </trkpt>
            <trkpt lat="50.0296864" lon="10.4803784">
                <ele>216.0</ele>
                <time>2020-08-22T16:51:43.000Z</time>
                <name>Trackpoint 8474</name>
            </trkpt>
            <trkpt lat="50.0296544" lon="10.4802688">
                <ele>215.0</ele>
                <time>2020-08-22T16:51:45.000Z</time>
                <name>Trackpoint 8475</name>
            </trkpt>
            <trkpt lat="50.0296256" lon="10.4801648">
                <ele>215.0</ele>
                <time>2020-08-22T16:51:47.000Z</time>
                <name>Trackpoint 8476</name>
            </trkpt>
            <trkpt lat="50.0295904" lon="10.4800528">
                <ele>215.0</ele>
                <time>2020-08-22T16:51:49.000Z</time>
                <name>Trackpoint 8477</name>
            </trkpt>
            <trkpt lat="50.0295456" lon="10.4799144">
                <ele>215.0</ele>
                <time>2020-08-22T16:51:51.000Z</time>
                <name>Trackpoint 8478</name>
            </trkpt>
            <trkpt lat="50.029504" lon="10.4797952">
                <ele>215.0</ele>
                <time>2020-08-22T16:51:53.000Z</time>
                <name>Trackpoint 8479</name>
            </trkpt>
            <trkpt lat="50.0294624" lon="10.4796664">
                <ele>215.0</ele>
                <time>2020-08-22T16:51:55.000Z</time>
                <name>Trackpoint 8480</name>
            </trkpt>
            <trkpt lat="50.0294144" lon="10.4795512">
                <ele>215.0</ele>
                <time>2020-08-22T16:51:57.000Z</time>
                <name>Trackpoint 8481</name>
            </trkpt>
            <trkpt lat="50.0293728" lon="10.479428">
                <ele>215.0</ele>
                <time>2020-08-22T16:51:59.000Z</time>
                <name>Trackpoint 8482</name>
            </trkpt>
            <trkpt lat="50.0293184" lon="10.4792992">
                <ele>216.0</ele>
                <time>2020-08-22T16:52:01.000Z</time>
                <name>Trackpoint 8483</name>
            </trkpt>
            <trkpt lat="50.0292768" lon="10.479172">
                <ele>216.0</ele>
                <time>2020-08-22T16:52:03.000Z</time>
                <name>Trackpoint 8484</name>
            </trkpt>
            <trkpt lat="50.0292256" lon="10.4790432">
                <ele>216.0</ele>
                <time>2020-08-22T16:52:05.000Z</time>
                <name>Trackpoint 8485</name>
            </trkpt>
            <trkpt lat="50.0291744" lon="10.4789168">
                <ele>216.0</ele>
                <time>2020-08-22T16:52:07.000Z</time>
                <name>Trackpoint 8486</name>
            </trkpt>
            <trkpt lat="50.0291392" lon="10.4787904">
                <ele>217.0</ele>
                <time>2020-08-22T16:52:09.000Z</time>
                <name>Trackpoint 8487</name>
            </trkpt>
            <trkpt lat="50.0290976" lon="10.4786632">
                <ele>217.0</ele>
                <time>2020-08-22T16:52:11.000Z</time>
                <name>Trackpoint 8488</name>
            </trkpt>
            <trkpt lat="50.0290496" lon="10.4785496">
                <ele>218.0</ele>
                <time>2020-08-22T16:52:13.000Z</time>
                <name>Trackpoint 8489</name>
            </trkpt>
            <trkpt lat="50.0290016" lon="10.4784232">
                <ele>217.0</ele>
                <time>2020-08-22T16:52:15.000Z</time>
                <name>Trackpoint 8490</name>
            </trkpt>
            <trkpt lat="50.02896" lon="10.4783152">
                <ele>217.0</ele>
                <time>2020-08-22T16:52:17.000Z</time>
                <name>Trackpoint 8491</name>
            </trkpt>
            <trkpt lat="50.0288992" lon="10.4782464">
                <ele>217.0</ele>
                <time>2020-08-22T16:52:19.000Z</time>
                <name>Trackpoint 8492</name>
            </trkpt>
            <trkpt lat="50.0288" lon="10.4781664">
                <ele>217.0</ele>
                <time>2020-08-22T16:52:22.000Z</time>
                <name>Trackpoint 8493</name>
            </trkpt>
            <trkpt lat="50.0287328" lon="10.4780816">
                <ele>217.0</ele>
                <time>2020-08-22T16:52:25.000Z</time>
                <name>Trackpoint 8494</name>
            </trkpt>
            <trkpt lat="50.0286912" lon="10.4779952">
                <ele>217.0</ele>
                <time>2020-08-22T16:52:28.000Z</time>
                <name>Trackpoint 8495</name>
            </trkpt>
            <trkpt lat="50.0286528" lon="10.4778768">
                <ele>217.0</ele>
                <time>2020-08-22T16:52:31.000Z</time>
                <name>Trackpoint 8496</name>
            </trkpt>
            <trkpt lat="50.028608" lon="10.4777816">
                <ele>217.0</ele>
                <time>2020-08-22T16:52:33.000Z</time>
                <name>Trackpoint 8497</name>
            </trkpt>
            <trkpt lat="50.0285536" lon="10.4776952">
                <ele>217.0</ele>
                <time>2020-08-22T16:52:35.000Z</time>
                <name>Trackpoint 8498</name>
            </trkpt>
            <trkpt lat="50.0284832" lon="10.4776384">
                <ele>217.0</ele>
                <time>2020-08-22T16:52:37.000Z</time>
                <name>Trackpoint 8499</name>
            </trkpt>
            <trkpt lat="50.0284032" lon="10.4775712">
                <ele>217.0</ele>
                <time>2020-08-22T16:52:40.000Z</time>
                <name>Trackpoint 8500</name>
            </trkpt>
            <trkpt lat="50.0283168" lon="10.4775104">
                <ele>217.0</ele>
                <time>2020-08-22T16:53:15.000Z</time>
                <name>Trackpoint 8501</name>
            </trkpt>
            <trkpt lat="50.0282272" lon="10.4774816">
                <ele>217.0</ele>
                <time>2020-08-22T16:53:18.000Z</time>
                <name>Trackpoint 8502</name>
            </trkpt>
            <trkpt lat="50.0281408" lon="10.4774448">
                <ele>217.0</ele>
                <time>2020-08-22T16:53:20.000Z</time>
                <name>Trackpoint 8503</name>
            </trkpt>
            <trkpt lat="50.028048" lon="10.4774016">
                <ele>217.0</ele>
                <time>2020-08-22T16:53:22.000Z</time>
                <name>Trackpoint 8504</name>
            </trkpt>
            <trkpt lat="50.027984" lon="10.477308">
                <ele>217.0</ele>
                <time>2020-08-22T16:53:24.000Z</time>
                <name>Trackpoint 8505</name>
            </trkpt>
            <trkpt lat="50.0279168" lon="10.4771928">
                <ele>217.0</ele>
                <time>2020-08-22T16:53:26.000Z</time>
                <name>Trackpoint 8506</name>
            </trkpt>
            <trkpt lat="50.0278496" lon="10.4770816">
                <ele>217.0</ele>
                <time>2020-08-22T16:53:28.000Z</time>
                <name>Trackpoint 8507</name>
            </trkpt>
            <trkpt lat="50.0277952" lon="10.4769736">
                <ele>217.0</ele>
                <time>2020-08-22T16:53:30.000Z</time>
                <name>Trackpoint 8508</name>
            </trkpt>
            <trkpt lat="50.0277408" lon="10.4768736">
                <ele>217.0</ele>
                <time>2020-08-22T16:53:32.000Z</time>
                <name>Trackpoint 8509</name>
            </trkpt>
            <trkpt lat="50.0276704" lon="10.476764">
                <ele>217.0</ele>
                <time>2020-08-22T16:53:34.000Z</time>
                <name>Trackpoint 8510</name>
            </trkpt>
            <trkpt lat="50.0276032" lon="10.476668">
                <ele>217.0</ele>
                <time>2020-08-22T16:53:36.000Z</time>
                <name>Trackpoint 8511</name>
            </trkpt>
            <trkpt lat="50.0275296" lon="10.4765704">
                <ele>217.0</ele>
                <time>2020-08-22T16:53:38.000Z</time>
                <name>Trackpoint 8512</name>
            </trkpt>
            <trkpt lat="50.0274464" lon="10.476472">
                <ele>217.0</ele>
                <time>2020-08-22T16:53:40.000Z</time>
                <name>Trackpoint 8513</name>
            </trkpt>
            <trkpt lat="50.0273792" lon="10.476368">
                <ele>217.0</ele>
                <time>2020-08-22T16:53:42.000Z</time>
                <name>Trackpoint 8514</name>
            </trkpt>
            <trkpt lat="50.0273184" lon="10.4762632">
                <ele>217.0</ele>
                <time>2020-08-22T16:53:44.000Z</time>
                <name>Trackpoint 8515</name>
            </trkpt>
            <trkpt lat="50.0272512" lon="10.4761688">
                <ele>217.0</ele>
                <time>2020-08-22T16:53:46.000Z</time>
                <name>Trackpoint 8516</name>
            </trkpt>
            <trkpt lat="50.0271936" lon="10.4760664">
                <ele>217.0</ele>
                <time>2020-08-22T16:53:48.000Z</time>
                <name>Trackpoint 8517</name>
            </trkpt>
            <trkpt lat="50.0271424" lon="10.4759664">
                <ele>217.0</ele>
                <time>2020-08-22T16:53:50.000Z</time>
                <name>Trackpoint 8518</name>
            </trkpt>
            <trkpt lat="50.0270912" lon="10.475872">
                <ele>217.0</ele>
                <time>2020-08-22T16:53:52.000Z</time>
                <name>Trackpoint 8519</name>
            </trkpt>
            <trkpt lat="50.0270336" lon="10.4757792">
                <ele>217.0</ele>
                <time>2020-08-22T16:53:54.000Z</time>
                <name>Trackpoint 8520</name>
            </trkpt>
            <trkpt lat="50.0269728" lon="10.4756816">
                <ele>217.0</ele>
                <time>2020-08-22T16:53:56.000Z</time>
                <name>Trackpoint 8521</name>
            </trkpt>
            <trkpt lat="50.0269152" lon="10.4755888">
                <ele>217.0</ele>
                <time>2020-08-22T16:53:58.000Z</time>
                <name>Trackpoint 8522</name>
            </trkpt>
            <trkpt lat="50.0268512" lon="10.4755032">
                <ele>217.0</ele>
                <time>2020-08-22T16:54:00.000Z</time>
                <name>Trackpoint 8523</name>
            </trkpt>
            <trkpt lat="50.0267776" lon="10.47542">
                <ele>217.0</ele>
                <time>2020-08-22T16:54:02.000Z</time>
                <name>Trackpoint 8524</name>
            </trkpt>
            <trkpt lat="50.0267072" lon="10.4753336">
                <ele>217.0</ele>
                <time>2020-08-22T16:54:04.000Z</time>
                <name>Trackpoint 8525</name>
            </trkpt>
            <trkpt lat="50.0266336" lon="10.4752328">
                <ele>217.0</ele>
                <time>2020-08-22T16:54:06.000Z</time>
                <name>Trackpoint 8526</name>
            </trkpt>
            <trkpt lat="50.0265728" lon="10.4751192">
                <ele>217.0</ele>
                <time>2020-08-22T16:54:08.000Z</time>
                <name>Trackpoint 8527</name>
            </trkpt>
            <trkpt lat="50.0264992" lon="10.4750096">
                <ele>217.0</ele>
                <time>2020-08-22T16:54:10.000Z</time>
                <name>Trackpoint 8528</name>
            </trkpt>
            <trkpt lat="50.026448" lon="10.474872">
                <ele>217.0</ele>
                <time>2020-08-22T16:54:12.000Z</time>
                <name>Trackpoint 8529</name>
            </trkpt>
            <trkpt lat="50.026384" lon="10.4747536">
                <ele>217.0</ele>
                <time>2020-08-22T16:54:14.000Z</time>
                <name>Trackpoint 8530</name>
            </trkpt>
            <trkpt lat="50.02632" lon="10.4746448">
                <ele>217.0</ele>
                <time>2020-08-22T16:54:16.000Z</time>
                <name>Trackpoint 8531</name>
            </trkpt>
            <trkpt lat="50.0262752" lon="10.4745448">
                <ele>217.0</ele>
                <time>2020-08-22T16:54:18.000Z</time>
                <name>Trackpoint 8532</name>
            </trkpt>
            <trkpt lat="50.0262304" lon="10.4744456">
                <ele>217.0</ele>
                <time>2020-08-22T16:54:20.000Z</time>
                <name>Trackpoint 8533</name>
            </trkpt>
            <trkpt lat="50.026192" lon="10.4743168">
                <ele>217.0</ele>
                <time>2020-08-22T16:54:22.000Z</time>
                <name>Trackpoint 8534</name>
            </trkpt>
            <trkpt lat="50.0261984" lon="10.4741624">
                <ele>217.0</ele>
                <time>2020-08-22T16:54:24.000Z</time>
                <name>Trackpoint 8535</name>
            </trkpt>
            <trkpt lat="50.0261984" lon="10.474004">
                <ele>217.0</ele>
                <time>2020-08-22T16:54:26.000Z</time>
                <name>Trackpoint 8536</name>
            </trkpt>
            <trkpt lat="50.0262144" lon="10.4738512">
                <ele>217.0</ele>
                <time>2020-08-22T16:54:28.000Z</time>
                <name>Trackpoint 8537</name>
            </trkpt>
            <trkpt lat="50.0262112" lon="10.4737128">
                <ele>217.0</ele>
                <time>2020-08-22T16:54:30.000Z</time>
                <name>Trackpoint 8538</name>
            </trkpt>
            <trkpt lat="50.0261952" lon="10.4735632">
                <ele>217.0</ele>
                <time>2020-08-22T16:54:32.000Z</time>
                <name>Trackpoint 8539</name>
            </trkpt>
            <trkpt lat="50.0261664" lon="10.4734032">
                <ele>217.0</ele>
                <time>2020-08-22T16:54:34.000Z</time>
                <name>Trackpoint 8540</name>
            </trkpt>
            <trkpt lat="50.0261184" lon="10.47326">
                <ele>217.0</ele>
                <time>2020-08-22T16:54:36.000Z</time>
                <name>Trackpoint 8541</name>
            </trkpt>
            <trkpt lat="50.0260576" lon="10.4731232">
                <ele>217.0</ele>
                <time>2020-08-22T16:54:38.000Z</time>
                <name>Trackpoint 8542</name>
            </trkpt>
            <trkpt lat="50.0259936" lon="10.4730056">
                <ele>217.0</ele>
                <time>2020-08-22T16:54:40.000Z</time>
                <name>Trackpoint 8543</name>
            </trkpt>
            <trkpt lat="50.0259296" lon="10.4729016">
                <ele>217.0</ele>
                <time>2020-08-22T16:54:42.000Z</time>
                <name>Trackpoint 8544</name>
            </trkpt>
            <trkpt lat="50.0258624" lon="10.4728016">
                <ele>217.0</ele>
                <time>2020-08-22T16:54:44.000Z</time>
                <name>Trackpoint 8545</name>
            </trkpt>
            <trkpt lat="50.0258016" lon="10.472696">
                <ele>216.0</ele>
                <time>2020-08-22T16:54:46.000Z</time>
                <name>Trackpoint 8546</name>
            </trkpt>
            <trkpt lat="50.0257408" lon="10.4725968">
                <ele>216.0</ele>
                <time>2020-08-22T16:54:48.000Z</time>
                <name>Trackpoint 8547</name>
            </trkpt>
            <trkpt lat="50.0256768" lon="10.47248">
                <ele>216.0</ele>
                <time>2020-08-22T16:54:50.000Z</time>
                <name>Trackpoint 8548</name>
            </trkpt>
            <trkpt lat="50.0256192" lon="10.472352">
                <ele>216.0</ele>
                <time>2020-08-22T16:54:52.000Z</time>
                <name>Trackpoint 8549</name>
            </trkpt>
            <trkpt lat="50.0255584" lon="10.472232">
                <ele>216.0</ele>
                <time>2020-08-22T16:54:54.000Z</time>
                <name>Trackpoint 8550</name>
            </trkpt>
            <trkpt lat="50.0254976" lon="10.4721232">
                <ele>216.0</ele>
                <time>2020-08-22T16:54:56.000Z</time>
                <name>Trackpoint 8551</name>
            </trkpt>
            <trkpt lat="50.0254432" lon="10.4720184">
                <ele>216.0</ele>
                <time>2020-08-22T16:54:58.000Z</time>
                <name>Trackpoint 8552</name>
            </trkpt>
            <trkpt lat="50.0253984" lon="10.4719288">
                <ele>216.0</ele>
                <time>2020-08-22T16:55:00.000Z</time>
                <name>Trackpoint 8553</name>
            </trkpt>
            <trkpt lat="50.0253216" lon="10.4718152">
                <ele>216.0</ele>
                <time>2020-08-22T16:55:03.000Z</time>
                <name>Trackpoint 8554</name>
            </trkpt>
            <trkpt lat="50.025264" lon="10.4717256">
                <ele>216.0</ele>
                <time>2020-08-22T16:55:05.000Z</time>
                <name>Trackpoint 8555</name>
            </trkpt>
            <trkpt lat="50.0252128" lon="10.4716368">
                <ele>215.0</ele>
                <time>2020-08-22T16:55:07.000Z</time>
                <name>Trackpoint 8556</name>
            </trkpt>
            <trkpt lat="50.0251584" lon="10.4715584">
                <ele>216.0</ele>
                <time>2020-08-22T16:55:09.000Z</time>
                <name>Trackpoint 8557</name>
            </trkpt>
            <trkpt lat="50.0251136" lon="10.47148">
                <ele>215.0</ele>
                <time>2020-08-22T16:55:11.000Z</time>
                <name>Trackpoint 8558</name>
            </trkpt>
            <trkpt lat="50.0250592" lon="10.471408">
                <ele>215.0</ele>
                <time>2020-08-22T16:55:13.000Z</time>
                <name>Trackpoint 8559</name>
            </trkpt>
            <trkpt lat="50.0249856" lon="10.4713032">
                <ele>215.0</ele>
                <time>2020-08-22T16:55:16.000Z</time>
                <name>Trackpoint 8560</name>
            </trkpt>
            <trkpt lat="50.0249248" lon="10.4711952">
                <ele>215.0</ele>
                <time>2020-08-22T16:55:19.000Z</time>
                <name>Trackpoint 8561</name>
            </trkpt>
            <trkpt lat="50.0248832" lon="10.4711136">
                <ele>215.0</ele>
                <time>2020-08-22T16:55:21.000Z</time>
                <name>Trackpoint 8562</name>
            </trkpt>
            <trkpt lat="50.0248384" lon="10.4710352">
                <ele>215.0</ele>
                <time>2020-08-22T16:55:23.000Z</time>
                <name>Trackpoint 8563</name>
            </trkpt>
            <trkpt lat="50.0247808" lon="10.4709304">
                <ele>215.0</ele>
                <time>2020-08-22T16:55:26.000Z</time>
                <name>Trackpoint 8564</name>
            </trkpt>
            <trkpt lat="50.02472" lon="10.470828">
                <ele>215.0</ele>
                <time>2020-08-22T16:55:29.000Z</time>
                <name>Trackpoint 8565</name>
            </trkpt>
            <trkpt lat="50.0246688" lon="10.4707416">
                <ele>215.0</ele>
                <time>2020-08-22T16:55:31.000Z</time>
                <name>Trackpoint 8566</name>
            </trkpt>
            <trkpt lat="50.024608" lon="10.470656">
                <ele>215.0</ele>
                <time>2020-08-22T16:55:33.000Z</time>
                <name>Trackpoint 8567</name>
            </trkpt>
            <trkpt lat="50.0245504" lon="10.4705664">
                <ele>215.0</ele>
                <time>2020-08-22T16:55:35.000Z</time>
                <name>Trackpoint 8568</name>
            </trkpt>
            <trkpt lat="50.0244928" lon="10.4704752">
                <ele>215.0</ele>
                <time>2020-08-22T16:55:37.000Z</time>
                <name>Trackpoint 8569</name>
            </trkpt>
            <trkpt lat="50.0244384" lon="10.4703848">
                <ele>215.0</ele>
                <time>2020-08-22T16:55:39.000Z</time>
                <name>Trackpoint 8570</name>
            </trkpt>
            <trkpt lat="50.0243616" lon="10.4702768">
                <ele>215.0</ele>
                <time>2020-08-22T16:55:42.000Z</time>
                <name>Trackpoint 8571</name>
            </trkpt>
            <trkpt lat="50.0242912" lon="10.470188">
                <ele>215.0</ele>
                <time>2020-08-22T16:55:45.000Z</time>
                <name>Trackpoint 8572</name>
            </trkpt>
            <trkpt lat="50.0242464" lon="10.4701072">
                <ele>214.0</ele>
                <time>2020-08-22T16:55:49.000Z</time>
                <name>Trackpoint 8573</name>
            </trkpt>
            <trkpt lat="50.0241856" lon="10.469992">
                <ele>214.0</ele>
                <time>2020-08-22T16:56:06.000Z</time>
                <name>Trackpoint 8574</name>
            </trkpt>
            <trkpt lat="50.0241312" lon="10.4699184">
                <ele>214.0</ele>
                <time>2020-08-22T16:56:08.000Z</time>
                <name>Trackpoint 8575</name>
            </trkpt>
            <trkpt lat="50.0240896" lon="10.4698232">
                <ele>214.0</ele>
                <time>2020-08-22T16:56:10.000Z</time>
                <name>Trackpoint 8576</name>
            </trkpt>
            <trkpt lat="50.0240352" lon="10.469724">
                <ele>214.0</ele>
                <time>2020-08-22T16:56:12.000Z</time>
                <name>Trackpoint 8577</name>
            </trkpt>
            <trkpt lat="50.0239872" lon="10.4696152">
                <ele>214.0</ele>
                <time>2020-08-22T16:56:14.000Z</time>
                <name>Trackpoint 8578</name>
            </trkpt>
            <trkpt lat="50.0239552" lon="10.4694984">
                <ele>214.0</ele>
                <time>2020-08-22T16:56:16.000Z</time>
                <name>Trackpoint 8579</name>
            </trkpt>
            <trkpt lat="50.0239328" lon="10.4693696">
                <ele>214.0</ele>
                <time>2020-08-22T16:56:18.000Z</time>
                <name>Trackpoint 8580</name>
            </trkpt>
            <trkpt lat="50.0239264" lon="10.4692352">
                <ele>214.0</ele>
                <time>2020-08-22T16:56:20.000Z</time>
                <name>Trackpoint 8581</name>
            </trkpt>
            <trkpt lat="50.0239072" lon="10.4691088">
                <ele>214.0</ele>
                <time>2020-08-22T16:56:22.000Z</time>
                <name>Trackpoint 8582</name>
            </trkpt>
            <trkpt lat="50.023856" lon="10.4689976">
                <ele>214.0</ele>
                <time>2020-08-22T16:56:24.000Z</time>
                <name>Trackpoint 8583</name>
            </trkpt>
            <trkpt lat="50.0237952" lon="10.4688904">
                <ele>214.0</ele>
                <time>2020-08-22T16:56:26.000Z</time>
                <name>Trackpoint 8584</name>
            </trkpt>
            <trkpt lat="50.0237184" lon="10.4687784">
                <ele>214.0</ele>
                <time>2020-08-22T16:56:28.000Z</time>
                <name>Trackpoint 8585</name>
            </trkpt>
            <trkpt lat="50.0236544" lon="10.4686696">
                <ele>214.0</ele>
                <time>2020-08-22T16:56:30.000Z</time>
                <name>Trackpoint 8586</name>
            </trkpt>
            <trkpt lat="50.0235968" lon="10.4685584">
                <ele>214.0</ele>
                <time>2020-08-22T16:56:32.000Z</time>
                <name>Trackpoint 8587</name>
            </trkpt>
            <trkpt lat="50.0235296" lon="10.4684464">
                <ele>214.0</ele>
                <time>2020-08-22T16:56:34.000Z</time>
                <name>Trackpoint 8588</name>
            </trkpt>
            <trkpt lat="50.0234656" lon="10.4683352">
                <ele>214.0</ele>
                <time>2020-08-22T16:56:36.000Z</time>
                <name>Trackpoint 8589</name>
            </trkpt>
            <trkpt lat="50.023408" lon="10.4682248">
                <ele>214.0</ele>
                <time>2020-08-22T16:56:38.000Z</time>
                <name>Trackpoint 8590</name>
            </trkpt>
            <trkpt lat="50.0233568" lon="10.468128">
                <ele>214.0</ele>
                <time>2020-08-22T16:56:40.000Z</time>
                <name>Trackpoint 8591</name>
            </trkpt>
            <trkpt lat="50.0233088" lon="10.4680336">
                <ele>214.0</ele>
                <time>2020-08-22T16:56:42.000Z</time>
                <name>Trackpoint 8592</name>
            </trkpt>
            <trkpt lat="50.0232512" lon="10.4679336">
                <ele>214.0</ele>
                <time>2020-08-22T16:56:44.000Z</time>
                <name>Trackpoint 8593</name>
            </trkpt>
            <trkpt lat="50.0231776" lon="10.4678288">
                <ele>214.0</ele>
                <time>2020-08-22T16:56:46.000Z</time>
                <name>Trackpoint 8594</name>
            </trkpt>
            <trkpt lat="50.0231136" lon="10.4677088">
                <ele>214.0</ele>
                <time>2020-08-22T16:56:48.000Z</time>
                <name>Trackpoint 8595</name>
            </trkpt>
            <trkpt lat="50.0230528" lon="10.4676">
                <ele>214.0</ele>
                <time>2020-08-22T16:56:50.000Z</time>
                <name>Trackpoint 8596</name>
            </trkpt>
            <trkpt lat="50.0229888" lon="10.467488">
                <ele>214.0</ele>
                <time>2020-08-22T16:56:52.000Z</time>
                <name>Trackpoint 8597</name>
            </trkpt>
            <trkpt lat="50.0229216" lon="10.4673816">
                <ele>214.0</ele>
                <time>2020-08-22T16:56:54.000Z</time>
                <name>Trackpoint 8598</name>
            </trkpt>
            <trkpt lat="50.0228608" lon="10.4672672">
                <ele>214.0</ele>
                <time>2020-08-22T16:56:56.000Z</time>
                <name>Trackpoint 8599</name>
            </trkpt>
            <trkpt lat="50.0227968" lon="10.4671568">
                <ele>214.0</ele>
                <time>2020-08-22T16:56:58.000Z</time>
                <name>Trackpoint 8600</name>
            </trkpt>
            <trkpt lat="50.0227328" lon="10.4670464">
                <ele>214.0</ele>
                <time>2020-08-22T16:57:00.000Z</time>
                <name>Trackpoint 8601</name>
            </trkpt>
            <trkpt lat="50.0226656" lon="10.4669304">
                <ele>214.0</ele>
                <time>2020-08-22T16:57:02.000Z</time>
                <name>Trackpoint 8602</name>
            </trkpt>
            <trkpt lat="50.0226048" lon="10.4668168">
                <ele>213.0</ele>
                <time>2020-08-22T16:57:04.000Z</time>
                <name>Trackpoint 8603</name>
            </trkpt>
            <trkpt lat="50.0225408" lon="10.4667064">
                <ele>213.0</ele>
                <time>2020-08-22T16:57:06.000Z</time>
                <name>Trackpoint 8604</name>
            </trkpt>
            <trkpt lat="50.0224768" lon="10.4665944">
                <ele>213.0</ele>
                <time>2020-08-22T16:57:08.000Z</time>
                <name>Trackpoint 8605</name>
            </trkpt>
            <trkpt lat="50.022416" lon="10.4664832">
                <ele>213.0</ele>
                <time>2020-08-22T16:57:10.000Z</time>
                <name>Trackpoint 8606</name>
            </trkpt>
            <trkpt lat="50.0223584" lon="10.4663712">
                <ele>212.0</ele>
                <time>2020-08-22T16:57:12.000Z</time>
                <name>Trackpoint 8607</name>
            </trkpt>
            <trkpt lat="50.0223072" lon="10.4662752">
                <ele>213.0</ele>
                <time>2020-08-22T16:57:14.000Z</time>
                <name>Trackpoint 8608</name>
            </trkpt>
            <trkpt lat="50.022256" lon="10.4661752">
                <ele>212.0</ele>
                <time>2020-08-22T16:57:16.000Z</time>
                <name>Trackpoint 8609</name>
            </trkpt>
            <trkpt lat="50.0221984" lon="10.4660704">
                <ele>212.0</ele>
                <time>2020-08-22T16:57:18.000Z</time>
                <name>Trackpoint 8610</name>
            </trkpt>
            <trkpt lat="50.0221376" lon="10.4659616">
                <ele>213.0</ele>
                <time>2020-08-22T16:57:20.000Z</time>
                <name>Trackpoint 8611</name>
            </trkpt>
            <trkpt lat="50.0220832" lon="10.4658544">
                <ele>213.0</ele>
                <time>2020-08-22T16:57:22.000Z</time>
                <name>Trackpoint 8612</name>
            </trkpt>
            <trkpt lat="50.0220288" lon="10.4657384">
                <ele>213.0</ele>
                <time>2020-08-22T16:57:24.000Z</time>
                <name>Trackpoint 8613</name>
            </trkpt>
            <trkpt lat="50.0219712" lon="10.4656296">
                <ele>213.0</ele>
                <time>2020-08-22T16:57:26.000Z</time>
                <name>Trackpoint 8614</name>
            </trkpt>
            <trkpt lat="50.0219104" lon="10.46552">
                <ele>214.0</ele>
                <time>2020-08-22T16:57:28.000Z</time>
                <name>Trackpoint 8615</name>
            </trkpt>
            <trkpt lat="50.021856" lon="10.4654032">
                <ele>214.0</ele>
                <time>2020-08-22T16:57:30.000Z</time>
                <name>Trackpoint 8616</name>
            </trkpt>
            <trkpt lat="50.0218016" lon="10.4652816">
                <ele>214.0</ele>
                <time>2020-08-22T16:57:32.000Z</time>
                <name>Trackpoint 8617</name>
            </trkpt>
            <trkpt lat="50.0217408" lon="10.4651568">
                <ele>214.0</ele>
                <time>2020-08-22T16:57:34.000Z</time>
                <name>Trackpoint 8618</name>
            </trkpt>
            <trkpt lat="50.0216832" lon="10.4650296">
                <ele>215.0</ele>
                <time>2020-08-22T16:57:36.000Z</time>
                <name>Trackpoint 8619</name>
            </trkpt>
            <trkpt lat="50.0216256" lon="10.4649016">
                <ele>215.0</ele>
                <time>2020-08-22T16:57:38.000Z</time>
                <name>Trackpoint 8620</name>
            </trkpt>
            <trkpt lat="50.0215712" lon="10.4647816">
                <ele>215.0</ele>
                <time>2020-08-22T16:57:40.000Z</time>
                <name>Trackpoint 8621</name>
            </trkpt>
            <trkpt lat="50.0215136" lon="10.46466">
                <ele>215.0</ele>
                <time>2020-08-22T16:57:42.000Z</time>
                <name>Trackpoint 8622</name>
            </trkpt>
            <trkpt lat="50.0214624" lon="10.4645392">
                <ele>215.0</ele>
                <time>2020-08-22T16:57:44.000Z</time>
                <name>Trackpoint 8623</name>
            </trkpt>
            <trkpt lat="50.021408" lon="10.46442">
                <ele>215.0</ele>
                <time>2020-08-22T16:57:46.000Z</time>
                <name>Trackpoint 8624</name>
            </trkpt>
            <trkpt lat="50.0213504" lon="10.4643">
                <ele>215.0</ele>
                <time>2020-08-22T16:57:48.000Z</time>
                <name>Trackpoint 8625</name>
            </trkpt>
            <trkpt lat="50.0212928" lon="10.4641768">
                <ele>215.0</ele>
                <time>2020-08-22T16:57:50.000Z</time>
                <name>Trackpoint 8626</name>
            </trkpt>
            <trkpt lat="50.0212352" lon="10.4640568">
                <ele>215.0</ele>
                <time>2020-08-22T16:57:52.000Z</time>
                <name>Trackpoint 8627</name>
            </trkpt>
            <trkpt lat="50.0211872" lon="10.4639352">
                <ele>215.0</ele>
                <time>2020-08-22T16:57:54.000Z</time>
                <name>Trackpoint 8628</name>
            </trkpt>
            <trkpt lat="50.0211296" lon="10.4638144">
                <ele>215.0</ele>
                <time>2020-08-22T16:57:56.000Z</time>
                <name>Trackpoint 8629</name>
            </trkpt>
            <trkpt lat="50.0210752" lon="10.463692">
                <ele>215.0</ele>
                <time>2020-08-22T16:57:58.000Z</time>
                <name>Trackpoint 8630</name>
            </trkpt>
            <trkpt lat="50.0210272" lon="10.4635664">
                <ele>215.0</ele>
                <time>2020-08-22T16:58:00.000Z</time>
                <name>Trackpoint 8631</name>
            </trkpt>
            <trkpt lat="50.0209728" lon="10.463444">
                <ele>216.0</ele>
                <time>2020-08-22T16:58:02.000Z</time>
                <name>Trackpoint 8632</name>
            </trkpt>
            <trkpt lat="50.0209184" lon="10.4633232">
                <ele>216.0</ele>
                <time>2020-08-22T16:58:04.000Z</time>
                <name>Trackpoint 8633</name>
            </trkpt>
            <trkpt lat="50.0208704" lon="10.4632016">
                <ele>216.0</ele>
                <time>2020-08-22T16:58:06.000Z</time>
                <name>Trackpoint 8634</name>
            </trkpt>
            <trkpt lat="50.020816" lon="10.4630816">
                <ele>216.0</ele>
                <time>2020-08-22T16:58:08.000Z</time>
                <name>Trackpoint 8635</name>
            </trkpt>
            <trkpt lat="50.020768" lon="10.46296">
                <ele>216.0</ele>
                <time>2020-08-22T16:58:10.000Z</time>
                <name>Trackpoint 8636</name>
            </trkpt>
            <trkpt lat="50.0207136" lon="10.4628384">
                <ele>216.0</ele>
                <time>2020-08-22T16:58:12.000Z</time>
                <name>Trackpoint 8637</name>
            </trkpt>
            <trkpt lat="50.0206656" lon="10.4627168">
                <ele>216.0</ele>
                <time>2020-08-22T16:58:14.000Z</time>
                <name>Trackpoint 8638</name>
            </trkpt>
            <trkpt lat="50.0206144" lon="10.4625928">
                <ele>215.0</ele>
                <time>2020-08-22T16:58:16.000Z</time>
                <name>Trackpoint 8639</name>
            </trkpt>
            <trkpt lat="50.0205664" lon="10.4624704">
                <ele>216.0</ele>
                <time>2020-08-22T16:58:18.000Z</time>
                <name>Trackpoint 8640</name>
            </trkpt>
            <trkpt lat="50.0205152" lon="10.4623472">
                <ele>216.0</ele>
                <time>2020-08-22T16:58:20.000Z</time>
                <name>Trackpoint 8641</name>
            </trkpt>
            <trkpt lat="50.0204704" lon="10.4622224">
                <ele>216.0</ele>
                <time>2020-08-22T16:58:22.000Z</time>
                <name>Trackpoint 8642</name>
            </trkpt>
            <trkpt lat="50.0204224" lon="10.4620936">
                <ele>216.0</ele>
                <time>2020-08-22T16:58:24.000Z</time>
                <name>Trackpoint 8643</name>
            </trkpt>
            <trkpt lat="50.0203776" lon="10.4619648">
                <ele>216.0</ele>
                <time>2020-08-22T16:58:26.000Z</time>
                <name>Trackpoint 8644</name>
            </trkpt>
            <trkpt lat="50.0203392" lon="10.4618328">
                <ele>216.0</ele>
                <time>2020-08-22T16:58:28.000Z</time>
                <name>Trackpoint 8645</name>
            </trkpt>
            <trkpt lat="50.0202944" lon="10.4617072">
                <ele>216.0</ele>
                <time>2020-08-22T16:58:30.000Z</time>
                <name>Trackpoint 8646</name>
            </trkpt>
            <trkpt lat="50.0202528" lon="10.4615816">
                <ele>217.0</ele>
                <time>2020-08-22T16:58:32.000Z</time>
                <name>Trackpoint 8647</name>
            </trkpt>
            <trkpt lat="50.0201984" lon="10.461456">
                <ele>216.0</ele>
                <time>2020-08-22T16:58:34.000Z</time>
                <name>Trackpoint 8648</name>
            </trkpt>
            <trkpt lat="50.0201568" lon="10.46134">
                <ele>217.0</ele>
                <time>2020-08-22T16:58:36.000Z</time>
                <name>Trackpoint 8649</name>
            </trkpt>
            <trkpt lat="50.0201088" lon="10.4612128">
                <ele>217.0</ele>
                <time>2020-08-22T16:58:38.000Z</time>
                <name>Trackpoint 8650</name>
            </trkpt>
            <trkpt lat="50.0200608" lon="10.4610816">
                <ele>217.0</ele>
                <time>2020-08-22T16:58:40.000Z</time>
                <name>Trackpoint 8651</name>
            </trkpt>
            <trkpt lat="50.0200128" lon="10.4609496">
                <ele>216.0</ele>
                <time>2020-08-22T16:58:42.000Z</time>
                <name>Trackpoint 8652</name>
            </trkpt>
            <trkpt lat="50.0199648" lon="10.4608224">
                <ele>216.0</ele>
                <time>2020-08-22T16:58:44.000Z</time>
                <name>Trackpoint 8653</name>
            </trkpt>
            <trkpt lat="50.0199168" lon="10.4607">
                <ele>216.0</ele>
                <time>2020-08-22T16:58:46.000Z</time>
                <name>Trackpoint 8654</name>
            </trkpt>
            <trkpt lat="50.0198656" lon="10.4605712">
                <ele>216.0</ele>
                <time>2020-08-22T16:58:48.000Z</time>
                <name>Trackpoint 8655</name>
            </trkpt>
            <trkpt lat="50.0198208" lon="10.4604456">
                <ele>216.0</ele>
                <time>2020-08-22T16:58:50.000Z</time>
                <name>Trackpoint 8656</name>
            </trkpt>
            <trkpt lat="50.0197728" lon="10.4603264">
                <ele>216.0</ele>
                <time>2020-08-22T16:58:52.000Z</time>
                <name>Trackpoint 8657</name>
            </trkpt>
            <trkpt lat="50.0197344" lon="10.460212">
                <ele>216.0</ele>
                <time>2020-08-22T16:58:54.000Z</time>
                <name>Trackpoint 8658</name>
            </trkpt>
            <trkpt lat="50.0196928" lon="10.4600936">
                <ele>216.0</ele>
                <time>2020-08-22T16:58:56.000Z</time>
                <name>Trackpoint 8659</name>
            </trkpt>
            <trkpt lat="50.0196544" lon="10.4599848">
                <ele>216.0</ele>
                <time>2020-08-22T16:58:58.000Z</time>
                <name>Trackpoint 8660</name>
            </trkpt>
            <trkpt lat="50.019616" lon="10.4598768">
                <ele>216.0</ele>
                <time>2020-08-22T16:59:00.000Z</time>
                <name>Trackpoint 8661</name>
            </trkpt>
            <trkpt lat="50.019536" lon="10.4598048">
                <ele>218.0</ele>
                <time>2020-08-22T16:59:03.000Z</time>
                <name>Trackpoint 8662</name>
            </trkpt>
            <trkpt lat="50.0194432" lon="10.45988">
                <ele>221.0</ele>
                <time>2020-08-22T16:59:07.000Z</time>
                <name>Trackpoint 8663</name>
            </trkpt>
            <trkpt lat="50.01936" lon="10.4599352">
                <ele>220.0</ele>
                <time>2020-08-22T16:59:10.000Z</time>
                <name>Trackpoint 8664</name>
            </trkpt>
            <trkpt lat="50.019264" lon="10.459904">
                <ele>221.0</ele>
                <time>2020-08-22T16:59:13.000Z</time>
                <name>Trackpoint 8665</name>
            </trkpt>
            <trkpt lat="50.0192352" lon="10.4598104">
                <ele>221.0</ele>
                <time>2020-08-22T16:59:15.000Z</time>
                <name>Trackpoint 8666</name>
            </trkpt>
            <trkpt lat="50.0192064" lon="10.4597184">
                <ele>221.0</ele>
                <time>2020-08-22T16:59:17.000Z</time>
                <name>Trackpoint 8667</name>
            </trkpt>
            <trkpt lat="50.0191872" lon="10.4595968">
                <ele>220.0</ele>
                <time>2020-08-22T16:59:19.000Z</time>
                <name>Trackpoint 8668</name>
            </trkpt>
            <trkpt lat="50.0191456" lon="10.4594832">
                <ele>220.0</ele>
                <time>2020-08-22T16:59:21.000Z</time>
                <name>Trackpoint 8669</name>
            </trkpt>
            <trkpt lat="50.0191168" lon="10.4593552">
                <ele>221.0</ele>
                <time>2020-08-22T16:59:23.000Z</time>
                <name>Trackpoint 8670</name>
            </trkpt>
            <trkpt lat="50.0190656" lon="10.4592312">
                <ele>221.0</ele>
                <time>2020-08-22T16:59:25.000Z</time>
                <name>Trackpoint 8671</name>
            </trkpt>
            <trkpt lat="50.0190112" lon="10.4590904">
                <ele>221.0</ele>
                <time>2020-08-22T16:59:27.000Z</time>
                <name>Trackpoint 8672</name>
            </trkpt>
            <trkpt lat="50.0189696" lon="10.4589704">
                <ele>221.0</ele>
                <time>2020-08-22T16:59:29.000Z</time>
                <name>Trackpoint 8673</name>
            </trkpt>
            <trkpt lat="50.018928" lon="10.4588144">
                <ele>220.0</ele>
                <time>2020-08-22T16:59:31.000Z</time>
                <name>Trackpoint 8674</name>
            </trkpt>
            <trkpt lat="50.0188928" lon="10.4586848">
                <ele>220.0</ele>
                <time>2020-08-22T16:59:33.000Z</time>
                <name>Trackpoint 8675</name>
            </trkpt>
            <trkpt lat="50.0188512" lon="10.458544">
                <ele>220.0</ele>
                <time>2020-08-22T16:59:35.000Z</time>
                <name>Trackpoint 8676</name>
            </trkpt>
            <trkpt lat="50.0188064" lon="10.4584128">
                <ele>220.0</ele>
                <time>2020-08-22T16:59:37.000Z</time>
                <name>Trackpoint 8677</name>
            </trkpt>
            <trkpt lat="50.0187872" lon="10.4582856">
                <ele>220.0</ele>
                <time>2020-08-22T16:59:39.000Z</time>
                <name>Trackpoint 8678</name>
            </trkpt>
            <trkpt lat="50.0187488" lon="10.4581336">
                <ele>221.0</ele>
                <time>2020-08-22T16:59:41.000Z</time>
                <name>Trackpoint 8679</name>
            </trkpt>
            <trkpt lat="50.01872" lon="10.4579848">
                <ele>220.0</ele>
                <time>2020-08-22T16:59:43.000Z</time>
                <name>Trackpoint 8680</name>
            </trkpt>
            <trkpt lat="50.0186816" lon="10.4578616">
                <ele>220.0</ele>
                <time>2020-08-22T16:59:45.000Z</time>
                <name>Trackpoint 8681</name>
            </trkpt>
            <trkpt lat="50.0186336" lon="10.4577304">
                <ele>220.0</ele>
                <time>2020-08-22T16:59:47.000Z</time>
                <name>Trackpoint 8682</name>
            </trkpt>
            <trkpt lat="50.0185856" lon="10.4575952">
                <ele>219.0</ele>
                <time>2020-08-22T16:59:49.000Z</time>
                <name>Trackpoint 8683</name>
            </trkpt>
            <trkpt lat="50.018544" lon="10.4574608">
                <ele>219.0</ele>
                <time>2020-08-22T16:59:51.000Z</time>
                <name>Trackpoint 8684</name>
            </trkpt>
            <trkpt lat="50.0185216" lon="10.4573072">
                <ele>219.0</ele>
                <time>2020-08-22T16:59:53.000Z</time>
                <name>Trackpoint 8685</name>
            </trkpt>
            <trkpt lat="50.0185088" lon="10.4571568">
                <ele>219.0</ele>
                <time>2020-08-22T16:59:55.000Z</time>
                <name>Trackpoint 8686</name>
            </trkpt>
            <trkpt lat="50.0184928" lon="10.4570048">
                <ele>218.0</ele>
                <time>2020-08-22T16:59:57.000Z</time>
                <name>Trackpoint 8687</name>
            </trkpt>
            <trkpt lat="50.0184704" lon="10.4568552">
                <ele>218.0</ele>
                <time>2020-08-22T16:59:59.000Z</time>
                <name>Trackpoint 8688</name>
            </trkpt>
            <trkpt lat="50.0184512" lon="10.4567">
                <ele>217.0</ele>
                <time>2020-08-22T17:00:01.000Z</time>
                <name>Trackpoint 8689</name>
            </trkpt>
            <trkpt lat="50.0184256" lon="10.4565424">
                <ele>218.0</ele>
                <time>2020-08-22T17:00:03.000Z</time>
                <name>Trackpoint 8690</name>
            </trkpt>
            <trkpt lat="50.0183904" lon="10.4563968">
                <ele>217.0</ele>
                <time>2020-08-22T17:00:05.000Z</time>
                <name>Trackpoint 8691</name>
            </trkpt>
            <trkpt lat="50.018352" lon="10.456252">
                <ele>217.0</ele>
                <time>2020-08-22T17:00:07.000Z</time>
                <name>Trackpoint 8692</name>
            </trkpt>
            <trkpt lat="50.0183232" lon="10.456112">
                <ele>217.0</ele>
                <time>2020-08-22T17:00:09.000Z</time>
                <name>Trackpoint 8693</name>
            </trkpt>
            <trkpt lat="50.0182848" lon="10.4559784">
                <ele>217.0</ele>
                <time>2020-08-22T17:00:11.000Z</time>
                <name>Trackpoint 8694</name>
            </trkpt>
            <trkpt lat="50.018256" lon="10.4558424">
                <ele>217.0</ele>
                <time>2020-08-22T17:00:13.000Z</time>
                <name>Trackpoint 8695</name>
            </trkpt>
            <trkpt lat="50.018256" lon="10.4556984">
                <ele>216.0</ele>
                <time>2020-08-22T17:00:15.000Z</time>
                <name>Trackpoint 8696</name>
            </trkpt>
            <trkpt lat="50.0182528" lon="10.455552">
                <ele>216.0</ele>
                <time>2020-08-22T17:00:17.000Z</time>
                <name>Trackpoint 8697</name>
            </trkpt>
            <trkpt lat="50.0182432" lon="10.4554072">
                <ele>216.0</ele>
                <time>2020-08-22T17:00:19.000Z</time>
                <name>Trackpoint 8698</name>
            </trkpt>
            <trkpt lat="50.0182304" lon="10.4552616">
                <ele>216.0</ele>
                <time>2020-08-22T17:00:21.000Z</time>
                <name>Trackpoint 8699</name>
            </trkpt>
            <trkpt lat="50.0182144" lon="10.4551136">
                <ele>216.0</ele>
                <time>2020-08-22T17:00:23.000Z</time>
                <name>Trackpoint 8700</name>
            </trkpt>
            <trkpt lat="50.0181984" lon="10.4549736">
                <ele>217.0</ele>
                <time>2020-08-22T17:00:25.000Z</time>
                <name>Trackpoint 8701</name>
            </trkpt>
            <trkpt lat="50.0181824" lon="10.4548352">
                <ele>217.0</ele>
                <time>2020-08-22T17:00:27.000Z</time>
                <name>Trackpoint 8702</name>
            </trkpt>
            <trkpt lat="50.0181632" lon="10.4546944">
                <ele>217.0</ele>
                <time>2020-08-22T17:00:29.000Z</time>
                <name>Trackpoint 8703</name>
            </trkpt>
            <trkpt lat="50.0181344" lon="10.4545584">
                <ele>217.0</ele>
                <time>2020-08-22T17:00:31.000Z</time>
                <name>Trackpoint 8704</name>
            </trkpt>
            <trkpt lat="50.018112" lon="10.45442">
                <ele>216.0</ele>
                <time>2020-08-22T17:00:33.000Z</time>
                <name>Trackpoint 8705</name>
            </trkpt>
            <trkpt lat="50.0180928" lon="10.4542904">
                <ele>216.0</ele>
                <time>2020-08-22T17:00:35.000Z</time>
                <name>Trackpoint 8706</name>
            </trkpt>
            <trkpt lat="50.0180704" lon="10.4541664">
                <ele>216.0</ele>
                <time>2020-08-22T17:00:37.000Z</time>
                <name>Trackpoint 8707</name>
            </trkpt>
            <trkpt lat="50.0180544" lon="10.4540456">
                <ele>216.0</ele>
                <time>2020-08-22T17:00:39.000Z</time>
                <name>Trackpoint 8708</name>
            </trkpt>
            <trkpt lat="50.0180384" lon="10.453912">
                <ele>216.0</ele>
                <time>2020-08-22T17:00:41.000Z</time>
                <name>Trackpoint 8709</name>
            </trkpt>
            <trkpt lat="50.0180288" lon="10.4537648">
                <ele>215.0</ele>
                <time>2020-08-22T17:00:43.000Z</time>
                <name>Trackpoint 8710</name>
            </trkpt>
            <trkpt lat="50.0180288" lon="10.4536168">
                <ele>215.0</ele>
                <time>2020-08-22T17:00:45.000Z</time>
                <name>Trackpoint 8711</name>
            </trkpt>
            <trkpt lat="50.0180288" lon="10.453472">
                <ele>215.0</ele>
                <time>2020-08-22T17:00:47.000Z</time>
                <name>Trackpoint 8712</name>
            </trkpt>
            <trkpt lat="50.0180288" lon="10.4533328">
                <ele>215.0</ele>
                <time>2020-08-22T17:00:49.000Z</time>
                <name>Trackpoint 8713</name>
            </trkpt>
            <trkpt lat="50.0180064" lon="10.45318">
                <ele>215.0</ele>
                <time>2020-08-22T17:00:51.000Z</time>
                <name>Trackpoint 8714</name>
            </trkpt>
            <trkpt lat="50.017984" lon="10.4530312">
                <ele>215.0</ele>
                <time>2020-08-22T17:00:53.000Z</time>
                <name>Trackpoint 8715</name>
            </trkpt>
            <trkpt lat="50.017952" lon="10.4528912">
                <ele>216.0</ele>
                <time>2020-08-22T17:00:55.000Z</time>
                <name>Trackpoint 8716</name>
            </trkpt>
            <trkpt lat="50.0179264" lon="10.4527552">
                <ele>217.0</ele>
                <time>2020-08-22T17:00:57.000Z</time>
                <name>Trackpoint 8717</name>
            </trkpt>
            <trkpt lat="50.0178944" lon="10.4526168">
                <ele>217.0</ele>
                <time>2020-08-22T17:00:59.000Z</time>
                <name>Trackpoint 8718</name>
            </trkpt>
            <trkpt lat="50.0178688" lon="10.452472">
                <ele>217.0</ele>
                <time>2020-08-22T17:01:01.000Z</time>
                <name>Trackpoint 8719</name>
            </trkpt>
            <trkpt lat="50.0178272" lon="10.4523336">
                <ele>217.0</ele>
                <time>2020-08-22T17:01:03.000Z</time>
                <name>Trackpoint 8720</name>
            </trkpt>
            <trkpt lat="50.017792" lon="10.4521888">
                <ele>217.0</ele>
                <time>2020-08-22T17:01:05.000Z</time>
                <name>Trackpoint 8721</name>
            </trkpt>
            <trkpt lat="50.01776" lon="10.45204">
                <ele>217.0</ele>
                <time>2020-08-22T17:01:07.000Z</time>
                <name>Trackpoint 8722</name>
            </trkpt>
            <trkpt lat="50.0177344" lon="10.451908">
                <ele>217.0</ele>
                <time>2020-08-22T17:01:09.000Z</time>
                <name>Trackpoint 8723</name>
            </trkpt>
            <trkpt lat="50.017712" lon="10.451788">
                <ele>217.0</ele>
                <time>2020-08-22T17:01:11.000Z</time>
                <name>Trackpoint 8724</name>
            </trkpt>
            <trkpt lat="50.01768" lon="10.4516432">
                <ele>217.0</ele>
                <time>2020-08-22T17:01:13.000Z</time>
                <name>Trackpoint 8725</name>
            </trkpt>
            <trkpt lat="50.017648" lon="10.4515048">
                <ele>217.0</ele>
                <time>2020-08-22T17:01:15.000Z</time>
                <name>Trackpoint 8726</name>
            </trkpt>
            <trkpt lat="50.0176128" lon="10.451368">
                <ele>217.0</ele>
                <time>2020-08-22T17:01:17.000Z</time>
                <name>Trackpoint 8727</name>
            </trkpt>
            <trkpt lat="50.0175936" lon="10.4512064">
                <ele>217.0</ele>
                <time>2020-08-22T17:01:19.000Z</time>
                <name>Trackpoint 8728</name>
            </trkpt>
            <trkpt lat="50.0175552" lon="10.451052">
                <ele>217.0</ele>
                <time>2020-08-22T17:01:21.000Z</time>
                <name>Trackpoint 8729</name>
            </trkpt>
            <trkpt lat="50.0175136" lon="10.4509152">
                <ele>217.0</ele>
                <time>2020-08-22T17:01:23.000Z</time>
                <name>Trackpoint 8730</name>
            </trkpt>
            <trkpt lat="50.0174816" lon="10.450764">
                <ele>217.0</ele>
                <time>2020-08-22T17:01:25.000Z</time>
                <name>Trackpoint 8731</name>
            </trkpt>
            <trkpt lat="50.0174496" lon="10.4506304">
                <ele>217.0</ele>
                <time>2020-08-22T17:01:27.000Z</time>
                <name>Trackpoint 8732</name>
            </trkpt>
            <trkpt lat="50.0174208" lon="10.450532">
                <ele>217.0</ele>
                <time>2020-08-22T17:01:28.000Z</time>
                <name>Trackpoint 8733</name>
            </trkpt>
            <trkpt lat="50.0173824" lon="10.4503784">
                <ele>217.0</ele>
                <time>2020-08-22T17:01:30.000Z</time>
                <name>Trackpoint 8734</name>
            </trkpt>
            <trkpt lat="50.0173408" lon="10.4502432">
                <ele>217.0</ele>
                <time>2020-08-22T17:01:32.000Z</time>
                <name>Trackpoint 8735</name>
            </trkpt>
            <trkpt lat="50.0173024" lon="10.4500968">
                <ele>217.0</ele>
                <time>2020-08-22T17:01:34.000Z</time>
                <name>Trackpoint 8736</name>
            </trkpt>
            <trkpt lat="50.0172704" lon="10.4499616">
                <ele>217.0</ele>
                <time>2020-08-22T17:01:36.000Z</time>
                <name>Trackpoint 8737</name>
            </trkpt>
            <trkpt lat="50.0172352" lon="10.4498016">
                <ele>217.0</ele>
                <time>2020-08-22T17:01:38.000Z</time>
                <name>Trackpoint 8738</name>
            </trkpt>
            <trkpt lat="50.0172096" lon="10.4496744">
                <ele>217.0</ele>
                <time>2020-08-22T17:01:40.000Z</time>
                <name>Trackpoint 8739</name>
            </trkpt>
            <trkpt lat="50.0171712" lon="10.44956">
                <ele>217.0</ele>
                <time>2020-08-22T17:01:42.000Z</time>
                <name>Trackpoint 8740</name>
            </trkpt>
            <trkpt lat="50.0171328" lon="10.4494448">
                <ele>217.0</ele>
                <time>2020-08-22T17:01:44.000Z</time>
                <name>Trackpoint 8741</name>
            </trkpt>
            <trkpt lat="50.017104" lon="10.4493064">
                <ele>217.0</ele>
                <time>2020-08-22T17:01:46.000Z</time>
                <name>Trackpoint 8742</name>
            </trkpt>
            <trkpt lat="50.0170752" lon="10.4491584">
                <ele>217.0</ele>
                <time>2020-08-22T17:01:48.000Z</time>
                <name>Trackpoint 8743</name>
            </trkpt>
            <trkpt lat="50.0170528" lon="10.4490248">
                <ele>217.0</ele>
                <time>2020-08-22T17:01:50.000Z</time>
                <name>Trackpoint 8744</name>
            </trkpt>
            <trkpt lat="50.0170304" lon="10.4489096">
                <ele>217.0</ele>
                <time>2020-08-22T17:01:52.000Z</time>
                <name>Trackpoint 8745</name>
            </trkpt>
            <trkpt lat="50.0170144" lon="10.4488184">
                <ele>217.0</ele>
                <time>2020-08-22T17:01:54.000Z</time>
                <name>Trackpoint 8746</name>
            </trkpt>
            <trkpt lat="50.0169792" lon="10.4487288">
                <ele>217.0</ele>
                <time>2020-08-22T17:01:57.000Z</time>
                <name>Trackpoint 8747</name>
            </trkpt>
            <trkpt lat="50.0169728" lon="10.4486288">
                <ele>217.0</ele>
                <time>2020-08-22T17:02:01.000Z</time>
                <name>Trackpoint 8748</name>
            </trkpt>
            <trkpt lat="50.017072" lon="10.44862">
                <ele>217.0</ele>
                <time>2020-08-22T17:03:09.000Z</time>
                <name>Trackpoint 8749</name>
            </trkpt>
            <trkpt lat="50.0171712" lon="10.4486">
                <ele>217.0</ele>
                <time>2020-08-22T17:03:12.000Z</time>
                <name>Trackpoint 8750</name>
            </trkpt>
            <trkpt lat="50.0172096" lon="10.448704">
                <ele>217.0</ele>
                <time>2020-08-22T17:03:15.000Z</time>
                <name>Trackpoint 8751</name>
            </trkpt>
            <trkpt lat="50.0172544" lon="10.4488288">
                <ele>217.0</ele>
                <time>2020-08-22T17:03:18.000Z</time>
                <name>Trackpoint 8752</name>
            </trkpt>
            <trkpt lat="50.0172896" lon="10.4489368">
                <ele>217.0</ele>
                <time>2020-08-22T17:03:21.000Z</time>
                <name>Trackpoint 8753</name>
            </trkpt>
            <trkpt lat="50.0173696" lon="10.4489848">
                <ele>217.0</ele>
                <time>2020-08-22T17:03:25.000Z</time>
                <name>Trackpoint 8754</name>
            </trkpt>
            <trkpt lat="50.0174368" lon="10.449072">
                <ele>217.0</ele>
                <time>2020-08-22T17:03:30.000Z</time>
                <name>Trackpoint 8755</name>
            </trkpt>
            <trkpt lat="50.0175296" lon="10.4490416">
                <ele>217.0</ele>
                <time>2020-08-22T17:04:03.000Z</time>
                <name>Trackpoint 8756</name>
            </trkpt>
            <trkpt lat="50.0175232" lon="10.4489168">
                <ele>217.0</ele>
                <time>2020-08-22T17:04:06.000Z</time>
                <name>Trackpoint 8757</name>
            </trkpt>
            <trkpt lat="50.0175584" lon="10.4488136">
                <ele>217.0</ele>
                <time>2020-08-22T17:04:09.000Z</time>
                <name>Trackpoint 8758</name>
            </trkpt>
            <trkpt lat="50.0176096" lon="10.448724">
                <ele>217.0</ele>
                <time>2020-08-22T17:04:12.000Z</time>
                <name>Trackpoint 8759</name>
            </trkpt>
            <trkpt lat="50.0176736" lon="10.448644">
                <ele>217.0</ele>
                <time>2020-08-22T17:04:15.000Z</time>
                <name>Trackpoint 8760</name>
            </trkpt>
            <trkpt lat="50.0177312" lon="10.4485648">
                <ele>217.0</ele>
                <time>2020-08-22T17:04:18.000Z</time>
                <name>Trackpoint 8761</name>
            </trkpt>
            <trkpt lat="50.017792" lon="10.4484816">
                <ele>217.0</ele>
                <time>2020-08-22T17:04:21.000Z</time>
                <name>Trackpoint 8762</name>
            </trkpt>
            <trkpt lat="50.017856" lon="10.4483944">
                <ele>218.0</ele>
                <time>2020-08-22T17:04:24.000Z</time>
                <name>Trackpoint 8763</name>
            </trkpt>
            <trkpt lat="50.0179168" lon="10.4482936">
                <ele>218.0</ele>
                <time>2020-08-22T17:04:27.000Z</time>
                <name>Trackpoint 8764</name>
            </trkpt>
            <trkpt lat="50.0179968" lon="10.44822">
                <ele>217.0</ele>
                <time>2020-08-22T17:04:30.000Z</time>
                <name>Trackpoint 8765</name>
            </trkpt>
            <trkpt lat="50.0180832" lon="10.4481536">
                <ele>217.0</ele>
                <time>2020-08-22T17:04:33.000Z</time>
                <name>Trackpoint 8766</name>
            </trkpt>
            <trkpt lat="50.0181472" lon="10.4480432">
                <ele>217.0</ele>
                <time>2020-08-22T17:04:36.000Z</time>
                <name>Trackpoint 8767</name>
            </trkpt>
            <trkpt lat="50.018176" lon="10.4479552">
                <ele>218.0</ele>
                <time>2020-08-22T17:04:38.000Z</time>
                <name>Trackpoint 8768</name>
            </trkpt>
            <trkpt lat="50.0182144" lon="10.447868">
                <ele>218.0</ele>
                <time>2020-08-22T17:04:40.000Z</time>
                <name>Trackpoint 8769</name>
            </trkpt>
            <trkpt lat="50.0182656" lon="10.4477864">
                <ele>218.0</ele>
                <time>2020-08-22T17:04:43.000Z</time>
                <name>Trackpoint 8770</name>
            </trkpt>
            <trkpt lat="50.0183168" lon="10.447672">
                <ele>218.0</ele>
                <time>2020-08-22T17:04:46.000Z</time>
                <name>Trackpoint 8771</name>
            </trkpt>
            <trkpt lat="50.018368" lon="10.447588">
                <ele>218.0</ele>
                <time>2020-08-22T17:04:49.000Z</time>
                <name>Trackpoint 8772</name>
            </trkpt>
            <trkpt lat="50.0184512" lon="10.4475144">
                <ele>218.0</ele>
                <time>2020-08-22T17:04:53.000Z</time>
                <name>Trackpoint 8773</name>
            </trkpt>
            <trkpt lat="50.018496" lon="10.4474288">
                <ele>218.0</ele>
                <time>2020-08-22T17:04:55.000Z</time>
                <name>Trackpoint 8774</name>
            </trkpt>
            <trkpt lat="50.0185632" lon="10.4473448">
                <ele>218.0</ele>
                <time>2020-08-22T17:04:58.000Z</time>
                <name>Trackpoint 8775</name>
            </trkpt>
            <trkpt lat="50.0186272" lon="10.44726">
                <ele>218.0</ele>
                <time>2020-08-22T17:05:01.000Z</time>
                <name>Trackpoint 8776</name>
            </trkpt>
            <trkpt lat="50.018704" lon="10.4471976">
                <ele>219.0</ele>
                <time>2020-08-22T17:05:04.000Z</time>
                <name>Trackpoint 8777</name>
            </trkpt>
            <trkpt lat="50.0188128" lon="10.447188">
                <ele>219.0</ele>
                <time>2020-08-22T17:05:08.000Z</time>
                <name>Trackpoint 8778</name>
            </trkpt>
            <trkpt lat="50.0188512" lon="10.4471064">
                <ele>220.0</ele>
                <time>2020-08-22T17:05:11.000Z</time>
                <name>Trackpoint 8779</name>
            </trkpt>
            <trkpt lat="50.0188832" lon="10.4469984">
                <ele>220.0</ele>
                <time>2020-08-22T17:05:13.000Z</time>
                <name>Trackpoint 8780</name>
            </trkpt>
            <trkpt lat="50.018848" lon="10.4468744">
                <ele>220.0</ele>
                <time>2020-08-22T17:05:16.000Z</time>
                <name>Trackpoint 8781</name>
            </trkpt>
            <trkpt lat="50.0188224" lon="10.4467552">
                <ele>220.0</ele>
                <time>2020-08-22T17:05:19.000Z</time>
                <name>Trackpoint 8782</name>
            </trkpt>
            <trkpt lat="50.0188" lon="10.4466616">
                <ele>220.0</ele>
                <time>2020-08-22T17:05:21.000Z</time>
                <name>Trackpoint 8783</name>
            </trkpt>
            <trkpt lat="50.0187808" lon="10.4465736">
                <ele>221.0</ele>
                <time>2020-08-22T17:05:23.000Z</time>
                <name>Trackpoint 8784</name>
            </trkpt>
            <trkpt lat="50.0187616" lon="10.4464816">
                <ele>221.0</ele>
                <time>2020-08-22T17:05:25.000Z</time>
                <name>Trackpoint 8785</name>
            </trkpt>
            <trkpt lat="50.0187584" lon="10.4463568">
                <ele>221.0</ele>
                <time>2020-08-22T17:05:27.000Z</time>
                <name>Trackpoint 8786</name>
            </trkpt>
            <trkpt lat="50.0187264" lon="10.4462544">
                <ele>221.0</ele>
                <time>2020-08-22T17:05:29.000Z</time>
                <name>Trackpoint 8787</name>
            </trkpt>
            <trkpt lat="50.0187104" lon="10.4461472">
                <ele>221.0</ele>
                <time>2020-08-22T17:05:31.000Z</time>
                <name>Trackpoint 8788</name>
            </trkpt>
            <trkpt lat="50.0186944" lon="10.4460288">
                <ele>221.0</ele>
                <time>2020-08-22T17:05:33.000Z</time>
                <name>Trackpoint 8789</name>
            </trkpt>
            <trkpt lat="50.0186592" lon="10.4459088">
                <ele>221.0</ele>
                <time>2020-08-22T17:05:35.000Z</time>
                <name>Trackpoint 8790</name>
            </trkpt>
            <trkpt lat="50.0186208" lon="10.445788">
                <ele>222.0</ele>
                <time>2020-08-22T17:05:37.000Z</time>
                <name>Trackpoint 8791</name>
            </trkpt>
            <trkpt lat="50.0186016" lon="10.4456264">
                <ele>222.0</ele>
                <time>2020-08-22T17:05:39.000Z</time>
                <name>Trackpoint 8792</name>
            </trkpt>
            <trkpt lat="50.018576" lon="10.445508">
                <ele>222.0</ele>
                <time>2020-08-22T17:05:41.000Z</time>
                <name>Trackpoint 8793</name>
            </trkpt>
            <trkpt lat="50.0185504" lon="10.4453936">
                <ele>222.0</ele>
                <time>2020-08-22T17:05:43.000Z</time>
                <name>Trackpoint 8794</name>
            </trkpt>
            <trkpt lat="50.0185312" lon="10.4452712">
                <ele>222.0</ele>
                <time>2020-08-22T17:05:45.000Z</time>
                <name>Trackpoint 8795</name>
            </trkpt>
            <trkpt lat="50.0185216" lon="10.4451416">
                <ele>223.0</ele>
                <time>2020-08-22T17:05:47.000Z</time>
                <name>Trackpoint 8796</name>
            </trkpt>
            <trkpt lat="50.0185056" lon="10.4450128">
                <ele>223.0</ele>
                <time>2020-08-22T17:05:49.000Z</time>
                <name>Trackpoint 8797</name>
            </trkpt>
            <trkpt lat="50.0184672" lon="10.4448944">
                <ele>223.0</ele>
                <time>2020-08-22T17:05:51.000Z</time>
                <name>Trackpoint 8798</name>
            </trkpt>
            <trkpt lat="50.0184512" lon="10.444732">
                <ele>223.0</ele>
                <time>2020-08-22T17:05:53.000Z</time>
                <name>Trackpoint 8799</name>
            </trkpt>
            <trkpt lat="50.0184256" lon="10.4445952">
                <ele>223.0</ele>
                <time>2020-08-22T17:05:55.000Z</time>
                <name>Trackpoint 8800</name>
            </trkpt>
            <trkpt lat="50.0183968" lon="10.4444768">
                <ele>223.0</ele>
                <time>2020-08-22T17:05:57.000Z</time>
                <name>Trackpoint 8801</name>
            </trkpt>
            <trkpt lat="50.0183712" lon="10.444348">
                <ele>224.0</ele>
                <time>2020-08-22T17:05:59.000Z</time>
                <name>Trackpoint 8802</name>
            </trkpt>
            <trkpt lat="50.0183616" lon="10.444212">
                <ele>224.0</ele>
                <time>2020-08-22T17:06:01.000Z</time>
                <name>Trackpoint 8803</name>
            </trkpt>
            <trkpt lat="50.0183488" lon="10.4441048">
                <ele>224.0</ele>
                <time>2020-08-22T17:06:03.000Z</time>
                <name>Trackpoint 8804</name>
            </trkpt>
            <trkpt lat="50.0183328" lon="10.4439896">
                <ele>224.0</ele>
                <time>2020-08-22T17:06:05.000Z</time>
                <name>Trackpoint 8805</name>
            </trkpt>
            <trkpt lat="50.0183264" lon="10.4438232">
                <ele>224.0</ele>
                <time>2020-08-22T17:06:07.000Z</time>
                <name>Trackpoint 8806</name>
            </trkpt>
            <trkpt lat="50.0183104" lon="10.4436768">
                <ele>224.0</ele>
                <time>2020-08-22T17:06:09.000Z</time>
                <name>Trackpoint 8807</name>
            </trkpt>
            <trkpt lat="50.018304" lon="10.443508">
                <ele>224.0</ele>
                <time>2020-08-22T17:06:11.000Z</time>
                <name>Trackpoint 8808</name>
            </trkpt>
            <trkpt lat="50.0183104" lon="10.4433648">
                <ele>224.0</ele>
                <time>2020-08-22T17:06:13.000Z</time>
                <name>Trackpoint 8809</name>
            </trkpt>
            <trkpt lat="50.0183136" lon="10.4431864">
                <ele>225.0</ele>
                <time>2020-08-22T17:06:15.000Z</time>
                <name>Trackpoint 8810</name>
            </trkpt>
            <trkpt lat="50.0183168" lon="10.4430952">
                <ele>225.0</ele>
                <time>2020-08-22T17:06:16.000Z</time>
                <name>Trackpoint 8811</name>
            </trkpt>
            <trkpt lat="50.0183296" lon="10.443004">
                <ele>225.0</ele>
                <time>2020-08-22T17:06:17.000Z</time>
                <name>Trackpoint 8812</name>
            </trkpt>
            <trkpt lat="50.0183328" lon="10.4428816">
                <ele>225.0</ele>
                <time>2020-08-22T17:06:19.000Z</time>
                <name>Trackpoint 8813</name>
            </trkpt>
            <trkpt lat="50.0183296" lon="10.4427416">
                <ele>226.0</ele>
                <time>2020-08-22T17:06:21.000Z</time>
                <name>Trackpoint 8814</name>
            </trkpt>
            <trkpt lat="50.0183232" lon="10.4426096">
                <ele>226.0</ele>
                <time>2020-08-22T17:06:23.000Z</time>
                <name>Trackpoint 8815</name>
            </trkpt>
            <trkpt lat="50.0183104" lon="10.4424552">
                <ele>226.0</ele>
                <time>2020-08-22T17:06:25.000Z</time>
                <name>Trackpoint 8816</name>
            </trkpt>
            <trkpt lat="50.0183104" lon="10.442288">
                <ele>226.0</ele>
                <time>2020-08-22T17:06:27.000Z</time>
                <name>Trackpoint 8817</name>
            </trkpt>
            <trkpt lat="50.0183136" lon="10.4421304">
                <ele>227.0</ele>
                <time>2020-08-22T17:06:29.000Z</time>
                <name>Trackpoint 8818</name>
            </trkpt>
            <trkpt lat="50.0182944" lon="10.441988">
                <ele>226.0</ele>
                <time>2020-08-22T17:06:31.000Z</time>
                <name>Trackpoint 8819</name>
            </trkpt>
            <trkpt lat="50.018288" lon="10.441872">
                <ele>226.0</ele>
                <time>2020-08-22T17:06:33.000Z</time>
                <name>Trackpoint 8820</name>
            </trkpt>
            <trkpt lat="50.0182912" lon="10.4417464">
                <ele>226.0</ele>
                <time>2020-08-22T17:06:35.000Z</time>
                <name>Trackpoint 8821</name>
            </trkpt>
            <trkpt lat="50.0182912" lon="10.4415912">
                <ele>226.0</ele>
                <time>2020-08-22T17:06:37.000Z</time>
                <name>Trackpoint 8822</name>
            </trkpt>
            <trkpt lat="50.0182816" lon="10.4414552">
                <ele>226.0</ele>
                <time>2020-08-22T17:06:39.000Z</time>
                <name>Trackpoint 8823</name>
            </trkpt>
            <trkpt lat="50.0182656" lon="10.4412984">
                <ele>226.0</ele>
                <time>2020-08-22T17:06:41.000Z</time>
                <name>Trackpoint 8824</name>
            </trkpt>
            <trkpt lat="50.0182496" lon="10.4411384">
                <ele>226.0</ele>
                <time>2020-08-22T17:06:43.000Z</time>
                <name>Trackpoint 8825</name>
            </trkpt>
            <trkpt lat="50.0182432" lon="10.4409784">
                <ele>226.0</ele>
                <time>2020-08-22T17:06:45.000Z</time>
                <name>Trackpoint 8826</name>
            </trkpt>
            <trkpt lat="50.018224" lon="10.4408528">
                <ele>226.0</ele>
                <time>2020-08-22T17:06:47.000Z</time>
                <name>Trackpoint 8827</name>
            </trkpt>
            <trkpt lat="50.0181984" lon="10.4407304">
                <ele>226.0</ele>
                <time>2020-08-22T17:06:49.000Z</time>
                <name>Trackpoint 8828</name>
            </trkpt>
            <trkpt lat="50.0181856" lon="10.4406208">
                <ele>226.0</ele>
                <time>2020-08-22T17:06:51.000Z</time>
                <name>Trackpoint 8829</name>
            </trkpt>
            <trkpt lat="50.0181664" lon="10.4405216">
                <ele>227.0</ele>
                <time>2020-08-22T17:06:53.000Z</time>
                <name>Trackpoint 8830</name>
            </trkpt>
            <trkpt lat="50.0181504" lon="10.4404296">
                <ele>227.0</ele>
                <time>2020-08-22T17:06:55.000Z</time>
                <name>Trackpoint 8831</name>
            </trkpt>
            <trkpt lat="50.0181312" lon="10.4403216">
                <ele>228.0</ele>
                <time>2020-08-22T17:06:58.000Z</time>
                <name>Trackpoint 8832</name>
            </trkpt>
            <trkpt lat="50.0181184" lon="10.4403096">
                <ele>227.0</ele>
                <time>2020-08-22T17:07:48.000Z</time>
                <name>Trackpoint 8833</name>
            </trkpt>
            <trkpt lat="50.0181088" lon="10.4402176">
                <ele>227.0</ele>
                <time>2020-08-22T17:07:52.000Z</time>
                <name>Trackpoint 8834</name>
            </trkpt>
            <trkpt lat="50.0180864" lon="10.4400784">
                <ele>227.0</ele>
                <time>2020-08-22T17:07:55.000Z</time>
                <name>Trackpoint 8835</name>
            </trkpt>
            <trkpt lat="50.0180672" lon="10.4399664">
                <ele>227.0</ele>
                <time>2020-08-22T17:07:57.000Z</time>
                <name>Trackpoint 8836</name>
            </trkpt>
            <trkpt lat="50.0180448" lon="10.4398416">
                <ele>227.0</ele>
                <time>2020-08-22T17:07:59.000Z</time>
                <name>Trackpoint 8837</name>
            </trkpt>
            <trkpt lat="50.018016" lon="10.4397024">
                <ele>227.0</ele>
                <time>2020-08-22T17:08:01.000Z</time>
                <name>Trackpoint 8838</name>
            </trkpt>
            <trkpt lat="50.0179936" lon="10.4395552">
                <ele>227.0</ele>
                <time>2020-08-22T17:08:03.000Z</time>
                <name>Trackpoint 8839</name>
            </trkpt>
            <trkpt lat="50.017968" lon="10.4394064">
                <ele>227.0</ele>
                <time>2020-08-22T17:08:05.000Z</time>
                <name>Trackpoint 8840</name>
            </trkpt>
            <trkpt lat="50.0179456" lon="10.4392616">
                <ele>227.0</ele>
                <time>2020-08-22T17:08:07.000Z</time>
                <name>Trackpoint 8841</name>
            </trkpt>
            <trkpt lat="50.0179136" lon="10.439108">
                <ele>227.0</ele>
                <time>2020-08-22T17:08:09.000Z</time>
                <name>Trackpoint 8842</name>
            </trkpt>
            <trkpt lat="50.0178848" lon="10.438956">
                <ele>227.0</ele>
                <time>2020-08-22T17:08:11.000Z</time>
                <name>Trackpoint 8843</name>
            </trkpt>
            <trkpt lat="50.0178528" lon="10.4388152">
                <ele>228.0</ele>
                <time>2020-08-22T17:08:13.000Z</time>
                <name>Trackpoint 8844</name>
            </trkpt>
            <trkpt lat="50.0178304" lon="10.4386768">
                <ele>228.0</ele>
                <time>2020-08-22T17:08:15.000Z</time>
                <name>Trackpoint 8845</name>
            </trkpt>
            <trkpt lat="50.0178016" lon="10.4385408">
                <ele>227.0</ele>
                <time>2020-08-22T17:08:17.000Z</time>
                <name>Trackpoint 8846</name>
            </trkpt>
            <trkpt lat="50.0177728" lon="10.4384032">
                <ele>228.0</ele>
                <time>2020-08-22T17:08:19.000Z</time>
                <name>Trackpoint 8847</name>
            </trkpt>
            <trkpt lat="50.0177472" lon="10.4382552">
                <ele>228.0</ele>
                <time>2020-08-22T17:08:21.000Z</time>
                <name>Trackpoint 8848</name>
            </trkpt>
            <trkpt lat="50.0177216" lon="10.4381048">
                <ele>228.0</ele>
                <time>2020-08-22T17:08:23.000Z</time>
                <name>Trackpoint 8849</name>
            </trkpt>
            <trkpt lat="50.0176864" lon="10.4379656">
                <ele>228.0</ele>
                <time>2020-08-22T17:08:25.000Z</time>
                <name>Trackpoint 8850</name>
            </trkpt>
            <trkpt lat="50.0176544" lon="10.4377984">
                <ele>227.0</ele>
                <time>2020-08-22T17:08:27.000Z</time>
                <name>Trackpoint 8851</name>
            </trkpt>
            <trkpt lat="50.0176288" lon="10.43764">
                <ele>228.0</ele>
                <time>2020-08-22T17:08:29.000Z</time>
                <name>Trackpoint 8852</name>
            </trkpt>
            <trkpt lat="50.0176" lon="10.4374864">
                <ele>227.0</ele>
                <time>2020-08-22T17:08:31.000Z</time>
                <name>Trackpoint 8853</name>
            </trkpt>
            <trkpt lat="50.0175712" lon="10.43734">
                <ele>227.0</ele>
                <time>2020-08-22T17:08:33.000Z</time>
                <name>Trackpoint 8854</name>
            </trkpt>
            <trkpt lat="50.0175424" lon="10.4371952">
                <ele>227.0</ele>
                <time>2020-08-22T17:08:35.000Z</time>
                <name>Trackpoint 8855</name>
            </trkpt>
            <trkpt lat="50.0175232" lon="10.4370384">
                <ele>227.0</ele>
                <time>2020-08-22T17:08:37.000Z</time>
                <name>Trackpoint 8856</name>
            </trkpt>
            <trkpt lat="50.0175136" lon="10.43688">
                <ele>227.0</ele>
                <time>2020-08-22T17:08:39.000Z</time>
                <name>Trackpoint 8857</name>
            </trkpt>
            <trkpt lat="50.0175008" lon="10.4367176">
                <ele>227.0</ele>
                <time>2020-08-22T17:08:41.000Z</time>
                <name>Trackpoint 8858</name>
            </trkpt>
            <trkpt lat="50.0174944" lon="10.4365528">
                <ele>226.0</ele>
                <time>2020-08-22T17:08:43.000Z</time>
                <name>Trackpoint 8859</name>
            </trkpt>
            <trkpt lat="50.017488" lon="10.4363936">
                <ele>226.0</ele>
                <time>2020-08-22T17:08:45.000Z</time>
                <name>Trackpoint 8860</name>
            </trkpt>
            <trkpt lat="50.0174752" lon="10.4362424">
                <ele>226.0</ele>
                <time>2020-08-22T17:08:47.000Z</time>
                <name>Trackpoint 8861</name>
            </trkpt>
            <trkpt lat="50.0174624" lon="10.4360904">
                <ele>226.0</ele>
                <time>2020-08-22T17:08:49.000Z</time>
                <name>Trackpoint 8862</name>
            </trkpt>
            <trkpt lat="50.017456" lon="10.4359264">
                <ele>225.0</ele>
                <time>2020-08-22T17:08:51.000Z</time>
                <name>Trackpoint 8863</name>
            </trkpt>
            <trkpt lat="50.0174496" lon="10.4357664">
                <ele>225.0</ele>
                <time>2020-08-22T17:08:53.000Z</time>
                <name>Trackpoint 8864</name>
            </trkpt>
            <trkpt lat="50.0174368" lon="10.4356096">
                <ele>224.0</ele>
                <time>2020-08-22T17:08:55.000Z</time>
                <name>Trackpoint 8865</name>
            </trkpt>
            <trkpt lat="50.0174208" lon="10.435456">
                <ele>225.0</ele>
                <time>2020-08-22T17:08:57.000Z</time>
                <name>Trackpoint 8866</name>
            </trkpt>
            <trkpt lat="50.0174112" lon="10.435304">
                <ele>226.0</ele>
                <time>2020-08-22T17:08:59.000Z</time>
                <name>Trackpoint 8867</name>
            </trkpt>
            <trkpt lat="50.0173952" lon="10.4351528">
                <ele>227.0</ele>
                <time>2020-08-22T17:09:01.000Z</time>
                <name>Trackpoint 8868</name>
            </trkpt>
            <trkpt lat="50.0173824" lon="10.4350016">
                <ele>227.0</ele>
                <time>2020-08-22T17:09:03.000Z</time>
                <name>Trackpoint 8869</name>
            </trkpt>
            <trkpt lat="50.0173696" lon="10.4348488">
                <ele>227.0</ele>
                <time>2020-08-22T17:09:05.000Z</time>
                <name>Trackpoint 8870</name>
            </trkpt>
            <trkpt lat="50.01736" lon="10.4346936">
                <ele>227.0</ele>
                <time>2020-08-22T17:09:07.000Z</time>
                <name>Trackpoint 8871</name>
            </trkpt>
            <trkpt lat="50.017344" lon="10.434548">
                <ele>227.0</ele>
                <time>2020-08-22T17:09:09.000Z</time>
                <name>Trackpoint 8872</name>
            </trkpt>
            <trkpt lat="50.0173312" lon="10.434412">
                <ele>227.0</ele>
                <time>2020-08-22T17:09:11.000Z</time>
                <name>Trackpoint 8873</name>
            </trkpt>
            <trkpt lat="50.0173152" lon="10.4342648">
                <ele>228.0</ele>
                <time>2020-08-22T17:09:13.000Z</time>
                <name>Trackpoint 8874</name>
            </trkpt>
            <trkpt lat="50.0173248" lon="10.4341136">
                <ele>227.0</ele>
                <time>2020-08-22T17:09:15.000Z</time>
                <name>Trackpoint 8875</name>
            </trkpt>
            <trkpt lat="50.0173568" lon="10.4339768">
                <ele>227.0</ele>
                <time>2020-08-22T17:09:17.000Z</time>
                <name>Trackpoint 8876</name>
            </trkpt>
            <trkpt lat="50.0174144" lon="10.4338568">
                <ele>227.0</ele>
                <time>2020-08-22T17:09:19.000Z</time>
                <name>Trackpoint 8877</name>
            </trkpt>
            <trkpt lat="50.0174624" lon="10.4337352">
                <ele>227.0</ele>
                <time>2020-08-22T17:09:21.000Z</time>
                <name>Trackpoint 8878</name>
            </trkpt>
            <trkpt lat="50.0174816" lon="10.4335968">
                <ele>227.0</ele>
                <time>2020-08-22T17:09:23.000Z</time>
                <name>Trackpoint 8879</name>
            </trkpt>
            <trkpt lat="50.017472" lon="10.4334568">
                <ele>227.0</ele>
                <time>2020-08-22T17:09:25.000Z</time>
                <name>Trackpoint 8880</name>
            </trkpt>
            <trkpt lat="50.0174336" lon="10.4333216">
                <ele>228.0</ele>
                <time>2020-08-22T17:09:27.000Z</time>
                <name>Trackpoint 8881</name>
            </trkpt>
            <trkpt lat="50.0173696" lon="10.4332216">
                <ele>228.0</ele>
                <time>2020-08-22T17:09:29.000Z</time>
                <name>Trackpoint 8882</name>
            </trkpt>
            <trkpt lat="50.0173024" lon="10.4331448">
                <ele>228.0</ele>
                <time>2020-08-22T17:09:31.000Z</time>
                <name>Trackpoint 8883</name>
            </trkpt>
            <trkpt lat="50.0172512" lon="10.433032">
                <ele>227.0</ele>
                <time>2020-08-22T17:09:33.000Z</time>
                <name>Trackpoint 8884</name>
            </trkpt>
            <trkpt lat="50.0172224" lon="10.4328808">
                <ele>227.0</ele>
                <time>2020-08-22T17:09:35.000Z</time>
                <name>Trackpoint 8885</name>
            </trkpt>
            <trkpt lat="50.0172096" lon="10.4327072">
                <ele>227.0</ele>
                <time>2020-08-22T17:09:37.000Z</time>
                <name>Trackpoint 8886</name>
            </trkpt>
            <trkpt lat="50.0171968" lon="10.4325312">
                <ele>227.0</ele>
                <time>2020-08-22T17:09:39.000Z</time>
                <name>Trackpoint 8887</name>
            </trkpt>
            <trkpt lat="50.0171808" lon="10.4323584">
                <ele>227.0</ele>
                <time>2020-08-22T17:09:41.000Z</time>
                <name>Trackpoint 8888</name>
            </trkpt>
            <trkpt lat="50.0171712" lon="10.4321848">
                <ele>228.0</ele>
                <time>2020-08-22T17:09:43.000Z</time>
                <name>Trackpoint 8889</name>
            </trkpt>
            <trkpt lat="50.0171552" lon="10.4320184">
                <ele>228.0</ele>
                <time>2020-08-22T17:09:45.000Z</time>
                <name>Trackpoint 8890</name>
            </trkpt>
            <trkpt lat="50.0171424" lon="10.43186">
                <ele>228.0</ele>
                <time>2020-08-22T17:09:47.000Z</time>
                <name>Trackpoint 8891</name>
            </trkpt>
            <trkpt lat="50.0171328" lon="10.4317104">
                <ele>227.0</ele>
                <time>2020-08-22T17:09:49.000Z</time>
                <name>Trackpoint 8892</name>
            </trkpt>
            <trkpt lat="50.0171136" lon="10.431548">
                <ele>227.0</ele>
                <time>2020-08-22T17:09:51.000Z</time>
                <name>Trackpoint 8893</name>
            </trkpt>
            <trkpt lat="50.017104" lon="10.4313832">
                <ele>227.0</ele>
                <time>2020-08-22T17:09:53.000Z</time>
                <name>Trackpoint 8894</name>
            </trkpt>
            <trkpt lat="50.0170944" lon="10.4312216">
                <ele>226.0</ele>
                <time>2020-08-22T17:09:55.000Z</time>
                <name>Trackpoint 8895</name>
            </trkpt>
            <trkpt lat="50.0170656" lon="10.43106">
                <ele>226.0</ele>
                <time>2020-08-22T17:09:57.000Z</time>
                <name>Trackpoint 8896</name>
            </trkpt>
            <trkpt lat="50.0170624" lon="10.4308904">
                <ele>225.0</ele>
                <time>2020-08-22T17:09:59.000Z</time>
                <name>Trackpoint 8897</name>
            </trkpt>
            <trkpt lat="50.0170528" lon="10.4307272">
                <ele>226.0</ele>
                <time>2020-08-22T17:10:01.000Z</time>
                <name>Trackpoint 8898</name>
            </trkpt>
            <trkpt lat="50.0170368" lon="10.4305624">
                <ele>226.0</ele>
                <time>2020-08-22T17:10:03.000Z</time>
                <name>Trackpoint 8899</name>
            </trkpt>
            <trkpt lat="50.0170176" lon="10.430404">
                <ele>225.0</ele>
                <time>2020-08-22T17:10:05.000Z</time>
                <name>Trackpoint 8900</name>
            </trkpt>
            <trkpt lat="50.0170048" lon="10.43024">
                <ele>225.0</ele>
                <time>2020-08-22T17:10:07.000Z</time>
                <name>Trackpoint 8901</name>
            </trkpt>
            <trkpt lat="50.016992" lon="10.4300872">
                <ele>226.0</ele>
                <time>2020-08-22T17:10:09.000Z</time>
                <name>Trackpoint 8902</name>
            </trkpt>
            <trkpt lat="50.0169728" lon="10.4299248">
                <ele>226.0</ele>
                <time>2020-08-22T17:10:11.000Z</time>
                <name>Trackpoint 8903</name>
            </trkpt>
            <trkpt lat="50.0169664" lon="10.4297536">
                <ele>226.0</ele>
                <time>2020-08-22T17:10:13.000Z</time>
                <name>Trackpoint 8904</name>
            </trkpt>
            <trkpt lat="50.01696" lon="10.4295832">
                <ele>226.0</ele>
                <time>2020-08-22T17:10:15.000Z</time>
                <name>Trackpoint 8905</name>
            </trkpt>
            <trkpt lat="50.016944" lon="10.4294208">
                <ele>226.0</ele>
                <time>2020-08-22T17:10:17.000Z</time>
                <name>Trackpoint 8906</name>
            </trkpt>
            <trkpt lat="50.0169408" lon="10.42926">
                <ele>226.0</ele>
                <time>2020-08-22T17:10:19.000Z</time>
                <name>Trackpoint 8907</name>
            </trkpt>
            <trkpt lat="50.0169248" lon="10.4291112">
                <ele>226.0</ele>
                <time>2020-08-22T17:10:21.000Z</time>
                <name>Trackpoint 8908</name>
            </trkpt>
            <trkpt lat="50.0169056" lon="10.42896">
                <ele>226.0</ele>
                <time>2020-08-22T17:10:23.000Z</time>
                <name>Trackpoint 8909</name>
            </trkpt>
            <trkpt lat="50.0168928" lon="10.4288184">
                <ele>226.0</ele>
                <time>2020-08-22T17:10:25.000Z</time>
                <name>Trackpoint 8910</name>
            </trkpt>
            <trkpt lat="50.01688" lon="10.4286896">
                <ele>226.0</ele>
                <time>2020-08-22T17:10:27.000Z</time>
                <name>Trackpoint 8911</name>
            </trkpt>
            <trkpt lat="50.016864" lon="10.428552">
                <ele>226.0</ele>
                <time>2020-08-22T17:10:29.000Z</time>
                <name>Trackpoint 8912</name>
            </trkpt>
            <trkpt lat="50.0168544" lon="10.4284112">
                <ele>226.0</ele>
                <time>2020-08-22T17:10:31.000Z</time>
                <name>Trackpoint 8913</name>
            </trkpt>
            <trkpt lat="50.0168416" lon="10.428284">
                <ele>226.0</ele>
                <time>2020-08-22T17:10:33.000Z</time>
                <name>Trackpoint 8914</name>
            </trkpt>
            <trkpt lat="50.0168384" lon="10.4281432">
                <ele>226.0</ele>
                <time>2020-08-22T17:10:35.000Z</time>
                <name>Trackpoint 8915</name>
            </trkpt>
            <trkpt lat="50.016832" lon="10.428012">
                <ele>226.0</ele>
                <time>2020-08-22T17:10:37.000Z</time>
                <name>Trackpoint 8916</name>
            </trkpt>
            <trkpt lat="50.0168192" lon="10.42788">
                <ele>226.0</ele>
                <time>2020-08-22T17:10:39.000Z</time>
                <name>Trackpoint 8917</name>
            </trkpt>
            <trkpt lat="50.0168064" lon="10.4277496">
                <ele>225.0</ele>
                <time>2020-08-22T17:10:41.000Z</time>
                <name>Trackpoint 8918</name>
            </trkpt>
            <trkpt lat="50.0168" lon="10.4276168">
                <ele>224.0</ele>
                <time>2020-08-22T17:10:43.000Z</time>
                <name>Trackpoint 8919</name>
            </trkpt>
            <trkpt lat="50.0167872" lon="10.4274864">
                <ele>224.0</ele>
                <time>2020-08-22T17:10:45.000Z</time>
                <name>Trackpoint 8920</name>
            </trkpt>
            <trkpt lat="50.0167808" lon="10.4273504">
                <ele>224.0</ele>
                <time>2020-08-22T17:10:47.000Z</time>
                <name>Trackpoint 8921</name>
            </trkpt>
            <trkpt lat="50.0167744" lon="10.4272136">
                <ele>225.0</ele>
                <time>2020-08-22T17:10:49.000Z</time>
                <name>Trackpoint 8922</name>
            </trkpt>
            <trkpt lat="50.0167744" lon="10.4270824">
                <ele>225.0</ele>
                <time>2020-08-22T17:10:51.000Z</time>
                <name>Trackpoint 8923</name>
            </trkpt>
            <trkpt lat="50.0167552" lon="10.4269464">
                <ele>227.0</ele>
                <time>2020-08-22T17:10:53.000Z</time>
                <name>Trackpoint 8924</name>
            </trkpt>
            <trkpt lat="50.0167392" lon="10.4268168">
                <ele>226.0</ele>
                <time>2020-08-22T17:10:55.000Z</time>
                <name>Trackpoint 8925</name>
            </trkpt>
            <trkpt lat="50.0167232" lon="10.426692">
                <ele>226.0</ele>
                <time>2020-08-22T17:10:57.000Z</time>
                <name>Trackpoint 8926</name>
            </trkpt>
            <trkpt lat="50.0167168" lon="10.4265632">
                <ele>226.0</ele>
                <time>2020-08-22T17:10:59.000Z</time>
                <name>Trackpoint 8927</name>
            </trkpt>
            <trkpt lat="50.0167136" lon="10.4264368">
                <ele>226.0</ele>
                <time>2020-08-22T17:11:01.000Z</time>
                <name>Trackpoint 8928</name>
            </trkpt>
            <trkpt lat="50.016704" lon="10.4263088">
                <ele>226.0</ele>
                <time>2020-08-22T17:11:03.000Z</time>
                <name>Trackpoint 8929</name>
            </trkpt>
            <trkpt lat="50.0166944" lon="10.4261776">
                <ele>227.0</ele>
                <time>2020-08-22T17:11:05.000Z</time>
                <name>Trackpoint 8930</name>
            </trkpt>
            <trkpt lat="50.016688" lon="10.4260528">
                <ele>227.0</ele>
                <time>2020-08-22T17:11:07.000Z</time>
                <name>Trackpoint 8931</name>
            </trkpt>
            <trkpt lat="50.0166784" lon="10.425928">
                <ele>228.0</ele>
                <time>2020-08-22T17:11:09.000Z</time>
                <name>Trackpoint 8932</name>
            </trkpt>
            <trkpt lat="50.0166688" lon="10.4258">
                <ele>228.0</ele>
                <time>2020-08-22T17:11:11.000Z</time>
                <name>Trackpoint 8933</name>
            </trkpt>
            <trkpt lat="50.0166656" lon="10.4256696">
                <ele>228.0</ele>
                <time>2020-08-22T17:11:13.000Z</time>
                <name>Trackpoint 8934</name>
            </trkpt>
            <trkpt lat="50.016656" lon="10.4255312">
                <ele>228.0</ele>
                <time>2020-08-22T17:11:15.000Z</time>
                <name>Trackpoint 8935</name>
            </trkpt>
            <trkpt lat="50.0166432" lon="10.4253904">
                <ele>228.0</ele>
                <time>2020-08-22T17:11:17.000Z</time>
                <name>Trackpoint 8936</name>
            </trkpt>
            <trkpt lat="50.0166272" lon="10.4252456">
                <ele>228.0</ele>
                <time>2020-08-22T17:11:19.000Z</time>
                <name>Trackpoint 8937</name>
            </trkpt>
            <trkpt lat="50.016624" lon="10.4250944">
                <ele>227.0</ele>
                <time>2020-08-22T17:11:21.000Z</time>
                <name>Trackpoint 8938</name>
            </trkpt>
            <trkpt lat="50.016608" lon="10.4249496">
                <ele>228.0</ele>
                <time>2020-08-22T17:11:23.000Z</time>
                <name>Trackpoint 8939</name>
            </trkpt>
            <trkpt lat="50.0165984" lon="10.4248064">
                <ele>227.0</ele>
                <time>2020-08-22T17:11:25.000Z</time>
                <name>Trackpoint 8940</name>
            </trkpt>
            <trkpt lat="50.0165888" lon="10.4246632">
                <ele>227.0</ele>
                <time>2020-08-22T17:11:27.000Z</time>
                <name>Trackpoint 8941</name>
            </trkpt>
            <trkpt lat="50.016576" lon="10.4245184">
                <ele>226.0</ele>
                <time>2020-08-22T17:11:29.000Z</time>
                <name>Trackpoint 8942</name>
            </trkpt>
            <trkpt lat="50.0165632" lon="10.424372">
                <ele>225.0</ele>
                <time>2020-08-22T17:11:31.000Z</time>
                <name>Trackpoint 8943</name>
            </trkpt>
            <trkpt lat="50.0165504" lon="10.4242184">
                <ele>225.0</ele>
                <time>2020-08-22T17:11:33.000Z</time>
                <name>Trackpoint 8944</name>
            </trkpt>
            <trkpt lat="50.0165376" lon="10.4240664">
                <ele>225.0</ele>
                <time>2020-08-22T17:11:35.000Z</time>
                <name>Trackpoint 8945</name>
            </trkpt>
            <trkpt lat="50.0165248" lon="10.423908">
                <ele>224.0</ele>
                <time>2020-08-22T17:11:37.000Z</time>
                <name>Trackpoint 8946</name>
            </trkpt>
            <trkpt lat="50.0165152" lon="10.423748">
                <ele>224.0</ele>
                <time>2020-08-22T17:11:39.000Z</time>
                <name>Trackpoint 8947</name>
            </trkpt>
            <trkpt lat="50.0164992" lon="10.4235936">
                <ele>224.0</ele>
                <time>2020-08-22T17:11:41.000Z</time>
                <name>Trackpoint 8948</name>
            </trkpt>
            <trkpt lat="50.0164832" lon="10.4234416">
                <ele>224.0</ele>
                <time>2020-08-22T17:11:43.000Z</time>
                <name>Trackpoint 8949</name>
            </trkpt>
            <trkpt lat="50.0164704" lon="10.4232968">
                <ele>223.0</ele>
                <time>2020-08-22T17:11:45.000Z</time>
                <name>Trackpoint 8950</name>
            </trkpt>
            <trkpt lat="50.0164576" lon="10.4231552">
                <ele>224.0</ele>
                <time>2020-08-22T17:11:47.000Z</time>
                <name>Trackpoint 8951</name>
            </trkpt>
            <trkpt lat="50.0164448" lon="10.4230136">
                <ele>224.0</ele>
                <time>2020-08-22T17:11:49.000Z</time>
                <name>Trackpoint 8952</name>
            </trkpt>
            <trkpt lat="50.0164288" lon="10.4228672">
                <ele>224.0</ele>
                <time>2020-08-22T17:11:51.000Z</time>
                <name>Trackpoint 8953</name>
            </trkpt>
            <trkpt lat="50.016416" lon="10.4227168">
                <ele>224.0</ele>
                <time>2020-08-22T17:11:53.000Z</time>
                <name>Trackpoint 8954</name>
            </trkpt>
            <trkpt lat="50.0164" lon="10.4225632">
                <ele>225.0</ele>
                <time>2020-08-22T17:11:55.000Z</time>
                <name>Trackpoint 8955</name>
            </trkpt>
            <trkpt lat="50.016384" lon="10.422408">
                <ele>224.0</ele>
                <time>2020-08-22T17:11:57.000Z</time>
                <name>Trackpoint 8956</name>
            </trkpt>
            <trkpt lat="50.0163648" lon="10.422248">
                <ele>224.0</ele>
                <time>2020-08-22T17:11:59.000Z</time>
                <name>Trackpoint 8957</name>
            </trkpt>
            <trkpt lat="50.0163552" lon="10.4220848">
                <ele>223.0</ele>
                <time>2020-08-22T17:12:01.000Z</time>
                <name>Trackpoint 8958</name>
            </trkpt>
            <trkpt lat="50.0163424" lon="10.4219264">
                <ele>223.0</ele>
                <time>2020-08-22T17:12:03.000Z</time>
                <name>Trackpoint 8959</name>
            </trkpt>
            <trkpt lat="50.0163264" lon="10.4217568">
                <ele>224.0</ele>
                <time>2020-08-22T17:12:05.000Z</time>
                <name>Trackpoint 8960</name>
            </trkpt>
            <trkpt lat="50.0163072" lon="10.4215896">
                <ele>224.0</ele>
                <time>2020-08-22T17:12:07.000Z</time>
                <name>Trackpoint 8961</name>
            </trkpt>
            <trkpt lat="50.0162976" lon="10.42142">
                <ele>224.0</ele>
                <time>2020-08-22T17:12:09.000Z</time>
                <name>Trackpoint 8962</name>
            </trkpt>
            <trkpt lat="50.016272" lon="10.4212648">
                <ele>224.0</ele>
                <time>2020-08-22T17:12:11.000Z</time>
                <name>Trackpoint 8963</name>
            </trkpt>
            <trkpt lat="50.0162592" lon="10.4211152">
                <ele>224.0</ele>
                <time>2020-08-22T17:12:13.000Z</time>
                <name>Trackpoint 8964</name>
            </trkpt>
            <trkpt lat="50.0162432" lon="10.4209672">
                <ele>224.0</ele>
                <time>2020-08-22T17:12:15.000Z</time>
                <name>Trackpoint 8965</name>
            </trkpt>
            <trkpt lat="50.0162368" lon="10.4208208">
                <ele>224.0</ele>
                <time>2020-08-22T17:12:17.000Z</time>
                <name>Trackpoint 8966</name>
            </trkpt>
            <trkpt lat="50.0162272" lon="10.42068">
                <ele>224.0</ele>
                <time>2020-08-22T17:12:19.000Z</time>
                <name>Trackpoint 8967</name>
            </trkpt>
            <trkpt lat="50.0162304" lon="10.4205504">
                <ele>224.0</ele>
                <time>2020-08-22T17:12:21.000Z</time>
                <name>Trackpoint 8968</name>
            </trkpt>
            <trkpt lat="50.0162592" lon="10.42044">
                <ele>224.0</ele>
                <time>2020-08-22T17:12:23.000Z</time>
                <name>Trackpoint 8969</name>
            </trkpt>
            <trkpt lat="50.016272" lon="10.4203384">
                <ele>224.0</ele>
                <time>2020-08-22T17:12:25.000Z</time>
                <name>Trackpoint 8970</name>
            </trkpt>
            <trkpt lat="50.016208" lon="10.4202584">
                <ele>224.0</ele>
                <time>2020-08-22T17:12:28.000Z</time>
                <name>Trackpoint 8971</name>
            </trkpt>
            <trkpt lat="50.0161376" lon="10.4201672">
                <ele>223.0</ele>
                <time>2020-08-22T17:12:31.000Z</time>
                <name>Trackpoint 8972</name>
            </trkpt>
            <trkpt lat="50.0161024" lon="10.420076">
                <ele>224.0</ele>
                <time>2020-08-22T17:12:33.000Z</time>
                <name>Trackpoint 8973</name>
            </trkpt>
            <trkpt lat="50.0160832" lon="10.4199784">
                <ele>224.0</ele>
                <time>2020-08-22T17:12:35.000Z</time>
                <name>Trackpoint 8974</name>
            </trkpt>
            <trkpt lat="50.016032" lon="10.4198848">
                <ele>224.0</ele>
                <time>2020-08-22T17:12:38.000Z</time>
                <name>Trackpoint 8975</name>
            </trkpt>
            <trkpt lat="50.0159328" lon="10.4199088">
                <ele>224.0</ele>
                <time>2020-08-22T17:12:44.000Z</time>
                <name>Trackpoint 8976</name>
            </trkpt>
            <trkpt lat="50.0158464" lon="10.4199536">
                <ele>223.0</ele>
                <time>2020-08-22T17:12:57.000Z</time>
                <name>Trackpoint 8977</name>
            </trkpt>
            <trkpt lat="50.0157536" lon="10.41996">
                <ele>224.0</ele>
                <time>2020-08-22T17:13:02.000Z</time>
                <name>Trackpoint 8978</name>
            </trkpt>
            <trkpt lat="50.015648" lon="10.4199304">
                <ele>224.0</ele>
                <time>2020-08-22T17:13:06.000Z</time>
                <name>Trackpoint 8979</name>
            </trkpt>
            <trkpt lat="50.0155136" lon="10.41996">
                <ele>223.0</ele>
                <time>2020-08-22T17:13:08.000Z</time>
                <name>Trackpoint 8980</name>
            </trkpt>
            <trkpt lat="50.0154144" lon="10.4199696">
                <ele>223.0</ele>
                <time>2020-08-22T17:13:10.000Z</time>
                <name>Trackpoint 8981</name>
            </trkpt>
            <trkpt lat="50.0152704" lon="10.4199664">
                <ele>223.0</ele>
                <time>2020-08-22T17:13:13.000Z</time>
                <name>Trackpoint 8982</name>
            </trkpt>
            <trkpt lat="50.0151776" lon="10.4199552">
                <ele>223.0</ele>
                <time>2020-08-22T17:13:15.000Z</time>
                <name>Trackpoint 8983</name>
            </trkpt>
            <trkpt lat="50.0150784" lon="10.4199">
                <ele>223.0</ele>
                <time>2020-08-22T17:13:17.000Z</time>
                <name>Trackpoint 8984</name>
            </trkpt>
            <trkpt lat="50.0150368" lon="10.4197528">
                <ele>223.0</ele>
                <time>2020-08-22T17:13:19.000Z</time>
                <name>Trackpoint 8985</name>
            </trkpt>
            <trkpt lat="50.0150336" lon="10.4195984">
                <ele>223.0</ele>
                <time>2020-08-22T17:13:21.000Z</time>
                <name>Trackpoint 8986</name>
            </trkpt>
            <trkpt lat="50.0150272" lon="10.419452">
                <ele>223.0</ele>
                <time>2020-08-22T17:13:23.000Z</time>
                <name>Trackpoint 8987</name>
            </trkpt>
            <trkpt lat="50.0150112" lon="10.4193">
                <ele>223.0</ele>
                <time>2020-08-22T17:13:25.000Z</time>
                <name>Trackpoint 8988</name>
            </trkpt>
            <trkpt lat="50.0149984" lon="10.4191504">
                <ele>223.0</ele>
                <time>2020-08-22T17:13:27.000Z</time>
                <name>Trackpoint 8989</name>
            </trkpt>
            <trkpt lat="50.0149984" lon="10.4189832">
                <ele>223.0</ele>
                <time>2020-08-22T17:13:29.000Z</time>
                <name>Trackpoint 8990</name>
            </trkpt>
            <trkpt lat="50.0149952" lon="10.4188344">
                <ele>223.0</ele>
                <time>2020-08-22T17:13:31.000Z</time>
                <name>Trackpoint 8991</name>
            </trkpt>
            <trkpt lat="50.0149888" lon="10.4186896">
                <ele>223.0</ele>
                <time>2020-08-22T17:13:33.000Z</time>
                <name>Trackpoint 8992</name>
            </trkpt>
            <trkpt lat="50.0149728" lon="10.4185632">
                <ele>223.0</ele>
                <time>2020-08-22T17:13:35.000Z</time>
                <name>Trackpoint 8993</name>
            </trkpt>
            <trkpt lat="50.0149696" lon="10.418444">
                <ele>223.0</ele>
                <time>2020-08-22T17:13:37.000Z</time>
                <name>Trackpoint 8994</name>
            </trkpt>
            <trkpt lat="50.0149664" lon="10.41832">
                <ele>223.0</ele>
                <time>2020-08-22T17:13:39.000Z</time>
                <name>Trackpoint 8995</name>
            </trkpt>
            <trkpt lat="50.0149664" lon="10.418192">
                <ele>222.0</ele>
                <time>2020-08-22T17:13:41.000Z</time>
                <name>Trackpoint 8996</name>
            </trkpt>
            <trkpt lat="50.0149728" lon="10.41806">
                <ele>222.0</ele>
                <time>2020-08-22T17:13:43.000Z</time>
                <name>Trackpoint 8997</name>
            </trkpt>
            <trkpt lat="50.014976" lon="10.4179624">
                <ele>221.0</ele>
                <time>2020-08-22T17:13:45.000Z</time>
                <name>Trackpoint 8998</name>
            </trkpt>
            <trkpt lat="50.014992" lon="10.4178712">
                <ele>221.0</ele>
                <time>2020-08-22T17:13:48.000Z</time>
                <name>Trackpoint 8999</name>
            </trkpt>
            <trkpt lat="50.014992" lon="10.4177688">
                <ele>220.0</ele>
                <time>2020-08-22T17:14:36.000Z</time>
                <name>Trackpoint 9000</name>
            </trkpt>
            <trkpt lat="50.014992" lon="10.4176552">
                <ele>220.0</ele>
                <time>2020-08-22T17:14:39.000Z</time>
                <name>Trackpoint 9001</name>
            </trkpt>
            <trkpt lat="50.0149952" lon="10.4175328">
                <ele>220.0</ele>
                <time>2020-08-22T17:14:42.000Z</time>
                <name>Trackpoint 9002</name>
            </trkpt>
            <trkpt lat="50.0150048" lon="10.4174384">
                <ele>220.0</ele>
                <time>2020-08-22T17:14:44.000Z</time>
                <name>Trackpoint 9003</name>
            </trkpt>
            <trkpt lat="50.015008" lon="10.4173448">
                <ele>220.0</ele>
                <time>2020-08-22T17:14:46.000Z</time>
                <name>Trackpoint 9004</name>
            </trkpt>
            <trkpt lat="50.0150208" lon="10.4172032">
                <ele>220.0</ele>
                <time>2020-08-22T17:14:49.000Z</time>
                <name>Trackpoint 9005</name>
            </trkpt>
            <trkpt lat="50.0150304" lon="10.4170984">
                <ele>220.0</ele>
                <time>2020-08-22T17:14:51.000Z</time>
                <name>Trackpoint 9006</name>
            </trkpt>
            <trkpt lat="50.0150304" lon="10.4169912">
                <ele>220.0</ele>
                <time>2020-08-22T17:14:53.000Z</time>
                <name>Trackpoint 9007</name>
            </trkpt>
            <trkpt lat="50.0150464" lon="10.4168768">
                <ele>220.0</ele>
                <time>2020-08-22T17:14:55.000Z</time>
                <name>Trackpoint 9008</name>
            </trkpt>
            <trkpt lat="50.015056" lon="10.4167696">
                <ele>220.0</ele>
                <time>2020-08-22T17:14:57.000Z</time>
                <name>Trackpoint 9009</name>
            </trkpt>
            <trkpt lat="50.0150752" lon="10.4166432">
                <ele>220.0</ele>
                <time>2020-08-22T17:14:59.000Z</time>
                <name>Trackpoint 9010</name>
            </trkpt>
            <trkpt lat="50.015088" lon="10.4165064">
                <ele>220.0</ele>
                <time>2020-08-22T17:15:01.000Z</time>
                <name>Trackpoint 9011</name>
            </trkpt>
            <trkpt lat="50.0151104" lon="10.4163904">
                <ele>220.0</ele>
                <time>2020-08-22T17:15:03.000Z</time>
                <name>Trackpoint 9012</name>
            </trkpt>
            <trkpt lat="50.0151328" lon="10.4162712">
                <ele>220.0</ele>
                <time>2020-08-22T17:15:05.000Z</time>
                <name>Trackpoint 9013</name>
            </trkpt>
            <trkpt lat="50.015152" lon="10.4161528">
                <ele>220.0</ele>
                <time>2020-08-22T17:15:07.000Z</time>
                <name>Trackpoint 9014</name>
            </trkpt>
            <trkpt lat="50.0151744" lon="10.4160336">
                <ele>220.0</ele>
                <time>2020-08-22T17:15:09.000Z</time>
                <name>Trackpoint 9015</name>
            </trkpt>
            <trkpt lat="50.0151936" lon="10.415912">
                <ele>220.0</ele>
                <time>2020-08-22T17:15:11.000Z</time>
                <name>Trackpoint 9016</name>
            </trkpt>
            <trkpt lat="50.0152192" lon="10.4157896">
                <ele>220.0</ele>
                <time>2020-08-22T17:15:13.000Z</time>
                <name>Trackpoint 9017</name>
            </trkpt>
            <trkpt lat="50.0152512" lon="10.415684">
                <ele>220.0</ele>
                <time>2020-08-22T17:15:15.000Z</time>
                <name>Trackpoint 9018</name>
            </trkpt>
            <trkpt lat="50.0152736" lon="10.4155712">
                <ele>220.0</ele>
                <time>2020-08-22T17:15:17.000Z</time>
                <name>Trackpoint 9019</name>
            </trkpt>
            <trkpt lat="50.0152864" lon="10.4154632">
                <ele>220.0</ele>
                <time>2020-08-22T17:15:19.000Z</time>
                <name>Trackpoint 9020</name>
            </trkpt>
            <trkpt lat="50.015296" lon="10.4153568">
                <ele>220.0</ele>
                <time>2020-08-22T17:15:21.000Z</time>
                <name>Trackpoint 9021</name>
            </trkpt>
            <trkpt lat="50.015312" lon="10.4152648">
                <ele>220.0</ele>
                <time>2020-08-22T17:15:23.000Z</time>
                <name>Trackpoint 9022</name>
            </trkpt>
            <trkpt lat="50.015328" lon="10.415176">
                <ele>220.0</ele>
                <time>2020-08-22T17:15:25.000Z</time>
                <name>Trackpoint 9023</name>
            </trkpt>
            <trkpt lat="50.0153536" lon="10.4150552">
                <ele>220.0</ele>
                <time>2020-08-22T17:15:28.000Z</time>
                <name>Trackpoint 9024</name>
            </trkpt>
            <trkpt lat="50.015424" lon="10.4149688">
                <ele>220.0</ele>
                <time>2020-08-22T17:15:31.000Z</time>
                <name>Trackpoint 9025</name>
            </trkpt>
            <trkpt lat="50.0154368" lon="10.41486">
                <ele>221.0</ele>
                <time>2020-08-22T17:15:43.000Z</time>
                <name>Trackpoint 9026</name>
            </trkpt>
            <trkpt lat="50.0154496" lon="10.4147664">
                <ele>221.0</ele>
                <time>2020-08-22T17:15:48.000Z</time>
                <name>Trackpoint 9027</name>
            </trkpt>
            <trkpt lat="50.0154688" lon="10.4146736">
                <ele>221.0</ele>
                <time>2020-08-22T17:16:41.000Z</time>
                <name>Trackpoint 9028</name>
            </trkpt>
            <trkpt lat="50.0154752" lon="10.4145344">
                <ele>221.0</ele>
                <time>2020-08-22T17:16:44.000Z</time>
                <name>Trackpoint 9029</name>
            </trkpt>
            <trkpt lat="50.0154912" lon="10.4144248">
                <ele>221.0</ele>
                <time>2020-08-22T17:16:46.000Z</time>
                <name>Trackpoint 9030</name>
            </trkpt>
            <trkpt lat="50.0155168" lon="10.4143">
                <ele>221.0</ele>
                <time>2020-08-22T17:16:48.000Z</time>
                <name>Trackpoint 9031</name>
            </trkpt>
            <trkpt lat="50.0155616" lon="10.4141568">
                <ele>221.0</ele>
                <time>2020-08-22T17:16:50.000Z</time>
                <name>Trackpoint 9032</name>
            </trkpt>
            <trkpt lat="50.0156032" lon="10.4140104">
                <ele>221.0</ele>
                <time>2020-08-22T17:16:52.000Z</time>
                <name>Trackpoint 9033</name>
            </trkpt>
            <trkpt lat="50.015648" lon="10.4138584">
                <ele>220.0</ele>
                <time>2020-08-22T17:16:54.000Z</time>
                <name>Trackpoint 9034</name>
            </trkpt>
            <trkpt lat="50.0156928" lon="10.4137024">
                <ele>220.0</ele>
                <time>2020-08-22T17:16:56.000Z</time>
                <name>Trackpoint 9035</name>
            </trkpt>
            <trkpt lat="50.0157344" lon="10.4135488">
                <ele>220.0</ele>
                <time>2020-08-22T17:16:58.000Z</time>
                <name>Trackpoint 9036</name>
            </trkpt>
            <trkpt lat="50.0157664" lon="10.4134032">
                <ele>220.0</ele>
                <time>2020-08-22T17:17:00.000Z</time>
                <name>Trackpoint 9037</name>
            </trkpt>
            <trkpt lat="50.0157696" lon="10.413268">
                <ele>219.0</ele>
                <time>2020-08-22T17:17:02.000Z</time>
                <name>Trackpoint 9038</name>
            </trkpt>
            <trkpt lat="50.0157472" lon="10.4131544">
                <ele>219.0</ele>
                <time>2020-08-22T17:17:04.000Z</time>
                <name>Trackpoint 9039</name>
            </trkpt>
            <trkpt lat="50.0156608" lon="10.41306">
                <ele>219.0</ele>
                <time>2020-08-22T17:17:07.000Z</time>
                <name>Trackpoint 9040</name>
            </trkpt>
            <trkpt lat="50.015616" lon="10.4129512">
                <ele>219.0</ele>
                <time>2020-08-22T17:17:10.000Z</time>
                <name>Trackpoint 9041</name>
            </trkpt>
            <trkpt lat="50.0156288" lon="10.41286">
                <ele>219.0</ele>
                <time>2020-08-22T17:17:12.000Z</time>
                <name>Trackpoint 9042</name>
            </trkpt>
            <trkpt lat="50.015632" lon="10.412768">
                <ele>218.0</ele>
                <time>2020-08-22T17:17:14.000Z</time>
                <name>Trackpoint 9043</name>
            </trkpt>
            <trkpt lat="50.0156512" lon="10.4126568">
                <ele>218.0</ele>
                <time>2020-08-22T17:17:16.000Z</time>
                <name>Trackpoint 9044</name>
            </trkpt>
            <trkpt lat="50.0156672" lon="10.4125584">
                <ele>218.0</ele>
                <time>2020-08-22T17:17:18.000Z</time>
                <name>Trackpoint 9045</name>
            </trkpt>
            <trkpt lat="50.01568" lon="10.4124568">
                <ele>218.0</ele>
                <time>2020-08-22T17:17:20.000Z</time>
                <name>Trackpoint 9046</name>
            </trkpt>
            <trkpt lat="50.015696" lon="10.4123624">
                <ele>218.0</ele>
                <time>2020-08-22T17:17:22.000Z</time>
                <name>Trackpoint 9047</name>
            </trkpt>
            <trkpt lat="50.0157216" lon="10.4122552">
                <ele>218.0</ele>
                <time>2020-08-22T17:17:24.000Z</time>
                <name>Trackpoint 9048</name>
            </trkpt>
            <trkpt lat="50.015744" lon="10.4121448">
                <ele>218.0</ele>
                <time>2020-08-22T17:17:26.000Z</time>
                <name>Trackpoint 9049</name>
            </trkpt>
            <trkpt lat="50.0157632" lon="10.4120416">
                <ele>218.0</ele>
                <time>2020-08-22T17:17:28.000Z</time>
                <name>Trackpoint 9050</name>
            </trkpt>
            <trkpt lat="50.0157856" lon="10.4119416">
                <ele>218.0</ele>
                <time>2020-08-22T17:17:30.000Z</time>
                <name>Trackpoint 9051</name>
            </trkpt>
            <trkpt lat="50.0158016" lon="10.4118384">
                <ele>218.0</ele>
                <time>2020-08-22T17:17:32.000Z</time>
                <name>Trackpoint 9052</name>
            </trkpt>
            <trkpt lat="50.0158208" lon="10.4117472">
                <ele>218.0</ele>
                <time>2020-08-22T17:17:34.000Z</time>
                <name>Trackpoint 9053</name>
            </trkpt>
            <trkpt lat="50.0158496" lon="10.4116384">
                <ele>216.0</ele>
                <time>2020-08-22T17:17:37.000Z</time>
                <name>Trackpoint 9054</name>
            </trkpt>
            <trkpt lat="50.0158656" lon="10.4115264">
                <ele>216.0</ele>
                <time>2020-08-22T17:17:40.000Z</time>
                <name>Trackpoint 9055</name>
            </trkpt>
            <trkpt lat="50.015888" lon="10.41142">
                <ele>216.0</ele>
                <time>2020-08-22T17:17:43.000Z</time>
                <name>Trackpoint 9056</name>
            </trkpt>
            <trkpt lat="50.0159104" lon="10.4113">
                <ele>216.0</ele>
                <time>2020-08-22T17:17:47.000Z</time>
                <name>Trackpoint 9057</name>
            </trkpt>
            <trkpt lat="50.0159328" lon="10.4111728">
                <ele>216.0</ele>
                <time>2020-08-22T17:17:50.000Z</time>
                <name>Trackpoint 9058</name>
            </trkpt>
            <trkpt lat="50.0159488" lon="10.4110816">
                <ele>216.0</ele>
                <time>2020-08-22T17:17:52.000Z</time>
                <name>Trackpoint 9059</name>
            </trkpt>
            <trkpt lat="50.015968" lon="10.4109648">
                <ele>216.0</ele>
                <time>2020-08-22T17:17:55.000Z</time>
                <name>Trackpoint 9060</name>
            </trkpt>
            <trkpt lat="50.0159872" lon="10.4108584">
                <ele>216.0</ele>
                <time>2020-08-22T17:17:58.000Z</time>
                <name>Trackpoint 9061</name>
            </trkpt>
            <trkpt lat="50.0160096" lon="10.4107368">
                <ele>216.0</ele>
                <time>2020-08-22T17:18:01.000Z</time>
                <name>Trackpoint 9062</name>
            </trkpt>
            <trkpt lat="50.0160448" lon="10.4106184">
                <ele>216.0</ele>
                <time>2020-08-22T17:18:04.000Z</time>
                <name>Trackpoint 9063</name>
            </trkpt>
            <trkpt lat="50.016064" lon="10.4105216">
                <ele>217.0</ele>
                <time>2020-08-22T17:18:06.000Z</time>
                <name>Trackpoint 9064</name>
            </trkpt>
            <trkpt lat="50.0160832" lon="10.4104144">
                <ele>216.0</ele>
                <time>2020-08-22T17:18:08.000Z</time>
                <name>Trackpoint 9065</name>
            </trkpt>
            <trkpt lat="50.0161056" lon="10.410308">
                <ele>217.0</ele>
                <time>2020-08-22T17:18:10.000Z</time>
                <name>Trackpoint 9066</name>
            </trkpt>
            <trkpt lat="50.016128" lon="10.4101936">
                <ele>217.0</ele>
                <time>2020-08-22T17:18:12.000Z</time>
                <name>Trackpoint 9067</name>
            </trkpt>
            <trkpt lat="50.0161504" lon="10.4100704">
                <ele>217.0</ele>
                <time>2020-08-22T17:18:14.000Z</time>
                <name>Trackpoint 9068</name>
            </trkpt>
            <trkpt lat="50.0161728" lon="10.4099504">
                <ele>217.0</ele>
                <time>2020-08-22T17:18:16.000Z</time>
                <name>Trackpoint 9069</name>
            </trkpt>
            <trkpt lat="50.0161984" lon="10.40982">
                <ele>217.0</ele>
                <time>2020-08-22T17:18:18.000Z</time>
                <name>Trackpoint 9070</name>
            </trkpt>
            <trkpt lat="50.0162208" lon="10.4096848">
                <ele>218.0</ele>
                <time>2020-08-22T17:18:20.000Z</time>
                <name>Trackpoint 9071</name>
            </trkpt>
            <trkpt lat="50.0162432" lon="10.409556">
                <ele>218.0</ele>
                <time>2020-08-22T17:18:22.000Z</time>
                <name>Trackpoint 9072</name>
            </trkpt>
            <trkpt lat="50.0162656" lon="10.4094288">
                <ele>218.0</ele>
                <time>2020-08-22T17:18:24.000Z</time>
                <name>Trackpoint 9073</name>
            </trkpt>
            <trkpt lat="50.0162848" lon="10.4093">
                <ele>218.0</ele>
                <time>2020-08-22T17:18:26.000Z</time>
                <name>Trackpoint 9074</name>
            </trkpt>
            <trkpt lat="50.0163072" lon="10.4091704">
                <ele>218.0</ele>
                <time>2020-08-22T17:18:28.000Z</time>
                <name>Trackpoint 9075</name>
            </trkpt>
            <trkpt lat="50.0163264" lon="10.4090408">
                <ele>218.0</ele>
                <time>2020-08-22T17:18:30.000Z</time>
                <name>Trackpoint 9076</name>
            </trkpt>
            <trkpt lat="50.0163488" lon="10.4089136">
                <ele>218.0</ele>
                <time>2020-08-22T17:18:32.000Z</time>
                <name>Trackpoint 9077</name>
            </trkpt>
            <trkpt lat="50.016368" lon="10.4087824">
                <ele>218.0</ele>
                <time>2020-08-22T17:18:34.000Z</time>
                <name>Trackpoint 9078</name>
            </trkpt>
            <trkpt lat="50.0163904" lon="10.4086512">
                <ele>218.0</ele>
                <time>2020-08-22T17:18:36.000Z</time>
                <name>Trackpoint 9079</name>
            </trkpt>
            <trkpt lat="50.0164096" lon="10.4085184">
                <ele>218.0</ele>
                <time>2020-08-22T17:18:38.000Z</time>
                <name>Trackpoint 9080</name>
            </trkpt>
            <trkpt lat="50.0164224" lon="10.4083904">
                <ele>217.0</ele>
                <time>2020-08-22T17:18:40.000Z</time>
                <name>Trackpoint 9081</name>
            </trkpt>
            <trkpt lat="50.0164416" lon="10.408272">
                <ele>217.0</ele>
                <time>2020-08-22T17:18:42.000Z</time>
                <name>Trackpoint 9082</name>
            </trkpt>
            <trkpt lat="50.0164608" lon="10.4081472">
                <ele>217.0</ele>
                <time>2020-08-22T17:18:44.000Z</time>
                <name>Trackpoint 9083</name>
            </trkpt>
            <trkpt lat="50.0164768" lon="10.4080136">
                <ele>217.0</ele>
                <time>2020-08-22T17:18:46.000Z</time>
                <name>Trackpoint 9084</name>
            </trkpt>
            <trkpt lat="50.0164896" lon="10.4078848">
                <ele>217.0</ele>
                <time>2020-08-22T17:18:48.000Z</time>
                <name>Trackpoint 9085</name>
            </trkpt>
            <trkpt lat="50.0165056" lon="10.4077528">
                <ele>217.0</ele>
                <time>2020-08-22T17:18:50.000Z</time>
                <name>Trackpoint 9086</name>
            </trkpt>
            <trkpt lat="50.0165216" lon="10.4076136">
                <ele>217.0</ele>
                <time>2020-08-22T17:18:52.000Z</time>
                <name>Trackpoint 9087</name>
            </trkpt>
            <trkpt lat="50.0165408" lon="10.4074696">
                <ele>217.0</ele>
                <time>2020-08-22T17:18:54.000Z</time>
                <name>Trackpoint 9088</name>
            </trkpt>
            <trkpt lat="50.0165504" lon="10.4073264">
                <ele>217.0</ele>
                <time>2020-08-22T17:18:56.000Z</time>
                <name>Trackpoint 9089</name>
            </trkpt>
            <trkpt lat="50.0165632" lon="10.4071848">
                <ele>217.0</ele>
                <time>2020-08-22T17:18:58.000Z</time>
                <name>Trackpoint 9090</name>
            </trkpt>
            <trkpt lat="50.0165792" lon="10.4070432">
                <ele>217.0</ele>
                <time>2020-08-22T17:19:00.000Z</time>
                <name>Trackpoint 9091</name>
            </trkpt>
            <trkpt lat="50.0165856" lon="10.4069048">
                <ele>217.0</ele>
                <time>2020-08-22T17:19:02.000Z</time>
                <name>Trackpoint 9092</name>
            </trkpt>
            <trkpt lat="50.0165952" lon="10.4067584">
                <ele>217.0</ele>
                <time>2020-08-22T17:19:04.000Z</time>
                <name>Trackpoint 9093</name>
            </trkpt>
            <trkpt lat="50.0166048" lon="10.4066112">
                <ele>217.0</ele>
                <time>2020-08-22T17:19:06.000Z</time>
                <name>Trackpoint 9094</name>
            </trkpt>
            <trkpt lat="50.0166144" lon="10.406468">
                <ele>217.0</ele>
                <time>2020-08-22T17:19:08.000Z</time>
                <name>Trackpoint 9095</name>
            </trkpt>
            <trkpt lat="50.016624" lon="10.4063216">
                <ele>216.0</ele>
                <time>2020-08-22T17:19:10.000Z</time>
                <name>Trackpoint 9096</name>
            </trkpt>
            <trkpt lat="50.0166368" lon="10.4061648">
                <ele>217.0</ele>
                <time>2020-08-22T17:19:12.000Z</time>
                <name>Trackpoint 9097</name>
            </trkpt>
            <trkpt lat="50.0166432" lon="10.4060184">
                <ele>217.0</ele>
                <time>2020-08-22T17:19:14.000Z</time>
                <name>Trackpoint 9098</name>
            </trkpt>
            <trkpt lat="50.016656" lon="10.4058752">
                <ele>217.0</ele>
                <time>2020-08-22T17:19:16.000Z</time>
                <name>Trackpoint 9099</name>
            </trkpt>
            <trkpt lat="50.0166656" lon="10.4057304">
                <ele>217.0</ele>
                <time>2020-08-22T17:19:18.000Z</time>
                <name>Trackpoint 9100</name>
            </trkpt>
            <trkpt lat="50.0166688" lon="10.4055856">
                <ele>217.0</ele>
                <time>2020-08-22T17:19:20.000Z</time>
                <name>Trackpoint 9101</name>
            </trkpt>
            <trkpt lat="50.0166752" lon="10.4054432">
                <ele>217.0</ele>
                <time>2020-08-22T17:19:22.000Z</time>
                <name>Trackpoint 9102</name>
            </trkpt>
            <trkpt lat="50.0166816" lon="10.405316">
                <ele>217.0</ele>
                <time>2020-08-22T17:19:24.000Z</time>
                <name>Trackpoint 9103</name>
            </trkpt>
            <trkpt lat="50.0166816" lon="10.4051888">
                <ele>218.0</ele>
                <time>2020-08-22T17:19:26.000Z</time>
                <name>Trackpoint 9104</name>
            </trkpt>
            <trkpt lat="50.0166848" lon="10.40506">
                <ele>218.0</ele>
                <time>2020-08-22T17:19:28.000Z</time>
                <name>Trackpoint 9105</name>
            </trkpt>
            <trkpt lat="50.0166944" lon="10.4049256">
                <ele>218.0</ele>
                <time>2020-08-22T17:19:30.000Z</time>
                <name>Trackpoint 9106</name>
            </trkpt>
            <trkpt lat="50.0167008" lon="10.4047872">
                <ele>218.0</ele>
                <time>2020-08-22T17:19:32.000Z</time>
                <name>Trackpoint 9107</name>
            </trkpt>
            <trkpt lat="50.0167072" lon="10.4046424">
                <ele>217.0</ele>
                <time>2020-08-22T17:19:34.000Z</time>
                <name>Trackpoint 9108</name>
            </trkpt>
            <trkpt lat="50.0167136" lon="10.404496">
                <ele>217.0</ele>
                <time>2020-08-22T17:19:36.000Z</time>
                <name>Trackpoint 9109</name>
            </trkpt>
            <trkpt lat="50.0167168" lon="10.4043528">
                <ele>217.0</ele>
                <time>2020-08-22T17:19:38.000Z</time>
                <name>Trackpoint 9110</name>
            </trkpt>
            <trkpt lat="50.0167232" lon="10.404212">
                <ele>217.0</ele>
                <time>2020-08-22T17:19:40.000Z</time>
                <name>Trackpoint 9111</name>
            </trkpt>
            <trkpt lat="50.0167264" lon="10.404068">
                <ele>217.0</ele>
                <time>2020-08-22T17:19:42.000Z</time>
                <name>Trackpoint 9112</name>
            </trkpt>
            <trkpt lat="50.016736" lon="10.4039272">
                <ele>217.0</ele>
                <time>2020-08-22T17:19:44.000Z</time>
                <name>Trackpoint 9113</name>
            </trkpt>
            <trkpt lat="50.0167424" lon="10.4037904">
                <ele>217.0</ele>
                <time>2020-08-22T17:19:46.000Z</time>
                <name>Trackpoint 9114</name>
            </trkpt>
            <trkpt lat="50.0167456" lon="10.4036568">
                <ele>217.0</ele>
                <time>2020-08-22T17:19:48.000Z</time>
                <name>Trackpoint 9115</name>
            </trkpt>
            <trkpt lat="50.0167584" lon="10.403528">
                <ele>218.0</ele>
                <time>2020-08-22T17:19:50.000Z</time>
                <name>Trackpoint 9116</name>
            </trkpt>
            <trkpt lat="50.0167616" lon="10.4033944">
                <ele>218.0</ele>
                <time>2020-08-22T17:19:52.000Z</time>
                <name>Trackpoint 9117</name>
            </trkpt>
            <trkpt lat="50.0167648" lon="10.403252">
                <ele>217.0</ele>
                <time>2020-08-22T17:19:54.000Z</time>
                <name>Trackpoint 9118</name>
            </trkpt>
            <trkpt lat="50.0167744" lon="10.4031088">
                <ele>217.0</ele>
                <time>2020-08-22T17:19:56.000Z</time>
                <name>Trackpoint 9119</name>
            </trkpt>
            <trkpt lat="50.0167776" lon="10.4029648">
                <ele>216.0</ele>
                <time>2020-08-22T17:19:58.000Z</time>
                <name>Trackpoint 9120</name>
            </trkpt>
            <trkpt lat="50.016784" lon="10.4028232">
                <ele>216.0</ele>
                <time>2020-08-22T17:20:00.000Z</time>
                <name>Trackpoint 9121</name>
            </trkpt>
            <trkpt lat="50.0167872" lon="10.4026848">
                <ele>216.0</ele>
                <time>2020-08-22T17:20:02.000Z</time>
                <name>Trackpoint 9122</name>
            </trkpt>
            <trkpt lat="50.0167968" lon="10.4025488">
                <ele>216.0</ele>
                <time>2020-08-22T17:20:04.000Z</time>
                <name>Trackpoint 9123</name>
            </trkpt>
            <trkpt lat="50.0168" lon="10.4024112">
                <ele>216.0</ele>
                <time>2020-08-22T17:20:06.000Z</time>
                <name>Trackpoint 9124</name>
            </trkpt>
            <trkpt lat="50.0168032" lon="10.4022768">
                <ele>216.0</ele>
                <time>2020-08-22T17:20:08.000Z</time>
                <name>Trackpoint 9125</name>
            </trkpt>
            <trkpt lat="50.0168064" lon="10.4021416">
                <ele>216.0</ele>
                <time>2020-08-22T17:20:10.000Z</time>
                <name>Trackpoint 9126</name>
            </trkpt>
            <trkpt lat="50.016816" lon="10.4020032">
                <ele>216.0</ele>
                <time>2020-08-22T17:20:12.000Z</time>
                <name>Trackpoint 9127</name>
            </trkpt>
            <trkpt lat="50.0168192" lon="10.4018632">
                <ele>215.0</ele>
                <time>2020-08-22T17:20:14.000Z</time>
                <name>Trackpoint 9128</name>
            </trkpt>
            <trkpt lat="50.0168256" lon="10.4017248">
                <ele>215.0</ele>
                <time>2020-08-22T17:20:16.000Z</time>
                <name>Trackpoint 9129</name>
            </trkpt>
            <trkpt lat="50.0168352" lon="10.4015888">
                <ele>215.0</ele>
                <time>2020-08-22T17:20:18.000Z</time>
                <name>Trackpoint 9130</name>
            </trkpt>
            <trkpt lat="50.0168416" lon="10.4014528">
                <ele>215.0</ele>
                <time>2020-08-22T17:20:20.000Z</time>
                <name>Trackpoint 9131</name>
            </trkpt>
            <trkpt lat="50.0168448" lon="10.4013184">
                <ele>215.0</ele>
                <time>2020-08-22T17:20:22.000Z</time>
                <name>Trackpoint 9132</name>
            </trkpt>
            <trkpt lat="50.0168544" lon="10.4011936">
                <ele>215.0</ele>
                <time>2020-08-22T17:20:24.000Z</time>
                <name>Trackpoint 9133</name>
            </trkpt>
            <trkpt lat="50.0168576" lon="10.40108">
                <ele>215.0</ele>
                <time>2020-08-22T17:20:26.000Z</time>
                <name>Trackpoint 9134</name>
            </trkpt>
            <trkpt lat="50.0168576" lon="10.4009736">
                <ele>215.0</ele>
                <time>2020-08-22T17:20:28.000Z</time>
                <name>Trackpoint 9135</name>
            </trkpt>
            <trkpt lat="50.016864" lon="10.4008616">
                <ele>215.0</ele>
                <time>2020-08-22T17:20:30.000Z</time>
                <name>Trackpoint 9136</name>
            </trkpt>
            <trkpt lat="50.0168736" lon="10.4007432">
                <ele>215.0</ele>
                <time>2020-08-22T17:20:32.000Z</time>
                <name>Trackpoint 9137</name>
            </trkpt>
            <trkpt lat="50.01688" lon="10.4006208">
                <ele>215.0</ele>
                <time>2020-08-22T17:20:34.000Z</time>
                <name>Trackpoint 9138</name>
            </trkpt>
            <trkpt lat="50.0168832" lon="10.4004968">
                <ele>215.0</ele>
                <time>2020-08-22T17:20:36.000Z</time>
                <name>Trackpoint 9139</name>
            </trkpt>
            <trkpt lat="50.0168832" lon="10.4003736">
                <ele>215.0</ele>
                <time>2020-08-22T17:20:38.000Z</time>
                <name>Trackpoint 9140</name>
            </trkpt>
            <trkpt lat="50.0168928" lon="10.40026">
                <ele>215.0</ele>
                <time>2020-08-22T17:20:40.000Z</time>
                <name>Trackpoint 9141</name>
            </trkpt>
            <trkpt lat="50.016896" lon="10.40016">
                <ele>215.0</ele>
                <time>2020-08-22T17:20:42.000Z</time>
                <name>Trackpoint 9142</name>
            </trkpt>
            <trkpt lat="50.0168992" lon="10.400068">
                <ele>215.0</ele>
                <time>2020-08-22T17:20:44.000Z</time>
                <name>Trackpoint 9143</name>
            </trkpt>
            <trkpt lat="50.0169056" lon="10.3999328">
                <ele>216.0</ele>
                <time>2020-08-22T17:20:47.000Z</time>
                <name>Trackpoint 9144</name>
            </trkpt>
            <trkpt lat="50.0169152" lon="10.3998296">
                <ele>216.0</ele>
                <time>2020-08-22T17:20:49.000Z</time>
                <name>Trackpoint 9145</name>
            </trkpt>
            <trkpt lat="50.0169184" lon="10.3997136">
                <ele>216.0</ele>
                <time>2020-08-22T17:20:51.000Z</time>
                <name>Trackpoint 9146</name>
            </trkpt>
            <trkpt lat="50.0169216" lon="10.3995888">
                <ele>216.0</ele>
                <time>2020-08-22T17:20:53.000Z</time>
                <name>Trackpoint 9147</name>
            </trkpt>
            <trkpt lat="50.0169248" lon="10.3994616">
                <ele>216.0</ele>
                <time>2020-08-22T17:20:55.000Z</time>
                <name>Trackpoint 9148</name>
            </trkpt>
            <trkpt lat="50.0169344" lon="10.3993328">
                <ele>216.0</ele>
                <time>2020-08-22T17:20:57.000Z</time>
                <name>Trackpoint 9149</name>
            </trkpt>
            <trkpt lat="50.0169376" lon="10.3992032">
                <ele>216.0</ele>
                <time>2020-08-22T17:20:59.000Z</time>
                <name>Trackpoint 9150</name>
            </trkpt>
            <trkpt lat="50.0169408" lon="10.3990696">
                <ele>216.0</ele>
                <time>2020-08-22T17:21:01.000Z</time>
                <name>Trackpoint 9151</name>
            </trkpt>
            <trkpt lat="50.016944" lon="10.3989336">
                <ele>216.0</ele>
                <time>2020-08-22T17:21:03.000Z</time>
                <name>Trackpoint 9152</name>
            </trkpt>
            <trkpt lat="50.0169536" lon="10.3988016">
                <ele>216.0</ele>
                <time>2020-08-22T17:21:05.000Z</time>
                <name>Trackpoint 9153</name>
            </trkpt>
            <trkpt lat="50.01696" lon="10.398672">
                <ele>217.0</ele>
                <time>2020-08-22T17:21:07.000Z</time>
                <name>Trackpoint 9154</name>
            </trkpt>
            <trkpt lat="50.0169664" lon="10.3985416">
                <ele>217.0</ele>
                <time>2020-08-22T17:21:09.000Z</time>
                <name>Trackpoint 9155</name>
            </trkpt>
            <trkpt lat="50.016976" lon="10.398412">
                <ele>217.0</ele>
                <time>2020-08-22T17:21:11.000Z</time>
                <name>Trackpoint 9156</name>
            </trkpt>
            <trkpt lat="50.0169792" lon="10.39828">
                <ele>217.0</ele>
                <time>2020-08-22T17:21:13.000Z</time>
                <name>Trackpoint 9157</name>
            </trkpt>
            <trkpt lat="50.0169856" lon="10.3981504">
                <ele>217.0</ele>
                <time>2020-08-22T17:21:15.000Z</time>
                <name>Trackpoint 9158</name>
            </trkpt>
            <trkpt lat="50.0169952" lon="10.3980176">
                <ele>217.0</ele>
                <time>2020-08-22T17:21:17.000Z</time>
                <name>Trackpoint 9159</name>
            </trkpt>
            <trkpt lat="50.0169984" lon="10.397888">
                <ele>218.0</ele>
                <time>2020-08-22T17:21:19.000Z</time>
                <name>Trackpoint 9160</name>
            </trkpt>
            <trkpt lat="50.0170048" lon="10.397752">
                <ele>218.0</ele>
                <time>2020-08-22T17:21:21.000Z</time>
                <name>Trackpoint 9161</name>
            </trkpt>
            <trkpt lat="50.0170112" lon="10.397612">
                <ele>217.0</ele>
                <time>2020-08-22T17:21:23.000Z</time>
                <name>Trackpoint 9162</name>
            </trkpt>
            <trkpt lat="50.0170144" lon="10.3974736">
                <ele>218.0</ele>
                <time>2020-08-22T17:21:25.000Z</time>
                <name>Trackpoint 9163</name>
            </trkpt>
            <trkpt lat="50.0170208" lon="10.3973328">
                <ele>217.0</ele>
                <time>2020-08-22T17:21:27.000Z</time>
                <name>Trackpoint 9164</name>
            </trkpt>
            <trkpt lat="50.0170304" lon="10.3971984">
                <ele>218.0</ele>
                <time>2020-08-22T17:21:29.000Z</time>
                <name>Trackpoint 9165</name>
            </trkpt>
            <trkpt lat="50.0170368" lon="10.3970648">
                <ele>218.0</ele>
                <time>2020-08-22T17:21:31.000Z</time>
                <name>Trackpoint 9166</name>
            </trkpt>
            <trkpt lat="50.0170432" lon="10.3969272">
                <ele>218.0</ele>
                <time>2020-08-22T17:21:33.000Z</time>
                <name>Trackpoint 9167</name>
            </trkpt>
            <trkpt lat="50.0170464" lon="10.3967896">
                <ele>218.0</ele>
                <time>2020-08-22T17:21:35.000Z</time>
                <name>Trackpoint 9168</name>
            </trkpt>
            <trkpt lat="50.017056" lon="10.3966528">
                <ele>218.0</ele>
                <time>2020-08-22T17:21:37.000Z</time>
                <name>Trackpoint 9169</name>
            </trkpt>
            <trkpt lat="50.0170592" lon="10.3965152">
                <ele>218.0</ele>
                <time>2020-08-22T17:21:39.000Z</time>
                <name>Trackpoint 9170</name>
            </trkpt>
            <trkpt lat="50.0170656" lon="10.3963744">
                <ele>218.0</ele>
                <time>2020-08-22T17:21:41.000Z</time>
                <name>Trackpoint 9171</name>
            </trkpt>
            <trkpt lat="50.0170752" lon="10.3962368">
                <ele>218.0</ele>
                <time>2020-08-22T17:21:43.000Z</time>
                <name>Trackpoint 9172</name>
            </trkpt>
            <trkpt lat="50.0170784" lon="10.3960984">
                <ele>218.0</ele>
                <time>2020-08-22T17:21:45.000Z</time>
                <name>Trackpoint 9173</name>
            </trkpt>
            <trkpt lat="50.0170784" lon="10.3959616">
                <ele>218.0</ele>
                <time>2020-08-22T17:21:47.000Z</time>
                <name>Trackpoint 9174</name>
            </trkpt>
            <trkpt lat="50.017072" lon="10.3958352">
                <ele>218.0</ele>
                <time>2020-08-22T17:21:49.000Z</time>
                <name>Trackpoint 9175</name>
            </trkpt>
            <trkpt lat="50.0170624" lon="10.3957136">
                <ele>218.0</ele>
                <time>2020-08-22T17:21:51.000Z</time>
                <name>Trackpoint 9176</name>
            </trkpt>
            <trkpt lat="50.0170592" lon="10.3955968">
                <ele>219.0</ele>
                <time>2020-08-22T17:21:53.000Z</time>
                <name>Trackpoint 9177</name>
            </trkpt>
            <trkpt lat="50.0170624" lon="10.3954936">
                <ele>219.0</ele>
                <time>2020-08-22T17:21:55.000Z</time>
                <name>Trackpoint 9178</name>
            </trkpt>
            <trkpt lat="50.0170784" lon="10.3953952">
                <ele>220.0</ele>
                <time>2020-08-22T17:21:57.000Z</time>
                <name>Trackpoint 9179</name>
            </trkpt>
            <trkpt lat="50.0170848" lon="10.3952936">
                <ele>220.0</ele>
                <time>2020-08-22T17:21:59.000Z</time>
                <name>Trackpoint 9180</name>
            </trkpt>
            <trkpt lat="50.0170976" lon="10.395188">
                <ele>220.0</ele>
                <time>2020-08-22T17:22:01.000Z</time>
                <name>Trackpoint 9181</name>
            </trkpt>
            <trkpt lat="50.0171104" lon="10.3950768">
                <ele>221.0</ele>
                <time>2020-08-22T17:22:03.000Z</time>
                <name>Trackpoint 9182</name>
            </trkpt>
            <trkpt lat="50.01712" lon="10.3949536">
                <ele>220.0</ele>
                <time>2020-08-22T17:22:05.000Z</time>
                <name>Trackpoint 9183</name>
            </trkpt>
            <trkpt lat="50.0171392" lon="10.39482">
                <ele>220.0</ele>
                <time>2020-08-22T17:22:07.000Z</time>
                <name>Trackpoint 9184</name>
            </trkpt>
            <trkpt lat="50.0171584" lon="10.3946784">
                <ele>220.0</ele>
                <time>2020-08-22T17:22:09.000Z</time>
                <name>Trackpoint 9185</name>
            </trkpt>
            <trkpt lat="50.0171712" lon="10.394528">
                <ele>219.0</ele>
                <time>2020-08-22T17:22:11.000Z</time>
                <name>Trackpoint 9186</name>
            </trkpt>
            <trkpt lat="50.0171808" lon="10.39438">
                <ele>219.0</ele>
                <time>2020-08-22T17:22:13.000Z</time>
                <name>Trackpoint 9187</name>
            </trkpt>
            <trkpt lat="50.017184" lon="10.3942336">
                <ele>219.0</ele>
                <time>2020-08-22T17:22:15.000Z</time>
                <name>Trackpoint 9188</name>
            </trkpt>
            <trkpt lat="50.0171936" lon="10.3940872">
                <ele>219.0</ele>
                <time>2020-08-22T17:22:17.000Z</time>
                <name>Trackpoint 9189</name>
            </trkpt>
            <trkpt lat="50.0171936" lon="10.3939488">
                <ele>219.0</ele>
                <time>2020-08-22T17:22:19.000Z</time>
                <name>Trackpoint 9190</name>
            </trkpt>
            <trkpt lat="50.0172" lon="10.3938064">
                <ele>219.0</ele>
                <time>2020-08-22T17:22:21.000Z</time>
                <name>Trackpoint 9191</name>
            </trkpt>
            <trkpt lat="50.0172096" lon="10.3936632">
                <ele>219.0</ele>
                <time>2020-08-22T17:22:23.000Z</time>
                <name>Trackpoint 9192</name>
            </trkpt>
            <trkpt lat="50.0172128" lon="10.3935144">
                <ele>218.0</ele>
                <time>2020-08-22T17:22:25.000Z</time>
                <name>Trackpoint 9193</name>
            </trkpt>
            <trkpt lat="50.017216" lon="10.3933632">
                <ele>218.0</ele>
                <time>2020-08-22T17:22:27.000Z</time>
                <name>Trackpoint 9194</name>
            </trkpt>
            <trkpt lat="50.0172224" lon="10.3932152">
                <ele>218.0</ele>
                <time>2020-08-22T17:22:29.000Z</time>
                <name>Trackpoint 9195</name>
            </trkpt>
            <trkpt lat="50.0172256" lon="10.393072">
                <ele>218.0</ele>
                <time>2020-08-22T17:22:31.000Z</time>
                <name>Trackpoint 9196</name>
            </trkpt>
            <trkpt lat="50.0172352" lon="10.392932">
                <ele>219.0</ele>
                <time>2020-08-22T17:22:33.000Z</time>
                <name>Trackpoint 9197</name>
            </trkpt>
            <trkpt lat="50.0172416" lon="10.3927872">
                <ele>218.0</ele>
                <time>2020-08-22T17:22:35.000Z</time>
                <name>Trackpoint 9198</name>
            </trkpt>
            <trkpt lat="50.0172512" lon="10.3926464">
                <ele>218.0</ele>
                <time>2020-08-22T17:22:37.000Z</time>
                <name>Trackpoint 9199</name>
            </trkpt>
            <trkpt lat="50.0172512" lon="10.3925048">
                <ele>218.0</ele>
                <time>2020-08-22T17:22:39.000Z</time>
                <name>Trackpoint 9200</name>
            </trkpt>
            <trkpt lat="50.0172576" lon="10.3923616">
                <ele>218.0</ele>
                <time>2020-08-22T17:22:41.000Z</time>
                <name>Trackpoint 9201</name>
            </trkpt>
            <trkpt lat="50.0172608" lon="10.3922184">
                <ele>218.0</ele>
                <time>2020-08-22T17:22:43.000Z</time>
                <name>Trackpoint 9202</name>
            </trkpt>
            <trkpt lat="50.0172704" lon="10.3920768">
                <ele>218.0</ele>
                <time>2020-08-22T17:22:45.000Z</time>
                <name>Trackpoint 9203</name>
            </trkpt>
            <trkpt lat="50.0172736" lon="10.3919384">
                <ele>218.0</ele>
                <time>2020-08-22T17:22:47.000Z</time>
                <name>Trackpoint 9204</name>
            </trkpt>
            <trkpt lat="50.0172768" lon="10.3917984">
                <ele>217.0</ele>
                <time>2020-08-22T17:22:49.000Z</time>
                <name>Trackpoint 9205</name>
            </trkpt>
            <trkpt lat="50.01728" lon="10.3916616">
                <ele>217.0</ele>
                <time>2020-08-22T17:22:51.000Z</time>
                <name>Trackpoint 9206</name>
            </trkpt>
            <trkpt lat="50.0172896" lon="10.3915256">
                <ele>216.0</ele>
                <time>2020-08-22T17:22:53.000Z</time>
                <name>Trackpoint 9207</name>
            </trkpt>
            <trkpt lat="50.0172896" lon="10.391388">
                <ele>216.0</ele>
                <time>2020-08-22T17:22:55.000Z</time>
                <name>Trackpoint 9208</name>
            </trkpt>
            <trkpt lat="50.017296" lon="10.3912552">
                <ele>216.0</ele>
                <time>2020-08-22T17:22:57.000Z</time>
                <name>Trackpoint 9209</name>
            </trkpt>
            <trkpt lat="50.0173024" lon="10.3911216">
                <ele>216.0</ele>
                <time>2020-08-22T17:22:59.000Z</time>
                <name>Trackpoint 9210</name>
            </trkpt>
            <trkpt lat="50.0173024" lon="10.3909848">
                <ele>216.0</ele>
                <time>2020-08-22T17:23:01.000Z</time>
                <name>Trackpoint 9211</name>
            </trkpt>
            <trkpt lat="50.0173152" lon="10.390848">
                <ele>216.0</ele>
                <time>2020-08-22T17:23:03.000Z</time>
                <name>Trackpoint 9212</name>
            </trkpt>
            <trkpt lat="50.0173184" lon="10.3907144">
                <ele>217.0</ele>
                <time>2020-08-22T17:23:05.000Z</time>
                <name>Trackpoint 9213</name>
            </trkpt>
            <trkpt lat="50.0173248" lon="10.3905824">
                <ele>217.0</ele>
                <time>2020-08-22T17:23:07.000Z</time>
                <name>Trackpoint 9214</name>
            </trkpt>
            <trkpt lat="50.0173312" lon="10.3904448">
                <ele>216.0</ele>
                <time>2020-08-22T17:23:09.000Z</time>
                <name>Trackpoint 9215</name>
            </trkpt>
            <trkpt lat="50.0173376" lon="10.390308">
                <ele>216.0</ele>
                <time>2020-08-22T17:23:11.000Z</time>
                <name>Trackpoint 9216</name>
            </trkpt>
            <trkpt lat="50.0173408" lon="10.3901728">
                <ele>216.0</ele>
                <time>2020-08-22T17:23:13.000Z</time>
                <name>Trackpoint 9217</name>
            </trkpt>
            <trkpt lat="50.0173504" lon="10.3900384">
                <ele>217.0</ele>
                <time>2020-08-22T17:23:15.000Z</time>
                <name>Trackpoint 9218</name>
            </trkpt>
            <trkpt lat="50.0173568" lon="10.3899048">
                <ele>217.0</ele>
                <time>2020-08-22T17:23:17.000Z</time>
                <name>Trackpoint 9219</name>
            </trkpt>
            <trkpt lat="50.0173632" lon="10.3897648">
                <ele>216.0</ele>
                <time>2020-08-22T17:23:19.000Z</time>
                <name>Trackpoint 9220</name>
            </trkpt>
            <trkpt lat="50.0173696" lon="10.3896264">
                <ele>215.0</ele>
                <time>2020-08-22T17:23:21.000Z</time>
                <name>Trackpoint 9221</name>
            </trkpt>
            <trkpt lat="50.017376" lon="10.3894952">
                <ele>216.0</ele>
                <time>2020-08-22T17:23:23.000Z</time>
                <name>Trackpoint 9222</name>
            </trkpt>
            <trkpt lat="50.0173792" lon="10.3893616">
                <ele>216.0</ele>
                <time>2020-08-22T17:23:25.000Z</time>
                <name>Trackpoint 9223</name>
            </trkpt>
            <trkpt lat="50.0173888" lon="10.389228">
                <ele>216.0</ele>
                <time>2020-08-22T17:23:27.000Z</time>
                <name>Trackpoint 9224</name>
            </trkpt>
            <trkpt lat="50.0173952" lon="10.3891016">
                <ele>216.0</ele>
                <time>2020-08-22T17:23:29.000Z</time>
                <name>Trackpoint 9225</name>
            </trkpt>
            <trkpt lat="50.0174016" lon="10.3889712">
                <ele>216.0</ele>
                <time>2020-08-22T17:23:31.000Z</time>
                <name>Trackpoint 9226</name>
            </trkpt>
            <trkpt lat="50.017408" lon="10.3888456">
                <ele>216.0</ele>
                <time>2020-08-22T17:23:33.000Z</time>
                <name>Trackpoint 9227</name>
            </trkpt>
            <trkpt lat="50.0174144" lon="10.3887168">
                <ele>216.0</ele>
                <time>2020-08-22T17:23:35.000Z</time>
                <name>Trackpoint 9228</name>
            </trkpt>
            <trkpt lat="50.0174208" lon="10.3885936">
                <ele>216.0</ele>
                <time>2020-08-22T17:23:37.000Z</time>
                <name>Trackpoint 9229</name>
            </trkpt>
            <trkpt lat="50.0174304" lon="10.3884696">
                <ele>216.0</ele>
                <time>2020-08-22T17:23:39.000Z</time>
                <name>Trackpoint 9230</name>
            </trkpt>
            <trkpt lat="50.0174368" lon="10.3883488">
                <ele>216.0</ele>
                <time>2020-08-22T17:23:41.000Z</time>
                <name>Trackpoint 9231</name>
            </trkpt>
            <trkpt lat="50.01744" lon="10.388224">
                <ele>216.0</ele>
                <time>2020-08-22T17:23:43.000Z</time>
                <name>Trackpoint 9232</name>
            </trkpt>
            <trkpt lat="50.0174432" lon="10.3880968">
                <ele>216.0</ele>
                <time>2020-08-22T17:23:45.000Z</time>
                <name>Trackpoint 9233</name>
            </trkpt>
            <trkpt lat="50.0174528" lon="10.387972">
                <ele>216.0</ele>
                <time>2020-08-22T17:23:47.000Z</time>
                <name>Trackpoint 9234</name>
            </trkpt>
            <trkpt lat="50.017456" lon="10.3878496">
                <ele>217.0</ele>
                <time>2020-08-22T17:23:49.000Z</time>
                <name>Trackpoint 9235</name>
            </trkpt>
            <trkpt lat="50.0174592" lon="10.3877248">
                <ele>217.0</ele>
                <time>2020-08-22T17:23:51.000Z</time>
                <name>Trackpoint 9236</name>
            </trkpt>
            <trkpt lat="50.0174688" lon="10.3875984">
                <ele>217.0</ele>
                <time>2020-08-22T17:23:53.000Z</time>
                <name>Trackpoint 9237</name>
            </trkpt>
            <trkpt lat="50.017472" lon="10.3874712">
                <ele>217.0</ele>
                <time>2020-08-22T17:23:55.000Z</time>
                <name>Trackpoint 9238</name>
            </trkpt>
            <trkpt lat="50.0174752" lon="10.387348">
                <ele>217.0</ele>
                <time>2020-08-22T17:23:57.000Z</time>
                <name>Trackpoint 9239</name>
            </trkpt>
            <trkpt lat="50.0174816" lon="10.3872296">
                <ele>218.0</ele>
                <time>2020-08-22T17:23:59.000Z</time>
                <name>Trackpoint 9240</name>
            </trkpt>
            <trkpt lat="50.0174912" lon="10.3871072">
                <ele>218.0</ele>
                <time>2020-08-22T17:24:01.000Z</time>
                <name>Trackpoint 9241</name>
            </trkpt>
            <trkpt lat="50.0174944" lon="10.38698">
                <ele>218.0</ele>
                <time>2020-08-22T17:24:03.000Z</time>
                <name>Trackpoint 9242</name>
            </trkpt>
            <trkpt lat="50.0174976" lon="10.3868552">
                <ele>218.0</ele>
                <time>2020-08-22T17:24:05.000Z</time>
                <name>Trackpoint 9243</name>
            </trkpt>
            <trkpt lat="50.0175008" lon="10.3867304">
                <ele>218.0</ele>
                <time>2020-08-22T17:24:07.000Z</time>
                <name>Trackpoint 9244</name>
            </trkpt>
            <trkpt lat="50.0175104" lon="10.386608">
                <ele>219.0</ele>
                <time>2020-08-22T17:24:09.000Z</time>
                <name>Trackpoint 9245</name>
            </trkpt>
            <trkpt lat="50.0175104" lon="10.3864816">
                <ele>218.0</ele>
                <time>2020-08-22T17:24:11.000Z</time>
                <name>Trackpoint 9246</name>
            </trkpt>
            <trkpt lat="50.0175168" lon="10.38636">
                <ele>218.0</ele>
                <time>2020-08-22T17:24:13.000Z</time>
                <name>Trackpoint 9247</name>
            </trkpt>
            <trkpt lat="50.01752" lon="10.386236">
                <ele>217.0</ele>
                <time>2020-08-22T17:24:15.000Z</time>
                <name>Trackpoint 9248</name>
            </trkpt>
            <trkpt lat="50.0175296" lon="10.38612">
                <ele>217.0</ele>
                <time>2020-08-22T17:24:17.000Z</time>
                <name>Trackpoint 9249</name>
            </trkpt>
            <trkpt lat="50.0175328" lon="10.3859984">
                <ele>217.0</ele>
                <time>2020-08-22T17:24:19.000Z</time>
                <name>Trackpoint 9250</name>
            </trkpt>
            <trkpt lat="50.017536" lon="10.3858768">
                <ele>217.0</ele>
                <time>2020-08-22T17:24:21.000Z</time>
                <name>Trackpoint 9251</name>
            </trkpt>
            <trkpt lat="50.0175424" lon="10.3857568">
                <ele>217.0</ele>
                <time>2020-08-22T17:24:23.000Z</time>
                <name>Trackpoint 9252</name>
            </trkpt>
            <trkpt lat="50.017552" lon="10.385636">
                <ele>218.0</ele>
                <time>2020-08-22T17:24:25.000Z</time>
                <name>Trackpoint 9253</name>
            </trkpt>
            <trkpt lat="50.0175552" lon="10.3855168">
                <ele>218.0</ele>
                <time>2020-08-22T17:24:27.000Z</time>
                <name>Trackpoint 9254</name>
            </trkpt>
            <trkpt lat="50.0175552" lon="10.3853952">
                <ele>218.0</ele>
                <time>2020-08-22T17:24:29.000Z</time>
                <name>Trackpoint 9255</name>
            </trkpt>
            <trkpt lat="50.017568" lon="10.3852728">
                <ele>218.0</ele>
                <time>2020-08-22T17:24:31.000Z</time>
                <name>Trackpoint 9256</name>
            </trkpt>
            <trkpt lat="50.0175712" lon="10.3851496">
                <ele>218.0</ele>
                <time>2020-08-22T17:24:33.000Z</time>
                <name>Trackpoint 9257</name>
            </trkpt>
            <trkpt lat="50.0175776" lon="10.3850296">
                <ele>218.0</ele>
                <time>2020-08-22T17:24:35.000Z</time>
                <name>Trackpoint 9258</name>
            </trkpt>
            <trkpt lat="50.0175808" lon="10.3849032">
                <ele>219.0</ele>
                <time>2020-08-22T17:24:37.000Z</time>
                <name>Trackpoint 9259</name>
            </trkpt>
            <trkpt lat="50.0175936" lon="10.3847752">
                <ele>219.0</ele>
                <time>2020-08-22T17:24:39.000Z</time>
                <name>Trackpoint 9260</name>
            </trkpt>
            <trkpt lat="50.0175968" lon="10.3846368">
                <ele>219.0</ele>
                <time>2020-08-22T17:24:41.000Z</time>
                <name>Trackpoint 9261</name>
            </trkpt>
            <trkpt lat="50.0176064" lon="10.3845016">
                <ele>219.0</ele>
                <time>2020-08-22T17:24:43.000Z</time>
                <name>Trackpoint 9262</name>
            </trkpt>
            <trkpt lat="50.0176128" lon="10.3843632">
                <ele>219.0</ele>
                <time>2020-08-22T17:24:45.000Z</time>
                <name>Trackpoint 9263</name>
            </trkpt>
            <trkpt lat="50.0176192" lon="10.3842296">
                <ele>219.0</ele>
                <time>2020-08-22T17:24:47.000Z</time>
                <name>Trackpoint 9264</name>
            </trkpt>
            <trkpt lat="50.0176224" lon="10.3840968">
                <ele>219.0</ele>
                <time>2020-08-22T17:24:49.000Z</time>
                <name>Trackpoint 9265</name>
            </trkpt>
            <trkpt lat="50.0176288" lon="10.3839632">
                <ele>219.0</ele>
                <time>2020-08-22T17:24:51.000Z</time>
                <name>Trackpoint 9266</name>
            </trkpt>
            <trkpt lat="50.0176352" lon="10.3838304">
                <ele>219.0</ele>
                <time>2020-08-22T17:24:53.000Z</time>
                <name>Trackpoint 9267</name>
            </trkpt>
            <trkpt lat="50.0176416" lon="10.3836936">
                <ele>219.0</ele>
                <time>2020-08-22T17:24:55.000Z</time>
                <name>Trackpoint 9268</name>
            </trkpt>
            <trkpt lat="50.017648" lon="10.3835632">
                <ele>219.0</ele>
                <time>2020-08-22T17:24:57.000Z</time>
                <name>Trackpoint 9269</name>
            </trkpt>
            <trkpt lat="50.0176544" lon="10.3834312">
                <ele>219.0</ele>
                <time>2020-08-22T17:24:59.000Z</time>
                <name>Trackpoint 9270</name>
            </trkpt>
            <trkpt lat="50.0176608" lon="10.3833016">
                <ele>219.0</ele>
                <time>2020-08-22T17:25:01.000Z</time>
                <name>Trackpoint 9271</name>
            </trkpt>
            <trkpt lat="50.0176672" lon="10.3831704">
                <ele>219.0</ele>
                <time>2020-08-22T17:25:03.000Z</time>
                <name>Trackpoint 9272</name>
            </trkpt>
            <trkpt lat="50.0176672" lon="10.3830408">
                <ele>219.0</ele>
                <time>2020-08-22T17:25:05.000Z</time>
                <name>Trackpoint 9273</name>
            </trkpt>
            <trkpt lat="50.0176736" lon="10.382912">
                <ele>219.0</ele>
                <time>2020-08-22T17:25:07.000Z</time>
                <name>Trackpoint 9274</name>
            </trkpt>
            <trkpt lat="50.01768" lon="10.3827832">
                <ele>219.0</ele>
                <time>2020-08-22T17:25:09.000Z</time>
                <name>Trackpoint 9275</name>
            </trkpt>
            <trkpt lat="50.0176896" lon="10.3826616">
                <ele>219.0</ele>
                <time>2020-08-22T17:25:11.000Z</time>
                <name>Trackpoint 9276</name>
            </trkpt>
            <trkpt lat="50.0176928" lon="10.3825432">
                <ele>219.0</ele>
                <time>2020-08-22T17:25:13.000Z</time>
                <name>Trackpoint 9277</name>
            </trkpt>
            <trkpt lat="50.0176992" lon="10.3824264">
                <ele>220.0</ele>
                <time>2020-08-22T17:25:15.000Z</time>
                <name>Trackpoint 9278</name>
            </trkpt>
            <trkpt lat="50.0177056" lon="10.382308">
                <ele>221.0</ele>
                <time>2020-08-22T17:25:17.000Z</time>
                <name>Trackpoint 9279</name>
            </trkpt>
            <trkpt lat="50.017712" lon="10.382192">
                <ele>221.0</ele>
                <time>2020-08-22T17:25:19.000Z</time>
                <name>Trackpoint 9280</name>
            </trkpt>
            <trkpt lat="50.0177184" lon="10.382076">
                <ele>221.0</ele>
                <time>2020-08-22T17:25:21.000Z</time>
                <name>Trackpoint 9281</name>
            </trkpt>
            <trkpt lat="50.0177216" lon="10.3819584">
                <ele>221.0</ele>
                <time>2020-08-22T17:25:23.000Z</time>
                <name>Trackpoint 9282</name>
            </trkpt>
            <trkpt lat="50.017728" lon="10.381848">
                <ele>221.0</ele>
                <time>2020-08-22T17:25:25.000Z</time>
                <name>Trackpoint 9283</name>
            </trkpt>
            <trkpt lat="50.017728" lon="10.3817456">
                <ele>221.0</ele>
                <time>2020-08-22T17:25:27.000Z</time>
                <name>Trackpoint 9284</name>
            </trkpt>
            <trkpt lat="50.0176928" lon="10.3816536">
                <ele>221.0</ele>
                <time>2020-08-22T17:25:29.000Z</time>
                <name>Trackpoint 9285</name>
            </trkpt>
            <trkpt lat="50.0176288" lon="10.3815816">
                <ele>221.0</ele>
                <time>2020-08-22T17:25:32.000Z</time>
                <name>Trackpoint 9286</name>
            </trkpt>
            <trkpt lat="50.0175872" lon="10.3814624">
                <ele>221.0</ele>
                <time>2020-08-22T17:25:35.000Z</time>
                <name>Trackpoint 9287</name>
            </trkpt>
            <trkpt lat="50.0175904" lon="10.38134">
                <ele>221.0</ele>
                <time>2020-08-22T17:25:37.000Z</time>
                <name>Trackpoint 9288</name>
            </trkpt>
            <trkpt lat="50.0175968" lon="10.3812152">
                <ele>221.0</ele>
                <time>2020-08-22T17:25:39.000Z</time>
                <name>Trackpoint 9289</name>
            </trkpt>
            <trkpt lat="50.0176064" lon="10.3810952">
                <ele>221.0</ele>
                <time>2020-08-22T17:25:41.000Z</time>
                <name>Trackpoint 9290</name>
            </trkpt>
            <trkpt lat="50.0176096" lon="10.3809728">
                <ele>221.0</ele>
                <time>2020-08-22T17:25:43.000Z</time>
                <name>Trackpoint 9291</name>
            </trkpt>
            <trkpt lat="50.0176192" lon="10.3808536">
                <ele>221.0</ele>
                <time>2020-08-22T17:25:45.000Z</time>
                <name>Trackpoint 9292</name>
            </trkpt>
            <trkpt lat="50.0176224" lon="10.380736">
                <ele>221.0</ele>
                <time>2020-08-22T17:25:47.000Z</time>
                <name>Trackpoint 9293</name>
            </trkpt>
            <trkpt lat="50.0176288" lon="10.3806112">
                <ele>221.0</ele>
                <time>2020-08-22T17:25:49.000Z</time>
                <name>Trackpoint 9294</name>
            </trkpt>
            <trkpt lat="50.017632" lon="10.3804848">
                <ele>221.0</ele>
                <time>2020-08-22T17:25:51.000Z</time>
                <name>Trackpoint 9295</name>
            </trkpt>
            <trkpt lat="50.0176352" lon="10.3803704">
                <ele>221.0</ele>
                <time>2020-08-22T17:25:53.000Z</time>
                <name>Trackpoint 9296</name>
            </trkpt>
            <trkpt lat="50.0176512" lon="10.3802416">
                <ele>220.0</ele>
                <time>2020-08-22T17:25:55.000Z</time>
                <name>Trackpoint 9297</name>
            </trkpt>
            <trkpt lat="50.0176544" lon="10.3801032">
                <ele>220.0</ele>
                <time>2020-08-22T17:25:57.000Z</time>
                <name>Trackpoint 9298</name>
            </trkpt>
            <trkpt lat="50.0176576" lon="10.3799816">
                <ele>220.0</ele>
                <time>2020-08-22T17:25:59.000Z</time>
                <name>Trackpoint 9299</name>
            </trkpt>
            <trkpt lat="50.0176576" lon="10.37988">
                <ele>220.0</ele>
                <time>2020-08-22T17:26:01.000Z</time>
                <name>Trackpoint 9300</name>
            </trkpt>
            <trkpt lat="50.0176576" lon="10.3797768">
                <ele>220.0</ele>
                <time>2020-08-22T17:26:03.000Z</time>
                <name>Trackpoint 9301</name>
            </trkpt>
            <trkpt lat="50.0176384" lon="10.3796856">
                <ele>220.0</ele>
                <time>2020-08-22T17:26:05.000Z</time>
                <name>Trackpoint 9302</name>
            </trkpt>
            <trkpt lat="50.0176064" lon="10.3795928">
                <ele>220.0</ele>
                <time>2020-08-22T17:26:07.000Z</time>
                <name>Trackpoint 9303</name>
            </trkpt>
            <trkpt lat="50.0175616" lon="10.3794672">
                <ele>220.0</ele>
                <time>2020-08-22T17:26:10.000Z</time>
                <name>Trackpoint 9304</name>
            </trkpt>
            <trkpt lat="50.0175392" lon="10.3793432">
                <ele>220.0</ele>
                <time>2020-08-22T17:26:13.000Z</time>
                <name>Trackpoint 9305</name>
            </trkpt>
            <trkpt lat="50.0175488" lon="10.3792088">
                <ele>221.0</ele>
                <time>2020-08-22T17:26:16.000Z</time>
                <name>Trackpoint 9306</name>
            </trkpt>
            <trkpt lat="50.0175392" lon="10.3790712">
                <ele>222.0</ele>
                <time>2020-08-22T17:26:19.000Z</time>
                <name>Trackpoint 9307</name>
            </trkpt>
            <trkpt lat="50.0175488" lon="10.378972">
                <ele>222.0</ele>
                <time>2020-08-22T17:26:21.000Z</time>
                <name>Trackpoint 9308</name>
            </trkpt>
            <trkpt lat="50.0175392" lon="10.3788728">
                <ele>223.0</ele>
                <time>2020-08-22T17:26:24.000Z</time>
                <name>Trackpoint 9309</name>
            </trkpt>
            <trkpt lat="50.0175744" lon="10.3787832">
                <ele>220.0</ele>
                <time>2020-08-22T17:32:59.000Z</time>
                <name>Trackpoint 9310</name>
            </trkpt>
            <trkpt lat="50.0175712" lon="10.3786552">
                <ele>220.0</ele>
                <time>2020-08-22T17:33:04.000Z</time>
                <name>Trackpoint 9311</name>
            </trkpt>
            <trkpt lat="50.0175808" lon="10.3785152">
                <ele>220.0</ele>
                <time>2020-08-22T17:33:07.000Z</time>
                <name>Trackpoint 9312</name>
            </trkpt>
            <trkpt lat="50.0175776" lon="10.3783888">
                <ele>220.0</ele>
                <time>2020-08-22T17:33:10.000Z</time>
                <name>Trackpoint 9313</name>
            </trkpt>
            <trkpt lat="50.0175744" lon="10.3782864">
                <ele>220.0</ele>
                <time>2020-08-22T17:33:12.000Z</time>
                <name>Trackpoint 9314</name>
            </trkpt>
            <trkpt lat="50.0175776" lon="10.3781792">
                <ele>220.0</ele>
                <time>2020-08-22T17:33:14.000Z</time>
                <name>Trackpoint 9315</name>
            </trkpt>
            <trkpt lat="50.0175776" lon="10.3780568">
                <ele>220.0</ele>
                <time>2020-08-22T17:33:16.000Z</time>
                <name>Trackpoint 9316</name>
            </trkpt>
            <trkpt lat="50.0175936" lon="10.3779296">
                <ele>220.0</ele>
                <time>2020-08-22T17:33:18.000Z</time>
                <name>Trackpoint 9317</name>
            </trkpt>
            <trkpt lat="50.0175968" lon="10.3777984">
                <ele>220.0</ele>
                <time>2020-08-22T17:33:21.000Z</time>
                <name>Trackpoint 9318</name>
            </trkpt>
            <trkpt lat="50.0175936" lon="10.3776968">
                <ele>220.0</ele>
                <time>2020-08-22T17:33:23.000Z</time>
                <name>Trackpoint 9319</name>
            </trkpt>
            <trkpt lat="50.0175936" lon="10.37758">
                <ele>220.0</ele>
                <time>2020-08-22T17:33:26.000Z</time>
                <name>Trackpoint 9320</name>
            </trkpt>
            <trkpt lat="50.0175872" lon="10.377472">
                <ele>220.0</ele>
                <time>2020-08-22T17:33:28.000Z</time>
                <name>Trackpoint 9321</name>
            </trkpt>
            <trkpt lat="50.0176064" lon="10.3773472">
                <ele>220.0</ele>
                <time>2020-08-22T17:33:30.000Z</time>
                <name>Trackpoint 9322</name>
            </trkpt>
            <trkpt lat="50.0176288" lon="10.3772112">
                <ele>220.0</ele>
                <time>2020-08-22T17:33:32.000Z</time>
                <name>Trackpoint 9323</name>
            </trkpt>
            <trkpt lat="50.0176736" lon="10.3770784">
                <ele>220.0</ele>
                <time>2020-08-22T17:33:34.000Z</time>
                <name>Trackpoint 9324</name>
            </trkpt>
            <trkpt lat="50.0177664" lon="10.3769352">
                <ele>220.0</ele>
                <time>2020-08-22T17:33:36.000Z</time>
                <name>Trackpoint 9325</name>
            </trkpt>
            <trkpt lat="50.0178464" lon="10.3768464">
                <ele>220.0</ele>
                <time>2020-08-22T17:33:38.000Z</time>
                <name>Trackpoint 9326</name>
            </trkpt>
            <trkpt lat="50.0179008" lon="10.376728">
                <ele>219.0</ele>
                <time>2020-08-22T17:33:40.000Z</time>
                <name>Trackpoint 9327</name>
            </trkpt>
            <trkpt lat="50.0179328" lon="10.3765688">
                <ele>217.0</ele>
                <time>2020-08-22T17:33:42.000Z</time>
                <name>Trackpoint 9328</name>
            </trkpt>
            <trkpt lat="50.017936" lon="10.3763848">
                <ele>218.0</ele>
                <time>2020-08-22T17:33:44.000Z</time>
                <name>Trackpoint 9329</name>
            </trkpt>
            <trkpt lat="50.0179456" lon="10.3762032">
                <ele>218.0</ele>
                <time>2020-08-22T17:33:46.000Z</time>
                <name>Trackpoint 9330</name>
            </trkpt>
            <trkpt lat="50.017952" lon="10.3761056">
                <ele>218.0</ele>
                <time>2020-08-22T17:33:47.000Z</time>
                <name>Trackpoint 9331</name>
            </trkpt>
            <trkpt lat="50.0179552" lon="10.3760016">
                <ele>218.0</ele>
                <time>2020-08-22T17:33:48.000Z</time>
                <name>Trackpoint 9332</name>
            </trkpt>
            <trkpt lat="50.0179648" lon="10.3759016">
                <ele>218.0</ele>
                <time>2020-08-22T17:33:49.000Z</time>
                <name>Trackpoint 9333</name>
            </trkpt>
            <trkpt lat="50.0179712" lon="10.3758048">
                <ele>217.0</ele>
                <time>2020-08-22T17:33:50.000Z</time>
                <name>Trackpoint 9334</name>
            </trkpt>
            <trkpt lat="50.017984" lon="10.3757152">
                <ele>217.0</ele>
                <time>2020-08-22T17:33:51.000Z</time>
                <name>Trackpoint 9335</name>
            </trkpt>
            <trkpt lat="50.0179872" lon="10.3756176">
                <ele>217.0</ele>
                <time>2020-08-22T17:33:52.000Z</time>
                <name>Trackpoint 9336</name>
            </trkpt>
            <trkpt lat="50.0179872" lon="10.3755256">
                <ele>217.0</ele>
                <time>2020-08-22T17:33:53.000Z</time>
                <name>Trackpoint 9337</name>
            </trkpt>
            <trkpt lat="50.0179872" lon="10.375432">
                <ele>217.0</ele>
                <time>2020-08-22T17:33:54.000Z</time>
                <name>Trackpoint 9338</name>
            </trkpt>
            <trkpt lat="50.0179904" lon="10.375252">
                <ele>217.0</ele>
                <time>2020-08-22T17:33:56.000Z</time>
                <name>Trackpoint 9339</name>
            </trkpt>
            <trkpt lat="50.0179968" lon="10.37516">
                <ele>217.0</ele>
                <time>2020-08-22T17:33:57.000Z</time>
                <name>Trackpoint 9340</name>
            </trkpt>
            <trkpt lat="50.0180064" lon="10.3749912">
                <ele>216.0</ele>
                <time>2020-08-22T17:33:59.000Z</time>
                <name>Trackpoint 9341</name>
            </trkpt>
            <trkpt lat="50.0180128" lon="10.3748312">
                <ele>216.0</ele>
                <time>2020-08-22T17:34:01.000Z</time>
                <name>Trackpoint 9342</name>
            </trkpt>
            <trkpt lat="50.018016" lon="10.3746728">
                <ele>216.0</ele>
                <time>2020-08-22T17:34:03.000Z</time>
                <name>Trackpoint 9343</name>
            </trkpt>
            <trkpt lat="50.018016" lon="10.374508">
                <ele>216.0</ele>
                <time>2020-08-22T17:34:05.000Z</time>
                <name>Trackpoint 9344</name>
            </trkpt>
            <trkpt lat="50.018" lon="10.3743432">
                <ele>215.0</ele>
                <time>2020-08-22T17:34:07.000Z</time>
                <name>Trackpoint 9345</name>
            </trkpt>
            <trkpt lat="50.0180064" lon="10.3741976">
                <ele>215.0</ele>
                <time>2020-08-22T17:34:09.000Z</time>
                <name>Trackpoint 9346</name>
            </trkpt>
            <trkpt lat="50.0180128" lon="10.3740504">
                <ele>215.0</ele>
                <time>2020-08-22T17:34:11.000Z</time>
                <name>Trackpoint 9347</name>
            </trkpt>
            <trkpt lat="50.0180128" lon="10.373908">
                <ele>215.0</ele>
                <time>2020-08-22T17:34:13.000Z</time>
                <name>Trackpoint 9348</name>
            </trkpt>
            <trkpt lat="50.0180128" lon="10.3737688">
                <ele>215.0</ele>
                <time>2020-08-22T17:34:15.000Z</time>
                <name>Trackpoint 9349</name>
            </trkpt>
            <trkpt lat="50.0180128" lon="10.3736416">
                <ele>215.0</ele>
                <time>2020-08-22T17:34:17.000Z</time>
                <name>Trackpoint 9350</name>
            </trkpt>
            <trkpt lat="50.0180096" lon="10.3735248">
                <ele>215.0</ele>
                <time>2020-08-22T17:34:19.000Z</time>
                <name>Trackpoint 9351</name>
            </trkpt>
            <trkpt lat="50.0179968" lon="10.3734216">
                <ele>215.0</ele>
                <time>2020-08-22T17:34:21.000Z</time>
                <name>Trackpoint 9352</name>
            </trkpt>
            <trkpt lat="50.0179968" lon="10.3733032">
                <ele>215.0</ele>
                <time>2020-08-22T17:34:24.000Z</time>
                <name>Trackpoint 9353</name>
            </trkpt>
            <trkpt lat="50.018" lon="10.3732048">
                <ele>215.0</ele>
                <time>2020-08-22T17:34:26.000Z</time>
                <name>Trackpoint 9354</name>
            </trkpt>
            <trkpt lat="50.018" lon="10.3730696">
                <ele>215.0</ele>
                <time>2020-08-22T17:34:28.000Z</time>
                <name>Trackpoint 9355</name>
            </trkpt>
            <trkpt lat="50.0180096" lon="10.37296">
                <ele>214.0</ele>
                <time>2020-08-22T17:34:30.000Z</time>
                <name>Trackpoint 9356</name>
            </trkpt>
            <trkpt lat="50.0180192" lon="10.3728512">
                <ele>214.0</ele>
                <time>2020-08-22T17:34:32.000Z</time>
                <name>Trackpoint 9357</name>
            </trkpt>
            <trkpt lat="50.0180288" lon="10.3727328">
                <ele>214.0</ele>
                <time>2020-08-22T17:34:34.000Z</time>
                <name>Trackpoint 9358</name>
            </trkpt>
            <trkpt lat="50.018032" lon="10.3726152">
                <ele>214.0</ele>
                <time>2020-08-22T17:34:36.000Z</time>
                <name>Trackpoint 9359</name>
            </trkpt>
            <trkpt lat="50.018032" lon="10.3725032">
                <ele>214.0</ele>
                <time>2020-08-22T17:34:38.000Z</time>
                <name>Trackpoint 9360</name>
            </trkpt>
            <trkpt lat="50.0180256" lon="10.3723744">
                <ele>214.0</ele>
                <time>2020-08-22T17:34:40.000Z</time>
                <name>Trackpoint 9361</name>
            </trkpt>
            <trkpt lat="50.0180288" lon="10.3722448">
                <ele>214.0</ele>
                <time>2020-08-22T17:34:42.000Z</time>
                <name>Trackpoint 9362</name>
            </trkpt>
            <trkpt lat="50.018032" lon="10.3721104">
                <ele>214.0</ele>
                <time>2020-08-22T17:34:44.000Z</time>
                <name>Trackpoint 9363</name>
            </trkpt>
            <trkpt lat="50.0180352" lon="10.3719704">
                <ele>214.0</ele>
                <time>2020-08-22T17:34:46.000Z</time>
                <name>Trackpoint 9364</name>
            </trkpt>
            <trkpt lat="50.0180352" lon="10.3718216">
                <ele>214.0</ele>
                <time>2020-08-22T17:34:48.000Z</time>
                <name>Trackpoint 9365</name>
            </trkpt>
            <trkpt lat="50.0180352" lon="10.3716624">
                <ele>214.0</ele>
                <time>2020-08-22T17:34:50.000Z</time>
                <name>Trackpoint 9366</name>
            </trkpt>
            <trkpt lat="50.0180448" lon="10.371516">
                <ele>214.0</ele>
                <time>2020-08-22T17:34:52.000Z</time>
                <name>Trackpoint 9367</name>
            </trkpt>
            <trkpt lat="50.0180384" lon="10.3713688">
                <ele>214.0</ele>
                <time>2020-08-22T17:34:54.000Z</time>
                <name>Trackpoint 9368</name>
            </trkpt>
            <trkpt lat="50.0180384" lon="10.37124">
                <ele>214.0</ele>
                <time>2020-08-22T17:34:56.000Z</time>
                <name>Trackpoint 9369</name>
            </trkpt>
            <trkpt lat="50.0180448" lon="10.3711216">
                <ele>214.0</ele>
                <time>2020-08-22T17:34:58.000Z</time>
                <name>Trackpoint 9370</name>
            </trkpt>
            <trkpt lat="50.0180384" lon="10.370988">
                <ele>214.0</ele>
                <time>2020-08-22T17:35:00.000Z</time>
                <name>Trackpoint 9371</name>
            </trkpt>
            <trkpt lat="50.0180448" lon="10.3708448">
                <ele>214.0</ele>
                <time>2020-08-22T17:35:02.000Z</time>
                <name>Trackpoint 9372</name>
            </trkpt>
            <trkpt lat="50.0180544" lon="10.3707112">
                <ele>214.0</ele>
                <time>2020-08-22T17:35:04.000Z</time>
                <name>Trackpoint 9373</name>
            </trkpt>
            <trkpt lat="50.018064" lon="10.3705656">
                <ele>214.0</ele>
                <time>2020-08-22T17:35:06.000Z</time>
                <name>Trackpoint 9374</name>
            </trkpt>
            <trkpt lat="50.0180768" lon="10.3704144">
                <ele>214.0</ele>
                <time>2020-08-22T17:35:08.000Z</time>
                <name>Trackpoint 9375</name>
            </trkpt>
            <trkpt lat="50.0181312" lon="10.3703144">
                <ele>214.0</ele>
                <time>2020-08-22T17:35:10.000Z</time>
                <name>Trackpoint 9376</name>
            </trkpt>
            <trkpt lat="50.0181888" lon="10.3702048">
                <ele>214.0</ele>
                <time>2020-08-22T17:35:12.000Z</time>
                <name>Trackpoint 9377</name>
            </trkpt>
            <trkpt lat="50.0182144" lon="10.37008">
                <ele>214.0</ele>
                <time>2020-08-22T17:35:14.000Z</time>
                <name>Trackpoint 9378</name>
            </trkpt>
            <trkpt lat="50.0182368" lon="10.3699888">
                <ele>214.0</ele>
                <time>2020-08-22T17:35:16.000Z</time>
                <name>Trackpoint 9379</name>
            </trkpt>
            <trkpt lat="50.0182496" lon="10.3698704">
                <ele>214.0</ele>
                <time>2020-08-22T17:35:18.000Z</time>
                <name>Trackpoint 9380</name>
            </trkpt>
            <trkpt lat="50.018256" lon="10.3697456">
                <ele>214.0</ele>
                <time>2020-08-22T17:35:20.000Z</time>
                <name>Trackpoint 9381</name>
            </trkpt>
            <trkpt lat="50.0182656" lon="10.3696144">
                <ele>214.0</ele>
                <time>2020-08-22T17:35:22.000Z</time>
                <name>Trackpoint 9382</name>
            </trkpt>
            <trkpt lat="50.0182688" lon="10.3694824">
                <ele>214.0</ele>
                <time>2020-08-22T17:35:24.000Z</time>
                <name>Trackpoint 9383</name>
            </trkpt>
            <trkpt lat="50.018272" lon="10.3693416">
                <ele>214.0</ele>
                <time>2020-08-22T17:35:26.000Z</time>
                <name>Trackpoint 9384</name>
            </trkpt>
            <trkpt lat="50.0182752" lon="10.3692032">
                <ele>214.0</ele>
                <time>2020-08-22T17:35:28.000Z</time>
                <name>Trackpoint 9385</name>
            </trkpt>
            <trkpt lat="50.0182752" lon="10.3690704">
                <ele>214.0</ele>
                <time>2020-08-22T17:35:30.000Z</time>
                <name>Trackpoint 9386</name>
            </trkpt>
            <trkpt lat="50.0182752" lon="10.368932">
                <ele>214.0</ele>
                <time>2020-08-22T17:35:32.000Z</time>
                <name>Trackpoint 9387</name>
            </trkpt>
            <trkpt lat="50.0182816" lon="10.3688">
                <ele>214.0</ele>
                <time>2020-08-22T17:35:34.000Z</time>
                <name>Trackpoint 9388</name>
            </trkpt>
            <trkpt lat="50.018288" lon="10.3686512">
                <ele>214.0</ele>
                <time>2020-08-22T17:35:36.000Z</time>
                <name>Trackpoint 9389</name>
            </trkpt>
            <trkpt lat="50.018288" lon="10.368492">
                <ele>214.0</ele>
                <time>2020-08-22T17:35:38.000Z</time>
                <name>Trackpoint 9390</name>
            </trkpt>
            <trkpt lat="50.0182912" lon="10.3683528">
                <ele>213.0</ele>
                <time>2020-08-22T17:35:40.000Z</time>
                <name>Trackpoint 9391</name>
            </trkpt>
            <trkpt lat="50.0182976" lon="10.3682072">
                <ele>214.0</ele>
                <time>2020-08-22T17:35:42.000Z</time>
                <name>Trackpoint 9392</name>
            </trkpt>
            <trkpt lat="50.0183072" lon="10.3680648">
                <ele>214.0</ele>
                <time>2020-08-22T17:35:44.000Z</time>
                <name>Trackpoint 9393</name>
            </trkpt>
            <trkpt lat="50.0183136" lon="10.3679248">
                <ele>214.0</ele>
                <time>2020-08-22T17:35:46.000Z</time>
                <name>Trackpoint 9394</name>
            </trkpt>
            <trkpt lat="50.0183264" lon="10.3678048">
                <ele>214.0</ele>
                <time>2020-08-22T17:35:48.000Z</time>
                <name>Trackpoint 9395</name>
            </trkpt>
            <trkpt lat="50.0183264" lon="10.3676864">
                <ele>214.0</ele>
                <time>2020-08-22T17:35:50.000Z</time>
                <name>Trackpoint 9396</name>
            </trkpt>
            <trkpt lat="50.0183232" lon="10.367552">
                <ele>214.0</ele>
                <time>2020-08-22T17:35:52.000Z</time>
                <name>Trackpoint 9397</name>
            </trkpt>
            <trkpt lat="50.0183072" lon="10.3674096">
                <ele>213.0</ele>
                <time>2020-08-22T17:35:54.000Z</time>
                <name>Trackpoint 9398</name>
            </trkpt>
            <trkpt lat="50.018288" lon="10.3672648">
                <ele>213.0</ele>
                <time>2020-08-22T17:35:56.000Z</time>
                <name>Trackpoint 9399</name>
            </trkpt>
            <trkpt lat="50.0182656" lon="10.3671176">
                <ele>213.0</ele>
                <time>2020-08-22T17:35:58.000Z</time>
                <name>Trackpoint 9400</name>
            </trkpt>
            <trkpt lat="50.0182432" lon="10.3669664">
                <ele>213.0</ele>
                <time>2020-08-22T17:36:00.000Z</time>
                <name>Trackpoint 9401</name>
            </trkpt>
            <trkpt lat="50.0182144" lon="10.3668144">
                <ele>213.0</ele>
                <time>2020-08-22T17:36:02.000Z</time>
                <name>Trackpoint 9402</name>
            </trkpt>
            <trkpt lat="50.0181888" lon="10.3666736">
                <ele>212.0</ele>
                <time>2020-08-22T17:36:04.000Z</time>
                <name>Trackpoint 9403</name>
            </trkpt>
            <trkpt lat="50.0181632" lon="10.3665264">
                <ele>213.0</ele>
                <time>2020-08-22T17:36:06.000Z</time>
                <name>Trackpoint 9404</name>
            </trkpt>
            <trkpt lat="50.0181312" lon="10.3663856">
                <ele>213.0</ele>
                <time>2020-08-22T17:36:08.000Z</time>
                <name>Trackpoint 9405</name>
            </trkpt>
            <trkpt lat="50.0180992" lon="10.3662368">
                <ele>214.0</ele>
                <time>2020-08-22T17:36:10.000Z</time>
                <name>Trackpoint 9406</name>
            </trkpt>
            <trkpt lat="50.0181056" lon="10.3660896">
                <ele>213.0</ele>
                <time>2020-08-22T17:36:12.000Z</time>
                <name>Trackpoint 9407</name>
            </trkpt>
            <trkpt lat="50.018096" lon="10.3659696">
                <ele>213.0</ele>
                <time>2020-08-22T17:36:14.000Z</time>
                <name>Trackpoint 9408</name>
            </trkpt>
            <trkpt lat="50.0181088" lon="10.3658704">
                <ele>213.0</ele>
                <time>2020-08-22T17:36:16.000Z</time>
                <name>Trackpoint 9409</name>
            </trkpt>
            <trkpt lat="50.018128" lon="10.3657752">
                <ele>214.0</ele>
                <time>2020-08-22T17:36:18.000Z</time>
                <name>Trackpoint 9410</name>
            </trkpt>
            <trkpt lat="50.0181632" lon="10.3656832">
                <ele>214.0</ele>
                <time>2020-08-22T17:36:20.000Z</time>
                <name>Trackpoint 9411</name>
            </trkpt>
            <trkpt lat="50.0181984" lon="10.3655968">
                <ele>214.0</ele>
                <time>2020-08-22T17:36:22.000Z</time>
                <name>Trackpoint 9412</name>
            </trkpt>
            <trkpt lat="50.0182304" lon="10.3655096">
                <ele>214.0</ele>
                <time>2020-08-22T17:36:24.000Z</time>
                <name>Trackpoint 9413</name>
            </trkpt>
            <trkpt lat="50.018256" lon="10.365408">
                <ele>214.0</ele>
                <time>2020-08-22T17:36:26.000Z</time>
                <name>Trackpoint 9414</name>
            </trkpt>
            <trkpt lat="50.0182752" lon="10.3653048">
                <ele>214.0</ele>
                <time>2020-08-22T17:36:28.000Z</time>
                <name>Trackpoint 9415</name>
            </trkpt>
            <trkpt lat="50.0182976" lon="10.3652">
                <ele>214.0</ele>
                <time>2020-08-22T17:36:30.000Z</time>
                <name>Trackpoint 9416</name>
            </trkpt>
            <trkpt lat="50.0183296" lon="10.3650952">
                <ele>215.0</ele>
                <time>2020-08-22T17:36:32.000Z</time>
                <name>Trackpoint 9417</name>
            </trkpt>
            <trkpt lat="50.0183552" lon="10.365">
                <ele>216.0</ele>
                <time>2020-08-22T17:36:34.000Z</time>
                <name>Trackpoint 9418</name>
            </trkpt>
            <trkpt lat="50.0183744" lon="10.3648984">
                <ele>215.0</ele>
                <time>2020-08-22T17:36:36.000Z</time>
                <name>Trackpoint 9419</name>
            </trkpt>
            <trkpt lat="50.0183968" lon="10.364788">
                <ele>215.0</ele>
                <time>2020-08-22T17:36:38.000Z</time>
                <name>Trackpoint 9420</name>
            </trkpt>
            <trkpt lat="50.0184256" lon="10.3646736">
                <ele>215.0</ele>
                <time>2020-08-22T17:36:40.000Z</time>
                <name>Trackpoint 9421</name>
            </trkpt>
            <trkpt lat="50.0184352" lon="10.3645512">
                <ele>215.0</ele>
                <time>2020-08-22T17:36:42.000Z</time>
                <name>Trackpoint 9422</name>
            </trkpt>
            <trkpt lat="50.0184448" lon="10.3644288">
                <ele>215.0</ele>
                <time>2020-08-22T17:36:44.000Z</time>
                <name>Trackpoint 9423</name>
            </trkpt>
            <trkpt lat="50.0184512" lon="10.3643104">
                <ele>215.0</ele>
                <time>2020-08-22T17:36:46.000Z</time>
                <name>Trackpoint 9424</name>
            </trkpt>
            <trkpt lat="50.0184608" lon="10.3641952">
                <ele>215.0</ele>
                <time>2020-08-22T17:36:48.000Z</time>
                <name>Trackpoint 9425</name>
            </trkpt>
            <trkpt lat="50.018464" lon="10.3640808">
                <ele>216.0</ele>
                <time>2020-08-22T17:36:50.000Z</time>
                <name>Trackpoint 9426</name>
            </trkpt>
            <trkpt lat="50.0184736" lon="10.3639616">
                <ele>216.0</ele>
                <time>2020-08-22T17:36:52.000Z</time>
                <name>Trackpoint 9427</name>
            </trkpt>
            <trkpt lat="50.0184736" lon="10.363836">
                <ele>217.0</ele>
                <time>2020-08-22T17:36:54.000Z</time>
                <name>Trackpoint 9428</name>
            </trkpt>
            <trkpt lat="50.0184768" lon="10.3637088">
                <ele>217.0</ele>
                <time>2020-08-22T17:36:56.000Z</time>
                <name>Trackpoint 9429</name>
            </trkpt>
            <trkpt lat="50.0184864" lon="10.3635832">
                <ele>217.0</ele>
                <time>2020-08-22T17:36:58.000Z</time>
                <name>Trackpoint 9430</name>
            </trkpt>
            <trkpt lat="50.0184864" lon="10.3634568">
                <ele>217.0</ele>
                <time>2020-08-22T17:37:00.000Z</time>
                <name>Trackpoint 9431</name>
            </trkpt>
            <trkpt lat="50.0184896" lon="10.3633344">
                <ele>217.0</ele>
                <time>2020-08-22T17:37:02.000Z</time>
                <name>Trackpoint 9432</name>
            </trkpt>
            <trkpt lat="50.0184928" lon="10.3632232">
                <ele>217.0</ele>
                <time>2020-08-22T17:37:04.000Z</time>
                <name>Trackpoint 9433</name>
            </trkpt>
            <trkpt lat="50.0185024" lon="10.3631032">
                <ele>217.0</ele>
                <time>2020-08-22T17:37:06.000Z</time>
                <name>Trackpoint 9434</name>
            </trkpt>
            <trkpt lat="50.0185056" lon="10.3629776">
                <ele>217.0</ele>
                <time>2020-08-22T17:37:08.000Z</time>
                <name>Trackpoint 9435</name>
            </trkpt>
            <trkpt lat="50.018512" lon="10.3628552">
                <ele>216.0</ele>
                <time>2020-08-22T17:37:10.000Z</time>
                <name>Trackpoint 9436</name>
            </trkpt>
            <trkpt lat="50.0185216" lon="10.3627328">
                <ele>216.0</ele>
                <time>2020-08-22T17:37:12.000Z</time>
                <name>Trackpoint 9437</name>
            </trkpt>
            <trkpt lat="50.0185312" lon="10.3626096">
                <ele>216.0</ele>
                <time>2020-08-22T17:37:14.000Z</time>
                <name>Trackpoint 9438</name>
            </trkpt>
            <trkpt lat="50.0185472" lon="10.3624832">
                <ele>216.0</ele>
                <time>2020-08-22T17:37:16.000Z</time>
                <name>Trackpoint 9439</name>
            </trkpt>
            <trkpt lat="50.0185664" lon="10.3623616">
                <ele>216.0</ele>
                <time>2020-08-22T17:37:18.000Z</time>
                <name>Trackpoint 9440</name>
            </trkpt>
            <trkpt lat="50.0185856" lon="10.3622312">
                <ele>216.0</ele>
                <time>2020-08-22T17:37:20.000Z</time>
                <name>Trackpoint 9441</name>
            </trkpt>
            <trkpt lat="50.0185952" lon="10.3621056">
                <ele>216.0</ele>
                <time>2020-08-22T17:37:22.000Z</time>
                <name>Trackpoint 9442</name>
            </trkpt>
            <trkpt lat="50.018608" lon="10.3619784">
                <ele>216.0</ele>
                <time>2020-08-22T17:37:24.000Z</time>
                <name>Trackpoint 9443</name>
            </trkpt>
            <trkpt lat="50.0186304" lon="10.361852">
                <ele>216.0</ele>
                <time>2020-08-22T17:37:26.000Z</time>
                <name>Trackpoint 9444</name>
            </trkpt>
            <trkpt lat="50.0186464" lon="10.3617248">
                <ele>215.0</ele>
                <time>2020-08-22T17:37:28.000Z</time>
                <name>Trackpoint 9445</name>
            </trkpt>
            <trkpt lat="50.0186656" lon="10.3615984">
                <ele>215.0</ele>
                <time>2020-08-22T17:37:30.000Z</time>
                <name>Trackpoint 9446</name>
            </trkpt>
            <trkpt lat="50.0186848" lon="10.3614704">
                <ele>215.0</ele>
                <time>2020-08-22T17:37:32.000Z</time>
                <name>Trackpoint 9447</name>
            </trkpt>
            <trkpt lat="50.0187008" lon="10.3613392">
                <ele>215.0</ele>
                <time>2020-08-22T17:37:34.000Z</time>
                <name>Trackpoint 9448</name>
            </trkpt>
            <trkpt lat="50.0187136" lon="10.3612096">
                <ele>215.0</ele>
                <time>2020-08-22T17:37:36.000Z</time>
                <name>Trackpoint 9449</name>
            </trkpt>
            <trkpt lat="50.0187328" lon="10.3610848">
                <ele>216.0</ele>
                <time>2020-08-22T17:37:38.000Z</time>
                <name>Trackpoint 9450</name>
            </trkpt>
            <trkpt lat="50.0187488" lon="10.3609552">
                <ele>216.0</ele>
                <time>2020-08-22T17:37:40.000Z</time>
                <name>Trackpoint 9451</name>
            </trkpt>
            <trkpt lat="50.0187648" lon="10.3608248">
                <ele>216.0</ele>
                <time>2020-08-22T17:37:42.000Z</time>
                <name>Trackpoint 9452</name>
            </trkpt>
            <trkpt lat="50.0187808" lon="10.360688">
                <ele>215.0</ele>
                <time>2020-08-22T17:37:44.000Z</time>
                <name>Trackpoint 9453</name>
            </trkpt>
            <trkpt lat="50.0187936" lon="10.3605568">
                <ele>215.0</ele>
                <time>2020-08-22T17:37:46.000Z</time>
                <name>Trackpoint 9454</name>
            </trkpt>
            <trkpt lat="50.0188128" lon="10.3604248">
                <ele>215.0</ele>
                <time>2020-08-22T17:37:48.000Z</time>
                <name>Trackpoint 9455</name>
            </trkpt>
            <trkpt lat="50.018832" lon="10.3602912">
                <ele>215.0</ele>
                <time>2020-08-22T17:37:50.000Z</time>
                <name>Trackpoint 9456</name>
            </trkpt>
            <trkpt lat="50.018848" lon="10.36016">
                <ele>215.0</ele>
                <time>2020-08-22T17:37:52.000Z</time>
                <name>Trackpoint 9457</name>
            </trkpt>
            <trkpt lat="50.0188608" lon="10.3600256">
                <ele>216.0</ele>
                <time>2020-08-22T17:37:54.000Z</time>
                <name>Trackpoint 9458</name>
            </trkpt>
            <trkpt lat="50.0188736" lon="10.359892">
                <ele>216.0</ele>
                <time>2020-08-22T17:37:56.000Z</time>
                <name>Trackpoint 9459</name>
            </trkpt>
            <trkpt lat="50.0188896" lon="10.35976">
                <ele>217.0</ele>
                <time>2020-08-22T17:37:58.000Z</time>
                <name>Trackpoint 9460</name>
            </trkpt>
            <trkpt lat="50.0189088" lon="10.3596264">
                <ele>217.0</ele>
                <time>2020-08-22T17:38:00.000Z</time>
                <name>Trackpoint 9461</name>
            </trkpt>
            <trkpt lat="50.018928" lon="10.3594936">
                <ele>216.0</ele>
                <time>2020-08-22T17:38:02.000Z</time>
                <name>Trackpoint 9462</name>
            </trkpt>
            <trkpt lat="50.0189472" lon="10.3593616">
                <ele>215.0</ele>
                <time>2020-08-22T17:38:04.000Z</time>
                <name>Trackpoint 9463</name>
            </trkpt>
            <trkpt lat="50.0189632" lon="10.3592328">
                <ele>215.0</ele>
                <time>2020-08-22T17:38:06.000Z</time>
                <name>Trackpoint 9464</name>
            </trkpt>
            <trkpt lat="50.0189792" lon="10.3591016">
                <ele>215.0</ele>
                <time>2020-08-22T17:38:08.000Z</time>
                <name>Trackpoint 9465</name>
            </trkpt>
            <trkpt lat="50.0190048" lon="10.35898">
                <ele>215.0</ele>
                <time>2020-08-22T17:38:10.000Z</time>
                <name>Trackpoint 9466</name>
            </trkpt>
            <trkpt lat="50.019024" lon="10.3588584">
                <ele>216.0</ele>
                <time>2020-08-22T17:38:12.000Z</time>
                <name>Trackpoint 9467</name>
            </trkpt>
            <trkpt lat="50.019056" lon="10.3587464">
                <ele>216.0</ele>
                <time>2020-08-22T17:38:14.000Z</time>
                <name>Trackpoint 9468</name>
            </trkpt>
            <trkpt lat="50.0190624" lon="10.3586264">
                <ele>216.0</ele>
                <time>2020-08-22T17:38:16.000Z</time>
                <name>Trackpoint 9469</name>
            </trkpt>
            <trkpt lat="50.0190688" lon="10.3585064">
                <ele>216.0</ele>
                <time>2020-08-22T17:38:18.000Z</time>
                <name>Trackpoint 9470</name>
            </trkpt>
            <trkpt lat="50.0190848" lon="10.35838">
                <ele>217.0</ele>
                <time>2020-08-22T17:38:20.000Z</time>
                <name>Trackpoint 9471</name>
            </trkpt>
            <trkpt lat="50.0191008" lon="10.3582424">
                <ele>217.0</ele>
                <time>2020-08-22T17:38:22.000Z</time>
                <name>Trackpoint 9472</name>
            </trkpt>
            <trkpt lat="50.0191456" lon="10.3581168">
                <ele>216.0</ele>
                <time>2020-08-22T17:38:24.000Z</time>
                <name>Trackpoint 9473</name>
            </trkpt>
            <trkpt lat="50.0191872" lon="10.358004">
                <ele>216.0</ele>
                <time>2020-08-22T17:38:26.000Z</time>
                <name>Trackpoint 9474</name>
            </trkpt>
            <trkpt lat="50.0192192" lon="10.357888">
                <ele>215.0</ele>
                <time>2020-08-22T17:38:28.000Z</time>
                <name>Trackpoint 9475</name>
            </trkpt>
            <trkpt lat="50.0192448" lon="10.3577608">
                <ele>215.0</ele>
                <time>2020-08-22T17:38:30.000Z</time>
                <name>Trackpoint 9476</name>
            </trkpt>
            <trkpt lat="50.01928" lon="10.3576096">
                <ele>215.0</ele>
                <time>2020-08-22T17:38:32.000Z</time>
                <name>Trackpoint 9477</name>
            </trkpt>
            <trkpt lat="50.0193024" lon="10.3574752">
                <ele>214.0</ele>
                <time>2020-08-22T17:38:34.000Z</time>
                <name>Trackpoint 9478</name>
            </trkpt>
            <trkpt lat="50.0193184" lon="10.3573576">
                <ele>215.0</ele>
                <time>2020-08-22T17:38:36.000Z</time>
                <name>Trackpoint 9479</name>
            </trkpt>
            <trkpt lat="50.019328" lon="10.3572304">
                <ele>214.0</ele>
                <time>2020-08-22T17:38:38.000Z</time>
                <name>Trackpoint 9480</name>
            </trkpt>
            <trkpt lat="50.0193472" lon="10.3570928">
                <ele>214.0</ele>
                <time>2020-08-22T17:38:40.000Z</time>
                <name>Trackpoint 9481</name>
            </trkpt>
            <trkpt lat="50.0193696" lon="10.3569544">
                <ele>214.0</ele>
                <time>2020-08-22T17:38:42.000Z</time>
                <name>Trackpoint 9482</name>
            </trkpt>
            <trkpt lat="50.0193856" lon="10.35682">
                <ele>214.0</ele>
                <time>2020-08-22T17:38:44.000Z</time>
                <name>Trackpoint 9483</name>
            </trkpt>
            <trkpt lat="50.0193984" lon="10.3566864">
                <ele>214.0</ele>
                <time>2020-08-22T17:38:46.000Z</time>
                <name>Trackpoint 9484</name>
            </trkpt>
            <trkpt lat="50.0194208" lon="10.356552">
                <ele>214.0</ele>
                <time>2020-08-22T17:38:48.000Z</time>
                <name>Trackpoint 9485</name>
            </trkpt>
            <trkpt lat="50.0194432" lon="10.356412">
                <ele>214.0</ele>
                <time>2020-08-22T17:38:50.000Z</time>
                <name>Trackpoint 9486</name>
            </trkpt>
            <trkpt lat="50.0194656" lon="10.3562744">
                <ele>215.0</ele>
                <time>2020-08-22T17:38:52.000Z</time>
                <name>Trackpoint 9487</name>
            </trkpt>
            <trkpt lat="50.019488" lon="10.356136">
                <ele>215.0</ele>
                <time>2020-08-22T17:38:54.000Z</time>
                <name>Trackpoint 9488</name>
            </trkpt>
            <trkpt lat="50.0195072" lon="10.3559968">
                <ele>216.0</ele>
                <time>2020-08-22T17:38:56.000Z</time>
                <name>Trackpoint 9489</name>
            </trkpt>
            <trkpt lat="50.0195328" lon="10.3558616">
                <ele>216.0</ele>
                <time>2020-08-22T17:38:58.000Z</time>
                <name>Trackpoint 9490</name>
            </trkpt>
            <trkpt lat="50.0195488" lon="10.3557304">
                <ele>216.0</ele>
                <time>2020-08-22T17:39:00.000Z</time>
                <name>Trackpoint 9491</name>
            </trkpt>
            <trkpt lat="50.0195744" lon="10.3555968">
                <ele>215.0</ele>
                <time>2020-08-22T17:39:02.000Z</time>
                <name>Trackpoint 9492</name>
            </trkpt>
            <trkpt lat="50.0195968" lon="10.3554648">
                <ele>215.0</ele>
                <time>2020-08-22T17:39:04.000Z</time>
                <name>Trackpoint 9493</name>
            </trkpt>
            <trkpt lat="50.019616" lon="10.3553304">
                <ele>216.0</ele>
                <time>2020-08-22T17:39:06.000Z</time>
                <name>Trackpoint 9494</name>
            </trkpt>
            <trkpt lat="50.0196384" lon="10.3551848">
                <ele>216.0</ele>
                <time>2020-08-22T17:39:08.000Z</time>
                <name>Trackpoint 9495</name>
            </trkpt>
            <trkpt lat="50.0196576" lon="10.3550432">
                <ele>217.0</ele>
                <time>2020-08-22T17:39:10.000Z</time>
                <name>Trackpoint 9496</name>
            </trkpt>
            <trkpt lat="50.01968" lon="10.3548896">
                <ele>216.0</ele>
                <time>2020-08-22T17:39:12.000Z</time>
                <name>Trackpoint 9497</name>
            </trkpt>
            <trkpt lat="50.0197056" lon="10.3547288">
                <ele>216.0</ele>
                <time>2020-08-22T17:39:14.000Z</time>
                <name>Trackpoint 9498</name>
            </trkpt>
            <trkpt lat="50.0197312" lon="10.3545616">
                <ele>215.0</ele>
                <time>2020-08-22T17:39:16.000Z</time>
                <name>Trackpoint 9499</name>
            </trkpt>
            <trkpt lat="50.0197568" lon="10.3544032">
                <ele>216.0</ele>
                <time>2020-08-22T17:39:18.000Z</time>
                <name>Trackpoint 9500</name>
            </trkpt>
            <trkpt lat="50.019792" lon="10.3542368">
                <ele>216.0</ele>
                <time>2020-08-22T17:39:20.000Z</time>
                <name>Trackpoint 9501</name>
            </trkpt>
            <trkpt lat="50.0198048" lon="10.3541472">
                <ele>215.0</ele>
                <time>2020-08-22T17:39:21.000Z</time>
                <name>Trackpoint 9502</name>
            </trkpt>
            <trkpt lat="50.01984" lon="10.3539736">
                <ele>215.0</ele>
                <time>2020-08-22T17:39:23.000Z</time>
                <name>Trackpoint 9503</name>
            </trkpt>
            <trkpt lat="50.0198624" lon="10.3538064">
                <ele>216.0</ele>
                <time>2020-08-22T17:39:25.000Z</time>
                <name>Trackpoint 9504</name>
            </trkpt>
            <trkpt lat="50.0198848" lon="10.3536552">
                <ele>216.0</ele>
                <time>2020-08-22T17:39:27.000Z</time>
                <name>Trackpoint 9505</name>
            </trkpt>
            <trkpt lat="50.0199168" lon="10.3535232">
                <ele>215.0</ele>
                <time>2020-08-22T17:39:29.000Z</time>
                <name>Trackpoint 9506</name>
            </trkpt>
            <trkpt lat="50.0199328" lon="10.3534072">
                <ele>216.0</ele>
                <time>2020-08-22T17:39:31.000Z</time>
                <name>Trackpoint 9507</name>
            </trkpt>
            <trkpt lat="50.0199456" lon="10.3532896">
                <ele>216.0</ele>
                <time>2020-08-22T17:39:33.000Z</time>
                <name>Trackpoint 9508</name>
            </trkpt>
            <trkpt lat="50.0199584" lon="10.3531704">
                <ele>217.0</ele>
                <time>2020-08-22T17:39:35.000Z</time>
                <name>Trackpoint 9509</name>
            </trkpt>
            <trkpt lat="50.0199776" lon="10.353052">
                <ele>218.0</ele>
                <time>2020-08-22T17:39:37.000Z</time>
                <name>Trackpoint 9510</name>
            </trkpt>
            <trkpt lat="50.0199968" lon="10.3529464">
                <ele>218.0</ele>
                <time>2020-08-22T17:39:39.000Z</time>
                <name>Trackpoint 9511</name>
            </trkpt>
            <trkpt lat="50.0200128" lon="10.3528384">
                <ele>219.0</ele>
                <time>2020-08-22T17:39:41.000Z</time>
                <name>Trackpoint 9512</name>
            </trkpt>
            <trkpt lat="50.020032" lon="10.35272">
                <ele>218.0</ele>
                <time>2020-08-22T17:39:43.000Z</time>
                <name>Trackpoint 9513</name>
            </trkpt>
            <trkpt lat="50.0200416" lon="10.3526088">
                <ele>217.0</ele>
                <time>2020-08-22T17:39:45.000Z</time>
                <name>Trackpoint 9514</name>
            </trkpt>
            <trkpt lat="50.0200544" lon="10.3525016">
                <ele>217.0</ele>
                <time>2020-08-22T17:39:47.000Z</time>
                <name>Trackpoint 9515</name>
            </trkpt>
            <trkpt lat="50.0200736" lon="10.3523976">
                <ele>217.0</ele>
                <time>2020-08-22T17:39:49.000Z</time>
                <name>Trackpoint 9516</name>
            </trkpt>
            <trkpt lat="50.0200896" lon="10.3522984">
                <ele>217.0</ele>
                <time>2020-08-22T17:39:51.000Z</time>
                <name>Trackpoint 9517</name>
            </trkpt>
            <trkpt lat="50.0201088" lon="10.3521904">
                <ele>216.0</ele>
                <time>2020-08-22T17:39:53.000Z</time>
                <name>Trackpoint 9518</name>
            </trkpt>
            <trkpt lat="50.0201184" lon="10.3520736">
                <ele>215.0</ele>
                <time>2020-08-22T17:39:55.000Z</time>
                <name>Trackpoint 9519</name>
            </trkpt>
            <trkpt lat="50.0201344" lon="10.35194">
                <ele>215.0</ele>
                <time>2020-08-22T17:39:57.000Z</time>
                <name>Trackpoint 9520</name>
            </trkpt>
            <trkpt lat="50.0201536" lon="10.3518">
                <ele>216.0</ele>
                <time>2020-08-22T17:39:59.000Z</time>
                <name>Trackpoint 9521</name>
            </trkpt>
            <trkpt lat="50.0201728" lon="10.35164">
                <ele>216.0</ele>
                <time>2020-08-22T17:40:01.000Z</time>
                <name>Trackpoint 9522</name>
            </trkpt>
            <trkpt lat="50.020192" lon="10.3514584">
                <ele>216.0</ele>
                <time>2020-08-22T17:40:03.000Z</time>
                <name>Trackpoint 9523</name>
            </trkpt>
            <trkpt lat="50.0202016" lon="10.3513672">
                <ele>216.0</ele>
                <time>2020-08-22T17:40:04.000Z</time>
                <name>Trackpoint 9524</name>
            </trkpt>
            <trkpt lat="50.0202144" lon="10.3512736">
                <ele>215.0</ele>
                <time>2020-08-22T17:40:05.000Z</time>
                <name>Trackpoint 9525</name>
            </trkpt>
            <trkpt lat="50.0202304" lon="10.3511816">
                <ele>215.0</ele>
                <time>2020-08-22T17:40:06.000Z</time>
                <name>Trackpoint 9526</name>
            </trkpt>
            <trkpt lat="50.0202528" lon="10.3510088">
                <ele>215.0</ele>
                <time>2020-08-22T17:40:08.000Z</time>
                <name>Trackpoint 9527</name>
            </trkpt>
            <trkpt lat="50.0202784" lon="10.3508416">
                <ele>215.0</ele>
                <time>2020-08-22T17:40:10.000Z</time>
                <name>Trackpoint 9528</name>
            </trkpt>
            <trkpt lat="50.0203072" lon="10.3506832">
                <ele>215.0</ele>
                <time>2020-08-22T17:40:12.000Z</time>
                <name>Trackpoint 9529</name>
            </trkpt>
            <trkpt lat="50.0203296" lon="10.3505312">
                <ele>215.0</ele>
                <time>2020-08-22T17:40:14.000Z</time>
                <name>Trackpoint 9530</name>
            </trkpt>
            <trkpt lat="50.020352" lon="10.3503816">
                <ele>216.0</ele>
                <time>2020-08-22T17:40:16.000Z</time>
                <name>Trackpoint 9531</name>
            </trkpt>
            <trkpt lat="50.020368" lon="10.3502328">
                <ele>216.0</ele>
                <time>2020-08-22T17:40:18.000Z</time>
                <name>Trackpoint 9532</name>
            </trkpt>
            <trkpt lat="50.0203872" lon="10.3500864">
                <ele>215.0</ele>
                <time>2020-08-22T17:40:20.000Z</time>
                <name>Trackpoint 9533</name>
            </trkpt>
            <trkpt lat="50.0204064" lon="10.349948">
                <ele>215.0</ele>
                <time>2020-08-22T17:40:22.000Z</time>
                <name>Trackpoint 9534</name>
            </trkpt>
            <trkpt lat="50.0204288" lon="10.3498064">
                <ele>215.0</ele>
                <time>2020-08-22T17:40:24.000Z</time>
                <name>Trackpoint 9535</name>
            </trkpt>
            <trkpt lat="50.020448" lon="10.3496664">
                <ele>215.0</ele>
                <time>2020-08-22T17:40:26.000Z</time>
                <name>Trackpoint 9536</name>
            </trkpt>
            <trkpt lat="50.0204704" lon="10.3495304">
                <ele>216.0</ele>
                <time>2020-08-22T17:40:28.000Z</time>
                <name>Trackpoint 9537</name>
            </trkpt>
            <trkpt lat="50.0204864" lon="10.3493904">
                <ele>216.0</ele>
                <time>2020-08-22T17:40:30.000Z</time>
                <name>Trackpoint 9538</name>
            </trkpt>
            <trkpt lat="50.0205024" lon="10.3492472">
                <ele>216.0</ele>
                <time>2020-08-22T17:40:32.000Z</time>
                <name>Trackpoint 9539</name>
            </trkpt>
            <trkpt lat="50.020528" lon="10.349096">
                <ele>216.0</ele>
                <time>2020-08-22T17:40:34.000Z</time>
                <name>Trackpoint 9540</name>
            </trkpt>
            <trkpt lat="50.0205472" lon="10.3489448">
                <ele>216.0</ele>
                <time>2020-08-22T17:40:36.000Z</time>
                <name>Trackpoint 9541</name>
            </trkpt>
            <trkpt lat="50.0205664" lon="10.3487928">
                <ele>216.0</ele>
                <time>2020-08-22T17:40:38.000Z</time>
                <name>Trackpoint 9542</name>
            </trkpt>
            <trkpt lat="50.020576" lon="10.3486416">
                <ele>215.0</ele>
                <time>2020-08-22T17:40:40.000Z</time>
                <name>Trackpoint 9543</name>
            </trkpt>
            <trkpt lat="50.0205984" lon="10.3484944">
                <ele>215.0</ele>
                <time>2020-08-22T17:40:42.000Z</time>
                <name>Trackpoint 9544</name>
            </trkpt>
            <trkpt lat="50.0206272" lon="10.3483496">
                <ele>215.0</ele>
                <time>2020-08-22T17:40:44.000Z</time>
                <name>Trackpoint 9545</name>
            </trkpt>
            <trkpt lat="50.0206464" lon="10.3482048">
                <ele>215.0</ele>
                <time>2020-08-22T17:40:46.000Z</time>
                <name>Trackpoint 9546</name>
            </trkpt>
            <trkpt lat="50.0206592" lon="10.3480584">
                <ele>215.0</ele>
                <time>2020-08-22T17:40:48.000Z</time>
                <name>Trackpoint 9547</name>
            </trkpt>
            <trkpt lat="50.0206848" lon="10.3479208">
                <ele>215.0</ele>
                <time>2020-08-22T17:40:50.000Z</time>
                <name>Trackpoint 9548</name>
            </trkpt>
            <trkpt lat="50.0207008" lon="10.3477832">
                <ele>215.0</ele>
                <time>2020-08-22T17:40:52.000Z</time>
                <name>Trackpoint 9549</name>
            </trkpt>
            <trkpt lat="50.02072" lon="10.3476488">
                <ele>216.0</ele>
                <time>2020-08-22T17:40:54.000Z</time>
                <name>Trackpoint 9550</name>
            </trkpt>
            <trkpt lat="50.0207392" lon="10.34752">
                <ele>216.0</ele>
                <time>2020-08-22T17:40:56.000Z</time>
                <name>Trackpoint 9551</name>
            </trkpt>
            <trkpt lat="50.0207584" lon="10.3473904">
                <ele>216.0</ele>
                <time>2020-08-22T17:40:58.000Z</time>
                <name>Trackpoint 9552</name>
            </trkpt>
            <trkpt lat="50.0207776" lon="10.3472608">
                <ele>216.0</ele>
                <time>2020-08-22T17:41:00.000Z</time>
                <name>Trackpoint 9553</name>
            </trkpt>
            <trkpt lat="50.0207968" lon="10.3471272">
                <ele>216.0</ele>
                <time>2020-08-22T17:41:02.000Z</time>
                <name>Trackpoint 9554</name>
            </trkpt>
            <trkpt lat="50.020816" lon="10.3470024">
                <ele>216.0</ele>
                <time>2020-08-22T17:41:04.000Z</time>
                <name>Trackpoint 9555</name>
            </trkpt>
            <trkpt lat="50.020832" lon="10.3468752">
                <ele>216.0</ele>
                <time>2020-08-22T17:41:06.000Z</time>
                <name>Trackpoint 9556</name>
            </trkpt>
            <trkpt lat="50.0208512" lon="10.3467512">
                <ele>216.0</ele>
                <time>2020-08-22T17:41:08.000Z</time>
                <name>Trackpoint 9557</name>
            </trkpt>
            <trkpt lat="50.0208704" lon="10.346628">
                <ele>215.0</ele>
                <time>2020-08-22T17:41:10.000Z</time>
                <name>Trackpoint 9558</name>
            </trkpt>
            <trkpt lat="50.0208896" lon="10.3464984">
                <ele>215.0</ele>
                <time>2020-08-22T17:41:12.000Z</time>
                <name>Trackpoint 9559</name>
            </trkpt>
            <trkpt lat="50.0209056" lon="10.346372">
                <ele>215.0</ele>
                <time>2020-08-22T17:41:14.000Z</time>
                <name>Trackpoint 9560</name>
            </trkpt>
            <trkpt lat="50.0209184" lon="10.3462416">
                <ele>215.0</ele>
                <time>2020-08-22T17:41:16.000Z</time>
                <name>Trackpoint 9561</name>
            </trkpt>
            <trkpt lat="50.020944" lon="10.3461136">
                <ele>215.0</ele>
                <time>2020-08-22T17:41:18.000Z</time>
                <name>Trackpoint 9562</name>
            </trkpt>
            <trkpt lat="50.0209632" lon="10.3459816">
                <ele>215.0</ele>
                <time>2020-08-22T17:41:20.000Z</time>
                <name>Trackpoint 9563</name>
            </trkpt>
            <trkpt lat="50.020976" lon="10.3458496">
                <ele>215.0</ele>
                <time>2020-08-22T17:41:22.000Z</time>
                <name>Trackpoint 9564</name>
            </trkpt>
            <trkpt lat="50.0209888" lon="10.3457168">
                <ele>215.0</ele>
                <time>2020-08-22T17:41:24.000Z</time>
                <name>Trackpoint 9565</name>
            </trkpt>
            <trkpt lat="50.0210112" lon="10.3455848">
                <ele>215.0</ele>
                <time>2020-08-22T17:41:26.000Z</time>
                <name>Trackpoint 9566</name>
            </trkpt>
            <trkpt lat="50.0210304" lon="10.3454536">
                <ele>216.0</ele>
                <time>2020-08-22T17:41:28.000Z</time>
                <name>Trackpoint 9567</name>
            </trkpt>
            <trkpt lat="50.0210528" lon="10.3453184">
                <ele>216.0</ele>
                <time>2020-08-22T17:41:30.000Z</time>
                <name>Trackpoint 9568</name>
            </trkpt>
            <trkpt lat="50.0210688" lon="10.3451832">
                <ele>216.0</ele>
                <time>2020-08-22T17:41:32.000Z</time>
                <name>Trackpoint 9569</name>
            </trkpt>
            <trkpt lat="50.021088" lon="10.345052">
                <ele>216.0</ele>
                <time>2020-08-22T17:41:34.000Z</time>
                <name>Trackpoint 9570</name>
            </trkpt>
            <trkpt lat="50.0211072" lon="10.3449152">
                <ele>216.0</ele>
                <time>2020-08-22T17:41:36.000Z</time>
                <name>Trackpoint 9571</name>
            </trkpt>
            <trkpt lat="50.0211296" lon="10.3447816">
                <ele>216.0</ele>
                <time>2020-08-22T17:41:38.000Z</time>
                <name>Trackpoint 9572</name>
            </trkpt>
            <trkpt lat="50.0211456" lon="10.3446512">
                <ele>216.0</ele>
                <time>2020-08-22T17:41:40.000Z</time>
                <name>Trackpoint 9573</name>
            </trkpt>
            <trkpt lat="50.0211616" lon="10.3445384">
                <ele>215.0</ele>
                <time>2020-08-22T17:41:42.000Z</time>
                <name>Trackpoint 9574</name>
            </trkpt>
            <trkpt lat="50.0211776" lon="10.3444416">
                <ele>215.0</ele>
                <time>2020-08-22T17:41:45.000Z</time>
                <name>Trackpoint 9575</name>
            </trkpt>
            <trkpt lat="50.0211872" lon="10.344348">
                <ele>215.0</ele>
                <time>2020-08-22T17:42:17.000Z</time>
                <name>Trackpoint 9576</name>
            </trkpt>
            <trkpt lat="50.0210912" lon="10.3443">
                <ele>215.0</ele>
                <time>2020-08-22T17:42:32.000Z</time>
                <name>Trackpoint 9577</name>
            </trkpt>
            <trkpt lat="50.0209728" lon="10.3442568">
                <ele>215.0</ele>
                <time>2020-08-22T17:42:35.000Z</time>
                <name>Trackpoint 9578</name>
            </trkpt>
            <trkpt lat="50.0208864" lon="10.3442296">
                <ele>215.0</ele>
                <time>2020-08-22T17:42:37.000Z</time>
                <name>Trackpoint 9579</name>
            </trkpt>
            <trkpt lat="50.0207936" lon="10.344196">
                <ele>215.0</ele>
                <time>2020-08-22T17:42:39.000Z</time>
                <name>Trackpoint 9580</name>
            </trkpt>
            <trkpt lat="50.0206976" lon="10.344176">
                <ele>215.0</ele>
                <time>2020-08-22T17:42:41.000Z</time>
                <name>Trackpoint 9581</name>
            </trkpt>
            <trkpt lat="50.020576" lon="10.3441184">
                <ele>215.0</ele>
                <time>2020-08-22T17:42:44.000Z</time>
                <name>Trackpoint 9582</name>
            </trkpt>
            <trkpt lat="50.0204608" lon="10.3440568">
                <ele>215.0</ele>
                <time>2020-08-22T17:42:47.000Z</time>
                <name>Trackpoint 9583</name>
            </trkpt>
            <trkpt lat="50.0203968" lon="10.3439888">
                <ele>215.0</ele>
                <time>2020-08-22T17:42:49.000Z</time>
                <name>Trackpoint 9584</name>
            </trkpt>
            <trkpt lat="50.0203936" lon="10.3438616">
                <ele>215.0</ele>
                <time>2020-08-22T17:42:51.000Z</time>
                <name>Trackpoint 9585</name>
            </trkpt>
            <trkpt lat="50.020416" lon="10.3437408">
                <ele>215.0</ele>
                <time>2020-08-22T17:42:53.000Z</time>
                <name>Trackpoint 9586</name>
            </trkpt>
            <trkpt lat="50.0204352" lon="10.3436416">
                <ele>215.0</ele>
                <time>2020-08-22T17:42:56.000Z</time>
                <name>Trackpoint 9587</name>
            </trkpt>
            <trkpt lat="50.0204192" lon="10.343732">
                <ele>215.0</ele>
                <time>2020-08-22T17:43:00.000Z</time>
                <name>Trackpoint 9588</name>
            </trkpt>
            <trkpt lat="50.0204096" lon="10.3438368">
                <ele>216.0</ele>
                <time>2020-08-22T17:43:03.000Z</time>
                <name>Trackpoint 9589</name>
            </trkpt>
            <trkpt lat="50.0204384" lon="10.343708">
                <ele>216.0</ele>
                <time>2020-08-22T17:43:42.000Z</time>
                <name>Trackpoint 9590</name>
            </trkpt>
            <trkpt lat="50.0204512" lon="10.3435984">
                <ele>216.0</ele>
                <time>2020-08-22T17:43:44.000Z</time>
                <name>Trackpoint 9591</name>
            </trkpt>
            <trkpt lat="50.0204672" lon="10.3434864">
                <ele>216.0</ele>
                <time>2020-08-22T17:43:46.000Z</time>
                <name>Trackpoint 9592</name>
            </trkpt>
            <trkpt lat="50.0204864" lon="10.3433816">
                <ele>216.0</ele>
                <time>2020-08-22T17:43:48.000Z</time>
                <name>Trackpoint 9593</name>
            </trkpt>
            <trkpt lat="50.0204992" lon="10.3432728">
                <ele>216.0</ele>
                <time>2020-08-22T17:43:50.000Z</time>
                <name>Trackpoint 9594</name>
            </trkpt>
            <trkpt lat="50.020528" lon="10.34316">
                <ele>216.0</ele>
                <time>2020-08-22T17:43:52.000Z</time>
                <name>Trackpoint 9595</name>
            </trkpt>
            <trkpt lat="50.0205408" lon="10.343032">
                <ele>216.0</ele>
                <time>2020-08-22T17:43:54.000Z</time>
                <name>Trackpoint 9596</name>
            </trkpt>
            <trkpt lat="50.0205664" lon="10.3428784">
                <ele>216.0</ele>
                <time>2020-08-22T17:43:56.000Z</time>
                <name>Trackpoint 9597</name>
            </trkpt>
            <trkpt lat="50.0205792" lon="10.3427264">
                <ele>216.0</ele>
                <time>2020-08-22T17:43:58.000Z</time>
                <name>Trackpoint 9598</name>
            </trkpt>
            <trkpt lat="50.0206112" lon="10.342584">
                <ele>216.0</ele>
                <time>2020-08-22T17:44:00.000Z</time>
                <name>Trackpoint 9599</name>
            </trkpt>
            <trkpt lat="50.0206368" lon="10.34244">
                <ele>216.0</ele>
                <time>2020-08-22T17:44:02.000Z</time>
                <name>Trackpoint 9600</name>
            </trkpt>
            <trkpt lat="50.0206592" lon="10.342288">
                <ele>216.0</ele>
                <time>2020-08-22T17:44:04.000Z</time>
                <name>Trackpoint 9601</name>
            </trkpt>
            <trkpt lat="50.020688" lon="10.34214">
                <ele>216.0</ele>
                <time>2020-08-22T17:44:06.000Z</time>
                <name>Trackpoint 9602</name>
            </trkpt>
            <trkpt lat="50.0207136" lon="10.3419912">
                <ele>216.0</ele>
                <time>2020-08-22T17:44:08.000Z</time>
                <name>Trackpoint 9603</name>
            </trkpt>
            <trkpt lat="50.0207392" lon="10.3418416">
                <ele>216.0</ele>
                <time>2020-08-22T17:44:10.000Z</time>
                <name>Trackpoint 9604</name>
            </trkpt>
            <trkpt lat="50.020768" lon="10.341692">
                <ele>216.0</ele>
                <time>2020-08-22T17:44:12.000Z</time>
                <name>Trackpoint 9605</name>
            </trkpt>
            <trkpt lat="50.0207904" lon="10.3415368">
                <ele>215.0</ele>
                <time>2020-08-22T17:44:14.000Z</time>
                <name>Trackpoint 9606</name>
            </trkpt>
            <trkpt lat="50.020816" lon="10.3413832">
                <ele>215.0</ele>
                <time>2020-08-22T17:44:16.000Z</time>
                <name>Trackpoint 9607</name>
            </trkpt>
            <trkpt lat="50.0208384" lon="10.3412336">
                <ele>215.0</ele>
                <time>2020-08-22T17:44:18.000Z</time>
                <name>Trackpoint 9608</name>
            </trkpt>
            <trkpt lat="50.020864" lon="10.34108">
                <ele>215.0</ele>
                <time>2020-08-22T17:44:20.000Z</time>
                <name>Trackpoint 9609</name>
            </trkpt>
            <trkpt lat="50.0208864" lon="10.3409296">
                <ele>214.0</ele>
                <time>2020-08-22T17:44:22.000Z</time>
                <name>Trackpoint 9610</name>
            </trkpt>
            <trkpt lat="50.020912" lon="10.340788">
                <ele>214.0</ele>
                <time>2020-08-22T17:44:24.000Z</time>
                <name>Trackpoint 9611</name>
            </trkpt>
            <trkpt lat="50.0209536" lon="10.3406784">
                <ele>215.0</ele>
                <time>2020-08-22T17:44:26.000Z</time>
                <name>Trackpoint 9612</name>
            </trkpt>
            <trkpt lat="50.0210272" lon="10.34062">
                <ele>216.0</ele>
                <time>2020-08-22T17:44:28.000Z</time>
                <name>Trackpoint 9613</name>
            </trkpt>
            <trkpt lat="50.0211488" lon="10.3406352">
                <ele>217.0</ele>
                <time>2020-08-22T17:44:31.000Z</time>
                <name>Trackpoint 9614</name>
            </trkpt>
            <trkpt lat="50.0212416" lon="10.3406664">
                <ele>218.0</ele>
                <time>2020-08-22T17:44:33.000Z</time>
                <name>Trackpoint 9615</name>
            </trkpt>
            <trkpt lat="50.02136" lon="10.3407032">
                <ele>220.0</ele>
                <time>2020-08-22T17:44:36.000Z</time>
                <name>Trackpoint 9616</name>
            </trkpt>
            <trkpt lat="50.0214592" lon="10.3407288">
                <ele>221.0</ele>
                <time>2020-08-22T17:44:39.000Z</time>
                <name>Trackpoint 9617</name>
            </trkpt>
            <trkpt lat="50.0215296" lon="10.3406696">
                <ele>221.0</ele>
                <time>2020-08-22T17:45:20.000Z</time>
                <name>Trackpoint 9618</name>
            </trkpt>
            <trkpt lat="50.021552" lon="10.3405464">
                <ele>221.0</ele>
                <time>2020-08-22T17:45:23.000Z</time>
                <name>Trackpoint 9619</name>
            </trkpt>
            <trkpt lat="50.021568" lon="10.3404504">
                <ele>222.0</ele>
                <time>2020-08-22T17:45:25.000Z</time>
                <name>Trackpoint 9620</name>
            </trkpt>
            <trkpt lat="50.0215904" lon="10.3403368">
                <ele>221.0</ele>
                <time>2020-08-22T17:45:27.000Z</time>
                <name>Trackpoint 9621</name>
            </trkpt>
            <trkpt lat="50.0216096" lon="10.3402096">
                <ele>221.0</ele>
                <time>2020-08-22T17:45:29.000Z</time>
                <name>Trackpoint 9622</name>
            </trkpt>
            <trkpt lat="50.021632" lon="10.3400784">
                <ele>221.0</ele>
                <time>2020-08-22T17:45:31.000Z</time>
                <name>Trackpoint 9623</name>
            </trkpt>
            <trkpt lat="50.0216576" lon="10.3399448">
                <ele>221.0</ele>
                <time>2020-08-22T17:45:33.000Z</time>
                <name>Trackpoint 9624</name>
            </trkpt>
            <trkpt lat="50.0216832" lon="10.3398064">
                <ele>220.0</ele>
                <time>2020-08-22T17:45:35.000Z</time>
                <name>Trackpoint 9625</name>
            </trkpt>
            <trkpt lat="50.0217056" lon="10.3396704">
                <ele>220.0</ele>
                <time>2020-08-22T17:45:37.000Z</time>
                <name>Trackpoint 9626</name>
            </trkpt>
            <trkpt lat="50.021728" lon="10.3395336">
                <ele>220.0</ele>
                <time>2020-08-22T17:45:39.000Z</time>
                <name>Trackpoint 9627</name>
            </trkpt>
            <trkpt lat="50.0217568" lon="10.3394016">
                <ele>220.0</ele>
                <time>2020-08-22T17:45:41.000Z</time>
                <name>Trackpoint 9628</name>
            </trkpt>
            <trkpt lat="50.0217792" lon="10.3392696">
                <ele>220.0</ele>
                <time>2020-08-22T17:45:43.000Z</time>
                <name>Trackpoint 9629</name>
            </trkpt>
            <trkpt lat="50.0218048" lon="10.3391312">
                <ele>219.0</ele>
                <time>2020-08-22T17:45:45.000Z</time>
                <name>Trackpoint 9630</name>
            </trkpt>
            <trkpt lat="50.0218304" lon="10.3389952">
                <ele>219.0</ele>
                <time>2020-08-22T17:45:47.000Z</time>
                <name>Trackpoint 9631</name>
            </trkpt>
            <trkpt lat="50.021856" lon="10.3388568">
                <ele>219.0</ele>
                <time>2020-08-22T17:45:49.000Z</time>
                <name>Trackpoint 9632</name>
            </trkpt>
            <trkpt lat="50.0218784" lon="10.3387168">
                <ele>219.0</ele>
                <time>2020-08-22T17:45:51.000Z</time>
                <name>Trackpoint 9633</name>
            </trkpt>
            <trkpt lat="50.021904" lon="10.3385824">
                <ele>218.0</ele>
                <time>2020-08-22T17:45:53.000Z</time>
                <name>Trackpoint 9634</name>
            </trkpt>
            <trkpt lat="50.0219264" lon="10.3384488">
                <ele>218.0</ele>
                <time>2020-08-22T17:45:55.000Z</time>
                <name>Trackpoint 9635</name>
            </trkpt>
            <trkpt lat="50.0219456" lon="10.33832">
                <ele>218.0</ele>
                <time>2020-08-22T17:45:57.000Z</time>
                <name>Trackpoint 9636</name>
            </trkpt>
            <trkpt lat="50.0219712" lon="10.3381984">
                <ele>218.0</ele>
                <time>2020-08-22T17:45:59.000Z</time>
                <name>Trackpoint 9637</name>
            </trkpt>
            <trkpt lat="50.022" lon="10.338072">
                <ele>217.0</ele>
                <time>2020-08-22T17:46:01.000Z</time>
                <name>Trackpoint 9638</name>
            </trkpt>
            <trkpt lat="50.0220256" lon="10.3379432">
                <ele>217.0</ele>
                <time>2020-08-22T17:46:03.000Z</time>
                <name>Trackpoint 9639</name>
            </trkpt>
            <trkpt lat="50.0220576" lon="10.3378232">
                <ele>217.0</ele>
                <time>2020-08-22T17:46:05.000Z</time>
                <name>Trackpoint 9640</name>
            </trkpt>
            <trkpt lat="50.0220896" lon="10.3377">
                <ele>217.0</ele>
                <time>2020-08-22T17:46:07.000Z</time>
                <name>Trackpoint 9641</name>
            </trkpt>
            <trkpt lat="50.022128" lon="10.3375704">
                <ele>217.0</ele>
                <time>2020-08-22T17:46:09.000Z</time>
                <name>Trackpoint 9642</name>
            </trkpt>
            <trkpt lat="50.0221664" lon="10.3374416">
                <ele>217.0</ele>
                <time>2020-08-22T17:46:11.000Z</time>
                <name>Trackpoint 9643</name>
            </trkpt>
            <trkpt lat="50.0222144" lon="10.3373136">
                <ele>217.0</ele>
                <time>2020-08-22T17:46:13.000Z</time>
                <name>Trackpoint 9644</name>
            </trkpt>
            <trkpt lat="50.0222496" lon="10.33718">
                <ele>217.0</ele>
                <time>2020-08-22T17:46:15.000Z</time>
                <name>Trackpoint 9645</name>
            </trkpt>
            <trkpt lat="50.0222944" lon="10.3370416">
                <ele>217.0</ele>
                <time>2020-08-22T17:46:17.000Z</time>
                <name>Trackpoint 9646</name>
            </trkpt>
            <trkpt lat="50.0223328" lon="10.3369048">
                <ele>217.0</ele>
                <time>2020-08-22T17:46:19.000Z</time>
                <name>Trackpoint 9647</name>
            </trkpt>
            <trkpt lat="50.0223744" lon="10.3367592">
                <ele>216.0</ele>
                <time>2020-08-22T17:46:21.000Z</time>
                <name>Trackpoint 9648</name>
            </trkpt>
            <trkpt lat="50.022416" lon="10.3366168">
                <ele>216.0</ele>
                <time>2020-08-22T17:46:23.000Z</time>
                <name>Trackpoint 9649</name>
            </trkpt>
            <trkpt lat="50.0224608" lon="10.3364712">
                <ele>216.0</ele>
                <time>2020-08-22T17:46:25.000Z</time>
                <name>Trackpoint 9650</name>
            </trkpt>
            <trkpt lat="50.0224992" lon="10.3363264">
                <ele>216.0</ele>
                <time>2020-08-22T17:46:27.000Z</time>
                <name>Trackpoint 9651</name>
            </trkpt>
            <trkpt lat="50.0225344" lon="10.3361816">
                <ele>216.0</ele>
                <time>2020-08-22T17:46:29.000Z</time>
                <name>Trackpoint 9652</name>
            </trkpt>
            <trkpt lat="50.0225664" lon="10.3360368">
                <ele>216.0</ele>
                <time>2020-08-22T17:46:31.000Z</time>
                <name>Trackpoint 9653</name>
            </trkpt>
            <trkpt lat="50.0226112" lon="10.335888">
                <ele>216.0</ele>
                <time>2020-08-22T17:46:33.000Z</time>
                <name>Trackpoint 9654</name>
            </trkpt>
            <trkpt lat="50.0226464" lon="10.33574">
                <ele>216.0</ele>
                <time>2020-08-22T17:46:35.000Z</time>
                <name>Trackpoint 9655</name>
            </trkpt>
            <trkpt lat="50.0226912" lon="10.3355904">
                <ele>216.0</ele>
                <time>2020-08-22T17:46:37.000Z</time>
                <name>Trackpoint 9656</name>
            </trkpt>
            <trkpt lat="50.022736" lon="10.33544">
                <ele>216.0</ele>
                <time>2020-08-22T17:46:39.000Z</time>
                <name>Trackpoint 9657</name>
            </trkpt>
            <trkpt lat="50.0227776" lon="10.3352872">
                <ele>216.0</ele>
                <time>2020-08-22T17:46:41.000Z</time>
                <name>Trackpoint 9658</name>
            </trkpt>
            <trkpt lat="50.022816" lon="10.3351288">
                <ele>216.0</ele>
                <time>2020-08-22T17:46:43.000Z</time>
                <name>Trackpoint 9659</name>
            </trkpt>
            <trkpt lat="50.0228544" lon="10.3349712">
                <ele>217.0</ele>
                <time>2020-08-22T17:46:45.000Z</time>
                <name>Trackpoint 9660</name>
            </trkpt>
            <trkpt lat="50.0228896" lon="10.334824">
                <ele>217.0</ele>
                <time>2020-08-22T17:46:47.000Z</time>
                <name>Trackpoint 9661</name>
            </trkpt>
            <trkpt lat="50.0229216" lon="10.3346768">
                <ele>217.0</ele>
                <time>2020-08-22T17:46:49.000Z</time>
                <name>Trackpoint 9662</name>
            </trkpt>
            <trkpt lat="50.02296" lon="10.3345272">
                <ele>217.0</ele>
                <time>2020-08-22T17:46:51.000Z</time>
                <name>Trackpoint 9663</name>
            </trkpt>
            <trkpt lat="50.0229952" lon="10.3343752">
                <ele>217.0</ele>
                <time>2020-08-22T17:46:53.000Z</time>
                <name>Trackpoint 9664</name>
            </trkpt>
            <trkpt lat="50.0230304" lon="10.3342288">
                <ele>217.0</ele>
                <time>2020-08-22T17:46:55.000Z</time>
                <name>Trackpoint 9665</name>
            </trkpt>
            <trkpt lat="50.0230592" lon="10.3340832">
                <ele>217.0</ele>
                <time>2020-08-22T17:46:57.000Z</time>
                <name>Trackpoint 9666</name>
            </trkpt>
            <trkpt lat="50.0230976" lon="10.3339456">
                <ele>217.0</ele>
                <time>2020-08-22T17:46:59.000Z</time>
                <name>Trackpoint 9667</name>
            </trkpt>
            <trkpt lat="50.0231328" lon="10.3338032">
                <ele>217.0</ele>
                <time>2020-08-22T17:47:01.000Z</time>
                <name>Trackpoint 9668</name>
            </trkpt>
            <trkpt lat="50.023168" lon="10.33366">
                <ele>217.0</ele>
                <time>2020-08-22T17:47:03.000Z</time>
                <name>Trackpoint 9669</name>
            </trkpt>
            <trkpt lat="50.0232064" lon="10.3335184">
                <ele>216.0</ele>
                <time>2020-08-22T17:47:05.000Z</time>
                <name>Trackpoint 9670</name>
            </trkpt>
            <trkpt lat="50.0232384" lon="10.3333728">
                <ele>216.0</ele>
                <time>2020-08-22T17:47:07.000Z</time>
                <name>Trackpoint 9671</name>
            </trkpt>
            <trkpt lat="50.0232736" lon="10.3332328">
                <ele>216.0</ele>
                <time>2020-08-22T17:47:09.000Z</time>
                <name>Trackpoint 9672</name>
            </trkpt>
            <trkpt lat="50.0233024" lon="10.3330944">
                <ele>216.0</ele>
                <time>2020-08-22T17:47:11.000Z</time>
                <name>Trackpoint 9673</name>
            </trkpt>
            <trkpt lat="50.0233376" lon="10.3329624">
                <ele>216.0</ele>
                <time>2020-08-22T17:47:13.000Z</time>
                <name>Trackpoint 9674</name>
            </trkpt>
            <trkpt lat="50.0233696" lon="10.3328264">
                <ele>216.0</ele>
                <time>2020-08-22T17:47:15.000Z</time>
                <name>Trackpoint 9675</name>
            </trkpt>
            <trkpt lat="50.0233984" lon="10.332688">
                <ele>216.0</ele>
                <time>2020-08-22T17:47:17.000Z</time>
                <name>Trackpoint 9676</name>
            </trkpt>
            <trkpt lat="50.0234368" lon="10.3325504">
                <ele>216.0</ele>
                <time>2020-08-22T17:47:19.000Z</time>
                <name>Trackpoint 9677</name>
            </trkpt>
            <trkpt lat="50.023472" lon="10.332412">
                <ele>216.0</ele>
                <time>2020-08-22T17:47:21.000Z</time>
                <name>Trackpoint 9678</name>
            </trkpt>
            <trkpt lat="50.0235136" lon="10.3322752">
                <ele>216.0</ele>
                <time>2020-08-22T17:47:23.000Z</time>
                <name>Trackpoint 9679</name>
            </trkpt>
            <trkpt lat="50.0235584" lon="10.332144">
                <ele>215.0</ele>
                <time>2020-08-22T17:47:25.000Z</time>
                <name>Trackpoint 9680</name>
            </trkpt>
            <trkpt lat="50.0236128" lon="10.332008">
                <ele>215.0</ele>
                <time>2020-08-22T17:47:27.000Z</time>
                <name>Trackpoint 9681</name>
            </trkpt>
            <trkpt lat="50.023664" lon="10.3318704">
                <ele>215.0</ele>
                <time>2020-08-22T17:47:29.000Z</time>
                <name>Trackpoint 9682</name>
            </trkpt>
            <trkpt lat="50.023712" lon="10.331732">
                <ele>215.0</ele>
                <time>2020-08-22T17:47:31.000Z</time>
                <name>Trackpoint 9683</name>
            </trkpt>
            <trkpt lat="50.0237568" lon="10.3315896">
                <ele>215.0</ele>
                <time>2020-08-22T17:47:33.000Z</time>
                <name>Trackpoint 9684</name>
            </trkpt>
            <trkpt lat="50.023808" lon="10.3314504">
                <ele>215.0</ele>
                <time>2020-08-22T17:47:35.000Z</time>
                <name>Trackpoint 9685</name>
            </trkpt>
            <trkpt lat="50.0238528" lon="10.3313152">
                <ele>216.0</ele>
                <time>2020-08-22T17:47:37.000Z</time>
                <name>Trackpoint 9686</name>
            </trkpt>
            <trkpt lat="50.0238976" lon="10.3311768">
                <ele>215.0</ele>
                <time>2020-08-22T17:47:39.000Z</time>
                <name>Trackpoint 9687</name>
            </trkpt>
            <trkpt lat="50.0239488" lon="10.33104">
                <ele>216.0</ele>
                <time>2020-08-22T17:47:41.000Z</time>
                <name>Trackpoint 9688</name>
            </trkpt>
            <trkpt lat="50.0239904" lon="10.3309072">
                <ele>216.0</ele>
                <time>2020-08-22T17:47:43.000Z</time>
                <name>Trackpoint 9689</name>
            </trkpt>
            <trkpt lat="50.0240416" lon="10.3307736">
                <ele>216.0</ele>
                <time>2020-08-22T17:47:45.000Z</time>
                <name>Trackpoint 9690</name>
            </trkpt>
            <trkpt lat="50.0240864" lon="10.330644">
                <ele>216.0</ele>
                <time>2020-08-22T17:47:47.000Z</time>
                <name>Trackpoint 9691</name>
            </trkpt>
            <trkpt lat="50.024128" lon="10.3305104">
                <ele>216.0</ele>
                <time>2020-08-22T17:47:49.000Z</time>
                <name>Trackpoint 9692</name>
            </trkpt>
            <trkpt lat="50.0241728" lon="10.3303808">
                <ele>216.0</ele>
                <time>2020-08-22T17:47:51.000Z</time>
                <name>Trackpoint 9693</name>
            </trkpt>
            <trkpt lat="50.0242208" lon="10.330248">
                <ele>216.0</ele>
                <time>2020-08-22T17:47:53.000Z</time>
                <name>Trackpoint 9694</name>
            </trkpt>
            <trkpt lat="50.0242656" lon="10.3301112">
                <ele>216.0</ele>
                <time>2020-08-22T17:47:55.000Z</time>
                <name>Trackpoint 9695</name>
            </trkpt>
            <trkpt lat="50.0243072" lon="10.3299736">
                <ele>216.0</ele>
                <time>2020-08-22T17:47:57.000Z</time>
                <name>Trackpoint 9696</name>
            </trkpt>
            <trkpt lat="50.024352" lon="10.3298384">
                <ele>216.0</ele>
                <time>2020-08-22T17:47:59.000Z</time>
                <name>Trackpoint 9697</name>
            </trkpt>
            <trkpt lat="50.0244064" lon="10.3297104">
                <ele>215.0</ele>
                <time>2020-08-22T17:48:01.000Z</time>
                <name>Trackpoint 9698</name>
            </trkpt>
            <trkpt lat="50.0244704" lon="10.3295896">
                <ele>215.0</ele>
                <time>2020-08-22T17:48:03.000Z</time>
                <name>Trackpoint 9699</name>
            </trkpt>
            <trkpt lat="50.0245408" lon="10.329476">
                <ele>215.0</ele>
                <time>2020-08-22T17:48:05.000Z</time>
                <name>Trackpoint 9700</name>
            </trkpt>
            <trkpt lat="50.0246176" lon="10.3293648">
                <ele>216.0</ele>
                <time>2020-08-22T17:48:07.000Z</time>
                <name>Trackpoint 9701</name>
            </trkpt>
            <trkpt lat="50.0246848" lon="10.32926">
                <ele>216.0</ele>
                <time>2020-08-22T17:48:09.000Z</time>
                <name>Trackpoint 9702</name>
            </trkpt>
            <trkpt lat="50.0247584" lon="10.329148">
                <ele>216.0</ele>
                <time>2020-08-22T17:48:11.000Z</time>
                <name>Trackpoint 9703</name>
            </trkpt>
            <trkpt lat="50.0248256" lon="10.3290328">
                <ele>216.0</ele>
                <time>2020-08-22T17:48:13.000Z</time>
                <name>Trackpoint 9704</name>
            </trkpt>
            <trkpt lat="50.024896" lon="10.3289184">
                <ele>216.0</ele>
                <time>2020-08-22T17:48:15.000Z</time>
                <name>Trackpoint 9705</name>
            </trkpt>
            <trkpt lat="50.0249632" lon="10.3288048">
                <ele>216.0</ele>
                <time>2020-08-22T17:48:17.000Z</time>
                <name>Trackpoint 9706</name>
            </trkpt>
            <trkpt lat="50.0250336" lon="10.3286936">
                <ele>216.0</ele>
                <time>2020-08-22T17:48:19.000Z</time>
                <name>Trackpoint 9707</name>
            </trkpt>
            <trkpt lat="50.0251008" lon="10.3285888">
                <ele>216.0</ele>
                <time>2020-08-22T17:48:21.000Z</time>
                <name>Trackpoint 9708</name>
            </trkpt>
            <trkpt lat="50.0251744" lon="10.32848">
                <ele>217.0</ele>
                <time>2020-08-22T17:48:23.000Z</time>
                <name>Trackpoint 9709</name>
            </trkpt>
            <trkpt lat="50.0252448" lon="10.3283728">
                <ele>217.0</ele>
                <time>2020-08-22T17:48:25.000Z</time>
                <name>Trackpoint 9710</name>
            </trkpt>
            <trkpt lat="50.0253248" lon="10.3282736">
                <ele>217.0</ele>
                <time>2020-08-22T17:48:27.000Z</time>
                <name>Trackpoint 9711</name>
            </trkpt>
            <trkpt lat="50.0254048" lon="10.3281832">
                <ele>217.0</ele>
                <time>2020-08-22T17:48:29.000Z</time>
                <name>Trackpoint 9712</name>
            </trkpt>
            <trkpt lat="50.0254816" lon="10.3280888">
                <ele>217.0</ele>
                <time>2020-08-22T17:48:31.000Z</time>
                <name>Trackpoint 9713</name>
            </trkpt>
            <trkpt lat="50.0255552" lon="10.3279936">
                <ele>217.0</ele>
                <time>2020-08-22T17:48:33.000Z</time>
                <name>Trackpoint 9714</name>
            </trkpt>
            <trkpt lat="50.0256224" lon="10.3279">
                <ele>217.0</ele>
                <time>2020-08-22T17:48:35.000Z</time>
                <name>Trackpoint 9715</name>
            </trkpt>
            <trkpt lat="50.025696" lon="10.3278064">
                <ele>217.0</ele>
                <time>2020-08-22T17:48:37.000Z</time>
                <name>Trackpoint 9716</name>
            </trkpt>
            <trkpt lat="50.0257696" lon="10.3277184">
                <ele>216.0</ele>
                <time>2020-08-22T17:48:39.000Z</time>
                <name>Trackpoint 9717</name>
            </trkpt>
            <trkpt lat="50.0258496" lon="10.327628">
                <ele>216.0</ele>
                <time>2020-08-22T17:48:41.000Z</time>
                <name>Trackpoint 9718</name>
            </trkpt>
            <trkpt lat="50.0259136" lon="10.3275184">
                <ele>215.0</ele>
                <time>2020-08-22T17:48:43.000Z</time>
                <name>Trackpoint 9719</name>
            </trkpt>
            <trkpt lat="50.025968" lon="10.3273896">
                <ele>215.0</ele>
                <time>2020-08-22T17:48:45.000Z</time>
                <name>Trackpoint 9720</name>
            </trkpt>
            <trkpt lat="50.0260128" lon="10.3272488">
                <ele>215.0</ele>
                <time>2020-08-22T17:48:47.000Z</time>
                <name>Trackpoint 9721</name>
            </trkpt>
            <trkpt lat="50.0260608" lon="10.3270968">
                <ele>215.0</ele>
                <time>2020-08-22T17:48:49.000Z</time>
                <name>Trackpoint 9722</name>
            </trkpt>
            <trkpt lat="50.0261024" lon="10.326952">
                <ele>215.0</ele>
                <time>2020-08-22T17:48:51.000Z</time>
                <name>Trackpoint 9723</name>
            </trkpt>
            <trkpt lat="50.0261536" lon="10.326812">
                <ele>214.0</ele>
                <time>2020-08-22T17:48:53.000Z</time>
                <name>Trackpoint 9724</name>
            </trkpt>
            <trkpt lat="50.0261952" lon="10.3266888">
                <ele>214.0</ele>
                <time>2020-08-22T17:48:55.000Z</time>
                <name>Trackpoint 9725</name>
            </trkpt>
            <trkpt lat="50.0262368" lon="10.3265664">
                <ele>214.0</ele>
                <time>2020-08-22T17:48:57.000Z</time>
                <name>Trackpoint 9726</name>
            </trkpt>
            <trkpt lat="50.0262752" lon="10.3264464">
                <ele>215.0</ele>
                <time>2020-08-22T17:48:59.000Z</time>
                <name>Trackpoint 9727</name>
            </trkpt>
            <trkpt lat="50.0263168" lon="10.3263384">
                <ele>215.0</ele>
                <time>2020-08-22T17:49:01.000Z</time>
                <name>Trackpoint 9728</name>
            </trkpt>
            <trkpt lat="50.0263584" lon="10.3262416">
                <ele>215.0</ele>
                <time>2020-08-22T17:49:03.000Z</time>
                <name>Trackpoint 9729</name>
            </trkpt>
            <trkpt lat="50.0264096" lon="10.3261432">
                <ele>215.0</ele>
                <time>2020-08-22T17:49:05.000Z</time>
                <name>Trackpoint 9730</name>
            </trkpt>
            <trkpt lat="50.0264704" lon="10.3260496">
                <ele>215.0</ele>
                <time>2020-08-22T17:49:07.000Z</time>
                <name>Trackpoint 9731</name>
            </trkpt>
            <trkpt lat="50.0265312" lon="10.32596">
                <ele>215.0</ele>
                <time>2020-08-22T17:49:09.000Z</time>
                <name>Trackpoint 9732</name>
            </trkpt>
            <trkpt lat="50.026592" lon="10.3258736">
                <ele>216.0</ele>
                <time>2020-08-22T17:49:11.000Z</time>
                <name>Trackpoint 9733</name>
            </trkpt>
            <trkpt lat="50.026656" lon="10.3257952">
                <ele>216.0</ele>
                <time>2020-08-22T17:49:13.000Z</time>
                <name>Trackpoint 9734</name>
            </trkpt>
            <trkpt lat="50.0267168" lon="10.3257248">
                <ele>216.0</ele>
                <time>2020-08-22T17:49:15.000Z</time>
                <name>Trackpoint 9735</name>
            </trkpt>
            <trkpt lat="50.026784" lon="10.3256584">
                <ele>216.0</ele>
                <time>2020-08-22T17:49:17.000Z</time>
                <name>Trackpoint 9736</name>
            </trkpt>
            <trkpt lat="50.0268768" lon="10.3255752">
                <ele>217.0</ele>
                <time>2020-08-22T17:49:20.000Z</time>
                <name>Trackpoint 9737</name>
            </trkpt>
            <trkpt lat="50.0269664" lon="10.3254984">
                <ele>217.0</ele>
                <time>2020-08-22T17:49:23.000Z</time>
                <name>Trackpoint 9738</name>
            </trkpt>
            <trkpt lat="50.0270496" lon="10.3254248">
                <ele>218.0</ele>
                <time>2020-08-22T17:49:26.000Z</time>
                <name>Trackpoint 9739</name>
            </trkpt>
            <trkpt lat="50.0271296" lon="10.3253584">
                <ele>218.0</ele>
                <time>2020-08-22T17:49:29.000Z</time>
                <name>Trackpoint 9740</name>
            </trkpt>
            <trkpt lat="50.0272064" lon="10.3252824">
                <ele>218.0</ele>
                <time>2020-08-22T17:49:32.000Z</time>
                <name>Trackpoint 9741</name>
            </trkpt>
            <trkpt lat="50.0272896" lon="10.3252064">
                <ele>216.0</ele>
                <time>2020-08-22T17:49:35.000Z</time>
                <name>Trackpoint 9742</name>
            </trkpt>
            <trkpt lat="50.0273632" lon="10.3251416">
                <ele>215.0</ele>
                <time>2020-08-22T17:49:37.000Z</time>
                <name>Trackpoint 9743</name>
            </trkpt>
            <trkpt lat="50.02744" lon="10.3250576">
                <ele>215.0</ele>
                <time>2020-08-22T17:49:39.000Z</time>
                <name>Trackpoint 9744</name>
            </trkpt>
            <trkpt lat="50.0275168" lon="10.3249648">
                <ele>215.0</ele>
                <time>2020-08-22T17:49:41.000Z</time>
                <name>Trackpoint 9745</name>
            </trkpt>
            <trkpt lat="50.0275904" lon="10.324868">
                <ele>214.0</ele>
                <time>2020-08-22T17:49:43.000Z</time>
                <name>Trackpoint 9746</name>
            </trkpt>
            <trkpt lat="50.0276768" lon="10.3247784">
                <ele>214.0</ele>
                <time>2020-08-22T17:49:45.000Z</time>
                <name>Trackpoint 9747</name>
            </trkpt>
            <trkpt lat="50.0277632" lon="10.3246944">
                <ele>213.0</ele>
                <time>2020-08-22T17:49:47.000Z</time>
                <name>Trackpoint 9748</name>
            </trkpt>
            <trkpt lat="50.0278432" lon="10.3246248">
                <ele>213.0</ele>
                <time>2020-08-22T17:49:49.000Z</time>
                <name>Trackpoint 9749</name>
            </trkpt>
            <trkpt lat="50.027936" lon="10.3245672">
                <ele>213.0</ele>
                <time>2020-08-22T17:49:51.000Z</time>
                <name>Trackpoint 9750</name>
            </trkpt>
            <trkpt lat="50.0280256" lon="10.3245448">
                <ele>213.0</ele>
                <time>2020-08-22T17:49:53.000Z</time>
                <name>Trackpoint 9751</name>
            </trkpt>
            <trkpt lat="50.0281184" lon="10.32454">
                <ele>213.0</ele>
                <time>2020-08-22T17:49:55.000Z</time>
                <name>Trackpoint 9752</name>
            </trkpt>
            <trkpt lat="50.0282112" lon="10.3245472">
                <ele>214.0</ele>
                <time>2020-08-22T17:49:57.000Z</time>
                <name>Trackpoint 9753</name>
            </trkpt>
            <trkpt lat="50.0283008" lon="10.32452">
                <ele>213.0</ele>
                <time>2020-08-22T17:49:59.000Z</time>
                <name>Trackpoint 9754</name>
            </trkpt>
            <trkpt lat="50.0283808" lon="10.3244712">
                <ele>212.0</ele>
                <time>2020-08-22T17:50:01.000Z</time>
                <name>Trackpoint 9755</name>
            </trkpt>
            <trkpt lat="50.0284608" lon="10.3243912">
                <ele>211.0</ele>
                <time>2020-08-22T17:50:03.000Z</time>
                <name>Trackpoint 9756</name>
            </trkpt>
            <trkpt lat="50.0285376" lon="10.3243">
                <ele>210.0</ele>
                <time>2020-08-22T17:50:05.000Z</time>
                <name>Trackpoint 9757</name>
            </trkpt>
            <trkpt lat="50.028608" lon="10.3241928">
                <ele>210.0</ele>
                <time>2020-08-22T17:50:07.000Z</time>
                <name>Trackpoint 9758</name>
            </trkpt>
            <trkpt lat="50.028672" lon="10.3240856">
                <ele>211.0</ele>
                <time>2020-08-22T17:50:09.000Z</time>
                <name>Trackpoint 9759</name>
            </trkpt>
            <trkpt lat="50.0287392" lon="10.3239848">
                <ele>211.0</ele>
                <time>2020-08-22T17:50:11.000Z</time>
                <name>Trackpoint 9760</name>
            </trkpt>
            <trkpt lat="50.0288" lon="10.3238896">
                <ele>211.0</ele>
                <time>2020-08-22T17:50:13.000Z</time>
                <name>Trackpoint 9761</name>
            </trkpt>
            <trkpt lat="50.0288576" lon="10.3238">
                <ele>212.0</ele>
                <time>2020-08-22T17:50:15.000Z</time>
                <name>Trackpoint 9762</name>
            </trkpt>
            <trkpt lat="50.0289184" lon="10.3237136">
                <ele>211.0</ele>
                <time>2020-08-22T17:50:17.000Z</time>
                <name>Trackpoint 9763</name>
            </trkpt>
            <trkpt lat="50.0289792" lon="10.3236288">
                <ele>211.0</ele>
                <time>2020-08-22T17:50:19.000Z</time>
                <name>Trackpoint 9764</name>
            </trkpt>
            <trkpt lat="50.0290464" lon="10.32354">
                <ele>211.0</ele>
                <time>2020-08-22T17:50:21.000Z</time>
                <name>Trackpoint 9765</name>
            </trkpt>
            <trkpt lat="50.0291072" lon="10.3234456">
                <ele>211.0</ele>
                <time>2020-08-22T17:50:23.000Z</time>
                <name>Trackpoint 9766</name>
            </trkpt>
            <trkpt lat="50.0291712" lon="10.323352">
                <ele>211.0</ele>
                <time>2020-08-22T17:50:25.000Z</time>
                <name>Trackpoint 9767</name>
            </trkpt>
            <trkpt lat="50.0292384" lon="10.3232616">
                <ele>211.0</ele>
                <time>2020-08-22T17:50:27.000Z</time>
                <name>Trackpoint 9768</name>
            </trkpt>
            <trkpt lat="50.0293088" lon="10.3231672">
                <ele>211.0</ele>
                <time>2020-08-22T17:50:29.000Z</time>
                <name>Trackpoint 9769</name>
            </trkpt>
            <trkpt lat="50.0293728" lon="10.3230696">
                <ele>211.0</ele>
                <time>2020-08-22T17:50:31.000Z</time>
                <name>Trackpoint 9770</name>
            </trkpt>
            <trkpt lat="50.0294368" lon="10.3229768">
                <ele>211.0</ele>
                <time>2020-08-22T17:50:33.000Z</time>
                <name>Trackpoint 9771</name>
            </trkpt>
            <trkpt lat="50.029504" lon="10.322888">
                <ele>212.0</ele>
                <time>2020-08-22T17:50:35.000Z</time>
                <name>Trackpoint 9772</name>
            </trkpt>
            <trkpt lat="50.029568" lon="10.3228016">
                <ele>212.0</ele>
                <time>2020-08-22T17:50:37.000Z</time>
                <name>Trackpoint 9773</name>
            </trkpt>
            <trkpt lat="50.0296352" lon="10.3227104">
                <ele>212.0</ele>
                <time>2020-08-22T17:50:39.000Z</time>
                <name>Trackpoint 9774</name>
            </trkpt>
            <trkpt lat="50.0297056" lon="10.3226184">
                <ele>212.0</ele>
                <time>2020-08-22T17:50:41.000Z</time>
                <name>Trackpoint 9775</name>
            </trkpt>
            <trkpt lat="50.0297696" lon="10.3225336">
                <ele>212.0</ele>
                <time>2020-08-22T17:50:43.000Z</time>
                <name>Trackpoint 9776</name>
            </trkpt>
            <trkpt lat="50.0298304" lon="10.3224536">
                <ele>212.0</ele>
                <time>2020-08-22T17:50:45.000Z</time>
                <name>Trackpoint 9777</name>
            </trkpt>
            <trkpt lat="50.0298848" lon="10.3223736">
                <ele>212.0</ele>
                <time>2020-08-22T17:50:47.000Z</time>
                <name>Trackpoint 9778</name>
            </trkpt>
            <trkpt lat="50.0299616" lon="10.3222784">
                <ele>212.0</ele>
                <time>2020-08-22T17:50:50.000Z</time>
                <name>Trackpoint 9779</name>
            </trkpt>
            <trkpt lat="50.0300288" lon="10.3221912">
                <ele>212.0</ele>
                <time>2020-08-22T17:50:53.000Z</time>
                <name>Trackpoint 9780</name>
            </trkpt>
            <trkpt lat="50.0301056" lon="10.3221064">
                <ele>212.0</ele>
                <time>2020-08-22T17:50:56.000Z</time>
                <name>Trackpoint 9781</name>
            </trkpt>
            <trkpt lat="50.0301696" lon="10.3220056">
                <ele>213.0</ele>
                <time>2020-08-22T17:50:59.000Z</time>
                <name>Trackpoint 9782</name>
            </trkpt>
            <trkpt lat="50.0302208" lon="10.3219216">
                <ele>215.0</ele>
                <time>2020-08-22T17:51:36.000Z</time>
                <name>Trackpoint 9783</name>
            </trkpt>
            <trkpt lat="50.0302912" lon="10.3218432">
                <ele>216.0</ele>
                <time>2020-08-22T17:51:40.000Z</time>
                <name>Trackpoint 9784</name>
            </trkpt>
            <trkpt lat="50.0303648" lon="10.3217584">
                <ele>215.0</ele>
                <time>2020-08-22T17:51:44.000Z</time>
                <name>Trackpoint 9785</name>
            </trkpt>
            <trkpt lat="50.0304448" lon="10.3216848">
                <ele>215.0</ele>
                <time>2020-08-22T17:51:47.000Z</time>
                <name>Trackpoint 9786</name>
            </trkpt>
            <trkpt lat="50.030544" lon="10.3216264">
                <ele>217.0</ele>
                <time>2020-08-22T17:51:50.000Z</time>
                <name>Trackpoint 9787</name>
            </trkpt>
            <trkpt lat="50.03064" lon="10.3215616">
                <ele>217.0</ele>
                <time>2020-08-22T17:51:53.000Z</time>
                <name>Trackpoint 9788</name>
            </trkpt>
            <trkpt lat="50.030736" lon="10.3214728">
                <ele>215.0</ele>
                <time>2020-08-22T17:51:56.000Z</time>
                <name>Trackpoint 9789</name>
            </trkpt>
            <trkpt lat="50.0308256" lon="10.321388">
                <ele>214.0</ele>
                <time>2020-08-22T17:51:59.000Z</time>
                <name>Trackpoint 9790</name>
            </trkpt>
            <trkpt lat="50.0308928" lon="10.3213184">
                <ele>213.0</ele>
                <time>2020-08-22T17:52:01.000Z</time>
                <name>Trackpoint 9791</name>
            </trkpt>
            <trkpt lat="50.0309536" lon="10.3212472">
                <ele>213.0</ele>
                <time>2020-08-22T17:52:03.000Z</time>
                <name>Trackpoint 9792</name>
            </trkpt>
            <trkpt lat="50.0310176" lon="10.3211768">
                <ele>213.0</ele>
                <time>2020-08-22T17:52:05.000Z</time>
                <name>Trackpoint 9793</name>
            </trkpt>
            <trkpt lat="50.0310816" lon="10.321108">
                <ele>213.0</ele>
                <time>2020-08-22T17:52:07.000Z</time>
                <name>Trackpoint 9794</name>
            </trkpt>
            <trkpt lat="50.0311424" lon="10.3210384">
                <ele>213.0</ele>
                <time>2020-08-22T17:52:09.000Z</time>
                <name>Trackpoint 9795</name>
            </trkpt>
            <trkpt lat="50.0312096" lon="10.3209688">
                <ele>213.0</ele>
                <time>2020-08-22T17:52:11.000Z</time>
                <name>Trackpoint 9796</name>
            </trkpt>
            <trkpt lat="50.0312736" lon="10.3209">
                <ele>213.0</ele>
                <time>2020-08-22T17:52:13.000Z</time>
                <name>Trackpoint 9797</name>
            </trkpt>
            <trkpt lat="50.0313344" lon="10.3208288">
                <ele>213.0</ele>
                <time>2020-08-22T17:52:15.000Z</time>
                <name>Trackpoint 9798</name>
            </trkpt>
            <trkpt lat="50.0313984" lon="10.3207616">
                <ele>213.0</ele>
                <time>2020-08-22T17:52:17.000Z</time>
                <name>Trackpoint 9799</name>
            </trkpt>
            <trkpt lat="50.031504" lon="10.3206856">
                <ele>213.0</ele>
                <time>2020-08-22T17:52:20.000Z</time>
                <name>Trackpoint 9800</name>
            </trkpt>
            <trkpt lat="50.0316192" lon="10.3206032">
                <ele>213.0</ele>
                <time>2020-08-22T17:52:23.000Z</time>
                <name>Trackpoint 9801</name>
            </trkpt>
            <trkpt lat="50.0316928" lon="10.3205232">
                <ele>213.0</ele>
                <time>2020-08-22T17:52:25.000Z</time>
                <name>Trackpoint 9802</name>
            </trkpt>
            <trkpt lat="50.0317696" lon="10.320448">
                <ele>212.0</ele>
                <time>2020-08-22T17:52:27.000Z</time>
                <name>Trackpoint 9803</name>
            </trkpt>
            <trkpt lat="50.0318464" lon="10.3203824">
                <ele>212.0</ele>
                <time>2020-08-22T17:52:29.000Z</time>
                <name>Trackpoint 9804</name>
            </trkpt>
            <trkpt lat="50.0319168" lon="10.3203112">
                <ele>212.0</ele>
                <time>2020-08-22T17:52:31.000Z</time>
                <name>Trackpoint 9805</name>
            </trkpt>
            <trkpt lat="50.0319904" lon="10.3202432">
                <ele>212.0</ele>
                <time>2020-08-22T17:52:33.000Z</time>
                <name>Trackpoint 9806</name>
            </trkpt>
            <trkpt lat="50.032064" lon="10.3201752">
                <ele>211.0</ele>
                <time>2020-08-22T17:52:35.000Z</time>
                <name>Trackpoint 9807</name>
            </trkpt>
            <trkpt lat="50.0321344" lon="10.3201128">
                <ele>212.0</ele>
                <time>2020-08-22T17:52:37.000Z</time>
                <name>Trackpoint 9808</name>
            </trkpt>
            <trkpt lat="50.0322112" lon="10.3200464">
                <ele>212.0</ele>
                <time>2020-08-22T17:52:39.000Z</time>
                <name>Trackpoint 9809</name>
            </trkpt>
            <trkpt lat="50.032288" lon="10.3199832">
                <ele>212.0</ele>
                <time>2020-08-22T17:52:41.000Z</time>
                <name>Trackpoint 9810</name>
            </trkpt>
            <trkpt lat="50.0323616" lon="10.3199152">
                <ele>213.0</ele>
                <time>2020-08-22T17:52:43.000Z</time>
                <name>Trackpoint 9811</name>
            </trkpt>
            <trkpt lat="50.032432" lon="10.3198472">
                <ele>213.0</ele>
                <time>2020-08-22T17:52:45.000Z</time>
                <name>Trackpoint 9812</name>
            </trkpt>
            <trkpt lat="50.032512" lon="10.3197816">
                <ele>212.0</ele>
                <time>2020-08-22T17:52:47.000Z</time>
                <name>Trackpoint 9813</name>
            </trkpt>
            <trkpt lat="50.0325888" lon="10.3197136">
                <ele>212.0</ele>
                <time>2020-08-22T17:52:49.000Z</time>
                <name>Trackpoint 9814</name>
            </trkpt>
            <trkpt lat="50.0326688" lon="10.31964">
                <ele>212.0</ele>
                <time>2020-08-22T17:52:51.000Z</time>
                <name>Trackpoint 9815</name>
            </trkpt>
            <trkpt lat="50.032752" lon="10.3195752">
                <ele>212.0</ele>
                <time>2020-08-22T17:52:53.000Z</time>
                <name>Trackpoint 9816</name>
            </trkpt>
            <trkpt lat="50.032832" lon="10.3195048">
                <ele>212.0</ele>
                <time>2020-08-22T17:52:55.000Z</time>
                <name>Trackpoint 9817</name>
            </trkpt>
            <trkpt lat="50.032912" lon="10.3194312">
                <ele>212.0</ele>
                <time>2020-08-22T17:52:57.000Z</time>
                <name>Trackpoint 9818</name>
            </trkpt>
            <trkpt lat="50.032992" lon="10.31936">
                <ele>212.0</ele>
                <time>2020-08-22T17:52:59.000Z</time>
                <name>Trackpoint 9819</name>
            </trkpt>
            <trkpt lat="50.0330784" lon="10.319292">
                <ele>212.0</ele>
                <time>2020-08-22T17:53:01.000Z</time>
                <name>Trackpoint 9820</name>
            </trkpt>
            <trkpt lat="50.0331616" lon="10.3192256">
                <ele>212.0</ele>
                <time>2020-08-22T17:53:03.000Z</time>
                <name>Trackpoint 9821</name>
            </trkpt>
            <trkpt lat="50.0332416" lon="10.3191608">
                <ele>212.0</ele>
                <time>2020-08-22T17:53:05.000Z</time>
                <name>Trackpoint 9822</name>
            </trkpt>
            <trkpt lat="50.0333184" lon="10.3190936">
                <ele>213.0</ele>
                <time>2020-08-22T17:53:07.000Z</time>
                <name>Trackpoint 9823</name>
            </trkpt>
            <trkpt lat="50.0333952" lon="10.3190272">
                <ele>213.0</ele>
                <time>2020-08-22T17:53:09.000Z</time>
                <name>Trackpoint 9824</name>
            </trkpt>
            <trkpt lat="50.0334656" lon="10.3189688">
                <ele>213.0</ele>
                <time>2020-08-22T17:53:11.000Z</time>
                <name>Trackpoint 9825</name>
            </trkpt>
            <trkpt lat="50.0335648" lon="10.3188864">
                <ele>213.0</ele>
                <time>2020-08-22T17:53:14.000Z</time>
                <name>Trackpoint 9826</name>
            </trkpt>
            <trkpt lat="50.0336352" lon="10.3188248">
                <ele>215.0</ele>
                <time>2020-08-22T17:53:16.000Z</time>
                <name>Trackpoint 9827</name>
            </trkpt>
            <trkpt lat="50.0337376" lon="10.318744">
                <ele>215.0</ele>
                <time>2020-08-22T17:53:19.000Z</time>
                <name>Trackpoint 9828</name>
            </trkpt>
            <trkpt lat="50.0338112" lon="10.3186816">
                <ele>215.0</ele>
                <time>2020-08-22T17:53:21.000Z</time>
                <name>Trackpoint 9829</name>
            </trkpt>
            <trkpt lat="50.0338848" lon="10.3186128">
                <ele>215.0</ele>
                <time>2020-08-22T17:53:23.000Z</time>
                <name>Trackpoint 9830</name>
            </trkpt>
            <trkpt lat="50.0339648" lon="10.3185384">
                <ele>214.0</ele>
                <time>2020-08-22T17:53:25.000Z</time>
                <name>Trackpoint 9831</name>
            </trkpt>
            <trkpt lat="50.0340416" lon="10.3184272">
                <ele>214.0</ele>
                <time>2020-08-22T17:53:27.000Z</time>
                <name>Trackpoint 9832</name>
            </trkpt>
            <trkpt lat="50.0341088" lon="10.31828">
                <ele>213.0</ele>
                <time>2020-08-22T17:53:29.000Z</time>
                <name>Trackpoint 9833</name>
            </trkpt>
            <trkpt lat="50.034192" lon="10.3181312">
                <ele>213.0</ele>
                <time>2020-08-22T17:53:31.000Z</time>
                <name>Trackpoint 9834</name>
            </trkpt>
            <trkpt lat="50.0342816" lon="10.3180264">
                <ele>213.0</ele>
                <time>2020-08-22T17:53:33.000Z</time>
                <name>Trackpoint 9835</name>
            </trkpt>
            <trkpt lat="50.0343776" lon="10.3179464">
                <ele>213.0</ele>
                <time>2020-08-22T17:53:35.000Z</time>
                <name>Trackpoint 9836</name>
            </trkpt>
            <trkpt lat="50.0344768" lon="10.317892">
                <ele>214.0</ele>
                <time>2020-08-22T17:53:37.000Z</time>
                <name>Trackpoint 9837</name>
            </trkpt>
            <trkpt lat="50.03456" lon="10.3178328">
                <ele>213.0</ele>
                <time>2020-08-22T17:53:39.000Z</time>
                <name>Trackpoint 9838</name>
            </trkpt>
            <trkpt lat="50.0346368" lon="10.3177784">
                <ele>213.0</ele>
                <time>2020-08-22T17:53:41.000Z</time>
                <name>Trackpoint 9839</name>
            </trkpt>
            <trkpt lat="50.03472" lon="10.3177144">
                <ele>213.0</ele>
                <time>2020-08-22T17:53:43.000Z</time>
                <name>Trackpoint 9840</name>
            </trkpt>
            <trkpt lat="50.0348" lon="10.3176568">
                <ele>213.0</ele>
                <time>2020-08-22T17:53:45.000Z</time>
                <name>Trackpoint 9841</name>
            </trkpt>
            <trkpt lat="50.0348768" lon="10.3176">
                <ele>214.0</ele>
                <time>2020-08-22T17:53:47.000Z</time>
                <name>Trackpoint 9842</name>
            </trkpt>
            <trkpt lat="50.0349792" lon="10.3175152">
                <ele>213.0</ele>
                <time>2020-08-22T17:53:50.000Z</time>
                <name>Trackpoint 9843</name>
            </trkpt>
            <trkpt lat="50.0350656" lon="10.3174552">
                <ele>213.0</ele>
                <time>2020-08-22T17:53:52.000Z</time>
                <name>Trackpoint 9844</name>
            </trkpt>
            <trkpt lat="50.0351488" lon="10.3173904">
                <ele>213.0</ele>
                <time>2020-08-22T17:53:54.000Z</time>
                <name>Trackpoint 9845</name>
            </trkpt>
            <trkpt lat="50.0352416" lon="10.317324">
                <ele>213.0</ele>
                <time>2020-08-22T17:53:56.000Z</time>
                <name>Trackpoint 9846</name>
            </trkpt>
            <trkpt lat="50.0353312" lon="10.31726">
                <ele>212.0</ele>
                <time>2020-08-22T17:53:58.000Z</time>
                <name>Trackpoint 9847</name>
            </trkpt>
            <trkpt lat="50.0354272" lon="10.3171968">
                <ele>212.0</ele>
                <time>2020-08-22T17:54:00.000Z</time>
                <name>Trackpoint 9848</name>
            </trkpt>
            <trkpt lat="50.0355296" lon="10.31714">
                <ele>213.0</ele>
                <time>2020-08-22T17:54:02.000Z</time>
                <name>Trackpoint 9849</name>
            </trkpt>
            <trkpt lat="50.0356256" lon="10.3170704">
                <ele>212.0</ele>
                <time>2020-08-22T17:54:04.000Z</time>
                <name>Trackpoint 9850</name>
            </trkpt>
            <trkpt lat="50.035728" lon="10.3169872">
                <ele>212.0</ele>
                <time>2020-08-22T17:54:06.000Z</time>
                <name>Trackpoint 9851</name>
            </trkpt>
            <trkpt lat="50.035824" lon="10.3169168">
                <ele>212.0</ele>
                <time>2020-08-22T17:54:08.000Z</time>
                <name>Trackpoint 9852</name>
            </trkpt>
            <trkpt lat="50.0359232" lon="10.3168384">
                <ele>211.0</ele>
                <time>2020-08-22T17:54:10.000Z</time>
                <name>Trackpoint 9853</name>
            </trkpt>
            <trkpt lat="50.036016" lon="10.3167584">
                <ele>211.0</ele>
                <time>2020-08-22T17:54:12.000Z</time>
                <name>Trackpoint 9854</name>
            </trkpt>
            <trkpt lat="50.0361056" lon="10.3166784">
                <ele>211.0</ele>
                <time>2020-08-22T17:54:14.000Z</time>
                <name>Trackpoint 9855</name>
            </trkpt>
            <trkpt lat="50.0361984" lon="10.3166016">
                <ele>211.0</ele>
                <time>2020-08-22T17:54:16.000Z</time>
                <name>Trackpoint 9856</name>
            </trkpt>
            <trkpt lat="50.0362944" lon="10.316528">
                <ele>211.0</ele>
                <time>2020-08-22T17:54:18.000Z</time>
                <name>Trackpoint 9857</name>
            </trkpt>
            <trkpt lat="50.036384" lon="10.3164504">
                <ele>212.0</ele>
                <time>2020-08-22T17:54:20.000Z</time>
                <name>Trackpoint 9858</name>
            </trkpt>
            <trkpt lat="50.0364768" lon="10.316368">
                <ele>212.0</ele>
                <time>2020-08-22T17:54:22.000Z</time>
                <name>Trackpoint 9859</name>
            </trkpt>
            <trkpt lat="50.03656" lon="10.3162944">
                <ele>211.0</ele>
                <time>2020-08-22T17:54:24.000Z</time>
                <name>Trackpoint 9860</name>
            </trkpt>
            <trkpt lat="50.0366528" lon="10.31622">
                <ele>212.0</ele>
                <time>2020-08-22T17:54:26.000Z</time>
                <name>Trackpoint 9861</name>
            </trkpt>
            <trkpt lat="50.0367424" lon="10.316136">
                <ele>213.0</ele>
                <time>2020-08-22T17:54:28.000Z</time>
                <name>Trackpoint 9862</name>
            </trkpt>
            <trkpt lat="50.036832" lon="10.3160536">
                <ele>211.0</ele>
                <time>2020-08-22T17:54:30.000Z</time>
                <name>Trackpoint 9863</name>
            </trkpt>
            <trkpt lat="50.0369184" lon="10.3159704">
                <ele>211.0</ele>
                <time>2020-08-22T17:54:32.000Z</time>
                <name>Trackpoint 9864</name>
            </trkpt>
            <trkpt lat="50.0370112" lon="10.3158912">
                <ele>211.0</ele>
                <time>2020-08-22T17:54:34.000Z</time>
                <name>Trackpoint 9865</name>
            </trkpt>
            <trkpt lat="50.0371008" lon="10.3158216">
                <ele>212.0</ele>
                <time>2020-08-22T17:54:36.000Z</time>
                <name>Trackpoint 9866</name>
            </trkpt>
            <trkpt lat="50.0371904" lon="10.3157456">
                <ele>212.0</ele>
                <time>2020-08-22T17:54:38.000Z</time>
                <name>Trackpoint 9867</name>
            </trkpt>
            <trkpt lat="50.03728" lon="10.3156656">
                <ele>212.0</ele>
                <time>2020-08-22T17:54:40.000Z</time>
                <name>Trackpoint 9868</name>
            </trkpt>
            <trkpt lat="50.0373696" lon="10.3155872">
                <ele>212.0</ele>
                <time>2020-08-22T17:54:42.000Z</time>
                <name>Trackpoint 9869</name>
            </trkpt>
            <trkpt lat="50.0374528" lon="10.3155072">
                <ele>211.0</ele>
                <time>2020-08-22T17:54:44.000Z</time>
                <name>Trackpoint 9870</name>
            </trkpt>
            <trkpt lat="50.037536" lon="10.3154352">
                <ele>211.0</ele>
                <time>2020-08-22T17:54:46.000Z</time>
                <name>Trackpoint 9871</name>
            </trkpt>
            <trkpt lat="50.037616" lon="10.3153696">
                <ele>211.0</ele>
                <time>2020-08-22T17:54:48.000Z</time>
                <name>Trackpoint 9872</name>
            </trkpt>
            <trkpt lat="50.0376896" lon="10.3153088">
                <ele>212.0</ele>
                <time>2020-08-22T17:54:50.000Z</time>
                <name>Trackpoint 9873</name>
            </trkpt>
            <trkpt lat="50.0377568" lon="10.3152464">
                <ele>211.0</ele>
                <time>2020-08-22T17:54:52.000Z</time>
                <name>Trackpoint 9874</name>
            </trkpt>
            <trkpt lat="50.0378496" lon="10.3151576">
                <ele>211.0</ele>
                <time>2020-08-22T17:54:55.000Z</time>
                <name>Trackpoint 9875</name>
            </trkpt>
            <trkpt lat="50.0379456" lon="10.3150768">
                <ele>210.0</ele>
                <time>2020-08-22T17:54:58.000Z</time>
                <name>Trackpoint 9876</name>
            </trkpt>
            <trkpt lat="50.038016" lon="10.3150168">
                <ele>211.0</ele>
                <time>2020-08-22T17:55:00.000Z</time>
                <name>Trackpoint 9877</name>
            </trkpt>
            <trkpt lat="50.0380928" lon="10.314948">
                <ele>211.0</ele>
                <time>2020-08-22T17:55:02.000Z</time>
                <name>Trackpoint 9878</name>
            </trkpt>
            <trkpt lat="50.0381696" lon="10.3148736">
                <ele>210.0</ele>
                <time>2020-08-22T17:55:04.000Z</time>
                <name>Trackpoint 9879</name>
            </trkpt>
            <trkpt lat="50.0382496" lon="10.3148048">
                <ele>210.0</ele>
                <time>2020-08-22T17:55:06.000Z</time>
                <name>Trackpoint 9880</name>
            </trkpt>
            <trkpt lat="50.0383296" lon="10.3147288">
                <ele>209.0</ele>
                <time>2020-08-22T17:55:08.000Z</time>
                <name>Trackpoint 9881</name>
            </trkpt>
            <trkpt lat="50.0384192" lon="10.3146512">
                <ele>209.0</ele>
                <time>2020-08-22T17:55:10.000Z</time>
                <name>Trackpoint 9882</name>
            </trkpt>
            <trkpt lat="50.0385056" lon="10.3145784">
                <ele>210.0</ele>
                <time>2020-08-22T17:55:12.000Z</time>
                <name>Trackpoint 9883</name>
            </trkpt>
            <trkpt lat="50.0386016" lon="10.3145016">
                <ele>210.0</ele>
                <time>2020-08-22T17:55:14.000Z</time>
                <name>Trackpoint 9884</name>
            </trkpt>
            <trkpt lat="50.0386912" lon="10.3144264">
                <ele>211.0</ele>
                <time>2020-08-22T17:55:16.000Z</time>
                <name>Trackpoint 9885</name>
            </trkpt>
            <trkpt lat="50.0387808" lon="10.3143464">
                <ele>211.0</ele>
                <time>2020-08-22T17:55:18.000Z</time>
                <name>Trackpoint 9886</name>
            </trkpt>
            <trkpt lat="50.0388768" lon="10.3142632">
                <ele>210.0</ele>
                <time>2020-08-22T17:55:20.000Z</time>
                <name>Trackpoint 9887</name>
            </trkpt>
            <trkpt lat="50.0389664" lon="10.3141848">
                <ele>210.0</ele>
                <time>2020-08-22T17:55:22.000Z</time>
                <name>Trackpoint 9888</name>
            </trkpt>
            <trkpt lat="50.0390592" lon="10.3141096">
                <ele>210.0</ele>
                <time>2020-08-22T17:55:24.000Z</time>
                <name>Trackpoint 9889</name>
            </trkpt>
            <trkpt lat="50.0391488" lon="10.3140296">
                <ele>210.0</ele>
                <time>2020-08-22T17:55:26.000Z</time>
                <name>Trackpoint 9890</name>
            </trkpt>
            <trkpt lat="50.0392416" lon="10.3139536">
                <ele>210.0</ele>
                <time>2020-08-22T17:55:28.000Z</time>
                <name>Trackpoint 9891</name>
            </trkpt>
            <trkpt lat="50.0393344" lon="10.3138784">
                <ele>211.0</ele>
                <time>2020-08-22T17:55:30.000Z</time>
                <name>Trackpoint 9892</name>
            </trkpt>
            <trkpt lat="50.0394208" lon="10.3137976">
                <ele>210.0</ele>
                <time>2020-08-22T17:55:32.000Z</time>
                <name>Trackpoint 9893</name>
            </trkpt>
            <trkpt lat="50.039504" lon="10.3137216">
                <ele>210.0</ele>
                <time>2020-08-22T17:55:34.000Z</time>
                <name>Trackpoint 9894</name>
            </trkpt>
            <trkpt lat="50.0395936" lon="10.3136528">
                <ele>210.0</ele>
                <time>2020-08-22T17:55:36.000Z</time>
                <name>Trackpoint 9895</name>
            </trkpt>
            <trkpt lat="50.0396768" lon="10.313588">
                <ele>210.0</ele>
                <time>2020-08-22T17:55:38.000Z</time>
                <name>Trackpoint 9896</name>
            </trkpt>
            <trkpt lat="50.03976" lon="10.3135168">
                <ele>210.0</ele>
                <time>2020-08-22T17:55:40.000Z</time>
                <name>Trackpoint 9897</name>
            </trkpt>
            <trkpt lat="50.0398528" lon="10.3134336">
                <ele>209.0</ele>
                <time>2020-08-22T17:55:42.000Z</time>
                <name>Trackpoint 9898</name>
            </trkpt>
            <trkpt lat="50.0399424" lon="10.313352">
                <ele>208.0</ele>
                <time>2020-08-22T17:55:44.000Z</time>
                <name>Trackpoint 9899</name>
            </trkpt>
            <trkpt lat="50.0400352" lon="10.3132752">
                <ele>208.0</ele>
                <time>2020-08-22T17:55:46.000Z</time>
                <name>Trackpoint 9900</name>
            </trkpt>
            <trkpt lat="50.0401312" lon="10.3132032">
                <ele>208.0</ele>
                <time>2020-08-22T17:55:48.000Z</time>
                <name>Trackpoint 9901</name>
            </trkpt>
            <trkpt lat="50.0402112" lon="10.3131384">
                <ele>209.0</ele>
                <time>2020-08-22T17:55:50.000Z</time>
                <name>Trackpoint 9902</name>
            </trkpt>
            <trkpt lat="50.0403008" lon="10.3130528">
                <ele>210.0</ele>
                <time>2020-08-22T17:55:52.000Z</time>
                <name>Trackpoint 9903</name>
            </trkpt>
            <trkpt lat="50.0403936" lon="10.3129768">
                <ele>211.0</ele>
                <time>2020-08-22T17:55:54.000Z</time>
                <name>Trackpoint 9904</name>
            </trkpt>
            <trkpt lat="50.04048" lon="10.3128968">
                <ele>211.0</ele>
                <time>2020-08-22T17:55:56.000Z</time>
                <name>Trackpoint 9905</name>
            </trkpt>
            <trkpt lat="50.0405568" lon="10.3128032">
                <ele>210.0</ele>
                <time>2020-08-22T17:55:58.000Z</time>
                <name>Trackpoint 9906</name>
            </trkpt>
            <trkpt lat="50.0406304" lon="10.3126984">
                <ele>209.0</ele>
                <time>2020-08-22T17:56:00.000Z</time>
                <name>Trackpoint 9907</name>
            </trkpt>
            <trkpt lat="50.0406784" lon="10.3125784">
                <ele>209.0</ele>
                <time>2020-08-22T17:56:02.000Z</time>
                <name>Trackpoint 9908</name>
            </trkpt>
            <trkpt lat="50.0407328" lon="10.31246">
                <ele>210.0</ele>
                <time>2020-08-22T17:56:04.000Z</time>
                <name>Trackpoint 9909</name>
            </trkpt>
            <trkpt lat="50.0407776" lon="10.3123352">
                <ele>210.0</ele>
                <time>2020-08-22T17:56:06.000Z</time>
                <name>Trackpoint 9910</name>
            </trkpt>
            <trkpt lat="50.0408288" lon="10.312212">
                <ele>211.0</ele>
                <time>2020-08-22T17:56:08.000Z</time>
                <name>Trackpoint 9911</name>
            </trkpt>
            <trkpt lat="50.0408864" lon="10.3120968">
                <ele>211.0</ele>
                <time>2020-08-22T17:56:10.000Z</time>
                <name>Trackpoint 9912</name>
            </trkpt>
            <trkpt lat="50.0409472" lon="10.3119832">
                <ele>211.0</ele>
                <time>2020-08-22T17:56:12.000Z</time>
                <name>Trackpoint 9913</name>
            </trkpt>
            <trkpt lat="50.0410048" lon="10.3118696">
                <ele>211.0</ele>
                <time>2020-08-22T17:56:14.000Z</time>
                <name>Trackpoint 9914</name>
            </trkpt>
            <trkpt lat="50.0410496" lon="10.3117784">
                <ele>211.0</ele>
                <time>2020-08-22T17:56:16.000Z</time>
                <name>Trackpoint 9915</name>
            </trkpt>
            <trkpt lat="50.041104" lon="10.311704">
                <ele>211.0</ele>
                <time>2020-08-22T17:56:18.000Z</time>
                <name>Trackpoint 9916</name>
            </trkpt>
            <trkpt lat="50.041168" lon="10.3116232">
                <ele>211.0</ele>
                <time>2020-08-22T17:56:20.000Z</time>
                <name>Trackpoint 9917</name>
            </trkpt>
            <trkpt lat="50.0412512" lon="10.3115232">
                <ele>211.0</ele>
                <time>2020-08-22T17:56:23.000Z</time>
                <name>Trackpoint 9918</name>
            </trkpt>
            <trkpt lat="50.041328" lon="10.3114664">
                <ele>211.0</ele>
                <time>2020-08-22T17:56:26.000Z</time>
                <name>Trackpoint 9919</name>
            </trkpt>
            <trkpt lat="50.041424" lon="10.3113584">
                <ele>211.0</ele>
                <time>2020-08-22T17:56:29.000Z</time>
                <name>Trackpoint 9920</name>
            </trkpt>
            <trkpt lat="50.0415104" lon="10.3112552">
                <ele>211.0</ele>
                <time>2020-08-22T17:56:31.000Z</time>
                <name>Trackpoint 9921</name>
            </trkpt>
            <trkpt lat="50.0416" lon="10.3111912">
                <ele>211.0</ele>
                <time>2020-08-22T17:56:33.000Z</time>
                <name>Trackpoint 9922</name>
            </trkpt>
            <trkpt lat="50.0416832" lon="10.3111016">
                <ele>211.0</ele>
                <time>2020-08-22T17:56:35.000Z</time>
                <name>Trackpoint 9923</name>
            </trkpt>
            <trkpt lat="50.04176" lon="10.3110384">
                <ele>211.0</ele>
                <time>2020-08-22T17:56:37.000Z</time>
                <name>Trackpoint 9924</name>
            </trkpt>
            <trkpt lat="50.04184" lon="10.3109952">
                <ele>211.0</ele>
                <time>2020-08-22T17:56:39.000Z</time>
                <name>Trackpoint 9925</name>
            </trkpt>
            <trkpt lat="50.0419424" lon="10.3109728">
                <ele>211.0</ele>
                <time>2020-08-22T17:56:41.000Z</time>
                <name>Trackpoint 9926</name>
            </trkpt>
            <trkpt lat="50.0420672" lon="10.310948">
                <ele>212.0</ele>
                <time>2020-08-22T17:56:44.000Z</time>
                <name>Trackpoint 9927</name>
            </trkpt>
            <trkpt lat="50.042192" lon="10.3109504">
                <ele>212.0</ele>
                <time>2020-08-22T17:56:47.000Z</time>
                <name>Trackpoint 9928</name>
            </trkpt>
            <trkpt lat="50.042304" lon="10.3109464">
                <ele>212.0</ele>
                <time>2020-08-22T17:56:51.000Z</time>
                <name>Trackpoint 9929</name>
            </trkpt>
            <trkpt lat="50.0423968" lon="10.3109568">
                <ele>213.0</ele>
                <time>2020-08-22T17:56:55.000Z</time>
                <name>Trackpoint 9930</name>
            </trkpt>
            <trkpt lat="50.042464" lon="10.3108968">
                <ele>213.0</ele>
                <time>2020-08-22T17:56:58.000Z</time>
                <name>Trackpoint 9931</name>
            </trkpt>
            <trkpt lat="50.0424576" lon="10.3108056">
                <ele>213.0</ele>
                <time>2020-08-22T17:57:17.000Z</time>
                <name>Trackpoint 9932</name>
            </trkpt>
            <trkpt lat="50.0424416" lon="10.310908">
                <ele>213.0</ele>
                <time>2020-08-22T17:57:22.000Z</time>
                <name>Trackpoint 9933</name>
            </trkpt>
            <trkpt lat="50.0424832" lon="10.311">
                <ele>213.0</ele>
                <time>2020-08-22T17:57:26.000Z</time>
                <name>Trackpoint 9934</name>
            </trkpt>
            <trkpt lat="50.0425504" lon="10.31108">
                <ele>213.0</ele>
                <time>2020-08-22T17:57:31.000Z</time>
                <name>Trackpoint 9935</name>
            </trkpt>
            <trkpt lat="50.0426496" lon="10.3110688">
                <ele>214.0</ele>
                <time>2020-08-22T17:57:36.000Z</time>
                <name>Trackpoint 9936</name>
            </trkpt>
            <trkpt lat="50.0427296" lon="10.3110088">
                <ele>214.0</ele>
                <time>2020-08-22T17:57:39.000Z</time>
                <name>Trackpoint 9937</name>
            </trkpt>
            <trkpt lat="50.0428288" lon="10.310912">
                <ele>214.0</ele>
                <time>2020-08-22T17:57:42.000Z</time>
                <name>Trackpoint 9938</name>
            </trkpt>
            <trkpt lat="50.0429024" lon="10.3108416">
                <ele>214.0</ele>
                <time>2020-08-22T17:57:44.000Z</time>
                <name>Trackpoint 9939</name>
            </trkpt>
            <trkpt lat="50.0429856" lon="10.3107752">
                <ele>214.0</ele>
                <time>2020-08-22T17:57:46.000Z</time>
                <name>Trackpoint 9940</name>
            </trkpt>
            <trkpt lat="50.043072" lon="10.3107048">
                <ele>214.0</ele>
                <time>2020-08-22T17:57:48.000Z</time>
                <name>Trackpoint 9941</name>
            </trkpt>
            <trkpt lat="50.0431552" lon="10.310632">
                <ele>213.0</ele>
                <time>2020-08-22T17:57:50.000Z</time>
                <name>Trackpoint 9942</name>
            </trkpt>
            <trkpt lat="50.0432352" lon="10.3105624">
                <ele>214.0</ele>
                <time>2020-08-22T17:57:52.000Z</time>
                <name>Trackpoint 9943</name>
            </trkpt>
            <trkpt lat="50.0433248" lon="10.3104912">
                <ele>213.0</ele>
                <time>2020-08-22T17:57:54.000Z</time>
                <name>Trackpoint 9944</name>
            </trkpt>
            <trkpt lat="50.0434144" lon="10.31042">
                <ele>213.0</ele>
                <time>2020-08-22T17:57:56.000Z</time>
                <name>Trackpoint 9945</name>
            </trkpt>
            <trkpt lat="50.0435072" lon="10.3103464">
                <ele>213.0</ele>
                <time>2020-08-22T17:57:58.000Z</time>
                <name>Trackpoint 9946</name>
            </trkpt>
            <trkpt lat="50.0435968" lon="10.3102664">
                <ele>213.0</ele>
                <time>2020-08-22T17:58:00.000Z</time>
                <name>Trackpoint 9947</name>
            </trkpt>
            <trkpt lat="50.0436928" lon="10.3101864">
                <ele>213.0</ele>
                <time>2020-08-22T17:58:02.000Z</time>
                <name>Trackpoint 9948</name>
            </trkpt>
            <trkpt lat="50.0437856" lon="10.310112">
                <ele>213.0</ele>
                <time>2020-08-22T17:58:04.000Z</time>
                <name>Trackpoint 9949</name>
            </trkpt>
            <trkpt lat="50.0438752" lon="10.3100408">
                <ele>213.0</ele>
                <time>2020-08-22T17:58:06.000Z</time>
                <name>Trackpoint 9950</name>
            </trkpt>
            <trkpt lat="50.0439712" lon="10.3099632">
                <ele>213.0</ele>
                <time>2020-08-22T17:58:08.000Z</time>
                <name>Trackpoint 9951</name>
            </trkpt>
            <trkpt lat="50.044064" lon="10.30988">
                <ele>213.0</ele>
                <time>2020-08-22T17:58:10.000Z</time>
                <name>Trackpoint 9952</name>
            </trkpt>
            <trkpt lat="50.0441536" lon="10.3098024">
                <ele>213.0</ele>
                <time>2020-08-22T17:58:12.000Z</time>
                <name>Trackpoint 9953</name>
            </trkpt>
            <trkpt lat="50.0442496" lon="10.3097232">
                <ele>213.0</ele>
                <time>2020-08-22T17:58:14.000Z</time>
                <name>Trackpoint 9954</name>
            </trkpt>
            <trkpt lat="50.0443424" lon="10.3096464">
                <ele>213.0</ele>
                <time>2020-08-22T17:58:16.000Z</time>
                <name>Trackpoint 9955</name>
            </trkpt>
            <trkpt lat="50.0444288" lon="10.3095664">
                <ele>213.0</ele>
                <time>2020-08-22T17:58:18.000Z</time>
                <name>Trackpoint 9956</name>
            </trkpt>
            <trkpt lat="50.0445152" lon="10.3094928">
                <ele>213.0</ele>
                <time>2020-08-22T17:58:20.000Z</time>
                <name>Trackpoint 9957</name>
            </trkpt>
            <trkpt lat="50.0445984" lon="10.30942">
                <ele>213.0</ele>
                <time>2020-08-22T17:58:22.000Z</time>
                <name>Trackpoint 9958</name>
            </trkpt>
            <trkpt lat="50.0446816" lon="10.3093568">
                <ele>212.0</ele>
                <time>2020-08-22T17:58:24.000Z</time>
                <name>Trackpoint 9959</name>
            </trkpt>
            <trkpt lat="50.044768" lon="10.3092832">
                <ele>213.0</ele>
                <time>2020-08-22T17:58:26.000Z</time>
                <name>Trackpoint 9960</name>
            </trkpt>
            <trkpt lat="50.0448576" lon="10.3092096">
                <ele>214.0</ele>
                <time>2020-08-22T17:58:28.000Z</time>
                <name>Trackpoint 9961</name>
            </trkpt>
            <trkpt lat="50.044944" lon="10.3091352">
                <ele>214.0</ele>
                <time>2020-08-22T17:58:30.000Z</time>
                <name>Trackpoint 9962</name>
            </trkpt>
            <trkpt lat="50.0450336" lon="10.3090536">
                <ele>214.0</ele>
                <time>2020-08-22T17:58:32.000Z</time>
                <name>Trackpoint 9963</name>
            </trkpt>
            <trkpt lat="50.0451232" lon="10.3089752">
                <ele>214.0</ele>
                <time>2020-08-22T17:58:34.000Z</time>
                <name>Trackpoint 9964</name>
            </trkpt>
            <trkpt lat="50.0452128" lon="10.3088968">
                <ele>212.0</ele>
                <time>2020-08-22T17:58:36.000Z</time>
                <name>Trackpoint 9965</name>
            </trkpt>
            <trkpt lat="50.0453024" lon="10.30882">
                <ele>212.0</ele>
                <time>2020-08-22T17:58:38.000Z</time>
                <name>Trackpoint 9966</name>
            </trkpt>
            <trkpt lat="50.0453952" lon="10.3087464">
                <ele>213.0</ele>
                <time>2020-08-22T17:58:40.000Z</time>
                <name>Trackpoint 9967</name>
            </trkpt>
            <trkpt lat="50.045488" lon="10.308668">
                <ele>212.0</ele>
                <time>2020-08-22T17:58:42.000Z</time>
                <name>Trackpoint 9968</name>
            </trkpt>
            <trkpt lat="50.0455776" lon="10.308592">
                <ele>213.0</ele>
                <time>2020-08-22T17:58:44.000Z</time>
                <name>Trackpoint 9969</name>
            </trkpt>
            <trkpt lat="50.0456704" lon="10.308512">
                <ele>213.0</ele>
                <time>2020-08-22T17:58:46.000Z</time>
                <name>Trackpoint 9970</name>
            </trkpt>
            <trkpt lat="50.04576" lon="10.308436">
                <ele>212.0</ele>
                <time>2020-08-22T17:58:48.000Z</time>
                <name>Trackpoint 9971</name>
            </trkpt>
            <trkpt lat="50.0458528" lon="10.30836">
                <ele>213.0</ele>
                <time>2020-08-22T17:58:50.000Z</time>
                <name>Trackpoint 9972</name>
            </trkpt>
            <trkpt lat="50.0459456" lon="10.3082848">
                <ele>213.0</ele>
                <time>2020-08-22T17:58:52.000Z</time>
                <name>Trackpoint 9973</name>
            </trkpt>
            <trkpt lat="50.0460288" lon="10.3082088">
                <ele>213.0</ele>
                <time>2020-08-22T17:58:54.000Z</time>
                <name>Trackpoint 9974</name>
            </trkpt>
            <trkpt lat="50.0461088" lon="10.3081368">
                <ele>214.0</ele>
                <time>2020-08-22T17:58:56.000Z</time>
                <name>Trackpoint 9975</name>
            </trkpt>
            <trkpt lat="50.0461888" lon="10.3080656">
                <ele>215.0</ele>
                <time>2020-08-22T17:58:58.000Z</time>
                <name>Trackpoint 9976</name>
            </trkpt>
            <trkpt lat="50.046272" lon="10.307992">
                <ele>215.0</ele>
                <time>2020-08-22T17:59:00.000Z</time>
                <name>Trackpoint 9977</name>
            </trkpt>
            <trkpt lat="50.046352" lon="10.3079256">
                <ele>214.0</ele>
                <time>2020-08-22T17:59:02.000Z</time>
                <name>Trackpoint 9978</name>
            </trkpt>
            <trkpt lat="50.046432" lon="10.3078448">
                <ele>214.0</ele>
                <time>2020-08-22T17:59:04.000Z</time>
                <name>Trackpoint 9979</name>
            </trkpt>
            <trkpt lat="50.0465088" lon="10.307772">
                <ele>213.0</ele>
                <time>2020-08-22T17:59:06.000Z</time>
                <name>Trackpoint 9980</name>
            </trkpt>
            <trkpt lat="50.0465856" lon="10.3077">
                <ele>213.0</ele>
                <time>2020-08-22T17:59:08.000Z</time>
                <name>Trackpoint 9981</name>
            </trkpt>
            <trkpt lat="50.046656" lon="10.3076296">
                <ele>214.0</ele>
                <time>2020-08-22T17:59:10.000Z</time>
                <name>Trackpoint 9982</name>
            </trkpt>
            <trkpt lat="50.0467296" lon="10.30756">
                <ele>214.0</ele>
                <time>2020-08-22T17:59:12.000Z</time>
                <name>Trackpoint 9983</name>
            </trkpt>
            <trkpt lat="50.0468064" lon="10.3074816">
                <ele>214.0</ele>
                <time>2020-08-22T17:59:14.000Z</time>
                <name>Trackpoint 9984</name>
            </trkpt>
            <trkpt lat="50.0468864" lon="10.3074032">
                <ele>213.0</ele>
                <time>2020-08-22T17:59:16.000Z</time>
                <name>Trackpoint 9985</name>
            </trkpt>
            <trkpt lat="50.0469664" lon="10.3073216">
                <ele>212.0</ele>
                <time>2020-08-22T17:59:18.000Z</time>
                <name>Trackpoint 9986</name>
            </trkpt>
            <trkpt lat="50.0470464" lon="10.3072464">
                <ele>212.0</ele>
                <time>2020-08-22T17:59:20.000Z</time>
                <name>Trackpoint 9987</name>
            </trkpt>
            <trkpt lat="50.0471232" lon="10.307172">
                <ele>211.0</ele>
                <time>2020-08-22T17:59:22.000Z</time>
                <name>Trackpoint 9988</name>
            </trkpt>
            <trkpt lat="50.0472032" lon="10.3071072">
                <ele>211.0</ele>
                <time>2020-08-22T17:59:24.000Z</time>
                <name>Trackpoint 9989</name>
            </trkpt>
            <trkpt lat="50.0472864" lon="10.3070288">
                <ele>211.0</ele>
                <time>2020-08-22T17:59:26.000Z</time>
                <name>Trackpoint 9990</name>
            </trkpt>
            <trkpt lat="50.0473696" lon="10.3069496">
                <ele>211.0</ele>
                <time>2020-08-22T17:59:28.000Z</time>
                <name>Trackpoint 9991</name>
            </trkpt>
            <trkpt lat="50.047456" lon="10.3068768">
                <ele>211.0</ele>
                <time>2020-08-22T17:59:30.000Z</time>
                <name>Trackpoint 9992</name>
            </trkpt>
            <trkpt lat="50.0475424" lon="10.3067952">
                <ele>211.0</ele>
                <time>2020-08-22T17:59:32.000Z</time>
                <name>Trackpoint 9993</name>
            </trkpt>
            <trkpt lat="50.0476256" lon="10.3066968">
                <ele>211.0</ele>
                <time>2020-08-22T17:59:34.000Z</time>
                <name>Trackpoint 9994</name>
            </trkpt>
            <trkpt lat="50.0477024" lon="10.3065928">
                <ele>211.0</ele>
                <time>2020-08-22T17:59:36.000Z</time>
                <name>Trackpoint 9995</name>
            </trkpt>
            <trkpt lat="50.0477728" lon="10.3064816">
                <ele>211.0</ele>
                <time>2020-08-22T17:59:38.000Z</time>
                <name>Trackpoint 9996</name>
            </trkpt>
            <trkpt lat="50.0478368" lon="10.306352">
                <ele>211.0</ele>
                <time>2020-08-22T17:59:40.000Z</time>
                <name>Trackpoint 9997</name>
            </trkpt>
            <trkpt lat="50.0478976" lon="10.3062216">
                <ele>211.0</ele>
                <time>2020-08-22T17:59:42.000Z</time>
                <name>Trackpoint 9998</name>
            </trkpt>
            <trkpt lat="50.0479616" lon="10.3060936">
                <ele>211.0</ele>
                <time>2020-08-22T17:59:44.000Z</time>
                <name>Trackpoint 9999</name>
            </trkpt>
            <trkpt lat="50.0480384" lon="10.3059664">
                <ele>211.0</ele>
                <time>2020-08-22T17:59:46.000Z</time>
                <name>Trackpoint 10000</name>
            </trkpt>
            <trkpt lat="50.048112" lon="10.305848">
                <ele>211.0</ele>
                <time>2020-08-22T17:59:48.000Z</time>
                <name>Trackpoint 10001</name>
            </trkpt>
            <trkpt lat="50.0481888" lon="10.305752">
                <ele>211.0</ele>
                <time>2020-08-22T17:59:50.000Z</time>
                <name>Trackpoint 10002</name>
            </trkpt>
            <trkpt lat="50.048272" lon="10.3056448">
                <ele>212.0</ele>
                <time>2020-08-22T17:59:52.000Z</time>
                <name>Trackpoint 10003</name>
            </trkpt>
            <trkpt lat="50.0483424" lon="10.3055312">
                <ele>212.0</ele>
                <time>2020-08-22T17:59:54.000Z</time>
                <name>Trackpoint 10004</name>
            </trkpt>
            <trkpt lat="50.0484288" lon="10.3054288">
                <ele>212.0</ele>
                <time>2020-08-22T17:59:56.000Z</time>
                <name>Trackpoint 10005</name>
            </trkpt>
            <trkpt lat="50.0485088" lon="10.305324">
                <ele>212.0</ele>
                <time>2020-08-22T17:59:58.000Z</time>
                <name>Trackpoint 10006</name>
            </trkpt>
            <trkpt lat="50.0485888" lon="10.3052232">
                <ele>212.0</ele>
                <time>2020-08-22T18:00:00.000Z</time>
                <name>Trackpoint 10007</name>
            </trkpt>
            <trkpt lat="50.0486528" lon="10.3051144">
                <ele>212.0</ele>
                <time>2020-08-22T18:00:02.000Z</time>
                <name>Trackpoint 10008</name>
            </trkpt>
            <trkpt lat="50.0487264" lon="10.3050184">
                <ele>212.0</ele>
                <time>2020-08-22T18:00:04.000Z</time>
                <name>Trackpoint 10009</name>
            </trkpt>
            <trkpt lat="50.0487904" lon="10.3049368">
                <ele>212.0</ele>
                <time>2020-08-22T18:00:06.000Z</time>
                <name>Trackpoint 10010</name>
            </trkpt>
            <trkpt lat="50.0488544" lon="10.3048464">
                <ele>213.0</ele>
                <time>2020-08-22T18:00:08.000Z</time>
                <name>Trackpoint 10011</name>
            </trkpt>
            <trkpt lat="50.0489248" lon="10.3047536">
                <ele>213.0</ele>
                <time>2020-08-22T18:00:10.000Z</time>
                <name>Trackpoint 10012</name>
            </trkpt>
            <trkpt lat="50.0489856" lon="10.304664">
                <ele>213.0</ele>
                <time>2020-08-22T18:00:12.000Z</time>
                <name>Trackpoint 10013</name>
            </trkpt>
            <trkpt lat="50.049056" lon="10.3045632">
                <ele>213.0</ele>
                <time>2020-08-22T18:00:14.000Z</time>
                <name>Trackpoint 10014</name>
            </trkpt>
            <trkpt lat="50.0491328" lon="10.3044464">
                <ele>213.0</ele>
                <time>2020-08-22T18:00:16.000Z</time>
                <name>Trackpoint 10015</name>
            </trkpt>
            <trkpt lat="50.0492288" lon="10.3043232">
                <ele>213.0</ele>
                <time>2020-08-22T18:00:18.000Z</time>
                <name>Trackpoint 10016</name>
            </trkpt>
            <trkpt lat="50.0493024" lon="10.3042088">
                <ele>213.0</ele>
                <time>2020-08-22T18:00:20.000Z</time>
                <name>Trackpoint 10017</name>
            </trkpt>
            <trkpt lat="50.0493664" lon="10.3041088">
                <ele>213.0</ele>
                <time>2020-08-22T18:00:22.000Z</time>
                <name>Trackpoint 10018</name>
            </trkpt>
            <trkpt lat="50.049424" lon="10.3040104">
                <ele>213.0</ele>
                <time>2020-08-22T18:00:24.000Z</time>
                <name>Trackpoint 10019</name>
            </trkpt>
            <trkpt lat="50.0494912" lon="10.3039016">
                <ele>213.0</ele>
                <time>2020-08-22T18:00:26.000Z</time>
                <name>Trackpoint 10020</name>
            </trkpt>
            <trkpt lat="50.0495552" lon="10.3037952">
                <ele>213.0</ele>
                <time>2020-08-22T18:00:28.000Z</time>
                <name>Trackpoint 10021</name>
            </trkpt>
            <trkpt lat="50.0496256" lon="10.3036848">
                <ele>213.0</ele>
                <time>2020-08-22T18:00:30.000Z</time>
                <name>Trackpoint 10022</name>
            </trkpt>
            <trkpt lat="50.0497024" lon="10.3035736">
                <ele>213.0</ele>
                <time>2020-08-22T18:00:32.000Z</time>
                <name>Trackpoint 10023</name>
            </trkpt>
            <trkpt lat="50.0497792" lon="10.3034624">
                <ele>213.0</ele>
                <time>2020-08-22T18:00:34.000Z</time>
                <name>Trackpoint 10024</name>
            </trkpt>
            <trkpt lat="50.0498496" lon="10.3033352">
                <ele>213.0</ele>
                <time>2020-08-22T18:00:36.000Z</time>
                <name>Trackpoint 10025</name>
            </trkpt>
            <trkpt lat="50.0499264" lon="10.3032168">
                <ele>213.0</ele>
                <time>2020-08-22T18:00:38.000Z</time>
                <name>Trackpoint 10026</name>
            </trkpt>
            <trkpt lat="50.0499968" lon="10.3031056">
                <ele>213.0</ele>
                <time>2020-08-22T18:00:40.000Z</time>
                <name>Trackpoint 10027</name>
            </trkpt>
            <trkpt lat="50.0500704" lon="10.3029896">
                <ele>213.0</ele>
                <time>2020-08-22T18:00:42.000Z</time>
                <name>Trackpoint 10028</name>
            </trkpt>
            <trkpt lat="50.0501376" lon="10.3028784">
                <ele>213.0</ele>
                <time>2020-08-22T18:00:44.000Z</time>
                <name>Trackpoint 10029</name>
            </trkpt>
            <trkpt lat="50.0501984" lon="10.3027584">
                <ele>213.0</ele>
                <time>2020-08-22T18:00:46.000Z</time>
                <name>Trackpoint 10030</name>
            </trkpt>
            <trkpt lat="50.0502656" lon="10.3026488">
                <ele>213.0</ele>
                <time>2020-08-22T18:00:48.000Z</time>
                <name>Trackpoint 10031</name>
            </trkpt>
            <trkpt lat="50.0503168" lon="10.3025448">
                <ele>212.0</ele>
                <time>2020-08-22T18:00:50.000Z</time>
                <name>Trackpoint 10032</name>
            </trkpt>
            <trkpt lat="50.0503744" lon="10.3024304">
                <ele>212.0</ele>
                <time>2020-08-22T18:00:52.000Z</time>
                <name>Trackpoint 10033</name>
            </trkpt>
            <trkpt lat="50.0504192" lon="10.3023232">
                <ele>212.0</ele>
                <time>2020-08-22T18:00:54.000Z</time>
                <name>Trackpoint 10034</name>
            </trkpt>
            <trkpt lat="50.0504672" lon="10.3021944">
                <ele>212.0</ele>
                <time>2020-08-22T18:00:56.000Z</time>
                <name>Trackpoint 10035</name>
            </trkpt>
            <trkpt lat="50.050528" lon="10.3020832">
                <ele>212.0</ele>
                <time>2020-08-22T18:00:58.000Z</time>
                <name>Trackpoint 10036</name>
            </trkpt>
            <trkpt lat="50.0505728" lon="10.3020016">
                <ele>212.0</ele>
                <time>2020-08-22T18:00:59.000Z</time>
                <name>Trackpoint 10037</name>
            </trkpt>
            <trkpt lat="50.0506048" lon="10.3019168">
                <ele>212.0</ele>
                <time>2020-08-22T18:01:00.000Z</time>
                <name>Trackpoint 10038</name>
            </trkpt>
            <trkpt lat="50.0506784" lon="10.3017768">
                <ele>212.0</ele>
                <time>2020-08-22T18:01:02.000Z</time>
                <name>Trackpoint 10039</name>
            </trkpt>
            <trkpt lat="50.0507264" lon="10.3016664">
                <ele>212.0</ele>
                <time>2020-08-22T18:01:04.000Z</time>
                <name>Trackpoint 10040</name>
            </trkpt>
            <trkpt lat="50.0507712" lon="10.3015832">
                <ele>212.0</ele>
                <time>2020-08-22T18:01:06.000Z</time>
                <name>Trackpoint 10041</name>
            </trkpt>
            <trkpt lat="50.0508384" lon="10.3015072">
                <ele>211.0</ele>
                <time>2020-08-22T18:03:15.000Z</time>
                <name>Trackpoint 10042</name>
            </trkpt>
            <trkpt lat="50.0508992" lon="10.301392">
                <ele>211.0</ele>
                <time>2020-08-22T18:03:18.000Z</time>
                <name>Trackpoint 10043</name>
            </trkpt>
            <trkpt lat="50.050944" lon="10.3013048">
                <ele>211.0</ele>
                <time>2020-08-22T18:03:20.000Z</time>
                <name>Trackpoint 10044</name>
            </trkpt>
            <trkpt lat="50.0510048" lon="10.3012">
                <ele>211.0</ele>
                <time>2020-08-22T18:03:22.000Z</time>
                <name>Trackpoint 10045</name>
            </trkpt>
            <trkpt lat="50.0510624" lon="10.3010728">
                <ele>211.0</ele>
                <time>2020-08-22T18:03:24.000Z</time>
                <name>Trackpoint 10046</name>
            </trkpt>
            <trkpt lat="50.05112" lon="10.3009416">
                <ele>211.0</ele>
                <time>2020-08-22T18:03:26.000Z</time>
                <name>Trackpoint 10047</name>
            </trkpt>
            <trkpt lat="50.0511808" lon="10.3008168">
                <ele>210.0</ele>
                <time>2020-08-22T18:03:28.000Z</time>
                <name>Trackpoint 10048</name>
            </trkpt>
            <trkpt lat="50.0512384" lon="10.3006936">
                <ele>210.0</ele>
                <time>2020-08-22T18:03:30.000Z</time>
                <name>Trackpoint 10049</name>
            </trkpt>
            <trkpt lat="50.0512896" lon="10.30056">
                <ele>210.0</ele>
                <time>2020-08-22T18:03:32.000Z</time>
                <name>Trackpoint 10050</name>
            </trkpt>
            <trkpt lat="50.0513536" lon="10.30042">
                <ele>211.0</ele>
                <time>2020-08-22T18:03:34.000Z</time>
                <name>Trackpoint 10051</name>
            </trkpt>
            <trkpt lat="50.0514112" lon="10.300288">
                <ele>211.0</ele>
                <time>2020-08-22T18:03:36.000Z</time>
                <name>Trackpoint 10052</name>
            </trkpt>
            <trkpt lat="50.0514656" lon="10.3001616">
                <ele>210.0</ele>
                <time>2020-08-22T18:03:38.000Z</time>
                <name>Trackpoint 10053</name>
            </trkpt>
            <trkpt lat="50.0515168" lon="10.3000384">
                <ele>210.0</ele>
                <time>2020-08-22T18:03:40.000Z</time>
                <name>Trackpoint 10054</name>
            </trkpt>
            <trkpt lat="50.0515712" lon="10.2999112">
                <ele>210.0</ele>
                <time>2020-08-22T18:03:42.000Z</time>
                <name>Trackpoint 10055</name>
            </trkpt>
            <trkpt lat="50.051616" lon="10.2998112">
                <ele>210.0</ele>
                <time>2020-08-22T18:03:44.000Z</time>
                <name>Trackpoint 10056</name>
            </trkpt>
            <trkpt lat="50.051664" lon="10.2997168">
                <ele>211.0</ele>
                <time>2020-08-22T18:03:46.000Z</time>
                <name>Trackpoint 10057</name>
            </trkpt>
            <trkpt lat="50.0517088" lon="10.2996">
                <ele>211.0</ele>
                <time>2020-08-22T18:03:48.000Z</time>
                <name>Trackpoint 10058</name>
            </trkpt>
            <trkpt lat="50.0517632" lon="10.2994768">
                <ele>211.0</ele>
                <time>2020-08-22T18:03:50.000Z</time>
                <name>Trackpoint 10059</name>
            </trkpt>
            <trkpt lat="50.0518144" lon="10.2993536">
                <ele>211.0</ele>
                <time>2020-08-22T18:03:52.000Z</time>
                <name>Trackpoint 10060</name>
            </trkpt>
            <trkpt lat="50.0518688" lon="10.2992296">
                <ele>210.0</ele>
                <time>2020-08-22T18:03:54.000Z</time>
                <name>Trackpoint 10061</name>
            </trkpt>
            <trkpt lat="50.0519232" lon="10.2991048">
                <ele>210.0</ele>
                <time>2020-08-22T18:03:56.000Z</time>
                <name>Trackpoint 10062</name>
            </trkpt>
            <trkpt lat="50.0519872" lon="10.298968">
                <ele>210.0</ele>
                <time>2020-08-22T18:03:58.000Z</time>
                <name>Trackpoint 10063</name>
            </trkpt>
            <trkpt lat="50.0520512" lon="10.2988192">
                <ele>210.0</ele>
                <time>2020-08-22T18:04:00.000Z</time>
                <name>Trackpoint 10064</name>
            </trkpt>
            <trkpt lat="50.0520928" lon="10.2987344">
                <ele>210.0</ele>
                <time>2020-08-22T18:04:01.000Z</time>
                <name>Trackpoint 10065</name>
            </trkpt>
            <trkpt lat="50.0521408" lon="10.2986344">
                <ele>210.0</ele>
                <time>2020-08-22T18:04:02.000Z</time>
                <name>Trackpoint 10066</name>
            </trkpt>
            <trkpt lat="50.0521888" lon="10.2985352">
                <ele>210.0</ele>
                <time>2020-08-22T18:04:03.000Z</time>
                <name>Trackpoint 10067</name>
            </trkpt>
            <trkpt lat="50.0522272" lon="10.2984464">
                <ele>210.0</ele>
                <time>2020-08-22T18:04:04.000Z</time>
                <name>Trackpoint 10068</name>
            </trkpt>
            <trkpt lat="50.0522944" lon="10.298288">
                <ele>210.0</ele>
                <time>2020-08-22T18:04:06.000Z</time>
                <name>Trackpoint 10069</name>
            </trkpt>
            <trkpt lat="50.0523296" lon="10.2982016">
                <ele>210.0</ele>
                <time>2020-08-22T18:04:07.000Z</time>
                <name>Trackpoint 10070</name>
            </trkpt>
            <trkpt lat="50.0524032" lon="10.298048">
                <ele>210.0</ele>
                <time>2020-08-22T18:04:09.000Z</time>
                <name>Trackpoint 10071</name>
            </trkpt>
            <trkpt lat="50.0524672" lon="10.2978936">
                <ele>210.0</ele>
                <time>2020-08-22T18:04:11.000Z</time>
                <name>Trackpoint 10072</name>
            </trkpt>
            <trkpt lat="50.0525312" lon="10.2977504">
                <ele>210.0</ele>
                <time>2020-08-22T18:04:13.000Z</time>
                <name>Trackpoint 10073</name>
            </trkpt>
            <trkpt lat="50.052592" lon="10.2976104">
                <ele>210.0</ele>
                <time>2020-08-22T18:04:15.000Z</time>
                <name>Trackpoint 10074</name>
            </trkpt>
            <trkpt lat="50.0526528" lon="10.2974728">
                <ele>210.0</ele>
                <time>2020-08-22T18:04:17.000Z</time>
                <name>Trackpoint 10075</name>
            </trkpt>
            <trkpt lat="50.0527104" lon="10.2973472">
                <ele>210.0</ele>
                <time>2020-08-22T18:04:19.000Z</time>
                <name>Trackpoint 10076</name>
            </trkpt>
            <trkpt lat="50.0527648" lon="10.2972272">
                <ele>210.0</ele>
                <time>2020-08-22T18:04:21.000Z</time>
                <name>Trackpoint 10077</name>
            </trkpt>
            <trkpt lat="50.0528256" lon="10.2970936">
                <ele>210.0</ele>
                <time>2020-08-22T18:04:23.000Z</time>
                <name>Trackpoint 10078</name>
            </trkpt>
            <trkpt lat="50.0528896" lon="10.2969664">
                <ele>210.0</ele>
                <time>2020-08-22T18:04:25.000Z</time>
                <name>Trackpoint 10079</name>
            </trkpt>
            <trkpt lat="50.052944" lon="10.2968152">
                <ele>210.0</ele>
                <time>2020-08-22T18:04:27.000Z</time>
                <name>Trackpoint 10080</name>
            </trkpt>
            <trkpt lat="50.0530144" lon="10.2966736">
                <ele>209.0</ele>
                <time>2020-08-22T18:04:29.000Z</time>
                <name>Trackpoint 10081</name>
            </trkpt>
            <trkpt lat="50.0530752" lon="10.2965432">
                <ele>209.0</ele>
                <time>2020-08-22T18:04:31.000Z</time>
                <name>Trackpoint 10082</name>
            </trkpt>
            <trkpt lat="50.053136" lon="10.2964088">
                <ele>209.0</ele>
                <time>2020-08-22T18:04:33.000Z</time>
                <name>Trackpoint 10083</name>
            </trkpt>
            <trkpt lat="50.0531872" lon="10.2962848">
                <ele>209.0</ele>
                <time>2020-08-22T18:04:35.000Z</time>
                <name>Trackpoint 10084</name>
            </trkpt>
            <trkpt lat="50.0532352" lon="10.2961728">
                <ele>209.0</ele>
                <time>2020-08-22T18:04:37.000Z</time>
                <name>Trackpoint 10085</name>
            </trkpt>
            <trkpt lat="50.0532832" lon="10.2960704">
                <ele>209.0</ele>
                <time>2020-08-22T18:04:39.000Z</time>
                <name>Trackpoint 10086</name>
            </trkpt>
            <trkpt lat="50.0533248" lon="10.2959584">
                <ele>209.0</ele>
                <time>2020-08-22T18:04:41.000Z</time>
                <name>Trackpoint 10087</name>
            </trkpt>
            <trkpt lat="50.0533664" lon="10.2958672">
                <ele>209.0</ele>
                <time>2020-08-22T18:04:43.000Z</time>
                <name>Trackpoint 10088</name>
            </trkpt>
            <trkpt lat="50.053392" lon="10.2957784">
                <ele>209.0</ele>
                <time>2020-08-22T18:04:45.000Z</time>
                <name>Trackpoint 10089</name>
            </trkpt>
            <trkpt lat="50.053424" lon="10.2956632">
                <ele>209.0</ele>
                <time>2020-08-22T18:04:47.000Z</time>
                <name>Trackpoint 10090</name>
            </trkpt>
            <trkpt lat="50.0534592" lon="10.2955376">
                <ele>209.0</ele>
                <time>2020-08-22T18:04:49.000Z</time>
                <name>Trackpoint 10091</name>
            </trkpt>
            <trkpt lat="50.0534784" lon="10.29544">
                <ele>209.0</ele>
                <time>2020-08-22T18:04:51.000Z</time>
                <name>Trackpoint 10092</name>
            </trkpt>
            <trkpt lat="50.0535136" lon="10.2953552">
                <ele>209.0</ele>
                <time>2020-08-22T18:04:53.000Z</time>
                <name>Trackpoint 10093</name>
            </trkpt>
            <trkpt lat="50.0535392" lon="10.2952632">
                <ele>209.0</ele>
                <time>2020-08-22T18:04:55.000Z</time>
                <name>Trackpoint 10094</name>
            </trkpt>
            <trkpt lat="50.0535936" lon="10.2951768">
                <ele>209.0</ele>
                <time>2020-08-22T18:04:57.000Z</time>
                <name>Trackpoint 10095</name>
            </trkpt>
            <trkpt lat="50.0536512" lon="10.2950832">
                <ele>209.0</ele>
                <time>2020-08-22T18:04:59.000Z</time>
                <name>Trackpoint 10096</name>
            </trkpt>
            <trkpt lat="50.0537184" lon="10.2950232">
                <ele>210.0</ele>
                <time>2020-08-22T18:06:36.000Z</time>
                <name>Trackpoint 10097</name>
            </trkpt>
            <trkpt lat="50.0537952" lon="10.29496">
                <ele>210.0</ele>
                <time>2020-08-22T18:07:07.000Z</time>
                <name>Trackpoint 10098</name>
            </trkpt>
            <trkpt lat="50.0538368" lon="10.2948488">
                <ele>210.0</ele>
                <time>2020-08-22T18:07:43.000Z</time>
                <name>Trackpoint 10099</name>
            </trkpt>
            <trkpt lat="50.0538816" lon="10.2947432">
                <ele>210.0</ele>
                <time>2020-08-22T18:07:47.000Z</time>
                <name>Trackpoint 10100</name>
            </trkpt>
            <trkpt lat="50.0539328" lon="10.2946232">
                <ele>210.0</ele>
                <time>2020-08-22T18:07:50.000Z</time>
                <name>Trackpoint 10101</name>
            </trkpt>
            <trkpt lat="50.0539776" lon="10.2945296">
                <ele>210.0</ele>
                <time>2020-08-22T18:07:52.000Z</time>
                <name>Trackpoint 10102</name>
            </trkpt>
            <trkpt lat="50.0540128" lon="10.2944208">
                <ele>210.0</ele>
                <time>2020-08-22T18:07:54.000Z</time>
                <name>Trackpoint 10103</name>
            </trkpt>
            <trkpt lat="50.0540576" lon="10.2943136">
                <ele>210.0</ele>
                <time>2020-08-22T18:07:56.000Z</time>
                <name>Trackpoint 10104</name>
            </trkpt>
            <trkpt lat="50.054112" lon="10.2941968">
                <ele>210.0</ele>
                <time>2020-08-22T18:07:58.000Z</time>
                <name>Trackpoint 10105</name>
            </trkpt>
            <trkpt lat="50.0541664" lon="10.2940704">
                <ele>210.0</ele>
                <time>2020-08-22T18:08:00.000Z</time>
                <name>Trackpoint 10106</name>
            </trkpt>
            <trkpt lat="50.0542176" lon="10.293948">
                <ele>210.0</ele>
                <time>2020-08-22T18:08:02.000Z</time>
                <name>Trackpoint 10107</name>
            </trkpt>
            <trkpt lat="50.0542688" lon="10.293812">
                <ele>210.0</ele>
                <time>2020-08-22T18:08:04.000Z</time>
                <name>Trackpoint 10108</name>
            </trkpt>
            <trkpt lat="50.0543168" lon="10.2936832">
                <ele>210.0</ele>
                <time>2020-08-22T18:08:06.000Z</time>
                <name>Trackpoint 10109</name>
            </trkpt>
            <trkpt lat="50.054368" lon="10.29356">
                <ele>210.0</ele>
                <time>2020-08-22T18:08:08.000Z</time>
                <name>Trackpoint 10110</name>
            </trkpt>
            <trkpt lat="50.0544192" lon="10.2934312">
                <ele>210.0</ele>
                <time>2020-08-22T18:08:10.000Z</time>
                <name>Trackpoint 10111</name>
            </trkpt>
            <trkpt lat="50.0544736" lon="10.293308">
                <ele>210.0</ele>
                <time>2020-08-22T18:08:12.000Z</time>
                <name>Trackpoint 10112</name>
            </trkpt>
            <trkpt lat="50.054528" lon="10.2931832">
                <ele>210.0</ele>
                <time>2020-08-22T18:08:14.000Z</time>
                <name>Trackpoint 10113</name>
            </trkpt>
            <trkpt lat="50.054576" lon="10.2930496">
                <ele>210.0</ele>
                <time>2020-08-22T18:08:16.000Z</time>
                <name>Trackpoint 10114</name>
            </trkpt>
            <trkpt lat="50.0546176" lon="10.2929184">
                <ele>210.0</ele>
                <time>2020-08-22T18:08:18.000Z</time>
                <name>Trackpoint 10115</name>
            </trkpt>
            <trkpt lat="50.0546688" lon="10.2927768">
                <ele>209.0</ele>
                <time>2020-08-22T18:08:20.000Z</time>
                <name>Trackpoint 10116</name>
            </trkpt>
            <trkpt lat="50.0547232" lon="10.2926352">
                <ele>209.0</ele>
                <time>2020-08-22T18:08:22.000Z</time>
                <name>Trackpoint 10117</name>
            </trkpt>
            <trkpt lat="50.0547712" lon="10.2925064">
                <ele>209.0</ele>
                <time>2020-08-22T18:08:24.000Z</time>
                <name>Trackpoint 10118</name>
            </trkpt>
            <trkpt lat="50.0548256" lon="10.292372">
                <ele>209.0</ele>
                <time>2020-08-22T18:08:26.000Z</time>
                <name>Trackpoint 10119</name>
            </trkpt>
            <trkpt lat="50.0548736" lon="10.2922296">
                <ele>209.0</ele>
                <time>2020-08-22T18:08:28.000Z</time>
                <name>Trackpoint 10120</name>
            </trkpt>
            <trkpt lat="50.0549248" lon="10.2920904">
                <ele>209.0</ele>
                <time>2020-08-22T18:08:30.000Z</time>
                <name>Trackpoint 10121</name>
            </trkpt>
            <trkpt lat="50.0549696" lon="10.2919432">
                <ele>209.0</ele>
                <time>2020-08-22T18:08:32.000Z</time>
                <name>Trackpoint 10122</name>
            </trkpt>
            <trkpt lat="50.055024" lon="10.2917944">
                <ele>209.0</ele>
                <time>2020-08-22T18:08:34.000Z</time>
                <name>Trackpoint 10123</name>
            </trkpt>
            <trkpt lat="50.0550656" lon="10.2916448">
                <ele>209.0</ele>
                <time>2020-08-22T18:08:36.000Z</time>
                <name>Trackpoint 10124</name>
            </trkpt>
            <trkpt lat="50.0551104" lon="10.2914984">
                <ele>209.0</ele>
                <time>2020-08-22T18:08:38.000Z</time>
                <name>Trackpoint 10125</name>
            </trkpt>
            <trkpt lat="50.0551552" lon="10.2913576">
                <ele>209.0</ele>
                <time>2020-08-22T18:08:40.000Z</time>
                <name>Trackpoint 10126</name>
            </trkpt>
            <trkpt lat="50.0552096" lon="10.2912168">
                <ele>209.0</ele>
                <time>2020-08-22T18:08:42.000Z</time>
                <name>Trackpoint 10127</name>
            </trkpt>
            <trkpt lat="50.055248" lon="10.2910768">
                <ele>209.0</ele>
                <time>2020-08-22T18:08:44.000Z</time>
                <name>Trackpoint 10128</name>
            </trkpt>
            <trkpt lat="50.0552928" lon="10.2909368">
                <ele>209.0</ele>
                <time>2020-08-22T18:08:46.000Z</time>
                <name>Trackpoint 10129</name>
            </trkpt>
            <trkpt lat="50.0553408" lon="10.290796">
                <ele>209.0</ele>
                <time>2020-08-22T18:08:48.000Z</time>
                <name>Trackpoint 10130</name>
            </trkpt>
            <trkpt lat="50.0553856" lon="10.2906512">
                <ele>209.0</ele>
                <time>2020-08-22T18:08:50.000Z</time>
                <name>Trackpoint 10131</name>
            </trkpt>
            <trkpt lat="50.0554336" lon="10.2905016">
                <ele>209.0</ele>
                <time>2020-08-22T18:08:52.000Z</time>
                <name>Trackpoint 10132</name>
            </trkpt>
            <trkpt lat="50.0554848" lon="10.2903472">
                <ele>209.0</ele>
                <time>2020-08-22T18:08:54.000Z</time>
                <name>Trackpoint 10133</name>
            </trkpt>
            <trkpt lat="50.0555264" lon="10.2901984">
                <ele>209.0</ele>
                <time>2020-08-22T18:08:56.000Z</time>
                <name>Trackpoint 10134</name>
            </trkpt>
            <trkpt lat="50.0555648" lon="10.2900552">
                <ele>209.0</ele>
                <time>2020-08-22T18:08:58.000Z</time>
                <name>Trackpoint 10135</name>
            </trkpt>
            <trkpt lat="50.0556032" lon="10.2899088">
                <ele>209.0</ele>
                <time>2020-08-22T18:09:00.000Z</time>
                <name>Trackpoint 10136</name>
            </trkpt>
            <trkpt lat="50.055648" lon="10.2897584">
                <ele>209.0</ele>
                <time>2020-08-22T18:09:02.000Z</time>
                <name>Trackpoint 10137</name>
            </trkpt>
            <trkpt lat="50.055696" lon="10.2896168">
                <ele>209.0</ele>
                <time>2020-08-22T18:09:04.000Z</time>
                <name>Trackpoint 10138</name>
            </trkpt>
            <trkpt lat="50.0557408" lon="10.2894752">
                <ele>209.0</ele>
                <time>2020-08-22T18:09:06.000Z</time>
                <name>Trackpoint 10139</name>
            </trkpt>
            <trkpt lat="50.0557824" lon="10.2893336">
                <ele>209.0</ele>
                <time>2020-08-22T18:09:08.000Z</time>
                <name>Trackpoint 10140</name>
            </trkpt>
            <trkpt lat="50.0558208" lon="10.2891904">
                <ele>209.0</ele>
                <time>2020-08-22T18:09:10.000Z</time>
                <name>Trackpoint 10141</name>
            </trkpt>
            <trkpt lat="50.0558624" lon="10.2890568">
                <ele>209.0</ele>
                <time>2020-08-22T18:09:12.000Z</time>
                <name>Trackpoint 10142</name>
            </trkpt>
            <trkpt lat="50.0558848" lon="10.2889032">
                <ele>209.0</ele>
                <time>2020-08-22T18:09:14.000Z</time>
                <name>Trackpoint 10143</name>
            </trkpt>
            <trkpt lat="50.0558944" lon="10.2887488">
                <ele>209.0</ele>
                <time>2020-08-22T18:09:16.000Z</time>
                <name>Trackpoint 10144</name>
            </trkpt>
            <trkpt lat="50.0558816" lon="10.2886048">
                <ele>209.0</ele>
                <time>2020-08-22T18:09:18.000Z</time>
                <name>Trackpoint 10145</name>
            </trkpt>
            <trkpt lat="50.0558688" lon="10.2884512">
                <ele>209.0</ele>
                <time>2020-08-22T18:09:20.000Z</time>
                <name>Trackpoint 10146</name>
            </trkpt>
            <trkpt lat="50.0558656" lon="10.2882968">
                <ele>209.0</ele>
                <time>2020-08-22T18:09:22.000Z</time>
                <name>Trackpoint 10147</name>
            </trkpt>
            <trkpt lat="50.0558784" lon="10.2881368">
                <ele>209.0</ele>
                <time>2020-08-22T18:09:24.000Z</time>
                <name>Trackpoint 10148</name>
            </trkpt>
            <trkpt lat="50.0559168" lon="10.2879712">
                <ele>209.0</ele>
                <time>2020-08-22T18:09:26.000Z</time>
                <name>Trackpoint 10149</name>
            </trkpt>
            <trkpt lat="50.0559616" lon="10.2878088">
                <ele>208.0</ele>
                <time>2020-08-22T18:09:28.000Z</time>
                <name>Trackpoint 10150</name>
            </trkpt>
            <trkpt lat="50.0560064" lon="10.28766">
                <ele>209.0</ele>
                <time>2020-08-22T18:09:30.000Z</time>
                <name>Trackpoint 10151</name>
            </trkpt>
            <trkpt lat="50.0560672" lon="10.2875368">
                <ele>208.0</ele>
                <time>2020-08-22T18:09:32.000Z</time>
                <name>Trackpoint 10152</name>
            </trkpt>
            <trkpt lat="50.056144" lon="10.2874568">
                <ele>209.0</ele>
                <time>2020-08-22T18:09:34.000Z</time>
                <name>Trackpoint 10153</name>
            </trkpt>
            <trkpt lat="50.056208" lon="10.2873784">
                <ele>208.0</ele>
                <time>2020-08-22T18:09:36.000Z</time>
                <name>Trackpoint 10154</name>
            </trkpt>
            <trkpt lat="50.056272" lon="10.2873">
                <ele>208.0</ele>
                <time>2020-08-22T18:09:38.000Z</time>
                <name>Trackpoint 10155</name>
            </trkpt>
            <trkpt lat="50.0563232" lon="10.2872112">
                <ele>209.0</ele>
                <time>2020-08-22T18:09:41.000Z</time>
                <name>Trackpoint 10156</name>
            </trkpt>
            <trkpt lat="50.0562752" lon="10.2873024">
                <ele>209.0</ele>
                <time>2020-08-22T18:09:47.000Z</time>
                <name>Trackpoint 10157</name>
            </trkpt>
            <trkpt lat="50.0563584" lon="10.2872296">
                <ele>210.0</ele>
                <time>2020-08-22T18:10:25.000Z</time>
                <name>Trackpoint 10158</name>
            </trkpt>
            <trkpt lat="50.0563744" lon="10.28714">
                <ele>210.0</ele>
                <time>2020-08-22T18:10:27.000Z</time>
                <name>Trackpoint 10159</name>
            </trkpt>
            <trkpt lat="50.0563904" lon="10.2870216">
                <ele>210.0</ele>
                <time>2020-08-22T18:10:29.000Z</time>
                <name>Trackpoint 10160</name>
            </trkpt>
            <trkpt lat="50.0564128" lon="10.2868904">
                <ele>209.0</ele>
                <time>2020-08-22T18:10:31.000Z</time>
                <name>Trackpoint 10161</name>
            </trkpt>
            <trkpt lat="50.056432" lon="10.2867584">
                <ele>210.0</ele>
                <time>2020-08-22T18:10:33.000Z</time>
                <name>Trackpoint 10162</name>
            </trkpt>
            <trkpt lat="50.0564576" lon="10.2866112">
                <ele>210.0</ele>
                <time>2020-08-22T18:10:35.000Z</time>
                <name>Trackpoint 10163</name>
            </trkpt>
            <trkpt lat="50.0564896" lon="10.286464">
                <ele>210.0</ele>
                <time>2020-08-22T18:10:37.000Z</time>
                <name>Trackpoint 10164</name>
            </trkpt>
            <trkpt lat="50.0565056" lon="10.2863104">
                <ele>210.0</ele>
                <time>2020-08-22T18:10:39.000Z</time>
                <name>Trackpoint 10165</name>
            </trkpt>
            <trkpt lat="50.0565248" lon="10.2861544">
                <ele>210.0</ele>
                <time>2020-08-22T18:10:41.000Z</time>
                <name>Trackpoint 10166</name>
            </trkpt>
            <trkpt lat="50.0565504" lon="10.2860032">
                <ele>210.0</ele>
                <time>2020-08-22T18:10:43.000Z</time>
                <name>Trackpoint 10167</name>
            </trkpt>
            <trkpt lat="50.056576" lon="10.2858432">
                <ele>210.0</ele>
                <time>2020-08-22T18:10:45.000Z</time>
                <name>Trackpoint 10168</name>
            </trkpt>
            <trkpt lat="50.0565984" lon="10.2856864">
                <ele>210.0</ele>
                <time>2020-08-22T18:10:47.000Z</time>
                <name>Trackpoint 10169</name>
            </trkpt>
            <trkpt lat="50.0566176" lon="10.285532">
                <ele>210.0</ele>
                <time>2020-08-22T18:10:49.000Z</time>
                <name>Trackpoint 10170</name>
            </trkpt>
            <trkpt lat="50.0566368" lon="10.2853744">
                <ele>210.0</ele>
                <time>2020-08-22T18:10:51.000Z</time>
                <name>Trackpoint 10171</name>
            </trkpt>
            <trkpt lat="50.0566624" lon="10.2852232">
                <ele>210.0</ele>
                <time>2020-08-22T18:10:53.000Z</time>
                <name>Trackpoint 10172</name>
            </trkpt>
            <trkpt lat="50.0566912" lon="10.2850752">
                <ele>210.0</ele>
                <time>2020-08-22T18:10:55.000Z</time>
                <name>Trackpoint 10173</name>
            </trkpt>
            <trkpt lat="50.0567168" lon="10.2849256">
                <ele>210.0</ele>
                <time>2020-08-22T18:10:57.000Z</time>
                <name>Trackpoint 10174</name>
            </trkpt>
            <trkpt lat="50.056736" lon="10.2847792">
                <ele>210.0</ele>
                <time>2020-08-22T18:10:59.000Z</time>
                <name>Trackpoint 10175</name>
            </trkpt>
            <trkpt lat="50.0567552" lon="10.2846336">
                <ele>210.0</ele>
                <time>2020-08-22T18:11:01.000Z</time>
                <name>Trackpoint 10176</name>
            </trkpt>
            <trkpt lat="50.0567744" lon="10.2844752">
                <ele>210.0</ele>
                <time>2020-08-22T18:11:03.000Z</time>
                <name>Trackpoint 10177</name>
            </trkpt>
            <trkpt lat="50.0567936" lon="10.2843152">
                <ele>210.0</ele>
                <time>2020-08-22T18:11:05.000Z</time>
                <name>Trackpoint 10178</name>
            </trkpt>
            <trkpt lat="50.056816" lon="10.2841656">
                <ele>210.0</ele>
                <time>2020-08-22T18:11:07.000Z</time>
                <name>Trackpoint 10179</name>
            </trkpt>
            <trkpt lat="50.0568352" lon="10.284008">
                <ele>210.0</ele>
                <time>2020-08-22T18:11:09.000Z</time>
                <name>Trackpoint 10180</name>
            </trkpt>
            <trkpt lat="50.0568544" lon="10.283856">
                <ele>210.0</ele>
                <time>2020-08-22T18:11:11.000Z</time>
                <name>Trackpoint 10181</name>
            </trkpt>
            <trkpt lat="50.0568768" lon="10.2836984">
                <ele>210.0</ele>
                <time>2020-08-22T18:11:13.000Z</time>
                <name>Trackpoint 10182</name>
            </trkpt>
            <trkpt lat="50.0569024" lon="10.28354">
                <ele>209.0</ele>
                <time>2020-08-22T18:11:15.000Z</time>
                <name>Trackpoint 10183</name>
            </trkpt>
            <trkpt lat="50.056928" lon="10.2833784">
                <ele>209.0</ele>
                <time>2020-08-22T18:11:17.000Z</time>
                <name>Trackpoint 10184</name>
            </trkpt>
            <trkpt lat="50.0569536" lon="10.283212">
                <ele>209.0</ele>
                <time>2020-08-22T18:11:19.000Z</time>
                <name>Trackpoint 10185</name>
            </trkpt>
            <trkpt lat="50.0569792" lon="10.2830448">
                <ele>209.0</ele>
                <time>2020-08-22T18:11:21.000Z</time>
                <name>Trackpoint 10186</name>
            </trkpt>
            <trkpt lat="50.057008" lon="10.28288">
                <ele>209.0</ele>
                <time>2020-08-22T18:11:23.000Z</time>
                <name>Trackpoint 10187</name>
            </trkpt>
            <trkpt lat="50.0570304" lon="10.28272">
                <ele>209.0</ele>
                <time>2020-08-22T18:11:25.000Z</time>
                <name>Trackpoint 10188</name>
            </trkpt>
            <trkpt lat="50.0570496" lon="10.28256">
                <ele>209.0</ele>
                <time>2020-08-22T18:11:27.000Z</time>
                <name>Trackpoint 10189</name>
            </trkpt>
            <trkpt lat="50.0570688" lon="10.2824024">
                <ele>209.0</ele>
                <time>2020-08-22T18:11:29.000Z</time>
                <name>Trackpoint 10190</name>
            </trkpt>
            <trkpt lat="50.0570816" lon="10.2822368">
                <ele>209.0</ele>
                <time>2020-08-22T18:11:31.000Z</time>
                <name>Trackpoint 10191</name>
            </trkpt>
            <trkpt lat="50.0571008" lon="10.2820752">
                <ele>209.0</ele>
                <time>2020-08-22T18:11:33.000Z</time>
                <name>Trackpoint 10192</name>
            </trkpt>
            <trkpt lat="50.05712" lon="10.2819072">
                <ele>209.0</ele>
                <time>2020-08-22T18:11:35.000Z</time>
                <name>Trackpoint 10193</name>
            </trkpt>
            <trkpt lat="50.057136" lon="10.2817424">
                <ele>209.0</ele>
                <time>2020-08-22T18:11:37.000Z</time>
                <name>Trackpoint 10194</name>
            </trkpt>
            <trkpt lat="50.0571456" lon="10.2815864">
                <ele>209.0</ele>
                <time>2020-08-22T18:11:39.000Z</time>
                <name>Trackpoint 10195</name>
            </trkpt>
            <trkpt lat="50.0571584" lon="10.2814264">
                <ele>209.0</ele>
                <time>2020-08-22T18:11:41.000Z</time>
                <name>Trackpoint 10196</name>
            </trkpt>
            <trkpt lat="50.0571712" lon="10.2812656">
                <ele>209.0</ele>
                <time>2020-08-22T18:11:43.000Z</time>
                <name>Trackpoint 10197</name>
            </trkpt>
            <trkpt lat="50.0571808" lon="10.281108">
                <ele>209.0</ele>
                <time>2020-08-22T18:11:45.000Z</time>
                <name>Trackpoint 10198</name>
            </trkpt>
            <trkpt lat="50.0571936" lon="10.2809552">
                <ele>209.0</ele>
                <time>2020-08-22T18:11:47.000Z</time>
                <name>Trackpoint 10199</name>
            </trkpt>
            <trkpt lat="50.0572" lon="10.2807912">
                <ele>209.0</ele>
                <time>2020-08-22T18:11:49.000Z</time>
                <name>Trackpoint 10200</name>
            </trkpt>
            <trkpt lat="50.0572128" lon="10.2806264">
                <ele>209.0</ele>
                <time>2020-08-22T18:11:51.000Z</time>
                <name>Trackpoint 10201</name>
            </trkpt>
            <trkpt lat="50.0572192" lon="10.2804648">
                <ele>209.0</ele>
                <time>2020-08-22T18:11:53.000Z</time>
                <name>Trackpoint 10202</name>
            </trkpt>
            <trkpt lat="50.057232" lon="10.2803048">
                <ele>209.0</ele>
                <time>2020-08-22T18:11:55.000Z</time>
                <name>Trackpoint 10203</name>
            </trkpt>
            <trkpt lat="50.0572448" lon="10.2801464">
                <ele>209.0</ele>
                <time>2020-08-22T18:11:57.000Z</time>
                <name>Trackpoint 10204</name>
            </trkpt>
            <trkpt lat="50.0572512" lon="10.279988">
                <ele>209.0</ele>
                <time>2020-08-22T18:11:59.000Z</time>
                <name>Trackpoint 10205</name>
            </trkpt>
            <trkpt lat="50.0572544" lon="10.279828">
                <ele>209.0</ele>
                <time>2020-08-22T18:12:01.000Z</time>
                <name>Trackpoint 10206</name>
            </trkpt>
            <trkpt lat="50.0572576" lon="10.27966">
                <ele>209.0</ele>
                <time>2020-08-22T18:12:03.000Z</time>
                <name>Trackpoint 10207</name>
            </trkpt>
            <trkpt lat="50.0572704" lon="10.2794888">
                <ele>209.0</ele>
                <time>2020-08-22T18:12:05.000Z</time>
                <name>Trackpoint 10208</name>
            </trkpt>
            <trkpt lat="50.0572768" lon="10.2793192">
                <ele>210.0</ele>
                <time>2020-08-22T18:12:07.000Z</time>
                <name>Trackpoint 10209</name>
            </trkpt>
            <trkpt lat="50.0572864" lon="10.2791528">
                <ele>209.0</ele>
                <time>2020-08-22T18:12:09.000Z</time>
                <name>Trackpoint 10210</name>
            </trkpt>
            <trkpt lat="50.0572864" lon="10.2789816">
                <ele>210.0</ele>
                <time>2020-08-22T18:12:11.000Z</time>
                <name>Trackpoint 10211</name>
            </trkpt>
            <trkpt lat="50.05728" lon="10.2788152">
                <ele>210.0</ele>
                <time>2020-08-22T18:12:13.000Z</time>
                <name>Trackpoint 10212</name>
            </trkpt>
            <trkpt lat="50.05728" lon="10.2786416">
                <ele>210.0</ele>
                <time>2020-08-22T18:12:15.000Z</time>
                <name>Trackpoint 10213</name>
            </trkpt>
            <trkpt lat="50.0572704" lon="10.2784632">
                <ele>210.0</ele>
                <time>2020-08-22T18:12:17.000Z</time>
                <name>Trackpoint 10214</name>
            </trkpt>
            <trkpt lat="50.0572736" lon="10.2782968">
                <ele>210.0</ele>
                <time>2020-08-22T18:12:19.000Z</time>
                <name>Trackpoint 10215</name>
            </trkpt>
            <trkpt lat="50.0572736" lon="10.2781296">
                <ele>210.0</ele>
                <time>2020-08-22T18:12:21.000Z</time>
                <name>Trackpoint 10216</name>
            </trkpt>
            <trkpt lat="50.0572768" lon="10.2779864">
                <ele>210.0</ele>
                <time>2020-08-22T18:12:23.000Z</time>
                <name>Trackpoint 10217</name>
            </trkpt>
            <trkpt lat="50.0572736" lon="10.2778384">
                <ele>210.0</ele>
                <time>2020-08-22T18:12:25.000Z</time>
                <name>Trackpoint 10218</name>
            </trkpt>
            <trkpt lat="50.0572736" lon="10.27768">
                <ele>210.0</ele>
                <time>2020-08-22T18:12:27.000Z</time>
                <name>Trackpoint 10219</name>
            </trkpt>
            <trkpt lat="50.0572544" lon="10.2775272">
                <ele>210.0</ele>
                <time>2020-08-22T18:12:29.000Z</time>
                <name>Trackpoint 10220</name>
            </trkpt>
            <trkpt lat="50.0572576" lon="10.2773568">
                <ele>210.0</ele>
                <time>2020-08-22T18:12:31.000Z</time>
                <name>Trackpoint 10221</name>
            </trkpt>
            <trkpt lat="50.0572544" lon="10.2771984">
                <ele>210.0</ele>
                <time>2020-08-22T18:12:33.000Z</time>
                <name>Trackpoint 10222</name>
            </trkpt>
            <trkpt lat="50.0572448" lon="10.2770344">
                <ele>210.0</ele>
                <time>2020-08-22T18:12:35.000Z</time>
                <name>Trackpoint 10223</name>
            </trkpt>
            <trkpt lat="50.0572352" lon="10.27688">
                <ele>210.0</ele>
                <time>2020-08-22T18:12:37.000Z</time>
                <name>Trackpoint 10224</name>
            </trkpt>
            <trkpt lat="50.0572256" lon="10.2767112">
                <ele>210.0</ele>
                <time>2020-08-22T18:12:39.000Z</time>
                <name>Trackpoint 10225</name>
            </trkpt>
            <trkpt lat="50.057216" lon="10.2765416">
                <ele>210.0</ele>
                <time>2020-08-22T18:12:41.000Z</time>
                <name>Trackpoint 10226</name>
            </trkpt>
            <trkpt lat="50.0572096" lon="10.2763856">
                <ele>210.0</ele>
                <time>2020-08-22T18:12:43.000Z</time>
                <name>Trackpoint 10227</name>
            </trkpt>
            <trkpt lat="50.0571936" lon="10.2762272">
                <ele>210.0</ele>
                <time>2020-08-22T18:12:45.000Z</time>
                <name>Trackpoint 10228</name>
            </trkpt>
            <trkpt lat="50.0571872" lon="10.2760664">
                <ele>210.0</ele>
                <time>2020-08-22T18:12:47.000Z</time>
                <name>Trackpoint 10229</name>
            </trkpt>
            <trkpt lat="50.0571744" lon="10.2759136">
                <ele>210.0</ele>
                <time>2020-08-22T18:12:49.000Z</time>
                <name>Trackpoint 10230</name>
            </trkpt>
            <trkpt lat="50.0571552" lon="10.2757304">
                <ele>209.0</ele>
                <time>2020-08-22T18:12:51.000Z</time>
                <name>Trackpoint 10231</name>
            </trkpt>
            <trkpt lat="50.0571552" lon="10.2755672">
                <ele>209.0</ele>
                <time>2020-08-22T18:12:53.000Z</time>
                <name>Trackpoint 10232</name>
            </trkpt>
            <trkpt lat="50.0571488" lon="10.2754224">
                <ele>209.0</ele>
                <time>2020-08-22T18:12:55.000Z</time>
                <name>Trackpoint 10233</name>
            </trkpt>
            <trkpt lat="50.05712" lon="10.2752568">
                <ele>209.0</ele>
                <time>2020-08-22T18:12:57.000Z</time>
                <name>Trackpoint 10234</name>
            </trkpt>
            <trkpt lat="50.0571104" lon="10.275092">
                <ele>209.0</ele>
                <time>2020-08-22T18:12:59.000Z</time>
                <name>Trackpoint 10235</name>
            </trkpt>
            <trkpt lat="50.0571104" lon="10.2749968">
                <ele>209.0</ele>
                <time>2020-08-22T18:13:00.000Z</time>
                <name>Trackpoint 10236</name>
            </trkpt>
            <trkpt lat="50.0570912" lon="10.27484">
                <ele>209.0</ele>
                <time>2020-08-22T18:13:02.000Z</time>
                <name>Trackpoint 10237</name>
            </trkpt>
            <trkpt lat="50.0570752" lon="10.2746752">
                <ele>209.0</ele>
                <time>2020-08-22T18:13:04.000Z</time>
                <name>Trackpoint 10238</name>
            </trkpt>
            <trkpt lat="50.057072" lon="10.2745184">
                <ele>209.0</ele>
                <time>2020-08-22T18:13:06.000Z</time>
                <name>Trackpoint 10239</name>
            </trkpt>
            <trkpt lat="50.057056" lon="10.2743552">
                <ele>209.0</ele>
                <time>2020-08-22T18:13:08.000Z</time>
                <name>Trackpoint 10240</name>
            </trkpt>
            <trkpt lat="50.0570336" lon="10.2742056">
                <ele>209.0</ele>
                <time>2020-08-22T18:13:10.000Z</time>
                <name>Trackpoint 10241</name>
            </trkpt>
            <trkpt lat="50.0570176" lon="10.2740432">
                <ele>209.0</ele>
                <time>2020-08-22T18:13:12.000Z</time>
                <name>Trackpoint 10242</name>
            </trkpt>
            <trkpt lat="50.057008" lon="10.2739488">
                <ele>209.0</ele>
                <time>2020-08-22T18:13:13.000Z</time>
                <name>Trackpoint 10243</name>
            </trkpt>
            <trkpt lat="50.0569792" lon="10.2737936">
                <ele>209.0</ele>
                <time>2020-08-22T18:13:15.000Z</time>
                <name>Trackpoint 10244</name>
            </trkpt>
            <trkpt lat="50.0569568" lon="10.2736368">
                <ele>209.0</ele>
                <time>2020-08-22T18:13:17.000Z</time>
                <name>Trackpoint 10245</name>
            </trkpt>
            <trkpt lat="50.0569376" lon="10.2734832">
                <ele>208.0</ele>
                <time>2020-08-22T18:13:19.000Z</time>
                <name>Trackpoint 10246</name>
            </trkpt>
            <trkpt lat="50.0569184" lon="10.2733272">
                <ele>209.0</ele>
                <time>2020-08-22T18:13:21.000Z</time>
                <name>Trackpoint 10247</name>
            </trkpt>
            <trkpt lat="50.0569024" lon="10.273164">
                <ele>209.0</ele>
                <time>2020-08-22T18:13:23.000Z</time>
                <name>Trackpoint 10248</name>
            </trkpt>
            <trkpt lat="50.0568832" lon="10.2729992">
                <ele>208.0</ele>
                <time>2020-08-22T18:13:25.000Z</time>
                <name>Trackpoint 10249</name>
            </trkpt>
            <trkpt lat="50.0568608" lon="10.2728384">
                <ele>208.0</ele>
                <time>2020-08-22T18:13:27.000Z</time>
                <name>Trackpoint 10250</name>
            </trkpt>
            <trkpt lat="50.056848" lon="10.2726816">
                <ele>208.0</ele>
                <time>2020-08-22T18:13:29.000Z</time>
                <name>Trackpoint 10251</name>
            </trkpt>
            <trkpt lat="50.0568192" lon="10.2725232">
                <ele>208.0</ele>
                <time>2020-08-22T18:13:31.000Z</time>
                <name>Trackpoint 10252</name>
            </trkpt>
            <trkpt lat="50.0568032" lon="10.272364">
                <ele>208.0</ele>
                <time>2020-08-22T18:13:33.000Z</time>
                <name>Trackpoint 10253</name>
            </trkpt>
            <trkpt lat="50.0567808" lon="10.2722104">
                <ele>208.0</ele>
                <time>2020-08-22T18:13:35.000Z</time>
                <name>Trackpoint 10254</name>
            </trkpt>
            <trkpt lat="50.056768" lon="10.2720584">
                <ele>208.0</ele>
                <time>2020-08-22T18:13:37.000Z</time>
                <name>Trackpoint 10255</name>
            </trkpt>
            <trkpt lat="50.0567552" lon="10.2719096">
                <ele>208.0</ele>
                <time>2020-08-22T18:13:39.000Z</time>
                <name>Trackpoint 10256</name>
            </trkpt>
            <trkpt lat="50.0567168" lon="10.2717912">
                <ele>208.0</ele>
                <time>2020-08-22T18:13:41.000Z</time>
                <name>Trackpoint 10257</name>
            </trkpt>
            <trkpt lat="50.0566784" lon="10.2716504">
                <ele>208.0</ele>
                <time>2020-08-22T18:13:43.000Z</time>
                <name>Trackpoint 10258</name>
            </trkpt>
            <trkpt lat="50.0566624" lon="10.2715">
                <ele>208.0</ele>
                <time>2020-08-22T18:13:45.000Z</time>
                <name>Trackpoint 10259</name>
            </trkpt>
            <trkpt lat="50.0566368" lon="10.271352">
                <ele>208.0</ele>
                <time>2020-08-22T18:13:47.000Z</time>
                <name>Trackpoint 10260</name>
            </trkpt>
            <trkpt lat="50.0566112" lon="10.2712">
                <ele>208.0</ele>
                <time>2020-08-22T18:13:49.000Z</time>
                <name>Trackpoint 10261</name>
            </trkpt>
            <trkpt lat="50.0565728" lon="10.2710648">
                <ele>208.0</ele>
                <time>2020-08-22T18:13:51.000Z</time>
                <name>Trackpoint 10262</name>
            </trkpt>
            <trkpt lat="50.0565568" lon="10.2709048">
                <ele>208.0</ele>
                <time>2020-08-22T18:13:53.000Z</time>
                <name>Trackpoint 10263</name>
            </trkpt>
            <trkpt lat="50.0565312" lon="10.270772">
                <ele>209.0</ele>
                <time>2020-08-22T18:13:55.000Z</time>
                <name>Trackpoint 10264</name>
            </trkpt>
            <trkpt lat="50.0565312" lon="10.2706744">
                <ele>209.0</ele>
                <time>2020-08-22T18:13:56.000Z</time>
                <name>Trackpoint 10265</name>
            </trkpt>
            <trkpt lat="50.0565312" lon="10.2705816">
                <ele>209.0</ele>
                <time>2020-08-22T18:13:57.000Z</time>
                <name>Trackpoint 10266</name>
            </trkpt>
            <trkpt lat="50.0565184" lon="10.2704896">
                <ele>209.0</ele>
                <time>2020-08-22T18:13:58.000Z</time>
                <name>Trackpoint 10267</name>
            </trkpt>
            <trkpt lat="50.056496" lon="10.2703336">
                <ele>209.0</ele>
                <time>2020-08-22T18:14:00.000Z</time>
                <name>Trackpoint 10268</name>
            </trkpt>
            <trkpt lat="50.0564768" lon="10.2701656">
                <ele>209.0</ele>
                <time>2020-08-22T18:14:02.000Z</time>
                <name>Trackpoint 10269</name>
            </trkpt>
            <trkpt lat="50.0564544" lon="10.2700144">
                <ele>210.0</ele>
                <time>2020-08-22T18:14:04.000Z</time>
                <name>Trackpoint 10270</name>
            </trkpt>
            <trkpt lat="50.0564192" lon="10.2698744">
                <ele>210.0</ele>
                <time>2020-08-22T18:14:06.000Z</time>
                <name>Trackpoint 10271</name>
            </trkpt>
            <trkpt lat="50.0563936" lon="10.2697136">
                <ele>210.0</ele>
                <time>2020-08-22T18:14:08.000Z</time>
                <name>Trackpoint 10272</name>
            </trkpt>
            <trkpt lat="50.0563584" lon="10.26956">
                <ele>210.0</ele>
                <time>2020-08-22T18:14:10.000Z</time>
                <name>Trackpoint 10273</name>
            </trkpt>
            <trkpt lat="50.056336" lon="10.2694168">
                <ele>210.0</ele>
                <time>2020-08-22T18:14:12.000Z</time>
                <name>Trackpoint 10274</name>
            </trkpt>
            <trkpt lat="50.0563072" lon="10.2692768">
                <ele>210.0</ele>
                <time>2020-08-22T18:14:14.000Z</time>
                <name>Trackpoint 10275</name>
            </trkpt>
            <trkpt lat="50.0562848" lon="10.2691272">
                <ele>210.0</ele>
                <time>2020-08-22T18:14:16.000Z</time>
                <name>Trackpoint 10276</name>
            </trkpt>
            <trkpt lat="50.0562592" lon="10.2689888">
                <ele>210.0</ele>
                <time>2020-08-22T18:14:18.000Z</time>
                <name>Trackpoint 10277</name>
            </trkpt>
            <trkpt lat="50.0562336" lon="10.2688328">
                <ele>210.0</ele>
                <time>2020-08-22T18:14:20.000Z</time>
                <name>Trackpoint 10278</name>
            </trkpt>
            <trkpt lat="50.0561792" lon="10.2686816">
                <ele>210.0</ele>
                <time>2020-08-22T18:14:22.000Z</time>
                <name>Trackpoint 10279</name>
            </trkpt>
            <trkpt lat="50.056144" lon="10.2685336">
                <ele>210.0</ele>
                <time>2020-08-22T18:14:24.000Z</time>
                <name>Trackpoint 10280</name>
            </trkpt>
            <trkpt lat="50.0561024" lon="10.2683952">
                <ele>210.0</ele>
                <time>2020-08-22T18:14:26.000Z</time>
                <name>Trackpoint 10281</name>
            </trkpt>
            <trkpt lat="50.0560736" lon="10.2682336">
                <ele>210.0</ele>
                <time>2020-08-22T18:14:28.000Z</time>
                <name>Trackpoint 10282</name>
            </trkpt>
            <trkpt lat="50.0560448" lon="10.2680904">
                <ele>210.0</ele>
                <time>2020-08-22T18:14:30.000Z</time>
                <name>Trackpoint 10283</name>
            </trkpt>
            <trkpt lat="50.0560192" lon="10.267948">
                <ele>210.0</ele>
                <time>2020-08-22T18:14:32.000Z</time>
                <name>Trackpoint 10284</name>
            </trkpt>
            <trkpt lat="50.055984" lon="10.2678048">
                <ele>210.0</ele>
                <time>2020-08-22T18:14:34.000Z</time>
                <name>Trackpoint 10285</name>
            </trkpt>
            <trkpt lat="50.0559584" lon="10.26766">
                <ele>210.0</ele>
                <time>2020-08-22T18:14:36.000Z</time>
                <name>Trackpoint 10286</name>
            </trkpt>
            <trkpt lat="50.0559296" lon="10.2675104">
                <ele>210.0</ele>
                <time>2020-08-22T18:14:38.000Z</time>
                <name>Trackpoint 10287</name>
            </trkpt>
            <trkpt lat="50.055904" lon="10.2673616">
                <ele>210.0</ele>
                <time>2020-08-22T18:14:40.000Z</time>
                <name>Trackpoint 10288</name>
            </trkpt>
            <trkpt lat="50.0558592" lon="10.267228">
                <ele>210.0</ele>
                <time>2020-08-22T18:14:42.000Z</time>
                <name>Trackpoint 10289</name>
            </trkpt>
            <trkpt lat="50.0558272" lon="10.267072">
                <ele>210.0</ele>
                <time>2020-08-22T18:14:44.000Z</time>
                <name>Trackpoint 10290</name>
            </trkpt>
            <trkpt lat="50.0557952" lon="10.2669112">
                <ele>210.0</ele>
                <time>2020-08-22T18:14:46.000Z</time>
                <name>Trackpoint 10291</name>
            </trkpt>
            <trkpt lat="50.0557568" lon="10.2667512">
                <ele>210.0</ele>
                <time>2020-08-22T18:14:48.000Z</time>
                <name>Trackpoint 10292</name>
            </trkpt>
            <trkpt lat="50.0557216" lon="10.2666056">
                <ele>210.0</ele>
                <time>2020-08-22T18:14:50.000Z</time>
                <name>Trackpoint 10293</name>
            </trkpt>
            <trkpt lat="50.0556864" lon="10.2664544">
                <ele>210.0</ele>
                <time>2020-08-22T18:14:52.000Z</time>
                <name>Trackpoint 10294</name>
            </trkpt>
            <trkpt lat="50.055648" lon="10.266312">
                <ele>210.0</ele>
                <time>2020-08-22T18:14:54.000Z</time>
                <name>Trackpoint 10295</name>
            </trkpt>
            <trkpt lat="50.0556096" lon="10.2661696">
                <ele>210.0</ele>
                <time>2020-08-22T18:14:56.000Z</time>
                <name>Trackpoint 10296</name>
            </trkpt>
            <trkpt lat="50.055584" lon="10.2660112">
                <ele>210.0</ele>
                <time>2020-08-22T18:14:58.000Z</time>
                <name>Trackpoint 10297</name>
            </trkpt>
            <trkpt lat="50.0555488" lon="10.265868">
                <ele>210.0</ele>
                <time>2020-08-22T18:15:00.000Z</time>
                <name>Trackpoint 10298</name>
            </trkpt>
            <trkpt lat="50.0555104" lon="10.265732">
                <ele>210.0</ele>
                <time>2020-08-22T18:15:02.000Z</time>
                <name>Trackpoint 10299</name>
            </trkpt>
            <trkpt lat="50.0554784" lon="10.2655952">
                <ele>211.0</ele>
                <time>2020-08-22T18:15:04.000Z</time>
                <name>Trackpoint 10300</name>
            </trkpt>
            <trkpt lat="50.0554464" lon="10.2654416">
                <ele>211.0</ele>
                <time>2020-08-22T18:15:06.000Z</time>
                <name>Trackpoint 10301</name>
            </trkpt>
            <trkpt lat="50.0554208" lon="10.2653104">
                <ele>211.0</ele>
                <time>2020-08-22T18:15:08.000Z</time>
                <name>Trackpoint 10302</name>
            </trkpt>
            <trkpt lat="50.0553728" lon="10.2651832">
                <ele>211.0</ele>
                <time>2020-08-22T18:15:10.000Z</time>
                <name>Trackpoint 10303</name>
            </trkpt>
            <trkpt lat="50.055328" lon="10.2650272">
                <ele>211.0</ele>
                <time>2020-08-22T18:15:12.000Z</time>
                <name>Trackpoint 10304</name>
            </trkpt>
            <trkpt lat="50.0552928" lon="10.2648888">
                <ele>211.0</ele>
                <time>2020-08-22T18:15:14.000Z</time>
                <name>Trackpoint 10305</name>
            </trkpt>
            <trkpt lat="50.0552384" lon="10.2647496">
                <ele>211.0</ele>
                <time>2020-08-22T18:15:16.000Z</time>
                <name>Trackpoint 10306</name>
            </trkpt>
            <trkpt lat="50.055184" lon="10.2646048">
                <ele>211.0</ele>
                <time>2020-08-22T18:15:18.000Z</time>
                <name>Trackpoint 10307</name>
            </trkpt>
            <trkpt lat="50.0551456" lon="10.26446">
                <ele>211.0</ele>
                <time>2020-08-22T18:15:20.000Z</time>
                <name>Trackpoint 10308</name>
            </trkpt>
            <trkpt lat="50.055104" lon="10.2643168">
                <ele>211.0</ele>
                <time>2020-08-22T18:15:22.000Z</time>
                <name>Trackpoint 10309</name>
            </trkpt>
            <trkpt lat="50.0550656" lon="10.2641688">
                <ele>211.0</ele>
                <time>2020-08-22T18:15:24.000Z</time>
                <name>Trackpoint 10310</name>
            </trkpt>
            <trkpt lat="50.0550144" lon="10.2640336">
                <ele>211.0</ele>
                <time>2020-08-22T18:15:26.000Z</time>
                <name>Trackpoint 10311</name>
            </trkpt>
            <trkpt lat="50.0549632" lon="10.2638776">
                <ele>211.0</ele>
                <time>2020-08-22T18:15:28.000Z</time>
                <name>Trackpoint 10312</name>
            </trkpt>
            <trkpt lat="50.0549248" lon="10.263728">
                <ele>211.0</ele>
                <time>2020-08-22T18:15:30.000Z</time>
                <name>Trackpoint 10313</name>
            </trkpt>
            <trkpt lat="50.0548928" lon="10.2635816">
                <ele>211.0</ele>
                <time>2020-08-22T18:15:32.000Z</time>
                <name>Trackpoint 10314</name>
            </trkpt>
            <trkpt lat="50.0548512" lon="10.2634424">
                <ele>211.0</ele>
                <time>2020-08-22T18:15:34.000Z</time>
                <name>Trackpoint 10315</name>
            </trkpt>
            <trkpt lat="50.054816" lon="10.2633088">
                <ele>211.0</ele>
                <time>2020-08-22T18:15:36.000Z</time>
                <name>Trackpoint 10316</name>
            </trkpt>
            <trkpt lat="50.054768" lon="10.26318">
                <ele>211.0</ele>
                <time>2020-08-22T18:15:38.000Z</time>
                <name>Trackpoint 10317</name>
            </trkpt>
            <trkpt lat="50.0547264" lon="10.2630584">
                <ele>211.0</ele>
                <time>2020-08-22T18:15:40.000Z</time>
                <name>Trackpoint 10318</name>
            </trkpt>
            <trkpt lat="50.0546912" lon="10.2629408">
                <ele>211.0</ele>
                <time>2020-08-22T18:15:42.000Z</time>
                <name>Trackpoint 10319</name>
            </trkpt>
            <trkpt lat="50.054656" lon="10.2628088">
                <ele>211.0</ele>
                <time>2020-08-22T18:15:44.000Z</time>
                <name>Trackpoint 10320</name>
            </trkpt>
            <trkpt lat="50.0546048" lon="10.2626696">
                <ele>211.0</ele>
                <time>2020-08-22T18:15:46.000Z</time>
                <name>Trackpoint 10321</name>
            </trkpt>
            <trkpt lat="50.0545568" lon="10.2625552">
                <ele>212.0</ele>
                <time>2020-08-22T18:15:48.000Z</time>
                <name>Trackpoint 10322</name>
            </trkpt>
            <trkpt lat="50.054512" lon="10.2624432">
                <ele>212.0</ele>
                <time>2020-08-22T18:15:50.000Z</time>
                <name>Trackpoint 10323</name>
            </trkpt>
            <trkpt lat="50.05448" lon="10.2623464">
                <ele>212.0</ele>
                <time>2020-08-22T18:15:52.000Z</time>
                <name>Trackpoint 10324</name>
            </trkpt>
            <trkpt lat="50.0544384" lon="10.26222">
                <ele>212.0</ele>
                <time>2020-08-22T18:15:55.000Z</time>
                <name>Trackpoint 10325</name>
            </trkpt>
            <trkpt lat="50.0544" lon="10.2621184">
                <ele>212.0</ele>
                <time>2020-08-22T18:15:57.000Z</time>
                <name>Trackpoint 10326</name>
            </trkpt>
            <trkpt lat="50.0543648" lon="10.2620048">
                <ele>212.0</ele>
                <time>2020-08-22T18:15:59.000Z</time>
                <name>Trackpoint 10327</name>
            </trkpt>
            <trkpt lat="50.0543168" lon="10.2618912">
                <ele>212.0</ele>
                <time>2020-08-22T18:16:01.000Z</time>
                <name>Trackpoint 10328</name>
            </trkpt>
            <trkpt lat="50.054256" lon="10.261768">
                <ele>212.0</ele>
                <time>2020-08-22T18:16:03.000Z</time>
                <name>Trackpoint 10329</name>
            </trkpt>
            <trkpt lat="50.0542112" lon="10.2616416">
                <ele>212.0</ele>
                <time>2020-08-22T18:16:05.000Z</time>
                <name>Trackpoint 10330</name>
            </trkpt>
            <trkpt lat="50.0541664" lon="10.2615048">
                <ele>212.0</ele>
                <time>2020-08-22T18:16:07.000Z</time>
                <name>Trackpoint 10331</name>
            </trkpt>
            <trkpt lat="50.0541152" lon="10.2613584">
                <ele>212.0</ele>
                <time>2020-08-22T18:16:09.000Z</time>
                <name>Trackpoint 10332</name>
            </trkpt>
            <trkpt lat="50.0540768" lon="10.261224">
                <ele>212.0</ele>
                <time>2020-08-22T18:16:11.000Z</time>
                <name>Trackpoint 10333</name>
            </trkpt>
            <trkpt lat="50.0540352" lon="10.2610904">
                <ele>212.0</ele>
                <time>2020-08-22T18:16:13.000Z</time>
                <name>Trackpoint 10334</name>
            </trkpt>
            <trkpt lat="50.0539744" lon="10.2609552">
                <ele>212.0</ele>
                <time>2020-08-22T18:16:15.000Z</time>
                <name>Trackpoint 10335</name>
            </trkpt>
            <trkpt lat="50.05392" lon="10.26082">
                <ele>212.0</ele>
                <time>2020-08-22T18:16:17.000Z</time>
                <name>Trackpoint 10336</name>
            </trkpt>
            <trkpt lat="50.0538752" lon="10.2606896">
                <ele>212.0</ele>
                <time>2020-08-22T18:16:19.000Z</time>
                <name>Trackpoint 10337</name>
            </trkpt>
            <trkpt lat="50.0538208" lon="10.26056">
                <ele>212.0</ele>
                <time>2020-08-22T18:16:21.000Z</time>
                <name>Trackpoint 10338</name>
            </trkpt>
            <trkpt lat="50.0537632" lon="10.2604088">
                <ele>212.0</ele>
                <time>2020-08-22T18:16:23.000Z</time>
                <name>Trackpoint 10339</name>
            </trkpt>
            <trkpt lat="50.0537024" lon="10.2602664">
                <ele>212.0</ele>
                <time>2020-08-22T18:16:25.000Z</time>
                <name>Trackpoint 10340</name>
            </trkpt>
            <trkpt lat="50.0536448" lon="10.2601336">
                <ele>212.0</ele>
                <time>2020-08-22T18:16:27.000Z</time>
                <name>Trackpoint 10341</name>
            </trkpt>
            <trkpt lat="50.053584" lon="10.2599952">
                <ele>212.0</ele>
                <time>2020-08-22T18:16:29.000Z</time>
                <name>Trackpoint 10342</name>
            </trkpt>
            <trkpt lat="50.0535328" lon="10.2598448">
                <ele>212.0</ele>
                <time>2020-08-22T18:16:31.000Z</time>
                <name>Trackpoint 10343</name>
            </trkpt>
            <trkpt lat="50.0534816" lon="10.2597048">
                <ele>212.0</ele>
                <time>2020-08-22T18:16:33.000Z</time>
                <name>Trackpoint 10344</name>
            </trkpt>
            <trkpt lat="50.0534368" lon="10.2595752">
                <ele>212.0</ele>
                <time>2020-08-22T18:16:35.000Z</time>
                <name>Trackpoint 10345</name>
            </trkpt>
            <trkpt lat="50.0533856" lon="10.2594416">
                <ele>212.0</ele>
                <time>2020-08-22T18:16:37.000Z</time>
                <name>Trackpoint 10346</name>
            </trkpt>
            <trkpt lat="50.0533472" lon="10.2593216">
                <ele>212.0</ele>
                <time>2020-08-22T18:16:39.000Z</time>
                <name>Trackpoint 10347</name>
            </trkpt>
            <trkpt lat="50.053296" lon="10.2591888">
                <ele>212.0</ele>
                <time>2020-08-22T18:16:41.000Z</time>
                <name>Trackpoint 10348</name>
            </trkpt>
            <trkpt lat="50.0532448" lon="10.2590368">
                <ele>212.0</ele>
                <time>2020-08-22T18:16:43.000Z</time>
                <name>Trackpoint 10349</name>
            </trkpt>
            <trkpt lat="50.0532" lon="10.2589152">
                <ele>212.0</ele>
                <time>2020-08-22T18:16:45.000Z</time>
                <name>Trackpoint 10350</name>
            </trkpt>
            <trkpt lat="50.0531456" lon="10.2587792">
                <ele>212.0</ele>
                <time>2020-08-22T18:16:47.000Z</time>
                <name>Trackpoint 10351</name>
            </trkpt>
            <trkpt lat="50.0531136" lon="10.2586672">
                <ele>212.0</ele>
                <time>2020-08-22T18:16:49.000Z</time>
                <name>Trackpoint 10352</name>
            </trkpt>
            <trkpt lat="50.0530752" lon="10.2585488">
                <ele>212.0</ele>
                <time>2020-08-22T18:16:51.000Z</time>
                <name>Trackpoint 10353</name>
            </trkpt>
            <trkpt lat="50.0530272" lon="10.2584112">
                <ele>212.0</ele>
                <time>2020-08-22T18:16:53.000Z</time>
                <name>Trackpoint 10354</name>
            </trkpt>
            <trkpt lat="50.0529664" lon="10.2582848">
                <ele>212.0</ele>
                <time>2020-08-22T18:16:55.000Z</time>
                <name>Trackpoint 10355</name>
            </trkpt>
            <trkpt lat="50.0529152" lon="10.2581504">
                <ele>212.0</ele>
                <time>2020-08-22T18:16:57.000Z</time>
                <name>Trackpoint 10356</name>
            </trkpt>
            <trkpt lat="50.0528608" lon="10.2580248">
                <ele>212.0</ele>
                <time>2020-08-22T18:16:59.000Z</time>
                <name>Trackpoint 10357</name>
            </trkpt>
            <trkpt lat="50.0527968" lon="10.2578952">
                <ele>212.0</ele>
                <time>2020-08-22T18:17:01.000Z</time>
                <name>Trackpoint 10358</name>
            </trkpt>
            <trkpt lat="50.0527456" lon="10.2577848">
                <ele>212.0</ele>
                <time>2020-08-22T18:17:03.000Z</time>
                <name>Trackpoint 10359</name>
            </trkpt>
            <trkpt lat="50.052672" lon="10.2576584">
                <ele>212.0</ele>
                <time>2020-08-22T18:17:05.000Z</time>
                <name>Trackpoint 10360</name>
            </trkpt>
            <trkpt lat="50.0526304" lon="10.2575432">
                <ele>212.0</ele>
                <time>2020-08-22T18:17:07.000Z</time>
                <name>Trackpoint 10361</name>
            </trkpt>
            <trkpt lat="50.052592" lon="10.2574264">
                <ele>212.0</ele>
                <time>2020-08-22T18:17:09.000Z</time>
                <name>Trackpoint 10362</name>
            </trkpt>
            <trkpt lat="50.0525312" lon="10.257308">
                <ele>213.0</ele>
                <time>2020-08-22T18:17:11.000Z</time>
                <name>Trackpoint 10363</name>
            </trkpt>
            <trkpt lat="50.052464" lon="10.2571696">
                <ele>213.0</ele>
                <time>2020-08-22T18:17:13.000Z</time>
                <name>Trackpoint 10364</name>
            </trkpt>
            <trkpt lat="50.0524" lon="10.2570488">
                <ele>213.0</ele>
                <time>2020-08-22T18:17:15.000Z</time>
                <name>Trackpoint 10365</name>
            </trkpt>
            <trkpt lat="50.0523424" lon="10.2569168">
                <ele>213.0</ele>
                <time>2020-08-22T18:17:17.000Z</time>
                <name>Trackpoint 10366</name>
            </trkpt>
            <trkpt lat="50.0522688" lon="10.2567704">
                <ele>213.0</ele>
                <time>2020-08-22T18:17:19.000Z</time>
                <name>Trackpoint 10367</name>
            </trkpt>
            <trkpt lat="50.0522112" lon="10.2566272">
                <ele>213.0</ele>
                <time>2020-08-22T18:17:21.000Z</time>
                <name>Trackpoint 10368</name>
            </trkpt>
            <trkpt lat="50.0521536" lon="10.2564872">
                <ele>213.0</ele>
                <time>2020-08-22T18:17:23.000Z</time>
                <name>Trackpoint 10369</name>
            </trkpt>
            <trkpt lat="50.0521056" lon="10.2563464">
                <ele>213.0</ele>
                <time>2020-08-22T18:17:25.000Z</time>
                <name>Trackpoint 10370</name>
            </trkpt>
            <trkpt lat="50.0520416" lon="10.2562128">
                <ele>213.0</ele>
                <time>2020-08-22T18:17:27.000Z</time>
                <name>Trackpoint 10371</name>
            </trkpt>
            <trkpt lat="50.0519904" lon="10.2560784">
                <ele>213.0</ele>
                <time>2020-08-22T18:17:29.000Z</time>
                <name>Trackpoint 10372</name>
            </trkpt>
            <trkpt lat="50.051936" lon="10.2559536">
                <ele>213.0</ele>
                <time>2020-08-22T18:17:31.000Z</time>
                <name>Trackpoint 10373</name>
            </trkpt>
            <trkpt lat="50.0518848" lon="10.2558184">
                <ele>213.0</ele>
                <time>2020-08-22T18:17:33.000Z</time>
                <name>Trackpoint 10374</name>
            </trkpt>
            <trkpt lat="50.0518336" lon="10.2556952">
                <ele>213.0</ele>
                <time>2020-08-22T18:17:35.000Z</time>
                <name>Trackpoint 10375</name>
            </trkpt>
            <trkpt lat="50.0517792" lon="10.2555568">
                <ele>213.0</ele>
                <time>2020-08-22T18:17:37.000Z</time>
                <name>Trackpoint 10376</name>
            </trkpt>
            <trkpt lat="50.051728" lon="10.2554256">
                <ele>213.0</ele>
                <time>2020-08-22T18:17:39.000Z</time>
                <name>Trackpoint 10377</name>
            </trkpt>
            <trkpt lat="50.051664" lon="10.2552968">
                <ele>213.0</ele>
                <time>2020-08-22T18:17:41.000Z</time>
                <name>Trackpoint 10378</name>
            </trkpt>
            <trkpt lat="50.0516" lon="10.2551168">
                <ele>213.0</ele>
                <time>2020-08-22T18:17:43.000Z</time>
                <name>Trackpoint 10379</name>
            </trkpt>
            <trkpt lat="50.0515264" lon="10.25498">
                <ele>213.0</ele>
                <time>2020-08-22T18:17:45.000Z</time>
                <name>Trackpoint 10380</name>
            </trkpt>
            <trkpt lat="50.051456" lon="10.25484">
                <ele>213.0</ele>
                <time>2020-08-22T18:17:47.000Z</time>
                <name>Trackpoint 10381</name>
            </trkpt>
            <trkpt lat="50.0513888" lon="10.2546984">
                <ele>213.0</ele>
                <time>2020-08-22T18:17:49.000Z</time>
                <name>Trackpoint 10382</name>
            </trkpt>
            <trkpt lat="50.0513376" lon="10.2545632">
                <ele>213.0</ele>
                <time>2020-08-22T18:17:51.000Z</time>
                <name>Trackpoint 10383</name>
            </trkpt>
            <trkpt lat="50.0512768" lon="10.2544272">
                <ele>213.0</ele>
                <time>2020-08-22T18:17:53.000Z</time>
                <name>Trackpoint 10384</name>
            </trkpt>
            <trkpt lat="50.0512096" lon="10.2542984">
                <ele>213.0</ele>
                <time>2020-08-22T18:17:55.000Z</time>
                <name>Trackpoint 10385</name>
            </trkpt>
            <trkpt lat="50.0511296" lon="10.2541584">
                <ele>213.0</ele>
                <time>2020-08-22T18:17:57.000Z</time>
                <name>Trackpoint 10386</name>
            </trkpt>
            <trkpt lat="50.0510592" lon="10.25402">
                <ele>214.0</ele>
                <time>2020-08-22T18:17:59.000Z</time>
                <name>Trackpoint 10387</name>
            </trkpt>
            <trkpt lat="50.0509952" lon="10.2539032">
                <ele>214.0</ele>
                <time>2020-08-22T18:18:01.000Z</time>
                <name>Trackpoint 10388</name>
            </trkpt>
            <trkpt lat="50.0509408" lon="10.2537944">
                <ele>214.0</ele>
                <time>2020-08-22T18:18:03.000Z</time>
                <name>Trackpoint 10389</name>
            </trkpt>
            <trkpt lat="50.0508928" lon="10.2536936">
                <ele>214.0</ele>
                <time>2020-08-22T18:18:05.000Z</time>
                <name>Trackpoint 10390</name>
            </trkpt>
            <trkpt lat="50.0508448" lon="10.2535832">
                <ele>214.0</ele>
                <time>2020-08-22T18:18:07.000Z</time>
                <name>Trackpoint 10391</name>
            </trkpt>
            <trkpt lat="50.0508064" lon="10.2534888">
                <ele>214.0</ele>
                <time>2020-08-22T18:18:09.000Z</time>
                <name>Trackpoint 10392</name>
            </trkpt>
            <trkpt lat="50.0507584" lon="10.2533888">
                <ele>214.0</ele>
                <time>2020-08-22T18:18:12.000Z</time>
                <name>Trackpoint 10393</name>
            </trkpt>
            <trkpt lat="50.0507168" lon="10.2533056">
                <ele>214.0</ele>
                <time>2020-08-22T18:18:15.000Z</time>
                <name>Trackpoint 10394</name>
            </trkpt>
            <trkpt lat="50.0506656" lon="10.2531968">
                <ele>213.0</ele>
                <time>2020-08-22T18:18:19.000Z</time>
                <name>Trackpoint 10395</name>
            </trkpt>
            <trkpt lat="50.0506336" lon="10.2531016">
                <ele>213.0</ele>
                <time>2020-08-22T18:18:23.000Z</time>
                <name>Trackpoint 10396</name>
            </trkpt>
            <trkpt lat="50.0505792" lon="10.2530032">
                <ele>214.0</ele>
                <time>2020-08-22T18:18:54.000Z</time>
                <name>Trackpoint 10397</name>
            </trkpt>
            <trkpt lat="50.0505248" lon="10.2529048">
                <ele>214.0</ele>
                <time>2020-08-22T18:18:57.000Z</time>
                <name>Trackpoint 10398</name>
            </trkpt>
            <trkpt lat="50.0504864" lon="10.2528232">
                <ele>214.0</ele>
                <time>2020-08-22T18:18:59.000Z</time>
                <name>Trackpoint 10399</name>
            </trkpt>
            <trkpt lat="50.0504416" lon="10.2527312">
                <ele>214.0</ele>
                <time>2020-08-22T18:19:02.000Z</time>
                <name>Trackpoint 10400</name>
            </trkpt>
            <trkpt lat="50.0503872" lon="10.2526352">
                <ele>214.0</ele>
                <time>2020-08-22T18:19:05.000Z</time>
                <name>Trackpoint 10401</name>
            </trkpt>
            <trkpt lat="50.0503424" lon="10.25254">
                <ele>214.0</ele>
                <time>2020-08-22T18:19:08.000Z</time>
                <name>Trackpoint 10402</name>
            </trkpt>
            <trkpt lat="50.0503136" lon="10.2524536">
                <ele>214.0</ele>
                <time>2020-08-22T18:19:11.000Z</time>
                <name>Trackpoint 10403</name>
            </trkpt>
            <trkpt lat="50.0502624" lon="10.252368">
                <ele>214.0</ele>
                <time>2020-08-22T18:19:13.000Z</time>
                <name>Trackpoint 10404</name>
            </trkpt>
            <trkpt lat="50.0502176" lon="10.252236">
                <ele>214.0</ele>
                <time>2020-08-22T18:19:15.000Z</time>
                <name>Trackpoint 10405</name>
            </trkpt>
            <trkpt lat="50.0501632" lon="10.2521216">
                <ele>214.0</ele>
                <time>2020-08-22T18:19:17.000Z</time>
                <name>Trackpoint 10406</name>
            </trkpt>
            <trkpt lat="50.0500896" lon="10.2520088">
                <ele>214.0</ele>
                <time>2020-08-22T18:19:19.000Z</time>
                <name>Trackpoint 10407</name>
            </trkpt>
            <trkpt lat="50.050032" lon="10.251892">
                <ele>214.0</ele>
                <time>2020-08-22T18:19:21.000Z</time>
                <name>Trackpoint 10408</name>
            </trkpt>
            <trkpt lat="50.049968" lon="10.2517832">
                <ele>214.0</ele>
                <time>2020-08-22T18:19:23.000Z</time>
                <name>Trackpoint 10409</name>
            </trkpt>
            <trkpt lat="50.0499168" lon="10.2516736">
                <ele>214.0</ele>
                <time>2020-08-22T18:19:25.000Z</time>
                <name>Trackpoint 10410</name>
            </trkpt>
            <trkpt lat="50.04984" lon="10.2515552">
                <ele>214.0</ele>
                <time>2020-08-22T18:19:27.000Z</time>
                <name>Trackpoint 10411</name>
            </trkpt>
            <trkpt lat="50.0497824" lon="10.2514448">
                <ele>214.0</ele>
                <time>2020-08-22T18:19:29.000Z</time>
                <name>Trackpoint 10412</name>
            </trkpt>
            <trkpt lat="50.0497248" lon="10.2513288">
                <ele>214.0</ele>
                <time>2020-08-22T18:19:31.000Z</time>
                <name>Trackpoint 10413</name>
            </trkpt>
            <trkpt lat="50.0496832" lon="10.25122">
                <ele>214.0</ele>
                <time>2020-08-22T18:19:33.000Z</time>
                <name>Trackpoint 10414</name>
            </trkpt>
            <trkpt lat="50.0496544" lon="10.2511016">
                <ele>214.0</ele>
                <time>2020-08-22T18:19:35.000Z</time>
                <name>Trackpoint 10415</name>
            </trkpt>
            <trkpt lat="50.0496" lon="10.2509968">
                <ele>214.0</ele>
                <time>2020-08-22T18:19:37.000Z</time>
                <name>Trackpoint 10416</name>
            </trkpt>
            <trkpt lat="50.0495328" lon="10.250908">
                <ele>214.0</ele>
                <time>2020-08-22T18:19:39.000Z</time>
                <name>Trackpoint 10417</name>
            </trkpt>
            <trkpt lat="50.0494816" lon="10.2507648">
                <ele>214.0</ele>
                <time>2020-08-22T18:19:41.000Z</time>
                <name>Trackpoint 10418</name>
            </trkpt>
            <trkpt lat="50.0494528" lon="10.2506584">
                <ele>214.0</ele>
                <time>2020-08-22T18:19:43.000Z</time>
                <name>Trackpoint 10419</name>
            </trkpt>
            <trkpt lat="50.0493856" lon="10.2505216">
                <ele>214.0</ele>
                <time>2020-08-22T18:19:45.000Z</time>
                <name>Trackpoint 10420</name>
            </trkpt>
            <trkpt lat="50.0493312" lon="10.2504016">
                <ele>214.0</ele>
                <time>2020-08-22T18:19:47.000Z</time>
                <name>Trackpoint 10421</name>
            </trkpt>
            <trkpt lat="50.0492672" lon="10.250272">
                <ele>214.0</ele>
                <time>2020-08-22T18:19:49.000Z</time>
                <name>Trackpoint 10422</name>
            </trkpt>
            <trkpt lat="50.0492128" lon="10.2501096">
                <ele>215.0</ele>
                <time>2020-08-22T18:19:51.000Z</time>
                <name>Trackpoint 10423</name>
            </trkpt>
            <trkpt lat="50.0491424" lon="10.2499688">
                <ele>215.0</ele>
                <time>2020-08-22T18:19:53.000Z</time>
                <name>Trackpoint 10424</name>
            </trkpt>
            <trkpt lat="50.049072" lon="10.2498904">
                <ele>215.0</ele>
                <time>2020-08-22T18:19:54.000Z</time>
                <name>Trackpoint 10425</name>
            </trkpt>
            <trkpt lat="50.0490176" lon="10.2498064">
                <ele>215.0</ele>
                <time>2020-08-22T18:19:55.000Z</time>
                <name>Trackpoint 10426</name>
            </trkpt>
            <trkpt lat="50.0489888" lon="10.2497184">
                <ele>214.0</ele>
                <time>2020-08-22T18:19:56.000Z</time>
                <name>Trackpoint 10427</name>
            </trkpt>
            <trkpt lat="50.0489664" lon="10.2495648">
                <ele>214.0</ele>
                <time>2020-08-22T18:19:58.000Z</time>
                <name>Trackpoint 10428</name>
            </trkpt>
            <trkpt lat="50.0489312" lon="10.24944">
                <ele>214.0</ele>
                <time>2020-08-22T18:19:59.000Z</time>
                <name>Trackpoint 10429</name>
            </trkpt>
            <trkpt lat="50.0488768" lon="10.2493">
                <ele>214.0</ele>
                <time>2020-08-22T18:20:01.000Z</time>
                <name>Trackpoint 10430</name>
            </trkpt>
            <trkpt lat="50.0487968" lon="10.24916">
                <ele>214.0</ele>
                <time>2020-08-22T18:20:03.000Z</time>
                <name>Trackpoint 10431</name>
            </trkpt>
            <trkpt lat="50.0487648" lon="10.2489832">
                <ele>214.0</ele>
                <time>2020-08-22T18:20:05.000Z</time>
                <name>Trackpoint 10432</name>
            </trkpt>
            <trkpt lat="50.0486752" lon="10.2488144">
                <ele>214.0</ele>
                <time>2020-08-22T18:20:07.000Z</time>
                <name>Trackpoint 10433</name>
            </trkpt>
            <trkpt lat="50.0486176" lon="10.248696">
                <ele>214.0</ele>
                <time>2020-08-22T18:20:09.000Z</time>
                <name>Trackpoint 10434</name>
            </trkpt>
            <trkpt lat="50.0485664" lon="10.2485904">
                <ele>214.0</ele>
                <time>2020-08-22T18:20:11.000Z</time>
                <name>Trackpoint 10435</name>
            </trkpt>
            <trkpt lat="50.0485152" lon="10.24848">
                <ele>214.0</ele>
                <time>2020-08-22T18:20:13.000Z</time>
                <name>Trackpoint 10436</name>
            </trkpt>
            <trkpt lat="50.0484608" lon="10.2483616">
                <ele>214.0</ele>
                <time>2020-08-22T18:20:15.000Z</time>
                <name>Trackpoint 10437</name>
            </trkpt>
            <trkpt lat="50.0484224" lon="10.2482368">
                <ele>214.0</ele>
                <time>2020-08-22T18:20:17.000Z</time>
                <name>Trackpoint 10438</name>
            </trkpt>
            <trkpt lat="50.0483808" lon="10.2481248">
                <ele>214.0</ele>
                <time>2020-08-22T18:20:19.000Z</time>
                <name>Trackpoint 10439</name>
            </trkpt>
            <trkpt lat="50.0483168" lon="10.2479952">
                <ele>215.0</ele>
                <time>2020-08-22T18:20:21.000Z</time>
                <name>Trackpoint 10440</name>
            </trkpt>
            <trkpt lat="50.0482528" lon="10.2478736">
                <ele>214.0</ele>
                <time>2020-08-22T18:20:23.000Z</time>
                <name>Trackpoint 10441</name>
            </trkpt>
            <trkpt lat="50.04816" lon="10.247748">
                <ele>214.0</ele>
                <time>2020-08-22T18:20:25.000Z</time>
                <name>Trackpoint 10442</name>
            </trkpt>
            <trkpt lat="50.048096" lon="10.2476064">
                <ele>215.0</ele>
                <time>2020-08-22T18:20:27.000Z</time>
                <name>Trackpoint 10443</name>
            </trkpt>
            <trkpt lat="50.0480032" lon="10.24742">
                <ele>215.0</ele>
                <time>2020-08-22T18:20:29.000Z</time>
                <name>Trackpoint 10444</name>
            </trkpt>
            <trkpt lat="50.0479328" lon="10.2472832">
                <ele>215.0</ele>
                <time>2020-08-22T18:20:31.000Z</time>
                <name>Trackpoint 10445</name>
            </trkpt>
            <trkpt lat="50.0478912" lon="10.2471416">
                <ele>215.0</ele>
                <time>2020-08-22T18:20:33.000Z</time>
                <name>Trackpoint 10446</name>
            </trkpt>
            <trkpt lat="50.0478368" lon="10.2470128">
                <ele>215.0</ele>
                <time>2020-08-22T18:20:35.000Z</time>
                <name>Trackpoint 10447</name>
            </trkpt>
            <trkpt lat="50.0477792" lon="10.2468984">
                <ele>215.0</ele>
                <time>2020-08-22T18:20:37.000Z</time>
                <name>Trackpoint 10448</name>
            </trkpt>
            <trkpt lat="50.0477376" lon="10.2467744">
                <ele>215.0</ele>
                <time>2020-08-22T18:20:39.000Z</time>
                <name>Trackpoint 10449</name>
            </trkpt>
            <trkpt lat="50.047696" lon="10.2466624">
                <ele>215.0</ele>
                <time>2020-08-22T18:20:41.000Z</time>
                <name>Trackpoint 10450</name>
            </trkpt>
            <trkpt lat="50.0476544" lon="10.2465536">
                <ele>214.0</ele>
                <time>2020-08-22T18:20:43.000Z</time>
                <name>Trackpoint 10451</name>
            </trkpt>
            <trkpt lat="50.0476064" lon="10.2464536">
                <ele>214.0</ele>
                <time>2020-08-22T18:20:45.000Z</time>
                <name>Trackpoint 10452</name>
            </trkpt>
            <trkpt lat="50.0475488" lon="10.2463568">
                <ele>214.0</ele>
                <time>2020-08-22T18:20:47.000Z</time>
                <name>Trackpoint 10453</name>
            </trkpt>
            <trkpt lat="50.0474976" lon="10.246252">
                <ele>214.0</ele>
                <time>2020-08-22T18:20:49.000Z</time>
                <name>Trackpoint 10454</name>
            </trkpt>
            <trkpt lat="50.04744" lon="10.2461816">
                <ele>214.0</ele>
                <time>2020-08-22T18:20:51.000Z</time>
                <name>Trackpoint 10455</name>
            </trkpt>
            <trkpt lat="50.0473792" lon="10.2460872">
                <ele>214.0</ele>
                <time>2020-08-22T18:20:55.000Z</time>
                <name>Trackpoint 10456</name>
            </trkpt>
            <trkpt lat="50.047328" lon="10.2459768">
                <ele>215.0</ele>
                <time>2020-08-22T18:24:08.000Z</time>
                <name>Trackpoint 10457</name>
            </trkpt>
            <trkpt lat="50.0473184" lon="10.2458832">
                <ele>215.0</ele>
                <time>2020-08-22T18:24:10.000Z</time>
                <name>Trackpoint 10458</name>
            </trkpt>
            <trkpt lat="50.0472832" lon="10.2457936">
                <ele>215.0</ele>
                <time>2020-08-22T18:24:12.000Z</time>
                <name>Trackpoint 10459</name>
            </trkpt>
            <trkpt lat="50.047248" lon="10.2456888">
                <ele>215.0</ele>
                <time>2020-08-22T18:24:14.000Z</time>
                <name>Trackpoint 10460</name>
            </trkpt>
            <trkpt lat="50.0472192" lon="10.2455904">
                <ele>215.0</ele>
                <time>2020-08-22T18:24:16.000Z</time>
                <name>Trackpoint 10461</name>
            </trkpt>
            <trkpt lat="50.0471776" lon="10.245472">
                <ele>215.0</ele>
                <time>2020-08-22T18:24:18.000Z</time>
                <name>Trackpoint 10462</name>
            </trkpt>
            <trkpt lat="50.0471232" lon="10.2453648">
                <ele>215.0</ele>
                <time>2020-08-22T18:24:20.000Z</time>
                <name>Trackpoint 10463</name>
            </trkpt>
            <trkpt lat="50.0470848" lon="10.2452552">
                <ele>215.0</ele>
                <time>2020-08-22T18:24:22.000Z</time>
                <name>Trackpoint 10464</name>
            </trkpt>
            <trkpt lat="50.0470368" lon="10.2451664">
                <ele>215.0</ele>
                <time>2020-08-22T18:24:24.000Z</time>
                <name>Trackpoint 10465</name>
            </trkpt>
            <trkpt lat="50.0469856" lon="10.2450416">
                <ele>215.0</ele>
                <time>2020-08-22T18:24:26.000Z</time>
                <name>Trackpoint 10466</name>
            </trkpt>
            <trkpt lat="50.046912" lon="10.2449064">
                <ele>215.0</ele>
                <time>2020-08-22T18:24:28.000Z</time>
                <name>Trackpoint 10467</name>
            </trkpt>
            <trkpt lat="50.0468672" lon="10.2448">
                <ele>215.0</ele>
                <time>2020-08-22T18:24:30.000Z</time>
                <name>Trackpoint 10468</name>
            </trkpt>
            <trkpt lat="50.0468288" lon="10.2446632">
                <ele>215.0</ele>
                <time>2020-08-22T18:24:32.000Z</time>
                <name>Trackpoint 10469</name>
            </trkpt>
            <trkpt lat="50.046784" lon="10.24454">
                <ele>215.0</ele>
                <time>2020-08-22T18:24:34.000Z</time>
                <name>Trackpoint 10470</name>
            </trkpt>
            <trkpt lat="50.0467456" lon="10.2444512">
                <ele>215.0</ele>
                <time>2020-08-22T18:24:36.000Z</time>
                <name>Trackpoint 10471</name>
            </trkpt>
            <trkpt lat="50.0466912" lon="10.2443352">
                <ele>215.0</ele>
                <time>2020-08-22T18:24:38.000Z</time>
                <name>Trackpoint 10472</name>
            </trkpt>
            <trkpt lat="50.0466464" lon="10.2442232">
                <ele>215.0</ele>
                <time>2020-08-22T18:24:40.000Z</time>
                <name>Trackpoint 10473</name>
            </trkpt>
            <trkpt lat="50.0465568" lon="10.2441368">
                <ele>215.0</ele>
                <time>2020-08-22T18:24:42.000Z</time>
                <name>Trackpoint 10474</name>
            </trkpt>
            <trkpt lat="50.0464928" lon="10.2440632">
                <ele>215.0</ele>
                <time>2020-08-22T18:24:43.000Z</time>
                <name>Trackpoint 10475</name>
            </trkpt>
            <trkpt lat="50.0464288" lon="10.2439632">
                <ele>215.0</ele>
                <time>2020-08-22T18:24:45.000Z</time>
                <name>Trackpoint 10476</name>
            </trkpt>
            <trkpt lat="50.0463552" lon="10.24388">
                <ele>215.0</ele>
                <time>2020-08-22T18:24:48.000Z</time>
                <name>Trackpoint 10477</name>
            </trkpt>
            <trkpt lat="50.0463072" lon="10.2437664">
                <ele>215.0</ele>
                <time>2020-08-22T18:25:27.000Z</time>
                <name>Trackpoint 10478</name>
            </trkpt>
            <trkpt lat="50.0462912" lon="10.243644">
                <ele>215.0</ele>
                <time>2020-08-22T18:25:30.000Z</time>
                <name>Trackpoint 10479</name>
            </trkpt>
            <trkpt lat="50.0462528" lon="10.243528">
                <ele>215.0</ele>
                <time>2020-08-22T18:25:33.000Z</time>
                <name>Trackpoint 10480</name>
            </trkpt>
            <trkpt lat="50.046208" lon="10.243428">
                <ele>215.0</ele>
                <time>2020-08-22T18:25:36.000Z</time>
                <name>Trackpoint 10481</name>
            </trkpt>
            <trkpt lat="50.0461568" lon="10.2433168">
                <ele>215.0</ele>
                <time>2020-08-22T18:25:39.000Z</time>
                <name>Trackpoint 10482</name>
            </trkpt>
            <trkpt lat="50.0461248" lon="10.2431936">
                <ele>215.0</ele>
                <time>2020-08-22T18:25:42.000Z</time>
                <name>Trackpoint 10483</name>
            </trkpt>
            <trkpt lat="50.0460736" lon="10.2430552">
                <ele>215.0</ele>
                <time>2020-08-22T18:25:45.000Z</time>
                <name>Trackpoint 10484</name>
            </trkpt>
            <trkpt lat="50.0460288" lon="10.242944">
                <ele>215.0</ele>
                <time>2020-08-22T18:25:48.000Z</time>
                <name>Trackpoint 10485</name>
            </trkpt>
            <trkpt lat="50.0459776" lon="10.2428576">
                <ele>215.0</ele>
                <time>2020-08-22T18:25:51.000Z</time>
                <name>Trackpoint 10486</name>
            </trkpt>
            <trkpt lat="50.0459104" lon="10.2427568">
                <ele>215.0</ele>
                <time>2020-08-22T18:25:54.000Z</time>
                <name>Trackpoint 10487</name>
            </trkpt>
            <trkpt lat="50.0458496" lon="10.2426616">
                <ele>215.0</ele>
                <time>2020-08-22T18:25:57.000Z</time>
                <name>Trackpoint 10488</name>
            </trkpt>
            <trkpt lat="50.045792" lon="10.2425696">
                <ele>215.0</ele>
                <time>2020-08-22T18:26:00.000Z</time>
                <name>Trackpoint 10489</name>
            </trkpt>
            <trkpt lat="50.0457472" lon="10.2424536">
                <ele>215.0</ele>
                <time>2020-08-22T18:26:03.000Z</time>
                <name>Trackpoint 10490</name>
            </trkpt>
            <trkpt lat="50.0457184" lon="10.2423232">
                <ele>215.0</ele>
                <time>2020-08-22T18:26:06.000Z</time>
                <name>Trackpoint 10491</name>
            </trkpt>
            <trkpt lat="50.0456736" lon="10.2422416">
                <ele>215.0</ele>
                <time>2020-08-22T18:26:08.000Z</time>
                <name>Trackpoint 10492</name>
            </trkpt>
            <trkpt lat="50.0456352" lon="10.2421568">
                <ele>215.0</ele>
                <time>2020-08-22T18:26:10.000Z</time>
                <name>Trackpoint 10493</name>
            </trkpt>
            <trkpt lat="50.0455744" lon="10.2420432">
                <ele>215.0</ele>
                <time>2020-08-22T18:26:13.000Z</time>
                <name>Trackpoint 10494</name>
            </trkpt>
            <trkpt lat="50.045536" lon="10.2419464">
                <ele>215.0</ele>
                <time>2020-08-22T18:26:15.000Z</time>
                <name>Trackpoint 10495</name>
            </trkpt>
            <trkpt lat="50.045488" lon="10.241848">
                <ele>215.0</ele>
                <time>2020-08-22T18:26:17.000Z</time>
                <name>Trackpoint 10496</name>
            </trkpt>
            <trkpt lat="50.0454208" lon="10.2417432">
                <ele>215.0</ele>
                <time>2020-08-22T18:26:19.000Z</time>
                <name>Trackpoint 10497</name>
            </trkpt>
            <trkpt lat="50.0453568" lon="10.241636">
                <ele>214.0</ele>
                <time>2020-08-22T18:26:21.000Z</time>
                <name>Trackpoint 10498</name>
            </trkpt>
            <trkpt lat="50.0453024" lon="10.2415312">
                <ele>214.0</ele>
                <time>2020-08-22T18:26:23.000Z</time>
                <name>Trackpoint 10499</name>
            </trkpt>
            <trkpt lat="50.0452512" lon="10.2414248">
                <ele>214.0</ele>
                <time>2020-08-22T18:26:25.000Z</time>
                <name>Trackpoint 10500</name>
            </trkpt>
            <trkpt lat="50.0452" lon="10.2413184">
                <ele>213.0</ele>
                <time>2020-08-22T18:26:27.000Z</time>
                <name>Trackpoint 10501</name>
            </trkpt>
            <trkpt lat="50.0451552" lon="10.2412136">
                <ele>213.0</ele>
                <time>2020-08-22T18:26:29.000Z</time>
                <name>Trackpoint 10502</name>
            </trkpt>
            <trkpt lat="50.0451072" lon="10.241108">
                <ele>213.0</ele>
                <time>2020-08-22T18:26:31.000Z</time>
                <name>Trackpoint 10503</name>
            </trkpt>
            <trkpt lat="50.0450656" lon="10.241012">
                <ele>213.0</ele>
                <time>2020-08-22T18:26:33.000Z</time>
                <name>Trackpoint 10504</name>
            </trkpt>
            <trkpt lat="50.0450176" lon="10.2409352">
                <ele>213.0</ele>
                <time>2020-08-22T18:26:35.000Z</time>
                <name>Trackpoint 10505</name>
            </trkpt>
            <trkpt lat="50.0449568" lon="10.2408464">
                <ele>213.0</ele>
                <time>2020-08-22T18:26:38.000Z</time>
                <name>Trackpoint 10506</name>
            </trkpt>
            <trkpt lat="50.0448992" lon="10.2407376">
                <ele>213.0</ele>
                <time>2020-08-22T18:26:41.000Z</time>
                <name>Trackpoint 10507</name>
            </trkpt>
            <trkpt lat="50.044864" lon="10.2406528">
                <ele>212.0</ele>
                <time>2020-08-22T18:26:43.000Z</time>
                <name>Trackpoint 10508</name>
            </trkpt>
            <trkpt lat="50.0448064" lon="10.2405344">
                <ele>212.0</ele>
                <time>2020-08-22T18:26:46.000Z</time>
                <name>Trackpoint 10509</name>
            </trkpt>
            <trkpt lat="50.0447552" lon="10.2404368">
                <ele>212.0</ele>
                <time>2020-08-22T18:26:49.000Z</time>
                <name>Trackpoint 10510</name>
            </trkpt>
            <trkpt lat="50.0447168" lon="10.2403432">
                <ele>212.0</ele>
                <time>2020-08-22T18:28:02.000Z</time>
                <name>Trackpoint 10511</name>
            </trkpt>
            <trkpt lat="50.0446784" lon="10.24024">
                <ele>212.0</ele>
                <time>2020-08-22T18:28:06.000Z</time>
                <name>Trackpoint 10512</name>
            </trkpt>
            <trkpt lat="50.0446432" lon="10.2401568">
                <ele>212.0</ele>
                <time>2020-08-22T18:28:09.000Z</time>
                <name>Trackpoint 10513</name>
            </trkpt>
            <trkpt lat="50.0446048" lon="10.2400352">
                <ele>213.0</ele>
                <time>2020-08-22T18:28:12.000Z</time>
                <name>Trackpoint 10514</name>
            </trkpt>
            <trkpt lat="50.0445824" lon="10.23994">
                <ele>213.0</ele>
                <time>2020-08-22T18:28:14.000Z</time>
                <name>Trackpoint 10515</name>
            </trkpt>
            <trkpt lat="50.0445568" lon="10.2398456">
                <ele>213.0</ele>
                <time>2020-08-22T18:28:16.000Z</time>
                <name>Trackpoint 10516</name>
            </trkpt>
            <trkpt lat="50.0445248" lon="10.2397496">
                <ele>213.0</ele>
                <time>2020-08-22T18:28:18.000Z</time>
                <name>Trackpoint 10517</name>
            </trkpt>
            <trkpt lat="50.0444832" lon="10.2396616">
                <ele>213.0</ele>
                <time>2020-08-22T18:28:20.000Z</time>
                <name>Trackpoint 10518</name>
            </trkpt>
            <trkpt lat="50.044432" lon="10.2395736">
                <ele>213.0</ele>
                <time>2020-08-22T18:28:22.000Z</time>
                <name>Trackpoint 10519</name>
            </trkpt>
            <trkpt lat="50.0443776" lon="10.2394912">
                <ele>213.0</ele>
                <time>2020-08-22T18:28:24.000Z</time>
                <name>Trackpoint 10520</name>
            </trkpt>
            <trkpt lat="50.0443104" lon="10.2394136">
                <ele>213.0</ele>
                <time>2020-08-22T18:28:26.000Z</time>
                <name>Trackpoint 10521</name>
            </trkpt>
            <trkpt lat="50.0442656" lon="10.2393152">
                <ele>213.0</ele>
                <time>2020-08-22T18:28:28.000Z</time>
                <name>Trackpoint 10522</name>
            </trkpt>
            <trkpt lat="50.044224" lon="10.2392128">
                <ele>213.0</ele>
                <time>2020-08-22T18:28:30.000Z</time>
                <name>Trackpoint 10523</name>
            </trkpt>
            <trkpt lat="50.044192" lon="10.2391136">
                <ele>214.0</ele>
                <time>2020-08-22T18:28:32.000Z</time>
                <name>Trackpoint 10524</name>
            </trkpt>
            <trkpt lat="50.0441888" lon="10.2390032">
                <ele>214.0</ele>
                <time>2020-08-22T18:28:34.000Z</time>
                <name>Trackpoint 10525</name>
            </trkpt>
            <trkpt lat="50.044192" lon="10.2388832">
                <ele>213.0</ele>
                <time>2020-08-22T18:28:36.000Z</time>
                <name>Trackpoint 10526</name>
            </trkpt>
            <trkpt lat="50.0441824" lon="10.238764">
                <ele>213.0</ele>
                <time>2020-08-22T18:28:38.000Z</time>
                <name>Trackpoint 10527</name>
            </trkpt>
            <trkpt lat="50.0441664" lon="10.2386512">
                <ele>213.0</ele>
                <time>2020-08-22T18:28:40.000Z</time>
                <name>Trackpoint 10528</name>
            </trkpt>
            <trkpt lat="50.0441376" lon="10.23854">
                <ele>214.0</ele>
                <time>2020-08-22T18:28:42.000Z</time>
                <name>Trackpoint 10529</name>
            </trkpt>
            <trkpt lat="50.0441088" lon="10.2384504">
                <ele>214.0</ele>
                <time>2020-08-22T18:28:44.000Z</time>
                <name>Trackpoint 10530</name>
            </trkpt>
            <trkpt lat="50.0440672" lon="10.23834">
                <ele>214.0</ele>
                <time>2020-08-22T18:28:47.000Z</time>
                <name>Trackpoint 10531</name>
            </trkpt>
            <trkpt lat="50.0440128" lon="10.2382584">
                <ele>214.0</ele>
                <time>2020-08-22T18:28:50.000Z</time>
                <name>Trackpoint 10532</name>
            </trkpt>
            <trkpt lat="50.043952" lon="10.2381552">
                <ele>213.0</ele>
                <time>2020-08-22T18:28:53.000Z</time>
                <name>Trackpoint 10533</name>
            </trkpt>
            <trkpt lat="50.0438752" lon="10.2380752">
                <ele>214.0</ele>
                <time>2020-08-22T18:28:56.000Z</time>
                <name>Trackpoint 10534</name>
            </trkpt>
            <trkpt lat="50.043792" lon="10.2379984">
                <ele>214.0</ele>
                <time>2020-08-22T18:28:59.000Z</time>
                <name>Trackpoint 10535</name>
            </trkpt>
            <trkpt lat="50.0437088" lon="10.2379128">
                <ele>214.0</ele>
                <time>2020-08-22T18:29:02.000Z</time>
                <name>Trackpoint 10536</name>
            </trkpt>
            <trkpt lat="50.0436512" lon="10.2378416">
                <ele>214.0</ele>
                <time>2020-08-22T18:29:04.000Z</time>
                <name>Trackpoint 10537</name>
            </trkpt>
            <trkpt lat="50.0436352" lon="10.237728">
                <ele>214.0</ele>
                <time>2020-08-22T18:29:06.000Z</time>
                <name>Trackpoint 10538</name>
            </trkpt>
            <trkpt lat="50.043584" lon="10.237612">
                <ele>214.0</ele>
                <time>2020-08-22T18:29:09.000Z</time>
                <name>Trackpoint 10539</name>
            </trkpt>
            <trkpt lat="50.0435264" lon="10.2375224">
                <ele>215.0</ele>
                <time>2020-08-22T18:29:12.000Z</time>
                <name>Trackpoint 10540</name>
            </trkpt>
            <trkpt lat="50.0434624" lon="10.2374496">
                <ele>216.0</ele>
                <time>2020-08-22T18:29:17.000Z</time>
                <name>Trackpoint 10541</name>
            </trkpt>
            <trkpt lat="50.0434432" lon="10.23736">
                <ele>216.0</ele>
                <time>2020-08-22T18:29:22.000Z</time>
                <name>Trackpoint 10542</name>
            </trkpt>
            <trkpt lat="50.0434688" lon="10.2373">
                <ele>230.0</ele>
                <time>2020-08-23T07:18:49.000Z</time>
                <name>Trackpoint 99</name>
            </trkpt>
            <trkpt lat="50.0434496" lon="10.237208">
                <ele>230.0</ele>
                <time>2020-08-23T07:18:53.000Z</time>
                <name>Trackpoint 100</name>
            </trkpt>
            <trkpt lat="50.0434144" lon="10.2370144">
                <ele>229.0</ele>
                <time>2020-08-23T07:19:10.000Z</time>
                <name>Trackpoint 102</name>
            </trkpt>
            <trkpt lat="50.0434624" lon="10.2369248">
                <ele>227.0</ele>
                <time>2020-08-23T07:19:29.000Z</time>
                <name>Trackpoint 103</name>
            </trkpt>
            <trkpt lat="50.043472" lon="10.2368232">
                <ele>227.0</ele>
                <time>2020-08-23T07:19:37.000Z</time>
                <name>Trackpoint 104</name>
            </trkpt>
            <trkpt lat="50.0434688" lon="10.2366896">
                <ele>227.0</ele>
                <time>2020-08-23T07:19:39.000Z</time>
                <name>Trackpoint 105</name>
            </trkpt>
            <trkpt lat="50.0434368" lon="10.2365704">
                <ele>227.0</ele>
                <time>2020-08-23T07:19:41.000Z</time>
                <name>Trackpoint 106</name>
            </trkpt>
            <trkpt lat="50.0434048" lon="10.2364368">
                <ele>226.0</ele>
                <time>2020-08-23T07:19:43.000Z</time>
                <name>Trackpoint 107</name>
            </trkpt>
            <trkpt lat="50.0433312" lon="10.2363384">
                <ele>226.0</ele>
                <time>2020-08-23T07:19:44.000Z</time>
                <name>Trackpoint 108</name>
            </trkpt>
            <trkpt lat="50.043328" lon="10.2362232">
                <ele>225.0</ele>
                <time>2020-08-23T07:19:46.000Z</time>
                <name>Trackpoint 109</name>
            </trkpt>
            <trkpt lat="50.04328" lon="10.2360872">
                <ele>224.0</ele>
                <time>2020-08-23T07:19:48.000Z</time>
                <name>Trackpoint 110</name>
            </trkpt>
            <trkpt lat="50.0432384" lon="10.23598">
                <ele>223.0</ele>
                <time>2020-08-23T07:19:50.000Z</time>
                <name>Trackpoint 111</name>
            </trkpt>
            <trkpt lat="50.0432192" lon="10.2358664">
                <ele>223.0</ele>
                <time>2020-08-23T07:19:52.000Z</time>
                <name>Trackpoint 112</name>
            </trkpt>
            <trkpt lat="50.0431872" lon="10.2357384">
                <ele>223.0</ele>
                <time>2020-08-23T07:19:54.000Z</time>
                <name>Trackpoint 113</name>
            </trkpt>
            <trkpt lat="50.0431264" lon="10.2356144">
                <ele>223.0</ele>
                <time>2020-08-23T07:19:56.000Z</time>
                <name>Trackpoint 114</name>
            </trkpt>
            <trkpt lat="50.0430944" lon="10.2355184">
                <ele>223.0</ele>
                <time>2020-08-23T07:19:58.000Z</time>
                <name>Trackpoint 115</name>
            </trkpt>
            <trkpt lat="50.0431008" lon="10.2353736">
                <ele>225.0</ele>
                <time>2020-08-23T07:20:00.000Z</time>
                <name>Trackpoint 116</name>
            </trkpt>
            <trkpt lat="50.0431104" lon="10.2352736">
                <ele>226.0</ele>
                <time>2020-08-23T07:20:01.000Z</time>
                <name>Trackpoint 117</name>
            </trkpt>
            <trkpt lat="50.0430912" lon="10.23516">
                <ele>226.0</ele>
                <time>2020-08-23T07:20:03.000Z</time>
                <name>Trackpoint 118</name>
            </trkpt>
            <trkpt lat="50.04304" lon="10.23508">
                <ele>226.0</ele>
                <time>2020-08-23T07:20:04.000Z</time>
                <name>Trackpoint 119</name>
            </trkpt>
            <trkpt lat="50.0429664" lon="10.234992">
                <ele>226.0</ele>
                <time>2020-08-23T07:20:06.000Z</time>
                <name>Trackpoint 120</name>
            </trkpt>
            <trkpt lat="50.0428992" lon="10.2349184">
                <ele>226.0</ele>
                <time>2020-08-23T07:20:08.000Z</time>
                <name>Trackpoint 121</name>
            </trkpt>
            <trkpt lat="50.0428384" lon="10.234812">
                <ele>225.0</ele>
                <time>2020-08-23T07:20:10.000Z</time>
                <name>Trackpoint 122</name>
            </trkpt>
            <trkpt lat="50.042768" lon="10.2347368">
                <ele>225.0</ele>
                <time>2020-08-23T07:20:12.000Z</time>
                <name>Trackpoint 123</name>
            </trkpt>
            <trkpt lat="50.0426976" lon="10.2346752">
                <ele>224.0</ele>
                <time>2020-08-23T07:20:16.000Z</time>
                <name>Trackpoint 124</name>
            </trkpt>
            <trkpt lat="50.0426304" lon="10.2345384">
                <ele>244.0</ele>
                <time>2020-08-23T07:20:45.000Z</time>
                <name>Trackpoint 130</name>
            </trkpt>
            <trkpt lat="50.0425344" lon="10.2344376">
                <ele>234.0</ele>
                <time>2020-08-23T07:20:49.000Z</time>
                <name>Trackpoint 131</name>
            </trkpt>
            <trkpt lat="50.0424576" lon="10.2343304">
                <ele>228.0</ele>
                <time>2020-08-23T07:20:52.000Z</time>
                <name>Trackpoint 132</name>
            </trkpt>
            <trkpt lat="50.0423392" lon="10.2342168">
                <ele>222.0</ele>
                <time>2020-08-23T07:20:54.000Z</time>
                <name>Trackpoint 133</name>
            </trkpt>
            <trkpt lat="50.0422944" lon="10.2341216">
                <ele>221.0</ele>
                <time>2020-08-23T07:20:56.000Z</time>
                <name>Trackpoint 134</name>
            </trkpt>
            <trkpt lat="50.04224" lon="10.2340344">
                <ele>220.0</ele>
                <time>2020-08-23T07:20:58.000Z</time>
                <name>Trackpoint 135</name>
            </trkpt>
            <trkpt lat="50.0421856" lon="10.2339384">
                <ele>220.0</ele>
                <time>2020-08-23T07:21:00.000Z</time>
                <name>Trackpoint 136</name>
            </trkpt>
            <trkpt lat="50.0421344" lon="10.2338464">
                <ele>220.0</ele>
                <time>2020-08-23T07:21:02.000Z</time>
                <name>Trackpoint 137</name>
            </trkpt>
            <trkpt lat="50.0420768" lon="10.23374">
                <ele>220.0</ele>
                <time>2020-08-23T07:21:04.000Z</time>
                <name>Trackpoint 138</name>
            </trkpt>
            <trkpt lat="50.0420224" lon="10.2336368">
                <ele>220.0</ele>
                <time>2020-08-23T07:21:06.000Z</time>
                <name>Trackpoint 139</name>
            </trkpt>
            <trkpt lat="50.041968" lon="10.2335328">
                <ele>219.0</ele>
                <time>2020-08-23T07:21:08.000Z</time>
                <name>Trackpoint 140</name>
            </trkpt>
            <trkpt lat="50.0419168" lon="10.2334272">
                <ele>219.0</ele>
                <time>2020-08-23T07:21:10.000Z</time>
                <name>Trackpoint 141</name>
            </trkpt>
            <trkpt lat="50.041856" lon="10.2333072">
                <ele>217.0</ele>
                <time>2020-08-23T07:21:12.000Z</time>
                <name>Trackpoint 142</name>
            </trkpt>
            <trkpt lat="50.0417856" lon="10.2331848">
                <ele>215.0</ele>
                <time>2020-08-23T07:21:14.000Z</time>
                <name>Trackpoint 143</name>
            </trkpt>
            <trkpt lat="50.0417184" lon="10.2330616">
                <ele>214.0</ele>
                <time>2020-08-23T07:21:16.000Z</time>
                <name>Trackpoint 144</name>
            </trkpt>
            <trkpt lat="50.0416576" lon="10.2329304">
                <ele>214.0</ele>
                <time>2020-08-23T07:21:18.000Z</time>
                <name>Trackpoint 145</name>
            </trkpt>
            <trkpt lat="50.0416" lon="10.2328032">
                <ele>214.0</ele>
                <time>2020-08-23T07:21:20.000Z</time>
                <name>Trackpoint 146</name>
            </trkpt>
            <trkpt lat="50.0415424" lon="10.2326872">
                <ele>214.0</ele>
                <time>2020-08-23T07:21:22.000Z</time>
                <name>Trackpoint 147</name>
            </trkpt>
            <trkpt lat="50.0414912" lon="10.23258">
                <ele>215.0</ele>
                <time>2020-08-23T07:21:24.000Z</time>
                <name>Trackpoint 148</name>
            </trkpt>
            <trkpt lat="50.0414432" lon="10.2324696">
                <ele>214.0</ele>
                <time>2020-08-23T07:21:26.000Z</time>
                <name>Trackpoint 149</name>
            </trkpt>
            <trkpt lat="50.0413984" lon="10.2323576">
                <ele>213.0</ele>
                <time>2020-08-23T07:21:28.000Z</time>
                <name>Trackpoint 150</name>
            </trkpt>
            <trkpt lat="50.04136" lon="10.2322632">
                <ele>214.0</ele>
                <time>2020-08-23T07:21:30.000Z</time>
                <name>Trackpoint 151</name>
            </trkpt>
            <trkpt lat="50.0413184" lon="10.2321616">
                <ele>213.0</ele>
                <time>2020-08-23T07:21:32.000Z</time>
                <name>Trackpoint 152</name>
            </trkpt>
            <trkpt lat="50.0412736" lon="10.2320608">
                <ele>212.0</ele>
                <time>2020-08-23T07:21:34.000Z</time>
                <name>Trackpoint 153</name>
            </trkpt>
            <trkpt lat="50.0412384" lon="10.231968">
                <ele>212.0</ele>
                <time>2020-08-23T07:21:36.000Z</time>
                <name>Trackpoint 154</name>
            </trkpt>
            <trkpt lat="50.0411936" lon="10.2318752">
                <ele>211.0</ele>
                <time>2020-08-23T07:21:38.000Z</time>
                <name>Trackpoint 155</name>
            </trkpt>
            <trkpt lat="50.0411552" lon="10.2317784">
                <ele>211.0</ele>
                <time>2020-08-23T07:21:40.000Z</time>
                <name>Trackpoint 156</name>
            </trkpt>
            <trkpt lat="50.04112" lon="10.2316904">
                <ele>211.0</ele>
                <time>2020-08-23T07:21:42.000Z</time>
                <name>Trackpoint 157</name>
            </trkpt>
            <trkpt lat="50.0410688" lon="10.2315768">
                <ele>211.0</ele>
                <time>2020-08-23T07:21:45.000Z</time>
                <name>Trackpoint 158</name>
            </trkpt>
            <trkpt lat="50.0410112" lon="10.2315056">
                <ele>211.0</ele>
                <time>2020-08-23T07:22:15.000Z</time>
                <name>Trackpoint 159</name>
            </trkpt>
            <trkpt lat="50.0409728" lon="10.2314168">
                <ele>211.0</ele>
                <time>2020-08-23T07:22:20.000Z</time>
                <name>Trackpoint 160</name>
            </trkpt>
            <trkpt lat="50.0409344" lon="10.2313168">
                <ele>211.0</ele>
                <time>2020-08-23T07:22:23.000Z</time>
                <name>Trackpoint 161</name>
            </trkpt>
            <trkpt lat="50.0408928" lon="10.23122">
                <ele>211.0</ele>
                <time>2020-08-23T07:22:25.000Z</time>
                <name>Trackpoint 162</name>
            </trkpt>
            <trkpt lat="50.040848" lon="10.2311264">
                <ele>211.0</ele>
                <time>2020-08-23T07:22:27.000Z</time>
                <name>Trackpoint 163</name>
            </trkpt>
            <trkpt lat="50.0408032" lon="10.2310136">
                <ele>211.0</ele>
                <time>2020-08-23T07:22:29.000Z</time>
                <name>Trackpoint 164</name>
            </trkpt>
            <trkpt lat="50.0407616" lon="10.2308912">
                <ele>211.0</ele>
                <time>2020-08-23T07:22:31.000Z</time>
                <name>Trackpoint 165</name>
            </trkpt>
            <trkpt lat="50.0407104" lon="10.2307656">
                <ele>211.0</ele>
                <time>2020-08-23T07:22:33.000Z</time>
                <name>Trackpoint 166</name>
            </trkpt>
            <trkpt lat="50.040656" lon="10.2306432">
                <ele>211.0</ele>
                <time>2020-08-23T07:22:35.000Z</time>
                <name>Trackpoint 167</name>
            </trkpt>
            <trkpt lat="50.040624" lon="10.2305">
                <ele>211.0</ele>
                <time>2020-08-23T07:22:37.000Z</time>
                <name>Trackpoint 168</name>
            </trkpt>
            <trkpt lat="50.0405888" lon="10.2303616">
                <ele>210.0</ele>
                <time>2020-08-23T07:22:39.000Z</time>
                <name>Trackpoint 169</name>
            </trkpt>
            <trkpt lat="50.0405632" lon="10.2302248">
                <ele>210.0</ele>
                <time>2020-08-23T07:22:41.000Z</time>
                <name>Trackpoint 170</name>
            </trkpt>
            <trkpt lat="50.0405376" lon="10.2301032">
                <ele>210.0</ele>
                <time>2020-08-23T07:22:43.000Z</time>
                <name>Trackpoint 171</name>
            </trkpt>
            <trkpt lat="50.0405152" lon="10.2300056">
                <ele>211.0</ele>
                <time>2020-08-23T07:22:45.000Z</time>
                <name>Trackpoint 172</name>
            </trkpt>
            <trkpt lat="50.0404896" lon="10.229912">
                <ele>212.0</ele>
                <time>2020-08-23T07:22:47.000Z</time>
                <name>Trackpoint 173</name>
            </trkpt>
            <trkpt lat="50.0404576" lon="10.22982">
                <ele>214.0</ele>
                <time>2020-08-23T07:22:49.000Z</time>
                <name>Trackpoint 174</name>
            </trkpt>
            <trkpt lat="50.0404192" lon="10.2297096">
                <ele>214.0</ele>
                <time>2020-08-23T07:22:51.000Z</time>
                <name>Trackpoint 175</name>
            </trkpt>
            <trkpt lat="50.0403808" lon="10.2295952">
                <ele>214.0</ele>
                <time>2020-08-23T07:22:53.000Z</time>
                <name>Trackpoint 176</name>
            </trkpt>
            <trkpt lat="50.0403456" lon="10.229484">
                <ele>214.0</ele>
                <time>2020-08-23T07:22:55.000Z</time>
                <name>Trackpoint 177</name>
            </trkpt>
            <trkpt lat="50.0402912" lon="10.22938">
                <ele>214.0</ele>
                <time>2020-08-23T07:22:57.000Z</time>
                <name>Trackpoint 178</name>
            </trkpt>
            <trkpt lat="50.0402496" lon="10.2292696">
                <ele>214.0</ele>
                <time>2020-08-23T07:22:59.000Z</time>
                <name>Trackpoint 179</name>
            </trkpt>
            <trkpt lat="50.0402016" lon="10.2291544">
                <ele>214.0</ele>
                <time>2020-08-23T07:23:01.000Z</time>
                <name>Trackpoint 180</name>
            </trkpt>
            <trkpt lat="50.0401536" lon="10.2290312">
                <ele>213.0</ele>
                <time>2020-08-23T07:23:03.000Z</time>
                <name>Trackpoint 181</name>
            </trkpt>
            <trkpt lat="50.0401024" lon="10.2289112">
                <ele>213.0</ele>
                <time>2020-08-23T07:23:05.000Z</time>
                <name>Trackpoint 182</name>
            </trkpt>
            <trkpt lat="50.040048" lon="10.2287728">
                <ele>212.0</ele>
                <time>2020-08-23T07:23:07.000Z</time>
                <name>Trackpoint 183</name>
            </trkpt>
            <trkpt lat="50.0399808" lon="10.2286456">
                <ele>213.0</ele>
                <time>2020-08-23T07:23:09.000Z</time>
                <name>Trackpoint 184</name>
            </trkpt>
            <trkpt lat="50.0399104" lon="10.2285048">
                <ele>215.0</ele>
                <time>2020-08-23T07:23:11.000Z</time>
                <name>Trackpoint 185</name>
            </trkpt>
            <trkpt lat="50.0398752" lon="10.2284216">
                <ele>214.0</ele>
                <time>2020-08-23T07:23:12.000Z</time>
                <name>Trackpoint 186</name>
            </trkpt>
            <trkpt lat="50.03984" lon="10.228336">
                <ele>213.0</ele>
                <time>2020-08-23T07:23:13.000Z</time>
                <name>Trackpoint 187</name>
            </trkpt>
            <trkpt lat="50.0398016" lon="10.2282512">
                <ele>212.0</ele>
                <time>2020-08-23T07:23:14.000Z</time>
                <name>Trackpoint 188</name>
            </trkpt>
            <trkpt lat="50.03976" lon="10.2281664">
                <ele>212.0</ele>
                <time>2020-08-23T07:23:15.000Z</time>
                <name>Trackpoint 189</name>
            </trkpt>
            <trkpt lat="50.0397184" lon="10.22808">
                <ele>211.0</ele>
                <time>2020-08-23T07:23:16.000Z</time>
                <name>Trackpoint 190</name>
            </trkpt>
            <trkpt lat="50.03968" lon="10.2279904">
                <ele>211.0</ele>
                <time>2020-08-23T07:23:17.000Z</time>
                <name>Trackpoint 191</name>
            </trkpt>
            <trkpt lat="50.0396416" lon="10.2278968">
                <ele>211.0</ele>
                <time>2020-08-23T07:23:18.000Z</time>
                <name>Trackpoint 192</name>
            </trkpt>
            <trkpt lat="50.0396096" lon="10.2278016">
                <ele>210.0</ele>
                <time>2020-08-23T07:23:19.000Z</time>
                <name>Trackpoint 193</name>
            </trkpt>
            <trkpt lat="50.0395712" lon="10.2277072">
                <ele>210.0</ele>
                <time>2020-08-23T07:23:20.000Z</time>
                <name>Trackpoint 194</name>
            </trkpt>
            <trkpt lat="50.0395328" lon="10.2276184">
                <ele>210.0</ele>
                <time>2020-08-23T07:23:21.000Z</time>
                <name>Trackpoint 195</name>
            </trkpt>
            <trkpt lat="50.0394848" lon="10.2275352">
                <ele>210.0</ele>
                <time>2020-08-23T07:23:22.000Z</time>
                <name>Trackpoint 196</name>
            </trkpt>
            <trkpt lat="50.03944" lon="10.2274552">
                <ele>210.0</ele>
                <time>2020-08-23T07:23:23.000Z</time>
                <name>Trackpoint 197</name>
            </trkpt>
            <trkpt lat="50.0393664" lon="10.2272984">
                <ele>210.0</ele>
                <time>2020-08-23T07:23:25.000Z</time>
                <name>Trackpoint 198</name>
            </trkpt>
            <trkpt lat="50.0392992" lon="10.2271408">
                <ele>209.0</ele>
                <time>2020-08-23T07:23:27.000Z</time>
                <name>Trackpoint 199</name>
            </trkpt>
            <trkpt lat="50.039216" lon="10.2269872">
                <ele>209.0</ele>
                <time>2020-08-23T07:23:29.000Z</time>
                <name>Trackpoint 200</name>
            </trkpt>
            <trkpt lat="50.0391296" lon="10.2268464">
                <ele>209.0</ele>
                <time>2020-08-23T07:23:31.000Z</time>
                <name>Trackpoint 201</name>
            </trkpt>
            <trkpt lat="50.0390432" lon="10.226688">
                <ele>209.0</ele>
                <time>2020-08-23T07:23:33.000Z</time>
                <name>Trackpoint 202</name>
            </trkpt>
            <trkpt lat="50.0389632" lon="10.2265384">
                <ele>209.0</ele>
                <time>2020-08-23T07:23:35.000Z</time>
                <name>Trackpoint 203</name>
            </trkpt>
            <trkpt lat="50.0388864" lon="10.2263984">
                <ele>209.0</ele>
                <time>2020-08-23T07:23:37.000Z</time>
                <name>Trackpoint 204</name>
            </trkpt>
            <trkpt lat="50.0388032" lon="10.22626">
                <ele>209.0</ele>
                <time>2020-08-23T07:23:39.000Z</time>
                <name>Trackpoint 205</name>
            </trkpt>
            <trkpt lat="50.0387264" lon="10.2261168">
                <ele>209.0</ele>
                <time>2020-08-23T07:23:41.000Z</time>
                <name>Trackpoint 206</name>
            </trkpt>
            <trkpt lat="50.0386432" lon="10.2259712">
                <ele>209.0</ele>
                <time>2020-08-23T07:23:43.000Z</time>
                <name>Trackpoint 207</name>
            </trkpt>
            <trkpt lat="50.0385664" lon="10.2258304">
                <ele>210.0</ele>
                <time>2020-08-23T07:23:45.000Z</time>
                <name>Trackpoint 208</name>
            </trkpt>
            <trkpt lat="50.0384928" lon="10.2257184">
                <ele>209.0</ele>
                <time>2020-08-23T07:23:47.000Z</time>
                <name>Trackpoint 209</name>
            </trkpt>
            <trkpt lat="50.0384448" lon="10.2255984">
                <ele>209.0</ele>
                <time>2020-08-23T07:23:49.000Z</time>
                <name>Trackpoint 210</name>
            </trkpt>
            <trkpt lat="50.0383616" lon="10.2254432">
                <ele>210.0</ele>
                <time>2020-08-23T07:23:51.000Z</time>
                <name>Trackpoint 211</name>
            </trkpt>
            <trkpt lat="50.0383136" lon="10.2253448">
                <ele>210.0</ele>
                <time>2020-08-23T07:23:52.000Z</time>
                <name>Trackpoint 212</name>
            </trkpt>
            <trkpt lat="50.0382816" lon="10.2252512">
                <ele>210.0</ele>
                <time>2020-08-23T07:23:53.000Z</time>
                <name>Trackpoint 213</name>
            </trkpt>
            <trkpt lat="50.0382112" lon="10.225092">
                <ele>209.0</ele>
                <time>2020-08-23T07:23:55.000Z</time>
                <name>Trackpoint 214</name>
            </trkpt>
            <trkpt lat="50.03816" lon="10.224932">
                <ele>210.0</ele>
                <time>2020-08-23T07:23:57.000Z</time>
                <name>Trackpoint 215</name>
            </trkpt>
            <trkpt lat="50.0381024" lon="10.2247888">
                <ele>209.0</ele>
                <time>2020-08-23T07:23:59.000Z</time>
                <name>Trackpoint 216</name>
            </trkpt>
            <trkpt lat="50.0380416" lon="10.2246536">
                <ele>210.0</ele>
                <time>2020-08-23T07:24:01.000Z</time>
                <name>Trackpoint 217</name>
            </trkpt>
            <trkpt lat="50.0379328" lon="10.2245632">
                <ele>209.0</ele>
                <time>2020-08-23T07:24:03.000Z</time>
                <name>Trackpoint 218</name>
            </trkpt>
            <trkpt lat="50.0377952" lon="10.22456">
                <ele>209.0</ele>
                <time>2020-08-23T07:24:06.000Z</time>
                <name>Trackpoint 219</name>
            </trkpt>
            <trkpt lat="50.0377056" lon="10.224532">
                <ele>209.0</ele>
                <time>2020-08-23T07:24:08.000Z</time>
                <name>Trackpoint 220</name>
            </trkpt>
            <trkpt lat="50.0376288" lon="10.2244368">
                <ele>209.0</ele>
                <time>2020-08-23T07:24:10.000Z</time>
                <name>Trackpoint 221</name>
            </trkpt>
            <trkpt lat="50.0375584" lon="10.224348">
                <ele>209.0</ele>
                <time>2020-08-23T07:24:12.000Z</time>
                <name>Trackpoint 222</name>
            </trkpt>
            <trkpt lat="50.037488" lon="10.2242616">
                <ele>208.0</ele>
                <time>2020-08-23T07:24:14.000Z</time>
                <name>Trackpoint 223</name>
            </trkpt>
            <trkpt lat="50.0374208" lon="10.2241736">
                <ele>208.0</ele>
                <time>2020-08-23T07:24:16.000Z</time>
                <name>Trackpoint 224</name>
            </trkpt>
            <trkpt lat="50.0373664" lon="10.2240896">
                <ele>208.0</ele>
                <time>2020-08-23T07:24:18.000Z</time>
                <name>Trackpoint 225</name>
            </trkpt>
            <trkpt lat="50.0373024" lon="10.2240016">
                <ele>207.0</ele>
                <time>2020-08-23T07:24:21.000Z</time>
                <name>Trackpoint 226</name>
            </trkpt>
            <trkpt lat="50.0372608" lon="10.2239128">
                <ele>206.0</ele>
                <time>2020-08-23T07:24:26.000Z</time>
                <name>Trackpoint 227</name>
            </trkpt>
            <trkpt lat="50.0371904" lon="10.223832">
                <ele>206.0</ele>
                <time>2020-08-23T07:24:31.000Z</time>
                <name>Trackpoint 228</name>
            </trkpt>
            <trkpt lat="50.0371168" lon="10.2237568">
                <ele>207.0</ele>
                <time>2020-08-23T07:24:34.000Z</time>
                <name>Trackpoint 229</name>
            </trkpt>
            <trkpt lat="50.0370496" lon="10.2236928">
                <ele>206.0</ele>
                <time>2020-08-23T07:24:37.000Z</time>
                <name>Trackpoint 230</name>
            </trkpt>
            <trkpt lat="50.036976" lon="10.2236184">
                <ele>206.0</ele>
                <time>2020-08-23T07:24:40.000Z</time>
                <name>Trackpoint 231</name>
            </trkpt>
            <trkpt lat="50.0369024" lon="10.2235296">
                <ele>206.0</ele>
                <time>2020-08-23T07:24:42.000Z</time>
                <name>Trackpoint 232</name>
            </trkpt>
            <trkpt lat="50.0368" lon="10.2234152">
                <ele>208.0</ele>
                <time>2020-08-23T07:24:45.000Z</time>
                <name>Trackpoint 233</name>
            </trkpt>
            <trkpt lat="50.0367264" lon="10.2233384">
                <ele>208.0</ele>
                <time>2020-08-23T07:24:47.000Z</time>
                <name>Trackpoint 234</name>
            </trkpt>
            <trkpt lat="50.036624" lon="10.2232488">
                <ele>207.0</ele>
                <time>2020-08-23T07:24:50.000Z</time>
                <name>Trackpoint 235</name>
            </trkpt>
            <trkpt lat="50.0365344" lon="10.22316">
                <ele>207.0</ele>
                <time>2020-08-23T07:24:53.000Z</time>
                <name>Trackpoint 236</name>
            </trkpt>
            <trkpt lat="50.0364416" lon="10.2230664">
                <ele>207.0</ele>
                <time>2020-08-23T07:24:56.000Z</time>
                <name>Trackpoint 237</name>
            </trkpt>
            <trkpt lat="50.0363584" lon="10.2229992">
                <ele>207.0</ele>
                <time>2020-08-23T07:24:58.000Z</time>
                <name>Trackpoint 238</name>
            </trkpt>
            <trkpt lat="50.0362688" lon="10.2229272">
                <ele>206.0</ele>
                <time>2020-08-23T07:25:00.000Z</time>
                <name>Trackpoint 239</name>
            </trkpt>
            <trkpt lat="50.0361856" lon="10.2228448">
                <ele>206.0</ele>
                <time>2020-08-23T07:25:02.000Z</time>
                <name>Trackpoint 240</name>
            </trkpt>
            <trkpt lat="50.036096" lon="10.22276">
                <ele>206.0</ele>
                <time>2020-08-23T07:25:04.000Z</time>
                <name>Trackpoint 241</name>
            </trkpt>
            <trkpt lat="50.036016" lon="10.2226864">
                <ele>206.0</ele>
                <time>2020-08-23T07:25:06.000Z</time>
                <name>Trackpoint 242</name>
            </trkpt>
            <trkpt lat="50.0359264" lon="10.2226136">
                <ele>206.0</ele>
                <time>2020-08-23T07:25:08.000Z</time>
                <name>Trackpoint 243</name>
            </trkpt>
            <trkpt lat="50.0358304" lon="10.22254">
                <ele>206.0</ele>
                <time>2020-08-23T07:25:10.000Z</time>
                <name>Trackpoint 244</name>
            </trkpt>
            <trkpt lat="50.0357408" lon="10.2224576">
                <ele>206.0</ele>
                <time>2020-08-23T07:25:12.000Z</time>
                <name>Trackpoint 245</name>
            </trkpt>
            <trkpt lat="50.0356448" lon="10.2223784">
                <ele>205.0</ele>
                <time>2020-08-23T07:25:14.000Z</time>
                <name>Trackpoint 246</name>
            </trkpt>
            <trkpt lat="50.0355488" lon="10.2222984">
                <ele>205.0</ele>
                <time>2020-08-23T07:25:16.000Z</time>
                <name>Trackpoint 247</name>
            </trkpt>
            <trkpt lat="50.0354528" lon="10.2222184">
                <ele>205.0</ele>
                <time>2020-08-23T07:25:18.000Z</time>
                <name>Trackpoint 248</name>
            </trkpt>
            <trkpt lat="50.0353632" lon="10.2221432">
                <ele>205.0</ele>
                <time>2020-08-23T07:25:20.000Z</time>
                <name>Trackpoint 249</name>
            </trkpt>
            <trkpt lat="50.0352768" lon="10.2220648">
                <ele>205.0</ele>
                <time>2020-08-23T07:25:22.000Z</time>
                <name>Trackpoint 250</name>
            </trkpt>
            <trkpt lat="50.0351968" lon="10.2220064">
                <ele>206.0</ele>
                <time>2020-08-23T07:25:24.000Z</time>
                <name>Trackpoint 251</name>
            </trkpt>
            <trkpt lat="50.0351072" lon="10.2219352">
                <ele>206.0</ele>
                <time>2020-08-23T07:25:26.000Z</time>
                <name>Trackpoint 252</name>
            </trkpt>
            <trkpt lat="50.035008" lon="10.2218784">
                <ele>205.0</ele>
                <time>2020-08-23T07:25:28.000Z</time>
                <name>Trackpoint 253</name>
            </trkpt>
            <trkpt lat="50.034896" lon="10.2217928">
                <ele>205.0</ele>
                <time>2020-08-23T07:25:30.000Z</time>
                <name>Trackpoint 254</name>
            </trkpt>
            <trkpt lat="50.0348064" lon="10.2217184">
                <ele>205.0</ele>
                <time>2020-08-23T07:25:32.000Z</time>
                <name>Trackpoint 255</name>
            </trkpt>
            <trkpt lat="50.034752" lon="10.2216368">
                <ele>205.0</ele>
                <time>2020-08-23T07:25:34.000Z</time>
                <name>Trackpoint 256</name>
            </trkpt>
            <trkpt lat="50.0346656" lon="10.2215384">
                <ele>206.0</ele>
                <time>2020-08-23T07:25:36.000Z</time>
                <name>Trackpoint 257</name>
            </trkpt>
            <trkpt lat="50.034576" lon="10.2214544">
                <ele>206.0</ele>
                <time>2020-08-23T07:25:38.000Z</time>
                <name>Trackpoint 258</name>
            </trkpt>
            <trkpt lat="50.0344768" lon="10.2213736">
                <ele>206.0</ele>
                <time>2020-08-23T07:25:40.000Z</time>
                <name>Trackpoint 259</name>
            </trkpt>
            <trkpt lat="50.0343808" lon="10.2212888">
                <ele>206.0</ele>
                <time>2020-08-23T07:25:42.000Z</time>
                <name>Trackpoint 260</name>
            </trkpt>
            <trkpt lat="50.0342784" lon="10.2212064">
                <ele>206.0</ele>
                <time>2020-08-23T07:25:44.000Z</time>
                <name>Trackpoint 261</name>
            </trkpt>
            <trkpt lat="50.0341824" lon="10.2211248">
                <ele>206.0</ele>
                <time>2020-08-23T07:25:46.000Z</time>
                <name>Trackpoint 262</name>
            </trkpt>
            <trkpt lat="50.0340896" lon="10.2210416">
                <ele>206.0</ele>
                <time>2020-08-23T07:25:48.000Z</time>
                <name>Trackpoint 263</name>
            </trkpt>
            <trkpt lat="50.0339968" lon="10.220952">
                <ele>206.0</ele>
                <time>2020-08-23T07:25:50.000Z</time>
                <name>Trackpoint 264</name>
            </trkpt>
            <trkpt lat="50.033904" lon="10.2208592">
                <ele>206.0</ele>
                <time>2020-08-23T07:25:52.000Z</time>
                <name>Trackpoint 265</name>
            </trkpt>
            <trkpt lat="50.0338112" lon="10.2207696">
                <ele>206.0</ele>
                <time>2020-08-23T07:25:54.000Z</time>
                <name>Trackpoint 266</name>
            </trkpt>
            <trkpt lat="50.0337056" lon="10.22068">
                <ele>206.0</ele>
                <time>2020-08-23T07:25:56.000Z</time>
                <name>Trackpoint 267</name>
            </trkpt>
            <trkpt lat="50.0336064" lon="10.2205952">
                <ele>205.0</ele>
                <time>2020-08-23T07:25:58.000Z</time>
                <name>Trackpoint 268</name>
            </trkpt>
            <trkpt lat="50.033504" lon="10.2205152">
                <ele>205.0</ele>
                <time>2020-08-23T07:26:00.000Z</time>
                <name>Trackpoint 269</name>
            </trkpt>
            <trkpt lat="50.0334016" lon="10.2204416">
                <ele>205.0</ele>
                <time>2020-08-23T07:26:02.000Z</time>
                <name>Trackpoint 270</name>
            </trkpt>
            <trkpt lat="50.0332992" lon="10.2203752">
                <ele>205.0</ele>
                <time>2020-08-23T07:26:04.000Z</time>
                <name>Trackpoint 271</name>
            </trkpt>
            <trkpt lat="50.0331904" lon="10.2203128">
                <ele>205.0</ele>
                <time>2020-08-23T07:26:06.000Z</time>
                <name>Trackpoint 272</name>
            </trkpt>
            <trkpt lat="50.0330848" lon="10.22026">
                <ele>205.0</ele>
                <time>2020-08-23T07:26:08.000Z</time>
                <name>Trackpoint 273</name>
            </trkpt>
            <trkpt lat="50.0329792" lon="10.220212">
                <ele>205.0</ele>
                <time>2020-08-23T07:26:10.000Z</time>
                <name>Trackpoint 274</name>
            </trkpt>
            <trkpt lat="50.0328704" lon="10.2201784">
                <ele>205.0</ele>
                <time>2020-08-23T07:26:12.000Z</time>
                <name>Trackpoint 275</name>
            </trkpt>
            <trkpt lat="50.0327616" lon="10.2201472">
                <ele>206.0</ele>
                <time>2020-08-23T07:26:14.000Z</time>
                <name>Trackpoint 276</name>
            </trkpt>
            <trkpt lat="50.0326496" lon="10.2201216">
                <ele>205.0</ele>
                <time>2020-08-23T07:26:16.000Z</time>
                <name>Trackpoint 277</name>
            </trkpt>
            <trkpt lat="50.032544" lon="10.2200896">
                <ele>205.0</ele>
                <time>2020-08-23T07:26:18.000Z</time>
                <name>Trackpoint 278</name>
            </trkpt>
            <trkpt lat="50.0324288" lon="10.2200568">
                <ele>204.0</ele>
                <time>2020-08-23T07:26:20.000Z</time>
                <name>Trackpoint 279</name>
            </trkpt>
            <trkpt lat="50.0323168" lon="10.2200248">
                <ele>204.0</ele>
                <time>2020-08-23T07:26:22.000Z</time>
                <name>Trackpoint 280</name>
            </trkpt>
            <trkpt lat="50.032208" lon="10.219988">
                <ele>203.0</ele>
                <time>2020-08-23T07:26:24.000Z</time>
                <name>Trackpoint 281</name>
            </trkpt>
            <trkpt lat="50.032096" lon="10.2199472">
                <ele>203.0</ele>
                <time>2020-08-23T07:26:26.000Z</time>
                <name>Trackpoint 282</name>
            </trkpt>
            <trkpt lat="50.0319904" lon="10.2199032">
                <ele>204.0</ele>
                <time>2020-08-23T07:26:28.000Z</time>
                <name>Trackpoint 283</name>
            </trkpt>
            <trkpt lat="50.0318944" lon="10.2198688">
                <ele>203.0</ele>
                <time>2020-08-23T07:26:30.000Z</time>
                <name>Trackpoint 284</name>
            </trkpt>
            <trkpt lat="50.0317856" lon="10.219816">
                <ele>203.0</ele>
                <time>2020-08-23T07:26:32.000Z</time>
                <name>Trackpoint 285</name>
            </trkpt>
            <trkpt lat="50.0316864" lon="10.219764">
                <ele>204.0</ele>
                <time>2020-08-23T07:26:34.000Z</time>
                <name>Trackpoint 286</name>
            </trkpt>
            <trkpt lat="50.0315904" lon="10.2197216">
                <ele>205.0</ele>
                <time>2020-08-23T07:26:37.000Z</time>
                <name>Trackpoint 287</name>
            </trkpt>
            <trkpt lat="50.0314976" lon="10.2196704">
                <ele>205.0</ele>
                <time>2020-08-23T07:27:19.000Z</time>
                <name>Trackpoint 288</name>
            </trkpt>
            <trkpt lat="50.0314016" lon="10.2196304">
                <ele>205.0</ele>
                <time>2020-08-23T07:27:22.000Z</time>
                <name>Trackpoint 289</name>
            </trkpt>
            <trkpt lat="50.0312896" lon="10.2195656">
                <ele>205.0</ele>
                <time>2020-08-23T07:27:25.000Z</time>
                <name>Trackpoint 290</name>
            </trkpt>
            <trkpt lat="50.0312032" lon="10.2195232">
                <ele>205.0</ele>
                <time>2020-08-23T07:27:27.000Z</time>
                <name>Trackpoint 291</name>
            </trkpt>
            <trkpt lat="50.0311136" lon="10.2194768">
                <ele>205.0</ele>
                <time>2020-08-23T07:27:29.000Z</time>
                <name>Trackpoint 292</name>
            </trkpt>
            <trkpt lat="50.0310176" lon="10.2194256">
                <ele>205.0</ele>
                <time>2020-08-23T07:27:31.000Z</time>
                <name>Trackpoint 293</name>
            </trkpt>
            <trkpt lat="50.0309216" lon="10.2193736">
                <ele>205.0</ele>
                <time>2020-08-23T07:27:33.000Z</time>
                <name>Trackpoint 294</name>
            </trkpt>
            <trkpt lat="50.0308288" lon="10.2193248">
                <ele>205.0</ele>
                <time>2020-08-23T07:27:35.000Z</time>
                <name>Trackpoint 295</name>
            </trkpt>
            <trkpt lat="50.0307456" lon="10.2192784">
                <ele>205.0</ele>
                <time>2020-08-23T07:27:37.000Z</time>
                <name>Trackpoint 296</name>
            </trkpt>
            <trkpt lat="50.030656" lon="10.2192248">
                <ele>205.0</ele>
                <time>2020-08-23T07:27:39.000Z</time>
                <name>Trackpoint 297</name>
            </trkpt>
            <trkpt lat="50.0305632" lon="10.2191688">
                <ele>205.0</ele>
                <time>2020-08-23T07:27:41.000Z</time>
                <name>Trackpoint 298</name>
            </trkpt>
            <trkpt lat="50.0304672" lon="10.2191112">
                <ele>205.0</ele>
                <time>2020-08-23T07:27:43.000Z</time>
                <name>Trackpoint 299</name>
            </trkpt>
            <trkpt lat="50.0303712" lon="10.2190504">
                <ele>205.0</ele>
                <time>2020-08-23T07:27:45.000Z</time>
                <name>Trackpoint 300</name>
            </trkpt>
            <trkpt lat="50.030272" lon="10.2189928">
                <ele>205.0</ele>
                <time>2020-08-23T07:27:47.000Z</time>
                <name>Trackpoint 301</name>
            </trkpt>
            <trkpt lat="50.0301792" lon="10.2189448">
                <ele>205.0</ele>
                <time>2020-08-23T07:27:49.000Z</time>
                <name>Trackpoint 302</name>
            </trkpt>
            <trkpt lat="50.0300672" lon="10.2188664">
                <ele>204.0</ele>
                <time>2020-08-23T07:27:51.000Z</time>
                <name>Trackpoint 303</name>
            </trkpt>
            <trkpt lat="50.0299584" lon="10.2187904">
                <ele>204.0</ele>
                <time>2020-08-23T07:27:53.000Z</time>
                <name>Trackpoint 304</name>
            </trkpt>
            <trkpt lat="50.0298496" lon="10.2187168">
                <ele>204.0</ele>
                <time>2020-08-23T07:27:55.000Z</time>
                <name>Trackpoint 305</name>
            </trkpt>
            <trkpt lat="50.029744" lon="10.2186416">
                <ele>204.0</ele>
                <time>2020-08-23T07:27:57.000Z</time>
                <name>Trackpoint 306</name>
            </trkpt>
            <trkpt lat="50.029632" lon="10.2185696">
                <ele>204.0</ele>
                <time>2020-08-23T07:27:59.000Z</time>
                <name>Trackpoint 307</name>
            </trkpt>
            <trkpt lat="50.0295264" lon="10.2185032">
                <ele>204.0</ele>
                <time>2020-08-23T07:28:01.000Z</time>
                <name>Trackpoint 308</name>
            </trkpt>
            <trkpt lat="50.0294176" lon="10.2184312">
                <ele>204.0</ele>
                <time>2020-08-23T07:28:03.000Z</time>
                <name>Trackpoint 309</name>
            </trkpt>
            <trkpt lat="50.0293184" lon="10.218364">
                <ele>203.0</ele>
                <time>2020-08-23T07:28:05.000Z</time>
                <name>Trackpoint 310</name>
            </trkpt>
            <trkpt lat="50.0292128" lon="10.218284">
                <ele>203.0</ele>
                <time>2020-08-23T07:28:07.000Z</time>
                <name>Trackpoint 311</name>
            </trkpt>
            <trkpt lat="50.0291072" lon="10.2182">
                <ele>203.0</ele>
                <time>2020-08-23T07:28:09.000Z</time>
                <name>Trackpoint 312</name>
            </trkpt>
            <trkpt lat="50.0290016" lon="10.2181168">
                <ele>203.0</ele>
                <time>2020-08-23T07:28:11.000Z</time>
                <name>Trackpoint 313</name>
            </trkpt>
            <trkpt lat="50.0288992" lon="10.218032">
                <ele>204.0</ele>
                <time>2020-08-23T07:28:13.000Z</time>
                <name>Trackpoint 314</name>
            </trkpt>
            <trkpt lat="50.0288" lon="10.2179416">
                <ele>204.0</ele>
                <time>2020-08-23T07:28:15.000Z</time>
                <name>Trackpoint 315</name>
            </trkpt>
            <trkpt lat="50.0287008" lon="10.217852">
                <ele>204.0</ele>
                <time>2020-08-23T07:28:17.000Z</time>
                <name>Trackpoint 316</name>
            </trkpt>
            <trkpt lat="50.0286016" lon="10.217756">
                <ele>204.0</ele>
                <time>2020-08-23T07:28:19.000Z</time>
                <name>Trackpoint 317</name>
            </trkpt>
            <trkpt lat="50.0285088" lon="10.2176552">
                <ele>204.0</ele>
                <time>2020-08-23T07:28:21.000Z</time>
                <name>Trackpoint 318</name>
            </trkpt>
            <trkpt lat="50.028416" lon="10.217548">
                <ele>204.0</ele>
                <time>2020-08-23T07:28:23.000Z</time>
                <name>Trackpoint 319</name>
            </trkpt>
            <trkpt lat="50.028336" lon="10.21742">
                <ele>204.0</ele>
                <time>2020-08-23T07:28:25.000Z</time>
                <name>Trackpoint 320</name>
            </trkpt>
            <trkpt lat="50.0282784" lon="10.217272">
                <ele>205.0</ele>
                <time>2020-08-23T07:28:27.000Z</time>
                <name>Trackpoint 321</name>
            </trkpt>
            <trkpt lat="50.028224" lon="10.2171184">
                <ele>205.0</ele>
                <time>2020-08-23T07:28:29.000Z</time>
                <name>Trackpoint 322</name>
            </trkpt>
            <trkpt lat="50.0281728" lon="10.2169704">
                <ele>205.0</ele>
                <time>2020-08-23T07:28:31.000Z</time>
                <name>Trackpoint 323</name>
            </trkpt>
            <trkpt lat="50.0280992" lon="10.2168368">
                <ele>205.0</ele>
                <time>2020-08-23T07:28:33.000Z</time>
                <name>Trackpoint 324</name>
            </trkpt>
            <trkpt lat="50.0280064" lon="10.2167328">
                <ele>206.0</ele>
                <time>2020-08-23T07:28:35.000Z</time>
                <name>Trackpoint 325</name>
            </trkpt>
            <trkpt lat="50.0278976" lon="10.2166704">
                <ele>206.0</ele>
                <time>2020-08-23T07:28:37.000Z</time>
                <name>Trackpoint 326</name>
            </trkpt>
            <trkpt lat="50.0277856" lon="10.2166456">
                <ele>206.0</ele>
                <time>2020-08-23T07:28:39.000Z</time>
                <name>Trackpoint 327</name>
            </trkpt>
            <trkpt lat="50.0276608" lon="10.2166144">
                <ele>206.0</ele>
                <time>2020-08-23T07:28:41.000Z</time>
                <name>Trackpoint 328</name>
            </trkpt>
            <trkpt lat="50.0275424" lon="10.2165632">
                <ele>205.0</ele>
                <time>2020-08-23T07:28:43.000Z</time>
                <name>Trackpoint 329</name>
            </trkpt>
            <trkpt lat="50.0274304" lon="10.2164984">
                <ele>205.0</ele>
                <time>2020-08-23T07:28:45.000Z</time>
                <name>Trackpoint 330</name>
            </trkpt>
            <trkpt lat="50.0273216" lon="10.2164152">
                <ele>205.0</ele>
                <time>2020-08-23T07:28:47.000Z</time>
                <name>Trackpoint 331</name>
            </trkpt>
            <trkpt lat="50.0272224" lon="10.2163288">
                <ele>204.0</ele>
                <time>2020-08-23T07:28:49.000Z</time>
                <name>Trackpoint 332</name>
            </trkpt>
            <trkpt lat="50.02712" lon="10.2162448">
                <ele>204.0</ele>
                <time>2020-08-23T07:28:51.000Z</time>
                <name>Trackpoint 333</name>
            </trkpt>
            <trkpt lat="50.027008" lon="10.2161688">
                <ele>205.0</ele>
                <time>2020-08-23T07:28:53.000Z</time>
                <name>Trackpoint 334</name>
            </trkpt>
            <trkpt lat="50.0269024" lon="10.2160904">
                <ele>205.0</ele>
                <time>2020-08-23T07:28:55.000Z</time>
                <name>Trackpoint 335</name>
            </trkpt>
            <trkpt lat="50.0267968" lon="10.2160184">
                <ele>204.0</ele>
                <time>2020-08-23T07:28:57.000Z</time>
                <name>Trackpoint 336</name>
            </trkpt>
            <trkpt lat="50.026688" lon="10.2159568">
                <ele>205.0</ele>
                <time>2020-08-23T07:28:59.000Z</time>
                <name>Trackpoint 337</name>
            </trkpt>
            <trkpt lat="50.026576" lon="10.2159136">
                <ele>205.0</ele>
                <time>2020-08-23T07:29:01.000Z</time>
                <name>Trackpoint 338</name>
            </trkpt>
            <trkpt lat="50.0264704" lon="10.2158872">
                <ele>205.0</ele>
                <time>2020-08-23T07:29:03.000Z</time>
                <name>Trackpoint 339</name>
            </trkpt>
            <trkpt lat="50.0263744" lon="10.2158632">
                <ele>205.0</ele>
                <time>2020-08-23T07:29:05.000Z</time>
                <name>Trackpoint 340</name>
            </trkpt>
            <trkpt lat="50.026272" lon="10.2158296">
                <ele>205.0</ele>
                <time>2020-08-23T07:29:07.000Z</time>
                <name>Trackpoint 341</name>
            </trkpt>
            <trkpt lat="50.0261664" lon="10.2157672">
                <ele>205.0</ele>
                <time>2020-08-23T07:29:09.000Z</time>
                <name>Trackpoint 342</name>
            </trkpt>
            <trkpt lat="50.02608" lon="10.21566">
                <ele>206.0</ele>
                <time>2020-08-23T07:29:11.000Z</time>
                <name>Trackpoint 343</name>
            </trkpt>
            <trkpt lat="50.0260192" lon="10.2155488">
                <ele>206.0</ele>
                <time>2020-08-23T07:29:13.000Z</time>
                <name>Trackpoint 344</name>
            </trkpt>
            <trkpt lat="50.025968" lon="10.2154448">
                <ele>205.0</ele>
                <time>2020-08-23T07:29:15.000Z</time>
                <name>Trackpoint 345</name>
            </trkpt>
            <trkpt lat="50.025888" lon="10.2153904">
                <ele>204.0</ele>
                <time>2020-08-23T07:29:17.000Z</time>
                <name>Trackpoint 346</name>
            </trkpt>
            <trkpt lat="50.0257984" lon="10.215348">
                <ele>204.0</ele>
                <time>2020-08-23T07:29:19.000Z</time>
                <name>Trackpoint 347</name>
            </trkpt>
            <trkpt lat="50.0257088" lon="10.2153032">
                <ele>204.0</ele>
                <time>2020-08-23T07:29:21.000Z</time>
                <name>Trackpoint 348</name>
            </trkpt>
            <trkpt lat="50.0256224" lon="10.2152272">
                <ele>204.0</ele>
                <time>2020-08-23T07:29:23.000Z</time>
                <name>Trackpoint 349</name>
            </trkpt>
            <trkpt lat="50.0255424" lon="10.2151232">
                <ele>204.0</ele>
                <time>2020-08-23T07:29:25.000Z</time>
                <name>Trackpoint 350</name>
            </trkpt>
            <trkpt lat="50.0254752" lon="10.215">
                <ele>205.0</ele>
                <time>2020-08-23T07:29:27.000Z</time>
                <name>Trackpoint 351</name>
            </trkpt>
            <trkpt lat="50.0254048" lon="10.2148784">
                <ele>204.0</ele>
                <time>2020-08-23T07:29:29.000Z</time>
                <name>Trackpoint 352</name>
            </trkpt>
            <trkpt lat="50.0253152" lon="10.2147768">
                <ele>205.0</ele>
                <time>2020-08-23T07:29:31.000Z</time>
                <name>Trackpoint 353</name>
            </trkpt>
            <trkpt lat="50.0252224" lon="10.2146968">
                <ele>204.0</ele>
                <time>2020-08-23T07:29:33.000Z</time>
                <name>Trackpoint 354</name>
            </trkpt>
            <trkpt lat="50.02512" lon="10.214652">
                <ele>204.0</ele>
                <time>2020-08-23T07:29:35.000Z</time>
                <name>Trackpoint 355</name>
            </trkpt>
            <trkpt lat="50.0250272" lon="10.2146328">
                <ele>204.0</ele>
                <time>2020-08-23T07:29:37.000Z</time>
                <name>Trackpoint 356</name>
            </trkpt>
            <trkpt lat="50.0248992" lon="10.2146216">
                <ele>204.0</ele>
                <time>2020-08-23T07:29:40.000Z</time>
                <name>Trackpoint 357</name>
            </trkpt>
            <trkpt lat="50.0247776" lon="10.2145464">
                <ele>205.0</ele>
                <time>2020-08-23T07:29:43.000Z</time>
                <name>Trackpoint 358</name>
            </trkpt>
            <trkpt lat="50.0247008" lon="10.2144616">
                <ele>204.0</ele>
                <time>2020-08-23T07:29:45.000Z</time>
                <name>Trackpoint 359</name>
            </trkpt>
            <trkpt lat="50.0245984" lon="10.2143432">
                <ele>204.0</ele>
                <time>2020-08-23T07:29:47.000Z</time>
                <name>Trackpoint 360</name>
            </trkpt>
            <trkpt lat="50.024512" lon="10.2142264">
                <ele>203.0</ele>
                <time>2020-08-23T07:29:49.000Z</time>
                <name>Trackpoint 361</name>
            </trkpt>
            <trkpt lat="50.024432" lon="10.2141264">
                <ele>203.0</ele>
                <time>2020-08-23T07:29:51.000Z</time>
                <name>Trackpoint 362</name>
            </trkpt>
            <trkpt lat="50.0243424" lon="10.2140616">
                <ele>203.0</ele>
                <time>2020-08-23T07:29:53.000Z</time>
                <name>Trackpoint 363</name>
            </trkpt>
            <trkpt lat="50.0242464" lon="10.2140112">
                <ele>202.0</ele>
                <time>2020-08-23T07:29:55.000Z</time>
                <name>Trackpoint 364</name>
            </trkpt>
            <trkpt lat="50.0241472" lon="10.2139704">
                <ele>202.0</ele>
                <time>2020-08-23T07:29:57.000Z</time>
                <name>Trackpoint 365</name>
            </trkpt>
            <trkpt lat="50.0240512" lon="10.2139128">
                <ele>202.0</ele>
                <time>2020-08-23T07:29:59.000Z</time>
                <name>Trackpoint 366</name>
            </trkpt>
            <trkpt lat="50.0239488" lon="10.2138568">
                <ele>202.0</ele>
                <time>2020-08-23T07:30:01.000Z</time>
                <name>Trackpoint 367</name>
            </trkpt>
            <trkpt lat="50.0238496" lon="10.2137968">
                <ele>202.0</ele>
                <time>2020-08-23T07:30:03.000Z</time>
                <name>Trackpoint 368</name>
            </trkpt>
            <trkpt lat="50.0237504" lon="10.2137272">
                <ele>202.0</ele>
                <time>2020-08-23T07:30:05.000Z</time>
                <name>Trackpoint 369</name>
            </trkpt>
            <trkpt lat="50.0236544" lon="10.2136488">
                <ele>202.0</ele>
                <time>2020-08-23T07:30:07.000Z</time>
                <name>Trackpoint 370</name>
            </trkpt>
            <trkpt lat="50.0235648" lon="10.21356">
                <ele>203.0</ele>
                <time>2020-08-23T07:30:09.000Z</time>
                <name>Trackpoint 371</name>
            </trkpt>
            <trkpt lat="50.0234912" lon="10.213464">
                <ele>203.0</ele>
                <time>2020-08-23T07:30:11.000Z</time>
                <name>Trackpoint 372</name>
            </trkpt>
            <trkpt lat="50.0234176" lon="10.2133576">
                <ele>203.0</ele>
                <time>2020-08-23T07:30:13.000Z</time>
                <name>Trackpoint 373</name>
            </trkpt>
            <trkpt lat="50.0233504" lon="10.21324">
                <ele>203.0</ele>
                <time>2020-08-23T07:30:15.000Z</time>
                <name>Trackpoint 374</name>
            </trkpt>
            <trkpt lat="50.0232896" lon="10.2131096">
                <ele>203.0</ele>
                <time>2020-08-23T07:30:17.000Z</time>
                <name>Trackpoint 375</name>
            </trkpt>
            <trkpt lat="50.0232416" lon="10.212988">
                <ele>203.0</ele>
                <time>2020-08-23T07:30:19.000Z</time>
                <name>Trackpoint 376</name>
            </trkpt>
            <trkpt lat="50.023216" lon="10.2128784">
                <ele>203.0</ele>
                <time>2020-08-23T07:30:21.000Z</time>
                <name>Trackpoint 377</name>
            </trkpt>
            <trkpt lat="50.0230944" lon="10.2128">
                <ele>202.0</ele>
                <time>2020-08-23T07:30:24.000Z</time>
                <name>Trackpoint 378</name>
            </trkpt>
            <trkpt lat="50.022992" lon="10.2126352">
                <ele>202.0</ele>
                <time>2020-08-23T07:30:26.000Z</time>
                <name>Trackpoint 379</name>
            </trkpt>
            <trkpt lat="50.0229152" lon="10.212552">
                <ele>202.0</ele>
                <time>2020-08-23T07:30:27.000Z</time>
                <name>Trackpoint 380</name>
            </trkpt>
            <trkpt lat="50.022832" lon="10.2124208">
                <ele>203.0</ele>
                <time>2020-08-23T07:30:29.000Z</time>
                <name>Trackpoint 381</name>
            </trkpt>
            <trkpt lat="50.0227424" lon="10.2123032">
                <ele>202.0</ele>
                <time>2020-08-23T07:30:31.000Z</time>
                <name>Trackpoint 382</name>
            </trkpt>
            <trkpt lat="50.0226432" lon="10.2122">
                <ele>202.0</ele>
                <time>2020-08-23T07:30:33.000Z</time>
                <name>Trackpoint 383</name>
            </trkpt>
            <trkpt lat="50.0225472" lon="10.2121032">
                <ele>202.0</ele>
                <time>2020-08-23T07:30:35.000Z</time>
                <name>Trackpoint 384</name>
            </trkpt>
            <trkpt lat="50.0224544" lon="10.2119976">
                <ele>203.0</ele>
                <time>2020-08-23T07:30:37.000Z</time>
                <name>Trackpoint 385</name>
            </trkpt>
            <trkpt lat="50.0223616" lon="10.2118864">
                <ele>203.0</ele>
                <time>2020-08-23T07:30:39.000Z</time>
                <name>Trackpoint 386</name>
            </trkpt>
            <trkpt lat="50.0222752" lon="10.211768">
                <ele>203.0</ele>
                <time>2020-08-23T07:30:41.000Z</time>
                <name>Trackpoint 387</name>
            </trkpt>
            <trkpt lat="50.0221984" lon="10.2116432">
                <ele>204.0</ele>
                <time>2020-08-23T07:30:43.000Z</time>
                <name>Trackpoint 388</name>
            </trkpt>
            <trkpt lat="50.0221152" lon="10.2115136">
                <ele>204.0</ele>
                <time>2020-08-23T07:30:45.000Z</time>
                <name>Trackpoint 389</name>
            </trkpt>
            <trkpt lat="50.0220384" lon="10.2113864">
                <ele>204.0</ele>
                <time>2020-08-23T07:30:47.000Z</time>
                <name>Trackpoint 390</name>
            </trkpt>
            <trkpt lat="50.021968" lon="10.2112648">
                <ele>204.0</ele>
                <time>2020-08-23T07:30:49.000Z</time>
                <name>Trackpoint 391</name>
            </trkpt>
            <trkpt lat="50.021904" lon="10.211148">
                <ele>204.0</ele>
                <time>2020-08-23T07:30:51.000Z</time>
                <name>Trackpoint 392</name>
            </trkpt>
            <trkpt lat="50.0218432" lon="10.211028">
                <ele>204.0</ele>
                <time>2020-08-23T07:30:53.000Z</time>
                <name>Trackpoint 393</name>
            </trkpt>
            <trkpt lat="50.0217696" lon="10.210908">
                <ele>205.0</ele>
                <time>2020-08-23T07:30:55.000Z</time>
                <name>Trackpoint 394</name>
            </trkpt>
            <trkpt lat="50.0216992" lon="10.2107872">
                <ele>205.0</ele>
                <time>2020-08-23T07:30:57.000Z</time>
                <name>Trackpoint 395</name>
            </trkpt>
            <trkpt lat="50.0216384" lon="10.2106704">
                <ele>205.0</ele>
                <time>2020-08-23T07:30:59.000Z</time>
                <name>Trackpoint 396</name>
            </trkpt>
            <trkpt lat="50.021584" lon="10.2105512">
                <ele>204.0</ele>
                <time>2020-08-23T07:31:01.000Z</time>
                <name>Trackpoint 397</name>
            </trkpt>
            <trkpt lat="50.02152" lon="10.2104352">
                <ele>204.0</ele>
                <time>2020-08-23T07:31:03.000Z</time>
                <name>Trackpoint 398</name>
            </trkpt>
            <trkpt lat="50.0214624" lon="10.2103184">
                <ele>203.0</ele>
                <time>2020-08-23T07:31:05.000Z</time>
                <name>Trackpoint 399</name>
            </trkpt>
            <trkpt lat="50.0214048" lon="10.2102096">
                <ele>203.0</ele>
                <time>2020-08-23T07:31:07.000Z</time>
                <name>Trackpoint 400</name>
            </trkpt>
            <trkpt lat="50.0213504" lon="10.2100984">
                <ele>203.0</ele>
                <time>2020-08-23T07:31:09.000Z</time>
                <name>Trackpoint 401</name>
            </trkpt>
            <trkpt lat="50.0212896" lon="10.2099752">
                <ele>203.0</ele>
                <time>2020-08-23T07:31:11.000Z</time>
                <name>Trackpoint 402</name>
            </trkpt>
            <trkpt lat="50.0212416" lon="10.209844">
                <ele>202.0</ele>
                <time>2020-08-23T07:31:13.000Z</time>
                <name>Trackpoint 403</name>
            </trkpt>
            <trkpt lat="50.0211936" lon="10.2097168">
                <ele>202.0</ele>
                <time>2020-08-23T07:31:15.000Z</time>
                <name>Trackpoint 404</name>
            </trkpt>
            <trkpt lat="50.021152" lon="10.2096016">
                <ele>201.0</ele>
                <time>2020-08-23T07:31:17.000Z</time>
                <name>Trackpoint 405</name>
            </trkpt>
            <trkpt lat="50.0211168" lon="10.2094816">
                <ele>202.0</ele>
                <time>2020-08-23T07:31:19.000Z</time>
                <name>Trackpoint 406</name>
            </trkpt>
            <trkpt lat="50.021104" lon="10.2093384">
                <ele>202.0</ele>
                <time>2020-08-23T07:31:21.000Z</time>
                <name>Trackpoint 407</name>
            </trkpt>
            <trkpt lat="50.0210816" lon="10.2092016">
                <ele>202.0</ele>
                <time>2020-08-23T07:31:23.000Z</time>
                <name>Trackpoint 408</name>
            </trkpt>
            <trkpt lat="50.0210528" lon="10.20906">
                <ele>202.0</ele>
                <time>2020-08-23T07:31:25.000Z</time>
                <name>Trackpoint 409</name>
            </trkpt>
            <trkpt lat="50.0210112" lon="10.2088984">
                <ele>202.0</ele>
                <time>2020-08-23T07:31:27.000Z</time>
                <name>Trackpoint 410</name>
            </trkpt>
            <trkpt lat="50.0209856" lon="10.2087584">
                <ele>203.0</ele>
                <time>2020-08-23T07:31:29.000Z</time>
                <name>Trackpoint 411</name>
            </trkpt>
            <trkpt lat="50.0209664" lon="10.2086232">
                <ele>203.0</ele>
                <time>2020-08-23T07:31:31.000Z</time>
                <name>Trackpoint 412</name>
            </trkpt>
            <trkpt lat="50.0209632" lon="10.2084864">
                <ele>203.0</ele>
                <time>2020-08-23T07:31:33.000Z</time>
                <name>Trackpoint 413</name>
            </trkpt>
            <trkpt lat="50.0209568" lon="10.208348">
                <ele>203.0</ele>
                <time>2020-08-23T07:31:35.000Z</time>
                <name>Trackpoint 414</name>
            </trkpt>
            <trkpt lat="50.0209568" lon="10.2081968">
                <ele>203.0</ele>
                <time>2020-08-23T07:31:37.000Z</time>
                <name>Trackpoint 415</name>
            </trkpt>
            <trkpt lat="50.0209568" lon="10.2080544">
                <ele>204.0</ele>
                <time>2020-08-23T07:31:39.000Z</time>
                <name>Trackpoint 416</name>
            </trkpt>
            <trkpt lat="50.0209568" lon="10.207916">
                <ele>204.0</ele>
                <time>2020-08-23T07:31:41.000Z</time>
                <name>Trackpoint 417</name>
            </trkpt>
            <trkpt lat="50.0209536" lon="10.2077776">
                <ele>204.0</ele>
                <time>2020-08-23T07:31:43.000Z</time>
                <name>Trackpoint 418</name>
            </trkpt>
            <trkpt lat="50.0209504" lon="10.2076504">
                <ele>205.0</ele>
                <time>2020-08-23T07:31:45.000Z</time>
                <name>Trackpoint 419</name>
            </trkpt>
            <trkpt lat="50.020944" lon="10.2075256">
                <ele>205.0</ele>
                <time>2020-08-23T07:31:47.000Z</time>
                <name>Trackpoint 420</name>
            </trkpt>
            <trkpt lat="50.0209376" lon="10.2074">
                <ele>206.0</ele>
                <time>2020-08-23T07:31:49.000Z</time>
                <name>Trackpoint 421</name>
            </trkpt>
            <trkpt lat="50.020944" lon="10.207296">
                <ele>206.0</ele>
                <time>2020-08-23T07:31:51.000Z</time>
                <name>Trackpoint 422</name>
            </trkpt>
            <trkpt lat="50.0209472" lon="10.2071584">
                <ele>206.0</ele>
                <time>2020-08-23T07:31:54.000Z</time>
                <name>Trackpoint 423</name>
            </trkpt>
            <trkpt lat="50.0209472" lon="10.2070616">
                <ele>207.0</ele>
                <time>2020-08-23T07:31:58.000Z</time>
                <name>Trackpoint 424</name>
            </trkpt>
            <trkpt lat="50.020928" lon="10.2069632">
                <ele>208.0</ele>
                <time>2020-08-23T07:32:42.000Z</time>
                <name>Trackpoint 425</name>
            </trkpt>
            <trkpt lat="50.0209984" lon="10.2068728">
                <ele>208.0</ele>
                <time>2020-08-23T07:32:47.000Z</time>
                <name>Trackpoint 426</name>
            </trkpt>
            <trkpt lat="50.0210944" lon="10.2068168">
                <ele>208.0</ele>
                <time>2020-08-23T07:32:50.000Z</time>
                <name>Trackpoint 427</name>
            </trkpt>
            <trkpt lat="50.0212224" lon="10.2067968">
                <ele>208.0</ele>
                <time>2020-08-23T07:32:53.000Z</time>
                <name>Trackpoint 428</name>
            </trkpt>
            <trkpt lat="50.02136" lon="10.2067936">
                <ele>208.0</ele>
                <time>2020-08-23T07:32:56.000Z</time>
                <name>Trackpoint 429</name>
            </trkpt>
            <trkpt lat="50.0214592" lon="10.2067784">
                <ele>208.0</ele>
                <time>2020-08-23T07:32:58.000Z</time>
                <name>Trackpoint 430</name>
            </trkpt>
            <trkpt lat="50.021568" lon="10.2067568">
                <ele>208.0</ele>
                <time>2020-08-23T07:33:00.000Z</time>
                <name>Trackpoint 431</name>
            </trkpt>
            <trkpt lat="50.0216576" lon="10.2067296">
                <ele>208.0</ele>
                <time>2020-08-23T07:33:02.000Z</time>
                <name>Trackpoint 432</name>
            </trkpt>
            <trkpt lat="50.0217632" lon="10.2067168">
                <ele>208.0</ele>
                <time>2020-08-23T07:33:04.000Z</time>
                <name>Trackpoint 433</name>
            </trkpt>
            <trkpt lat="50.0218688" lon="10.2066984">
                <ele>208.0</ele>
                <time>2020-08-23T07:33:06.000Z</time>
                <name>Trackpoint 434</name>
            </trkpt>
            <trkpt lat="50.0219776" lon="10.2066816">
                <ele>208.0</ele>
                <time>2020-08-23T07:33:08.000Z</time>
                <name>Trackpoint 435</name>
            </trkpt>
            <trkpt lat="50.0220768" lon="10.2066696">
                <ele>208.0</ele>
                <time>2020-08-23T07:33:10.000Z</time>
                <name>Trackpoint 436</name>
            </trkpt>
            <trkpt lat="50.022176" lon="10.2066544">
                <ele>208.0</ele>
                <time>2020-08-23T07:33:12.000Z</time>
                <name>Trackpoint 437</name>
            </trkpt>
            <trkpt lat="50.0222688" lon="10.2066448">
                <ele>208.0</ele>
                <time>2020-08-23T07:33:14.000Z</time>
                <name>Trackpoint 438</name>
            </trkpt>
            <trkpt lat="50.0223744" lon="10.206632">
                <ele>208.0</ele>
                <time>2020-08-23T07:33:16.000Z</time>
                <name>Trackpoint 439</name>
            </trkpt>
            <trkpt lat="50.0224768" lon="10.2066088">
                <ele>208.0</ele>
                <time>2020-08-23T07:33:18.000Z</time>
                <name>Trackpoint 440</name>
            </trkpt>
            <trkpt lat="50.0225376" lon="10.2065336">
                <ele>208.0</ele>
                <time>2020-08-23T07:33:20.000Z</time>
                <name>Trackpoint 441</name>
            </trkpt>
            <trkpt lat="50.0225472" lon="10.2064088">
                <ele>208.0</ele>
                <time>2020-08-23T07:33:22.000Z</time>
                <name>Trackpoint 442</name>
            </trkpt>
            <trkpt lat="50.0225472" lon="10.2062912">
                <ele>208.0</ele>
                <time>2020-08-23T07:33:24.000Z</time>
                <name>Trackpoint 443</name>
            </trkpt>
            <trkpt lat="50.022544" lon="10.2061616">
                <ele>208.0</ele>
                <time>2020-08-23T07:33:26.000Z</time>
                <name>Trackpoint 444</name>
            </trkpt>
            <trkpt lat="50.0225408" lon="10.2060232">
                <ele>208.0</ele>
                <time>2020-08-23T07:33:28.000Z</time>
                <name>Trackpoint 445</name>
            </trkpt>
            <trkpt lat="50.0225152" lon="10.2058624">
                <ele>208.0</ele>
                <time>2020-08-23T07:33:30.000Z</time>
                <name>Trackpoint 446</name>
            </trkpt>
            <trkpt lat="50.022496" lon="10.2056936">
                <ele>208.0</ele>
                <time>2020-08-23T07:33:32.000Z</time>
                <name>Trackpoint 447</name>
            </trkpt>
            <trkpt lat="50.0224768" lon="10.2055256">
                <ele>208.0</ele>
                <time>2020-08-23T07:33:34.000Z</time>
                <name>Trackpoint 448</name>
            </trkpt>
            <trkpt lat="50.0224416" lon="10.2053496">
                <ele>208.0</ele>
                <time>2020-08-23T07:33:36.000Z</time>
                <name>Trackpoint 449</name>
            </trkpt>
            <trkpt lat="50.0224224" lon="10.205176">
                <ele>208.0</ele>
                <time>2020-08-23T07:33:38.000Z</time>
                <name>Trackpoint 450</name>
            </trkpt>
            <trkpt lat="50.0224" lon="10.205004">
                <ele>208.0</ele>
                <time>2020-08-23T07:33:40.000Z</time>
                <name>Trackpoint 451</name>
            </trkpt>
            <trkpt lat="50.0223744" lon="10.2048304">
                <ele>208.0</ele>
                <time>2020-08-23T07:33:42.000Z</time>
                <name>Trackpoint 452</name>
            </trkpt>
            <trkpt lat="50.0223584" lon="10.2047352">
                <ele>208.0</ele>
                <time>2020-08-23T07:33:43.000Z</time>
                <name>Trackpoint 453</name>
            </trkpt>
            <trkpt lat="50.022336" lon="10.2046472">
                <ele>208.0</ele>
                <time>2020-08-23T07:33:44.000Z</time>
                <name>Trackpoint 454</name>
            </trkpt>
            <trkpt lat="50.022304" lon="10.2044736">
                <ele>208.0</ele>
                <time>2020-08-23T07:33:46.000Z</time>
                <name>Trackpoint 455</name>
            </trkpt>
            <trkpt lat="50.0222688" lon="10.2043088">
                <ele>208.0</ele>
                <time>2020-08-23T07:33:48.000Z</time>
                <name>Trackpoint 456</name>
            </trkpt>
            <trkpt lat="50.0222368" lon="10.204148">
                <ele>208.0</ele>
                <time>2020-08-23T07:33:50.000Z</time>
                <name>Trackpoint 457</name>
            </trkpt>
            <trkpt lat="50.0222176" lon="10.20406">
                <ele>208.0</ele>
                <time>2020-08-23T07:33:51.000Z</time>
                <name>Trackpoint 458</name>
            </trkpt>
            <trkpt lat="50.0222016" lon="10.203968">
                <ele>208.0</ele>
                <time>2020-08-23T07:33:52.000Z</time>
                <name>Trackpoint 459</name>
            </trkpt>
            <trkpt lat="50.0221824" lon="10.20388">
                <ele>208.0</ele>
                <time>2020-08-23T07:33:53.000Z</time>
                <name>Trackpoint 460</name>
            </trkpt>
            <trkpt lat="50.0221504" lon="10.2037088">
                <ele>209.0</ele>
                <time>2020-08-23T07:33:55.000Z</time>
                <name>Trackpoint 461</name>
            </trkpt>
            <trkpt lat="50.0221152" lon="10.2035352">
                <ele>209.0</ele>
                <time>2020-08-23T07:33:57.000Z</time>
                <name>Trackpoint 462</name>
            </trkpt>
            <trkpt lat="50.0220992" lon="10.2034464">
                <ele>209.0</ele>
                <time>2020-08-23T07:33:58.000Z</time>
                <name>Trackpoint 463</name>
            </trkpt>
            <trkpt lat="50.0220864" lon="10.2033528">
                <ele>209.0</ele>
                <time>2020-08-23T07:33:59.000Z</time>
                <name>Trackpoint 464</name>
            </trkpt>
            <trkpt lat="50.0220512" lon="10.2031736">
                <ele>209.0</ele>
                <time>2020-08-23T07:34:01.000Z</time>
                <name>Trackpoint 465</name>
            </trkpt>
            <trkpt lat="50.0220384" lon="10.2030784">
                <ele>209.0</ele>
                <time>2020-08-23T07:34:02.000Z</time>
                <name>Trackpoint 466</name>
            </trkpt>
            <trkpt lat="50.022016" lon="10.2029816">
                <ele>209.0</ele>
                <time>2020-08-23T07:34:03.000Z</time>
                <name>Trackpoint 467</name>
            </trkpt>
            <trkpt lat="50.0219968" lon="10.2028904">
                <ele>209.0</ele>
                <time>2020-08-23T07:34:04.000Z</time>
                <name>Trackpoint 468</name>
            </trkpt>
            <trkpt lat="50.0219712" lon="10.2027912">
                <ele>209.0</ele>
                <time>2020-08-23T07:34:05.000Z</time>
                <name>Trackpoint 469</name>
            </trkpt>
            <trkpt lat="50.0219488" lon="10.2026904">
                <ele>209.0</ele>
                <time>2020-08-23T07:34:06.000Z</time>
                <name>Trackpoint 470</name>
            </trkpt>
            <trkpt lat="50.0219232" lon="10.2025784">
                <ele>209.0</ele>
                <time>2020-08-23T07:34:07.000Z</time>
                <name>Trackpoint 471</name>
            </trkpt>
            <trkpt lat="50.0219008" lon="10.2024768">
                <ele>209.0</ele>
                <time>2020-08-23T07:34:08.000Z</time>
                <name>Trackpoint 472</name>
            </trkpt>
            <trkpt lat="50.0218816" lon="10.2023736">
                <ele>209.0</ele>
                <time>2020-08-23T07:34:09.000Z</time>
                <name>Trackpoint 473</name>
            </trkpt>
            <trkpt lat="50.021856" lon="10.2022696">
                <ele>209.0</ele>
                <time>2020-08-23T07:34:10.000Z</time>
                <name>Trackpoint 474</name>
            </trkpt>
            <trkpt lat="50.0218368" lon="10.2021736">
                <ele>209.0</ele>
                <time>2020-08-23T07:34:11.000Z</time>
                <name>Trackpoint 475</name>
            </trkpt>
            <trkpt lat="50.0218176" lon="10.2020712">
                <ele>209.0</ele>
                <time>2020-08-23T07:34:12.000Z</time>
                <name>Trackpoint 476</name>
            </trkpt>
            <trkpt lat="50.0217984" lon="10.2019704">
                <ele>209.0</ele>
                <time>2020-08-23T07:34:13.000Z</time>
                <name>Trackpoint 477</name>
            </trkpt>
            <trkpt lat="50.0217824" lon="10.2018672">
                <ele>209.0</ele>
                <time>2020-08-23T07:34:14.000Z</time>
                <name>Trackpoint 478</name>
            </trkpt>
            <trkpt lat="50.0217664" lon="10.2017648">
                <ele>209.0</ele>
                <time>2020-08-23T07:34:15.000Z</time>
                <name>Trackpoint 479</name>
            </trkpt>
            <trkpt lat="50.0217504" lon="10.2016632">
                <ele>209.0</ele>
                <time>2020-08-23T07:34:16.000Z</time>
                <name>Trackpoint 480</name>
            </trkpt>
            <trkpt lat="50.0217408" lon="10.201556">
                <ele>209.0</ele>
                <time>2020-08-23T07:34:17.000Z</time>
                <name>Trackpoint 481</name>
            </trkpt>
            <trkpt lat="50.0217248" lon="10.2014552">
                <ele>209.0</ele>
                <time>2020-08-23T07:34:18.000Z</time>
                <name>Trackpoint 482</name>
            </trkpt>
            <trkpt lat="50.0217088" lon="10.201348">
                <ele>209.0</ele>
                <time>2020-08-23T07:34:19.000Z</time>
                <name>Trackpoint 483</name>
            </trkpt>
            <trkpt lat="50.0216896" lon="10.2012416">
                <ele>209.0</ele>
                <time>2020-08-23T07:34:20.000Z</time>
                <name>Trackpoint 484</name>
            </trkpt>
            <trkpt lat="50.0216736" lon="10.2011368">
                <ele>209.0</ele>
                <time>2020-08-23T07:34:21.000Z</time>
                <name>Trackpoint 485</name>
            </trkpt>
            <trkpt lat="50.0216608" lon="10.2010296">
                <ele>209.0</ele>
                <time>2020-08-23T07:34:22.000Z</time>
                <name>Trackpoint 486</name>
            </trkpt>
            <trkpt lat="50.0216416" lon="10.2009248">
                <ele>209.0</ele>
                <time>2020-08-23T07:34:23.000Z</time>
                <name>Trackpoint 487</name>
            </trkpt>
            <trkpt lat="50.0216256" lon="10.20082">
                <ele>209.0</ele>
                <time>2020-08-23T07:34:24.000Z</time>
                <name>Trackpoint 488</name>
            </trkpt>
            <trkpt lat="50.0216064" lon="10.200724">
                <ele>209.0</ele>
                <time>2020-08-23T07:34:25.000Z</time>
                <name>Trackpoint 489</name>
            </trkpt>
            <trkpt lat="50.0215936" lon="10.200632">
                <ele>209.0</ele>
                <time>2020-08-23T07:34:26.000Z</time>
                <name>Trackpoint 490</name>
            </trkpt>
            <trkpt lat="50.0215936" lon="10.2005328">
                <ele>209.0</ele>
                <time>2020-08-23T07:34:27.000Z</time>
                <name>Trackpoint 491</name>
            </trkpt>
            <trkpt lat="50.0216224" lon="10.2004248">
                <ele>210.0</ele>
                <time>2020-08-23T07:34:28.000Z</time>
                <name>Trackpoint 492</name>
            </trkpt>
            <trkpt lat="50.0216416" lon="10.2003096">
                <ele>210.0</ele>
                <time>2020-08-23T07:34:29.000Z</time>
                <name>Trackpoint 493</name>
            </trkpt>
            <trkpt lat="50.0216416" lon="10.2001912">
                <ele>210.0</ele>
                <time>2020-08-23T07:34:30.000Z</time>
                <name>Trackpoint 494</name>
            </trkpt>
            <trkpt lat="50.0216224" lon="10.2000784">
                <ele>210.0</ele>
                <time>2020-08-23T07:34:31.000Z</time>
                <name>Trackpoint 495</name>
            </trkpt>
            <trkpt lat="50.0216032" lon="10.1999616">
                <ele>210.0</ele>
                <time>2020-08-23T07:34:32.000Z</time>
                <name>Trackpoint 496</name>
            </trkpt>
            <trkpt lat="50.0215904" lon="10.1998368">
                <ele>210.0</ele>
                <time>2020-08-23T07:34:33.000Z</time>
                <name>Trackpoint 497</name>
            </trkpt>
            <trkpt lat="50.0215712" lon="10.1997216">
                <ele>210.0</ele>
                <time>2020-08-23T07:34:34.000Z</time>
                <name>Trackpoint 498</name>
            </trkpt>
            <trkpt lat="50.0215584" lon="10.1996144">
                <ele>210.0</ele>
                <time>2020-08-23T07:34:35.000Z</time>
                <name>Trackpoint 499</name>
            </trkpt>
            <trkpt lat="50.0215488" lon="10.1995152">
                <ele>210.0</ele>
                <time>2020-08-23T07:34:36.000Z</time>
                <name>Trackpoint 500</name>
            </trkpt>
            <trkpt lat="50.0215424" lon="10.1994048">
                <ele>210.0</ele>
                <time>2020-08-23T07:34:37.000Z</time>
                <name>Trackpoint 501</name>
            </trkpt>
            <trkpt lat="50.0215264" lon="10.1992864">
                <ele>210.0</ele>
                <time>2020-08-23T07:34:38.000Z</time>
                <name>Trackpoint 502</name>
            </trkpt>
            <trkpt lat="50.0215072" lon="10.1991752">
                <ele>210.0</ele>
                <time>2020-08-23T07:34:39.000Z</time>
                <name>Trackpoint 503</name>
            </trkpt>
            <trkpt lat="50.021488" lon="10.199068">
                <ele>210.0</ele>
                <time>2020-08-23T07:34:40.000Z</time>
                <name>Trackpoint 504</name>
            </trkpt>
            <trkpt lat="50.0214688" lon="10.1989616">
                <ele>210.0</ele>
                <time>2020-08-23T07:34:41.000Z</time>
                <name>Trackpoint 505</name>
            </trkpt>
            <trkpt lat="50.0214496" lon="10.1988552">
                <ele>210.0</ele>
                <time>2020-08-23T07:34:42.000Z</time>
                <name>Trackpoint 506</name>
            </trkpt>
            <trkpt lat="50.0214304" lon="10.1987512">
                <ele>210.0</ele>
                <time>2020-08-23T07:34:43.000Z</time>
                <name>Trackpoint 507</name>
            </trkpt>
            <trkpt lat="50.021408" lon="10.1986536">
                <ele>210.0</ele>
                <time>2020-08-23T07:34:44.000Z</time>
                <name>Trackpoint 508</name>
            </trkpt>
            <trkpt lat="50.0213888" lon="10.1985552">
                <ele>210.0</ele>
                <time>2020-08-23T07:34:45.000Z</time>
                <name>Trackpoint 509</name>
            </trkpt>
            <trkpt lat="50.0213728" lon="10.1984568">
                <ele>210.0</ele>
                <time>2020-08-23T07:34:46.000Z</time>
                <name>Trackpoint 510</name>
            </trkpt>
            <trkpt lat="50.02136" lon="10.1983584">
                <ele>210.0</ele>
                <time>2020-08-23T07:34:47.000Z</time>
                <name>Trackpoint 511</name>
            </trkpt>
            <trkpt lat="50.0213408" lon="10.1982632">
                <ele>210.0</ele>
                <time>2020-08-23T07:34:48.000Z</time>
                <name>Trackpoint 512</name>
            </trkpt>
            <trkpt lat="50.0213152" lon="10.1981632">
                <ele>210.0</ele>
                <time>2020-08-23T07:34:49.000Z</time>
                <name>Trackpoint 513</name>
            </trkpt>
            <trkpt lat="50.0212832" lon="10.1980688">
                <ele>210.0</ele>
                <time>2020-08-23T07:34:50.000Z</time>
                <name>Trackpoint 514</name>
            </trkpt>
            <trkpt lat="50.0212512" lon="10.1979712">
                <ele>210.0</ele>
                <time>2020-08-23T07:34:51.000Z</time>
                <name>Trackpoint 515</name>
            </trkpt>
            <trkpt lat="50.0212224" lon="10.1978768">
                <ele>210.0</ele>
                <time>2020-08-23T07:34:52.000Z</time>
                <name>Trackpoint 516</name>
            </trkpt>
            <trkpt lat="50.0211776" lon="10.197788">
                <ele>210.0</ele>
                <time>2020-08-23T07:34:53.000Z</time>
                <name>Trackpoint 517</name>
            </trkpt>
            <trkpt lat="50.0211136" lon="10.197648">
                <ele>210.0</ele>
                <time>2020-08-23T07:34:55.000Z</time>
                <name>Trackpoint 518</name>
            </trkpt>
            <trkpt lat="50.0210368" lon="10.1975344">
                <ele>210.0</ele>
                <time>2020-08-23T07:34:57.000Z</time>
                <name>Trackpoint 519</name>
            </trkpt>
            <trkpt lat="50.0209504" lon="10.1973888">
                <ele>210.0</ele>
                <time>2020-08-23T07:34:59.000Z</time>
                <name>Trackpoint 520</name>
            </trkpt>
            <trkpt lat="50.0208832" lon="10.1972552">
                <ele>210.0</ele>
                <time>2020-08-23T07:35:01.000Z</time>
                <name>Trackpoint 521</name>
            </trkpt>
            <trkpt lat="50.0207968" lon="10.1971368">
                <ele>210.0</ele>
                <time>2020-08-23T07:35:03.000Z</time>
                <name>Trackpoint 522</name>
            </trkpt>
            <trkpt lat="50.0207104" lon="10.1970264">
                <ele>210.0</ele>
                <time>2020-08-23T07:35:05.000Z</time>
                <name>Trackpoint 523</name>
            </trkpt>
            <trkpt lat="50.0206112" lon="10.1969408">
                <ele>210.0</ele>
                <time>2020-08-23T07:35:07.000Z</time>
                <name>Trackpoint 524</name>
            </trkpt>
            <trkpt lat="50.0204992" lon="10.1969536">
                <ele>210.0</ele>
                <time>2020-08-23T07:35:09.000Z</time>
                <name>Trackpoint 525</name>
            </trkpt>
            <trkpt lat="50.020368" lon="10.1969568">
                <ele>210.0</ele>
                <time>2020-08-23T07:35:11.000Z</time>
                <name>Trackpoint 526</name>
            </trkpt>
            <trkpt lat="50.0202752" lon="10.1968296">
                <ele>210.0</ele>
                <time>2020-08-23T07:35:13.000Z</time>
                <name>Trackpoint 527</name>
            </trkpt>
            <trkpt lat="50.0202592" lon="10.19666">
                <ele>210.0</ele>
                <time>2020-08-23T07:35:15.000Z</time>
                <name>Trackpoint 528</name>
            </trkpt>
            <trkpt lat="50.0202784" lon="10.1965048">
                <ele>211.0</ele>
                <time>2020-08-23T07:35:17.000Z</time>
                <name>Trackpoint 529</name>
            </trkpt>
            <trkpt lat="50.0203104" lon="10.196368">
                <ele>211.0</ele>
                <time>2020-08-23T07:35:19.000Z</time>
                <name>Trackpoint 530</name>
            </trkpt>
            <trkpt lat="50.0203712" lon="10.1962768">
                <ele>211.0</ele>
                <time>2020-08-23T07:35:21.000Z</time>
                <name>Trackpoint 531</name>
            </trkpt>
            <trkpt lat="50.0204576" lon="10.1963304">
                <ele>210.0</ele>
                <time>2020-08-23T07:35:23.000Z</time>
                <name>Trackpoint 532</name>
            </trkpt>
            <trkpt lat="50.020528" lon="10.1964128">
                <ele>210.0</ele>
                <time>2020-08-23T07:35:25.000Z</time>
                <name>Trackpoint 533</name>
            </trkpt>
            <trkpt lat="50.020656" lon="10.1963432">
                <ele>210.0</ele>
                <time>2020-08-23T07:35:28.000Z</time>
                <name>Trackpoint 534</name>
            </trkpt>
            <trkpt lat="50.0207168" lon="10.1962384">
                <ele>210.0</ele>
                <time>2020-08-23T07:35:30.000Z</time>
                <name>Trackpoint 535</name>
            </trkpt>
            <trkpt lat="50.0207712" lon="10.1961416">
                <ele>210.0</ele>
                <time>2020-08-23T07:35:32.000Z</time>
                <name>Trackpoint 536</name>
            </trkpt>
            <trkpt lat="50.0208192" lon="10.1960488">
                <ele>211.0</ele>
                <time>2020-08-23T07:35:34.000Z</time>
                <name>Trackpoint 537</name>
            </trkpt>
            <trkpt lat="50.0208672" lon="10.1959352">
                <ele>211.0</ele>
                <time>2020-08-23T07:35:36.000Z</time>
                <name>Trackpoint 538</name>
            </trkpt>
            <trkpt lat="50.0208928" lon="10.1958216">
                <ele>211.0</ele>
                <time>2020-08-23T07:35:38.000Z</time>
                <name>Trackpoint 539</name>
            </trkpt>
            <trkpt lat="50.0208928" lon="10.1956904">
                <ele>211.0</ele>
                <time>2020-08-23T07:35:40.000Z</time>
                <name>Trackpoint 540</name>
            </trkpt>
            <trkpt lat="50.0208832" lon="10.195552">
                <ele>211.0</ele>
                <time>2020-08-23T07:35:42.000Z</time>
                <name>Trackpoint 541</name>
            </trkpt>
            <trkpt lat="50.0208672" lon="10.195408">
                <ele>211.0</ele>
                <time>2020-08-23T07:35:44.000Z</time>
                <name>Trackpoint 542</name>
            </trkpt>
            <trkpt lat="50.0208448" lon="10.1952536">
                <ele>211.0</ele>
                <time>2020-08-23T07:35:46.000Z</time>
                <name>Trackpoint 543</name>
            </trkpt>
            <trkpt lat="50.0208" lon="10.1950928">
                <ele>211.0</ele>
                <time>2020-08-23T07:35:48.000Z</time>
                <name>Trackpoint 544</name>
            </trkpt>
            <trkpt lat="50.020736" lon="10.1949528">
                <ele>211.0</ele>
                <time>2020-08-23T07:35:50.000Z</time>
                <name>Trackpoint 545</name>
            </trkpt>
            <trkpt lat="50.0206496" lon="10.1948568">
                <ele>211.0</ele>
                <time>2020-08-23T07:35:52.000Z</time>
                <name>Trackpoint 546</name>
            </trkpt>
            <trkpt lat="50.0205504" lon="10.194808">
                <ele>211.0</ele>
                <time>2020-08-23T07:35:54.000Z</time>
                <name>Trackpoint 547</name>
            </trkpt>
            <trkpt lat="50.020448" lon="10.194772">
                <ele>211.0</ele>
                <time>2020-08-23T07:35:56.000Z</time>
                <name>Trackpoint 548</name>
            </trkpt>
            <trkpt lat="50.0203488" lon="10.1947336">
                <ele>211.0</ele>
                <time>2020-08-23T07:35:58.000Z</time>
                <name>Trackpoint 549</name>
            </trkpt>
            <trkpt lat="50.02024" lon="10.1946888">
                <ele>211.0</ele>
                <time>2020-08-23T07:36:00.000Z</time>
                <name>Trackpoint 550</name>
            </trkpt>
            <trkpt lat="50.0201408" lon="10.1946288">
                <ele>211.0</ele>
                <time>2020-08-23T07:36:02.000Z</time>
                <name>Trackpoint 551</name>
            </trkpt>
            <trkpt lat="50.0200512" lon="10.1945432">
                <ele>211.0</ele>
                <time>2020-08-23T07:36:04.000Z</time>
                <name>Trackpoint 552</name>
            </trkpt>
            <trkpt lat="50.0199712" lon="10.194424">
                <ele>211.0</ele>
                <time>2020-08-23T07:36:06.000Z</time>
                <name>Trackpoint 553</name>
            </trkpt>
            <trkpt lat="50.019904" lon="10.1942752">
                <ele>211.0</ele>
                <time>2020-08-23T07:36:08.000Z</time>
                <name>Trackpoint 554</name>
            </trkpt>
            <trkpt lat="50.0198624" lon="10.194108">
                <ele>211.0</ele>
                <time>2020-08-23T07:36:10.000Z</time>
                <name>Trackpoint 555</name>
            </trkpt>
            <trkpt lat="50.0198528" lon="10.1939536">
                <ele>211.0</ele>
                <time>2020-08-23T07:36:12.000Z</time>
                <name>Trackpoint 556</name>
            </trkpt>
            <trkpt lat="50.0198528" lon="10.1938064">
                <ele>212.0</ele>
                <time>2020-08-23T07:36:14.000Z</time>
                <name>Trackpoint 557</name>
            </trkpt>
            <trkpt lat="50.0198112" lon="10.1936576">
                <ele>211.0</ele>
                <time>2020-08-23T07:36:16.000Z</time>
                <name>Trackpoint 558</name>
            </trkpt>
            <trkpt lat="50.0197248" lon="10.1935568">
                <ele>211.0</ele>
                <time>2020-08-23T07:36:18.000Z</time>
                <name>Trackpoint 559</name>
            </trkpt>
            <trkpt lat="50.0196256" lon="10.1934672">
                <ele>211.0</ele>
                <time>2020-08-23T07:36:20.000Z</time>
                <name>Trackpoint 560</name>
            </trkpt>
            <trkpt lat="50.01952" lon="10.1933632">
                <ele>211.0</ele>
                <time>2020-08-23T07:36:22.000Z</time>
                <name>Trackpoint 561</name>
            </trkpt>
            <trkpt lat="50.0194208" lon="10.1932536">
                <ele>211.0</ele>
                <time>2020-08-23T07:36:24.000Z</time>
                <name>Trackpoint 562</name>
            </trkpt>
            <trkpt lat="50.0193184" lon="10.1931448">
                <ele>211.0</ele>
                <time>2020-08-23T07:36:26.000Z</time>
                <name>Trackpoint 563</name>
            </trkpt>
            <trkpt lat="50.0192096" lon="10.1930368">
                <ele>211.0</ele>
                <time>2020-08-23T07:36:28.000Z</time>
                <name>Trackpoint 564</name>
            </trkpt>
            <trkpt lat="50.0191072" lon="10.1929392">
                <ele>211.0</ele>
                <time>2020-08-23T07:36:30.000Z</time>
                <name>Trackpoint 565</name>
            </trkpt>
            <trkpt lat="50.0190208" lon="10.192852">
                <ele>211.0</ele>
                <time>2020-08-23T07:36:32.000Z</time>
                <name>Trackpoint 566</name>
            </trkpt>
            <trkpt lat="50.0189408" lon="10.1927704">
                <ele>211.0</ele>
                <time>2020-08-23T07:36:34.000Z</time>
                <name>Trackpoint 567</name>
            </trkpt>
            <trkpt lat="50.0188512" lon="10.1926968">
                <ele>211.0</ele>
                <time>2020-08-23T07:36:36.000Z</time>
                <name>Trackpoint 568</name>
            </trkpt>
            <trkpt lat="50.0187712" lon="10.1926216">
                <ele>211.0</ele>
                <time>2020-08-23T07:36:38.000Z</time>
                <name>Trackpoint 569</name>
            </trkpt>
            <trkpt lat="50.0187008" lon="10.192536">
                <ele>211.0</ele>
                <time>2020-08-23T07:36:40.000Z</time>
                <name>Trackpoint 570</name>
            </trkpt>
            <trkpt lat="50.0186208" lon="10.1924512">
                <ele>211.0</ele>
                <time>2020-08-23T07:36:42.000Z</time>
                <name>Trackpoint 571</name>
            </trkpt>
            <trkpt lat="50.018544" lon="10.1923568">
                <ele>211.0</ele>
                <time>2020-08-23T07:36:44.000Z</time>
                <name>Trackpoint 572</name>
            </trkpt>
            <trkpt lat="50.0184544" lon="10.1922504">
                <ele>211.0</ele>
                <time>2020-08-23T07:36:46.000Z</time>
                <name>Trackpoint 573</name>
            </trkpt>
            <trkpt lat="50.0183744" lon="10.192172">
                <ele>211.0</ele>
                <time>2020-08-23T07:36:48.000Z</time>
                <name>Trackpoint 574</name>
            </trkpt>
            <trkpt lat="50.0182816" lon="10.1920832">
                <ele>211.0</ele>
                <time>2020-08-23T07:36:50.000Z</time>
                <name>Trackpoint 575</name>
            </trkpt>
            <trkpt lat="50.0181952" lon="10.1919936">
                <ele>211.0</ele>
                <time>2020-08-23T07:36:52.000Z</time>
                <name>Trackpoint 576</name>
            </trkpt>
            <trkpt lat="50.0181088" lon="10.1919032">
                <ele>211.0</ele>
                <time>2020-08-23T07:36:54.000Z</time>
                <name>Trackpoint 577</name>
            </trkpt>
            <trkpt lat="50.0180256" lon="10.191816">
                <ele>211.0</ele>
                <time>2020-08-23T07:36:56.000Z</time>
                <name>Trackpoint 578</name>
            </trkpt>
            <trkpt lat="50.0179584" lon="10.1917552">
                <ele>211.0</ele>
                <time>2020-08-23T07:36:57.000Z</time>
                <name>Trackpoint 579</name>
            </trkpt>
            <trkpt lat="50.01784" lon="10.1916504">
                <ele>211.0</ele>
                <time>2020-08-23T07:36:59.000Z</time>
                <name>Trackpoint 580</name>
            </trkpt>
            <trkpt lat="50.0177376" lon="10.1915552">
                <ele>211.0</ele>
                <time>2020-08-23T07:37:01.000Z</time>
                <name>Trackpoint 581</name>
            </trkpt>
            <trkpt lat="50.017632" lon="10.1914464">
                <ele>211.0</ele>
                <time>2020-08-23T07:37:03.000Z</time>
                <name>Trackpoint 582</name>
            </trkpt>
            <trkpt lat="50.0175328" lon="10.191348">
                <ele>211.0</ele>
                <time>2020-08-23T07:37:05.000Z</time>
                <name>Trackpoint 583</name>
            </trkpt>
            <trkpt lat="50.0174368" lon="10.1912568">
                <ele>212.0</ele>
                <time>2020-08-23T07:37:07.000Z</time>
                <name>Trackpoint 584</name>
            </trkpt>
            <trkpt lat="50.017344" lon="10.1911696">
                <ele>212.0</ele>
                <time>2020-08-23T07:37:09.000Z</time>
                <name>Trackpoint 585</name>
            </trkpt>
            <trkpt lat="50.0172416" lon="10.1910824">
                <ele>212.0</ele>
                <time>2020-08-23T07:37:11.000Z</time>
                <name>Trackpoint 586</name>
            </trkpt>
            <trkpt lat="50.0171392" lon="10.1909912">
                <ele>212.0</ele>
                <time>2020-08-23T07:37:13.000Z</time>
                <name>Trackpoint 587</name>
            </trkpt>
            <trkpt lat="50.0170432" lon="10.1908952">
                <ele>212.0</ele>
                <time>2020-08-23T07:37:15.000Z</time>
                <name>Trackpoint 588</name>
            </trkpt>
            <trkpt lat="50.0169728" lon="10.1908032">
                <ele>212.0</ele>
                <time>2020-08-23T07:37:17.000Z</time>
                <name>Trackpoint 589</name>
            </trkpt>
            <trkpt lat="50.0169024" lon="10.1907384">
                <ele>212.0</ele>
                <time>2020-08-23T07:37:19.000Z</time>
                <name>Trackpoint 590</name>
            </trkpt>
            <trkpt lat="50.0168064" lon="10.1906536">
                <ele>212.0</ele>
                <time>2020-08-23T07:37:21.000Z</time>
                <name>Trackpoint 591</name>
            </trkpt>
            <trkpt lat="50.01672" lon="10.1905872">
                <ele>212.0</ele>
                <time>2020-08-23T07:37:23.000Z</time>
                <name>Trackpoint 592</name>
            </trkpt>
            <trkpt lat="50.0166464" lon="10.1904784">
                <ele>212.0</ele>
                <time>2020-08-23T07:37:25.000Z</time>
                <name>Trackpoint 593</name>
            </trkpt>
            <trkpt lat="50.0165344" lon="10.1903664">
                <ele>212.0</ele>
                <time>2020-08-23T07:37:27.000Z</time>
                <name>Trackpoint 594</name>
            </trkpt>
            <trkpt lat="50.0164256" lon="10.19028">
                <ele>212.0</ele>
                <time>2020-08-23T07:37:29.000Z</time>
                <name>Trackpoint 595</name>
            </trkpt>
            <trkpt lat="50.01632" lon="10.1901904">
                <ele>212.0</ele>
                <time>2020-08-23T07:37:31.000Z</time>
                <name>Trackpoint 596</name>
            </trkpt>
            <trkpt lat="50.016208" lon="10.1901016">
                <ele>212.0</ele>
                <time>2020-08-23T07:37:33.000Z</time>
                <name>Trackpoint 597</name>
            </trkpt>
            <trkpt lat="50.01608" lon="10.1899984">
                <ele>212.0</ele>
                <time>2020-08-23T07:37:35.000Z</time>
                <name>Trackpoint 598</name>
            </trkpt>
            <trkpt lat="50.0159808" lon="10.1898936">
                <ele>212.0</ele>
                <time>2020-08-23T07:37:37.000Z</time>
                <name>Trackpoint 599</name>
            </trkpt>
            <trkpt lat="50.0158656" lon="10.1897872">
                <ele>212.0</ele>
                <time>2020-08-23T07:37:39.000Z</time>
                <name>Trackpoint 600</name>
            </trkpt>
            <trkpt lat="50.0157664" lon="10.1896912">
                <ele>212.0</ele>
                <time>2020-08-23T07:37:41.000Z</time>
                <name>Trackpoint 601</name>
            </trkpt>
            <trkpt lat="50.0156704" lon="10.1895968">
                <ele>212.0</ele>
                <time>2020-08-23T07:37:43.000Z</time>
                <name>Trackpoint 602</name>
            </trkpt>
            <trkpt lat="50.015552" lon="10.1895016">
                <ele>212.0</ele>
                <time>2020-08-23T07:37:45.000Z</time>
                <name>Trackpoint 603</name>
            </trkpt>
            <trkpt lat="50.0154304" lon="10.189408">
                <ele>212.0</ele>
                <time>2020-08-23T07:37:47.000Z</time>
                <name>Trackpoint 604</name>
            </trkpt>
            <trkpt lat="50.0153184" lon="10.1893368">
                <ele>212.0</ele>
                <time>2020-08-23T07:37:49.000Z</time>
                <name>Trackpoint 605</name>
            </trkpt>
            <trkpt lat="50.0152" lon="10.1892584">
                <ele>212.0</ele>
                <time>2020-08-23T07:37:51.000Z</time>
                <name>Trackpoint 606</name>
            </trkpt>
            <trkpt lat="50.0151008" lon="10.1891744">
                <ele>212.0</ele>
                <time>2020-08-23T07:37:53.000Z</time>
                <name>Trackpoint 607</name>
            </trkpt>
            <trkpt lat="50.0150144" lon="10.189108">
                <ele>212.0</ele>
                <time>2020-08-23T07:37:55.000Z</time>
                <name>Trackpoint 608</name>
            </trkpt>
            <trkpt lat="50.0149216" lon="10.1890288">
                <ele>212.0</ele>
                <time>2020-08-23T07:37:57.000Z</time>
                <name>Trackpoint 609</name>
            </trkpt>
            <trkpt lat="50.014832" lon="10.1889464">
                <ele>212.0</ele>
                <time>2020-08-23T07:37:59.000Z</time>
                <name>Trackpoint 610</name>
            </trkpt>
            <trkpt lat="50.0147328" lon="10.1888912">
                <ele>212.0</ele>
                <time>2020-08-23T07:38:01.000Z</time>
                <name>Trackpoint 611</name>
            </trkpt>
            <trkpt lat="50.0146336" lon="10.1887888">
                <ele>212.0</ele>
                <time>2020-08-23T07:38:03.000Z</time>
                <name>Trackpoint 612</name>
            </trkpt>
            <trkpt lat="50.014544" lon="10.1887104">
                <ele>212.0</ele>
                <time>2020-08-23T07:38:05.000Z</time>
                <name>Trackpoint 613</name>
            </trkpt>
            <trkpt lat="50.014432" lon="10.188648">
                <ele>212.0</ele>
                <time>2020-08-23T07:38:07.000Z</time>
                <name>Trackpoint 614</name>
            </trkpt>
            <trkpt lat="50.0143392" lon="10.1885768">
                <ele>212.0</ele>
                <time>2020-08-23T07:38:09.000Z</time>
                <name>Trackpoint 615</name>
            </trkpt>
            <trkpt lat="50.0142368" lon="10.1884944">
                <ele>212.0</ele>
                <time>2020-08-23T07:38:11.000Z</time>
                <name>Trackpoint 616</name>
            </trkpt>
            <trkpt lat="50.0141184" lon="10.1884232">
                <ele>212.0</ele>
                <time>2020-08-23T07:38:13.000Z</time>
                <name>Trackpoint 617</name>
            </trkpt>
            <trkpt lat="50.014016" lon="10.1883696">
                <ele>212.0</ele>
                <time>2020-08-23T07:38:15.000Z</time>
                <name>Trackpoint 618</name>
            </trkpt>
            <trkpt lat="50.0138944" lon="10.188316">
                <ele>212.0</ele>
                <time>2020-08-23T07:38:17.000Z</time>
                <name>Trackpoint 619</name>
            </trkpt>
            <trkpt lat="50.0137632" lon="10.1882584">
                <ele>212.0</ele>
                <time>2020-08-23T07:38:19.000Z</time>
                <name>Trackpoint 620</name>
            </trkpt>
            <trkpt lat="50.0136288" lon="10.1881816">
                <ele>212.0</ele>
                <time>2020-08-23T07:38:21.000Z</time>
                <name>Trackpoint 621</name>
            </trkpt>
            <trkpt lat="50.013504" lon="10.1881264">
                <ele>212.0</ele>
                <time>2020-08-23T07:38:23.000Z</time>
                <name>Trackpoint 622</name>
            </trkpt>
            <trkpt lat="50.013392" lon="10.1880904">
                <ele>212.0</ele>
                <time>2020-08-23T07:38:25.000Z</time>
                <name>Trackpoint 623</name>
            </trkpt>
            <trkpt lat="50.0132704" lon="10.1880552">
                <ele>212.0</ele>
                <time>2020-08-23T07:38:27.000Z</time>
                <name>Trackpoint 624</name>
            </trkpt>
            <trkpt lat="50.0131328" lon="10.1880464">
                <ele>212.0</ele>
                <time>2020-08-23T07:38:30.000Z</time>
                <name>Trackpoint 625</name>
            </trkpt>
            <trkpt lat="50.0130432" lon="10.1880264">
                <ele>212.0</ele>
                <time>2020-08-23T07:38:32.000Z</time>
                <name>Trackpoint 626</name>
            </trkpt>
            <trkpt lat="50.0129312" lon="10.18798">
                <ele>212.0</ele>
                <time>2020-08-23T07:38:34.000Z</time>
                <name>Trackpoint 627</name>
            </trkpt>
            <trkpt lat="50.0128128" lon="10.1879368">
                <ele>212.0</ele>
                <time>2020-08-23T07:38:36.000Z</time>
                <name>Trackpoint 628</name>
            </trkpt>
            <trkpt lat="50.0127104" lon="10.1878664">
                <ele>212.0</ele>
                <time>2020-08-23T07:38:38.000Z</time>
                <name>Trackpoint 629</name>
            </trkpt>
            <trkpt lat="50.0126176" lon="10.1877848">
                <ele>212.0</ele>
                <time>2020-08-23T07:38:40.000Z</time>
                <name>Trackpoint 630</name>
            </trkpt>
            <trkpt lat="50.0125504" lon="10.187688">
                <ele>212.0</ele>
                <time>2020-08-23T07:38:42.000Z</time>
                <name>Trackpoint 631</name>
            </trkpt>
            <trkpt lat="50.0124704" lon="10.1875888">
                <ele>212.0</ele>
                <time>2020-08-23T07:38:44.000Z</time>
                <name>Trackpoint 632</name>
            </trkpt>
            <trkpt lat="50.0123936" lon="10.1874912">
                <ele>212.0</ele>
                <time>2020-08-23T07:38:46.000Z</time>
                <name>Trackpoint 633</name>
            </trkpt>
            <trkpt lat="50.0123168" lon="10.1873864">
                <ele>212.0</ele>
                <time>2020-08-23T07:38:48.000Z</time>
                <name>Trackpoint 634</name>
            </trkpt>
            <trkpt lat="50.0122304" lon="10.1872728">
                <ele>212.0</ele>
                <time>2020-08-23T07:38:50.000Z</time>
                <name>Trackpoint 635</name>
            </trkpt>
            <trkpt lat="50.0121504" lon="10.1871584">
                <ele>212.0</ele>
                <time>2020-08-23T07:38:52.000Z</time>
                <name>Trackpoint 636</name>
            </trkpt>
            <trkpt lat="50.0120704" lon="10.1870416">
                <ele>212.0</ele>
                <time>2020-08-23T07:38:54.000Z</time>
                <name>Trackpoint 637</name>
            </trkpt>
            <trkpt lat="50.0119904" lon="10.1869136">
                <ele>213.0</ele>
                <time>2020-08-23T07:38:56.000Z</time>
                <name>Trackpoint 638</name>
            </trkpt>
            <trkpt lat="50.0119104" lon="10.186784">
                <ele>212.0</ele>
                <time>2020-08-23T07:38:58.000Z</time>
                <name>Trackpoint 639</name>
            </trkpt>
            <trkpt lat="50.0118336" lon="10.1866664">
                <ele>212.0</ele>
                <time>2020-08-23T07:39:00.000Z</time>
                <name>Trackpoint 640</name>
            </trkpt>
            <trkpt lat="50.0117408" lon="10.1865168">
                <ele>213.0</ele>
                <time>2020-08-23T07:39:02.000Z</time>
                <name>Trackpoint 641</name>
            </trkpt>
            <trkpt lat="50.0116608" lon="10.1864048">
                <ele>213.0</ele>
                <time>2020-08-23T07:39:04.000Z</time>
                <name>Trackpoint 642</name>
            </trkpt>
            <trkpt lat="50.0115904" lon="10.186308">
                <ele>212.0</ele>
                <time>2020-08-23T07:39:06.000Z</time>
                <name>Trackpoint 643</name>
            </trkpt>
            <trkpt lat="50.011504" lon="10.1862296">
                <ele>212.0</ele>
                <time>2020-08-23T07:39:08.000Z</time>
                <name>Trackpoint 644</name>
            </trkpt>
            <trkpt lat="50.0114144" lon="10.1861712">
                <ele>212.0</ele>
                <time>2020-08-23T07:39:10.000Z</time>
                <name>Trackpoint 645</name>
            </trkpt>
            <trkpt lat="50.0113184" lon="10.1861448">
                <ele>212.0</ele>
                <time>2020-08-23T07:39:12.000Z</time>
                <name>Trackpoint 646</name>
            </trkpt>
            <trkpt lat="50.0112" lon="10.18608">
                <ele>213.0</ele>
                <time>2020-08-23T07:39:14.000Z</time>
                <name>Trackpoint 647</name>
            </trkpt>
            <trkpt lat="50.0111168" lon="10.186024">
                <ele>213.0</ele>
                <time>2020-08-23T07:39:16.000Z</time>
                <name>Trackpoint 648</name>
            </trkpt>
            <trkpt lat="50.0110272" lon="10.185948">
                <ele>213.0</ele>
                <time>2020-08-23T07:39:18.000Z</time>
                <name>Trackpoint 649</name>
            </trkpt>
            <trkpt lat="50.0109472" lon="10.1858984">
                <ele>213.0</ele>
                <time>2020-08-23T07:39:20.000Z</time>
                <name>Trackpoint 650</name>
            </trkpt>
            <trkpt lat="50.010848" lon="10.18584">
                <ele>213.0</ele>
                <time>2020-08-23T07:39:22.000Z</time>
                <name>Trackpoint 651</name>
            </trkpt>
            <trkpt lat="50.0107648" lon="10.1857928">
                <ele>213.0</ele>
                <time>2020-08-23T07:39:24.000Z</time>
                <name>Trackpoint 652</name>
            </trkpt>
            <trkpt lat="50.010672" lon="10.1857184">
                <ele>213.0</ele>
                <time>2020-08-23T07:39:26.000Z</time>
                <name>Trackpoint 653</name>
            </trkpt>
            <trkpt lat="50.0105632" lon="10.1856272">
                <ele>213.0</ele>
                <time>2020-08-23T07:39:28.000Z</time>
                <name>Trackpoint 654</name>
            </trkpt>
            <trkpt lat="50.0104448" lon="10.1855048">
                <ele>213.0</ele>
                <time>2020-08-23T07:39:30.000Z</time>
                <name>Trackpoint 655</name>
            </trkpt>
            <trkpt lat="50.0103136" lon="10.1854464">
                <ele>213.0</ele>
                <time>2020-08-23T07:39:32.000Z</time>
                <name>Trackpoint 656</name>
            </trkpt>
            <trkpt lat="50.0102272" lon="10.1853888">
                <ele>213.0</ele>
                <time>2020-08-23T07:39:34.000Z</time>
                <name>Trackpoint 657</name>
            </trkpt>
            <trkpt lat="50.0101472" lon="10.1853352">
                <ele>213.0</ele>
                <time>2020-08-23T07:39:36.000Z</time>
                <name>Trackpoint 658</name>
            </trkpt>
            <trkpt lat="50.0100512" lon="10.1852664">
                <ele>213.0</ele>
                <time>2020-08-23T07:39:38.000Z</time>
                <name>Trackpoint 659</name>
            </trkpt>
            <trkpt lat="50.0099552" lon="10.1852064">
                <ele>213.0</ele>
                <time>2020-08-23T07:39:40.000Z</time>
                <name>Trackpoint 660</name>
            </trkpt>
            <trkpt lat="50.0098656" lon="10.1851528">
                <ele>213.0</ele>
                <time>2020-08-23T07:39:42.000Z</time>
                <name>Trackpoint 661</name>
            </trkpt>
            <trkpt lat="50.0097536" lon="10.1851064">
                <ele>213.0</ele>
                <time>2020-08-23T07:39:44.000Z</time>
                <name>Trackpoint 662</name>
            </trkpt>
            <trkpt lat="50.0096384" lon="10.1850456">
                <ele>213.0</ele>
                <time>2020-08-23T07:39:46.000Z</time>
                <name>Trackpoint 663</name>
            </trkpt>
            <trkpt lat="50.0095328" lon="10.1849848">
                <ele>213.0</ele>
                <time>2020-08-23T07:39:48.000Z</time>
                <name>Trackpoint 664</name>
            </trkpt>
            <trkpt lat="50.0094272" lon="10.1849296">
                <ele>214.0</ele>
                <time>2020-08-23T07:39:50.000Z</time>
                <name>Trackpoint 665</name>
            </trkpt>
            <trkpt lat="50.009328" lon="10.184868">
                <ele>213.0</ele>
                <time>2020-08-23T07:39:52.000Z</time>
                <name>Trackpoint 666</name>
            </trkpt>
            <trkpt lat="50.0092288" lon="10.1848112">
                <ele>214.0</ele>
                <time>2020-08-23T07:39:54.000Z</time>
                <name>Trackpoint 667</name>
            </trkpt>
            <trkpt lat="50.0091392" lon="10.1847648">
                <ele>214.0</ele>
                <time>2020-08-23T07:39:56.000Z</time>
                <name>Trackpoint 668</name>
            </trkpt>
            <trkpt lat="50.009024" lon="10.1847">
                <ele>214.0</ele>
                <time>2020-08-23T07:39:58.000Z</time>
                <name>Trackpoint 669</name>
            </trkpt>
            <trkpt lat="50.0089152" lon="10.1846304">
                <ele>214.0</ele>
                <time>2020-08-23T07:40:00.000Z</time>
                <name>Trackpoint 670</name>
            </trkpt>
            <trkpt lat="50.0088224" lon="10.1845776">
                <ele>214.0</ele>
                <time>2020-08-23T07:40:02.000Z</time>
                <name>Trackpoint 671</name>
            </trkpt>
            <trkpt lat="50.0087328" lon="10.1845248">
                <ele>214.0</ele>
                <time>2020-08-23T07:40:04.000Z</time>
                <name>Trackpoint 672</name>
            </trkpt>
            <trkpt lat="50.0086528" lon="10.1844656">
                <ele>214.0</ele>
                <time>2020-08-23T07:40:06.000Z</time>
                <name>Trackpoint 673</name>
            </trkpt>
            <trkpt lat="50.008576" lon="10.184412">
                <ele>214.0</ele>
                <time>2020-08-23T07:40:08.000Z</time>
                <name>Trackpoint 674</name>
            </trkpt>
            <trkpt lat="50.0084864" lon="10.1843464">
                <ele>214.0</ele>
                <time>2020-08-23T07:40:11.000Z</time>
                <name>Trackpoint 675</name>
            </trkpt>
            <trkpt lat="50.0084192" lon="10.1842296">
                <ele>214.0</ele>
                <time>2020-08-23T07:40:14.000Z</time>
                <name>Trackpoint 676</name>
            </trkpt>
            <trkpt lat="50.0083584" lon="10.1841424">
                <ele>213.0</ele>
                <time>2020-08-23T07:40:16.000Z</time>
                <name>Trackpoint 677</name>
            </trkpt>
            <trkpt lat="50.0082816" lon="10.1840496">
                <ele>213.0</ele>
                <time>2020-08-23T07:40:18.000Z</time>
                <name>Trackpoint 678</name>
            </trkpt>
            <trkpt lat="50.0082016" lon="10.183964">
                <ele>213.0</ele>
                <time>2020-08-23T07:40:20.000Z</time>
                <name>Trackpoint 679</name>
            </trkpt>
            <trkpt lat="50.0080896" lon="10.1838728">
                <ele>212.0</ele>
                <time>2020-08-23T07:40:22.000Z</time>
                <name>Trackpoint 680</name>
            </trkpt>
            <trkpt lat="50.0079872" lon="10.1838216">
                <ele>211.0</ele>
                <time>2020-08-23T07:40:24.000Z</time>
                <name>Trackpoint 681</name>
            </trkpt>
            <trkpt lat="50.0078848" lon="10.1837816">
                <ele>211.0</ele>
                <time>2020-08-23T07:40:26.000Z</time>
                <name>Trackpoint 682</name>
            </trkpt>
            <trkpt lat="50.007792" lon="10.1837464">
                <ele>211.0</ele>
                <time>2020-08-23T07:40:28.000Z</time>
                <name>Trackpoint 683</name>
            </trkpt>
            <trkpt lat="50.0077088" lon="10.1837016">
                <ele>211.0</ele>
                <time>2020-08-23T07:40:46.000Z</time>
                <name>Trackpoint 684</name>
            </trkpt>
            <trkpt lat="50.0076096" lon="10.1836928">
                <ele>211.0</ele>
                <time>2020-08-23T07:40:51.000Z</time>
                <name>Trackpoint 685</name>
            </trkpt>
            <trkpt lat="50.0074912" lon="10.1836592">
                <ele>211.0</ele>
                <time>2020-08-23T07:40:54.000Z</time>
                <name>Trackpoint 686</name>
            </trkpt>
            <trkpt lat="50.0073952" lon="10.1835984">
                <ele>211.0</ele>
                <time>2020-08-23T07:40:56.000Z</time>
                <name>Trackpoint 687</name>
            </trkpt>
            <trkpt lat="50.007296" lon="10.1835016">
                <ele>211.0</ele>
                <time>2020-08-23T07:40:58.000Z</time>
                <name>Trackpoint 688</name>
            </trkpt>
            <trkpt lat="50.007216" lon="10.1833936">
                <ele>211.0</ele>
                <time>2020-08-23T07:41:00.000Z</time>
                <name>Trackpoint 689</name>
            </trkpt>
            <trkpt lat="50.007136" lon="10.1832952">
                <ele>211.0</ele>
                <time>2020-08-23T07:41:02.000Z</time>
                <name>Trackpoint 690</name>
            </trkpt>
            <trkpt lat="50.0070528" lon="10.1831904">
                <ele>211.0</ele>
                <time>2020-08-23T07:41:04.000Z</time>
                <name>Trackpoint 691</name>
            </trkpt>
            <trkpt lat="50.006976" lon="10.1830864">
                <ele>211.0</ele>
                <time>2020-08-23T07:41:06.000Z</time>
                <name>Trackpoint 692</name>
            </trkpt>
            <trkpt lat="50.0069056" lon="10.1829904">
                <ele>211.0</ele>
                <time>2020-08-23T07:41:08.000Z</time>
                <name>Trackpoint 693</name>
            </trkpt>
            <trkpt lat="50.0068288" lon="10.1828984">
                <ele>211.0</ele>
                <time>2020-08-23T07:41:10.000Z</time>
                <name>Trackpoint 694</name>
            </trkpt>
            <trkpt lat="50.0067456" lon="10.1828048">
                <ele>211.0</ele>
                <time>2020-08-23T07:41:12.000Z</time>
                <name>Trackpoint 695</name>
            </trkpt>
            <trkpt lat="50.006656" lon="10.1827248">
                <ele>211.0</ele>
                <time>2020-08-23T07:41:14.000Z</time>
                <name>Trackpoint 696</name>
            </trkpt>
            <trkpt lat="50.0065568" lon="10.1826088">
                <ele>211.0</ele>
                <time>2020-08-23T07:41:16.000Z</time>
                <name>Trackpoint 697</name>
            </trkpt>
            <trkpt lat="50.0064576" lon="10.1825088">
                <ele>211.0</ele>
                <time>2020-08-23T07:41:18.000Z</time>
                <name>Trackpoint 698</name>
            </trkpt>
            <trkpt lat="50.0063616" lon="10.1824064">
                <ele>211.0</ele>
                <time>2020-08-23T07:41:20.000Z</time>
                <name>Trackpoint 699</name>
            </trkpt>
            <trkpt lat="50.0062752" lon="10.1823264">
                <ele>211.0</ele>
                <time>2020-08-23T07:41:22.000Z</time>
                <name>Trackpoint 700</name>
            </trkpt>
            <trkpt lat="50.0061632" lon="10.1822272">
                <ele>211.0</ele>
                <time>2020-08-23T07:41:24.000Z</time>
                <name>Trackpoint 701</name>
            </trkpt>
            <trkpt lat="50.0060704" lon="10.1821336">
                <ele>211.0</ele>
                <time>2020-08-23T07:41:26.000Z</time>
                <name>Trackpoint 702</name>
            </trkpt>
            <trkpt lat="50.0060032" lon="10.1820568">
                <ele>211.0</ele>
                <time>2020-08-23T07:41:28.000Z</time>
                <name>Trackpoint 703</name>
            </trkpt>
            <trkpt lat="50.0059392" lon="10.1819712">
                <ele>211.0</ele>
                <time>2020-08-23T07:41:31.000Z</time>
                <name>Trackpoint 704</name>
            </trkpt>
            <trkpt lat="50.0059136" lon="10.1818816">
                <ele>210.0</ele>
                <time>2020-08-23T07:42:29.000Z</time>
                <name>Trackpoint 705</name>
            </trkpt>
            <trkpt lat="50.005856" lon="10.1818064">
                <ele>210.0</ele>
                <time>2020-08-23T07:42:49.000Z</time>
                <name>Trackpoint 706</name>
            </trkpt>
            <trkpt lat="50.0057984" lon="10.1817312">
                <ele>210.0</ele>
                <time>2020-08-23T07:42:52.000Z</time>
                <name>Trackpoint 707</name>
            </trkpt>
            <trkpt lat="50.00576" lon="10.1816352">
                <ele>210.0</ele>
                <time>2020-08-23T07:42:55.000Z</time>
                <name>Trackpoint 708</name>
            </trkpt>
            <trkpt lat="50.0057248" lon="10.1815208">
                <ele>210.0</ele>
                <time>2020-08-23T07:42:58.000Z</time>
                <name>Trackpoint 709</name>
            </trkpt>
            <trkpt lat="50.0056832" lon="10.1814184">
                <ele>210.0</ele>
                <time>2020-08-23T07:43:00.000Z</time>
                <name>Trackpoint 710</name>
            </trkpt>
            <trkpt lat="50.0056256" lon="10.1812984">
                <ele>210.0</ele>
                <time>2020-08-23T07:43:02.000Z</time>
                <name>Trackpoint 711</name>
            </trkpt>
            <trkpt lat="50.0055648" lon="10.18116">
                <ele>210.0</ele>
                <time>2020-08-23T07:43:04.000Z</time>
                <name>Trackpoint 712</name>
            </trkpt>
            <trkpt lat="50.0055072" lon="10.1810216">
                <ele>210.0</ele>
                <time>2020-08-23T07:43:06.000Z</time>
                <name>Trackpoint 713</name>
            </trkpt>
            <trkpt lat="50.0054624" lon="10.1808584">
                <ele>210.0</ele>
                <time>2020-08-23T07:43:08.000Z</time>
                <name>Trackpoint 714</name>
            </trkpt>
            <trkpt lat="50.005424" lon="10.1807696">
                <ele>210.0</ele>
                <time>2020-08-23T07:43:09.000Z</time>
                <name>Trackpoint 715</name>
            </trkpt>
            <trkpt lat="50.0053664" lon="10.1806384">
                <ele>210.0</ele>
                <time>2020-08-23T07:43:11.000Z</time>
                <name>Trackpoint 716</name>
            </trkpt>
            <trkpt lat="50.005296" lon="10.18052">
                <ele>210.0</ele>
                <time>2020-08-23T07:43:13.000Z</time>
                <name>Trackpoint 717</name>
            </trkpt>
            <trkpt lat="50.0052096" lon="10.1804088">
                <ele>210.0</ele>
                <time>2020-08-23T07:43:15.000Z</time>
                <name>Trackpoint 718</name>
            </trkpt>
            <trkpt lat="50.0051264" lon="10.1803">
                <ele>210.0</ele>
                <time>2020-08-23T07:43:17.000Z</time>
                <name>Trackpoint 719</name>
            </trkpt>
            <trkpt lat="50.0050464" lon="10.1801904">
                <ele>210.0</ele>
                <time>2020-08-23T07:43:19.000Z</time>
                <name>Trackpoint 720</name>
            </trkpt>
            <trkpt lat="50.0049632" lon="10.1800848">
                <ele>210.0</ele>
                <time>2020-08-23T07:43:21.000Z</time>
                <name>Trackpoint 721</name>
            </trkpt>
            <trkpt lat="50.0048672" lon="10.17998">
                <ele>210.0</ele>
                <time>2020-08-23T07:43:23.000Z</time>
                <name>Trackpoint 722</name>
            </trkpt>
            <trkpt lat="50.0047808" lon="10.1798712">
                <ele>210.0</ele>
                <time>2020-08-23T07:43:25.000Z</time>
                <name>Trackpoint 723</name>
            </trkpt>
            <trkpt lat="50.0046944" lon="10.1797736">
                <ele>210.0</ele>
                <time>2020-08-23T07:43:27.000Z</time>
                <name>Trackpoint 724</name>
            </trkpt>
            <trkpt lat="50.004624" lon="10.1796712">
                <ele>210.0</ele>
                <time>2020-08-23T07:43:29.000Z</time>
                <name>Trackpoint 725</name>
            </trkpt>
            <trkpt lat="50.004528" lon="10.1795504">
                <ele>210.0</ele>
                <time>2020-08-23T07:43:31.000Z</time>
                <name>Trackpoint 726</name>
            </trkpt>
            <trkpt lat="50.0044352" lon="10.1794344">
                <ele>210.0</ele>
                <time>2020-08-23T07:43:33.000Z</time>
                <name>Trackpoint 727</name>
            </trkpt>
            <trkpt lat="50.004336" lon="10.1793232">
                <ele>210.0</ele>
                <time>2020-08-23T07:43:35.000Z</time>
                <name>Trackpoint 728</name>
            </trkpt>
            <trkpt lat="50.0042464" lon="10.1792136">
                <ele>210.0</ele>
                <time>2020-08-23T07:43:37.000Z</time>
                <name>Trackpoint 729</name>
            </trkpt>
            <trkpt lat="50.0041536" lon="10.1791136">
                <ele>210.0</ele>
                <time>2020-08-23T07:43:39.000Z</time>
                <name>Trackpoint 730</name>
            </trkpt>
            <trkpt lat="50.0040544" lon="10.1790336">
                <ele>210.0</ele>
                <time>2020-08-23T07:43:41.000Z</time>
                <name>Trackpoint 731</name>
            </trkpt>
            <trkpt lat="50.0039488" lon="10.1789776">
                <ele>210.0</ele>
                <time>2020-08-23T07:43:43.000Z</time>
                <name>Trackpoint 732</name>
            </trkpt>
            <trkpt lat="50.0038336" lon="10.178944">
                <ele>210.0</ele>
                <time>2020-08-23T07:43:45.000Z</time>
                <name>Trackpoint 733</name>
            </trkpt>
            <trkpt lat="50.0037152" lon="10.1789064">
                <ele>210.0</ele>
                <time>2020-08-23T07:43:47.000Z</time>
                <name>Trackpoint 734</name>
            </trkpt>
            <trkpt lat="50.0035904" lon="10.1788784">
                <ele>210.0</ele>
                <time>2020-08-23T07:43:49.000Z</time>
                <name>Trackpoint 735</name>
            </trkpt>
            <trkpt lat="50.003472" lon="10.1788352">
                <ele>210.0</ele>
                <time>2020-08-23T07:43:51.000Z</time>
                <name>Trackpoint 736</name>
            </trkpt>
            <trkpt lat="50.0033568" lon="10.1788016">
                <ele>210.0</ele>
                <time>2020-08-23T07:43:53.000Z</time>
                <name>Trackpoint 737</name>
            </trkpt>
            <trkpt lat="50.0032448" lon="10.1787432">
                <ele>211.0</ele>
                <time>2020-08-23T07:43:55.000Z</time>
                <name>Trackpoint 738</name>
            </trkpt>
            <trkpt lat="50.0031424" lon="10.1786848">
                <ele>211.0</ele>
                <time>2020-08-23T07:43:57.000Z</time>
                <name>Trackpoint 739</name>
            </trkpt>
            <trkpt lat="50.0030368" lon="10.1786384">
                <ele>211.0</ele>
                <time>2020-08-23T07:43:59.000Z</time>
                <name>Trackpoint 740</name>
            </trkpt>
            <trkpt lat="50.0029248" lon="10.1786032">
                <ele>211.0</ele>
                <time>2020-08-23T07:44:01.000Z</time>
                <name>Trackpoint 741</name>
            </trkpt>
            <trkpt lat="50.0028256" lon="10.178548">
                <ele>211.0</ele>
                <time>2020-08-23T07:44:03.000Z</time>
                <name>Trackpoint 742</name>
            </trkpt>
            <trkpt lat="50.0027264" lon="10.1785032">
                <ele>211.0</ele>
                <time>2020-08-23T07:44:05.000Z</time>
                <name>Trackpoint 743</name>
            </trkpt>
            <trkpt lat="50.00264" lon="10.1784632">
                <ele>211.0</ele>
                <time>2020-08-23T07:44:07.000Z</time>
                <name>Trackpoint 744</name>
            </trkpt>
            <trkpt lat="50.0025536" lon="10.1784216">
                <ele>211.0</ele>
                <time>2020-08-23T07:44:09.000Z</time>
                <name>Trackpoint 745</name>
            </trkpt>
            <trkpt lat="50.002464" lon="10.1783784">
                <ele>211.0</ele>
                <time>2020-08-23T07:44:11.000Z</time>
                <name>Trackpoint 746</name>
            </trkpt>
            <trkpt lat="50.0023552" lon="10.1783">
                <ele>211.0</ele>
                <time>2020-08-23T07:44:13.000Z</time>
                <name>Trackpoint 747</name>
            </trkpt>
            <trkpt lat="50.0022432" lon="10.1782328">
                <ele>211.0</ele>
                <time>2020-08-23T07:44:15.000Z</time>
                <name>Trackpoint 748</name>
            </trkpt>
            <trkpt lat="50.0021248" lon="10.1781704">
                <ele>211.0</ele>
                <time>2020-08-23T07:44:17.000Z</time>
                <name>Trackpoint 749</name>
            </trkpt>
            <trkpt lat="50.0020128" lon="10.1781104">
                <ele>211.0</ele>
                <time>2020-08-23T07:44:19.000Z</time>
                <name>Trackpoint 750</name>
            </trkpt>
            <trkpt lat="50.0019104" lon="10.1780584">
                <ele>211.0</ele>
                <time>2020-08-23T07:44:21.000Z</time>
                <name>Trackpoint 751</name>
            </trkpt>
            <trkpt lat="50.0017952" lon="10.1779944">
                <ele>211.0</ele>
                <time>2020-08-23T07:44:23.000Z</time>
                <name>Trackpoint 752</name>
            </trkpt>
            <trkpt lat="50.0016896" lon="10.177932">
                <ele>211.0</ele>
                <time>2020-08-23T07:44:25.000Z</time>
                <name>Trackpoint 753</name>
            </trkpt>
            <trkpt lat="50.001584" lon="10.177868">
                <ele>211.0</ele>
                <time>2020-08-23T07:44:27.000Z</time>
                <name>Trackpoint 754</name>
            </trkpt>
            <trkpt lat="50.0014752" lon="10.177812">
                <ele>211.0</ele>
                <time>2020-08-23T07:44:29.000Z</time>
                <name>Trackpoint 755</name>
            </trkpt>
            <trkpt lat="50.0013632" lon="10.17776">
                <ele>211.0</ele>
                <time>2020-08-23T07:44:31.000Z</time>
                <name>Trackpoint 756</name>
            </trkpt>
            <trkpt lat="50.0012448" lon="10.1776984">
                <ele>211.0</ele>
                <time>2020-08-23T07:44:33.000Z</time>
                <name>Trackpoint 757</name>
            </trkpt>
            <trkpt lat="50.0011296" lon="10.1776312">
                <ele>211.0</ele>
                <time>2020-08-23T07:44:35.000Z</time>
                <name>Trackpoint 758</name>
            </trkpt>
            <trkpt lat="50.0010304" lon="10.1775648">
                <ele>211.0</ele>
                <time>2020-08-23T07:44:37.000Z</time>
                <name>Trackpoint 759</name>
            </trkpt>
            <trkpt lat="50.000928" lon="10.1775048">
                <ele>211.0</ele>
                <time>2020-08-23T07:44:39.000Z</time>
                <name>Trackpoint 760</name>
            </trkpt>
            <trkpt lat="50.0008384" lon="10.1774704">
                <ele>211.0</ele>
                <time>2020-08-23T07:44:41.000Z</time>
                <name>Trackpoint 761</name>
            </trkpt>
            <trkpt lat="50.0007712" lon="10.1773984">
                <ele>211.0</ele>
                <time>2020-08-23T07:44:44.000Z</time>
                <name>Trackpoint 762</name>
            </trkpt>
            <trkpt lat="50.0007872" lon="10.1772968">
                <ele>211.0</ele>
                <time>2020-08-23T07:46:28.000Z</time>
                <name>Trackpoint 763</name>
            </trkpt>
            <trkpt lat="50.0007904" lon="10.1771936">
                <ele>211.0</ele>
                <time>2020-08-23T07:46:31.000Z</time>
                <name>Trackpoint 764</name>
            </trkpt>
            <trkpt lat="50.0008128" lon="10.1770848">
                <ele>211.0</ele>
                <time>2020-08-23T07:46:33.000Z</time>
                <name>Trackpoint 765</name>
            </trkpt>
            <trkpt lat="50.0008512" lon="10.1769784">
                <ele>211.0</ele>
                <time>2020-08-23T07:46:35.000Z</time>
                <name>Trackpoint 766</name>
            </trkpt>
            <trkpt lat="50.0008864" lon="10.1768576">
                <ele>211.0</ele>
                <time>2020-08-23T07:46:37.000Z</time>
                <name>Trackpoint 767</name>
            </trkpt>
            <trkpt lat="50.000928" lon="10.1767232">
                <ele>211.0</ele>
                <time>2020-08-23T07:46:39.000Z</time>
                <name>Trackpoint 768</name>
            </trkpt>
            <trkpt lat="50.000976" lon="10.1766032">
                <ele>211.0</ele>
                <time>2020-08-23T07:46:41.000Z</time>
                <name>Trackpoint 769</name>
            </trkpt>
            <trkpt lat="50.0010112" lon="10.176472">
                <ele>211.0</ele>
                <time>2020-08-23T07:46:43.000Z</time>
                <name>Trackpoint 770</name>
            </trkpt>
            <trkpt lat="50.00104" lon="10.1763488">
                <ele>211.0</ele>
                <time>2020-08-23T07:46:45.000Z</time>
                <name>Trackpoint 771</name>
            </trkpt>
            <trkpt lat="50.0010656" lon="10.1762288">
                <ele>211.0</ele>
                <time>2020-08-23T07:46:47.000Z</time>
                <name>Trackpoint 772</name>
            </trkpt>
            <trkpt lat="50.0010752" lon="10.1761016">
                <ele>211.0</ele>
                <time>2020-08-23T07:46:49.000Z</time>
                <name>Trackpoint 773</name>
            </trkpt>
            <trkpt lat="50.0010944" lon="10.1759968">
                <ele>211.0</ele>
                <time>2020-08-23T07:46:51.000Z</time>
                <name>Trackpoint 774</name>
            </trkpt>
            <trkpt lat="50.0010784" lon="10.1759032">
                <ele>211.0</ele>
                <time>2020-08-23T07:46:53.000Z</time>
                <name>Trackpoint 775</name>
            </trkpt>
            <trkpt lat="50.0010368" lon="10.1757968">
                <ele>211.0</ele>
                <time>2020-08-23T07:46:55.000Z</time>
                <name>Trackpoint 776</name>
            </trkpt>
            <trkpt lat="50.000976" lon="10.1757048">
                <ele>211.0</ele>
                <time>2020-08-23T07:46:57.000Z</time>
                <name>Trackpoint 777</name>
            </trkpt>
            <trkpt lat="50.0009216" lon="10.1756232">
                <ele>211.0</ele>
                <time>2020-08-23T07:46:59.000Z</time>
                <name>Trackpoint 778</name>
            </trkpt>
            <trkpt lat="50.0008416" lon="10.17552">
                <ele>211.0</ele>
                <time>2020-08-23T07:47:02.000Z</time>
                <name>Trackpoint 779</name>
            </trkpt>
            <trkpt lat="50.0007872" lon="10.1754448">
                <ele>211.0</ele>
                <time>2020-08-23T07:47:04.000Z</time>
                <name>Trackpoint 780</name>
            </trkpt>
            <trkpt lat="50.0007168" lon="10.1753584">
                <ele>211.0</ele>
                <time>2020-08-23T07:47:06.000Z</time>
                <name>Trackpoint 781</name>
            </trkpt>
            <trkpt lat="50.0006528" lon="10.175272">
                <ele>211.0</ele>
                <time>2020-08-23T07:47:08.000Z</time>
                <name>Trackpoint 782</name>
            </trkpt>
            <trkpt lat="50.0005792" lon="10.1751736">
                <ele>211.0</ele>
                <time>2020-08-23T07:47:10.000Z</time>
                <name>Trackpoint 783</name>
            </trkpt>
            <trkpt lat="50.0005088" lon="10.1750648">
                <ele>211.0</ele>
                <time>2020-08-23T07:47:12.000Z</time>
                <name>Trackpoint 784</name>
            </trkpt>
            <trkpt lat="50.0004352" lon="10.1749712">
                <ele>211.0</ele>
                <time>2020-08-23T07:47:14.000Z</time>
                <name>Trackpoint 785</name>
            </trkpt>
            <trkpt lat="50.0003584" lon="10.1748752">
                <ele>211.0</ele>
                <time>2020-08-23T07:47:16.000Z</time>
                <name>Trackpoint 786</name>
            </trkpt>
            <trkpt lat="50.0002752" lon="10.1747688">
                <ele>211.0</ele>
                <time>2020-08-23T07:47:18.000Z</time>
                <name>Trackpoint 787</name>
            </trkpt>
            <trkpt lat="50.0001824" lon="10.1746504">
                <ele>211.0</ele>
                <time>2020-08-23T07:47:20.000Z</time>
                <name>Trackpoint 788</name>
            </trkpt>
            <trkpt lat="50.000096" lon="10.174548">
                <ele>211.0</ele>
                <time>2020-08-23T07:47:22.000Z</time>
                <name>Trackpoint 789</name>
            </trkpt>
            <trkpt lat="50.000016" lon="10.1744584">
                <ele>211.0</ele>
                <time>2020-08-23T07:47:24.000Z</time>
                <name>Trackpoint 790</name>
            </trkpt>
            <trkpt lat="49.999936" lon="10.1743784">
                <ele>211.0</ele>
                <time>2020-08-23T07:47:26.000Z</time>
                <name>Trackpoint 791</name>
            </trkpt>
            <trkpt lat="49.999856" lon="10.1743072">
                <ele>211.0</ele>
                <time>2020-08-23T07:47:28.000Z</time>
                <name>Trackpoint 792</name>
            </trkpt>
            <trkpt lat="49.9997952" lon="10.1742312">
                <ele>211.0</ele>
                <time>2020-08-23T07:47:30.000Z</time>
                <name>Trackpoint 793</name>
            </trkpt>
            <trkpt lat="49.9997664" lon="10.1741248">
                <ele>211.0</ele>
                <time>2020-08-23T07:47:32.000Z</time>
                <name>Trackpoint 794</name>
            </trkpt>
            <trkpt lat="49.9997696" lon="10.1740128">
                <ele>211.0</ele>
                <time>2020-08-23T07:47:34.000Z</time>
                <name>Trackpoint 795</name>
            </trkpt>
            <trkpt lat="49.9997824" lon="10.1738928">
                <ele>211.0</ele>
                <time>2020-08-23T07:47:36.000Z</time>
                <name>Trackpoint 796</name>
            </trkpt>
            <trkpt lat="49.9997376" lon="10.1737968">
                <ele>211.0</ele>
                <time>2020-08-23T07:47:38.000Z</time>
                <name>Trackpoint 797</name>
            </trkpt>
            <trkpt lat="49.999616" lon="10.173792">
                <ele>211.0</ele>
                <time>2020-08-23T07:47:41.000Z</time>
                <name>Trackpoint 798</name>
            </trkpt>
            <trkpt lat="49.9995264" lon="10.173808">
                <ele>211.0</ele>
                <time>2020-08-23T07:47:43.000Z</time>
                <name>Trackpoint 799</name>
            </trkpt>
            <trkpt lat="49.9994048" lon="10.1737672">
                <ele>211.0</ele>
                <time>2020-08-23T07:47:46.000Z</time>
                <name>Trackpoint 800</name>
            </trkpt>
            <trkpt lat="49.9993216" lon="10.1737048">
                <ele>211.0</ele>
                <time>2020-08-23T07:47:48.000Z</time>
                <name>Trackpoint 801</name>
            </trkpt>
            <trkpt lat="49.9992256" lon="10.173652">
                <ele>211.0</ele>
                <time>2020-08-23T07:47:50.000Z</time>
                <name>Trackpoint 802</name>
            </trkpt>
            <trkpt lat="49.9991296" lon="10.1735984">
                <ele>211.0</ele>
                <time>2020-08-23T07:47:52.000Z</time>
                <name>Trackpoint 803</name>
            </trkpt>
            <trkpt lat="49.999024" lon="10.1735448">
                <ele>211.0</ele>
                <time>2020-08-23T07:47:54.000Z</time>
                <name>Trackpoint 804</name>
            </trkpt>
            <trkpt lat="49.998928" lon="10.1735088">
                <ele>211.0</ele>
                <time>2020-08-23T07:47:56.000Z</time>
                <name>Trackpoint 805</name>
            </trkpt>
            <trkpt lat="49.9988256" lon="10.1734784">
                <ele>211.0</ele>
                <time>2020-08-23T07:47:58.000Z</time>
                <name>Trackpoint 806</name>
            </trkpt>
            <trkpt lat="49.9987232" lon="10.1734536">
                <ele>211.0</ele>
                <time>2020-08-23T07:48:00.000Z</time>
                <name>Trackpoint 807</name>
            </trkpt>
            <trkpt lat="49.9986144" lon="10.1734304">
                <ele>211.0</ele>
                <time>2020-08-23T07:48:02.000Z</time>
                <name>Trackpoint 808</name>
            </trkpt>
            <trkpt lat="49.9985088" lon="10.1734088">
                <ele>211.0</ele>
                <time>2020-08-23T07:48:04.000Z</time>
                <name>Trackpoint 809</name>
            </trkpt>
            <trkpt lat="49.9984032" lon="10.173384">
                <ele>211.0</ele>
                <time>2020-08-23T07:48:06.000Z</time>
                <name>Trackpoint 810</name>
            </trkpt>
            <trkpt lat="49.9982976" lon="10.1733648">
                <ele>211.0</ele>
                <time>2020-08-23T07:48:08.000Z</time>
                <name>Trackpoint 811</name>
            </trkpt>
            <trkpt lat="49.9982048" lon="10.1733448">
                <ele>211.0</ele>
                <time>2020-08-23T07:48:10.000Z</time>
                <name>Trackpoint 812</name>
            </trkpt>
            <trkpt lat="49.9980768" lon="10.1733128">
                <ele>211.0</ele>
                <time>2020-08-23T07:48:13.000Z</time>
                <name>Trackpoint 813</name>
            </trkpt>
            <trkpt lat="49.9979584" lon="10.1732768">
                <ele>211.0</ele>
                <time>2020-08-23T07:48:16.000Z</time>
                <name>Trackpoint 814</name>
            </trkpt>
            <trkpt lat="49.9978432" lon="10.1732432">
                <ele>211.0</ele>
                <time>2020-08-23T07:48:19.000Z</time>
                <name>Trackpoint 815</name>
            </trkpt>
            <trkpt lat="49.9977312" lon="10.173212">
                <ele>211.0</ele>
                <time>2020-08-23T07:48:22.000Z</time>
                <name>Trackpoint 816</name>
            </trkpt>
            <trkpt lat="49.9976224" lon="10.1731752">
                <ele>211.0</ele>
                <time>2020-08-23T07:48:25.000Z</time>
                <name>Trackpoint 817</name>
            </trkpt>
            <trkpt lat="49.99752" lon="10.1731464">
                <ele>212.0</ele>
                <time>2020-08-23T07:48:28.000Z</time>
                <name>Trackpoint 818</name>
            </trkpt>
            <trkpt lat="49.9974304" lon="10.1731144">
                <ele>212.0</ele>
                <time>2020-08-23T07:48:31.000Z</time>
                <name>Trackpoint 819</name>
            </trkpt>
            <trkpt lat="49.997344" lon="10.173088">
                <ele>212.0</ele>
                <time>2020-08-23T07:48:34.000Z</time>
                <name>Trackpoint 820</name>
            </trkpt>
            <trkpt lat="49.9972416" lon="10.1730496">
                <ele>212.0</ele>
                <time>2020-08-23T07:48:37.000Z</time>
                <name>Trackpoint 821</name>
            </trkpt>
            <trkpt lat="49.997136" lon="10.1729968">
                <ele>212.0</ele>
                <time>2020-08-23T07:48:40.000Z</time>
                <name>Trackpoint 822</name>
            </trkpt>
            <trkpt lat="49.99704" lon="10.1729536">
                <ele>212.0</ele>
                <time>2020-08-23T07:48:43.000Z</time>
                <name>Trackpoint 823</name>
            </trkpt>
            <trkpt lat="49.9969376" lon="10.1728984">
                <ele>212.0</ele>
                <time>2020-08-23T07:48:46.000Z</time>
                <name>Trackpoint 824</name>
            </trkpt>
            <trkpt lat="49.9968704" lon="10.1728384">
                <ele>212.0</ele>
                <time>2020-08-23T07:48:48.000Z</time>
                <name>Trackpoint 825</name>
            </trkpt>
            <trkpt lat="49.9968032" lon="10.1727552">
                <ele>212.0</ele>
                <time>2020-08-23T07:48:50.000Z</time>
                <name>Trackpoint 826</name>
            </trkpt>
            <trkpt lat="49.996736" lon="10.1726888">
                <ele>212.0</ele>
                <time>2020-08-23T07:48:52.000Z</time>
                <name>Trackpoint 827</name>
            </trkpt>
            <trkpt lat="49.9966496" lon="10.17264">
                <ele>213.0</ele>
                <time>2020-08-23T07:48:54.000Z</time>
                <name>Trackpoint 828</name>
            </trkpt>
            <trkpt lat="49.9965632" lon="10.1726104">
                <ele>213.0</ele>
                <time>2020-08-23T07:48:56.000Z</time>
                <name>Trackpoint 829</name>
            </trkpt>
            <trkpt lat="49.996464" lon="10.17262">
                <ele>213.0</ele>
                <time>2020-08-23T07:48:58.000Z</time>
                <name>Trackpoint 830</name>
            </trkpt>
            <trkpt lat="49.9963648" lon="10.1726504">
                <ele>213.0</ele>
                <time>2020-08-23T07:49:00.000Z</time>
                <name>Trackpoint 831</name>
            </trkpt>
            <trkpt lat="49.9962624" lon="10.1726512">
                <ele>212.0</ele>
                <time>2020-08-23T07:49:02.000Z</time>
                <name>Trackpoint 832</name>
            </trkpt>
            <trkpt lat="49.9961632" lon="10.1726048">
                <ele>213.0</ele>
                <time>2020-08-23T07:49:04.000Z</time>
                <name>Trackpoint 833</name>
            </trkpt>
            <trkpt lat="49.996064" lon="10.1725504">
                <ele>213.0</ele>
                <time>2020-08-23T07:49:06.000Z</time>
                <name>Trackpoint 834</name>
            </trkpt>
            <trkpt lat="49.9959616" lon="10.1724968">
                <ele>212.0</ele>
                <time>2020-08-23T07:49:08.000Z</time>
                <name>Trackpoint 835</name>
            </trkpt>
            <trkpt lat="49.995856" lon="10.1724328">
                <ele>212.0</ele>
                <time>2020-08-23T07:49:10.000Z</time>
                <name>Trackpoint 836</name>
            </trkpt>
            <trkpt lat="49.9957568" lon="10.1723816">
                <ele>212.0</ele>
                <time>2020-08-23T07:49:12.000Z</time>
                <name>Trackpoint 837</name>
            </trkpt>
            <trkpt lat="49.9956512" lon="10.1723216">
                <ele>213.0</ele>
                <time>2020-08-23T07:49:14.000Z</time>
                <name>Trackpoint 838</name>
            </trkpt>
            <trkpt lat="49.9955392" lon="10.1722584">
                <ele>213.0</ele>
                <time>2020-08-23T07:49:16.000Z</time>
                <name>Trackpoint 839</name>
            </trkpt>
            <trkpt lat="49.9954304" lon="10.172192">
                <ele>213.0</ele>
                <time>2020-08-23T07:49:18.000Z</time>
                <name>Trackpoint 840</name>
            </trkpt>
            <trkpt lat="49.9953088" lon="10.1721336">
                <ele>213.0</ele>
                <time>2020-08-23T07:49:20.000Z</time>
                <name>Trackpoint 841</name>
            </trkpt>
            <trkpt lat="49.9952" lon="10.1720832">
                <ele>212.0</ele>
                <time>2020-08-23T07:49:22.000Z</time>
                <name>Trackpoint 842</name>
            </trkpt>
            <trkpt lat="49.9950944" lon="10.1720368">
                <ele>212.0</ele>
                <time>2020-08-23T07:49:24.000Z</time>
                <name>Trackpoint 843</name>
            </trkpt>
            <trkpt lat="49.9949728" lon="10.1719704">
                <ele>213.0</ele>
                <time>2020-08-23T07:49:26.000Z</time>
                <name>Trackpoint 844</name>
            </trkpt>
            <trkpt lat="49.9948544" lon="10.1719104">
                <ele>212.0</ele>
                <time>2020-08-23T07:49:28.000Z</time>
                <name>Trackpoint 845</name>
            </trkpt>
            <trkpt lat="49.9947296" lon="10.1718328">
                <ele>212.0</ele>
                <time>2020-08-23T07:49:30.000Z</time>
                <name>Trackpoint 846</name>
            </trkpt>
            <trkpt lat="49.9946016" lon="10.1717552">
                <ele>212.0</ele>
                <time>2020-08-23T07:49:32.000Z</time>
                <name>Trackpoint 847</name>
            </trkpt>
            <trkpt lat="49.9944832" lon="10.1716872">
                <ele>212.0</ele>
                <time>2020-08-23T07:49:34.000Z</time>
                <name>Trackpoint 848</name>
            </trkpt>
            <trkpt lat="49.9943616" lon="10.1716232">
                <ele>211.0</ele>
                <time>2020-08-23T07:49:36.000Z</time>
                <name>Trackpoint 849</name>
            </trkpt>
            <trkpt lat="49.9942368" lon="10.1715584">
                <ele>211.0</ele>
                <time>2020-08-23T07:49:38.000Z</time>
                <name>Trackpoint 850</name>
            </trkpt>
            <trkpt lat="49.9941152" lon="10.1714896">
                <ele>211.0</ele>
                <time>2020-08-23T07:49:40.000Z</time>
                <name>Trackpoint 851</name>
            </trkpt>
            <trkpt lat="49.9939904" lon="10.1714232">
                <ele>211.0</ele>
                <time>2020-08-23T07:49:42.000Z</time>
                <name>Trackpoint 852</name>
            </trkpt>
            <trkpt lat="49.9938688" lon="10.17136">
                <ele>211.0</ele>
                <time>2020-08-23T07:49:44.000Z</time>
                <name>Trackpoint 853</name>
            </trkpt>
            <trkpt lat="49.9937472" lon="10.1712904">
                <ele>211.0</ele>
                <time>2020-08-23T07:49:46.000Z</time>
                <name>Trackpoint 854</name>
            </trkpt>
            <trkpt lat="49.9936224" lon="10.1712264">
                <ele>211.0</ele>
                <time>2020-08-23T07:49:48.000Z</time>
                <name>Trackpoint 855</name>
            </trkpt>
            <trkpt lat="49.9934944" lon="10.1711656">
                <ele>210.0</ele>
                <time>2020-08-23T07:49:50.000Z</time>
                <name>Trackpoint 856</name>
            </trkpt>
            <trkpt lat="49.9933728" lon="10.1711056">
                <ele>211.0</ele>
                <time>2020-08-23T07:49:52.000Z</time>
                <name>Trackpoint 857</name>
            </trkpt>
            <trkpt lat="49.993264" lon="10.1710384">
                <ele>211.0</ele>
                <time>2020-08-23T07:49:54.000Z</time>
                <name>Trackpoint 858</name>
            </trkpt>
            <trkpt lat="49.9931744" lon="10.17094">
                <ele>210.0</ele>
                <time>2020-08-23T07:49:56.000Z</time>
                <name>Trackpoint 859</name>
            </trkpt>
            <trkpt lat="49.9931264" lon="10.1707984">
                <ele>210.0</ele>
                <time>2020-08-23T07:49:58.000Z</time>
                <name>Trackpoint 860</name>
            </trkpt>
            <trkpt lat="49.9931168" lon="10.1706304">
                <ele>210.0</ele>
                <time>2020-08-23T07:50:00.000Z</time>
                <name>Trackpoint 861</name>
            </trkpt>
            <trkpt lat="49.9931072" lon="10.1704616">
                <ele>210.0</ele>
                <time>2020-08-23T07:50:02.000Z</time>
                <name>Trackpoint 862</name>
            </trkpt>
            <trkpt lat="49.9930528" lon="10.1703632">
                <ele>210.0</ele>
                <time>2020-08-23T07:50:04.000Z</time>
                <name>Trackpoint 863</name>
            </trkpt>
            <trkpt lat="49.9929472" lon="10.1703752">
                <ele>211.0</ele>
                <time>2020-08-23T07:50:07.000Z</time>
                <name>Trackpoint 864</name>
            </trkpt>
            <trkpt lat="49.9928256" lon="10.1703752">
                <ele>211.0</ele>
                <time>2020-08-23T07:50:10.000Z</time>
                <name>Trackpoint 865</name>
            </trkpt>
            <trkpt lat="49.9926944" lon="10.170368">
                <ele>211.0</ele>
                <time>2020-08-23T07:50:13.000Z</time>
                <name>Trackpoint 866</name>
            </trkpt>
            <trkpt lat="49.9926112" lon="10.1703328">
                <ele>211.0</ele>
                <time>2020-08-23T07:50:15.000Z</time>
                <name>Trackpoint 867</name>
            </trkpt>
            <trkpt lat="49.9925216" lon="10.1702872">
                <ele>211.0</ele>
                <time>2020-08-23T07:50:17.000Z</time>
                <name>Trackpoint 868</name>
            </trkpt>
            <trkpt lat="49.9924352" lon="10.1702544">
                <ele>211.0</ele>
                <time>2020-08-23T07:50:19.000Z</time>
                <name>Trackpoint 869</name>
            </trkpt>
            <trkpt lat="49.9923424" lon="10.1702368">
                <ele>211.0</ele>
                <time>2020-08-23T07:50:21.000Z</time>
                <name>Trackpoint 870</name>
            </trkpt>
            <trkpt lat="49.9922496" lon="10.170228">
                <ele>211.0</ele>
                <time>2020-08-23T07:50:23.000Z</time>
                <name>Trackpoint 871</name>
            </trkpt>
            <trkpt lat="49.9921536" lon="10.170208">
                <ele>211.0</ele>
                <time>2020-08-23T07:50:25.000Z</time>
                <name>Trackpoint 872</name>
            </trkpt>
            <trkpt lat="49.9920512" lon="10.1701832">
                <ele>211.0</ele>
                <time>2020-08-23T07:50:27.000Z</time>
                <name>Trackpoint 873</name>
            </trkpt>
            <trkpt lat="49.9919424" lon="10.17016">
                <ele>211.0</ele>
                <time>2020-08-23T07:50:29.000Z</time>
                <name>Trackpoint 874</name>
            </trkpt>
            <trkpt lat="49.9918368" lon="10.1701368">
                <ele>211.0</ele>
                <time>2020-08-23T07:50:31.000Z</time>
                <name>Trackpoint 875</name>
            </trkpt>
            <trkpt lat="49.9917216" lon="10.1701088">
                <ele>210.0</ele>
                <time>2020-08-23T07:50:33.000Z</time>
                <name>Trackpoint 876</name>
            </trkpt>
            <trkpt lat="49.9916064" lon="10.17008">
                <ele>210.0</ele>
                <time>2020-08-23T07:50:35.000Z</time>
                <name>Trackpoint 877</name>
            </trkpt>
            <trkpt lat="49.9914944" lon="10.1700448">
                <ele>210.0</ele>
                <time>2020-08-23T07:50:37.000Z</time>
                <name>Trackpoint 878</name>
            </trkpt>
            <trkpt lat="49.991376" lon="10.1700096">
                <ele>210.0</ele>
                <time>2020-08-23T07:50:39.000Z</time>
                <name>Trackpoint 879</name>
            </trkpt>
            <trkpt lat="49.9912576" lon="10.1699752">
                <ele>210.0</ele>
                <time>2020-08-23T07:50:41.000Z</time>
                <name>Trackpoint 880</name>
            </trkpt>
            <trkpt lat="49.991136" lon="10.1699352">
                <ele>210.0</ele>
                <time>2020-08-23T07:50:43.000Z</time>
                <name>Trackpoint 881</name>
            </trkpt>
            <trkpt lat="49.9910112" lon="10.1698936">
                <ele>209.0</ele>
                <time>2020-08-23T07:50:45.000Z</time>
                <name>Trackpoint 882</name>
            </trkpt>
            <trkpt lat="49.9908864" lon="10.1698536">
                <ele>209.0</ele>
                <time>2020-08-23T07:50:47.000Z</time>
                <name>Trackpoint 883</name>
            </trkpt>
            <trkpt lat="49.990768" lon="10.16982">
                <ele>209.0</ele>
                <time>2020-08-23T07:50:49.000Z</time>
                <name>Trackpoint 884</name>
            </trkpt>
            <trkpt lat="49.9906464" lon="10.1697912">
                <ele>209.0</ele>
                <time>2020-08-23T07:50:51.000Z</time>
                <name>Trackpoint 885</name>
            </trkpt>
            <trkpt lat="49.9905248" lon="10.1697656">
                <ele>209.0</ele>
                <time>2020-08-23T07:50:53.000Z</time>
                <name>Trackpoint 886</name>
            </trkpt>
            <trkpt lat="49.9904064" lon="10.1697368">
                <ele>209.0</ele>
                <time>2020-08-23T07:50:55.000Z</time>
                <name>Trackpoint 887</name>
            </trkpt>
            <trkpt lat="49.990288" lon="10.1697056">
                <ele>209.0</ele>
                <time>2020-08-23T07:50:57.000Z</time>
                <name>Trackpoint 888</name>
            </trkpt>
            <trkpt lat="49.9901696" lon="10.169672">
                <ele>209.0</ele>
                <time>2020-08-23T07:50:59.000Z</time>
                <name>Trackpoint 889</name>
            </trkpt>
            <trkpt lat="49.9900544" lon="10.1696504">
                <ele>209.0</ele>
                <time>2020-08-23T07:51:01.000Z</time>
                <name>Trackpoint 890</name>
            </trkpt>
            <trkpt lat="49.9899392" lon="10.1696256">
                <ele>210.0</ele>
                <time>2020-08-23T07:51:03.000Z</time>
                <name>Trackpoint 891</name>
            </trkpt>
            <trkpt lat="49.9898336" lon="10.1695968">
                <ele>210.0</ele>
                <time>2020-08-23T07:51:05.000Z</time>
                <name>Trackpoint 892</name>
            </trkpt>
            <trkpt lat="49.989728" lon="10.1695736">
                <ele>210.0</ele>
                <time>2020-08-23T07:51:07.000Z</time>
                <name>Trackpoint 893</name>
            </trkpt>
            <trkpt lat="49.9896256" lon="10.1695536">
                <ele>210.0</ele>
                <time>2020-08-23T07:51:09.000Z</time>
                <name>Trackpoint 894</name>
            </trkpt>
            <trkpt lat="49.98952" lon="10.1695336">
                <ele>210.0</ele>
                <time>2020-08-23T07:51:11.000Z</time>
                <name>Trackpoint 895</name>
            </trkpt>
            <trkpt lat="49.9894208" lon="10.1695144">
                <ele>210.0</ele>
                <time>2020-08-23T07:51:13.000Z</time>
                <name>Trackpoint 896</name>
            </trkpt>
            <trkpt lat="49.9893184" lon="10.1694968">
                <ele>211.0</ele>
                <time>2020-08-23T07:51:15.000Z</time>
                <name>Trackpoint 897</name>
            </trkpt>
            <trkpt lat="49.989216" lon="10.1694768">
                <ele>211.0</ele>
                <time>2020-08-23T07:51:17.000Z</time>
                <name>Trackpoint 898</name>
            </trkpt>
            <trkpt lat="49.9891168" lon="10.16946">
                <ele>211.0</ele>
                <time>2020-08-23T07:51:19.000Z</time>
                <name>Trackpoint 899</name>
            </trkpt>
            <trkpt lat="49.9890144" lon="10.1694416">
                <ele>211.0</ele>
                <time>2020-08-23T07:51:21.000Z</time>
                <name>Trackpoint 900</name>
            </trkpt>
            <trkpt lat="49.9889184" lon="10.1694368">
                <ele>211.0</ele>
                <time>2020-08-23T07:51:23.000Z</time>
                <name>Trackpoint 901</name>
            </trkpt>
            <trkpt lat="49.988816" lon="10.1694184">
                <ele>212.0</ele>
                <time>2020-08-23T07:51:25.000Z</time>
                <name>Trackpoint 902</name>
            </trkpt>
            <trkpt lat="49.9887168" lon="10.1694">
                <ele>212.0</ele>
                <time>2020-08-23T07:51:27.000Z</time>
                <name>Trackpoint 903</name>
            </trkpt>
            <trkpt lat="49.9886208" lon="10.1693832">
                <ele>212.0</ele>
                <time>2020-08-23T07:51:29.000Z</time>
                <name>Trackpoint 904</name>
            </trkpt>
            <trkpt lat="49.9885248" lon="10.169372">
                <ele>212.0</ele>
                <time>2020-08-23T07:51:31.000Z</time>
                <name>Trackpoint 905</name>
            </trkpt>
            <trkpt lat="49.9884256" lon="10.1693672">
                <ele>212.0</ele>
                <time>2020-08-23T07:51:33.000Z</time>
                <name>Trackpoint 906</name>
            </trkpt>
            <trkpt lat="49.9883232" lon="10.1693648">
                <ele>212.0</ele>
                <time>2020-08-23T07:51:35.000Z</time>
                <name>Trackpoint 907</name>
            </trkpt>
            <trkpt lat="49.9882208" lon="10.1693584">
                <ele>212.0</ele>
                <time>2020-08-23T07:51:37.000Z</time>
                <name>Trackpoint 908</name>
            </trkpt>
            <trkpt lat="49.9881184" lon="10.1693624">
                <ele>212.0</ele>
                <time>2020-08-23T07:51:39.000Z</time>
                <name>Trackpoint 909</name>
            </trkpt>
            <trkpt lat="49.9880096" lon="10.1693584">
                <ele>212.0</ele>
                <time>2020-08-23T07:51:41.000Z</time>
                <name>Trackpoint 910</name>
            </trkpt>
            <trkpt lat="49.9879008" lon="10.1693584">
                <ele>212.0</ele>
                <time>2020-08-23T07:51:43.000Z</time>
                <name>Trackpoint 911</name>
            </trkpt>
            <trkpt lat="49.9877856" lon="10.16936">
                <ele>212.0</ele>
                <time>2020-08-23T07:51:45.000Z</time>
                <name>Trackpoint 912</name>
            </trkpt>
            <trkpt lat="49.9876704" lon="10.1693632">
                <ele>212.0</ele>
                <time>2020-08-23T07:51:47.000Z</time>
                <name>Trackpoint 913</name>
            </trkpt>
            <trkpt lat="49.9875552" lon="10.1693688">
                <ele>212.0</ele>
                <time>2020-08-23T07:51:49.000Z</time>
                <name>Trackpoint 914</name>
            </trkpt>
            <trkpt lat="49.9874368" lon="10.1693736">
                <ele>212.0</ele>
                <time>2020-08-23T07:51:51.000Z</time>
                <name>Trackpoint 915</name>
            </trkpt>
            <trkpt lat="49.987328" lon="10.16938">
                <ele>212.0</ele>
                <time>2020-08-23T07:51:53.000Z</time>
                <name>Trackpoint 916</name>
            </trkpt>
            <trkpt lat="49.9872128" lon="10.1693832">
                <ele>212.0</ele>
                <time>2020-08-23T07:51:55.000Z</time>
                <name>Trackpoint 917</name>
            </trkpt>
            <trkpt lat="49.9871072" lon="10.1693896">
                <ele>212.0</ele>
                <time>2020-08-23T07:51:57.000Z</time>
                <name>Trackpoint 918</name>
            </trkpt>
            <trkpt lat="49.9869984" lon="10.1693984">
                <ele>212.0</ele>
                <time>2020-08-23T07:51:59.000Z</time>
                <name>Trackpoint 919</name>
            </trkpt>
            <trkpt lat="49.9868896" lon="10.1694088">
                <ele>212.0</ele>
                <time>2020-08-23T07:52:01.000Z</time>
                <name>Trackpoint 920</name>
            </trkpt>
            <trkpt lat="49.9867776" lon="10.1694152">
                <ele>212.0</ele>
                <time>2020-08-23T07:52:03.000Z</time>
                <name>Trackpoint 921</name>
            </trkpt>
            <trkpt lat="49.9866688" lon="10.1694272">
                <ele>212.0</ele>
                <time>2020-08-23T07:52:05.000Z</time>
                <name>Trackpoint 922</name>
            </trkpt>
            <trkpt lat="49.98656" lon="10.1694344">
                <ele>212.0</ele>
                <time>2020-08-23T07:52:07.000Z</time>
                <name>Trackpoint 923</name>
            </trkpt>
            <trkpt lat="49.9864512" lon="10.1694472">
                <ele>212.0</ele>
                <time>2020-08-23T07:52:09.000Z</time>
                <name>Trackpoint 924</name>
            </trkpt>
            <trkpt lat="49.9863392" lon="10.1694584">
                <ele>212.0</ele>
                <time>2020-08-23T07:52:11.000Z</time>
                <name>Trackpoint 925</name>
            </trkpt>
            <trkpt lat="49.9862304" lon="10.1694696">
                <ele>213.0</ele>
                <time>2020-08-23T07:52:13.000Z</time>
                <name>Trackpoint 926</name>
            </trkpt>
            <trkpt lat="49.9861184" lon="10.1694848">
                <ele>213.0</ele>
                <time>2020-08-23T07:52:15.000Z</time>
                <name>Trackpoint 927</name>
            </trkpt>
            <trkpt lat="49.9860032" lon="10.1695">
                <ele>213.0</ele>
                <time>2020-08-23T07:52:17.000Z</time>
                <name>Trackpoint 928</name>
            </trkpt>
            <trkpt lat="49.9858944" lon="10.169512">
                <ele>213.0</ele>
                <time>2020-08-23T07:52:19.000Z</time>
                <name>Trackpoint 929</name>
            </trkpt>
            <trkpt lat="49.985776" lon="10.1695216">
                <ele>213.0</ele>
                <time>2020-08-23T07:52:21.000Z</time>
                <name>Trackpoint 930</name>
            </trkpt>
            <trkpt lat="49.9856608" lon="10.1695296">
                <ele>213.0</ele>
                <time>2020-08-23T07:52:23.000Z</time>
                <name>Trackpoint 931</name>
            </trkpt>
            <trkpt lat="49.9855424" lon="10.1695368">
                <ele>213.0</ele>
                <time>2020-08-23T07:52:25.000Z</time>
                <name>Trackpoint 932</name>
            </trkpt>
            <trkpt lat="49.9854304" lon="10.1695384">
                <ele>213.0</ele>
                <time>2020-08-23T07:52:27.000Z</time>
                <name>Trackpoint 933</name>
            </trkpt>
            <trkpt lat="49.985312" lon="10.1695416">
                <ele>214.0</ele>
                <time>2020-08-23T07:52:29.000Z</time>
                <name>Trackpoint 934</name>
            </trkpt>
            <trkpt lat="49.9852032" lon="10.1695416">
                <ele>214.0</ele>
                <time>2020-08-23T07:52:31.000Z</time>
                <name>Trackpoint 935</name>
            </trkpt>
            <trkpt lat="49.9850912" lon="10.1695416">
                <ele>214.0</ele>
                <time>2020-08-23T07:52:33.000Z</time>
                <name>Trackpoint 936</name>
            </trkpt>
            <trkpt lat="49.9849824" lon="10.1695416">
                <ele>214.0</ele>
                <time>2020-08-23T07:52:35.000Z</time>
                <name>Trackpoint 937</name>
            </trkpt>
            <trkpt lat="49.9848736" lon="10.1695408">
                <ele>214.0</ele>
                <time>2020-08-23T07:52:37.000Z</time>
                <name>Trackpoint 938</name>
            </trkpt>
            <trkpt lat="49.984768" lon="10.1695232">
                <ele>214.0</ele>
                <time>2020-08-23T07:52:39.000Z</time>
                <name>Trackpoint 939</name>
            </trkpt>
            <trkpt lat="49.984672" lon="10.1694696">
                <ele>214.0</ele>
                <time>2020-08-23T07:52:41.000Z</time>
                <name>Trackpoint 940</name>
            </trkpt>
            <trkpt lat="49.984576" lon="10.1693984">
                <ele>215.0</ele>
                <time>2020-08-23T07:52:43.000Z</time>
                <name>Trackpoint 941</name>
            </trkpt>
            <trkpt lat="49.9844864" lon="10.1693448">
                <ele>215.0</ele>
                <time>2020-08-23T07:52:45.000Z</time>
                <name>Trackpoint 942</name>
            </trkpt>
            <trkpt lat="49.9843968" lon="10.1693264">
                <ele>215.0</ele>
                <time>2020-08-23T07:52:47.000Z</time>
                <name>Trackpoint 943</name>
            </trkpt>
            <trkpt lat="49.9843104" lon="10.169372">
                <ele>215.0</ele>
                <time>2020-08-23T07:52:49.000Z</time>
                <name>Trackpoint 944</name>
            </trkpt>
            <trkpt lat="49.9842336" lon="10.1694472">
                <ele>215.0</ele>
                <time>2020-08-23T07:52:51.000Z</time>
                <name>Trackpoint 945</name>
            </trkpt>
            <trkpt lat="49.9841568" lon="10.1694968">
                <ele>215.0</ele>
                <time>2020-08-23T07:52:53.000Z</time>
                <name>Trackpoint 946</name>
            </trkpt>
            <trkpt lat="49.9840384" lon="10.1694832">
                <ele>215.0</ele>
                <time>2020-08-23T07:52:56.000Z</time>
                <name>Trackpoint 947</name>
            </trkpt>
            <trkpt lat="49.9839392" lon="10.1694632">
                <ele>216.0</ele>
                <time>2020-08-23T07:52:59.000Z</time>
                <name>Trackpoint 948</name>
            </trkpt>
            <trkpt lat="49.9838304" lon="10.1694568">
                <ele>216.0</ele>
                <time>2020-08-23T07:53:03.000Z</time>
                <name>Trackpoint 949</name>
            </trkpt>
            <trkpt lat="49.983744" lon="10.1694232">
                <ele>216.0</ele>
                <time>2020-08-23T07:53:29.000Z</time>
                <name>Trackpoint 950</name>
            </trkpt>
            <trkpt lat="49.9836352" lon="10.1694208">
                <ele>216.0</ele>
                <time>2020-08-23T07:53:33.000Z</time>
                <name>Trackpoint 951</name>
            </trkpt>
            <trkpt lat="49.9835168" lon="10.1694">
                <ele>216.0</ele>
                <time>2020-08-23T07:53:36.000Z</time>
                <name>Trackpoint 952</name>
            </trkpt>
            <trkpt lat="49.983392" lon="10.1693896">
                <ele>216.0</ele>
                <time>2020-08-23T07:53:39.000Z</time>
                <name>Trackpoint 953</name>
            </trkpt>
            <trkpt lat="49.9832608" lon="10.1693624">
                <ele>216.0</ele>
                <time>2020-08-23T07:53:42.000Z</time>
                <name>Trackpoint 954</name>
            </trkpt>
            <trkpt lat="49.9831264" lon="10.1693424">
                <ele>217.0</ele>
                <time>2020-08-23T07:53:45.000Z</time>
                <name>Trackpoint 955</name>
            </trkpt>
            <trkpt lat="49.9830368" lon="10.16932">
                <ele>217.0</ele>
                <time>2020-08-23T07:53:47.000Z</time>
                <name>Trackpoint 956</name>
            </trkpt>
            <trkpt lat="49.9829472" lon="10.1693064">
                <ele>218.0</ele>
                <time>2020-08-23T07:53:49.000Z</time>
                <name>Trackpoint 957</name>
            </trkpt>
            <trkpt lat="49.9828576" lon="10.1692952">
                <ele>218.0</ele>
                <time>2020-08-23T07:53:51.000Z</time>
                <name>Trackpoint 958</name>
            </trkpt>
            <trkpt lat="49.9827648" lon="10.169276">
                <ele>219.0</ele>
                <time>2020-08-23T07:53:53.000Z</time>
                <name>Trackpoint 959</name>
            </trkpt>
            <trkpt lat="49.9826688" lon="10.1692616">
                <ele>219.0</ele>
                <time>2020-08-23T07:53:55.000Z</time>
                <name>Trackpoint 960</name>
            </trkpt>
            <trkpt lat="49.9825792" lon="10.1692448">
                <ele>219.0</ele>
                <time>2020-08-23T07:53:57.000Z</time>
                <name>Trackpoint 961</name>
            </trkpt>
            <trkpt lat="49.9824864" lon="10.1692312">
                <ele>219.0</ele>
                <time>2020-08-23T07:53:59.000Z</time>
                <name>Trackpoint 962</name>
            </trkpt>
            <trkpt lat="49.9823936" lon="10.1692168">
                <ele>219.0</ele>
                <time>2020-08-23T07:54:01.000Z</time>
                <name>Trackpoint 963</name>
            </trkpt>
            <trkpt lat="49.9822944" lon="10.1691968">
                <ele>219.0</ele>
                <time>2020-08-23T07:54:03.000Z</time>
                <name>Trackpoint 964</name>
            </trkpt>
            <trkpt lat="49.982192" lon="10.1691848">
                <ele>219.0</ele>
                <time>2020-08-23T07:54:05.000Z</time>
                <name>Trackpoint 965</name>
            </trkpt>
            <trkpt lat="49.9820832" lon="10.1691704">
                <ele>219.0</ele>
                <time>2020-08-23T07:54:07.000Z</time>
                <name>Trackpoint 966</name>
            </trkpt>
            <trkpt lat="49.9819744" lon="10.16916">
                <ele>219.0</ele>
                <time>2020-08-23T07:54:09.000Z</time>
                <name>Trackpoint 967</name>
            </trkpt>
            <trkpt lat="49.9818656" lon="10.1691488">
                <ele>219.0</ele>
                <time>2020-08-23T07:54:11.000Z</time>
                <name>Trackpoint 968</name>
            </trkpt>
            <trkpt lat="49.9817568" lon="10.1691328">
                <ele>220.0</ele>
                <time>2020-08-23T07:54:13.000Z</time>
                <name>Trackpoint 969</name>
            </trkpt>
            <trkpt lat="49.9816544" lon="10.16912">
                <ele>220.0</ele>
                <time>2020-08-23T07:54:15.000Z</time>
                <name>Trackpoint 970</name>
            </trkpt>
            <trkpt lat="49.981552" lon="10.1691104">
                <ele>220.0</ele>
                <time>2020-08-23T07:54:17.000Z</time>
                <name>Trackpoint 971</name>
            </trkpt>
            <trkpt lat="49.9814496" lon="10.1690904">
                <ele>220.0</ele>
                <time>2020-08-23T07:54:19.000Z</time>
                <name>Trackpoint 972</name>
            </trkpt>
            <trkpt lat="49.9813504" lon="10.1690776">
                <ele>221.0</ele>
                <time>2020-08-23T07:54:21.000Z</time>
                <name>Trackpoint 973</name>
            </trkpt>
            <trkpt lat="49.9812512" lon="10.1690616">
                <ele>221.0</ele>
                <time>2020-08-23T07:54:23.000Z</time>
                <name>Trackpoint 974</name>
            </trkpt>
            <trkpt lat="49.9811424" lon="10.1690416">
                <ele>221.0</ele>
                <time>2020-08-23T07:54:25.000Z</time>
                <name>Trackpoint 975</name>
            </trkpt>
            <trkpt lat="49.9810368" lon="10.169008">
                <ele>222.0</ele>
                <time>2020-08-23T07:54:27.000Z</time>
                <name>Trackpoint 976</name>
            </trkpt>
            <trkpt lat="49.9809344" lon="10.1689752">
                <ele>222.0</ele>
                <time>2020-08-23T07:54:29.000Z</time>
                <name>Trackpoint 977</name>
            </trkpt>
            <trkpt lat="49.9808352" lon="10.1689328">
                <ele>222.0</ele>
                <time>2020-08-23T07:54:31.000Z</time>
                <name>Trackpoint 978</name>
            </trkpt>
            <trkpt lat="49.980736" lon="10.1688872">
                <ele>222.0</ele>
                <time>2020-08-23T07:54:33.000Z</time>
                <name>Trackpoint 979</name>
            </trkpt>
            <trkpt lat="49.98064" lon="10.1688384">
                <ele>222.0</ele>
                <time>2020-08-23T07:54:35.000Z</time>
                <name>Trackpoint 980</name>
            </trkpt>
            <trkpt lat="49.980544" lon="10.1687872">
                <ele>222.0</ele>
                <time>2020-08-23T07:54:37.000Z</time>
                <name>Trackpoint 981</name>
            </trkpt>
            <trkpt lat="49.9804512" lon="10.168732">
                <ele>222.0</ele>
                <time>2020-08-23T07:54:39.000Z</time>
                <name>Trackpoint 982</name>
            </trkpt>
            <trkpt lat="49.9803552" lon="10.16868">
                <ele>222.0</ele>
                <time>2020-08-23T07:54:41.000Z</time>
                <name>Trackpoint 983</name>
            </trkpt>
            <trkpt lat="49.9802624" lon="10.1686232">
                <ele>222.0</ele>
                <time>2020-08-23T07:54:43.000Z</time>
                <name>Trackpoint 984</name>
            </trkpt>
            <trkpt lat="49.980176" lon="10.1685496">
                <ele>222.0</ele>
                <time>2020-08-23T07:54:45.000Z</time>
                <name>Trackpoint 985</name>
            </trkpt>
            <trkpt lat="49.9801056" lon="10.1684536">
                <ele>222.0</ele>
                <time>2020-08-23T07:54:47.000Z</time>
                <name>Trackpoint 986</name>
            </trkpt>
            <trkpt lat="49.980048" lon="10.1683352">
                <ele>223.0</ele>
                <time>2020-08-23T07:54:49.000Z</time>
                <name>Trackpoint 987</name>
            </trkpt>
            <trkpt lat="49.9799808" lon="10.1682352">
                <ele>222.0</ele>
                <time>2020-08-23T07:54:51.000Z</time>
                <name>Trackpoint 988</name>
            </trkpt>
            <trkpt lat="49.9798976" lon="10.1681856">
                <ele>222.0</ele>
                <time>2020-08-23T07:54:53.000Z</time>
                <name>Trackpoint 989</name>
            </trkpt>
            <trkpt lat="49.9797696" lon="10.1681336">
                <ele>223.0</ele>
                <time>2020-08-23T07:54:56.000Z</time>
                <name>Trackpoint 990</name>
            </trkpt>
            <trkpt lat="49.9796864" lon="10.1680832">
                <ele>223.0</ele>
                <time>2020-08-23T07:54:58.000Z</time>
                <name>Trackpoint 991</name>
            </trkpt>
            <trkpt lat="49.9795808" lon="10.1680088">
                <ele>224.0</ele>
                <time>2020-08-23T07:55:01.000Z</time>
                <name>Trackpoint 992</name>
            </trkpt>
            <trkpt lat="49.9794784" lon="10.1679624">
                <ele>224.0</ele>
                <time>2020-08-23T07:55:03.000Z</time>
                <name>Trackpoint 993</name>
            </trkpt>
            <trkpt lat="49.9793792" lon="10.1678888">
                <ele>224.0</ele>
                <time>2020-08-23T07:55:05.000Z</time>
                <name>Trackpoint 994</name>
            </trkpt>
            <trkpt lat="49.9792864" lon="10.1678152">
                <ele>224.0</ele>
                <time>2020-08-23T07:55:07.000Z</time>
                <name>Trackpoint 995</name>
            </trkpt>
            <trkpt lat="49.9791904" lon="10.16774">
                <ele>224.0</ele>
                <time>2020-08-23T07:55:09.000Z</time>
                <name>Trackpoint 996</name>
            </trkpt>
            <trkpt lat="49.9790944" lon="10.1676616">
                <ele>224.0</ele>
                <time>2020-08-23T07:55:11.000Z</time>
                <name>Trackpoint 997</name>
            </trkpt>
            <trkpt lat="49.9790048" lon="10.1675832">
                <ele>225.0</ele>
                <time>2020-08-23T07:55:13.000Z</time>
                <name>Trackpoint 998</name>
            </trkpt>
            <trkpt lat="49.978912" lon="10.1675056">
                <ele>224.0</ele>
                <time>2020-08-23T07:55:15.000Z</time>
                <name>Trackpoint 999</name>
            </trkpt>
            <trkpt lat="49.9788224" lon="10.1674232">
                <ele>224.0</ele>
                <time>2020-08-23T07:55:17.000Z</time>
                <name>Trackpoint 1000</name>
            </trkpt>
            <trkpt lat="49.9787328" lon="10.1673432">
                <ele>224.0</ele>
                <time>2020-08-23T07:55:19.000Z</time>
                <name>Trackpoint 1001</name>
            </trkpt>
            <trkpt lat="49.97864" lon="10.1672624">
                <ele>224.0</ele>
                <time>2020-08-23T07:55:21.000Z</time>
                <name>Trackpoint 1002</name>
            </trkpt>
            <trkpt lat="49.9785504" lon="10.1671736">
                <ele>224.0</ele>
                <time>2020-08-23T07:55:23.000Z</time>
                <name>Trackpoint 1003</name>
            </trkpt>
            <trkpt lat="49.9784672" lon="10.1670752">
                <ele>224.0</ele>
                <time>2020-08-23T07:55:25.000Z</time>
                <name>Trackpoint 1004</name>
            </trkpt>
            <trkpt lat="49.9783776" lon="10.1669768">
                <ele>225.0</ele>
                <time>2020-08-23T07:55:27.000Z</time>
                <name>Trackpoint 1005</name>
            </trkpt>
            <trkpt lat="49.9782912" lon="10.1668784">
                <ele>224.0</ele>
                <time>2020-08-23T07:55:29.000Z</time>
                <name>Trackpoint 1006</name>
            </trkpt>
            <trkpt lat="49.978208" lon="10.1667768">
                <ele>224.0</ele>
                <time>2020-08-23T07:55:31.000Z</time>
                <name>Trackpoint 1007</name>
            </trkpt>
            <trkpt lat="49.978128" lon="10.1666736">
                <ele>224.0</ele>
                <time>2020-08-23T07:55:33.000Z</time>
                <name>Trackpoint 1008</name>
            </trkpt>
            <trkpt lat="49.9780512" lon="10.1665552">
                <ele>223.0</ele>
                <time>2020-08-23T07:55:35.000Z</time>
                <name>Trackpoint 1009</name>
            </trkpt>
            <trkpt lat="49.9779776" lon="10.1664104">
                <ele>222.0</ele>
                <time>2020-08-23T07:55:37.000Z</time>
                <name>Trackpoint 1010</name>
            </trkpt>
            <trkpt lat="49.977904" lon="10.1662552">
                <ele>222.0</ele>
                <time>2020-08-23T07:55:39.000Z</time>
                <name>Trackpoint 1011</name>
            </trkpt>
            <trkpt lat="49.9778368" lon="10.166108">
                <ele>222.0</ele>
                <time>2020-08-23T07:55:41.000Z</time>
                <name>Trackpoint 1012</name>
            </trkpt>
            <trkpt lat="49.9777504" lon="10.1660072">
                <ele>221.0</ele>
                <time>2020-08-23T07:55:43.000Z</time>
                <name>Trackpoint 1013</name>
            </trkpt>
            <trkpt lat="49.9776576" lon="10.1660568">
                <ele>221.0</ele>
                <time>2020-08-23T07:55:46.000Z</time>
                <name>Trackpoint 1014</name>
            </trkpt>
            <trkpt lat="49.9776128" lon="10.1662168">
                <ele>221.0</ele>
                <time>2020-08-23T07:55:51.000Z</time>
                <name>Trackpoint 1015</name>
            </trkpt>
            <trkpt lat="49.9775872" lon="10.1663104">
                <ele>221.0</ele>
                <time>2020-08-23T07:55:52.000Z</time>
                <name>Trackpoint 1016</name>
            </trkpt>
            <trkpt lat="49.9775936" lon="10.1664064">
                <ele>221.0</ele>
                <time>2020-08-23T07:55:53.000Z</time>
                <name>Trackpoint 1017</name>
            </trkpt>
            <trkpt lat="49.9776128" lon="10.1665752">
                <ele>221.0</ele>
                <time>2020-08-23T07:55:55.000Z</time>
                <name>Trackpoint 1018</name>
            </trkpt>
            <trkpt lat="49.9775936" lon="10.1667336">
                <ele>221.0</ele>
                <time>2020-08-23T07:55:56.000Z</time>
                <name>Trackpoint 1019</name>
            </trkpt>
            <trkpt lat="49.9775872" lon="10.1668504">
                <ele>221.0</ele>
                <time>2020-08-23T07:55:57.000Z</time>
                <name>Trackpoint 1020</name>
            </trkpt>
            <trkpt lat="49.9776032" lon="10.1669776">
                <ele>221.0</ele>
                <time>2020-08-23T07:55:58.000Z</time>
                <name>Trackpoint 1021</name>
            </trkpt>
            <trkpt lat="49.9776064" lon="10.1670904">
                <ele>221.0</ele>
                <time>2020-08-23T07:55:59.000Z</time>
                <name>Trackpoint 1022</name>
            </trkpt>
            <trkpt lat="49.977616" lon="10.1671864">
                <ele>221.0</ele>
                <time>2020-08-23T07:56:00.000Z</time>
                <name>Trackpoint 1023</name>
            </trkpt>
            <trkpt lat="49.9776256" lon="10.1672784">
                <ele>221.0</ele>
                <time>2020-08-23T07:56:01.000Z</time>
                <name>Trackpoint 1024</name>
            </trkpt>
            <trkpt lat="49.9776416" lon="10.1674472">
                <ele>221.0</ele>
                <time>2020-08-23T07:56:03.000Z</time>
                <name>Trackpoint 1025</name>
            </trkpt>
            <trkpt lat="49.9776576" lon="10.1675816">
                <ele>221.0</ele>
                <time>2020-08-23T07:56:05.000Z</time>
                <name>Trackpoint 1026</name>
            </trkpt>
            <trkpt lat="49.9776832" lon="10.1677448">
                <ele>221.0</ele>
                <time>2020-08-23T07:56:07.000Z</time>
                <name>Trackpoint 1027</name>
            </trkpt>
            <trkpt lat="49.977696" lon="10.16784">
                <ele>221.0</ele>
                <time>2020-08-23T07:56:08.000Z</time>
                <name>Trackpoint 1028</name>
            </trkpt>
            <trkpt lat="49.9777056" lon="10.1679384">
                <ele>221.0</ele>
                <time>2020-08-23T07:56:09.000Z</time>
                <name>Trackpoint 1029</name>
            </trkpt>
            <trkpt lat="49.9777248" lon="10.168052">
                <ele>221.0</ele>
                <time>2020-08-23T07:56:10.000Z</time>
                <name>Trackpoint 1030</name>
            </trkpt>
            <trkpt lat="49.9777408" lon="10.1681536">
                <ele>222.0</ele>
                <time>2020-08-23T07:56:11.000Z</time>
                <name>Trackpoint 1031</name>
            </trkpt>
            <trkpt lat="49.9777536" lon="10.1682504">
                <ele>222.0</ele>
                <time>2020-08-23T07:56:12.000Z</time>
                <name>Trackpoint 1032</name>
            </trkpt>
            <trkpt lat="49.9777536" lon="10.1683504">
                <ele>221.0</ele>
                <time>2020-08-23T07:56:13.000Z</time>
                <name>Trackpoint 1033</name>
            </trkpt>
            <trkpt lat="49.9777568" lon="10.1684464">
                <ele>221.0</ele>
                <time>2020-08-23T07:56:14.000Z</time>
                <name>Trackpoint 1034</name>
            </trkpt>
            <trkpt lat="49.9777728" lon="10.1685432">
                <ele>221.0</ele>
                <time>2020-08-23T07:56:15.000Z</time>
                <name>Trackpoint 1035</name>
            </trkpt>
            <trkpt lat="49.9777856" lon="10.1686424">
                <ele>221.0</ele>
                <time>2020-08-23T07:56:16.000Z</time>
                <name>Trackpoint 1036</name>
            </trkpt>
            <trkpt lat="49.9778048" lon="10.1687416">
                <ele>221.0</ele>
                <time>2020-08-23T07:56:17.000Z</time>
                <name>Trackpoint 1037</name>
            </trkpt>
            <trkpt lat="49.9778208" lon="10.1688448">
                <ele>221.0</ele>
                <time>2020-08-23T07:56:18.000Z</time>
                <name>Trackpoint 1038</name>
            </trkpt>
            <trkpt lat="49.97784" lon="10.1689552">
                <ele>221.0</ele>
                <time>2020-08-23T07:56:19.000Z</time>
                <name>Trackpoint 1039</name>
            </trkpt>
            <trkpt lat="49.9778592" lon="10.16906">
                <ele>221.0</ele>
                <time>2020-08-23T07:56:20.000Z</time>
                <name>Trackpoint 1040</name>
            </trkpt>
            <trkpt lat="49.9778752" lon="10.1691552">
                <ele>221.0</ele>
                <time>2020-08-23T07:56:21.000Z</time>
                <name>Trackpoint 1041</name>
            </trkpt>
            <trkpt lat="49.9778944" lon="10.1692448">
                <ele>221.0</ele>
                <time>2020-08-23T07:56:22.000Z</time>
                <name>Trackpoint 1042</name>
            </trkpt>
            <trkpt lat="49.9779104" lon="10.1693352">
                <ele>221.0</ele>
                <time>2020-08-23T07:56:23.000Z</time>
                <name>Trackpoint 1043</name>
            </trkpt>
            <trkpt lat="49.9779328" lon="10.1694984">
                <ele>221.0</ele>
                <time>2020-08-23T07:56:25.000Z</time>
                <name>Trackpoint 1044</name>
            </trkpt>
            <trkpt lat="49.9779488" lon="10.1695872">
                <ele>221.0</ele>
                <time>2020-08-23T07:56:26.000Z</time>
                <name>Trackpoint 1045</name>
            </trkpt>
            <trkpt lat="49.9779744" lon="10.1697616">
                <ele>221.0</ele>
                <time>2020-08-23T07:56:28.000Z</time>
                <name>Trackpoint 1046</name>
            </trkpt>
            <trkpt lat="49.977984" lon="10.16992">
                <ele>221.0</ele>
                <time>2020-08-23T07:56:30.000Z</time>
                <name>Trackpoint 1047</name>
            </trkpt>
            <trkpt lat="49.9779808" lon="10.1700896">
                <ele>221.0</ele>
                <time>2020-08-23T07:56:32.000Z</time>
                <name>Trackpoint 1048</name>
            </trkpt>
            <trkpt lat="49.9779712" lon="10.1702448">
                <ele>221.0</ele>
                <time>2020-08-23T07:56:34.000Z</time>
                <name>Trackpoint 1049</name>
            </trkpt>
            <trkpt lat="49.9779616" lon="10.1703952">
                <ele>221.0</ele>
                <time>2020-08-23T07:56:36.000Z</time>
                <name>Trackpoint 1050</name>
            </trkpt>
            <trkpt lat="49.9779744" lon="10.1705648">
                <ele>221.0</ele>
                <time>2020-08-23T07:56:38.000Z</time>
                <name>Trackpoint 1051</name>
            </trkpt>
            <trkpt lat="49.9779936" lon="10.170656">
                <ele>221.0</ele>
                <time>2020-08-23T07:56:39.000Z</time>
                <name>Trackpoint 1052</name>
            </trkpt>
            <trkpt lat="49.978016" lon="10.1707488">
                <ele>221.0</ele>
                <time>2020-08-23T07:56:40.000Z</time>
                <name>Trackpoint 1053</name>
            </trkpt>
            <trkpt lat="49.9780352" lon="10.1708448">
                <ele>221.0</ele>
                <time>2020-08-23T07:56:41.000Z</time>
                <name>Trackpoint 1054</name>
            </trkpt>
            <trkpt lat="49.9780512" lon="10.17094">
                <ele>221.0</ele>
                <time>2020-08-23T07:56:42.000Z</time>
                <name>Trackpoint 1055</name>
            </trkpt>
            <trkpt lat="49.9780576" lon="10.1710416">
                <ele>221.0</ele>
                <time>2020-08-23T07:56:43.000Z</time>
                <name>Trackpoint 1056</name>
            </trkpt>
            <trkpt lat="49.9780608" lon="10.17114">
                <ele>221.0</ele>
                <time>2020-08-23T07:56:44.000Z</time>
                <name>Trackpoint 1057</name>
            </trkpt>
            <trkpt lat="49.9780704" lon="10.1712376">
                <ele>221.0</ele>
                <time>2020-08-23T07:56:45.000Z</time>
                <name>Trackpoint 1058</name>
            </trkpt>
            <trkpt lat="49.9780704" lon="10.1713368">
                <ele>221.0</ele>
                <time>2020-08-23T07:56:46.000Z</time>
                <name>Trackpoint 1059</name>
            </trkpt>
            <trkpt lat="49.9780736" lon="10.1714296">
                <ele>221.0</ele>
                <time>2020-08-23T07:56:47.000Z</time>
                <name>Trackpoint 1060</name>
            </trkpt>
            <trkpt lat="49.9780768" lon="10.1715224">
                <ele>221.0</ele>
                <time>2020-08-23T07:56:48.000Z</time>
                <name>Trackpoint 1061</name>
            </trkpt>
            <trkpt lat="49.9780832" lon="10.1716144">
                <ele>221.0</ele>
                <time>2020-08-23T07:56:49.000Z</time>
                <name>Trackpoint 1062</name>
            </trkpt>
            <trkpt lat="49.97808" lon="10.171712">
                <ele>221.0</ele>
                <time>2020-08-23T07:56:50.000Z</time>
                <name>Trackpoint 1063</name>
            </trkpt>
            <trkpt lat="49.9780832" lon="10.1718168">
                <ele>221.0</ele>
                <time>2020-08-23T07:56:51.000Z</time>
                <name>Trackpoint 1064</name>
            </trkpt>
            <trkpt lat="49.9780896" lon="10.1719264">
                <ele>220.0</ele>
                <time>2020-08-23T07:56:52.000Z</time>
                <name>Trackpoint 1065</name>
            </trkpt>
            <trkpt lat="49.9780992" lon="10.1720288">
                <ele>220.0</ele>
                <time>2020-08-23T07:56:53.000Z</time>
                <name>Trackpoint 1066</name>
            </trkpt>
            <trkpt lat="49.9781184" lon="10.1721264">
                <ele>220.0</ele>
                <time>2020-08-23T07:56:54.000Z</time>
                <name>Trackpoint 1067</name>
            </trkpt>
            <trkpt lat="49.9781312" lon="10.1722232">
                <ele>220.0</ele>
                <time>2020-08-23T07:56:55.000Z</time>
                <name>Trackpoint 1068</name>
            </trkpt>
            <trkpt lat="49.9781408" lon="10.1723248">
                <ele>220.0</ele>
                <time>2020-08-23T07:56:56.000Z</time>
                <name>Trackpoint 1069</name>
            </trkpt>
            <trkpt lat="49.9781568" lon="10.1724256">
                <ele>220.0</ele>
                <time>2020-08-23T07:56:57.000Z</time>
                <name>Trackpoint 1070</name>
            </trkpt>
            <trkpt lat="49.9781792" lon="10.1725256">
                <ele>220.0</ele>
                <time>2020-08-23T07:56:58.000Z</time>
                <name>Trackpoint 1071</name>
            </trkpt>
            <trkpt lat="49.978192" lon="10.1726264">
                <ele>220.0</ele>
                <time>2020-08-23T07:56:59.000Z</time>
                <name>Trackpoint 1072</name>
            </trkpt>
            <trkpt lat="49.9782016" lon="10.1727288">
                <ele>220.0</ele>
                <time>2020-08-23T07:57:00.000Z</time>
                <name>Trackpoint 1073</name>
            </trkpt>
            <trkpt lat="49.9782368" lon="10.1729088">
                <ele>220.0</ele>
                <time>2020-08-23T07:57:02.000Z</time>
                <name>Trackpoint 1074</name>
            </trkpt>
            <trkpt lat="49.9782528" lon="10.1729984">
                <ele>220.0</ele>
                <time>2020-08-23T07:57:03.000Z</time>
                <name>Trackpoint 1075</name>
            </trkpt>
            <trkpt lat="49.978272" lon="10.1731504">
                <ele>220.0</ele>
                <time>2020-08-23T07:57:05.000Z</time>
                <name>Trackpoint 1076</name>
            </trkpt>
            <trkpt lat="49.9782752" lon="10.1732848">
                <ele>220.0</ele>
                <time>2020-08-23T07:57:07.000Z</time>
                <name>Trackpoint 1077</name>
            </trkpt>
            <trkpt lat="49.978272" lon="10.1734512">
                <ele>219.0</ele>
                <time>2020-08-23T07:57:09.000Z</time>
                <name>Trackpoint 1078</name>
            </trkpt>
            <trkpt lat="49.9782208" lon="10.1736096">
                <ele>219.0</ele>
                <time>2020-08-23T07:57:11.000Z</time>
                <name>Trackpoint 1079</name>
            </trkpt>
            <trkpt lat="49.9781408" lon="10.1737344">
                <ele>218.0</ele>
                <time>2020-08-23T07:57:13.000Z</time>
                <name>Trackpoint 1080</name>
            </trkpt>
            <trkpt lat="49.9780608" lon="10.1738232">
                <ele>218.0</ele>
                <time>2020-08-23T07:57:15.000Z</time>
                <name>Trackpoint 1081</name>
            </trkpt>
            <trkpt lat="49.9779488" lon="10.1738864">
                <ele>218.0</ele>
                <time>2020-08-23T07:57:17.000Z</time>
                <name>Trackpoint 1082</name>
            </trkpt>
            <trkpt lat="49.9778208" lon="10.1739264">
                <ele>218.0</ele>
                <time>2020-08-23T07:57:19.000Z</time>
                <name>Trackpoint 1083</name>
            </trkpt>
            <trkpt lat="49.9776864" lon="10.17398">
                <ele>217.0</ele>
                <time>2020-08-23T07:57:21.000Z</time>
                <name>Trackpoint 1084</name>
            </trkpt>
            <trkpt lat="49.9775456" lon="10.1740016">
                <ele>218.0</ele>
                <time>2020-08-23T07:57:23.000Z</time>
                <name>Trackpoint 1085</name>
            </trkpt>
            <trkpt lat="49.9774176" lon="10.1740312">
                <ele>217.0</ele>
                <time>2020-08-23T07:57:25.000Z</time>
                <name>Trackpoint 1086</name>
            </trkpt>
            <trkpt lat="49.9772864" lon="10.174064">
                <ele>217.0</ele>
                <time>2020-08-23T07:57:27.000Z</time>
                <name>Trackpoint 1087</name>
            </trkpt>
            <trkpt lat="49.9771648" lon="10.1740888">
                <ele>217.0</ele>
                <time>2020-08-23T07:57:29.000Z</time>
                <name>Trackpoint 1088</name>
            </trkpt>
            <trkpt lat="49.97704" lon="10.1741">
                <ele>217.0</ele>
                <time>2020-08-23T07:57:31.000Z</time>
                <name>Trackpoint 1089</name>
            </trkpt>
            <trkpt lat="49.976912" lon="10.1741048">
                <ele>217.0</ele>
                <time>2020-08-23T07:57:33.000Z</time>
                <name>Trackpoint 1090</name>
            </trkpt>
            <trkpt lat="49.9767872" lon="10.1741048">
                <ele>217.0</ele>
                <time>2020-08-23T07:57:35.000Z</time>
                <name>Trackpoint 1091</name>
            </trkpt>
            <trkpt lat="49.9766656" lon="10.1740968">
                <ele>217.0</ele>
                <time>2020-08-23T07:57:37.000Z</time>
                <name>Trackpoint 1092</name>
            </trkpt>
            <trkpt lat="49.976544" lon="10.174084">
                <ele>217.0</ele>
                <time>2020-08-23T07:57:39.000Z</time>
                <name>Trackpoint 1093</name>
            </trkpt>
            <trkpt lat="49.9764288" lon="10.1740736">
                <ele>216.0</ele>
                <time>2020-08-23T07:57:41.000Z</time>
                <name>Trackpoint 1094</name>
            </trkpt>
            <trkpt lat="49.9763168" lon="10.1740504">
                <ele>217.0</ele>
                <time>2020-08-23T07:57:43.000Z</time>
                <name>Trackpoint 1095</name>
            </trkpt>
            <trkpt lat="49.9762112" lon="10.17402">
                <ele>216.0</ele>
                <time>2020-08-23T07:57:45.000Z</time>
                <name>Trackpoint 1096</name>
            </trkpt>
            <trkpt lat="49.9761088" lon="10.1739904">
                <ele>216.0</ele>
                <time>2020-08-23T07:57:47.000Z</time>
                <name>Trackpoint 1097</name>
            </trkpt>
            <trkpt lat="49.9760032" lon="10.1739584">
                <ele>216.0</ele>
                <time>2020-08-23T07:57:49.000Z</time>
                <name>Trackpoint 1098</name>
            </trkpt>
            <trkpt lat="49.975888" lon="10.1739304">
                <ele>216.0</ele>
                <time>2020-08-23T07:57:51.000Z</time>
                <name>Trackpoint 1099</name>
            </trkpt>
            <trkpt lat="49.9757856" lon="10.173908">
                <ele>216.0</ele>
                <time>2020-08-23T07:57:53.000Z</time>
                <name>Trackpoint 1100</name>
            </trkpt>
            <trkpt lat="49.9756864" lon="10.1738928">
                <ele>215.0</ele>
                <time>2020-08-23T07:57:55.000Z</time>
                <name>Trackpoint 1101</name>
            </trkpt>
            <trkpt lat="49.9755776" lon="10.1738832">
                <ele>215.0</ele>
                <time>2020-08-23T07:57:57.000Z</time>
                <name>Trackpoint 1102</name>
            </trkpt>
            <trkpt lat="49.9754784" lon="10.17388">
                <ele>215.0</ele>
                <time>2020-08-23T07:57:59.000Z</time>
                <name>Trackpoint 1103</name>
            </trkpt>
            <trkpt lat="49.9753632" lon="10.1738504">
                <ele>215.0</ele>
                <time>2020-08-23T07:58:02.000Z</time>
                <name>Trackpoint 1104</name>
            </trkpt>
            <trkpt lat="49.9752512" lon="10.173868">
                <ele>215.0</ele>
                <time>2020-08-23T07:58:41.000Z</time>
                <name>Trackpoint 1105</name>
            </trkpt>
            <trkpt lat="49.975152" lon="10.173892">
                <ele>215.0</ele>
                <time>2020-08-23T07:58:44.000Z</time>
                <name>Trackpoint 1106</name>
            </trkpt>
            <trkpt lat="49.9750368" lon="10.1739232">
                <ele>215.0</ele>
                <time>2020-08-23T07:58:47.000Z</time>
                <name>Trackpoint 1107</name>
            </trkpt>
            <trkpt lat="49.974912" lon="10.173948">
                <ele>215.0</ele>
                <time>2020-08-23T07:58:50.000Z</time>
                <name>Trackpoint 1108</name>
            </trkpt>
            <trkpt lat="49.9747808" lon="10.1739768">
                <ele>215.0</ele>
                <time>2020-08-23T07:58:53.000Z</time>
                <name>Trackpoint 1109</name>
            </trkpt>
            <trkpt lat="49.9746944" lon="10.1740048">
                <ele>215.0</ele>
                <time>2020-08-23T07:58:55.000Z</time>
                <name>Trackpoint 1110</name>
            </trkpt>
            <trkpt lat="49.9745728" lon="10.1740168">
                <ele>215.0</ele>
                <time>2020-08-23T07:58:58.000Z</time>
                <name>Trackpoint 1111</name>
            </trkpt>
            <trkpt lat="49.9744768" lon="10.1740128">
                <ele>215.0</ele>
                <time>2020-08-23T07:59:00.000Z</time>
                <name>Trackpoint 1112</name>
            </trkpt>
            <trkpt lat="49.9743744" lon="10.174028">
                <ele>215.0</ele>
                <time>2020-08-23T07:59:02.000Z</time>
                <name>Trackpoint 1113</name>
            </trkpt>
            <trkpt lat="49.9742624" lon="10.174024">
                <ele>215.0</ele>
                <time>2020-08-23T07:59:04.000Z</time>
                <name>Trackpoint 1114</name>
            </trkpt>
            <trkpt lat="49.9741472" lon="10.1740152">
                <ele>215.0</ele>
                <time>2020-08-23T07:59:06.000Z</time>
                <name>Trackpoint 1115</name>
            </trkpt>
            <trkpt lat="49.974048" lon="10.1740304">
                <ele>215.0</ele>
                <time>2020-08-23T07:59:08.000Z</time>
                <name>Trackpoint 1116</name>
            </trkpt>
            <trkpt lat="49.9739456" lon="10.1740352">
                <ele>215.0</ele>
                <time>2020-08-23T07:59:10.000Z</time>
                <name>Trackpoint 1117</name>
            </trkpt>
            <trkpt lat="49.9738528" lon="10.1740504">
                <ele>215.0</ele>
                <time>2020-08-23T07:59:12.000Z</time>
                <name>Trackpoint 1118</name>
            </trkpt>
            <trkpt lat="49.9737216" lon="10.1740312">
                <ele>215.0</ele>
                <time>2020-08-23T07:59:15.000Z</time>
                <name>Trackpoint 1119</name>
            </trkpt>
            <trkpt lat="49.9736288" lon="10.173988">
                <ele>215.0</ele>
                <time>2020-08-23T07:59:17.000Z</time>
                <name>Trackpoint 1120</name>
            </trkpt>
            <trkpt lat="49.9735328" lon="10.1739256">
                <ele>215.0</ele>
                <time>2020-08-23T07:59:19.000Z</time>
                <name>Trackpoint 1121</name>
            </trkpt>
            <trkpt lat="49.9734464" lon="10.1738552">
                <ele>215.0</ele>
                <time>2020-08-23T07:59:21.000Z</time>
                <name>Trackpoint 1122</name>
            </trkpt>
            <trkpt lat="49.9733536" lon="10.1738184">
                <ele>214.0</ele>
                <time>2020-08-23T07:59:23.000Z</time>
                <name>Trackpoint 1123</name>
            </trkpt>
            <trkpt lat="49.9732672" lon="10.1737736">
                <ele>214.0</ele>
                <time>2020-08-23T07:59:25.000Z</time>
                <name>Trackpoint 1124</name>
            </trkpt>
            <trkpt lat="49.9731872" lon="10.17372">
                <ele>214.0</ele>
                <time>2020-08-23T07:59:27.000Z</time>
                <name>Trackpoint 1125</name>
            </trkpt>
            <trkpt lat="49.9730944" lon="10.1736432">
                <ele>214.0</ele>
                <time>2020-08-23T07:59:29.000Z</time>
                <name>Trackpoint 1126</name>
            </trkpt>
            <trkpt lat="49.973008" lon="10.173592">
                <ele>214.0</ele>
                <time>2020-08-23T07:59:31.000Z</time>
                <name>Trackpoint 1127</name>
            </trkpt>
            <trkpt lat="49.97288" lon="10.1735264">
                <ele>214.0</ele>
                <time>2020-08-23T07:59:34.000Z</time>
                <name>Trackpoint 1128</name>
            </trkpt>
            <trkpt lat="49.9727744" lon="10.1734616">
                <ele>214.0</ele>
                <time>2020-08-23T07:59:36.000Z</time>
                <name>Trackpoint 1129</name>
            </trkpt>
            <trkpt lat="49.9726496" lon="10.1733712">
                <ele>214.0</ele>
                <time>2020-08-23T07:59:38.000Z</time>
                <name>Trackpoint 1130</name>
            </trkpt>
            <trkpt lat="49.9725472" lon="10.1733168">
                <ele>214.0</ele>
                <time>2020-08-23T07:59:40.000Z</time>
                <name>Trackpoint 1131</name>
            </trkpt>
            <trkpt lat="49.972448" lon="10.1732568">
                <ele>214.0</ele>
                <time>2020-08-23T07:59:42.000Z</time>
                <name>Trackpoint 1132</name>
            </trkpt>
            <trkpt lat="49.9723488" lon="10.1731816">
                <ele>214.0</ele>
                <time>2020-08-23T07:59:44.000Z</time>
                <name>Trackpoint 1133</name>
            </trkpt>
            <trkpt lat="49.9722528" lon="10.1731264">
                <ele>214.0</ele>
                <time>2020-08-23T07:59:46.000Z</time>
                <name>Trackpoint 1134</name>
            </trkpt>
            <trkpt lat="49.9721536" lon="10.1731008">
                <ele>214.0</ele>
                <time>2020-08-23T07:59:48.000Z</time>
                <name>Trackpoint 1135</name>
            </trkpt>
            <trkpt lat="49.9720544" lon="10.1731032">
                <ele>214.0</ele>
                <time>2020-08-23T07:59:50.000Z</time>
                <name>Trackpoint 1136</name>
            </trkpt>
            <trkpt lat="49.97192" lon="10.1730616">
                <ele>213.0</ele>
                <time>2020-08-23T07:59:53.000Z</time>
                <name>Trackpoint 1137</name>
            </trkpt>
            <trkpt lat="49.9718368" lon="10.1730232">
                <ele>213.0</ele>
                <time>2020-08-23T07:59:55.000Z</time>
                <name>Trackpoint 1138</name>
            </trkpt>
            <trkpt lat="49.9717376" lon="10.17298">
                <ele>213.0</ele>
                <time>2020-08-23T07:59:57.000Z</time>
                <name>Trackpoint 1139</name>
            </trkpt>
            <trkpt lat="49.9716352" lon="10.1729384">
                <ele>213.0</ele>
                <time>2020-08-23T07:59:59.000Z</time>
                <name>Trackpoint 1140</name>
            </trkpt>
            <trkpt lat="49.97152" lon="10.1728952">
                <ele>213.0</ele>
                <time>2020-08-23T08:00:01.000Z</time>
                <name>Trackpoint 1141</name>
            </trkpt>
            <trkpt lat="49.9714176" lon="10.1728552">
                <ele>213.0</ele>
                <time>2020-08-23T08:00:03.000Z</time>
                <name>Trackpoint 1142</name>
            </trkpt>
            <trkpt lat="49.9713056" lon="10.1728">
                <ele>213.0</ele>
                <time>2020-08-23T08:00:05.000Z</time>
                <name>Trackpoint 1143</name>
            </trkpt>
            <trkpt lat="49.9711776" lon="10.1727536">
                <ele>212.0</ele>
                <time>2020-08-23T08:00:07.000Z</time>
                <name>Trackpoint 1144</name>
            </trkpt>
            <trkpt lat="49.9710592" lon="10.1727216">
                <ele>212.0</ele>
                <time>2020-08-23T08:00:09.000Z</time>
                <name>Trackpoint 1145</name>
            </trkpt>
            <trkpt lat="49.9709536" lon="10.1726864">
                <ele>211.0</ele>
                <time>2020-08-23T08:00:11.000Z</time>
                <name>Trackpoint 1146</name>
            </trkpt>
            <trkpt lat="49.9708544" lon="10.17264">
                <ele>210.0</ele>
                <time>2020-08-23T08:00:13.000Z</time>
                <name>Trackpoint 1147</name>
            </trkpt>
            <trkpt lat="49.970752" lon="10.1726064">
                <ele>209.0</ele>
                <time>2020-08-23T08:00:15.000Z</time>
                <name>Trackpoint 1148</name>
            </trkpt>
            <trkpt lat="49.9706528" lon="10.172568">
                <ele>208.0</ele>
                <time>2020-08-23T08:00:17.000Z</time>
                <name>Trackpoint 1149</name>
            </trkpt>
            <trkpt lat="49.9705568" lon="10.1725384">
                <ele>208.0</ele>
                <time>2020-08-23T08:00:19.000Z</time>
                <name>Trackpoint 1150</name>
            </trkpt>
            <trkpt lat="49.9704544" lon="10.1725016">
                <ele>207.0</ele>
                <time>2020-08-23T08:00:21.000Z</time>
                <name>Trackpoint 1151</name>
            </trkpt>
            <trkpt lat="49.970352" lon="10.1724656">
                <ele>207.0</ele>
                <time>2020-08-23T08:00:23.000Z</time>
                <name>Trackpoint 1152</name>
            </trkpt>
            <trkpt lat="49.9702496" lon="10.1724352">
                <ele>206.0</ele>
                <time>2020-08-23T08:00:25.000Z</time>
                <name>Trackpoint 1153</name>
            </trkpt>
            <trkpt lat="49.9701408" lon="10.1724064">
                <ele>206.0</ele>
                <time>2020-08-23T08:00:27.000Z</time>
                <name>Trackpoint 1154</name>
            </trkpt>
            <trkpt lat="49.9700384" lon="10.1723744">
                <ele>206.0</ele>
                <time>2020-08-23T08:00:29.000Z</time>
                <name>Trackpoint 1155</name>
            </trkpt>
            <trkpt lat="49.969936" lon="10.1723448">
                <ele>206.0</ele>
                <time>2020-08-23T08:00:31.000Z</time>
                <name>Trackpoint 1156</name>
            </trkpt>
            <trkpt lat="49.9698304" lon="10.1723136">
                <ele>206.0</ele>
                <time>2020-08-23T08:00:33.000Z</time>
                <name>Trackpoint 1157</name>
            </trkpt>
            <trkpt lat="49.969728" lon="10.1722832">
                <ele>206.0</ele>
                <time>2020-08-23T08:00:35.000Z</time>
                <name>Trackpoint 1158</name>
            </trkpt>
            <trkpt lat="49.969616" lon="10.1722416">
                <ele>206.0</ele>
                <time>2020-08-23T08:00:37.000Z</time>
                <name>Trackpoint 1159</name>
            </trkpt>
            <trkpt lat="49.9695104" lon="10.1722096">
                <ele>206.0</ele>
                <time>2020-08-23T08:00:39.000Z</time>
                <name>Trackpoint 1160</name>
            </trkpt>
            <trkpt lat="49.9694048" lon="10.1721888">
                <ele>206.0</ele>
                <time>2020-08-23T08:00:41.000Z</time>
                <name>Trackpoint 1161</name>
            </trkpt>
            <trkpt lat="49.9693024" lon="10.1721648">
                <ele>206.0</ele>
                <time>2020-08-23T08:00:43.000Z</time>
                <name>Trackpoint 1162</name>
            </trkpt>
            <trkpt lat="49.9692" lon="10.17214">
                <ele>206.0</ele>
                <time>2020-08-23T08:00:45.000Z</time>
                <name>Trackpoint 1163</name>
            </trkpt>
            <trkpt lat="49.9690976" lon="10.1721112">
                <ele>206.0</ele>
                <time>2020-08-23T08:00:47.000Z</time>
                <name>Trackpoint 1164</name>
            </trkpt>
            <trkpt lat="49.9689888" lon="10.17208">
                <ele>206.0</ele>
                <time>2020-08-23T08:00:49.000Z</time>
                <name>Trackpoint 1165</name>
            </trkpt>
            <trkpt lat="49.9688864" lon="10.1720536">
                <ele>206.0</ele>
                <time>2020-08-23T08:00:51.000Z</time>
                <name>Trackpoint 1166</name>
            </trkpt>
            <trkpt lat="49.9687872" lon="10.1720304">
                <ele>206.0</ele>
                <time>2020-08-23T08:00:53.000Z</time>
                <name>Trackpoint 1167</name>
            </trkpt>
            <trkpt lat="49.9686912" lon="10.1720088">
                <ele>206.0</ele>
                <time>2020-08-23T08:00:55.000Z</time>
                <name>Trackpoint 1168</name>
            </trkpt>
            <trkpt lat="49.9686016" lon="10.171984">
                <ele>206.0</ele>
                <time>2020-08-23T08:00:57.000Z</time>
                <name>Trackpoint 1169</name>
            </trkpt>
            <trkpt lat="49.968512" lon="10.1719712">
                <ele>206.0</ele>
                <time>2020-08-23T08:00:59.000Z</time>
                <name>Trackpoint 1170</name>
            </trkpt>
            <trkpt lat="49.9684224" lon="10.1719864">
                <ele>206.0</ele>
                <time>2020-08-23T08:01:01.000Z</time>
                <name>Trackpoint 1171</name>
            </trkpt>
            <trkpt lat="49.9683296" lon="10.1719912">
                <ele>206.0</ele>
                <time>2020-08-23T08:01:03.000Z</time>
                <name>Trackpoint 1172</name>
            </trkpt>
            <trkpt lat="49.9682336" lon="10.17196">
                <ele>206.0</ele>
                <time>2020-08-23T08:01:05.000Z</time>
                <name>Trackpoint 1173</name>
            </trkpt>
            <trkpt lat="49.968144" lon="10.171924">
                <ele>206.0</ele>
                <time>2020-08-23T08:01:07.000Z</time>
                <name>Trackpoint 1174</name>
            </trkpt>
            <trkpt lat="49.9680448" lon="10.1718928">
                <ele>206.0</ele>
                <time>2020-08-23T08:01:09.000Z</time>
                <name>Trackpoint 1175</name>
            </trkpt>
            <trkpt lat="49.967936" lon="10.1718752">
                <ele>206.0</ele>
                <time>2020-08-23T08:01:11.000Z</time>
                <name>Trackpoint 1176</name>
            </trkpt>
            <trkpt lat="49.9678272" lon="10.1718632">
                <ele>206.0</ele>
                <time>2020-08-23T08:01:13.000Z</time>
                <name>Trackpoint 1177</name>
            </trkpt>
            <trkpt lat="49.9677248" lon="10.1718264">
                <ele>206.0</ele>
                <time>2020-08-23T08:01:15.000Z</time>
                <name>Trackpoint 1178</name>
            </trkpt>
            <trkpt lat="49.9676032" lon="10.1718152">
                <ele>206.0</ele>
                <time>2020-08-23T08:01:18.000Z</time>
                <name>Trackpoint 1179</name>
            </trkpt>
            <trkpt lat="49.967472" lon="10.1717968">
                <ele>206.0</ele>
                <time>2020-08-23T08:01:21.000Z</time>
                <name>Trackpoint 1180</name>
            </trkpt>
            <trkpt lat="49.9673728" lon="10.1717752">
                <ele>206.0</ele>
                <time>2020-08-23T08:01:23.000Z</time>
                <name>Trackpoint 1181</name>
            </trkpt>
            <trkpt lat="49.9672704" lon="10.1717656">
                <ele>206.0</ele>
                <time>2020-08-23T08:01:25.000Z</time>
                <name>Trackpoint 1182</name>
            </trkpt>
            <trkpt lat="49.9671744" lon="10.171748">
                <ele>206.0</ele>
                <time>2020-08-23T08:01:27.000Z</time>
                <name>Trackpoint 1183</name>
            </trkpt>
            <trkpt lat="49.9670752" lon="10.171732">
                <ele>206.0</ele>
                <time>2020-08-23T08:01:29.000Z</time>
                <name>Trackpoint 1184</name>
            </trkpt>
            <trkpt lat="49.9669728" lon="10.171708">
                <ele>206.0</ele>
                <time>2020-08-23T08:01:31.000Z</time>
                <name>Trackpoint 1185</name>
            </trkpt>
            <trkpt lat="49.9668768" lon="10.1716968">
                <ele>206.0</ele>
                <time>2020-08-23T08:01:33.000Z</time>
                <name>Trackpoint 1186</name>
            </trkpt>
            <trkpt lat="49.966784" lon="10.1716808">
                <ele>206.0</ele>
                <time>2020-08-23T08:01:35.000Z</time>
                <name>Trackpoint 1187</name>
            </trkpt>
            <trkpt lat="49.9666912" lon="10.1716608">
                <ele>206.0</ele>
                <time>2020-08-23T08:01:37.000Z</time>
                <name>Trackpoint 1188</name>
            </trkpt>
            <trkpt lat="49.9665952" lon="10.1716432">
                <ele>206.0</ele>
                <time>2020-08-23T08:01:39.000Z</time>
                <name>Trackpoint 1189</name>
            </trkpt>
            <trkpt lat="49.966496" lon="10.1716248">
                <ele>206.0</ele>
                <time>2020-08-23T08:01:41.000Z</time>
                <name>Trackpoint 1190</name>
            </trkpt>
            <trkpt lat="49.9663968" lon="10.1716072">
                <ele>206.0</ele>
                <time>2020-08-23T08:01:43.000Z</time>
                <name>Trackpoint 1191</name>
            </trkpt>
            <trkpt lat="49.9663008" lon="10.1715848">
                <ele>206.0</ele>
                <time>2020-08-23T08:01:45.000Z</time>
                <name>Trackpoint 1192</name>
            </trkpt>
            <trkpt lat="49.966208" lon="10.1715696">
                <ele>206.0</ele>
                <time>2020-08-23T08:01:47.000Z</time>
                <name>Trackpoint 1193</name>
            </trkpt>
            <trkpt lat="49.9660832" lon="10.1715568">
                <ele>206.0</ele>
                <time>2020-08-23T08:01:50.000Z</time>
                <name>Trackpoint 1194</name>
            </trkpt>
            <trkpt lat="49.9659904" lon="10.171548">
                <ele>206.0</ele>
                <time>2020-08-23T08:01:52.000Z</time>
                <name>Trackpoint 1195</name>
            </trkpt>
            <trkpt lat="49.9658976" lon="10.171532">
                <ele>206.0</ele>
                <time>2020-08-23T08:01:54.000Z</time>
                <name>Trackpoint 1196</name>
            </trkpt>
            <trkpt lat="49.965808" lon="10.17152">
                <ele>206.0</ele>
                <time>2020-08-23T08:01:56.000Z</time>
                <name>Trackpoint 1197</name>
            </trkpt>
            <trkpt lat="49.96568" lon="10.171512">
                <ele>207.0</ele>
                <time>2020-08-23T08:01:59.000Z</time>
                <name>Trackpoint 1198</name>
            </trkpt>
            <trkpt lat="49.965568" lon="10.1715152">
                <ele>207.0</ele>
                <time>2020-08-23T08:02:02.000Z</time>
                <name>Trackpoint 1199</name>
            </trkpt>
            <trkpt lat="49.9654528" lon="10.17152">
                <ele>207.0</ele>
                <time>2020-08-23T08:02:05.000Z</time>
                <name>Trackpoint 1200</name>
            </trkpt>
            <trkpt lat="49.9653216" lon="10.17152">
                <ele>207.0</ele>
                <time>2020-08-23T08:02:08.000Z</time>
                <name>Trackpoint 1201</name>
            </trkpt>
            <trkpt lat="49.9652224" lon="10.17152">
                <ele>207.0</ele>
                <time>2020-08-23T08:02:10.000Z</time>
                <name>Trackpoint 1202</name>
            </trkpt>
            <trkpt lat="49.9651232" lon="10.1715368">
                <ele>207.0</ele>
                <time>2020-08-23T08:02:12.000Z</time>
                <name>Trackpoint 1203</name>
            </trkpt>
            <trkpt lat="49.9650144" lon="10.1715472">
                <ele>207.0</ele>
                <time>2020-08-23T08:02:14.000Z</time>
                <name>Trackpoint 1204</name>
            </trkpt>
            <trkpt lat="49.9649056" lon="10.171552">
                <ele>207.0</ele>
                <time>2020-08-23T08:02:16.000Z</time>
                <name>Trackpoint 1205</name>
            </trkpt>
            <trkpt lat="49.9647968" lon="10.1715632">
                <ele>207.0</ele>
                <time>2020-08-23T08:02:18.000Z</time>
                <name>Trackpoint 1206</name>
            </trkpt>
            <trkpt lat="49.9646848" lon="10.1715784">
                <ele>207.0</ele>
                <time>2020-08-23T08:02:20.000Z</time>
                <name>Trackpoint 1207</name>
            </trkpt>
            <trkpt lat="49.9645664" lon="10.171592">
                <ele>206.0</ele>
                <time>2020-08-23T08:02:22.000Z</time>
                <name>Trackpoint 1208</name>
            </trkpt>
            <trkpt lat="49.9644512" lon="10.1716184">
                <ele>206.0</ele>
                <time>2020-08-23T08:02:24.000Z</time>
                <name>Trackpoint 1209</name>
            </trkpt>
            <trkpt lat="49.9643328" lon="10.1716544">
                <ele>207.0</ele>
                <time>2020-08-23T08:02:26.000Z</time>
                <name>Trackpoint 1210</name>
            </trkpt>
            <trkpt lat="49.9642112" lon="10.1716784">
                <ele>208.0</ele>
                <time>2020-08-23T08:02:28.000Z</time>
                <name>Trackpoint 1211</name>
            </trkpt>
            <trkpt lat="49.9640896" lon="10.1717104">
                <ele>208.0</ele>
                <time>2020-08-23T08:02:30.000Z</time>
                <name>Trackpoint 1212</name>
            </trkpt>
            <trkpt lat="49.9639712" lon="10.171748">
                <ele>209.0</ele>
                <time>2020-08-23T08:02:32.000Z</time>
                <name>Trackpoint 1213</name>
            </trkpt>
            <trkpt lat="49.96384" lon="10.1717856">
                <ele>211.0</ele>
                <time>2020-08-23T08:02:34.000Z</time>
                <name>Trackpoint 1214</name>
            </trkpt>
            <trkpt lat="49.9637152" lon="10.1718168">
                <ele>212.0</ele>
                <time>2020-08-23T08:02:36.000Z</time>
                <name>Trackpoint 1215</name>
            </trkpt>
            <trkpt lat="49.9635872" lon="10.1718504">
                <ele>212.0</ele>
                <time>2020-08-23T08:02:38.000Z</time>
                <name>Trackpoint 1216</name>
            </trkpt>
            <trkpt lat="49.9634656" lon="10.1718832">
                <ele>211.0</ele>
                <time>2020-08-23T08:02:40.000Z</time>
                <name>Trackpoint 1217</name>
            </trkpt>
            <trkpt lat="49.963344" lon="10.17192">
                <ele>210.0</ele>
                <time>2020-08-23T08:02:42.000Z</time>
                <name>Trackpoint 1218</name>
            </trkpt>
            <trkpt lat="49.9632224" lon="10.1719568">
                <ele>210.0</ele>
                <time>2020-08-23T08:02:44.000Z</time>
                <name>Trackpoint 1219</name>
            </trkpt>
            <trkpt lat="49.9631008" lon="10.1719912">
                <ele>208.0</ele>
                <time>2020-08-23T08:02:46.000Z</time>
                <name>Trackpoint 1220</name>
            </trkpt>
            <trkpt lat="49.9629792" lon="10.1720248">
                <ele>207.0</ele>
                <time>2020-08-23T08:02:48.000Z</time>
                <name>Trackpoint 1221</name>
            </trkpt>
            <trkpt lat="49.9628576" lon="10.1720616">
                <ele>206.0</ele>
                <time>2020-08-23T08:02:50.000Z</time>
                <name>Trackpoint 1222</name>
            </trkpt>
            <trkpt lat="49.9627296" lon="10.1720912">
                <ele>205.0</ele>
                <time>2020-08-23T08:02:52.000Z</time>
                <name>Trackpoint 1223</name>
            </trkpt>
            <trkpt lat="49.962608" lon="10.1721248">
                <ele>205.0</ele>
                <time>2020-08-23T08:02:54.000Z</time>
                <name>Trackpoint 1224</name>
            </trkpt>
            <trkpt lat="49.9624896" lon="10.17216">
                <ele>204.0</ele>
                <time>2020-08-23T08:02:56.000Z</time>
                <name>Trackpoint 1225</name>
            </trkpt>
            <trkpt lat="49.9623712" lon="10.1721936">
                <ele>204.0</ele>
                <time>2020-08-23T08:02:58.000Z</time>
                <name>Trackpoint 1226</name>
            </trkpt>
            <trkpt lat="49.9622624" lon="10.17224">
                <ele>204.0</ele>
                <time>2020-08-23T08:03:00.000Z</time>
                <name>Trackpoint 1227</name>
            </trkpt>
            <trkpt lat="49.962144" lon="10.172292">
                <ele>204.0</ele>
                <time>2020-08-23T08:03:02.000Z</time>
                <name>Trackpoint 1228</name>
            </trkpt>
            <trkpt lat="49.962016" lon="10.1723368">
                <ele>203.0</ele>
                <time>2020-08-23T08:03:04.000Z</time>
                <name>Trackpoint 1229</name>
            </trkpt>
            <trkpt lat="49.9618848" lon="10.1723856">
                <ele>202.0</ele>
                <time>2020-08-23T08:03:06.000Z</time>
                <name>Trackpoint 1230</name>
            </trkpt>
            <trkpt lat="49.9617472" lon="10.1724264">
                <ele>201.0</ele>
                <time>2020-08-23T08:03:08.000Z</time>
                <name>Trackpoint 1231</name>
            </trkpt>
            <trkpt lat="49.9616064" lon="10.1724616">
                <ele>200.0</ele>
                <time>2020-08-23T08:03:10.000Z</time>
                <name>Trackpoint 1232</name>
            </trkpt>
            <trkpt lat="49.9614688" lon="10.1724928">
                <ele>200.0</ele>
                <time>2020-08-23T08:03:12.000Z</time>
                <name>Trackpoint 1233</name>
            </trkpt>
            <trkpt lat="49.9613376" lon="10.1725328">
                <ele>200.0</ele>
                <time>2020-08-23T08:03:14.000Z</time>
                <name>Trackpoint 1234</name>
            </trkpt>
            <trkpt lat="49.9612096" lon="10.17258">
                <ele>199.0</ele>
                <time>2020-08-23T08:03:16.000Z</time>
                <name>Trackpoint 1235</name>
            </trkpt>
            <trkpt lat="49.9610816" lon="10.1726168">
                <ele>198.0</ele>
                <time>2020-08-23T08:03:18.000Z</time>
                <name>Trackpoint 1236</name>
            </trkpt>
            <trkpt lat="49.9609568" lon="10.1726464">
                <ele>197.0</ele>
                <time>2020-08-23T08:03:20.000Z</time>
                <name>Trackpoint 1237</name>
            </trkpt>
            <trkpt lat="49.9608352" lon="10.1726776">
                <ele>197.0</ele>
                <time>2020-08-23T08:03:22.000Z</time>
                <name>Trackpoint 1238</name>
            </trkpt>
            <trkpt lat="49.9607168" lon="10.1727112">
                <ele>197.0</ele>
                <time>2020-08-23T08:03:24.000Z</time>
                <name>Trackpoint 1239</name>
            </trkpt>
            <trkpt lat="49.9605984" lon="10.1727448">
                <ele>197.0</ele>
                <time>2020-08-23T08:03:26.000Z</time>
                <name>Trackpoint 1240</name>
            </trkpt>
            <trkpt lat="49.9604832" lon="10.1727752">
                <ele>196.0</ele>
                <time>2020-08-23T08:03:28.000Z</time>
                <name>Trackpoint 1241</name>
            </trkpt>
            <trkpt lat="49.960368" lon="10.1728048">
                <ele>196.0</ele>
                <time>2020-08-23T08:03:30.000Z</time>
                <name>Trackpoint 1242</name>
            </trkpt>
            <trkpt lat="49.9602592" lon="10.1728352">
                <ele>197.0</ele>
                <time>2020-08-23T08:03:32.000Z</time>
                <name>Trackpoint 1243</name>
            </trkpt>
            <trkpt lat="49.960144" lon="10.1728632">
                <ele>198.0</ele>
                <time>2020-08-23T08:03:34.000Z</time>
                <name>Trackpoint 1244</name>
            </trkpt>
            <trkpt lat="49.960032" lon="10.1728936">
                <ele>199.0</ele>
                <time>2020-08-23T08:03:36.000Z</time>
                <name>Trackpoint 1245</name>
            </trkpt>
            <trkpt lat="49.9599264" lon="10.1729224">
                <ele>199.0</ele>
                <time>2020-08-23T08:03:38.000Z</time>
                <name>Trackpoint 1246</name>
            </trkpt>
            <trkpt lat="49.9598144" lon="10.1729496">
                <ele>199.0</ele>
                <time>2020-08-23T08:03:40.000Z</time>
                <name>Trackpoint 1247</name>
            </trkpt>
            <trkpt lat="49.9597088" lon="10.1729784">
                <ele>200.0</ele>
                <time>2020-08-23T08:03:42.000Z</time>
                <name>Trackpoint 1248</name>
            </trkpt>
            <trkpt lat="49.9596064" lon="10.1730048">
                <ele>199.0</ele>
                <time>2020-08-23T08:03:44.000Z</time>
                <name>Trackpoint 1249</name>
            </trkpt>
            <trkpt lat="49.9595008" lon="10.1730336">
                <ele>199.0</ele>
                <time>2020-08-23T08:03:46.000Z</time>
                <name>Trackpoint 1250</name>
            </trkpt>
            <trkpt lat="49.959392" lon="10.1730584">
                <ele>199.0</ele>
                <time>2020-08-23T08:03:48.000Z</time>
                <name>Trackpoint 1251</name>
            </trkpt>
            <trkpt lat="49.9592896" lon="10.1730856">
                <ele>199.0</ele>
                <time>2020-08-23T08:03:50.000Z</time>
                <name>Trackpoint 1252</name>
            </trkpt>
            <trkpt lat="49.9591776" lon="10.1731008">
                <ele>200.0</ele>
                <time>2020-08-23T08:03:52.000Z</time>
                <name>Trackpoint 1253</name>
            </trkpt>
            <trkpt lat="49.9590688" lon="10.1731304">
                <ele>201.0</ele>
                <time>2020-08-23T08:03:54.000Z</time>
                <name>Trackpoint 1254</name>
            </trkpt>
            <trkpt lat="49.9589536" lon="10.1731592">
                <ele>200.0</ele>
                <time>2020-08-23T08:03:56.000Z</time>
                <name>Trackpoint 1255</name>
            </trkpt>
            <trkpt lat="49.9588448" lon="10.173188">
                <ele>201.0</ele>
                <time>2020-08-23T08:03:58.000Z</time>
                <name>Trackpoint 1256</name>
            </trkpt>
            <trkpt lat="49.9587328" lon="10.173208">
                <ele>201.0</ele>
                <time>2020-08-23T08:04:00.000Z</time>
                <name>Trackpoint 1257</name>
            </trkpt>
            <trkpt lat="49.9586272" lon="10.1732232">
                <ele>202.0</ele>
                <time>2020-08-23T08:04:02.000Z</time>
                <name>Trackpoint 1258</name>
            </trkpt>
            <trkpt lat="49.9585152" lon="10.1732456">
                <ele>203.0</ele>
                <time>2020-08-23T08:04:04.000Z</time>
                <name>Trackpoint 1259</name>
            </trkpt>
            <trkpt lat="49.9584096" lon="10.173268">
                <ele>202.0</ele>
                <time>2020-08-23T08:04:06.000Z</time>
                <name>Trackpoint 1260</name>
            </trkpt>
            <trkpt lat="49.9582912" lon="10.1732928">
                <ele>203.0</ele>
                <time>2020-08-23T08:04:08.000Z</time>
                <name>Trackpoint 1261</name>
            </trkpt>
            <trkpt lat="49.9581728" lon="10.1733168">
                <ele>202.0</ele>
                <time>2020-08-23T08:04:10.000Z</time>
                <name>Trackpoint 1262</name>
            </trkpt>
            <trkpt lat="49.9580512" lon="10.1733448">
                <ele>202.0</ele>
                <time>2020-08-23T08:04:12.000Z</time>
                <name>Trackpoint 1263</name>
            </trkpt>
            <trkpt lat="49.9579264" lon="10.1733688">
                <ele>201.0</ele>
                <time>2020-08-23T08:04:14.000Z</time>
                <name>Trackpoint 1264</name>
            </trkpt>
            <trkpt lat="49.9577984" lon="10.1733904">
                <ele>201.0</ele>
                <time>2020-08-23T08:04:16.000Z</time>
                <name>Trackpoint 1265</name>
            </trkpt>
            <trkpt lat="49.9576736" lon="10.1734088">
                <ele>201.0</ele>
                <time>2020-08-23T08:04:18.000Z</time>
                <name>Trackpoint 1266</name>
            </trkpt>
            <trkpt lat="49.9575488" lon="10.173424">
                <ele>201.0</ele>
                <time>2020-08-23T08:04:20.000Z</time>
                <name>Trackpoint 1267</name>
            </trkpt>
            <trkpt lat="49.9574304" lon="10.17344">
                <ele>200.0</ele>
                <time>2020-08-23T08:04:22.000Z</time>
                <name>Trackpoint 1268</name>
            </trkpt>
            <trkpt lat="49.957312" lon="10.1734504">
                <ele>200.0</ele>
                <time>2020-08-23T08:04:24.000Z</time>
                <name>Trackpoint 1269</name>
            </trkpt>
            <trkpt lat="49.9571968" lon="10.17346">
                <ele>200.0</ele>
                <time>2020-08-23T08:04:26.000Z</time>
                <name>Trackpoint 1270</name>
            </trkpt>
            <trkpt lat="49.957072" lon="10.1734616">
                <ele>201.0</ele>
                <time>2020-08-23T08:04:28.000Z</time>
                <name>Trackpoint 1271</name>
            </trkpt>
            <trkpt lat="49.9569536" lon="10.1734616">
                <ele>201.0</ele>
                <time>2020-08-23T08:04:30.000Z</time>
                <name>Trackpoint 1272</name>
            </trkpt>
            <trkpt lat="49.9568352" lon="10.1734632">
                <ele>201.0</ele>
                <time>2020-08-23T08:04:32.000Z</time>
                <name>Trackpoint 1273</name>
            </trkpt>
            <trkpt lat="49.95672" lon="10.17346">
                <ele>202.0</ele>
                <time>2020-08-23T08:04:34.000Z</time>
                <name>Trackpoint 1274</name>
            </trkpt>
            <trkpt lat="49.9566048" lon="10.173456">
                <ele>201.0</ele>
                <time>2020-08-23T08:04:36.000Z</time>
                <name>Trackpoint 1275</name>
            </trkpt>
            <trkpt lat="49.9564896" lon="10.1734552">
                <ele>202.0</ele>
                <time>2020-08-23T08:04:38.000Z</time>
                <name>Trackpoint 1276</name>
            </trkpt>
            <trkpt lat="49.9563776" lon="10.173444">
                <ele>202.0</ele>
                <time>2020-08-23T08:04:40.000Z</time>
                <name>Trackpoint 1277</name>
            </trkpt>
            <trkpt lat="49.9562688" lon="10.1734336">
                <ele>202.0</ele>
                <time>2020-08-23T08:04:42.000Z</time>
                <name>Trackpoint 1278</name>
            </trkpt>
            <trkpt lat="49.95616" lon="10.17342">
                <ele>202.0</ele>
                <time>2020-08-23T08:04:44.000Z</time>
                <name>Trackpoint 1279</name>
            </trkpt>
            <trkpt lat="49.9560576" lon="10.1734048">
                <ele>202.0</ele>
                <time>2020-08-23T08:04:46.000Z</time>
                <name>Trackpoint 1280</name>
            </trkpt>
            <trkpt lat="49.9559584" lon="10.173384">
                <ele>202.0</ele>
                <time>2020-08-23T08:04:48.000Z</time>
                <name>Trackpoint 1281</name>
            </trkpt>
            <trkpt lat="49.955856" lon="10.1733512">
                <ele>204.0</ele>
                <time>2020-08-23T08:04:50.000Z</time>
                <name>Trackpoint 1282</name>
            </trkpt>
            <trkpt lat="49.95576" lon="10.17332">
                <ele>205.0</ele>
                <time>2020-08-23T08:04:52.000Z</time>
                <name>Trackpoint 1283</name>
            </trkpt>
            <trkpt lat="49.955632" lon="10.1732904">
                <ele>204.0</ele>
                <time>2020-08-23T08:04:55.000Z</time>
                <name>Trackpoint 1284</name>
            </trkpt>
            <trkpt lat="49.9555328" lon="10.1732816">
                <ele>204.0</ele>
                <time>2020-08-23T08:04:57.000Z</time>
                <name>Trackpoint 1285</name>
            </trkpt>
            <trkpt lat="49.955424" lon="10.1732616">
                <ele>203.0</ele>
                <time>2020-08-23T08:04:59.000Z</time>
                <name>Trackpoint 1286</name>
            </trkpt>
            <trkpt lat="49.9553184" lon="10.1732464">
                <ele>202.0</ele>
                <time>2020-08-23T08:05:01.000Z</time>
                <name>Trackpoint 1287</name>
            </trkpt>
            <trkpt lat="49.9552032" lon="10.1732216">
                <ele>202.0</ele>
                <time>2020-08-23T08:05:03.000Z</time>
                <name>Trackpoint 1288</name>
            </trkpt>
            <trkpt lat="49.9550944" lon="10.1732016">
                <ele>202.0</ele>
                <time>2020-08-23T08:05:05.000Z</time>
                <name>Trackpoint 1289</name>
            </trkpt>
            <trkpt lat="49.9549824" lon="10.1731856">
                <ele>202.0</ele>
                <time>2020-08-23T08:05:07.000Z</time>
                <name>Trackpoint 1290</name>
            </trkpt>
            <trkpt lat="49.9548768" lon="10.1731656">
                <ele>202.0</ele>
                <time>2020-08-23T08:05:09.000Z</time>
                <name>Trackpoint 1291</name>
            </trkpt>
            <trkpt lat="49.954768" lon="10.1731416">
                <ele>202.0</ele>
                <time>2020-08-23T08:05:11.000Z</time>
                <name>Trackpoint 1292</name>
            </trkpt>
            <trkpt lat="49.9546688" lon="10.1731168">
                <ele>202.0</ele>
                <time>2020-08-23T08:05:13.000Z</time>
                <name>Trackpoint 1293</name>
            </trkpt>
            <trkpt lat="49.9545632" lon="10.1731032">
                <ele>202.0</ele>
                <time>2020-08-23T08:05:15.000Z</time>
                <name>Trackpoint 1294</name>
            </trkpt>
            <trkpt lat="49.954464" lon="10.1730896">
                <ele>202.0</ele>
                <time>2020-08-23T08:05:17.000Z</time>
                <name>Trackpoint 1295</name>
            </trkpt>
            <trkpt lat="49.9543648" lon="10.1730832">
                <ele>202.0</ele>
                <time>2020-08-23T08:05:19.000Z</time>
                <name>Trackpoint 1296</name>
            </trkpt>
            <trkpt lat="49.9542656" lon="10.1730744">
                <ele>202.0</ele>
                <time>2020-08-23T08:05:21.000Z</time>
                <name>Trackpoint 1297</name>
            </trkpt>
            <trkpt lat="49.9541728" lon="10.1730616">
                <ele>202.0</ele>
                <time>2020-08-23T08:05:23.000Z</time>
                <name>Trackpoint 1298</name>
            </trkpt>
            <trkpt lat="49.95408" lon="10.1730472">
                <ele>202.0</ele>
                <time>2020-08-23T08:05:25.000Z</time>
                <name>Trackpoint 1299</name>
            </trkpt>
            <trkpt lat="49.9539808" lon="10.1730432">
                <ele>202.0</ele>
                <time>2020-08-23T08:05:27.000Z</time>
                <name>Trackpoint 1300</name>
            </trkpt>
            <trkpt lat="49.953872" lon="10.1730336">
                <ele>202.0</ele>
                <time>2020-08-23T08:05:29.000Z</time>
                <name>Trackpoint 1301</name>
            </trkpt>
            <trkpt lat="49.9537664" lon="10.17302">
                <ele>202.0</ele>
                <time>2020-08-23T08:05:31.000Z</time>
                <name>Trackpoint 1302</name>
            </trkpt>
            <trkpt lat="49.953664" lon="10.1730296">
                <ele>202.0</ele>
                <time>2020-08-23T08:05:33.000Z</time>
                <name>Trackpoint 1303</name>
            </trkpt>
            <trkpt lat="49.9535552" lon="10.1730296">
                <ele>202.0</ele>
                <time>2020-08-23T08:05:35.000Z</time>
                <name>Trackpoint 1304</name>
            </trkpt>
            <trkpt lat="49.9534464" lon="10.1730448">
                <ele>202.0</ele>
                <time>2020-08-23T08:05:37.000Z</time>
                <name>Trackpoint 1305</name>
            </trkpt>
            <trkpt lat="49.9533472" lon="10.1730632">
                <ele>202.0</ele>
                <time>2020-08-23T08:05:39.000Z</time>
                <name>Trackpoint 1306</name>
            </trkpt>
            <trkpt lat="49.9532512" lon="10.173072">
                <ele>202.0</ele>
                <time>2020-08-23T08:05:41.000Z</time>
                <name>Trackpoint 1307</name>
            </trkpt>
            <trkpt lat="49.9531584" lon="10.1730816">
                <ele>202.0</ele>
                <time>2020-08-23T08:05:43.000Z</time>
                <name>Trackpoint 1308</name>
            </trkpt>
            <trkpt lat="49.9530624" lon="10.1730968">
                <ele>202.0</ele>
                <time>2020-08-23T08:05:45.000Z</time>
                <name>Trackpoint 1309</name>
            </trkpt>
            <trkpt lat="49.9529632" lon="10.1731128">
                <ele>202.0</ele>
                <time>2020-08-23T08:05:47.000Z</time>
                <name>Trackpoint 1310</name>
            </trkpt>
            <trkpt lat="49.9528576" lon="10.173152">
                <ele>203.0</ele>
                <time>2020-08-23T08:05:49.000Z</time>
                <name>Trackpoint 1311</name>
            </trkpt>
            <trkpt lat="49.952752" lon="10.1731656">
                <ele>203.0</ele>
                <time>2020-08-23T08:05:51.000Z</time>
                <name>Trackpoint 1312</name>
            </trkpt>
            <trkpt lat="49.9526496" lon="10.1731832">
                <ele>203.0</ele>
                <time>2020-08-23T08:05:53.000Z</time>
                <name>Trackpoint 1313</name>
            </trkpt>
            <trkpt lat="49.952544" lon="10.1731968">
                <ele>203.0</ele>
                <time>2020-08-23T08:05:55.000Z</time>
                <name>Trackpoint 1314</name>
            </trkpt>
            <trkpt lat="49.9524416" lon="10.1732056">
                <ele>203.0</ele>
                <time>2020-08-23T08:05:57.000Z</time>
                <name>Trackpoint 1315</name>
            </trkpt>
            <trkpt lat="49.9523456" lon="10.1732128">
                <ele>203.0</ele>
                <time>2020-08-23T08:05:59.000Z</time>
                <name>Trackpoint 1316</name>
            </trkpt>
            <trkpt lat="49.952256" lon="10.173228">
                <ele>203.0</ele>
                <time>2020-08-23T08:06:01.000Z</time>
                <name>Trackpoint 1317</name>
            </trkpt>
            <trkpt lat="49.9521632" lon="10.1732384">
                <ele>203.0</ele>
                <time>2020-08-23T08:06:03.000Z</time>
                <name>Trackpoint 1318</name>
            </trkpt>
            <trkpt lat="49.9520736" lon="10.1732616">
                <ele>203.0</ele>
                <time>2020-08-23T08:06:05.000Z</time>
                <name>Trackpoint 1319</name>
            </trkpt>
            <trkpt lat="49.9519744" lon="10.17328">
                <ele>203.0</ele>
                <time>2020-08-23T08:06:07.000Z</time>
                <name>Trackpoint 1320</name>
            </trkpt>
            <trkpt lat="49.9518752" lon="10.1732912">
                <ele>203.0</ele>
                <time>2020-08-23T08:06:09.000Z</time>
                <name>Trackpoint 1321</name>
            </trkpt>
            <trkpt lat="49.9517664" lon="10.1733064">
                <ele>203.0</ele>
                <time>2020-08-23T08:06:11.000Z</time>
                <name>Trackpoint 1322</name>
            </trkpt>
            <trkpt lat="49.9516672" lon="10.173328">
                <ele>203.0</ele>
                <time>2020-08-23T08:06:13.000Z</time>
                <name>Trackpoint 1323</name>
            </trkpt>
            <trkpt lat="49.9515648" lon="10.1733464">
                <ele>203.0</ele>
                <time>2020-08-23T08:06:15.000Z</time>
                <name>Trackpoint 1324</name>
            </trkpt>
            <trkpt lat="49.9514624" lon="10.1733576">
                <ele>203.0</ele>
                <time>2020-08-23T08:06:17.000Z</time>
                <name>Trackpoint 1325</name>
            </trkpt>
            <trkpt lat="49.9513536" lon="10.1733768">
                <ele>203.0</ele>
                <time>2020-08-23T08:06:19.000Z</time>
                <name>Trackpoint 1326</name>
            </trkpt>
            <trkpt lat="49.9512544" lon="10.1733904">
                <ele>203.0</ele>
                <time>2020-08-23T08:06:21.000Z</time>
                <name>Trackpoint 1327</name>
            </trkpt>
            <trkpt lat="49.9511552" lon="10.1734088">
                <ele>203.0</ele>
                <time>2020-08-23T08:06:23.000Z</time>
                <name>Trackpoint 1328</name>
            </trkpt>
            <trkpt lat="49.9510528" lon="10.1734248">
                <ele>203.0</ele>
                <time>2020-08-23T08:06:25.000Z</time>
                <name>Trackpoint 1329</name>
            </trkpt>
            <trkpt lat="49.9509536" lon="10.173444">
                <ele>203.0</ele>
                <time>2020-08-23T08:06:27.000Z</time>
                <name>Trackpoint 1330</name>
            </trkpt>
            <trkpt lat="49.9508544" lon="10.1734664">
                <ele>203.0</ele>
                <time>2020-08-23T08:06:29.000Z</time>
                <name>Trackpoint 1331</name>
            </trkpt>
            <trkpt lat="49.950752" lon="10.1734832">
                <ele>203.0</ele>
                <time>2020-08-23T08:06:31.000Z</time>
                <name>Trackpoint 1332</name>
            </trkpt>
            <trkpt lat="49.9506528" lon="10.1735088">
                <ele>203.0</ele>
                <time>2020-08-23T08:06:33.000Z</time>
                <name>Trackpoint 1333</name>
            </trkpt>
            <trkpt lat="49.9505504" lon="10.173536">
                <ele>203.0</ele>
                <time>2020-08-23T08:06:35.000Z</time>
                <name>Trackpoint 1334</name>
            </trkpt>
            <trkpt lat="49.9504512" lon="10.1735632">
                <ele>203.0</ele>
                <time>2020-08-23T08:06:37.000Z</time>
                <name>Trackpoint 1335</name>
            </trkpt>
            <trkpt lat="49.950352" lon="10.1736">
                <ele>203.0</ele>
                <time>2020-08-23T08:06:39.000Z</time>
                <name>Trackpoint 1336</name>
            </trkpt>
            <trkpt lat="49.9502528" lon="10.1736536">
                <ele>203.0</ele>
                <time>2020-08-23T08:06:41.000Z</time>
                <name>Trackpoint 1337</name>
            </trkpt>
            <trkpt lat="49.9501568" lon="10.1737096">
                <ele>203.0</ele>
                <time>2020-08-23T08:06:43.000Z</time>
                <name>Trackpoint 1338</name>
            </trkpt>
            <trkpt lat="49.9500608" lon="10.1737744">
                <ele>203.0</ele>
                <time>2020-08-23T08:06:45.000Z</time>
                <name>Trackpoint 1339</name>
            </trkpt>
            <trkpt lat="49.9499712" lon="10.1738456">
                <ele>203.0</ele>
                <time>2020-08-23T08:06:47.000Z</time>
                <name>Trackpoint 1340</name>
            </trkpt>
            <trkpt lat="49.9498848" lon="10.1739232">
                <ele>203.0</ele>
                <time>2020-08-23T08:06:49.000Z</time>
                <name>Trackpoint 1341</name>
            </trkpt>
            <trkpt lat="49.9498016" lon="10.174008">
                <ele>203.0</ele>
                <time>2020-08-23T08:06:51.000Z</time>
                <name>Trackpoint 1342</name>
            </trkpt>
            <trkpt lat="49.9497152" lon="10.1741064">
                <ele>203.0</ele>
                <time>2020-08-23T08:06:53.000Z</time>
                <name>Trackpoint 1343</name>
            </trkpt>
            <trkpt lat="49.949632" lon="10.1742016">
                <ele>203.0</ele>
                <time>2020-08-23T08:06:55.000Z</time>
                <name>Trackpoint 1344</name>
            </trkpt>
            <trkpt lat="49.9495616" lon="10.1742832">
                <ele>203.0</ele>
                <time>2020-08-23T08:06:57.000Z</time>
                <name>Trackpoint 1345</name>
            </trkpt>
            <trkpt lat="49.9494784" lon="10.1743936">
                <ele>203.0</ele>
                <time>2020-08-23T08:07:00.000Z</time>
                <name>Trackpoint 1346</name>
            </trkpt>
            <trkpt lat="49.9494016" lon="10.1744784">
                <ele>203.0</ele>
                <time>2020-08-23T08:07:02.000Z</time>
                <name>Trackpoint 1347</name>
            </trkpt>
            <trkpt lat="49.9493344" lon="10.1745664">
                <ele>203.0</ele>
                <time>2020-08-23T08:07:04.000Z</time>
                <name>Trackpoint 1348</name>
            </trkpt>
            <trkpt lat="49.9492608" lon="10.1746584">
                <ele>203.0</ele>
                <time>2020-08-23T08:07:06.000Z</time>
                <name>Trackpoint 1349</name>
            </trkpt>
            <trkpt lat="49.949184" lon="10.1747552">
                <ele>203.0</ele>
                <time>2020-08-23T08:07:08.000Z</time>
                <name>Trackpoint 1350</name>
            </trkpt>
            <trkpt lat="49.9491008" lon="10.1748416">
                <ele>203.0</ele>
                <time>2020-08-23T08:07:10.000Z</time>
                <name>Trackpoint 1351</name>
            </trkpt>
            <trkpt lat="49.9490176" lon="10.1749296">
                <ele>203.0</ele>
                <time>2020-08-23T08:07:12.000Z</time>
                <name>Trackpoint 1352</name>
            </trkpt>
            <trkpt lat="49.9489248" lon="10.175012">
                <ele>203.0</ele>
                <time>2020-08-23T08:07:14.000Z</time>
                <name>Trackpoint 1353</name>
            </trkpt>
            <trkpt lat="49.948832" lon="10.1750872">
                <ele>203.0</ele>
                <time>2020-08-23T08:07:16.000Z</time>
                <name>Trackpoint 1354</name>
            </trkpt>
            <trkpt lat="49.9487328" lon="10.1751536">
                <ele>203.0</ele>
                <time>2020-08-23T08:07:18.000Z</time>
                <name>Trackpoint 1355</name>
            </trkpt>
            <trkpt lat="49.9486336" lon="10.1752096">
                <ele>203.0</ele>
                <time>2020-08-23T08:07:20.000Z</time>
                <name>Trackpoint 1356</name>
            </trkpt>
            <trkpt lat="49.948528" lon="10.1752584">
                <ele>203.0</ele>
                <time>2020-08-23T08:07:22.000Z</time>
                <name>Trackpoint 1357</name>
            </trkpt>
            <trkpt lat="49.9484224" lon="10.1752928">
                <ele>203.0</ele>
                <time>2020-08-23T08:07:24.000Z</time>
                <name>Trackpoint 1358</name>
            </trkpt>
            <trkpt lat="49.9483136" lon="10.175308">
                <ele>202.0</ele>
                <time>2020-08-23T08:07:26.000Z</time>
                <name>Trackpoint 1359</name>
            </trkpt>
            <trkpt lat="49.948208" lon="10.1753216">
                <ele>202.0</ele>
                <time>2020-08-23T08:07:28.000Z</time>
                <name>Trackpoint 1360</name>
            </trkpt>
            <trkpt lat="49.9481024" lon="10.17532">
                <ele>203.0</ele>
                <time>2020-08-23T08:07:30.000Z</time>
                <name>Trackpoint 1361</name>
            </trkpt>
            <trkpt lat="49.9479904" lon="10.1753104">
                <ele>203.0</ele>
                <time>2020-08-23T08:07:32.000Z</time>
                <name>Trackpoint 1362</name>
            </trkpt>
            <trkpt lat="49.9478752" lon="10.1752864">
                <ele>201.0</ele>
                <time>2020-08-23T08:07:34.000Z</time>
                <name>Trackpoint 1363</name>
            </trkpt>
            <trkpt lat="49.94776" lon="10.1752552">
                <ele>200.0</ele>
                <time>2020-08-23T08:07:36.000Z</time>
                <name>Trackpoint 1364</name>
            </trkpt>
            <trkpt lat="49.9476512" lon="10.1752192">
                <ele>200.0</ele>
                <time>2020-08-23T08:07:38.000Z</time>
                <name>Trackpoint 1365</name>
            </trkpt>
            <trkpt lat="49.947536" lon="10.1751872">
                <ele>200.0</ele>
                <time>2020-08-23T08:07:40.000Z</time>
                <name>Trackpoint 1366</name>
            </trkpt>
            <trkpt lat="49.9474176" lon="10.1751432">
                <ele>200.0</ele>
                <time>2020-08-23T08:07:42.000Z</time>
                <name>Trackpoint 1367</name>
            </trkpt>
            <trkpt lat="49.9472896" lon="10.1750872">
                <ele>199.0</ele>
                <time>2020-08-23T08:07:44.000Z</time>
                <name>Trackpoint 1368</name>
            </trkpt>
            <trkpt lat="49.9471616" lon="10.1750288">
                <ele>200.0</ele>
                <time>2020-08-23T08:07:46.000Z</time>
                <name>Trackpoint 1369</name>
            </trkpt>
            <trkpt lat="49.9470368" lon="10.1749672">
                <ele>200.0</ele>
                <time>2020-08-23T08:07:48.000Z</time>
                <name>Trackpoint 1370</name>
            </trkpt>
            <trkpt lat="49.9469184" lon="10.1749088">
                <ele>200.0</ele>
                <time>2020-08-23T08:07:50.000Z</time>
                <name>Trackpoint 1371</name>
            </trkpt>
            <trkpt lat="49.9468" lon="10.1748568">
                <ele>201.0</ele>
                <time>2020-08-23T08:07:52.000Z</time>
                <name>Trackpoint 1372</name>
            </trkpt>
            <trkpt lat="49.9466944" lon="10.1748104">
                <ele>201.0</ele>
                <time>2020-08-23T08:07:54.000Z</time>
                <name>Trackpoint 1373</name>
            </trkpt>
            <trkpt lat="49.9465856" lon="10.1747664">
                <ele>201.0</ele>
                <time>2020-08-23T08:07:56.000Z</time>
                <name>Trackpoint 1374</name>
            </trkpt>
            <trkpt lat="49.94648" lon="10.1747312">
                <ele>202.0</ele>
                <time>2020-08-23T08:07:58.000Z</time>
                <name>Trackpoint 1375</name>
            </trkpt>
            <trkpt lat="49.9463744" lon="10.1747048">
                <ele>202.0</ele>
                <time>2020-08-23T08:08:00.000Z</time>
                <name>Trackpoint 1376</name>
            </trkpt>
            <trkpt lat="49.9462688" lon="10.1746848">
                <ele>202.0</ele>
                <time>2020-08-23T08:08:02.000Z</time>
                <name>Trackpoint 1377</name>
            </trkpt>
            <trkpt lat="49.9461664" lon="10.1746704">
                <ele>202.0</ele>
                <time>2020-08-23T08:08:04.000Z</time>
                <name>Trackpoint 1378</name>
            </trkpt>
            <trkpt lat="49.9460704" lon="10.1746616">
                <ele>203.0</ele>
                <time>2020-08-23T08:08:06.000Z</time>
                <name>Trackpoint 1379</name>
            </trkpt>
            <trkpt lat="49.9459712" lon="10.1746584">
                <ele>203.0</ele>
                <time>2020-08-23T08:08:08.000Z</time>
                <name>Trackpoint 1380</name>
            </trkpt>
            <trkpt lat="49.945872" lon="10.174668">
                <ele>203.0</ele>
                <time>2020-08-23T08:08:10.000Z</time>
                <name>Trackpoint 1381</name>
            </trkpt>
            <trkpt lat="49.9457824" lon="10.1746912">
                <ele>203.0</ele>
                <time>2020-08-23T08:08:12.000Z</time>
                <name>Trackpoint 1382</name>
            </trkpt>
            <trkpt lat="49.9456864" lon="10.1747216">
                <ele>203.0</ele>
                <time>2020-08-23T08:08:14.000Z</time>
                <name>Trackpoint 1383</name>
            </trkpt>
            <trkpt lat="49.945584" lon="10.1747528">
                <ele>203.0</ele>
                <time>2020-08-23T08:08:16.000Z</time>
                <name>Trackpoint 1384</name>
            </trkpt>
            <trkpt lat="49.9454848" lon="10.1747888">
                <ele>203.0</ele>
                <time>2020-08-23T08:08:18.000Z</time>
                <name>Trackpoint 1385</name>
            </trkpt>
            <trkpt lat="49.9453824" lon="10.174824">
                <ele>203.0</ele>
                <time>2020-08-23T08:08:20.000Z</time>
                <name>Trackpoint 1386</name>
            </trkpt>
            <trkpt lat="49.9452768" lon="10.1748648">
                <ele>202.0</ele>
                <time>2020-08-23T08:08:22.000Z</time>
                <name>Trackpoint 1387</name>
            </trkpt>
            <trkpt lat="49.9451744" lon="10.1749136">
                <ele>202.0</ele>
                <time>2020-08-23T08:08:24.000Z</time>
                <name>Trackpoint 1388</name>
            </trkpt>
            <trkpt lat="49.945072" lon="10.1749624">
                <ele>202.0</ele>
                <time>2020-08-23T08:08:26.000Z</time>
                <name>Trackpoint 1389</name>
            </trkpt>
            <trkpt lat="49.9449664" lon="10.1750152">
                <ele>202.0</ele>
                <time>2020-08-23T08:08:28.000Z</time>
                <name>Trackpoint 1390</name>
            </trkpt>
            <trkpt lat="49.9448576" lon="10.1750632">
                <ele>201.0</ele>
                <time>2020-08-23T08:08:30.000Z</time>
                <name>Trackpoint 1391</name>
            </trkpt>
            <trkpt lat="49.944752" lon="10.1751144">
                <ele>201.0</ele>
                <time>2020-08-23T08:08:32.000Z</time>
                <name>Trackpoint 1392</name>
            </trkpt>
            <trkpt lat="49.9446464" lon="10.1751696">
                <ele>202.0</ele>
                <time>2020-08-23T08:08:34.000Z</time>
                <name>Trackpoint 1393</name>
            </trkpt>
            <trkpt lat="49.9445376" lon="10.1752192">
                <ele>202.0</ele>
                <time>2020-08-23T08:08:36.000Z</time>
                <name>Trackpoint 1394</name>
            </trkpt>
            <trkpt lat="49.9444352" lon="10.1752632">
                <ele>201.0</ele>
                <time>2020-08-23T08:08:38.000Z</time>
                <name>Trackpoint 1395</name>
            </trkpt>
            <trkpt lat="49.9443296" lon="10.1753064">
                <ele>201.0</ele>
                <time>2020-08-23T08:08:40.000Z</time>
                <name>Trackpoint 1396</name>
            </trkpt>
            <trkpt lat="49.9442336" lon="10.1753632">
                <ele>201.0</ele>
                <time>2020-08-23T08:08:42.000Z</time>
                <name>Trackpoint 1397</name>
            </trkpt>
            <trkpt lat="49.9441344" lon="10.1754152">
                <ele>201.0</ele>
                <time>2020-08-23T08:08:44.000Z</time>
                <name>Trackpoint 1398</name>
            </trkpt>
            <trkpt lat="49.9440352" lon="10.175464">
                <ele>201.0</ele>
                <time>2020-08-23T08:08:46.000Z</time>
                <name>Trackpoint 1399</name>
            </trkpt>
            <trkpt lat="49.943936" lon="10.1755136">
                <ele>201.0</ele>
                <time>2020-08-23T08:08:48.000Z</time>
                <name>Trackpoint 1400</name>
            </trkpt>
            <trkpt lat="49.9438368" lon="10.1755712">
                <ele>201.0</ele>
                <time>2020-08-23T08:08:50.000Z</time>
                <name>Trackpoint 1401</name>
            </trkpt>
            <trkpt lat="49.9437344" lon="10.1756216">
                <ele>202.0</ele>
                <time>2020-08-23T08:08:52.000Z</time>
                <name>Trackpoint 1402</name>
            </trkpt>
            <trkpt lat="49.9436352" lon="10.1756688">
                <ele>202.0</ele>
                <time>2020-08-23T08:08:54.000Z</time>
                <name>Trackpoint 1403</name>
            </trkpt>
            <trkpt lat="49.9435296" lon="10.1757184">
                <ele>201.0</ele>
                <time>2020-08-23T08:08:56.000Z</time>
                <name>Trackpoint 1404</name>
            </trkpt>
            <trkpt lat="49.943424" lon="10.1757616">
                <ele>202.0</ele>
                <time>2020-08-23T08:08:58.000Z</time>
                <name>Trackpoint 1405</name>
            </trkpt>
            <trkpt lat="49.9433216" lon="10.1758072">
                <ele>202.0</ele>
                <time>2020-08-23T08:09:00.000Z</time>
                <name>Trackpoint 1406</name>
            </trkpt>
            <trkpt lat="49.9432192" lon="10.1758496">
                <ele>202.0</ele>
                <time>2020-08-23T08:09:02.000Z</time>
                <name>Trackpoint 1407</name>
            </trkpt>
            <trkpt lat="49.9431104" lon="10.175888">
                <ele>203.0</ele>
                <time>2020-08-23T08:09:04.000Z</time>
                <name>Trackpoint 1408</name>
            </trkpt>
            <trkpt lat="49.9430176" lon="10.1759144">
                <ele>203.0</ele>
                <time>2020-08-23T08:09:06.000Z</time>
                <name>Trackpoint 1409</name>
            </trkpt>
            <trkpt lat="49.942928" lon="10.1759432">
                <ele>203.0</ele>
                <time>2020-08-23T08:09:08.000Z</time>
                <name>Trackpoint 1410</name>
            </trkpt>
            <trkpt lat="49.9428352" lon="10.1759784">
                <ele>203.0</ele>
                <time>2020-08-23T08:09:10.000Z</time>
                <name>Trackpoint 1411</name>
            </trkpt>
            <trkpt lat="49.9427424" lon="10.1760128">
                <ele>203.0</ele>
                <time>2020-08-23T08:09:12.000Z</time>
                <name>Trackpoint 1412</name>
            </trkpt>
            <trkpt lat="49.9426464" lon="10.1760552">
                <ele>203.0</ele>
                <time>2020-08-23T08:09:14.000Z</time>
                <name>Trackpoint 1413</name>
            </trkpt>
            <trkpt lat="49.9425472" lon="10.176088">
                <ele>203.0</ele>
                <time>2020-08-23T08:09:16.000Z</time>
                <name>Trackpoint 1414</name>
            </trkpt>
            <trkpt lat="49.942448" lon="10.176128">
                <ele>202.0</ele>
                <time>2020-08-23T08:09:18.000Z</time>
                <name>Trackpoint 1415</name>
            </trkpt>
            <trkpt lat="49.9423456" lon="10.1761664">
                <ele>202.0</ele>
                <time>2020-08-23T08:09:20.000Z</time>
                <name>Trackpoint 1416</name>
            </trkpt>
            <trkpt lat="49.9422336" lon="10.1762064">
                <ele>202.0</ele>
                <time>2020-08-23T08:09:22.000Z</time>
                <name>Trackpoint 1417</name>
            </trkpt>
            <trkpt lat="49.9421248" lon="10.1762448">
                <ele>202.0</ele>
                <time>2020-08-23T08:09:24.000Z</time>
                <name>Trackpoint 1418</name>
            </trkpt>
            <trkpt lat="49.9420064" lon="10.1762864">
                <ele>201.0</ele>
                <time>2020-08-23T08:09:26.000Z</time>
                <name>Trackpoint 1419</name>
            </trkpt>
            <trkpt lat="49.9418912" lon="10.1763264">
                <ele>201.0</ele>
                <time>2020-08-23T08:09:28.000Z</time>
                <name>Trackpoint 1420</name>
            </trkpt>
            <trkpt lat="49.9417728" lon="10.176356">
                <ele>200.0</ele>
                <time>2020-08-23T08:09:30.000Z</time>
                <name>Trackpoint 1421</name>
            </trkpt>
            <trkpt lat="49.9416544" lon="10.1763848">
                <ele>200.0</ele>
                <time>2020-08-23T08:09:32.000Z</time>
                <name>Trackpoint 1422</name>
            </trkpt>
            <trkpt lat="49.941536" lon="10.1764096">
                <ele>200.0</ele>
                <time>2020-08-23T08:09:34.000Z</time>
                <name>Trackpoint 1423</name>
            </trkpt>
            <trkpt lat="49.9414208" lon="10.1764296">
                <ele>199.0</ele>
                <time>2020-08-23T08:09:36.000Z</time>
                <name>Trackpoint 1424</name>
            </trkpt>
            <trkpt lat="49.9413024" lon="10.176452">
                <ele>199.0</ele>
                <time>2020-08-23T08:09:38.000Z</time>
                <name>Trackpoint 1425</name>
            </trkpt>
            <trkpt lat="49.9411968" lon="10.1764696">
                <ele>199.0</ele>
                <time>2020-08-23T08:09:40.000Z</time>
                <name>Trackpoint 1426</name>
            </trkpt>
            <trkpt lat="49.9410848" lon="10.1764896">
                <ele>199.0</ele>
                <time>2020-08-23T08:09:42.000Z</time>
                <name>Trackpoint 1427</name>
            </trkpt>
            <trkpt lat="49.9409824" lon="10.1765032">
                <ele>199.0</ele>
                <time>2020-08-23T08:09:44.000Z</time>
                <name>Trackpoint 1428</name>
            </trkpt>
            <trkpt lat="49.9408768" lon="10.1765144">
                <ele>199.0</ele>
                <time>2020-08-23T08:09:46.000Z</time>
                <name>Trackpoint 1429</name>
            </trkpt>
            <trkpt lat="49.9407776" lon="10.1765272">
                <ele>198.0</ele>
                <time>2020-08-23T08:09:48.000Z</time>
                <name>Trackpoint 1430</name>
            </trkpt>
            <trkpt lat="49.9406784" lon="10.1765296">
                <ele>198.0</ele>
                <time>2020-08-23T08:09:50.000Z</time>
                <name>Trackpoint 1431</name>
            </trkpt>
            <trkpt lat="49.94056" lon="10.1765368">
                <ele>198.0</ele>
                <time>2020-08-23T08:09:53.000Z</time>
                <name>Trackpoint 1432</name>
            </trkpt>
            <trkpt lat="49.9405376" lon="10.1765384">
                <ele>199.0</ele>
                <time>2020-08-23T08:11:11.000Z</time>
                <name>Trackpoint 1433</name>
            </trkpt>
            <trkpt lat="49.940432" lon="10.1765448">
                <ele>198.0</ele>
                <time>2020-08-23T08:11:16.000Z</time>
                <name>Trackpoint 1434</name>
            </trkpt>
            <trkpt lat="49.9403392" lon="10.1765448">
                <ele>198.0</ele>
                <time>2020-08-23T08:11:19.000Z</time>
                <name>Trackpoint 1435</name>
            </trkpt>
            <trkpt lat="49.940224" lon="10.1765416">
                <ele>198.0</ele>
                <time>2020-08-23T08:11:22.000Z</time>
                <name>Trackpoint 1436</name>
            </trkpt>
            <trkpt lat="49.9401024" lon="10.1765384">
                <ele>198.0</ele>
                <time>2020-08-23T08:11:25.000Z</time>
                <name>Trackpoint 1437</name>
            </trkpt>
            <trkpt lat="49.9400096" lon="10.1765344">
                <ele>198.0</ele>
                <time>2020-08-23T08:11:27.000Z</time>
                <name>Trackpoint 1438</name>
            </trkpt>
            <trkpt lat="49.9398752" lon="10.1765296">
                <ele>198.0</ele>
                <time>2020-08-23T08:11:30.000Z</time>
                <name>Trackpoint 1439</name>
            </trkpt>
            <trkpt lat="49.9397824" lon="10.176528">
                <ele>199.0</ele>
                <time>2020-08-23T08:11:32.000Z</time>
                <name>Trackpoint 1440</name>
            </trkpt>
            <trkpt lat="49.9396896" lon="10.1765296">
                <ele>199.0</ele>
                <time>2020-08-23T08:11:34.000Z</time>
                <name>Trackpoint 1441</name>
            </trkpt>
            <trkpt lat="49.9395936" lon="10.1765272">
                <ele>199.0</ele>
                <time>2020-08-23T08:11:36.000Z</time>
                <name>Trackpoint 1442</name>
            </trkpt>
            <trkpt lat="49.9394976" lon="10.17652">
                <ele>199.0</ele>
                <time>2020-08-23T08:11:38.000Z</time>
                <name>Trackpoint 1443</name>
            </trkpt>
            <trkpt lat="49.9394048" lon="10.1765136">
                <ele>199.0</ele>
                <time>2020-08-23T08:11:40.000Z</time>
                <name>Trackpoint 1444</name>
            </trkpt>
            <trkpt lat="49.9392992" lon="10.1765016">
                <ele>199.0</ele>
                <time>2020-08-23T08:11:42.000Z</time>
                <name>Trackpoint 1445</name>
            </trkpt>
            <trkpt lat="49.9392" lon="10.176492">
                <ele>199.0</ele>
                <time>2020-08-23T08:11:44.000Z</time>
                <name>Trackpoint 1446</name>
            </trkpt>
            <trkpt lat="49.9391008" lon="10.1764832">
                <ele>199.0</ele>
                <time>2020-08-23T08:11:46.000Z</time>
                <name>Trackpoint 1447</name>
            </trkpt>
            <trkpt lat="49.9389984" lon="10.1764744">
                <ele>199.0</ele>
                <time>2020-08-23T08:11:48.000Z</time>
                <name>Trackpoint 1448</name>
            </trkpt>
            <trkpt lat="49.9388992" lon="10.1764672">
                <ele>200.0</ele>
                <time>2020-08-23T08:11:50.000Z</time>
                <name>Trackpoint 1449</name>
            </trkpt>
            <trkpt lat="49.9388" lon="10.1764568">
                <ele>199.0</ele>
                <time>2020-08-23T08:11:52.000Z</time>
                <name>Trackpoint 1450</name>
            </trkpt>
            <trkpt lat="49.9387008" lon="10.1764472">
                <ele>200.0</ele>
                <time>2020-08-23T08:11:54.000Z</time>
                <name>Trackpoint 1451</name>
            </trkpt>
            <trkpt lat="49.9385952" lon="10.1764384">
                <ele>200.0</ele>
                <time>2020-08-23T08:11:56.000Z</time>
                <name>Trackpoint 1452</name>
            </trkpt>
            <trkpt lat="49.9384928" lon="10.1764272">
                <ele>200.0</ele>
                <time>2020-08-23T08:11:58.000Z</time>
                <name>Trackpoint 1453</name>
            </trkpt>
            <trkpt lat="49.938384" lon="10.176412">
                <ele>200.0</ele>
                <time>2020-08-23T08:12:00.000Z</time>
                <name>Trackpoint 1454</name>
            </trkpt>
            <trkpt lat="49.938272" lon="10.1764">
                <ele>199.0</ele>
                <time>2020-08-23T08:12:02.000Z</time>
                <name>Trackpoint 1455</name>
            </trkpt>
            <trkpt lat="49.9381568" lon="10.1763888">
                <ele>199.0</ele>
                <time>2020-08-23T08:12:04.000Z</time>
                <name>Trackpoint 1456</name>
            </trkpt>
            <trkpt lat="49.9380416" lon="10.1763752">
                <ele>199.0</ele>
                <time>2020-08-23T08:12:06.000Z</time>
                <name>Trackpoint 1457</name>
            </trkpt>
            <trkpt lat="49.9379296" lon="10.1763632">
                <ele>199.0</ele>
                <time>2020-08-23T08:12:08.000Z</time>
                <name>Trackpoint 1458</name>
            </trkpt>
            <trkpt lat="49.9378176" lon="10.1763488">
                <ele>199.0</ele>
                <time>2020-08-23T08:12:10.000Z</time>
                <name>Trackpoint 1459</name>
            </trkpt>
            <trkpt lat="49.9377024" lon="10.176336">
                <ele>199.0</ele>
                <time>2020-08-23T08:12:12.000Z</time>
                <name>Trackpoint 1460</name>
            </trkpt>
            <trkpt lat="49.9375904" lon="10.1763264">
                <ele>198.0</ele>
                <time>2020-08-23T08:12:14.000Z</time>
                <name>Trackpoint 1461</name>
            </trkpt>
            <trkpt lat="49.9374784" lon="10.1763184">
                <ele>198.0</ele>
                <time>2020-08-23T08:12:16.000Z</time>
                <name>Trackpoint 1462</name>
            </trkpt>
            <trkpt lat="49.9373632" lon="10.1763136">
                <ele>198.0</ele>
                <time>2020-08-23T08:12:18.000Z</time>
                <name>Trackpoint 1463</name>
            </trkpt>
            <trkpt lat="49.937248" lon="10.176316">
                <ele>198.0</ele>
                <time>2020-08-23T08:12:20.000Z</time>
                <name>Trackpoint 1464</name>
            </trkpt>
            <trkpt lat="49.9371328" lon="10.1763264">
                <ele>198.0</ele>
                <time>2020-08-23T08:12:22.000Z</time>
                <name>Trackpoint 1465</name>
            </trkpt>
            <trkpt lat="49.9370208" lon="10.1763352">
                <ele>199.0</ele>
                <time>2020-08-23T08:12:24.000Z</time>
                <name>Trackpoint 1466</name>
            </trkpt>
            <trkpt lat="49.9369056" lon="10.1763464">
                <ele>199.0</ele>
                <time>2020-08-23T08:12:26.000Z</time>
                <name>Trackpoint 1467</name>
            </trkpt>
            <trkpt lat="49.9367904" lon="10.1763632">
                <ele>199.0</ele>
                <time>2020-08-23T08:12:28.000Z</time>
                <name>Trackpoint 1468</name>
            </trkpt>
            <trkpt lat="49.9366784" lon="10.1763736">
                <ele>198.0</ele>
                <time>2020-08-23T08:12:30.000Z</time>
                <name>Trackpoint 1469</name>
            </trkpt>
            <trkpt lat="49.9365664" lon="10.1763896">
                <ele>198.0</ele>
                <time>2020-08-23T08:12:32.000Z</time>
                <name>Trackpoint 1470</name>
            </trkpt>
            <trkpt lat="49.9364512" lon="10.1764024">
                <ele>198.0</ele>
                <time>2020-08-23T08:12:34.000Z</time>
                <name>Trackpoint 1471</name>
            </trkpt>
            <trkpt lat="49.936336" lon="10.1764152">
                <ele>198.0</ele>
                <time>2020-08-23T08:12:36.000Z</time>
                <name>Trackpoint 1472</name>
            </trkpt>
            <trkpt lat="49.9362304" lon="10.1764224">
                <ele>199.0</ele>
                <time>2020-08-23T08:12:38.000Z</time>
                <name>Trackpoint 1473</name>
            </trkpt>
            <trkpt lat="49.9361184" lon="10.176432">
                <ele>199.0</ele>
                <time>2020-08-23T08:12:40.000Z</time>
                <name>Trackpoint 1474</name>
            </trkpt>
            <trkpt lat="49.9360128" lon="10.1764384">
                <ele>198.0</ele>
                <time>2020-08-23T08:12:42.000Z</time>
                <name>Trackpoint 1475</name>
            </trkpt>
            <trkpt lat="49.9359008" lon="10.176448">
                <ele>198.0</ele>
                <time>2020-08-23T08:12:44.000Z</time>
                <name>Trackpoint 1476</name>
            </trkpt>
            <trkpt lat="49.9357984" lon="10.1764584">
                <ele>197.0</ele>
                <time>2020-08-23T08:12:46.000Z</time>
                <name>Trackpoint 1477</name>
            </trkpt>
            <trkpt lat="49.935696" lon="10.176472">
                <ele>197.0</ele>
                <time>2020-08-23T08:12:48.000Z</time>
                <name>Trackpoint 1478</name>
            </trkpt>
            <trkpt lat="49.9355936" lon="10.1764744">
                <ele>198.0</ele>
                <time>2020-08-23T08:12:50.000Z</time>
                <name>Trackpoint 1479</name>
            </trkpt>
            <trkpt lat="49.9354976" lon="10.1764816">
                <ele>197.0</ele>
                <time>2020-08-23T08:12:52.000Z</time>
                <name>Trackpoint 1480</name>
            </trkpt>
            <trkpt lat="49.9354048" lon="10.176488">
                <ele>198.0</ele>
                <time>2020-08-23T08:12:54.000Z</time>
                <name>Trackpoint 1481</name>
            </trkpt>
            <trkpt lat="49.9352736" lon="10.1764984">
                <ele>198.0</ele>
                <time>2020-08-23T08:12:57.000Z</time>
                <name>Trackpoint 1482</name>
            </trkpt>
            <trkpt lat="49.935136" lon="10.1765032">
                <ele>200.0</ele>
                <time>2020-08-23T08:13:00.000Z</time>
                <name>Trackpoint 1483</name>
            </trkpt>
            <trkpt lat="49.9350176" lon="10.1765136">
                <ele>202.0</ele>
                <time>2020-08-23T08:13:03.000Z</time>
                <name>Trackpoint 1484</name>
            </trkpt>
            <trkpt lat="49.9349088" lon="10.1765816">
                <ele>203.0</ele>
                <time>2020-08-23T08:13:06.000Z</time>
                <name>Trackpoint 1485</name>
            </trkpt>
            <trkpt lat="49.9348096" lon="10.176608">
                <ele>202.0</ele>
                <time>2020-08-23T08:13:08.000Z</time>
                <name>Trackpoint 1486</name>
            </trkpt>
            <trkpt lat="49.934704" lon="10.1766216">
                <ele>202.0</ele>
                <time>2020-08-23T08:13:10.000Z</time>
                <name>Trackpoint 1487</name>
            </trkpt>
            <trkpt lat="49.9346016" lon="10.1766256">
                <ele>203.0</ele>
                <time>2020-08-23T08:13:12.000Z</time>
                <name>Trackpoint 1488</name>
            </trkpt>
            <trkpt lat="49.9344992" lon="10.1766344">
                <ele>203.0</ele>
                <time>2020-08-23T08:13:14.000Z</time>
                <name>Trackpoint 1489</name>
            </trkpt>
            <trkpt lat="49.9343936" lon="10.1766504">
                <ele>201.0</ele>
                <time>2020-08-23T08:13:16.000Z</time>
                <name>Trackpoint 1490</name>
            </trkpt>
            <trkpt lat="49.9342944" lon="10.1766632">
                <ele>201.0</ele>
                <time>2020-08-23T08:13:18.000Z</time>
                <name>Trackpoint 1491</name>
            </trkpt>
            <trkpt lat="49.9341952" lon="10.176672">
                <ele>201.0</ele>
                <time>2020-08-23T08:13:20.000Z</time>
                <name>Trackpoint 1492</name>
            </trkpt>
            <trkpt lat="49.9340928" lon="10.1766856">
                <ele>201.0</ele>
                <time>2020-08-23T08:13:22.000Z</time>
                <name>Trackpoint 1493</name>
            </trkpt>
            <trkpt lat="49.9339872" lon="10.176712">
                <ele>201.0</ele>
                <time>2020-08-23T08:13:24.000Z</time>
                <name>Trackpoint 1494</name>
            </trkpt>
            <trkpt lat="49.9338848" lon="10.1767328">
                <ele>200.0</ele>
                <time>2020-08-23T08:13:26.000Z</time>
                <name>Trackpoint 1495</name>
            </trkpt>
            <trkpt lat="49.9337792" lon="10.1767568">
                <ele>200.0</ele>
                <time>2020-08-23T08:13:28.000Z</time>
                <name>Trackpoint 1496</name>
            </trkpt>
            <trkpt lat="49.9336768" lon="10.17678">
                <ele>200.0</ele>
                <time>2020-08-23T08:13:30.000Z</time>
                <name>Trackpoint 1497</name>
            </trkpt>
            <trkpt lat="49.9335712" lon="10.1767952">
                <ele>200.0</ele>
                <time>2020-08-23T08:13:32.000Z</time>
                <name>Trackpoint 1498</name>
            </trkpt>
            <trkpt lat="49.9334592" lon="10.1768264">
                <ele>200.0</ele>
                <time>2020-08-23T08:13:34.000Z</time>
                <name>Trackpoint 1499</name>
            </trkpt>
            <trkpt lat="49.9333568" lon="10.1768504">
                <ele>200.0</ele>
                <time>2020-08-23T08:13:36.000Z</time>
                <name>Trackpoint 1500</name>
            </trkpt>
            <trkpt lat="49.9332512" lon="10.1768648">
                <ele>200.0</ele>
                <time>2020-08-23T08:13:38.000Z</time>
                <name>Trackpoint 1501</name>
            </trkpt>
            <trkpt lat="49.9331424" lon="10.1768848">
                <ele>201.0</ele>
                <time>2020-08-23T08:13:40.000Z</time>
                <name>Trackpoint 1502</name>
            </trkpt>
            <trkpt lat="49.9330368" lon="10.1769064">
                <ele>201.0</ele>
                <time>2020-08-23T08:13:42.000Z</time>
                <name>Trackpoint 1503</name>
            </trkpt>
            <trkpt lat="49.9329376" lon="10.1769184">
                <ele>201.0</ele>
                <time>2020-08-23T08:13:44.000Z</time>
                <name>Trackpoint 1504</name>
            </trkpt>
            <trkpt lat="49.9328352" lon="10.1769368">
                <ele>200.0</ele>
                <time>2020-08-23T08:13:46.000Z</time>
                <name>Trackpoint 1505</name>
            </trkpt>
            <trkpt lat="49.9327264" lon="10.1769552">
                <ele>200.0</ele>
                <time>2020-08-23T08:13:48.000Z</time>
                <name>Trackpoint 1506</name>
            </trkpt>
            <trkpt lat="49.9326208" lon="10.1769736">
                <ele>200.0</ele>
                <time>2020-08-23T08:13:50.000Z</time>
                <name>Trackpoint 1507</name>
            </trkpt>
            <trkpt lat="49.9325088" lon="10.177">
                <ele>200.0</ele>
                <time>2020-08-23T08:13:52.000Z</time>
                <name>Trackpoint 1508</name>
            </trkpt>
            <trkpt lat="49.9324032" lon="10.1770216">
                <ele>199.0</ele>
                <time>2020-08-23T08:13:54.000Z</time>
                <name>Trackpoint 1509</name>
            </trkpt>
            <trkpt lat="49.9322976" lon="10.177036">
                <ele>199.0</ele>
                <time>2020-08-23T08:13:56.000Z</time>
                <name>Trackpoint 1510</name>
            </trkpt>
            <trkpt lat="49.9321888" lon="10.1770552">
                <ele>199.0</ele>
                <time>2020-08-23T08:13:58.000Z</time>
                <name>Trackpoint 1511</name>
            </trkpt>
            <trkpt lat="49.9320768" lon="10.1770712">
                <ele>199.0</ele>
                <time>2020-08-23T08:14:00.000Z</time>
                <name>Trackpoint 1512</name>
            </trkpt>
            <trkpt lat="49.9319648" lon="10.1770952">
                <ele>199.0</ele>
                <time>2020-08-23T08:14:02.000Z</time>
                <name>Trackpoint 1513</name>
            </trkpt>
            <trkpt lat="49.9318528" lon="10.1771232">
                <ele>199.0</ele>
                <time>2020-08-23T08:14:04.000Z</time>
                <name>Trackpoint 1514</name>
            </trkpt>
            <trkpt lat="49.931744" lon="10.1771424">
                <ele>200.0</ele>
                <time>2020-08-23T08:14:06.000Z</time>
                <name>Trackpoint 1515</name>
            </trkpt>
            <trkpt lat="49.9316384" lon="10.17716">
                <ele>199.0</ele>
                <time>2020-08-23T08:14:08.000Z</time>
                <name>Trackpoint 1516</name>
            </trkpt>
            <trkpt lat="49.9315296" lon="10.177172">
                <ele>200.0</ele>
                <time>2020-08-23T08:14:10.000Z</time>
                <name>Trackpoint 1517</name>
            </trkpt>
            <trkpt lat="49.9314272" lon="10.1771896">
                <ele>199.0</ele>
                <time>2020-08-23T08:14:12.000Z</time>
                <name>Trackpoint 1518</name>
            </trkpt>
            <trkpt lat="49.931328" lon="10.1772168">
                <ele>200.0</ele>
                <time>2020-08-23T08:14:14.000Z</time>
                <name>Trackpoint 1519</name>
            </trkpt>
            <trkpt lat="49.9312288" lon="10.1772416">
                <ele>200.0</ele>
                <time>2020-08-23T08:14:16.000Z</time>
                <name>Trackpoint 1520</name>
            </trkpt>
            <trkpt lat="49.9311264" lon="10.177268">
                <ele>200.0</ele>
                <time>2020-08-23T08:14:18.000Z</time>
                <name>Trackpoint 1521</name>
            </trkpt>
            <trkpt lat="49.9310272" lon="10.1772896">
                <ele>199.0</ele>
                <time>2020-08-23T08:14:20.000Z</time>
                <name>Trackpoint 1522</name>
            </trkpt>
            <trkpt lat="49.930928" lon="10.1773184">
                <ele>199.0</ele>
                <time>2020-08-23T08:14:22.000Z</time>
                <name>Trackpoint 1523</name>
            </trkpt>
            <trkpt lat="49.9308288" lon="10.177332">
                <ele>200.0</ele>
                <time>2020-08-23T08:14:24.000Z</time>
                <name>Trackpoint 1524</name>
            </trkpt>
            <trkpt lat="49.9307296" lon="10.1773552">
                <ele>200.0</ele>
                <time>2020-08-23T08:14:26.000Z</time>
                <name>Trackpoint 1525</name>
            </trkpt>
            <trkpt lat="49.9306336" lon="10.1773768">
                <ele>201.0</ele>
                <time>2020-08-23T08:14:28.000Z</time>
                <name>Trackpoint 1526</name>
            </trkpt>
            <trkpt lat="49.9305376" lon="10.1774056">
                <ele>201.0</ele>
                <time>2020-08-23T08:14:30.000Z</time>
                <name>Trackpoint 1527</name>
            </trkpt>
            <trkpt lat="49.9304416" lon="10.1774328">
                <ele>200.0</ele>
                <time>2020-08-23T08:14:32.000Z</time>
                <name>Trackpoint 1528</name>
            </trkpt>
            <trkpt lat="49.9303392" lon="10.1774704">
                <ele>201.0</ele>
                <time>2020-08-23T08:14:34.000Z</time>
                <name>Trackpoint 1529</name>
            </trkpt>
            <trkpt lat="49.9302496" lon="10.1775064">
                <ele>200.0</ele>
                <time>2020-08-23T08:14:36.000Z</time>
                <name>Trackpoint 1530</name>
            </trkpt>
            <trkpt lat="49.9301504" lon="10.1775416">
                <ele>200.0</ele>
                <time>2020-08-23T08:14:38.000Z</time>
                <name>Trackpoint 1531</name>
            </trkpt>
            <trkpt lat="49.9300544" lon="10.177564">
                <ele>199.0</ele>
                <time>2020-08-23T08:14:40.000Z</time>
                <name>Trackpoint 1532</name>
            </trkpt>
            <trkpt lat="49.9299584" lon="10.1775904">
                <ele>198.0</ele>
                <time>2020-08-23T08:14:42.000Z</time>
                <name>Trackpoint 1533</name>
            </trkpt>
            <trkpt lat="49.929856" lon="10.1776112">
                <ele>198.0</ele>
                <time>2020-08-23T08:14:44.000Z</time>
                <name>Trackpoint 1534</name>
            </trkpt>
            <trkpt lat="49.9297632" lon="10.1776336">
                <ele>199.0</ele>
                <time>2020-08-23T08:14:46.000Z</time>
                <name>Trackpoint 1535</name>
            </trkpt>
            <trkpt lat="49.9296384" lon="10.17768">
                <ele>199.0</ele>
                <time>2020-08-23T08:14:49.000Z</time>
                <name>Trackpoint 1536</name>
            </trkpt>
            <trkpt lat="49.9295296" lon="10.1777064">
                <ele>199.0</ele>
                <time>2020-08-23T08:14:52.000Z</time>
                <name>Trackpoint 1537</name>
            </trkpt>
            <trkpt lat="49.9294272" lon="10.1777048">
                <ele>201.0</ele>
                <time>2020-08-23T08:14:55.000Z</time>
                <name>Trackpoint 1538</name>
            </trkpt>
            <trkpt lat="49.9293408" lon="10.177676">
                <ele>203.0</ele>
                <time>2020-08-23T08:14:58.000Z</time>
                <name>Trackpoint 1539</name>
            </trkpt>
            <trkpt lat="49.929248" lon="10.1776504">
                <ele>204.0</ele>
                <time>2020-08-23T08:15:01.000Z</time>
                <name>Trackpoint 1540</name>
            </trkpt>
            <trkpt lat="49.9291456" lon="10.1776648">
                <ele>203.0</ele>
                <time>2020-08-23T08:15:04.000Z</time>
                <name>Trackpoint 1541</name>
            </trkpt>
            <trkpt lat="49.9290208" lon="10.1776896">
                <ele>203.0</ele>
                <time>2020-08-23T08:15:07.000Z</time>
                <name>Trackpoint 1542</name>
            </trkpt>
            <trkpt lat="49.9289312" lon="10.17772">
                <ele>203.0</ele>
                <time>2020-08-23T08:15:09.000Z</time>
                <name>Trackpoint 1543</name>
            </trkpt>
            <trkpt lat="49.928832" lon="10.1777464">
                <ele>203.0</ele>
                <time>2020-08-23T08:15:11.000Z</time>
                <name>Trackpoint 1544</name>
            </trkpt>
            <trkpt lat="49.9287328" lon="10.1777688">
                <ele>203.0</ele>
                <time>2020-08-23T08:15:13.000Z</time>
                <name>Trackpoint 1545</name>
            </trkpt>
            <trkpt lat="49.9286336" lon="10.1777896">
                <ele>203.0</ele>
                <time>2020-08-23T08:15:15.000Z</time>
                <name>Trackpoint 1546</name>
            </trkpt>
            <trkpt lat="49.9285312" lon="10.177812">
                <ele>202.0</ele>
                <time>2020-08-23T08:15:17.000Z</time>
                <name>Trackpoint 1547</name>
            </trkpt>
            <trkpt lat="49.9284256" lon="10.1778352">
                <ele>202.0</ele>
                <time>2020-08-23T08:15:19.000Z</time>
                <name>Trackpoint 1548</name>
            </trkpt>
            <trkpt lat="49.9283104" lon="10.177852">
                <ele>202.0</ele>
                <time>2020-08-23T08:15:21.000Z</time>
                <name>Trackpoint 1549</name>
            </trkpt>
            <trkpt lat="49.9281984" lon="10.177872">
                <ele>203.0</ele>
                <time>2020-08-23T08:15:23.000Z</time>
                <name>Trackpoint 1550</name>
            </trkpt>
            <trkpt lat="49.9280864" lon="10.177892">
                <ele>202.0</ele>
                <time>2020-08-23T08:15:25.000Z</time>
                <name>Trackpoint 1551</name>
            </trkpt>
            <trkpt lat="49.9279744" lon="10.1779096">
                <ele>202.0</ele>
                <time>2020-08-23T08:15:27.000Z</time>
                <name>Trackpoint 1552</name>
            </trkpt>
            <trkpt lat="49.9278592" lon="10.177932">
                <ele>202.0</ele>
                <time>2020-08-23T08:15:29.000Z</time>
                <name>Trackpoint 1553</name>
            </trkpt>
            <trkpt lat="49.9277504" lon="10.1779472">
                <ele>202.0</ele>
                <time>2020-08-23T08:15:31.000Z</time>
                <name>Trackpoint 1554</name>
            </trkpt>
            <trkpt lat="49.9276352" lon="10.1779632">
                <ele>201.0</ele>
                <time>2020-08-23T08:15:33.000Z</time>
                <name>Trackpoint 1555</name>
            </trkpt>
            <trkpt lat="49.9275232" lon="10.1779808">
                <ele>201.0</ele>
                <time>2020-08-23T08:15:35.000Z</time>
                <name>Trackpoint 1556</name>
            </trkpt>
            <trkpt lat="49.9274112" lon="10.1779944">
                <ele>201.0</ele>
                <time>2020-08-23T08:15:37.000Z</time>
                <name>Trackpoint 1557</name>
            </trkpt>
            <trkpt lat="49.9273024" lon="10.1780096">
                <ele>200.0</ele>
                <time>2020-08-23T08:15:39.000Z</time>
                <name>Trackpoint 1558</name>
            </trkpt>
            <trkpt lat="49.927184" lon="10.1780304">
                <ele>201.0</ele>
                <time>2020-08-23T08:15:41.000Z</time>
                <name>Trackpoint 1559</name>
            </trkpt>
            <trkpt lat="49.9270784" lon="10.1780456">
                <ele>200.0</ele>
                <time>2020-08-23T08:15:43.000Z</time>
                <name>Trackpoint 1560</name>
            </trkpt>
            <trkpt lat="49.9269632" lon="10.1780632">
                <ele>200.0</ele>
                <time>2020-08-23T08:15:45.000Z</time>
                <name>Trackpoint 1561</name>
            </trkpt>
            <trkpt lat="49.926848" lon="10.17808">
                <ele>200.0</ele>
                <time>2020-08-23T08:15:47.000Z</time>
                <name>Trackpoint 1562</name>
            </trkpt>
            <trkpt lat="49.9267392" lon="10.1780968">
                <ele>199.0</ele>
                <time>2020-08-23T08:15:49.000Z</time>
                <name>Trackpoint 1563</name>
            </trkpt>
            <trkpt lat="49.9266304" lon="10.1781128">
                <ele>198.0</ele>
                <time>2020-08-23T08:15:51.000Z</time>
                <name>Trackpoint 1564</name>
            </trkpt>
            <trkpt lat="49.9265248" lon="10.1781304">
                <ele>198.0</ele>
                <time>2020-08-23T08:15:53.000Z</time>
                <name>Trackpoint 1565</name>
            </trkpt>
            <trkpt lat="49.9264192" lon="10.1781456">
                <ele>198.0</ele>
                <time>2020-08-23T08:15:55.000Z</time>
                <name>Trackpoint 1566</name>
            </trkpt>
            <trkpt lat="49.9263104" lon="10.1781616">
                <ele>198.0</ele>
                <time>2020-08-23T08:15:57.000Z</time>
                <name>Trackpoint 1567</name>
            </trkpt>
            <trkpt lat="49.926208" lon="10.1781752">
                <ele>197.0</ele>
                <time>2020-08-23T08:15:59.000Z</time>
                <name>Trackpoint 1568</name>
            </trkpt>
            <trkpt lat="49.9261056" lon="10.178188">
                <ele>197.0</ele>
                <time>2020-08-23T08:16:01.000Z</time>
                <name>Trackpoint 1569</name>
            </trkpt>
            <trkpt lat="49.9260096" lon="10.1782016">
                <ele>198.0</ele>
                <time>2020-08-23T08:16:03.000Z</time>
                <name>Trackpoint 1570</name>
            </trkpt>
            <trkpt lat="49.9259136" lon="10.1782176">
                <ele>197.0</ele>
                <time>2020-08-23T08:16:05.000Z</time>
                <name>Trackpoint 1571</name>
            </trkpt>
            <trkpt lat="49.925824" lon="10.1782304">
                <ele>197.0</ele>
                <time>2020-08-23T08:16:07.000Z</time>
                <name>Trackpoint 1572</name>
            </trkpt>
            <trkpt lat="49.9257312" lon="10.1782376">
                <ele>198.0</ele>
                <time>2020-08-23T08:16:09.000Z</time>
                <name>Trackpoint 1573</name>
            </trkpt>
            <trkpt lat="49.9256416" lon="10.1782512">
                <ele>197.0</ele>
                <time>2020-08-23T08:16:11.000Z</time>
                <name>Trackpoint 1574</name>
            </trkpt>
            <trkpt lat="49.925552" lon="10.1782648">
                <ele>198.0</ele>
                <time>2020-08-23T08:16:13.000Z</time>
                <name>Trackpoint 1575</name>
            </trkpt>
            <trkpt lat="49.9254272" lon="10.178284">
                <ele>198.0</ele>
                <time>2020-08-23T08:16:16.000Z</time>
                <name>Trackpoint 1576</name>
            </trkpt>
            <trkpt lat="49.925296" lon="10.1783">
                <ele>198.0</ele>
                <time>2020-08-23T08:16:19.000Z</time>
                <name>Trackpoint 1577</name>
            </trkpt>
            <trkpt lat="49.9252" lon="10.1783064">
                <ele>198.0</ele>
                <time>2020-08-23T08:16:21.000Z</time>
                <name>Trackpoint 1578</name>
            </trkpt>
            <trkpt lat="49.9250976" lon="10.17832">
                <ele>198.0</ele>
                <time>2020-08-23T08:16:23.000Z</time>
                <name>Trackpoint 1579</name>
            </trkpt>
            <trkpt lat="49.9249952" lon="10.1783304">
                <ele>198.0</ele>
                <time>2020-08-23T08:16:25.000Z</time>
                <name>Trackpoint 1580</name>
            </trkpt>
            <trkpt lat="49.924896" lon="10.1783368">
                <ele>197.0</ele>
                <time>2020-08-23T08:16:27.000Z</time>
                <name>Trackpoint 1581</name>
            </trkpt>
            <trkpt lat="49.9247968" lon="10.1783448">
                <ele>197.0</ele>
                <time>2020-08-23T08:16:29.000Z</time>
                <name>Trackpoint 1582</name>
            </trkpt>
            <trkpt lat="49.9247008" lon="10.1783536">
                <ele>197.0</ele>
                <time>2020-08-23T08:16:31.000Z</time>
                <name>Trackpoint 1583</name>
            </trkpt>
            <trkpt lat="49.9245696" lon="10.178364">
                <ele>197.0</ele>
                <time>2020-08-23T08:16:34.000Z</time>
                <name>Trackpoint 1584</name>
            </trkpt>
            <trkpt lat="49.92448" lon="10.1783816">
                <ele>197.0</ele>
                <time>2020-08-23T08:16:36.000Z</time>
                <name>Trackpoint 1585</name>
            </trkpt>
            <trkpt lat="49.9244256" lon="10.178456">
                <ele>198.0</ele>
                <time>2020-08-23T08:16:38.000Z</time>
                <name>Trackpoint 1586</name>
            </trkpt>
            <trkpt lat="49.9244128" lon="10.1785544">
                <ele>198.0</ele>
                <time>2020-08-23T08:16:40.000Z</time>
                <name>Trackpoint 1587</name>
            </trkpt>
            <trkpt lat="49.9243744" lon="10.1786632">
                <ele>198.0</ele>
                <time>2020-08-23T08:16:42.000Z</time>
                <name>Trackpoint 1588</name>
            </trkpt>
            <trkpt lat="49.9243072" lon="10.1787552">
                <ele>198.0</ele>
                <time>2020-08-23T08:16:44.000Z</time>
                <name>Trackpoint 1589</name>
            </trkpt>
            <trkpt lat="49.9242176" lon="10.1787856">
                <ele>198.0</ele>
                <time>2020-08-23T08:16:46.000Z</time>
                <name>Trackpoint 1590</name>
            </trkpt>
            <trkpt lat="49.9241248" lon="10.1787904">
                <ele>198.0</ele>
                <time>2020-08-23T08:16:48.000Z</time>
                <name>Trackpoint 1591</name>
            </trkpt>
            <trkpt lat="49.9240288" lon="10.178808">
                <ele>198.0</ele>
                <time>2020-08-23T08:16:50.000Z</time>
                <name>Trackpoint 1592</name>
            </trkpt>
            <trkpt lat="49.9239392" lon="10.1788328">
                <ele>198.0</ele>
                <time>2020-08-23T08:16:52.000Z</time>
                <name>Trackpoint 1593</name>
            </trkpt>
            <trkpt lat="49.9238432" lon="10.178852">
                <ele>198.0</ele>
                <time>2020-08-23T08:16:54.000Z</time>
                <name>Trackpoint 1594</name>
            </trkpt>
            <trkpt lat="49.9237376" lon="10.178868">
                <ele>199.0</ele>
                <time>2020-08-23T08:16:56.000Z</time>
                <name>Trackpoint 1595</name>
            </trkpt>
            <trkpt lat="49.9236416" lon="10.1788816">
                <ele>199.0</ele>
                <time>2020-08-23T08:16:58.000Z</time>
                <name>Trackpoint 1596</name>
            </trkpt>
            <trkpt lat="49.9235488" lon="10.1789">
                <ele>199.0</ele>
                <time>2020-08-23T08:17:00.000Z</time>
                <name>Trackpoint 1597</name>
            </trkpt>
            <trkpt lat="49.9234496" lon="10.1789112">
                <ele>199.0</ele>
                <time>2020-08-23T08:17:02.000Z</time>
                <name>Trackpoint 1598</name>
            </trkpt>
            <trkpt lat="49.9233536" lon="10.1789264">
                <ele>199.0</ele>
                <time>2020-08-23T08:17:04.000Z</time>
                <name>Trackpoint 1599</name>
            </trkpt>
            <trkpt lat="49.9232256" lon="10.1789512">
                <ele>198.0</ele>
                <time>2020-08-23T08:17:07.000Z</time>
                <name>Trackpoint 1600</name>
            </trkpt>
            <trkpt lat="49.923104" lon="10.17898">
                <ele>199.0</ele>
                <time>2020-08-23T08:17:10.000Z</time>
                <name>Trackpoint 1601</name>
            </trkpt>
            <trkpt lat="49.9229952" lon="10.1789904">
                <ele>199.0</ele>
                <time>2020-08-23T08:17:13.000Z</time>
                <name>Trackpoint 1602</name>
            </trkpt>
            <trkpt lat="49.922896" lon="10.1790016">
                <ele>198.0</ele>
                <time>2020-08-23T08:17:16.000Z</time>
                <name>Trackpoint 1603</name>
            </trkpt>
            <trkpt lat="49.9227904" lon="10.1790152">
                <ele>198.0</ele>
                <time>2020-08-23T08:17:19.000Z</time>
                <name>Trackpoint 1604</name>
            </trkpt>
            <trkpt lat="49.922672" lon="10.1790416">
                <ele>198.0</ele>
                <time>2020-08-23T08:17:23.000Z</time>
                <name>Trackpoint 1605</name>
            </trkpt>
            <trkpt lat="49.9225536" lon="10.1790536">
                <ele>198.0</ele>
                <time>2020-08-23T08:17:27.000Z</time>
                <name>Trackpoint 1606</name>
            </trkpt>
            <trkpt lat="49.9224448" lon="10.1790648">
                <ele>198.0</ele>
                <time>2020-08-23T08:17:31.000Z</time>
                <name>Trackpoint 1607</name>
            </trkpt>
            <trkpt lat="49.922352" lon="10.1790216">
                <ele>198.0</ele>
                <time>2020-08-23T08:17:35.000Z</time>
                <name>Trackpoint 1608</name>
            </trkpt>
            <trkpt lat="49.9222816" lon="10.1789352">
                <ele>198.0</ele>
                <time>2020-08-23T08:17:38.000Z</time>
                <name>Trackpoint 1609</name>
            </trkpt>
            <trkpt lat="49.9222496" lon="10.1788256">
                <ele>198.0</ele>
                <time>2020-08-23T08:17:41.000Z</time>
                <name>Trackpoint 1610</name>
            </trkpt>
            <trkpt lat="49.9221504" lon="10.1787952">
                <ele>199.0</ele>
                <time>2020-08-23T08:17:46.000Z</time>
                <name>Trackpoint 1611</name>
            </trkpt>
            <trkpt lat="49.9220576" lon="10.1788552">
                <ele>198.0</ele>
                <time>2020-08-23T08:17:50.000Z</time>
                <name>Trackpoint 1612</name>
            </trkpt>
            <trkpt lat="49.9219616" lon="10.178892">
                <ele>199.0</ele>
                <time>2020-08-23T08:17:54.000Z</time>
                <name>Trackpoint 1613</name>
            </trkpt>
            <trkpt lat="49.9218688" lon="10.1789152">
                <ele>198.0</ele>
                <time>2020-08-23T08:17:58.000Z</time>
                <name>Trackpoint 1614</name>
            </trkpt>
            <trkpt lat="49.921776" lon="10.1789688">
                <ele>199.0</ele>
                <time>2020-08-23T08:18:02.000Z</time>
                <name>Trackpoint 1615</name>
            </trkpt>
            <trkpt lat="49.9217152" lon="10.1790384">
                <ele>199.0</ele>
                <time>2020-08-23T08:18:07.000Z</time>
                <name>Trackpoint 1616</name>
            </trkpt>
            <trkpt lat="49.9217408" lon="10.1791336">
                <ele>199.0</ele>
                <time>2020-08-23T08:20:49.000Z</time>
                <name>Trackpoint 1617</name>
            </trkpt>
            <trkpt lat="49.9218336" lon="10.1791112">
                <ele>198.0</ele>
                <time>2020-08-23T08:22:22.000Z</time>
                <name>Trackpoint 1618</name>
            </trkpt>
            <trkpt lat="49.9219296" lon="10.1791152">
                <ele>198.0</ele>
                <time>2020-08-23T08:23:41.000Z</time>
                <name>Trackpoint 1619</name>
            </trkpt>
            <trkpt lat="49.9219872" lon="10.1791848">
                <ele>199.0</ele>
                <time>2020-08-23T08:23:54.000Z</time>
                <name>Trackpoint 1620</name>
            </trkpt>
            <trkpt lat="49.9220288" lon="10.1792672">
                <ele>200.0</ele>
                <time>2020-08-23T08:24:05.000Z</time>
                <name>Trackpoint 1621</name>
            </trkpt>
            <trkpt lat="49.9220704" lon="10.1793568">
                <ele>200.0</ele>
                <time>2020-08-23T08:24:14.000Z</time>
                <name>Trackpoint 1622</name>
            </trkpt>
            <trkpt lat="49.922096" lon="10.179452">
                <ele>200.0</ele>
                <time>2020-08-23T08:24:21.000Z</time>
                <name>Trackpoint 1623</name>
            </trkpt>
            <trkpt lat="49.9221472" lon="10.1795504">
                <ele>200.0</ele>
                <time>2020-08-23T08:24:28.000Z</time>
                <name>Trackpoint 1624</name>
            </trkpt>
            <trkpt lat="49.922176" lon="10.1796512">
                <ele>200.0</ele>
                <time>2020-08-23T08:24:34.000Z</time>
                <name>Trackpoint 1625</name>
            </trkpt>
            <trkpt lat="49.922208" lon="10.1797464">
                <ele>199.0</ele>
                <time>2020-08-23T08:24:40.000Z</time>
                <name>Trackpoint 1626</name>
            </trkpt>
            <trkpt lat="49.92224" lon="10.1798312">
                <ele>200.0</ele>
                <time>2020-08-23T08:24:45.000Z</time>
                <name>Trackpoint 1627</name>
            </trkpt>
            <trkpt lat="49.9222752" lon="10.1799224">
                <ele>200.0</ele>
                <time>2020-08-23T08:24:50.000Z</time>
                <name>Trackpoint 1628</name>
            </trkpt>
            <trkpt lat="49.9223168" lon="10.1800168">
                <ele>201.0</ele>
                <time>2020-08-23T08:24:56.000Z</time>
                <name>Trackpoint 1629</name>
            </trkpt>
            <trkpt lat="49.9223488" lon="10.1801056">
                <ele>201.0</ele>
                <time>2020-08-23T08:25:01.000Z</time>
                <name>Trackpoint 1630</name>
            </trkpt>
            <trkpt lat="49.9223808" lon="10.1801952">
                <ele>201.0</ele>
                <time>2020-08-23T08:25:06.000Z</time>
                <name>Trackpoint 1631</name>
            </trkpt>
            <trkpt lat="49.922416" lon="10.1802856">
                <ele>201.0</ele>
                <time>2020-08-23T08:25:14.000Z</time>
                <name>Trackpoint 1632</name>
            </trkpt>
            <trkpt lat="49.9224704" lon="10.180364">
                <ele>199.0</ele>
                <time>2020-08-23T08:25:29.000Z</time>
                <name>Trackpoint 1633</name>
            </trkpt>
            <trkpt lat="49.9224992" lon="10.1804512">
                <ele>199.0</ele>
                <time>2020-08-23T08:25:36.000Z</time>
                <name>Trackpoint 1634</name>
            </trkpt>
            <trkpt lat="49.9225312" lon="10.1805384">
                <ele>199.0</ele>
                <time>2020-08-23T08:25:40.000Z</time>
                <name>Trackpoint 1635</name>
            </trkpt>
            <trkpt lat="49.9225344" lon="10.1806432">
                <ele>199.0</ele>
                <time>2020-08-23T08:25:43.000Z</time>
                <name>Trackpoint 1636</name>
            </trkpt>
            <trkpt lat="49.9225344" lon="10.1807672">
                <ele>199.0</ele>
                <time>2020-08-23T08:25:46.000Z</time>
                <name>Trackpoint 1637</name>
            </trkpt>
            <trkpt lat="49.9225184" lon="10.180868">
                <ele>199.0</ele>
                <time>2020-08-23T08:25:48.000Z</time>
                <name>Trackpoint 1638</name>
            </trkpt>
            <trkpt lat="49.922496" lon="10.1809904">
                <ele>199.0</ele>
                <time>2020-08-23T08:25:50.000Z</time>
                <name>Trackpoint 1639</name>
            </trkpt>
            <trkpt lat="49.9224736" lon="10.1811152">
                <ele>199.0</ele>
                <time>2020-08-23T08:25:52.000Z</time>
                <name>Trackpoint 1640</name>
            </trkpt>
            <trkpt lat="49.9224384" lon="10.1812432">
                <ele>199.0</ele>
                <time>2020-08-23T08:25:54.000Z</time>
                <name>Trackpoint 1641</name>
            </trkpt>
            <trkpt lat="49.9223936" lon="10.1813672">
                <ele>199.0</ele>
                <time>2020-08-23T08:25:56.000Z</time>
                <name>Trackpoint 1642</name>
            </trkpt>
            <trkpt lat="49.9223392" lon="10.1814784">
                <ele>199.0</ele>
                <time>2020-08-23T08:25:58.000Z</time>
                <name>Trackpoint 1643</name>
            </trkpt>
            <trkpt lat="49.922272" lon="10.1815752">
                <ele>199.0</ele>
                <time>2020-08-23T08:26:00.000Z</time>
                <name>Trackpoint 1644</name>
            </trkpt>
            <trkpt lat="49.9222016" lon="10.1816528">
                <ele>199.0</ele>
                <time>2020-08-23T08:26:02.000Z</time>
                <name>Trackpoint 1645</name>
            </trkpt>
            <trkpt lat="49.9221152" lon="10.1817168">
                <ele>199.0</ele>
                <time>2020-08-23T08:26:04.000Z</time>
                <name>Trackpoint 1646</name>
            </trkpt>
            <trkpt lat="49.9220288" lon="10.1817568">
                <ele>199.0</ele>
                <time>2020-08-23T08:26:06.000Z</time>
                <name>Trackpoint 1647</name>
            </trkpt>
            <trkpt lat="49.9219328" lon="10.1817968">
                <ele>199.0</ele>
                <time>2020-08-23T08:26:08.000Z</time>
                <name>Trackpoint 1648</name>
            </trkpt>
            <trkpt lat="49.9218368" lon="10.181804">
                <ele>199.0</ele>
                <time>2020-08-23T08:26:10.000Z</time>
                <name>Trackpoint 1649</name>
            </trkpt>
            <trkpt lat="49.9217248" lon="10.1818368">
                <ele>198.0</ele>
                <time>2020-08-23T08:26:13.000Z</time>
                <name>Trackpoint 1650</name>
            </trkpt>
            <trkpt lat="49.9216224" lon="10.1818648">
                <ele>198.0</ele>
                <time>2020-08-23T08:26:16.000Z</time>
                <name>Trackpoint 1651</name>
            </trkpt>
            <trkpt lat="49.9215136" lon="10.1818984">
                <ele>198.0</ele>
                <time>2020-08-23T08:26:20.000Z</time>
                <name>Trackpoint 1652</name>
            </trkpt>
            <trkpt lat="49.9214144" lon="10.1819496">
                <ele>199.0</ele>
                <time>2020-08-23T08:26:24.000Z</time>
                <name>Trackpoint 1653</name>
            </trkpt>
            <trkpt lat="49.9213344" lon="10.1819936">
                <ele>199.0</ele>
                <time>2020-08-23T08:26:27.000Z</time>
                <name>Trackpoint 1654</name>
            </trkpt>
            <trkpt lat="49.9212256" lon="10.18204">
                <ele>199.0</ele>
                <time>2020-08-23T08:26:30.000Z</time>
                <name>Trackpoint 1655</name>
            </trkpt>
            <trkpt lat="49.9211488" lon="10.1821048">
                <ele>199.0</ele>
                <time>2020-08-23T08:26:32.000Z</time>
                <name>Trackpoint 1656</name>
            </trkpt>
            <trkpt lat="49.9210688" lon="10.1821808">
                <ele>199.0</ele>
                <time>2020-08-23T08:26:34.000Z</time>
                <name>Trackpoint 1657</name>
            </trkpt>
            <trkpt lat="49.9209888" lon="10.182272">
                <ele>199.0</ele>
                <time>2020-08-23T08:26:36.000Z</time>
                <name>Trackpoint 1658</name>
            </trkpt>
            <trkpt lat="49.9209088" lon="10.182372">
                <ele>199.0</ele>
                <time>2020-08-23T08:26:38.000Z</time>
                <name>Trackpoint 1659</name>
            </trkpt>
            <trkpt lat="49.9208384" lon="10.1824888">
                <ele>199.0</ele>
                <time>2020-08-23T08:26:40.000Z</time>
                <name>Trackpoint 1660</name>
            </trkpt>
            <trkpt lat="49.9207648" lon="10.1826112">
                <ele>200.0</ele>
                <time>2020-08-23T08:26:42.000Z</time>
                <name>Trackpoint 1661</name>
            </trkpt>
            <trkpt lat="49.920704" lon="10.1827448">
                <ele>200.0</ele>
                <time>2020-08-23T08:26:44.000Z</time>
                <name>Trackpoint 1662</name>
            </trkpt>
            <trkpt lat="49.9206464" lon="10.1828872">
                <ele>200.0</ele>
                <time>2020-08-23T08:26:46.000Z</time>
                <name>Trackpoint 1663</name>
            </trkpt>
            <trkpt lat="49.920592" lon="10.1830368">
                <ele>200.0</ele>
                <time>2020-08-23T08:26:48.000Z</time>
                <name>Trackpoint 1664</name>
            </trkpt>
            <trkpt lat="49.9205504" lon="10.1831976">
                <ele>200.0</ele>
                <time>2020-08-23T08:26:50.000Z</time>
                <name>Trackpoint 1665</name>
            </trkpt>
            <trkpt lat="49.920512" lon="10.1833632">
                <ele>200.0</ele>
                <time>2020-08-23T08:26:52.000Z</time>
                <name>Trackpoint 1666</name>
            </trkpt>
            <trkpt lat="49.9204736" lon="10.1835248">
                <ele>200.0</ele>
                <time>2020-08-23T08:26:54.000Z</time>
                <name>Trackpoint 1667</name>
            </trkpt>
            <trkpt lat="49.920448" lon="10.1836952">
                <ele>200.0</ele>
                <time>2020-08-23T08:26:56.000Z</time>
                <name>Trackpoint 1668</name>
            </trkpt>
            <trkpt lat="49.9204224" lon="10.183864">
                <ele>200.0</ele>
                <time>2020-08-23T08:26:58.000Z</time>
                <name>Trackpoint 1669</name>
            </trkpt>
            <trkpt lat="49.9204" lon="10.1840264">
                <ele>200.0</ele>
                <time>2020-08-23T08:27:00.000Z</time>
                <name>Trackpoint 1670</name>
            </trkpt>
            <trkpt lat="49.9203616" lon="10.1841944">
                <ele>200.0</ele>
                <time>2020-08-23T08:27:02.000Z</time>
                <name>Trackpoint 1671</name>
            </trkpt>
            <trkpt lat="49.9203264" lon="10.1843656">
                <ele>200.0</ele>
                <time>2020-08-23T08:27:04.000Z</time>
                <name>Trackpoint 1672</name>
            </trkpt>
            <trkpt lat="49.9202944" lon="10.18454">
                <ele>201.0</ele>
                <time>2020-08-23T08:27:06.000Z</time>
                <name>Trackpoint 1673</name>
            </trkpt>
            <trkpt lat="49.9202848" lon="10.1846312">
                <ele>201.0</ele>
                <time>2020-08-23T08:27:07.000Z</time>
                <name>Trackpoint 1674</name>
            </trkpt>
            <trkpt lat="49.9202656" lon="10.1848032">
                <ele>201.0</ele>
                <time>2020-08-23T08:27:09.000Z</time>
                <name>Trackpoint 1675</name>
            </trkpt>
            <trkpt lat="49.92024" lon="10.1849632">
                <ele>201.0</ele>
                <time>2020-08-23T08:27:11.000Z</time>
                <name>Trackpoint 1676</name>
            </trkpt>
            <trkpt lat="49.92024" lon="10.185108">
                <ele>200.0</ele>
                <time>2020-08-23T08:27:13.000Z</time>
                <name>Trackpoint 1677</name>
            </trkpt>
            <trkpt lat="49.92024" lon="10.1852688">
                <ele>200.0</ele>
                <time>2020-08-23T08:27:15.000Z</time>
                <name>Trackpoint 1678</name>
            </trkpt>
            <trkpt lat="49.92024" lon="10.1854416">
                <ele>200.0</ele>
                <time>2020-08-23T08:27:17.000Z</time>
                <name>Trackpoint 1679</name>
            </trkpt>
            <trkpt lat="49.92024" lon="10.185612">
                <ele>200.0</ele>
                <time>2020-08-23T08:27:19.000Z</time>
                <name>Trackpoint 1680</name>
            </trkpt>
            <trkpt lat="49.9202432" lon="10.1857832">
                <ele>200.0</ele>
                <time>2020-08-23T08:27:21.000Z</time>
                <name>Trackpoint 1681</name>
            </trkpt>
            <trkpt lat="49.9202496" lon="10.1859448">
                <ele>200.0</ele>
                <time>2020-08-23T08:27:23.000Z</time>
                <name>Trackpoint 1682</name>
            </trkpt>
            <trkpt lat="49.9202624" lon="10.1861088">
                <ele>200.0</ele>
                <time>2020-08-23T08:27:25.000Z</time>
                <name>Trackpoint 1683</name>
            </trkpt>
            <trkpt lat="49.9202688" lon="10.1862696">
                <ele>200.0</ele>
                <time>2020-08-23T08:27:27.000Z</time>
                <name>Trackpoint 1684</name>
            </trkpt>
            <trkpt lat="49.9202848" lon="10.1864232">
                <ele>200.0</ele>
                <time>2020-08-23T08:27:29.000Z</time>
                <name>Trackpoint 1685</name>
            </trkpt>
            <trkpt lat="49.9203008" lon="10.186572">
                <ele>200.0</ele>
                <time>2020-08-23T08:27:31.000Z</time>
                <name>Trackpoint 1686</name>
            </trkpt>
            <trkpt lat="49.9203232" lon="10.18672">
                <ele>200.0</ele>
                <time>2020-08-23T08:27:33.000Z</time>
                <name>Trackpoint 1687</name>
            </trkpt>
            <trkpt lat="49.9203456" lon="10.1868736">
                <ele>200.0</ele>
                <time>2020-08-23T08:27:35.000Z</time>
                <name>Trackpoint 1688</name>
            </trkpt>
            <trkpt lat="49.9203744" lon="10.1870232">
                <ele>200.0</ele>
                <time>2020-08-23T08:27:37.000Z</time>
                <name>Trackpoint 1689</name>
            </trkpt>
            <trkpt lat="49.9204064" lon="10.187172">
                <ele>200.0</ele>
                <time>2020-08-23T08:27:39.000Z</time>
                <name>Trackpoint 1690</name>
            </trkpt>
            <trkpt lat="49.9204384" lon="10.1873128">
                <ele>200.0</ele>
                <time>2020-08-23T08:27:41.000Z</time>
                <name>Trackpoint 1691</name>
            </trkpt>
            <trkpt lat="49.9204672" lon="10.1874512">
                <ele>200.0</ele>
                <time>2020-08-23T08:27:43.000Z</time>
                <name>Trackpoint 1692</name>
            </trkpt>
            <trkpt lat="49.9205024" lon="10.1875888">
                <ele>200.0</ele>
                <time>2020-08-23T08:27:45.000Z</time>
                <name>Trackpoint 1693</name>
            </trkpt>
            <trkpt lat="49.9205312" lon="10.1877136">
                <ele>201.0</ele>
                <time>2020-08-23T08:27:47.000Z</time>
                <name>Trackpoint 1694</name>
            </trkpt>
            <trkpt lat="49.9205504" lon="10.1878384">
                <ele>201.0</ele>
                <time>2020-08-23T08:27:49.000Z</time>
                <name>Trackpoint 1695</name>
            </trkpt>
            <trkpt lat="49.9205664" lon="10.1879528">
                <ele>201.0</ele>
                <time>2020-08-23T08:27:51.000Z</time>
                <name>Trackpoint 1696</name>
            </trkpt>
            <trkpt lat="49.9205824" lon="10.18806">
                <ele>202.0</ele>
                <time>2020-08-23T08:27:53.000Z</time>
                <name>Trackpoint 1697</name>
            </trkpt>
            <trkpt lat="49.9205984" lon="10.1881568">
                <ele>202.0</ele>
                <time>2020-08-23T08:27:55.000Z</time>
                <name>Trackpoint 1698</name>
            </trkpt>
            <trkpt lat="49.9206208" lon="10.188276">
                <ele>202.0</ele>
                <time>2020-08-23T08:27:58.000Z</time>
                <name>Trackpoint 1699</name>
            </trkpt>
            <trkpt lat="49.9205408" lon="10.1883648">
                <ele>202.0</ele>
                <time>2020-08-23T08:28:01.000Z</time>
                <name>Trackpoint 1700</name>
            </trkpt>
            <trkpt lat="49.920464" lon="10.1884136">
                <ele>202.0</ele>
                <time>2020-08-23T08:28:03.000Z</time>
                <name>Trackpoint 1701</name>
            </trkpt>
            <trkpt lat="49.9203872" lon="10.1884672">
                <ele>202.0</ele>
                <time>2020-08-23T08:28:05.000Z</time>
                <name>Trackpoint 1702</name>
            </trkpt>
            <trkpt lat="49.920304" lon="10.1885168">
                <ele>202.0</ele>
                <time>2020-08-23T08:28:07.000Z</time>
                <name>Trackpoint 1703</name>
            </trkpt>
            <trkpt lat="49.9202144" lon="10.188572">
                <ele>202.0</ele>
                <time>2020-08-23T08:28:09.000Z</time>
                <name>Trackpoint 1704</name>
            </trkpt>
            <trkpt lat="49.9201216" lon="10.188628">
                <ele>202.0</ele>
                <time>2020-08-23T08:28:11.000Z</time>
                <name>Trackpoint 1705</name>
            </trkpt>
            <trkpt lat="49.920016" lon="10.1886864">
                <ele>202.0</ele>
                <time>2020-08-23T08:28:13.000Z</time>
                <name>Trackpoint 1706</name>
            </trkpt>
            <trkpt lat="49.919904" lon="10.18874">
                <ele>202.0</ele>
                <time>2020-08-23T08:28:15.000Z</time>
                <name>Trackpoint 1707</name>
            </trkpt>
            <trkpt lat="49.9197856" lon="10.1887928">
                <ele>203.0</ele>
                <time>2020-08-23T08:28:17.000Z</time>
                <name>Trackpoint 1708</name>
            </trkpt>
            <trkpt lat="49.9196544" lon="10.1888464">
                <ele>203.0</ele>
                <time>2020-08-23T08:28:19.000Z</time>
                <name>Trackpoint 1709</name>
            </trkpt>
            <trkpt lat="49.9195264" lon="10.1889">
                <ele>203.0</ele>
                <time>2020-08-23T08:28:21.000Z</time>
                <name>Trackpoint 1710</name>
            </trkpt>
            <trkpt lat="49.9194016" lon="10.1889464">
                <ele>203.0</ele>
                <time>2020-08-23T08:28:23.000Z</time>
                <name>Trackpoint 1711</name>
            </trkpt>
            <trkpt lat="49.9192864" lon="10.1889952">
                <ele>203.0</ele>
                <time>2020-08-23T08:28:25.000Z</time>
                <name>Trackpoint 1712</name>
            </trkpt>
            <trkpt lat="49.919168" lon="10.1890352">
                <ele>203.0</ele>
                <time>2020-08-23T08:28:27.000Z</time>
                <name>Trackpoint 1713</name>
            </trkpt>
            <trkpt lat="49.9190496" lon="10.1890696">
                <ele>203.0</ele>
                <time>2020-08-23T08:28:29.000Z</time>
                <name>Trackpoint 1714</name>
            </trkpt>
            <trkpt lat="49.9189344" lon="10.1891">
                <ele>203.0</ele>
                <time>2020-08-23T08:28:31.000Z</time>
                <name>Trackpoint 1715</name>
            </trkpt>
            <trkpt lat="49.918816" lon="10.189132">
                <ele>204.0</ele>
                <time>2020-08-23T08:28:33.000Z</time>
                <name>Trackpoint 1716</name>
            </trkpt>
            <trkpt lat="49.9187008" lon="10.18916">
                <ele>204.0</ele>
                <time>2020-08-23T08:28:35.000Z</time>
                <name>Trackpoint 1717</name>
            </trkpt>
            <trkpt lat="49.918592" lon="10.1891944">
                <ele>203.0</ele>
                <time>2020-08-23T08:28:37.000Z</time>
                <name>Trackpoint 1718</name>
            </trkpt>
            <trkpt lat="49.9184832" lon="10.189232">
                <ele>203.0</ele>
                <time>2020-08-23T08:28:39.000Z</time>
                <name>Trackpoint 1719</name>
            </trkpt>
            <trkpt lat="49.918384" lon="10.1892592">
                <ele>203.0</ele>
                <time>2020-08-23T08:28:41.000Z</time>
                <name>Trackpoint 1720</name>
            </trkpt>
            <trkpt lat="49.9182944" lon="10.189288">
                <ele>203.0</ele>
                <time>2020-08-23T08:28:43.000Z</time>
                <name>Trackpoint 1721</name>
            </trkpt>
            <trkpt lat="49.9181984" lon="10.1893184">
                <ele>203.0</ele>
                <time>2020-08-23T08:28:45.000Z</time>
                <name>Trackpoint 1722</name>
            </trkpt>
            <trkpt lat="49.918096" lon="10.189348">
                <ele>202.0</ele>
                <time>2020-08-23T08:28:47.000Z</time>
                <name>Trackpoint 1723</name>
            </trkpt>
            <trkpt lat="49.917984" lon="10.1893784">
                <ele>203.0</ele>
                <time>2020-08-23T08:28:49.000Z</time>
                <name>Trackpoint 1724</name>
            </trkpt>
            <trkpt lat="49.9178784" lon="10.1894168">
                <ele>203.0</ele>
                <time>2020-08-23T08:28:51.000Z</time>
                <name>Trackpoint 1725</name>
            </trkpt>
            <trkpt lat="49.9177664" lon="10.1894528">
                <ele>203.0</ele>
                <time>2020-08-23T08:28:53.000Z</time>
                <name>Trackpoint 1726</name>
            </trkpt>
            <trkpt lat="49.9176544" lon="10.1894912">
                <ele>202.0</ele>
                <time>2020-08-23T08:28:55.000Z</time>
                <name>Trackpoint 1727</name>
            </trkpt>
            <trkpt lat="49.9175488" lon="10.1895248">
                <ele>202.0</ele>
                <time>2020-08-23T08:28:57.000Z</time>
                <name>Trackpoint 1728</name>
            </trkpt>
            <trkpt lat="49.91744" lon="10.1895568">
                <ele>203.0</ele>
                <time>2020-08-23T08:28:59.000Z</time>
                <name>Trackpoint 1729</name>
            </trkpt>
            <trkpt lat="49.917328" lon="10.1895864">
                <ele>203.0</ele>
                <time>2020-08-23T08:29:01.000Z</time>
                <name>Trackpoint 1730</name>
            </trkpt>
            <trkpt lat="49.9172224" lon="10.1896184">
                <ele>203.0</ele>
                <time>2020-08-23T08:29:03.000Z</time>
                <name>Trackpoint 1731</name>
            </trkpt>
            <trkpt lat="49.9171136" lon="10.1896536">
                <ele>203.0</ele>
                <time>2020-08-23T08:29:05.000Z</time>
                <name>Trackpoint 1732</name>
            </trkpt>
            <trkpt lat="49.917008" lon="10.1896864">
                <ele>203.0</ele>
                <time>2020-08-23T08:29:07.000Z</time>
                <name>Trackpoint 1733</name>
            </trkpt>
            <trkpt lat="49.9168992" lon="10.18972">
                <ele>202.0</ele>
                <time>2020-08-23T08:29:09.000Z</time>
                <name>Trackpoint 1734</name>
            </trkpt>
            <trkpt lat="49.9167936" lon="10.1897552">
                <ele>202.0</ele>
                <time>2020-08-23T08:29:11.000Z</time>
                <name>Trackpoint 1735</name>
            </trkpt>
            <trkpt lat="49.9166816" lon="10.1897896">
                <ele>202.0</ele>
                <time>2020-08-23T08:29:13.000Z</time>
                <name>Trackpoint 1736</name>
            </trkpt>
            <trkpt lat="49.9165792" lon="10.1898272">
                <ele>202.0</ele>
                <time>2020-08-23T08:29:15.000Z</time>
                <name>Trackpoint 1737</name>
            </trkpt>
            <trkpt lat="49.9164736" lon="10.1898584">
                <ele>203.0</ele>
                <time>2020-08-23T08:29:17.000Z</time>
                <name>Trackpoint 1738</name>
            </trkpt>
            <trkpt lat="49.916368" lon="10.1899016">
                <ele>202.0</ele>
                <time>2020-08-23T08:29:19.000Z</time>
                <name>Trackpoint 1739</name>
            </trkpt>
            <trkpt lat="49.9162592" lon="10.1899368">
                <ele>202.0</ele>
                <time>2020-08-23T08:29:21.000Z</time>
                <name>Trackpoint 1740</name>
            </trkpt>
            <trkpt lat="49.9161504" lon="10.1899616">
                <ele>203.0</ele>
                <time>2020-08-23T08:29:23.000Z</time>
                <name>Trackpoint 1741</name>
            </trkpt>
            <trkpt lat="49.9160384" lon="10.1899952">
                <ele>203.0</ele>
                <time>2020-08-23T08:29:25.000Z</time>
                <name>Trackpoint 1742</name>
            </trkpt>
            <trkpt lat="49.9159328" lon="10.190032">
                <ele>203.0</ele>
                <time>2020-08-23T08:29:27.000Z</time>
                <name>Trackpoint 1743</name>
            </trkpt>
            <trkpt lat="49.9158176" lon="10.190072">
                <ele>203.0</ele>
                <time>2020-08-23T08:29:29.000Z</time>
                <name>Trackpoint 1744</name>
            </trkpt>
            <trkpt lat="49.9157024" lon="10.190112">
                <ele>204.0</ele>
                <time>2020-08-23T08:29:31.000Z</time>
                <name>Trackpoint 1745</name>
            </trkpt>
            <trkpt lat="49.9155968" lon="10.1901712">
                <ele>204.0</ele>
                <time>2020-08-23T08:29:33.000Z</time>
                <name>Trackpoint 1746</name>
            </trkpt>
            <trkpt lat="49.9154816" lon="10.1902288">
                <ele>204.0</ele>
                <time>2020-08-23T08:29:35.000Z</time>
                <name>Trackpoint 1747</name>
            </trkpt>
            <trkpt lat="49.915376" lon="10.1902784">
                <ele>203.0</ele>
                <time>2020-08-23T08:29:37.000Z</time>
                <name>Trackpoint 1748</name>
            </trkpt>
            <trkpt lat="49.9152576" lon="10.1903264">
                <ele>203.0</ele>
                <time>2020-08-23T08:29:39.000Z</time>
                <name>Trackpoint 1749</name>
            </trkpt>
            <trkpt lat="49.9151456" lon="10.1903696">
                <ele>203.0</ele>
                <time>2020-08-23T08:29:41.000Z</time>
                <name>Trackpoint 1750</name>
            </trkpt>
            <trkpt lat="49.9150304" lon="10.190416">
                <ele>204.0</ele>
                <time>2020-08-23T08:29:43.000Z</time>
                <name>Trackpoint 1751</name>
            </trkpt>
            <trkpt lat="49.9149216" lon="10.19046">
                <ele>204.0</ele>
                <time>2020-08-23T08:29:45.000Z</time>
                <name>Trackpoint 1752</name>
            </trkpt>
            <trkpt lat="49.9148064" lon="10.1905032">
                <ele>204.0</ele>
                <time>2020-08-23T08:29:47.000Z</time>
                <name>Trackpoint 1753</name>
            </trkpt>
            <trkpt lat="49.9146912" lon="10.1905544">
                <ele>204.0</ele>
                <time>2020-08-23T08:29:49.000Z</time>
                <name>Trackpoint 1754</name>
            </trkpt>
            <trkpt lat="49.9145728" lon="10.1905968">
                <ele>204.0</ele>
                <time>2020-08-23T08:29:51.000Z</time>
                <name>Trackpoint 1755</name>
            </trkpt>
            <trkpt lat="49.9144608" lon="10.1906472">
                <ele>204.0</ele>
                <time>2020-08-23T08:29:53.000Z</time>
                <name>Trackpoint 1756</name>
            </trkpt>
            <trkpt lat="49.9143424" lon="10.1906928">
                <ele>204.0</ele>
                <time>2020-08-23T08:29:55.000Z</time>
                <name>Trackpoint 1757</name>
            </trkpt>
            <trkpt lat="49.9142272" lon="10.1907352">
                <ele>203.0</ele>
                <time>2020-08-23T08:29:57.000Z</time>
                <name>Trackpoint 1758</name>
            </trkpt>
            <trkpt lat="49.914112" lon="10.1907768">
                <ele>203.0</ele>
                <time>2020-08-23T08:29:59.000Z</time>
                <name>Trackpoint 1759</name>
            </trkpt>
            <trkpt lat="49.9139968" lon="10.1908184">
                <ele>203.0</ele>
                <time>2020-08-23T08:30:01.000Z</time>
                <name>Trackpoint 1760</name>
            </trkpt>
            <trkpt lat="49.9138848" lon="10.1908648">
                <ele>203.0</ele>
                <time>2020-08-23T08:30:03.000Z</time>
                <name>Trackpoint 1761</name>
            </trkpt>
            <trkpt lat="49.9137728" lon="10.1908976">
                <ele>204.0</ele>
                <time>2020-08-23T08:30:05.000Z</time>
                <name>Trackpoint 1762</name>
            </trkpt>
            <trkpt lat="49.9136576" lon="10.1909136">
                <ele>203.0</ele>
                <time>2020-08-23T08:30:07.000Z</time>
                <name>Trackpoint 1763</name>
            </trkpt>
            <trkpt lat="49.913552" lon="10.1909104">
                <ele>203.0</ele>
                <time>2020-08-23T08:30:09.000Z</time>
                <name>Trackpoint 1764</name>
            </trkpt>
            <trkpt lat="49.9134496" lon="10.1908968">
                <ele>203.0</ele>
                <time>2020-08-23T08:30:11.000Z</time>
                <name>Trackpoint 1765</name>
            </trkpt>
            <trkpt lat="49.9133536" lon="10.19088">
                <ele>203.0</ele>
                <time>2020-08-23T08:30:13.000Z</time>
                <name>Trackpoint 1766</name>
            </trkpt>
            <trkpt lat="49.9132576" lon="10.1908552">
                <ele>203.0</ele>
                <time>2020-08-23T08:30:15.000Z</time>
                <name>Trackpoint 1767</name>
            </trkpt>
            <trkpt lat="49.9131648" lon="10.1908352">
                <ele>203.0</ele>
                <time>2020-08-23T08:30:17.000Z</time>
                <name>Trackpoint 1768</name>
            </trkpt>
            <trkpt lat="49.91304" lon="10.1907856">
                <ele>203.0</ele>
                <time>2020-08-23T08:30:20.000Z</time>
                <name>Trackpoint 1769</name>
            </trkpt>
            <trkpt lat="49.9129568" lon="10.190748">
                <ele>203.0</ele>
                <time>2020-08-23T08:30:22.000Z</time>
                <name>Trackpoint 1770</name>
            </trkpt>
            <trkpt lat="49.912896" lon="10.1908168">
                <ele>203.0</ele>
                <time>2020-08-23T08:30:27.000Z</time>
                <name>Trackpoint 1771</name>
            </trkpt>
            <trkpt lat="49.9128192" lon="10.1907304">
                <ele>203.0</ele>
                <time>2020-08-23T08:30:55.000Z</time>
                <name>Trackpoint 1772</name>
            </trkpt>
            <trkpt lat="49.9127296" lon="10.1906864">
                <ele>203.0</ele>
                <time>2020-08-23T08:30:57.000Z</time>
                <name>Trackpoint 1773</name>
            </trkpt>
            <trkpt lat="49.9126304" lon="10.1906416">
                <ele>203.0</ele>
                <time>2020-08-23T08:30:59.000Z</time>
                <name>Trackpoint 1774</name>
            </trkpt>
            <trkpt lat="49.9125248" lon="10.1905816">
                <ele>203.0</ele>
                <time>2020-08-23T08:31:01.000Z</time>
                <name>Trackpoint 1775</name>
            </trkpt>
            <trkpt lat="49.9124224" lon="10.190508">
                <ele>203.0</ele>
                <time>2020-08-23T08:31:03.000Z</time>
                <name>Trackpoint 1776</name>
            </trkpt>
            <trkpt lat="49.9123104" lon="10.1904288">
                <ele>203.0</ele>
                <time>2020-08-23T08:31:05.000Z</time>
                <name>Trackpoint 1777</name>
            </trkpt>
            <trkpt lat="49.9122016" lon="10.19034">
                <ele>203.0</ele>
                <time>2020-08-23T08:31:07.000Z</time>
                <name>Trackpoint 1778</name>
            </trkpt>
            <trkpt lat="49.9120864" lon="10.1902536">
                <ele>203.0</ele>
                <time>2020-08-23T08:31:09.000Z</time>
                <name>Trackpoint 1779</name>
            </trkpt>
            <trkpt lat="49.9119744" lon="10.1901648">
                <ele>203.0</ele>
                <time>2020-08-23T08:31:11.000Z</time>
                <name>Trackpoint 1780</name>
            </trkpt>
            <trkpt lat="49.9118624" lon="10.1900784">
                <ele>203.0</ele>
                <time>2020-08-23T08:31:13.000Z</time>
                <name>Trackpoint 1781</name>
            </trkpt>
            <trkpt lat="49.911744" lon="10.1899856">
                <ele>203.0</ele>
                <time>2020-08-23T08:31:15.000Z</time>
                <name>Trackpoint 1782</name>
            </trkpt>
            <trkpt lat="49.9116256" lon="10.1898936">
                <ele>203.0</ele>
                <time>2020-08-23T08:31:17.000Z</time>
                <name>Trackpoint 1783</name>
            </trkpt>
            <trkpt lat="49.9115072" lon="10.1898016">
                <ele>203.0</ele>
                <time>2020-08-23T08:31:19.000Z</time>
                <name>Trackpoint 1784</name>
            </trkpt>
            <trkpt lat="49.9113792" lon="10.1897136">
                <ele>203.0</ele>
                <time>2020-08-23T08:31:21.000Z</time>
                <name>Trackpoint 1785</name>
            </trkpt>
            <trkpt lat="49.9112544" lon="10.1896216">
                <ele>203.0</ele>
                <time>2020-08-23T08:31:23.000Z</time>
                <name>Trackpoint 1786</name>
            </trkpt>
            <trkpt lat="49.911136" lon="10.1895416">
                <ele>202.0</ele>
                <time>2020-08-23T08:31:25.000Z</time>
                <name>Trackpoint 1787</name>
            </trkpt>
            <trkpt lat="49.9110272" lon="10.1894928">
                <ele>202.0</ele>
                <time>2020-08-23T08:31:27.000Z</time>
                <name>Trackpoint 1788</name>
            </trkpt>
            <trkpt lat="49.9109088" lon="10.1894328">
                <ele>201.0</ele>
                <time>2020-08-23T08:31:29.000Z</time>
                <name>Trackpoint 1789</name>
            </trkpt>
            <trkpt lat="49.9107904" lon="10.1893904">
                <ele>201.0</ele>
                <time>2020-08-23T08:31:31.000Z</time>
                <name>Trackpoint 1790</name>
            </trkpt>
            <trkpt lat="49.9106752" lon="10.1893528">
                <ele>200.0</ele>
                <time>2020-08-23T08:31:33.000Z</time>
                <name>Trackpoint 1791</name>
            </trkpt>
            <trkpt lat="49.9105632" lon="10.1893168">
                <ele>199.0</ele>
                <time>2020-08-23T08:31:35.000Z</time>
                <name>Trackpoint 1792</name>
            </trkpt>
            <trkpt lat="49.9104512" lon="10.1892784">
                <ele>199.0</ele>
                <time>2020-08-23T08:31:37.000Z</time>
                <name>Trackpoint 1793</name>
            </trkpt>
            <trkpt lat="49.9103328" lon="10.1892584">
                <ele>199.0</ele>
                <time>2020-08-23T08:31:39.000Z</time>
                <name>Trackpoint 1794</name>
            </trkpt>
            <trkpt lat="49.9102144" lon="10.1892472">
                <ele>199.0</ele>
                <time>2020-08-23T08:31:41.000Z</time>
                <name>Trackpoint 1795</name>
            </trkpt>
            <trkpt lat="49.9100928" lon="10.1892336">
                <ele>199.0</ele>
                <time>2020-08-23T08:31:43.000Z</time>
                <name>Trackpoint 1796</name>
            </trkpt>
            <trkpt lat="49.909968" lon="10.1892232">
                <ele>199.0</ele>
                <time>2020-08-23T08:31:45.000Z</time>
                <name>Trackpoint 1797</name>
            </trkpt>
            <trkpt lat="49.9098464" lon="10.1892208">
                <ele>199.0</ele>
                <time>2020-08-23T08:31:47.000Z</time>
                <name>Trackpoint 1798</name>
            </trkpt>
            <trkpt lat="49.9097248" lon="10.1892232">
                <ele>199.0</ele>
                <time>2020-08-23T08:31:49.000Z</time>
                <name>Trackpoint 1799</name>
            </trkpt>
            <trkpt lat="49.9096032" lon="10.189228">
                <ele>199.0</ele>
                <time>2020-08-23T08:31:51.000Z</time>
                <name>Trackpoint 1800</name>
            </trkpt>
            <trkpt lat="49.909472" lon="10.1892296">
                <ele>199.0</ele>
                <time>2020-08-23T08:31:53.000Z</time>
                <name>Trackpoint 1801</name>
            </trkpt>
            <trkpt lat="49.9093408" lon="10.1892472">
                <ele>199.0</ele>
                <time>2020-08-23T08:31:55.000Z</time>
                <name>Trackpoint 1802</name>
            </trkpt>
            <trkpt lat="49.9092" lon="10.1892768">
                <ele>199.0</ele>
                <time>2020-08-23T08:31:57.000Z</time>
                <name>Trackpoint 1803</name>
            </trkpt>
            <trkpt lat="49.9090656" lon="10.189312">
                <ele>199.0</ele>
                <time>2020-08-23T08:31:59.000Z</time>
                <name>Trackpoint 1804</name>
            </trkpt>
            <trkpt lat="49.9089312" lon="10.189348">
                <ele>199.0</ele>
                <time>2020-08-23T08:32:01.000Z</time>
                <name>Trackpoint 1805</name>
            </trkpt>
            <trkpt lat="49.9088064" lon="10.1893856">
                <ele>200.0</ele>
                <time>2020-08-23T08:32:03.000Z</time>
                <name>Trackpoint 1806</name>
            </trkpt>
            <trkpt lat="49.9086848" lon="10.1894216">
                <ele>199.0</ele>
                <time>2020-08-23T08:32:05.000Z</time>
                <name>Trackpoint 1807</name>
            </trkpt>
            <trkpt lat="49.9085632" lon="10.1894616">
                <ele>199.0</ele>
                <time>2020-08-23T08:32:07.000Z</time>
                <name>Trackpoint 1808</name>
            </trkpt>
            <trkpt lat="49.9084448" lon="10.189504">
                <ele>199.0</ele>
                <time>2020-08-23T08:32:09.000Z</time>
                <name>Trackpoint 1809</name>
            </trkpt>
            <trkpt lat="49.9083168" lon="10.1895416">
                <ele>199.0</ele>
                <time>2020-08-23T08:32:11.000Z</time>
                <name>Trackpoint 1810</name>
            </trkpt>
            <trkpt lat="49.908192" lon="10.18958">
                <ele>199.0</ele>
                <time>2020-08-23T08:32:13.000Z</time>
                <name>Trackpoint 1811</name>
            </trkpt>
            <trkpt lat="49.9080672" lon="10.1896184">
                <ele>199.0</ele>
                <time>2020-08-23T08:32:15.000Z</time>
                <name>Trackpoint 1812</name>
            </trkpt>
            <trkpt lat="49.907936" lon="10.1896584">
                <ele>199.0</ele>
                <time>2020-08-23T08:32:17.000Z</time>
                <name>Trackpoint 1813</name>
            </trkpt>
            <trkpt lat="49.9078016" lon="10.1897024">
                <ele>199.0</ele>
                <time>2020-08-23T08:32:19.000Z</time>
                <name>Trackpoint 1814</name>
            </trkpt>
            <trkpt lat="49.9076704" lon="10.1897432">
                <ele>199.0</ele>
                <time>2020-08-23T08:32:21.000Z</time>
                <name>Trackpoint 1815</name>
            </trkpt>
            <trkpt lat="49.9075392" lon="10.1897872">
                <ele>199.0</ele>
                <time>2020-08-23T08:32:23.000Z</time>
                <name>Trackpoint 1816</name>
            </trkpt>
            <trkpt lat="49.9074048" lon="10.1898248">
                <ele>199.0</ele>
                <time>2020-08-23T08:32:25.000Z</time>
                <name>Trackpoint 1817</name>
            </trkpt>
            <trkpt lat="49.9072736" lon="10.1898696">
                <ele>199.0</ele>
                <time>2020-08-23T08:32:27.000Z</time>
                <name>Trackpoint 1818</name>
            </trkpt>
            <trkpt lat="49.907136" lon="10.189912">
                <ele>199.0</ele>
                <time>2020-08-23T08:32:29.000Z</time>
                <name>Trackpoint 1819</name>
            </trkpt>
            <trkpt lat="49.9069984" lon="10.189952">
                <ele>199.0</ele>
                <time>2020-08-23T08:32:31.000Z</time>
                <name>Trackpoint 1820</name>
            </trkpt>
            <trkpt lat="49.906864" lon="10.1899968">
                <ele>199.0</ele>
                <time>2020-08-23T08:32:33.000Z</time>
                <name>Trackpoint 1821</name>
            </trkpt>
            <trkpt lat="49.9067264" lon="10.1900384">
                <ele>199.0</ele>
                <time>2020-08-23T08:32:35.000Z</time>
                <name>Trackpoint 1822</name>
            </trkpt>
            <trkpt lat="49.9065888" lon="10.1900816">
                <ele>199.0</ele>
                <time>2020-08-23T08:32:37.000Z</time>
                <name>Trackpoint 1823</name>
            </trkpt>
            <trkpt lat="49.9064512" lon="10.1901216">
                <ele>199.0</ele>
                <time>2020-08-23T08:32:39.000Z</time>
                <name>Trackpoint 1824</name>
            </trkpt>
            <trkpt lat="49.90632" lon="10.19016">
                <ele>199.0</ele>
                <time>2020-08-23T08:32:41.000Z</time>
                <name>Trackpoint 1825</name>
            </trkpt>
            <trkpt lat="49.9061952" lon="10.190204">
                <ele>199.0</ele>
                <time>2020-08-23T08:32:43.000Z</time>
                <name>Trackpoint 1826</name>
            </trkpt>
            <trkpt lat="49.9060768" lon="10.1902376">
                <ele>198.0</ele>
                <time>2020-08-23T08:32:45.000Z</time>
                <name>Trackpoint 1827</name>
            </trkpt>
            <trkpt lat="49.905968" lon="10.1902704">
                <ele>198.0</ele>
                <time>2020-08-23T08:32:47.000Z</time>
                <name>Trackpoint 1828</name>
            </trkpt>
            <trkpt lat="49.9058656" lon="10.1902968">
                <ele>199.0</ele>
                <time>2020-08-23T08:32:49.000Z</time>
                <name>Trackpoint 1829</name>
            </trkpt>
            <trkpt lat="49.9057728" lon="10.19032">
                <ele>199.0</ele>
                <time>2020-08-23T08:32:51.000Z</time>
                <name>Trackpoint 1830</name>
            </trkpt>
            <trkpt lat="49.9056768" lon="10.1903432">
                <ele>198.0</ele>
                <time>2020-08-23T08:32:53.000Z</time>
                <name>Trackpoint 1831</name>
            </trkpt>
            <trkpt lat="49.9055776" lon="10.1903664">
                <ele>198.0</ele>
                <time>2020-08-23T08:32:55.000Z</time>
                <name>Trackpoint 1832</name>
            </trkpt>
            <trkpt lat="49.9054784" lon="10.1903912">
                <ele>198.0</ele>
                <time>2020-08-23T08:32:57.000Z</time>
                <name>Trackpoint 1833</name>
            </trkpt>
            <trkpt lat="49.9053728" lon="10.1904184">
                <ele>198.0</ele>
                <time>2020-08-23T08:32:59.000Z</time>
                <name>Trackpoint 1834</name>
            </trkpt>
            <trkpt lat="49.9052672" lon="10.1904424">
                <ele>198.0</ele>
                <time>2020-08-23T08:33:01.000Z</time>
                <name>Trackpoint 1835</name>
            </trkpt>
            <trkpt lat="49.9051616" lon="10.1904648">
                <ele>198.0</ele>
                <time>2020-08-23T08:33:03.000Z</time>
                <name>Trackpoint 1836</name>
            </trkpt>
            <trkpt lat="49.9050592" lon="10.1904832">
                <ele>198.0</ele>
                <time>2020-08-23T08:33:05.000Z</time>
                <name>Trackpoint 1837</name>
            </trkpt>
            <trkpt lat="49.90496" lon="10.1905016">
                <ele>197.0</ele>
                <time>2020-08-23T08:33:07.000Z</time>
                <name>Trackpoint 1838</name>
            </trkpt>
            <trkpt lat="49.904864" lon="10.1905168">
                <ele>197.0</ele>
                <time>2020-08-23T08:33:09.000Z</time>
                <name>Trackpoint 1839</name>
            </trkpt>
            <trkpt lat="49.9047648" lon="10.1905384">
                <ele>197.0</ele>
                <time>2020-08-23T08:33:11.000Z</time>
                <name>Trackpoint 1840</name>
            </trkpt>
            <trkpt lat="49.9046752" lon="10.1905536">
                <ele>197.0</ele>
                <time>2020-08-23T08:33:13.000Z</time>
                <name>Trackpoint 1841</name>
            </trkpt>
            <trkpt lat="49.9045824" lon="10.1905744">
                <ele>198.0</ele>
                <time>2020-08-23T08:33:15.000Z</time>
                <name>Trackpoint 1842</name>
            </trkpt>
            <trkpt lat="49.9044544" lon="10.1906072">
                <ele>198.0</ele>
                <time>2020-08-23T08:33:18.000Z</time>
                <name>Trackpoint 1843</name>
            </trkpt>
            <trkpt lat="49.9043264" lon="10.1906248">
                <ele>198.0</ele>
                <time>2020-08-23T08:33:21.000Z</time>
                <name>Trackpoint 1844</name>
            </trkpt>
            <trkpt lat="49.9042016" lon="10.1906408">
                <ele>198.0</ele>
                <time>2020-08-23T08:33:24.000Z</time>
                <name>Trackpoint 1845</name>
            </trkpt>
            <trkpt lat="49.90408" lon="10.1906544">
                <ele>198.0</ele>
                <time>2020-08-23T08:33:27.000Z</time>
                <name>Trackpoint 1846</name>
            </trkpt>
            <trkpt lat="49.9039904" lon="10.1906656">
                <ele>198.0</ele>
                <time>2020-08-23T08:33:29.000Z</time>
                <name>Trackpoint 1847</name>
            </trkpt>
            <trkpt lat="49.9038976" lon="10.1906784">
                <ele>198.0</ele>
                <time>2020-08-23T08:33:31.000Z</time>
                <name>Trackpoint 1848</name>
            </trkpt>
            <trkpt lat="49.903792" lon="10.1906904">
                <ele>198.0</ele>
                <time>2020-08-23T08:33:33.000Z</time>
                <name>Trackpoint 1849</name>
            </trkpt>
            <trkpt lat="49.9036832" lon="10.1907032">
                <ele>198.0</ele>
                <time>2020-08-23T08:33:35.000Z</time>
                <name>Trackpoint 1850</name>
            </trkpt>
            <trkpt lat="49.9035712" lon="10.1907184">
                <ele>198.0</ele>
                <time>2020-08-23T08:33:37.000Z</time>
                <name>Trackpoint 1851</name>
            </trkpt>
            <trkpt lat="49.9034592" lon="10.1907328">
                <ele>198.0</ele>
                <time>2020-08-23T08:33:39.000Z</time>
                <name>Trackpoint 1852</name>
            </trkpt>
            <trkpt lat="49.903344" lon="10.1907416">
                <ele>198.0</ele>
                <time>2020-08-23T08:33:41.000Z</time>
                <name>Trackpoint 1853</name>
            </trkpt>
            <trkpt lat="49.903232" lon="10.190752">
                <ele>198.0</ele>
                <time>2020-08-23T08:33:43.000Z</time>
                <name>Trackpoint 1854</name>
            </trkpt>
            <trkpt lat="49.9031264" lon="10.190768">
                <ele>198.0</ele>
                <time>2020-08-23T08:33:45.000Z</time>
                <name>Trackpoint 1855</name>
            </trkpt>
            <trkpt lat="49.903024" lon="10.1907768">
                <ele>198.0</ele>
                <time>2020-08-23T08:33:47.000Z</time>
                <name>Trackpoint 1856</name>
            </trkpt>
            <trkpt lat="49.9029312" lon="10.190768">
                <ele>198.0</ele>
                <time>2020-08-23T08:33:49.000Z</time>
                <name>Trackpoint 1857</name>
            </trkpt>
            <trkpt lat="49.9028352" lon="10.1907456">
                <ele>198.0</ele>
                <time>2020-08-23T08:33:51.000Z</time>
                <name>Trackpoint 1858</name>
            </trkpt>
            <trkpt lat="49.9027328" lon="10.1907616">
                <ele>198.0</ele>
                <time>2020-08-23T08:33:53.000Z</time>
                <name>Trackpoint 1859</name>
            </trkpt>
            <trkpt lat="49.9026304" lon="10.1907728">
                <ele>198.0</ele>
                <time>2020-08-23T08:33:55.000Z</time>
                <name>Trackpoint 1860</name>
            </trkpt>
            <trkpt lat="49.9025184" lon="10.1907752">
                <ele>198.0</ele>
                <time>2020-08-23T08:33:57.000Z</time>
                <name>Trackpoint 1861</name>
            </trkpt>
            <trkpt lat="49.9024032" lon="10.1907728">
                <ele>198.0</ele>
                <time>2020-08-23T08:33:59.000Z</time>
                <name>Trackpoint 1862</name>
            </trkpt>
            <trkpt lat="49.902288" lon="10.1907768">
                <ele>198.0</ele>
                <time>2020-08-23T08:34:01.000Z</time>
                <name>Trackpoint 1863</name>
            </trkpt>
            <trkpt lat="49.90216" lon="10.1907784">
                <ele>198.0</ele>
                <time>2020-08-23T08:34:03.000Z</time>
                <name>Trackpoint 1864</name>
            </trkpt>
            <trkpt lat="49.9020384" lon="10.1907768">
                <ele>198.0</ele>
                <time>2020-08-23T08:34:05.000Z</time>
                <name>Trackpoint 1865</name>
            </trkpt>
            <trkpt lat="49.9019168" lon="10.190772">
                <ele>198.0</ele>
                <time>2020-08-23T08:34:07.000Z</time>
                <name>Trackpoint 1866</name>
            </trkpt>
            <trkpt lat="49.9017984" lon="10.1907704">
                <ele>198.0</ele>
                <time>2020-08-23T08:34:09.000Z</time>
                <name>Trackpoint 1867</name>
            </trkpt>
            <trkpt lat="49.9016768" lon="10.1907632">
                <ele>198.0</ele>
                <time>2020-08-23T08:34:11.000Z</time>
                <name>Trackpoint 1868</name>
            </trkpt>
            <trkpt lat="49.9015552" lon="10.19076">
                <ele>197.0</ele>
                <time>2020-08-23T08:34:13.000Z</time>
                <name>Trackpoint 1869</name>
            </trkpt>
            <trkpt lat="49.9014336" lon="10.1907528">
                <ele>198.0</ele>
                <time>2020-08-23T08:34:15.000Z</time>
                <name>Trackpoint 1870</name>
            </trkpt>
            <trkpt lat="49.9013088" lon="10.1907368">
                <ele>198.0</ele>
                <time>2020-08-23T08:34:17.000Z</time>
                <name>Trackpoint 1871</name>
            </trkpt>
            <trkpt lat="49.9011872" lon="10.1907264">
                <ele>198.0</ele>
                <time>2020-08-23T08:34:19.000Z</time>
                <name>Trackpoint 1872</name>
            </trkpt>
            <trkpt lat="49.9010656" lon="10.1907168">
                <ele>198.0</ele>
                <time>2020-08-23T08:34:21.000Z</time>
                <name>Trackpoint 1873</name>
            </trkpt>
            <trkpt lat="49.900944" lon="10.1907016">
                <ele>198.0</ele>
                <time>2020-08-23T08:34:23.000Z</time>
                <name>Trackpoint 1874</name>
            </trkpt>
            <trkpt lat="49.9008224" lon="10.1906856">
                <ele>198.0</ele>
                <time>2020-08-23T08:34:25.000Z</time>
                <name>Trackpoint 1875</name>
            </trkpt>
            <trkpt lat="49.9006912" lon="10.1906664">
                <ele>198.0</ele>
                <time>2020-08-23T08:34:27.000Z</time>
                <name>Trackpoint 1876</name>
            </trkpt>
            <trkpt lat="49.9005696" lon="10.1906496">
                <ele>198.0</ele>
                <time>2020-08-23T08:34:29.000Z</time>
                <name>Trackpoint 1877</name>
            </trkpt>
            <trkpt lat="49.9004416" lon="10.190628">
                <ele>198.0</ele>
                <time>2020-08-23T08:34:31.000Z</time>
                <name>Trackpoint 1878</name>
            </trkpt>
            <trkpt lat="49.9003136" lon="10.190608">
                <ele>198.0</ele>
                <time>2020-08-23T08:34:33.000Z</time>
                <name>Trackpoint 1879</name>
            </trkpt>
            <trkpt lat="49.9001888" lon="10.1905848">
                <ele>198.0</ele>
                <time>2020-08-23T08:34:35.000Z</time>
                <name>Trackpoint 1880</name>
            </trkpt>
            <trkpt lat="49.900064" lon="10.1905568">
                <ele>198.0</ele>
                <time>2020-08-23T08:34:37.000Z</time>
                <name>Trackpoint 1881</name>
            </trkpt>
            <trkpt lat="49.899936" lon="10.1905248">
                <ele>198.0</ele>
                <time>2020-08-23T08:34:39.000Z</time>
                <name>Trackpoint 1882</name>
            </trkpt>
            <trkpt lat="49.8998176" lon="10.1904944">
                <ele>198.0</ele>
                <time>2020-08-23T08:34:41.000Z</time>
                <name>Trackpoint 1883</name>
            </trkpt>
            <trkpt lat="49.8996928" lon="10.1904632">
                <ele>198.0</ele>
                <time>2020-08-23T08:34:43.000Z</time>
                <name>Trackpoint 1884</name>
            </trkpt>
            <trkpt lat="49.899568" lon="10.1904288">
                <ele>198.0</ele>
                <time>2020-08-23T08:34:45.000Z</time>
                <name>Trackpoint 1885</name>
            </trkpt>
            <trkpt lat="49.89944" lon="10.1904112">
                <ele>198.0</ele>
                <time>2020-08-23T08:34:47.000Z</time>
                <name>Trackpoint 1886</name>
            </trkpt>
            <trkpt lat="49.8993152" lon="10.19038">
                <ele>198.0</ele>
                <time>2020-08-23T08:34:49.000Z</time>
                <name>Trackpoint 1887</name>
            </trkpt>
            <trkpt lat="49.899184" lon="10.1903488">
                <ele>198.0</ele>
                <time>2020-08-23T08:34:51.000Z</time>
                <name>Trackpoint 1888</name>
            </trkpt>
            <trkpt lat="49.899056" lon="10.1903152">
                <ele>198.0</ele>
                <time>2020-08-23T08:34:53.000Z</time>
                <name>Trackpoint 1889</name>
            </trkpt>
            <trkpt lat="49.898928" lon="10.1902816">
                <ele>198.0</ele>
                <time>2020-08-23T08:34:55.000Z</time>
                <name>Trackpoint 1890</name>
            </trkpt>
            <trkpt lat="49.8988" lon="10.1902504">
                <ele>198.0</ele>
                <time>2020-08-23T08:34:57.000Z</time>
                <name>Trackpoint 1891</name>
            </trkpt>
            <trkpt lat="49.8986752" lon="10.1902304">
                <ele>198.0</ele>
                <time>2020-08-23T08:34:59.000Z</time>
                <name>Trackpoint 1892</name>
            </trkpt>
            <trkpt lat="49.8985472" lon="10.1902216">
                <ele>198.0</ele>
                <time>2020-08-23T08:35:01.000Z</time>
                <name>Trackpoint 1893</name>
            </trkpt>
            <trkpt lat="49.8984288" lon="10.1902048">
                <ele>198.0</ele>
                <time>2020-08-23T08:35:03.000Z</time>
                <name>Trackpoint 1894</name>
            </trkpt>
            <trkpt lat="49.898304" lon="10.1901888">
                <ele>198.0</ele>
                <time>2020-08-23T08:35:05.000Z</time>
                <name>Trackpoint 1895</name>
            </trkpt>
            <trkpt lat="49.8981824" lon="10.1901816">
                <ele>198.0</ele>
                <time>2020-08-23T08:35:07.000Z</time>
                <name>Trackpoint 1896</name>
            </trkpt>
            <trkpt lat="49.8980608" lon="10.1901704">
                <ele>198.0</ele>
                <time>2020-08-23T08:35:09.000Z</time>
                <name>Trackpoint 1897</name>
            </trkpt>
            <trkpt lat="49.8979328" lon="10.1901552">
                <ele>198.0</ele>
                <time>2020-08-23T08:35:11.000Z</time>
                <name>Trackpoint 1898</name>
            </trkpt>
            <trkpt lat="49.897808" lon="10.1901512">
                <ele>198.0</ele>
                <time>2020-08-23T08:35:13.000Z</time>
                <name>Trackpoint 1899</name>
            </trkpt>
            <trkpt lat="49.8976864" lon="10.19014">
                <ele>198.0</ele>
                <time>2020-08-23T08:35:15.000Z</time>
                <name>Trackpoint 1900</name>
            </trkpt>
            <trkpt lat="49.8975648" lon="10.1901264">
                <ele>198.0</ele>
                <time>2020-08-23T08:35:17.000Z</time>
                <name>Trackpoint 1901</name>
            </trkpt>
            <trkpt lat="49.8974464" lon="10.19012">
                <ele>198.0</ele>
                <time>2020-08-23T08:35:19.000Z</time>
                <name>Trackpoint 1902</name>
            </trkpt>
            <trkpt lat="49.897328" lon="10.1901056">
                <ele>198.0</ele>
                <time>2020-08-23T08:35:21.000Z</time>
                <name>Trackpoint 1903</name>
            </trkpt>
            <trkpt lat="49.897216" lon="10.1900928">
                <ele>198.0</ele>
                <time>2020-08-23T08:35:23.000Z</time>
                <name>Trackpoint 1904</name>
            </trkpt>
            <trkpt lat="49.8971008" lon="10.190068">
                <ele>198.0</ele>
                <time>2020-08-23T08:35:25.000Z</time>
                <name>Trackpoint 1905</name>
            </trkpt>
            <trkpt lat="49.896992" lon="10.1900384">
                <ele>198.0</ele>
                <time>2020-08-23T08:35:27.000Z</time>
                <name>Trackpoint 1906</name>
            </trkpt>
            <trkpt lat="49.89688" lon="10.1899904">
                <ele>197.0</ele>
                <time>2020-08-23T08:35:29.000Z</time>
                <name>Trackpoint 1907</name>
            </trkpt>
            <trkpt lat="49.8967744" lon="10.189908">
                <ele>197.0</ele>
                <time>2020-08-23T08:35:31.000Z</time>
                <name>Trackpoint 1908</name>
            </trkpt>
            <trkpt lat="49.896672" lon="10.189828">
                <ele>197.0</ele>
                <time>2020-08-23T08:35:33.000Z</time>
                <name>Trackpoint 1909</name>
            </trkpt>
            <trkpt lat="49.8965696" lon="10.18974">
                <ele>197.0</ele>
                <time>2020-08-23T08:35:35.000Z</time>
                <name>Trackpoint 1910</name>
            </trkpt>
            <trkpt lat="49.8964576" lon="10.18964">
                <ele>198.0</ele>
                <time>2020-08-23T08:35:37.000Z</time>
                <name>Trackpoint 1911</name>
            </trkpt>
            <trkpt lat="49.8963584" lon="10.1895504">
                <ele>197.0</ele>
                <time>2020-08-23T08:35:39.000Z</time>
                <name>Trackpoint 1912</name>
            </trkpt>
            <trkpt lat="49.8962592" lon="10.1894616">
                <ele>198.0</ele>
                <time>2020-08-23T08:35:41.000Z</time>
                <name>Trackpoint 1913</name>
            </trkpt>
            <trkpt lat="49.8961632" lon="10.1893704">
                <ele>198.0</ele>
                <time>2020-08-23T08:35:43.000Z</time>
                <name>Trackpoint 1914</name>
            </trkpt>
            <trkpt lat="49.8960672" lon="10.1892856">
                <ele>198.0</ele>
                <time>2020-08-23T08:35:45.000Z</time>
                <name>Trackpoint 1915</name>
            </trkpt>
            <trkpt lat="49.8959744" lon="10.1892008">
                <ele>198.0</ele>
                <time>2020-08-23T08:35:47.000Z</time>
                <name>Trackpoint 1916</name>
            </trkpt>
            <trkpt lat="49.8958816" lon="10.1891136">
                <ele>198.0</ele>
                <time>2020-08-23T08:35:49.000Z</time>
                <name>Trackpoint 1917</name>
            </trkpt>
            <trkpt lat="49.8957888" lon="10.189032">
                <ele>199.0</ele>
                <time>2020-08-23T08:35:51.000Z</time>
                <name>Trackpoint 1918</name>
            </trkpt>
            <trkpt lat="49.8956992" lon="10.1889488">
                <ele>199.0</ele>
                <time>2020-08-23T08:35:53.000Z</time>
                <name>Trackpoint 1919</name>
            </trkpt>
            <trkpt lat="49.8956064" lon="10.1888648">
                <ele>198.0</ele>
                <time>2020-08-23T08:35:55.000Z</time>
                <name>Trackpoint 1920</name>
            </trkpt>
            <trkpt lat="49.8955168" lon="10.1887888">
                <ele>198.0</ele>
                <time>2020-08-23T08:35:57.000Z</time>
                <name>Trackpoint 1921</name>
            </trkpt>
            <trkpt lat="49.8954176" lon="10.1887152">
                <ele>198.0</ele>
                <time>2020-08-23T08:35:59.000Z</time>
                <name>Trackpoint 1922</name>
            </trkpt>
            <trkpt lat="49.8953216" lon="10.1886456">
                <ele>198.0</ele>
                <time>2020-08-23T08:36:01.000Z</time>
                <name>Trackpoint 1923</name>
            </trkpt>
            <trkpt lat="49.8952224" lon="10.188568">
                <ele>198.0</ele>
                <time>2020-08-23T08:36:03.000Z</time>
                <name>Trackpoint 1924</name>
            </trkpt>
            <trkpt lat="49.8951296" lon="10.1884832">
                <ele>198.0</ele>
                <time>2020-08-23T08:36:05.000Z</time>
                <name>Trackpoint 1925</name>
            </trkpt>
            <trkpt lat="49.8950336" lon="10.1883984">
                <ele>198.0</ele>
                <time>2020-08-23T08:36:07.000Z</time>
                <name>Trackpoint 1926</name>
            </trkpt>
            <trkpt lat="49.894944" lon="10.1883184">
                <ele>198.0</ele>
                <time>2020-08-23T08:36:09.000Z</time>
                <name>Trackpoint 1927</name>
            </trkpt>
            <trkpt lat="49.8948512" lon="10.1882336">
                <ele>198.0</ele>
                <time>2020-08-23T08:36:11.000Z</time>
                <name>Trackpoint 1928</name>
            </trkpt>
            <trkpt lat="49.8947552" lon="10.1881536">
                <ele>199.0</ele>
                <time>2020-08-23T08:36:13.000Z</time>
                <name>Trackpoint 1929</name>
            </trkpt>
            <trkpt lat="49.8946656" lon="10.1880704">
                <ele>199.0</ele>
                <time>2020-08-23T08:36:15.000Z</time>
                <name>Trackpoint 1930</name>
            </trkpt>
            <trkpt lat="49.8945696" lon="10.1879864">
                <ele>199.0</ele>
                <time>2020-08-23T08:36:17.000Z</time>
                <name>Trackpoint 1931</name>
            </trkpt>
            <trkpt lat="49.8944736" lon="10.1878984">
                <ele>199.0</ele>
                <time>2020-08-23T08:36:19.000Z</time>
                <name>Trackpoint 1932</name>
            </trkpt>
            <trkpt lat="49.8943744" lon="10.1878096">
                <ele>198.0</ele>
                <time>2020-08-23T08:36:21.000Z</time>
                <name>Trackpoint 1933</name>
            </trkpt>
            <trkpt lat="49.8942752" lon="10.1877184">
                <ele>198.0</ele>
                <time>2020-08-23T08:36:23.000Z</time>
                <name>Trackpoint 1934</name>
            </trkpt>
            <trkpt lat="49.8941728" lon="10.1876288">
                <ele>198.0</ele>
                <time>2020-08-23T08:36:25.000Z</time>
                <name>Trackpoint 1935</name>
            </trkpt>
            <trkpt lat="49.8940704" lon="10.187536">
                <ele>198.0</ele>
                <time>2020-08-23T08:36:27.000Z</time>
                <name>Trackpoint 1936</name>
            </trkpt>
            <trkpt lat="49.893968" lon="10.187444">
                <ele>198.0</ele>
                <time>2020-08-23T08:36:29.000Z</time>
                <name>Trackpoint 1937</name>
            </trkpt>
            <trkpt lat="49.8938624" lon="10.1873504">
                <ele>198.0</ele>
                <time>2020-08-23T08:36:31.000Z</time>
                <name>Trackpoint 1938</name>
            </trkpt>
            <trkpt lat="49.8937568" lon="10.18726">
                <ele>198.0</ele>
                <time>2020-08-23T08:36:33.000Z</time>
                <name>Trackpoint 1939</name>
            </trkpt>
            <trkpt lat="49.8936512" lon="10.1871656">
                <ele>198.0</ele>
                <time>2020-08-23T08:36:35.000Z</time>
                <name>Trackpoint 1940</name>
            </trkpt>
            <trkpt lat="49.8935392" lon="10.187068">
                <ele>198.0</ele>
                <time>2020-08-23T08:36:37.000Z</time>
                <name>Trackpoint 1941</name>
            </trkpt>
            <trkpt lat="49.8934336" lon="10.186972">
                <ele>198.0</ele>
                <time>2020-08-23T08:36:39.000Z</time>
                <name>Trackpoint 1942</name>
            </trkpt>
            <trkpt lat="49.8933184" lon="10.1868784">
                <ele>198.0</ele>
                <time>2020-08-23T08:36:41.000Z</time>
                <name>Trackpoint 1943</name>
            </trkpt>
            <trkpt lat="49.8932128" lon="10.1867816">
                <ele>198.0</ele>
                <time>2020-08-23T08:36:43.000Z</time>
                <name>Trackpoint 1944</name>
            </trkpt>
            <trkpt lat="49.893104" lon="10.1866768">
                <ele>198.0</ele>
                <time>2020-08-23T08:36:45.000Z</time>
                <name>Trackpoint 1945</name>
            </trkpt>
            <trkpt lat="49.8929952" lon="10.1865832">
                <ele>198.0</ele>
                <time>2020-08-23T08:36:47.000Z</time>
                <name>Trackpoint 1946</name>
            </trkpt>
            <trkpt lat="49.8928832" lon="10.186492">
                <ele>197.0</ele>
                <time>2020-08-23T08:36:49.000Z</time>
                <name>Trackpoint 1947</name>
            </trkpt>
            <trkpt lat="49.8927648" lon="10.1864048">
                <ele>197.0</ele>
                <time>2020-08-23T08:36:51.000Z</time>
                <name>Trackpoint 1948</name>
            </trkpt>
            <trkpt lat="49.8926464" lon="10.1863184">
                <ele>197.0</ele>
                <time>2020-08-23T08:36:53.000Z</time>
                <name>Trackpoint 1949</name>
            </trkpt>
            <trkpt lat="49.892528" lon="10.1862352">
                <ele>197.0</ele>
                <time>2020-08-23T08:36:55.000Z</time>
                <name>Trackpoint 1950</name>
            </trkpt>
            <trkpt lat="49.8924064" lon="10.1861488">
                <ele>197.0</ele>
                <time>2020-08-23T08:36:57.000Z</time>
                <name>Trackpoint 1951</name>
            </trkpt>
            <trkpt lat="49.8922912" lon="10.1860536">
                <ele>197.0</ele>
                <time>2020-08-23T08:36:59.000Z</time>
                <name>Trackpoint 1952</name>
            </trkpt>
            <trkpt lat="49.8921856" lon="10.1859448">
                <ele>197.0</ele>
                <time>2020-08-23T08:37:01.000Z</time>
                <name>Trackpoint 1953</name>
            </trkpt>
            <trkpt lat="49.8920768" lon="10.1858328">
                <ele>197.0</ele>
                <time>2020-08-23T08:37:03.000Z</time>
                <name>Trackpoint 1954</name>
            </trkpt>
            <trkpt lat="49.891968" lon="10.1857216">
                <ele>197.0</ele>
                <time>2020-08-23T08:37:05.000Z</time>
                <name>Trackpoint 1955</name>
            </trkpt>
            <trkpt lat="49.891856" lon="10.1856048">
                <ele>197.0</ele>
                <time>2020-08-23T08:37:07.000Z</time>
                <name>Trackpoint 1956</name>
            </trkpt>
            <trkpt lat="49.8917504" lon="10.1854832">
                <ele>197.0</ele>
                <time>2020-08-23T08:37:09.000Z</time>
                <name>Trackpoint 1957</name>
            </trkpt>
            <trkpt lat="49.891648" lon="10.18536">
                <ele>197.0</ele>
                <time>2020-08-23T08:37:11.000Z</time>
                <name>Trackpoint 1958</name>
            </trkpt>
            <trkpt lat="49.8915456" lon="10.1852368">
                <ele>197.0</ele>
                <time>2020-08-23T08:37:13.000Z</time>
                <name>Trackpoint 1959</name>
            </trkpt>
            <trkpt lat="49.8914464" lon="10.1851152">
                <ele>197.0</ele>
                <time>2020-08-23T08:37:15.000Z</time>
                <name>Trackpoint 1960</name>
            </trkpt>
            <trkpt lat="49.8913504" lon="10.184988">
                <ele>197.0</ele>
                <time>2020-08-23T08:37:17.000Z</time>
                <name>Trackpoint 1961</name>
            </trkpt>
            <trkpt lat="49.8912544" lon="10.184868">
                <ele>197.0</ele>
                <time>2020-08-23T08:37:19.000Z</time>
                <name>Trackpoint 1962</name>
            </trkpt>
            <trkpt lat="49.891168" lon="10.1847464">
                <ele>197.0</ele>
                <time>2020-08-23T08:37:21.000Z</time>
                <name>Trackpoint 1963</name>
            </trkpt>
            <trkpt lat="49.8910752" lon="10.1846264">
                <ele>197.0</ele>
                <time>2020-08-23T08:37:23.000Z</time>
                <name>Trackpoint 1964</name>
            </trkpt>
            <trkpt lat="49.8909824" lon="10.1845168">
                <ele>197.0</ele>
                <time>2020-08-23T08:37:25.000Z</time>
                <name>Trackpoint 1965</name>
            </trkpt>
            <trkpt lat="49.890896" lon="10.1844056">
                <ele>197.0</ele>
                <time>2020-08-23T08:37:27.000Z</time>
                <name>Trackpoint 1966</name>
            </trkpt>
            <trkpt lat="49.8908032" lon="10.1842936">
                <ele>197.0</ele>
                <time>2020-08-23T08:37:29.000Z</time>
                <name>Trackpoint 1967</name>
            </trkpt>
            <trkpt lat="49.8907168" lon="10.1841784">
                <ele>197.0</ele>
                <time>2020-08-23T08:37:31.000Z</time>
                <name>Trackpoint 1968</name>
            </trkpt>
            <trkpt lat="49.8906208" lon="10.1840552">
                <ele>197.0</ele>
                <time>2020-08-23T08:37:33.000Z</time>
                <name>Trackpoint 1969</name>
            </trkpt>
            <trkpt lat="49.8905344" lon="10.1839416">
                <ele>197.0</ele>
                <time>2020-08-23T08:37:35.000Z</time>
                <name>Trackpoint 1970</name>
            </trkpt>
            <trkpt lat="49.890448" lon="10.183828">
                <ele>197.0</ele>
                <time>2020-08-23T08:37:37.000Z</time>
                <name>Trackpoint 1971</name>
            </trkpt>
            <trkpt lat="49.890368" lon="10.1837152">
                <ele>196.0</ele>
                <time>2020-08-23T08:37:39.000Z</time>
                <name>Trackpoint 1972</name>
            </trkpt>
            <trkpt lat="49.8902944" lon="10.183608">
                <ele>196.0</ele>
                <time>2020-08-23T08:37:41.000Z</time>
                <name>Trackpoint 1973</name>
            </trkpt>
            <trkpt lat="49.8902144" lon="10.1835016">
                <ele>196.0</ele>
                <time>2020-08-23T08:37:43.000Z</time>
                <name>Trackpoint 1974</name>
            </trkpt>
            <trkpt lat="49.8901344" lon="10.1833984">
                <ele>196.0</ele>
                <time>2020-08-23T08:37:45.000Z</time>
                <name>Trackpoint 1975</name>
            </trkpt>
            <trkpt lat="49.8900448" lon="10.1832952">
                <ele>196.0</ele>
                <time>2020-08-23T08:37:47.000Z</time>
                <name>Trackpoint 1976</name>
            </trkpt>
            <trkpt lat="49.8899488" lon="10.1832016">
                <ele>196.0</ele>
                <time>2020-08-23T08:37:49.000Z</time>
                <name>Trackpoint 1977</name>
            </trkpt>
            <trkpt lat="49.889856" lon="10.18312">
                <ele>197.0</ele>
                <time>2020-08-23T08:37:51.000Z</time>
                <name>Trackpoint 1978</name>
            </trkpt>
            <trkpt lat="49.8897504" lon="10.183048">
                <ele>197.0</ele>
                <time>2020-08-23T08:37:53.000Z</time>
                <name>Trackpoint 1979</name>
            </trkpt>
            <trkpt lat="49.8896416" lon="10.1829704">
                <ele>197.0</ele>
                <time>2020-08-23T08:37:55.000Z</time>
                <name>Trackpoint 1980</name>
            </trkpt>
            <trkpt lat="49.8895328" lon="10.1828984">
                <ele>197.0</ele>
                <time>2020-08-23T08:37:57.000Z</time>
                <name>Trackpoint 1981</name>
            </trkpt>
            <trkpt lat="49.8894272" lon="10.1828296">
                <ele>197.0</ele>
                <time>2020-08-23T08:37:59.000Z</time>
                <name>Trackpoint 1982</name>
            </trkpt>
            <trkpt lat="49.8893216" lon="10.182768">
                <ele>197.0</ele>
                <time>2020-08-23T08:38:01.000Z</time>
                <name>Trackpoint 1983</name>
            </trkpt>
            <trkpt lat="49.8892128" lon="10.1827096">
                <ele>197.0</ele>
                <time>2020-08-23T08:38:03.000Z</time>
                <name>Trackpoint 1984</name>
            </trkpt>
            <trkpt lat="49.8891072" lon="10.182656">
                <ele>196.0</ele>
                <time>2020-08-23T08:38:05.000Z</time>
                <name>Trackpoint 1985</name>
            </trkpt>
            <trkpt lat="49.8889984" lon="10.1826096">
                <ele>196.0</ele>
                <time>2020-08-23T08:38:07.000Z</time>
                <name>Trackpoint 1986</name>
            </trkpt>
            <trkpt lat="49.8888896" lon="10.182564">
                <ele>196.0</ele>
                <time>2020-08-23T08:38:09.000Z</time>
                <name>Trackpoint 1987</name>
            </trkpt>
            <trkpt lat="49.8887744" lon="10.1825184">
                <ele>196.0</ele>
                <time>2020-08-23T08:38:11.000Z</time>
                <name>Trackpoint 1988</name>
            </trkpt>
            <trkpt lat="49.8886656" lon="10.1824728">
                <ele>196.0</ele>
                <time>2020-08-23T08:38:13.000Z</time>
                <name>Trackpoint 1989</name>
            </trkpt>
            <trkpt lat="49.8885504" lon="10.1824312">
                <ele>196.0</ele>
                <time>2020-08-23T08:38:15.000Z</time>
                <name>Trackpoint 1990</name>
            </trkpt>
            <trkpt lat="49.888432" lon="10.1823928">
                <ele>196.0</ele>
                <time>2020-08-23T08:38:17.000Z</time>
                <name>Trackpoint 1991</name>
            </trkpt>
            <trkpt lat="49.8883168" lon="10.1823552">
                <ele>196.0</ele>
                <time>2020-08-23T08:38:19.000Z</time>
                <name>Trackpoint 1992</name>
            </trkpt>
            <trkpt lat="49.888208" lon="10.1823184">
                <ele>196.0</ele>
                <time>2020-08-23T08:38:21.000Z</time>
                <name>Trackpoint 1993</name>
            </trkpt>
            <trkpt lat="49.888096" lon="10.1822904">
                <ele>196.0</ele>
                <time>2020-08-23T08:38:23.000Z</time>
                <name>Trackpoint 1994</name>
            </trkpt>
            <trkpt lat="49.887984" lon="10.182268">
                <ele>196.0</ele>
                <time>2020-08-23T08:38:25.000Z</time>
                <name>Trackpoint 1995</name>
            </trkpt>
            <trkpt lat="49.8878816" lon="10.182252">
                <ele>196.0</ele>
                <time>2020-08-23T08:38:27.000Z</time>
                <name>Trackpoint 1996</name>
            </trkpt>
            <trkpt lat="49.8877824" lon="10.1822296">
                <ele>196.0</ele>
                <time>2020-08-23T08:38:29.000Z</time>
                <name>Trackpoint 1997</name>
            </trkpt>
            <trkpt lat="49.8876832" lon="10.1822016">
                <ele>196.0</ele>
                <time>2020-08-23T08:38:31.000Z</time>
                <name>Trackpoint 1998</name>
            </trkpt>
            <trkpt lat="49.8875872" lon="10.1821584">
                <ele>196.0</ele>
                <time>2020-08-23T08:38:33.000Z</time>
                <name>Trackpoint 1999</name>
            </trkpt>
            <trkpt lat="49.8874944" lon="10.182112">
                <ele>196.0</ele>
                <time>2020-08-23T08:38:35.000Z</time>
                <name>Trackpoint 2000</name>
            </trkpt>
            <trkpt lat="49.887408" lon="10.1820496">
                <ele>197.0</ele>
                <time>2020-08-23T08:38:37.000Z</time>
                <name>Trackpoint 2001</name>
            </trkpt>
            <trkpt lat="49.8873248" lon="10.1819696">
                <ele>197.0</ele>
                <time>2020-08-23T08:38:39.000Z</time>
                <name>Trackpoint 2002</name>
            </trkpt>
            <trkpt lat="49.8872448" lon="10.1818736">
                <ele>197.0</ele>
                <time>2020-08-23T08:38:41.000Z</time>
                <name>Trackpoint 2003</name>
            </trkpt>
            <trkpt lat="49.887168" lon="10.1817704">
                <ele>197.0</ele>
                <time>2020-08-23T08:38:43.000Z</time>
                <name>Trackpoint 2004</name>
            </trkpt>
            <trkpt lat="49.8870912" lon="10.181668">
                <ele>197.0</ele>
                <time>2020-08-23T08:38:45.000Z</time>
                <name>Trackpoint 2005</name>
            </trkpt>
            <trkpt lat="49.887008" lon="10.1815656">
                <ele>197.0</ele>
                <time>2020-08-23T08:38:47.000Z</time>
                <name>Trackpoint 2006</name>
            </trkpt>
            <trkpt lat="49.8869248" lon="10.1814632">
                <ele>197.0</ele>
                <time>2020-08-23T08:38:49.000Z</time>
                <name>Trackpoint 2007</name>
            </trkpt>
            <trkpt lat="49.8868448" lon="10.1813632">
                <ele>196.0</ele>
                <time>2020-08-23T08:38:51.000Z</time>
                <name>Trackpoint 2008</name>
            </trkpt>
            <trkpt lat="49.8867616" lon="10.1812632">
                <ele>196.0</ele>
                <time>2020-08-23T08:38:53.000Z</time>
                <name>Trackpoint 2009</name>
            </trkpt>
            <trkpt lat="49.8866816" lon="10.1811616">
                <ele>196.0</ele>
                <time>2020-08-23T08:38:55.000Z</time>
                <name>Trackpoint 2010</name>
            </trkpt>
            <trkpt lat="49.8865952" lon="10.1810576">
                <ele>196.0</ele>
                <time>2020-08-23T08:38:57.000Z</time>
                <name>Trackpoint 2011</name>
            </trkpt>
            <trkpt lat="49.8865056" lon="10.1809584">
                <ele>196.0</ele>
                <time>2020-08-23T08:38:59.000Z</time>
                <name>Trackpoint 2012</name>
            </trkpt>
            <trkpt lat="49.8864224" lon="10.1808544">
                <ele>196.0</ele>
                <time>2020-08-23T08:39:01.000Z</time>
                <name>Trackpoint 2013</name>
            </trkpt>
            <trkpt lat="49.886336" lon="10.180752">
                <ele>196.0</ele>
                <time>2020-08-23T08:39:03.000Z</time>
                <name>Trackpoint 2014</name>
            </trkpt>
            <trkpt lat="49.8862528" lon="10.1806496">
                <ele>196.0</ele>
                <time>2020-08-23T08:39:05.000Z</time>
                <name>Trackpoint 2015</name>
            </trkpt>
            <trkpt lat="49.8861696" lon="10.1805536">
                <ele>196.0</ele>
                <time>2020-08-23T08:39:07.000Z</time>
                <name>Trackpoint 2016</name>
            </trkpt>
            <trkpt lat="49.8860928" lon="10.1804512">
                <ele>196.0</ele>
                <time>2020-08-23T08:39:09.000Z</time>
                <name>Trackpoint 2017</name>
            </trkpt>
            <trkpt lat="49.8860192" lon="10.1803568">
                <ele>196.0</ele>
                <time>2020-08-23T08:39:11.000Z</time>
                <name>Trackpoint 2018</name>
            </trkpt>
            <trkpt lat="49.8859488" lon="10.1802704">
                <ele>196.0</ele>
                <time>2020-08-23T08:39:13.000Z</time>
                <name>Trackpoint 2019</name>
            </trkpt>
            <trkpt lat="49.885888" lon="10.1801832">
                <ele>196.0</ele>
                <time>2020-08-23T08:39:15.000Z</time>
                <name>Trackpoint 2020</name>
            </trkpt>
            <trkpt lat="49.8858496" lon="10.1800672">
                <ele>196.0</ele>
                <time>2020-08-23T08:39:18.000Z</time>
                <name>Trackpoint 2021</name>
            </trkpt>
            <trkpt lat="49.885888" lon="10.1799584">
                <ele>196.0</ele>
                <time>2020-08-23T08:39:22.000Z</time>
                <name>Trackpoint 2022</name>
            </trkpt>
            <trkpt lat="49.8858752" lon="10.1798184">
                <ele>196.0</ele>
                <time>2020-08-23T08:39:25.000Z</time>
                <name>Trackpoint 2023</name>
            </trkpt>
            <trkpt lat="49.8858176" lon="10.1797248">
                <ele>196.0</ele>
                <time>2020-08-23T08:39:27.000Z</time>
                <name>Trackpoint 2024</name>
            </trkpt>
            <trkpt lat="49.88576" lon="10.179624">
                <ele>197.0</ele>
                <time>2020-08-23T08:39:29.000Z</time>
                <name>Trackpoint 2025</name>
            </trkpt>
            <trkpt lat="49.8856992" lon="10.1795168">
                <ele>197.0</ele>
                <time>2020-08-23T08:39:31.000Z</time>
                <name>Trackpoint 2026</name>
            </trkpt>
            <trkpt lat="49.885648" lon="10.1794072">
                <ele>197.0</ele>
                <time>2020-08-23T08:39:33.000Z</time>
                <name>Trackpoint 2027</name>
            </trkpt>
            <trkpt lat="49.8855872" lon="10.179292">
                <ele>197.0</ele>
                <time>2020-08-23T08:39:35.000Z</time>
                <name>Trackpoint 2028</name>
            </trkpt>
            <trkpt lat="49.8855296" lon="10.1791784">
                <ele>197.0</ele>
                <time>2020-08-23T08:39:37.000Z</time>
                <name>Trackpoint 2029</name>
            </trkpt>
            <trkpt lat="49.8854688" lon="10.179064">
                <ele>197.0</ele>
                <time>2020-08-23T08:39:39.000Z</time>
                <name>Trackpoint 2030</name>
            </trkpt>
            <trkpt lat="49.885408" lon="10.17894">
                <ele>198.0</ele>
                <time>2020-08-23T08:39:41.000Z</time>
                <name>Trackpoint 2031</name>
            </trkpt>
            <trkpt lat="49.8853408" lon="10.178812">
                <ele>199.0</ele>
                <time>2020-08-23T08:39:43.000Z</time>
                <name>Trackpoint 2032</name>
            </trkpt>
            <trkpt lat="49.8852768" lon="10.1786832">
                <ele>198.0</ele>
                <time>2020-08-23T08:39:45.000Z</time>
                <name>Trackpoint 2033</name>
            </trkpt>
            <trkpt lat="49.8852128" lon="10.1785544">
                <ele>199.0</ele>
                <time>2020-08-23T08:39:47.000Z</time>
                <name>Trackpoint 2034</name>
            </trkpt>
            <trkpt lat="49.8851456" lon="10.1784336">
                <ele>199.0</ele>
                <time>2020-08-23T08:39:49.000Z</time>
                <name>Trackpoint 2035</name>
            </trkpt>
            <trkpt lat="49.8850816" lon="10.1783088">
                <ele>200.0</ele>
                <time>2020-08-23T08:39:51.000Z</time>
                <name>Trackpoint 2036</name>
            </trkpt>
            <trkpt lat="49.8850112" lon="10.1781832">
                <ele>201.0</ele>
                <time>2020-08-23T08:39:53.000Z</time>
                <name>Trackpoint 2037</name>
            </trkpt>
            <trkpt lat="49.8849472" lon="10.1780568">
                <ele>200.0</ele>
                <time>2020-08-23T08:39:55.000Z</time>
                <name>Trackpoint 2038</name>
            </trkpt>
            <trkpt lat="49.8848864" lon="10.1779448">
                <ele>201.0</ele>
                <time>2020-08-23T08:39:57.000Z</time>
                <name>Trackpoint 2039</name>
            </trkpt>
            <trkpt lat="49.8848256" lon="10.17784">
                <ele>201.0</ele>
                <time>2020-08-23T08:39:59.000Z</time>
                <name>Trackpoint 2040</name>
            </trkpt>
            <trkpt lat="49.8847616" lon="10.17772">
                <ele>201.0</ele>
                <time>2020-08-23T08:40:01.000Z</time>
                <name>Trackpoint 2041</name>
            </trkpt>
            <trkpt lat="49.8847008" lon="10.1776016">
                <ele>200.0</ele>
                <time>2020-08-23T08:40:03.000Z</time>
                <name>Trackpoint 2042</name>
            </trkpt>
            <trkpt lat="49.88464" lon="10.1774752">
                <ele>200.0</ele>
                <time>2020-08-23T08:40:05.000Z</time>
                <name>Trackpoint 2043</name>
            </trkpt>
            <trkpt lat="49.884576" lon="10.1773568">
                <ele>200.0</ele>
                <time>2020-08-23T08:40:07.000Z</time>
                <name>Trackpoint 2044</name>
            </trkpt>
            <trkpt lat="49.8845088" lon="10.1772384">
                <ele>199.0</ele>
                <time>2020-08-23T08:40:09.000Z</time>
                <name>Trackpoint 2045</name>
            </trkpt>
            <trkpt lat="49.8844448" lon="10.1771072">
                <ele>199.0</ele>
                <time>2020-08-23T08:40:11.000Z</time>
                <name>Trackpoint 2046</name>
            </trkpt>
            <trkpt lat="49.8843712" lon="10.1769696">
                <ele>199.0</ele>
                <time>2020-08-23T08:40:13.000Z</time>
                <name>Trackpoint 2047</name>
            </trkpt>
            <trkpt lat="49.884304" lon="10.1768376">
                <ele>199.0</ele>
                <time>2020-08-23T08:40:15.000Z</time>
                <name>Trackpoint 2048</name>
            </trkpt>
            <trkpt lat="49.8842304" lon="10.1767152">
                <ele>199.0</ele>
                <time>2020-08-23T08:40:17.000Z</time>
                <name>Trackpoint 2049</name>
            </trkpt>
            <trkpt lat="49.88416" lon="10.1765832">
                <ele>199.0</ele>
                <time>2020-08-23T08:40:19.000Z</time>
                <name>Trackpoint 2050</name>
            </trkpt>
            <trkpt lat="49.8840832" lon="10.1764432">
                <ele>200.0</ele>
                <time>2020-08-23T08:40:21.000Z</time>
                <name>Trackpoint 2051</name>
            </trkpt>
            <trkpt lat="49.8840128" lon="10.1762952">
                <ele>200.0</ele>
                <time>2020-08-23T08:40:23.000Z</time>
                <name>Trackpoint 2052</name>
            </trkpt>
            <trkpt lat="49.8839456" lon="10.176144">
                <ele>199.0</ele>
                <time>2020-08-23T08:40:25.000Z</time>
                <name>Trackpoint 2053</name>
            </trkpt>
            <trkpt lat="49.883872" lon="10.1760056">
                <ele>199.0</ele>
                <time>2020-08-23T08:40:27.000Z</time>
                <name>Trackpoint 2054</name>
            </trkpt>
            <trkpt lat="49.8838016" lon="10.175872">
                <ele>198.0</ele>
                <time>2020-08-23T08:40:29.000Z</time>
                <name>Trackpoint 2055</name>
            </trkpt>
            <trkpt lat="49.8837312" lon="10.1757352">
                <ele>198.0</ele>
                <time>2020-08-23T08:40:31.000Z</time>
                <name>Trackpoint 2056</name>
            </trkpt>
            <trkpt lat="49.883664" lon="10.1756048">
                <ele>198.0</ele>
                <time>2020-08-23T08:40:33.000Z</time>
                <name>Trackpoint 2057</name>
            </trkpt>
            <trkpt lat="49.8835936" lon="10.1754688">
                <ele>198.0</ele>
                <time>2020-08-23T08:40:35.000Z</time>
                <name>Trackpoint 2058</name>
            </trkpt>
            <trkpt lat="49.8835264" lon="10.1753432">
                <ele>198.0</ele>
                <time>2020-08-23T08:40:37.000Z</time>
                <name>Trackpoint 2059</name>
            </trkpt>
            <trkpt lat="49.8834656" lon="10.175212">
                <ele>198.0</ele>
                <time>2020-08-23T08:40:39.000Z</time>
                <name>Trackpoint 2060</name>
            </trkpt>
            <trkpt lat="49.8833984" lon="10.1750848">
                <ele>198.0</ele>
                <time>2020-08-23T08:40:41.000Z</time>
                <name>Trackpoint 2061</name>
            </trkpt>
            <trkpt lat="49.8833312" lon="10.174956">
                <ele>198.0</ele>
                <time>2020-08-23T08:40:43.000Z</time>
                <name>Trackpoint 2062</name>
            </trkpt>
            <trkpt lat="49.8832672" lon="10.1748264">
                <ele>198.0</ele>
                <time>2020-08-23T08:40:45.000Z</time>
                <name>Trackpoint 2063</name>
            </trkpt>
            <trkpt lat="49.8831968" lon="10.1747">
                <ele>198.0</ele>
                <time>2020-08-23T08:40:47.000Z</time>
                <name>Trackpoint 2064</name>
            </trkpt>
            <trkpt lat="49.8831296" lon="10.1745728">
                <ele>198.0</ele>
                <time>2020-08-23T08:40:49.000Z</time>
                <name>Trackpoint 2065</name>
            </trkpt>
            <trkpt lat="49.8830656" lon="10.1744432">
                <ele>198.0</ele>
                <time>2020-08-23T08:40:51.000Z</time>
                <name>Trackpoint 2066</name>
            </trkpt>
            <trkpt lat="49.8829952" lon="10.1743168">
                <ele>198.0</ele>
                <time>2020-08-23T08:40:53.000Z</time>
                <name>Trackpoint 2067</name>
            </trkpt>
            <trkpt lat="49.8829216" lon="10.1741888">
                <ele>198.0</ele>
                <time>2020-08-23T08:40:55.000Z</time>
                <name>Trackpoint 2068</name>
            </trkpt>
            <trkpt lat="49.882848" lon="10.1740648">
                <ele>198.0</ele>
                <time>2020-08-23T08:40:57.000Z</time>
                <name>Trackpoint 2069</name>
            </trkpt>
            <trkpt lat="49.8827744" lon="10.1739368">
                <ele>198.0</ele>
                <time>2020-08-23T08:40:59.000Z</time>
                <name>Trackpoint 2070</name>
            </trkpt>
            <trkpt lat="49.8826976" lon="10.173812">
                <ele>198.0</ele>
                <time>2020-08-23T08:41:01.000Z</time>
                <name>Trackpoint 2071</name>
            </trkpt>
            <trkpt lat="49.8826176" lon="10.1736872">
                <ele>198.0</ele>
                <time>2020-08-23T08:41:03.000Z</time>
                <name>Trackpoint 2072</name>
            </trkpt>
            <trkpt lat="49.8825376" lon="10.17356">
                <ele>198.0</ele>
                <time>2020-08-23T08:41:05.000Z</time>
                <name>Trackpoint 2073</name>
            </trkpt>
            <trkpt lat="49.8824576" lon="10.17344">
                <ele>197.0</ele>
                <time>2020-08-23T08:41:07.000Z</time>
                <name>Trackpoint 2074</name>
            </trkpt>
            <trkpt lat="49.8823808" lon="10.1733248">
                <ele>197.0</ele>
                <time>2020-08-23T08:41:09.000Z</time>
                <name>Trackpoint 2075</name>
            </trkpt>
            <trkpt lat="49.8823008" lon="10.1732064">
                <ele>197.0</ele>
                <time>2020-08-23T08:41:11.000Z</time>
                <name>Trackpoint 2076</name>
            </trkpt>
            <trkpt lat="49.882224" lon="10.1730872">
                <ele>196.0</ele>
                <time>2020-08-23T08:41:13.000Z</time>
                <name>Trackpoint 2077</name>
            </trkpt>
            <trkpt lat="49.882144" lon="10.1729696">
                <ele>196.0</ele>
                <time>2020-08-23T08:41:15.000Z</time>
                <name>Trackpoint 2078</name>
            </trkpt>
            <trkpt lat="49.8820736" lon="10.1728536">
                <ele>196.0</ele>
                <time>2020-08-23T08:41:17.000Z</time>
                <name>Trackpoint 2079</name>
            </trkpt>
            <trkpt lat="49.882" lon="10.17274">
                <ele>196.0</ele>
                <time>2020-08-23T08:41:19.000Z</time>
                <name>Trackpoint 2080</name>
            </trkpt>
            <trkpt lat="49.881936" lon="10.1726352">
                <ele>197.0</ele>
                <time>2020-08-23T08:41:21.000Z</time>
                <name>Trackpoint 2081</name>
            </trkpt>
            <trkpt lat="49.8818816" lon="10.1725352">
                <ele>197.0</ele>
                <time>2020-08-23T08:41:23.000Z</time>
                <name>Trackpoint 2082</name>
            </trkpt>
            <trkpt lat="49.881888" lon="10.1724168">
                <ele>197.0</ele>
                <time>2020-08-23T08:41:25.000Z</time>
                <name>Trackpoint 2083</name>
            </trkpt>
            <trkpt lat="49.8819584" lon="10.1723336">
                <ele>197.0</ele>
                <time>2020-08-23T08:41:27.000Z</time>
                <name>Trackpoint 2084</name>
            </trkpt>
            <trkpt lat="49.882032" lon="10.1722584">
                <ele>196.0</ele>
                <time>2020-08-23T08:41:29.000Z</time>
                <name>Trackpoint 2085</name>
            </trkpt>
            <trkpt lat="49.8820992" lon="10.1721824">
                <ele>196.0</ele>
                <time>2020-08-23T08:41:31.000Z</time>
                <name>Trackpoint 2086</name>
            </trkpt>
            <trkpt lat="49.8821568" lon="10.1721032">
                <ele>197.0</ele>
                <time>2020-08-23T08:41:33.000Z</time>
                <name>Trackpoint 2087</name>
            </trkpt>
            <trkpt lat="49.8821728" lon="10.1719968">
                <ele>197.0</ele>
                <time>2020-08-23T08:41:35.000Z</time>
                <name>Trackpoint 2088</name>
            </trkpt>
            <trkpt lat="49.8821472" lon="10.1718928">
                <ele>197.0</ele>
                <time>2020-08-23T08:41:37.000Z</time>
                <name>Trackpoint 2089</name>
            </trkpt>
            <trkpt lat="49.882112" lon="10.1718">
                <ele>198.0</ele>
                <time>2020-08-23T08:41:39.000Z</time>
                <name>Trackpoint 2090</name>
            </trkpt>
            <trkpt lat="49.8820672" lon="10.1717016">
                <ele>197.0</ele>
                <time>2020-08-23T08:41:41.000Z</time>
                <name>Trackpoint 2091</name>
            </trkpt>
            <trkpt lat="49.8820224" lon="10.1715872">
                <ele>197.0</ele>
                <time>2020-08-23T08:41:43.000Z</time>
                <name>Trackpoint 2092</name>
            </trkpt>
            <trkpt lat="49.8819744" lon="10.1714648">
                <ele>197.0</ele>
                <time>2020-08-23T08:41:45.000Z</time>
                <name>Trackpoint 2093</name>
            </trkpt>
            <trkpt lat="49.8819072" lon="10.1713264">
                <ele>197.0</ele>
                <time>2020-08-23T08:41:47.000Z</time>
                <name>Trackpoint 2094</name>
            </trkpt>
            <trkpt lat="49.8818496" lon="10.1711816">
                <ele>197.0</ele>
                <time>2020-08-23T08:41:49.000Z</time>
                <name>Trackpoint 2095</name>
            </trkpt>
            <trkpt lat="49.8817888" lon="10.1710384">
                <ele>197.0</ele>
                <time>2020-08-23T08:41:51.000Z</time>
                <name>Trackpoint 2096</name>
            </trkpt>
            <trkpt lat="49.8817376" lon="10.17088">
                <ele>197.0</ele>
                <time>2020-08-23T08:41:53.000Z</time>
                <name>Trackpoint 2097</name>
            </trkpt>
            <trkpt lat="49.8816864" lon="10.1707248">
                <ele>197.0</ele>
                <time>2020-08-23T08:41:55.000Z</time>
                <name>Trackpoint 2098</name>
            </trkpt>
            <trkpt lat="49.8816288" lon="10.1705784">
                <ele>197.0</ele>
                <time>2020-08-23T08:41:57.000Z</time>
                <name>Trackpoint 2099</name>
            </trkpt>
            <trkpt lat="49.881568" lon="10.1704352">
                <ele>197.0</ele>
                <time>2020-08-23T08:41:59.000Z</time>
                <name>Trackpoint 2100</name>
            </trkpt>
            <trkpt lat="49.8815072" lon="10.170292">
                <ele>197.0</ele>
                <time>2020-08-23T08:42:01.000Z</time>
                <name>Trackpoint 2101</name>
            </trkpt>
            <trkpt lat="49.8814432" lon="10.1701384">
                <ele>197.0</ele>
                <time>2020-08-23T08:42:03.000Z</time>
                <name>Trackpoint 2102</name>
            </trkpt>
            <trkpt lat="49.8813728" lon="10.1699896">
                <ele>197.0</ele>
                <time>2020-08-23T08:42:05.000Z</time>
                <name>Trackpoint 2103</name>
            </trkpt>
            <trkpt lat="49.8813088" lon="10.1698368">
                <ele>197.0</ele>
                <time>2020-08-23T08:42:07.000Z</time>
                <name>Trackpoint 2104</name>
            </trkpt>
            <trkpt lat="49.8812416" lon="10.169688">
                <ele>197.0</ele>
                <time>2020-08-23T08:42:09.000Z</time>
                <name>Trackpoint 2105</name>
            </trkpt>
            <trkpt lat="49.881168" lon="10.1695448">
                <ele>197.0</ele>
                <time>2020-08-23T08:42:11.000Z</time>
                <name>Trackpoint 2106</name>
            </trkpt>
            <trkpt lat="49.8810816" lon="10.1694384">
                <ele>197.0</ele>
                <time>2020-08-23T08:42:13.000Z</time>
                <name>Trackpoint 2107</name>
            </trkpt>
            <trkpt lat="49.8809664" lon="10.1693936">
                <ele>197.0</ele>
                <time>2020-08-23T08:42:15.000Z</time>
                <name>Trackpoint 2108</name>
            </trkpt>
            <trkpt lat="49.8808448" lon="10.1693624">
                <ele>196.0</ele>
                <time>2020-08-23T08:42:17.000Z</time>
                <name>Trackpoint 2109</name>
            </trkpt>
            <trkpt lat="49.8807264" lon="10.1692984">
                <ele>196.0</ele>
                <time>2020-08-23T08:42:19.000Z</time>
                <name>Trackpoint 2110</name>
            </trkpt>
            <trkpt lat="49.8806112" lon="10.1692184">
                <ele>196.0</ele>
                <time>2020-08-23T08:42:21.000Z</time>
                <name>Trackpoint 2111</name>
            </trkpt>
            <trkpt lat="49.8805088" lon="10.1691328">
                <ele>196.0</ele>
                <time>2020-08-23T08:42:23.000Z</time>
                <name>Trackpoint 2112</name>
            </trkpt>
            <trkpt lat="49.880416" lon="10.1690328">
                <ele>196.0</ele>
                <time>2020-08-23T08:42:25.000Z</time>
                <name>Trackpoint 2113</name>
            </trkpt>
            <trkpt lat="49.8803328" lon="10.1689184">
                <ele>195.0</ele>
                <time>2020-08-23T08:42:27.000Z</time>
                <name>Trackpoint 2114</name>
            </trkpt>
            <trkpt lat="49.880256" lon="10.1687968">
                <ele>195.0</ele>
                <time>2020-08-23T08:42:29.000Z</time>
                <name>Trackpoint 2115</name>
            </trkpt>
            <trkpt lat="49.8801888" lon="10.1686736">
                <ele>195.0</ele>
                <time>2020-08-23T08:42:31.000Z</time>
                <name>Trackpoint 2116</name>
            </trkpt>
            <trkpt lat="49.8801184" lon="10.1685336">
                <ele>195.0</ele>
                <time>2020-08-23T08:42:33.000Z</time>
                <name>Trackpoint 2117</name>
            </trkpt>
            <trkpt lat="49.880048" lon="10.1683912">
                <ele>195.0</ele>
                <time>2020-08-23T08:42:35.000Z</time>
                <name>Trackpoint 2118</name>
            </trkpt>
            <trkpt lat="49.8799776" lon="10.168248">
                <ele>195.0</ele>
                <time>2020-08-23T08:42:37.000Z</time>
                <name>Trackpoint 2119</name>
            </trkpt>
            <trkpt lat="49.8799136" lon="10.1681216">
                <ele>196.0</ele>
                <time>2020-08-23T08:42:39.000Z</time>
                <name>Trackpoint 2120</name>
            </trkpt>
            <trkpt lat="49.8798432" lon="10.167976">
                <ele>196.0</ele>
                <time>2020-08-23T08:42:41.000Z</time>
                <name>Trackpoint 2121</name>
            </trkpt>
            <trkpt lat="49.8797728" lon="10.1678264">
                <ele>197.0</ele>
                <time>2020-08-23T08:42:43.000Z</time>
                <name>Trackpoint 2122</name>
            </trkpt>
            <trkpt lat="49.8797024" lon="10.1676704">
                <ele>198.0</ele>
                <time>2020-08-23T08:42:45.000Z</time>
                <name>Trackpoint 2123</name>
            </trkpt>
            <trkpt lat="49.8796352" lon="10.1675184">
                <ele>197.0</ele>
                <time>2020-08-23T08:42:47.000Z</time>
                <name>Trackpoint 2124</name>
            </trkpt>
            <trkpt lat="49.8795648" lon="10.1673848">
                <ele>198.0</ele>
                <time>2020-08-23T08:42:49.000Z</time>
                <name>Trackpoint 2125</name>
            </trkpt>
            <trkpt lat="49.8795008" lon="10.167256">
                <ele>198.0</ele>
                <time>2020-08-23T08:42:51.000Z</time>
                <name>Trackpoint 2126</name>
            </trkpt>
            <trkpt lat="49.8794432" lon="10.1671352">
                <ele>199.0</ele>
                <time>2020-08-23T08:42:53.000Z</time>
                <name>Trackpoint 2127</name>
            </trkpt>
            <trkpt lat="49.8793792" lon="10.1670064">
                <ele>199.0</ele>
                <time>2020-08-23T08:42:55.000Z</time>
                <name>Trackpoint 2128</name>
            </trkpt>
            <trkpt lat="49.8793184" lon="10.1668784">
                <ele>199.0</ele>
                <time>2020-08-23T08:42:57.000Z</time>
                <name>Trackpoint 2129</name>
            </trkpt>
            <trkpt lat="49.879248" lon="10.166748">
                <ele>199.0</ele>
                <time>2020-08-23T08:42:59.000Z</time>
                <name>Trackpoint 2130</name>
            </trkpt>
            <trkpt lat="49.8791808" lon="10.1666344">
                <ele>199.0</ele>
                <time>2020-08-23T08:43:01.000Z</time>
                <name>Trackpoint 2131</name>
            </trkpt>
            <trkpt lat="49.8791072" lon="10.1665112">
                <ele>198.0</ele>
                <time>2020-08-23T08:43:03.000Z</time>
                <name>Trackpoint 2132</name>
            </trkpt>
            <trkpt lat="49.87904" lon="10.1664088">
                <ele>198.0</ele>
                <time>2020-08-23T08:43:05.000Z</time>
                <name>Trackpoint 2133</name>
            </trkpt>
            <trkpt lat="49.8789696" lon="10.1663128">
                <ele>198.0</ele>
                <time>2020-08-23T08:43:07.000Z</time>
                <name>Trackpoint 2134</name>
            </trkpt>
            <trkpt lat="49.8789056" lon="10.1662">
                <ele>198.0</ele>
                <time>2020-08-23T08:43:09.000Z</time>
                <name>Trackpoint 2135</name>
            </trkpt>
            <trkpt lat="49.8788544" lon="10.166088">
                <ele>198.0</ele>
                <time>2020-08-23T08:43:11.000Z</time>
                <name>Trackpoint 2136</name>
            </trkpt>
            <trkpt lat="49.878784" lon="10.1659768">
                <ele>198.0</ele>
                <time>2020-08-23T08:43:13.000Z</time>
                <name>Trackpoint 2137</name>
            </trkpt>
            <trkpt lat="49.8787104" lon="10.16586">
                <ele>198.0</ele>
                <time>2020-08-23T08:43:15.000Z</time>
                <name>Trackpoint 2138</name>
            </trkpt>
            <trkpt lat="49.8786464" lon="10.1657584">
                <ele>198.0</ele>
                <time>2020-08-23T08:43:17.000Z</time>
                <name>Trackpoint 2139</name>
            </trkpt>
            <trkpt lat="49.8785824" lon="10.1656512">
                <ele>198.0</ele>
                <time>2020-08-23T08:43:19.000Z</time>
                <name>Trackpoint 2140</name>
            </trkpt>
            <trkpt lat="49.878512" lon="10.1655416">
                <ele>197.0</ele>
                <time>2020-08-23T08:43:21.000Z</time>
                <name>Trackpoint 2141</name>
            </trkpt>
            <trkpt lat="49.8784608" lon="10.165428">
                <ele>197.0</ele>
                <time>2020-08-23T08:43:23.000Z</time>
                <name>Trackpoint 2142</name>
            </trkpt>
            <trkpt lat="49.8784192" lon="10.1653216">
                <ele>197.0</ele>
                <time>2020-08-23T08:43:25.000Z</time>
                <name>Trackpoint 2143</name>
            </trkpt>
            <trkpt lat="49.8783776" lon="10.16524">
                <ele>198.0</ele>
                <time>2020-08-23T08:43:27.000Z</time>
                <name>Trackpoint 2144</name>
            </trkpt>
            <trkpt lat="49.8783136" lon="10.1651624">
                <ele>198.0</ele>
                <time>2020-08-23T08:43:29.000Z</time>
                <name>Trackpoint 2145</name>
            </trkpt>
            <trkpt lat="49.8782496" lon="10.1650952">
                <ele>198.0</ele>
                <time>2020-08-23T08:43:31.000Z</time>
                <name>Trackpoint 2146</name>
            </trkpt>
            <trkpt lat="49.8781728" lon="10.1650288">
                <ele>198.0</ele>
                <time>2020-08-23T08:43:33.000Z</time>
                <name>Trackpoint 2147</name>
            </trkpt>
            <trkpt lat="49.8780928" lon="10.1649536">
                <ele>198.0</ele>
                <time>2020-08-23T08:43:35.000Z</time>
                <name>Trackpoint 2148</name>
            </trkpt>
            <trkpt lat="49.8780096" lon="10.1648848">
                <ele>198.0</ele>
                <time>2020-08-23T08:43:37.000Z</time>
                <name>Trackpoint 2149</name>
            </trkpt>
            <trkpt lat="49.8779264" lon="10.1648064">
                <ele>198.0</ele>
                <time>2020-08-23T08:43:39.000Z</time>
                <name>Trackpoint 2150</name>
            </trkpt>
            <trkpt lat="49.8778368" lon="10.1647256">
                <ele>198.0</ele>
                <time>2020-08-23T08:43:41.000Z</time>
                <name>Trackpoint 2151</name>
            </trkpt>
            <trkpt lat="49.8777504" lon="10.1646416">
                <ele>197.0</ele>
                <time>2020-08-23T08:43:43.000Z</time>
                <name>Trackpoint 2152</name>
            </trkpt>
            <trkpt lat="49.8776672" lon="10.1645768">
                <ele>197.0</ele>
                <time>2020-08-23T08:43:46.000Z</time>
                <name>Trackpoint 2153</name>
            </trkpt>
            <trkpt lat="49.8775968" lon="10.16452">
                <ele>199.0</ele>
                <time>2020-08-23T08:44:19.000Z</time>
                <name>Trackpoint 2154</name>
            </trkpt>
            <trkpt lat="49.8774944" lon="10.1644352">
                <ele>198.0</ele>
                <time>2020-08-23T08:44:22.000Z</time>
                <name>Trackpoint 2155</name>
            </trkpt>
            <trkpt lat="49.8774208" lon="10.1643784">
                <ele>198.0</ele>
                <time>2020-08-23T08:44:24.000Z</time>
                <name>Trackpoint 2156</name>
            </trkpt>
            <trkpt lat="49.8773504" lon="10.1643">
                <ele>198.0</ele>
                <time>2020-08-23T08:44:26.000Z</time>
                <name>Trackpoint 2157</name>
            </trkpt>
            <trkpt lat="49.8772768" lon="10.164224">
                <ele>198.0</ele>
                <time>2020-08-23T08:44:28.000Z</time>
                <name>Trackpoint 2158</name>
            </trkpt>
            <trkpt lat="49.8772128" lon="10.1641416">
                <ele>198.0</ele>
                <time>2020-08-23T08:44:30.000Z</time>
                <name>Trackpoint 2159</name>
            </trkpt>
            <trkpt lat="49.877152" lon="10.1640632">
                <ele>197.0</ele>
                <time>2020-08-23T08:44:32.000Z</time>
                <name>Trackpoint 2160</name>
            </trkpt>
            <trkpt lat="49.8770912" lon="10.1639968">
                <ele>197.0</ele>
                <time>2020-08-23T08:44:34.000Z</time>
                <name>Trackpoint 2161</name>
            </trkpt>
            <trkpt lat="49.8770208" lon="10.1639384">
                <ele>197.0</ele>
                <time>2020-08-23T08:44:36.000Z</time>
                <name>Trackpoint 2162</name>
            </trkpt>
            <trkpt lat="49.876912" lon="10.1638632">
                <ele>197.0</ele>
                <time>2020-08-23T08:44:39.000Z</time>
                <name>Trackpoint 2163</name>
            </trkpt>
            <trkpt lat="49.8768224" lon="10.1638216">
                <ele>197.0</ele>
                <time>2020-08-23T08:44:41.000Z</time>
                <name>Trackpoint 2164</name>
            </trkpt>
            <trkpt lat="49.8767328" lon="10.1637936">
                <ele>197.0</ele>
                <time>2020-08-23T08:44:43.000Z</time>
                <name>Trackpoint 2165</name>
            </trkpt>
            <trkpt lat="49.87664" lon="10.1637584">
                <ele>196.0</ele>
                <time>2020-08-23T08:44:45.000Z</time>
                <name>Trackpoint 2166</name>
            </trkpt>
            <trkpt lat="49.876512" lon="10.1637064">
                <ele>196.0</ele>
                <time>2020-08-23T08:44:48.000Z</time>
                <name>Trackpoint 2167</name>
            </trkpt>
            <trkpt lat="49.8764256" lon="10.163676">
                <ele>196.0</ele>
                <time>2020-08-23T08:44:50.000Z</time>
                <name>Trackpoint 2168</name>
            </trkpt>
            <trkpt lat="49.876336" lon="10.16364">
                <ele>196.0</ele>
                <time>2020-08-23T08:44:52.000Z</time>
                <name>Trackpoint 2169</name>
            </trkpt>
            <trkpt lat="49.8762432" lon="10.1636088">
                <ele>195.0</ele>
                <time>2020-08-23T08:44:54.000Z</time>
                <name>Trackpoint 2170</name>
            </trkpt>
            <trkpt lat="49.8761184" lon="10.163564">
                <ele>195.0</ele>
                <time>2020-08-23T08:44:57.000Z</time>
                <name>Trackpoint 2171</name>
            </trkpt>
            <trkpt lat="49.876" lon="10.1635168">
                <ele>195.0</ele>
                <time>2020-08-23T08:45:00.000Z</time>
                <name>Trackpoint 2172</name>
            </trkpt>
            <trkpt lat="49.8758848" lon="10.1634816">
                <ele>195.0</ele>
                <time>2020-08-23T08:45:03.000Z</time>
                <name>Trackpoint 2173</name>
            </trkpt>
            <trkpt lat="49.8757824" lon="10.1635">
                <ele>195.0</ele>
                <time>2020-08-23T08:45:06.000Z</time>
                <name>Trackpoint 2174</name>
            </trkpt>
            <trkpt lat="49.8757024" lon="10.1635712">
                <ele>195.0</ele>
                <time>2020-08-23T08:45:09.000Z</time>
                <name>Trackpoint 2175</name>
            </trkpt>
            <trkpt lat="49.875664" lon="10.1636664">
                <ele>195.0</ele>
                <time>2020-08-23T08:45:12.000Z</time>
                <name>Trackpoint 2176</name>
            </trkpt>
            <trkpt lat="49.8756128" lon="10.1637784">
                <ele>195.0</ele>
                <time>2020-08-23T08:45:15.000Z</time>
                <name>Trackpoint 2177</name>
            </trkpt>
            <trkpt lat="49.87552" lon="10.1638432">
                <ele>195.0</ele>
                <time>2020-08-23T08:45:18.000Z</time>
                <name>Trackpoint 2178</name>
            </trkpt>
            <trkpt lat="49.875408" lon="10.163828">
                <ele>195.0</ele>
                <time>2020-08-23T08:45:35.000Z</time>
                <name>Trackpoint 2179</name>
            </trkpt>
            <trkpt lat="49.8753088" lon="10.1638944">
                <ele>195.0</ele>
                <time>2020-08-23T08:45:40.000Z</time>
                <name>Trackpoint 2180</name>
            </trkpt>
            <trkpt lat="49.8752064" lon="10.1639384">
                <ele>195.0</ele>
                <time>2020-08-23T08:45:43.000Z</time>
                <name>Trackpoint 2181</name>
            </trkpt>
            <trkpt lat="49.8751296" lon="10.1639928">
                <ele>195.0</ele>
                <time>2020-08-23T08:45:45.000Z</time>
                <name>Trackpoint 2182</name>
            </trkpt>
            <trkpt lat="49.8750432" lon="10.1640368">
                <ele>195.0</ele>
                <time>2020-08-23T08:45:47.000Z</time>
                <name>Trackpoint 2183</name>
            </trkpt>
            <trkpt lat="49.8749536" lon="10.1640904">
                <ele>195.0</ele>
                <time>2020-08-23T08:45:49.000Z</time>
                <name>Trackpoint 2184</name>
            </trkpt>
            <trkpt lat="49.8748672" lon="10.1641568">
                <ele>195.0</ele>
                <time>2020-08-23T08:45:51.000Z</time>
                <name>Trackpoint 2185</name>
            </trkpt>
            <trkpt lat="49.874784" lon="10.1642168">
                <ele>195.0</ele>
                <time>2020-08-23T08:45:53.000Z</time>
                <name>Trackpoint 2186</name>
            </trkpt>
            <trkpt lat="49.8746976" lon="10.1642912">
                <ele>195.0</ele>
                <time>2020-08-23T08:45:55.000Z</time>
                <name>Trackpoint 2187</name>
            </trkpt>
            <trkpt lat="49.8746208" lon="10.1643648">
                <ele>195.0</ele>
                <time>2020-08-23T08:45:57.000Z</time>
                <name>Trackpoint 2188</name>
            </trkpt>
            <trkpt lat="49.8745344" lon="10.1644136">
                <ele>195.0</ele>
                <time>2020-08-23T08:45:59.000Z</time>
                <name>Trackpoint 2189</name>
            </trkpt>
            <trkpt lat="49.8744384" lon="10.1644824">
                <ele>195.0</ele>
                <time>2020-08-23T08:46:01.000Z</time>
                <name>Trackpoint 2190</name>
            </trkpt>
            <trkpt lat="49.8743392" lon="10.1645416">
                <ele>195.0</ele>
                <time>2020-08-23T08:46:03.000Z</time>
                <name>Trackpoint 2191</name>
            </trkpt>
            <trkpt lat="49.8742368" lon="10.1645944">
                <ele>196.0</ele>
                <time>2020-08-23T08:46:05.000Z</time>
                <name>Trackpoint 2192</name>
            </trkpt>
            <trkpt lat="49.8741344" lon="10.1646544">
                <ele>196.0</ele>
                <time>2020-08-23T08:46:07.000Z</time>
                <name>Trackpoint 2193</name>
            </trkpt>
            <trkpt lat="49.8740352" lon="10.1647184">
                <ele>196.0</ele>
                <time>2020-08-23T08:46:09.000Z</time>
                <name>Trackpoint 2194</name>
            </trkpt>
            <trkpt lat="49.8739296" lon="10.1647816">
                <ele>196.0</ele>
                <time>2020-08-23T08:46:11.000Z</time>
                <name>Trackpoint 2195</name>
            </trkpt>
            <trkpt lat="49.8738304" lon="10.1648328">
                <ele>196.0</ele>
                <time>2020-08-23T08:46:13.000Z</time>
                <name>Trackpoint 2196</name>
            </trkpt>
            <trkpt lat="49.8737312" lon="10.164884">
                <ele>196.0</ele>
                <time>2020-08-23T08:46:15.000Z</time>
                <name>Trackpoint 2197</name>
            </trkpt>
            <trkpt lat="49.8736256" lon="10.1649176">
                <ele>196.0</ele>
                <time>2020-08-23T08:46:17.000Z</time>
                <name>Trackpoint 2198</name>
            </trkpt>
            <trkpt lat="49.8735168" lon="10.1649448">
                <ele>196.0</ele>
                <time>2020-08-23T08:46:19.000Z</time>
                <name>Trackpoint 2199</name>
            </trkpt>
            <trkpt lat="49.8734016" lon="10.1649704">
                <ele>196.0</ele>
                <time>2020-08-23T08:46:21.000Z</time>
                <name>Trackpoint 2200</name>
            </trkpt>
            <trkpt lat="49.8732896" lon="10.1649888">
                <ele>196.0</ele>
                <time>2020-08-23T08:46:23.000Z</time>
                <name>Trackpoint 2201</name>
            </trkpt>
            <trkpt lat="49.8731776" lon="10.16502">
                <ele>196.0</ele>
                <time>2020-08-23T08:46:25.000Z</time>
                <name>Trackpoint 2202</name>
            </trkpt>
            <trkpt lat="49.8730624" lon="10.165056">
                <ele>196.0</ele>
                <time>2020-08-23T08:46:27.000Z</time>
                <name>Trackpoint 2203</name>
            </trkpt>
            <trkpt lat="49.8729472" lon="10.1650896">
                <ele>196.0</ele>
                <time>2020-08-23T08:46:29.000Z</time>
                <name>Trackpoint 2204</name>
            </trkpt>
            <trkpt lat="49.872832" lon="10.16512">
                <ele>196.0</ele>
                <time>2020-08-23T08:46:31.000Z</time>
                <name>Trackpoint 2205</name>
            </trkpt>
            <trkpt lat="49.8727296" lon="10.165172">
                <ele>196.0</ele>
                <time>2020-08-23T08:46:33.000Z</time>
                <name>Trackpoint 2206</name>
            </trkpt>
            <trkpt lat="49.8726336" lon="10.1652448">
                <ele>196.0</ele>
                <time>2020-08-23T08:46:35.000Z</time>
                <name>Trackpoint 2207</name>
            </trkpt>
            <trkpt lat="49.8725312" lon="10.1653432">
                <ele>196.0</ele>
                <time>2020-08-23T08:46:37.000Z</time>
                <name>Trackpoint 2208</name>
            </trkpt>
            <trkpt lat="49.872448" lon="10.1654464">
                <ele>196.0</ele>
                <time>2020-08-23T08:46:39.000Z</time>
                <name>Trackpoint 2209</name>
            </trkpt>
            <trkpt lat="49.872368" lon="10.1655664">
                <ele>196.0</ele>
                <time>2020-08-23T08:46:41.000Z</time>
                <name>Trackpoint 2210</name>
            </trkpt>
            <trkpt lat="49.8722816" lon="10.1656904">
                <ele>196.0</ele>
                <time>2020-08-23T08:46:43.000Z</time>
                <name>Trackpoint 2211</name>
            </trkpt>
            <trkpt lat="49.8721952" lon="10.1658112">
                <ele>196.0</ele>
                <time>2020-08-23T08:46:45.000Z</time>
                <name>Trackpoint 2212</name>
            </trkpt>
            <trkpt lat="49.8721088" lon="10.1659296">
                <ele>196.0</ele>
                <time>2020-08-23T08:46:47.000Z</time>
                <name>Trackpoint 2213</name>
            </trkpt>
            <trkpt lat="49.8720192" lon="10.166048">
                <ele>196.0</ele>
                <time>2020-08-23T08:46:49.000Z</time>
                <name>Trackpoint 2214</name>
            </trkpt>
            <trkpt lat="49.871936" lon="10.1661664">
                <ele>196.0</ele>
                <time>2020-08-23T08:46:51.000Z</time>
                <name>Trackpoint 2215</name>
            </trkpt>
            <trkpt lat="49.8718496" lon="10.1662864">
                <ele>196.0</ele>
                <time>2020-08-23T08:46:53.000Z</time>
                <name>Trackpoint 2216</name>
            </trkpt>
            <trkpt lat="49.87176" lon="10.1664088">
                <ele>196.0</ele>
                <time>2020-08-23T08:46:55.000Z</time>
                <name>Trackpoint 2217</name>
            </trkpt>
            <trkpt lat="49.8716736" lon="10.1665224">
                <ele>196.0</ele>
                <time>2020-08-23T08:46:57.000Z</time>
                <name>Trackpoint 2218</name>
            </trkpt>
            <trkpt lat="49.8715808" lon="10.1666368">
                <ele>196.0</ele>
                <time>2020-08-23T08:46:59.000Z</time>
                <name>Trackpoint 2219</name>
            </trkpt>
            <trkpt lat="49.871488" lon="10.1667432">
                <ele>196.0</ele>
                <time>2020-08-23T08:47:01.000Z</time>
                <name>Trackpoint 2220</name>
            </trkpt>
            <trkpt lat="49.8713984" lon="10.166852">
                <ele>196.0</ele>
                <time>2020-08-23T08:47:03.000Z</time>
                <name>Trackpoint 2221</name>
            </trkpt>
            <trkpt lat="49.871312" lon="10.16696">
                <ele>196.0</ele>
                <time>2020-08-23T08:47:05.000Z</time>
                <name>Trackpoint 2222</name>
            </trkpt>
            <trkpt lat="49.8712352" lon="10.1670936">
                <ele>196.0</ele>
                <time>2020-08-23T08:47:07.000Z</time>
                <name>Trackpoint 2223</name>
            </trkpt>
            <trkpt lat="49.8711552" lon="10.1672384">
                <ele>196.0</ele>
                <time>2020-08-23T08:47:09.000Z</time>
                <name>Trackpoint 2224</name>
            </trkpt>
            <trkpt lat="49.8710752" lon="10.167388">
                <ele>196.0</ele>
                <time>2020-08-23T08:47:11.000Z</time>
                <name>Trackpoint 2225</name>
            </trkpt>
            <trkpt lat="49.8709984" lon="10.167552">
                <ele>196.0</ele>
                <time>2020-08-23T08:47:13.000Z</time>
                <name>Trackpoint 2226</name>
            </trkpt>
            <trkpt lat="49.8709664" lon="10.16764">
                <ele>196.0</ele>
                <time>2020-08-23T08:47:14.000Z</time>
                <name>Trackpoint 2227</name>
            </trkpt>
            <trkpt lat="49.8709376" lon="10.1677264">
                <ele>196.0</ele>
                <time>2020-08-23T08:47:15.000Z</time>
                <name>Trackpoint 2228</name>
            </trkpt>
            <trkpt lat="49.8709056" lon="10.1678112">
                <ele>196.0</ele>
                <time>2020-08-23T08:47:16.000Z</time>
                <name>Trackpoint 2229</name>
            </trkpt>
            <trkpt lat="49.8708544" lon="10.1679736">
                <ele>196.0</ele>
                <time>2020-08-23T08:47:18.000Z</time>
                <name>Trackpoint 2230</name>
            </trkpt>
            <trkpt lat="49.8707968" lon="10.1681344">
                <ele>196.0</ele>
                <time>2020-08-23T08:47:20.000Z</time>
                <name>Trackpoint 2231</name>
            </trkpt>
            <trkpt lat="49.870736" lon="10.1682816">
                <ele>196.0</ele>
                <time>2020-08-23T08:47:22.000Z</time>
                <name>Trackpoint 2232</name>
            </trkpt>
            <trkpt lat="49.8707136" lon="10.1683712">
                <ele>196.0</ele>
                <time>2020-08-23T08:47:23.000Z</time>
                <name>Trackpoint 2233</name>
            </trkpt>
            <trkpt lat="49.8706784" lon="10.1685464">
                <ele>195.0</ele>
                <time>2020-08-23T08:47:25.000Z</time>
                <name>Trackpoint 2234</name>
            </trkpt>
            <trkpt lat="49.8706528" lon="10.1687208">
                <ele>195.0</ele>
                <time>2020-08-23T08:47:27.000Z</time>
                <name>Trackpoint 2235</name>
            </trkpt>
            <trkpt lat="49.8706464" lon="10.1688216">
                <ele>195.0</ele>
                <time>2020-08-23T08:47:28.000Z</time>
                <name>Trackpoint 2236</name>
            </trkpt>
            <trkpt lat="49.87064" lon="10.1689832">
                <ele>195.0</ele>
                <time>2020-08-23T08:47:30.000Z</time>
                <name>Trackpoint 2237</name>
            </trkpt>
            <trkpt lat="49.8706336" lon="10.1691512">
                <ele>195.0</ele>
                <time>2020-08-23T08:47:32.000Z</time>
                <name>Trackpoint 2238</name>
            </trkpt>
            <trkpt lat="49.8706176" lon="10.16926">
                <ele>195.0</ele>
                <time>2020-08-23T08:47:33.000Z</time>
                <name>Trackpoint 2239</name>
            </trkpt>
            <trkpt lat="49.870608" lon="10.1693672">
                <ele>195.0</ele>
                <time>2020-08-23T08:47:34.000Z</time>
                <name>Trackpoint 2240</name>
            </trkpt>
            <trkpt lat="49.8705888" lon="10.169552">
                <ele>195.0</ele>
                <time>2020-08-23T08:47:36.000Z</time>
                <name>Trackpoint 2241</name>
            </trkpt>
            <trkpt lat="49.8705824" lon="10.1696456">
                <ele>195.0</ele>
                <time>2020-08-23T08:47:37.000Z</time>
                <name>Trackpoint 2242</name>
            </trkpt>
            <trkpt lat="49.870576" lon="10.1698176">
                <ele>194.0</ele>
                <time>2020-08-23T08:47:39.000Z</time>
                <name>Trackpoint 2243</name>
            </trkpt>
            <trkpt lat="49.8705696" lon="10.1699336">
                <ele>194.0</ele>
                <time>2020-08-23T08:47:40.000Z</time>
                <name>Trackpoint 2244</name>
            </trkpt>
            <trkpt lat="49.8705792" lon="10.1700264">
                <ele>194.0</ele>
                <time>2020-08-23T08:47:41.000Z</time>
                <name>Trackpoint 2245</name>
            </trkpt>
            <trkpt lat="49.8705792" lon="10.1701184">
                <ele>194.0</ele>
                <time>2020-08-23T08:47:42.000Z</time>
                <name>Trackpoint 2246</name>
            </trkpt>
            <trkpt lat="49.8705664" lon="10.170292">
                <ele>194.0</ele>
                <time>2020-08-23T08:47:44.000Z</time>
                <name>Trackpoint 2247</name>
            </trkpt>
            <trkpt lat="49.8705632" lon="10.1704464">
                <ele>194.0</ele>
                <time>2020-08-23T08:47:46.000Z</time>
                <name>Trackpoint 2248</name>
            </trkpt>
            <trkpt lat="49.870576" lon="10.170624">
                <ele>194.0</ele>
                <time>2020-08-23T08:47:48.000Z</time>
                <name>Trackpoint 2249</name>
            </trkpt>
            <trkpt lat="49.870576" lon="10.1707152">
                <ele>194.0</ele>
                <time>2020-08-23T08:47:49.000Z</time>
                <name>Trackpoint 2250</name>
            </trkpt>
            <trkpt lat="49.870576" lon="10.1708168">
                <ele>194.0</ele>
                <time>2020-08-23T08:47:50.000Z</time>
                <name>Trackpoint 2251</name>
            </trkpt>
            <trkpt lat="49.870576" lon="10.17092">
                <ele>193.0</ele>
                <time>2020-08-23T08:47:51.000Z</time>
                <name>Trackpoint 2252</name>
            </trkpt>
            <trkpt lat="49.870576" lon="10.1710384">
                <ele>193.0</ele>
                <time>2020-08-23T08:47:52.000Z</time>
                <name>Trackpoint 2253</name>
            </trkpt>
            <trkpt lat="49.8705792" lon="10.1711504">
                <ele>193.0</ele>
                <time>2020-08-23T08:47:53.000Z</time>
                <name>Trackpoint 2254</name>
            </trkpt>
            <trkpt lat="49.8705824" lon="10.1712704">
                <ele>193.0</ele>
                <time>2020-08-23T08:47:54.000Z</time>
                <name>Trackpoint 2255</name>
            </trkpt>
            <trkpt lat="49.8705824" lon="10.1713888">
                <ele>193.0</ele>
                <time>2020-08-23T08:47:55.000Z</time>
                <name>Trackpoint 2256</name>
            </trkpt>
            <trkpt lat="49.8705696" lon="10.1715248">
                <ele>193.0</ele>
                <time>2020-08-23T08:47:56.000Z</time>
                <name>Trackpoint 2257</name>
            </trkpt>
            <trkpt lat="49.8705632" lon="10.1716536">
                <ele>193.0</ele>
                <time>2020-08-23T08:47:57.000Z</time>
                <name>Trackpoint 2258</name>
            </trkpt>
            <trkpt lat="49.8705536" lon="10.1717768">
                <ele>193.0</ele>
                <time>2020-08-23T08:47:58.000Z</time>
                <name>Trackpoint 2259</name>
            </trkpt>
            <trkpt lat="49.8705568" lon="10.1718848">
                <ele>193.0</ele>
                <time>2020-08-23T08:47:59.000Z</time>
                <name>Trackpoint 2260</name>
            </trkpt>
            <trkpt lat="49.8705568" lon="10.1719936">
                <ele>193.0</ele>
                <time>2020-08-23T08:48:00.000Z</time>
                <name>Trackpoint 2261</name>
            </trkpt>
            <trkpt lat="49.8705568" lon="10.1721064">
                <ele>193.0</ele>
                <time>2020-08-23T08:48:01.000Z</time>
                <name>Trackpoint 2262</name>
            </trkpt>
            <trkpt lat="49.8705568" lon="10.172212">
                <ele>193.0</ele>
                <time>2020-08-23T08:48:02.000Z</time>
                <name>Trackpoint 2263</name>
            </trkpt>
            <trkpt lat="49.87056" lon="10.17232">
                <ele>193.0</ele>
                <time>2020-08-23T08:48:03.000Z</time>
                <name>Trackpoint 2264</name>
            </trkpt>
            <trkpt lat="49.8705632" lon="10.1724256">
                <ele>193.0</ele>
                <time>2020-08-23T08:48:04.000Z</time>
                <name>Trackpoint 2265</name>
            </trkpt>
            <trkpt lat="49.8705696" lon="10.1725384">
                <ele>193.0</ele>
                <time>2020-08-23T08:48:05.000Z</time>
                <name>Trackpoint 2266</name>
            </trkpt>
            <trkpt lat="49.8705856" lon="10.1726448">
                <ele>193.0</ele>
                <time>2020-08-23T08:48:06.000Z</time>
                <name>Trackpoint 2267</name>
            </trkpt>
            <trkpt lat="49.8706016" lon="10.1727504">
                <ele>193.0</ele>
                <time>2020-08-23T08:48:07.000Z</time>
                <name>Trackpoint 2268</name>
            </trkpt>
            <trkpt lat="49.8706048" lon="10.17286">
                <ele>193.0</ele>
                <time>2020-08-23T08:48:08.000Z</time>
                <name>Trackpoint 2269</name>
            </trkpt>
            <trkpt lat="49.8706144" lon="10.1729784">
                <ele>193.0</ele>
                <time>2020-08-23T08:48:09.000Z</time>
                <name>Trackpoint 2270</name>
            </trkpt>
            <trkpt lat="49.8706208" lon="10.1730896">
                <ele>193.0</ele>
                <time>2020-08-23T08:48:10.000Z</time>
                <name>Trackpoint 2271</name>
            </trkpt>
            <trkpt lat="49.8706336" lon="10.1731904">
                <ele>193.0</ele>
                <time>2020-08-23T08:48:11.000Z</time>
                <name>Trackpoint 2272</name>
            </trkpt>
            <trkpt lat="49.8706336" lon="10.1733">
                <ele>193.0</ele>
                <time>2020-08-23T08:48:12.000Z</time>
                <name>Trackpoint 2273</name>
            </trkpt>
            <trkpt lat="49.8706336" lon="10.1734216">
                <ele>193.0</ele>
                <time>2020-08-23T08:48:13.000Z</time>
                <name>Trackpoint 2274</name>
            </trkpt>
            <trkpt lat="49.8706368" lon="10.1735288">
                <ele>193.0</ele>
                <time>2020-08-23T08:48:14.000Z</time>
                <name>Trackpoint 2275</name>
            </trkpt>
            <trkpt lat="49.8706368" lon="10.1736448">
                <ele>194.0</ele>
                <time>2020-08-23T08:48:15.000Z</time>
                <name>Trackpoint 2276</name>
            </trkpt>
            <trkpt lat="49.8706368" lon="10.1737536">
                <ele>194.0</ele>
                <time>2020-08-23T08:48:16.000Z</time>
                <name>Trackpoint 2277</name>
            </trkpt>
            <trkpt lat="49.87064" lon="10.1738568">
                <ele>194.0</ele>
                <time>2020-08-23T08:48:17.000Z</time>
                <name>Trackpoint 2278</name>
            </trkpt>
            <trkpt lat="49.8706464" lon="10.1739632">
                <ele>194.0</ele>
                <time>2020-08-23T08:48:18.000Z</time>
                <name>Trackpoint 2279</name>
            </trkpt>
            <trkpt lat="49.8706464" lon="10.1740736">
                <ele>194.0</ele>
                <time>2020-08-23T08:48:19.000Z</time>
                <name>Trackpoint 2280</name>
            </trkpt>
            <trkpt lat="49.8706528" lon="10.1741864">
                <ele>194.0</ele>
                <time>2020-08-23T08:48:20.000Z</time>
                <name>Trackpoint 2281</name>
            </trkpt>
            <trkpt lat="49.8706592" lon="10.1742888">
                <ele>194.0</ele>
                <time>2020-08-23T08:48:21.000Z</time>
                <name>Trackpoint 2282</name>
            </trkpt>
            <trkpt lat="49.8706624" lon="10.1743936">
                <ele>194.0</ele>
                <time>2020-08-23T08:48:22.000Z</time>
                <name>Trackpoint 2283</name>
            </trkpt>
            <trkpt lat="49.8706656" lon="10.1745008">
                <ele>194.0</ele>
                <time>2020-08-23T08:48:23.000Z</time>
                <name>Trackpoint 2284</name>
            </trkpt>
            <trkpt lat="49.8706752" lon="10.1746056">
                <ele>194.0</ele>
                <time>2020-08-23T08:48:24.000Z</time>
                <name>Trackpoint 2285</name>
            </trkpt>
            <trkpt lat="49.8706848" lon="10.1747016">
                <ele>194.0</ele>
                <time>2020-08-23T08:48:25.000Z</time>
                <name>Trackpoint 2286</name>
            </trkpt>
            <trkpt lat="49.8706976" lon="10.1748048">
                <ele>195.0</ele>
                <time>2020-08-23T08:48:26.000Z</time>
                <name>Trackpoint 2287</name>
            </trkpt>
            <trkpt lat="49.8707136" lon="10.1749">
                <ele>195.0</ele>
                <time>2020-08-23T08:48:27.000Z</time>
                <name>Trackpoint 2288</name>
            </trkpt>
            <trkpt lat="49.8707264" lon="10.1749952">
                <ele>195.0</ele>
                <time>2020-08-23T08:48:28.000Z</time>
                <name>Trackpoint 2289</name>
            </trkpt>
            <trkpt lat="49.8707456" lon="10.175088">
                <ele>195.0</ele>
                <time>2020-08-23T08:48:29.000Z</time>
                <name>Trackpoint 2290</name>
            </trkpt>
            <trkpt lat="49.870768" lon="10.1751808">
                <ele>195.0</ele>
                <time>2020-08-23T08:48:30.000Z</time>
                <name>Trackpoint 2291</name>
            </trkpt>
            <trkpt lat="49.8707968" lon="10.1752728">
                <ele>195.0</ele>
                <time>2020-08-23T08:48:31.000Z</time>
                <name>Trackpoint 2292</name>
            </trkpt>
            <trkpt lat="49.8708192" lon="10.1753632">
                <ele>195.0</ele>
                <time>2020-08-23T08:48:32.000Z</time>
                <name>Trackpoint 2293</name>
            </trkpt>
            <trkpt lat="49.8708416" lon="10.1754568">
                <ele>195.0</ele>
                <time>2020-08-23T08:48:33.000Z</time>
                <name>Trackpoint 2294</name>
            </trkpt>
            <trkpt lat="49.870864" lon="10.1755464">
                <ele>195.0</ele>
                <time>2020-08-23T08:48:34.000Z</time>
                <name>Trackpoint 2295</name>
            </trkpt>
            <trkpt lat="49.8708928" lon="10.1756336">
                <ele>195.0</ele>
                <time>2020-08-23T08:48:35.000Z</time>
                <name>Trackpoint 2296</name>
            </trkpt>
            <trkpt lat="49.870944" lon="10.1758048">
                <ele>195.0</ele>
                <time>2020-08-23T08:48:37.000Z</time>
                <name>Trackpoint 2297</name>
            </trkpt>
            <trkpt lat="49.8709856" lon="10.1759784">
                <ele>194.0</ele>
                <time>2020-08-23T08:48:39.000Z</time>
                <name>Trackpoint 2298</name>
            </trkpt>
            <trkpt lat="49.8710016" lon="10.176072">
                <ele>194.0</ele>
                <time>2020-08-23T08:48:40.000Z</time>
                <name>Trackpoint 2299</name>
            </trkpt>
            <trkpt lat="49.8710176" lon="10.176164">
                <ele>194.0</ele>
                <time>2020-08-23T08:48:41.000Z</time>
                <name>Trackpoint 2300</name>
            </trkpt>
            <trkpt lat="49.8710304" lon="10.1762584">
                <ele>194.0</ele>
                <time>2020-08-23T08:48:42.000Z</time>
                <name>Trackpoint 2301</name>
            </trkpt>
            <trkpt lat="49.87104" lon="10.176356">
                <ele>194.0</ele>
                <time>2020-08-23T08:48:43.000Z</time>
                <name>Trackpoint 2302</name>
            </trkpt>
            <trkpt lat="49.8710592" lon="10.1764544">
                <ele>194.0</ele>
                <time>2020-08-23T08:48:44.000Z</time>
                <name>Trackpoint 2303</name>
            </trkpt>
            <trkpt lat="49.8710752" lon="10.1765536">
                <ele>194.0</ele>
                <time>2020-08-23T08:48:45.000Z</time>
                <name>Trackpoint 2304</name>
            </trkpt>
            <trkpt lat="49.8710912" lon="10.176648">
                <ele>194.0</ele>
                <time>2020-08-23T08:48:46.000Z</time>
                <name>Trackpoint 2305</name>
            </trkpt>
            <trkpt lat="49.8711104" lon="10.1767416">
                <ele>194.0</ele>
                <time>2020-08-23T08:48:47.000Z</time>
                <name>Trackpoint 2306</name>
            </trkpt>
            <trkpt lat="49.8711296" lon="10.1768376">
                <ele>194.0</ele>
                <time>2020-08-23T08:48:48.000Z</time>
                <name>Trackpoint 2307</name>
            </trkpt>
            <trkpt lat="49.8711424" lon="10.1769352">
                <ele>194.0</ele>
                <time>2020-08-23T08:48:49.000Z</time>
                <name>Trackpoint 2308</name>
            </trkpt>
            <trkpt lat="49.8711648" lon="10.1770296">
                <ele>194.0</ele>
                <time>2020-08-23T08:48:50.000Z</time>
                <name>Trackpoint 2309</name>
            </trkpt>
            <trkpt lat="49.8711808" lon="10.1771248">
                <ele>194.0</ele>
                <time>2020-08-23T08:48:51.000Z</time>
                <name>Trackpoint 2310</name>
            </trkpt>
            <trkpt lat="49.8711968" lon="10.1772272">
                <ele>194.0</ele>
                <time>2020-08-23T08:48:52.000Z</time>
                <name>Trackpoint 2311</name>
            </trkpt>
            <trkpt lat="49.8712128" lon="10.1773256">
                <ele>194.0</ele>
                <time>2020-08-23T08:48:53.000Z</time>
                <name>Trackpoint 2312</name>
            </trkpt>
            <trkpt lat="49.8712352" lon="10.1774184">
                <ele>194.0</ele>
                <time>2020-08-23T08:48:54.000Z</time>
                <name>Trackpoint 2313</name>
            </trkpt>
            <trkpt lat="49.8712512" lon="10.1775112">
                <ele>194.0</ele>
                <time>2020-08-23T08:48:55.000Z</time>
                <name>Trackpoint 2314</name>
            </trkpt>
            <trkpt lat="49.8712704" lon="10.1776088">
                <ele>194.0</ele>
                <time>2020-08-23T08:48:56.000Z</time>
                <name>Trackpoint 2315</name>
            </trkpt>
            <trkpt lat="49.8712896" lon="10.1777048">
                <ele>194.0</ele>
                <time>2020-08-23T08:48:57.000Z</time>
                <name>Trackpoint 2316</name>
            </trkpt>
            <trkpt lat="49.8713024" lon="10.1778024">
                <ele>194.0</ele>
                <time>2020-08-23T08:48:58.000Z</time>
                <name>Trackpoint 2317</name>
            </trkpt>
            <trkpt lat="49.8713152" lon="10.1779">
                <ele>194.0</ele>
                <time>2020-08-23T08:48:59.000Z</time>
                <name>Trackpoint 2318</name>
            </trkpt>
            <trkpt lat="49.8713312" lon="10.1779984">
                <ele>194.0</ele>
                <time>2020-08-23T08:49:00.000Z</time>
                <name>Trackpoint 2319</name>
            </trkpt>
            <trkpt lat="49.8713504" lon="10.1780952">
                <ele>194.0</ele>
                <time>2020-08-23T08:49:01.000Z</time>
                <name>Trackpoint 2320</name>
            </trkpt>
            <trkpt lat="49.8713696" lon="10.178192">
                <ele>194.0</ele>
                <time>2020-08-23T08:49:02.000Z</time>
                <name>Trackpoint 2321</name>
            </trkpt>
            <trkpt lat="49.871392" lon="10.1782848">
                <ele>194.0</ele>
                <time>2020-08-23T08:49:03.000Z</time>
                <name>Trackpoint 2322</name>
            </trkpt>
            <trkpt lat="49.8714112" lon="10.1783752">
                <ele>195.0</ele>
                <time>2020-08-23T08:49:04.000Z</time>
                <name>Trackpoint 2323</name>
            </trkpt>
            <trkpt lat="49.8714336" lon="10.1784736">
                <ele>195.0</ele>
                <time>2020-08-23T08:49:05.000Z</time>
                <name>Trackpoint 2324</name>
            </trkpt>
            <trkpt lat="49.8714592" lon="10.1785672">
                <ele>195.0</ele>
                <time>2020-08-23T08:49:06.000Z</time>
                <name>Trackpoint 2325</name>
            </trkpt>
            <trkpt lat="49.8714912" lon="10.1786584">
                <ele>195.0</ele>
                <time>2020-08-23T08:49:07.000Z</time>
                <name>Trackpoint 2326</name>
            </trkpt>
            <trkpt lat="49.8715168" lon="10.178748">
                <ele>195.0</ele>
                <time>2020-08-23T08:49:08.000Z</time>
                <name>Trackpoint 2327</name>
            </trkpt>
            <trkpt lat="49.871552" lon="10.1788368">
                <ele>195.0</ele>
                <time>2020-08-23T08:49:09.000Z</time>
                <name>Trackpoint 2328</name>
            </trkpt>
            <trkpt lat="49.8715808" lon="10.1789248">
                <ele>195.0</ele>
                <time>2020-08-23T08:49:10.000Z</time>
                <name>Trackpoint 2329</name>
            </trkpt>
            <trkpt lat="49.8716128" lon="10.1790112">
                <ele>195.0</ele>
                <time>2020-08-23T08:49:11.000Z</time>
                <name>Trackpoint 2330</name>
            </trkpt>
            <trkpt lat="49.8716416" lon="10.1791">
                <ele>195.0</ele>
                <time>2020-08-23T08:49:12.000Z</time>
                <name>Trackpoint 2331</name>
            </trkpt>
            <trkpt lat="49.8716704" lon="10.1791888">
                <ele>195.0</ele>
                <time>2020-08-23T08:49:13.000Z</time>
                <name>Trackpoint 2332</name>
            </trkpt>
            <trkpt lat="49.8717312" lon="10.17936">
                <ele>194.0</ele>
                <time>2020-08-23T08:49:15.000Z</time>
                <name>Trackpoint 2333</name>
            </trkpt>
            <trkpt lat="49.87176" lon="10.1794456">
                <ele>194.0</ele>
                <time>2020-08-23T08:49:16.000Z</time>
                <name>Trackpoint 2334</name>
            </trkpt>
            <trkpt lat="49.8718176" lon="10.1796104">
                <ele>195.0</ele>
                <time>2020-08-23T08:49:18.000Z</time>
                <name>Trackpoint 2335</name>
            </trkpt>
            <trkpt lat="49.8718784" lon="10.179776">
                <ele>195.0</ele>
                <time>2020-08-23T08:49:20.000Z</time>
                <name>Trackpoint 2336</name>
            </trkpt>
            <trkpt lat="49.8719104" lon="10.1798664">
                <ele>195.0</ele>
                <time>2020-08-23T08:49:21.000Z</time>
                <name>Trackpoint 2337</name>
            </trkpt>
            <trkpt lat="49.871968" lon="10.1800296">
                <ele>195.0</ele>
                <time>2020-08-23T08:49:23.000Z</time>
                <name>Trackpoint 2338</name>
            </trkpt>
            <trkpt lat="49.8720192" lon="10.1801792">
                <ele>195.0</ele>
                <time>2020-08-23T08:49:25.000Z</time>
                <name>Trackpoint 2339</name>
            </trkpt>
            <trkpt lat="49.8720736" lon="10.1803304">
                <ele>195.0</ele>
                <time>2020-08-23T08:49:27.000Z</time>
                <name>Trackpoint 2340</name>
            </trkpt>
            <trkpt lat="49.8721312" lon="10.1804768">
                <ele>195.0</ele>
                <time>2020-08-23T08:49:29.000Z</time>
                <name>Trackpoint 2341</name>
            </trkpt>
            <trkpt lat="49.8721824" lon="10.1806232">
                <ele>195.0</ele>
                <time>2020-08-23T08:49:31.000Z</time>
                <name>Trackpoint 2342</name>
            </trkpt>
            <trkpt lat="49.8722304" lon="10.1807736">
                <ele>195.0</ele>
                <time>2020-08-23T08:49:33.000Z</time>
                <name>Trackpoint 2343</name>
            </trkpt>
            <trkpt lat="49.8722816" lon="10.1809328">
                <ele>195.0</ele>
                <time>2020-08-23T08:49:35.000Z</time>
                <name>Trackpoint 2344</name>
            </trkpt>
            <trkpt lat="49.8723232" lon="10.1811">
                <ele>195.0</ele>
                <time>2020-08-23T08:49:37.000Z</time>
                <name>Trackpoint 2345</name>
            </trkpt>
            <trkpt lat="49.8723456" lon="10.1811896">
                <ele>195.0</ele>
                <time>2020-08-23T08:49:38.000Z</time>
                <name>Trackpoint 2346</name>
            </trkpt>
            <trkpt lat="49.8723872" lon="10.1813608">
                <ele>196.0</ele>
                <time>2020-08-23T08:49:40.000Z</time>
                <name>Trackpoint 2347</name>
            </trkpt>
            <trkpt lat="49.8724288" lon="10.1815296">
                <ele>196.0</ele>
                <time>2020-08-23T08:49:42.000Z</time>
                <name>Trackpoint 2348</name>
            </trkpt>
            <trkpt lat="49.8724736" lon="10.1816928">
                <ele>196.0</ele>
                <time>2020-08-23T08:49:44.000Z</time>
                <name>Trackpoint 2349</name>
            </trkpt>
            <trkpt lat="49.8725216" lon="10.1818584">
                <ele>196.0</ele>
                <time>2020-08-23T08:49:46.000Z</time>
                <name>Trackpoint 2350</name>
            </trkpt>
            <trkpt lat="49.8725696" lon="10.1820336">
                <ele>195.0</ele>
                <time>2020-08-23T08:49:48.000Z</time>
                <name>Trackpoint 2351</name>
            </trkpt>
            <trkpt lat="49.8725952" lon="10.1821232">
                <ele>195.0</ele>
                <time>2020-08-23T08:49:49.000Z</time>
                <name>Trackpoint 2352</name>
            </trkpt>
            <trkpt lat="49.872624" lon="10.1822144">
                <ele>195.0</ele>
                <time>2020-08-23T08:49:50.000Z</time>
                <name>Trackpoint 2353</name>
            </trkpt>
            <trkpt lat="49.8726496" lon="10.1823064">
                <ele>195.0</ele>
                <time>2020-08-23T08:49:51.000Z</time>
                <name>Trackpoint 2354</name>
            </trkpt>
            <trkpt lat="49.8726784" lon="10.1823968">
                <ele>195.0</ele>
                <time>2020-08-23T08:49:52.000Z</time>
                <name>Trackpoint 2355</name>
            </trkpt>
            <trkpt lat="49.8727072" lon="10.1824864">
                <ele>195.0</ele>
                <time>2020-08-23T08:49:53.000Z</time>
                <name>Trackpoint 2356</name>
            </trkpt>
            <trkpt lat="49.8727392" lon="10.1825768">
                <ele>195.0</ele>
                <time>2020-08-23T08:49:54.000Z</time>
                <name>Trackpoint 2357</name>
            </trkpt>
            <trkpt lat="49.872768" lon="10.1826648">
                <ele>195.0</ele>
                <time>2020-08-23T08:49:55.000Z</time>
                <name>Trackpoint 2358</name>
            </trkpt>
            <trkpt lat="49.8727936" lon="10.1827552">
                <ele>195.0</ele>
                <time>2020-08-23T08:49:56.000Z</time>
                <name>Trackpoint 2359</name>
            </trkpt>
            <trkpt lat="49.8728224" lon="10.182848">
                <ele>195.0</ele>
                <time>2020-08-23T08:49:57.000Z</time>
                <name>Trackpoint 2360</name>
            </trkpt>
            <trkpt lat="49.872848" lon="10.1829368">
                <ele>195.0</ele>
                <time>2020-08-23T08:49:58.000Z</time>
                <name>Trackpoint 2361</name>
            </trkpt>
            <trkpt lat="49.8728768" lon="10.1830256">
                <ele>195.0</ele>
                <time>2020-08-23T08:49:59.000Z</time>
                <name>Trackpoint 2362</name>
            </trkpt>
            <trkpt lat="49.8729056" lon="10.1831128">
                <ele>194.0</ele>
                <time>2020-08-23T08:50:00.000Z</time>
                <name>Trackpoint 2363</name>
            </trkpt>
            <trkpt lat="49.8729312" lon="10.1832">
                <ele>194.0</ele>
                <time>2020-08-23T08:50:01.000Z</time>
                <name>Trackpoint 2364</name>
            </trkpt>
            <trkpt lat="49.8729856" lon="10.1833696">
                <ele>194.0</ele>
                <time>2020-08-23T08:50:03.000Z</time>
                <name>Trackpoint 2365</name>
            </trkpt>
            <trkpt lat="49.8730368" lon="10.183532">
                <ele>195.0</ele>
                <time>2020-08-23T08:50:05.000Z</time>
                <name>Trackpoint 2366</name>
            </trkpt>
            <trkpt lat="49.8730848" lon="10.183688">
                <ele>195.0</ele>
                <time>2020-08-23T08:50:07.000Z</time>
                <name>Trackpoint 2367</name>
            </trkpt>
            <trkpt lat="49.8731296" lon="10.183844">
                <ele>195.0</ele>
                <time>2020-08-23T08:50:09.000Z</time>
                <name>Trackpoint 2368</name>
            </trkpt>
            <trkpt lat="49.8731776" lon="10.1840016">
                <ele>195.0</ele>
                <time>2020-08-23T08:50:11.000Z</time>
                <name>Trackpoint 2369</name>
            </trkpt>
            <trkpt lat="49.8732256" lon="10.1841568">
                <ele>195.0</ele>
                <time>2020-08-23T08:50:13.000Z</time>
                <name>Trackpoint 2370</name>
            </trkpt>
            <trkpt lat="49.8732704" lon="10.1843144">
                <ele>194.0</ele>
                <time>2020-08-23T08:50:15.000Z</time>
                <name>Trackpoint 2371</name>
            </trkpt>
            <trkpt lat="49.8733216" lon="10.1844768">
                <ele>194.0</ele>
                <time>2020-08-23T08:50:17.000Z</time>
                <name>Trackpoint 2372</name>
            </trkpt>
            <trkpt lat="49.8733696" lon="10.1846384">
                <ele>194.0</ele>
                <time>2020-08-23T08:50:19.000Z</time>
                <name>Trackpoint 2373</name>
            </trkpt>
            <trkpt lat="49.8734208" lon="10.1847984">
                <ele>194.0</ele>
                <time>2020-08-23T08:50:21.000Z</time>
                <name>Trackpoint 2374</name>
            </trkpt>
            <trkpt lat="49.8734688" lon="10.1849568">
                <ele>194.0</ele>
                <time>2020-08-23T08:50:23.000Z</time>
                <name>Trackpoint 2375</name>
            </trkpt>
            <trkpt lat="49.87352" lon="10.1851168">
                <ele>194.0</ele>
                <time>2020-08-23T08:50:25.000Z</time>
                <name>Trackpoint 2376</name>
            </trkpt>
            <trkpt lat="49.8735648" lon="10.1852752">
                <ele>194.0</ele>
                <time>2020-08-23T08:50:27.000Z</time>
                <name>Trackpoint 2377</name>
            </trkpt>
            <trkpt lat="49.8736128" lon="10.1854384">
                <ele>194.0</ele>
                <time>2020-08-23T08:50:29.000Z</time>
                <name>Trackpoint 2378</name>
            </trkpt>
            <trkpt lat="49.8736608" lon="10.1856">
                <ele>194.0</ele>
                <time>2020-08-23T08:50:31.000Z</time>
                <name>Trackpoint 2379</name>
            </trkpt>
            <trkpt lat="49.8737056" lon="10.1857584">
                <ele>194.0</ele>
                <time>2020-08-23T08:50:33.000Z</time>
                <name>Trackpoint 2380</name>
            </trkpt>
            <trkpt lat="49.873744" lon="10.1859216">
                <ele>194.0</ele>
                <time>2020-08-23T08:50:35.000Z</time>
                <name>Trackpoint 2381</name>
            </trkpt>
            <trkpt lat="49.873792" lon="10.186084">
                <ele>194.0</ele>
                <time>2020-08-23T08:50:37.000Z</time>
                <name>Trackpoint 2382</name>
            </trkpt>
            <trkpt lat="49.8738368" lon="10.1862488">
                <ele>194.0</ele>
                <time>2020-08-23T08:50:39.000Z</time>
                <name>Trackpoint 2383</name>
            </trkpt>
            <trkpt lat="49.8738816" lon="10.186412">
                <ele>194.0</ele>
                <time>2020-08-23T08:50:41.000Z</time>
                <name>Trackpoint 2384</name>
            </trkpt>
            <trkpt lat="49.8739232" lon="10.1865784">
                <ele>194.0</ele>
                <time>2020-08-23T08:50:43.000Z</time>
                <name>Trackpoint 2385</name>
            </trkpt>
            <trkpt lat="49.8739712" lon="10.186744">
                <ele>194.0</ele>
                <time>2020-08-23T08:50:45.000Z</time>
                <name>Trackpoint 2386</name>
            </trkpt>
            <trkpt lat="49.8740096" lon="10.1869088">
                <ele>194.0</ele>
                <time>2020-08-23T08:50:47.000Z</time>
                <name>Trackpoint 2387</name>
            </trkpt>
            <trkpt lat="49.8740288" lon="10.1869968">
                <ele>194.0</ele>
                <time>2020-08-23T08:50:48.000Z</time>
                <name>Trackpoint 2388</name>
            </trkpt>
            <trkpt lat="49.8740608" lon="10.1871632">
                <ele>194.0</ele>
                <time>2020-08-23T08:50:50.000Z</time>
                <name>Trackpoint 2389</name>
            </trkpt>
            <trkpt lat="49.8740928" lon="10.187328">
                <ele>195.0</ele>
                <time>2020-08-23T08:50:52.000Z</time>
                <name>Trackpoint 2390</name>
            </trkpt>
            <trkpt lat="49.874128" lon="10.1874904">
                <ele>194.0</ele>
                <time>2020-08-23T08:50:54.000Z</time>
                <name>Trackpoint 2391</name>
            </trkpt>
            <trkpt lat="49.8741568" lon="10.1876624">
                <ele>194.0</ele>
                <time>2020-08-23T08:50:56.000Z</time>
                <name>Trackpoint 2392</name>
            </trkpt>
            <trkpt lat="49.8741952" lon="10.1878296">
                <ele>194.0</ele>
                <time>2020-08-23T08:50:58.000Z</time>
                <name>Trackpoint 2393</name>
            </trkpt>
            <trkpt lat="49.8742304" lon="10.1880032">
                <ele>194.0</ele>
                <time>2020-08-23T08:51:00.000Z</time>
                <name>Trackpoint 2394</name>
            </trkpt>
            <trkpt lat="49.874256" lon="10.1881784">
                <ele>194.0</ele>
                <time>2020-08-23T08:51:02.000Z</time>
                <name>Trackpoint 2395</name>
            </trkpt>
            <trkpt lat="49.8742784" lon="10.1883552">
                <ele>194.0</ele>
                <time>2020-08-23T08:51:04.000Z</time>
                <name>Trackpoint 2396</name>
            </trkpt>
            <trkpt lat="49.8742912" lon="10.188452">
                <ele>194.0</ele>
                <time>2020-08-23T08:51:05.000Z</time>
                <name>Trackpoint 2397</name>
            </trkpt>
            <trkpt lat="49.8742976" lon="10.188548">
                <ele>194.0</ele>
                <time>2020-08-23T08:51:06.000Z</time>
                <name>Trackpoint 2398</name>
            </trkpt>
            <trkpt lat="49.8743104" lon="10.1886384">
                <ele>194.0</ele>
                <time>2020-08-23T08:51:07.000Z</time>
                <name>Trackpoint 2399</name>
            </trkpt>
            <trkpt lat="49.8743296" lon="10.188824">
                <ele>194.0</ele>
                <time>2020-08-23T08:51:09.000Z</time>
                <name>Trackpoint 2400</name>
            </trkpt>
            <trkpt lat="49.8743328" lon="10.1889312">
                <ele>194.0</ele>
                <time>2020-08-23T08:51:10.000Z</time>
                <name>Trackpoint 2401</name>
            </trkpt>
            <trkpt lat="49.8743392" lon="10.189032">
                <ele>194.0</ele>
                <time>2020-08-23T08:51:11.000Z</time>
                <name>Trackpoint 2402</name>
            </trkpt>
            <trkpt lat="49.8743392" lon="10.1891544">
                <ele>194.0</ele>
                <time>2020-08-23T08:51:12.000Z</time>
                <name>Trackpoint 2403</name>
            </trkpt>
            <trkpt lat="49.8743392" lon="10.1892544">
                <ele>194.0</ele>
                <time>2020-08-23T08:51:13.000Z</time>
                <name>Trackpoint 2404</name>
            </trkpt>
            <trkpt lat="49.8743488" lon="10.189352">
                <ele>194.0</ele>
                <time>2020-08-23T08:51:14.000Z</time>
                <name>Trackpoint 2405</name>
            </trkpt>
            <trkpt lat="49.874352" lon="10.1894512">
                <ele>194.0</ele>
                <time>2020-08-23T08:51:15.000Z</time>
                <name>Trackpoint 2406</name>
            </trkpt>
            <trkpt lat="49.874352" lon="10.1895512">
                <ele>194.0</ele>
                <time>2020-08-23T08:51:16.000Z</time>
                <name>Trackpoint 2407</name>
            </trkpt>
            <trkpt lat="49.874352" lon="10.1896536">
                <ele>194.0</ele>
                <time>2020-08-23T08:51:17.000Z</time>
                <name>Trackpoint 2408</name>
            </trkpt>
            <trkpt lat="49.874352" lon="10.1897552">
                <ele>194.0</ele>
                <time>2020-08-23T08:51:18.000Z</time>
                <name>Trackpoint 2409</name>
            </trkpt>
            <trkpt lat="49.874352" lon="10.1898544">
                <ele>194.0</ele>
                <time>2020-08-23T08:51:19.000Z</time>
                <name>Trackpoint 2410</name>
            </trkpt>
            <trkpt lat="49.874352" lon="10.1899544">
                <ele>194.0</ele>
                <time>2020-08-23T08:51:20.000Z</time>
                <name>Trackpoint 2411</name>
            </trkpt>
            <trkpt lat="49.8743488" lon="10.1900552">
                <ele>194.0</ele>
                <time>2020-08-23T08:51:21.000Z</time>
                <name>Trackpoint 2412</name>
            </trkpt>
            <trkpt lat="49.8743424" lon="10.1901552">
                <ele>194.0</ele>
                <time>2020-08-23T08:51:22.000Z</time>
                <name>Trackpoint 2413</name>
            </trkpt>
            <trkpt lat="49.8743424" lon="10.1902552">
                <ele>194.0</ele>
                <time>2020-08-23T08:51:23.000Z</time>
                <name>Trackpoint 2414</name>
            </trkpt>
            <trkpt lat="49.8743392" lon="10.1903536">
                <ele>194.0</ele>
                <time>2020-08-23T08:51:24.000Z</time>
                <name>Trackpoint 2415</name>
            </trkpt>
            <trkpt lat="49.8743392" lon="10.1904496">
                <ele>194.0</ele>
                <time>2020-08-23T08:51:25.000Z</time>
                <name>Trackpoint 2416</name>
            </trkpt>
            <trkpt lat="49.8743424" lon="10.1905416">
                <ele>194.0</ele>
                <time>2020-08-23T08:51:26.000Z</time>
                <name>Trackpoint 2417</name>
            </trkpt>
            <trkpt lat="49.8743424" lon="10.190708">
                <ele>194.0</ele>
                <time>2020-08-23T08:51:28.000Z</time>
                <name>Trackpoint 2418</name>
            </trkpt>
            <trkpt lat="49.8743328" lon="10.1908728">
                <ele>194.0</ele>
                <time>2020-08-23T08:51:30.000Z</time>
                <name>Trackpoint 2419</name>
            </trkpt>
            <trkpt lat="49.8743136" lon="10.1909704">
                <ele>194.0</ele>
                <time>2020-08-23T08:51:31.000Z</time>
                <name>Trackpoint 2420</name>
            </trkpt>
            <trkpt lat="49.8742976" lon="10.1910696">
                <ele>194.0</ele>
                <time>2020-08-23T08:51:32.000Z</time>
                <name>Trackpoint 2421</name>
            </trkpt>
            <trkpt lat="49.8742784" lon="10.1911688">
                <ele>194.0</ele>
                <time>2020-08-23T08:51:33.000Z</time>
                <name>Trackpoint 2422</name>
            </trkpt>
            <trkpt lat="49.8742624" lon="10.1912696">
                <ele>194.0</ele>
                <time>2020-08-23T08:51:34.000Z</time>
                <name>Trackpoint 2423</name>
            </trkpt>
            <trkpt lat="49.8742528" lon="10.191372">
                <ele>194.0</ele>
                <time>2020-08-23T08:51:35.000Z</time>
                <name>Trackpoint 2424</name>
            </trkpt>
            <trkpt lat="49.87424" lon="10.191472">
                <ele>194.0</ele>
                <time>2020-08-23T08:51:36.000Z</time>
                <name>Trackpoint 2425</name>
            </trkpt>
            <trkpt lat="49.8742368" lon="10.1915704">
                <ele>194.0</ele>
                <time>2020-08-23T08:51:37.000Z</time>
                <name>Trackpoint 2426</name>
            </trkpt>
            <trkpt lat="49.8742336" lon="10.1916648">
                <ele>194.0</ele>
                <time>2020-08-23T08:51:38.000Z</time>
                <name>Trackpoint 2427</name>
            </trkpt>
            <trkpt lat="49.8742432" lon="10.1918336">
                <ele>194.0</ele>
                <time>2020-08-23T08:51:40.000Z</time>
                <name>Trackpoint 2428</name>
            </trkpt>
            <trkpt lat="49.874256" lon="10.192">
                <ele>194.0</ele>
                <time>2020-08-23T08:51:42.000Z</time>
                <name>Trackpoint 2429</name>
            </trkpt>
            <trkpt lat="49.874256" lon="10.192092">
                <ele>193.0</ele>
                <time>2020-08-23T08:51:43.000Z</time>
                <name>Trackpoint 2430</name>
            </trkpt>
            <trkpt lat="49.874256" lon="10.1921904">
                <ele>193.0</ele>
                <time>2020-08-23T08:51:44.000Z</time>
                <name>Trackpoint 2431</name>
            </trkpt>
            <trkpt lat="49.8742592" lon="10.1922904">
                <ele>193.0</ele>
                <time>2020-08-23T08:51:45.000Z</time>
                <name>Trackpoint 2432</name>
            </trkpt>
            <trkpt lat="49.8742688" lon="10.1923912">
                <ele>193.0</ele>
                <time>2020-08-23T08:51:46.000Z</time>
                <name>Trackpoint 2433</name>
            </trkpt>
            <trkpt lat="49.8742752" lon="10.1924888">
                <ele>193.0</ele>
                <time>2020-08-23T08:51:47.000Z</time>
                <name>Trackpoint 2434</name>
            </trkpt>
            <trkpt lat="49.874288" lon="10.1925824">
                <ele>193.0</ele>
                <time>2020-08-23T08:51:48.000Z</time>
                <name>Trackpoint 2435</name>
            </trkpt>
            <trkpt lat="49.8742976" lon="10.1926768">
                <ele>193.0</ele>
                <time>2020-08-23T08:51:49.000Z</time>
                <name>Trackpoint 2436</name>
            </trkpt>
            <trkpt lat="49.8743104" lon="10.1927728">
                <ele>193.0</ele>
                <time>2020-08-23T08:51:50.000Z</time>
                <name>Trackpoint 2437</name>
            </trkpt>
            <trkpt lat="49.8743168" lon="10.192868">
                <ele>193.0</ele>
                <time>2020-08-23T08:51:51.000Z</time>
                <name>Trackpoint 2438</name>
            </trkpt>
            <trkpt lat="49.8743296" lon="10.192964">
                <ele>193.0</ele>
                <time>2020-08-23T08:51:52.000Z</time>
                <name>Trackpoint 2439</name>
            </trkpt>
            <trkpt lat="49.874336" lon="10.19306">
                <ele>193.0</ele>
                <time>2020-08-23T08:51:53.000Z</time>
                <name>Trackpoint 2440</name>
            </trkpt>
            <trkpt lat="49.8743488" lon="10.1931552">
                <ele>193.0</ele>
                <time>2020-08-23T08:51:54.000Z</time>
                <name>Trackpoint 2441</name>
            </trkpt>
            <trkpt lat="49.8743584" lon="10.1932488">
                <ele>193.0</ele>
                <time>2020-08-23T08:51:55.000Z</time>
                <name>Trackpoint 2442</name>
            </trkpt>
            <trkpt lat="49.874368" lon="10.19334">
                <ele>193.0</ele>
                <time>2020-08-23T08:51:56.000Z</time>
                <name>Trackpoint 2443</name>
            </trkpt>
            <trkpt lat="49.8743776" lon="10.193432">
                <ele>193.0</ele>
                <time>2020-08-23T08:51:57.000Z</time>
                <name>Trackpoint 2444</name>
            </trkpt>
            <trkpt lat="49.8743872" lon="10.1935216">
                <ele>193.0</ele>
                <time>2020-08-23T08:51:58.000Z</time>
                <name>Trackpoint 2445</name>
            </trkpt>
            <trkpt lat="49.8743936" lon="10.193612">
                <ele>193.0</ele>
                <time>2020-08-23T08:51:59.000Z</time>
                <name>Trackpoint 2446</name>
            </trkpt>
            <trkpt lat="49.8744064" lon="10.193704">
                <ele>193.0</ele>
                <time>2020-08-23T08:52:00.000Z</time>
                <name>Trackpoint 2447</name>
            </trkpt>
            <trkpt lat="49.874416" lon="10.1937968">
                <ele>193.0</ele>
                <time>2020-08-23T08:52:01.000Z</time>
                <name>Trackpoint 2448</name>
            </trkpt>
            <trkpt lat="49.8744288" lon="10.1938912">
                <ele>193.0</ele>
                <time>2020-08-23T08:52:02.000Z</time>
                <name>Trackpoint 2449</name>
            </trkpt>
            <trkpt lat="49.8744384" lon="10.1939832">
                <ele>193.0</ele>
                <time>2020-08-23T08:52:03.000Z</time>
                <name>Trackpoint 2450</name>
            </trkpt>
            <trkpt lat="49.8744544" lon="10.1940768">
                <ele>193.0</ele>
                <time>2020-08-23T08:52:04.000Z</time>
                <name>Trackpoint 2451</name>
            </trkpt>
            <trkpt lat="49.8744736" lon="10.194168">
                <ele>193.0</ele>
                <time>2020-08-23T08:52:05.000Z</time>
                <name>Trackpoint 2452</name>
            </trkpt>
            <trkpt lat="49.874496" lon="10.1942552">
                <ele>193.0</ele>
                <time>2020-08-23T08:52:06.000Z</time>
                <name>Trackpoint 2453</name>
            </trkpt>
            <trkpt lat="49.8745376" lon="10.1944216">
                <ele>193.0</ele>
                <time>2020-08-23T08:52:08.000Z</time>
                <name>Trackpoint 2454</name>
            </trkpt>
            <trkpt lat="49.8745408" lon="10.194596">
                <ele>193.0</ele>
                <time>2020-08-23T08:52:10.000Z</time>
                <name>Trackpoint 2455</name>
            </trkpt>
            <trkpt lat="49.8745376" lon="10.1946896">
                <ele>193.0</ele>
                <time>2020-08-23T08:52:11.000Z</time>
                <name>Trackpoint 2456</name>
            </trkpt>
            <trkpt lat="49.8745376" lon="10.1947872">
                <ele>193.0</ele>
                <time>2020-08-23T08:52:12.000Z</time>
                <name>Trackpoint 2457</name>
            </trkpt>
            <trkpt lat="49.8745472" lon="10.1948816">
                <ele>193.0</ele>
                <time>2020-08-23T08:52:13.000Z</time>
                <name>Trackpoint 2458</name>
            </trkpt>
            <trkpt lat="49.8745568" lon="10.1949768">
                <ele>193.0</ele>
                <time>2020-08-23T08:52:14.000Z</time>
                <name>Trackpoint 2459</name>
            </trkpt>
            <trkpt lat="49.8745696" lon="10.1950704">
                <ele>193.0</ele>
                <time>2020-08-23T08:52:15.000Z</time>
                <name>Trackpoint 2460</name>
            </trkpt>
            <trkpt lat="49.874576" lon="10.1951616">
                <ele>193.0</ele>
                <time>2020-08-23T08:52:16.000Z</time>
                <name>Trackpoint 2461</name>
            </trkpt>
            <trkpt lat="49.8745888" lon="10.1952552">
                <ele>193.0</ele>
                <time>2020-08-23T08:52:17.000Z</time>
                <name>Trackpoint 2462</name>
            </trkpt>
            <trkpt lat="49.8745984" lon="10.1953448">
                <ele>193.0</ele>
                <time>2020-08-23T08:52:18.000Z</time>
                <name>Trackpoint 2463</name>
            </trkpt>
            <trkpt lat="49.8746112" lon="10.1954368">
                <ele>193.0</ele>
                <time>2020-08-23T08:52:19.000Z</time>
                <name>Trackpoint 2464</name>
            </trkpt>
            <trkpt lat="49.8746176" lon="10.1955296">
                <ele>193.0</ele>
                <time>2020-08-23T08:52:20.000Z</time>
                <name>Trackpoint 2465</name>
            </trkpt>
            <trkpt lat="49.8746304" lon="10.1956216">
                <ele>193.0</ele>
                <time>2020-08-23T08:52:21.000Z</time>
                <name>Trackpoint 2466</name>
            </trkpt>
            <trkpt lat="49.8746368" lon="10.1957168">
                <ele>193.0</ele>
                <time>2020-08-23T08:52:22.000Z</time>
                <name>Trackpoint 2467</name>
            </trkpt>
            <trkpt lat="49.8746496" lon="10.1958104">
                <ele>193.0</ele>
                <time>2020-08-23T08:52:23.000Z</time>
                <name>Trackpoint 2468</name>
            </trkpt>
            <trkpt lat="49.874656" lon="10.1959048">
                <ele>193.0</ele>
                <time>2020-08-23T08:52:24.000Z</time>
                <name>Trackpoint 2469</name>
            </trkpt>
            <trkpt lat="49.8746688" lon="10.195996">
                <ele>193.0</ele>
                <time>2020-08-23T08:52:25.000Z</time>
                <name>Trackpoint 2470</name>
            </trkpt>
            <trkpt lat="49.8746784" lon="10.1960888">
                <ele>193.0</ele>
                <time>2020-08-23T08:52:26.000Z</time>
                <name>Trackpoint 2471</name>
            </trkpt>
            <trkpt lat="49.8746912" lon="10.1961784">
                <ele>193.0</ele>
                <time>2020-08-23T08:52:27.000Z</time>
                <name>Trackpoint 2472</name>
            </trkpt>
            <trkpt lat="49.8746976" lon="10.196272">
                <ele>193.0</ele>
                <time>2020-08-23T08:52:28.000Z</time>
                <name>Trackpoint 2473</name>
            </trkpt>
            <trkpt lat="49.8747104" lon="10.1963632">
                <ele>193.0</ele>
                <time>2020-08-23T08:52:29.000Z</time>
                <name>Trackpoint 2474</name>
            </trkpt>
            <trkpt lat="49.87472" lon="10.1964528">
                <ele>193.0</ele>
                <time>2020-08-23T08:52:30.000Z</time>
                <name>Trackpoint 2475</name>
            </trkpt>
            <trkpt lat="49.8747328" lon="10.196544">
                <ele>193.0</ele>
                <time>2020-08-23T08:52:31.000Z</time>
                <name>Trackpoint 2476</name>
            </trkpt>
            <trkpt lat="49.8747456" lon="10.196636">
                <ele>193.0</ele>
                <time>2020-08-23T08:52:32.000Z</time>
                <name>Trackpoint 2477</name>
            </trkpt>
            <trkpt lat="49.874752" lon="10.1967312">
                <ele>193.0</ele>
                <time>2020-08-23T08:52:33.000Z</time>
                <name>Trackpoint 2478</name>
            </trkpt>
            <trkpt lat="49.8747584" lon="10.1968272">
                <ele>193.0</ele>
                <time>2020-08-23T08:52:34.000Z</time>
                <name>Trackpoint 2479</name>
            </trkpt>
            <trkpt lat="49.874768" lon="10.1969216">
                <ele>193.0</ele>
                <time>2020-08-23T08:52:35.000Z</time>
                <name>Trackpoint 2480</name>
            </trkpt>
            <trkpt lat="49.8747744" lon="10.1970168">
                <ele>193.0</ele>
                <time>2020-08-23T08:52:36.000Z</time>
                <name>Trackpoint 2481</name>
            </trkpt>
            <trkpt lat="49.8747872" lon="10.1971152">
                <ele>193.0</ele>
                <time>2020-08-23T08:52:37.000Z</time>
                <name>Trackpoint 2482</name>
            </trkpt>
            <trkpt lat="49.8747904" lon="10.1972128">
                <ele>193.0</ele>
                <time>2020-08-23T08:52:38.000Z</time>
                <name>Trackpoint 2483</name>
            </trkpt>
            <trkpt lat="49.8747968" lon="10.1973104">
                <ele>193.0</ele>
                <time>2020-08-23T08:52:39.000Z</time>
                <name>Trackpoint 2484</name>
            </trkpt>
            <trkpt lat="49.8748064" lon="10.1974048">
                <ele>193.0</ele>
                <time>2020-08-23T08:52:40.000Z</time>
                <name>Trackpoint 2485</name>
            </trkpt>
            <trkpt lat="49.874816" lon="10.1975">
                <ele>193.0</ele>
                <time>2020-08-23T08:52:41.000Z</time>
                <name>Trackpoint 2486</name>
            </trkpt>
            <trkpt lat="49.8748256" lon="10.1975944">
                <ele>193.0</ele>
                <time>2020-08-23T08:52:42.000Z</time>
                <name>Trackpoint 2487</name>
            </trkpt>
            <trkpt lat="49.874832" lon="10.197688">
                <ele>193.0</ele>
                <time>2020-08-23T08:52:43.000Z</time>
                <name>Trackpoint 2488</name>
            </trkpt>
            <trkpt lat="49.8748352" lon="10.1977864">
                <ele>193.0</ele>
                <time>2020-08-23T08:52:44.000Z</time>
                <name>Trackpoint 2489</name>
            </trkpt>
            <trkpt lat="49.8748448" lon="10.197884">
                <ele>193.0</ele>
                <time>2020-08-23T08:52:45.000Z</time>
                <name>Trackpoint 2490</name>
            </trkpt>
            <trkpt lat="49.8748512" lon="10.1979784">
                <ele>193.0</ele>
                <time>2020-08-23T08:52:46.000Z</time>
                <name>Trackpoint 2491</name>
            </trkpt>
            <trkpt lat="49.8748576" lon="10.1980736">
                <ele>193.0</ele>
                <time>2020-08-23T08:52:47.000Z</time>
                <name>Trackpoint 2492</name>
            </trkpt>
            <trkpt lat="49.8748672" lon="10.1981736">
                <ele>193.0</ele>
                <time>2020-08-23T08:52:48.000Z</time>
                <name>Trackpoint 2493</name>
            </trkpt>
            <trkpt lat="49.8748704" lon="10.198272">
                <ele>193.0</ele>
                <time>2020-08-23T08:52:49.000Z</time>
                <name>Trackpoint 2494</name>
            </trkpt>
            <trkpt lat="49.8748832" lon="10.198372">
                <ele>193.0</ele>
                <time>2020-08-23T08:52:50.000Z</time>
                <name>Trackpoint 2495</name>
            </trkpt>
            <trkpt lat="49.8748896" lon="10.1984768">
                <ele>193.0</ele>
                <time>2020-08-23T08:52:51.000Z</time>
                <name>Trackpoint 2496</name>
            </trkpt>
            <trkpt lat="49.8748928" lon="10.1985816">
                <ele>193.0</ele>
                <time>2020-08-23T08:52:52.000Z</time>
                <name>Trackpoint 2497</name>
            </trkpt>
            <trkpt lat="49.8749056" lon="10.1986888">
                <ele>193.0</ele>
                <time>2020-08-23T08:52:53.000Z</time>
                <name>Trackpoint 2498</name>
            </trkpt>
            <trkpt lat="49.874912" lon="10.1987952">
                <ele>193.0</ele>
                <time>2020-08-23T08:52:54.000Z</time>
                <name>Trackpoint 2499</name>
            </trkpt>
            <trkpt lat="49.8749184" lon="10.1989">
                <ele>193.0</ele>
                <time>2020-08-23T08:52:55.000Z</time>
                <name>Trackpoint 2500</name>
            </trkpt>
            <trkpt lat="49.8749344" lon="10.1990032">
                <ele>193.0</ele>
                <time>2020-08-23T08:52:56.000Z</time>
                <name>Trackpoint 2501</name>
            </trkpt>
            <trkpt lat="49.8749536" lon="10.1990984">
                <ele>194.0</ele>
                <time>2020-08-23T08:52:57.000Z</time>
                <name>Trackpoint 2502</name>
            </trkpt>
            <trkpt lat="49.8749696" lon="10.1991952">
                <ele>194.0</ele>
                <time>2020-08-23T08:52:58.000Z</time>
                <name>Trackpoint 2503</name>
            </trkpt>
            <trkpt lat="49.874976" lon="10.1992912">
                <ele>194.0</ele>
                <time>2020-08-23T08:52:59.000Z</time>
                <name>Trackpoint 2504</name>
            </trkpt>
            <trkpt lat="49.874976" lon="10.1993936">
                <ele>193.0</ele>
                <time>2020-08-23T08:53:00.000Z</time>
                <name>Trackpoint 2505</name>
            </trkpt>
            <trkpt lat="49.874976" lon="10.199496">
                <ele>193.0</ele>
                <time>2020-08-23T08:53:01.000Z</time>
                <name>Trackpoint 2506</name>
            </trkpt>
            <trkpt lat="49.8749824" lon="10.1996">
                <ele>193.0</ele>
                <time>2020-08-23T08:53:02.000Z</time>
                <name>Trackpoint 2507</name>
            </trkpt>
            <trkpt lat="49.8749888" lon="10.1997016">
                <ele>193.0</ele>
                <time>2020-08-23T08:53:03.000Z</time>
                <name>Trackpoint 2508</name>
            </trkpt>
            <trkpt lat="49.8749888" lon="10.1998064">
                <ele>193.0</ele>
                <time>2020-08-23T08:53:04.000Z</time>
                <name>Trackpoint 2509</name>
            </trkpt>
            <trkpt lat="49.8749952" lon="10.199912">
                <ele>193.0</ele>
                <time>2020-08-23T08:53:05.000Z</time>
                <name>Trackpoint 2510</name>
            </trkpt>
            <trkpt lat="49.8750016" lon="10.2000152">
                <ele>194.0</ele>
                <time>2020-08-23T08:53:06.000Z</time>
                <name>Trackpoint 2511</name>
            </trkpt>
            <trkpt lat="49.8750016" lon="10.2001184">
                <ele>194.0</ele>
                <time>2020-08-23T08:53:07.000Z</time>
                <name>Trackpoint 2512</name>
            </trkpt>
            <trkpt lat="49.8750016" lon="10.2002184">
                <ele>193.0</ele>
                <time>2020-08-23T08:53:08.000Z</time>
                <name>Trackpoint 2513</name>
            </trkpt>
            <trkpt lat="49.8750112" lon="10.2003168">
                <ele>194.0</ele>
                <time>2020-08-23T08:53:09.000Z</time>
                <name>Trackpoint 2514</name>
            </trkpt>
            <trkpt lat="49.875024" lon="10.200408">
                <ele>194.0</ele>
                <time>2020-08-23T08:53:10.000Z</time>
                <name>Trackpoint 2515</name>
            </trkpt>
            <trkpt lat="49.8750336" lon="10.20058">
                <ele>194.0</ele>
                <time>2020-08-23T08:53:12.000Z</time>
                <name>Trackpoint 2516</name>
            </trkpt>
            <trkpt lat="49.875024" lon="10.2007568">
                <ele>194.0</ele>
                <time>2020-08-23T08:53:14.000Z</time>
                <name>Trackpoint 2517</name>
            </trkpt>
            <trkpt lat="49.8750144" lon="10.2008512">
                <ele>194.0</ele>
                <time>2020-08-23T08:53:15.000Z</time>
                <name>Trackpoint 2518</name>
            </trkpt>
            <trkpt lat="49.8750112" lon="10.2009488">
                <ele>194.0</ele>
                <time>2020-08-23T08:53:16.000Z</time>
                <name>Trackpoint 2519</name>
            </trkpt>
            <trkpt lat="49.8750112" lon="10.2010448">
                <ele>194.0</ele>
                <time>2020-08-23T08:53:17.000Z</time>
                <name>Trackpoint 2520</name>
            </trkpt>
            <trkpt lat="49.875008" lon="10.2011432">
                <ele>194.0</ele>
                <time>2020-08-23T08:53:18.000Z</time>
                <name>Trackpoint 2521</name>
            </trkpt>
            <trkpt lat="49.875008" lon="10.2012416">
                <ele>194.0</ele>
                <time>2020-08-23T08:53:19.000Z</time>
                <name>Trackpoint 2522</name>
            </trkpt>
            <trkpt lat="49.8750048" lon="10.2013416">
                <ele>194.0</ele>
                <time>2020-08-23T08:53:20.000Z</time>
                <name>Trackpoint 2523</name>
            </trkpt>
            <trkpt lat="49.8750016" lon="10.2014416">
                <ele>194.0</ele>
                <time>2020-08-23T08:53:21.000Z</time>
                <name>Trackpoint 2524</name>
            </trkpt>
            <trkpt lat="49.8749952" lon="10.2015416">
                <ele>194.0</ele>
                <time>2020-08-23T08:53:22.000Z</time>
                <name>Trackpoint 2525</name>
            </trkpt>
            <trkpt lat="49.874992" lon="10.2016424">
                <ele>194.0</ele>
                <time>2020-08-23T08:53:23.000Z</time>
                <name>Trackpoint 2526</name>
            </trkpt>
            <trkpt lat="49.8749856" lon="10.20174">
                <ele>194.0</ele>
                <time>2020-08-23T08:53:24.000Z</time>
                <name>Trackpoint 2527</name>
            </trkpt>
            <trkpt lat="49.8749728" lon="10.2018344">
                <ele>194.0</ele>
                <time>2020-08-23T08:53:25.000Z</time>
                <name>Trackpoint 2528</name>
            </trkpt>
            <trkpt lat="49.8749696" lon="10.2019328">
                <ele>194.0</ele>
                <time>2020-08-23T08:53:26.000Z</time>
                <name>Trackpoint 2529</name>
            </trkpt>
            <trkpt lat="49.8749632" lon="10.202032">
                <ele>194.0</ele>
                <time>2020-08-23T08:53:27.000Z</time>
                <name>Trackpoint 2530</name>
            </trkpt>
            <trkpt lat="49.8749568" lon="10.2021288">
                <ele>194.0</ele>
                <time>2020-08-23T08:53:28.000Z</time>
                <name>Trackpoint 2531</name>
            </trkpt>
            <trkpt lat="49.8749504" lon="10.2022288">
                <ele>193.0</ele>
                <time>2020-08-23T08:53:29.000Z</time>
                <name>Trackpoint 2532</name>
            </trkpt>
            <trkpt lat="49.8749472" lon="10.2023288">
                <ele>193.0</ele>
                <time>2020-08-23T08:53:30.000Z</time>
                <name>Trackpoint 2533</name>
            </trkpt>
            <trkpt lat="49.8749472" lon="10.2024296">
                <ele>194.0</ele>
                <time>2020-08-23T08:53:31.000Z</time>
                <name>Trackpoint 2534</name>
            </trkpt>
            <trkpt lat="49.874944" lon="10.2025296">
                <ele>194.0</ele>
                <time>2020-08-23T08:53:32.000Z</time>
                <name>Trackpoint 2535</name>
            </trkpt>
            <trkpt lat="49.8749376" lon="10.202632">
                <ele>194.0</ele>
                <time>2020-08-23T08:53:33.000Z</time>
                <name>Trackpoint 2536</name>
            </trkpt>
            <trkpt lat="49.8749312" lon="10.202732">
                <ele>194.0</ele>
                <time>2020-08-23T08:53:34.000Z</time>
                <name>Trackpoint 2537</name>
            </trkpt>
            <trkpt lat="49.8749312" lon="10.2028312">
                <ele>194.0</ele>
                <time>2020-08-23T08:53:35.000Z</time>
                <name>Trackpoint 2538</name>
            </trkpt>
            <trkpt lat="49.8749248" lon="10.2029336">
                <ele>194.0</ele>
                <time>2020-08-23T08:53:36.000Z</time>
                <name>Trackpoint 2539</name>
            </trkpt>
            <trkpt lat="49.8749184" lon="10.2030352">
                <ele>194.0</ele>
                <time>2020-08-23T08:53:37.000Z</time>
                <name>Trackpoint 2540</name>
            </trkpt>
            <trkpt lat="49.8749152" lon="10.2031368">
                <ele>194.0</ele>
                <time>2020-08-23T08:53:38.000Z</time>
                <name>Trackpoint 2541</name>
            </trkpt>
            <trkpt lat="49.874912" lon="10.2032368">
                <ele>194.0</ele>
                <time>2020-08-23T08:53:39.000Z</time>
                <name>Trackpoint 2542</name>
            </trkpt>
            <trkpt lat="49.8749088" lon="10.2033368">
                <ele>194.0</ele>
                <time>2020-08-23T08:53:40.000Z</time>
                <name>Trackpoint 2543</name>
            </trkpt>
            <trkpt lat="49.8749024" lon="10.2034352">
                <ele>194.0</ele>
                <time>2020-08-23T08:53:41.000Z</time>
                <name>Trackpoint 2544</name>
            </trkpt>
            <trkpt lat="49.874896" lon="10.2035328">
                <ele>194.0</ele>
                <time>2020-08-23T08:53:42.000Z</time>
                <name>Trackpoint 2545</name>
            </trkpt>
            <trkpt lat="49.8748928" lon="10.2036336">
                <ele>194.0</ele>
                <time>2020-08-23T08:53:43.000Z</time>
                <name>Trackpoint 2546</name>
            </trkpt>
            <trkpt lat="49.8748928" lon="10.2037248">
                <ele>194.0</ele>
                <time>2020-08-23T08:53:44.000Z</time>
                <name>Trackpoint 2547</name>
            </trkpt>
            <trkpt lat="49.8748928" lon="10.2038168">
                <ele>194.0</ele>
                <time>2020-08-23T08:53:45.000Z</time>
                <name>Trackpoint 2548</name>
            </trkpt>
            <trkpt lat="49.8748864" lon="10.203912">
                <ele>194.0</ele>
                <time>2020-08-23T08:53:46.000Z</time>
                <name>Trackpoint 2549</name>
            </trkpt>
            <trkpt lat="49.8748864" lon="10.2040032">
                <ele>194.0</ele>
                <time>2020-08-23T08:53:47.000Z</time>
                <name>Trackpoint 2550</name>
            </trkpt>
            <trkpt lat="49.8748832" lon="10.2041816">
                <ele>194.0</ele>
                <time>2020-08-23T08:53:49.000Z</time>
                <name>Trackpoint 2551</name>
            </trkpt>
            <trkpt lat="49.8748832" lon="10.2043464">
                <ele>194.0</ele>
                <time>2020-08-23T08:53:51.000Z</time>
                <name>Trackpoint 2552</name>
            </trkpt>
            <trkpt lat="49.8748672" lon="10.2045248">
                <ele>193.0</ele>
                <time>2020-08-23T08:53:53.000Z</time>
                <name>Trackpoint 2553</name>
            </trkpt>
            <trkpt lat="49.874864" lon="10.2046232">
                <ele>193.0</ele>
                <time>2020-08-23T08:53:54.000Z</time>
                <name>Trackpoint 2554</name>
            </trkpt>
            <trkpt lat="49.8748544" lon="10.2047168">
                <ele>193.0</ele>
                <time>2020-08-23T08:53:55.000Z</time>
                <name>Trackpoint 2555</name>
            </trkpt>
            <trkpt lat="49.8748384" lon="10.2048256">
                <ele>193.0</ele>
                <time>2020-08-23T08:53:56.000Z</time>
                <name>Trackpoint 2556</name>
            </trkpt>
            <trkpt lat="49.874832" lon="10.2049216">
                <ele>193.0</ele>
                <time>2020-08-23T08:53:57.000Z</time>
                <name>Trackpoint 2557</name>
            </trkpt>
            <trkpt lat="49.8748256" lon="10.2050168">
                <ele>193.0</ele>
                <time>2020-08-23T08:53:58.000Z</time>
                <name>Trackpoint 2558</name>
            </trkpt>
            <trkpt lat="49.874816" lon="10.2051136">
                <ele>193.0</ele>
                <time>2020-08-23T08:53:59.000Z</time>
                <name>Trackpoint 2559</name>
            </trkpt>
            <trkpt lat="49.8748096" lon="10.2052072">
                <ele>194.0</ele>
                <time>2020-08-23T08:54:00.000Z</time>
                <name>Trackpoint 2560</name>
            </trkpt>
            <trkpt lat="49.8748032" lon="10.2052984">
                <ele>194.0</ele>
                <time>2020-08-23T08:54:01.000Z</time>
                <name>Trackpoint 2561</name>
            </trkpt>
            <trkpt lat="49.8747872" lon="10.2054784">
                <ele>194.0</ele>
                <time>2020-08-23T08:54:03.000Z</time>
                <name>Trackpoint 2562</name>
            </trkpt>
            <trkpt lat="49.874736" lon="10.2056504">
                <ele>194.0</ele>
                <time>2020-08-23T08:54:05.000Z</time>
                <name>Trackpoint 2563</name>
            </trkpt>
            <trkpt lat="49.8746848" lon="10.2058336">
                <ele>194.0</ele>
                <time>2020-08-23T08:54:07.000Z</time>
                <name>Trackpoint 2564</name>
            </trkpt>
            <trkpt lat="49.8746656" lon="10.2059296">
                <ele>194.0</ele>
                <time>2020-08-23T08:54:08.000Z</time>
                <name>Trackpoint 2565</name>
            </trkpt>
            <trkpt lat="49.8746528" lon="10.2060296">
                <ele>194.0</ele>
                <time>2020-08-23T08:54:09.000Z</time>
                <name>Trackpoint 2566</name>
            </trkpt>
            <trkpt lat="49.8746368" lon="10.206128">
                <ele>194.0</ele>
                <time>2020-08-23T08:54:10.000Z</time>
                <name>Trackpoint 2567</name>
            </trkpt>
            <trkpt lat="49.8746208" lon="10.2062256">
                <ele>194.0</ele>
                <time>2020-08-23T08:54:11.000Z</time>
                <name>Trackpoint 2568</name>
            </trkpt>
            <trkpt lat="49.8746112" lon="10.2063216">
                <ele>194.0</ele>
                <time>2020-08-23T08:54:12.000Z</time>
                <name>Trackpoint 2569</name>
            </trkpt>
            <trkpt lat="49.874592" lon="10.20642">
                <ele>194.0</ele>
                <time>2020-08-23T08:54:13.000Z</time>
                <name>Trackpoint 2570</name>
            </trkpt>
            <trkpt lat="49.874576" lon="10.2065152">
                <ele>194.0</ele>
                <time>2020-08-23T08:54:14.000Z</time>
                <name>Trackpoint 2571</name>
            </trkpt>
            <trkpt lat="49.87456" lon="10.2066088">
                <ele>193.0</ele>
                <time>2020-08-23T08:54:15.000Z</time>
                <name>Trackpoint 2572</name>
            </trkpt>
            <trkpt lat="49.8745472" lon="10.2067">
                <ele>193.0</ele>
                <time>2020-08-23T08:54:16.000Z</time>
                <name>Trackpoint 2573</name>
            </trkpt>
            <trkpt lat="49.8745344" lon="10.2067896">
                <ele>193.0</ele>
                <time>2020-08-23T08:54:17.000Z</time>
                <name>Trackpoint 2574</name>
            </trkpt>
            <trkpt lat="49.8745088" lon="10.2069632">
                <ele>193.0</ele>
                <time>2020-08-23T08:54:19.000Z</time>
                <name>Trackpoint 2575</name>
            </trkpt>
            <trkpt lat="49.8744864" lon="10.2071352">
                <ele>193.0</ele>
                <time>2020-08-23T08:54:21.000Z</time>
                <name>Trackpoint 2576</name>
            </trkpt>
            <trkpt lat="49.8744672" lon="10.2073024">
                <ele>193.0</ele>
                <time>2020-08-23T08:54:23.000Z</time>
                <name>Trackpoint 2577</name>
            </trkpt>
            <trkpt lat="49.874448" lon="10.207472">
                <ele>193.0</ele>
                <time>2020-08-23T08:54:25.000Z</time>
                <name>Trackpoint 2578</name>
            </trkpt>
            <trkpt lat="49.8744224" lon="10.2076416">
                <ele>193.0</ele>
                <time>2020-08-23T08:54:27.000Z</time>
                <name>Trackpoint 2579</name>
            </trkpt>
            <trkpt lat="49.8744" lon="10.2078104">
                <ele>193.0</ele>
                <time>2020-08-23T08:54:29.000Z</time>
                <name>Trackpoint 2580</name>
            </trkpt>
            <trkpt lat="49.8743776" lon="10.2079752">
                <ele>193.0</ele>
                <time>2020-08-23T08:54:31.000Z</time>
                <name>Trackpoint 2581</name>
            </trkpt>
            <trkpt lat="49.874352" lon="10.2081384">
                <ele>193.0</ele>
                <time>2020-08-23T08:54:33.000Z</time>
                <name>Trackpoint 2582</name>
            </trkpt>
            <trkpt lat="49.87432" lon="10.2082984">
                <ele>193.0</ele>
                <time>2020-08-23T08:54:35.000Z</time>
                <name>Trackpoint 2583</name>
            </trkpt>
            <trkpt lat="49.8742976" lon="10.2084568">
                <ele>193.0</ele>
                <time>2020-08-23T08:54:37.000Z</time>
                <name>Trackpoint 2584</name>
            </trkpt>
            <trkpt lat="49.8742752" lon="10.2086152">
                <ele>193.0</ele>
                <time>2020-08-23T08:54:39.000Z</time>
                <name>Trackpoint 2585</name>
            </trkpt>
            <trkpt lat="49.8742592" lon="10.208772">
                <ele>193.0</ele>
                <time>2020-08-23T08:54:41.000Z</time>
                <name>Trackpoint 2586</name>
            </trkpt>
            <trkpt lat="49.8742496" lon="10.2089264">
                <ele>193.0</ele>
                <time>2020-08-23T08:54:43.000Z</time>
                <name>Trackpoint 2587</name>
            </trkpt>
            <trkpt lat="49.8742304" lon="10.20908">
                <ele>194.0</ele>
                <time>2020-08-23T08:54:45.000Z</time>
                <name>Trackpoint 2588</name>
            </trkpt>
            <trkpt lat="49.8742112" lon="10.2092352">
                <ele>194.0</ele>
                <time>2020-08-23T08:54:47.000Z</time>
                <name>Trackpoint 2589</name>
            </trkpt>
            <trkpt lat="49.8741952" lon="10.2093896">
                <ele>194.0</ele>
                <time>2020-08-23T08:54:49.000Z</time>
                <name>Trackpoint 2590</name>
            </trkpt>
            <trkpt lat="49.8741792" lon="10.2095472">
                <ele>195.0</ele>
                <time>2020-08-23T08:54:51.000Z</time>
                <name>Trackpoint 2591</name>
            </trkpt>
            <trkpt lat="49.8741696" lon="10.2097016">
                <ele>195.0</ele>
                <time>2020-08-23T08:54:53.000Z</time>
                <name>Trackpoint 2592</name>
            </trkpt>
            <trkpt lat="49.874144" lon="10.2098576">
                <ele>196.0</ele>
                <time>2020-08-23T08:54:55.000Z</time>
                <name>Trackpoint 2593</name>
            </trkpt>
            <trkpt lat="49.874128" lon="10.2100136">
                <ele>196.0</ele>
                <time>2020-08-23T08:54:57.000Z</time>
                <name>Trackpoint 2594</name>
            </trkpt>
            <trkpt lat="49.8741024" lon="10.2101672">
                <ele>197.0</ele>
                <time>2020-08-23T08:54:59.000Z</time>
                <name>Trackpoint 2595</name>
            </trkpt>
            <trkpt lat="49.8740768" lon="10.2103232">
                <ele>197.0</ele>
                <time>2020-08-23T08:55:01.000Z</time>
                <name>Trackpoint 2596</name>
            </trkpt>
            <trkpt lat="49.8740512" lon="10.2104768">
                <ele>198.0</ele>
                <time>2020-08-23T08:55:03.000Z</time>
                <name>Trackpoint 2597</name>
            </trkpt>
            <trkpt lat="49.874016" lon="10.2106184">
                <ele>198.0</ele>
                <time>2020-08-23T08:55:05.000Z</time>
                <name>Trackpoint 2598</name>
            </trkpt>
            <trkpt lat="49.8739712" lon="10.21076">
                <ele>198.0</ele>
                <time>2020-08-23T08:55:07.000Z</time>
                <name>Trackpoint 2599</name>
            </trkpt>
            <trkpt lat="49.8739232" lon="10.2109">
                <ele>198.0</ele>
                <time>2020-08-23T08:55:09.000Z</time>
                <name>Trackpoint 2600</name>
            </trkpt>
            <trkpt lat="49.873872" lon="10.2110432">
                <ele>198.0</ele>
                <time>2020-08-23T08:55:11.000Z</time>
                <name>Trackpoint 2601</name>
            </trkpt>
            <trkpt lat="49.8738144" lon="10.211192">
                <ele>198.0</ele>
                <time>2020-08-23T08:55:13.000Z</time>
                <name>Trackpoint 2602</name>
            </trkpt>
            <trkpt lat="49.8737472" lon="10.2113416">
                <ele>198.0</ele>
                <time>2020-08-23T08:55:15.000Z</time>
                <name>Trackpoint 2603</name>
            </trkpt>
            <trkpt lat="49.87368" lon="10.2114936">
                <ele>198.0</ele>
                <time>2020-08-23T08:55:17.000Z</time>
                <name>Trackpoint 2604</name>
            </trkpt>
            <trkpt lat="49.8736064" lon="10.2116448">
                <ele>198.0</ele>
                <time>2020-08-23T08:55:19.000Z</time>
                <name>Trackpoint 2605</name>
            </trkpt>
            <trkpt lat="49.8735264" lon="10.2118016">
                <ele>197.0</ele>
                <time>2020-08-23T08:55:21.000Z</time>
                <name>Trackpoint 2606</name>
            </trkpt>
            <trkpt lat="49.8734848" lon="10.2118816">
                <ele>197.0</ele>
                <time>2020-08-23T08:55:22.000Z</time>
                <name>Trackpoint 2607</name>
            </trkpt>
            <trkpt lat="49.8734432" lon="10.2119616">
                <ele>197.0</ele>
                <time>2020-08-23T08:55:23.000Z</time>
                <name>Trackpoint 2608</name>
            </trkpt>
            <trkpt lat="49.8733984" lon="10.2120416">
                <ele>197.0</ele>
                <time>2020-08-23T08:55:24.000Z</time>
                <name>Trackpoint 2609</name>
            </trkpt>
            <trkpt lat="49.8733568" lon="10.2121216">
                <ele>196.0</ele>
                <time>2020-08-23T08:55:25.000Z</time>
                <name>Trackpoint 2610</name>
            </trkpt>
            <trkpt lat="49.8733152" lon="10.2122072">
                <ele>196.0</ele>
                <time>2020-08-23T08:55:26.000Z</time>
                <name>Trackpoint 2611</name>
            </trkpt>
            <trkpt lat="49.8732672" lon="10.212292">
                <ele>196.0</ele>
                <time>2020-08-23T08:55:27.000Z</time>
                <name>Trackpoint 2612</name>
            </trkpt>
            <trkpt lat="49.8731808" lon="10.2124528">
                <ele>196.0</ele>
                <time>2020-08-23T08:55:29.000Z</time>
                <name>Trackpoint 2613</name>
            </trkpt>
            <trkpt lat="49.873136" lon="10.2125416">
                <ele>196.0</ele>
                <time>2020-08-23T08:55:30.000Z</time>
                <name>Trackpoint 2614</name>
            </trkpt>
            <trkpt lat="49.873088" lon="10.2126264">
                <ele>196.0</ele>
                <time>2020-08-23T08:55:31.000Z</time>
                <name>Trackpoint 2615</name>
            </trkpt>
            <trkpt lat="49.87304" lon="10.2127168">
                <ele>196.0</ele>
                <time>2020-08-23T08:55:32.000Z</time>
                <name>Trackpoint 2616</name>
            </trkpt>
            <trkpt lat="49.8729888" lon="10.2128048">
                <ele>195.0</ele>
                <time>2020-08-23T08:55:33.000Z</time>
                <name>Trackpoint 2617</name>
            </trkpt>
            <trkpt lat="49.8729408" lon="10.2128952">
                <ele>195.0</ele>
                <time>2020-08-23T08:55:34.000Z</time>
                <name>Trackpoint 2618</name>
            </trkpt>
            <trkpt lat="49.8728928" lon="10.2129872">
                <ele>195.0</ele>
                <time>2020-08-23T08:55:35.000Z</time>
                <name>Trackpoint 2619</name>
            </trkpt>
            <trkpt lat="49.8728448" lon="10.2130768">
                <ele>195.0</ele>
                <time>2020-08-23T08:55:36.000Z</time>
                <name>Trackpoint 2620</name>
            </trkpt>
            <trkpt lat="49.8727936" lon="10.2131664">
                <ele>195.0</ele>
                <time>2020-08-23T08:55:37.000Z</time>
                <name>Trackpoint 2621</name>
            </trkpt>
            <trkpt lat="49.8727456" lon="10.2132552">
                <ele>195.0</ele>
                <time>2020-08-23T08:55:38.000Z</time>
                <name>Trackpoint 2622</name>
            </trkpt>
            <trkpt lat="49.8727008" lon="10.21334">
                <ele>195.0</ele>
                <time>2020-08-23T08:55:39.000Z</time>
                <name>Trackpoint 2623</name>
            </trkpt>
            <trkpt lat="49.8726496" lon="10.213424">
                <ele>195.0</ele>
                <time>2020-08-23T08:55:40.000Z</time>
                <name>Trackpoint 2624</name>
            </trkpt>
            <trkpt lat="49.8726048" lon="10.2135088">
                <ele>196.0</ele>
                <time>2020-08-23T08:55:41.000Z</time>
                <name>Trackpoint 2625</name>
            </trkpt>
            <trkpt lat="49.87256" lon="10.2135936">
                <ele>196.0</ele>
                <time>2020-08-23T08:55:42.000Z</time>
                <name>Trackpoint 2626</name>
            </trkpt>
            <trkpt lat="49.872512" lon="10.2136744">
                <ele>196.0</ele>
                <time>2020-08-23T08:55:43.000Z</time>
                <name>Trackpoint 2627</name>
            </trkpt>
            <trkpt lat="49.8724672" lon="10.2137544">
                <ele>196.0</ele>
                <time>2020-08-23T08:55:44.000Z</time>
                <name>Trackpoint 2628</name>
            </trkpt>
            <trkpt lat="49.8724256" lon="10.2138368">
                <ele>196.0</ele>
                <time>2020-08-23T08:55:45.000Z</time>
                <name>Trackpoint 2629</name>
            </trkpt>
            <trkpt lat="49.8723808" lon="10.2139168">
                <ele>196.0</ele>
                <time>2020-08-23T08:55:46.000Z</time>
                <name>Trackpoint 2630</name>
            </trkpt>
            <trkpt lat="49.8722912" lon="10.2140704">
                <ele>196.0</ele>
                <time>2020-08-23T08:55:48.000Z</time>
                <name>Trackpoint 2631</name>
            </trkpt>
            <trkpt lat="49.8722112" lon="10.2142216">
                <ele>196.0</ele>
                <time>2020-08-23T08:55:50.000Z</time>
                <name>Trackpoint 2632</name>
            </trkpt>
            <trkpt lat="49.872128" lon="10.2143768">
                <ele>196.0</ele>
                <time>2020-08-23T08:55:52.000Z</time>
                <name>Trackpoint 2633</name>
            </trkpt>
            <trkpt lat="49.872048" lon="10.2145256">
                <ele>196.0</ele>
                <time>2020-08-23T08:55:54.000Z</time>
                <name>Trackpoint 2634</name>
            </trkpt>
            <trkpt lat="49.871968" lon="10.2146728">
                <ele>196.0</ele>
                <time>2020-08-23T08:55:56.000Z</time>
                <name>Trackpoint 2635</name>
            </trkpt>
            <trkpt lat="49.871888" lon="10.21482">
                <ele>196.0</ele>
                <time>2020-08-23T08:55:58.000Z</time>
                <name>Trackpoint 2636</name>
            </trkpt>
            <trkpt lat="49.871808" lon="10.2149688">
                <ele>196.0</ele>
                <time>2020-08-23T08:56:00.000Z</time>
                <name>Trackpoint 2637</name>
            </trkpt>
            <trkpt lat="49.8717216" lon="10.21512">
                <ele>196.0</ele>
                <time>2020-08-23T08:56:02.000Z</time>
                <name>Trackpoint 2638</name>
            </trkpt>
            <trkpt lat="49.8716416" lon="10.2152752">
                <ele>196.0</ele>
                <time>2020-08-23T08:56:04.000Z</time>
                <name>Trackpoint 2639</name>
            </trkpt>
            <trkpt lat="49.8715584" lon="10.215428">
                <ele>196.0</ele>
                <time>2020-08-23T08:56:06.000Z</time>
                <name>Trackpoint 2640</name>
            </trkpt>
            <trkpt lat="49.8714784" lon="10.2155784">
                <ele>197.0</ele>
                <time>2020-08-23T08:56:08.000Z</time>
                <name>Trackpoint 2641</name>
            </trkpt>
            <trkpt lat="49.8713984" lon="10.2157248">
                <ele>197.0</ele>
                <time>2020-08-23T08:56:10.000Z</time>
                <name>Trackpoint 2642</name>
            </trkpt>
            <trkpt lat="49.871328" lon="10.215872">
                <ele>197.0</ele>
                <time>2020-08-23T08:56:12.000Z</time>
                <name>Trackpoint 2643</name>
            </trkpt>
            <trkpt lat="49.8712512" lon="10.2160152">
                <ele>197.0</ele>
                <time>2020-08-23T08:56:14.000Z</time>
                <name>Trackpoint 2644</name>
            </trkpt>
            <trkpt lat="49.8711712" lon="10.2161528">
                <ele>197.0</ele>
                <time>2020-08-23T08:56:16.000Z</time>
                <name>Trackpoint 2645</name>
            </trkpt>
            <trkpt lat="49.8710976" lon="10.2162904">
                <ele>197.0</ele>
                <time>2020-08-23T08:56:18.000Z</time>
                <name>Trackpoint 2646</name>
            </trkpt>
            <trkpt lat="49.871024" lon="10.2164232">
                <ele>197.0</ele>
                <time>2020-08-23T08:56:20.000Z</time>
                <name>Trackpoint 2647</name>
            </trkpt>
            <trkpt lat="49.8709568" lon="10.2165584">
                <ele>197.0</ele>
                <time>2020-08-23T08:56:22.000Z</time>
                <name>Trackpoint 2648</name>
            </trkpt>
            <trkpt lat="49.8708928" lon="10.2166864">
                <ele>197.0</ele>
                <time>2020-08-23T08:56:24.000Z</time>
                <name>Trackpoint 2649</name>
            </trkpt>
            <trkpt lat="49.8708384" lon="10.2167984">
                <ele>197.0</ele>
                <time>2020-08-23T08:56:26.000Z</time>
                <name>Trackpoint 2650</name>
            </trkpt>
            <trkpt lat="49.8707776" lon="10.2168816">
                <ele>197.0</ele>
                <time>2020-08-23T08:56:29.000Z</time>
                <name>Trackpoint 2651</name>
            </trkpt>
            <trkpt lat="49.8707136" lon="10.2168064">
                <ele>197.0</ele>
                <time>2020-08-23T08:56:32.000Z</time>
                <name>Trackpoint 2652</name>
            </trkpt>
            <trkpt lat="49.8706272" lon="10.2166968">
                <ele>197.0</ele>
                <time>2020-08-23T08:56:35.000Z</time>
                <name>Trackpoint 2653</name>
            </trkpt>
            <trkpt lat="49.870576" lon="10.2166216">
                <ele>197.0</ele>
                <time>2020-08-23T08:56:37.000Z</time>
                <name>Trackpoint 2654</name>
            </trkpt>
            <trkpt lat="49.8704992" lon="10.2165448">
                <ele>197.0</ele>
                <time>2020-08-23T08:56:40.000Z</time>
                <name>Trackpoint 2655</name>
            </trkpt>
            <trkpt lat="49.8704352" lon="10.2164784">
                <ele>197.0</ele>
                <time>2020-08-23T08:56:44.000Z</time>
                <name>Trackpoint 2656</name>
            </trkpt>
            <trkpt lat="49.8703456" lon="10.2164096">
                <ele>197.0</ele>
                <time>2020-08-23T08:57:11.000Z</time>
                <name>Trackpoint 2657</name>
            </trkpt>
            <trkpt lat="49.8702592" lon="10.2163112">
                <ele>198.0</ele>
                <time>2020-08-23T08:57:14.000Z</time>
                <name>Trackpoint 2658</name>
            </trkpt>
            <trkpt lat="49.8701888" lon="10.2162368">
                <ele>198.0</ele>
                <time>2020-08-23T08:57:16.000Z</time>
                <name>Trackpoint 2659</name>
            </trkpt>
            <trkpt lat="49.8701184" lon="10.2161648">
                <ele>198.0</ele>
                <time>2020-08-23T08:57:18.000Z</time>
                <name>Trackpoint 2660</name>
            </trkpt>
            <trkpt lat="49.870048" lon="10.2161016">
                <ele>198.0</ele>
                <time>2020-08-23T08:57:20.000Z</time>
                <name>Trackpoint 2661</name>
            </trkpt>
            <trkpt lat="49.869952" lon="10.216048">
                <ele>198.0</ele>
                <time>2020-08-23T08:57:23.000Z</time>
                <name>Trackpoint 2662</name>
            </trkpt>
            <trkpt lat="49.8698656" lon="10.2161216">
                <ele>197.0</ele>
                <time>2020-08-23T08:57:26.000Z</time>
                <name>Trackpoint 2663</name>
            </trkpt>
            <trkpt lat="49.8698016" lon="10.2162152">
                <ele>197.0</ele>
                <time>2020-08-23T08:57:28.000Z</time>
                <name>Trackpoint 2664</name>
            </trkpt>
            <trkpt lat="49.869744" lon="10.2163264">
                <ele>197.0</ele>
                <time>2020-08-23T08:57:30.000Z</time>
                <name>Trackpoint 2665</name>
            </trkpt>
            <trkpt lat="49.8696896" lon="10.2164432">
                <ele>197.0</ele>
                <time>2020-08-23T08:57:32.000Z</time>
                <name>Trackpoint 2666</name>
            </trkpt>
            <trkpt lat="49.8696352" lon="10.2165584">
                <ele>197.0</ele>
                <time>2020-08-23T08:57:34.000Z</time>
                <name>Trackpoint 2667</name>
            </trkpt>
            <trkpt lat="49.8696032" lon="10.2166656">
                <ele>197.0</ele>
                <time>2020-08-23T08:57:36.000Z</time>
                <name>Trackpoint 2668</name>
            </trkpt>
            <trkpt lat="49.8695456" lon="10.2167664">
                <ele>197.0</ele>
                <time>2020-08-23T08:57:38.000Z</time>
                <name>Trackpoint 2669</name>
            </trkpt>
            <trkpt lat="49.8694944" lon="10.2168664">
                <ele>197.0</ele>
                <time>2020-08-23T08:57:40.000Z</time>
                <name>Trackpoint 2670</name>
            </trkpt>
            <trkpt lat="49.8694336" lon="10.2169712">
                <ele>197.0</ele>
                <time>2020-08-23T08:57:42.000Z</time>
                <name>Trackpoint 2671</name>
            </trkpt>
            <trkpt lat="49.8693632" lon="10.2171088">
                <ele>197.0</ele>
                <time>2020-08-23T08:57:44.000Z</time>
                <name>Trackpoint 2672</name>
            </trkpt>
            <trkpt lat="49.8693024" lon="10.2172168">
                <ele>197.0</ele>
                <time>2020-08-23T08:57:46.000Z</time>
                <name>Trackpoint 2673</name>
            </trkpt>
            <trkpt lat="49.8692576" lon="10.2173008">
                <ele>197.0</ele>
                <time>2020-08-23T08:57:48.000Z</time>
                <name>Trackpoint 2674</name>
            </trkpt>
            <trkpt lat="49.8691872" lon="10.2174304">
                <ele>197.0</ele>
                <time>2020-08-23T08:57:50.000Z</time>
                <name>Trackpoint 2675</name>
            </trkpt>
            <trkpt lat="49.8691392" lon="10.217508">
                <ele>197.0</ele>
                <time>2020-08-23T08:57:51.000Z</time>
                <name>Trackpoint 2676</name>
            </trkpt>
            <trkpt lat="49.8690464" lon="10.2176536">
                <ele>197.0</ele>
                <time>2020-08-23T08:57:53.000Z</time>
                <name>Trackpoint 2677</name>
            </trkpt>
            <trkpt lat="49.8689408" lon="10.2177888">
                <ele>197.0</ele>
                <time>2020-08-23T08:57:55.000Z</time>
                <name>Trackpoint 2678</name>
            </trkpt>
            <trkpt lat="49.8688512" lon="10.2179">
                <ele>197.0</ele>
                <time>2020-08-23T08:57:57.000Z</time>
                <name>Trackpoint 2679</name>
            </trkpt>
            <trkpt lat="49.8687776" lon="10.2179896">
                <ele>197.0</ele>
                <time>2020-08-23T08:57:59.000Z</time>
                <name>Trackpoint 2680</name>
            </trkpt>
            <trkpt lat="49.8686976" lon="10.2181064">
                <ele>197.0</ele>
                <time>2020-08-23T08:58:01.000Z</time>
                <name>Trackpoint 2681</name>
            </trkpt>
            <trkpt lat="49.868608" lon="10.2182264">
                <ele>197.0</ele>
                <time>2020-08-23T08:58:03.000Z</time>
                <name>Trackpoint 2682</name>
            </trkpt>
            <trkpt lat="49.868528" lon="10.2183584">
                <ele>197.0</ele>
                <time>2020-08-23T08:58:05.000Z</time>
                <name>Trackpoint 2683</name>
            </trkpt>
            <trkpt lat="49.8684512" lon="10.2184752">
                <ele>197.0</ele>
                <time>2020-08-23T08:58:07.000Z</time>
                <name>Trackpoint 2684</name>
            </trkpt>
            <trkpt lat="49.8683712" lon="10.2185936">
                <ele>197.0</ele>
                <time>2020-08-23T08:58:09.000Z</time>
                <name>Trackpoint 2685</name>
            </trkpt>
            <trkpt lat="49.868304" lon="10.218712">
                <ele>197.0</ele>
                <time>2020-08-23T08:58:11.000Z</time>
                <name>Trackpoint 2686</name>
            </trkpt>
            <trkpt lat="49.86824" lon="10.2188168">
                <ele>197.0</ele>
                <time>2020-08-23T08:58:13.000Z</time>
                <name>Trackpoint 2687</name>
            </trkpt>
            <trkpt lat="49.8681792" lon="10.2189104">
                <ele>197.0</ele>
                <time>2020-08-23T08:58:15.000Z</time>
                <name>Trackpoint 2688</name>
            </trkpt>
            <trkpt lat="49.8680992" lon="10.2190464">
                <ele>197.0</ele>
                <time>2020-08-23T08:58:17.000Z</time>
                <name>Trackpoint 2689</name>
            </trkpt>
            <trkpt lat="49.8680224" lon="10.2191696">
                <ele>197.0</ele>
                <time>2020-08-23T08:58:19.000Z</time>
                <name>Trackpoint 2690</name>
            </trkpt>
            <trkpt lat="49.8679456" lon="10.2193032">
                <ele>197.0</ele>
                <time>2020-08-23T08:58:21.000Z</time>
                <name>Trackpoint 2691</name>
            </trkpt>
            <trkpt lat="49.8678656" lon="10.2194456">
                <ele>197.0</ele>
                <time>2020-08-23T08:58:23.000Z</time>
                <name>Trackpoint 2692</name>
            </trkpt>
            <trkpt lat="49.8677856" lon="10.2195984">
                <ele>197.0</ele>
                <time>2020-08-23T08:58:25.000Z</time>
                <name>Trackpoint 2693</name>
            </trkpt>
            <trkpt lat="49.8677088" lon="10.2197488">
                <ele>197.0</ele>
                <time>2020-08-23T08:58:27.000Z</time>
                <name>Trackpoint 2694</name>
            </trkpt>
            <trkpt lat="49.8676256" lon="10.2199024">
                <ele>197.0</ele>
                <time>2020-08-23T08:58:29.000Z</time>
                <name>Trackpoint 2695</name>
            </trkpt>
            <trkpt lat="49.8675456" lon="10.2200416">
                <ele>197.0</ele>
                <time>2020-08-23T08:58:31.000Z</time>
                <name>Trackpoint 2696</name>
            </trkpt>
            <trkpt lat="49.8674816" lon="10.2201616">
                <ele>197.0</ele>
                <time>2020-08-23T08:58:33.000Z</time>
                <name>Trackpoint 2697</name>
            </trkpt>
            <trkpt lat="49.8674048" lon="10.2203032">
                <ele>197.0</ele>
                <time>2020-08-23T08:58:35.000Z</time>
                <name>Trackpoint 2698</name>
            </trkpt>
            <trkpt lat="49.8673248" lon="10.2204568">
                <ele>197.0</ele>
                <time>2020-08-23T08:58:37.000Z</time>
                <name>Trackpoint 2699</name>
            </trkpt>
            <trkpt lat="49.8672576" lon="10.2205864">
                <ele>197.0</ele>
                <time>2020-08-23T08:58:39.000Z</time>
                <name>Trackpoint 2700</name>
            </trkpt>
            <trkpt lat="49.8671904" lon="10.2207296">
                <ele>197.0</ele>
                <time>2020-08-23T08:58:41.000Z</time>
                <name>Trackpoint 2701</name>
            </trkpt>
            <trkpt lat="49.8671328" lon="10.2208784">
                <ele>198.0</ele>
                <time>2020-08-23T08:58:43.000Z</time>
                <name>Trackpoint 2702</name>
            </trkpt>
            <trkpt lat="49.8670528" lon="10.2210152">
                <ele>198.0</ele>
                <time>2020-08-23T08:58:45.000Z</time>
                <name>Trackpoint 2703</name>
            </trkpt>
            <trkpt lat="49.8669696" lon="10.2211336">
                <ele>198.0</ele>
                <time>2020-08-23T08:58:47.000Z</time>
                <name>Trackpoint 2704</name>
            </trkpt>
            <trkpt lat="49.8668896" lon="10.2212352">
                <ele>198.0</ele>
                <time>2020-08-23T08:58:49.000Z</time>
                <name>Trackpoint 2705</name>
            </trkpt>
            <trkpt lat="49.8668" lon="10.2213232">
                <ele>198.0</ele>
                <time>2020-08-23T08:58:51.000Z</time>
                <name>Trackpoint 2706</name>
            </trkpt>
            <trkpt lat="49.8667104" lon="10.2214048">
                <ele>198.0</ele>
                <time>2020-08-23T08:58:53.000Z</time>
                <name>Trackpoint 2707</name>
            </trkpt>
            <trkpt lat="49.8666272" lon="10.2214984">
                <ele>198.0</ele>
                <time>2020-08-23T08:58:55.000Z</time>
                <name>Trackpoint 2708</name>
            </trkpt>
            <trkpt lat="49.8665632" lon="10.2215664">
                <ele>198.0</ele>
                <time>2020-08-23T08:58:57.000Z</time>
                <name>Trackpoint 2709</name>
            </trkpt>
            <trkpt lat="49.8664864" lon="10.2216384">
                <ele>197.0</ele>
                <time>2020-08-23T09:11:47.000Z</time>
                <name>Trackpoint 2710</name>
            </trkpt>
            <trkpt lat="49.8664192" lon="10.221712">
                <ele>197.0</ele>
                <time>2020-08-23T09:11:52.000Z</time>
                <name>Trackpoint 2711</name>
            </trkpt>
            <trkpt lat="49.8663648" lon="10.2217848">
                <ele>197.0</ele>
                <time>2020-08-23T09:11:55.000Z</time>
                <name>Trackpoint 2712</name>
            </trkpt>
            <trkpt lat="49.8662848" lon="10.2218416">
                <ele>197.0</ele>
                <time>2020-08-23T09:11:58.000Z</time>
                <name>Trackpoint 2713</name>
            </trkpt>
            <trkpt lat="49.8662144" lon="10.2219216">
                <ele>196.0</ele>
                <time>2020-08-23T09:12:01.000Z</time>
                <name>Trackpoint 2714</name>
            </trkpt>
            <trkpt lat="49.8661408" lon="10.222">
                <ele>196.0</ele>
                <time>2020-08-23T09:12:04.000Z</time>
                <name>Trackpoint 2715</name>
            </trkpt>
            <trkpt lat="49.8660768" lon="10.222072">
                <ele>197.0</ele>
                <time>2020-08-23T09:12:06.000Z</time>
                <name>Trackpoint 2716</name>
            </trkpt>
            <trkpt lat="49.8659936" lon="10.222152">
                <ele>196.0</ele>
                <time>2020-08-23T09:12:09.000Z</time>
                <name>Trackpoint 2717</name>
            </trkpt>
            <trkpt lat="49.86592" lon="10.2222072">
                <ele>196.0</ele>
                <time>2020-08-23T09:12:12.000Z</time>
                <name>Trackpoint 2718</name>
            </trkpt>
            <trkpt lat="49.86584" lon="10.2222632">
                <ele>196.0</ele>
                <time>2020-08-23T09:12:32.000Z</time>
                <name>Trackpoint 2719</name>
            </trkpt>
            <trkpt lat="49.8658272" lon="10.2221736">
                <ele>196.0</ele>
                <time>2020-08-23T09:13:43.000Z</time>
                <name>Trackpoint 2720</name>
            </trkpt>
            <trkpt lat="49.8657984" lon="10.2220824">
                <ele>196.0</ele>
                <time>2020-08-23T09:13:46.000Z</time>
                <name>Trackpoint 2721</name>
            </trkpt>
            <trkpt lat="49.8657824" lon="10.2219912">
                <ele>196.0</ele>
                <time>2020-08-23T09:13:48.000Z</time>
                <name>Trackpoint 2722</name>
            </trkpt>
            <trkpt lat="49.8657568" lon="10.2218952">
                <ele>195.0</ele>
                <time>2020-08-23T09:13:50.000Z</time>
                <name>Trackpoint 2723</name>
            </trkpt>
            <trkpt lat="49.8657312" lon="10.2217704">
                <ele>195.0</ele>
                <time>2020-08-23T09:13:52.000Z</time>
                <name>Trackpoint 2724</name>
            </trkpt>
            <trkpt lat="49.865728" lon="10.2216656">
                <ele>195.0</ele>
                <time>2020-08-23T09:13:54.000Z</time>
                <name>Trackpoint 2725</name>
            </trkpt>
            <trkpt lat="49.865712" lon="10.2215568">
                <ele>195.0</ele>
                <time>2020-08-23T09:13:56.000Z</time>
                <name>Trackpoint 2726</name>
            </trkpt>
            <trkpt lat="49.8656896" lon="10.2214432">
                <ele>195.0</ele>
                <time>2020-08-23T09:13:58.000Z</time>
                <name>Trackpoint 2727</name>
            </trkpt>
            <trkpt lat="49.8656704" lon="10.2213248">
                <ele>195.0</ele>
                <time>2020-08-23T09:14:00.000Z</time>
                <name>Trackpoint 2728</name>
            </trkpt>
            <trkpt lat="49.8656512" lon="10.2212096">
                <ele>195.0</ele>
                <time>2020-08-23T09:14:02.000Z</time>
                <name>Trackpoint 2729</name>
            </trkpt>
            <trkpt lat="49.8656352" lon="10.2210864">
                <ele>195.0</ele>
                <time>2020-08-23T09:14:04.000Z</time>
                <name>Trackpoint 2730</name>
            </trkpt>
            <trkpt lat="49.865616" lon="10.220972">
                <ele>195.0</ele>
                <time>2020-08-23T09:14:06.000Z</time>
                <name>Trackpoint 2731</name>
            </trkpt>
            <trkpt lat="49.8656" lon="10.2208728">
                <ele>195.0</ele>
                <time>2020-08-23T09:14:08.000Z</time>
                <name>Trackpoint 2732</name>
            </trkpt>
            <trkpt lat="49.8655744" lon="10.2207496">
                <ele>195.0</ele>
                <time>2020-08-23T09:14:11.000Z</time>
                <name>Trackpoint 2733</name>
            </trkpt>
            <trkpt lat="49.865552" lon="10.2206472">
                <ele>195.0</ele>
                <time>2020-08-23T09:14:15.000Z</time>
                <name>Trackpoint 2734</name>
            </trkpt>
            <trkpt lat="49.8655008" lon="10.2206432">
                <ele>194.0</ele>
                <time>2020-08-23T09:15:21.000Z</time>
                <name>Trackpoint 2740</name>
            </trkpt>
            <trkpt lat="49.8654048" lon="10.220708">
                <ele>194.0</ele>
                <time>2020-08-23T09:15:25.000Z</time>
                <name>Trackpoint 2741</name>
            </trkpt>
            <trkpt lat="49.865312" lon="10.2207944">
                <ele>194.0</ele>
                <time>2020-08-23T09:15:28.000Z</time>
                <name>Trackpoint 2742</name>
            </trkpt>
            <trkpt lat="49.865232" lon="10.2208592">
                <ele>194.0</ele>
                <time>2020-08-23T09:15:30.000Z</time>
                <name>Trackpoint 2743</name>
            </trkpt>
            <trkpt lat="49.865136" lon="10.2209568">
                <ele>194.0</ele>
                <time>2020-08-23T09:15:32.000Z</time>
                <name>Trackpoint 2744</name>
            </trkpt>
            <trkpt lat="49.865056" lon="10.2210416">
                <ele>194.0</ele>
                <time>2020-08-23T09:15:34.000Z</time>
                <name>Trackpoint 2745</name>
            </trkpt>
            <trkpt lat="49.864976" lon="10.221124">
                <ele>194.0</ele>
                <time>2020-08-23T09:15:36.000Z</time>
                <name>Trackpoint 2746</name>
            </trkpt>
            <trkpt lat="49.8648896" lon="10.2212112">
                <ele>194.0</ele>
                <time>2020-08-23T09:15:38.000Z</time>
                <name>Trackpoint 2747</name>
            </trkpt>
            <trkpt lat="49.8648032" lon="10.2213024">
                <ele>194.0</ele>
                <time>2020-08-23T09:15:40.000Z</time>
                <name>Trackpoint 2748</name>
            </trkpt>
            <trkpt lat="49.8647264" lon="10.2213872">
                <ele>194.0</ele>
                <time>2020-08-23T09:15:42.000Z</time>
                <name>Trackpoint 2749</name>
            </trkpt>
            <trkpt lat="49.8646592" lon="10.2214584">
                <ele>194.0</ele>
                <time>2020-08-23T09:15:44.000Z</time>
                <name>Trackpoint 2750</name>
            </trkpt>
            <trkpt lat="49.8645696" lon="10.221548">
                <ele>194.0</ele>
                <time>2020-08-23T09:15:47.000Z</time>
                <name>Trackpoint 2751</name>
            </trkpt>
            <trkpt lat="49.8644928" lon="10.221468">
                <ele>194.0</ele>
                <time>2020-08-23T09:15:52.000Z</time>
                <name>Trackpoint 2752</name>
            </trkpt>
            <trkpt lat="49.864432" lon="10.2213824">
                <ele>194.0</ele>
                <time>2020-08-23T09:15:55.000Z</time>
                <name>Trackpoint 2753</name>
            </trkpt>
            <trkpt lat="49.8643232" lon="10.2213696">
                <ele>194.0</ele>
                <time>2020-08-23T09:15:59.000Z</time>
                <name>Trackpoint 2754</name>
            </trkpt>
            <trkpt lat="49.8642112" lon="10.2213936">
                <ele>195.0</ele>
                <time>2020-08-23T09:16:02.000Z</time>
                <name>Trackpoint 2755</name>
            </trkpt>
            <trkpt lat="49.8640896" lon="10.2214272">
                <ele>194.0</ele>
                <time>2020-08-23T09:16:05.000Z</time>
                <name>Trackpoint 2756</name>
            </trkpt>
            <trkpt lat="49.8639712" lon="10.221472">
                <ele>195.0</ele>
                <time>2020-08-23T09:16:08.000Z</time>
                <name>Trackpoint 2757</name>
            </trkpt>
            <trkpt lat="49.8638624" lon="10.2214896">
                <ele>194.0</ele>
                <time>2020-08-23T09:16:11.000Z</time>
                <name>Trackpoint 2758</name>
            </trkpt>
            <trkpt lat="49.8637632" lon="10.2215032">
                <ele>193.0</ele>
                <time>2020-08-23T09:16:14.000Z</time>
                <name>Trackpoint 2759</name>
            </trkpt>
            <trkpt lat="49.8636672" lon="10.2215144">
                <ele>193.0</ele>
                <time>2020-08-23T09:16:17.000Z</time>
                <name>Trackpoint 2760</name>
            </trkpt>
            <trkpt lat="49.8635776" lon="10.221548">
                <ele>193.0</ele>
                <time>2020-08-23T09:16:19.000Z</time>
                <name>Trackpoint 2761</name>
            </trkpt>
            <trkpt lat="49.8634496" lon="10.221568">
                <ele>193.0</ele>
                <time>2020-08-23T09:16:22.000Z</time>
                <name>Trackpoint 2762</name>
            </trkpt>
            <trkpt lat="49.8633504" lon="10.2215856">
                <ele>193.0</ele>
                <time>2020-08-23T09:16:24.000Z</time>
                <name>Trackpoint 2763</name>
            </trkpt>
            <trkpt lat="49.8632608" lon="10.2216016">
                <ele>193.0</ele>
                <time>2020-08-23T09:16:26.000Z</time>
                <name>Trackpoint 2764</name>
            </trkpt>
            <trkpt lat="49.8631712" lon="10.221648">
                <ele>193.0</ele>
                <time>2020-08-23T09:16:28.000Z</time>
                <name>Trackpoint 2765</name>
            </trkpt>
            <trkpt lat="49.8630496" lon="10.2216752">
                <ele>193.0</ele>
                <time>2020-08-23T09:16:31.000Z</time>
                <name>Trackpoint 2766</name>
            </trkpt>
            <trkpt lat="49.86296" lon="10.2216328">
                <ele>193.0</ele>
                <time>2020-08-23T09:16:35.000Z</time>
                <name>Trackpoint 2767</name>
            </trkpt>
            <trkpt lat="49.8628928" lon="10.2217128">
                <ele>193.0</ele>
                <time>2020-08-23T09:17:07.000Z</time>
                <name>Trackpoint 2768</name>
            </trkpt>
            <trkpt lat="49.8627904" lon="10.22174">
                <ele>193.0</ele>
                <time>2020-08-23T09:17:10.000Z</time>
                <name>Trackpoint 2769</name>
            </trkpt>
            <trkpt lat="49.8626784" lon="10.2217512">
                <ele>193.0</ele>
                <time>2020-08-23T09:17:13.000Z</time>
                <name>Trackpoint 2770</name>
            </trkpt>
            <trkpt lat="49.86256" lon="10.2217376">
                <ele>193.0</ele>
                <time>2020-08-23T09:17:16.000Z</time>
                <name>Trackpoint 2771</name>
            </trkpt>
            <trkpt lat="49.8624448" lon="10.2217664">
                <ele>193.0</ele>
                <time>2020-08-23T09:17:19.000Z</time>
                <name>Trackpoint 2772</name>
            </trkpt>
            <trkpt lat="49.8623232" lon="10.2218136">
                <ele>193.0</ele>
                <time>2020-08-23T09:17:22.000Z</time>
                <name>Trackpoint 2773</name>
            </trkpt>
            <trkpt lat="49.8622048" lon="10.2218704">
                <ele>193.0</ele>
                <time>2020-08-23T09:17:25.000Z</time>
                <name>Trackpoint 2774</name>
            </trkpt>
            <trkpt lat="49.8620864" lon="10.221916">
                <ele>193.0</ele>
                <time>2020-08-23T09:17:28.000Z</time>
                <name>Trackpoint 2775</name>
            </trkpt>
            <trkpt lat="49.8620032" lon="10.2219552">
                <ele>193.0</ele>
                <time>2020-08-23T09:17:30.000Z</time>
                <name>Trackpoint 2776</name>
            </trkpt>
            <trkpt lat="49.8619232" lon="10.2220032">
                <ele>193.0</ele>
                <time>2020-08-23T09:17:32.000Z</time>
                <name>Trackpoint 2777</name>
            </trkpt>
            <trkpt lat="49.8618368" lon="10.2220432">
                <ele>193.0</ele>
                <time>2020-08-23T09:17:34.000Z</time>
                <name>Trackpoint 2778</name>
            </trkpt>
            <trkpt lat="49.8617184" lon="10.2220896">
                <ele>193.0</ele>
                <time>2020-08-23T09:17:37.000Z</time>
                <name>Trackpoint 2779</name>
            </trkpt>
            <trkpt lat="49.8616384" lon="10.2221632">
                <ele>192.0</ele>
                <time>2020-08-23T09:17:39.000Z</time>
                <name>Trackpoint 2780</name>
            </trkpt>
            <trkpt lat="49.861584" lon="10.2222616">
                <ele>192.0</ele>
                <time>2020-08-23T09:17:41.000Z</time>
                <name>Trackpoint 2781</name>
            </trkpt>
            <trkpt lat="49.8615392" lon="10.222372">
                <ele>192.0</ele>
                <time>2020-08-23T09:17:43.000Z</time>
                <name>Trackpoint 2782</name>
            </trkpt>
            <trkpt lat="49.8614848" lon="10.2224704">
                <ele>192.0</ele>
                <time>2020-08-23T09:17:45.000Z</time>
                <name>Trackpoint 2783</name>
            </trkpt>
            <trkpt lat="49.8613632" lon="10.22254">
                <ele>192.0</ele>
                <time>2020-08-23T09:17:48.000Z</time>
                <name>Trackpoint 2784</name>
            </trkpt>
            <trkpt lat="49.86128" lon="10.2225952">
                <ele>192.0</ele>
                <time>2020-08-23T09:17:50.000Z</time>
                <name>Trackpoint 2785</name>
            </trkpt>
            <trkpt lat="49.8611808" lon="10.222656">
                <ele>192.0</ele>
                <time>2020-08-23T09:17:52.000Z</time>
                <name>Trackpoint 2786</name>
            </trkpt>
            <trkpt lat="49.861088" lon="10.2227312">
                <ele>192.0</ele>
                <time>2020-08-23T09:17:54.000Z</time>
                <name>Trackpoint 2787</name>
            </trkpt>
            <trkpt lat="49.8610016" lon="10.222812">
                <ele>192.0</ele>
                <time>2020-08-23T09:17:56.000Z</time>
                <name>Trackpoint 2788</name>
            </trkpt>
            <trkpt lat="49.860912" lon="10.222888">
                <ele>192.0</ele>
                <time>2020-08-23T09:17:58.000Z</time>
                <name>Trackpoint 2789</name>
            </trkpt>
            <trkpt lat="49.8608256" lon="10.2229728">
                <ele>192.0</ele>
                <time>2020-08-23T09:18:00.000Z</time>
                <name>Trackpoint 2790</name>
            </trkpt>
            <trkpt lat="49.8607296" lon="10.2230528">
                <ele>192.0</ele>
                <time>2020-08-23T09:18:02.000Z</time>
                <name>Trackpoint 2791</name>
            </trkpt>
            <trkpt lat="49.8606464" lon="10.2231368">
                <ele>192.0</ele>
                <time>2020-08-23T09:18:04.000Z</time>
                <name>Trackpoint 2792</name>
            </trkpt>
            <trkpt lat="49.8605504" lon="10.2232128">
                <ele>192.0</ele>
                <time>2020-08-23T09:18:06.000Z</time>
                <name>Trackpoint 2793</name>
            </trkpt>
            <trkpt lat="49.860448" lon="10.2232888">
                <ele>192.0</ele>
                <time>2020-08-23T09:18:08.000Z</time>
                <name>Trackpoint 2794</name>
            </trkpt>
            <trkpt lat="49.8603488" lon="10.2233536">
                <ele>192.0</ele>
                <time>2020-08-23T09:18:10.000Z</time>
                <name>Trackpoint 2795</name>
            </trkpt>
            <trkpt lat="49.8602336" lon="10.2234032">
                <ele>192.0</ele>
                <time>2020-08-23T09:18:12.000Z</time>
                <name>Trackpoint 2796</name>
            </trkpt>
            <trkpt lat="49.8601312" lon="10.2234472">
                <ele>192.0</ele>
                <time>2020-08-23T09:18:14.000Z</time>
                <name>Trackpoint 2797</name>
            </trkpt>
            <trkpt lat="49.860032" lon="10.2234768">
                <ele>192.0</ele>
                <time>2020-08-23T09:18:16.000Z</time>
                <name>Trackpoint 2798</name>
            </trkpt>
            <trkpt lat="49.8599296" lon="10.2235048">
                <ele>192.0</ele>
                <time>2020-08-23T09:18:18.000Z</time>
                <name>Trackpoint 2799</name>
            </trkpt>
            <trkpt lat="49.8598368" lon="10.2235384">
                <ele>192.0</ele>
                <time>2020-08-23T09:18:20.000Z</time>
                <name>Trackpoint 2800</name>
            </trkpt>
            <trkpt lat="49.8597344" lon="10.2235784">
                <ele>192.0</ele>
                <time>2020-08-23T09:18:22.000Z</time>
                <name>Trackpoint 2801</name>
            </trkpt>
            <trkpt lat="49.8596256" lon="10.2236072">
                <ele>194.0</ele>
                <time>2020-08-23T09:18:24.000Z</time>
                <name>Trackpoint 2802</name>
            </trkpt>
            <trkpt lat="49.8595328" lon="10.2236384">
                <ele>194.0</ele>
                <time>2020-08-23T09:18:26.000Z</time>
                <name>Trackpoint 2803</name>
            </trkpt>
            <trkpt lat="49.8594272" lon="10.2236816">
                <ele>194.0</ele>
                <time>2020-08-23T09:18:28.000Z</time>
                <name>Trackpoint 2804</name>
            </trkpt>
            <trkpt lat="49.8593344" lon="10.2237192">
                <ele>195.0</ele>
                <time>2020-08-23T09:18:30.000Z</time>
                <name>Trackpoint 2805</name>
            </trkpt>
            <trkpt lat="49.8592384" lon="10.2237584">
                <ele>195.0</ele>
                <time>2020-08-23T09:18:32.000Z</time>
                <name>Trackpoint 2806</name>
            </trkpt>
            <trkpt lat="49.8591456" lon="10.223788">
                <ele>196.0</ele>
                <time>2020-08-23T09:18:34.000Z</time>
                <name>Trackpoint 2807</name>
            </trkpt>
            <trkpt lat="49.8590496" lon="10.2238168">
                <ele>196.0</ele>
                <time>2020-08-23T09:18:36.000Z</time>
                <name>Trackpoint 2808</name>
            </trkpt>
            <trkpt lat="49.85896" lon="10.2238368">
                <ele>196.0</ele>
                <time>2020-08-23T09:18:38.000Z</time>
                <name>Trackpoint 2809</name>
            </trkpt>
            <trkpt lat="49.858832" lon="10.2238432">
                <ele>196.0</ele>
                <time>2020-08-23T09:18:41.000Z</time>
                <name>Trackpoint 2810</name>
            </trkpt>
            <trkpt lat="49.858704" lon="10.22382">
                <ele>196.0</ele>
                <time>2020-08-23T09:18:44.000Z</time>
                <name>Trackpoint 2811</name>
            </trkpt>
            <trkpt lat="49.8586208" lon="10.22378">
                <ele>196.0</ele>
                <time>2020-08-23T09:18:46.000Z</time>
                <name>Trackpoint 2812</name>
            </trkpt>
            <trkpt lat="49.8585408" lon="10.2237232">
                <ele>196.0</ele>
                <time>2020-08-23T09:18:48.000Z</time>
                <name>Trackpoint 2813</name>
            </trkpt>
            <trkpt lat="49.8584512" lon="10.2236792">
                <ele>195.0</ele>
                <time>2020-08-23T09:18:50.000Z</time>
                <name>Trackpoint 2814</name>
            </trkpt>
            <trkpt lat="49.8583264" lon="10.2236784">
                <ele>194.0</ele>
                <time>2020-08-23T09:18:53.000Z</time>
                <name>Trackpoint 2815</name>
            </trkpt>
            <trkpt lat="49.8582368" lon="10.2237128">
                <ele>192.0</ele>
                <time>2020-08-23T09:18:55.000Z</time>
                <name>Trackpoint 2816</name>
            </trkpt>
            <trkpt lat="49.8581472" lon="10.2237504">
                <ele>192.0</ele>
                <time>2020-08-23T09:18:57.000Z</time>
                <name>Trackpoint 2817</name>
            </trkpt>
            <trkpt lat="49.8580544" lon="10.223792">
                <ele>193.0</ele>
                <time>2020-08-23T09:18:59.000Z</time>
                <name>Trackpoint 2818</name>
            </trkpt>
            <trkpt lat="49.8579648" lon="10.2238368">
                <ele>193.0</ele>
                <time>2020-08-23T09:19:01.000Z</time>
                <name>Trackpoint 2819</name>
            </trkpt>
            <trkpt lat="49.8578688" lon="10.2238776">
                <ele>193.0</ele>
                <time>2020-08-23T09:19:03.000Z</time>
                <name>Trackpoint 2820</name>
            </trkpt>
            <trkpt lat="49.8577728" lon="10.2239264">
                <ele>193.0</ele>
                <time>2020-08-23T09:19:05.000Z</time>
                <name>Trackpoint 2821</name>
            </trkpt>
            <trkpt lat="49.8576864" lon="10.2239752">
                <ele>193.0</ele>
                <time>2020-08-23T09:19:07.000Z</time>
                <name>Trackpoint 2822</name>
            </trkpt>
            <trkpt lat="49.8575968" lon="10.2240136">
                <ele>193.0</ele>
                <time>2020-08-23T09:19:09.000Z</time>
                <name>Trackpoint 2823</name>
            </trkpt>
            <trkpt lat="49.8574752" lon="10.2240648">
                <ele>193.0</ele>
                <time>2020-08-23T09:19:12.000Z</time>
                <name>Trackpoint 2824</name>
            </trkpt>
            <trkpt lat="49.85736" lon="10.2241232">
                <ele>193.0</ele>
                <time>2020-08-23T09:19:15.000Z</time>
                <name>Trackpoint 2825</name>
            </trkpt>
            <trkpt lat="49.8572768" lon="10.22416">
                <ele>193.0</ele>
                <time>2020-08-23T09:19:17.000Z</time>
                <name>Trackpoint 2826</name>
            </trkpt>
            <trkpt lat="49.8571936" lon="10.2241968">
                <ele>193.0</ele>
                <time>2020-08-23T09:19:19.000Z</time>
                <name>Trackpoint 2827</name>
            </trkpt>
            <trkpt lat="49.8570976" lon="10.2242416">
                <ele>192.0</ele>
                <time>2020-08-23T09:19:21.000Z</time>
                <name>Trackpoint 2828</name>
            </trkpt>
            <trkpt lat="49.8569984" lon="10.2242936">
                <ele>192.0</ele>
                <time>2020-08-23T09:19:23.000Z</time>
                <name>Trackpoint 2829</name>
            </trkpt>
            <trkpt lat="49.8568928" lon="10.2243416">
                <ele>192.0</ele>
                <time>2020-08-23T09:19:25.000Z</time>
                <name>Trackpoint 2830</name>
            </trkpt>
            <trkpt lat="49.8567936" lon="10.224392">
                <ele>192.0</ele>
                <time>2020-08-23T09:19:27.000Z</time>
                <name>Trackpoint 2831</name>
            </trkpt>
            <trkpt lat="49.856688" lon="10.2244304">
                <ele>192.0</ele>
                <time>2020-08-23T09:19:29.000Z</time>
                <name>Trackpoint 2832</name>
            </trkpt>
            <trkpt lat="49.8565952" lon="10.2244704">
                <ele>191.0</ele>
                <time>2020-08-23T09:19:31.000Z</time>
                <name>Trackpoint 2833</name>
            </trkpt>
            <trkpt lat="49.856496" lon="10.224528">
                <ele>191.0</ele>
                <time>2020-08-23T09:19:33.000Z</time>
                <name>Trackpoint 2834</name>
            </trkpt>
            <trkpt lat="49.8563904" lon="10.2245768">
                <ele>191.0</ele>
                <time>2020-08-23T09:19:35.000Z</time>
                <name>Trackpoint 2835</name>
            </trkpt>
            <trkpt lat="49.8562912" lon="10.224624">
                <ele>191.0</ele>
                <time>2020-08-23T09:19:37.000Z</time>
                <name>Trackpoint 2836</name>
            </trkpt>
            <trkpt lat="49.856192" lon="10.224664">
                <ele>191.0</ele>
                <time>2020-08-23T09:19:39.000Z</time>
                <name>Trackpoint 2837</name>
            </trkpt>
            <trkpt lat="49.8560992" lon="10.2247088">
                <ele>192.0</ele>
                <time>2020-08-23T09:19:41.000Z</time>
                <name>Trackpoint 2838</name>
            </trkpt>
            <trkpt lat="49.8560096" lon="10.2247496">
                <ele>193.0</ele>
                <time>2020-08-23T09:19:43.000Z</time>
                <name>Trackpoint 2839</name>
            </trkpt>
            <trkpt lat="49.8558912" lon="10.2248">
                <ele>192.0</ele>
                <time>2020-08-23T09:19:46.000Z</time>
                <name>Trackpoint 2840</name>
            </trkpt>
            <trkpt lat="49.8557856" lon="10.2248448">
                <ele>192.0</ele>
                <time>2020-08-23T09:19:49.000Z</time>
                <name>Trackpoint 2841</name>
            </trkpt>
            <trkpt lat="49.8556832" lon="10.2248968">
                <ele>190.0</ele>
                <time>2020-08-23T09:19:52.000Z</time>
                <name>Trackpoint 2842</name>
            </trkpt>
            <trkpt lat="49.855584" lon="10.2249344">
                <ele>188.0</ele>
                <time>2020-08-23T09:19:55.000Z</time>
                <name>Trackpoint 2843</name>
            </trkpt>
            <trkpt lat="49.8554944" lon="10.2249768">
                <ele>187.0</ele>
                <time>2020-08-23T09:19:58.000Z</time>
                <name>Trackpoint 2844</name>
            </trkpt>
            <trkpt lat="49.8554016" lon="10.2250416">
                <ele>189.0</ele>
                <time>2020-08-23T09:20:01.000Z</time>
                <name>Trackpoint 2845</name>
            </trkpt>
            <trkpt lat="49.855312" lon="10.2250904">
                <ele>189.0</ele>
                <time>2020-08-23T09:20:04.000Z</time>
                <name>Trackpoint 2846</name>
            </trkpt>
            <trkpt lat="49.8552128" lon="10.225132">
                <ele>189.0</ele>
                <time>2020-08-23T09:20:07.000Z</time>
                <name>Trackpoint 2847</name>
            </trkpt>
            <trkpt lat="49.8551104" lon="10.2251864">
                <ele>189.0</ele>
                <time>2020-08-23T09:20:10.000Z</time>
                <name>Trackpoint 2848</name>
            </trkpt>
            <trkpt lat="49.8549984" lon="10.2252512">
                <ele>188.0</ele>
                <time>2020-08-23T09:20:13.000Z</time>
                <name>Trackpoint 2849</name>
            </trkpt>
            <trkpt lat="49.854912" lon="10.2252864">
                <ele>190.0</ele>
                <time>2020-08-23T09:20:15.000Z</time>
                <name>Trackpoint 2850</name>
            </trkpt>
            <trkpt lat="49.8548192" lon="10.2253048">
                <ele>192.0</ele>
                <time>2020-08-23T09:20:17.000Z</time>
                <name>Trackpoint 2851</name>
            </trkpt>
            <trkpt lat="49.8547072" lon="10.2253584">
                <ele>192.0</ele>
                <time>2020-08-23T09:20:20.000Z</time>
                <name>Trackpoint 2852</name>
            </trkpt>
            <trkpt lat="49.8545888" lon="10.2254104">
                <ele>192.0</ele>
                <time>2020-08-23T09:20:23.000Z</time>
                <name>Trackpoint 2853</name>
            </trkpt>
            <trkpt lat="49.8544768" lon="10.2254632">
                <ele>192.0</ele>
                <time>2020-08-23T09:20:26.000Z</time>
                <name>Trackpoint 2854</name>
            </trkpt>
            <trkpt lat="49.8543744" lon="10.2255064">
                <ele>192.0</ele>
                <time>2020-08-23T09:20:29.000Z</time>
                <name>Trackpoint 2855</name>
            </trkpt>
            <trkpt lat="49.8542784" lon="10.2255552">
                <ele>192.0</ele>
                <time>2020-08-23T09:20:32.000Z</time>
                <name>Trackpoint 2856</name>
            </trkpt>
            <trkpt lat="49.8541664" lon="10.2255952">
                <ele>193.0</ele>
                <time>2020-08-23T09:20:35.000Z</time>
                <name>Trackpoint 2857</name>
            </trkpt>
            <trkpt lat="49.8540576" lon="10.2256416">
                <ele>193.0</ele>
                <time>2020-08-23T09:20:38.000Z</time>
                <name>Trackpoint 2858</name>
            </trkpt>
            <trkpt lat="49.8539424" lon="10.2256984">
                <ele>193.0</ele>
                <time>2020-08-23T09:20:41.000Z</time>
                <name>Trackpoint 2859</name>
            </trkpt>
            <trkpt lat="49.8538656" lon="10.2257584">
                <ele>193.0</ele>
                <time>2020-08-23T09:20:43.000Z</time>
                <name>Trackpoint 2860</name>
            </trkpt>
            <trkpt lat="49.8537856" lon="10.2258256">
                <ele>192.0</ele>
                <time>2020-08-23T09:20:45.000Z</time>
                <name>Trackpoint 2861</name>
            </trkpt>
            <trkpt lat="49.8537088" lon="10.2259056">
                <ele>192.0</ele>
                <time>2020-08-23T09:20:47.000Z</time>
                <name>Trackpoint 2862</name>
            </trkpt>
            <trkpt lat="49.8536288" lon="10.2259752">
                <ele>192.0</ele>
                <time>2020-08-23T09:20:49.000Z</time>
                <name>Trackpoint 2863</name>
            </trkpt>
            <trkpt lat="49.8535488" lon="10.2260216">
                <ele>192.0</ele>
                <time>2020-08-23T09:20:51.000Z</time>
                <name>Trackpoint 2864</name>
            </trkpt>
            <trkpt lat="49.8534624" lon="10.2260648">
                <ele>191.0</ele>
                <time>2020-08-23T09:20:53.000Z</time>
                <name>Trackpoint 2865</name>
            </trkpt>
            <trkpt lat="49.853376" lon="10.2260984">
                <ele>191.0</ele>
                <time>2020-08-23T09:20:55.000Z</time>
                <name>Trackpoint 2866</name>
            </trkpt>
            <trkpt lat="49.8532896" lon="10.2261352">
                <ele>192.0</ele>
                <time>2020-08-23T09:20:57.000Z</time>
                <name>Trackpoint 2867</name>
            </trkpt>
            <trkpt lat="49.8531776" lon="10.2262024">
                <ele>191.0</ele>
                <time>2020-08-23T09:21:00.000Z</time>
                <name>Trackpoint 2868</name>
            </trkpt>
            <trkpt lat="49.8530624" lon="10.2262224">
                <ele>192.0</ele>
                <time>2020-08-23T09:21:03.000Z</time>
                <name>Trackpoint 2869</name>
            </trkpt>
            <trkpt lat="49.8529888" lon="10.2262784">
                <ele>193.0</ele>
                <time>2020-08-23T09:21:06.000Z</time>
                <name>Trackpoint 2870</name>
            </trkpt>
            <trkpt lat="49.8529312" lon="10.2263672">
                <ele>193.0</ele>
                <time>2020-08-23T09:21:10.000Z</time>
                <name>Trackpoint 2871</name>
            </trkpt>
            <trkpt lat="49.8528928" lon="10.2264544">
                <ele>193.0</ele>
                <time>2020-08-23T09:21:14.000Z</time>
                <name>Trackpoint 2872</name>
            </trkpt>
            <trkpt lat="49.8528672" lon="10.2265528">
                <ele>194.0</ele>
                <time>2020-08-23T09:21:18.000Z</time>
                <name>Trackpoint 2873</name>
            </trkpt>
            <trkpt lat="49.8528704" lon="10.22666">
                <ele>195.0</ele>
                <time>2020-08-23T09:21:22.000Z</time>
                <name>Trackpoint 2874</name>
            </trkpt>
            <trkpt lat="49.8528608" lon="10.2267568">
                <ele>195.0</ele>
                <time>2020-08-23T09:21:26.000Z</time>
                <name>Trackpoint 2875</name>
            </trkpt>
            <trkpt lat="49.8527712" lon="10.2266976">
                <ele>199.0</ele>
                <time>2020-08-23T09:21:42.000Z</time>
                <name>Trackpoint 2876</name>
            </trkpt>
            <trkpt lat="49.8527328" lon="10.226612">
                <ele>199.0</ele>
                <time>2020-08-23T09:21:45.000Z</time>
                <name>Trackpoint 2877</name>
            </trkpt>
            <trkpt lat="49.8526912" lon="10.2265168">
                <ele>200.0</ele>
                <time>2020-08-23T09:21:49.000Z</time>
                <name>Trackpoint 2878</name>
            </trkpt>
            <trkpt lat="49.8526464" lon="10.2264368">
                <ele>200.0</ele>
                <time>2020-08-23T09:21:53.000Z</time>
                <name>Trackpoint 2879</name>
            </trkpt>
            <trkpt lat="49.852592" lon="10.2263008">
                <ele>201.0</ele>
                <time>2020-08-23T09:21:56.000Z</time>
                <name>Trackpoint 2880</name>
            </trkpt>
            <trkpt lat="49.8525568" lon="10.226216">
                <ele>201.0</ele>
                <time>2020-08-23T09:21:59.000Z</time>
                <name>Trackpoint 2881</name>
            </trkpt>
            <trkpt lat="49.852512" lon="10.2261088">
                <ele>202.0</ele>
                <time>2020-08-23T09:22:03.000Z</time>
                <name>Trackpoint 2882</name>
            </trkpt>
            <trkpt lat="49.8524672" lon="10.226004">
                <ele>202.0</ele>
                <time>2020-08-23T09:22:06.000Z</time>
                <name>Trackpoint 2883</name>
            </trkpt>
            <trkpt lat="49.8524256" lon="10.2258768">
                <ele>203.0</ele>
                <time>2020-08-23T09:22:09.000Z</time>
                <name>Trackpoint 2884</name>
            </trkpt>
            <trkpt lat="49.8523968" lon="10.2257744">
                <ele>203.0</ele>
                <time>2020-08-23T09:22:12.000Z</time>
                <name>Trackpoint 2885</name>
            </trkpt>
            <trkpt lat="49.8523744" lon="10.2256816">
                <ele>204.0</ele>
                <time>2020-08-23T09:22:15.000Z</time>
                <name>Trackpoint 2886</name>
            </trkpt>
            <trkpt lat="49.8523328" lon="10.2255952">
                <ele>204.0</ele>
                <time>2020-08-23T09:22:45.000Z</time>
                <name>Trackpoint 2887</name>
            </trkpt>
            <trkpt lat="49.8522912" lon="10.2255136">
                <ele>204.0</ele>
                <time>2020-08-23T09:22:49.000Z</time>
                <name>Trackpoint 2888</name>
            </trkpt>
            <trkpt lat="49.8522688" lon="10.2254112">
                <ele>204.0</ele>
                <time>2020-08-23T09:22:51.000Z</time>
                <name>Trackpoint 2889</name>
            </trkpt>
            <trkpt lat="49.85224" lon="10.2253152">
                <ele>204.0</ele>
                <time>2020-08-23T09:22:53.000Z</time>
                <name>Trackpoint 2890</name>
            </trkpt>
            <trkpt lat="49.8522176" lon="10.2252016">
                <ele>204.0</ele>
                <time>2020-08-23T09:22:55.000Z</time>
                <name>Trackpoint 2891</name>
            </trkpt>
            <trkpt lat="49.8522176" lon="10.2251064">
                <ele>205.0</ele>
                <time>2020-08-23T09:22:57.000Z</time>
                <name>Trackpoint 2892</name>
            </trkpt>
            <trkpt lat="49.85224" lon="10.2249848">
                <ele>205.0</ele>
                <time>2020-08-23T09:23:00.000Z</time>
                <name>Trackpoint 2893</name>
            </trkpt>
            <trkpt lat="49.852288" lon="10.2249048">
                <ele>205.0</ele>
                <time>2020-08-23T09:23:03.000Z</time>
                <name>Trackpoint 2894</name>
            </trkpt>
            <trkpt lat="49.8522656" lon="10.2248088">
                <ele>206.0</ele>
                <time>2020-08-23T09:23:09.000Z</time>
                <name>Trackpoint 2895</name>
            </trkpt>
            <trkpt lat="49.85216" lon="10.2248">
                <ele>206.0</ele>
                <time>2020-08-23T09:23:13.000Z</time>
                <name>Trackpoint 2896</name>
            </trkpt>
            <trkpt lat="49.8520704" lon="10.2248688">
                <ele>206.0</ele>
                <time>2020-08-23T09:23:16.000Z</time>
                <name>Trackpoint 2897</name>
            </trkpt>
            <trkpt lat="49.8519776" lon="10.2248696">
                <ele>206.0</ele>
                <time>2020-08-23T09:23:27.000Z</time>
                <name>Trackpoint 2898</name>
            </trkpt>
            <trkpt lat="49.8520256" lon="10.2249496">
                <ele>206.0</ele>
                <time>2020-08-23T09:23:31.000Z</time>
                <name>Trackpoint 2899</name>
            </trkpt>
            <trkpt lat="49.8521248" lon="10.2249368">
                <ele>206.0</ele>
                <time>2020-08-23T09:23:34.000Z</time>
                <name>Trackpoint 2900</name>
            </trkpt>
            <trkpt lat="49.8522176" lon="10.2248784">
                <ele>206.0</ele>
                <time>2020-08-23T09:23:37.000Z</time>
                <name>Trackpoint 2901</name>
            </trkpt>
            <trkpt lat="49.8523104" lon="10.2248352">
                <ele>207.0</ele>
                <time>2020-08-23T09:23:40.000Z</time>
                <name>Trackpoint 2902</name>
            </trkpt>
            <trkpt lat="49.852416" lon="10.2247816">
                <ele>206.0</ele>
                <time>2020-08-23T09:23:43.000Z</time>
                <name>Trackpoint 2903</name>
            </trkpt>
            <trkpt lat="49.852496" lon="10.2247048">
                <ele>206.0</ele>
                <time>2020-08-23T09:23:45.000Z</time>
                <name>Trackpoint 2904</name>
            </trkpt>
            <trkpt lat="49.8525824" lon="10.2246064">
                <ele>206.0</ele>
                <time>2020-08-23T09:23:47.000Z</time>
                <name>Trackpoint 2905</name>
            </trkpt>
            <trkpt lat="49.852672" lon="10.2245032">
                <ele>206.0</ele>
                <time>2020-08-23T09:23:49.000Z</time>
                <name>Trackpoint 2906</name>
            </trkpt>
            <trkpt lat="49.8527648" lon="10.2243944">
                <ele>205.0</ele>
                <time>2020-08-23T09:23:51.000Z</time>
                <name>Trackpoint 2907</name>
            </trkpt>
            <trkpt lat="49.8528512" lon="10.2242872">
                <ele>204.0</ele>
                <time>2020-08-23T09:23:53.000Z</time>
                <name>Trackpoint 2908</name>
            </trkpt>
            <trkpt lat="49.8529344" lon="10.224172">
                <ele>204.0</ele>
                <time>2020-08-23T09:23:55.000Z</time>
                <name>Trackpoint 2909</name>
            </trkpt>
            <trkpt lat="49.8530144" lon="10.2240448">
                <ele>204.0</ele>
                <time>2020-08-23T09:23:57.000Z</time>
                <name>Trackpoint 2910</name>
            </trkpt>
            <trkpt lat="49.8530976" lon="10.2239048">
                <ele>204.0</ele>
                <time>2020-08-23T09:23:59.000Z</time>
                <name>Trackpoint 2911</name>
            </trkpt>
            <trkpt lat="49.8531776" lon="10.2237616">
                <ele>204.0</ele>
                <time>2020-08-23T09:24:01.000Z</time>
                <name>Trackpoint 2912</name>
            </trkpt>
            <trkpt lat="49.8532448" lon="10.223608">
                <ele>203.0</ele>
                <time>2020-08-23T09:24:03.000Z</time>
                <name>Trackpoint 2913</name>
            </trkpt>
            <trkpt lat="49.853312" lon="10.2234472">
                <ele>203.0</ele>
                <time>2020-08-23T09:24:05.000Z</time>
                <name>Trackpoint 2914</name>
            </trkpt>
            <trkpt lat="49.8533472" lon="10.2233632">
                <ele>202.0</ele>
                <time>2020-08-23T09:24:06.000Z</time>
                <name>Trackpoint 2915</name>
            </trkpt>
            <trkpt lat="49.8534048" lon="10.2231968">
                <ele>202.0</ele>
                <time>2020-08-23T09:24:08.000Z</time>
                <name>Trackpoint 2916</name>
            </trkpt>
            <trkpt lat="49.8534304" lon="10.2231104">
                <ele>202.0</ele>
                <time>2020-08-23T09:24:09.000Z</time>
                <name>Trackpoint 2917</name>
            </trkpt>
            <trkpt lat="49.853456" lon="10.2230232">
                <ele>202.0</ele>
                <time>2020-08-23T09:24:10.000Z</time>
                <name>Trackpoint 2918</name>
            </trkpt>
            <trkpt lat="49.8534976" lon="10.222852">
                <ele>201.0</ele>
                <time>2020-08-23T09:24:12.000Z</time>
                <name>Trackpoint 2919</name>
            </trkpt>
            <trkpt lat="49.8535168" lon="10.222756">
                <ele>201.0</ele>
                <time>2020-08-23T09:24:13.000Z</time>
                <name>Trackpoint 2920</name>
            </trkpt>
            <trkpt lat="49.853536" lon="10.2226616">
                <ele>200.0</ele>
                <time>2020-08-23T09:24:14.000Z</time>
                <name>Trackpoint 2921</name>
            </trkpt>
            <trkpt lat="49.8535552" lon="10.22256">
                <ele>200.0</ele>
                <time>2020-08-23T09:24:15.000Z</time>
                <name>Trackpoint 2922</name>
            </trkpt>
            <trkpt lat="49.8535648" lon="10.2224552">
                <ele>200.0</ele>
                <time>2020-08-23T09:24:16.000Z</time>
                <name>Trackpoint 2923</name>
            </trkpt>
            <trkpt lat="49.8535776" lon="10.222352">
                <ele>200.0</ele>
                <time>2020-08-23T09:24:17.000Z</time>
                <name>Trackpoint 2924</name>
            </trkpt>
            <trkpt lat="49.8535904" lon="10.2222416">
                <ele>199.0</ele>
                <time>2020-08-23T09:24:18.000Z</time>
                <name>Trackpoint 2925</name>
            </trkpt>
            <trkpt lat="49.8536064" lon="10.2221368">
                <ele>199.0</ele>
                <time>2020-08-23T09:24:19.000Z</time>
                <name>Trackpoint 2926</name>
            </trkpt>
            <trkpt lat="49.853616" lon="10.2220312">
                <ele>199.0</ele>
                <time>2020-08-23T09:24:20.000Z</time>
                <name>Trackpoint 2927</name>
            </trkpt>
            <trkpt lat="49.8536224" lon="10.2219264">
                <ele>199.0</ele>
                <time>2020-08-23T09:24:21.000Z</time>
                <name>Trackpoint 2928</name>
            </trkpt>
            <trkpt lat="49.8536288" lon="10.2218248">
                <ele>199.0</ele>
                <time>2020-08-23T09:24:22.000Z</time>
                <name>Trackpoint 2929</name>
            </trkpt>
            <trkpt lat="49.8536352" lon="10.221728">
                <ele>198.0</ele>
                <time>2020-08-23T09:24:23.000Z</time>
                <name>Trackpoint 2930</name>
            </trkpt>
            <trkpt lat="49.8536416" lon="10.2216352">
                <ele>198.0</ele>
                <time>2020-08-23T09:24:24.000Z</time>
                <name>Trackpoint 2931</name>
            </trkpt>
            <trkpt lat="49.8536416" lon="10.2215344">
                <ele>198.0</ele>
                <time>2020-08-23T09:24:25.000Z</time>
                <name>Trackpoint 2932</name>
            </trkpt>
            <trkpt lat="49.8536416" lon="10.2214336">
                <ele>198.0</ele>
                <time>2020-08-23T09:24:26.000Z</time>
                <name>Trackpoint 2933</name>
            </trkpt>
            <trkpt lat="49.8536352" lon="10.2213288">
                <ele>198.0</ele>
                <time>2020-08-23T09:24:27.000Z</time>
                <name>Trackpoint 2934</name>
            </trkpt>
            <trkpt lat="49.8536256" lon="10.2212288">
                <ele>199.0</ele>
                <time>2020-08-23T09:24:28.000Z</time>
                <name>Trackpoint 2935</name>
            </trkpt>
            <trkpt lat="49.853616" lon="10.2211312">
                <ele>199.0</ele>
                <time>2020-08-23T09:24:29.000Z</time>
                <name>Trackpoint 2936</name>
            </trkpt>
            <trkpt lat="49.8536064" lon="10.2210352">
                <ele>199.0</ele>
                <time>2020-08-23T09:24:30.000Z</time>
                <name>Trackpoint 2937</name>
            </trkpt>
            <trkpt lat="49.8536032" lon="10.2209384">
                <ele>199.0</ele>
                <time>2020-08-23T09:24:31.000Z</time>
                <name>Trackpoint 2938</name>
            </trkpt>
            <trkpt lat="49.8536032" lon="10.2208456">
                <ele>199.0</ele>
                <time>2020-08-23T09:24:32.000Z</time>
                <name>Trackpoint 2939</name>
            </trkpt>
            <trkpt lat="49.8536064" lon="10.2207536">
                <ele>199.0</ele>
                <time>2020-08-23T09:24:33.000Z</time>
                <name>Trackpoint 2940</name>
            </trkpt>
            <trkpt lat="49.8536416" lon="10.2205848">
                <ele>199.0</ele>
                <time>2020-08-23T09:24:35.000Z</time>
                <name>Trackpoint 2941</name>
            </trkpt>
            <trkpt lat="49.8537088" lon="10.2204416">
                <ele>198.0</ele>
                <time>2020-08-23T09:24:37.000Z</time>
                <name>Trackpoint 2942</name>
            </trkpt>
            <trkpt lat="49.853744" lon="10.220288">
                <ele>198.0</ele>
                <time>2020-08-23T09:24:39.000Z</time>
                <name>Trackpoint 2943</name>
            </trkpt>
            <trkpt lat="49.853744" lon="10.2201368">
                <ele>198.0</ele>
                <time>2020-08-23T09:24:41.000Z</time>
                <name>Trackpoint 2944</name>
            </trkpt>
            <trkpt lat="49.8537344" lon="10.219992">
                <ele>198.0</ele>
                <time>2020-08-23T09:24:43.000Z</time>
                <name>Trackpoint 2945</name>
            </trkpt>
            <trkpt lat="49.8537184" lon="10.2198232">
                <ele>197.0</ele>
                <time>2020-08-23T09:24:45.000Z</time>
                <name>Trackpoint 2946</name>
            </trkpt>
            <trkpt lat="49.8537184" lon="10.21972">
                <ele>197.0</ele>
                <time>2020-08-23T09:24:46.000Z</time>
                <name>Trackpoint 2947</name>
            </trkpt>
            <trkpt lat="49.8537248" lon="10.2196152">
                <ele>196.0</ele>
                <time>2020-08-23T09:24:47.000Z</time>
                <name>Trackpoint 2948</name>
            </trkpt>
            <trkpt lat="49.8537408" lon="10.2195056">
                <ele>195.0</ele>
                <time>2020-08-23T09:24:48.000Z</time>
                <name>Trackpoint 2949</name>
            </trkpt>
            <trkpt lat="49.8537568" lon="10.2193936">
                <ele>194.0</ele>
                <time>2020-08-23T09:24:49.000Z</time>
                <name>Trackpoint 2950</name>
            </trkpt>
            <trkpt lat="49.8537728" lon="10.21928">
                <ele>194.0</ele>
                <time>2020-08-23T09:24:50.000Z</time>
                <name>Trackpoint 2951</name>
            </trkpt>
            <trkpt lat="49.8537824" lon="10.219176">
                <ele>194.0</ele>
                <time>2020-08-23T09:24:51.000Z</time>
                <name>Trackpoint 2952</name>
            </trkpt>
            <trkpt lat="49.8537888" lon="10.2190736">
                <ele>194.0</ele>
                <time>2020-08-23T09:24:52.000Z</time>
                <name>Trackpoint 2953</name>
            </trkpt>
            <trkpt lat="49.8538016" lon="10.2189728">
                <ele>194.0</ele>
                <time>2020-08-23T09:24:53.000Z</time>
                <name>Trackpoint 2954</name>
            </trkpt>
            <trkpt lat="49.8538144" lon="10.2188752">
                <ele>194.0</ele>
                <time>2020-08-23T09:24:54.000Z</time>
                <name>Trackpoint 2955</name>
            </trkpt>
            <trkpt lat="49.8538272" lon="10.2187768">
                <ele>194.0</ele>
                <time>2020-08-23T09:24:55.000Z</time>
                <name>Trackpoint 2956</name>
            </trkpt>
            <trkpt lat="49.85384" lon="10.2186832">
                <ele>193.0</ele>
                <time>2020-08-23T09:24:56.000Z</time>
                <name>Trackpoint 2957</name>
            </trkpt>
            <trkpt lat="49.8538528" lon="10.2185896">
                <ele>193.0</ele>
                <time>2020-08-23T09:24:57.000Z</time>
                <name>Trackpoint 2958</name>
            </trkpt>
            <trkpt lat="49.8538624" lon="10.2185">
                <ele>193.0</ele>
                <time>2020-08-23T09:24:58.000Z</time>
                <name>Trackpoint 2959</name>
            </trkpt>
            <trkpt lat="49.8538848" lon="10.2183264">
                <ele>193.0</ele>
                <time>2020-08-23T09:25:00.000Z</time>
                <name>Trackpoint 2960</name>
            </trkpt>
            <trkpt lat="49.853904" lon="10.2181528">
                <ele>192.0</ele>
                <time>2020-08-23T09:25:02.000Z</time>
                <name>Trackpoint 2961</name>
            </trkpt>
            <trkpt lat="49.85392" lon="10.2179872">
                <ele>192.0</ele>
                <time>2020-08-23T09:25:04.000Z</time>
                <name>Trackpoint 2962</name>
            </trkpt>
            <trkpt lat="49.8539392" lon="10.2178296">
                <ele>192.0</ele>
                <time>2020-08-23T09:25:06.000Z</time>
                <name>Trackpoint 2963</name>
            </trkpt>
            <trkpt lat="49.8539584" lon="10.217684">
                <ele>192.0</ele>
                <time>2020-08-23T09:25:08.000Z</time>
                <name>Trackpoint 2964</name>
            </trkpt>
            <trkpt lat="49.853968" lon="10.217544">
                <ele>192.0</ele>
                <time>2020-08-23T09:25:10.000Z</time>
                <name>Trackpoint 2965</name>
            </trkpt>
            <trkpt lat="49.853984" lon="10.217408">
                <ele>191.0</ele>
                <time>2020-08-23T09:25:12.000Z</time>
                <name>Trackpoint 2966</name>
            </trkpt>
            <trkpt lat="49.8540064" lon="10.2172648">
                <ele>191.0</ele>
                <time>2020-08-23T09:25:14.000Z</time>
                <name>Trackpoint 2967</name>
            </trkpt>
            <trkpt lat="49.8540256" lon="10.2171232">
                <ele>191.0</ele>
                <time>2020-08-23T09:25:16.000Z</time>
                <name>Trackpoint 2968</name>
            </trkpt>
            <trkpt lat="49.8540416" lon="10.2169816">
                <ele>191.0</ele>
                <time>2020-08-23T09:25:18.000Z</time>
                <name>Trackpoint 2969</name>
            </trkpt>
            <trkpt lat="49.854064" lon="10.2168368">
                <ele>191.0</ele>
                <time>2020-08-23T09:25:20.000Z</time>
                <name>Trackpoint 2970</name>
            </trkpt>
            <trkpt lat="49.85408" lon="10.2166928">
                <ele>191.0</ele>
                <time>2020-08-23T09:25:22.000Z</time>
                <name>Trackpoint 2971</name>
            </trkpt>
            <trkpt lat="49.8540992" lon="10.216548">
                <ele>191.0</ele>
                <time>2020-08-23T09:25:24.000Z</time>
                <name>Trackpoint 2972</name>
            </trkpt>
            <trkpt lat="49.8541216" lon="10.2163936">
                <ele>191.0</ele>
                <time>2020-08-23T09:25:26.000Z</time>
                <name>Trackpoint 2973</name>
            </trkpt>
            <trkpt lat="49.8541248" lon="10.2162368">
                <ele>191.0</ele>
                <time>2020-08-23T09:25:28.000Z</time>
                <name>Trackpoint 2974</name>
            </trkpt>
            <trkpt lat="49.8541056" lon="10.21608">
                <ele>191.0</ele>
                <time>2020-08-23T09:25:30.000Z</time>
                <name>Trackpoint 2975</name>
            </trkpt>
            <trkpt lat="49.8540672" lon="10.2159296">
                <ele>192.0</ele>
                <time>2020-08-23T09:25:32.000Z</time>
                <name>Trackpoint 2976</name>
            </trkpt>
            <trkpt lat="49.8540224" lon="10.21578">
                <ele>192.0</ele>
                <time>2020-08-23T09:25:34.000Z</time>
                <name>Trackpoint 2977</name>
            </trkpt>
            <trkpt lat="49.8539744" lon="10.2156352">
                <ele>192.0</ele>
                <time>2020-08-23T09:25:36.000Z</time>
                <name>Trackpoint 2978</name>
            </trkpt>
            <trkpt lat="49.8539328" lon="10.2154952">
                <ele>192.0</ele>
                <time>2020-08-23T09:25:38.000Z</time>
                <name>Trackpoint 2979</name>
            </trkpt>
            <trkpt lat="49.853888" lon="10.2153616">
                <ele>192.0</ele>
                <time>2020-08-23T09:25:40.000Z</time>
                <name>Trackpoint 2980</name>
            </trkpt>
            <trkpt lat="49.8538528" lon="10.2152272">
                <ele>192.0</ele>
                <time>2020-08-23T09:25:42.000Z</time>
                <name>Trackpoint 2981</name>
            </trkpt>
            <trkpt lat="49.853808" lon="10.2151032">
                <ele>192.0</ele>
                <time>2020-08-23T09:25:44.000Z</time>
                <name>Trackpoint 2982</name>
            </trkpt>
            <trkpt lat="49.853776" lon="10.2149712">
                <ele>193.0</ele>
                <time>2020-08-23T09:25:46.000Z</time>
                <name>Trackpoint 2983</name>
            </trkpt>
            <trkpt lat="49.8537376" lon="10.2148352">
                <ele>193.0</ele>
                <time>2020-08-23T09:25:48.000Z</time>
                <name>Trackpoint 2984</name>
            </trkpt>
            <trkpt lat="49.853696" lon="10.2146928">
                <ele>193.0</ele>
                <time>2020-08-23T09:25:50.000Z</time>
                <name>Trackpoint 2985</name>
            </trkpt>
            <trkpt lat="49.853648" lon="10.214548">
                <ele>193.0</ele>
                <time>2020-08-23T09:25:52.000Z</time>
                <name>Trackpoint 2986</name>
            </trkpt>
            <trkpt lat="49.8536032" lon="10.2143984">
                <ele>193.0</ele>
                <time>2020-08-23T09:25:54.000Z</time>
                <name>Trackpoint 2987</name>
            </trkpt>
            <trkpt lat="49.8535584" lon="10.2142488">
                <ele>193.0</ele>
                <time>2020-08-23T09:25:56.000Z</time>
                <name>Trackpoint 2988</name>
            </trkpt>
            <trkpt lat="49.8535104" lon="10.2140976">
                <ele>193.0</ele>
                <time>2020-08-23T09:25:58.000Z</time>
                <name>Trackpoint 2989</name>
            </trkpt>
            <trkpt lat="49.8534624" lon="10.213948">
                <ele>193.0</ele>
                <time>2020-08-23T09:26:00.000Z</time>
                <name>Trackpoint 2990</name>
            </trkpt>
            <trkpt lat="49.8534176" lon="10.2137984">
                <ele>193.0</ele>
                <time>2020-08-23T09:26:02.000Z</time>
                <name>Trackpoint 2991</name>
            </trkpt>
            <trkpt lat="49.853376" lon="10.2136488">
                <ele>193.0</ele>
                <time>2020-08-23T09:26:04.000Z</time>
                <name>Trackpoint 2992</name>
            </trkpt>
            <trkpt lat="49.853328" lon="10.213496">
                <ele>193.0</ele>
                <time>2020-08-23T09:26:06.000Z</time>
                <name>Trackpoint 2993</name>
            </trkpt>
            <trkpt lat="49.8532832" lon="10.2133448">
                <ele>193.0</ele>
                <time>2020-08-23T09:26:08.000Z</time>
                <name>Trackpoint 2994</name>
            </trkpt>
            <trkpt lat="49.8532384" lon="10.2131928">
                <ele>194.0</ele>
                <time>2020-08-23T09:26:10.000Z</time>
                <name>Trackpoint 2995</name>
            </trkpt>
            <trkpt lat="49.8531872" lon="10.2130448">
                <ele>194.0</ele>
                <time>2020-08-23T09:26:12.000Z</time>
                <name>Trackpoint 2996</name>
            </trkpt>
            <trkpt lat="49.8531456" lon="10.2129032">
                <ele>194.0</ele>
                <time>2020-08-23T09:26:14.000Z</time>
                <name>Trackpoint 2997</name>
            </trkpt>
            <trkpt lat="49.853104" lon="10.2127584">
                <ele>193.0</ele>
                <time>2020-08-23T09:26:16.000Z</time>
                <name>Trackpoint 2998</name>
            </trkpt>
            <trkpt lat="49.8530624" lon="10.2126104">
                <ele>194.0</ele>
                <time>2020-08-23T09:26:18.000Z</time>
                <name>Trackpoint 2999</name>
            </trkpt>
            <trkpt lat="49.8530208" lon="10.212468">
                <ele>193.0</ele>
                <time>2020-08-23T09:26:20.000Z</time>
                <name>Trackpoint 3000</name>
            </trkpt>
            <trkpt lat="49.8529792" lon="10.2123184">
                <ele>193.0</ele>
                <time>2020-08-23T09:26:22.000Z</time>
                <name>Trackpoint 3001</name>
            </trkpt>
            <trkpt lat="49.852944" lon="10.21216">
                <ele>193.0</ele>
                <time>2020-08-23T09:26:24.000Z</time>
                <name>Trackpoint 3002</name>
            </trkpt>
            <trkpt lat="49.8529088" lon="10.2119968">
                <ele>193.0</ele>
                <time>2020-08-23T09:26:26.000Z</time>
                <name>Trackpoint 3003</name>
            </trkpt>
            <trkpt lat="49.8528832" lon="10.2118368">
                <ele>192.0</ele>
                <time>2020-08-23T09:26:28.000Z</time>
                <name>Trackpoint 3004</name>
            </trkpt>
            <trkpt lat="49.8528608" lon="10.2116832">
                <ele>192.0</ele>
                <time>2020-08-23T09:26:30.000Z</time>
                <name>Trackpoint 3005</name>
            </trkpt>
            <trkpt lat="49.8528352" lon="10.2115368">
                <ele>192.0</ele>
                <time>2020-08-23T09:26:32.000Z</time>
                <name>Trackpoint 3006</name>
            </trkpt>
            <trkpt lat="49.8528096" lon="10.2113832">
                <ele>192.0</ele>
                <time>2020-08-23T09:26:34.000Z</time>
                <name>Trackpoint 3007</name>
            </trkpt>
            <trkpt lat="49.8528" lon="10.2112264">
                <ele>192.0</ele>
                <time>2020-08-23T09:26:36.000Z</time>
                <name>Trackpoint 3008</name>
            </trkpt>
            <trkpt lat="49.852784" lon="10.211068">
                <ele>192.0</ele>
                <time>2020-08-23T09:26:38.000Z</time>
                <name>Trackpoint 3009</name>
            </trkpt>
            <trkpt lat="49.8527712" lon="10.210908">
                <ele>192.0</ele>
                <time>2020-08-23T09:26:40.000Z</time>
                <name>Trackpoint 3010</name>
            </trkpt>
            <trkpt lat="49.8527552" lon="10.2107448">
                <ele>192.0</ele>
                <time>2020-08-23T09:26:42.000Z</time>
                <name>Trackpoint 3011</name>
            </trkpt>
            <trkpt lat="49.8527424" lon="10.210584">
                <ele>192.0</ele>
                <time>2020-08-23T09:26:44.000Z</time>
                <name>Trackpoint 3012</name>
            </trkpt>
            <trkpt lat="49.8527168" lon="10.2104216">
                <ele>192.0</ele>
                <time>2020-08-23T09:26:46.000Z</time>
                <name>Trackpoint 3013</name>
            </trkpt>
            <trkpt lat="49.852704" lon="10.2102616">
                <ele>191.0</ele>
                <time>2020-08-23T09:26:48.000Z</time>
                <name>Trackpoint 3014</name>
            </trkpt>
            <trkpt lat="49.8526912" lon="10.2101">
                <ele>191.0</ele>
                <time>2020-08-23T09:26:50.000Z</time>
                <name>Trackpoint 3015</name>
            </trkpt>
            <trkpt lat="49.852672" lon="10.2099488">
                <ele>191.0</ele>
                <time>2020-08-23T09:26:52.000Z</time>
                <name>Trackpoint 3016</name>
            </trkpt>
            <trkpt lat="49.8526496" lon="10.2098064">
                <ele>191.0</ele>
                <time>2020-08-23T09:26:54.000Z</time>
                <name>Trackpoint 3017</name>
            </trkpt>
            <trkpt lat="49.8526368" lon="10.2096632">
                <ele>191.0</ele>
                <time>2020-08-23T09:26:56.000Z</time>
                <name>Trackpoint 3018</name>
            </trkpt>
            <trkpt lat="49.8526624" lon="10.2095136">
                <ele>191.0</ele>
                <time>2020-08-23T09:26:58.000Z</time>
                <name>Trackpoint 3019</name>
            </trkpt>
            <trkpt lat="49.852672" lon="10.2093736">
                <ele>191.0</ele>
                <time>2020-08-23T09:27:00.000Z</time>
                <name>Trackpoint 3020</name>
            </trkpt>
            <trkpt lat="49.8526752" lon="10.2092352">
                <ele>191.0</ele>
                <time>2020-08-23T09:27:02.000Z</time>
                <name>Trackpoint 3021</name>
            </trkpt>
            <trkpt lat="49.852672" lon="10.2090928">
                <ele>192.0</ele>
                <time>2020-08-23T09:27:04.000Z</time>
                <name>Trackpoint 3022</name>
            </trkpt>
            <trkpt lat="49.8526688" lon="10.2089464">
                <ele>192.0</ele>
                <time>2020-08-23T09:27:06.000Z</time>
                <name>Trackpoint 3023</name>
            </trkpt>
            <trkpt lat="49.8526816" lon="10.2088096">
                <ele>192.0</ele>
                <time>2020-08-23T09:27:08.000Z</time>
                <name>Trackpoint 3024</name>
            </trkpt>
            <trkpt lat="49.8527136" lon="10.2086952">
                <ele>192.0</ele>
                <time>2020-08-23T09:27:10.000Z</time>
                <name>Trackpoint 3025</name>
            </trkpt>
            <trkpt lat="49.852768" lon="10.2085864">
                <ele>193.0</ele>
                <time>2020-08-23T09:27:12.000Z</time>
                <name>Trackpoint 3026</name>
            </trkpt>
            <trkpt lat="49.8528032" lon="10.2084888">
                <ele>192.0</ele>
                <time>2020-08-23T09:27:14.000Z</time>
                <name>Trackpoint 3027</name>
            </trkpt>
            <trkpt lat="49.8528448" lon="10.2083784">
                <ele>192.0</ele>
                <time>2020-08-23T09:27:16.000Z</time>
                <name>Trackpoint 3028</name>
            </trkpt>
            <trkpt lat="49.85288" lon="10.208292">
                <ele>193.0</ele>
                <time>2020-08-23T09:27:17.000Z</time>
                <name>Trackpoint 3029</name>
            </trkpt>
            <trkpt lat="49.8529312" lon="10.2081336">
                <ele>192.0</ele>
                <time>2020-08-23T09:27:19.000Z</time>
                <name>Trackpoint 3030</name>
            </trkpt>
            <trkpt lat="49.85296" lon="10.2079872">
                <ele>191.0</ele>
                <time>2020-08-23T09:27:21.000Z</time>
                <name>Trackpoint 3031</name>
            </trkpt>
            <trkpt lat="49.8529824" lon="10.2078616">
                <ele>191.0</ele>
                <time>2020-08-23T09:27:23.000Z</time>
                <name>Trackpoint 3032</name>
            </trkpt>
            <trkpt lat="49.8529888" lon="10.2077128">
                <ele>191.0</ele>
                <time>2020-08-23T09:27:25.000Z</time>
                <name>Trackpoint 3033</name>
            </trkpt>
            <trkpt lat="49.8530144" lon="10.2075768">
                <ele>191.0</ele>
                <time>2020-08-23T09:27:27.000Z</time>
                <name>Trackpoint 3034</name>
            </trkpt>
            <trkpt lat="49.8530528" lon="10.2074384">
                <ele>191.0</ele>
                <time>2020-08-23T09:27:29.000Z</time>
                <name>Trackpoint 3035</name>
            </trkpt>
            <trkpt lat="49.853072" lon="10.2073184">
                <ele>191.0</ele>
                <time>2020-08-23T09:27:31.000Z</time>
                <name>Trackpoint 3036</name>
            </trkpt>
            <trkpt lat="49.8530912" lon="10.2071936">
                <ele>191.0</ele>
                <time>2020-08-23T09:27:33.000Z</time>
                <name>Trackpoint 3037</name>
            </trkpt>
            <trkpt lat="49.8531424" lon="10.2070576">
                <ele>191.0</ele>
                <time>2020-08-23T09:27:35.000Z</time>
                <name>Trackpoint 3038</name>
            </trkpt>
            <trkpt lat="49.8531712" lon="10.2069632">
                <ele>191.0</ele>
                <time>2020-08-23T09:27:37.000Z</time>
                <name>Trackpoint 3039</name>
            </trkpt>
            <trkpt lat="49.8532224" lon="10.2068392">
                <ele>191.0</ele>
                <time>2020-08-23T09:27:39.000Z</time>
                <name>Trackpoint 3040</name>
            </trkpt>
            <trkpt lat="49.8532864" lon="10.2066936">
                <ele>192.0</ele>
                <time>2020-08-23T09:27:41.000Z</time>
                <name>Trackpoint 3041</name>
            </trkpt>
            <trkpt lat="49.8533408" lon="10.2065552">
                <ele>192.0</ele>
                <time>2020-08-23T09:27:43.000Z</time>
                <name>Trackpoint 3042</name>
            </trkpt>
            <trkpt lat="49.8533792" lon="10.2064352">
                <ele>192.0</ele>
                <time>2020-08-23T09:27:45.000Z</time>
                <name>Trackpoint 3043</name>
            </trkpt>
            <trkpt lat="49.8534432" lon="10.2062904">
                <ele>192.0</ele>
                <time>2020-08-23T09:27:47.000Z</time>
                <name>Trackpoint 3044</name>
            </trkpt>
            <trkpt lat="49.8534688" lon="10.2061816">
                <ele>192.0</ele>
                <time>2020-08-23T09:27:49.000Z</time>
                <name>Trackpoint 3045</name>
            </trkpt>
            <trkpt lat="49.8535072" lon="10.2060616">
                <ele>192.0</ele>
                <time>2020-08-23T09:27:51.000Z</time>
                <name>Trackpoint 3046</name>
            </trkpt>
            <trkpt lat="49.85352" lon="10.2059568">
                <ele>193.0</ele>
                <time>2020-08-23T09:27:53.000Z</time>
                <name>Trackpoint 3047</name>
            </trkpt>
            <trkpt lat="49.8535584" lon="10.20586">
                <ele>193.0</ele>
                <time>2020-08-23T09:27:55.000Z</time>
                <name>Trackpoint 3048</name>
            </trkpt>
            <trkpt lat="49.8536192" lon="10.2057536">
                <ele>193.0</ele>
                <time>2020-08-23T09:27:57.000Z</time>
                <name>Trackpoint 3049</name>
            </trkpt>
            <trkpt lat="49.8536864" lon="10.2056176">
                <ele>193.0</ele>
                <time>2020-08-23T09:27:59.000Z</time>
                <name>Trackpoint 3050</name>
            </trkpt>
            <trkpt lat="49.8537632" lon="10.2054952">
                <ele>193.0</ele>
                <time>2020-08-23T09:28:01.000Z</time>
                <name>Trackpoint 3051</name>
            </trkpt>
            <trkpt lat="49.8538528" lon="10.2053736">
                <ele>193.0</ele>
                <time>2020-08-23T09:28:03.000Z</time>
                <name>Trackpoint 3052</name>
            </trkpt>
            <trkpt lat="49.8539232" lon="10.2052616">
                <ele>193.0</ele>
                <time>2020-08-23T09:28:05.000Z</time>
                <name>Trackpoint 3053</name>
            </trkpt>
            <trkpt lat="49.8540032" lon="10.2051384">
                <ele>193.0</ele>
                <time>2020-08-23T09:28:07.000Z</time>
                <name>Trackpoint 3054</name>
            </trkpt>
            <trkpt lat="49.8540672" lon="10.2050264">
                <ele>193.0</ele>
                <time>2020-08-23T09:28:09.000Z</time>
                <name>Trackpoint 3055</name>
            </trkpt>
            <trkpt lat="49.8541344" lon="10.20492">
                <ele>193.0</ele>
                <time>2020-08-23T09:28:11.000Z</time>
                <name>Trackpoint 3056</name>
            </trkpt>
            <trkpt lat="49.8541952" lon="10.2048184">
                <ele>193.0</ele>
                <time>2020-08-23T09:28:13.000Z</time>
                <name>Trackpoint 3057</name>
            </trkpt>
            <trkpt lat="49.8542752" lon="10.2047104">
                <ele>193.0</ele>
                <time>2020-08-23T09:28:15.000Z</time>
                <name>Trackpoint 3058</name>
            </trkpt>
            <trkpt lat="49.854352" lon="10.2046">
                <ele>193.0</ele>
                <time>2020-08-23T09:28:17.000Z</time>
                <name>Trackpoint 3059</name>
            </trkpt>
            <trkpt lat="49.8544288" lon="10.2044896">
                <ele>193.0</ele>
                <time>2020-08-23T09:28:19.000Z</time>
                <name>Trackpoint 3060</name>
            </trkpt>
            <trkpt lat="49.8545088" lon="10.2043712">
                <ele>193.0</ele>
                <time>2020-08-23T09:28:21.000Z</time>
                <name>Trackpoint 3061</name>
            </trkpt>
            <trkpt lat="49.8545824" lon="10.2042528">
                <ele>193.0</ele>
                <time>2020-08-23T09:28:23.000Z</time>
                <name>Trackpoint 3062</name>
            </trkpt>
            <trkpt lat="49.8546592" lon="10.204132">
                <ele>193.0</ele>
                <time>2020-08-23T09:28:25.000Z</time>
                <name>Trackpoint 3063</name>
            </trkpt>
            <trkpt lat="49.8547424" lon="10.2040192">
                <ele>193.0</ele>
                <time>2020-08-23T09:28:27.000Z</time>
                <name>Trackpoint 3064</name>
            </trkpt>
            <trkpt lat="49.8548128" lon="10.2039272">
                <ele>194.0</ele>
                <time>2020-08-23T09:28:29.000Z</time>
                <name>Trackpoint 3065</name>
            </trkpt>
            <trkpt lat="49.8548736" lon="10.2038344">
                <ele>194.0</ele>
                <time>2020-08-23T09:28:31.000Z</time>
                <name>Trackpoint 3066</name>
            </trkpt>
            <trkpt lat="49.8549312" lon="10.2037424">
                <ele>194.0</ele>
                <time>2020-08-23T09:28:33.000Z</time>
                <name>Trackpoint 3067</name>
            </trkpt>
            <trkpt lat="49.8549952" lon="10.2036368">
                <ele>194.0</ele>
                <time>2020-08-23T09:28:35.000Z</time>
                <name>Trackpoint 3068</name>
            </trkpt>
            <trkpt lat="49.855072" lon="10.2035416">
                <ele>194.0</ele>
                <time>2020-08-23T09:28:37.000Z</time>
                <name>Trackpoint 3069</name>
            </trkpt>
            <trkpt lat="49.8551392" lon="10.2034304">
                <ele>194.0</ele>
                <time>2020-08-23T09:28:39.000Z</time>
                <name>Trackpoint 3070</name>
            </trkpt>
            <trkpt lat="49.8551968" lon="10.2033128">
                <ele>194.0</ele>
                <time>2020-08-23T09:28:41.000Z</time>
                <name>Trackpoint 3071</name>
            </trkpt>
            <trkpt lat="49.8552896" lon="10.2031896">
                <ele>194.0</ele>
                <time>2020-08-23T09:28:43.000Z</time>
                <name>Trackpoint 3072</name>
            </trkpt>
            <trkpt lat="49.8553856" lon="10.20306">
                <ele>194.0</ele>
                <time>2020-08-23T09:28:45.000Z</time>
                <name>Trackpoint 3073</name>
            </trkpt>
            <trkpt lat="49.855472" lon="10.2029552">
                <ele>194.0</ele>
                <time>2020-08-23T09:28:47.000Z</time>
                <name>Trackpoint 3074</name>
            </trkpt>
            <trkpt lat="49.855536" lon="10.2028536">
                <ele>195.0</ele>
                <time>2020-08-23T09:28:49.000Z</time>
                <name>Trackpoint 3075</name>
            </trkpt>
            <trkpt lat="49.855616" lon="10.2027416">
                <ele>195.0</ele>
                <time>2020-08-23T09:28:51.000Z</time>
                <name>Trackpoint 3076</name>
            </trkpt>
            <trkpt lat="49.85568" lon="10.202668">
                <ele>195.0</ele>
                <time>2020-08-23T09:28:53.000Z</time>
                <name>Trackpoint 3077</name>
            </trkpt>
            <trkpt lat="49.8557408" lon="10.2025936">
                <ele>195.0</ele>
                <time>2020-08-23T09:28:55.000Z</time>
                <name>Trackpoint 3078</name>
            </trkpt>
            <trkpt lat="49.855808" lon="10.2024632">
                <ele>195.0</ele>
                <time>2020-08-23T09:28:57.000Z</time>
                <name>Trackpoint 3079</name>
            </trkpt>
            <trkpt lat="49.855872" lon="10.202376">
                <ele>196.0</ele>
                <time>2020-08-23T09:28:59.000Z</time>
                <name>Trackpoint 3080</name>
            </trkpt>
            <trkpt lat="49.8559136" lon="10.2022832">
                <ele>196.0</ele>
                <time>2020-08-23T09:29:01.000Z</time>
                <name>Trackpoint 3081</name>
            </trkpt>
            <trkpt lat="49.8559872" lon="10.2022">
                <ele>195.0</ele>
                <time>2020-08-23T09:29:03.000Z</time>
                <name>Trackpoint 3082</name>
            </trkpt>
            <trkpt lat="49.8560448" lon="10.2021248">
                <ele>196.0</ele>
                <time>2020-08-23T09:29:05.000Z</time>
                <name>Trackpoint 3083</name>
            </trkpt>
            <trkpt lat="49.8561184" lon="10.2020304">
                <ele>196.0</ele>
                <time>2020-08-23T09:29:07.000Z</time>
                <name>Trackpoint 3084</name>
            </trkpt>
            <trkpt lat="49.8561888" lon="10.2019256">
                <ele>197.0</ele>
                <time>2020-08-23T09:29:09.000Z</time>
                <name>Trackpoint 3085</name>
            </trkpt>
            <trkpt lat="49.8562624" lon="10.20182">
                <ele>196.0</ele>
                <time>2020-08-23T09:29:11.000Z</time>
                <name>Trackpoint 3086</name>
            </trkpt>
            <trkpt lat="49.8563232" lon="10.2016888">
                <ele>196.0</ele>
                <time>2020-08-23T09:29:13.000Z</time>
                <name>Trackpoint 3087</name>
            </trkpt>
            <trkpt lat="49.8563744" lon="10.201576">
                <ele>196.0</ele>
                <time>2020-08-23T09:29:15.000Z</time>
                <name>Trackpoint 3088</name>
            </trkpt>
            <trkpt lat="49.8564224" lon="10.2014864">
                <ele>197.0</ele>
                <time>2020-08-23T09:29:17.000Z</time>
                <name>Trackpoint 3089</name>
            </trkpt>
            <trkpt lat="49.8565056" lon="10.2013928">
                <ele>197.0</ele>
                <time>2020-08-23T09:29:19.000Z</time>
                <name>Trackpoint 3090</name>
            </trkpt>
            <trkpt lat="49.8565888" lon="10.2012952">
                <ele>197.0</ele>
                <time>2020-08-23T09:29:21.000Z</time>
                <name>Trackpoint 3091</name>
            </trkpt>
            <trkpt lat="49.8566592" lon="10.2011896">
                <ele>197.0</ele>
                <time>2020-08-23T09:29:23.000Z</time>
                <name>Trackpoint 3092</name>
            </trkpt>
            <trkpt lat="49.85672" lon="10.2010848">
                <ele>197.0</ele>
                <time>2020-08-23T09:29:25.000Z</time>
                <name>Trackpoint 3093</name>
            </trkpt>
            <trkpt lat="49.856784" lon="10.2009888">
                <ele>198.0</ele>
                <time>2020-08-23T09:29:27.000Z</time>
                <name>Trackpoint 3094</name>
            </trkpt>
            <trkpt lat="49.8568416" lon="10.2008984">
                <ele>197.0</ele>
                <time>2020-08-23T09:29:29.000Z</time>
                <name>Trackpoint 3095</name>
            </trkpt>
            <trkpt lat="49.8569024" lon="10.2007952">
                <ele>198.0</ele>
                <time>2020-08-23T09:29:31.000Z</time>
                <name>Trackpoint 3096</name>
            </trkpt>
            <trkpt lat="49.8569632" lon="10.2006912">
                <ele>198.0</ele>
                <time>2020-08-23T09:29:33.000Z</time>
                <name>Trackpoint 3097</name>
            </trkpt>
            <trkpt lat="49.857024" lon="10.2005816">
                <ele>197.0</ele>
                <time>2020-08-23T09:29:35.000Z</time>
                <name>Trackpoint 3098</name>
            </trkpt>
            <trkpt lat="49.8570848" lon="10.2004632">
                <ele>197.0</ele>
                <time>2020-08-23T09:29:37.000Z</time>
                <name>Trackpoint 3099</name>
            </trkpt>
            <trkpt lat="49.8571424" lon="10.2003448">
                <ele>197.0</ele>
                <time>2020-08-23T09:29:39.000Z</time>
                <name>Trackpoint 3100</name>
            </trkpt>
            <trkpt lat="49.8572" lon="10.2002336">
                <ele>196.0</ele>
                <time>2020-08-23T09:29:41.000Z</time>
                <name>Trackpoint 3101</name>
            </trkpt>
            <trkpt lat="49.8572576" lon="10.2001152">
                <ele>197.0</ele>
                <time>2020-08-23T09:29:43.000Z</time>
                <name>Trackpoint 3102</name>
            </trkpt>
            <trkpt lat="49.8573184" lon="10.1999928">
                <ele>196.0</ele>
                <time>2020-08-23T09:29:45.000Z</time>
                <name>Trackpoint 3103</name>
            </trkpt>
            <trkpt lat="49.8573888" lon="10.1998632">
                <ele>196.0</ele>
                <time>2020-08-23T09:29:47.000Z</time>
                <name>Trackpoint 3104</name>
            </trkpt>
            <trkpt lat="49.8574528" lon="10.1997184">
                <ele>196.0</ele>
                <time>2020-08-23T09:29:49.000Z</time>
                <name>Trackpoint 3105</name>
            </trkpt>
            <trkpt lat="49.8575104" lon="10.199592">
                <ele>196.0</ele>
                <time>2020-08-23T09:29:51.000Z</time>
                <name>Trackpoint 3106</name>
            </trkpt>
            <trkpt lat="49.8575744" lon="10.1994664">
                <ele>196.0</ele>
                <time>2020-08-23T09:29:53.000Z</time>
                <name>Trackpoint 3107</name>
            </trkpt>
            <trkpt lat="49.8576352" lon="10.1993376">
                <ele>196.0</ele>
                <time>2020-08-23T09:29:55.000Z</time>
                <name>Trackpoint 3108</name>
            </trkpt>
            <trkpt lat="49.8576928" lon="10.199208">
                <ele>196.0</ele>
                <time>2020-08-23T09:29:57.000Z</time>
                <name>Trackpoint 3109</name>
            </trkpt>
            <trkpt lat="49.8577536" lon="10.1990808">
                <ele>195.0</ele>
                <time>2020-08-23T09:29:59.000Z</time>
                <name>Trackpoint 3110</name>
            </trkpt>
            <trkpt lat="49.8578176" lon="10.1989432">
                <ele>195.0</ele>
                <time>2020-08-23T09:30:01.000Z</time>
                <name>Trackpoint 3111</name>
            </trkpt>
            <trkpt lat="49.8578848" lon="10.1987984">
                <ele>196.0</ele>
                <time>2020-08-23T09:30:03.000Z</time>
                <name>Trackpoint 3112</name>
            </trkpt>
            <trkpt lat="49.857952" lon="10.19866">
                <ele>196.0</ele>
                <time>2020-08-23T09:30:05.000Z</time>
                <name>Trackpoint 3113</name>
            </trkpt>
            <trkpt lat="49.8580352" lon="10.198512">
                <ele>196.0</ele>
                <time>2020-08-23T09:30:07.000Z</time>
                <name>Trackpoint 3114</name>
            </trkpt>
            <trkpt lat="49.8581024" lon="10.1983784">
                <ele>196.0</ele>
                <time>2020-08-23T09:30:09.000Z</time>
                <name>Trackpoint 3115</name>
            </trkpt>
            <trkpt lat="49.8581568" lon="10.1982336">
                <ele>197.0</ele>
                <time>2020-08-23T09:30:11.000Z</time>
                <name>Trackpoint 3116</name>
            </trkpt>
            <trkpt lat="49.8582272" lon="10.1981">
                <ele>197.0</ele>
                <time>2020-08-23T09:30:13.000Z</time>
                <name>Trackpoint 3117</name>
            </trkpt>
            <trkpt lat="49.8582944" lon="10.1979664">
                <ele>197.0</ele>
                <time>2020-08-23T09:30:15.000Z</time>
                <name>Trackpoint 3118</name>
            </trkpt>
            <trkpt lat="49.8583616" lon="10.19784">
                <ele>196.0</ele>
                <time>2020-08-23T09:30:17.000Z</time>
                <name>Trackpoint 3119</name>
            </trkpt>
            <trkpt lat="49.8584256" lon="10.1977128">
                <ele>196.0</ele>
                <time>2020-08-23T09:30:19.000Z</time>
                <name>Trackpoint 3120</name>
            </trkpt>
            <trkpt lat="49.8584864" lon="10.1975848">
                <ele>196.0</ele>
                <time>2020-08-23T09:30:21.000Z</time>
                <name>Trackpoint 3121</name>
            </trkpt>
            <trkpt lat="49.8585472" lon="10.197456">
                <ele>196.0</ele>
                <time>2020-08-23T09:30:23.000Z</time>
                <name>Trackpoint 3122</name>
            </trkpt>
            <trkpt lat="49.8586112" lon="10.1973248">
                <ele>196.0</ele>
                <time>2020-08-23T09:30:25.000Z</time>
                <name>Trackpoint 3123</name>
            </trkpt>
            <trkpt lat="49.8586784" lon="10.197188">
                <ele>196.0</ele>
                <time>2020-08-23T09:30:27.000Z</time>
                <name>Trackpoint 3124</name>
            </trkpt>
            <trkpt lat="49.8587488" lon="10.1970504">
                <ele>197.0</ele>
                <time>2020-08-23T09:30:29.000Z</time>
                <name>Trackpoint 3125</name>
            </trkpt>
            <trkpt lat="49.8588192" lon="10.196912">
                <ele>197.0</ele>
                <time>2020-08-23T09:30:31.000Z</time>
                <name>Trackpoint 3126</name>
            </trkpt>
            <trkpt lat="49.8588704" lon="10.1967872">
                <ele>197.0</ele>
                <time>2020-08-23T09:30:33.000Z</time>
                <name>Trackpoint 3127</name>
            </trkpt>
            <trkpt lat="49.858928" lon="10.19666">
                <ele>196.0</ele>
                <time>2020-08-23T09:30:35.000Z</time>
                <name>Trackpoint 3128</name>
            </trkpt>
            <trkpt lat="49.8589856" lon="10.196524">
                <ele>197.0</ele>
                <time>2020-08-23T09:30:37.000Z</time>
                <name>Trackpoint 3129</name>
            </trkpt>
            <trkpt lat="49.85904" lon="10.1963832">
                <ele>197.0</ele>
                <time>2020-08-23T09:30:39.000Z</time>
                <name>Trackpoint 3130</name>
            </trkpt>
            <trkpt lat="49.8590976" lon="10.1962448">
                <ele>197.0</ele>
                <time>2020-08-23T09:30:41.000Z</time>
                <name>Trackpoint 3131</name>
            </trkpt>
            <trkpt lat="49.8591424" lon="10.1961048">
                <ele>198.0</ele>
                <time>2020-08-23T09:30:43.000Z</time>
                <name>Trackpoint 3132</name>
            </trkpt>
            <trkpt lat="49.8591872" lon="10.1959712">
                <ele>198.0</ele>
                <time>2020-08-23T09:30:45.000Z</time>
                <name>Trackpoint 3133</name>
            </trkpt>
            <trkpt lat="49.8592352" lon="10.195844">
                <ele>198.0</ele>
                <time>2020-08-23T09:30:47.000Z</time>
                <name>Trackpoint 3134</name>
            </trkpt>
            <trkpt lat="49.8592832" lon="10.1957168">
                <ele>198.0</ele>
                <time>2020-08-23T09:30:49.000Z</time>
                <name>Trackpoint 3135</name>
            </trkpt>
            <trkpt lat="49.8593344" lon="10.195592">
                <ele>198.0</ele>
                <time>2020-08-23T09:30:51.000Z</time>
                <name>Trackpoint 3136</name>
            </trkpt>
            <trkpt lat="49.8593792" lon="10.195468">
                <ele>197.0</ele>
                <time>2020-08-23T09:30:53.000Z</time>
                <name>Trackpoint 3137</name>
            </trkpt>
            <trkpt lat="49.8594272" lon="10.1953424">
                <ele>197.0</ele>
                <time>2020-08-23T09:30:55.000Z</time>
                <name>Trackpoint 3138</name>
            </trkpt>
            <trkpt lat="49.8594752" lon="10.1952136">
                <ele>198.0</ele>
                <time>2020-08-23T09:30:57.000Z</time>
                <name>Trackpoint 3139</name>
            </trkpt>
            <trkpt lat="49.85952" lon="10.1950848">
                <ele>198.0</ele>
                <time>2020-08-23T09:30:59.000Z</time>
                <name>Trackpoint 3140</name>
            </trkpt>
            <trkpt lat="49.8595744" lon="10.1949552">
                <ele>198.0</ele>
                <time>2020-08-23T09:31:01.000Z</time>
                <name>Trackpoint 3141</name>
            </trkpt>
            <trkpt lat="49.8596192" lon="10.1948272">
                <ele>198.0</ele>
                <time>2020-08-23T09:31:03.000Z</time>
                <name>Trackpoint 3142</name>
            </trkpt>
            <trkpt lat="49.8596672" lon="10.1946968">
                <ele>198.0</ele>
                <time>2020-08-23T09:31:05.000Z</time>
                <name>Trackpoint 3143</name>
            </trkpt>
            <trkpt lat="49.8597184" lon="10.1945648">
                <ele>199.0</ele>
                <time>2020-08-23T09:31:07.000Z</time>
                <name>Trackpoint 3144</name>
            </trkpt>
            <trkpt lat="49.85976" lon="10.1944368">
                <ele>199.0</ele>
                <time>2020-08-23T09:31:09.000Z</time>
                <name>Trackpoint 3145</name>
            </trkpt>
            <trkpt lat="49.8598048" lon="10.1943064">
                <ele>199.0</ele>
                <time>2020-08-23T09:31:11.000Z</time>
                <name>Trackpoint 3146</name>
            </trkpt>
            <trkpt lat="49.8598496" lon="10.1941784">
                <ele>200.0</ele>
                <time>2020-08-23T09:31:13.000Z</time>
                <name>Trackpoint 3147</name>
            </trkpt>
            <trkpt lat="49.8598784" lon="10.1940472">
                <ele>200.0</ele>
                <time>2020-08-23T09:31:15.000Z</time>
                <name>Trackpoint 3148</name>
            </trkpt>
            <trkpt lat="49.8599008" lon="10.19392">
                <ele>199.0</ele>
                <time>2020-08-23T09:31:17.000Z</time>
                <name>Trackpoint 3149</name>
            </trkpt>
            <trkpt lat="49.85992" lon="10.1938064">
                <ele>198.0</ele>
                <time>2020-08-23T09:31:19.000Z</time>
                <name>Trackpoint 3150</name>
            </trkpt>
            <trkpt lat="49.8599488" lon="10.1936912">
                <ele>196.0</ele>
                <time>2020-08-23T09:31:21.000Z</time>
                <name>Trackpoint 3151</name>
            </trkpt>
            <trkpt lat="49.8599648" lon="10.1935752">
                <ele>195.0</ele>
                <time>2020-08-23T09:31:23.000Z</time>
                <name>Trackpoint 3152</name>
            </trkpt>
            <trkpt lat="49.8599776" lon="10.1934536">
                <ele>195.0</ele>
                <time>2020-08-23T09:31:25.000Z</time>
                <name>Trackpoint 3153</name>
            </trkpt>
            <trkpt lat="49.8600096" lon="10.1933296">
                <ele>195.0</ele>
                <time>2020-08-23T09:31:27.000Z</time>
                <name>Trackpoint 3154</name>
            </trkpt>
            <trkpt lat="49.8600512" lon="10.1932248">
                <ele>195.0</ele>
                <time>2020-08-23T09:31:29.000Z</time>
                <name>Trackpoint 3155</name>
            </trkpt>
            <trkpt lat="49.8600896" lon="10.1931232">
                <ele>196.0</ele>
                <time>2020-08-23T09:31:31.000Z</time>
                <name>Trackpoint 3156</name>
            </trkpt>
            <trkpt lat="49.8600896" lon="10.1929976">
                <ele>197.0</ele>
                <time>2020-08-23T09:31:33.000Z</time>
                <name>Trackpoint 3157</name>
            </trkpt>
            <trkpt lat="49.8600608" lon="10.1928832">
                <ele>197.0</ele>
                <time>2020-08-23T09:31:35.000Z</time>
                <name>Trackpoint 3158</name>
            </trkpt>
            <trkpt lat="49.8600224" lon="10.1927744">
                <ele>197.0</ele>
                <time>2020-08-23T09:31:37.000Z</time>
                <name>Trackpoint 3159</name>
            </trkpt>
            <trkpt lat="49.8600032" lon="10.1926568">
                <ele>197.0</ele>
                <time>2020-08-23T09:31:39.000Z</time>
                <name>Trackpoint 3160</name>
            </trkpt>
            <trkpt lat="49.8600096" lon="10.1925288">
                <ele>197.0</ele>
                <time>2020-08-23T09:31:41.000Z</time>
                <name>Trackpoint 3161</name>
            </trkpt>
            <trkpt lat="49.8600128" lon="10.1924048">
                <ele>196.0</ele>
                <time>2020-08-23T09:31:43.000Z</time>
                <name>Trackpoint 3162</name>
            </trkpt>
            <trkpt lat="49.8600096" lon="10.1922864">
                <ele>196.0</ele>
                <time>2020-08-23T09:31:45.000Z</time>
                <name>Trackpoint 3163</name>
            </trkpt>
            <trkpt lat="49.8600096" lon="10.1921752">
                <ele>196.0</ele>
                <time>2020-08-23T09:31:47.000Z</time>
                <name>Trackpoint 3164</name>
            </trkpt>
            <trkpt lat="49.8600032" lon="10.1920744">
                <ele>196.0</ele>
                <time>2020-08-23T09:31:49.000Z</time>
                <name>Trackpoint 3165</name>
            </trkpt>
            <trkpt lat="49.8600032" lon="10.191972">
                <ele>195.0</ele>
                <time>2020-08-23T09:31:51.000Z</time>
                <name>Trackpoint 3166</name>
            </trkpt>
            <trkpt lat="49.8600096" lon="10.1918536">
                <ele>195.0</ele>
                <time>2020-08-23T09:31:53.000Z</time>
                <name>Trackpoint 3167</name>
            </trkpt>
            <trkpt lat="49.8600128" lon="10.1917336">
                <ele>195.0</ele>
                <time>2020-08-23T09:31:55.000Z</time>
                <name>Trackpoint 3168</name>
            </trkpt>
            <trkpt lat="49.8600128" lon="10.1916064">
                <ele>195.0</ele>
                <time>2020-08-23T09:31:57.000Z</time>
                <name>Trackpoint 3169</name>
            </trkpt>
            <trkpt lat="49.860016" lon="10.1914768">
                <ele>195.0</ele>
                <time>2020-08-23T09:31:59.000Z</time>
                <name>Trackpoint 3170</name>
            </trkpt>
            <trkpt lat="49.8600192" lon="10.1913408">
                <ele>195.0</ele>
                <time>2020-08-23T09:32:01.000Z</time>
                <name>Trackpoint 3171</name>
            </trkpt>
            <trkpt lat="49.860016" lon="10.1912048">
                <ele>195.0</ele>
                <time>2020-08-23T09:32:03.000Z</time>
                <name>Trackpoint 3172</name>
            </trkpt>
            <trkpt lat="49.8600128" lon="10.1910696">
                <ele>195.0</ele>
                <time>2020-08-23T09:32:05.000Z</time>
                <name>Trackpoint 3173</name>
            </trkpt>
            <trkpt lat="49.8600128" lon="10.1909288">
                <ele>195.0</ele>
                <time>2020-08-23T09:32:07.000Z</time>
                <name>Trackpoint 3174</name>
            </trkpt>
            <trkpt lat="49.860016" lon="10.1907832">
                <ele>195.0</ele>
                <time>2020-08-23T09:32:09.000Z</time>
                <name>Trackpoint 3175</name>
            </trkpt>
            <trkpt lat="49.8600128" lon="10.1906368">
                <ele>195.0</ele>
                <time>2020-08-23T09:32:11.000Z</time>
                <name>Trackpoint 3176</name>
            </trkpt>
            <trkpt lat="49.8600128" lon="10.1904944">
                <ele>195.0</ele>
                <time>2020-08-23T09:32:13.000Z</time>
                <name>Trackpoint 3177</name>
            </trkpt>
            <trkpt lat="49.860016" lon="10.1903616">
                <ele>194.0</ele>
                <time>2020-08-23T09:32:15.000Z</time>
                <name>Trackpoint 3178</name>
            </trkpt>
            <trkpt lat="49.860032" lon="10.1902288">
                <ele>194.0</ele>
                <time>2020-08-23T09:32:17.000Z</time>
                <name>Trackpoint 3179</name>
            </trkpt>
            <trkpt lat="49.8600224" lon="10.1901064">
                <ele>194.0</ele>
                <time>2020-08-23T09:32:19.000Z</time>
                <name>Trackpoint 3180</name>
            </trkpt>
            <trkpt lat="49.860016" lon="10.1900016">
                <ele>195.0</ele>
                <time>2020-08-23T09:32:21.000Z</time>
                <name>Trackpoint 3181</name>
            </trkpt>
            <trkpt lat="49.8599936" lon="10.189888">
                <ele>195.0</ele>
                <time>2020-08-23T09:32:23.000Z</time>
                <name>Trackpoint 3182</name>
            </trkpt>
            <trkpt lat="49.8599616" lon="10.1897872">
                <ele>195.0</ele>
                <time>2020-08-23T09:32:26.000Z</time>
                <name>Trackpoint 3183</name>
            </trkpt>
            <trkpt lat="49.859952" lon="10.1896752">
                <ele>195.0</ele>
                <time>2020-08-23T09:32:35.000Z</time>
                <name>Trackpoint 3184</name>
            </trkpt>
            <trkpt lat="49.8599296" lon="10.1895552">
                <ele>195.0</ele>
                <time>2020-08-23T09:32:37.000Z</time>
                <name>Trackpoint 3185</name>
            </trkpt>
            <trkpt lat="49.859904" lon="10.1894304">
                <ele>195.0</ele>
                <time>2020-08-23T09:32:39.000Z</time>
                <name>Trackpoint 3186</name>
            </trkpt>
            <trkpt lat="49.8598816" lon="10.1892984">
                <ele>195.0</ele>
                <time>2020-08-23T09:32:41.000Z</time>
                <name>Trackpoint 3187</name>
            </trkpt>
            <trkpt lat="49.859856" lon="10.1891544">
                <ele>195.0</ele>
                <time>2020-08-23T09:32:43.000Z</time>
                <name>Trackpoint 3188</name>
            </trkpt>
            <trkpt lat="49.859824" lon="10.1890152">
                <ele>195.0</ele>
                <time>2020-08-23T09:32:45.000Z</time>
                <name>Trackpoint 3189</name>
            </trkpt>
            <trkpt lat="49.8597984" lon="10.1888712">
                <ele>195.0</ele>
                <time>2020-08-23T09:32:47.000Z</time>
                <name>Trackpoint 3190</name>
            </trkpt>
            <trkpt lat="49.8597632" lon="10.1887328">
                <ele>195.0</ele>
                <time>2020-08-23T09:32:49.000Z</time>
                <name>Trackpoint 3191</name>
            </trkpt>
            <trkpt lat="49.8597408" lon="10.1885968">
                <ele>195.0</ele>
                <time>2020-08-23T09:32:51.000Z</time>
                <name>Trackpoint 3192</name>
            </trkpt>
            <trkpt lat="49.8597184" lon="10.1884568">
                <ele>195.0</ele>
                <time>2020-08-23T09:32:53.000Z</time>
                <name>Trackpoint 3193</name>
            </trkpt>
            <trkpt lat="49.8596864" lon="10.1883232">
                <ele>195.0</ele>
                <time>2020-08-23T09:32:55.000Z</time>
                <name>Trackpoint 3194</name>
            </trkpt>
            <trkpt lat="49.8596512" lon="10.1881968">
                <ele>195.0</ele>
                <time>2020-08-23T09:32:57.000Z</time>
                <name>Trackpoint 3195</name>
            </trkpt>
            <trkpt lat="49.8596032" lon="10.1880712">
                <ele>195.0</ele>
                <time>2020-08-23T09:32:59.000Z</time>
                <name>Trackpoint 3196</name>
            </trkpt>
            <trkpt lat="49.859584" lon="10.187932">
                <ele>195.0</ele>
                <time>2020-08-23T09:33:01.000Z</time>
                <name>Trackpoint 3197</name>
            </trkpt>
            <trkpt lat="49.8595648" lon="10.1877936">
                <ele>194.0</ele>
                <time>2020-08-23T09:33:03.000Z</time>
                <name>Trackpoint 3198</name>
            </trkpt>
            <trkpt lat="49.8595424" lon="10.1876624">
                <ele>194.0</ele>
                <time>2020-08-23T09:33:05.000Z</time>
                <name>Trackpoint 3199</name>
            </trkpt>
            <trkpt lat="49.8595168" lon="10.1875264">
                <ele>193.0</ele>
                <time>2020-08-23T09:33:07.000Z</time>
                <name>Trackpoint 3200</name>
            </trkpt>
            <trkpt lat="49.8595072" lon="10.1873848">
                <ele>193.0</ele>
                <time>2020-08-23T09:33:09.000Z</time>
                <name>Trackpoint 3201</name>
            </trkpt>
            <trkpt lat="49.8594944" lon="10.1872432">
                <ele>194.0</ele>
                <time>2020-08-23T09:33:11.000Z</time>
                <name>Trackpoint 3202</name>
            </trkpt>
            <trkpt lat="49.8594752" lon="10.1871072">
                <ele>194.0</ele>
                <time>2020-08-23T09:33:13.000Z</time>
                <name>Trackpoint 3203</name>
            </trkpt>
            <trkpt lat="49.8594208" lon="10.1870072">
                <ele>194.0</ele>
                <time>2020-08-23T09:33:15.000Z</time>
                <name>Trackpoint 3204</name>
            </trkpt>
            <trkpt lat="49.8593568" lon="10.1869112">
                <ele>194.0</ele>
                <time>2020-08-23T09:33:18.000Z</time>
                <name>Trackpoint 3205</name>
            </trkpt>
            <trkpt lat="49.8593536" lon="10.1867984">
                <ele>195.0</ele>
                <time>2020-08-23T09:33:21.000Z</time>
                <name>Trackpoint 3206</name>
            </trkpt>
            <trkpt lat="49.8593696" lon="10.1866968">
                <ele>195.0</ele>
                <time>2020-08-23T09:33:23.000Z</time>
                <name>Trackpoint 3207</name>
            </trkpt>
            <trkpt lat="49.8593856" lon="10.1865784">
                <ele>195.0</ele>
                <time>2020-08-23T09:33:25.000Z</time>
                <name>Trackpoint 3208</name>
            </trkpt>
            <trkpt lat="49.8594016" lon="10.1864464">
                <ele>194.0</ele>
                <time>2020-08-23T09:33:27.000Z</time>
                <name>Trackpoint 3209</name>
            </trkpt>
            <trkpt lat="49.859408" lon="10.1863096">
                <ele>194.0</ele>
                <time>2020-08-23T09:33:29.000Z</time>
                <name>Trackpoint 3210</name>
            </trkpt>
            <trkpt lat="49.859424" lon="10.1861752">
                <ele>193.0</ele>
                <time>2020-08-23T09:33:31.000Z</time>
                <name>Trackpoint 3211</name>
            </trkpt>
            <trkpt lat="49.85944" lon="10.1860352">
                <ele>193.0</ele>
                <time>2020-08-23T09:33:33.000Z</time>
                <name>Trackpoint 3212</name>
            </trkpt>
            <trkpt lat="49.8594336" lon="10.1859064">
                <ele>192.0</ele>
                <time>2020-08-23T09:33:35.000Z</time>
                <name>Trackpoint 3213</name>
            </trkpt>
            <trkpt lat="49.8594144" lon="10.1857816">
                <ele>192.0</ele>
                <time>2020-08-23T09:33:37.000Z</time>
                <name>Trackpoint 3214</name>
            </trkpt>
            <trkpt lat="49.8593856" lon="10.185668">
                <ele>191.0</ele>
                <time>2020-08-23T09:33:39.000Z</time>
                <name>Trackpoint 3215</name>
            </trkpt>
            <trkpt lat="49.8593632" lon="10.1855744">
                <ele>192.0</ele>
                <time>2020-08-23T09:33:41.000Z</time>
                <name>Trackpoint 3216</name>
            </trkpt>
            <trkpt lat="49.8593536" lon="10.18546">
                <ele>192.0</ele>
                <time>2020-08-23T09:33:43.000Z</time>
                <name>Trackpoint 3217</name>
            </trkpt>
            <trkpt lat="49.859344" lon="10.1853584">
                <ele>192.0</ele>
                <time>2020-08-23T09:33:45.000Z</time>
                <name>Trackpoint 3218</name>
            </trkpt>
            <trkpt lat="49.8593088" lon="10.1852416">
                <ele>192.0</ele>
                <time>2020-08-23T09:33:48.000Z</time>
                <name>Trackpoint 3219</name>
            </trkpt>
            <trkpt lat="49.8592864" lon="10.1851456">
                <ele>192.0</ele>
                <time>2020-08-23T09:33:51.000Z</time>
                <name>Trackpoint 3220</name>
            </trkpt>
            <trkpt lat="49.8592288" lon="10.1850072">
                <ele>193.0</ele>
                <time>2020-08-23T09:33:53.000Z</time>
                <name>Trackpoint 3221</name>
            </trkpt>
            <trkpt lat="49.8591776" lon="10.1848784">
                <ele>193.0</ele>
                <time>2020-08-23T09:33:55.000Z</time>
                <name>Trackpoint 3222</name>
            </trkpt>
            <trkpt lat="49.8591488" lon="10.1847552">
                <ele>193.0</ele>
                <time>2020-08-23T09:33:57.000Z</time>
                <name>Trackpoint 3223</name>
            </trkpt>
            <trkpt lat="49.8591456" lon="10.1846168">
                <ele>193.0</ele>
                <time>2020-08-23T09:33:59.000Z</time>
                <name>Trackpoint 3224</name>
            </trkpt>
            <trkpt lat="49.8590976" lon="10.1844832">
                <ele>193.0</ele>
                <time>2020-08-23T09:34:01.000Z</time>
                <name>Trackpoint 3225</name>
            </trkpt>
            <trkpt lat="49.8590624" lon="10.1843592">
                <ele>193.0</ele>
                <time>2020-08-23T09:34:03.000Z</time>
                <name>Trackpoint 3226</name>
            </trkpt>
            <trkpt lat="49.859024" lon="10.1842472">
                <ele>194.0</ele>
                <time>2020-08-23T09:34:05.000Z</time>
                <name>Trackpoint 3227</name>
            </trkpt>
            <trkpt lat="49.858992" lon="10.1841352">
                <ele>194.0</ele>
                <time>2020-08-23T09:34:07.000Z</time>
                <name>Trackpoint 3228</name>
            </trkpt>
            <trkpt lat="49.8589664" lon="10.1840152">
                <ele>194.0</ele>
                <time>2020-08-23T09:34:09.000Z</time>
                <name>Trackpoint 3229</name>
            </trkpt>
            <trkpt lat="49.8589184" lon="10.1839112">
                <ele>194.0</ele>
                <time>2020-08-23T09:34:11.000Z</time>
                <name>Trackpoint 3230</name>
            </trkpt>
            <trkpt lat="49.8588768" lon="10.183788">
                <ele>194.0</ele>
                <time>2020-08-23T09:34:13.000Z</time>
                <name>Trackpoint 3231</name>
            </trkpt>
            <trkpt lat="49.8588608" lon="10.1836504">
                <ele>194.0</ele>
                <time>2020-08-23T09:34:15.000Z</time>
                <name>Trackpoint 3232</name>
            </trkpt>
            <trkpt lat="49.858832" lon="10.1835272">
                <ele>194.0</ele>
                <time>2020-08-23T09:34:17.000Z</time>
                <name>Trackpoint 3233</name>
            </trkpt>
            <trkpt lat="49.8588064" lon="10.1834032">
                <ele>194.0</ele>
                <time>2020-08-23T09:34:19.000Z</time>
                <name>Trackpoint 3234</name>
            </trkpt>
            <trkpt lat="49.8588032" lon="10.183284">
                <ele>194.0</ele>
                <time>2020-08-23T09:34:21.000Z</time>
                <name>Trackpoint 3235</name>
            </trkpt>
            <trkpt lat="49.8587808" lon="10.1831816">
                <ele>194.0</ele>
                <time>2020-08-23T09:34:23.000Z</time>
                <name>Trackpoint 3236</name>
            </trkpt>
            <trkpt lat="49.8587648" lon="10.1830832">
                <ele>194.0</ele>
                <time>2020-08-23T09:34:25.000Z</time>
                <name>Trackpoint 3237</name>
            </trkpt>
            <trkpt lat="49.8587488" lon="10.1829752">
                <ele>194.0</ele>
                <time>2020-08-23T09:34:27.000Z</time>
                <name>Trackpoint 3238</name>
            </trkpt>
            <trkpt lat="49.8587456" lon="10.1828472">
                <ele>194.0</ele>
                <time>2020-08-23T09:34:29.000Z</time>
                <name>Trackpoint 3239</name>
            </trkpt>
            <trkpt lat="49.8587232" lon="10.182736">
                <ele>194.0</ele>
                <time>2020-08-23T09:34:31.000Z</time>
                <name>Trackpoint 3240</name>
            </trkpt>
            <trkpt lat="49.8587104" lon="10.18264">
                <ele>195.0</ele>
                <time>2020-08-23T09:34:33.000Z</time>
                <name>Trackpoint 3241</name>
            </trkpt>
            <trkpt lat="49.8587008" lon="10.1825384">
                <ele>195.0</ele>
                <time>2020-08-23T09:34:35.000Z</time>
                <name>Trackpoint 3242</name>
            </trkpt>
            <trkpt lat="49.8586432" lon="10.182428">
                <ele>195.0</ele>
                <time>2020-08-23T09:34:38.000Z</time>
                <name>Trackpoint 3243</name>
            </trkpt>
            <trkpt lat="49.8585824" lon="10.1822904">
                <ele>195.0</ele>
                <time>2020-08-23T09:34:41.000Z</time>
                <name>Trackpoint 3244</name>
            </trkpt>
            <trkpt lat="49.858544" lon="10.1821616">
                <ele>195.0</ele>
                <time>2020-08-23T09:34:43.000Z</time>
                <name>Trackpoint 3245</name>
            </trkpt>
            <trkpt lat="49.8585024" lon="10.182036">
                <ele>195.0</ele>
                <time>2020-08-23T09:34:45.000Z</time>
                <name>Trackpoint 3246</name>
            </trkpt>
            <trkpt lat="49.858464" lon="10.1819296">
                <ele>195.0</ele>
                <time>2020-08-23T09:34:47.000Z</time>
                <name>Trackpoint 3247</name>
            </trkpt>
            <trkpt lat="49.858416" lon="10.1818512">
                <ele>195.0</ele>
                <time>2020-08-23T09:34:49.000Z</time>
                <name>Trackpoint 3248</name>
            </trkpt>
            <trkpt lat="49.8583712" lon="10.181728">
                <ele>195.0</ele>
                <time>2020-08-23T09:34:53.000Z</time>
                <name>Trackpoint 3249</name>
            </trkpt>
            <trkpt lat="49.8583648" lon="10.1816184">
                <ele>195.0</ele>
                <time>2020-08-23T09:34:55.000Z</time>
                <name>Trackpoint 3250</name>
            </trkpt>
            <trkpt lat="49.8583296" lon="10.1815008">
                <ele>195.0</ele>
                <time>2020-08-23T09:34:57.000Z</time>
                <name>Trackpoint 3251</name>
            </trkpt>
            <trkpt lat="49.858288" lon="10.1813816">
                <ele>195.0</ele>
                <time>2020-08-23T09:34:59.000Z</time>
                <name>Trackpoint 3252</name>
            </trkpt>
            <trkpt lat="49.8582304" lon="10.1812384">
                <ele>195.0</ele>
                <time>2020-08-23T09:35:01.000Z</time>
                <name>Trackpoint 3253</name>
            </trkpt>
            <trkpt lat="49.858176" lon="10.1810888">
                <ele>195.0</ele>
                <time>2020-08-23T09:35:03.000Z</time>
                <name>Trackpoint 3254</name>
            </trkpt>
            <trkpt lat="49.8581088" lon="10.1809584">
                <ele>195.0</ele>
                <time>2020-08-23T09:35:05.000Z</time>
                <name>Trackpoint 3255</name>
            </trkpt>
            <trkpt lat="49.8580672" lon="10.1808184">
                <ele>195.0</ele>
                <time>2020-08-23T09:35:07.000Z</time>
                <name>Trackpoint 3256</name>
            </trkpt>
            <trkpt lat="49.8580352" lon="10.180652">
                <ele>195.0</ele>
                <time>2020-08-23T09:35:09.000Z</time>
                <name>Trackpoint 3257</name>
            </trkpt>
            <trkpt lat="49.8579648" lon="10.1805232">
                <ele>195.0</ele>
                <time>2020-08-23T09:35:11.000Z</time>
                <name>Trackpoint 3258</name>
            </trkpt>
            <trkpt lat="49.8579232" lon="10.1803888">
                <ele>196.0</ele>
                <time>2020-08-23T09:35:13.000Z</time>
                <name>Trackpoint 3259</name>
            </trkpt>
            <trkpt lat="49.857888" lon="10.1802528">
                <ele>196.0</ele>
                <time>2020-08-23T09:35:15.000Z</time>
                <name>Trackpoint 3260</name>
            </trkpt>
            <trkpt lat="49.8578336" lon="10.1801344">
                <ele>195.0</ele>
                <time>2020-08-23T09:35:17.000Z</time>
                <name>Trackpoint 3261</name>
            </trkpt>
            <trkpt lat="49.857776" lon="10.18">
                <ele>196.0</ele>
                <time>2020-08-23T09:35:19.000Z</time>
                <name>Trackpoint 3262</name>
            </trkpt>
            <trkpt lat="49.8577376" lon="10.1798512">
                <ele>196.0</ele>
                <time>2020-08-23T09:35:21.000Z</time>
                <name>Trackpoint 3263</name>
            </trkpt>
            <trkpt lat="49.857696" lon="10.1797">
                <ele>196.0</ele>
                <time>2020-08-23T09:35:23.000Z</time>
                <name>Trackpoint 3264</name>
            </trkpt>
            <trkpt lat="49.8576512" lon="10.1795664">
                <ele>196.0</ele>
                <time>2020-08-23T09:35:25.000Z</time>
                <name>Trackpoint 3265</name>
            </trkpt>
            <trkpt lat="49.8576064" lon="10.1794216">
                <ele>196.0</ele>
                <time>2020-08-23T09:35:27.000Z</time>
                <name>Trackpoint 3266</name>
            </trkpt>
            <trkpt lat="49.8575584" lon="10.1792768">
                <ele>196.0</ele>
                <time>2020-08-23T09:35:29.000Z</time>
                <name>Trackpoint 3267</name>
            </trkpt>
            <trkpt lat="49.85752" lon="10.179156">
                <ele>196.0</ele>
                <time>2020-08-23T09:35:31.000Z</time>
                <name>Trackpoint 3268</name>
            </trkpt>
            <trkpt lat="49.8574816" lon="10.1790336">
                <ele>196.0</ele>
                <time>2020-08-23T09:35:33.000Z</time>
                <name>Trackpoint 3269</name>
            </trkpt>
            <trkpt lat="49.85744" lon="10.178928">
                <ele>195.0</ele>
                <time>2020-08-23T09:35:35.000Z</time>
                <name>Trackpoint 3270</name>
            </trkpt>
            <trkpt lat="49.8573888" lon="10.1788064">
                <ele>195.0</ele>
                <time>2020-08-23T09:35:37.000Z</time>
                <name>Trackpoint 3271</name>
            </trkpt>
            <trkpt lat="49.8573568" lon="10.1786736">
                <ele>195.0</ele>
                <time>2020-08-23T09:35:39.000Z</time>
                <name>Trackpoint 3272</name>
            </trkpt>
            <trkpt lat="49.8573312" lon="10.1785368">
                <ele>196.0</ele>
                <time>2020-08-23T09:35:41.000Z</time>
                <name>Trackpoint 3273</name>
            </trkpt>
            <trkpt lat="49.8572736" lon="10.1784016">
                <ele>196.0</ele>
                <time>2020-08-23T09:35:43.000Z</time>
                <name>Trackpoint 3274</name>
            </trkpt>
            <trkpt lat="49.8572352" lon="10.17826">
                <ele>196.0</ele>
                <time>2020-08-23T09:35:45.000Z</time>
                <name>Trackpoint 3275</name>
            </trkpt>
            <trkpt lat="49.8571968" lon="10.1781216">
                <ele>196.0</ele>
                <time>2020-08-23T09:35:47.000Z</time>
                <name>Trackpoint 3276</name>
            </trkpt>
            <trkpt lat="49.8571488" lon="10.1779944">
                <ele>196.0</ele>
                <time>2020-08-23T09:35:49.000Z</time>
                <name>Trackpoint 3277</name>
            </trkpt>
            <trkpt lat="49.8571008" lon="10.1778616">
                <ele>196.0</ele>
                <time>2020-08-23T09:35:51.000Z</time>
                <name>Trackpoint 3278</name>
            </trkpt>
            <trkpt lat="49.8570528" lon="10.17774">
                <ele>196.0</ele>
                <time>2020-08-23T09:35:53.000Z</time>
                <name>Trackpoint 3279</name>
            </trkpt>
            <trkpt lat="49.8570208" lon="10.17762">
                <ele>196.0</ele>
                <time>2020-08-23T09:35:55.000Z</time>
                <name>Trackpoint 3280</name>
            </trkpt>
            <trkpt lat="49.8569664" lon="10.177508">
                <ele>196.0</ele>
                <time>2020-08-23T09:35:57.000Z</time>
                <name>Trackpoint 3281</name>
            </trkpt>
            <trkpt lat="49.8569184" lon="10.177392">
                <ele>196.0</ele>
                <time>2020-08-23T09:35:59.000Z</time>
                <name>Trackpoint 3282</name>
            </trkpt>
            <trkpt lat="49.8568608" lon="10.1772768">
                <ele>195.0</ele>
                <time>2020-08-23T09:36:01.000Z</time>
                <name>Trackpoint 3283</name>
            </trkpt>
            <trkpt lat="49.8568224" lon="10.1771536">
                <ele>195.0</ele>
                <time>2020-08-23T09:36:03.000Z</time>
                <name>Trackpoint 3284</name>
            </trkpt>
            <trkpt lat="49.856784" lon="10.1770264">
                <ele>195.0</ele>
                <time>2020-08-23T09:36:05.000Z</time>
                <name>Trackpoint 3285</name>
            </trkpt>
            <trkpt lat="49.8567392" lon="10.1769048">
                <ele>195.0</ele>
                <time>2020-08-23T09:36:07.000Z</time>
                <name>Trackpoint 3286</name>
            </trkpt>
            <trkpt lat="49.8566784" lon="10.1767864">
                <ele>196.0</ele>
                <time>2020-08-23T09:36:09.000Z</time>
                <name>Trackpoint 3287</name>
            </trkpt>
            <trkpt lat="49.856608" lon="10.1766704">
                <ele>196.0</ele>
                <time>2020-08-23T09:36:11.000Z</time>
                <name>Trackpoint 3288</name>
            </trkpt>
            <trkpt lat="49.8565536" lon="10.1765568">
                <ele>196.0</ele>
                <time>2020-08-23T09:36:13.000Z</time>
                <name>Trackpoint 3289</name>
            </trkpt>
            <trkpt lat="49.856496" lon="10.1764472">
                <ele>195.0</ele>
                <time>2020-08-23T09:36:15.000Z</time>
                <name>Trackpoint 3290</name>
            </trkpt>
            <trkpt lat="49.8564384" lon="10.1763336">
                <ele>196.0</ele>
                <time>2020-08-23T09:36:17.000Z</time>
                <name>Trackpoint 3291</name>
            </trkpt>
            <trkpt lat="49.8563808" lon="10.1762288">
                <ele>196.0</ele>
                <time>2020-08-23T09:36:19.000Z</time>
                <name>Trackpoint 3292</name>
            </trkpt>
            <trkpt lat="49.8563232" lon="10.176124">
                <ele>196.0</ele>
                <time>2020-08-23T09:36:21.000Z</time>
                <name>Trackpoint 3293</name>
            </trkpt>
            <trkpt lat="49.8562624" lon="10.1760328">
                <ele>196.0</ele>
                <time>2020-08-23T09:36:23.000Z</time>
                <name>Trackpoint 3294</name>
            </trkpt>
            <trkpt lat="49.8562048" lon="10.1759584">
                <ele>195.0</ele>
                <time>2020-08-23T09:36:25.000Z</time>
                <name>Trackpoint 3295</name>
            </trkpt>
            <trkpt lat="49.8561408" lon="10.1758616">
                <ele>195.0</ele>
                <time>2020-08-23T09:36:27.000Z</time>
                <name>Trackpoint 3296</name>
            </trkpt>
            <trkpt lat="49.8560672" lon="10.175772">
                <ele>195.0</ele>
                <time>2020-08-23T09:36:29.000Z</time>
                <name>Trackpoint 3297</name>
            </trkpt>
            <trkpt lat="49.855984" lon="10.1756672">
                <ele>195.0</ele>
                <time>2020-08-23T09:36:31.000Z</time>
                <name>Trackpoint 3298</name>
            </trkpt>
            <trkpt lat="49.8558912" lon="10.1755616">
                <ele>195.0</ele>
                <time>2020-08-23T09:36:33.000Z</time>
                <name>Trackpoint 3299</name>
            </trkpt>
            <trkpt lat="49.8558432" lon="10.17548">
                <ele>196.0</ele>
                <time>2020-08-23T09:36:34.000Z</time>
                <name>Trackpoint 3300</name>
            </trkpt>
            <trkpt lat="49.8557248" lon="10.1753416">
                <ele>195.0</ele>
                <time>2020-08-23T09:36:36.000Z</time>
                <name>Trackpoint 3301</name>
            </trkpt>
            <trkpt lat="49.8556256" lon="10.1752328">
                <ele>194.0</ele>
                <time>2020-08-23T09:36:38.000Z</time>
                <name>Trackpoint 3302</name>
            </trkpt>
            <trkpt lat="49.8555328" lon="10.17514">
                <ele>194.0</ele>
                <time>2020-08-23T09:36:40.000Z</time>
                <name>Trackpoint 3303</name>
            </trkpt>
            <trkpt lat="49.8554496" lon="10.1750496">
                <ele>194.0</ele>
                <time>2020-08-23T09:36:42.000Z</time>
                <name>Trackpoint 3304</name>
            </trkpt>
            <trkpt lat="49.8553728" lon="10.1749496">
                <ele>194.0</ele>
                <time>2020-08-23T09:36:44.000Z</time>
                <name>Trackpoint 3305</name>
            </trkpt>
            <trkpt lat="49.8552896" lon="10.1748488">
                <ele>194.0</ele>
                <time>2020-08-23T09:36:46.000Z</time>
                <name>Trackpoint 3306</name>
            </trkpt>
            <trkpt lat="49.8552064" lon="10.1747464">
                <ele>194.0</ele>
                <time>2020-08-23T09:36:48.000Z</time>
                <name>Trackpoint 3307</name>
            </trkpt>
            <trkpt lat="49.8551168" lon="10.1746528">
                <ele>194.0</ele>
                <time>2020-08-23T09:36:50.000Z</time>
                <name>Trackpoint 3308</name>
            </trkpt>
            <trkpt lat="49.8550336" lon="10.1745584">
                <ele>193.0</ele>
                <time>2020-08-23T09:36:52.000Z</time>
                <name>Trackpoint 3309</name>
            </trkpt>
            <trkpt lat="49.8549472" lon="10.1744744">
                <ele>194.0</ele>
                <time>2020-08-23T09:36:54.000Z</time>
                <name>Trackpoint 3310</name>
            </trkpt>
            <trkpt lat="49.8548544" lon="10.1744096">
                <ele>194.0</ele>
                <time>2020-08-23T09:36:56.000Z</time>
                <name>Trackpoint 3311</name>
            </trkpt>
            <trkpt lat="49.8547552" lon="10.174352">
                <ele>194.0</ele>
                <time>2020-08-23T09:36:58.000Z</time>
                <name>Trackpoint 3312</name>
            </trkpt>
            <trkpt lat="49.854656" lon="10.1743096">
                <ele>194.0</ele>
                <time>2020-08-23T09:37:00.000Z</time>
                <name>Trackpoint 3313</name>
            </trkpt>
            <trkpt lat="49.8545536" lon="10.17428">
                <ele>194.0</ele>
                <time>2020-08-23T09:37:02.000Z</time>
                <name>Trackpoint 3314</name>
            </trkpt>
            <trkpt lat="49.8544576" lon="10.1742584">
                <ele>193.0</ele>
                <time>2020-08-23T09:37:04.000Z</time>
                <name>Trackpoint 3315</name>
            </trkpt>
            <trkpt lat="49.8543552" lon="10.174236">
                <ele>193.0</ele>
                <time>2020-08-23T09:37:06.000Z</time>
                <name>Trackpoint 3316</name>
            </trkpt>
            <trkpt lat="49.854256" lon="10.1742136">
                <ele>192.0</ele>
                <time>2020-08-23T09:37:08.000Z</time>
                <name>Trackpoint 3317</name>
            </trkpt>
            <trkpt lat="49.8541568" lon="10.174196">
                <ele>192.0</ele>
                <time>2020-08-23T09:37:10.000Z</time>
                <name>Trackpoint 3318</name>
            </trkpt>
            <trkpt lat="49.8540544" lon="10.1741696">
                <ele>192.0</ele>
                <time>2020-08-23T09:37:12.000Z</time>
                <name>Trackpoint 3319</name>
            </trkpt>
            <trkpt lat="49.8539552" lon="10.174144">
                <ele>192.0</ele>
                <time>2020-08-23T09:37:14.000Z</time>
                <name>Trackpoint 3320</name>
            </trkpt>
            <trkpt lat="49.8538528" lon="10.1741112">
                <ele>191.0</ele>
                <time>2020-08-23T09:37:16.000Z</time>
                <name>Trackpoint 3321</name>
            </trkpt>
            <trkpt lat="49.8537472" lon="10.174084">
                <ele>191.0</ele>
                <time>2020-08-23T09:37:18.000Z</time>
                <name>Trackpoint 3322</name>
            </trkpt>
            <trkpt lat="49.8536384" lon="10.1740504">
                <ele>191.0</ele>
                <time>2020-08-23T09:37:20.000Z</time>
                <name>Trackpoint 3323</name>
            </trkpt>
            <trkpt lat="49.8535232" lon="10.174004">
                <ele>192.0</ele>
                <time>2020-08-23T09:37:22.000Z</time>
                <name>Trackpoint 3324</name>
            </trkpt>
            <trkpt lat="49.853408" lon="10.173972">
                <ele>192.0</ele>
                <time>2020-08-23T09:37:24.000Z</time>
                <name>Trackpoint 3325</name>
            </trkpt>
            <trkpt lat="49.8532992" lon="10.1739368">
                <ele>192.0</ele>
                <time>2020-08-23T09:37:26.000Z</time>
                <name>Trackpoint 3326</name>
            </trkpt>
            <trkpt lat="49.853184" lon="10.1739016">
                <ele>192.0</ele>
                <time>2020-08-23T09:37:28.000Z</time>
                <name>Trackpoint 3327</name>
            </trkpt>
            <trkpt lat="49.853072" lon="10.1738656">
                <ele>192.0</ele>
                <time>2020-08-23T09:37:30.000Z</time>
                <name>Trackpoint 3328</name>
            </trkpt>
            <trkpt lat="49.8529664" lon="10.1738304">
                <ele>192.0</ele>
                <time>2020-08-23T09:37:32.000Z</time>
                <name>Trackpoint 3329</name>
            </trkpt>
            <trkpt lat="49.8528544" lon="10.1737968">
                <ele>192.0</ele>
                <time>2020-08-23T09:37:34.000Z</time>
                <name>Trackpoint 3330</name>
            </trkpt>
            <trkpt lat="49.8527488" lon="10.1737648">
                <ele>192.0</ele>
                <time>2020-08-23T09:37:36.000Z</time>
                <name>Trackpoint 3331</name>
            </trkpt>
            <trkpt lat="49.8526464" lon="10.173728">
                <ele>192.0</ele>
                <time>2020-08-23T09:37:38.000Z</time>
                <name>Trackpoint 3332</name>
            </trkpt>
            <trkpt lat="49.8525376" lon="10.1736936">
                <ele>192.0</ele>
                <time>2020-08-23T09:37:40.000Z</time>
                <name>Trackpoint 3333</name>
            </trkpt>
            <trkpt lat="49.8524384" lon="10.17366">
                <ele>192.0</ele>
                <time>2020-08-23T09:37:42.000Z</time>
                <name>Trackpoint 3334</name>
            </trkpt>
            <trkpt lat="49.852336" lon="10.1736296">
                <ele>193.0</ele>
                <time>2020-08-23T09:37:44.000Z</time>
                <name>Trackpoint 3335</name>
            </trkpt>
            <trkpt lat="49.8522368" lon="10.1736032">
                <ele>193.0</ele>
                <time>2020-08-23T09:37:46.000Z</time>
                <name>Trackpoint 3336</name>
            </trkpt>
            <trkpt lat="49.8521408" lon="10.1735736">
                <ele>192.0</ele>
                <time>2020-08-23T09:37:48.000Z</time>
                <name>Trackpoint 3337</name>
            </trkpt>
            <trkpt lat="49.852048" lon="10.17354">
                <ele>192.0</ele>
                <time>2020-08-23T09:37:50.000Z</time>
                <name>Trackpoint 3338</name>
            </trkpt>
            <trkpt lat="49.851952" lon="10.1735064">
                <ele>192.0</ele>
                <time>2020-08-23T09:37:52.000Z</time>
                <name>Trackpoint 3339</name>
            </trkpt>
            <trkpt lat="49.8518528" lon="10.1734712">
                <ele>192.0</ele>
                <time>2020-08-23T09:37:54.000Z</time>
                <name>Trackpoint 3340</name>
            </trkpt>
            <trkpt lat="49.8517536" lon="10.17344">
                <ele>192.0</ele>
                <time>2020-08-23T09:37:56.000Z</time>
                <name>Trackpoint 3341</name>
            </trkpt>
            <trkpt lat="49.8516608" lon="10.1734168">
                <ele>192.0</ele>
                <time>2020-08-23T09:37:58.000Z</time>
                <name>Trackpoint 3342</name>
            </trkpt>
            <trkpt lat="49.8515712" lon="10.1733912">
                <ele>192.0</ele>
                <time>2020-08-23T09:38:00.000Z</time>
                <name>Trackpoint 3343</name>
            </trkpt>
            <trkpt lat="49.8514752" lon="10.1733552">
                <ele>192.0</ele>
                <time>2020-08-23T09:38:02.000Z</time>
                <name>Trackpoint 3344</name>
            </trkpt>
            <trkpt lat="49.8513824" lon="10.1733248">
                <ele>192.0</ele>
                <time>2020-08-23T09:38:04.000Z</time>
                <name>Trackpoint 3345</name>
            </trkpt>
            <trkpt lat="49.8512544" lon="10.1732928">
                <ele>192.0</ele>
                <time>2020-08-23T09:38:07.000Z</time>
                <name>Trackpoint 3346</name>
            </trkpt>
            <trkpt lat="49.8511648" lon="10.1732664">
                <ele>192.0</ele>
                <time>2020-08-23T09:38:09.000Z</time>
                <name>Trackpoint 3347</name>
            </trkpt>
            <trkpt lat="49.8510752" lon="10.1732456">
                <ele>192.0</ele>
                <time>2020-08-23T09:38:11.000Z</time>
                <name>Trackpoint 3348</name>
            </trkpt>
            <trkpt lat="49.8509824" lon="10.1732216">
                <ele>192.0</ele>
                <time>2020-08-23T09:38:13.000Z</time>
                <name>Trackpoint 3349</name>
            </trkpt>
            <trkpt lat="49.8508896" lon="10.1731968">
                <ele>192.0</ele>
                <time>2020-08-23T09:38:15.000Z</time>
                <name>Trackpoint 3350</name>
            </trkpt>
            <trkpt lat="49.8507968" lon="10.1731704">
                <ele>191.0</ele>
                <time>2020-08-23T09:38:17.000Z</time>
                <name>Trackpoint 3351</name>
            </trkpt>
            <trkpt lat="49.850704" lon="10.1731384">
                <ele>191.0</ele>
                <time>2020-08-23T09:38:19.000Z</time>
                <name>Trackpoint 3352</name>
            </trkpt>
            <trkpt lat="49.8506048" lon="10.1731056">
                <ele>191.0</ele>
                <time>2020-08-23T09:38:21.000Z</time>
                <name>Trackpoint 3353</name>
            </trkpt>
            <trkpt lat="49.850512" lon="10.1730696">
                <ele>191.0</ele>
                <time>2020-08-23T09:38:23.000Z</time>
                <name>Trackpoint 3354</name>
            </trkpt>
            <trkpt lat="49.8504192" lon="10.1730248">
                <ele>192.0</ele>
                <time>2020-08-23T09:38:25.000Z</time>
                <name>Trackpoint 3355</name>
            </trkpt>
            <trkpt lat="49.8503264" lon="10.1729648">
                <ele>192.0</ele>
                <time>2020-08-23T09:38:27.000Z</time>
                <name>Trackpoint 3356</name>
            </trkpt>
            <trkpt lat="49.8502336" lon="10.172892">
                <ele>192.0</ele>
                <time>2020-08-23T09:38:29.000Z</time>
                <name>Trackpoint 3357</name>
            </trkpt>
            <trkpt lat="49.8501472" lon="10.1728216">
                <ele>192.0</ele>
                <time>2020-08-23T09:38:31.000Z</time>
                <name>Trackpoint 3358</name>
            </trkpt>
            <trkpt lat="49.850064" lon="10.1727512">
                <ele>192.0</ele>
                <time>2020-08-23T09:38:33.000Z</time>
                <name>Trackpoint 3359</name>
            </trkpt>
            <trkpt lat="49.8499712" lon="10.1726848">
                <ele>192.0</ele>
                <time>2020-08-23T09:38:35.000Z</time>
                <name>Trackpoint 3360</name>
            </trkpt>
            <trkpt lat="49.849888" lon="10.1726128">
                <ele>192.0</ele>
                <time>2020-08-23T09:38:37.000Z</time>
                <name>Trackpoint 3361</name>
            </trkpt>
            <trkpt lat="49.8497952" lon="10.17254">
                <ele>192.0</ele>
                <time>2020-08-23T09:38:39.000Z</time>
                <name>Trackpoint 3362</name>
            </trkpt>
            <trkpt lat="49.8497088" lon="10.172468">
                <ele>192.0</ele>
                <time>2020-08-23T09:38:41.000Z</time>
                <name>Trackpoint 3363</name>
            </trkpt>
            <trkpt lat="49.8496224" lon="10.1723968">
                <ele>192.0</ele>
                <time>2020-08-23T09:38:43.000Z</time>
                <name>Trackpoint 3364</name>
            </trkpt>
            <trkpt lat="49.8495328" lon="10.1723248">
                <ele>192.0</ele>
                <time>2020-08-23T09:38:45.000Z</time>
                <name>Trackpoint 3365</name>
            </trkpt>
            <trkpt lat="49.849456" lon="10.1722616">
                <ele>191.0</ele>
                <time>2020-08-23T09:38:47.000Z</time>
                <name>Trackpoint 3366</name>
            </trkpt>
            <trkpt lat="49.8493696" lon="10.1721888">
                <ele>191.0</ele>
                <time>2020-08-23T09:38:49.000Z</time>
                <name>Trackpoint 3367</name>
            </trkpt>
            <trkpt lat="49.8492928" lon="10.1721232">
                <ele>191.0</ele>
                <time>2020-08-23T09:38:51.000Z</time>
                <name>Trackpoint 3368</name>
            </trkpt>
            <trkpt lat="49.8492256" lon="10.1720632">
                <ele>191.0</ele>
                <time>2020-08-23T09:38:53.000Z</time>
                <name>Trackpoint 3369</name>
            </trkpt>
            <trkpt lat="49.849152" lon="10.1720112">
                <ele>191.0</ele>
                <time>2020-08-23T09:38:55.000Z</time>
                <name>Trackpoint 3370</name>
            </trkpt>
            <trkpt lat="49.8490432" lon="10.17192">
                <ele>191.0</ele>
                <time>2020-08-23T09:38:58.000Z</time>
                <name>Trackpoint 3371</name>
            </trkpt>
            <trkpt lat="49.8489728" lon="10.1718528">
                <ele>191.0</ele>
                <time>2020-08-23T09:39:00.000Z</time>
                <name>Trackpoint 3372</name>
            </trkpt>
            <trkpt lat="49.8488992" lon="10.1717832">
                <ele>191.0</ele>
                <time>2020-08-23T09:39:02.000Z</time>
                <name>Trackpoint 3373</name>
            </trkpt>
            <trkpt lat="49.8488224" lon="10.1717104">
                <ele>191.0</ele>
                <time>2020-08-23T09:39:04.000Z</time>
                <name>Trackpoint 3374</name>
            </trkpt>
            <trkpt lat="49.8487424" lon="10.17164">
                <ele>191.0</ele>
                <time>2020-08-23T09:39:06.000Z</time>
                <name>Trackpoint 3375</name>
            </trkpt>
            <trkpt lat="49.8486592" lon="10.171588">
                <ele>191.0</ele>
                <time>2020-08-23T09:39:08.000Z</time>
                <name>Trackpoint 3376</name>
            </trkpt>
            <trkpt lat="49.8485664" lon="10.1715616">
                <ele>191.0</ele>
                <time>2020-08-23T09:39:10.000Z</time>
                <name>Trackpoint 3377</name>
            </trkpt>
            <trkpt lat="49.8484416" lon="10.1715784">
                <ele>191.0</ele>
                <time>2020-08-23T09:39:13.000Z</time>
                <name>Trackpoint 3378</name>
            </trkpt>
            <trkpt lat="49.848352" lon="10.1716048">
                <ele>191.0</ele>
                <time>2020-08-23T09:39:15.000Z</time>
                <name>Trackpoint 3379</name>
            </trkpt>
            <trkpt lat="49.848256" lon="10.1716632">
                <ele>191.0</ele>
                <time>2020-08-23T09:39:17.000Z</time>
                <name>Trackpoint 3380</name>
            </trkpt>
            <trkpt lat="49.84816" lon="10.1717456">
                <ele>191.0</ele>
                <time>2020-08-23T09:39:19.000Z</time>
                <name>Trackpoint 3381</name>
            </trkpt>
            <trkpt lat="49.8480672" lon="10.171832">
                <ele>191.0</ele>
                <time>2020-08-23T09:39:21.000Z</time>
                <name>Trackpoint 3382</name>
            </trkpt>
            <trkpt lat="49.8479776" lon="10.1719168">
                <ele>190.0</ele>
                <time>2020-08-23T09:39:23.000Z</time>
                <name>Trackpoint 3383</name>
            </trkpt>
            <trkpt lat="49.847888" lon="10.1719968">
                <ele>190.0</ele>
                <time>2020-08-23T09:39:25.000Z</time>
                <name>Trackpoint 3384</name>
            </trkpt>
            <trkpt lat="49.847808" lon="10.1720752">
                <ele>190.0</ele>
                <time>2020-08-23T09:39:27.000Z</time>
                <name>Trackpoint 3385</name>
            </trkpt>
            <trkpt lat="49.8477248" lon="10.1721552">
                <ele>190.0</ele>
                <time>2020-08-23T09:39:29.000Z</time>
                <name>Trackpoint 3386</name>
            </trkpt>
            <trkpt lat="49.8476384" lon="10.172228">
                <ele>191.0</ele>
                <time>2020-08-23T09:39:31.000Z</time>
                <name>Trackpoint 3387</name>
            </trkpt>
            <trkpt lat="49.847552" lon="10.1723">
                <ele>191.0</ele>
                <time>2020-08-23T09:39:33.000Z</time>
                <name>Trackpoint 3388</name>
            </trkpt>
            <trkpt lat="49.8474624" lon="10.172372">
                <ele>191.0</ele>
                <time>2020-08-23T09:39:35.000Z</time>
                <name>Trackpoint 3389</name>
            </trkpt>
            <trkpt lat="49.8473824" lon="10.1724384">
                <ele>191.0</ele>
                <time>2020-08-23T09:39:37.000Z</time>
                <name>Trackpoint 3390</name>
            </trkpt>
            <trkpt lat="49.8472864" lon="10.1725104">
                <ele>191.0</ele>
                <time>2020-08-23T09:39:39.000Z</time>
                <name>Trackpoint 3391</name>
            </trkpt>
            <trkpt lat="49.8472" lon="10.1726248">
                <ele>191.0</ele>
                <time>2020-08-23T09:39:41.000Z</time>
                <name>Trackpoint 3392</name>
            </trkpt>
            <trkpt lat="49.8471328" lon="10.1727632">
                <ele>192.0</ele>
                <time>2020-08-23T09:39:43.000Z</time>
                <name>Trackpoint 3393</name>
            </trkpt>
            <trkpt lat="49.847072" lon="10.1729024">
                <ele>192.0</ele>
                <time>2020-08-23T09:39:45.000Z</time>
                <name>Trackpoint 3394</name>
            </trkpt>
            <trkpt lat="49.8469888" lon="10.1730184">
                <ele>191.0</ele>
                <time>2020-08-23T09:39:47.000Z</time>
                <name>Trackpoint 3395</name>
            </trkpt>
            <trkpt lat="49.8468896" lon="10.1730984">
                <ele>191.0</ele>
                <time>2020-08-23T09:39:49.000Z</time>
                <name>Trackpoint 3396</name>
            </trkpt>
            <trkpt lat="49.8467904" lon="10.1731752">
                <ele>191.0</ele>
                <time>2020-08-23T09:39:51.000Z</time>
                <name>Trackpoint 3397</name>
            </trkpt>
            <trkpt lat="49.8466912" lon="10.173248">
                <ele>192.0</ele>
                <time>2020-08-23T09:39:53.000Z</time>
                <name>Trackpoint 3398</name>
            </trkpt>
            <trkpt lat="49.846592" lon="10.173328">
                <ele>192.0</ele>
                <time>2020-08-23T09:39:55.000Z</time>
                <name>Trackpoint 3399</name>
            </trkpt>
            <trkpt lat="49.846496" lon="10.1734048">
                <ele>192.0</ele>
                <time>2020-08-23T09:39:57.000Z</time>
                <name>Trackpoint 3400</name>
            </trkpt>
            <trkpt lat="49.8464096" lon="10.17348">
                <ele>192.0</ele>
                <time>2020-08-23T09:39:59.000Z</time>
                <name>Trackpoint 3401</name>
            </trkpt>
            <trkpt lat="49.8463264" lon="10.1735496">
                <ele>192.0</ele>
                <time>2020-08-23T09:40:01.000Z</time>
                <name>Trackpoint 3402</name>
            </trkpt>
            <trkpt lat="49.8462496" lon="10.1736184">
                <ele>192.0</ele>
                <time>2020-08-23T09:40:03.000Z</time>
                <name>Trackpoint 3403</name>
            </trkpt>
            <trkpt lat="49.8461696" lon="10.17368">
                <ele>191.0</ele>
                <time>2020-08-23T09:40:05.000Z</time>
                <name>Trackpoint 3404</name>
            </trkpt>
            <trkpt lat="49.8460928" lon="10.1737448">
                <ele>191.0</ele>
                <time>2020-08-23T09:40:07.000Z</time>
                <name>Trackpoint 3405</name>
            </trkpt>
            <trkpt lat="49.846016" lon="10.1738056">
                <ele>192.0</ele>
                <time>2020-08-23T09:40:09.000Z</time>
                <name>Trackpoint 3406</name>
            </trkpt>
            <trkpt lat="49.845936" lon="10.1738632">
                <ele>192.0</ele>
                <time>2020-08-23T09:40:11.000Z</time>
                <name>Trackpoint 3407</name>
            </trkpt>
            <trkpt lat="49.845856" lon="10.173928">
                <ele>191.0</ele>
                <time>2020-08-23T09:40:13.000Z</time>
                <name>Trackpoint 3408</name>
            </trkpt>
            <trkpt lat="49.8457792" lon="10.1739976">
                <ele>191.0</ele>
                <time>2020-08-23T09:40:15.000Z</time>
                <name>Trackpoint 3409</name>
            </trkpt>
            <trkpt lat="49.8457376" lon="10.1741088">
                <ele>191.0</ele>
                <time>2020-08-23T09:40:17.000Z</time>
                <name>Trackpoint 3410</name>
            </trkpt>
            <trkpt lat="49.8457728" lon="10.1742464">
                <ele>191.0</ele>
                <time>2020-08-23T09:40:19.000Z</time>
                <name>Trackpoint 3411</name>
            </trkpt>
            <trkpt lat="49.8458336" lon="10.1743632">
                <ele>191.0</ele>
                <time>2020-08-23T09:40:21.000Z</time>
                <name>Trackpoint 3412</name>
            </trkpt>
            <trkpt lat="49.8459104" lon="10.1744544">
                <ele>191.0</ele>
                <time>2020-08-23T09:40:23.000Z</time>
                <name>Trackpoint 3413</name>
            </trkpt>
            <trkpt lat="49.8459904" lon="10.1745184">
                <ele>191.0</ele>
                <time>2020-08-23T09:40:25.000Z</time>
                <name>Trackpoint 3414</name>
            </trkpt>
            <trkpt lat="49.8460576" lon="10.1746104">
                <ele>191.0</ele>
                <time>2020-08-23T09:40:27.000Z</time>
                <name>Trackpoint 3415</name>
            </trkpt>
            <trkpt lat="49.8460736" lon="10.1747176">
                <ele>191.0</ele>
                <time>2020-08-23T09:40:29.000Z</time>
                <name>Trackpoint 3416</name>
            </trkpt>
            <trkpt lat="49.8460896" lon="10.1748264">
                <ele>192.0</ele>
                <time>2020-08-23T09:40:31.000Z</time>
                <name>Trackpoint 3417</name>
            </trkpt>
            <trkpt lat="49.8460992" lon="10.1749248">
                <ele>191.0</ele>
                <time>2020-08-23T09:40:33.000Z</time>
                <name>Trackpoint 3418</name>
            </trkpt>
            <trkpt lat="49.8461216" lon="10.17502">
                <ele>192.0</ele>
                <time>2020-08-23T09:40:35.000Z</time>
                <name>Trackpoint 3419</name>
            </trkpt>
            <trkpt lat="49.8461536" lon="10.1751144">
                <ele>192.0</ele>
                <time>2020-08-23T09:40:37.000Z</time>
                <name>Trackpoint 3420</name>
            </trkpt>
            <trkpt lat="49.8461792" lon="10.1752032">
                <ele>192.0</ele>
                <time>2020-08-23T09:40:39.000Z</time>
                <name>Trackpoint 3421</name>
            </trkpt>
            <trkpt lat="49.846208" lon="10.1753152">
                <ele>192.0</ele>
                <time>2020-08-23T09:40:42.000Z</time>
                <name>Trackpoint 3422</name>
            </trkpt>
            <trkpt lat="49.8462464" lon="10.17542">
                <ele>192.0</ele>
                <time>2020-08-23T09:40:45.000Z</time>
                <name>Trackpoint 3423</name>
            </trkpt>
            <trkpt lat="49.8462368" lon="10.1755216">
                <ele>193.0</ele>
                <time>2020-08-23T09:40:48.000Z</time>
                <name>Trackpoint 3424</name>
            </trkpt>
            <trkpt lat="49.846112" lon="10.175504">
                <ele>193.0</ele>
                <time>2020-08-23T09:40:52.000Z</time>
                <name>Trackpoint 3425</name>
            </trkpt>
            <trkpt lat="49.845984" lon="10.1755168">
                <ele>193.0</ele>
                <time>2020-08-23T09:40:55.000Z</time>
                <name>Trackpoint 3426</name>
            </trkpt>
            <trkpt lat="49.8458592" lon="10.1755488">
                <ele>193.0</ele>
                <time>2020-08-23T09:40:58.000Z</time>
                <name>Trackpoint 3427</name>
            </trkpt>
            <trkpt lat="49.8457728" lon="10.1755752">
                <ele>193.0</ele>
                <time>2020-08-23T09:41:00.000Z</time>
                <name>Trackpoint 3428</name>
            </trkpt>
            <trkpt lat="49.8456736" lon="10.175616">
                <ele>193.0</ele>
                <time>2020-08-23T09:41:02.000Z</time>
                <name>Trackpoint 3429</name>
            </trkpt>
            <trkpt lat="49.8455648" lon="10.1756496">
                <ele>193.0</ele>
                <time>2020-08-23T09:41:04.000Z</time>
                <name>Trackpoint 3430</name>
            </trkpt>
            <trkpt lat="49.845472" lon="10.1756832">
                <ele>192.0</ele>
                <time>2020-08-23T09:41:06.000Z</time>
                <name>Trackpoint 3431</name>
            </trkpt>
            <trkpt lat="49.8453792" lon="10.1757152">
                <ele>192.0</ele>
                <time>2020-08-23T09:41:08.000Z</time>
                <name>Trackpoint 3432</name>
            </trkpt>
            <trkpt lat="49.8452832" lon="10.1757432">
                <ele>192.0</ele>
                <time>2020-08-23T09:41:10.000Z</time>
                <name>Trackpoint 3433</name>
            </trkpt>
            <trkpt lat="49.8451808" lon="10.1757968">
                <ele>192.0</ele>
                <time>2020-08-23T09:41:12.000Z</time>
                <name>Trackpoint 3434</name>
            </trkpt>
            <trkpt lat="49.8450816" lon="10.1758496">
                <ele>192.0</ele>
                <time>2020-08-23T09:41:14.000Z</time>
                <name>Trackpoint 3435</name>
            </trkpt>
            <trkpt lat="49.844976" lon="10.1759072">
                <ele>192.0</ele>
                <time>2020-08-23T09:41:16.000Z</time>
                <name>Trackpoint 3436</name>
            </trkpt>
            <trkpt lat="49.8448704" lon="10.1759664">
                <ele>192.0</ele>
                <time>2020-08-23T09:41:18.000Z</time>
                <name>Trackpoint 3437</name>
            </trkpt>
            <trkpt lat="49.8447808" lon="10.1760232">
                <ele>192.0</ele>
                <time>2020-08-23T09:41:20.000Z</time>
                <name>Trackpoint 3438</name>
            </trkpt>
            <trkpt lat="49.8446784" lon="10.1760704">
                <ele>192.0</ele>
                <time>2020-08-23T09:41:22.000Z</time>
                <name>Trackpoint 3439</name>
            </trkpt>
            <trkpt lat="49.8445792" lon="10.1761152">
                <ele>192.0</ele>
                <time>2020-08-23T09:41:24.000Z</time>
                <name>Trackpoint 3440</name>
            </trkpt>
            <trkpt lat="49.8444704" lon="10.1761528">
                <ele>192.0</ele>
                <time>2020-08-23T09:41:26.000Z</time>
                <name>Trackpoint 3441</name>
            </trkpt>
            <trkpt lat="49.844368" lon="10.1762088">
                <ele>192.0</ele>
                <time>2020-08-23T09:41:28.000Z</time>
                <name>Trackpoint 3442</name>
            </trkpt>
            <trkpt lat="49.8442688" lon="10.1762648">
                <ele>192.0</ele>
                <time>2020-08-23T09:41:30.000Z</time>
                <name>Trackpoint 3443</name>
            </trkpt>
            <trkpt lat="49.8441728" lon="10.176316">
                <ele>192.0</ele>
                <time>2020-08-23T09:41:32.000Z</time>
                <name>Trackpoint 3444</name>
            </trkpt>
            <trkpt lat="49.8440832" lon="10.176376">
                <ele>192.0</ele>
                <time>2020-08-23T09:41:34.000Z</time>
                <name>Trackpoint 3445</name>
            </trkpt>
            <trkpt lat="49.8440032" lon="10.17642">
                <ele>192.0</ele>
                <time>2020-08-23T09:41:36.000Z</time>
                <name>Trackpoint 3446</name>
            </trkpt>
            <trkpt lat="49.8439328" lon="10.1764768">
                <ele>194.0</ele>
                <time>2020-08-23T09:42:40.000Z</time>
                <name>Trackpoint 3447</name>
            </trkpt>
            <trkpt lat="49.843856" lon="10.17654">
                <ele>194.0</ele>
                <time>2020-08-23T09:42:43.000Z</time>
                <name>Trackpoint 3448</name>
            </trkpt>
            <trkpt lat="49.8437792" lon="10.1766032">
                <ele>194.0</ele>
                <time>2020-08-23T09:42:46.000Z</time>
                <name>Trackpoint 3449</name>
            </trkpt>
            <trkpt lat="49.8436928" lon="10.17668">
                <ele>194.0</ele>
                <time>2020-08-23T09:42:50.000Z</time>
                <name>Trackpoint 3450</name>
            </trkpt>
            <trkpt lat="49.8436192" lon="10.1767384">
                <ele>193.0</ele>
                <time>2020-08-23T09:42:53.000Z</time>
                <name>Trackpoint 3451</name>
            </trkpt>
            <trkpt lat="49.8435328" lon="10.1768">
                <ele>194.0</ele>
                <time>2020-08-23T09:42:56.000Z</time>
                <name>Trackpoint 3452</name>
            </trkpt>
            <trkpt lat="49.8434336" lon="10.1768776">
                <ele>194.0</ele>
                <time>2020-08-23T09:42:59.000Z</time>
                <name>Trackpoint 3453</name>
            </trkpt>
            <trkpt lat="49.84336" lon="10.1769368">
                <ele>194.0</ele>
                <time>2020-08-23T09:43:01.000Z</time>
                <name>Trackpoint 3454</name>
            </trkpt>
            <trkpt lat="49.843296" lon="10.1770032">
                <ele>194.0</ele>
                <time>2020-08-23T09:43:03.000Z</time>
                <name>Trackpoint 3455</name>
            </trkpt>
            <trkpt lat="49.8432224" lon="10.1770696">
                <ele>193.0</ele>
                <time>2020-08-23T09:43:05.000Z</time>
                <name>Trackpoint 3456</name>
            </trkpt>
            <trkpt lat="49.8431488" lon="10.177148">
                <ele>193.0</ele>
                <time>2020-08-23T09:43:07.000Z</time>
                <name>Trackpoint 3457</name>
            </trkpt>
            <trkpt lat="49.8430784" lon="10.177228">
                <ele>194.0</ele>
                <time>2020-08-23T09:43:09.000Z</time>
                <name>Trackpoint 3458</name>
            </trkpt>
            <trkpt lat="49.8430048" lon="10.1772984">
                <ele>194.0</ele>
                <time>2020-08-23T09:43:11.000Z</time>
                <name>Trackpoint 3459</name>
            </trkpt>
            <trkpt lat="49.8429376" lon="10.1773664">
                <ele>194.0</ele>
                <time>2020-08-23T09:43:13.000Z</time>
                <name>Trackpoint 3460</name>
            </trkpt>
            <trkpt lat="49.842864" lon="10.1774352">
                <ele>194.0</ele>
                <time>2020-08-23T09:43:15.000Z</time>
                <name>Trackpoint 3461</name>
            </trkpt>
            <trkpt lat="49.8427936" lon="10.1775112">
                <ele>194.0</ele>
                <time>2020-08-23T09:43:17.000Z</time>
                <name>Trackpoint 3462</name>
            </trkpt>
            <trkpt lat="49.84272" lon="10.1775888">
                <ele>194.0</ele>
                <time>2020-08-23T09:43:19.000Z</time>
                <name>Trackpoint 3463</name>
            </trkpt>
            <trkpt lat="49.84264" lon="10.1776696">
                <ele>194.0</ele>
                <time>2020-08-23T09:43:21.000Z</time>
                <name>Trackpoint 3464</name>
            </trkpt>
            <trkpt lat="49.84256" lon="10.1777488">
                <ele>194.0</ele>
                <time>2020-08-23T09:43:23.000Z</time>
                <name>Trackpoint 3465</name>
            </trkpt>
            <trkpt lat="49.84248" lon="10.1778224">
                <ele>194.0</ele>
                <time>2020-08-23T09:43:25.000Z</time>
                <name>Trackpoint 3466</name>
            </trkpt>
            <trkpt lat="49.8423968" lon="10.177892">
                <ele>195.0</ele>
                <time>2020-08-23T09:43:27.000Z</time>
                <name>Trackpoint 3467</name>
            </trkpt>
            <trkpt lat="49.8423104" lon="10.1779648">
                <ele>195.0</ele>
                <time>2020-08-23T09:43:29.000Z</time>
                <name>Trackpoint 3468</name>
            </trkpt>
            <trkpt lat="49.8422208" lon="10.1780368">
                <ele>195.0</ele>
                <time>2020-08-23T09:43:31.000Z</time>
                <name>Trackpoint 3469</name>
            </trkpt>
            <trkpt lat="49.8421312" lon="10.178108">
                <ele>195.0</ele>
                <time>2020-08-23T09:43:33.000Z</time>
                <name>Trackpoint 3470</name>
            </trkpt>
            <trkpt lat="49.8420384" lon="10.1781728">
                <ele>195.0</ele>
                <time>2020-08-23T09:43:35.000Z</time>
                <name>Trackpoint 3471</name>
            </trkpt>
            <trkpt lat="49.8419424" lon="10.178244">
                <ele>195.0</ele>
                <time>2020-08-23T09:43:37.000Z</time>
                <name>Trackpoint 3472</name>
            </trkpt>
            <trkpt lat="49.8418464" lon="10.1783152">
                <ele>195.0</ele>
                <time>2020-08-23T09:43:39.000Z</time>
                <name>Trackpoint 3473</name>
            </trkpt>
            <trkpt lat="49.8417472" lon="10.1783832">
                <ele>195.0</ele>
                <time>2020-08-23T09:43:41.000Z</time>
                <name>Trackpoint 3474</name>
            </trkpt>
            <trkpt lat="49.841648" lon="10.1784536">
                <ele>195.0</ele>
                <time>2020-08-23T09:43:43.000Z</time>
                <name>Trackpoint 3475</name>
            </trkpt>
            <trkpt lat="49.8415456" lon="10.1785232">
                <ele>194.0</ele>
                <time>2020-08-23T09:43:45.000Z</time>
                <name>Trackpoint 3476</name>
            </trkpt>
            <trkpt lat="49.8414368" lon="10.178588">
                <ele>194.0</ele>
                <time>2020-08-23T09:43:47.000Z</time>
                <name>Trackpoint 3477</name>
            </trkpt>
            <trkpt lat="49.8413248" lon="10.1786496">
                <ele>193.0</ele>
                <time>2020-08-23T09:43:49.000Z</time>
                <name>Trackpoint 3478</name>
            </trkpt>
            <trkpt lat="49.8412064" lon="10.178712">
                <ele>193.0</ele>
                <time>2020-08-23T09:43:51.000Z</time>
                <name>Trackpoint 3479</name>
            </trkpt>
            <trkpt lat="49.8410944" lon="10.1787728">
                <ele>192.0</ele>
                <time>2020-08-23T09:43:53.000Z</time>
                <name>Trackpoint 3480</name>
            </trkpt>
            <trkpt lat="49.840976" lon="10.1788384">
                <ele>193.0</ele>
                <time>2020-08-23T09:43:55.000Z</time>
                <name>Trackpoint 3481</name>
            </trkpt>
            <trkpt lat="49.8408608" lon="10.1789048">
                <ele>193.0</ele>
                <time>2020-08-23T09:43:57.000Z</time>
                <name>Trackpoint 3482</name>
            </trkpt>
            <trkpt lat="49.8407552" lon="10.1789752">
                <ele>192.0</ele>
                <time>2020-08-23T09:43:59.000Z</time>
                <name>Trackpoint 3483</name>
            </trkpt>
            <trkpt lat="49.8406528" lon="10.1790536">
                <ele>192.0</ele>
                <time>2020-08-23T09:44:01.000Z</time>
                <name>Trackpoint 3484</name>
            </trkpt>
            <trkpt lat="49.8405536" lon="10.1791352">
                <ele>192.0</ele>
                <time>2020-08-23T09:44:03.000Z</time>
                <name>Trackpoint 3485</name>
            </trkpt>
            <trkpt lat="49.8404576" lon="10.179216">
                <ele>192.0</ele>
                <time>2020-08-23T09:44:05.000Z</time>
                <name>Trackpoint 3486</name>
            </trkpt>
            <trkpt lat="49.8403712" lon="10.1792984">
                <ele>192.0</ele>
                <time>2020-08-23T09:44:07.000Z</time>
                <name>Trackpoint 3487</name>
            </trkpt>
            <trkpt lat="49.8402944" lon="10.179388">
                <ele>192.0</ele>
                <time>2020-08-23T09:44:09.000Z</time>
                <name>Trackpoint 3488</name>
            </trkpt>
            <trkpt lat="49.8402336" lon="10.1794704">
                <ele>193.0</ele>
                <time>2020-08-23T09:44:12.000Z</time>
                <name>Trackpoint 3489</name>
            </trkpt>
            <trkpt lat="49.8401728" lon="10.179392">
                <ele>191.0</ele>
                <time>2020-08-23T09:44:30.000Z</time>
                <name>Trackpoint 3490</name>
            </trkpt>
            <trkpt lat="49.8400832" lon="10.179468">
                <ele>189.0</ele>
                <time>2020-08-23T09:45:47.000Z</time>
                <name>Trackpoint 3491</name>
            </trkpt>
            <trkpt lat="49.8399936" lon="10.17956">
                <ele>189.0</ele>
                <time>2020-08-23T09:45:50.000Z</time>
                <name>Trackpoint 3492</name>
            </trkpt>
            <trkpt lat="49.8399328" lon="10.1796368">
                <ele>189.0</ele>
                <time>2020-08-23T09:45:52.000Z</time>
                <name>Trackpoint 3493</name>
            </trkpt>
            <trkpt lat="49.8398592" lon="10.1797136">
                <ele>189.0</ele>
                <time>2020-08-23T09:45:54.000Z</time>
                <name>Trackpoint 3494</name>
            </trkpt>
            <trkpt lat="49.8397856" lon="10.179796">
                <ele>189.0</ele>
                <time>2020-08-23T09:45:56.000Z</time>
                <name>Trackpoint 3495</name>
            </trkpt>
            <trkpt lat="49.8397152" lon="10.17988">
                <ele>189.0</ele>
                <time>2020-08-23T09:45:58.000Z</time>
                <name>Trackpoint 3496</name>
            </trkpt>
            <trkpt lat="49.8396416" lon="10.1799584">
                <ele>189.0</ele>
                <time>2020-08-23T09:46:00.000Z</time>
                <name>Trackpoint 3497</name>
            </trkpt>
            <trkpt lat="49.8395776" lon="10.1800344">
                <ele>189.0</ele>
                <time>2020-08-23T09:46:02.000Z</time>
                <name>Trackpoint 3498</name>
            </trkpt>
            <trkpt lat="49.8395008" lon="10.1801208">
                <ele>189.0</ele>
                <time>2020-08-23T09:46:04.000Z</time>
                <name>Trackpoint 3499</name>
            </trkpt>
            <trkpt lat="49.839424" lon="10.180208">
                <ele>189.0</ele>
                <time>2020-08-23T09:46:06.000Z</time>
                <name>Trackpoint 3500</name>
            </trkpt>
            <trkpt lat="49.8393472" lon="10.1802968">
                <ele>189.0</ele>
                <time>2020-08-23T09:46:08.000Z</time>
                <name>Trackpoint 3501</name>
            </trkpt>
            <trkpt lat="49.8392704" lon="10.1803848">
                <ele>189.0</ele>
                <time>2020-08-23T09:46:10.000Z</time>
                <name>Trackpoint 3502</name>
            </trkpt>
            <trkpt lat="49.8391904" lon="10.1804768">
                <ele>189.0</ele>
                <time>2020-08-23T09:46:12.000Z</time>
                <name>Trackpoint 3503</name>
            </trkpt>
            <trkpt lat="49.8391136" lon="10.1805696">
                <ele>190.0</ele>
                <time>2020-08-23T09:46:14.000Z</time>
                <name>Trackpoint 3504</name>
            </trkpt>
            <trkpt lat="49.8390432" lon="10.180668">
                <ele>189.0</ele>
                <time>2020-08-23T09:46:16.000Z</time>
                <name>Trackpoint 3505</name>
            </trkpt>
            <trkpt lat="49.8389632" lon="10.1807648">
                <ele>189.0</ele>
                <time>2020-08-23T09:46:18.000Z</time>
                <name>Trackpoint 3506</name>
            </trkpt>
            <trkpt lat="49.8388864" lon="10.1808632">
                <ele>189.0</ele>
                <time>2020-08-23T09:46:20.000Z</time>
                <name>Trackpoint 3507</name>
            </trkpt>
            <trkpt lat="49.8388032" lon="10.1809656">
                <ele>190.0</ele>
                <time>2020-08-23T09:46:22.000Z</time>
                <name>Trackpoint 3508</name>
            </trkpt>
            <trkpt lat="49.8387232" lon="10.1810664">
                <ele>190.0</ele>
                <time>2020-08-23T09:46:24.000Z</time>
                <name>Trackpoint 3509</name>
            </trkpt>
            <trkpt lat="49.8386368" lon="10.1811664">
                <ele>190.0</ele>
                <time>2020-08-23T09:46:26.000Z</time>
                <name>Trackpoint 3510</name>
            </trkpt>
            <trkpt lat="49.8385568" lon="10.1812752">
                <ele>190.0</ele>
                <time>2020-08-23T09:46:28.000Z</time>
                <name>Trackpoint 3511</name>
            </trkpt>
            <trkpt lat="49.8384768" lon="10.1813872">
                <ele>190.0</ele>
                <time>2020-08-23T09:46:30.000Z</time>
                <name>Trackpoint 3512</name>
            </trkpt>
            <trkpt lat="49.8383936" lon="10.1815008">
                <ele>190.0</ele>
                <time>2020-08-23T09:46:32.000Z</time>
                <name>Trackpoint 3513</name>
            </trkpt>
            <trkpt lat="49.8383104" lon="10.1815952">
                <ele>190.0</ele>
                <time>2020-08-23T09:46:34.000Z</time>
                <name>Trackpoint 3514</name>
            </trkpt>
            <trkpt lat="49.8382304" lon="10.1816952">
                <ele>190.0</ele>
                <time>2020-08-23T09:46:36.000Z</time>
                <name>Trackpoint 3515</name>
            </trkpt>
            <trkpt lat="49.8381536" lon="10.1818">
                <ele>190.0</ele>
                <time>2020-08-23T09:46:38.000Z</time>
                <name>Trackpoint 3516</name>
            </trkpt>
            <trkpt lat="49.83808" lon="10.1819064">
                <ele>190.0</ele>
                <time>2020-08-23T09:46:40.000Z</time>
                <name>Trackpoint 3517</name>
            </trkpt>
            <trkpt lat="49.8380064" lon="10.1820224">
                <ele>190.0</ele>
                <time>2020-08-23T09:46:42.000Z</time>
                <name>Trackpoint 3518</name>
            </trkpt>
            <trkpt lat="49.8379328" lon="10.1821344">
                <ele>190.0</ele>
                <time>2020-08-23T09:46:44.000Z</time>
                <name>Trackpoint 3519</name>
            </trkpt>
            <trkpt lat="49.837856" lon="10.182252">
                <ele>191.0</ele>
                <time>2020-08-23T09:46:46.000Z</time>
                <name>Trackpoint 3520</name>
            </trkpt>
            <trkpt lat="49.8377792" lon="10.1823664">
                <ele>191.0</ele>
                <time>2020-08-23T09:46:48.000Z</time>
                <name>Trackpoint 3521</name>
            </trkpt>
            <trkpt lat="49.8377024" lon="10.1824848">
                <ele>191.0</ele>
                <time>2020-08-23T09:46:50.000Z</time>
                <name>Trackpoint 3522</name>
            </trkpt>
            <trkpt lat="49.8376192" lon="10.1826016">
                <ele>191.0</ele>
                <time>2020-08-23T09:46:52.000Z</time>
                <name>Trackpoint 3523</name>
            </trkpt>
            <trkpt lat="49.8375424" lon="10.1827224">
                <ele>191.0</ele>
                <time>2020-08-23T09:46:54.000Z</time>
                <name>Trackpoint 3524</name>
            </trkpt>
            <trkpt lat="49.8374624" lon="10.1828368">
                <ele>191.0</ele>
                <time>2020-08-23T09:46:56.000Z</time>
                <name>Trackpoint 3525</name>
            </trkpt>
            <trkpt lat="49.8373824" lon="10.1829432">
                <ele>191.0</ele>
                <time>2020-08-23T09:46:58.000Z</time>
                <name>Trackpoint 3526</name>
            </trkpt>
            <trkpt lat="49.8373024" lon="10.1830552">
                <ele>191.0</ele>
                <time>2020-08-23T09:47:00.000Z</time>
                <name>Trackpoint 3527</name>
            </trkpt>
            <trkpt lat="49.8372224" lon="10.1831768">
                <ele>191.0</ele>
                <time>2020-08-23T09:47:02.000Z</time>
                <name>Trackpoint 3528</name>
            </trkpt>
            <trkpt lat="49.8371424" lon="10.183296">
                <ele>191.0</ele>
                <time>2020-08-23T09:47:04.000Z</time>
                <name>Trackpoint 3529</name>
            </trkpt>
            <trkpt lat="49.837056" lon="10.1834224">
                <ele>191.0</ele>
                <time>2020-08-23T09:47:06.000Z</time>
                <name>Trackpoint 3530</name>
            </trkpt>
            <trkpt lat="49.836976" lon="10.1835416">
                <ele>191.0</ele>
                <time>2020-08-23T09:47:08.000Z</time>
                <name>Trackpoint 3531</name>
            </trkpt>
            <trkpt lat="49.836896" lon="10.183648">
                <ele>191.0</ele>
                <time>2020-08-23T09:47:10.000Z</time>
                <name>Trackpoint 3532</name>
            </trkpt>
            <trkpt lat="49.836816" lon="10.1837728">
                <ele>191.0</ele>
                <time>2020-08-23T09:47:12.000Z</time>
                <name>Trackpoint 3533</name>
            </trkpt>
            <trkpt lat="49.8367264" lon="10.1838904">
                <ele>191.0</ele>
                <time>2020-08-23T09:47:14.000Z</time>
                <name>Trackpoint 3534</name>
            </trkpt>
            <trkpt lat="49.8366464" lon="10.1839864">
                <ele>191.0</ele>
                <time>2020-08-23T09:47:16.000Z</time>
                <name>Trackpoint 3535</name>
            </trkpt>
            <trkpt lat="49.8365664" lon="10.1840984">
                <ele>192.0</ele>
                <time>2020-08-23T09:47:18.000Z</time>
                <name>Trackpoint 3536</name>
            </trkpt>
            <trkpt lat="49.8364864" lon="10.1842032">
                <ele>192.0</ele>
                <time>2020-08-23T09:47:20.000Z</time>
                <name>Trackpoint 3537</name>
            </trkpt>
            <trkpt lat="49.8364096" lon="10.1843048">
                <ele>192.0</ele>
                <time>2020-08-23T09:47:22.000Z</time>
                <name>Trackpoint 3538</name>
            </trkpt>
            <trkpt lat="49.8363296" lon="10.184412">
                <ele>192.0</ele>
                <time>2020-08-23T09:47:24.000Z</time>
                <name>Trackpoint 3539</name>
            </trkpt>
            <trkpt lat="49.8362496" lon="10.1845128">
                <ele>192.0</ele>
                <time>2020-08-23T09:47:26.000Z</time>
                <name>Trackpoint 3540</name>
            </trkpt>
            <trkpt lat="49.8361728" lon="10.1846168">
                <ele>192.0</ele>
                <time>2020-08-23T09:47:28.000Z</time>
                <name>Trackpoint 3541</name>
            </trkpt>
            <trkpt lat="49.8360992" lon="10.1847216">
                <ele>192.0</ele>
                <time>2020-08-23T09:47:30.000Z</time>
                <name>Trackpoint 3542</name>
            </trkpt>
            <trkpt lat="49.8360256" lon="10.1848272">
                <ele>192.0</ele>
                <time>2020-08-23T09:47:32.000Z</time>
                <name>Trackpoint 3543</name>
            </trkpt>
            <trkpt lat="49.8359456" lon="10.184932">
                <ele>192.0</ele>
                <time>2020-08-23T09:47:34.000Z</time>
                <name>Trackpoint 3544</name>
            </trkpt>
            <trkpt lat="49.835872" lon="10.185032">
                <ele>192.0</ele>
                <time>2020-08-23T09:47:36.000Z</time>
                <name>Trackpoint 3545</name>
            </trkpt>
            <trkpt lat="49.8358016" lon="10.1851384">
                <ele>193.0</ele>
                <time>2020-08-23T09:47:38.000Z</time>
                <name>Trackpoint 3546</name>
            </trkpt>
            <trkpt lat="49.8357344" lon="10.1852504">
                <ele>192.0</ele>
                <time>2020-08-23T09:47:40.000Z</time>
                <name>Trackpoint 3547</name>
            </trkpt>
            <trkpt lat="49.835664" lon="10.1853616">
                <ele>192.0</ele>
                <time>2020-08-23T09:47:42.000Z</time>
                <name>Trackpoint 3548</name>
            </trkpt>
            <trkpt lat="49.8355872" lon="10.1854736">
                <ele>192.0</ele>
                <time>2020-08-23T09:47:44.000Z</time>
                <name>Trackpoint 3549</name>
            </trkpt>
            <trkpt lat="49.8355104" lon="10.1855896">
                <ele>192.0</ele>
                <time>2020-08-23T09:47:46.000Z</time>
                <name>Trackpoint 3550</name>
            </trkpt>
            <trkpt lat="49.8354368" lon="10.1857136">
                <ele>192.0</ele>
                <time>2020-08-23T09:47:48.000Z</time>
                <name>Trackpoint 3551</name>
            </trkpt>
            <trkpt lat="49.83536" lon="10.1858328">
                <ele>192.0</ele>
                <time>2020-08-23T09:47:50.000Z</time>
                <name>Trackpoint 3552</name>
            </trkpt>
            <trkpt lat="49.83528" lon="10.1859552">
                <ele>192.0</ele>
                <time>2020-08-23T09:47:52.000Z</time>
                <name>Trackpoint 3553</name>
            </trkpt>
            <trkpt lat="49.8352064" lon="10.1860784">
                <ele>192.0</ele>
                <time>2020-08-23T09:47:54.000Z</time>
                <name>Trackpoint 3554</name>
            </trkpt>
            <trkpt lat="49.8351328" lon="10.1862032">
                <ele>192.0</ele>
                <time>2020-08-23T09:47:56.000Z</time>
                <name>Trackpoint 3555</name>
            </trkpt>
            <trkpt lat="49.8350592" lon="10.1863248">
                <ele>191.0</ele>
                <time>2020-08-23T09:47:58.000Z</time>
                <name>Trackpoint 3556</name>
            </trkpt>
            <trkpt lat="49.834992" lon="10.186448">
                <ele>191.0</ele>
                <time>2020-08-23T09:48:00.000Z</time>
                <name>Trackpoint 3557</name>
            </trkpt>
            <trkpt lat="49.8349216" lon="10.1865728">
                <ele>191.0</ele>
                <time>2020-08-23T09:48:02.000Z</time>
                <name>Trackpoint 3558</name>
            </trkpt>
            <trkpt lat="49.8348512" lon="10.1867">
                <ele>191.0</ele>
                <time>2020-08-23T09:48:04.000Z</time>
                <name>Trackpoint 3559</name>
            </trkpt>
            <trkpt lat="49.8347776" lon="10.1868248">
                <ele>191.0</ele>
                <time>2020-08-23T09:48:06.000Z</time>
                <name>Trackpoint 3560</name>
            </trkpt>
            <trkpt lat="49.8347104" lon="10.186952">
                <ele>191.0</ele>
                <time>2020-08-23T09:48:08.000Z</time>
                <name>Trackpoint 3561</name>
            </trkpt>
            <trkpt lat="49.8346368" lon="10.1870784">
                <ele>191.0</ele>
                <time>2020-08-23T09:48:10.000Z</time>
                <name>Trackpoint 3562</name>
            </trkpt>
            <trkpt lat="49.8345696" lon="10.1872056">
                <ele>191.0</ele>
                <time>2020-08-23T09:48:12.000Z</time>
                <name>Trackpoint 3563</name>
            </trkpt>
            <trkpt lat="49.834496" lon="10.1873328">
                <ele>191.0</ele>
                <time>2020-08-23T09:48:14.000Z</time>
                <name>Trackpoint 3564</name>
            </trkpt>
            <trkpt lat="49.8344192" lon="10.187464">
                <ele>191.0</ele>
                <time>2020-08-23T09:48:16.000Z</time>
                <name>Trackpoint 3565</name>
            </trkpt>
            <trkpt lat="49.8343424" lon="10.1875848">
                <ele>191.0</ele>
                <time>2020-08-23T09:48:18.000Z</time>
                <name>Trackpoint 3566</name>
            </trkpt>
            <trkpt lat="49.8342592" lon="10.187712">
                <ele>191.0</ele>
                <time>2020-08-23T09:48:20.000Z</time>
                <name>Trackpoint 3567</name>
            </trkpt>
            <trkpt lat="49.834176" lon="10.1878368">
                <ele>191.0</ele>
                <time>2020-08-23T09:48:22.000Z</time>
                <name>Trackpoint 3568</name>
            </trkpt>
            <trkpt lat="49.8340896" lon="10.18796">
                <ele>191.0</ele>
                <time>2020-08-23T09:48:24.000Z</time>
                <name>Trackpoint 3569</name>
            </trkpt>
            <trkpt lat="49.8340096" lon="10.188084">
                <ele>191.0</ele>
                <time>2020-08-23T09:48:26.000Z</time>
                <name>Trackpoint 3570</name>
            </trkpt>
            <trkpt lat="49.8339264" lon="10.1882016">
                <ele>191.0</ele>
                <time>2020-08-23T09:48:28.000Z</time>
                <name>Trackpoint 3571</name>
            </trkpt>
            <trkpt lat="49.8338464" lon="10.18832">
                <ele>191.0</ele>
                <time>2020-08-23T09:48:30.000Z</time>
                <name>Trackpoint 3572</name>
            </trkpt>
            <trkpt lat="49.8337696" lon="10.1884416">
                <ele>191.0</ele>
                <time>2020-08-23T09:48:32.000Z</time>
                <name>Trackpoint 3573</name>
            </trkpt>
            <trkpt lat="49.8336992" lon="10.1885704">
                <ele>191.0</ele>
                <time>2020-08-23T09:48:34.000Z</time>
                <name>Trackpoint 3574</name>
            </trkpt>
            <trkpt lat="49.833632" lon="10.188712">
                <ele>191.0</ele>
                <time>2020-08-23T09:48:36.000Z</time>
                <name>Trackpoint 3575</name>
            </trkpt>
            <trkpt lat="49.8335648" lon="10.1888552">
                <ele>191.0</ele>
                <time>2020-08-23T09:48:38.000Z</time>
                <name>Trackpoint 3576</name>
            </trkpt>
            <trkpt lat="49.8334976" lon="10.1890048">
                <ele>191.0</ele>
                <time>2020-08-23T09:48:40.000Z</time>
                <name>Trackpoint 3577</name>
            </trkpt>
            <trkpt lat="49.8334272" lon="10.18916">
                <ele>191.0</ele>
                <time>2020-08-23T09:48:42.000Z</time>
                <name>Trackpoint 3578</name>
            </trkpt>
            <trkpt lat="49.8333632" lon="10.1893152">
                <ele>190.0</ele>
                <time>2020-08-23T09:48:44.000Z</time>
                <name>Trackpoint 3579</name>
            </trkpt>
            <trkpt lat="49.8332992" lon="10.1894704">
                <ele>191.0</ele>
                <time>2020-08-23T09:48:46.000Z</time>
                <name>Trackpoint 3580</name>
            </trkpt>
            <trkpt lat="49.8332352" lon="10.1896232">
                <ele>191.0</ele>
                <time>2020-08-23T09:48:48.000Z</time>
                <name>Trackpoint 3581</name>
            </trkpt>
            <trkpt lat="49.8331808" lon="10.1897736">
                <ele>191.0</ele>
                <time>2020-08-23T09:48:50.000Z</time>
                <name>Trackpoint 3582</name>
            </trkpt>
            <trkpt lat="49.8331232" lon="10.1899272">
                <ele>191.0</ele>
                <time>2020-08-23T09:48:52.000Z</time>
                <name>Trackpoint 3583</name>
            </trkpt>
            <trkpt lat="49.8330624" lon="10.1900784">
                <ele>191.0</ele>
                <time>2020-08-23T09:48:54.000Z</time>
                <name>Trackpoint 3584</name>
            </trkpt>
            <trkpt lat="49.8330048" lon="10.1902312">
                <ele>191.0</ele>
                <time>2020-08-23T09:48:56.000Z</time>
                <name>Trackpoint 3585</name>
            </trkpt>
            <trkpt lat="49.8329344" lon="10.1903936">
                <ele>191.0</ele>
                <time>2020-08-23T09:48:58.000Z</time>
                <name>Trackpoint 3586</name>
            </trkpt>
            <trkpt lat="49.8328768" lon="10.1905448">
                <ele>191.0</ele>
                <time>2020-08-23T09:49:00.000Z</time>
                <name>Trackpoint 3587</name>
            </trkpt>
            <trkpt lat="49.8328128" lon="10.1907016">
                <ele>190.0</ele>
                <time>2020-08-23T09:49:02.000Z</time>
                <name>Trackpoint 3588</name>
            </trkpt>
            <trkpt lat="49.8327552" lon="10.1908576">
                <ele>191.0</ele>
                <time>2020-08-23T09:49:04.000Z</time>
                <name>Trackpoint 3589</name>
            </trkpt>
            <trkpt lat="49.8326944" lon="10.191004">
                <ele>191.0</ele>
                <time>2020-08-23T09:49:06.000Z</time>
                <name>Trackpoint 3590</name>
            </trkpt>
            <trkpt lat="49.8326368" lon="10.1911448">
                <ele>191.0</ele>
                <time>2020-08-23T09:49:08.000Z</time>
                <name>Trackpoint 3591</name>
            </trkpt>
            <trkpt lat="49.8325856" lon="10.1912848">
                <ele>191.0</ele>
                <time>2020-08-23T09:49:10.000Z</time>
                <name>Trackpoint 3592</name>
            </trkpt>
            <trkpt lat="49.8325248" lon="10.1914232">
                <ele>191.0</ele>
                <time>2020-08-23T09:49:12.000Z</time>
                <name>Trackpoint 3593</name>
            </trkpt>
            <trkpt lat="49.8324672" lon="10.1915576">
                <ele>191.0</ele>
                <time>2020-08-23T09:49:14.000Z</time>
                <name>Trackpoint 3594</name>
            </trkpt>
            <trkpt lat="49.8324064" lon="10.1916848">
                <ele>191.0</ele>
                <time>2020-08-23T09:49:16.000Z</time>
                <name>Trackpoint 3595</name>
            </trkpt>
            <trkpt lat="49.8323392" lon="10.1918184">
                <ele>191.0</ele>
                <time>2020-08-23T09:49:18.000Z</time>
                <name>Trackpoint 3596</name>
            </trkpt>
            <trkpt lat="49.8322784" lon="10.1919496">
                <ele>191.0</ele>
                <time>2020-08-23T09:49:20.000Z</time>
                <name>Trackpoint 3597</name>
            </trkpt>
            <trkpt lat="49.8322144" lon="10.1920792">
                <ele>191.0</ele>
                <time>2020-08-23T09:49:22.000Z</time>
                <name>Trackpoint 3598</name>
            </trkpt>
            <trkpt lat="49.8321504" lon="10.1922128">
                <ele>191.0</ele>
                <time>2020-08-23T09:49:24.000Z</time>
                <name>Trackpoint 3599</name>
            </trkpt>
            <trkpt lat="49.8320832" lon="10.1923504">
                <ele>190.0</ele>
                <time>2020-08-23T09:49:26.000Z</time>
                <name>Trackpoint 3600</name>
            </trkpt>
            <trkpt lat="49.8320192" lon="10.192476">
                <ele>191.0</ele>
                <time>2020-08-23T09:49:28.000Z</time>
                <name>Trackpoint 3601</name>
            </trkpt>
            <trkpt lat="49.831968" lon="10.1925984">
                <ele>191.0</ele>
                <time>2020-08-23T09:49:30.000Z</time>
                <name>Trackpoint 3602</name>
            </trkpt>
            <trkpt lat="49.8319104" lon="10.1927096">
                <ele>191.0</ele>
                <time>2020-08-23T09:49:32.000Z</time>
                <name>Trackpoint 3603</name>
            </trkpt>
            <trkpt lat="49.8318528" lon="10.1928152">
                <ele>191.0</ele>
                <time>2020-08-23T09:49:34.000Z</time>
                <name>Trackpoint 3604</name>
            </trkpt>
            <trkpt lat="49.8318016" lon="10.1929184">
                <ele>191.0</ele>
                <time>2020-08-23T09:49:36.000Z</time>
                <name>Trackpoint 3605</name>
            </trkpt>
            <trkpt lat="49.8317568" lon="10.1930176">
                <ele>190.0</ele>
                <time>2020-08-23T09:49:38.000Z</time>
                <name>Trackpoint 3606</name>
            </trkpt>
            <trkpt lat="49.831696" lon="10.1931264">
                <ele>191.0</ele>
                <time>2020-08-23T09:49:40.000Z</time>
                <name>Trackpoint 3607</name>
            </trkpt>
            <trkpt lat="49.8316384" lon="10.1932536">
                <ele>191.0</ele>
                <time>2020-08-23T09:49:42.000Z</time>
                <name>Trackpoint 3608</name>
            </trkpt>
            <trkpt lat="49.8315744" lon="10.1933816">
                <ele>191.0</ele>
                <time>2020-08-23T09:49:44.000Z</time>
                <name>Trackpoint 3609</name>
            </trkpt>
            <trkpt lat="49.8315072" lon="10.1935152">
                <ele>191.0</ele>
                <time>2020-08-23T09:49:46.000Z</time>
                <name>Trackpoint 3610</name>
            </trkpt>
            <trkpt lat="49.831456" lon="10.1936504">
                <ele>190.0</ele>
                <time>2020-08-23T09:49:48.000Z</time>
                <name>Trackpoint 3611</name>
            </trkpt>
            <trkpt lat="49.8313888" lon="10.19378">
                <ele>190.0</ele>
                <time>2020-08-23T09:49:50.000Z</time>
                <name>Trackpoint 3612</name>
            </trkpt>
            <trkpt lat="49.831328" lon="10.1939136">
                <ele>190.0</ele>
                <time>2020-08-23T09:49:52.000Z</time>
                <name>Trackpoint 3613</name>
            </trkpt>
            <trkpt lat="49.8312672" lon="10.1940536">
                <ele>190.0</ele>
                <time>2020-08-23T09:49:54.000Z</time>
                <name>Trackpoint 3614</name>
            </trkpt>
            <trkpt lat="49.8312032" lon="10.1941864">
                <ele>190.0</ele>
                <time>2020-08-23T09:49:56.000Z</time>
                <name>Trackpoint 3615</name>
            </trkpt>
            <trkpt lat="49.8311424" lon="10.1943264">
                <ele>190.0</ele>
                <time>2020-08-23T09:49:58.000Z</time>
                <name>Trackpoint 3616</name>
            </trkpt>
            <trkpt lat="49.8310848" lon="10.1944736">
                <ele>190.0</ele>
                <time>2020-08-23T09:50:00.000Z</time>
                <name>Trackpoint 3617</name>
            </trkpt>
            <trkpt lat="49.8310272" lon="10.194616">
                <ele>190.0</ele>
                <time>2020-08-23T09:50:02.000Z</time>
                <name>Trackpoint 3618</name>
            </trkpt>
            <trkpt lat="49.8309664" lon="10.1947672">
                <ele>190.0</ele>
                <time>2020-08-23T09:50:04.000Z</time>
                <name>Trackpoint 3619</name>
            </trkpt>
            <trkpt lat="49.8309088" lon="10.1949152">
                <ele>190.0</ele>
                <time>2020-08-23T09:50:06.000Z</time>
                <name>Trackpoint 3620</name>
            </trkpt>
            <trkpt lat="49.8308512" lon="10.1950576">
                <ele>190.0</ele>
                <time>2020-08-23T09:50:08.000Z</time>
                <name>Trackpoint 3621</name>
            </trkpt>
            <trkpt lat="49.8308032" lon="10.1951984">
                <ele>190.0</ele>
                <time>2020-08-23T09:50:10.000Z</time>
                <name>Trackpoint 3622</name>
            </trkpt>
            <trkpt lat="49.8307584" lon="10.1953336">
                <ele>190.0</ele>
                <time>2020-08-23T09:50:12.000Z</time>
                <name>Trackpoint 3623</name>
            </trkpt>
            <trkpt lat="49.8307136" lon="10.1954696">
                <ele>190.0</ele>
                <time>2020-08-23T09:50:14.000Z</time>
                <name>Trackpoint 3624</name>
            </trkpt>
            <trkpt lat="49.830672" lon="10.1956168">
                <ele>190.0</ele>
                <time>2020-08-23T09:50:16.000Z</time>
                <name>Trackpoint 3625</name>
            </trkpt>
            <trkpt lat="49.8306336" lon="10.1957616">
                <ele>190.0</ele>
                <time>2020-08-23T09:50:18.000Z</time>
                <name>Trackpoint 3626</name>
            </trkpt>
            <trkpt lat="49.8306048" lon="10.1958968">
                <ele>190.0</ele>
                <time>2020-08-23T09:50:20.000Z</time>
                <name>Trackpoint 3627</name>
            </trkpt>
            <trkpt lat="49.8305728" lon="10.1960224">
                <ele>190.0</ele>
                <time>2020-08-23T09:50:22.000Z</time>
                <name>Trackpoint 3628</name>
            </trkpt>
            <trkpt lat="49.8305472" lon="10.1961368">
                <ele>190.0</ele>
                <time>2020-08-23T09:50:24.000Z</time>
                <name>Trackpoint 3629</name>
            </trkpt>
            <trkpt lat="49.8305248" lon="10.1962496">
                <ele>189.0</ele>
                <time>2020-08-23T09:50:26.000Z</time>
                <name>Trackpoint 3630</name>
            </trkpt>
            <trkpt lat="49.8304992" lon="10.1963632">
                <ele>189.0</ele>
                <time>2020-08-23T09:50:28.000Z</time>
                <name>Trackpoint 3631</name>
            </trkpt>
            <trkpt lat="49.8304736" lon="10.196484">
                <ele>189.0</ele>
                <time>2020-08-23T09:50:30.000Z</time>
                <name>Trackpoint 3632</name>
            </trkpt>
            <trkpt lat="49.830448" lon="10.1965968">
                <ele>189.0</ele>
                <time>2020-08-23T09:50:32.000Z</time>
                <name>Trackpoint 3633</name>
            </trkpt>
            <trkpt lat="49.8304256" lon="10.1967032">
                <ele>189.0</ele>
                <time>2020-08-23T09:50:34.000Z</time>
                <name>Trackpoint 3634</name>
            </trkpt>
            <trkpt lat="49.8304" lon="10.1968144">
                <ele>189.0</ele>
                <time>2020-08-23T09:50:36.000Z</time>
                <name>Trackpoint 3635</name>
            </trkpt>
            <trkpt lat="49.8303712" lon="10.1969248">
                <ele>189.0</ele>
                <time>2020-08-23T09:50:38.000Z</time>
                <name>Trackpoint 3636</name>
            </trkpt>
            <trkpt lat="49.8303456" lon="10.1970328">
                <ele>189.0</ele>
                <time>2020-08-23T09:50:40.000Z</time>
                <name>Trackpoint 3637</name>
            </trkpt>
            <trkpt lat="49.8303232" lon="10.1971416">
                <ele>189.0</ele>
                <time>2020-08-23T09:50:42.000Z</time>
                <name>Trackpoint 3638</name>
            </trkpt>
            <trkpt lat="49.8302944" lon="10.1972552">
                <ele>189.0</ele>
                <time>2020-08-23T09:50:44.000Z</time>
                <name>Trackpoint 3639</name>
            </trkpt>
            <trkpt lat="49.8302656" lon="10.1973784">
                <ele>189.0</ele>
                <time>2020-08-23T09:50:46.000Z</time>
                <name>Trackpoint 3640</name>
            </trkpt>
            <trkpt lat="49.8302368" lon="10.1975">
                <ele>189.0</ele>
                <time>2020-08-23T09:50:48.000Z</time>
                <name>Trackpoint 3641</name>
            </trkpt>
            <trkpt lat="49.830208" lon="10.1976336">
                <ele>189.0</ele>
                <time>2020-08-23T09:50:50.000Z</time>
                <name>Trackpoint 3642</name>
            </trkpt>
            <trkpt lat="49.830176" lon="10.197772">
                <ele>189.0</ele>
                <time>2020-08-23T09:50:52.000Z</time>
                <name>Trackpoint 3643</name>
            </trkpt>
            <trkpt lat="49.8301536" lon="10.1979112">
                <ele>189.0</ele>
                <time>2020-08-23T09:50:54.000Z</time>
                <name>Trackpoint 3644</name>
            </trkpt>
            <trkpt lat="49.8301248" lon="10.198056">
                <ele>189.0</ele>
                <time>2020-08-23T09:50:56.000Z</time>
                <name>Trackpoint 3645</name>
            </trkpt>
            <trkpt lat="49.8300928" lon="10.198212">
                <ele>189.0</ele>
                <time>2020-08-23T09:50:58.000Z</time>
                <name>Trackpoint 3646</name>
            </trkpt>
            <trkpt lat="49.830064" lon="10.1983632">
                <ele>190.0</ele>
                <time>2020-08-23T09:51:00.000Z</time>
                <name>Trackpoint 3647</name>
            </trkpt>
            <trkpt lat="49.8300352" lon="10.1985152">
                <ele>190.0</ele>
                <time>2020-08-23T09:51:02.000Z</time>
                <name>Trackpoint 3648</name>
            </trkpt>
            <trkpt lat="49.8300096" lon="10.1986688">
                <ele>190.0</ele>
                <time>2020-08-23T09:51:04.000Z</time>
                <name>Trackpoint 3649</name>
            </trkpt>
            <trkpt lat="49.829984" lon="10.1988232">
                <ele>190.0</ele>
                <time>2020-08-23T09:51:06.000Z</time>
                <name>Trackpoint 3650</name>
            </trkpt>
            <trkpt lat="49.8299552" lon="10.1989768">
                <ele>190.0</ele>
                <time>2020-08-23T09:51:08.000Z</time>
                <name>Trackpoint 3651</name>
            </trkpt>
            <trkpt lat="49.8299328" lon="10.1991304">
                <ele>190.0</ele>
                <time>2020-08-23T09:51:10.000Z</time>
                <name>Trackpoint 3652</name>
            </trkpt>
            <trkpt lat="49.8299104" lon="10.1992768">
                <ele>190.0</ele>
                <time>2020-08-23T09:51:12.000Z</time>
                <name>Trackpoint 3653</name>
            </trkpt>
            <trkpt lat="49.8298848" lon="10.1994168">
                <ele>190.0</ele>
                <time>2020-08-23T09:51:14.000Z</time>
                <name>Trackpoint 3654</name>
            </trkpt>
            <trkpt lat="49.8298656" lon="10.1995512">
                <ele>190.0</ele>
                <time>2020-08-23T09:51:16.000Z</time>
                <name>Trackpoint 3655</name>
            </trkpt>
            <trkpt lat="49.8298464" lon="10.1996816">
                <ele>191.0</ele>
                <time>2020-08-23T09:51:18.000Z</time>
                <name>Trackpoint 3656</name>
            </trkpt>
            <trkpt lat="49.8298304" lon="10.1998016">
                <ele>191.0</ele>
                <time>2020-08-23T09:51:20.000Z</time>
                <name>Trackpoint 3657</name>
            </trkpt>
            <trkpt lat="49.8298144" lon="10.1999104">
                <ele>191.0</ele>
                <time>2020-08-23T09:51:22.000Z</time>
                <name>Trackpoint 3658</name>
            </trkpt>
            <trkpt lat="49.8298048" lon="10.2000176">
                <ele>191.0</ele>
                <time>2020-08-23T09:51:24.000Z</time>
                <name>Trackpoint 3659</name>
            </trkpt>
            <trkpt lat="49.8298112" lon="10.2001216">
                <ele>191.0</ele>
                <time>2020-08-23T09:51:26.000Z</time>
                <name>Trackpoint 3660</name>
            </trkpt>
            <trkpt lat="49.8298976" lon="10.2002">
                <ele>191.0</ele>
                <time>2020-08-23T09:51:29.000Z</time>
                <name>Trackpoint 3661</name>
            </trkpt>
            <trkpt lat="49.8300064" lon="10.2002584">
                <ele>191.0</ele>
                <time>2020-08-23T09:51:32.000Z</time>
                <name>Trackpoint 3662</name>
            </trkpt>
            <trkpt lat="49.8301248" lon="10.2003184">
                <ele>192.0</ele>
                <time>2020-08-23T09:51:35.000Z</time>
                <name>Trackpoint 3663</name>
            </trkpt>
            <trkpt lat="49.8302048" lon="10.2003648">
                <ele>192.0</ele>
                <time>2020-08-23T09:51:37.000Z</time>
                <name>Trackpoint 3664</name>
            </trkpt>
            <trkpt lat="49.8302848" lon="10.200412">
                <ele>192.0</ele>
                <time>2020-08-23T09:51:39.000Z</time>
                <name>Trackpoint 3665</name>
            </trkpt>
            <trkpt lat="49.8303648" lon="10.2004608">
                <ele>192.0</ele>
                <time>2020-08-23T09:51:41.000Z</time>
                <name>Trackpoint 3666</name>
            </trkpt>
            <trkpt lat="49.8304416" lon="10.2005104">
                <ele>192.0</ele>
                <time>2020-08-23T09:51:43.000Z</time>
                <name>Trackpoint 3667</name>
            </trkpt>
            <trkpt lat="49.8305216" lon="10.2005584">
                <ele>193.0</ele>
                <time>2020-08-23T09:51:45.000Z</time>
                <name>Trackpoint 3668</name>
            </trkpt>
            <trkpt lat="49.8306048" lon="10.2006128">
                <ele>193.0</ele>
                <time>2020-08-23T09:51:47.000Z</time>
                <name>Trackpoint 3669</name>
            </trkpt>
            <trkpt lat="49.8306976" lon="10.200668">
                <ele>193.0</ele>
                <time>2020-08-23T09:51:49.000Z</time>
                <name>Trackpoint 3670</name>
            </trkpt>
            <trkpt lat="49.8307808" lon="10.2007248">
                <ele>194.0</ele>
                <time>2020-08-23T09:51:51.000Z</time>
                <name>Trackpoint 3671</name>
            </trkpt>
            <trkpt lat="49.8308608" lon="10.20078">
                <ele>194.0</ele>
                <time>2020-08-23T09:51:53.000Z</time>
                <name>Trackpoint 3672</name>
            </trkpt>
            <trkpt lat="49.830944" lon="10.2008352">
                <ele>195.0</ele>
                <time>2020-08-23T09:51:55.000Z</time>
                <name>Trackpoint 3673</name>
            </trkpt>
            <trkpt lat="49.8310304" lon="10.2008912">
                <ele>195.0</ele>
                <time>2020-08-23T09:51:57.000Z</time>
                <name>Trackpoint 3674</name>
            </trkpt>
            <trkpt lat="49.831104" lon="10.2009432">
                <ele>195.0</ele>
                <time>2020-08-23T09:51:59.000Z</time>
                <name>Trackpoint 3675</name>
            </trkpt>
            <trkpt lat="49.8311616" lon="10.2010472">
                <ele>195.0</ele>
                <time>2020-08-23T09:52:02.000Z</time>
                <name>Trackpoint 3676</name>
            </trkpt>
            <trkpt lat="49.8311232" lon="10.201132">
                <ele>196.0</ele>
                <time>2020-08-23T09:52:04.000Z</time>
                <name>Trackpoint 3677</name>
            </trkpt>
            <trkpt lat="49.8310624" lon="10.201228">
                <ele>196.0</ele>
                <time>2020-08-23T09:52:06.000Z</time>
                <name>Trackpoint 3678</name>
            </trkpt>
            <trkpt lat="49.8309952" lon="10.2013368">
                <ele>196.0</ele>
                <time>2020-08-23T09:52:08.000Z</time>
                <name>Trackpoint 3679</name>
            </trkpt>
            <trkpt lat="49.8309216" lon="10.201444">
                <ele>196.0</ele>
                <time>2020-08-23T09:52:10.000Z</time>
                <name>Trackpoint 3680</name>
            </trkpt>
            <trkpt lat="49.8308416" lon="10.2015584">
                <ele>197.0</ele>
                <time>2020-08-23T09:52:12.000Z</time>
                <name>Trackpoint 3681</name>
            </trkpt>
            <trkpt lat="49.8307488" lon="10.2016688">
                <ele>197.0</ele>
                <time>2020-08-23T09:52:14.000Z</time>
                <name>Trackpoint 3682</name>
            </trkpt>
            <trkpt lat="49.8306624" lon="10.2017696">
                <ele>197.0</ele>
                <time>2020-08-23T09:52:16.000Z</time>
                <name>Trackpoint 3683</name>
            </trkpt>
            <trkpt lat="49.8305824" lon="10.2018856">
                <ele>197.0</ele>
                <time>2020-08-23T09:52:18.000Z</time>
                <name>Trackpoint 3684</name>
            </trkpt>
            <trkpt lat="49.8304832" lon="10.201992">
                <ele>197.0</ele>
                <time>2020-08-23T09:52:20.000Z</time>
                <name>Trackpoint 3685</name>
            </trkpt>
            <trkpt lat="49.8303872" lon="10.2021016">
                <ele>197.0</ele>
                <time>2020-08-23T09:52:22.000Z</time>
                <name>Trackpoint 3686</name>
            </trkpt>
            <trkpt lat="49.830288" lon="10.2022112">
                <ele>198.0</ele>
                <time>2020-08-23T09:52:24.000Z</time>
                <name>Trackpoint 3687</name>
            </trkpt>
            <trkpt lat="49.830192" lon="10.2023152">
                <ele>198.0</ele>
                <time>2020-08-23T09:52:26.000Z</time>
                <name>Trackpoint 3688</name>
            </trkpt>
            <trkpt lat="49.8301024" lon="10.2024088">
                <ele>198.0</ele>
                <time>2020-08-23T09:52:28.000Z</time>
                <name>Trackpoint 3689</name>
            </trkpt>
            <trkpt lat="49.8300288" lon="10.2025032">
                <ele>198.0</ele>
                <time>2020-08-23T09:52:30.000Z</time>
                <name>Trackpoint 3690</name>
            </trkpt>
            <trkpt lat="49.8299648" lon="10.2025896">
                <ele>198.0</ele>
                <time>2020-08-23T09:52:32.000Z</time>
                <name>Trackpoint 3691</name>
            </trkpt>
            <trkpt lat="49.8298848" lon="10.2026928">
                <ele>198.0</ele>
                <time>2020-08-23T09:52:35.000Z</time>
                <name>Trackpoint 3692</name>
            </trkpt>
            <trkpt lat="49.829776" lon="10.202712">
                <ele>198.0</ele>
                <time>2020-08-23T09:52:39.000Z</time>
                <name>Trackpoint 3693</name>
            </trkpt>
            <trkpt lat="49.8297088" lon="10.2027776">
                <ele>198.0</ele>
                <time>2020-08-23T09:52:41.000Z</time>
                <name>Trackpoint 3694</name>
            </trkpt>
            <trkpt lat="49.8296544" lon="10.2028752">
                <ele>198.0</ele>
                <time>2020-08-23T09:52:43.000Z</time>
                <name>Trackpoint 3695</name>
            </trkpt>
            <trkpt lat="49.8295968" lon="10.2029712">
                <ele>198.0</ele>
                <time>2020-08-23T09:52:45.000Z</time>
                <name>Trackpoint 3696</name>
            </trkpt>
            <trkpt lat="49.829536" lon="10.20304">
                <ele>198.0</ele>
                <time>2020-08-23T09:52:47.000Z</time>
                <name>Trackpoint 3697</name>
            </trkpt>
            <trkpt lat="49.8294688" lon="10.2031048">
                <ele>199.0</ele>
                <time>2020-08-23T09:53:00.000Z</time>
                <name>Trackpoint 3698</name>
            </trkpt>
            <trkpt lat="49.829408" lon="10.203188">
                <ele>199.0</ele>
                <time>2020-08-23T09:53:15.000Z</time>
                <name>Trackpoint 3699</name>
            </trkpt>
            <trkpt lat="49.829408" lon="10.2032808">
                <ele>199.0</ele>
                <time>2020-08-23T09:53:21.000Z</time>
                <name>Trackpoint 3700</name>
            </trkpt>
            <trkpt lat="49.8293568" lon="10.2033784">
                <ele>199.0</ele>
                <time>2020-08-23T09:53:24.000Z</time>
                <name>Trackpoint 3701</name>
            </trkpt>
            <trkpt lat="49.8292992" lon="10.203472">
                <ele>199.0</ele>
                <time>2020-08-23T09:53:28.000Z</time>
                <name>Trackpoint 3702</name>
            </trkpt>
            <trkpt lat="49.8292544" lon="10.2035912">
                <ele>199.0</ele>
                <time>2020-08-23T09:53:32.000Z</time>
                <name>Trackpoint 3703</name>
            </trkpt>
            <trkpt lat="49.8291936" lon="10.2036664">
                <ele>199.0</ele>
                <time>2020-08-23T09:53:35.000Z</time>
                <name>Trackpoint 3704</name>
            </trkpt>
            <trkpt lat="49.8291424" lon="10.2037552">
                <ele>199.0</ele>
                <time>2020-08-23T09:53:38.000Z</time>
                <name>Trackpoint 3705</name>
            </trkpt>
            <trkpt lat="49.8290944" lon="10.2038584">
                <ele>199.0</ele>
                <time>2020-08-23T09:53:41.000Z</time>
                <name>Trackpoint 3706</name>
            </trkpt>
            <trkpt lat="49.8290432" lon="10.2039616">
                <ele>199.0</ele>
                <time>2020-08-23T09:53:44.000Z</time>
                <name>Trackpoint 3707</name>
            </trkpt>
            <trkpt lat="49.8290144" lon="10.204052">
                <ele>199.0</ele>
                <time>2020-08-23T09:53:49.000Z</time>
                <name>Trackpoint 3708</name>
            </trkpt>
            <trkpt lat="49.8289792" lon="10.2041864">
                <ele>201.0</ele>
                <time>2020-08-23T09:55:57.000Z</time>
                <name>Trackpoint 3717</name>
            </trkpt>
            <trkpt lat="49.8289344" lon="10.2043048">
                <ele>201.0</ele>
                <time>2020-08-23T09:56:00.000Z</time>
                <name>Trackpoint 3718</name>
            </trkpt>
            <trkpt lat="49.8288992" lon="10.2044064">
                <ele>201.0</ele>
                <time>2020-08-23T09:56:03.000Z</time>
                <name>Trackpoint 3719</name>
            </trkpt>
            <trkpt lat="49.8288544" lon="10.2045024">
                <ele>200.0</ele>
                <time>2020-08-23T09:56:07.000Z</time>
                <name>Trackpoint 3720</name>
            </trkpt>
            <trkpt lat="49.828816" lon="10.2046016">
                <ele>200.0</ele>
                <time>2020-08-23T09:57:05.000Z</time>
                <name>Trackpoint 3721</name>
            </trkpt>
            <trkpt lat="49.8287264" lon="10.2046896">
                <ele>200.0</ele>
                <time>2020-08-23T09:57:09.000Z</time>
                <name>Trackpoint 3722</name>
            </trkpt>
            <trkpt lat="49.8286528" lon="10.2047816">
                <ele>200.0</ele>
                <time>2020-08-23T09:57:12.000Z</time>
                <name>Trackpoint 3723</name>
            </trkpt>
            <trkpt lat="49.8285728" lon="10.2048792">
                <ele>199.0</ele>
                <time>2020-08-23T09:57:15.000Z</time>
                <name>Trackpoint 3724</name>
            </trkpt>
            <trkpt lat="49.8284928" lon="10.2049568">
                <ele>199.0</ele>
                <time>2020-08-23T09:57:18.000Z</time>
                <name>Trackpoint 3725</name>
            </trkpt>
            <trkpt lat="49.8284064" lon="10.2050504">
                <ele>198.0</ele>
                <time>2020-08-23T09:57:21.000Z</time>
                <name>Trackpoint 3726</name>
            </trkpt>
            <trkpt lat="49.8283488" lon="10.20512">
                <ele>198.0</ele>
                <time>2020-08-23T09:57:23.000Z</time>
                <name>Trackpoint 3727</name>
            </trkpt>
            <trkpt lat="49.8282848" lon="10.2051896">
                <ele>198.0</ele>
                <time>2020-08-23T09:57:25.000Z</time>
                <name>Trackpoint 3728</name>
            </trkpt>
            <trkpt lat="49.8282272" lon="10.20526">
                <ele>197.0</ele>
                <time>2020-08-23T09:57:27.000Z</time>
                <name>Trackpoint 3729</name>
            </trkpt>
            <trkpt lat="49.8281376" lon="10.2053368">
                <ele>197.0</ele>
                <time>2020-08-23T09:57:30.000Z</time>
                <name>Trackpoint 3730</name>
            </trkpt>
            <trkpt lat="49.8280704" lon="10.205408">
                <ele>197.0</ele>
                <time>2020-08-23T09:57:32.000Z</time>
                <name>Trackpoint 3731</name>
            </trkpt>
            <trkpt lat="49.827968" lon="10.205492">
                <ele>198.0</ele>
                <time>2020-08-23T09:57:35.000Z</time>
                <name>Trackpoint 3732</name>
            </trkpt>
            <trkpt lat="49.8278688" lon="10.205568">
                <ele>198.0</ele>
                <time>2020-08-23T09:57:38.000Z</time>
                <name>Trackpoint 3733</name>
            </trkpt>
            <trkpt lat="49.8277696" lon="10.2056304">
                <ele>198.0</ele>
                <time>2020-08-23T09:57:41.000Z</time>
                <name>Trackpoint 3734</name>
            </trkpt>
            <trkpt lat="49.8276832" lon="10.2056616">
                <ele>198.0</ele>
                <time>2020-08-23T09:58:35.000Z</time>
                <name>Trackpoint 3735</name>
            </trkpt>
            <trkpt lat="49.8275744" lon="10.2057688">
                <ele>198.0</ele>
                <time>2020-08-23T09:58:38.000Z</time>
                <name>Trackpoint 3736</name>
            </trkpt>
            <trkpt lat="49.8275072" lon="10.20584">
                <ele>198.0</ele>
                <time>2020-08-23T09:58:40.000Z</time>
                <name>Trackpoint 3737</name>
            </trkpt>
            <trkpt lat="49.8274144" lon="10.2059072">
                <ele>198.0</ele>
                <time>2020-08-23T09:58:43.000Z</time>
                <name>Trackpoint 3738</name>
            </trkpt>
            <trkpt lat="49.8273376" lon="10.205972">
                <ele>198.0</ele>
                <time>2020-08-23T09:58:45.000Z</time>
                <name>Trackpoint 3739</name>
            </trkpt>
            <trkpt lat="49.8272384" lon="10.2060816">
                <ele>197.0</ele>
                <time>2020-08-23T09:58:47.000Z</time>
                <name>Trackpoint 3740</name>
            </trkpt>
            <trkpt lat="49.8271424" lon="10.2061768">
                <ele>198.0</ele>
                <time>2020-08-23T09:58:49.000Z</time>
                <name>Trackpoint 3741</name>
            </trkpt>
            <trkpt lat="49.8270528" lon="10.2062792">
                <ele>197.0</ele>
                <time>2020-08-23T09:58:51.000Z</time>
                <name>Trackpoint 3742</name>
            </trkpt>
            <trkpt lat="49.8269696" lon="10.2063952">
                <ele>197.0</ele>
                <time>2020-08-23T09:58:53.000Z</time>
                <name>Trackpoint 3743</name>
            </trkpt>
            <trkpt lat="49.8268864" lon="10.2065096">
                <ele>197.0</ele>
                <time>2020-08-23T09:58:55.000Z</time>
                <name>Trackpoint 3744</name>
            </trkpt>
            <trkpt lat="49.8267936" lon="10.20662">
                <ele>196.0</ele>
                <time>2020-08-23T09:58:57.000Z</time>
                <name>Trackpoint 3745</name>
            </trkpt>
            <trkpt lat="49.8267072" lon="10.2067368">
                <ele>196.0</ele>
                <time>2020-08-23T09:58:59.000Z</time>
                <name>Trackpoint 3746</name>
            </trkpt>
            <trkpt lat="49.8266208" lon="10.2068528">
                <ele>195.0</ele>
                <time>2020-08-23T09:59:01.000Z</time>
                <name>Trackpoint 3747</name>
            </trkpt>
            <trkpt lat="49.8265344" lon="10.2069664">
                <ele>195.0</ele>
                <time>2020-08-23T09:59:03.000Z</time>
                <name>Trackpoint 3748</name>
            </trkpt>
            <trkpt lat="49.826448" lon="10.2070848">
                <ele>195.0</ele>
                <time>2020-08-23T09:59:05.000Z</time>
                <name>Trackpoint 3749</name>
            </trkpt>
            <trkpt lat="49.8263552" lon="10.2072048">
                <ele>195.0</ele>
                <time>2020-08-23T09:59:07.000Z</time>
                <name>Trackpoint 3750</name>
            </trkpt>
            <trkpt lat="49.8262688" lon="10.2073184">
                <ele>194.0</ele>
                <time>2020-08-23T09:59:09.000Z</time>
                <name>Trackpoint 3751</name>
            </trkpt>
            <trkpt lat="49.8261824" lon="10.207428">
                <ele>194.0</ele>
                <time>2020-08-23T09:59:11.000Z</time>
                <name>Trackpoint 3752</name>
            </trkpt>
            <trkpt lat="49.8261024" lon="10.207532">
                <ele>194.0</ele>
                <time>2020-08-23T09:59:13.000Z</time>
                <name>Trackpoint 3753</name>
            </trkpt>
            <trkpt lat="49.8260256" lon="10.2076352">
                <ele>193.0</ele>
                <time>2020-08-23T09:59:15.000Z</time>
                <name>Trackpoint 3754</name>
            </trkpt>
            <trkpt lat="49.8259616" lon="10.20774">
                <ele>193.0</ele>
                <time>2020-08-23T09:59:17.000Z</time>
                <name>Trackpoint 3755</name>
            </trkpt>
            <trkpt lat="49.8258944" lon="10.2078352">
                <ele>193.0</ele>
                <time>2020-08-23T09:59:19.000Z</time>
                <name>Trackpoint 3756</name>
            </trkpt>
            <trkpt lat="49.82584" lon="10.20794">
                <ele>193.0</ele>
                <time>2020-08-23T09:59:21.000Z</time>
                <name>Trackpoint 3757</name>
            </trkpt>
            <trkpt lat="49.825856" lon="10.208068">
                <ele>193.0</ele>
                <time>2020-08-23T09:59:23.000Z</time>
                <name>Trackpoint 3758</name>
            </trkpt>
            <trkpt lat="49.8259232" lon="10.208172">
                <ele>192.0</ele>
                <time>2020-08-23T09:59:25.000Z</time>
                <name>Trackpoint 3759</name>
            </trkpt>
            <trkpt lat="49.826" lon="10.2082528">
                <ele>192.0</ele>
                <time>2020-08-23T09:59:27.000Z</time>
                <name>Trackpoint 3760</name>
            </trkpt>
            <trkpt lat="49.8260416" lon="10.2083616">
                <ele>192.0</ele>
                <time>2020-08-23T09:59:29.000Z</time>
                <name>Trackpoint 3761</name>
            </trkpt>
            <trkpt lat="49.8260384" lon="10.2085104">
                <ele>192.0</ele>
                <time>2020-08-23T09:59:31.000Z</time>
                <name>Trackpoint 3762</name>
            </trkpt>
            <trkpt lat="49.826016" lon="10.2086736">
                <ele>191.0</ele>
                <time>2020-08-23T09:59:33.000Z</time>
                <name>Trackpoint 3763</name>
            </trkpt>
            <trkpt lat="49.8259936" lon="10.2088448">
                <ele>191.0</ele>
                <time>2020-08-23T09:59:35.000Z</time>
                <name>Trackpoint 3764</name>
            </trkpt>
            <trkpt lat="49.8259712" lon="10.209">
                <ele>191.0</ele>
                <time>2020-08-23T09:59:37.000Z</time>
                <name>Trackpoint 3765</name>
            </trkpt>
            <trkpt lat="49.8259392" lon="10.2091616">
                <ele>190.0</ele>
                <time>2020-08-23T09:59:39.000Z</time>
                <name>Trackpoint 3766</name>
            </trkpt>
            <trkpt lat="49.8259264" lon="10.2093216">
                <ele>190.0</ele>
                <time>2020-08-23T09:59:41.000Z</time>
                <name>Trackpoint 3767</name>
            </trkpt>
            <trkpt lat="49.8259168" lon="10.2094736">
                <ele>190.0</ele>
                <time>2020-08-23T09:59:43.000Z</time>
                <name>Trackpoint 3768</name>
            </trkpt>
            <trkpt lat="49.8258976" lon="10.2096328">
                <ele>190.0</ele>
                <time>2020-08-23T09:59:45.000Z</time>
                <name>Trackpoint 3769</name>
            </trkpt>
            <trkpt lat="49.8258656" lon="10.20978">
                <ele>191.0</ele>
                <time>2020-08-23T09:59:47.000Z</time>
                <name>Trackpoint 3770</name>
            </trkpt>
            <trkpt lat="49.825856" lon="10.2099416">
                <ele>190.0</ele>
                <time>2020-08-23T09:59:49.000Z</time>
                <name>Trackpoint 3771</name>
            </trkpt>
            <trkpt lat="49.8258656" lon="10.2101072">
                <ele>191.0</ele>
                <time>2020-08-23T09:59:51.000Z</time>
                <name>Trackpoint 3772</name>
            </trkpt>
            <trkpt lat="49.8258816" lon="10.21026">
                <ele>191.0</ele>
                <time>2020-08-23T09:59:53.000Z</time>
                <name>Trackpoint 3773</name>
            </trkpt>
            <trkpt lat="49.8259008" lon="10.210392">
                <ele>190.0</ele>
                <time>2020-08-23T09:59:55.000Z</time>
                <name>Trackpoint 3774</name>
            </trkpt>
            <trkpt lat="49.82592" lon="10.210524">
                <ele>190.0</ele>
                <time>2020-08-23T09:59:57.000Z</time>
                <name>Trackpoint 3775</name>
            </trkpt>
            <trkpt lat="49.8259392" lon="10.21066">
                <ele>190.0</ele>
                <time>2020-08-23T09:59:59.000Z</time>
                <name>Trackpoint 3776</name>
            </trkpt>
            <trkpt lat="49.8259648" lon="10.2107784">
                <ele>190.0</ele>
                <time>2020-08-23T10:00:01.000Z</time>
                <name>Trackpoint 3777</name>
            </trkpt>
            <trkpt lat="49.8259936" lon="10.21092">
                <ele>190.0</ele>
                <time>2020-08-23T10:00:03.000Z</time>
                <name>Trackpoint 3778</name>
            </trkpt>
            <trkpt lat="49.826032" lon="10.2110584">
                <ele>190.0</ele>
                <time>2020-08-23T10:00:05.000Z</time>
                <name>Trackpoint 3779</name>
            </trkpt>
            <trkpt lat="49.8260576" lon="10.211168">
                <ele>190.0</ele>
                <time>2020-08-23T10:00:07.000Z</time>
                <name>Trackpoint 3780</name>
            </trkpt>
            <trkpt lat="49.8260608" lon="10.2112936">
                <ele>190.0</ele>
                <time>2020-08-23T10:00:09.000Z</time>
                <name>Trackpoint 3781</name>
            </trkpt>
            <trkpt lat="49.8260608" lon="10.2114112">
                <ele>190.0</ele>
                <time>2020-08-23T10:00:11.000Z</time>
                <name>Trackpoint 3782</name>
            </trkpt>
            <trkpt lat="49.8260768" lon="10.2115368">
                <ele>190.0</ele>
                <time>2020-08-23T10:00:13.000Z</time>
                <name>Trackpoint 3783</name>
            </trkpt>
            <trkpt lat="49.8260768" lon="10.211688">
                <ele>190.0</ele>
                <time>2020-08-23T10:00:15.000Z</time>
                <name>Trackpoint 3784</name>
            </trkpt>
            <trkpt lat="49.826096" lon="10.2118168">
                <ele>190.0</ele>
                <time>2020-08-23T10:00:17.000Z</time>
                <name>Trackpoint 3785</name>
            </trkpt>
            <trkpt lat="49.8261024" lon="10.2119528">
                <ele>190.0</ele>
                <time>2020-08-23T10:00:19.000Z</time>
                <name>Trackpoint 3786</name>
            </trkpt>
            <trkpt lat="49.826096" lon="10.2121264">
                <ele>190.0</ele>
                <time>2020-08-23T10:00:21.000Z</time>
                <name>Trackpoint 3787</name>
            </trkpt>
            <trkpt lat="49.826096" lon="10.2122232">
                <ele>190.0</ele>
                <time>2020-08-23T10:00:22.000Z</time>
                <name>Trackpoint 3788</name>
            </trkpt>
            <trkpt lat="49.8261184" lon="10.2123672">
                <ele>190.0</ele>
                <time>2020-08-23T10:00:24.000Z</time>
                <name>Trackpoint 3789</name>
            </trkpt>
            <trkpt lat="49.826144" lon="10.2125056">
                <ele>190.0</ele>
                <time>2020-08-23T10:00:26.000Z</time>
                <name>Trackpoint 3790</name>
            </trkpt>
            <trkpt lat="49.8261696" lon="10.2126576">
                <ele>190.0</ele>
                <time>2020-08-23T10:00:28.000Z</time>
                <name>Trackpoint 3791</name>
            </trkpt>
            <trkpt lat="49.8261696" lon="10.2127488">
                <ele>190.0</ele>
                <time>2020-08-23T10:00:29.000Z</time>
                <name>Trackpoint 3792</name>
            </trkpt>
            <trkpt lat="49.8261824" lon="10.2129224">
                <ele>190.0</ele>
                <time>2020-08-23T10:00:31.000Z</time>
                <name>Trackpoint 3793</name>
            </trkpt>
            <trkpt lat="49.8262016" lon="10.2130968">
                <ele>190.0</ele>
                <time>2020-08-23T10:00:33.000Z</time>
                <name>Trackpoint 3794</name>
            </trkpt>
            <trkpt lat="49.826224" lon="10.2132552">
                <ele>190.0</ele>
                <time>2020-08-23T10:00:35.000Z</time>
                <name>Trackpoint 3795</name>
            </trkpt>
            <trkpt lat="49.82624" lon="10.2134104">
                <ele>190.0</ele>
                <time>2020-08-23T10:00:37.000Z</time>
                <name>Trackpoint 3796</name>
            </trkpt>
            <trkpt lat="49.8262528" lon="10.2135712">
                <ele>190.0</ele>
                <time>2020-08-23T10:00:39.000Z</time>
                <name>Trackpoint 3797</name>
            </trkpt>
            <trkpt lat="49.8262496" lon="10.2136648">
                <ele>190.0</ele>
                <time>2020-08-23T10:00:40.000Z</time>
                <name>Trackpoint 3798</name>
            </trkpt>
            <trkpt lat="49.826256" lon="10.2138344">
                <ele>190.0</ele>
                <time>2020-08-23T10:00:42.000Z</time>
                <name>Trackpoint 3799</name>
            </trkpt>
            <trkpt lat="49.8262496" lon="10.2140032">
                <ele>190.0</ele>
                <time>2020-08-23T10:00:44.000Z</time>
                <name>Trackpoint 3800</name>
            </trkpt>
            <trkpt lat="49.8262496" lon="10.2141736">
                <ele>190.0</ele>
                <time>2020-08-23T10:00:46.000Z</time>
                <name>Trackpoint 3801</name>
            </trkpt>
            <trkpt lat="49.8262496" lon="10.214336">
                <ele>190.0</ele>
                <time>2020-08-23T10:00:48.000Z</time>
                <name>Trackpoint 3802</name>
            </trkpt>
            <trkpt lat="49.8262528" lon="10.2144832">
                <ele>190.0</ele>
                <time>2020-08-23T10:00:50.000Z</time>
                <name>Trackpoint 3803</name>
            </trkpt>
            <trkpt lat="49.8262496" lon="10.214648">
                <ele>190.0</ele>
                <time>2020-08-23T10:00:52.000Z</time>
                <name>Trackpoint 3804</name>
            </trkpt>
            <trkpt lat="49.8262496" lon="10.2148184">
                <ele>190.0</ele>
                <time>2020-08-23T10:00:54.000Z</time>
                <name>Trackpoint 3805</name>
            </trkpt>
            <trkpt lat="49.8262432" lon="10.2149888">
                <ele>190.0</ele>
                <time>2020-08-23T10:00:56.000Z</time>
                <name>Trackpoint 3806</name>
            </trkpt>
            <trkpt lat="49.82624" lon="10.215152">
                <ele>190.0</ele>
                <time>2020-08-23T10:00:58.000Z</time>
                <name>Trackpoint 3807</name>
            </trkpt>
            <trkpt lat="49.8262304" lon="10.2153184">
                <ele>190.0</ele>
                <time>2020-08-23T10:01:00.000Z</time>
                <name>Trackpoint 3808</name>
            </trkpt>
            <trkpt lat="49.8262208" lon="10.2154776">
                <ele>191.0</ele>
                <time>2020-08-23T10:01:02.000Z</time>
                <name>Trackpoint 3809</name>
            </trkpt>
            <trkpt lat="49.8262144" lon="10.21562">
                <ele>191.0</ele>
                <time>2020-08-23T10:01:04.000Z</time>
                <name>Trackpoint 3810</name>
            </trkpt>
            <trkpt lat="49.8262112" lon="10.21574">
                <ele>191.0</ele>
                <time>2020-08-23T10:01:06.000Z</time>
                <name>Trackpoint 3811</name>
            </trkpt>
            <trkpt lat="49.8261952" lon="10.2158832">
                <ele>191.0</ele>
                <time>2020-08-23T10:01:08.000Z</time>
                <name>Trackpoint 3812</name>
            </trkpt>
            <trkpt lat="49.8261824" lon="10.21602">
                <ele>192.0</ele>
                <time>2020-08-23T10:01:10.000Z</time>
                <name>Trackpoint 3813</name>
            </trkpt>
            <trkpt lat="49.8261728" lon="10.2161568">
                <ele>193.0</ele>
                <time>2020-08-23T10:01:12.000Z</time>
                <name>Trackpoint 3814</name>
            </trkpt>
            <trkpt lat="49.82616" lon="10.2162864">
                <ele>194.0</ele>
                <time>2020-08-23T10:01:14.000Z</time>
                <name>Trackpoint 3815</name>
            </trkpt>
            <trkpt lat="49.8261536" lon="10.2164096">
                <ele>194.0</ele>
                <time>2020-08-23T10:01:16.000Z</time>
                <name>Trackpoint 3816</name>
            </trkpt>
            <trkpt lat="49.8261504" lon="10.2165336">
                <ele>195.0</ele>
                <time>2020-08-23T10:01:18.000Z</time>
                <name>Trackpoint 3817</name>
            </trkpt>
            <trkpt lat="49.826144" lon="10.2166568">
                <ele>195.0</ele>
                <time>2020-08-23T10:01:20.000Z</time>
                <name>Trackpoint 3818</name>
            </trkpt>
            <trkpt lat="49.826144" lon="10.2167704">
                <ele>196.0</ele>
                <time>2020-08-23T10:01:22.000Z</time>
                <name>Trackpoint 3819</name>
            </trkpt>
            <trkpt lat="49.8261536" lon="10.2168712">
                <ele>196.0</ele>
                <time>2020-08-23T10:01:24.000Z</time>
                <name>Trackpoint 3820</name>
            </trkpt>
            <trkpt lat="49.8261568" lon="10.2169864">
                <ele>196.0</ele>
                <time>2020-08-23T10:01:26.000Z</time>
                <name>Trackpoint 3821</name>
            </trkpt>
            <trkpt lat="49.8261696" lon="10.2171072">
                <ele>197.0</ele>
                <time>2020-08-23T10:01:28.000Z</time>
                <name>Trackpoint 3822</name>
            </trkpt>
            <trkpt lat="49.826176" lon="10.2172272">
                <ele>197.0</ele>
                <time>2020-08-23T10:01:30.000Z</time>
                <name>Trackpoint 3823</name>
            </trkpt>
            <trkpt lat="49.8261856" lon="10.2173416">
                <ele>197.0</ele>
                <time>2020-08-23T10:01:32.000Z</time>
                <name>Trackpoint 3824</name>
            </trkpt>
            <trkpt lat="49.8261984" lon="10.2174552">
                <ele>197.0</ele>
                <time>2020-08-23T10:01:34.000Z</time>
                <name>Trackpoint 3825</name>
            </trkpt>
            <trkpt lat="49.8262144" lon="10.2175712">
                <ele>198.0</ele>
                <time>2020-08-23T10:01:36.000Z</time>
                <name>Trackpoint 3826</name>
            </trkpt>
            <trkpt lat="49.826224" lon="10.2176912">
                <ele>198.0</ele>
                <time>2020-08-23T10:01:38.000Z</time>
                <name>Trackpoint 3827</name>
            </trkpt>
            <trkpt lat="49.8262432" lon="10.2178112">
                <ele>198.0</ele>
                <time>2020-08-23T10:01:40.000Z</time>
                <name>Trackpoint 3828</name>
            </trkpt>
            <trkpt lat="49.8262592" lon="10.2179336">
                <ele>198.0</ele>
                <time>2020-08-23T10:01:42.000Z</time>
                <name>Trackpoint 3829</name>
            </trkpt>
            <trkpt lat="49.8262784" lon="10.2180528">
                <ele>198.0</ele>
                <time>2020-08-23T10:01:44.000Z</time>
                <name>Trackpoint 3830</name>
            </trkpt>
            <trkpt lat="49.8263008" lon="10.218168">
                <ele>198.0</ele>
                <time>2020-08-23T10:01:46.000Z</time>
                <name>Trackpoint 3831</name>
            </trkpt>
            <trkpt lat="49.82632" lon="10.2182864">
                <ele>199.0</ele>
                <time>2020-08-23T10:01:48.000Z</time>
                <name>Trackpoint 3832</name>
            </trkpt>
            <trkpt lat="49.8263488" lon="10.2184016">
                <ele>199.0</ele>
                <time>2020-08-23T10:01:50.000Z</time>
                <name>Trackpoint 3833</name>
            </trkpt>
            <trkpt lat="49.8263744" lon="10.21852">
                <ele>199.0</ele>
                <time>2020-08-23T10:01:52.000Z</time>
                <name>Trackpoint 3834</name>
            </trkpt>
            <trkpt lat="49.8264096" lon="10.2186344">
                <ele>199.0</ele>
                <time>2020-08-23T10:01:54.000Z</time>
                <name>Trackpoint 3835</name>
            </trkpt>
            <trkpt lat="49.826448" lon="10.2187504">
                <ele>200.0</ele>
                <time>2020-08-23T10:01:56.000Z</time>
                <name>Trackpoint 3836</name>
            </trkpt>
            <trkpt lat="49.82648" lon="10.2188664">
                <ele>200.0</ele>
                <time>2020-08-23T10:01:58.000Z</time>
                <name>Trackpoint 3837</name>
            </trkpt>
            <trkpt lat="49.826512" lon="10.2189848">
                <ele>200.0</ele>
                <time>2020-08-23T10:02:00.000Z</time>
                <name>Trackpoint 3838</name>
            </trkpt>
            <trkpt lat="49.8265376" lon="10.2191096">
                <ele>200.0</ele>
                <time>2020-08-23T10:02:02.000Z</time>
                <name>Trackpoint 3839</name>
            </trkpt>
            <trkpt lat="49.8265504" lon="10.219236">
                <ele>200.0</ele>
                <time>2020-08-23T10:02:04.000Z</time>
                <name>Trackpoint 3840</name>
            </trkpt>
            <trkpt lat="49.82656" lon="10.2193672">
                <ele>200.0</ele>
                <time>2020-08-23T10:02:06.000Z</time>
                <name>Trackpoint 3841</name>
            </trkpt>
            <trkpt lat="49.8265728" lon="10.2194984">
                <ele>200.0</ele>
                <time>2020-08-23T10:02:08.000Z</time>
                <name>Trackpoint 3842</name>
            </trkpt>
            <trkpt lat="49.8265792" lon="10.2196328">
                <ele>200.0</ele>
                <time>2020-08-23T10:02:10.000Z</time>
                <name>Trackpoint 3843</name>
            </trkpt>
            <trkpt lat="49.826592" lon="10.2197704">
                <ele>200.0</ele>
                <time>2020-08-23T10:02:12.000Z</time>
                <name>Trackpoint 3844</name>
            </trkpt>
            <trkpt lat="49.8266016" lon="10.2199048">
                <ele>201.0</ele>
                <time>2020-08-23T10:02:14.000Z</time>
                <name>Trackpoint 3845</name>
            </trkpt>
            <trkpt lat="49.8266176" lon="10.2200296">
                <ele>201.0</ele>
                <time>2020-08-23T10:02:16.000Z</time>
                <name>Trackpoint 3846</name>
            </trkpt>
            <trkpt lat="49.8266336" lon="10.220152">
                <ele>201.0</ele>
                <time>2020-08-23T10:02:18.000Z</time>
                <name>Trackpoint 3847</name>
            </trkpt>
            <trkpt lat="49.8266592" lon="10.2202552">
                <ele>201.0</ele>
                <time>2020-08-23T10:02:20.000Z</time>
                <name>Trackpoint 3848</name>
            </trkpt>
            <trkpt lat="49.8266816" lon="10.2203552">
                <ele>201.0</ele>
                <time>2020-08-23T10:02:22.000Z</time>
                <name>Trackpoint 3849</name>
            </trkpt>
            <trkpt lat="49.8267008" lon="10.2204688">
                <ele>201.0</ele>
                <time>2020-08-23T10:02:24.000Z</time>
                <name>Trackpoint 3850</name>
            </trkpt>
            <trkpt lat="49.8267072" lon="10.2205848">
                <ele>201.0</ele>
                <time>2020-08-23T10:02:26.000Z</time>
                <name>Trackpoint 3851</name>
            </trkpt>
            <trkpt lat="49.8267104" lon="10.220688">
                <ele>201.0</ele>
                <time>2020-08-23T10:02:28.000Z</time>
                <name>Trackpoint 3852</name>
            </trkpt>
            <trkpt lat="49.8266944" lon="10.2207968">
                <ele>202.0</ele>
                <time>2020-08-23T10:02:30.000Z</time>
                <name>Trackpoint 3853</name>
            </trkpt>
            <trkpt lat="49.8266624" lon="10.2209104">
                <ele>203.0</ele>
                <time>2020-08-23T10:02:33.000Z</time>
                <name>Trackpoint 3854</name>
            </trkpt>
            <trkpt lat="49.8266464" lon="10.221">
                <ele>202.0</ele>
                <time>2020-08-23T10:05:15.000Z</time>
                <name>Trackpoint 3855</name>
            </trkpt>
            <trkpt lat="49.8266496" lon="10.2211016">
                <ele>202.0</ele>
                <time>2020-08-23T10:05:22.000Z</time>
                <name>Trackpoint 3856</name>
            </trkpt>
            <trkpt lat="49.8266592" lon="10.2211952">
                <ele>203.0</ele>
                <time>2020-08-23T10:05:26.000Z</time>
                <name>Trackpoint 3857</name>
            </trkpt>
            <trkpt lat="49.8266336" lon="10.2212848">
                <ele>202.0</ele>
                <time>2020-08-23T10:05:31.000Z</time>
                <name>Trackpoint 3858</name>
            </trkpt>
            <trkpt lat="49.8266176" lon="10.2213936">
                <ele>201.0</ele>
                <time>2020-08-23T10:05:34.000Z</time>
                <name>Trackpoint 3859</name>
            </trkpt>
            <trkpt lat="49.8266016" lon="10.2215272">
                <ele>201.0</ele>
                <time>2020-08-23T10:05:37.000Z</time>
                <name>Trackpoint 3860</name>
            </trkpt>
            <trkpt lat="49.8265952" lon="10.2216184">
                <ele>201.0</ele>
                <time>2020-08-23T10:05:39.000Z</time>
                <name>Trackpoint 3861</name>
            </trkpt>
            <trkpt lat="49.8265792" lon="10.22172">
                <ele>201.0</ele>
                <time>2020-08-23T10:05:42.000Z</time>
                <name>Trackpoint 3862</name>
            </trkpt>
            <trkpt lat="49.8265696" lon="10.2218352">
                <ele>201.0</ele>
                <time>2020-08-23T10:05:45.000Z</time>
                <name>Trackpoint 3863</name>
            </trkpt>
            <trkpt lat="49.8265632" lon="10.2219384">
                <ele>201.0</ele>
                <time>2020-08-23T10:05:47.000Z</time>
                <name>Trackpoint 3864</name>
            </trkpt>
            <trkpt lat="49.8265536" lon="10.222056">
                <ele>200.0</ele>
                <time>2020-08-23T10:05:49.000Z</time>
                <name>Trackpoint 3865</name>
            </trkpt>
            <trkpt lat="49.8265408" lon="10.2221944">
                <ele>200.0</ele>
                <time>2020-08-23T10:05:51.000Z</time>
                <name>Trackpoint 3866</name>
            </trkpt>
            <trkpt lat="49.8265216" lon="10.2223368">
                <ele>200.0</ele>
                <time>2020-08-23T10:05:53.000Z</time>
                <name>Trackpoint 3867</name>
            </trkpt>
            <trkpt lat="49.8265152" lon="10.2224864">
                <ele>200.0</ele>
                <time>2020-08-23T10:05:55.000Z</time>
                <name>Trackpoint 3868</name>
            </trkpt>
            <trkpt lat="49.8265152" lon="10.2226416">
                <ele>200.0</ele>
                <time>2020-08-23T10:05:57.000Z</time>
                <name>Trackpoint 3869</name>
            </trkpt>
            <trkpt lat="49.8265504" lon="10.22276">
                <ele>201.0</ele>
                <time>2020-08-23T10:05:59.000Z</time>
                <name>Trackpoint 3870</name>
            </trkpt>
            <trkpt lat="49.8265984" lon="10.2228448">
                <ele>201.0</ele>
                <time>2020-08-23T10:06:01.000Z</time>
                <name>Trackpoint 3871</name>
            </trkpt>
            <trkpt lat="49.8266784" lon="10.2229208">
                <ele>202.0</ele>
                <time>2020-08-23T10:06:04.000Z</time>
                <name>Trackpoint 3872</name>
            </trkpt>
            <trkpt lat="49.826752" lon="10.2230152">
                <ele>202.0</ele>
                <time>2020-08-23T10:06:07.000Z</time>
                <name>Trackpoint 3873</name>
            </trkpt>
            <trkpt lat="49.826768" lon="10.2231184">
                <ele>203.0</ele>
                <time>2020-08-23T10:06:09.000Z</time>
                <name>Trackpoint 3874</name>
            </trkpt>
            <trkpt lat="49.8267616" lon="10.2232376">
                <ele>202.0</ele>
                <time>2020-08-23T10:06:11.000Z</time>
                <name>Trackpoint 3875</name>
            </trkpt>
            <trkpt lat="49.826752" lon="10.2233632">
                <ele>203.0</ele>
                <time>2020-08-23T10:06:13.000Z</time>
                <name>Trackpoint 3876</name>
            </trkpt>
            <trkpt lat="49.82672" lon="10.22348">
                <ele>203.0</ele>
                <time>2020-08-23T10:06:15.000Z</time>
                <name>Trackpoint 3877</name>
            </trkpt>
            <trkpt lat="49.8266624" lon="10.2235768">
                <ele>203.0</ele>
                <time>2020-08-23T10:06:17.000Z</time>
                <name>Trackpoint 3878</name>
            </trkpt>
            <trkpt lat="49.8265888" lon="10.2236544">
                <ele>203.0</ele>
                <time>2020-08-23T10:06:19.000Z</time>
                <name>Trackpoint 3879</name>
            </trkpt>
            <trkpt lat="49.8264992" lon="10.2237056">
                <ele>203.0</ele>
                <time>2020-08-23T10:06:21.000Z</time>
                <name>Trackpoint 3880</name>
            </trkpt>
            <trkpt lat="49.8264032" lon="10.2237152">
                <ele>202.0</ele>
                <time>2020-08-23T10:06:23.000Z</time>
                <name>Trackpoint 3881</name>
            </trkpt>
            <trkpt lat="49.826304" lon="10.223708">
                <ele>202.0</ele>
                <time>2020-08-23T10:06:25.000Z</time>
                <name>Trackpoint 3882</name>
            </trkpt>
            <trkpt lat="49.8262112" lon="10.2236968">
                <ele>202.0</ele>
                <time>2020-08-23T10:06:27.000Z</time>
                <name>Trackpoint 3883</name>
            </trkpt>
            <trkpt lat="49.826112" lon="10.2236832">
                <ele>201.0</ele>
                <time>2020-08-23T10:06:29.000Z</time>
                <name>Trackpoint 3884</name>
            </trkpt>
            <trkpt lat="49.8260128" lon="10.2236704">
                <ele>200.0</ele>
                <time>2020-08-23T10:06:31.000Z</time>
                <name>Trackpoint 3885</name>
            </trkpt>
            <trkpt lat="49.8259136" lon="10.2236544">
                <ele>200.0</ele>
                <time>2020-08-23T10:06:33.000Z</time>
                <name>Trackpoint 3886</name>
            </trkpt>
            <trkpt lat="49.8258144" lon="10.2236456">
                <ele>200.0</ele>
                <time>2020-08-23T10:06:35.000Z</time>
                <name>Trackpoint 3887</name>
            </trkpt>
            <trkpt lat="49.8257152" lon="10.2236296">
                <ele>199.0</ele>
                <time>2020-08-23T10:06:37.000Z</time>
                <name>Trackpoint 3888</name>
            </trkpt>
            <trkpt lat="49.8256192" lon="10.2236216">
                <ele>199.0</ele>
                <time>2020-08-23T10:06:39.000Z</time>
                <name>Trackpoint 3889</name>
            </trkpt>
            <trkpt lat="49.8255232" lon="10.223608">
                <ele>199.0</ele>
                <time>2020-08-23T10:06:41.000Z</time>
                <name>Trackpoint 3890</name>
            </trkpt>
            <trkpt lat="49.8254272" lon="10.2235944">
                <ele>199.0</ele>
                <time>2020-08-23T10:06:43.000Z</time>
                <name>Trackpoint 3891</name>
            </trkpt>
            <trkpt lat="49.8252896" lon="10.2235832">
                <ele>199.0</ele>
                <time>2020-08-23T10:06:46.000Z</time>
                <name>Trackpoint 3892</name>
            </trkpt>
            <trkpt lat="49.8252" lon="10.2235736">
                <ele>199.0</ele>
                <time>2020-08-23T10:06:48.000Z</time>
                <name>Trackpoint 3893</name>
            </trkpt>
            <trkpt lat="49.8251072" lon="10.2235616">
                <ele>199.0</ele>
                <time>2020-08-23T10:06:50.000Z</time>
                <name>Trackpoint 3894</name>
            </trkpt>
            <trkpt lat="49.8250048" lon="10.223552">
                <ele>198.0</ele>
                <time>2020-08-23T10:06:52.000Z</time>
                <name>Trackpoint 3895</name>
            </trkpt>
            <trkpt lat="49.8248992" lon="10.2235416">
                <ele>198.0</ele>
                <time>2020-08-23T10:06:54.000Z</time>
                <name>Trackpoint 3896</name>
            </trkpt>
            <trkpt lat="49.8247872" lon="10.2235296">
                <ele>198.0</ele>
                <time>2020-08-23T10:06:56.000Z</time>
                <name>Trackpoint 3897</name>
            </trkpt>
            <trkpt lat="49.824672" lon="10.22352">
                <ele>198.0</ele>
                <time>2020-08-23T10:06:58.000Z</time>
                <name>Trackpoint 3898</name>
            </trkpt>
            <trkpt lat="49.8245632" lon="10.2235136">
                <ele>197.0</ele>
                <time>2020-08-23T10:07:00.000Z</time>
                <name>Trackpoint 3899</name>
            </trkpt>
            <trkpt lat="49.8244512" lon="10.2235184">
                <ele>197.0</ele>
                <time>2020-08-23T10:07:02.000Z</time>
                <name>Trackpoint 3900</name>
            </trkpt>
            <trkpt lat="49.824336" lon="10.2235416">
                <ele>197.0</ele>
                <time>2020-08-23T10:07:04.000Z</time>
                <name>Trackpoint 3901</name>
            </trkpt>
            <trkpt lat="49.8242272" lon="10.223588">
                <ele>197.0</ele>
                <time>2020-08-23T10:07:06.000Z</time>
                <name>Trackpoint 3902</name>
            </trkpt>
            <trkpt lat="49.8241184" lon="10.223652">
                <ele>197.0</ele>
                <time>2020-08-23T10:07:08.000Z</time>
                <name>Trackpoint 3903</name>
            </trkpt>
            <trkpt lat="49.8240064" lon="10.2237152">
                <ele>198.0</ele>
                <time>2020-08-23T10:07:10.000Z</time>
                <name>Trackpoint 3904</name>
            </trkpt>
            <trkpt lat="49.8238944" lon="10.223772">
                <ele>198.0</ele>
                <time>2020-08-23T10:07:12.000Z</time>
                <name>Trackpoint 3905</name>
            </trkpt>
            <trkpt lat="49.8237824" lon="10.2238392">
                <ele>198.0</ele>
                <time>2020-08-23T10:07:14.000Z</time>
                <name>Trackpoint 3906</name>
            </trkpt>
            <trkpt lat="49.8236736" lon="10.2239064">
                <ele>198.0</ele>
                <time>2020-08-23T10:07:16.000Z</time>
                <name>Trackpoint 3907</name>
            </trkpt>
            <trkpt lat="49.823568" lon="10.2239864">
                <ele>198.0</ele>
                <time>2020-08-23T10:07:18.000Z</time>
                <name>Trackpoint 3908</name>
            </trkpt>
            <trkpt lat="49.8234592" lon="10.2240536">
                <ele>198.0</ele>
                <time>2020-08-23T10:07:20.000Z</time>
                <name>Trackpoint 3909</name>
            </trkpt>
            <trkpt lat="49.8233504" lon="10.2241232">
                <ele>198.0</ele>
                <time>2020-08-23T10:07:22.000Z</time>
                <name>Trackpoint 3910</name>
            </trkpt>
            <trkpt lat="49.8232416" lon="10.2241936">
                <ele>199.0</ele>
                <time>2020-08-23T10:07:24.000Z</time>
                <name>Trackpoint 3911</name>
            </trkpt>
            <trkpt lat="49.8231392" lon="10.2242648">
                <ele>199.0</ele>
                <time>2020-08-23T10:07:26.000Z</time>
                <name>Trackpoint 3912</name>
            </trkpt>
            <trkpt lat="49.82304" lon="10.224328">
                <ele>199.0</ele>
                <time>2020-08-23T10:07:28.000Z</time>
                <name>Trackpoint 3913</name>
            </trkpt>
            <trkpt lat="49.822944" lon="10.2243944">
                <ele>200.0</ele>
                <time>2020-08-23T10:07:30.000Z</time>
                <name>Trackpoint 3914</name>
            </trkpt>
            <trkpt lat="49.8228448" lon="10.2244616">
                <ele>200.0</ele>
                <time>2020-08-23T10:07:32.000Z</time>
                <name>Trackpoint 3915</name>
            </trkpt>
            <trkpt lat="49.8227424" lon="10.2245328">
                <ele>200.0</ele>
                <time>2020-08-23T10:07:34.000Z</time>
                <name>Trackpoint 3916</name>
            </trkpt>
            <trkpt lat="49.8226432" lon="10.2245968">
                <ele>200.0</ele>
                <time>2020-08-23T10:07:36.000Z</time>
                <name>Trackpoint 3917</name>
            </trkpt>
            <trkpt lat="49.8225376" lon="10.2246264">
                <ele>201.0</ele>
                <time>2020-08-23T10:07:38.000Z</time>
                <name>Trackpoint 3918</name>
            </trkpt>
            <trkpt lat="49.8224288" lon="10.2246264">
                <ele>201.0</ele>
                <time>2020-08-23T10:07:40.000Z</time>
                <name>Trackpoint 3919</name>
            </trkpt>
            <trkpt lat="49.82232" lon="10.2246048">
                <ele>200.0</ele>
                <time>2020-08-23T10:07:42.000Z</time>
                <name>Trackpoint 3920</name>
            </trkpt>
            <trkpt lat="49.8222112" lon="10.2245704">
                <ele>200.0</ele>
                <time>2020-08-23T10:07:44.000Z</time>
                <name>Trackpoint 3921</name>
            </trkpt>
            <trkpt lat="49.8221056" lon="10.22452">
                <ele>200.0</ele>
                <time>2020-08-23T10:07:46.000Z</time>
                <name>Trackpoint 3922</name>
            </trkpt>
            <trkpt lat="49.822" lon="10.2244656">
                <ele>200.0</ele>
                <time>2020-08-23T10:07:48.000Z</time>
                <name>Trackpoint 3923</name>
            </trkpt>
            <trkpt lat="49.8218944" lon="10.2244064">
                <ele>200.0</ele>
                <time>2020-08-23T10:07:50.000Z</time>
                <name>Trackpoint 3924</name>
            </trkpt>
            <trkpt lat="49.8217888" lon="10.2243456">
                <ele>199.0</ele>
                <time>2020-08-23T10:07:52.000Z</time>
                <name>Trackpoint 3925</name>
            </trkpt>
            <trkpt lat="49.8216736" lon="10.2242832">
                <ele>199.0</ele>
                <time>2020-08-23T10:07:54.000Z</time>
                <name>Trackpoint 3926</name>
            </trkpt>
            <trkpt lat="49.8215584" lon="10.224232">
                <ele>199.0</ele>
                <time>2020-08-23T10:07:56.000Z</time>
                <name>Trackpoint 3927</name>
            </trkpt>
            <trkpt lat="49.8214432" lon="10.2241768">
                <ele>198.0</ele>
                <time>2020-08-23T10:07:58.000Z</time>
                <name>Trackpoint 3928</name>
            </trkpt>
            <trkpt lat="49.821328" lon="10.2241288">
                <ele>198.0</ele>
                <time>2020-08-23T10:08:00.000Z</time>
                <name>Trackpoint 3929</name>
            </trkpt>
            <trkpt lat="49.8212096" lon="10.2240912">
                <ele>198.0</ele>
                <time>2020-08-23T10:08:02.000Z</time>
                <name>Trackpoint 3930</name>
            </trkpt>
            <trkpt lat="49.8210912" lon="10.224076">
                <ele>197.0</ele>
                <time>2020-08-23T10:08:04.000Z</time>
                <name>Trackpoint 3931</name>
            </trkpt>
            <trkpt lat="49.8209696" lon="10.2240896">
                <ele>197.0</ele>
                <time>2020-08-23T10:08:06.000Z</time>
                <name>Trackpoint 3932</name>
            </trkpt>
            <trkpt lat="49.8208384" lon="10.2241136">
                <ele>196.0</ele>
                <time>2020-08-23T10:08:08.000Z</time>
                <name>Trackpoint 3933</name>
            </trkpt>
            <trkpt lat="49.8207104" lon="10.2241432">
                <ele>196.0</ele>
                <time>2020-08-23T10:08:10.000Z</time>
                <name>Trackpoint 3934</name>
            </trkpt>
            <trkpt lat="49.8205824" lon="10.2241824">
                <ele>196.0</ele>
                <time>2020-08-23T10:08:12.000Z</time>
                <name>Trackpoint 3935</name>
            </trkpt>
            <trkpt lat="49.8204576" lon="10.22422">
                <ele>196.0</ele>
                <time>2020-08-23T10:08:14.000Z</time>
                <name>Trackpoint 3936</name>
            </trkpt>
            <trkpt lat="49.8203328" lon="10.2242584">
                <ele>196.0</ele>
                <time>2020-08-23T10:08:16.000Z</time>
                <name>Trackpoint 3937</name>
            </trkpt>
            <trkpt lat="49.8202144" lon="10.2242872">
                <ele>196.0</ele>
                <time>2020-08-23T10:08:18.000Z</time>
                <name>Trackpoint 3938</name>
            </trkpt>
            <trkpt lat="49.8201024" lon="10.2243096">
                <ele>196.0</ele>
                <time>2020-08-23T10:08:20.000Z</time>
                <name>Trackpoint 3939</name>
            </trkpt>
            <trkpt lat="49.8199936" lon="10.2243232">
                <ele>196.0</ele>
                <time>2020-08-23T10:08:22.000Z</time>
                <name>Trackpoint 3940</name>
            </trkpt>
            <trkpt lat="49.8198848" lon="10.2243248">
                <ele>196.0</ele>
                <time>2020-08-23T10:08:24.000Z</time>
                <name>Trackpoint 3941</name>
            </trkpt>
            <trkpt lat="49.8197824" lon="10.224328">
                <ele>196.0</ele>
                <time>2020-08-23T10:08:26.000Z</time>
                <name>Trackpoint 3942</name>
            </trkpt>
            <trkpt lat="49.81968" lon="10.224328">
                <ele>197.0</ele>
                <time>2020-08-23T10:08:28.000Z</time>
                <name>Trackpoint 3943</name>
            </trkpt>
            <trkpt lat="49.8195808" lon="10.224328">
                <ele>197.0</ele>
                <time>2020-08-23T10:08:30.000Z</time>
                <name>Trackpoint 3944</name>
            </trkpt>
            <trkpt lat="49.8194816" lon="10.2243368">
                <ele>197.0</ele>
                <time>2020-08-23T10:08:32.000Z</time>
                <name>Trackpoint 3945</name>
            </trkpt>
            <trkpt lat="49.8193824" lon="10.2243728">
                <ele>197.0</ele>
                <time>2020-08-23T10:08:34.000Z</time>
                <name>Trackpoint 3946</name>
            </trkpt>
            <trkpt lat="49.8192864" lon="10.2244352">
                <ele>197.0</ele>
                <time>2020-08-23T10:08:36.000Z</time>
                <name>Trackpoint 3947</name>
            </trkpt>
            <trkpt lat="49.8191936" lon="10.2245016">
                <ele>197.0</ele>
                <time>2020-08-23T10:08:38.000Z</time>
                <name>Trackpoint 3948</name>
            </trkpt>
            <trkpt lat="49.819104" lon="10.2245664">
                <ele>198.0</ele>
                <time>2020-08-23T10:08:40.000Z</time>
                <name>Trackpoint 3949</name>
            </trkpt>
            <trkpt lat="49.819008" lon="10.2246216">
                <ele>198.0</ele>
                <time>2020-08-23T10:08:42.000Z</time>
                <name>Trackpoint 3950</name>
            </trkpt>
            <trkpt lat="49.818912" lon="10.2246752">
                <ele>198.0</ele>
                <time>2020-08-23T10:08:44.000Z</time>
                <name>Trackpoint 3951</name>
            </trkpt>
            <trkpt lat="49.8188128" lon="10.2247264">
                <ele>198.0</ele>
                <time>2020-08-23T10:08:46.000Z</time>
                <name>Trackpoint 3952</name>
            </trkpt>
            <trkpt lat="49.8187264" lon="10.2247696">
                <ele>198.0</ele>
                <time>2020-08-23T10:08:48.000Z</time>
                <name>Trackpoint 3953</name>
            </trkpt>
            <trkpt lat="49.8186304" lon="10.2248064">
                <ele>198.0</ele>
                <time>2020-08-23T10:08:50.000Z</time>
                <name>Trackpoint 3954</name>
            </trkpt>
            <trkpt lat="49.8185344" lon="10.2248536">
                <ele>198.0</ele>
                <time>2020-08-23T10:08:52.000Z</time>
                <name>Trackpoint 3955</name>
            </trkpt>
            <trkpt lat="49.8184352" lon="10.2248968">
                <ele>198.0</ele>
                <time>2020-08-23T10:08:54.000Z</time>
                <name>Trackpoint 3956</name>
            </trkpt>
            <trkpt lat="49.818336" lon="10.2249432">
                <ele>198.0</ele>
                <time>2020-08-23T10:08:56.000Z</time>
                <name>Trackpoint 3957</name>
            </trkpt>
            <trkpt lat="49.81824" lon="10.2249944">
                <ele>198.0</ele>
                <time>2020-08-23T10:08:58.000Z</time>
                <name>Trackpoint 3958</name>
            </trkpt>
            <trkpt lat="49.8181472" lon="10.225048">
                <ele>198.0</ele>
                <time>2020-08-23T10:09:00.000Z</time>
                <name>Trackpoint 3959</name>
            </trkpt>
            <trkpt lat="49.818048" lon="10.2250984">
                <ele>198.0</ele>
                <time>2020-08-23T10:09:02.000Z</time>
                <name>Trackpoint 3960</name>
            </trkpt>
            <trkpt lat="49.8179392" lon="10.22514">
                <ele>198.0</ele>
                <time>2020-08-23T10:09:04.000Z</time>
                <name>Trackpoint 3961</name>
            </trkpt>
            <trkpt lat="49.8178336" lon="10.2251856">
                <ele>198.0</ele>
                <time>2020-08-23T10:09:06.000Z</time>
                <name>Trackpoint 3962</name>
            </trkpt>
            <trkpt lat="49.8177312" lon="10.225232">
                <ele>198.0</ele>
                <time>2020-08-23T10:09:08.000Z</time>
                <name>Trackpoint 3963</name>
            </trkpt>
            <trkpt lat="49.8176224" lon="10.2252768">
                <ele>198.0</ele>
                <time>2020-08-23T10:09:10.000Z</time>
                <name>Trackpoint 3964</name>
            </trkpt>
            <trkpt lat="49.8175168" lon="10.2253216">
                <ele>197.0</ele>
                <time>2020-08-23T10:09:12.000Z</time>
                <name>Trackpoint 3965</name>
            </trkpt>
            <trkpt lat="49.8174016" lon="10.2253552">
                <ele>197.0</ele>
                <time>2020-08-23T10:09:14.000Z</time>
                <name>Trackpoint 3966</name>
            </trkpt>
            <trkpt lat="49.817296" lon="10.2253864">
                <ele>197.0</ele>
                <time>2020-08-23T10:09:16.000Z</time>
                <name>Trackpoint 3967</name>
            </trkpt>
            <trkpt lat="49.8171872" lon="10.2254136">
                <ele>197.0</ele>
                <time>2020-08-23T10:09:18.000Z</time>
                <name>Trackpoint 3968</name>
            </trkpt>
            <trkpt lat="49.8170816" lon="10.2254296">
                <ele>197.0</ele>
                <time>2020-08-23T10:09:20.000Z</time>
                <name>Trackpoint 3969</name>
            </trkpt>
            <trkpt lat="49.816976" lon="10.2254312">
                <ele>196.0</ele>
                <time>2020-08-23T10:09:22.000Z</time>
                <name>Trackpoint 3970</name>
            </trkpt>
            <trkpt lat="49.8168672" lon="10.2254312">
                <ele>196.0</ele>
                <time>2020-08-23T10:09:24.000Z</time>
                <name>Trackpoint 3971</name>
            </trkpt>
            <trkpt lat="49.8167648" lon="10.2254336">
                <ele>195.0</ele>
                <time>2020-08-23T10:09:26.000Z</time>
                <name>Trackpoint 3972</name>
            </trkpt>
            <trkpt lat="49.8166592" lon="10.2254312">
                <ele>195.0</ele>
                <time>2020-08-23T10:09:28.000Z</time>
                <name>Trackpoint 3973</name>
            </trkpt>
            <trkpt lat="49.8165536" lon="10.22544">
                <ele>195.0</ele>
                <time>2020-08-23T10:09:30.000Z</time>
                <name>Trackpoint 3974</name>
            </trkpt>
            <trkpt lat="49.816448" lon="10.2254488">
                <ele>194.0</ele>
                <time>2020-08-23T10:09:32.000Z</time>
                <name>Trackpoint 3975</name>
            </trkpt>
            <trkpt lat="49.816336" lon="10.2254536">
                <ele>194.0</ele>
                <time>2020-08-23T10:09:34.000Z</time>
                <name>Trackpoint 3976</name>
            </trkpt>
            <trkpt lat="49.8162304" lon="10.2254496">
                <ele>193.0</ele>
                <time>2020-08-23T10:09:36.000Z</time>
                <name>Trackpoint 3977</name>
            </trkpt>
            <trkpt lat="49.8161216" lon="10.2254536">
                <ele>193.0</ele>
                <time>2020-08-23T10:09:38.000Z</time>
                <name>Trackpoint 3978</name>
            </trkpt>
            <trkpt lat="49.8160096" lon="10.225456">
                <ele>192.0</ele>
                <time>2020-08-23T10:09:40.000Z</time>
                <name>Trackpoint 3979</name>
            </trkpt>
            <trkpt lat="49.8158944" lon="10.2254696">
                <ele>191.0</ele>
                <time>2020-08-23T10:09:42.000Z</time>
                <name>Trackpoint 3980</name>
            </trkpt>
            <trkpt lat="49.815776" lon="10.225476">
                <ele>191.0</ele>
                <time>2020-08-23T10:09:44.000Z</time>
                <name>Trackpoint 3981</name>
            </trkpt>
            <trkpt lat="49.8156576" lon="10.225476">
                <ele>191.0</ele>
                <time>2020-08-23T10:09:46.000Z</time>
                <name>Trackpoint 3982</name>
            </trkpt>
            <trkpt lat="49.8155456" lon="10.2254848">
                <ele>190.0</ele>
                <time>2020-08-23T10:09:48.000Z</time>
                <name>Trackpoint 3983</name>
            </trkpt>
            <trkpt lat="49.8154272" lon="10.2255032">
                <ele>190.0</ele>
                <time>2020-08-23T10:09:50.000Z</time>
                <name>Trackpoint 3984</name>
            </trkpt>
            <trkpt lat="49.8153152" lon="10.2255232">
                <ele>189.0</ele>
                <time>2020-08-23T10:09:52.000Z</time>
                <name>Trackpoint 3985</name>
            </trkpt>
            <trkpt lat="49.8152032" lon="10.2255424">
                <ele>189.0</ele>
                <time>2020-08-23T10:09:54.000Z</time>
                <name>Trackpoint 3986</name>
            </trkpt>
            <trkpt lat="49.8150944" lon="10.225552">
                <ele>189.0</ele>
                <time>2020-08-23T10:09:56.000Z</time>
                <name>Trackpoint 3987</name>
            </trkpt>
            <trkpt lat="49.814992" lon="10.2255632">
                <ele>189.0</ele>
                <time>2020-08-23T10:09:58.000Z</time>
                <name>Trackpoint 3988</name>
            </trkpt>
            <trkpt lat="49.8148896" lon="10.2255648">
                <ele>189.0</ele>
                <time>2020-08-23T10:10:00.000Z</time>
                <name>Trackpoint 3989</name>
            </trkpt>
            <trkpt lat="49.814784" lon="10.225552">
                <ele>189.0</ele>
                <time>2020-08-23T10:10:02.000Z</time>
                <name>Trackpoint 3990</name>
            </trkpt>
            <trkpt lat="49.8146784" lon="10.2255312">
                <ele>188.0</ele>
                <time>2020-08-23T10:10:04.000Z</time>
                <name>Trackpoint 3991</name>
            </trkpt>
            <trkpt lat="49.8145664" lon="10.2255088">
                <ele>188.0</ele>
                <time>2020-08-23T10:10:06.000Z</time>
                <name>Trackpoint 3992</name>
            </trkpt>
            <trkpt lat="49.814464" lon="10.22548">
                <ele>188.0</ele>
                <time>2020-08-23T10:10:08.000Z</time>
                <name>Trackpoint 3993</name>
            </trkpt>
            <trkpt lat="49.8143648" lon="10.2254536">
                <ele>188.0</ele>
                <time>2020-08-23T10:10:10.000Z</time>
                <name>Trackpoint 3994</name>
            </trkpt>
            <trkpt lat="49.8142688" lon="10.2254288">
                <ele>188.0</ele>
                <time>2020-08-23T10:10:12.000Z</time>
                <name>Trackpoint 3995</name>
            </trkpt>
            <trkpt lat="49.814176" lon="10.2254184">
                <ele>189.0</ele>
                <time>2020-08-23T10:10:14.000Z</time>
                <name>Trackpoint 3996</name>
            </trkpt>
            <trkpt lat="49.8140832" lon="10.2254064">
                <ele>189.0</ele>
                <time>2020-08-23T10:10:16.000Z</time>
                <name>Trackpoint 3997</name>
            </trkpt>
            <trkpt lat="49.8139712" lon="10.2253584">
                <ele>189.0</ele>
                <time>2020-08-23T10:10:19.000Z</time>
                <name>Trackpoint 3998</name>
            </trkpt>
            <trkpt lat="49.8138816" lon="10.2252848">
                <ele>189.0</ele>
                <time>2020-08-23T10:10:22.000Z</time>
                <name>Trackpoint 3999</name>
            </trkpt>
            <trkpt lat="49.8137664" lon="10.22526">
                <ele>189.0</ele>
                <time>2020-08-23T10:10:25.000Z</time>
                <name>Trackpoint 4000</name>
            </trkpt>
            <trkpt lat="49.8136352" lon="10.2253016">
                <ele>189.0</ele>
                <time>2020-08-23T10:10:28.000Z</time>
                <name>Trackpoint 4001</name>
            </trkpt>
            <trkpt lat="49.8135552" lon="10.2253512">
                <ele>189.0</ele>
                <time>2020-08-23T10:10:30.000Z</time>
                <name>Trackpoint 4002</name>
            </trkpt>
            <trkpt lat="49.8134688" lon="10.2254">
                <ele>189.0</ele>
                <time>2020-08-23T10:10:32.000Z</time>
                <name>Trackpoint 4003</name>
            </trkpt>
            <trkpt lat="49.8133824" lon="10.2254616">
                <ele>189.0</ele>
                <time>2020-08-23T10:10:34.000Z</time>
                <name>Trackpoint 4004</name>
            </trkpt>
            <trkpt lat="49.8132896" lon="10.2255048">
                <ele>189.0</ele>
                <time>2020-08-23T10:10:36.000Z</time>
                <name>Trackpoint 4005</name>
            </trkpt>
            <trkpt lat="49.8131968" lon="10.2255488">
                <ele>189.0</ele>
                <time>2020-08-23T10:10:38.000Z</time>
                <name>Trackpoint 4006</name>
            </trkpt>
            <trkpt lat="49.8130976" lon="10.2256">
                <ele>189.0</ele>
                <time>2020-08-23T10:10:40.000Z</time>
                <name>Trackpoint 4007</name>
            </trkpt>
            <trkpt lat="49.813008" lon="10.2256544">
                <ele>189.0</ele>
                <time>2020-08-23T10:10:42.000Z</time>
                <name>Trackpoint 4008</name>
            </trkpt>
            <trkpt lat="49.8129248" lon="10.2257096">
                <ele>190.0</ele>
                <time>2020-08-23T10:10:44.000Z</time>
                <name>Trackpoint 4009</name>
            </trkpt>
            <trkpt lat="49.8128288" lon="10.2257632">
                <ele>190.0</ele>
                <time>2020-08-23T10:10:46.000Z</time>
                <name>Trackpoint 4010</name>
            </trkpt>
            <trkpt lat="49.8127328" lon="10.2258232">
                <ele>190.0</ele>
                <time>2020-08-23T10:10:48.000Z</time>
                <name>Trackpoint 4011</name>
            </trkpt>
            <trkpt lat="49.8126368" lon="10.2258816">
                <ele>190.0</ele>
                <time>2020-08-23T10:10:50.000Z</time>
                <name>Trackpoint 4012</name>
            </trkpt>
            <trkpt lat="49.8125472" lon="10.2259552">
                <ele>190.0</ele>
                <time>2020-08-23T10:10:52.000Z</time>
                <name>Trackpoint 4013</name>
            </trkpt>
            <trkpt lat="49.8124608" lon="10.2260512">
                <ele>190.0</ele>
                <time>2020-08-23T10:10:54.000Z</time>
                <name>Trackpoint 4014</name>
            </trkpt>
            <trkpt lat="49.8124" lon="10.2261864">
                <ele>190.0</ele>
                <time>2020-08-23T10:10:56.000Z</time>
                <name>Trackpoint 4015</name>
            </trkpt>
            <trkpt lat="49.8123552" lon="10.226328">
                <ele>190.0</ele>
                <time>2020-08-23T10:10:58.000Z</time>
                <name>Trackpoint 4016</name>
            </trkpt>
            <trkpt lat="49.812336" lon="10.2264544">
                <ele>190.0</ele>
                <time>2020-08-23T10:11:00.000Z</time>
                <name>Trackpoint 4017</name>
            </trkpt>
            <trkpt lat="49.8123008" lon="10.2265832">
                <ele>190.0</ele>
                <time>2020-08-23T10:11:02.000Z</time>
                <name>Trackpoint 4018</name>
            </trkpt>
            <trkpt lat="49.8122528" lon="10.2267248">
                <ele>190.0</ele>
                <time>2020-08-23T10:11:04.000Z</time>
                <name>Trackpoint 4019</name>
            </trkpt>
            <trkpt lat="49.8121984" lon="10.2268696">
                <ele>191.0</ele>
                <time>2020-08-23T10:11:06.000Z</time>
                <name>Trackpoint 4020</name>
            </trkpt>
            <trkpt lat="49.8121344" lon="10.2270048">
                <ele>191.0</ele>
                <time>2020-08-23T10:11:08.000Z</time>
                <name>Trackpoint 4021</name>
            </trkpt>
            <trkpt lat="49.8120544" lon="10.2271496">
                <ele>191.0</ele>
                <time>2020-08-23T10:11:10.000Z</time>
                <name>Trackpoint 4022</name>
            </trkpt>
            <trkpt lat="49.8119712" lon="10.2272904">
                <ele>191.0</ele>
                <time>2020-08-23T10:11:12.000Z</time>
                <name>Trackpoint 4023</name>
            </trkpt>
            <trkpt lat="49.8118784" lon="10.2274064">
                <ele>191.0</ele>
                <time>2020-08-23T10:11:14.000Z</time>
                <name>Trackpoint 4024</name>
            </trkpt>
            <trkpt lat="49.8117856" lon="10.2275064">
                <ele>191.0</ele>
                <time>2020-08-23T10:11:16.000Z</time>
                <name>Trackpoint 4025</name>
            </trkpt>
            <trkpt lat="49.8116992" lon="10.2275952">
                <ele>191.0</ele>
                <time>2020-08-23T10:11:18.000Z</time>
                <name>Trackpoint 4026</name>
            </trkpt>
            <trkpt lat="49.8116032" lon="10.2276832">
                <ele>191.0</ele>
                <time>2020-08-23T10:11:20.000Z</time>
                <name>Trackpoint 4027</name>
            </trkpt>
            <trkpt lat="49.8115104" lon="10.2277816">
                <ele>191.0</ele>
                <time>2020-08-23T10:11:22.000Z</time>
                <name>Trackpoint 4028</name>
            </trkpt>
            <trkpt lat="49.8114176" lon="10.2278856">
                <ele>192.0</ele>
                <time>2020-08-23T10:11:24.000Z</time>
                <name>Trackpoint 4029</name>
            </trkpt>
            <trkpt lat="49.8113152" lon="10.2279864">
                <ele>192.0</ele>
                <time>2020-08-23T10:11:26.000Z</time>
                <name>Trackpoint 4030</name>
            </trkpt>
            <trkpt lat="49.8112192" lon="10.2280904">
                <ele>192.0</ele>
                <time>2020-08-23T10:11:28.000Z</time>
                <name>Trackpoint 4031</name>
            </trkpt>
            <trkpt lat="49.8111296" lon="10.2281904">
                <ele>192.0</ele>
                <time>2020-08-23T10:11:30.000Z</time>
                <name>Trackpoint 4032</name>
            </trkpt>
            <trkpt lat="49.8110496" lon="10.2282832">
                <ele>192.0</ele>
                <time>2020-08-23T10:11:32.000Z</time>
                <name>Trackpoint 4033</name>
            </trkpt>
            <trkpt lat="49.8109536" lon="10.2283384">
                <ele>192.0</ele>
                <time>2020-08-23T10:11:35.000Z</time>
                <name>Trackpoint 4034</name>
            </trkpt>
            <trkpt lat="49.8108864" lon="10.2282488">
                <ele>192.0</ele>
                <time>2020-08-23T10:11:38.000Z</time>
                <name>Trackpoint 4035</name>
            </trkpt>
            <trkpt lat="49.810848" lon="10.2281464">
                <ele>192.0</ele>
                <time>2020-08-23T10:11:40.000Z</time>
                <name>Trackpoint 4036</name>
            </trkpt>
            <trkpt lat="49.8108224" lon="10.2280464">
                <ele>192.0</ele>
                <time>2020-08-23T10:11:42.000Z</time>
                <name>Trackpoint 4037</name>
            </trkpt>
            <trkpt lat="49.8108128" lon="10.2279352">
                <ele>192.0</ele>
                <time>2020-08-23T10:11:44.000Z</time>
                <name>Trackpoint 4038</name>
            </trkpt>
            <trkpt lat="49.8108032" lon="10.2278344">
                <ele>192.0</ele>
                <time>2020-08-23T10:11:46.000Z</time>
                <name>Trackpoint 4039</name>
            </trkpt>
            <trkpt lat="49.810784" lon="10.2277336">
                <ele>192.0</ele>
                <time>2020-08-23T10:11:48.000Z</time>
                <name>Trackpoint 4040</name>
            </trkpt>
            <trkpt lat="49.8107136" lon="10.227672">
                <ele>192.0</ele>
                <time>2020-08-23T10:11:51.000Z</time>
                <name>Trackpoint 4041</name>
            </trkpt>
            <trkpt lat="49.8105888" lon="10.2277336">
                <ele>192.0</ele>
                <time>2020-08-23T10:11:54.000Z</time>
                <name>Trackpoint 4042</name>
            </trkpt>
            <trkpt lat="49.810496" lon="10.2277896">
                <ele>192.0</ele>
                <time>2020-08-23T10:11:56.000Z</time>
                <name>Trackpoint 4043</name>
            </trkpt>
            <trkpt lat="49.8104256" lon="10.2278496">
                <ele>193.0</ele>
                <time>2020-08-23T10:11:58.000Z</time>
                <name>Trackpoint 4044</name>
            </trkpt>
            <trkpt lat="49.8103328" lon="10.2279064">
                <ele>193.0</ele>
                <time>2020-08-23T10:12:00.000Z</time>
                <name>Trackpoint 4045</name>
            </trkpt>
            <trkpt lat="49.8102272" lon="10.2279368">
                <ele>193.0</ele>
                <time>2020-08-23T10:12:02.000Z</time>
                <name>Trackpoint 4046</name>
            </trkpt>
            <trkpt lat="49.8101152" lon="10.22798">
                <ele>193.0</ele>
                <time>2020-08-23T10:12:04.000Z</time>
                <name>Trackpoint 4047</name>
            </trkpt>
            <trkpt lat="49.810016" lon="10.2280384">
                <ele>193.0</ele>
                <time>2020-08-23T10:12:06.000Z</time>
                <name>Trackpoint 4048</name>
            </trkpt>
            <trkpt lat="49.8099136" lon="10.2281016">
                <ele>194.0</ele>
                <time>2020-08-23T10:12:08.000Z</time>
                <name>Trackpoint 4049</name>
            </trkpt>
            <trkpt lat="49.8098272" lon="10.2281768">
                <ele>194.0</ele>
                <time>2020-08-23T10:12:10.000Z</time>
                <name>Trackpoint 4050</name>
            </trkpt>
            <trkpt lat="49.809728" lon="10.2282496">
                <ele>194.0</ele>
                <time>2020-08-23T10:12:12.000Z</time>
                <name>Trackpoint 4051</name>
            </trkpt>
            <trkpt lat="49.8096288" lon="10.2283248">
                <ele>194.0</ele>
                <time>2020-08-23T10:12:14.000Z</time>
                <name>Trackpoint 4052</name>
            </trkpt>
            <trkpt lat="49.8095232" lon="10.228408">
                <ele>194.0</ele>
                <time>2020-08-23T10:12:16.000Z</time>
                <name>Trackpoint 4053</name>
            </trkpt>
            <trkpt lat="49.8094112" lon="10.2284696">
                <ele>194.0</ele>
                <time>2020-08-23T10:12:18.000Z</time>
                <name>Trackpoint 4054</name>
            </trkpt>
            <trkpt lat="49.8092928" lon="10.2285336">
                <ele>195.0</ele>
                <time>2020-08-23T10:12:20.000Z</time>
                <name>Trackpoint 4055</name>
            </trkpt>
            <trkpt lat="49.80912" lon="10.2285632">
                <ele>196.0</ele>
                <time>2020-08-23T10:12:22.000Z</time>
                <name>Trackpoint 4056</name>
            </trkpt>
            <trkpt lat="49.8090336" lon="10.2286264">
                <ele>196.0</ele>
                <time>2020-08-23T10:12:24.000Z</time>
                <name>Trackpoint 4057</name>
            </trkpt>
            <trkpt lat="49.808944" lon="10.2286704">
                <ele>196.0</ele>
                <time>2020-08-23T10:12:26.000Z</time>
                <name>Trackpoint 4058</name>
            </trkpt>
            <trkpt lat="49.8088576" lon="10.2287264">
                <ele>196.0</ele>
                <time>2020-08-23T10:12:28.000Z</time>
                <name>Trackpoint 4059</name>
            </trkpt>
            <trkpt lat="49.8087808" lon="10.2287864">
                <ele>196.0</ele>
                <time>2020-08-23T10:12:30.000Z</time>
                <name>Trackpoint 4060</name>
            </trkpt>
            <trkpt lat="49.8087072" lon="10.2288512">
                <ele>196.0</ele>
                <time>2020-08-23T10:12:32.000Z</time>
                <name>Trackpoint 4061</name>
            </trkpt>
            <trkpt lat="49.8086272" lon="10.2289088">
                <ele>197.0</ele>
                <time>2020-08-23T10:12:34.000Z</time>
                <name>Trackpoint 4062</name>
            </trkpt>
            <trkpt lat="49.8085376" lon="10.2290096">
                <ele>197.0</ele>
                <time>2020-08-23T10:12:37.000Z</time>
                <name>Trackpoint 4063</name>
            </trkpt>
            <trkpt lat="49.80848" lon="10.2290968">
                <ele>197.0</ele>
                <time>2020-08-23T10:12:39.000Z</time>
                <name>Trackpoint 4064</name>
            </trkpt>
            <trkpt lat="49.808384" lon="10.2291744">
                <ele>197.0</ele>
                <time>2020-08-23T10:12:41.000Z</time>
                <name>Trackpoint 4065</name>
            </trkpt>
            <trkpt lat="49.808288" lon="10.2292632">
                <ele>196.0</ele>
                <time>2020-08-23T10:12:43.000Z</time>
                <name>Trackpoint 4066</name>
            </trkpt>
            <trkpt lat="49.8081984" lon="10.2293568">
                <ele>195.0</ele>
                <time>2020-08-23T10:12:45.000Z</time>
                <name>Trackpoint 4067</name>
            </trkpt>
            <trkpt lat="49.808128" lon="10.2294384">
                <ele>195.0</ele>
                <time>2020-08-23T10:12:47.000Z</time>
                <name>Trackpoint 4068</name>
            </trkpt>
            <trkpt lat="49.808064" lon="10.2295176">
                <ele>195.0</ele>
                <time>2020-08-23T10:12:49.000Z</time>
                <name>Trackpoint 4069</name>
            </trkpt>
            <trkpt lat="49.8079904" lon="10.2296088">
                <ele>195.0</ele>
                <time>2020-08-23T10:12:51.000Z</time>
                <name>Trackpoint 4070</name>
            </trkpt>
            <trkpt lat="49.8079104" lon="10.2296984">
                <ele>195.0</ele>
                <time>2020-08-23T10:12:53.000Z</time>
                <name>Trackpoint 4071</name>
            </trkpt>
            <trkpt lat="49.80784" lon="10.2297752">
                <ele>195.0</ele>
                <time>2020-08-23T10:12:55.000Z</time>
                <name>Trackpoint 4072</name>
            </trkpt>
            <trkpt lat="49.8077664" lon="10.22986">
                <ele>195.0</ele>
                <time>2020-08-23T10:12:57.000Z</time>
                <name>Trackpoint 4073</name>
            </trkpt>
            <trkpt lat="49.8076928" lon="10.229952">
                <ele>195.0</ele>
                <time>2020-08-23T10:12:59.000Z</time>
                <name>Trackpoint 4074</name>
            </trkpt>
            <trkpt lat="49.8076128" lon="10.230052">
                <ele>195.0</ele>
                <time>2020-08-23T10:13:01.000Z</time>
                <name>Trackpoint 4075</name>
            </trkpt>
            <trkpt lat="49.8075296" lon="10.2301368">
                <ele>195.0</ele>
                <time>2020-08-23T10:13:03.000Z</time>
                <name>Trackpoint 4076</name>
            </trkpt>
            <trkpt lat="49.8074528" lon="10.2301968">
                <ele>195.0</ele>
                <time>2020-08-23T10:13:05.000Z</time>
                <name>Trackpoint 4077</name>
            </trkpt>
            <trkpt lat="49.8073344" lon="10.2301456">
                <ele>195.0</ele>
                <time>2020-08-23T10:13:08.000Z</time>
                <name>Trackpoint 4078</name>
            </trkpt>
            <trkpt lat="49.8072704" lon="10.230052">
                <ele>195.0</ele>
                <time>2020-08-23T10:13:10.000Z</time>
                <name>Trackpoint 4079</name>
            </trkpt>
            <trkpt lat="49.8071968" lon="10.2299384">
                <ele>194.0</ele>
                <time>2020-08-23T10:13:12.000Z</time>
                <name>Trackpoint 4080</name>
            </trkpt>
            <trkpt lat="49.8071168" lon="10.2298368">
                <ele>194.0</ele>
                <time>2020-08-23T10:13:14.000Z</time>
                <name>Trackpoint 4081</name>
            </trkpt>
            <trkpt lat="49.8070496" lon="10.2297448">
                <ele>194.0</ele>
                <time>2020-08-23T10:13:16.000Z</time>
                <name>Trackpoint 4082</name>
            </trkpt>
            <trkpt lat="49.8069792" lon="10.229656">
                <ele>194.0</ele>
                <time>2020-08-23T10:13:18.000Z</time>
                <name>Trackpoint 4083</name>
            </trkpt>
            <trkpt lat="49.8069184" lon="10.2295616">
                <ele>194.0</ele>
                <time>2020-08-23T10:13:20.000Z</time>
                <name>Trackpoint 4084</name>
            </trkpt>
            <trkpt lat="49.8068576" lon="10.2294728">
                <ele>194.0</ele>
                <time>2020-08-23T10:13:22.000Z</time>
                <name>Trackpoint 4085</name>
            </trkpt>
            <trkpt lat="49.8068096" lon="10.2293864">
                <ele>194.0</ele>
                <time>2020-08-23T10:13:24.000Z</time>
                <name>Trackpoint 4086</name>
            </trkpt>
            <trkpt lat="49.8067488" lon="10.2292816">
                <ele>194.0</ele>
                <time>2020-08-23T10:13:27.000Z</time>
                <name>Trackpoint 4087</name>
            </trkpt>
            <trkpt lat="49.8066816" lon="10.229212">
                <ele>194.0</ele>
                <time>2020-08-23T10:13:31.000Z</time>
                <name>Trackpoint 4088</name>
            </trkpt>
            <trkpt lat="49.80656" lon="10.2292584">
                <ele>194.0</ele>
                <time>2020-08-23T10:13:35.000Z</time>
                <name>Trackpoint 4089</name>
            </trkpt>
            <trkpt lat="49.8064576" lon="10.2293304">
                <ele>194.0</ele>
                <time>2020-08-23T10:13:38.000Z</time>
                <name>Trackpoint 4090</name>
            </trkpt>
            <trkpt lat="49.8063552" lon="10.2293816">
                <ele>195.0</ele>
                <time>2020-08-23T10:13:41.000Z</time>
                <name>Trackpoint 4091</name>
            </trkpt>
            <trkpt lat="49.8062656" lon="10.22942">
                <ele>195.0</ele>
                <time>2020-08-23T10:13:45.000Z</time>
                <name>Trackpoint 4092</name>
            </trkpt>
            <trkpt lat="49.8061856" lon="10.2294768">
                <ele>195.0</ele>
                <time>2020-08-23T10:14:41.000Z</time>
                <name>Trackpoint 4093</name>
            </trkpt>
            <trkpt lat="49.8061184" lon="10.2295416">
                <ele>195.0</ele>
                <time>2020-08-23T10:14:44.000Z</time>
                <name>Trackpoint 4094</name>
            </trkpt>
            <trkpt lat="49.8060096" lon="10.2296088">
                <ele>195.0</ele>
                <time>2020-08-23T10:14:47.000Z</time>
                <name>Trackpoint 4095</name>
            </trkpt>
            <trkpt lat="49.8059232" lon="10.2296496">
                <ele>195.0</ele>
                <time>2020-08-23T10:14:49.000Z</time>
                <name>Trackpoint 4096</name>
            </trkpt>
            <trkpt lat="49.8058304" lon="10.2296912">
                <ele>195.0</ele>
                <time>2020-08-23T10:14:51.000Z</time>
                <name>Trackpoint 4097</name>
            </trkpt>
            <trkpt lat="49.805744" lon="10.2297296">
                <ele>196.0</ele>
                <time>2020-08-23T10:14:53.000Z</time>
                <name>Trackpoint 4098</name>
            </trkpt>
            <trkpt lat="49.8056576" lon="10.229756">
                <ele>198.0</ele>
                <time>2020-08-23T10:14:55.000Z</time>
                <name>Trackpoint 4099</name>
            </trkpt>
            <trkpt lat="49.8055648" lon="10.2297784">
                <ele>199.0</ele>
                <time>2020-08-23T10:14:57.000Z</time>
                <name>Trackpoint 4100</name>
            </trkpt>
            <trkpt lat="49.8054688" lon="10.2297984">
                <ele>199.0</ele>
                <time>2020-08-23T10:14:59.000Z</time>
                <name>Trackpoint 4101</name>
            </trkpt>
            <trkpt lat="49.8053664" lon="10.2297984">
                <ele>196.0</ele>
                <time>2020-08-23T10:15:01.000Z</time>
                <name>Trackpoint 4102</name>
            </trkpt>
            <trkpt lat="49.8052672" lon="10.2297632">
                <ele>195.0</ele>
                <time>2020-08-23T10:15:03.000Z</time>
                <name>Trackpoint 4103</name>
            </trkpt>
            <trkpt lat="49.805168" lon="10.229736">
                <ele>194.0</ele>
                <time>2020-08-23T10:15:05.000Z</time>
                <name>Trackpoint 4104</name>
            </trkpt>
            <trkpt lat="49.8050752" lon="10.2297">
                <ele>194.0</ele>
                <time>2020-08-23T10:15:07.000Z</time>
                <name>Trackpoint 4105</name>
            </trkpt>
            <trkpt lat="49.8049856" lon="10.229656">
                <ele>195.0</ele>
                <time>2020-08-23T10:15:09.000Z</time>
                <name>Trackpoint 4106</name>
            </trkpt>
            <trkpt lat="49.8048928" lon="10.2296168">
                <ele>196.0</ele>
                <time>2020-08-23T10:15:11.000Z</time>
                <name>Trackpoint 4107</name>
            </trkpt>
            <trkpt lat="49.804768" lon="10.2295664">
                <ele>196.0</ele>
                <time>2020-08-23T10:15:14.000Z</time>
                <name>Trackpoint 4108</name>
            </trkpt>
            <trkpt lat="49.8046784" lon="10.2295368">
                <ele>196.0</ele>
                <time>2020-08-23T10:15:16.000Z</time>
                <name>Trackpoint 4109</name>
            </trkpt>
            <trkpt lat="49.804592" lon="10.2295064">
                <ele>196.0</ele>
                <time>2020-08-23T10:15:18.000Z</time>
                <name>Trackpoint 4110</name>
            </trkpt>
            <trkpt lat="49.8044992" lon="10.2294912">
                <ele>196.0</ele>
                <time>2020-08-23T10:15:20.000Z</time>
                <name>Trackpoint 4111</name>
            </trkpt>
            <trkpt lat="49.8043776" lon="10.2294712">
                <ele>196.0</ele>
                <time>2020-08-23T10:15:23.000Z</time>
                <name>Trackpoint 4112</name>
            </trkpt>
            <trkpt lat="49.804256" lon="10.2294728">
                <ele>195.0</ele>
                <time>2020-08-23T10:15:26.000Z</time>
                <name>Trackpoint 4113</name>
            </trkpt>
            <trkpt lat="49.8041312" lon="10.2294968">
                <ele>194.0</ele>
                <time>2020-08-23T10:15:29.000Z</time>
                <name>Trackpoint 4114</name>
            </trkpt>
            <trkpt lat="49.8040352" lon="10.2295248">
                <ele>194.0</ele>
                <time>2020-08-23T10:15:31.000Z</time>
                <name>Trackpoint 4115</name>
            </trkpt>
            <trkpt lat="49.8039328" lon="10.2295704">
                <ele>194.0</ele>
                <time>2020-08-23T10:15:33.000Z</time>
                <name>Trackpoint 4116</name>
            </trkpt>
            <trkpt lat="49.8038304" lon="10.2296304">
                <ele>194.0</ele>
                <time>2020-08-23T10:15:35.000Z</time>
                <name>Trackpoint 4117</name>
            </trkpt>
            <trkpt lat="49.8037216" lon="10.229696">
                <ele>194.0</ele>
                <time>2020-08-23T10:15:37.000Z</time>
                <name>Trackpoint 4118</name>
            </trkpt>
            <trkpt lat="49.803616" lon="10.2297696">
                <ele>194.0</ele>
                <time>2020-08-23T10:15:39.000Z</time>
                <name>Trackpoint 4119</name>
            </trkpt>
            <trkpt lat="49.8035008" lon="10.2298448">
                <ele>193.0</ele>
                <time>2020-08-23T10:15:41.000Z</time>
                <name>Trackpoint 4120</name>
            </trkpt>
            <trkpt lat="49.8033856" lon="10.229928">
                <ele>193.0</ele>
                <time>2020-08-23T10:15:43.000Z</time>
                <name>Trackpoint 4121</name>
            </trkpt>
            <trkpt lat="49.8032736" lon="10.2300064">
                <ele>192.0</ele>
                <time>2020-08-23T10:15:45.000Z</time>
                <name>Trackpoint 4122</name>
            </trkpt>
            <trkpt lat="49.8031552" lon="10.2300856">
                <ele>192.0</ele>
                <time>2020-08-23T10:15:47.000Z</time>
                <name>Trackpoint 4123</name>
            </trkpt>
            <trkpt lat="49.8030304" lon="10.2301592">
                <ele>191.0</ele>
                <time>2020-08-23T10:15:49.000Z</time>
                <name>Trackpoint 4124</name>
            </trkpt>
            <trkpt lat="49.8029056" lon="10.2302216">
                <ele>191.0</ele>
                <time>2020-08-23T10:15:51.000Z</time>
                <name>Trackpoint 4125</name>
            </trkpt>
            <trkpt lat="49.8027776" lon="10.2302552">
                <ele>191.0</ele>
                <time>2020-08-23T10:15:53.000Z</time>
                <name>Trackpoint 4126</name>
            </trkpt>
            <trkpt lat="49.8026432" lon="10.2302664">
                <ele>191.0</ele>
                <time>2020-08-23T10:15:55.000Z</time>
                <name>Trackpoint 4127</name>
            </trkpt>
            <trkpt lat="49.8025088" lon="10.2302712">
                <ele>191.0</ele>
                <time>2020-08-23T10:15:57.000Z</time>
                <name>Trackpoint 4128</name>
            </trkpt>
            <trkpt lat="49.802384" lon="10.2302752">
                <ele>192.0</ele>
                <time>2020-08-23T10:15:59.000Z</time>
                <name>Trackpoint 4129</name>
            </trkpt>
            <trkpt lat="49.8022528" lon="10.2302768">
                <ele>192.0</ele>
                <time>2020-08-23T10:16:01.000Z</time>
                <name>Trackpoint 4130</name>
            </trkpt>
            <trkpt lat="49.8021312" lon="10.23028">
                <ele>192.0</ele>
                <time>2020-08-23T10:16:03.000Z</time>
                <name>Trackpoint 4131</name>
            </trkpt>
            <trkpt lat="49.8020128" lon="10.2302864">
                <ele>192.0</ele>
                <time>2020-08-23T10:16:05.000Z</time>
                <name>Trackpoint 4132</name>
            </trkpt>
            <trkpt lat="49.8018944" lon="10.2302912">
                <ele>192.0</ele>
                <time>2020-08-23T10:16:07.000Z</time>
                <name>Trackpoint 4133</name>
            </trkpt>
            <trkpt lat="49.8017728" lon="10.2302904">
                <ele>192.0</ele>
                <time>2020-08-23T10:16:09.000Z</time>
                <name>Trackpoint 4134</name>
            </trkpt>
            <trkpt lat="49.8016704" lon="10.2302816">
                <ele>192.0</ele>
                <time>2020-08-23T10:16:11.000Z</time>
                <name>Trackpoint 4135</name>
            </trkpt>
            <trkpt lat="49.8015808" lon="10.2303104">
                <ele>192.0</ele>
                <time>2020-08-23T10:16:14.000Z</time>
                <name>Trackpoint 4136</name>
            </trkpt>
            <trkpt lat="49.8015872" lon="10.2304096">
                <ele>191.0</ele>
                <time>2020-08-23T10:16:23.000Z</time>
                <name>Trackpoint 4137</name>
            </trkpt>
            <trkpt lat="49.8016" lon="10.2303104">
                <ele>192.0</ele>
                <time>2020-08-23T10:17:02.000Z</time>
                <name>Trackpoint 4138</name>
            </trkpt>
            <trkpt lat="49.8015008" lon="10.2302912">
                <ele>192.0</ele>
                <time>2020-08-23T10:19:07.000Z</time>
                <name>Trackpoint 4139</name>
            </trkpt>
            <trkpt lat="49.801408" lon="10.2302904">
                <ele>192.0</ele>
                <time>2020-08-23T10:19:11.000Z</time>
                <name>Trackpoint 4140</name>
            </trkpt>
            <trkpt lat="49.801312" lon="10.2302912">
                <ele>191.0</ele>
                <time>2020-08-23T10:19:15.000Z</time>
                <name>Trackpoint 4141</name>
            </trkpt>
            <trkpt lat="49.8012192" lon="10.2302176">
                <ele>191.0</ele>
                <time>2020-08-23T10:19:19.000Z</time>
                <name>Trackpoint 4142</name>
            </trkpt>
            <trkpt lat="49.80112" lon="10.2301928">
                <ele>191.0</ele>
                <time>2020-08-23T10:19:22.000Z</time>
                <name>Trackpoint 4143</name>
            </trkpt>
            <trkpt lat="49.8010112" lon="10.2301848">
                <ele>191.0</ele>
                <time>2020-08-23T10:19:25.000Z</time>
                <name>Trackpoint 4144</name>
            </trkpt>
            <trkpt lat="49.8008896" lon="10.2301728">
                <ele>191.0</ele>
                <time>2020-08-23T10:19:28.000Z</time>
                <name>Trackpoint 4145</name>
            </trkpt>
            <trkpt lat="49.8007744" lon="10.2301712">
                <ele>191.0</ele>
                <time>2020-08-23T10:19:31.000Z</time>
                <name>Trackpoint 4146</name>
            </trkpt>
            <trkpt lat="49.800656" lon="10.23018">
                <ele>192.0</ele>
                <time>2020-08-23T10:19:34.000Z</time>
                <name>Trackpoint 4147</name>
            </trkpt>
            <trkpt lat="49.800528" lon="10.2301928">
                <ele>192.0</ele>
                <time>2020-08-23T10:19:37.000Z</time>
                <name>Trackpoint 4148</name>
            </trkpt>
            <trkpt lat="49.8004" lon="10.2302016">
                <ele>192.0</ele>
                <time>2020-08-23T10:19:40.000Z</time>
                <name>Trackpoint 4149</name>
            </trkpt>
            <trkpt lat="49.8003072" lon="10.2301968">
                <ele>192.0</ele>
                <time>2020-08-23T10:19:42.000Z</time>
                <name>Trackpoint 4150</name>
            </trkpt>
            <trkpt lat="49.8001888" lon="10.2302304">
                <ele>193.0</ele>
                <time>2020-08-23T10:19:45.000Z</time>
                <name>Trackpoint 4151</name>
            </trkpt>
            <trkpt lat="49.8000864" lon="10.2302768">
                <ele>193.0</ele>
                <time>2020-08-23T10:19:48.000Z</time>
                <name>Trackpoint 4152</name>
            </trkpt>
            <trkpt lat="49.8" lon="10.2303136">
                <ele>193.0</ele>
                <time>2020-08-23T10:19:51.000Z</time>
                <name>Trackpoint 4153</name>
            </trkpt>
            <trkpt lat="49.7998976" lon="10.2303496">
                <ele>193.0</ele>
                <time>2020-08-23T10:19:55.000Z</time>
                <name>Trackpoint 4154</name>
            </trkpt>
            <trkpt lat="49.7997984" lon="10.2303752">
                <ele>193.0</ele>
                <time>2020-08-23T10:19:59.000Z</time>
                <name>Trackpoint 4155</name>
            </trkpt>
            <trkpt lat="49.7997056" lon="10.2303336">
                <ele>193.0</ele>
                <time>2020-08-23T10:20:04.000Z</time>
                <name>Trackpoint 4156</name>
            </trkpt>
            <trkpt lat="49.7996512" lon="10.2302576">
                <ele>193.0</ele>
                <time>2020-08-23T10:20:08.000Z</time>
                <name>Trackpoint 4157</name>
            </trkpt>
            <trkpt lat="49.799632" lon="10.2301216">
                <ele>192.0</ele>
                <time>2020-08-23T10:20:11.000Z</time>
                <name>Trackpoint 4158</name>
            </trkpt>
            <trkpt lat="49.7996256" lon="10.230012">
                <ele>192.0</ele>
                <time>2020-08-23T10:20:13.000Z</time>
                <name>Trackpoint 4159</name>
            </trkpt>
            <trkpt lat="49.7996224" lon="10.2298896">
                <ele>192.0</ele>
                <time>2020-08-23T10:20:15.000Z</time>
                <name>Trackpoint 4160</name>
            </trkpt>
            <trkpt lat="49.7996192" lon="10.22976">
                <ele>192.0</ele>
                <time>2020-08-23T10:20:17.000Z</time>
                <name>Trackpoint 4161</name>
            </trkpt>
            <trkpt lat="49.7996192" lon="10.2296248">
                <ele>191.0</ele>
                <time>2020-08-23T10:20:19.000Z</time>
                <name>Trackpoint 4162</name>
            </trkpt>
            <trkpt lat="49.7996096" lon="10.2294952">
                <ele>191.0</ele>
                <time>2020-08-23T10:20:21.000Z</time>
                <name>Trackpoint 4163</name>
            </trkpt>
            <trkpt lat="49.799568" lon="10.22938">
                <ele>190.0</ele>
                <time>2020-08-23T10:20:23.000Z</time>
                <name>Trackpoint 4164</name>
            </trkpt>
            <trkpt lat="49.7995424" lon="10.2292536">
                <ele>191.0</ele>
                <time>2020-08-23T10:20:25.000Z</time>
                <name>Trackpoint 4165</name>
            </trkpt>
            <trkpt lat="49.79952" lon="10.2291296">
                <ele>191.0</ele>
                <time>2020-08-23T10:20:28.000Z</time>
                <name>Trackpoint 4166</name>
            </trkpt>
            <trkpt lat="49.7994816" lon="10.2290264">
                <ele>191.0</ele>
                <time>2020-08-23T10:20:30.000Z</time>
                <name>Trackpoint 4167</name>
            </trkpt>
            <trkpt lat="49.799408" lon="10.2289352">
                <ele>190.0</ele>
                <time>2020-08-23T10:20:52.000Z</time>
                <name>Trackpoint 4168</name>
            </trkpt>
            <trkpt lat="49.7993824" lon="10.2288304">
                <ele>190.0</ele>
                <time>2020-08-23T10:20:56.000Z</time>
                <name>Trackpoint 4169</name>
            </trkpt>
            <trkpt lat="49.7993216" lon="10.228708">
                <ele>191.0</ele>
                <time>2020-08-23T10:20:59.000Z</time>
                <name>Trackpoint 4170</name>
            </trkpt>
            <trkpt lat="49.7992864" lon="10.2286032">
                <ele>191.0</ele>
                <time>2020-08-23T10:21:01.000Z</time>
                <name>Trackpoint 4171</name>
            </trkpt>
            <trkpt lat="49.799248" lon="10.2285">
                <ele>191.0</ele>
                <time>2020-08-23T10:21:03.000Z</time>
                <name>Trackpoint 4172</name>
            </trkpt>
            <trkpt lat="49.7992064" lon="10.2283936">
                <ele>191.0</ele>
                <time>2020-08-23T10:21:05.000Z</time>
                <name>Trackpoint 4173</name>
            </trkpt>
            <trkpt lat="49.7991744" lon="10.228296">
                <ele>191.0</ele>
                <time>2020-08-23T10:21:07.000Z</time>
                <name>Trackpoint 4174</name>
            </trkpt>
            <trkpt lat="49.7991264" lon="10.228184">
                <ele>191.0</ele>
                <time>2020-08-23T10:21:09.000Z</time>
                <name>Trackpoint 4175</name>
            </trkpt>
            <trkpt lat="49.7990656" lon="10.2280352">
                <ele>191.0</ele>
                <time>2020-08-23T10:21:11.000Z</time>
                <name>Trackpoint 4176</name>
            </trkpt>
            <trkpt lat="49.799008" lon="10.2279064">
                <ele>192.0</ele>
                <time>2020-08-23T10:21:13.000Z</time>
                <name>Trackpoint 4177</name>
            </trkpt>
            <trkpt lat="49.7989376" lon="10.2277672">
                <ele>192.0</ele>
                <time>2020-08-23T10:21:15.000Z</time>
                <name>Trackpoint 4178</name>
            </trkpt>
            <trkpt lat="49.7988928" lon="10.2276384">
                <ele>192.0</ele>
                <time>2020-08-23T10:21:17.000Z</time>
                <name>Trackpoint 4179</name>
            </trkpt>
            <trkpt lat="49.7988352" lon="10.2274984">
                <ele>192.0</ele>
                <time>2020-08-23T10:21:19.000Z</time>
                <name>Trackpoint 4180</name>
            </trkpt>
            <trkpt lat="49.7987776" lon="10.22736">
                <ele>191.0</ele>
                <time>2020-08-23T10:21:21.000Z</time>
                <name>Trackpoint 4181</name>
            </trkpt>
            <trkpt lat="49.79872" lon="10.2272216">
                <ele>192.0</ele>
                <time>2020-08-23T10:21:23.000Z</time>
                <name>Trackpoint 4182</name>
            </trkpt>
            <trkpt lat="49.798672" lon="10.2270872">
                <ele>192.0</ele>
                <time>2020-08-23T10:21:25.000Z</time>
                <name>Trackpoint 4183</name>
            </trkpt>
            <trkpt lat="49.7986208" lon="10.22696">
                <ele>191.0</ele>
                <time>2020-08-23T10:21:27.000Z</time>
                <name>Trackpoint 4184</name>
            </trkpt>
            <trkpt lat="49.7985696" lon="10.2268264">
                <ele>191.0</ele>
                <time>2020-08-23T10:21:29.000Z</time>
                <name>Trackpoint 4185</name>
            </trkpt>
            <trkpt lat="49.798528" lon="10.2267016">
                <ele>191.0</ele>
                <time>2020-08-23T10:21:31.000Z</time>
                <name>Trackpoint 4186</name>
            </trkpt>
            <trkpt lat="49.7984736" lon="10.2265664">
                <ele>192.0</ele>
                <time>2020-08-23T10:21:33.000Z</time>
                <name>Trackpoint 4187</name>
            </trkpt>
            <trkpt lat="49.7984224" lon="10.2264296">
                <ele>191.0</ele>
                <time>2020-08-23T10:21:35.000Z</time>
                <name>Trackpoint 4188</name>
            </trkpt>
            <trkpt lat="49.7983744" lon="10.2262936">
                <ele>191.0</ele>
                <time>2020-08-23T10:21:37.000Z</time>
                <name>Trackpoint 4189</name>
            </trkpt>
            <trkpt lat="49.7983232" lon="10.2261584">
                <ele>191.0</ele>
                <time>2020-08-23T10:21:39.000Z</time>
                <name>Trackpoint 4190</name>
            </trkpt>
            <trkpt lat="49.798272" lon="10.2260176">
                <ele>191.0</ele>
                <time>2020-08-23T10:21:41.000Z</time>
                <name>Trackpoint 4191</name>
            </trkpt>
            <trkpt lat="49.7982112" lon="10.225872">
                <ele>190.0</ele>
                <time>2020-08-23T10:21:43.000Z</time>
                <name>Trackpoint 4192</name>
            </trkpt>
            <trkpt lat="49.7981504" lon="10.2257296">
                <ele>190.0</ele>
                <time>2020-08-23T10:21:45.000Z</time>
                <name>Trackpoint 4193</name>
            </trkpt>
            <trkpt lat="49.7981024" lon="10.2255936">
                <ele>191.0</ele>
                <time>2020-08-23T10:21:47.000Z</time>
                <name>Trackpoint 4194</name>
            </trkpt>
            <trkpt lat="49.7980448" lon="10.225456">
                <ele>191.0</ele>
                <time>2020-08-23T10:21:49.000Z</time>
                <name>Trackpoint 4195</name>
            </trkpt>
            <trkpt lat="49.7979904" lon="10.2253104">
                <ele>191.0</ele>
                <time>2020-08-23T10:21:51.000Z</time>
                <name>Trackpoint 4196</name>
            </trkpt>
            <trkpt lat="49.7979456" lon="10.2251856">
                <ele>191.0</ele>
                <time>2020-08-23T10:21:53.000Z</time>
                <name>Trackpoint 4197</name>
            </trkpt>
            <trkpt lat="49.7978944" lon="10.2250536">
                <ele>191.0</ele>
                <time>2020-08-23T10:21:55.000Z</time>
                <name>Trackpoint 4198</name>
            </trkpt>
            <trkpt lat="49.7978528" lon="10.2249168">
                <ele>191.0</ele>
                <time>2020-08-23T10:21:57.000Z</time>
                <name>Trackpoint 4199</name>
            </trkpt>
            <trkpt lat="49.797792" lon="10.2247752">
                <ele>191.0</ele>
                <time>2020-08-23T10:21:59.000Z</time>
                <name>Trackpoint 4200</name>
            </trkpt>
            <trkpt lat="49.7977408" lon="10.22464">
                <ele>191.0</ele>
                <time>2020-08-23T10:22:01.000Z</time>
                <name>Trackpoint 4201</name>
            </trkpt>
            <trkpt lat="49.7976928" lon="10.2245104">
                <ele>192.0</ele>
                <time>2020-08-23T10:22:03.000Z</time>
                <name>Trackpoint 4202</name>
            </trkpt>
            <trkpt lat="49.7976448" lon="10.2243832">
                <ele>192.0</ele>
                <time>2020-08-23T10:22:05.000Z</time>
                <name>Trackpoint 4203</name>
            </trkpt>
            <trkpt lat="49.7976" lon="10.2242568">
                <ele>192.0</ele>
                <time>2020-08-23T10:22:07.000Z</time>
                <name>Trackpoint 4204</name>
            </trkpt>
            <trkpt lat="49.797536" lon="10.2241232">
                <ele>192.0</ele>
                <time>2020-08-23T10:22:09.000Z</time>
                <name>Trackpoint 4205</name>
            </trkpt>
            <trkpt lat="49.7974816" lon="10.2240088">
                <ele>191.0</ele>
                <time>2020-08-23T10:22:11.000Z</time>
                <name>Trackpoint 4206</name>
            </trkpt>
            <trkpt lat="49.797456" lon="10.2238816">
                <ele>191.0</ele>
                <time>2020-08-23T10:22:13.000Z</time>
                <name>Trackpoint 4207</name>
            </trkpt>
            <trkpt lat="49.7974496" lon="10.2237552">
                <ele>191.0</ele>
                <time>2020-08-23T10:22:15.000Z</time>
                <name>Trackpoint 4208</name>
            </trkpt>
            <trkpt lat="49.7974176" lon="10.2236408">
                <ele>191.0</ele>
                <time>2020-08-23T10:22:17.000Z</time>
                <name>Trackpoint 4209</name>
            </trkpt>
            <trkpt lat="49.79736" lon="10.2235344">
                <ele>190.0</ele>
                <time>2020-08-23T10:22:19.000Z</time>
                <name>Trackpoint 4210</name>
            </trkpt>
            <trkpt lat="49.7973056" lon="10.2234224">
                <ele>190.0</ele>
                <time>2020-08-23T10:22:21.000Z</time>
                <name>Trackpoint 4211</name>
            </trkpt>
            <trkpt lat="49.7972608" lon="10.2232968">
                <ele>190.0</ele>
                <time>2020-08-23T10:22:23.000Z</time>
                <name>Trackpoint 4212</name>
            </trkpt>
            <trkpt lat="49.7972096" lon="10.2231728">
                <ele>189.0</ele>
                <time>2020-08-23T10:22:25.000Z</time>
                <name>Trackpoint 4213</name>
            </trkpt>
            <trkpt lat="49.7971616" lon="10.2230584">
                <ele>188.0</ele>
                <time>2020-08-23T10:22:27.000Z</time>
                <name>Trackpoint 4214</name>
            </trkpt>
            <trkpt lat="49.7970976" lon="10.2229632">
                <ele>188.0</ele>
                <time>2020-08-23T10:22:29.000Z</time>
                <name>Trackpoint 4215</name>
            </trkpt>
            <trkpt lat="49.7970176" lon="10.2228944">
                <ele>188.0</ele>
                <time>2020-08-23T10:22:31.000Z</time>
                <name>Trackpoint 4216</name>
            </trkpt>
            <trkpt lat="49.7969408" lon="10.2228272">
                <ele>188.0</ele>
                <time>2020-08-23T10:22:33.000Z</time>
                <name>Trackpoint 4217</name>
            </trkpt>
            <trkpt lat="49.7968928" lon="10.2227232">
                <ele>188.0</ele>
                <time>2020-08-23T10:22:35.000Z</time>
                <name>Trackpoint 4218</name>
            </trkpt>
            <trkpt lat="49.7968992" lon="10.2225968">
                <ele>188.0</ele>
                <time>2020-08-23T10:22:37.000Z</time>
                <name>Trackpoint 4219</name>
            </trkpt>
            <trkpt lat="49.7969376" lon="10.222468">
                <ele>188.0</ele>
                <time>2020-08-23T10:22:39.000Z</time>
                <name>Trackpoint 4220</name>
            </trkpt>
            <trkpt lat="49.7969792" lon="10.2223568">
                <ele>188.0</ele>
                <time>2020-08-23T10:22:41.000Z</time>
                <name>Trackpoint 4221</name>
            </trkpt>
            <trkpt lat="49.7970112" lon="10.2222368">
                <ele>188.0</ele>
                <time>2020-08-23T10:22:43.000Z</time>
                <name>Trackpoint 4222</name>
            </trkpt>
            <trkpt lat="49.7970592" lon="10.2221336">
                <ele>188.0</ele>
                <time>2020-08-23T10:22:45.000Z</time>
                <name>Trackpoint 4223</name>
            </trkpt>
            <trkpt lat="49.7971904" lon="10.2221336">
                <ele>187.0</ele>
                <time>2020-08-23T10:22:48.000Z</time>
                <name>Trackpoint 4224</name>
            </trkpt>
            <trkpt lat="49.7972896" lon="10.2221672">
                <ele>186.0</ele>
                <time>2020-08-23T10:22:50.000Z</time>
                <name>Trackpoint 4225</name>
            </trkpt>
            <trkpt lat="49.7973856" lon="10.22218">
                <ele>186.0</ele>
                <time>2020-08-23T10:22:52.000Z</time>
                <name>Trackpoint 4226</name>
            </trkpt>
            <trkpt lat="49.7974816" lon="10.222172">
                <ele>185.0</ele>
                <time>2020-08-23T10:22:54.000Z</time>
                <name>Trackpoint 4227</name>
            </trkpt>
            <trkpt lat="49.7975776" lon="10.2221416">
                <ele>185.0</ele>
                <time>2020-08-23T10:22:56.000Z</time>
                <name>Trackpoint 4228</name>
            </trkpt>
            <trkpt lat="49.7976672" lon="10.2220848">
                <ele>185.0</ele>
                <time>2020-08-23T10:22:59.000Z</time>
                <name>Trackpoint 4229</name>
            </trkpt>
            <trkpt lat="49.7977216" lon="10.2219712">
                <ele>185.0</ele>
                <time>2020-08-23T10:23:01.000Z</time>
                <name>Trackpoint 4230</name>
            </trkpt>
            <trkpt lat="49.7976864" lon="10.2218688">
                <ele>185.0</ele>
                <time>2020-08-23T10:23:03.000Z</time>
                <name>Trackpoint 4231</name>
            </trkpt>
            <trkpt lat="49.797616" lon="10.2217928">
                <ele>185.0</ele>
                <time>2020-08-23T10:23:05.000Z</time>
                <name>Trackpoint 4232</name>
            </trkpt>
            <trkpt lat="49.7975456" lon="10.2217328">
                <ele>186.0</ele>
                <time>2020-08-23T10:23:07.000Z</time>
                <name>Trackpoint 4233</name>
            </trkpt>
            <trkpt lat="49.7974688" lon="10.2216728">
                <ele>186.0</ele>
                <time>2020-08-23T10:23:09.000Z</time>
                <name>Trackpoint 4234</name>
            </trkpt>
            <trkpt lat="49.7973824" lon="10.221592">
                <ele>185.0</ele>
                <time>2020-08-23T10:23:11.000Z</time>
                <name>Trackpoint 4235</name>
            </trkpt>
            <trkpt lat="49.7973312" lon="10.2214616">
                <ele>185.0</ele>
                <time>2020-08-23T10:23:13.000Z</time>
                <name>Trackpoint 4236</name>
            </trkpt>
            <trkpt lat="49.7973504" lon="10.2213248">
                <ele>185.0</ele>
                <time>2020-08-23T10:23:15.000Z</time>
                <name>Trackpoint 4237</name>
            </trkpt>
            <trkpt lat="49.797408" lon="10.2211984">
                <ele>184.0</ele>
                <time>2020-08-23T10:23:17.000Z</time>
                <name>Trackpoint 4238</name>
            </trkpt>
            <trkpt lat="49.7974592" lon="10.2210712">
                <ele>184.0</ele>
                <time>2020-08-23T10:23:19.000Z</time>
                <name>Trackpoint 4239</name>
            </trkpt>
            <trkpt lat="49.7975168" lon="10.2209528">
                <ele>184.0</ele>
                <time>2020-08-23T10:23:21.000Z</time>
                <name>Trackpoint 4240</name>
            </trkpt>
            <trkpt lat="49.797568" lon="10.2208344">
                <ele>185.0</ele>
                <time>2020-08-23T10:23:23.000Z</time>
                <name>Trackpoint 4241</name>
            </trkpt>
            <trkpt lat="49.7976256" lon="10.2207184">
                <ele>185.0</ele>
                <time>2020-08-23T10:23:25.000Z</time>
                <name>Trackpoint 4242</name>
            </trkpt>
            <trkpt lat="49.797664" lon="10.2205832">
                <ele>186.0</ele>
                <time>2020-08-23T10:23:27.000Z</time>
                <name>Trackpoint 4243</name>
            </trkpt>
            <trkpt lat="49.7977216" lon="10.22046">
                <ele>187.0</ele>
                <time>2020-08-23T10:23:29.000Z</time>
                <name>Trackpoint 4244</name>
            </trkpt>
            <trkpt lat="49.7977792" lon="10.220328">
                <ele>186.0</ele>
                <time>2020-08-23T10:23:31.000Z</time>
                <name>Trackpoint 4245</name>
            </trkpt>
            <trkpt lat="49.7978368" lon="10.220212">
                <ele>186.0</ele>
                <time>2020-08-23T10:23:33.000Z</time>
                <name>Trackpoint 4246</name>
            </trkpt>
            <trkpt lat="49.7978912" lon="10.2200848">
                <ele>186.0</ele>
                <time>2020-08-23T10:23:35.000Z</time>
                <name>Trackpoint 4247</name>
            </trkpt>
            <trkpt lat="49.7979552" lon="10.21996">
                <ele>186.0</ele>
                <time>2020-08-23T10:23:37.000Z</time>
                <name>Trackpoint 4248</name>
            </trkpt>
            <trkpt lat="49.7980128" lon="10.2198432">
                <ele>187.0</ele>
                <time>2020-08-23T10:23:39.000Z</time>
                <name>Trackpoint 4249</name>
            </trkpt>
            <trkpt lat="49.7980704" lon="10.2197248">
                <ele>186.0</ele>
                <time>2020-08-23T10:23:41.000Z</time>
                <name>Trackpoint 4250</name>
            </trkpt>
            <trkpt lat="49.7981248" lon="10.2195968">
                <ele>187.0</ele>
                <time>2020-08-23T10:23:43.000Z</time>
                <name>Trackpoint 4251</name>
            </trkpt>
            <trkpt lat="49.7981888" lon="10.2194704">
                <ele>187.0</ele>
                <time>2020-08-23T10:23:45.000Z</time>
                <name>Trackpoint 4252</name>
            </trkpt>
            <trkpt lat="49.7982496" lon="10.2193472">
                <ele>188.0</ele>
                <time>2020-08-23T10:23:47.000Z</time>
                <name>Trackpoint 4253</name>
            </trkpt>
            <trkpt lat="49.7983104" lon="10.2192184">
                <ele>188.0</ele>
                <time>2020-08-23T10:23:49.000Z</time>
                <name>Trackpoint 4254</name>
            </trkpt>
            <trkpt lat="49.7983744" lon="10.2190952">
                <ele>187.0</ele>
                <time>2020-08-23T10:23:51.000Z</time>
                <name>Trackpoint 4255</name>
            </trkpt>
            <trkpt lat="49.7984352" lon="10.2189752">
                <ele>187.0</ele>
                <time>2020-08-23T10:23:53.000Z</time>
                <name>Trackpoint 4256</name>
            </trkpt>
            <trkpt lat="49.798496" lon="10.21886">
                <ele>187.0</ele>
                <time>2020-08-23T10:23:55.000Z</time>
                <name>Trackpoint 4257</name>
            </trkpt>
            <trkpt lat="49.7985312" lon="10.2187584">
                <ele>187.0</ele>
                <time>2020-08-23T10:23:57.000Z</time>
                <name>Trackpoint 4258</name>
            </trkpt>
            <trkpt lat="49.79856" lon="10.2186448">
                <ele>188.0</ele>
                <time>2020-08-23T10:24:00.000Z</time>
                <name>Trackpoint 4259</name>
            </trkpt>
            <trkpt lat="49.798608" lon="10.2185624">
                <ele>188.0</ele>
                <time>2020-08-23T10:24:03.000Z</time>
                <name>Trackpoint 4260</name>
            </trkpt>
            <trkpt lat="49.7986528" lon="10.2184448">
                <ele>188.0</ele>
                <time>2020-08-23T10:24:06.000Z</time>
                <name>Trackpoint 4261</name>
            </trkpt>
            <trkpt lat="49.798688" lon="10.2183616">
                <ele>188.0</ele>
                <time>2020-08-23T10:24:08.000Z</time>
                <name>Trackpoint 4262</name>
            </trkpt>
            <trkpt lat="49.798736" lon="10.2182312">
                <ele>187.0</ele>
                <time>2020-08-23T10:24:11.000Z</time>
                <name>Trackpoint 4263</name>
            </trkpt>
            <trkpt lat="49.7987808" lon="10.2181416">
                <ele>188.0</ele>
                <time>2020-08-23T10:24:13.000Z</time>
                <name>Trackpoint 4264</name>
            </trkpt>
            <trkpt lat="49.7988448" lon="10.2180144">
                <ele>188.0</ele>
                <time>2020-08-23T10:24:16.000Z</time>
                <name>Trackpoint 4265</name>
            </trkpt>
            <trkpt lat="49.7988992" lon="10.2178896">
                <ele>188.0</ele>
                <time>2020-08-23T10:24:19.000Z</time>
                <name>Trackpoint 4266</name>
            </trkpt>
            <trkpt lat="49.7989504" lon="10.2177784">
                <ele>188.0</ele>
                <time>2020-08-23T10:24:22.000Z</time>
                <name>Trackpoint 4267</name>
            </trkpt>
            <trkpt lat="49.7989888" lon="10.2176936">
                <ele>188.0</ele>
                <time>2020-08-23T10:24:24.000Z</time>
                <name>Trackpoint 4268</name>
            </trkpt>
            <trkpt lat="49.7990528" lon="10.217584">
                <ele>188.0</ele>
                <time>2020-08-23T10:24:27.000Z</time>
                <name>Trackpoint 4269</name>
            </trkpt>
            <trkpt lat="49.7990944" lon="10.21746">
                <ele>189.0</ele>
                <time>2020-08-23T10:24:30.000Z</time>
                <name>Trackpoint 4270</name>
            </trkpt>
            <trkpt lat="49.7991456" lon="10.2173464">
                <ele>189.0</ele>
                <time>2020-08-23T10:24:33.000Z</time>
                <name>Trackpoint 4271</name>
            </trkpt>
            <trkpt lat="49.7991872" lon="10.2172384">
                <ele>189.0</ele>
                <time>2020-08-23T10:24:36.000Z</time>
                <name>Trackpoint 4272</name>
            </trkpt>
            <trkpt lat="49.7992448" lon="10.21712">
                <ele>189.0</ele>
                <time>2020-08-23T10:24:39.000Z</time>
                <name>Trackpoint 4273</name>
            </trkpt>
            <trkpt lat="49.7992864" lon="10.2170296">
                <ele>189.0</ele>
                <time>2020-08-23T10:24:41.000Z</time>
                <name>Trackpoint 4274</name>
            </trkpt>
            <trkpt lat="49.799344" lon="10.2169136">
                <ele>190.0</ele>
                <time>2020-08-23T10:24:44.000Z</time>
                <name>Trackpoint 4275</name>
            </trkpt>
            <trkpt lat="49.7994016" lon="10.2168104">
                <ele>190.0</ele>
                <time>2020-08-23T10:24:47.000Z</time>
                <name>Trackpoint 4276</name>
            </trkpt>
            <trkpt lat="49.7994464" lon="10.216728">
                <ele>190.0</ele>
                <time>2020-08-23T10:24:50.000Z</time>
                <name>Trackpoint 4277</name>
            </trkpt>
            <trkpt lat="49.7994912" lon="10.2166456">
                <ele>191.0</ele>
                <time>2020-08-23T10:24:52.000Z</time>
                <name>Trackpoint 4278</name>
            </trkpt>
            <trkpt lat="49.7995328" lon="10.2165568">
                <ele>191.0</ele>
                <time>2020-08-23T10:25:24.000Z</time>
                <name>Trackpoint 4279</name>
            </trkpt>
            <trkpt lat="49.7995744" lon="10.2164552">
                <ele>191.0</ele>
                <time>2020-08-23T10:25:27.000Z</time>
                <name>Trackpoint 4280</name>
            </trkpt>
            <trkpt lat="49.7996224" lon="10.2163632">
                <ele>191.0</ele>
                <time>2020-08-23T10:25:29.000Z</time>
                <name>Trackpoint 4281</name>
            </trkpt>
            <trkpt lat="49.7996704" lon="10.21626">
                <ele>191.0</ele>
                <time>2020-08-23T10:25:31.000Z</time>
                <name>Trackpoint 4282</name>
            </trkpt>
            <trkpt lat="49.799712" lon="10.2161576">
                <ele>191.0</ele>
                <time>2020-08-23T10:25:33.000Z</time>
                <name>Trackpoint 4283</name>
            </trkpt>
            <trkpt lat="49.79976" lon="10.2160552">
                <ele>191.0</ele>
                <time>2020-08-23T10:25:35.000Z</time>
                <name>Trackpoint 4284</name>
            </trkpt>
            <trkpt lat="49.7998112" lon="10.2159456">
                <ele>191.0</ele>
                <time>2020-08-23T10:25:37.000Z</time>
                <name>Trackpoint 4285</name>
            </trkpt>
            <trkpt lat="49.7998688" lon="10.2158384">
                <ele>191.0</ele>
                <time>2020-08-23T10:25:39.000Z</time>
                <name>Trackpoint 4286</name>
            </trkpt>
            <trkpt lat="49.7999264" lon="10.215736">
                <ele>191.0</ele>
                <time>2020-08-23T10:25:41.000Z</time>
                <name>Trackpoint 4287</name>
            </trkpt>
            <trkpt lat="49.799968" lon="10.21564">
                <ele>191.0</ele>
                <time>2020-08-23T10:25:43.000Z</time>
                <name>Trackpoint 4288</name>
            </trkpt>
            <trkpt lat="49.8000192" lon="10.215544">
                <ele>191.0</ele>
                <time>2020-08-23T10:25:45.000Z</time>
                <name>Trackpoint 4289</name>
            </trkpt>
            <trkpt lat="49.800064" lon="10.2154512">
                <ele>191.0</ele>
                <time>2020-08-23T10:25:47.000Z</time>
                <name>Trackpoint 4290</name>
            </trkpt>
            <trkpt lat="49.8001056" lon="10.2153584">
                <ele>191.0</ele>
                <time>2020-08-23T10:25:49.000Z</time>
                <name>Trackpoint 4291</name>
            </trkpt>
            <trkpt lat="49.800144" lon="10.2152632">
                <ele>191.0</ele>
                <time>2020-08-23T10:25:51.000Z</time>
                <name>Trackpoint 4292</name>
            </trkpt>
            <trkpt lat="49.8001952" lon="10.2151544">
                <ele>191.0</ele>
                <time>2020-08-23T10:25:53.000Z</time>
                <name>Trackpoint 4293</name>
            </trkpt>
            <trkpt lat="49.8002464" lon="10.2150432">
                <ele>191.0</ele>
                <time>2020-08-23T10:25:55.000Z</time>
                <name>Trackpoint 4294</name>
            </trkpt>
            <trkpt lat="49.8002976" lon="10.2149312">
                <ele>191.0</ele>
                <time>2020-08-23T10:25:57.000Z</time>
                <name>Trackpoint 4295</name>
            </trkpt>
            <trkpt lat="49.8003488" lon="10.214824">
                <ele>191.0</ele>
                <time>2020-08-23T10:25:59.000Z</time>
                <name>Trackpoint 4296</name>
            </trkpt>
            <trkpt lat="49.8003968" lon="10.214712">
                <ele>191.0</ele>
                <time>2020-08-23T10:26:01.000Z</time>
                <name>Trackpoint 4297</name>
            </trkpt>
            <trkpt lat="49.8004576" lon="10.2146064">
                <ele>192.0</ele>
                <time>2020-08-23T10:26:03.000Z</time>
                <name>Trackpoint 4298</name>
            </trkpt>
            <trkpt lat="49.8005216" lon="10.2144968">
                <ele>192.0</ele>
                <time>2020-08-23T10:26:05.000Z</time>
                <name>Trackpoint 4299</name>
            </trkpt>
            <trkpt lat="49.8005792" lon="10.2143648">
                <ele>192.0</ele>
                <time>2020-08-23T10:26:07.000Z</time>
                <name>Trackpoint 4300</name>
            </trkpt>
            <trkpt lat="49.8006464" lon="10.2142264">
                <ele>192.0</ele>
                <time>2020-08-23T10:26:09.000Z</time>
                <name>Trackpoint 4301</name>
            </trkpt>
            <trkpt lat="49.80072" lon="10.2140848">
                <ele>192.0</ele>
                <time>2020-08-23T10:26:11.000Z</time>
                <name>Trackpoint 4302</name>
            </trkpt>
            <trkpt lat="49.8007968" lon="10.2139464">
                <ele>192.0</ele>
                <time>2020-08-23T10:26:13.000Z</time>
                <name>Trackpoint 4303</name>
            </trkpt>
            <trkpt lat="49.8008608" lon="10.2138168">
                <ele>192.0</ele>
                <time>2020-08-23T10:26:15.000Z</time>
                <name>Trackpoint 4304</name>
            </trkpt>
            <trkpt lat="49.8009312" lon="10.2136848">
                <ele>192.0</ele>
                <time>2020-08-23T10:26:17.000Z</time>
                <name>Trackpoint 4305</name>
            </trkpt>
            <trkpt lat="49.800992" lon="10.2135624">
                <ele>191.0</ele>
                <time>2020-08-23T10:26:19.000Z</time>
                <name>Trackpoint 4306</name>
            </trkpt>
            <trkpt lat="49.8010496" lon="10.213464">
                <ele>191.0</ele>
                <time>2020-08-23T10:26:21.000Z</time>
                <name>Trackpoint 4307</name>
            </trkpt>
            <trkpt lat="49.8011168" lon="10.2133416">
                <ele>191.0</ele>
                <time>2020-08-23T10:26:23.000Z</time>
                <name>Trackpoint 4308</name>
            </trkpt>
            <trkpt lat="49.8011808" lon="10.2132232">
                <ele>191.0</ele>
                <time>2020-08-23T10:26:25.000Z</time>
                <name>Trackpoint 4309</name>
            </trkpt>
            <trkpt lat="49.8012736" lon="10.213108">
                <ele>192.0</ele>
                <time>2020-08-23T10:26:27.000Z</time>
                <name>Trackpoint 4310</name>
            </trkpt>
            <trkpt lat="49.8013536" lon="10.2130096">
                <ele>192.0</ele>
                <time>2020-08-23T10:26:29.000Z</time>
                <name>Trackpoint 4311</name>
            </trkpt>
            <trkpt lat="49.8014176" lon="10.2129152">
                <ele>192.0</ele>
                <time>2020-08-23T10:26:31.000Z</time>
                <name>Trackpoint 4312</name>
            </trkpt>
            <trkpt lat="49.801472" lon="10.2128352">
                <ele>192.0</ele>
                <time>2020-08-23T10:26:33.000Z</time>
                <name>Trackpoint 4313</name>
            </trkpt>
            <trkpt lat="49.8015136" lon="10.2127536">
                <ele>192.0</ele>
                <time>2020-08-23T10:26:35.000Z</time>
                <name>Trackpoint 4314</name>
            </trkpt>
            <trkpt lat="49.801552" lon="10.2126576">
                <ele>192.0</ele>
                <time>2020-08-23T10:26:37.000Z</time>
                <name>Trackpoint 4315</name>
            </trkpt>
            <trkpt lat="49.8015872" lon="10.2125584">
                <ele>192.0</ele>
                <time>2020-08-23T10:26:39.000Z</time>
                <name>Trackpoint 4316</name>
            </trkpt>
            <trkpt lat="49.801632" lon="10.2124544">
                <ele>192.0</ele>
                <time>2020-08-23T10:26:41.000Z</time>
                <name>Trackpoint 4317</name>
            </trkpt>
            <trkpt lat="49.8016704" lon="10.2123568">
                <ele>192.0</ele>
                <time>2020-08-23T10:26:43.000Z</time>
                <name>Trackpoint 4318</name>
            </trkpt>
            <trkpt lat="49.8017184" lon="10.2122672">
                <ele>192.0</ele>
                <time>2020-08-23T10:26:45.000Z</time>
                <name>Trackpoint 4319</name>
            </trkpt>
            <trkpt lat="49.8017632" lon="10.2121664">
                <ele>192.0</ele>
                <time>2020-08-23T10:26:47.000Z</time>
                <name>Trackpoint 4320</name>
            </trkpt>
            <trkpt lat="49.801808" lon="10.2120688">
                <ele>192.0</ele>
                <time>2020-08-23T10:26:49.000Z</time>
                <name>Trackpoint 4321</name>
            </trkpt>
            <trkpt lat="49.8018624" lon="10.211964">
                <ele>192.0</ele>
                <time>2020-08-23T10:26:51.000Z</time>
                <name>Trackpoint 4322</name>
            </trkpt>
            <trkpt lat="49.8019072" lon="10.2118464">
                <ele>192.0</ele>
                <time>2020-08-23T10:26:53.000Z</time>
                <name>Trackpoint 4323</name>
            </trkpt>
            <trkpt lat="49.801952" lon="10.2117432">
                <ele>192.0</ele>
                <time>2020-08-23T10:26:55.000Z</time>
                <name>Trackpoint 4324</name>
            </trkpt>
            <trkpt lat="49.8020032" lon="10.2116344">
                <ele>192.0</ele>
                <time>2020-08-23T10:26:57.000Z</time>
                <name>Trackpoint 4325</name>
            </trkpt>
            <trkpt lat="49.802048" lon="10.2115248">
                <ele>192.0</ele>
                <time>2020-08-23T10:26:59.000Z</time>
                <name>Trackpoint 4326</name>
            </trkpt>
            <trkpt lat="49.8020928" lon="10.2114184">
                <ele>192.0</ele>
                <time>2020-08-23T10:27:01.000Z</time>
                <name>Trackpoint 4327</name>
            </trkpt>
            <trkpt lat="49.802144" lon="10.2113064">
                <ele>192.0</ele>
                <time>2020-08-23T10:27:03.000Z</time>
                <name>Trackpoint 4328</name>
            </trkpt>
            <trkpt lat="49.8021888" lon="10.211192">
                <ele>193.0</ele>
                <time>2020-08-23T10:27:05.000Z</time>
                <name>Trackpoint 4329</name>
            </trkpt>
            <trkpt lat="49.80224" lon="10.2110752">
                <ele>193.0</ele>
                <time>2020-08-23T10:27:07.000Z</time>
                <name>Trackpoint 4330</name>
            </trkpt>
            <trkpt lat="49.8022848" lon="10.2109616">
                <ele>193.0</ele>
                <time>2020-08-23T10:27:09.000Z</time>
                <name>Trackpoint 4331</name>
            </trkpt>
            <trkpt lat="49.8023296" lon="10.2108568">
                <ele>193.0</ele>
                <time>2020-08-23T10:27:11.000Z</time>
                <name>Trackpoint 4332</name>
            </trkpt>
            <trkpt lat="49.8023712" lon="10.21074">
                <ele>193.0</ele>
                <time>2020-08-23T10:27:13.000Z</time>
                <name>Trackpoint 4333</name>
            </trkpt>
            <trkpt lat="49.8024192" lon="10.2106288">
                <ele>193.0</ele>
                <time>2020-08-23T10:27:15.000Z</time>
                <name>Trackpoint 4334</name>
            </trkpt>
            <trkpt lat="49.8024544" lon="10.21052">
                <ele>193.0</ele>
                <time>2020-08-23T10:27:17.000Z</time>
                <name>Trackpoint 4335</name>
            </trkpt>
            <trkpt lat="49.8024928" lon="10.2104152">
                <ele>193.0</ele>
                <time>2020-08-23T10:27:19.000Z</time>
                <name>Trackpoint 4336</name>
            </trkpt>
            <trkpt lat="49.8025312" lon="10.210312">
                <ele>193.0</ele>
                <time>2020-08-23T10:27:21.000Z</time>
                <name>Trackpoint 4337</name>
            </trkpt>
            <trkpt lat="49.8025696" lon="10.2101984">
                <ele>194.0</ele>
                <time>2020-08-23T10:27:23.000Z</time>
                <name>Trackpoint 4338</name>
            </trkpt>
            <trkpt lat="49.802608" lon="10.2100896">
                <ele>194.0</ele>
                <time>2020-08-23T10:27:25.000Z</time>
                <name>Trackpoint 4339</name>
            </trkpt>
            <trkpt lat="49.8026528" lon="10.2099896">
                <ele>194.0</ele>
                <time>2020-08-23T10:27:27.000Z</time>
                <name>Trackpoint 4340</name>
            </trkpt>
            <trkpt lat="49.8027008" lon="10.2098968">
                <ele>194.0</ele>
                <time>2020-08-23T10:27:29.000Z</time>
                <name>Trackpoint 4341</name>
            </trkpt>
            <trkpt lat="49.8027392" lon="10.2098064">
                <ele>194.0</ele>
                <time>2020-08-23T10:27:31.000Z</time>
                <name>Trackpoint 4342</name>
            </trkpt>
            <trkpt lat="49.8027776" lon="10.2096984">
                <ele>194.0</ele>
                <time>2020-08-23T10:27:33.000Z</time>
                <name>Trackpoint 4343</name>
            </trkpt>
            <trkpt lat="49.802816" lon="10.2095896">
                <ele>194.0</ele>
                <time>2020-08-23T10:27:35.000Z</time>
                <name>Trackpoint 4344</name>
            </trkpt>
            <trkpt lat="49.802848" lon="10.20948">
                <ele>194.0</ele>
                <time>2020-08-23T10:27:37.000Z</time>
                <name>Trackpoint 4345</name>
            </trkpt>
            <trkpt lat="49.8028864" lon="10.2093664">
                <ele>194.0</ele>
                <time>2020-08-23T10:27:39.000Z</time>
                <name>Trackpoint 4346</name>
            </trkpt>
            <trkpt lat="49.8029248" lon="10.2092552">
                <ele>194.0</ele>
                <time>2020-08-23T10:27:41.000Z</time>
                <name>Trackpoint 4347</name>
            </trkpt>
            <trkpt lat="49.8029568" lon="10.209144">
                <ele>195.0</ele>
                <time>2020-08-23T10:27:43.000Z</time>
                <name>Trackpoint 4348</name>
            </trkpt>
            <trkpt lat="49.8029856" lon="10.2090352">
                <ele>195.0</ele>
                <time>2020-08-23T10:27:45.000Z</time>
                <name>Trackpoint 4349</name>
            </trkpt>
            <trkpt lat="49.8030176" lon="10.2089264">
                <ele>195.0</ele>
                <time>2020-08-23T10:27:47.000Z</time>
                <name>Trackpoint 4350</name>
            </trkpt>
            <trkpt lat="49.8030432" lon="10.2088232">
                <ele>195.0</ele>
                <time>2020-08-23T10:27:49.000Z</time>
                <name>Trackpoint 4351</name>
            </trkpt>
            <trkpt lat="49.8030688" lon="10.20872">
                <ele>196.0</ele>
                <time>2020-08-23T10:27:51.000Z</time>
                <name>Trackpoint 4352</name>
            </trkpt>
            <trkpt lat="49.8030976" lon="10.2086152">
                <ele>196.0</ele>
                <time>2020-08-23T10:27:53.000Z</time>
                <name>Trackpoint 4353</name>
            </trkpt>
            <trkpt lat="49.8031232" lon="10.2085048">
                <ele>196.0</ele>
                <time>2020-08-23T10:27:55.000Z</time>
                <name>Trackpoint 4354</name>
            </trkpt>
            <trkpt lat="49.8031488" lon="10.208392">
                <ele>197.0</ele>
                <time>2020-08-23T10:27:57.000Z</time>
                <name>Trackpoint 4355</name>
            </trkpt>
            <trkpt lat="49.8031776" lon="10.2082816">
                <ele>197.0</ele>
                <time>2020-08-23T10:27:59.000Z</time>
                <name>Trackpoint 4356</name>
            </trkpt>
            <trkpt lat="49.8032" lon="10.208172">
                <ele>197.0</ele>
                <time>2020-08-23T10:28:01.000Z</time>
                <name>Trackpoint 4357</name>
            </trkpt>
            <trkpt lat="49.8032256" lon="10.2080616">
                <ele>197.0</ele>
                <time>2020-08-23T10:28:03.000Z</time>
                <name>Trackpoint 4358</name>
            </trkpt>
            <trkpt lat="49.8032576" lon="10.2079496">
                <ele>198.0</ele>
                <time>2020-08-23T10:28:05.000Z</time>
                <name>Trackpoint 4359</name>
            </trkpt>
            <trkpt lat="49.80328" lon="10.2078384">
                <ele>198.0</ele>
                <time>2020-08-23T10:28:07.000Z</time>
                <name>Trackpoint 4360</name>
            </trkpt>
            <trkpt lat="49.8033056" lon="10.207728">
                <ele>198.0</ele>
                <time>2020-08-23T10:28:09.000Z</time>
                <name>Trackpoint 4361</name>
            </trkpt>
            <trkpt lat="49.8033344" lon="10.2076168">
                <ele>198.0</ele>
                <time>2020-08-23T10:28:11.000Z</time>
                <name>Trackpoint 4362</name>
            </trkpt>
            <trkpt lat="49.8033568" lon="10.2075032">
                <ele>198.0</ele>
                <time>2020-08-23T10:28:13.000Z</time>
                <name>Trackpoint 4363</name>
            </trkpt>
            <trkpt lat="49.8033728" lon="10.207388">
                <ele>199.0</ele>
                <time>2020-08-23T10:28:15.000Z</time>
                <name>Trackpoint 4364</name>
            </trkpt>
            <trkpt lat="49.8033984" lon="10.2072752">
                <ele>199.0</ele>
                <time>2020-08-23T10:28:17.000Z</time>
                <name>Trackpoint 4365</name>
            </trkpt>
            <trkpt lat="49.8034176" lon="10.20716">
                <ele>199.0</ele>
                <time>2020-08-23T10:28:19.000Z</time>
                <name>Trackpoint 4366</name>
            </trkpt>
            <trkpt lat="49.80344" lon="10.207044">
                <ele>199.0</ele>
                <time>2020-08-23T10:28:21.000Z</time>
                <name>Trackpoint 4367</name>
            </trkpt>
            <trkpt lat="49.8034592" lon="10.206928">
                <ele>200.0</ele>
                <time>2020-08-23T10:28:23.000Z</time>
                <name>Trackpoint 4368</name>
            </trkpt>
            <trkpt lat="49.8034784" lon="10.2068144">
                <ele>200.0</ele>
                <time>2020-08-23T10:28:25.000Z</time>
                <name>Trackpoint 4369</name>
            </trkpt>
            <trkpt lat="49.8034976" lon="10.2067072">
                <ele>200.0</ele>
                <time>2020-08-23T10:28:27.000Z</time>
                <name>Trackpoint 4370</name>
            </trkpt>
            <trkpt lat="49.8035168" lon="10.206596">
                <ele>200.0</ele>
                <time>2020-08-23T10:28:29.000Z</time>
                <name>Trackpoint 4371</name>
            </trkpt>
            <trkpt lat="49.8035328" lon="10.2064848">
                <ele>200.0</ele>
                <time>2020-08-23T10:28:31.000Z</time>
                <name>Trackpoint 4372</name>
            </trkpt>
            <trkpt lat="49.8035456" lon="10.2063736">
                <ele>200.0</ele>
                <time>2020-08-23T10:28:33.000Z</time>
                <name>Trackpoint 4373</name>
            </trkpt>
            <trkpt lat="49.8035584" lon="10.20626">
                <ele>200.0</ele>
                <time>2020-08-23T10:28:35.000Z</time>
                <name>Trackpoint 4374</name>
            </trkpt>
            <trkpt lat="49.8035712" lon="10.2061456">
                <ele>200.0</ele>
                <time>2020-08-23T10:28:37.000Z</time>
                <name>Trackpoint 4375</name>
            </trkpt>
            <trkpt lat="49.8035904" lon="10.2060272">
                <ele>200.0</ele>
                <time>2020-08-23T10:28:39.000Z</time>
                <name>Trackpoint 4376</name>
            </trkpt>
            <trkpt lat="49.8036" lon="10.2059072">
                <ele>200.0</ele>
                <time>2020-08-23T10:28:41.000Z</time>
                <name>Trackpoint 4377</name>
            </trkpt>
            <trkpt lat="49.803616" lon="10.2057848">
                <ele>200.0</ele>
                <time>2020-08-23T10:28:43.000Z</time>
                <name>Trackpoint 4378</name>
            </trkpt>
            <trkpt lat="49.803632" lon="10.2056664">
                <ele>201.0</ele>
                <time>2020-08-23T10:28:45.000Z</time>
                <name>Trackpoint 4379</name>
            </trkpt>
            <trkpt lat="49.8036416" lon="10.205548">
                <ele>201.0</ele>
                <time>2020-08-23T10:28:47.000Z</time>
                <name>Trackpoint 4380</name>
            </trkpt>
            <trkpt lat="49.8036576" lon="10.205432">
                <ele>201.0</ele>
                <time>2020-08-23T10:28:49.000Z</time>
                <name>Trackpoint 4381</name>
            </trkpt>
            <trkpt lat="49.803664" lon="10.205312">
                <ele>201.0</ele>
                <time>2020-08-23T10:28:51.000Z</time>
                <name>Trackpoint 4382</name>
            </trkpt>
            <trkpt lat="49.8036768" lon="10.2051896">
                <ele>201.0</ele>
                <time>2020-08-23T10:28:53.000Z</time>
                <name>Trackpoint 4383</name>
            </trkpt>
            <trkpt lat="49.8036896" lon="10.2050696">
                <ele>201.0</ele>
                <time>2020-08-23T10:28:55.000Z</time>
                <name>Trackpoint 4384</name>
            </trkpt>
            <trkpt lat="49.803696" lon="10.2049464">
                <ele>201.0</ele>
                <time>2020-08-23T10:28:57.000Z</time>
                <name>Trackpoint 4385</name>
            </trkpt>
            <trkpt lat="49.8036992" lon="10.2048184">
                <ele>201.0</ele>
                <time>2020-08-23T10:28:59.000Z</time>
                <name>Trackpoint 4386</name>
            </trkpt>
            <trkpt lat="49.8037056" lon="10.204688">
                <ele>201.0</ele>
                <time>2020-08-23T10:29:01.000Z</time>
                <name>Trackpoint 4387</name>
            </trkpt>
            <trkpt lat="49.803712" lon="10.20456">
                <ele>201.0</ele>
                <time>2020-08-23T10:29:03.000Z</time>
                <name>Trackpoint 4388</name>
            </trkpt>
            <trkpt lat="49.8037152" lon="10.2044296">
                <ele>201.0</ele>
                <time>2020-08-23T10:29:05.000Z</time>
                <name>Trackpoint 4389</name>
            </trkpt>
            <trkpt lat="49.8037184" lon="10.2043016">
                <ele>201.0</ele>
                <time>2020-08-23T10:29:07.000Z</time>
                <name>Trackpoint 4390</name>
            </trkpt>
            <trkpt lat="49.8037312" lon="10.204172">
                <ele>202.0</ele>
                <time>2020-08-23T10:29:09.000Z</time>
                <name>Trackpoint 4391</name>
            </trkpt>
            <trkpt lat="49.8037344" lon="10.2040464">
                <ele>201.0</ele>
                <time>2020-08-23T10:29:11.000Z</time>
                <name>Trackpoint 4392</name>
            </trkpt>
            <trkpt lat="49.8037376" lon="10.2039232">
                <ele>201.0</ele>
                <time>2020-08-23T10:29:13.000Z</time>
                <name>Trackpoint 4393</name>
            </trkpt>
            <trkpt lat="49.8037408" lon="10.2038032">
                <ele>201.0</ele>
                <time>2020-08-23T10:29:15.000Z</time>
                <name>Trackpoint 4394</name>
            </trkpt>
            <trkpt lat="49.8037504" lon="10.2036832">
                <ele>201.0</ele>
                <time>2020-08-23T10:29:17.000Z</time>
                <name>Trackpoint 4395</name>
            </trkpt>
            <trkpt lat="49.8037568" lon="10.2035704">
                <ele>201.0</ele>
                <time>2020-08-23T10:29:19.000Z</time>
                <name>Trackpoint 4396</name>
            </trkpt>
            <trkpt lat="49.8037632" lon="10.20346">
                <ele>201.0</ele>
                <time>2020-08-23T10:29:21.000Z</time>
                <name>Trackpoint 4397</name>
            </trkpt>
            <trkpt lat="49.8037632" lon="10.2033528">
                <ele>201.0</ele>
                <time>2020-08-23T10:29:23.000Z</time>
                <name>Trackpoint 4398</name>
            </trkpt>
            <trkpt lat="49.803744" lon="10.203252">
                <ele>201.0</ele>
                <time>2020-08-23T10:29:25.000Z</time>
                <name>Trackpoint 4399</name>
            </trkpt>
            <trkpt lat="49.8037408" lon="10.2031472">
                <ele>202.0</ele>
                <time>2020-08-23T10:29:27.000Z</time>
                <name>Trackpoint 4400</name>
            </trkpt>
            <trkpt lat="49.803744" lon="10.2030464">
                <ele>202.0</ele>
                <time>2020-08-23T10:29:29.000Z</time>
                <name>Trackpoint 4401</name>
            </trkpt>
            <trkpt lat="49.803744" lon="10.2029464">
                <ele>202.0</ele>
                <time>2020-08-23T10:29:31.000Z</time>
                <name>Trackpoint 4402</name>
            </trkpt>
            <trkpt lat="49.8037536" lon="10.2028504">
                <ele>202.0</ele>
                <time>2020-08-23T10:29:33.000Z</time>
                <name>Trackpoint 4403</name>
            </trkpt>
            <trkpt lat="49.8037504" lon="10.202752">
                <ele>202.0</ele>
                <time>2020-08-23T10:29:35.000Z</time>
                <name>Trackpoint 4404</name>
            </trkpt>
            <trkpt lat="49.8037344" lon="10.2026568">
                <ele>202.0</ele>
                <time>2020-08-23T10:29:37.000Z</time>
                <name>Trackpoint 4405</name>
            </trkpt>
            <trkpt lat="49.8037248" lon="10.2025496">
                <ele>202.0</ele>
                <time>2020-08-23T10:29:39.000Z</time>
                <name>Trackpoint 4406</name>
            </trkpt>
            <trkpt lat="49.8037216" lon="10.202428">
                <ele>201.0</ele>
                <time>2020-08-23T10:29:41.000Z</time>
                <name>Trackpoint 4407</name>
            </trkpt>
            <trkpt lat="49.8037312" lon="10.2023032">
                <ele>202.0</ele>
                <time>2020-08-23T10:29:43.000Z</time>
                <name>Trackpoint 4408</name>
            </trkpt>
            <trkpt lat="49.8037216" lon="10.2021752">
                <ele>202.0</ele>
                <time>2020-08-23T10:29:45.000Z</time>
                <name>Trackpoint 4409</name>
            </trkpt>
            <trkpt lat="49.8037248" lon="10.2020568">
                <ele>201.0</ele>
                <time>2020-08-23T10:29:47.000Z</time>
                <name>Trackpoint 4410</name>
            </trkpt>
            <trkpt lat="49.8037312" lon="10.2019392">
                <ele>201.0</ele>
                <time>2020-08-23T10:29:49.000Z</time>
                <name>Trackpoint 4411</name>
            </trkpt>
            <trkpt lat="49.8037248" lon="10.2018272">
                <ele>201.0</ele>
                <time>2020-08-23T10:29:51.000Z</time>
                <name>Trackpoint 4412</name>
            </trkpt>
            <trkpt lat="49.8037216" lon="10.201712">
                <ele>201.0</ele>
                <time>2020-08-23T10:29:53.000Z</time>
                <name>Trackpoint 4413</name>
            </trkpt>
            <trkpt lat="49.8037216" lon="10.201596">
                <ele>201.0</ele>
                <time>2020-08-23T10:29:55.000Z</time>
                <name>Trackpoint 4414</name>
            </trkpt>
            <trkpt lat="49.8037152" lon="10.2014784">
                <ele>201.0</ele>
                <time>2020-08-23T10:29:57.000Z</time>
                <name>Trackpoint 4415</name>
            </trkpt>
            <trkpt lat="49.8037056" lon="10.2013632">
                <ele>201.0</ele>
                <time>2020-08-23T10:29:59.000Z</time>
                <name>Trackpoint 4416</name>
            </trkpt>
            <trkpt lat="49.8037024" lon="10.2012504">
                <ele>201.0</ele>
                <time>2020-08-23T10:30:01.000Z</time>
                <name>Trackpoint 4417</name>
            </trkpt>
            <trkpt lat="49.803696" lon="10.2011344">
                <ele>201.0</ele>
                <time>2020-08-23T10:30:03.000Z</time>
                <name>Trackpoint 4418</name>
            </trkpt>
            <trkpt lat="49.8036928" lon="10.2010168">
                <ele>201.0</ele>
                <time>2020-08-23T10:30:05.000Z</time>
                <name>Trackpoint 4419</name>
            </trkpt>
            <trkpt lat="49.8036832" lon="10.2008896">
                <ele>201.0</ele>
                <time>2020-08-23T10:30:07.000Z</time>
                <name>Trackpoint 4420</name>
            </trkpt>
            <trkpt lat="49.8036768" lon="10.200764">
                <ele>201.0</ele>
                <time>2020-08-23T10:30:09.000Z</time>
                <name>Trackpoint 4421</name>
            </trkpt>
            <trkpt lat="49.8036704" lon="10.2006304">
                <ele>201.0</ele>
                <time>2020-08-23T10:30:11.000Z</time>
                <name>Trackpoint 4422</name>
            </trkpt>
            <trkpt lat="49.8036608" lon="10.200492">
                <ele>200.0</ele>
                <time>2020-08-23T10:30:13.000Z</time>
                <name>Trackpoint 4423</name>
            </trkpt>
            <trkpt lat="49.8036512" lon="10.2003432">
                <ele>200.0</ele>
                <time>2020-08-23T10:30:15.000Z</time>
                <name>Trackpoint 4424</name>
            </trkpt>
            <trkpt lat="49.8036384" lon="10.2001888">
                <ele>200.0</ele>
                <time>2020-08-23T10:30:17.000Z</time>
                <name>Trackpoint 4425</name>
            </trkpt>
            <trkpt lat="49.8036352" lon="10.2000288">
                <ele>199.0</ele>
                <time>2020-08-23T10:30:19.000Z</time>
                <name>Trackpoint 4426</name>
            </trkpt>
            <trkpt lat="49.8036224" lon="10.1998656">
                <ele>199.0</ele>
                <time>2020-08-23T10:30:21.000Z</time>
                <name>Trackpoint 4427</name>
            </trkpt>
            <trkpt lat="49.8036192" lon="10.1997032">
                <ele>199.0</ele>
                <time>2020-08-23T10:30:23.000Z</time>
                <name>Trackpoint 4428</name>
            </trkpt>
            <trkpt lat="49.8036064" lon="10.1995432">
                <ele>199.0</ele>
                <time>2020-08-23T10:30:25.000Z</time>
                <name>Trackpoint 4429</name>
            </trkpt>
            <trkpt lat="49.8035968" lon="10.199384">
                <ele>199.0</ele>
                <time>2020-08-23T10:30:27.000Z</time>
                <name>Trackpoint 4430</name>
            </trkpt>
            <trkpt lat="49.8035904" lon="10.1992256">
                <ele>199.0</ele>
                <time>2020-08-23T10:30:29.000Z</time>
                <name>Trackpoint 4431</name>
            </trkpt>
            <trkpt lat="49.8035776" lon="10.1990696">
                <ele>198.0</ele>
                <time>2020-08-23T10:30:31.000Z</time>
                <name>Trackpoint 4432</name>
            </trkpt>
            <trkpt lat="49.8035712" lon="10.1989184">
                <ele>198.0</ele>
                <time>2020-08-23T10:30:33.000Z</time>
                <name>Trackpoint 4433</name>
            </trkpt>
            <trkpt lat="49.8035616" lon="10.1987752">
                <ele>198.0</ele>
                <time>2020-08-23T10:30:35.000Z</time>
                <name>Trackpoint 4434</name>
            </trkpt>
            <trkpt lat="49.8035552" lon="10.1986352">
                <ele>198.0</ele>
                <time>2020-08-23T10:30:37.000Z</time>
                <name>Trackpoint 4435</name>
            </trkpt>
            <trkpt lat="49.8035456" lon="10.1984904">
                <ele>198.0</ele>
                <time>2020-08-23T10:30:39.000Z</time>
                <name>Trackpoint 4436</name>
            </trkpt>
            <trkpt lat="49.8035392" lon="10.1983448">
                <ele>198.0</ele>
                <time>2020-08-23T10:30:41.000Z</time>
                <name>Trackpoint 4437</name>
            </trkpt>
            <trkpt lat="49.8035328" lon="10.1982032">
                <ele>198.0</ele>
                <time>2020-08-23T10:30:43.000Z</time>
                <name>Trackpoint 4438</name>
            </trkpt>
            <trkpt lat="49.8035232" lon="10.1980632">
                <ele>198.0</ele>
                <time>2020-08-23T10:30:45.000Z</time>
                <name>Trackpoint 4439</name>
            </trkpt>
            <trkpt lat="49.80352" lon="10.1979216">
                <ele>198.0</ele>
                <time>2020-08-23T10:30:47.000Z</time>
                <name>Trackpoint 4440</name>
            </trkpt>
            <trkpt lat="49.8035136" lon="10.1977816">
                <ele>198.0</ele>
                <time>2020-08-23T10:30:49.000Z</time>
                <name>Trackpoint 4441</name>
            </trkpt>
            <trkpt lat="49.803504" lon="10.1976384">
                <ele>198.0</ele>
                <time>2020-08-23T10:30:51.000Z</time>
                <name>Trackpoint 4442</name>
            </trkpt>
            <trkpt lat="49.8034944" lon="10.1974936">
                <ele>197.0</ele>
                <time>2020-08-23T10:30:53.000Z</time>
                <name>Trackpoint 4443</name>
            </trkpt>
            <trkpt lat="49.8034848" lon="10.1973416">
                <ele>197.0</ele>
                <time>2020-08-23T10:30:55.000Z</time>
                <name>Trackpoint 4444</name>
            </trkpt>
            <trkpt lat="49.8034784" lon="10.1971864">
                <ele>197.0</ele>
                <time>2020-08-23T10:30:57.000Z</time>
                <name>Trackpoint 4445</name>
            </trkpt>
            <trkpt lat="49.8034656" lon="10.1970264">
                <ele>197.0</ele>
                <time>2020-08-23T10:30:59.000Z</time>
                <name>Trackpoint 4446</name>
            </trkpt>
            <trkpt lat="49.8034592" lon="10.1968696">
                <ele>197.0</ele>
                <time>2020-08-23T10:31:01.000Z</time>
                <name>Trackpoint 4447</name>
            </trkpt>
            <trkpt lat="49.8034528" lon="10.1967152">
                <ele>197.0</ele>
                <time>2020-08-23T10:31:03.000Z</time>
                <name>Trackpoint 4448</name>
            </trkpt>
            <trkpt lat="49.80344" lon="10.19656">
                <ele>197.0</ele>
                <time>2020-08-23T10:31:05.000Z</time>
                <name>Trackpoint 4449</name>
            </trkpt>
            <trkpt lat="49.8034368" lon="10.196408">
                <ele>197.0</ele>
                <time>2020-08-23T10:31:07.000Z</time>
                <name>Trackpoint 4450</name>
            </trkpt>
            <trkpt lat="49.803424" lon="10.1962536">
                <ele>197.0</ele>
                <time>2020-08-23T10:31:09.000Z</time>
                <name>Trackpoint 4451</name>
            </trkpt>
            <trkpt lat="49.8034176" lon="10.1960952">
                <ele>197.0</ele>
                <time>2020-08-23T10:31:11.000Z</time>
                <name>Trackpoint 4452</name>
            </trkpt>
            <trkpt lat="49.8034048" lon="10.1959352">
                <ele>197.0</ele>
                <time>2020-08-23T10:31:13.000Z</time>
                <name>Trackpoint 4453</name>
            </trkpt>
            <trkpt lat="49.8033952" lon="10.1957704">
                <ele>197.0</ele>
                <time>2020-08-23T10:31:15.000Z</time>
                <name>Trackpoint 4454</name>
            </trkpt>
            <trkpt lat="49.8033824" lon="10.1955992">
                <ele>197.0</ele>
                <time>2020-08-23T10:31:17.000Z</time>
                <name>Trackpoint 4455</name>
            </trkpt>
            <trkpt lat="49.8033728" lon="10.1954272">
                <ele>197.0</ele>
                <time>2020-08-23T10:31:19.000Z</time>
                <name>Trackpoint 4456</name>
            </trkpt>
            <trkpt lat="49.80336" lon="10.1952496">
                <ele>197.0</ele>
                <time>2020-08-23T10:31:21.000Z</time>
                <name>Trackpoint 4457</name>
            </trkpt>
            <trkpt lat="49.8033536" lon="10.195068">
                <ele>197.0</ele>
                <time>2020-08-23T10:31:23.000Z</time>
                <name>Trackpoint 4458</name>
            </trkpt>
            <trkpt lat="49.8033472" lon="10.1948992">
                <ele>197.0</ele>
                <time>2020-08-23T10:31:25.000Z</time>
                <name>Trackpoint 4459</name>
            </trkpt>
            <trkpt lat="49.803344" lon="10.1947584">
                <ele>197.0</ele>
                <time>2020-08-23T10:31:27.000Z</time>
                <name>Trackpoint 4460</name>
            </trkpt>
            <trkpt lat="49.803328" lon="10.1946088">
                <ele>196.0</ele>
                <time>2020-08-23T10:31:29.000Z</time>
                <name>Trackpoint 4461</name>
            </trkpt>
            <trkpt lat="49.8033152" lon="10.194444">
                <ele>196.0</ele>
                <time>2020-08-23T10:31:31.000Z</time>
                <name>Trackpoint 4462</name>
            </trkpt>
            <trkpt lat="49.8033088" lon="10.1943528">
                <ele>196.0</ele>
                <time>2020-08-23T10:31:32.000Z</time>
                <name>Trackpoint 4463</name>
            </trkpt>
            <trkpt lat="49.8033056" lon="10.194172">
                <ele>196.0</ele>
                <time>2020-08-23T10:31:34.000Z</time>
                <name>Trackpoint 4464</name>
            </trkpt>
            <trkpt lat="49.8032992" lon="10.19408">
                <ele>196.0</ele>
                <time>2020-08-23T10:31:35.000Z</time>
                <name>Trackpoint 4465</name>
            </trkpt>
            <trkpt lat="49.8032864" lon="10.1939872">
                <ele>196.0</ele>
                <time>2020-08-23T10:31:36.000Z</time>
                <name>Trackpoint 4466</name>
            </trkpt>
            <trkpt lat="49.80328" lon="10.1938952">
                <ele>196.0</ele>
                <time>2020-08-23T10:31:37.000Z</time>
                <name>Trackpoint 4467</name>
            </trkpt>
            <trkpt lat="49.80328" lon="10.1938016">
                <ele>196.0</ele>
                <time>2020-08-23T10:31:38.000Z</time>
                <name>Trackpoint 4468</name>
            </trkpt>
            <trkpt lat="49.8032768" lon="10.1937088">
                <ele>195.0</ele>
                <time>2020-08-23T10:31:39.000Z</time>
                <name>Trackpoint 4469</name>
            </trkpt>
            <trkpt lat="49.80328" lon="10.1936168">
                <ele>195.0</ele>
                <time>2020-08-23T10:31:40.000Z</time>
                <name>Trackpoint 4470</name>
            </trkpt>
            <trkpt lat="49.8032736" lon="10.1935232">
                <ele>195.0</ele>
                <time>2020-08-23T10:31:41.000Z</time>
                <name>Trackpoint 4471</name>
            </trkpt>
            <trkpt lat="49.8032672" lon="10.1934296">
                <ele>195.0</ele>
                <time>2020-08-23T10:31:42.000Z</time>
                <name>Trackpoint 4472</name>
            </trkpt>
            <trkpt lat="49.8032608" lon="10.1933384">
                <ele>195.0</ele>
                <time>2020-08-23T10:31:43.000Z</time>
                <name>Trackpoint 4473</name>
            </trkpt>
            <trkpt lat="49.8032576" lon="10.1932448">
                <ele>195.0</ele>
                <time>2020-08-23T10:31:44.000Z</time>
                <name>Trackpoint 4474</name>
            </trkpt>
            <trkpt lat="49.8032544" lon="10.1931536">
                <ele>195.0</ele>
                <time>2020-08-23T10:31:45.000Z</time>
                <name>Trackpoint 4475</name>
            </trkpt>
            <trkpt lat="49.8032448" lon="10.1930616">
                <ele>195.0</ele>
                <time>2020-08-23T10:31:46.000Z</time>
                <name>Trackpoint 4476</name>
            </trkpt>
            <trkpt lat="49.8032416" lon="10.1929704">
                <ele>195.0</ele>
                <time>2020-08-23T10:31:47.000Z</time>
                <name>Trackpoint 4477</name>
            </trkpt>
            <trkpt lat="49.8032384" lon="10.19288">
                <ele>195.0</ele>
                <time>2020-08-23T10:31:48.000Z</time>
                <name>Trackpoint 4478</name>
            </trkpt>
            <trkpt lat="49.8032288" lon="10.192788">
                <ele>195.0</ele>
                <time>2020-08-23T10:31:49.000Z</time>
                <name>Trackpoint 4479</name>
            </trkpt>
            <trkpt lat="49.8032256" lon="10.1926968">
                <ele>195.0</ele>
                <time>2020-08-23T10:31:50.000Z</time>
                <name>Trackpoint 4480</name>
            </trkpt>
            <trkpt lat="49.8032224" lon="10.1926032">
                <ele>195.0</ele>
                <time>2020-08-23T10:31:51.000Z</time>
                <name>Trackpoint 4481</name>
            </trkpt>
            <trkpt lat="49.803216" lon="10.1925096">
                <ele>195.0</ele>
                <time>2020-08-23T10:31:52.000Z</time>
                <name>Trackpoint 4482</name>
            </trkpt>
            <trkpt lat="49.8032128" lon="10.192416">
                <ele>194.0</ele>
                <time>2020-08-23T10:31:53.000Z</time>
                <name>Trackpoint 4483</name>
            </trkpt>
            <trkpt lat="49.8032064" lon="10.1923216">
                <ele>194.0</ele>
                <time>2020-08-23T10:31:54.000Z</time>
                <name>Trackpoint 4484</name>
            </trkpt>
            <trkpt lat="49.8032" lon="10.1922256">
                <ele>194.0</ele>
                <time>2020-08-23T10:31:55.000Z</time>
                <name>Trackpoint 4485</name>
            </trkpt>
            <trkpt lat="49.8031936" lon="10.1921304">
                <ele>194.0</ele>
                <time>2020-08-23T10:31:56.000Z</time>
                <name>Trackpoint 4486</name>
            </trkpt>
            <trkpt lat="49.8031872" lon="10.1920344">
                <ele>194.0</ele>
                <time>2020-08-23T10:31:57.000Z</time>
                <name>Trackpoint 4487</name>
            </trkpt>
            <trkpt lat="49.8031808" lon="10.1919384">
                <ele>194.0</ele>
                <time>2020-08-23T10:31:58.000Z</time>
                <name>Trackpoint 4488</name>
            </trkpt>
            <trkpt lat="49.8031776" lon="10.1918432">
                <ele>193.0</ele>
                <time>2020-08-23T10:31:59.000Z</time>
                <name>Trackpoint 4489</name>
            </trkpt>
            <trkpt lat="49.8031744" lon="10.1917448">
                <ele>193.0</ele>
                <time>2020-08-23T10:32:00.000Z</time>
                <name>Trackpoint 4490</name>
            </trkpt>
            <trkpt lat="49.803168" lon="10.1916464">
                <ele>193.0</ele>
                <time>2020-08-23T10:32:01.000Z</time>
                <name>Trackpoint 4491</name>
            </trkpt>
            <trkpt lat="49.8031616" lon="10.191548">
                <ele>193.0</ele>
                <time>2020-08-23T10:32:02.000Z</time>
                <name>Trackpoint 4492</name>
            </trkpt>
            <trkpt lat="49.8031584" lon="10.1914504">
                <ele>192.0</ele>
                <time>2020-08-23T10:32:03.000Z</time>
                <name>Trackpoint 4493</name>
            </trkpt>
            <trkpt lat="49.8031552" lon="10.1913544">
                <ele>192.0</ele>
                <time>2020-08-23T10:32:04.000Z</time>
                <name>Trackpoint 4494</name>
            </trkpt>
            <trkpt lat="49.8031456" lon="10.19126">
                <ele>192.0</ele>
                <time>2020-08-23T10:32:05.000Z</time>
                <name>Trackpoint 4495</name>
            </trkpt>
            <trkpt lat="49.8031392" lon="10.1911648">
                <ele>192.0</ele>
                <time>2020-08-23T10:32:06.000Z</time>
                <name>Trackpoint 4496</name>
            </trkpt>
            <trkpt lat="49.8031296" lon="10.1910736">
                <ele>192.0</ele>
                <time>2020-08-23T10:32:07.000Z</time>
                <name>Trackpoint 4497</name>
            </trkpt>
            <trkpt lat="49.80312" lon="10.1908952">
                <ele>192.0</ele>
                <time>2020-08-23T10:32:09.000Z</time>
                <name>Trackpoint 4498</name>
            </trkpt>
            <trkpt lat="49.8031136" lon="10.1907216">
                <ele>191.0</ele>
                <time>2020-08-23T10:32:11.000Z</time>
                <name>Trackpoint 4499</name>
            </trkpt>
            <trkpt lat="49.8031008" lon="10.1905448">
                <ele>191.0</ele>
                <time>2020-08-23T10:32:13.000Z</time>
                <name>Trackpoint 4500</name>
            </trkpt>
            <trkpt lat="49.8030944" lon="10.1903648">
                <ele>191.0</ele>
                <time>2020-08-23T10:32:15.000Z</time>
                <name>Trackpoint 4501</name>
            </trkpt>
            <trkpt lat="49.8030848" lon="10.1902736">
                <ele>191.0</ele>
                <time>2020-08-23T10:32:16.000Z</time>
                <name>Trackpoint 4502</name>
            </trkpt>
            <trkpt lat="49.8030752" lon="10.1900952">
                <ele>191.0</ele>
                <time>2020-08-23T10:32:18.000Z</time>
                <name>Trackpoint 4503</name>
            </trkpt>
            <trkpt lat="49.8030688" lon="10.1900032">
                <ele>190.0</ele>
                <time>2020-08-23T10:32:19.000Z</time>
                <name>Trackpoint 4504</name>
            </trkpt>
            <trkpt lat="49.8030624" lon="10.1898232">
                <ele>191.0</ele>
                <time>2020-08-23T10:32:21.000Z</time>
                <name>Trackpoint 4505</name>
            </trkpt>
            <trkpt lat="49.8030624" lon="10.1897312">
                <ele>191.0</ele>
                <time>2020-08-23T10:32:22.000Z</time>
                <name>Trackpoint 4506</name>
            </trkpt>
            <trkpt lat="49.803056" lon="10.1895536">
                <ele>190.0</ele>
                <time>2020-08-23T10:32:24.000Z</time>
                <name>Trackpoint 4507</name>
            </trkpt>
            <trkpt lat="49.8030464" lon="10.1893832">
                <ele>190.0</ele>
                <time>2020-08-23T10:32:26.000Z</time>
                <name>Trackpoint 4508</name>
            </trkpt>
            <trkpt lat="49.8030432" lon="10.1892184">
                <ele>190.0</ele>
                <time>2020-08-23T10:32:28.000Z</time>
                <name>Trackpoint 4509</name>
            </trkpt>
            <trkpt lat="49.8030304" lon="10.1890624">
                <ele>190.0</ele>
                <time>2020-08-23T10:32:30.000Z</time>
                <name>Trackpoint 4510</name>
            </trkpt>
            <trkpt lat="49.803024" lon="10.1889088">
                <ele>190.0</ele>
                <time>2020-08-23T10:32:32.000Z</time>
                <name>Trackpoint 4511</name>
            </trkpt>
            <trkpt lat="49.8030176" lon="10.1887552">
                <ele>190.0</ele>
                <time>2020-08-23T10:32:34.000Z</time>
                <name>Trackpoint 4512</name>
            </trkpt>
            <trkpt lat="49.803008" lon="10.1886064">
                <ele>190.0</ele>
                <time>2020-08-23T10:32:36.000Z</time>
                <name>Trackpoint 4513</name>
            </trkpt>
            <trkpt lat="49.8030016" lon="10.1884632">
                <ele>190.0</ele>
                <time>2020-08-23T10:32:38.000Z</time>
                <name>Trackpoint 4514</name>
            </trkpt>
            <trkpt lat="49.8029952" lon="10.1883224">
                <ele>190.0</ele>
                <time>2020-08-23T10:32:40.000Z</time>
                <name>Trackpoint 4515</name>
            </trkpt>
            <trkpt lat="49.8029824" lon="10.1881816">
                <ele>190.0</ele>
                <time>2020-08-23T10:32:42.000Z</time>
                <name>Trackpoint 4516</name>
            </trkpt>
            <trkpt lat="49.8029696" lon="10.1880504">
                <ele>190.0</ele>
                <time>2020-08-23T10:32:44.000Z</time>
                <name>Trackpoint 4517</name>
            </trkpt>
            <trkpt lat="49.8029664" lon="10.18792">
                <ele>190.0</ele>
                <time>2020-08-23T10:32:46.000Z</time>
                <name>Trackpoint 4518</name>
            </trkpt>
            <trkpt lat="49.80296" lon="10.1877816">
                <ele>190.0</ele>
                <time>2020-08-23T10:32:48.000Z</time>
                <name>Trackpoint 4519</name>
            </trkpt>
            <trkpt lat="49.8029504" lon="10.1876336">
                <ele>190.0</ele>
                <time>2020-08-23T10:32:50.000Z</time>
                <name>Trackpoint 4520</name>
            </trkpt>
            <trkpt lat="49.8029408" lon="10.187484">
                <ele>190.0</ele>
                <time>2020-08-23T10:32:52.000Z</time>
                <name>Trackpoint 4521</name>
            </trkpt>
            <trkpt lat="49.8029376" lon="10.1873312">
                <ele>190.0</ele>
                <time>2020-08-23T10:32:54.000Z</time>
                <name>Trackpoint 4522</name>
            </trkpt>
            <trkpt lat="49.802928" lon="10.1871744">
                <ele>190.0</ele>
                <time>2020-08-23T10:32:56.000Z</time>
                <name>Trackpoint 4523</name>
            </trkpt>
            <trkpt lat="49.8029184" lon="10.1870184">
                <ele>190.0</ele>
                <time>2020-08-23T10:32:58.000Z</time>
                <name>Trackpoint 4524</name>
            </trkpt>
            <trkpt lat="49.8029056" lon="10.18686">
                <ele>190.0</ele>
                <time>2020-08-23T10:33:00.000Z</time>
                <name>Trackpoint 4525</name>
            </trkpt>
            <trkpt lat="49.8028992" lon="10.1867048">
                <ele>190.0</ele>
                <time>2020-08-23T10:33:02.000Z</time>
                <name>Trackpoint 4526</name>
            </trkpt>
            <trkpt lat="49.8028864" lon="10.186552">
                <ele>190.0</ele>
                <time>2020-08-23T10:33:04.000Z</time>
                <name>Trackpoint 4527</name>
            </trkpt>
            <trkpt lat="49.8028768" lon="10.1864032">
                <ele>190.0</ele>
                <time>2020-08-23T10:33:06.000Z</time>
                <name>Trackpoint 4528</name>
            </trkpt>
            <trkpt lat="49.8028672" lon="10.1862568">
                <ele>190.0</ele>
                <time>2020-08-23T10:33:08.000Z</time>
                <name>Trackpoint 4529</name>
            </trkpt>
            <trkpt lat="49.8028576" lon="10.1861136">
                <ele>189.0</ele>
                <time>2020-08-23T10:33:10.000Z</time>
                <name>Trackpoint 4530</name>
            </trkpt>
            <trkpt lat="49.8028448" lon="10.1859648">
                <ele>189.0</ele>
                <time>2020-08-23T10:33:12.000Z</time>
                <name>Trackpoint 4531</name>
            </trkpt>
            <trkpt lat="49.8028384" lon="10.1858128">
                <ele>189.0</ele>
                <time>2020-08-23T10:33:14.000Z</time>
                <name>Trackpoint 4532</name>
            </trkpt>
            <trkpt lat="49.802832" lon="10.1856672">
                <ele>189.0</ele>
                <time>2020-08-23T10:33:16.000Z</time>
                <name>Trackpoint 4533</name>
            </trkpt>
            <trkpt lat="49.8028224" lon="10.1855248">
                <ele>189.0</ele>
                <time>2020-08-23T10:33:18.000Z</time>
                <name>Trackpoint 4534</name>
            </trkpt>
            <trkpt lat="49.8028192" lon="10.1853888">
                <ele>188.0</ele>
                <time>2020-08-23T10:33:20.000Z</time>
                <name>Trackpoint 4535</name>
            </trkpt>
            <trkpt lat="49.8028096" lon="10.1852512">
                <ele>188.0</ele>
                <time>2020-08-23T10:33:22.000Z</time>
                <name>Trackpoint 4536</name>
            </trkpt>
            <trkpt lat="49.8028032" lon="10.1851056">
                <ele>189.0</ele>
                <time>2020-08-23T10:33:24.000Z</time>
                <name>Trackpoint 4537</name>
            </trkpt>
            <trkpt lat="49.8027968" lon="10.1849632">
                <ele>189.0</ele>
                <time>2020-08-23T10:33:26.000Z</time>
                <name>Trackpoint 4538</name>
            </trkpt>
            <trkpt lat="49.8027872" lon="10.1848224">
                <ele>189.0</ele>
                <time>2020-08-23T10:33:28.000Z</time>
                <name>Trackpoint 4539</name>
            </trkpt>
            <trkpt lat="49.8027776" lon="10.1846784">
                <ele>189.0</ele>
                <time>2020-08-23T10:33:30.000Z</time>
                <name>Trackpoint 4540</name>
            </trkpt>
            <trkpt lat="49.802768" lon="10.1845352">
                <ele>189.0</ele>
                <time>2020-08-23T10:33:32.000Z</time>
                <name>Trackpoint 4541</name>
            </trkpt>
            <trkpt lat="49.8027616" lon="10.1843952">
                <ele>189.0</ele>
                <time>2020-08-23T10:33:34.000Z</time>
                <name>Trackpoint 4542</name>
            </trkpt>
            <trkpt lat="49.802752" lon="10.1842568">
                <ele>190.0</ele>
                <time>2020-08-23T10:33:36.000Z</time>
                <name>Trackpoint 4543</name>
            </trkpt>
            <trkpt lat="49.8027488" lon="10.18412">
                <ele>190.0</ele>
                <time>2020-08-23T10:33:38.000Z</time>
                <name>Trackpoint 4544</name>
            </trkpt>
            <trkpt lat="49.8027424" lon="10.1839888">
                <ele>190.0</ele>
                <time>2020-08-23T10:33:40.000Z</time>
                <name>Trackpoint 4545</name>
            </trkpt>
            <trkpt lat="49.8027392" lon="10.1838576">
                <ele>191.0</ele>
                <time>2020-08-23T10:33:42.000Z</time>
                <name>Trackpoint 4546</name>
            </trkpt>
            <trkpt lat="49.8027296" lon="10.1837264">
                <ele>191.0</ele>
                <time>2020-08-23T10:33:44.000Z</time>
                <name>Trackpoint 4547</name>
            </trkpt>
            <trkpt lat="49.8027264" lon="10.1835936">
                <ele>191.0</ele>
                <time>2020-08-23T10:33:46.000Z</time>
                <name>Trackpoint 4548</name>
            </trkpt>
            <trkpt lat="49.80272" lon="10.18346">
                <ele>191.0</ele>
                <time>2020-08-23T10:33:48.000Z</time>
                <name>Trackpoint 4549</name>
            </trkpt>
            <trkpt lat="49.8027104" lon="10.1833288">
                <ele>191.0</ele>
                <time>2020-08-23T10:33:50.000Z</time>
                <name>Trackpoint 4550</name>
            </trkpt>
            <trkpt lat="49.802704" lon="10.1831912">
                <ele>191.0</ele>
                <time>2020-08-23T10:33:52.000Z</time>
                <name>Trackpoint 4551</name>
            </trkpt>
            <trkpt lat="49.8026976" lon="10.1830528">
                <ele>191.0</ele>
                <time>2020-08-23T10:33:54.000Z</time>
                <name>Trackpoint 4552</name>
            </trkpt>
            <trkpt lat="49.802688" lon="10.1829136">
                <ele>191.0</ele>
                <time>2020-08-23T10:33:56.000Z</time>
                <name>Trackpoint 4553</name>
            </trkpt>
            <trkpt lat="49.8026816" lon="10.1827696">
                <ele>191.0</ele>
                <time>2020-08-23T10:33:58.000Z</time>
                <name>Trackpoint 4554</name>
            </trkpt>
            <trkpt lat="49.802672" lon="10.1826248">
                <ele>191.0</ele>
                <time>2020-08-23T10:34:00.000Z</time>
                <name>Trackpoint 4555</name>
            </trkpt>
            <trkpt lat="49.8026656" lon="10.18248">
                <ele>191.0</ele>
                <time>2020-08-23T10:34:02.000Z</time>
                <name>Trackpoint 4556</name>
            </trkpt>
            <trkpt lat="49.8026592" lon="10.182332">
                <ele>191.0</ele>
                <time>2020-08-23T10:34:04.000Z</time>
                <name>Trackpoint 4557</name>
            </trkpt>
            <trkpt lat="49.8026464" lon="10.1821832">
                <ele>191.0</ele>
                <time>2020-08-23T10:34:06.000Z</time>
                <name>Trackpoint 4558</name>
            </trkpt>
            <trkpt lat="49.8026432" lon="10.182036">
                <ele>191.0</ele>
                <time>2020-08-23T10:34:08.000Z</time>
                <name>Trackpoint 4559</name>
            </trkpt>
            <trkpt lat="49.8026336" lon="10.1818864">
                <ele>191.0</ele>
                <time>2020-08-23T10:34:10.000Z</time>
                <name>Trackpoint 4560</name>
            </trkpt>
            <trkpt lat="49.802624" lon="10.1817312">
                <ele>191.0</ele>
                <time>2020-08-23T10:34:12.000Z</time>
                <name>Trackpoint 4561</name>
            </trkpt>
            <trkpt lat="49.8026176" lon="10.1815728">
                <ele>191.0</ele>
                <time>2020-08-23T10:34:14.000Z</time>
                <name>Trackpoint 4562</name>
            </trkpt>
            <trkpt lat="49.802608" lon="10.181412">
                <ele>191.0</ele>
                <time>2020-08-23T10:34:16.000Z</time>
                <name>Trackpoint 4563</name>
            </trkpt>
            <trkpt lat="49.802592" lon="10.1812512">
                <ele>191.0</ele>
                <time>2020-08-23T10:34:18.000Z</time>
                <name>Trackpoint 4564</name>
            </trkpt>
            <trkpt lat="49.8025856" lon="10.1810848">
                <ele>191.0</ele>
                <time>2020-08-23T10:34:20.000Z</time>
                <name>Trackpoint 4565</name>
            </trkpt>
            <trkpt lat="49.8025728" lon="10.1809128">
                <ele>191.0</ele>
                <time>2020-08-23T10:34:22.000Z</time>
                <name>Trackpoint 4566</name>
            </trkpt>
            <trkpt lat="49.8025632" lon="10.1807384">
                <ele>191.0</ele>
                <time>2020-08-23T10:34:24.000Z</time>
                <name>Trackpoint 4567</name>
            </trkpt>
            <trkpt lat="49.8025536" lon="10.1806488">
                <ele>191.0</ele>
                <time>2020-08-23T10:34:25.000Z</time>
                <name>Trackpoint 4568</name>
            </trkpt>
            <trkpt lat="49.8025472" lon="10.1804664">
                <ele>191.0</ele>
                <time>2020-08-23T10:34:27.000Z</time>
                <name>Trackpoint 4569</name>
            </trkpt>
            <trkpt lat="49.802544" lon="10.1803752">
                <ele>191.0</ele>
                <time>2020-08-23T10:34:28.000Z</time>
                <name>Trackpoint 4570</name>
            </trkpt>
            <trkpt lat="49.8025376" lon="10.180192">
                <ele>191.0</ele>
                <time>2020-08-23T10:34:30.000Z</time>
                <name>Trackpoint 4571</name>
            </trkpt>
            <trkpt lat="49.8025376" lon="10.1801008">
                <ele>191.0</ele>
                <time>2020-08-23T10:34:31.000Z</time>
                <name>Trackpoint 4572</name>
            </trkpt>
            <trkpt lat="49.802528" lon="10.1799224">
                <ele>191.0</ele>
                <time>2020-08-23T10:34:33.000Z</time>
                <name>Trackpoint 4573</name>
            </trkpt>
            <trkpt lat="49.802528" lon="10.1798312">
                <ele>191.0</ele>
                <time>2020-08-23T10:34:34.000Z</time>
                <name>Trackpoint 4574</name>
            </trkpt>
            <trkpt lat="49.8025184" lon="10.1796552">
                <ele>191.0</ele>
                <time>2020-08-23T10:34:36.000Z</time>
                <name>Trackpoint 4575</name>
            </trkpt>
            <trkpt lat="49.8025024" lon="10.1794792">
                <ele>190.0</ele>
                <time>2020-08-23T10:34:38.000Z</time>
                <name>Trackpoint 4576</name>
            </trkpt>
            <trkpt lat="49.8024896" lon="10.1793032">
                <ele>190.0</ele>
                <time>2020-08-23T10:34:40.000Z</time>
                <name>Trackpoint 4577</name>
            </trkpt>
            <trkpt lat="49.80248" lon="10.1791312">
                <ele>190.0</ele>
                <time>2020-08-23T10:34:42.000Z</time>
                <name>Trackpoint 4578</name>
            </trkpt>
            <trkpt lat="49.8024672" lon="10.1789688">
                <ele>190.0</ele>
                <time>2020-08-23T10:34:44.000Z</time>
                <name>Trackpoint 4579</name>
            </trkpt>
            <trkpt lat="49.802464" lon="10.1788">
                <ele>190.0</ele>
                <time>2020-08-23T10:34:46.000Z</time>
                <name>Trackpoint 4580</name>
            </trkpt>
            <trkpt lat="49.8024704" lon="10.1786384">
                <ele>190.0</ele>
                <time>2020-08-23T10:34:48.000Z</time>
                <name>Trackpoint 4581</name>
            </trkpt>
            <trkpt lat="49.8024864" lon="10.17848">
                <ele>190.0</ele>
                <time>2020-08-23T10:34:50.000Z</time>
                <name>Trackpoint 4582</name>
            </trkpt>
            <trkpt lat="49.802512" lon="10.1783384">
                <ele>190.0</ele>
                <time>2020-08-23T10:34:52.000Z</time>
                <name>Trackpoint 4583</name>
            </trkpt>
            <trkpt lat="49.8025376" lon="10.178208">
                <ele>189.0</ele>
                <time>2020-08-23T10:34:54.000Z</time>
                <name>Trackpoint 4584</name>
            </trkpt>
            <trkpt lat="49.8025408" lon="10.1780752">
                <ele>190.0</ele>
                <time>2020-08-23T10:34:56.000Z</time>
                <name>Trackpoint 4585</name>
            </trkpt>
            <trkpt lat="49.8025312" lon="10.1779672">
                <ele>190.0</ele>
                <time>2020-08-23T10:34:58.000Z</time>
                <name>Trackpoint 4586</name>
            </trkpt>
            <trkpt lat="49.8025216" lon="10.1778696">
                <ele>190.0</ele>
                <time>2020-08-23T10:35:00.000Z</time>
                <name>Trackpoint 4587</name>
            </trkpt>
            <trkpt lat="49.8024448" lon="10.1777688">
                <ele>190.0</ele>
                <time>2020-08-23T10:35:03.000Z</time>
                <name>Trackpoint 4588</name>
            </trkpt>
            <trkpt lat="49.8024064" lon="10.1776464">
                <ele>190.0</ele>
                <time>2020-08-23T10:35:05.000Z</time>
                <name>Trackpoint 4589</name>
            </trkpt>
            <trkpt lat="49.8023936" lon="10.1775016">
                <ele>189.0</ele>
                <time>2020-08-23T10:35:07.000Z</time>
                <name>Trackpoint 4590</name>
            </trkpt>
            <trkpt lat="49.8023872" lon="10.177332">
                <ele>189.0</ele>
                <time>2020-08-23T10:35:09.000Z</time>
                <name>Trackpoint 4591</name>
            </trkpt>
            <trkpt lat="49.8023712" lon="10.1771544">
                <ele>188.0</ele>
                <time>2020-08-23T10:35:11.000Z</time>
                <name>Trackpoint 4592</name>
            </trkpt>
            <trkpt lat="49.8023552" lon="10.17698">
                <ele>188.0</ele>
                <time>2020-08-23T10:35:13.000Z</time>
                <name>Trackpoint 4593</name>
            </trkpt>
            <trkpt lat="49.802352" lon="10.176808">
                <ele>188.0</ele>
                <time>2020-08-23T10:35:15.000Z</time>
                <name>Trackpoint 4594</name>
            </trkpt>
            <trkpt lat="49.8023424" lon="10.1766432">
                <ele>189.0</ele>
                <time>2020-08-23T10:35:17.000Z</time>
                <name>Trackpoint 4595</name>
            </trkpt>
            <trkpt lat="49.8023328" lon="10.1764648">
                <ele>188.0</ele>
                <time>2020-08-23T10:35:19.000Z</time>
                <name>Trackpoint 4596</name>
            </trkpt>
            <trkpt lat="49.8023296" lon="10.1763712">
                <ele>188.0</ele>
                <time>2020-08-23T10:35:20.000Z</time>
                <name>Trackpoint 4597</name>
            </trkpt>
            <trkpt lat="49.8023264" lon="10.1761952">
                <ele>187.0</ele>
                <time>2020-08-23T10:35:22.000Z</time>
                <name>Trackpoint 4598</name>
            </trkpt>
            <trkpt lat="49.80232" lon="10.1760256">
                <ele>187.0</ele>
                <time>2020-08-23T10:35:24.000Z</time>
                <name>Trackpoint 4599</name>
            </trkpt>
            <trkpt lat="49.8023072" lon="10.175848">
                <ele>187.0</ele>
                <time>2020-08-23T10:35:26.000Z</time>
                <name>Trackpoint 4600</name>
            </trkpt>
            <trkpt lat="49.8022944" lon="10.1756848">
                <ele>187.0</ele>
                <time>2020-08-23T10:35:28.000Z</time>
                <name>Trackpoint 4601</name>
            </trkpt>
            <trkpt lat="49.802288" lon="10.1755216">
                <ele>187.0</ele>
                <time>2020-08-23T10:35:30.000Z</time>
                <name>Trackpoint 4602</name>
            </trkpt>
            <trkpt lat="49.8022816" lon="10.1753568">
                <ele>187.0</ele>
                <time>2020-08-23T10:35:32.000Z</time>
                <name>Trackpoint 4603</name>
            </trkpt>
            <trkpt lat="49.8022688" lon="10.1751936">
                <ele>188.0</ele>
                <time>2020-08-23T10:35:34.000Z</time>
                <name>Trackpoint 4604</name>
            </trkpt>
            <trkpt lat="49.8022656" lon="10.1750296">
                <ele>187.0</ele>
                <time>2020-08-23T10:35:36.000Z</time>
                <name>Trackpoint 4605</name>
            </trkpt>
            <trkpt lat="49.802256" lon="10.1748584">
                <ele>187.0</ele>
                <time>2020-08-23T10:35:38.000Z</time>
                <name>Trackpoint 4606</name>
            </trkpt>
            <trkpt lat="49.8022496" lon="10.1746904">
                <ele>187.0</ele>
                <time>2020-08-23T10:35:40.000Z</time>
                <name>Trackpoint 4607</name>
            </trkpt>
            <trkpt lat="49.8022336" lon="10.1745192">
                <ele>188.0</ele>
                <time>2020-08-23T10:35:42.000Z</time>
                <name>Trackpoint 4608</name>
            </trkpt>
            <trkpt lat="49.802224" lon="10.1743448">
                <ele>188.0</ele>
                <time>2020-08-23T10:35:44.000Z</time>
                <name>Trackpoint 4609</name>
            </trkpt>
            <trkpt lat="49.8022112" lon="10.1741688">
                <ele>188.0</ele>
                <time>2020-08-23T10:35:46.000Z</time>
                <name>Trackpoint 4610</name>
            </trkpt>
            <trkpt lat="49.8022048" lon="10.173988">
                <ele>187.0</ele>
                <time>2020-08-23T10:35:48.000Z</time>
                <name>Trackpoint 4611</name>
            </trkpt>
            <trkpt lat="49.8022016" lon="10.1738056">
                <ele>187.0</ele>
                <time>2020-08-23T10:35:50.000Z</time>
                <name>Trackpoint 4612</name>
            </trkpt>
            <trkpt lat="49.8021952" lon="10.1737144">
                <ele>187.0</ele>
                <time>2020-08-23T10:35:51.000Z</time>
                <name>Trackpoint 4613</name>
            </trkpt>
            <trkpt lat="49.8021856" lon="10.1736184">
                <ele>187.0</ele>
                <time>2020-08-23T10:35:52.000Z</time>
                <name>Trackpoint 4614</name>
            </trkpt>
            <trkpt lat="49.8021824" lon="10.1735232">
                <ele>187.0</ele>
                <time>2020-08-23T10:35:53.000Z</time>
                <name>Trackpoint 4615</name>
            </trkpt>
            <trkpt lat="49.802176" lon="10.1734304">
                <ele>186.0</ele>
                <time>2020-08-23T10:35:54.000Z</time>
                <name>Trackpoint 4616</name>
            </trkpt>
            <trkpt lat="49.8021728" lon="10.1733368">
                <ele>186.0</ele>
                <time>2020-08-23T10:35:55.000Z</time>
                <name>Trackpoint 4617</name>
            </trkpt>
            <trkpt lat="49.8021696" lon="10.1732416">
                <ele>186.0</ele>
                <time>2020-08-23T10:35:56.000Z</time>
                <name>Trackpoint 4618</name>
            </trkpt>
            <trkpt lat="49.8021568" lon="10.1730608">
                <ele>186.0</ele>
                <time>2020-08-23T10:35:58.000Z</time>
                <name>Trackpoint 4619</name>
            </trkpt>
            <trkpt lat="49.8021536" lon="10.1729696">
                <ele>186.0</ele>
                <time>2020-08-23T10:35:59.000Z</time>
                <name>Trackpoint 4620</name>
            </trkpt>
            <trkpt lat="49.802144" lon="10.1727952">
                <ele>186.0</ele>
                <time>2020-08-23T10:36:01.000Z</time>
                <name>Trackpoint 4621</name>
            </trkpt>
            <trkpt lat="49.8021408" lon="10.172624">
                <ele>186.0</ele>
                <time>2020-08-23T10:36:03.000Z</time>
                <name>Trackpoint 4622</name>
            </trkpt>
            <trkpt lat="49.802128" lon="10.1724528">
                <ele>186.0</ele>
                <time>2020-08-23T10:36:05.000Z</time>
                <name>Trackpoint 4623</name>
            </trkpt>
            <trkpt lat="49.8021216" lon="10.1722848">
                <ele>186.0</ele>
                <time>2020-08-23T10:36:07.000Z</time>
                <name>Trackpoint 4624</name>
            </trkpt>
            <trkpt lat="49.8021152" lon="10.1721184">
                <ele>186.0</ele>
                <time>2020-08-23T10:36:09.000Z</time>
                <name>Trackpoint 4625</name>
            </trkpt>
            <trkpt lat="49.8021056" lon="10.1719536">
                <ele>186.0</ele>
                <time>2020-08-23T10:36:11.000Z</time>
                <name>Trackpoint 4626</name>
            </trkpt>
            <trkpt lat="49.802096" lon="10.1717928">
                <ele>186.0</ele>
                <time>2020-08-23T10:36:13.000Z</time>
                <name>Trackpoint 4627</name>
            </trkpt>
            <trkpt lat="49.8020928" lon="10.1716368">
                <ele>186.0</ele>
                <time>2020-08-23T10:36:15.000Z</time>
                <name>Trackpoint 4628</name>
            </trkpt>
            <trkpt lat="49.8020864" lon="10.1714784">
                <ele>186.0</ele>
                <time>2020-08-23T10:36:17.000Z</time>
                <name>Trackpoint 4629</name>
            </trkpt>
            <trkpt lat="49.8020768" lon="10.1713216">
                <ele>186.0</ele>
                <time>2020-08-23T10:36:19.000Z</time>
                <name>Trackpoint 4630</name>
            </trkpt>
            <trkpt lat="49.8020672" lon="10.1711656">
                <ele>186.0</ele>
                <time>2020-08-23T10:36:21.000Z</time>
                <name>Trackpoint 4631</name>
            </trkpt>
            <trkpt lat="49.8020576" lon="10.1710032">
                <ele>186.0</ele>
                <time>2020-08-23T10:36:23.000Z</time>
                <name>Trackpoint 4632</name>
            </trkpt>
            <trkpt lat="49.8020512" lon="10.17084">
                <ele>186.0</ele>
                <time>2020-08-23T10:36:25.000Z</time>
                <name>Trackpoint 4633</name>
            </trkpt>
            <trkpt lat="49.8020416" lon="10.1706752">
                <ele>186.0</ele>
                <time>2020-08-23T10:36:27.000Z</time>
                <name>Trackpoint 4634</name>
            </trkpt>
            <trkpt lat="49.802032" lon="10.1705064">
                <ele>186.0</ele>
                <time>2020-08-23T10:36:29.000Z</time>
                <name>Trackpoint 4635</name>
            </trkpt>
            <trkpt lat="49.8020256" lon="10.1703384">
                <ele>186.0</ele>
                <time>2020-08-23T10:36:31.000Z</time>
                <name>Trackpoint 4636</name>
            </trkpt>
            <trkpt lat="49.8020128" lon="10.1701632">
                <ele>185.0</ele>
                <time>2020-08-23T10:36:33.000Z</time>
                <name>Trackpoint 4637</name>
            </trkpt>
            <trkpt lat="49.8020064" lon="10.1699888">
                <ele>185.0</ele>
                <time>2020-08-23T10:36:35.000Z</time>
                <name>Trackpoint 4638</name>
            </trkpt>
            <trkpt lat="49.8019968" lon="10.1698176">
                <ele>185.0</ele>
                <time>2020-08-23T10:36:37.000Z</time>
                <name>Trackpoint 4639</name>
            </trkpt>
            <trkpt lat="49.8019872" lon="10.1696456">
                <ele>185.0</ele>
                <time>2020-08-23T10:36:39.000Z</time>
                <name>Trackpoint 4640</name>
            </trkpt>
            <trkpt lat="49.8019776" lon="10.1694736">
                <ele>185.0</ele>
                <time>2020-08-23T10:36:41.000Z</time>
                <name>Trackpoint 4641</name>
            </trkpt>
            <trkpt lat="49.8019712" lon="10.1693032">
                <ele>184.0</ele>
                <time>2020-08-23T10:36:43.000Z</time>
                <name>Trackpoint 4642</name>
            </trkpt>
            <trkpt lat="49.8019584" lon="10.1691352">
                <ele>184.0</ele>
                <time>2020-08-23T10:36:45.000Z</time>
                <name>Trackpoint 4643</name>
            </trkpt>
            <trkpt lat="49.8019488" lon="10.1689664">
                <ele>184.0</ele>
                <time>2020-08-23T10:36:47.000Z</time>
                <name>Trackpoint 4644</name>
            </trkpt>
            <trkpt lat="49.8019424" lon="10.1687984">
                <ele>184.0</ele>
                <time>2020-08-23T10:36:49.000Z</time>
                <name>Trackpoint 4645</name>
            </trkpt>
            <trkpt lat="49.8019296" lon="10.1686296">
                <ele>184.0</ele>
                <time>2020-08-23T10:36:51.000Z</time>
                <name>Trackpoint 4646</name>
            </trkpt>
            <trkpt lat="49.8019232" lon="10.1684616">
                <ele>184.0</ele>
                <time>2020-08-23T10:36:53.000Z</time>
                <name>Trackpoint 4647</name>
            </trkpt>
            <trkpt lat="49.8019168" lon="10.168292">
                <ele>184.0</ele>
                <time>2020-08-23T10:36:55.000Z</time>
                <name>Trackpoint 4648</name>
            </trkpt>
            <trkpt lat="49.8019264" lon="10.1681232">
                <ele>184.0</ele>
                <time>2020-08-23T10:36:57.000Z</time>
                <name>Trackpoint 4649</name>
            </trkpt>
            <trkpt lat="49.8019232" lon="10.1679552">
                <ele>184.0</ele>
                <time>2020-08-23T10:36:59.000Z</time>
                <name>Trackpoint 4650</name>
            </trkpt>
            <trkpt lat="49.8019136" lon="10.1677816">
                <ele>184.0</ele>
                <time>2020-08-23T10:37:01.000Z</time>
                <name>Trackpoint 4651</name>
            </trkpt>
            <trkpt lat="49.801904" lon="10.167612">
                <ele>184.0</ele>
                <time>2020-08-23T10:37:03.000Z</time>
                <name>Trackpoint 4652</name>
            </trkpt>
            <trkpt lat="49.8018848" lon="10.1674448">
                <ele>185.0</ele>
                <time>2020-08-23T10:37:05.000Z</time>
                <name>Trackpoint 4653</name>
            </trkpt>
            <trkpt lat="49.8018752" lon="10.16728">
                <ele>185.0</ele>
                <time>2020-08-23T10:37:07.000Z</time>
                <name>Trackpoint 4654</name>
            </trkpt>
            <trkpt lat="49.8018688" lon="10.1671184">
                <ele>185.0</ele>
                <time>2020-08-23T10:37:09.000Z</time>
                <name>Trackpoint 4655</name>
            </trkpt>
            <trkpt lat="49.8018656" lon="10.1669568">
                <ele>185.0</ele>
                <time>2020-08-23T10:37:11.000Z</time>
                <name>Trackpoint 4656</name>
            </trkpt>
            <trkpt lat="49.8018656" lon="10.1667984">
                <ele>185.0</ele>
                <time>2020-08-23T10:37:13.000Z</time>
                <name>Trackpoint 4657</name>
            </trkpt>
            <trkpt lat="49.8018528" lon="10.1666536">
                <ele>185.0</ele>
                <time>2020-08-23T10:37:15.000Z</time>
                <name>Trackpoint 4658</name>
            </trkpt>
            <trkpt lat="49.8018464" lon="10.166516">
                <ele>185.0</ele>
                <time>2020-08-23T10:37:17.000Z</time>
                <name>Trackpoint 4659</name>
            </trkpt>
            <trkpt lat="49.8018432" lon="10.1663968">
                <ele>185.0</ele>
                <time>2020-08-23T10:37:19.000Z</time>
                <name>Trackpoint 4660</name>
            </trkpt>
            <trkpt lat="49.8018304" lon="10.1662816">
                <ele>185.0</ele>
                <time>2020-08-23T10:37:21.000Z</time>
                <name>Trackpoint 4661</name>
            </trkpt>
            <trkpt lat="49.8017952" lon="10.166168">
                <ele>185.0</ele>
                <time>2020-08-23T10:37:24.000Z</time>
                <name>Trackpoint 4662</name>
            </trkpt>
            <trkpt lat="49.8017504" lon="10.1662712">
                <ele>185.0</ele>
                <time>2020-08-23T10:38:36.000Z</time>
                <name>Trackpoint 4663</name>
            </trkpt>
            <trkpt lat="49.8017504" lon="10.1663888">
                <ele>186.0</ele>
                <time>2020-08-23T10:38:39.000Z</time>
                <name>Trackpoint 4664</name>
            </trkpt>
            <trkpt lat="49.8017536" lon="10.1664952">
                <ele>187.0</ele>
                <time>2020-08-23T10:38:42.000Z</time>
                <name>Trackpoint 4665</name>
            </trkpt>
            <trkpt lat="49.8017056" lon="10.1664112">
                <ele>187.0</ele>
                <time>2020-08-23T10:38:57.000Z</time>
                <name>Trackpoint 4666</name>
            </trkpt>
            <trkpt lat="49.8016896" lon="10.1663112">
                <ele>187.0</ele>
                <time>2020-08-23T10:39:01.000Z</time>
                <name>Trackpoint 4667</name>
            </trkpt>
            <trkpt lat="49.8016448" lon="10.1662256">
                <ele>187.0</ele>
                <time>2020-08-23T10:39:04.000Z</time>
                <name>Trackpoint 4668</name>
            </trkpt>
            <trkpt lat="49.8015808" lon="10.1661568">
                <ele>187.0</ele>
                <time>2020-08-23T10:39:07.000Z</time>
                <name>Trackpoint 4669</name>
            </trkpt>
            <trkpt lat="49.8014592" lon="10.1662256">
                <ele>186.0</ele>
                <time>2020-08-23T10:39:11.000Z</time>
                <name>Trackpoint 4670</name>
            </trkpt>
            <trkpt lat="49.8014112" lon="10.1663304">
                <ele>186.0</ele>
                <time>2020-08-23T10:39:13.000Z</time>
                <name>Trackpoint 4671</name>
            </trkpt>
            <trkpt lat="49.8013696" lon="10.1664264">
                <ele>186.0</ele>
                <time>2020-08-23T10:39:15.000Z</time>
                <name>Trackpoint 4672</name>
            </trkpt>
            <trkpt lat="49.801328" lon="10.1665136">
                <ele>186.0</ele>
                <time>2020-08-23T10:39:17.000Z</time>
                <name>Trackpoint 4673</name>
            </trkpt>
            <trkpt lat="49.8012384" lon="10.1665784">
                <ele>185.0</ele>
                <time>2020-08-23T10:39:20.000Z</time>
                <name>Trackpoint 4674</name>
            </trkpt>
            <trkpt lat="49.8011168" lon="10.1665624">
                <ele>185.0</ele>
                <time>2020-08-23T10:39:24.000Z</time>
                <name>Trackpoint 4675</name>
            </trkpt>
            <trkpt lat="49.8010112" lon="10.1665">
                <ele>184.0</ele>
                <time>2020-08-23T10:39:27.000Z</time>
                <name>Trackpoint 4676</name>
            </trkpt>
            <trkpt lat="49.8009504" lon="10.1664064">
                <ele>183.0</ele>
                <time>2020-08-23T10:39:29.000Z</time>
                <name>Trackpoint 4677</name>
            </trkpt>
            <trkpt lat="49.8009056" lon="10.16628">
                <ele>182.0</ele>
                <time>2020-08-23T10:39:31.000Z</time>
                <name>Trackpoint 4678</name>
            </trkpt>
            <trkpt lat="49.8008896" lon="10.166132">
                <ele>181.0</ele>
                <time>2020-08-23T10:39:33.000Z</time>
                <name>Trackpoint 4679</name>
            </trkpt>
            <trkpt lat="49.8008736" lon="10.1659744">
                <ele>182.0</ele>
                <time>2020-08-23T10:39:35.000Z</time>
                <name>Trackpoint 4680</name>
            </trkpt>
            <trkpt lat="49.8008608" lon="10.165816">
                <ele>182.0</ele>
                <time>2020-08-23T10:39:37.000Z</time>
                <name>Trackpoint 4681</name>
            </trkpt>
            <trkpt lat="49.8008448" lon="10.1656504">
                <ele>182.0</ele>
                <time>2020-08-23T10:39:39.000Z</time>
                <name>Trackpoint 4682</name>
            </trkpt>
            <trkpt lat="49.8008224" lon="10.165492">
                <ele>183.0</ele>
                <time>2020-08-23T10:39:41.000Z</time>
                <name>Trackpoint 4683</name>
            </trkpt>
            <trkpt lat="49.8007968" lon="10.1653632">
                <ele>182.0</ele>
                <time>2020-08-23T10:39:43.000Z</time>
                <name>Trackpoint 4684</name>
            </trkpt>
            <trkpt lat="49.8007776" lon="10.1652744">
                <ele>182.0</ele>
                <time>2020-08-23T10:39:44.000Z</time>
                <name>Trackpoint 4685</name>
            </trkpt>
            <trkpt lat="49.800736" lon="10.1651312">
                <ele>182.0</ele>
                <time>2020-08-23T10:39:46.000Z</time>
                <name>Trackpoint 4686</name>
            </trkpt>
            <trkpt lat="49.8006784" lon="10.1649912">
                <ele>182.0</ele>
                <time>2020-08-23T10:39:48.000Z</time>
                <name>Trackpoint 4687</name>
            </trkpt>
            <trkpt lat="49.8006144" lon="10.1648368">
                <ele>182.0</ele>
                <time>2020-08-23T10:39:50.000Z</time>
                <name>Trackpoint 4688</name>
            </trkpt>
            <trkpt lat="49.80056" lon="10.1646984">
                <ele>182.0</ele>
                <time>2020-08-23T10:39:52.000Z</time>
                <name>Trackpoint 4689</name>
            </trkpt>
            <trkpt lat="49.800512" lon="10.164548">
                <ele>182.0</ele>
                <time>2020-08-23T10:39:54.000Z</time>
                <name>Trackpoint 4690</name>
            </trkpt>
            <trkpt lat="49.8004544" lon="10.1644064">
                <ele>182.0</ele>
                <time>2020-08-23T10:39:56.000Z</time>
                <name>Trackpoint 4691</name>
            </trkpt>
            <trkpt lat="49.8003968" lon="10.1642704">
                <ele>182.0</ele>
                <time>2020-08-23T10:39:58.000Z</time>
                <name>Trackpoint 4692</name>
            </trkpt>
            <trkpt lat="49.8003424" lon="10.164132">
                <ele>183.0</ele>
                <time>2020-08-23T10:40:00.000Z</time>
                <name>Trackpoint 4693</name>
            </trkpt>
            <trkpt lat="49.8003008" lon="10.163992">
                <ele>183.0</ele>
                <time>2020-08-23T10:40:02.000Z</time>
                <name>Trackpoint 4694</name>
            </trkpt>
            <trkpt lat="49.8002656" lon="10.1638496">
                <ele>183.0</ele>
                <time>2020-08-23T10:40:04.000Z</time>
                <name>Trackpoint 4695</name>
            </trkpt>
            <trkpt lat="49.8002304" lon="10.1637088">
                <ele>182.0</ele>
                <time>2020-08-23T10:40:06.000Z</time>
                <name>Trackpoint 4696</name>
            </trkpt>
            <trkpt lat="49.8001888" lon="10.1635616">
                <ele>183.0</ele>
                <time>2020-08-23T10:40:08.000Z</time>
                <name>Trackpoint 4697</name>
            </trkpt>
            <trkpt lat="49.80016" lon="10.1634256">
                <ele>184.0</ele>
                <time>2020-08-23T10:40:10.000Z</time>
                <name>Trackpoint 4698</name>
            </trkpt>
            <trkpt lat="49.8001312" lon="10.163288">
                <ele>184.0</ele>
                <time>2020-08-23T10:40:12.000Z</time>
                <name>Trackpoint 4699</name>
            </trkpt>
            <trkpt lat="49.8001152" lon="10.1631544">
                <ele>184.0</ele>
                <time>2020-08-23T10:40:14.000Z</time>
                <name>Trackpoint 4700</name>
            </trkpt>
            <trkpt lat="49.800064" lon="10.1630088">
                <ele>183.0</ele>
                <time>2020-08-23T10:40:16.000Z</time>
                <name>Trackpoint 4701</name>
            </trkpt>
            <trkpt lat="49.8000192" lon="10.1628712">
                <ele>183.0</ele>
                <time>2020-08-23T10:40:18.000Z</time>
                <name>Trackpoint 4702</name>
            </trkpt>
            <trkpt lat="49.799984" lon="10.1627392">
                <ele>182.0</ele>
                <time>2020-08-23T10:40:20.000Z</time>
                <name>Trackpoint 4703</name>
            </trkpt>
            <trkpt lat="49.7999488" lon="10.1626032">
                <ele>182.0</ele>
                <time>2020-08-23T10:40:22.000Z</time>
                <name>Trackpoint 4704</name>
            </trkpt>
            <trkpt lat="49.7999072" lon="10.1624568">
                <ele>182.0</ele>
                <time>2020-08-23T10:40:24.000Z</time>
                <name>Trackpoint 4705</name>
            </trkpt>
            <trkpt lat="49.7998688" lon="10.1623312">
                <ele>182.0</ele>
                <time>2020-08-23T10:40:26.000Z</time>
                <name>Trackpoint 4706</name>
            </trkpt>
            <trkpt lat="49.7998432" lon="10.1622168">
                <ele>182.0</ele>
                <time>2020-08-23T10:40:28.000Z</time>
                <name>Trackpoint 4707</name>
            </trkpt>
            <trkpt lat="49.7998176" lon="10.1621064">
                <ele>182.0</ele>
                <time>2020-08-23T10:40:30.000Z</time>
                <name>Trackpoint 4708</name>
            </trkpt>
            <trkpt lat="49.7997728" lon="10.16198">
                <ele>183.0</ele>
                <time>2020-08-23T10:40:32.000Z</time>
                <name>Trackpoint 4709</name>
            </trkpt>
            <trkpt lat="49.7997408" lon="10.1618408">
                <ele>183.0</ele>
                <time>2020-08-23T10:40:34.000Z</time>
                <name>Trackpoint 4710</name>
            </trkpt>
            <trkpt lat="49.7997184" lon="10.1617136">
                <ele>183.0</ele>
                <time>2020-08-23T10:40:36.000Z</time>
                <name>Trackpoint 4711</name>
            </trkpt>
            <trkpt lat="49.79968" lon="10.1615848">
                <ele>181.0</ele>
                <time>2020-08-23T10:40:38.000Z</time>
                <name>Trackpoint 4712</name>
            </trkpt>
            <trkpt lat="49.7996384" lon="10.161444">
                <ele>182.0</ele>
                <time>2020-08-23T10:40:40.000Z</time>
                <name>Trackpoint 4713</name>
            </trkpt>
            <trkpt lat="49.7996" lon="10.1613152">
                <ele>183.0</ele>
                <time>2020-08-23T10:40:42.000Z</time>
                <name>Trackpoint 4714</name>
            </trkpt>
            <trkpt lat="49.7995456" lon="10.161188">
                <ele>184.0</ele>
                <time>2020-08-23T10:40:44.000Z</time>
                <name>Trackpoint 4715</name>
            </trkpt>
            <trkpt lat="49.7994944" lon="10.1610648">
                <ele>184.0</ele>
                <time>2020-08-23T10:40:46.000Z</time>
                <name>Trackpoint 4716</name>
            </trkpt>
            <trkpt lat="49.7994496" lon="10.1609248">
                <ele>184.0</ele>
                <time>2020-08-23T10:40:48.000Z</time>
                <name>Trackpoint 4717</name>
            </trkpt>
            <trkpt lat="49.7993952" lon="10.1608">
                <ele>185.0</ele>
                <time>2020-08-23T10:40:50.000Z</time>
                <name>Trackpoint 4718</name>
            </trkpt>
            <trkpt lat="49.7993568" lon="10.1606768">
                <ele>185.0</ele>
                <time>2020-08-23T10:40:52.000Z</time>
                <name>Trackpoint 4719</name>
            </trkpt>
            <trkpt lat="49.799296" lon="10.1605416">
                <ele>184.0</ele>
                <time>2020-08-23T10:40:54.000Z</time>
                <name>Trackpoint 4720</name>
            </trkpt>
            <trkpt lat="49.799232" lon="10.1603936">
                <ele>183.0</ele>
                <time>2020-08-23T10:40:56.000Z</time>
                <name>Trackpoint 4721</name>
            </trkpt>
            <trkpt lat="49.7991744" lon="10.1602432">
                <ele>183.0</ele>
                <time>2020-08-23T10:40:58.000Z</time>
                <name>Trackpoint 4722</name>
            </trkpt>
            <trkpt lat="49.7991232" lon="10.1601264">
                <ele>184.0</ele>
                <time>2020-08-23T10:41:00.000Z</time>
                <name>Trackpoint 4723</name>
            </trkpt>
            <trkpt lat="49.799072" lon="10.1600152">
                <ele>183.0</ele>
                <time>2020-08-23T10:41:02.000Z</time>
                <name>Trackpoint 4724</name>
            </trkpt>
            <trkpt lat="49.7990176" lon="10.1598984">
                <ele>183.0</ele>
                <time>2020-08-23T10:41:04.000Z</time>
                <name>Trackpoint 4725</name>
            </trkpt>
            <trkpt lat="49.7989632" lon="10.159768">
                <ele>184.0</ele>
                <time>2020-08-23T10:41:06.000Z</time>
                <name>Trackpoint 4726</name>
            </trkpt>
            <trkpt lat="49.798912" lon="10.1596472">
                <ele>184.0</ele>
                <time>2020-08-23T10:41:08.000Z</time>
                <name>Trackpoint 4727</name>
            </trkpt>
            <trkpt lat="49.7988544" lon="10.1595288">
                <ele>185.0</ele>
                <time>2020-08-23T10:41:10.000Z</time>
                <name>Trackpoint 4728</name>
            </trkpt>
            <trkpt lat="49.7987936" lon="10.1594104">
                <ele>185.0</ele>
                <time>2020-08-23T10:41:12.000Z</time>
                <name>Trackpoint 4729</name>
            </trkpt>
            <trkpt lat="49.798736" lon="10.1592904">
                <ele>185.0</ele>
                <time>2020-08-23T10:41:14.000Z</time>
                <name>Trackpoint 4730</name>
            </trkpt>
            <trkpt lat="49.7986752" lon="10.1591768">
                <ele>186.0</ele>
                <time>2020-08-23T10:41:16.000Z</time>
                <name>Trackpoint 4731</name>
            </trkpt>
            <trkpt lat="49.7986144" lon="10.1590656">
                <ele>185.0</ele>
                <time>2020-08-23T10:41:18.000Z</time>
                <name>Trackpoint 4732</name>
            </trkpt>
            <trkpt lat="49.79856" lon="10.1589448">
                <ele>185.0</ele>
                <time>2020-08-23T10:41:20.000Z</time>
                <name>Trackpoint 4733</name>
            </trkpt>
            <trkpt lat="49.798512" lon="10.1588448">
                <ele>185.0</ele>
                <time>2020-08-23T10:41:22.000Z</time>
                <name>Trackpoint 4734</name>
            </trkpt>
            <trkpt lat="49.7984672" lon="10.15876">
                <ele>185.0</ele>
                <time>2020-08-23T10:41:41.000Z</time>
                <name>Trackpoint 4735</name>
            </trkpt>
            <trkpt lat="49.7984192" lon="10.1586736">
                <ele>185.0</ele>
                <time>2020-08-23T10:41:44.000Z</time>
                <name>Trackpoint 4736</name>
            </trkpt>
            <trkpt lat="49.798368" lon="10.1585776">
                <ele>184.0</ele>
                <time>2020-08-23T10:41:47.000Z</time>
                <name>Trackpoint 4737</name>
            </trkpt>
            <trkpt lat="49.7983136" lon="10.1584856">
                <ele>185.0</ele>
                <time>2020-08-23T10:41:50.000Z</time>
                <name>Trackpoint 4738</name>
            </trkpt>
            <trkpt lat="49.798256" lon="10.1583792">
                <ele>184.0</ele>
                <time>2020-08-23T10:41:53.000Z</time>
                <name>Trackpoint 4739</name>
            </trkpt>
            <trkpt lat="49.7982048" lon="10.1583048">
                <ele>184.0</ele>
                <time>2020-08-23T10:41:55.000Z</time>
                <name>Trackpoint 4740</name>
            </trkpt>
            <trkpt lat="49.7981568" lon="10.1582184">
                <ele>184.0</ele>
                <time>2020-08-23T10:41:57.000Z</time>
                <name>Trackpoint 4741</name>
            </trkpt>
            <trkpt lat="49.7981024" lon="10.1581232">
                <ele>184.0</ele>
                <time>2020-08-23T10:41:59.000Z</time>
                <name>Trackpoint 4742</name>
            </trkpt>
            <trkpt lat="49.7980416" lon="10.1580288">
                <ele>184.0</ele>
                <time>2020-08-23T10:42:01.000Z</time>
                <name>Trackpoint 4743</name>
            </trkpt>
            <trkpt lat="49.7979808" lon="10.1579312">
                <ele>184.0</ele>
                <time>2020-08-23T10:42:03.000Z</time>
                <name>Trackpoint 4744</name>
            </trkpt>
            <trkpt lat="49.79792" lon="10.1578352">
                <ele>184.0</ele>
                <time>2020-08-23T10:42:05.000Z</time>
                <name>Trackpoint 4745</name>
            </trkpt>
            <trkpt lat="49.7978592" lon="10.15774">
                <ele>184.0</ele>
                <time>2020-08-23T10:42:07.000Z</time>
                <name>Trackpoint 4746</name>
            </trkpt>
            <trkpt lat="49.7977984" lon="10.1576416">
                <ele>184.0</ele>
                <time>2020-08-23T10:42:09.000Z</time>
                <name>Trackpoint 4747</name>
            </trkpt>
            <trkpt lat="49.7977376" lon="10.157548">
                <ele>184.0</ele>
                <time>2020-08-23T10:42:11.000Z</time>
                <name>Trackpoint 4748</name>
            </trkpt>
            <trkpt lat="49.7976672" lon="10.1574552">
                <ele>184.0</ele>
                <time>2020-08-23T10:42:13.000Z</time>
                <name>Trackpoint 4749</name>
            </trkpt>
            <trkpt lat="49.7976032" lon="10.1573616">
                <ele>184.0</ele>
                <time>2020-08-23T10:42:15.000Z</time>
                <name>Trackpoint 4750</name>
            </trkpt>
            <trkpt lat="49.7975424" lon="10.1572688">
                <ele>184.0</ele>
                <time>2020-08-23T10:42:17.000Z</time>
                <name>Trackpoint 4751</name>
            </trkpt>
            <trkpt lat="49.7974752" lon="10.1571816">
                <ele>184.0</ele>
                <time>2020-08-23T10:42:19.000Z</time>
                <name>Trackpoint 4752</name>
            </trkpt>
            <trkpt lat="49.7974144" lon="10.1570864">
                <ele>184.0</ele>
                <time>2020-08-23T10:42:21.000Z</time>
                <name>Trackpoint 4753</name>
            </trkpt>
            <trkpt lat="49.7973472" lon="10.156992">
                <ele>184.0</ele>
                <time>2020-08-23T10:42:23.000Z</time>
                <name>Trackpoint 4754</name>
            </trkpt>
            <trkpt lat="49.79728" lon="10.1569048">
                <ele>184.0</ele>
                <time>2020-08-23T10:42:25.000Z</time>
                <name>Trackpoint 4755</name>
            </trkpt>
            <trkpt lat="49.797216" lon="10.1568168">
                <ele>184.0</ele>
                <time>2020-08-23T10:42:27.000Z</time>
                <name>Trackpoint 4756</name>
            </trkpt>
            <trkpt lat="49.7971488" lon="10.1567352">
                <ele>184.0</ele>
                <time>2020-08-23T10:42:29.000Z</time>
                <name>Trackpoint 4757</name>
            </trkpt>
            <trkpt lat="49.7970848" lon="10.1566616">
                <ele>184.0</ele>
                <time>2020-08-23T10:42:31.000Z</time>
                <name>Trackpoint 4758</name>
            </trkpt>
            <trkpt lat="49.797024" lon="10.15658">
                <ele>184.0</ele>
                <time>2020-08-23T10:42:33.000Z</time>
                <name>Trackpoint 4759</name>
            </trkpt>
            <trkpt lat="49.7969536" lon="10.1564952">
                <ele>184.0</ele>
                <time>2020-08-23T10:42:35.000Z</time>
                <name>Trackpoint 4760</name>
            </trkpt>
            <trkpt lat="49.7968832" lon="10.156408">
                <ele>184.0</ele>
                <time>2020-08-23T10:42:37.000Z</time>
                <name>Trackpoint 4761</name>
            </trkpt>
            <trkpt lat="49.7968096" lon="10.1563256">
                <ele>184.0</ele>
                <time>2020-08-23T10:42:39.000Z</time>
                <name>Trackpoint 4762</name>
            </trkpt>
            <trkpt lat="49.7967296" lon="10.1562456">
                <ele>184.0</ele>
                <time>2020-08-23T10:42:41.000Z</time>
                <name>Trackpoint 4763</name>
            </trkpt>
            <trkpt lat="49.796656" lon="10.15616">
                <ele>184.0</ele>
                <time>2020-08-23T10:42:43.000Z</time>
                <name>Trackpoint 4764</name>
            </trkpt>
            <trkpt lat="49.7965856" lon="10.1560768">
                <ele>184.0</ele>
                <time>2020-08-23T10:42:45.000Z</time>
                <name>Trackpoint 4765</name>
            </trkpt>
            <trkpt lat="49.7965056" lon="10.1560032">
                <ele>184.0</ele>
                <time>2020-08-23T10:42:47.000Z</time>
                <name>Trackpoint 4766</name>
            </trkpt>
            <trkpt lat="49.7964288" lon="10.1559248">
                <ele>184.0</ele>
                <time>2020-08-23T10:42:49.000Z</time>
                <name>Trackpoint 4767</name>
            </trkpt>
            <trkpt lat="49.796352" lon="10.1558504">
                <ele>184.0</ele>
                <time>2020-08-23T10:42:51.000Z</time>
                <name>Trackpoint 4768</name>
            </trkpt>
            <trkpt lat="49.7962752" lon="10.1557776">
                <ele>184.0</ele>
                <time>2020-08-23T10:42:53.000Z</time>
                <name>Trackpoint 4769</name>
            </trkpt>
            <trkpt lat="49.796208" lon="10.1557016">
                <ele>184.0</ele>
                <time>2020-08-23T10:42:55.000Z</time>
                <name>Trackpoint 4770</name>
            </trkpt>
            <trkpt lat="49.7961888" lon="10.1555832">
                <ele>184.0</ele>
                <time>2020-08-23T10:42:57.000Z</time>
                <name>Trackpoint 4771</name>
            </trkpt>
            <trkpt lat="49.7962304" lon="10.1554744">
                <ele>185.0</ele>
                <time>2020-08-23T10:42:59.000Z</time>
                <name>Trackpoint 4772</name>
            </trkpt>
            <trkpt lat="49.7963072" lon="10.155392">
                <ele>185.0</ele>
                <time>2020-08-23T10:43:01.000Z</time>
                <name>Trackpoint 4773</name>
            </trkpt>
            <trkpt lat="49.796368" lon="10.1552912">
                <ele>185.0</ele>
                <time>2020-08-23T10:43:03.000Z</time>
                <name>Trackpoint 4774</name>
            </trkpt>
            <trkpt lat="49.7964096" lon="10.1551712">
                <ele>185.0</ele>
                <time>2020-08-23T10:43:05.000Z</time>
                <name>Trackpoint 4775</name>
            </trkpt>
            <trkpt lat="49.7964288" lon="10.1550368">
                <ele>185.0</ele>
                <time>2020-08-23T10:43:07.000Z</time>
                <name>Trackpoint 4776</name>
            </trkpt>
            <trkpt lat="49.796416" lon="10.1548984">
                <ele>186.0</ele>
                <time>2020-08-23T10:43:09.000Z</time>
                <name>Trackpoint 4777</name>
            </trkpt>
            <trkpt lat="49.7963712" lon="10.1547696">
                <ele>185.0</ele>
                <time>2020-08-23T10:43:11.000Z</time>
                <name>Trackpoint 4778</name>
            </trkpt>
            <trkpt lat="49.7963072" lon="10.1546632">
                <ele>185.0</ele>
                <time>2020-08-23T10:43:13.000Z</time>
                <name>Trackpoint 4779</name>
            </trkpt>
            <trkpt lat="49.7962272" lon="10.1545896">
                <ele>185.0</ele>
                <time>2020-08-23T10:43:15.000Z</time>
                <name>Trackpoint 4780</name>
            </trkpt>
            <trkpt lat="49.7961344" lon="10.154536">
                <ele>185.0</ele>
                <time>2020-08-23T10:43:17.000Z</time>
                <name>Trackpoint 4781</name>
            </trkpt>
            <trkpt lat="49.7960448" lon="10.1545032">
                <ele>185.0</ele>
                <time>2020-08-23T10:43:19.000Z</time>
                <name>Trackpoint 4782</name>
            </trkpt>
            <trkpt lat="49.7959456" lon="10.1544688">
                <ele>185.0</ele>
                <time>2020-08-23T10:43:21.000Z</time>
                <name>Trackpoint 4783</name>
            </trkpt>
            <trkpt lat="49.7958464" lon="10.1544312">
                <ele>185.0</ele>
                <time>2020-08-23T10:43:23.000Z</time>
                <name>Trackpoint 4784</name>
            </trkpt>
            <trkpt lat="49.7957376" lon="10.154404">
                <ele>184.0</ele>
                <time>2020-08-23T10:43:25.000Z</time>
                <name>Trackpoint 4785</name>
            </trkpt>
            <trkpt lat="49.7956352" lon="10.1543768">
                <ele>184.0</ele>
                <time>2020-08-23T10:43:27.000Z</time>
                <name>Trackpoint 4786</name>
            </trkpt>
            <trkpt lat="49.7955296" lon="10.1543552">
                <ele>184.0</ele>
                <time>2020-08-23T10:43:29.000Z</time>
                <name>Trackpoint 4787</name>
            </trkpt>
            <trkpt lat="49.7954176" lon="10.1543312">
                <ele>184.0</ele>
                <time>2020-08-23T10:43:31.000Z</time>
                <name>Trackpoint 4788</name>
            </trkpt>
            <trkpt lat="49.7953152" lon="10.1543128">
                <ele>184.0</ele>
                <time>2020-08-23T10:43:33.000Z</time>
                <name>Trackpoint 4789</name>
            </trkpt>
            <trkpt lat="49.7952224" lon="10.15432">
                <ele>184.0</ele>
                <time>2020-08-23T10:43:35.000Z</time>
                <name>Trackpoint 4790</name>
            </trkpt>
            <trkpt lat="49.7951168" lon="10.1543032">
                <ele>184.0</ele>
                <time>2020-08-23T10:43:37.000Z</time>
                <name>Trackpoint 4791</name>
            </trkpt>
            <trkpt lat="49.7950016" lon="10.1542968">
                <ele>184.0</ele>
                <time>2020-08-23T10:43:39.000Z</time>
                <name>Trackpoint 4792</name>
            </trkpt>
            <trkpt lat="49.794896" lon="10.154288">
                <ele>184.0</ele>
                <time>2020-08-23T10:43:41.000Z</time>
                <name>Trackpoint 4793</name>
            </trkpt>
            <trkpt lat="49.7947808" lon="10.1542856">
                <ele>184.0</ele>
                <time>2020-08-23T10:43:43.000Z</time>
                <name>Trackpoint 4794</name>
            </trkpt>
            <trkpt lat="49.7946688" lon="10.1542832">
                <ele>184.0</ele>
                <time>2020-08-23T10:43:45.000Z</time>
                <name>Trackpoint 4795</name>
            </trkpt>
            <trkpt lat="49.7945664" lon="10.1542768">
                <ele>184.0</ele>
                <time>2020-08-23T10:43:47.000Z</time>
                <name>Trackpoint 4796</name>
            </trkpt>
            <trkpt lat="49.7944608" lon="10.154248">
                <ele>184.0</ele>
                <time>2020-08-23T10:43:49.000Z</time>
                <name>Trackpoint 4797</name>
            </trkpt>
            <trkpt lat="49.794352" lon="10.1542104">
                <ele>184.0</ele>
                <time>2020-08-23T10:43:51.000Z</time>
                <name>Trackpoint 4798</name>
            </trkpt>
            <trkpt lat="49.7942464" lon="10.1541864">
                <ele>184.0</ele>
                <time>2020-08-23T10:43:53.000Z</time>
                <name>Trackpoint 4799</name>
            </trkpt>
            <trkpt lat="49.7941408" lon="10.154188">
                <ele>184.0</ele>
                <time>2020-08-23T10:43:55.000Z</time>
                <name>Trackpoint 4800</name>
            </trkpt>
            <trkpt lat="49.7940288" lon="10.1541864">
                <ele>183.0</ele>
                <time>2020-08-23T10:43:57.000Z</time>
                <name>Trackpoint 4801</name>
            </trkpt>
            <trkpt lat="49.7939296" lon="10.1541656">
                <ele>183.0</ele>
                <time>2020-08-23T10:43:59.000Z</time>
                <name>Trackpoint 4802</name>
            </trkpt>
            <trkpt lat="49.7938304" lon="10.154132">
                <ele>183.0</ele>
                <time>2020-08-23T10:44:01.000Z</time>
                <name>Trackpoint 4803</name>
            </trkpt>
            <trkpt lat="49.793744" lon="10.1540936">
                <ele>182.0</ele>
                <time>2020-08-23T10:44:03.000Z</time>
                <name>Trackpoint 4804</name>
            </trkpt>
            <trkpt lat="49.7936224" lon="10.15404">
                <ele>182.0</ele>
                <time>2020-08-23T10:44:06.000Z</time>
                <name>Trackpoint 4805</name>
            </trkpt>
            <trkpt lat="49.7935072" lon="10.1539944">
                <ele>182.0</ele>
                <time>2020-08-23T10:44:09.000Z</time>
                <name>Trackpoint 4806</name>
            </trkpt>
            <trkpt lat="49.7934048" lon="10.1539552">
                <ele>182.0</ele>
                <time>2020-08-23T10:44:12.000Z</time>
                <name>Trackpoint 4807</name>
            </trkpt>
            <trkpt lat="49.7933088" lon="10.153916">
                <ele>182.0</ele>
                <time>2020-08-23T10:44:15.000Z</time>
                <name>Trackpoint 4808</name>
            </trkpt>
            <trkpt lat="49.7932128" lon="10.1538696">
                <ele>182.0</ele>
                <time>2020-08-23T10:44:19.000Z</time>
                <name>Trackpoint 4809</name>
            </trkpt>
            <trkpt lat="49.79312" lon="10.153836">
                <ele>181.0</ele>
                <time>2020-08-23T10:45:23.000Z</time>
                <name>Trackpoint 4810</name>
            </trkpt>
            <trkpt lat="49.7930272" lon="10.1537912">
                <ele>181.0</ele>
                <time>2020-08-23T10:45:26.000Z</time>
                <name>Trackpoint 4811</name>
            </trkpt>
            <trkpt lat="49.792912" lon="10.1537368">
                <ele>181.0</ele>
                <time>2020-08-23T10:45:29.000Z</time>
                <name>Trackpoint 4812</name>
            </trkpt>
            <trkpt lat="49.7927872" lon="10.15368">
                <ele>181.0</ele>
                <time>2020-08-23T10:45:32.000Z</time>
                <name>Trackpoint 4813</name>
            </trkpt>
            <trkpt lat="49.7927008" lon="10.1536304">
                <ele>181.0</ele>
                <time>2020-08-23T10:45:34.000Z</time>
                <name>Trackpoint 4814</name>
            </trkpt>
            <trkpt lat="49.7926176" lon="10.1535784">
                <ele>182.0</ele>
                <time>2020-08-23T10:45:36.000Z</time>
                <name>Trackpoint 4815</name>
            </trkpt>
            <trkpt lat="49.7925344" lon="10.1535184">
                <ele>182.0</ele>
                <time>2020-08-23T10:45:38.000Z</time>
                <name>Trackpoint 4816</name>
            </trkpt>
            <trkpt lat="49.7924512" lon="10.1534592">
                <ele>182.0</ele>
                <time>2020-08-23T10:45:40.000Z</time>
                <name>Trackpoint 4817</name>
            </trkpt>
            <trkpt lat="49.7923616" lon="10.1534072">
                <ele>182.0</ele>
                <time>2020-08-23T10:45:42.000Z</time>
                <name>Trackpoint 4818</name>
            </trkpt>
            <trkpt lat="49.7922752" lon="10.1533536">
                <ele>182.0</ele>
                <time>2020-08-23T10:45:44.000Z</time>
                <name>Trackpoint 4819</name>
            </trkpt>
            <trkpt lat="49.7921824" lon="10.1533032">
                <ele>182.0</ele>
                <time>2020-08-23T10:45:46.000Z</time>
                <name>Trackpoint 4820</name>
            </trkpt>
            <trkpt lat="49.792096" lon="10.1532552">
                <ele>181.0</ele>
                <time>2020-08-23T10:45:48.000Z</time>
                <name>Trackpoint 4821</name>
            </trkpt>
            <trkpt lat="49.7920064" lon="10.1532096">
                <ele>181.0</ele>
                <time>2020-08-23T10:45:50.000Z</time>
                <name>Trackpoint 4822</name>
            </trkpt>
            <trkpt lat="49.7919168" lon="10.1531536">
                <ele>181.0</ele>
                <time>2020-08-23T10:45:52.000Z</time>
                <name>Trackpoint 4823</name>
            </trkpt>
            <trkpt lat="49.7918176" lon="10.1530936">
                <ele>181.0</ele>
                <time>2020-08-23T10:45:54.000Z</time>
                <name>Trackpoint 4824</name>
            </trkpt>
            <trkpt lat="49.7917184" lon="10.1530368">
                <ele>181.0</ele>
                <time>2020-08-23T10:45:56.000Z</time>
                <name>Trackpoint 4825</name>
            </trkpt>
            <trkpt lat="49.7916256" lon="10.1529864">
                <ele>181.0</ele>
                <time>2020-08-23T10:45:58.000Z</time>
                <name>Trackpoint 4826</name>
            </trkpt>
            <trkpt lat="49.791536" lon="10.1529512">
                <ele>181.0</ele>
                <time>2020-08-23T10:46:00.000Z</time>
                <name>Trackpoint 4827</name>
            </trkpt>
            <trkpt lat="49.7914432" lon="10.1529032">
                <ele>181.0</ele>
                <time>2020-08-23T10:46:02.000Z</time>
                <name>Trackpoint 4828</name>
            </trkpt>
            <trkpt lat="49.7913536" lon="10.1528528">
                <ele>181.0</ele>
                <time>2020-08-23T10:46:04.000Z</time>
                <name>Trackpoint 4829</name>
            </trkpt>
            <trkpt lat="49.7912736" lon="10.1527928">
                <ele>181.0</ele>
                <time>2020-08-23T10:46:06.000Z</time>
                <name>Trackpoint 4830</name>
            </trkpt>
            <trkpt lat="49.7911904" lon="10.1527336">
                <ele>181.0</ele>
                <time>2020-08-23T10:46:08.000Z</time>
                <name>Trackpoint 4831</name>
            </trkpt>
            <trkpt lat="49.7911008" lon="10.152672">
                <ele>181.0</ele>
                <time>2020-08-23T10:46:10.000Z</time>
                <name>Trackpoint 4832</name>
            </trkpt>
            <trkpt lat="49.7910016" lon="10.1526096">
                <ele>180.0</ele>
                <time>2020-08-23T10:46:12.000Z</time>
                <name>Trackpoint 4833</name>
            </trkpt>
            <trkpt lat="49.7908928" lon="10.1525552">
                <ele>180.0</ele>
                <time>2020-08-23T10:46:14.000Z</time>
                <name>Trackpoint 4834</name>
            </trkpt>
            <trkpt lat="49.7907872" lon="10.1525112">
                <ele>180.0</ele>
                <time>2020-08-23T10:46:16.000Z</time>
                <name>Trackpoint 4835</name>
            </trkpt>
            <trkpt lat="49.7906784" lon="10.1524832">
                <ele>180.0</ele>
                <time>2020-08-23T10:46:18.000Z</time>
                <name>Trackpoint 4836</name>
            </trkpt>
            <trkpt lat="49.7905728" lon="10.15246">
                <ele>180.0</ele>
                <time>2020-08-23T10:46:20.000Z</time>
                <name>Trackpoint 4837</name>
            </trkpt>
            <trkpt lat="49.7904768" lon="10.1524448">
                <ele>180.0</ele>
                <time>2020-08-23T10:46:22.000Z</time>
                <name>Trackpoint 4838</name>
            </trkpt>
            <trkpt lat="49.7903808" lon="10.1524432">
                <ele>181.0</ele>
                <time>2020-08-23T10:46:24.000Z</time>
                <name>Trackpoint 4839</name>
            </trkpt>
            <trkpt lat="49.7902912" lon="10.1524688">
                <ele>181.0</ele>
                <time>2020-08-23T10:46:26.000Z</time>
                <name>Trackpoint 4840</name>
            </trkpt>
            <trkpt lat="49.7901984" lon="10.1525088">
                <ele>180.0</ele>
                <time>2020-08-23T10:46:28.000Z</time>
                <name>Trackpoint 4841</name>
            </trkpt>
            <trkpt lat="49.7901024" lon="10.1525448">
                <ele>180.0</ele>
                <time>2020-08-23T10:46:30.000Z</time>
                <name>Trackpoint 4842</name>
            </trkpt>
            <trkpt lat="49.7900096" lon="10.152572">
                <ele>180.0</ele>
                <time>2020-08-23T10:46:32.000Z</time>
                <name>Trackpoint 4843</name>
            </trkpt>
            <trkpt lat="49.7899136" lon="10.1525944">
                <ele>180.0</ele>
                <time>2020-08-23T10:46:34.000Z</time>
                <name>Trackpoint 4844</name>
            </trkpt>
            <trkpt lat="49.7898208" lon="10.1526136">
                <ele>180.0</ele>
                <time>2020-08-23T10:46:36.000Z</time>
                <name>Trackpoint 4845</name>
            </trkpt>
            <trkpt lat="49.7897216" lon="10.15262">
                <ele>181.0</ele>
                <time>2020-08-23T10:46:38.000Z</time>
                <name>Trackpoint 4846</name>
            </trkpt>
            <trkpt lat="49.7896128" lon="10.1526032">
                <ele>181.0</ele>
                <time>2020-08-23T10:46:40.000Z</time>
                <name>Trackpoint 4847</name>
            </trkpt>
            <trkpt lat="49.7895104" lon="10.1525744">
                <ele>181.0</ele>
                <time>2020-08-23T10:46:42.000Z</time>
                <name>Trackpoint 4848</name>
            </trkpt>
            <trkpt lat="49.7894016" lon="10.15254">
                <ele>180.0</ele>
                <time>2020-08-23T10:46:44.000Z</time>
                <name>Trackpoint 4849</name>
            </trkpt>
            <trkpt lat="49.7893024" lon="10.1525112">
                <ele>180.0</ele>
                <time>2020-08-23T10:46:46.000Z</time>
                <name>Trackpoint 4850</name>
            </trkpt>
            <trkpt lat="49.7892" lon="10.1524936">
                <ele>180.0</ele>
                <time>2020-08-23T10:46:48.000Z</time>
                <name>Trackpoint 4851</name>
            </trkpt>
            <trkpt lat="49.789104" lon="10.152476">
                <ele>180.0</ele>
                <time>2020-08-23T10:46:50.000Z</time>
                <name>Trackpoint 4852</name>
            </trkpt>
            <trkpt lat="49.7890048" lon="10.15246">
                <ele>180.0</ele>
                <time>2020-08-23T10:46:52.000Z</time>
                <name>Trackpoint 4853</name>
            </trkpt>
            <trkpt lat="49.7889152" lon="10.1524512">
                <ele>180.0</ele>
                <time>2020-08-23T10:46:54.000Z</time>
                <name>Trackpoint 4854</name>
            </trkpt>
            <trkpt lat="49.7888192" lon="10.1524432">
                <ele>180.0</ele>
                <time>2020-08-23T10:46:56.000Z</time>
                <name>Trackpoint 4855</name>
            </trkpt>
            <trkpt lat="49.7887264" lon="10.1524296">
                <ele>180.0</ele>
                <time>2020-08-23T10:46:58.000Z</time>
                <name>Trackpoint 4856</name>
            </trkpt>
            <trkpt lat="49.7886304" lon="10.1524096">
                <ele>181.0</ele>
                <time>2020-08-23T10:47:00.000Z</time>
                <name>Trackpoint 4857</name>
            </trkpt>
            <trkpt lat="49.7885408" lon="10.1523936">
                <ele>181.0</ele>
                <time>2020-08-23T10:47:02.000Z</time>
                <name>Trackpoint 4858</name>
            </trkpt>
            <trkpt lat="49.7884512" lon="10.1523752">
                <ele>181.0</ele>
                <time>2020-08-23T10:47:04.000Z</time>
                <name>Trackpoint 4859</name>
            </trkpt>
            <trkpt lat="49.7883552" lon="10.1523568">
                <ele>181.0</ele>
                <time>2020-08-23T10:47:06.000Z</time>
                <name>Trackpoint 4860</name>
            </trkpt>
            <trkpt lat="49.7882656" lon="10.1523448">
                <ele>181.0</ele>
                <time>2020-08-23T10:47:08.000Z</time>
                <name>Trackpoint 4861</name>
            </trkpt>
            <trkpt lat="49.788176" lon="10.1523264">
                <ele>181.0</ele>
                <time>2020-08-23T10:47:10.000Z</time>
                <name>Trackpoint 4862</name>
            </trkpt>
            <trkpt lat="49.7880448" lon="10.1523016">
                <ele>181.0</ele>
                <time>2020-08-23T10:47:13.000Z</time>
                <name>Trackpoint 4863</name>
            </trkpt>
            <trkpt lat="49.787952" lon="10.1522904">
                <ele>181.0</ele>
                <time>2020-08-23T10:47:15.000Z</time>
                <name>Trackpoint 4864</name>
            </trkpt>
            <trkpt lat="49.787856" lon="10.1522776">
                <ele>181.0</ele>
                <time>2020-08-23T10:47:17.000Z</time>
                <name>Trackpoint 4865</name>
            </trkpt>
            <trkpt lat="49.7877664" lon="10.1522616">
                <ele>181.0</ele>
                <time>2020-08-23T10:47:19.000Z</time>
                <name>Trackpoint 4866</name>
            </trkpt>
            <trkpt lat="49.7876704" lon="10.152244">
                <ele>181.0</ele>
                <time>2020-08-23T10:47:21.000Z</time>
                <name>Trackpoint 4867</name>
            </trkpt>
            <trkpt lat="49.7875744" lon="10.152228">
                <ele>181.0</ele>
                <time>2020-08-23T10:47:23.000Z</time>
                <name>Trackpoint 4868</name>
            </trkpt>
            <trkpt lat="49.7874784" lon="10.1522168">
                <ele>181.0</ele>
                <time>2020-08-23T10:47:25.000Z</time>
                <name>Trackpoint 4869</name>
            </trkpt>
            <trkpt lat="49.7873856" lon="10.152212">
                <ele>181.0</ele>
                <time>2020-08-23T10:47:27.000Z</time>
                <name>Trackpoint 4870</name>
            </trkpt>
            <trkpt lat="49.7872896" lon="10.1522128">
                <ele>181.0</ele>
                <time>2020-08-23T10:47:29.000Z</time>
                <name>Trackpoint 4871</name>
            </trkpt>
            <trkpt lat="49.7871936" lon="10.1522152">
                <ele>181.0</ele>
                <time>2020-08-23T10:47:31.000Z</time>
                <name>Trackpoint 4872</name>
            </trkpt>
            <trkpt lat="49.7870944" lon="10.1522168">
                <ele>181.0</ele>
                <time>2020-08-23T10:47:33.000Z</time>
                <name>Trackpoint 4873</name>
            </trkpt>
            <trkpt lat="49.7869952" lon="10.1522168">
                <ele>181.0</ele>
                <time>2020-08-23T10:47:35.000Z</time>
                <name>Trackpoint 4874</name>
            </trkpt>
            <trkpt lat="49.786896" lon="10.15222">
                <ele>181.0</ele>
                <time>2020-08-23T10:47:37.000Z</time>
                <name>Trackpoint 4875</name>
            </trkpt>
            <trkpt lat="49.7867936" lon="10.1522216">
                <ele>181.0</ele>
                <time>2020-08-23T10:47:39.000Z</time>
                <name>Trackpoint 4876</name>
            </trkpt>
            <trkpt lat="49.7866944" lon="10.1522216">
                <ele>181.0</ele>
                <time>2020-08-23T10:47:41.000Z</time>
                <name>Trackpoint 4877</name>
            </trkpt>
            <trkpt lat="49.786592" lon="10.1522264">
                <ele>181.0</ele>
                <time>2020-08-23T10:47:43.000Z</time>
                <name>Trackpoint 4878</name>
            </trkpt>
            <trkpt lat="49.7864928" lon="10.1522304">
                <ele>181.0</ele>
                <time>2020-08-23T10:47:45.000Z</time>
                <name>Trackpoint 4879</name>
            </trkpt>
            <trkpt lat="49.7863968" lon="10.1522312">
                <ele>182.0</ele>
                <time>2020-08-23T10:47:47.000Z</time>
                <name>Trackpoint 4880</name>
            </trkpt>
            <trkpt lat="49.7862976" lon="10.1522376">
                <ele>182.0</ele>
                <time>2020-08-23T10:47:49.000Z</time>
                <name>Trackpoint 4881</name>
            </trkpt>
            <trkpt lat="49.7862016" lon="10.1522512">
                <ele>182.0</ele>
                <time>2020-08-23T10:47:51.000Z</time>
                <name>Trackpoint 4882</name>
            </trkpt>
            <trkpt lat="49.7861088" lon="10.1522664">
                <ele>182.0</ele>
                <time>2020-08-23T10:47:53.000Z</time>
                <name>Trackpoint 4883</name>
            </trkpt>
            <trkpt lat="49.7860192" lon="10.1522864">
                <ele>182.0</ele>
                <time>2020-08-23T10:47:55.000Z</time>
                <name>Trackpoint 4884</name>
            </trkpt>
            <trkpt lat="49.7859296" lon="10.1523088">
                <ele>182.0</ele>
                <time>2020-08-23T10:47:57.000Z</time>
                <name>Trackpoint 4885</name>
            </trkpt>
            <trkpt lat="49.78584" lon="10.1523304">
                <ele>182.0</ele>
                <time>2020-08-23T10:47:59.000Z</time>
                <name>Trackpoint 4886</name>
            </trkpt>
            <trkpt lat="49.7857504" lon="10.1523512">
                <ele>183.0</ele>
                <time>2020-08-23T10:48:01.000Z</time>
                <name>Trackpoint 4887</name>
            </trkpt>
            <trkpt lat="49.785664" lon="10.1523768">
                <ele>183.0</ele>
                <time>2020-08-23T10:48:03.000Z</time>
                <name>Trackpoint 4888</name>
            </trkpt>
            <trkpt lat="49.7855712" lon="10.1523984">
                <ele>183.0</ele>
                <time>2020-08-23T10:48:05.000Z</time>
                <name>Trackpoint 4889</name>
            </trkpt>
            <trkpt lat="49.7854432" lon="10.1524352">
                <ele>183.0</ele>
                <time>2020-08-23T10:48:08.000Z</time>
                <name>Trackpoint 4890</name>
            </trkpt>
            <trkpt lat="49.7853408" lon="10.1523648">
                <ele>183.0</ele>
                <time>2020-08-23T10:48:11.000Z</time>
                <name>Trackpoint 4891</name>
            </trkpt>
            <trkpt lat="49.7853248" lon="10.1522448">
                <ele>183.0</ele>
                <time>2020-08-23T10:48:13.000Z</time>
                <name>Trackpoint 4892</name>
            </trkpt>
            <trkpt lat="49.7853216" lon="10.152128">
                <ele>183.0</ele>
                <time>2020-08-23T10:48:15.000Z</time>
                <name>Trackpoint 4893</name>
            </trkpt>
            <trkpt lat="49.7853152" lon="10.1520072">
                <ele>183.0</ele>
                <time>2020-08-23T10:48:17.000Z</time>
                <name>Trackpoint 4894</name>
            </trkpt>
            <trkpt lat="49.7853056" lon="10.1518984">
                <ele>183.0</ele>
                <time>2020-08-23T10:48:19.000Z</time>
                <name>Trackpoint 4895</name>
            </trkpt>
            <trkpt lat="49.785296" lon="10.1517848">
                <ele>183.0</ele>
                <time>2020-08-23T10:48:21.000Z</time>
                <name>Trackpoint 4896</name>
            </trkpt>
            <trkpt lat="49.7852896" lon="10.1516648">
                <ele>184.0</ele>
                <time>2020-08-23T10:48:23.000Z</time>
                <name>Trackpoint 4897</name>
            </trkpt>
            <trkpt lat="49.7852736" lon="10.151564">
                <ele>184.0</ele>
                <time>2020-08-23T10:48:25.000Z</time>
                <name>Trackpoint 4898</name>
            </trkpt>
            <trkpt lat="49.7852512" lon="10.1514568">
                <ele>184.0</ele>
                <time>2020-08-23T10:48:27.000Z</time>
                <name>Trackpoint 4899</name>
            </trkpt>
            <trkpt lat="49.7851616" lon="10.151372">
                <ele>184.0</ele>
                <time>2020-08-23T10:48:30.000Z</time>
                <name>Trackpoint 4900</name>
            </trkpt>
            <trkpt lat="49.7850368" lon="10.1513568">
                <ele>185.0</ele>
                <time>2020-08-23T10:48:33.000Z</time>
                <name>Trackpoint 4901</name>
            </trkpt>
            <trkpt lat="49.784944" lon="10.1513656">
                <ele>185.0</ele>
                <time>2020-08-23T10:48:35.000Z</time>
                <name>Trackpoint 4902</name>
            </trkpt>
            <trkpt lat="49.7848384" lon="10.1513592">
                <ele>185.0</ele>
                <time>2020-08-23T10:48:37.000Z</time>
                <name>Trackpoint 4903</name>
            </trkpt>
            <trkpt lat="49.7847328" lon="10.1513568">
                <ele>185.0</ele>
                <time>2020-08-23T10:48:39.000Z</time>
                <name>Trackpoint 4904</name>
            </trkpt>
            <trkpt lat="49.7846144" lon="10.1513504">
                <ele>184.0</ele>
                <time>2020-08-23T10:48:41.000Z</time>
                <name>Trackpoint 4905</name>
            </trkpt>
            <trkpt lat="49.7844928" lon="10.151348">
                <ele>184.0</ele>
                <time>2020-08-23T10:48:43.000Z</time>
                <name>Trackpoint 4906</name>
            </trkpt>
            <trkpt lat="49.784368" lon="10.1513456">
                <ele>184.0</ele>
                <time>2020-08-23T10:48:45.000Z</time>
                <name>Trackpoint 4907</name>
            </trkpt>
            <trkpt lat="49.7842368" lon="10.1513432">
                <ele>184.0</ele>
                <time>2020-08-23T10:48:47.000Z</time>
                <name>Trackpoint 4908</name>
            </trkpt>
            <trkpt lat="49.7841152" lon="10.1513392">
                <ele>185.0</ele>
                <time>2020-08-23T10:48:49.000Z</time>
                <name>Trackpoint 4909</name>
            </trkpt>
            <trkpt lat="49.7839968" lon="10.1513384">
                <ele>185.0</ele>
                <time>2020-08-23T10:48:51.000Z</time>
                <name>Trackpoint 4910</name>
            </trkpt>
            <trkpt lat="49.7838784" lon="10.1513368">
                <ele>185.0</ele>
                <time>2020-08-23T10:48:53.000Z</time>
                <name>Trackpoint 4911</name>
            </trkpt>
            <trkpt lat="49.78376" lon="10.1513336">
                <ele>185.0</ele>
                <time>2020-08-23T10:48:55.000Z</time>
                <name>Trackpoint 4912</name>
            </trkpt>
            <trkpt lat="49.7836448" lon="10.1513336">
                <ele>185.0</ele>
                <time>2020-08-23T10:48:57.000Z</time>
                <name>Trackpoint 4913</name>
            </trkpt>
            <trkpt lat="49.7835264" lon="10.1513296">
                <ele>185.0</ele>
                <time>2020-08-23T10:48:59.000Z</time>
                <name>Trackpoint 4914</name>
            </trkpt>
            <trkpt lat="49.7834144" lon="10.1513296">
                <ele>185.0</ele>
                <time>2020-08-23T10:49:01.000Z</time>
                <name>Trackpoint 4915</name>
            </trkpt>
            <trkpt lat="49.783296" lon="10.151328">
                <ele>185.0</ele>
                <time>2020-08-23T10:49:03.000Z</time>
                <name>Trackpoint 4916</name>
            </trkpt>
            <trkpt lat="49.7831808" lon="10.151352">
                <ele>185.0</ele>
                <time>2020-08-23T10:49:05.000Z</time>
                <name>Trackpoint 4917</name>
            </trkpt>
            <trkpt lat="49.7830592" lon="10.1513784">
                <ele>185.0</ele>
                <time>2020-08-23T10:49:07.000Z</time>
                <name>Trackpoint 4918</name>
            </trkpt>
            <trkpt lat="49.7829376" lon="10.1513816">
                <ele>185.0</ele>
                <time>2020-08-23T10:49:09.000Z</time>
                <name>Trackpoint 4919</name>
            </trkpt>
            <trkpt lat="49.7828192" lon="10.1513816">
                <ele>185.0</ele>
                <time>2020-08-23T10:49:11.000Z</time>
                <name>Trackpoint 4920</name>
            </trkpt>
            <trkpt lat="49.7826944" lon="10.1513752">
                <ele>185.0</ele>
                <time>2020-08-23T10:49:13.000Z</time>
                <name>Trackpoint 4921</name>
            </trkpt>
            <trkpt lat="49.782576" lon="10.1513752">
                <ele>186.0</ele>
                <time>2020-08-23T10:49:15.000Z</time>
                <name>Trackpoint 4922</name>
            </trkpt>
            <trkpt lat="49.7824608" lon="10.1513704">
                <ele>187.0</ele>
                <time>2020-08-23T10:49:17.000Z</time>
                <name>Trackpoint 4923</name>
            </trkpt>
            <trkpt lat="49.7823456" lon="10.1513768">
                <ele>186.0</ele>
                <time>2020-08-23T10:49:19.000Z</time>
                <name>Trackpoint 4924</name>
            </trkpt>
            <trkpt lat="49.7822272" lon="10.151388">
                <ele>185.0</ele>
                <time>2020-08-23T10:49:21.000Z</time>
                <name>Trackpoint 4925</name>
            </trkpt>
            <trkpt lat="49.7821152" lon="10.1513856">
                <ele>185.0</ele>
                <time>2020-08-23T10:49:23.000Z</time>
                <name>Trackpoint 4926</name>
            </trkpt>
            <trkpt lat="49.782" lon="10.1513792">
                <ele>185.0</ele>
                <time>2020-08-23T10:49:25.000Z</time>
                <name>Trackpoint 4927</name>
            </trkpt>
            <trkpt lat="49.7818944" lon="10.1513856">
                <ele>185.0</ele>
                <time>2020-08-23T10:49:27.000Z</time>
                <name>Trackpoint 4928</name>
            </trkpt>
            <trkpt lat="49.7817856" lon="10.1513832">
                <ele>185.0</ele>
                <time>2020-08-23T10:49:29.000Z</time>
                <name>Trackpoint 4929</name>
            </trkpt>
            <trkpt lat="49.7816768" lon="10.1513784">
                <ele>185.0</ele>
                <time>2020-08-23T10:49:31.000Z</time>
                <name>Trackpoint 4930</name>
            </trkpt>
            <trkpt lat="49.781568" lon="10.151372">
                <ele>186.0</ele>
                <time>2020-08-23T10:49:33.000Z</time>
                <name>Trackpoint 4931</name>
            </trkpt>
            <trkpt lat="49.7814592" lon="10.151372">
                <ele>186.0</ele>
                <time>2020-08-23T10:49:35.000Z</time>
                <name>Trackpoint 4932</name>
            </trkpt>
            <trkpt lat="49.7813536" lon="10.151368">
                <ele>186.0</ele>
                <time>2020-08-23T10:49:37.000Z</time>
                <name>Trackpoint 4933</name>
            </trkpt>
            <trkpt lat="49.7812448" lon="10.1513656">
                <ele>186.0</ele>
                <time>2020-08-23T10:49:39.000Z</time>
                <name>Trackpoint 4934</name>
            </trkpt>
            <trkpt lat="49.7811424" lon="10.1513584">
                <ele>186.0</ele>
                <time>2020-08-23T10:49:41.000Z</time>
                <name>Trackpoint 4935</name>
            </trkpt>
            <trkpt lat="49.7810336" lon="10.1513584">
                <ele>186.0</ele>
                <time>2020-08-23T10:49:43.000Z</time>
                <name>Trackpoint 4936</name>
            </trkpt>
            <trkpt lat="49.7809216" lon="10.1513592">
                <ele>186.0</ele>
                <time>2020-08-23T10:49:45.000Z</time>
                <name>Trackpoint 4937</name>
            </trkpt>
            <trkpt lat="49.780816" lon="10.1513656">
                <ele>186.0</ele>
                <time>2020-08-23T10:49:47.000Z</time>
                <name>Trackpoint 4938</name>
            </trkpt>
            <trkpt lat="49.780704" lon="10.1513664">
                <ele>186.0</ele>
                <time>2020-08-23T10:49:49.000Z</time>
                <name>Trackpoint 4939</name>
            </trkpt>
            <trkpt lat="49.7805888" lon="10.1513616">
                <ele>186.0</ele>
                <time>2020-08-23T10:49:51.000Z</time>
                <name>Trackpoint 4940</name>
            </trkpt>
            <trkpt lat="49.7804768" lon="10.1513544">
                <ele>185.0</ele>
                <time>2020-08-23T10:49:53.000Z</time>
                <name>Trackpoint 4941</name>
            </trkpt>
            <trkpt lat="49.7803648" lon="10.1513504">
                <ele>185.0</ele>
                <time>2020-08-23T10:49:55.000Z</time>
                <name>Trackpoint 4942</name>
            </trkpt>
            <trkpt lat="49.7802496" lon="10.1513464">
                <ele>185.0</ele>
                <time>2020-08-23T10:49:57.000Z</time>
                <name>Trackpoint 4943</name>
            </trkpt>
            <trkpt lat="49.780144" lon="10.1513464">
                <ele>184.0</ele>
                <time>2020-08-23T10:49:59.000Z</time>
                <name>Trackpoint 4944</name>
            </trkpt>
            <trkpt lat="49.7800384" lon="10.1513504">
                <ele>184.0</ele>
                <time>2020-08-23T10:50:01.000Z</time>
                <name>Trackpoint 4945</name>
            </trkpt>
            <trkpt lat="49.7799328" lon="10.1513528">
                <ele>184.0</ele>
                <time>2020-08-23T10:50:03.000Z</time>
                <name>Trackpoint 4946</name>
            </trkpt>
            <trkpt lat="49.779824" lon="10.1513544">
                <ele>185.0</ele>
                <time>2020-08-23T10:50:05.000Z</time>
                <name>Trackpoint 4947</name>
            </trkpt>
            <trkpt lat="49.7797056" lon="10.1513664">
                <ele>184.0</ele>
                <time>2020-08-23T10:50:07.000Z</time>
                <name>Trackpoint 4948</name>
            </trkpt>
            <trkpt lat="49.7795968" lon="10.1513752">
                <ele>184.0</ele>
                <time>2020-08-23T10:50:09.000Z</time>
                <name>Trackpoint 4949</name>
            </trkpt>
            <trkpt lat="49.779488" lon="10.1513856">
                <ele>184.0</ele>
                <time>2020-08-23T10:50:11.000Z</time>
                <name>Trackpoint 4950</name>
            </trkpt>
            <trkpt lat="49.7793792" lon="10.1514064">
                <ele>184.0</ele>
                <time>2020-08-23T10:50:13.000Z</time>
                <name>Trackpoint 4951</name>
            </trkpt>
            <trkpt lat="49.7792736" lon="10.1514264">
                <ele>184.0</ele>
                <time>2020-08-23T10:50:15.000Z</time>
                <name>Trackpoint 4952</name>
            </trkpt>
            <trkpt lat="49.7791648" lon="10.1514528">
                <ele>184.0</ele>
                <time>2020-08-23T10:50:17.000Z</time>
                <name>Trackpoint 4953</name>
            </trkpt>
            <trkpt lat="49.7790592" lon="10.15148">
                <ele>184.0</ele>
                <time>2020-08-23T10:50:19.000Z</time>
                <name>Trackpoint 4954</name>
            </trkpt>
            <trkpt lat="49.7789568" lon="10.1515">
                <ele>184.0</ele>
                <time>2020-08-23T10:50:21.000Z</time>
                <name>Trackpoint 4955</name>
            </trkpt>
            <trkpt lat="49.7788544" lon="10.1515176">
                <ele>184.0</ele>
                <time>2020-08-23T10:50:23.000Z</time>
                <name>Trackpoint 4956</name>
            </trkpt>
            <trkpt lat="49.7787488" lon="10.1515376">
                <ele>184.0</ele>
                <time>2020-08-23T10:50:25.000Z</time>
                <name>Trackpoint 4957</name>
            </trkpt>
            <trkpt lat="49.7786432" lon="10.151564">
                <ele>184.0</ele>
                <time>2020-08-23T10:50:27.000Z</time>
                <name>Trackpoint 4958</name>
            </trkpt>
            <trkpt lat="49.7785408" lon="10.1515888">
                <ele>185.0</ele>
                <time>2020-08-23T10:50:29.000Z</time>
                <name>Trackpoint 4959</name>
            </trkpt>
            <trkpt lat="49.7784416" lon="10.1516184">
                <ele>185.0</ele>
                <time>2020-08-23T10:50:31.000Z</time>
                <name>Trackpoint 4960</name>
            </trkpt>
            <trkpt lat="49.7783424" lon="10.1516584">
                <ele>185.0</ele>
                <time>2020-08-23T10:50:33.000Z</time>
                <name>Trackpoint 4961</name>
            </trkpt>
            <trkpt lat="49.77824" lon="10.1517064">
                <ele>185.0</ele>
                <time>2020-08-23T10:50:35.000Z</time>
                <name>Trackpoint 4962</name>
            </trkpt>
            <trkpt lat="49.778144" lon="10.1517584">
                <ele>186.0</ele>
                <time>2020-08-23T10:50:37.000Z</time>
                <name>Trackpoint 4963</name>
            </trkpt>
            <trkpt lat="49.7780448" lon="10.1518136">
                <ele>186.0</ele>
                <time>2020-08-23T10:50:39.000Z</time>
                <name>Trackpoint 4964</name>
            </trkpt>
            <trkpt lat="49.7779456" lon="10.151872">
                <ele>186.0</ele>
                <time>2020-08-23T10:50:41.000Z</time>
                <name>Trackpoint 4965</name>
            </trkpt>
            <trkpt lat="49.7778464" lon="10.1519272">
                <ele>186.0</ele>
                <time>2020-08-23T10:50:43.000Z</time>
                <name>Trackpoint 4966</name>
            </trkpt>
            <trkpt lat="49.7777504" lon="10.1519808">
                <ele>186.0</ele>
                <time>2020-08-23T10:50:45.000Z</time>
                <name>Trackpoint 4967</name>
            </trkpt>
            <trkpt lat="49.7776608" lon="10.1520256">
                <ele>187.0</ele>
                <time>2020-08-23T10:50:47.000Z</time>
                <name>Trackpoint 4968</name>
            </trkpt>
            <trkpt lat="49.777568" lon="10.152072">
                <ele>187.0</ele>
                <time>2020-08-23T10:50:49.000Z</time>
                <name>Trackpoint 4969</name>
            </trkpt>
            <trkpt lat="49.7774848" lon="10.1521152">
                <ele>187.0</ele>
                <time>2020-08-23T10:50:51.000Z</time>
                <name>Trackpoint 4970</name>
            </trkpt>
            <trkpt lat="49.7774048" lon="10.1521616">
                <ele>186.0</ele>
                <time>2020-08-23T10:50:53.000Z</time>
                <name>Trackpoint 4971</name>
            </trkpt>
            <trkpt lat="49.7772992" lon="10.1522104">
                <ele>186.0</ele>
                <time>2020-08-23T10:50:55.000Z</time>
                <name>Trackpoint 4972</name>
            </trkpt>
            <trkpt lat="49.777184" lon="10.1522776">
                <ele>185.0</ele>
                <time>2020-08-23T10:50:57.000Z</time>
                <name>Trackpoint 4973</name>
            </trkpt>
            <trkpt lat="49.7770592" lon="10.1523584">
                <ele>184.0</ele>
                <time>2020-08-23T10:50:59.000Z</time>
                <name>Trackpoint 4974</name>
            </trkpt>
            <trkpt lat="49.7769312" lon="10.15244">
                <ele>184.0</ele>
                <time>2020-08-23T10:51:01.000Z</time>
                <name>Trackpoint 4975</name>
            </trkpt>
            <trkpt lat="49.7768096" lon="10.1525184">
                <ele>184.0</ele>
                <time>2020-08-23T10:51:03.000Z</time>
                <name>Trackpoint 4976</name>
            </trkpt>
            <trkpt lat="49.7766848" lon="10.1525936">
                <ele>184.0</ele>
                <time>2020-08-23T10:51:05.000Z</time>
                <name>Trackpoint 4977</name>
            </trkpt>
            <trkpt lat="49.7765664" lon="10.152672">
                <ele>183.0</ele>
                <time>2020-08-23T10:51:07.000Z</time>
                <name>Trackpoint 4978</name>
            </trkpt>
            <trkpt lat="49.7764512" lon="10.152752">
                <ele>183.0</ele>
                <time>2020-08-23T10:51:09.000Z</time>
                <name>Trackpoint 4979</name>
            </trkpt>
            <trkpt lat="49.7763392" lon="10.152828">
                <ele>184.0</ele>
                <time>2020-08-23T10:51:11.000Z</time>
                <name>Trackpoint 4980</name>
            </trkpt>
            <trkpt lat="49.7762336" lon="10.152888">
                <ele>184.0</ele>
                <time>2020-08-23T10:51:13.000Z</time>
                <name>Trackpoint 4981</name>
            </trkpt>
            <trkpt lat="49.7761408" lon="10.1529312">
                <ele>184.0</ele>
                <time>2020-08-23T10:51:15.000Z</time>
                <name>Trackpoint 4982</name>
            </trkpt>
            <trkpt lat="49.7760096" lon="10.152948">
                <ele>184.0</ele>
                <time>2020-08-23T10:51:18.000Z</time>
                <name>Trackpoint 4983</name>
            </trkpt>
            <trkpt lat="49.7759008" lon="10.1529352">
                <ele>184.0</ele>
                <time>2020-08-23T10:51:20.000Z</time>
                <name>Trackpoint 4984</name>
            </trkpt>
            <trkpt lat="49.7757888" lon="10.1529104">
                <ele>185.0</ele>
                <time>2020-08-23T10:51:22.000Z</time>
                <name>Trackpoint 4985</name>
            </trkpt>
            <trkpt lat="49.775664" lon="10.1528968">
                <ele>184.0</ele>
                <time>2020-08-23T10:51:24.000Z</time>
                <name>Trackpoint 4986</name>
            </trkpt>
            <trkpt lat="49.7755456" lon="10.152892">
                <ele>184.0</ele>
                <time>2020-08-23T10:51:26.000Z</time>
                <name>Trackpoint 4987</name>
            </trkpt>
            <trkpt lat="49.7754336" lon="10.1528816">
                <ele>184.0</ele>
                <time>2020-08-23T10:51:28.000Z</time>
                <name>Trackpoint 4988</name>
            </trkpt>
            <trkpt lat="49.7753184" lon="10.152868">
                <ele>185.0</ele>
                <time>2020-08-23T10:51:30.000Z</time>
                <name>Trackpoint 4989</name>
            </trkpt>
            <trkpt lat="49.7752064" lon="10.1528528">
                <ele>185.0</ele>
                <time>2020-08-23T10:51:32.000Z</time>
                <name>Trackpoint 4990</name>
            </trkpt>
            <trkpt lat="49.7750976" lon="10.1528328">
                <ele>184.0</ele>
                <time>2020-08-23T10:51:34.000Z</time>
                <name>Trackpoint 4991</name>
            </trkpt>
            <trkpt lat="49.7749888" lon="10.1528216">
                <ele>184.0</ele>
                <time>2020-08-23T10:51:36.000Z</time>
                <name>Trackpoint 4992</name>
            </trkpt>
            <trkpt lat="49.7748832" lon="10.1528016">
                <ele>185.0</ele>
                <time>2020-08-23T10:51:38.000Z</time>
                <name>Trackpoint 4993</name>
            </trkpt>
            <trkpt lat="49.7747808" lon="10.1527816">
                <ele>184.0</ele>
                <time>2020-08-23T10:51:40.000Z</time>
                <name>Trackpoint 4994</name>
            </trkpt>
            <trkpt lat="49.7746816" lon="10.1527704">
                <ele>185.0</ele>
                <time>2020-08-23T10:51:42.000Z</time>
                <name>Trackpoint 4995</name>
            </trkpt>
            <trkpt lat="49.7745824" lon="10.152768">
                <ele>185.0</ele>
                <time>2020-08-23T10:51:44.000Z</time>
                <name>Trackpoint 4996</name>
            </trkpt>
            <trkpt lat="49.7744736" lon="10.1527416">
                <ele>184.0</ele>
                <time>2020-08-23T10:51:46.000Z</time>
                <name>Trackpoint 4997</name>
            </trkpt>
            <trkpt lat="49.7743744" lon="10.1527208">
                <ele>184.0</ele>
                <time>2020-08-23T10:51:48.000Z</time>
                <name>Trackpoint 4998</name>
            </trkpt>
            <trkpt lat="49.7742848" lon="10.1526968">
                <ele>185.0</ele>
                <time>2020-08-23T10:51:50.000Z</time>
                <name>Trackpoint 4999</name>
            </trkpt>
            <trkpt lat="49.77416" lon="10.1526872">
                <ele>184.0</ele>
                <time>2020-08-23T10:51:53.000Z</time>
                <name>Trackpoint 5000</name>
            </trkpt>
            <trkpt lat="49.7740256" lon="10.1526944">
                <ele>185.0</ele>
                <time>2020-08-23T10:51:56.000Z</time>
                <name>Trackpoint 5001</name>
            </trkpt>
            <trkpt lat="49.7739232" lon="10.1526896">
                <ele>185.0</ele>
                <time>2020-08-23T10:51:58.000Z</time>
                <name>Trackpoint 5002</name>
            </trkpt>
            <trkpt lat="49.7738176" lon="10.1526816">
                <ele>184.0</ele>
                <time>2020-08-23T10:52:00.000Z</time>
                <name>Trackpoint 5003</name>
            </trkpt>
            <trkpt lat="49.773712" lon="10.1526768">
                <ele>184.0</ele>
                <time>2020-08-23T10:52:02.000Z</time>
                <name>Trackpoint 5004</name>
            </trkpt>
            <trkpt lat="49.7736064" lon="10.152672">
                <ele>183.0</ele>
                <time>2020-08-23T10:52:04.000Z</time>
                <name>Trackpoint 5005</name>
            </trkpt>
            <trkpt lat="49.7734944" lon="10.1526632">
                <ele>185.0</ele>
                <time>2020-08-23T10:52:06.000Z</time>
                <name>Trackpoint 5006</name>
            </trkpt>
            <trkpt lat="49.773392" lon="10.1526672">
                <ele>185.0</ele>
                <time>2020-08-23T10:52:08.000Z</time>
                <name>Trackpoint 5007</name>
            </trkpt>
            <trkpt lat="49.7732928" lon="10.15268">
                <ele>185.0</ele>
                <time>2020-08-23T10:52:10.000Z</time>
                <name>Trackpoint 5008</name>
            </trkpt>
            <trkpt lat="49.7732" lon="10.1526968">
                <ele>185.0</ele>
                <time>2020-08-23T10:52:12.000Z</time>
                <name>Trackpoint 5009</name>
            </trkpt>
            <trkpt lat="49.7730784" lon="10.1527136">
                <ele>185.0</ele>
                <time>2020-08-23T10:52:15.000Z</time>
                <name>Trackpoint 5010</name>
            </trkpt>
            <trkpt lat="49.7729792" lon="10.1527032">
                <ele>185.0</ele>
                <time>2020-08-23T10:52:18.000Z</time>
                <name>Trackpoint 5011</name>
            </trkpt>
            <trkpt lat="49.7728832" lon="10.1527008">
                <ele>187.0</ele>
                <time>2020-08-23T10:52:22.000Z</time>
                <name>Trackpoint 5012</name>
            </trkpt>
            <trkpt lat="49.7727776" lon="10.1526968">
                <ele>185.0</ele>
                <time>2020-08-23T10:53:03.000Z</time>
                <name>Trackpoint 5013</name>
            </trkpt>
            <trkpt lat="49.772656" lon="10.1527008">
                <ele>185.0</ele>
                <time>2020-08-23T10:53:07.000Z</time>
                <name>Trackpoint 5014</name>
            </trkpt>
            <trkpt lat="49.772544" lon="10.1526944">
                <ele>184.0</ele>
                <time>2020-08-23T10:53:10.000Z</time>
                <name>Trackpoint 5015</name>
            </trkpt>
            <trkpt lat="49.772432" lon="10.1526944">
                <ele>184.0</ele>
                <time>2020-08-23T10:53:13.000Z</time>
                <name>Trackpoint 5016</name>
            </trkpt>
            <trkpt lat="49.77232" lon="10.1527032">
                <ele>186.0</ele>
                <time>2020-08-23T10:53:16.000Z</time>
                <name>Trackpoint 5017</name>
            </trkpt>
            <trkpt lat="49.7722272" lon="10.1527096">
                <ele>183.0</ele>
                <time>2020-08-23T10:53:19.000Z</time>
                <name>Trackpoint 5018</name>
            </trkpt>
            <trkpt lat="49.7721344" lon="10.1527032">
                <ele>184.0</ele>
                <time>2020-08-23T10:53:22.000Z</time>
                <name>Trackpoint 5019</name>
            </trkpt>
            <trkpt lat="49.7720384" lon="10.1526832">
                <ele>184.0</ele>
                <time>2020-08-23T10:53:25.000Z</time>
                <name>Trackpoint 5020</name>
            </trkpt>
            <trkpt lat="49.7719168" lon="10.1526584">
                <ele>184.0</ele>
                <time>2020-08-23T10:53:28.000Z</time>
                <name>Trackpoint 5021</name>
            </trkpt>
            <trkpt lat="49.771808" lon="10.1526272">
                <ele>185.0</ele>
                <time>2020-08-23T10:53:30.000Z</time>
                <name>Trackpoint 5022</name>
            </trkpt>
            <trkpt lat="49.771712" lon="10.1526016">
                <ele>185.0</ele>
                <time>2020-08-23T10:53:32.000Z</time>
                <name>Trackpoint 5023</name>
            </trkpt>
            <trkpt lat="49.7716128" lon="10.1525672">
                <ele>185.0</ele>
                <time>2020-08-23T10:53:34.000Z</time>
                <name>Trackpoint 5024</name>
            </trkpt>
            <trkpt lat="49.7714848" lon="10.1525336">
                <ele>186.0</ele>
                <time>2020-08-23T10:53:37.000Z</time>
                <name>Trackpoint 5025</name>
            </trkpt>
            <trkpt lat="49.7713888" lon="10.1525136">
                <ele>185.0</ele>
                <time>2020-08-23T10:53:39.000Z</time>
                <name>Trackpoint 5026</name>
            </trkpt>
            <trkpt lat="49.7712864" lon="10.1524912">
                <ele>185.0</ele>
                <time>2020-08-23T10:53:41.000Z</time>
                <name>Trackpoint 5027</name>
            </trkpt>
            <trkpt lat="49.771152" lon="10.152496">
                <ele>185.0</ele>
                <time>2020-08-23T10:53:44.000Z</time>
                <name>Trackpoint 5028</name>
            </trkpt>
            <trkpt lat="49.7710688" lon="10.1525336">
                <ele>186.0</ele>
                <time>2020-08-23T10:53:46.000Z</time>
                <name>Trackpoint 5029</name>
            </trkpt>
            <trkpt lat="49.7709824" lon="10.152568">
                <ele>185.0</ele>
                <time>2020-08-23T10:53:48.000Z</time>
                <name>Trackpoint 5030</name>
            </trkpt>
            <trkpt lat="49.7708896" lon="10.1525944">
                <ele>185.0</ele>
                <time>2020-08-23T10:53:50.000Z</time>
                <name>Trackpoint 5031</name>
            </trkpt>
            <trkpt lat="49.7708" lon="10.1526136">
                <ele>184.0</ele>
                <time>2020-08-23T10:53:52.000Z</time>
                <name>Trackpoint 5032</name>
            </trkpt>
            <trkpt lat="49.7706688" lon="10.15262">
                <ele>185.0</ele>
                <time>2020-08-23T10:53:55.000Z</time>
                <name>Trackpoint 5033</name>
            </trkpt>
            <trkpt lat="49.7705536" lon="10.1526496">
                <ele>185.0</ele>
                <time>2020-08-23T10:53:58.000Z</time>
                <name>Trackpoint 5034</name>
            </trkpt>
            <trkpt lat="49.770448" lon="10.1526544">
                <ele>185.0</ele>
                <time>2020-08-23T10:54:01.000Z</time>
                <name>Trackpoint 5035</name>
            </trkpt>
            <trkpt lat="49.7703552" lon="10.1527184">
                <ele>185.0</ele>
                <time>2020-08-23T10:54:04.000Z</time>
                <name>Trackpoint 5036</name>
            </trkpt>
            <trkpt lat="49.7702336" lon="10.1527392">
                <ele>185.0</ele>
                <time>2020-08-23T10:54:07.000Z</time>
                <name>Trackpoint 5037</name>
            </trkpt>
            <trkpt lat="49.7701408" lon="10.152732">
                <ele>185.0</ele>
                <time>2020-08-23T10:54:09.000Z</time>
                <name>Trackpoint 5038</name>
            </trkpt>
            <trkpt lat="49.77" lon="10.1527256">
                <ele>185.0</ele>
                <time>2020-08-23T10:54:12.000Z</time>
                <name>Trackpoint 5039</name>
            </trkpt>
            <trkpt lat="49.769904" lon="10.1527272">
                <ele>185.0</ele>
                <time>2020-08-23T10:54:14.000Z</time>
                <name>Trackpoint 5040</name>
            </trkpt>
            <trkpt lat="49.7698048" lon="10.152728">
                <ele>185.0</ele>
                <time>2020-08-23T10:54:16.000Z</time>
                <name>Trackpoint 5041</name>
            </trkpt>
            <trkpt lat="49.7697056" lon="10.152732">
                <ele>185.0</ele>
                <time>2020-08-23T10:54:18.000Z</time>
                <name>Trackpoint 5042</name>
            </trkpt>
            <trkpt lat="49.7696128" lon="10.1527416">
                <ele>185.0</ele>
                <time>2020-08-23T10:54:20.000Z</time>
                <name>Trackpoint 5043</name>
            </trkpt>
            <trkpt lat="49.7695136" lon="10.1527384">
                <ele>184.0</ele>
                <time>2020-08-23T10:54:22.000Z</time>
                <name>Trackpoint 5044</name>
            </trkpt>
            <trkpt lat="49.7694176" lon="10.1527384">
                <ele>183.0</ele>
                <time>2020-08-23T10:54:24.000Z</time>
                <name>Trackpoint 5045</name>
            </trkpt>
            <trkpt lat="49.7693216" lon="10.1527456">
                <ele>183.0</ele>
                <time>2020-08-23T10:54:26.000Z</time>
                <name>Trackpoint 5046</name>
            </trkpt>
            <trkpt lat="49.7692224" lon="10.1527504">
                <ele>183.0</ele>
                <time>2020-08-23T10:54:28.000Z</time>
                <name>Trackpoint 5047</name>
            </trkpt>
            <trkpt lat="49.7691232" lon="10.1527656">
                <ele>183.0</ele>
                <time>2020-08-23T10:54:30.000Z</time>
                <name>Trackpoint 5048</name>
            </trkpt>
            <trkpt lat="49.7690208" lon="10.1527816">
                <ele>183.0</ele>
                <time>2020-08-23T10:54:32.000Z</time>
                <name>Trackpoint 5049</name>
            </trkpt>
            <trkpt lat="49.7689216" lon="10.1527952">
                <ele>183.0</ele>
                <time>2020-08-23T10:54:34.000Z</time>
                <name>Trackpoint 5050</name>
            </trkpt>
            <trkpt lat="49.7688192" lon="10.1528104">
                <ele>183.0</ele>
                <time>2020-08-23T10:54:36.000Z</time>
                <name>Trackpoint 5051</name>
            </trkpt>
            <trkpt lat="49.7687136" lon="10.152828">
                <ele>183.0</ele>
                <time>2020-08-23T10:54:38.000Z</time>
                <name>Trackpoint 5052</name>
            </trkpt>
            <trkpt lat="49.7686208" lon="10.1528352">
                <ele>183.0</ele>
                <time>2020-08-23T10:54:40.000Z</time>
                <name>Trackpoint 5053</name>
            </trkpt>
            <trkpt lat="49.7685152" lon="10.1528368">
                <ele>183.0</ele>
                <time>2020-08-23T10:54:42.000Z</time>
                <name>Trackpoint 5054</name>
            </trkpt>
            <trkpt lat="49.7684128" lon="10.152848">
                <ele>183.0</ele>
                <time>2020-08-23T10:54:44.000Z</time>
                <name>Trackpoint 5055</name>
            </trkpt>
            <trkpt lat="49.7683136" lon="10.1528656">
                <ele>183.0</ele>
                <time>2020-08-23T10:54:46.000Z</time>
                <name>Trackpoint 5056</name>
            </trkpt>
            <trkpt lat="49.7682144" lon="10.1528568">
                <ele>183.0</ele>
                <time>2020-08-23T10:54:48.000Z</time>
                <name>Trackpoint 5057</name>
            </trkpt>
            <trkpt lat="49.7681152" lon="10.1528304">
                <ele>183.0</ele>
                <time>2020-08-23T10:54:50.000Z</time>
                <name>Trackpoint 5058</name>
            </trkpt>
            <trkpt lat="49.768016" lon="10.1527984">
                <ele>183.0</ele>
                <time>2020-08-23T10:54:52.000Z</time>
                <name>Trackpoint 5059</name>
            </trkpt>
            <trkpt lat="49.7679168" lon="10.1527664">
                <ele>183.0</ele>
                <time>2020-08-23T10:54:54.000Z</time>
                <name>Trackpoint 5060</name>
            </trkpt>
            <trkpt lat="49.7678272" lon="10.1527296">
                <ele>183.0</ele>
                <time>2020-08-23T10:54:56.000Z</time>
                <name>Trackpoint 5061</name>
            </trkpt>
            <trkpt lat="49.7677376" lon="10.1526968">
                <ele>183.0</ele>
                <time>2020-08-23T10:54:58.000Z</time>
                <name>Trackpoint 5062</name>
            </trkpt>
            <trkpt lat="49.7676128" lon="10.1526632">
                <ele>183.0</ele>
                <time>2020-08-23T10:55:01.000Z</time>
                <name>Trackpoint 5063</name>
            </trkpt>
            <trkpt lat="49.76752" lon="10.1526232">
                <ele>184.0</ele>
                <time>2020-08-23T10:55:04.000Z</time>
                <name>Trackpoint 5064</name>
            </trkpt>
            <trkpt lat="49.7674208" lon="10.1525968">
                <ele>184.0</ele>
                <time>2020-08-23T10:55:40.000Z</time>
                <name>Trackpoint 5065</name>
            </trkpt>
            <trkpt lat="49.7673216" lon="10.1525632">
                <ele>184.0</ele>
                <time>2020-08-23T10:55:43.000Z</time>
                <name>Trackpoint 5066</name>
            </trkpt>
            <trkpt lat="49.7672032" lon="10.1525296">
                <ele>184.0</ele>
                <time>2020-08-23T10:55:46.000Z</time>
                <name>Trackpoint 5067</name>
            </trkpt>
            <trkpt lat="49.7670816" lon="10.1524888">
                <ele>185.0</ele>
                <time>2020-08-23T10:55:49.000Z</time>
                <name>Trackpoint 5068</name>
            </trkpt>
            <trkpt lat="49.7669984" lon="10.1524512">
                <ele>185.0</ele>
                <time>2020-08-23T10:55:51.000Z</time>
                <name>Trackpoint 5069</name>
            </trkpt>
            <trkpt lat="49.766912" lon="10.1524216">
                <ele>185.0</ele>
                <time>2020-08-23T10:55:53.000Z</time>
                <name>Trackpoint 5070</name>
            </trkpt>
            <trkpt lat="49.7668224" lon="10.1523952">
                <ele>185.0</ele>
                <time>2020-08-23T10:55:55.000Z</time>
                <name>Trackpoint 5071</name>
            </trkpt>
            <trkpt lat="49.766736" lon="10.1523664">
                <ele>185.0</ele>
                <time>2020-08-23T10:55:57.000Z</time>
                <name>Trackpoint 5072</name>
            </trkpt>
            <trkpt lat="49.7666176" lon="10.1523288">
                <ele>185.0</ele>
                <time>2020-08-23T10:56:00.000Z</time>
                <name>Trackpoint 5073</name>
            </trkpt>
            <trkpt lat="49.7665504" lon="10.1522688">
                <ele>185.0</ele>
                <time>2020-08-23T10:56:02.000Z</time>
                <name>Trackpoint 5074</name>
            </trkpt>
            <trkpt lat="49.7665152" lon="10.1521752">
                <ele>185.0</ele>
                <time>2020-08-23T10:56:04.000Z</time>
                <name>Trackpoint 5075</name>
            </trkpt>
            <trkpt lat="49.766496" lon="10.1520728">
                <ele>185.0</ele>
                <time>2020-08-23T10:56:06.000Z</time>
                <name>Trackpoint 5076</name>
            </trkpt>
            <trkpt lat="49.76648" lon="10.151972">
                <ele>186.0</ele>
                <time>2020-08-23T10:56:08.000Z</time>
                <name>Trackpoint 5077</name>
            </trkpt>
            <trkpt lat="49.7664672" lon="10.151872">
                <ele>186.0</ele>
                <time>2020-08-23T10:56:10.000Z</time>
                <name>Trackpoint 5078</name>
            </trkpt>
            <trkpt lat="49.7664512" lon="10.15178">
                <ele>186.0</ele>
                <time>2020-08-23T10:56:12.000Z</time>
                <name>Trackpoint 5079</name>
            </trkpt>
            <trkpt lat="49.7664352" lon="10.1516616">
                <ele>186.0</ele>
                <time>2020-08-23T10:56:15.000Z</time>
                <name>Trackpoint 5080</name>
            </trkpt>
            <trkpt lat="49.7664096" lon="10.1515576">
                <ele>188.0</ele>
                <time>2020-08-23T10:56:18.000Z</time>
                <name>Trackpoint 5081</name>
            </trkpt>
            <trkpt lat="49.7663968" lon="10.151468">
                <ele>188.0</ele>
                <time>2020-08-23T10:56:21.000Z</time>
                <name>Trackpoint 5082</name>
            </trkpt>
            <trkpt lat="49.7663008" lon="10.1514368">
                <ele>188.0</ele>
                <time>2020-08-23T10:56:28.000Z</time>
                <name>Trackpoint 5083</name>
            </trkpt>
            <trkpt lat="49.7661792" lon="10.151428">
                <ele>188.0</ele>
                <time>2020-08-23T10:56:32.000Z</time>
                <name>Trackpoint 5084</name>
            </trkpt>
            <trkpt lat="49.7660736" lon="10.1514256">
                <ele>189.0</ele>
                <time>2020-08-23T10:56:35.000Z</time>
                <name>Trackpoint 5085</name>
            </trkpt>
            <trkpt lat="49.765968" lon="10.1514168">
                <ele>188.0</ele>
                <time>2020-08-23T10:56:38.000Z</time>
                <name>Trackpoint 5086</name>
            </trkpt>
            <trkpt lat="49.7658592" lon="10.151412">
                <ele>188.0</ele>
                <time>2020-08-23T10:56:41.000Z</time>
                <name>Trackpoint 5087</name>
            </trkpt>
            <trkpt lat="49.76576" lon="10.1514056">
                <ele>188.0</ele>
                <time>2020-08-23T10:56:45.000Z</time>
                <name>Trackpoint 5088</name>
            </trkpt>
            <trkpt lat="49.765648" lon="10.1513904">
                <ele>188.0</ele>
                <time>2020-08-23T10:58:22.000Z</time>
                <name>Trackpoint 5089</name>
            </trkpt>
            <trkpt lat="49.7655296" lon="10.1513856">
                <ele>188.0</ele>
                <time>2020-08-23T10:58:26.000Z</time>
                <name>Trackpoint 5090</name>
            </trkpt>
            <trkpt lat="49.7654176" lon="10.1513792">
                <ele>188.0</ele>
                <time>2020-08-23T10:58:29.000Z</time>
                <name>Trackpoint 5091</name>
            </trkpt>
            <trkpt lat="49.7652928" lon="10.1513728">
                <ele>188.0</ele>
                <time>2020-08-23T10:58:32.000Z</time>
                <name>Trackpoint 5092</name>
            </trkpt>
            <trkpt lat="49.7651648" lon="10.1513664">
                <ele>187.0</ele>
                <time>2020-08-23T10:58:35.000Z</time>
                <name>Trackpoint 5093</name>
            </trkpt>
            <trkpt lat="49.7650336" lon="10.1513584">
                <ele>187.0</ele>
                <time>2020-08-23T10:58:38.000Z</time>
                <name>Trackpoint 5094</name>
            </trkpt>
            <trkpt lat="49.7648992" lon="10.1513544">
                <ele>187.0</ele>
                <time>2020-08-23T10:58:41.000Z</time>
                <name>Trackpoint 5095</name>
            </trkpt>
            <trkpt lat="49.764768" lon="10.151348">
                <ele>187.0</ele>
                <time>2020-08-23T10:58:44.000Z</time>
                <name>Trackpoint 5096</name>
            </trkpt>
            <trkpt lat="49.7646368" lon="10.1513416">
                <ele>187.0</ele>
                <time>2020-08-23T10:58:47.000Z</time>
                <name>Trackpoint 5097</name>
            </trkpt>
            <trkpt lat="49.7645024" lon="10.1513384">
                <ele>187.0</ele>
                <time>2020-08-23T10:58:50.000Z</time>
                <name>Trackpoint 5098</name>
            </trkpt>
            <trkpt lat="49.7643712" lon="10.1513344">
                <ele>187.0</ele>
                <time>2020-08-23T10:58:53.000Z</time>
                <name>Trackpoint 5099</name>
            </trkpt>
            <trkpt lat="49.7642368" lon="10.1513272">
                <ele>187.0</ele>
                <time>2020-08-23T10:58:56.000Z</time>
                <name>Trackpoint 5100</name>
            </trkpt>
            <trkpt lat="49.764112" lon="10.1513232">
                <ele>187.0</ele>
                <time>2020-08-23T10:58:59.000Z</time>
                <name>Trackpoint 5101</name>
            </trkpt>
            <trkpt lat="49.7639936" lon="10.1513168">
                <ele>188.0</ele>
                <time>2020-08-23T10:59:02.000Z</time>
                <name>Trackpoint 5102</name>
            </trkpt>
            <trkpt lat="49.7638848" lon="10.1513136">
                <ele>187.0</ele>
                <time>2020-08-23T10:59:05.000Z</time>
                <name>Trackpoint 5103</name>
            </trkpt>
            <trkpt lat="49.7637792" lon="10.1513008">
                <ele>187.0</ele>
                <time>2020-08-23T10:59:08.000Z</time>
                <name>Trackpoint 5104</name>
            </trkpt>
            <trkpt lat="49.763664" lon="10.1512872">
                <ele>187.0</ele>
                <time>2020-08-23T10:59:11.000Z</time>
                <name>Trackpoint 5105</name>
            </trkpt>
            <trkpt lat="49.7635392" lon="10.1512736">
                <ele>187.0</ele>
                <time>2020-08-23T10:59:14.000Z</time>
                <name>Trackpoint 5106</name>
            </trkpt>
            <trkpt lat="49.7634176" lon="10.1512616">
                <ele>187.0</ele>
                <time>2020-08-23T10:59:17.000Z</time>
                <name>Trackpoint 5107</name>
            </trkpt>
            <trkpt lat="49.7632864" lon="10.1512536">
                <ele>187.0</ele>
                <time>2020-08-23T10:59:20.000Z</time>
                <name>Trackpoint 5108</name>
            </trkpt>
            <trkpt lat="49.763152" lon="10.1512568">
                <ele>187.0</ele>
                <time>2020-08-23T10:59:23.000Z</time>
                <name>Trackpoint 5109</name>
            </trkpt>
            <trkpt lat="49.7630144" lon="10.1512616">
                <ele>187.0</ele>
                <time>2020-08-23T10:59:26.000Z</time>
                <name>Trackpoint 5110</name>
            </trkpt>
            <trkpt lat="49.7628736" lon="10.1512648">
                <ele>187.0</ele>
                <time>2020-08-23T10:59:29.000Z</time>
                <name>Trackpoint 5111</name>
            </trkpt>
            <trkpt lat="49.7627712" lon="10.1512808">
                <ele>186.0</ele>
                <time>2020-08-23T10:59:31.000Z</time>
                <name>Trackpoint 5112</name>
            </trkpt>
            <trkpt lat="49.7626656" lon="10.1512944">
                <ele>186.0</ele>
                <time>2020-08-23T10:59:33.000Z</time>
                <name>Trackpoint 5113</name>
            </trkpt>
            <trkpt lat="49.7625536" lon="10.1513072">
                <ele>186.0</ele>
                <time>2020-08-23T10:59:35.000Z</time>
                <name>Trackpoint 5114</name>
            </trkpt>
            <trkpt lat="49.7624384" lon="10.1513216">
                <ele>185.0</ele>
                <time>2020-08-23T10:59:37.000Z</time>
                <name>Trackpoint 5115</name>
            </trkpt>
            <trkpt lat="49.76232" lon="10.1513416">
                <ele>185.0</ele>
                <time>2020-08-23T10:59:39.000Z</time>
                <name>Trackpoint 5116</name>
            </trkpt>
            <trkpt lat="49.7622048" lon="10.151368">
                <ele>185.0</ele>
                <time>2020-08-23T10:59:41.000Z</time>
                <name>Trackpoint 5117</name>
            </trkpt>
            <trkpt lat="49.76208" lon="10.1513928">
                <ele>185.0</ele>
                <time>2020-08-23T10:59:43.000Z</time>
                <name>Trackpoint 5118</name>
            </trkpt>
            <trkpt lat="49.7619616" lon="10.1514256">
                <ele>184.0</ele>
                <time>2020-08-23T10:59:45.000Z</time>
                <name>Trackpoint 5119</name>
            </trkpt>
            <trkpt lat="49.76184" lon="10.1514504">
                <ele>184.0</ele>
                <time>2020-08-23T10:59:47.000Z</time>
                <name>Trackpoint 5120</name>
            </trkpt>
            <trkpt lat="49.7617152" lon="10.1514784">
                <ele>184.0</ele>
                <time>2020-08-23T10:59:49.000Z</time>
                <name>Trackpoint 5121</name>
            </trkpt>
            <trkpt lat="49.7615968" lon="10.1515056">
                <ele>183.0</ele>
                <time>2020-08-23T10:59:51.000Z</time>
                <name>Trackpoint 5122</name>
            </trkpt>
            <trkpt lat="49.7614752" lon="10.1515376">
                <ele>183.0</ele>
                <time>2020-08-23T10:59:53.000Z</time>
                <name>Trackpoint 5123</name>
            </trkpt>
            <trkpt lat="49.76136" lon="10.1515712">
                <ele>183.0</ele>
                <time>2020-08-23T10:59:55.000Z</time>
                <name>Trackpoint 5124</name>
            </trkpt>
            <trkpt lat="49.7612416" lon="10.1516016">
                <ele>183.0</ele>
                <time>2020-08-23T10:59:57.000Z</time>
                <name>Trackpoint 5125</name>
            </trkpt>
            <trkpt lat="49.7611232" lon="10.151624">
                <ele>183.0</ele>
                <time>2020-08-23T10:59:59.000Z</time>
                <name>Trackpoint 5126</name>
            </trkpt>
            <trkpt lat="49.761008" lon="10.1516488">
                <ele>183.0</ele>
                <time>2020-08-23T11:00:01.000Z</time>
                <name>Trackpoint 5127</name>
            </trkpt>
            <trkpt lat="49.7608992" lon="10.1516736">
                <ele>184.0</ele>
                <time>2020-08-23T11:00:03.000Z</time>
                <name>Trackpoint 5128</name>
            </trkpt>
            <trkpt lat="49.7607904" lon="10.1516984">
                <ele>183.0</ele>
                <time>2020-08-23T11:00:05.000Z</time>
                <name>Trackpoint 5129</name>
            </trkpt>
            <trkpt lat="49.7606848" lon="10.1517232">
                <ele>184.0</ele>
                <time>2020-08-23T11:00:07.000Z</time>
                <name>Trackpoint 5130</name>
            </trkpt>
            <trkpt lat="49.7605792" lon="10.1517448">
                <ele>184.0</ele>
                <time>2020-08-23T11:00:09.000Z</time>
                <name>Trackpoint 5131</name>
            </trkpt>
            <trkpt lat="49.7604736" lon="10.1517688">
                <ele>184.0</ele>
                <time>2020-08-23T11:00:11.000Z</time>
                <name>Trackpoint 5132</name>
            </trkpt>
            <trkpt lat="49.760368" lon="10.1517912">
                <ele>184.0</ele>
                <time>2020-08-23T11:00:13.000Z</time>
                <name>Trackpoint 5133</name>
            </trkpt>
            <trkpt lat="49.7602592" lon="10.15182">
                <ele>184.0</ele>
                <time>2020-08-23T11:00:15.000Z</time>
                <name>Trackpoint 5134</name>
            </trkpt>
            <trkpt lat="49.7601504" lon="10.1518424">
                <ele>185.0</ele>
                <time>2020-08-23T11:00:17.000Z</time>
                <name>Trackpoint 5135</name>
            </trkpt>
            <trkpt lat="49.7600416" lon="10.1518648">
                <ele>185.0</ele>
                <time>2020-08-23T11:00:19.000Z</time>
                <name>Trackpoint 5136</name>
            </trkpt>
            <trkpt lat="49.759936" lon="10.1518968">
                <ele>185.0</ele>
                <time>2020-08-23T11:00:21.000Z</time>
                <name>Trackpoint 5137</name>
            </trkpt>
            <trkpt lat="49.7598304" lon="10.1519296">
                <ele>185.0</ele>
                <time>2020-08-23T11:00:23.000Z</time>
                <name>Trackpoint 5138</name>
            </trkpt>
            <trkpt lat="49.7597184" lon="10.1519568">
                <ele>185.0</ele>
                <time>2020-08-23T11:00:25.000Z</time>
                <name>Trackpoint 5139</name>
            </trkpt>
            <trkpt lat="49.7596096" lon="10.1519816">
                <ele>185.0</ele>
                <time>2020-08-23T11:00:27.000Z</time>
                <name>Trackpoint 5140</name>
            </trkpt>
            <trkpt lat="49.7594976" lon="10.152008">
                <ele>185.0</ele>
                <time>2020-08-23T11:00:29.000Z</time>
                <name>Trackpoint 5141</name>
            </trkpt>
            <trkpt lat="49.7593888" lon="10.152032">
                <ele>185.0</ele>
                <time>2020-08-23T11:00:31.000Z</time>
                <name>Trackpoint 5142</name>
            </trkpt>
            <trkpt lat="49.7592736" lon="10.1520568">
                <ele>185.0</ele>
                <time>2020-08-23T11:00:33.000Z</time>
                <name>Trackpoint 5143</name>
            </trkpt>
            <trkpt lat="49.7591616" lon="10.1520832">
                <ele>185.0</ele>
                <time>2020-08-23T11:00:35.000Z</time>
                <name>Trackpoint 5144</name>
            </trkpt>
            <trkpt lat="49.7590528" lon="10.1521128">
                <ele>185.0</ele>
                <time>2020-08-23T11:00:37.000Z</time>
                <name>Trackpoint 5145</name>
            </trkpt>
            <trkpt lat="49.7589376" lon="10.1521368">
                <ele>185.0</ele>
                <time>2020-08-23T11:00:39.000Z</time>
                <name>Trackpoint 5146</name>
            </trkpt>
            <trkpt lat="49.7588288" lon="10.1521616">
                <ele>185.0</ele>
                <time>2020-08-23T11:00:41.000Z</time>
                <name>Trackpoint 5147</name>
            </trkpt>
            <trkpt lat="49.7587168" lon="10.1521832">
                <ele>185.0</ele>
                <time>2020-08-23T11:00:43.000Z</time>
                <name>Trackpoint 5148</name>
            </trkpt>
            <trkpt lat="49.7586048" lon="10.1522064">
                <ele>185.0</ele>
                <time>2020-08-23T11:00:45.000Z</time>
                <name>Trackpoint 5149</name>
            </trkpt>
            <trkpt lat="49.7584928" lon="10.152228">
                <ele>185.0</ele>
                <time>2020-08-23T11:00:47.000Z</time>
                <name>Trackpoint 5150</name>
            </trkpt>
            <trkpt lat="49.7583776" lon="10.1522504">
                <ele>184.0</ele>
                <time>2020-08-23T11:00:49.000Z</time>
                <name>Trackpoint 5151</name>
            </trkpt>
            <trkpt lat="49.7582656" lon="10.1522768">
                <ele>184.0</ele>
                <time>2020-08-23T11:00:51.000Z</time>
                <name>Trackpoint 5152</name>
            </trkpt>
            <trkpt lat="49.7581472" lon="10.1523048">
                <ele>184.0</ele>
                <time>2020-08-23T11:00:53.000Z</time>
                <name>Trackpoint 5153</name>
            </trkpt>
            <trkpt lat="49.7580384" lon="10.1523352">
                <ele>184.0</ele>
                <time>2020-08-23T11:00:55.000Z</time>
                <name>Trackpoint 5154</name>
            </trkpt>
            <trkpt lat="49.7579232" lon="10.1523664">
                <ele>184.0</ele>
                <time>2020-08-23T11:00:57.000Z</time>
                <name>Trackpoint 5155</name>
            </trkpt>
            <trkpt lat="49.7578112" lon="10.1523984">
                <ele>184.0</ele>
                <time>2020-08-23T11:00:59.000Z</time>
                <name>Trackpoint 5156</name>
            </trkpt>
            <trkpt lat="49.7577024" lon="10.1524352">
                <ele>184.0</ele>
                <time>2020-08-23T11:01:01.000Z</time>
                <name>Trackpoint 5157</name>
            </trkpt>
            <trkpt lat="49.7575904" lon="10.152476">
                <ele>184.0</ele>
                <time>2020-08-23T11:01:03.000Z</time>
                <name>Trackpoint 5158</name>
            </trkpt>
            <trkpt lat="49.7574816" lon="10.1525248">
                <ele>183.0</ele>
                <time>2020-08-23T11:01:05.000Z</time>
                <name>Trackpoint 5159</name>
            </trkpt>
            <trkpt lat="49.7573728" lon="10.1525768">
                <ele>183.0</ele>
                <time>2020-08-23T11:01:07.000Z</time>
                <name>Trackpoint 5160</name>
            </trkpt>
            <trkpt lat="49.7572672" lon="10.152632">
                <ele>183.0</ele>
                <time>2020-08-23T11:01:09.000Z</time>
                <name>Trackpoint 5161</name>
            </trkpt>
            <trkpt lat="49.7571616" lon="10.1526936">
                <ele>183.0</ele>
                <time>2020-08-23T11:01:11.000Z</time>
                <name>Trackpoint 5162</name>
            </trkpt>
            <trkpt lat="49.7570624" lon="10.1527584">
                <ele>182.0</ele>
                <time>2020-08-23T11:01:13.000Z</time>
                <name>Trackpoint 5163</name>
            </trkpt>
            <trkpt lat="49.7569664" lon="10.1528352">
                <ele>182.0</ele>
                <time>2020-08-23T11:01:15.000Z</time>
                <name>Trackpoint 5164</name>
            </trkpt>
            <trkpt lat="49.7568736" lon="10.1529152">
                <ele>182.0</ele>
                <time>2020-08-23T11:01:17.000Z</time>
                <name>Trackpoint 5165</name>
            </trkpt>
            <trkpt lat="49.756784" lon="10.1529904">
                <ele>182.0</ele>
                <time>2020-08-23T11:01:19.000Z</time>
                <name>Trackpoint 5166</name>
            </trkpt>
            <trkpt lat="49.7566976" lon="10.153064">
                <ele>182.0</ele>
                <time>2020-08-23T11:01:21.000Z</time>
                <name>Trackpoint 5167</name>
            </trkpt>
            <trkpt lat="49.7566176" lon="10.1531384">
                <ele>182.0</ele>
                <time>2020-08-23T11:01:23.000Z</time>
                <name>Trackpoint 5168</name>
            </trkpt>
            <trkpt lat="49.7565376" lon="10.1532136">
                <ele>181.0</ele>
                <time>2020-08-23T11:01:25.000Z</time>
                <name>Trackpoint 5169</name>
            </trkpt>
            <trkpt lat="49.7564576" lon="10.1532936">
                <ele>181.0</ele>
                <time>2020-08-23T11:01:27.000Z</time>
                <name>Trackpoint 5170</name>
            </trkpt>
            <trkpt lat="49.7563744" lon="10.1533784">
                <ele>181.0</ele>
                <time>2020-08-23T11:01:29.000Z</time>
                <name>Trackpoint 5171</name>
            </trkpt>
            <trkpt lat="49.7562944" lon="10.1534592">
                <ele>181.0</ele>
                <time>2020-08-23T11:01:31.000Z</time>
                <name>Trackpoint 5172</name>
            </trkpt>
            <trkpt lat="49.7562144" lon="10.15354">
                <ele>181.0</ele>
                <time>2020-08-23T11:01:33.000Z</time>
                <name>Trackpoint 5173</name>
            </trkpt>
            <trkpt lat="49.7561344" lon="10.1536304">
                <ele>181.0</ele>
                <time>2020-08-23T11:01:35.000Z</time>
                <name>Trackpoint 5174</name>
            </trkpt>
            <trkpt lat="49.7560448" lon="10.1537152">
                <ele>182.0</ele>
                <time>2020-08-23T11:01:37.000Z</time>
                <name>Trackpoint 5175</name>
            </trkpt>
            <trkpt lat="49.7559584" lon="10.1538048">
                <ele>182.0</ele>
                <time>2020-08-23T11:01:39.000Z</time>
                <name>Trackpoint 5176</name>
            </trkpt>
            <trkpt lat="49.7558624" lon="10.1539048">
                <ele>182.0</ele>
                <time>2020-08-23T11:01:41.000Z</time>
                <name>Trackpoint 5177</name>
            </trkpt>
            <trkpt lat="49.7557728" lon="10.154">
                <ele>182.0</ele>
                <time>2020-08-23T11:01:43.000Z</time>
                <name>Trackpoint 5178</name>
            </trkpt>
            <trkpt lat="49.75568" lon="10.1540968">
                <ele>182.0</ele>
                <time>2020-08-23T11:01:45.000Z</time>
                <name>Trackpoint 5179</name>
            </trkpt>
            <trkpt lat="49.7555872" lon="10.154192">
                <ele>182.0</ele>
                <time>2020-08-23T11:01:47.000Z</time>
                <name>Trackpoint 5180</name>
            </trkpt>
            <trkpt lat="49.7554976" lon="10.1542856">
                <ele>181.0</ele>
                <time>2020-08-23T11:01:49.000Z</time>
                <name>Trackpoint 5181</name>
            </trkpt>
            <trkpt lat="49.7554048" lon="10.1543728">
                <ele>181.0</ele>
                <time>2020-08-23T11:01:51.000Z</time>
                <name>Trackpoint 5182</name>
            </trkpt>
            <trkpt lat="49.7553088" lon="10.1544568">
                <ele>181.0</ele>
                <time>2020-08-23T11:01:53.000Z</time>
                <name>Trackpoint 5183</name>
            </trkpt>
            <trkpt lat="49.7552192" lon="10.1545288">
                <ele>181.0</ele>
                <time>2020-08-23T11:01:55.000Z</time>
                <name>Trackpoint 5184</name>
            </trkpt>
            <trkpt lat="49.7551232" lon="10.154596">
                <ele>181.0</ele>
                <time>2020-08-23T11:01:57.000Z</time>
                <name>Trackpoint 5185</name>
            </trkpt>
            <trkpt lat="49.7550208" lon="10.1546536">
                <ele>180.0</ele>
                <time>2020-08-23T11:01:59.000Z</time>
                <name>Trackpoint 5186</name>
            </trkpt>
            <trkpt lat="49.7549216" lon="10.154708">
                <ele>180.0</ele>
                <time>2020-08-23T11:02:01.000Z</time>
                <name>Trackpoint 5187</name>
            </trkpt>
            <trkpt lat="49.7548192" lon="10.1547648">
                <ele>179.0</ele>
                <time>2020-08-23T11:02:03.000Z</time>
                <name>Trackpoint 5188</name>
            </trkpt>
            <trkpt lat="49.7547104" lon="10.1548136">
                <ele>179.0</ele>
                <time>2020-08-23T11:02:05.000Z</time>
                <name>Trackpoint 5189</name>
            </trkpt>
            <trkpt lat="49.7546048" lon="10.1548664">
                <ele>179.0</ele>
                <time>2020-08-23T11:02:07.000Z</time>
                <name>Trackpoint 5190</name>
            </trkpt>
            <trkpt lat="49.754496" lon="10.1549128">
                <ele>180.0</ele>
                <time>2020-08-23T11:02:09.000Z</time>
                <name>Trackpoint 5191</name>
            </trkpt>
            <trkpt lat="49.7543904" lon="10.1549616">
                <ele>180.0</ele>
                <time>2020-08-23T11:02:11.000Z</time>
                <name>Trackpoint 5192</name>
            </trkpt>
            <trkpt lat="49.7542816" lon="10.1550056">
                <ele>180.0</ele>
                <time>2020-08-23T11:02:13.000Z</time>
                <name>Trackpoint 5193</name>
            </trkpt>
            <trkpt lat="49.7541728" lon="10.1550528">
                <ele>180.0</ele>
                <time>2020-08-23T11:02:15.000Z</time>
                <name>Trackpoint 5194</name>
            </trkpt>
            <trkpt lat="49.754064" lon="10.1550976">
                <ele>180.0</ele>
                <time>2020-08-23T11:02:17.000Z</time>
                <name>Trackpoint 5195</name>
            </trkpt>
            <trkpt lat="49.7539552" lon="10.155144">
                <ele>181.0</ele>
                <time>2020-08-23T11:02:19.000Z</time>
                <name>Trackpoint 5196</name>
            </trkpt>
            <trkpt lat="49.7538464" lon="10.1551904">
                <ele>181.0</ele>
                <time>2020-08-23T11:02:21.000Z</time>
                <name>Trackpoint 5197</name>
            </trkpt>
            <trkpt lat="49.7537408" lon="10.1552352">
                <ele>182.0</ele>
                <time>2020-08-23T11:02:23.000Z</time>
                <name>Trackpoint 5198</name>
            </trkpt>
            <trkpt lat="49.753632" lon="10.1552832">
                <ele>181.0</ele>
                <time>2020-08-23T11:02:25.000Z</time>
                <name>Trackpoint 5199</name>
            </trkpt>
            <trkpt lat="49.7535232" lon="10.155332">
                <ele>181.0</ele>
                <time>2020-08-23T11:02:27.000Z</time>
                <name>Trackpoint 5200</name>
            </trkpt>
            <trkpt lat="49.7534208" lon="10.1553816">
                <ele>181.0</ele>
                <time>2020-08-23T11:02:29.000Z</time>
                <name>Trackpoint 5201</name>
            </trkpt>
            <trkpt lat="49.7533152" lon="10.1554336">
                <ele>181.0</ele>
                <time>2020-08-23T11:02:31.000Z</time>
                <name>Trackpoint 5202</name>
            </trkpt>
            <trkpt lat="49.7532032" lon="10.1554832">
                <ele>180.0</ele>
                <time>2020-08-23T11:02:33.000Z</time>
                <name>Trackpoint 5203</name>
            </trkpt>
            <trkpt lat="49.7530976" lon="10.155532">
                <ele>180.0</ele>
                <time>2020-08-23T11:02:35.000Z</time>
                <name>Trackpoint 5204</name>
            </trkpt>
            <trkpt lat="49.752992" lon="10.1555832">
                <ele>180.0</ele>
                <time>2020-08-23T11:02:37.000Z</time>
                <name>Trackpoint 5205</name>
            </trkpt>
            <trkpt lat="49.7528832" lon="10.1556328">
                <ele>180.0</ele>
                <time>2020-08-23T11:02:39.000Z</time>
                <name>Trackpoint 5206</name>
            </trkpt>
            <trkpt lat="49.752784" lon="10.1556968">
                <ele>180.0</ele>
                <time>2020-08-23T11:02:41.000Z</time>
                <name>Trackpoint 5207</name>
            </trkpt>
            <trkpt lat="49.7526848" lon="10.1557576">
                <ele>180.0</ele>
                <time>2020-08-23T11:02:43.000Z</time>
                <name>Trackpoint 5208</name>
            </trkpt>
            <trkpt lat="49.7525792" lon="10.1557912">
                <ele>180.0</ele>
                <time>2020-08-23T11:02:45.000Z</time>
                <name>Trackpoint 5209</name>
            </trkpt>
            <trkpt lat="49.7524704" lon="10.1558264">
                <ele>180.0</ele>
                <time>2020-08-23T11:02:47.000Z</time>
                <name>Trackpoint 5210</name>
            </trkpt>
            <trkpt lat="49.752368" lon="10.1558784">
                <ele>180.0</ele>
                <time>2020-08-23T11:02:49.000Z</time>
                <name>Trackpoint 5211</name>
            </trkpt>
            <trkpt lat="49.7522656" lon="10.1559264">
                <ele>180.0</ele>
                <time>2020-08-23T11:02:51.000Z</time>
                <name>Trackpoint 5212</name>
            </trkpt>
            <trkpt lat="49.7521632" lon="10.1559696">
                <ele>180.0</ele>
                <time>2020-08-23T11:02:53.000Z</time>
                <name>Trackpoint 5213</name>
            </trkpt>
            <trkpt lat="49.7520672" lon="10.156016">
                <ele>180.0</ele>
                <time>2020-08-23T11:02:55.000Z</time>
                <name>Trackpoint 5214</name>
            </trkpt>
            <trkpt lat="49.7519648" lon="10.15606">
                <ele>180.0</ele>
                <time>2020-08-23T11:02:57.000Z</time>
                <name>Trackpoint 5215</name>
            </trkpt>
            <trkpt lat="49.7518624" lon="10.156108">
                <ele>179.0</ele>
                <time>2020-08-23T11:02:59.000Z</time>
                <name>Trackpoint 5216</name>
            </trkpt>
            <trkpt lat="49.7517632" lon="10.1561544">
                <ele>179.0</ele>
                <time>2020-08-23T11:03:01.000Z</time>
                <name>Trackpoint 5217</name>
            </trkpt>
            <trkpt lat="49.7516608" lon="10.1562008">
                <ele>180.0</ele>
                <time>2020-08-23T11:03:03.000Z</time>
                <name>Trackpoint 5218</name>
            </trkpt>
            <trkpt lat="49.751552" lon="10.1562416">
                <ele>180.0</ele>
                <time>2020-08-23T11:03:05.000Z</time>
                <name>Trackpoint 5219</name>
            </trkpt>
            <trkpt lat="49.7514496" lon="10.1562856">
                <ele>179.0</ele>
                <time>2020-08-23T11:03:07.000Z</time>
                <name>Trackpoint 5220</name>
            </trkpt>
            <trkpt lat="49.751344" lon="10.156332">
                <ele>179.0</ele>
                <time>2020-08-23T11:03:09.000Z</time>
                <name>Trackpoint 5221</name>
            </trkpt>
            <trkpt lat="49.7512352" lon="10.15638">
                <ele>179.0</ele>
                <time>2020-08-23T11:03:11.000Z</time>
                <name>Trackpoint 5222</name>
            </trkpt>
            <trkpt lat="49.7511296" lon="10.1564264">
                <ele>179.0</ele>
                <time>2020-08-23T11:03:13.000Z</time>
                <name>Trackpoint 5223</name>
            </trkpt>
            <trkpt lat="49.7510208" lon="10.1564704">
                <ele>179.0</ele>
                <time>2020-08-23T11:03:15.000Z</time>
                <name>Trackpoint 5224</name>
            </trkpt>
            <trkpt lat="49.7509216" lon="10.1565176">
                <ele>179.0</ele>
                <time>2020-08-23T11:03:17.000Z</time>
                <name>Trackpoint 5225</name>
            </trkpt>
            <trkpt lat="49.7508192" lon="10.1565712">
                <ele>178.0</ele>
                <time>2020-08-23T11:03:19.000Z</time>
                <name>Trackpoint 5226</name>
            </trkpt>
            <trkpt lat="49.7507104" lon="10.1566216">
                <ele>179.0</ele>
                <time>2020-08-23T11:03:21.000Z</time>
                <name>Trackpoint 5227</name>
            </trkpt>
            <trkpt lat="49.7505984" lon="10.1566696">
                <ele>179.0</ele>
                <time>2020-08-23T11:03:23.000Z</time>
                <name>Trackpoint 5228</name>
            </trkpt>
            <trkpt lat="49.7504896" lon="10.1567184">
                <ele>179.0</ele>
                <time>2020-08-23T11:03:25.000Z</time>
                <name>Trackpoint 5229</name>
            </trkpt>
            <trkpt lat="49.7503808" lon="10.1567672">
                <ele>179.0</ele>
                <time>2020-08-23T11:03:27.000Z</time>
                <name>Trackpoint 5230</name>
            </trkpt>
            <trkpt lat="49.7502752" lon="10.1568136">
                <ele>179.0</ele>
                <time>2020-08-23T11:03:29.000Z</time>
                <name>Trackpoint 5231</name>
            </trkpt>
            <trkpt lat="49.7501664" lon="10.1568616">
                <ele>179.0</ele>
                <time>2020-08-23T11:03:31.000Z</time>
                <name>Trackpoint 5232</name>
            </trkpt>
            <trkpt lat="49.750064" lon="10.1569144">
                <ele>178.0</ele>
                <time>2020-08-23T11:03:33.000Z</time>
                <name>Trackpoint 5233</name>
            </trkpt>
            <trkpt lat="49.7499648" lon="10.1569656">
                <ele>178.0</ele>
                <time>2020-08-23T11:03:35.000Z</time>
                <name>Trackpoint 5234</name>
            </trkpt>
            <trkpt lat="49.7498656" lon="10.1570128">
                <ele>178.0</ele>
                <time>2020-08-23T11:03:37.000Z</time>
                <name>Trackpoint 5235</name>
            </trkpt>
            <trkpt lat="49.7497664" lon="10.1570656">
                <ele>178.0</ele>
                <time>2020-08-23T11:03:39.000Z</time>
                <name>Trackpoint 5236</name>
            </trkpt>
            <trkpt lat="49.7496704" lon="10.157108">
                <ele>178.0</ele>
                <time>2020-08-23T11:03:41.000Z</time>
                <name>Trackpoint 5237</name>
            </trkpt>
            <trkpt lat="49.7495776" lon="10.1571512">
                <ele>178.0</ele>
                <time>2020-08-23T11:03:43.000Z</time>
                <name>Trackpoint 5238</name>
            </trkpt>
            <trkpt lat="49.7494816" lon="10.1571968">
                <ele>178.0</ele>
                <time>2020-08-23T11:03:45.000Z</time>
                <name>Trackpoint 5239</name>
            </trkpt>
            <trkpt lat="49.7493792" lon="10.1572464">
                <ele>178.0</ele>
                <time>2020-08-23T11:03:47.000Z</time>
                <name>Trackpoint 5240</name>
            </trkpt>
            <trkpt lat="49.74928" lon="10.1572904">
                <ele>178.0</ele>
                <time>2020-08-23T11:03:49.000Z</time>
                <name>Trackpoint 5241</name>
            </trkpt>
            <trkpt lat="49.749184" lon="10.1573336">
                <ele>177.0</ele>
                <time>2020-08-23T11:03:51.000Z</time>
                <name>Trackpoint 5242</name>
            </trkpt>
            <trkpt lat="49.7490912" lon="10.1573784">
                <ele>177.0</ele>
                <time>2020-08-23T11:03:53.000Z</time>
                <name>Trackpoint 5243</name>
            </trkpt>
            <trkpt lat="49.7490016" lon="10.1574152">
                <ele>177.0</ele>
                <time>2020-08-23T11:03:55.000Z</time>
                <name>Trackpoint 5244</name>
            </trkpt>
            <trkpt lat="49.7489152" lon="10.1574552">
                <ele>177.0</ele>
                <time>2020-08-23T11:03:57.000Z</time>
                <name>Trackpoint 5245</name>
            </trkpt>
            <trkpt lat="49.7488352" lon="10.1575">
                <ele>177.0</ele>
                <time>2020-08-23T11:03:59.000Z</time>
                <name>Trackpoint 5246</name>
            </trkpt>
            <trkpt lat="49.7487488" lon="10.1575336">
                <ele>177.0</ele>
                <time>2020-08-23T11:04:01.000Z</time>
                <name>Trackpoint 5247</name>
            </trkpt>
            <trkpt lat="49.748656" lon="10.157568">
                <ele>177.0</ele>
                <time>2020-08-23T11:04:03.000Z</time>
                <name>Trackpoint 5248</name>
            </trkpt>
            <trkpt lat="49.7485696" lon="10.1576208">
                <ele>177.0</ele>
                <time>2020-08-23T11:04:05.000Z</time>
                <name>Trackpoint 5249</name>
            </trkpt>
            <trkpt lat="49.7484832" lon="10.1576792">
                <ele>177.0</ele>
                <time>2020-08-23T11:04:07.000Z</time>
                <name>Trackpoint 5250</name>
            </trkpt>
            <trkpt lat="49.7483872" lon="10.1577432">
                <ele>177.0</ele>
                <time>2020-08-23T11:04:09.000Z</time>
                <name>Trackpoint 5251</name>
            </trkpt>
            <trkpt lat="49.7482944" lon="10.1578184">
                <ele>177.0</ele>
                <time>2020-08-23T11:04:11.000Z</time>
                <name>Trackpoint 5252</name>
            </trkpt>
            <trkpt lat="49.748208" lon="10.1579088">
                <ele>177.0</ele>
                <time>2020-08-23T11:04:13.000Z</time>
                <name>Trackpoint 5253</name>
            </trkpt>
            <trkpt lat="49.748128" lon="10.1580152">
                <ele>177.0</ele>
                <time>2020-08-23T11:04:15.000Z</time>
                <name>Trackpoint 5254</name>
            </trkpt>
            <trkpt lat="49.7480416" lon="10.1581048">
                <ele>177.0</ele>
                <time>2020-08-23T11:04:17.000Z</time>
                <name>Trackpoint 5255</name>
            </trkpt>
            <trkpt lat="49.747952" lon="10.1581768">
                <ele>177.0</ele>
                <time>2020-08-23T11:04:19.000Z</time>
                <name>Trackpoint 5256</name>
            </trkpt>
            <trkpt lat="49.7478688" lon="10.1582568">
                <ele>177.0</ele>
                <time>2020-08-23T11:04:21.000Z</time>
                <name>Trackpoint 5257</name>
            </trkpt>
            <trkpt lat="49.747792" lon="10.158308">
                <ele>177.0</ele>
                <time>2020-08-23T11:04:23.000Z</time>
                <name>Trackpoint 5258</name>
            </trkpt>
            <trkpt lat="49.7476896" lon="10.1583384">
                <ele>177.0</ele>
                <time>2020-08-23T11:04:25.000Z</time>
                <name>Trackpoint 5259</name>
            </trkpt>
            <trkpt lat="49.7475712" lon="10.1583768">
                <ele>177.0</ele>
                <time>2020-08-23T11:04:27.000Z</time>
                <name>Trackpoint 5260</name>
            </trkpt>
            <trkpt lat="49.7474464" lon="10.1584032">
                <ele>177.0</ele>
                <time>2020-08-23T11:04:29.000Z</time>
                <name>Trackpoint 5261</name>
            </trkpt>
            <trkpt lat="49.7473408" lon="10.15842">
                <ele>177.0</ele>
                <time>2020-08-23T11:04:31.000Z</time>
                <name>Trackpoint 5262</name>
            </trkpt>
            <trkpt lat="49.7472384" lon="10.1584632">
                <ele>177.0</ele>
                <time>2020-08-23T11:04:33.000Z</time>
                <name>Trackpoint 5263</name>
            </trkpt>
            <trkpt lat="49.7471392" lon="10.158512">
                <ele>177.0</ele>
                <time>2020-08-23T11:04:35.000Z</time>
                <name>Trackpoint 5264</name>
            </trkpt>
            <trkpt lat="49.7470368" lon="10.15856">
                <ele>177.0</ele>
                <time>2020-08-23T11:04:37.000Z</time>
                <name>Trackpoint 5265</name>
            </trkpt>
            <trkpt lat="49.7469344" lon="10.1585968">
                <ele>177.0</ele>
                <time>2020-08-23T11:04:39.000Z</time>
                <name>Trackpoint 5266</name>
            </trkpt>
            <trkpt lat="49.7468352" lon="10.1586512">
                <ele>178.0</ele>
                <time>2020-08-23T11:04:41.000Z</time>
                <name>Trackpoint 5267</name>
            </trkpt>
            <trkpt lat="49.7467264" lon="10.1586984">
                <ele>178.0</ele>
                <time>2020-08-23T11:04:43.000Z</time>
                <name>Trackpoint 5268</name>
            </trkpt>
            <trkpt lat="49.74664" lon="10.1587464">
                <ele>177.0</ele>
                <time>2020-08-23T11:04:45.000Z</time>
                <name>Trackpoint 5269</name>
            </trkpt>
            <trkpt lat="49.7465408" lon="10.1587984">
                <ele>177.0</ele>
                <time>2020-08-23T11:04:47.000Z</time>
                <name>Trackpoint 5270</name>
            </trkpt>
            <trkpt lat="49.7464416" lon="10.1588552">
                <ele>177.0</ele>
                <time>2020-08-23T11:04:49.000Z</time>
                <name>Trackpoint 5271</name>
            </trkpt>
            <trkpt lat="49.7463424" lon="10.1589144">
                <ele>177.0</ele>
                <time>2020-08-23T11:04:51.000Z</time>
                <name>Trackpoint 5272</name>
            </trkpt>
            <trkpt lat="49.7462496" lon="10.1589768">
                <ele>177.0</ele>
                <time>2020-08-23T11:04:53.000Z</time>
                <name>Trackpoint 5273</name>
            </trkpt>
            <trkpt lat="49.7461536" lon="10.1590136">
                <ele>177.0</ele>
                <time>2020-08-23T11:04:55.000Z</time>
                <name>Trackpoint 5274</name>
            </trkpt>
            <trkpt lat="49.7460608" lon="10.1590568">
                <ele>177.0</ele>
                <time>2020-08-23T11:04:57.000Z</time>
                <name>Trackpoint 5275</name>
            </trkpt>
            <trkpt lat="49.7459744" lon="10.1591264">
                <ele>177.0</ele>
                <time>2020-08-23T11:04:59.000Z</time>
                <name>Trackpoint 5276</name>
            </trkpt>
            <trkpt lat="49.7458816" lon="10.1591864">
                <ele>177.0</ele>
                <time>2020-08-23T11:05:01.000Z</time>
                <name>Trackpoint 5277</name>
            </trkpt>
            <trkpt lat="49.7457824" lon="10.1592368">
                <ele>178.0</ele>
                <time>2020-08-23T11:05:03.000Z</time>
                <name>Trackpoint 5278</name>
            </trkpt>
            <trkpt lat="49.7456832" lon="10.1592968">
                <ele>178.0</ele>
                <time>2020-08-23T11:05:05.000Z</time>
                <name>Trackpoint 5279</name>
            </trkpt>
            <trkpt lat="49.745584" lon="10.1593584">
                <ele>178.0</ele>
                <time>2020-08-23T11:05:07.000Z</time>
                <name>Trackpoint 5280</name>
            </trkpt>
            <trkpt lat="49.7454784" lon="10.159416">
                <ele>178.0</ele>
                <time>2020-08-23T11:05:09.000Z</time>
                <name>Trackpoint 5281</name>
            </trkpt>
            <trkpt lat="49.7453856" lon="10.1594888">
                <ele>178.0</ele>
                <time>2020-08-23T11:05:11.000Z</time>
                <name>Trackpoint 5282</name>
            </trkpt>
            <trkpt lat="49.7452864" lon="10.1595584">
                <ele>178.0</ele>
                <time>2020-08-23T11:05:13.000Z</time>
                <name>Trackpoint 5283</name>
            </trkpt>
            <trkpt lat="49.7451808" lon="10.1596296">
                <ele>178.0</ele>
                <time>2020-08-23T11:05:15.000Z</time>
                <name>Trackpoint 5284</name>
            </trkpt>
            <trkpt lat="49.7450784" lon="10.1596872">
                <ele>178.0</ele>
                <time>2020-08-23T11:05:17.000Z</time>
                <name>Trackpoint 5285</name>
            </trkpt>
            <trkpt lat="49.744976" lon="10.1597232">
                <ele>178.0</ele>
                <time>2020-08-23T11:05:19.000Z</time>
                <name>Trackpoint 5286</name>
            </trkpt>
            <trkpt lat="49.7448608" lon="10.1597384">
                <ele>180.0</ele>
                <time>2020-08-23T11:05:21.000Z</time>
                <name>Trackpoint 5287</name>
            </trkpt>
            <trkpt lat="49.7447648" lon="10.1597816">
                <ele>180.0</ele>
                <time>2020-08-23T11:05:23.000Z</time>
                <name>Trackpoint 5288</name>
            </trkpt>
            <trkpt lat="49.7446784" lon="10.1598384">
                <ele>180.0</ele>
                <time>2020-08-23T11:05:25.000Z</time>
                <name>Trackpoint 5289</name>
            </trkpt>
            <trkpt lat="49.7445984" lon="10.1598928">
                <ele>180.0</ele>
                <time>2020-08-23T11:05:27.000Z</time>
                <name>Trackpoint 5290</name>
            </trkpt>
            <trkpt lat="49.7445024" lon="10.1599752">
                <ele>179.0</ele>
                <time>2020-08-23T11:05:30.000Z</time>
                <name>Trackpoint 5291</name>
            </trkpt>
            <trkpt lat="49.7444512" lon="10.1600552">
                <ele>178.0</ele>
                <time>2020-08-23T11:05:32.000Z</time>
                <name>Trackpoint 5292</name>
            </trkpt>
            <trkpt lat="49.7444032" lon="10.1601416">
                <ele>178.0</ele>
                <time>2020-08-23T11:05:34.000Z</time>
                <name>Trackpoint 5293</name>
            </trkpt>
            <trkpt lat="49.7443072" lon="10.1602136">
                <ele>178.0</ele>
                <time>2020-08-23T11:05:37.000Z</time>
                <name>Trackpoint 5294</name>
            </trkpt>
            <trkpt lat="49.7442272" lon="10.1602584">
                <ele>179.0</ele>
                <time>2020-08-23T11:05:39.000Z</time>
                <name>Trackpoint 5295</name>
            </trkpt>
            <trkpt lat="49.7441024" lon="10.1603">
                <ele>180.0</ele>
                <time>2020-08-23T11:05:42.000Z</time>
                <name>Trackpoint 5296</name>
            </trkpt>
            <trkpt lat="49.7439776" lon="10.1603568">
                <ele>180.0</ele>
                <time>2020-08-23T11:05:45.000Z</time>
                <name>Trackpoint 5297</name>
            </trkpt>
            <trkpt lat="49.7438656" lon="10.1604184">
                <ele>181.0</ele>
                <time>2020-08-23T11:05:48.000Z</time>
                <name>Trackpoint 5298</name>
            </trkpt>
            <trkpt lat="49.743792" lon="10.1604728">
                <ele>181.0</ele>
                <time>2020-08-23T11:05:50.000Z</time>
                <name>Trackpoint 5299</name>
            </trkpt>
            <trkpt lat="49.7436864" lon="10.1605568">
                <ele>181.0</ele>
                <time>2020-08-23T11:05:53.000Z</time>
                <name>Trackpoint 5300</name>
            </trkpt>
            <trkpt lat="49.7436192" lon="10.16062">
                <ele>180.0</ele>
                <time>2020-08-23T11:05:55.000Z</time>
                <name>Trackpoint 5301</name>
            </trkpt>
            <trkpt lat="49.7435424" lon="10.1606776">
                <ele>181.0</ele>
                <time>2020-08-23T11:05:57.000Z</time>
                <name>Trackpoint 5302</name>
            </trkpt>
            <trkpt lat="49.7434656" lon="10.1607352">
                <ele>180.0</ele>
                <time>2020-08-23T11:05:59.000Z</time>
                <name>Trackpoint 5303</name>
            </trkpt>
            <trkpt lat="49.7433952" lon="10.1607968">
                <ele>180.0</ele>
                <time>2020-08-23T11:06:01.000Z</time>
                <name>Trackpoint 5304</name>
            </trkpt>
            <trkpt lat="49.7433024" lon="10.1608816">
                <ele>180.0</ele>
                <time>2020-08-23T11:06:04.000Z</time>
                <name>Trackpoint 5305</name>
            </trkpt>
            <trkpt lat="49.7432224" lon="10.1609496">
                <ele>181.0</ele>
                <time>2020-08-23T11:06:07.000Z</time>
                <name>Trackpoint 5306</name>
            </trkpt>
            <trkpt lat="49.7431456" lon="10.1609968">
                <ele>181.0</ele>
                <time>2020-08-23T11:06:11.000Z</time>
                <name>Trackpoint 5307</name>
            </trkpt>
            <trkpt lat="49.7430528" lon="10.1610672">
                <ele>184.0</ele>
                <time>2020-08-23T11:06:59.000Z</time>
                <name>Trackpoint 5308</name>
            </trkpt>
            <trkpt lat="49.7429632" lon="10.1611416">
                <ele>184.0</ele>
                <time>2020-08-23T11:07:02.000Z</time>
                <name>Trackpoint 5309</name>
            </trkpt>
            <trkpt lat="49.7428768" lon="10.1612128">
                <ele>183.0</ele>
                <time>2020-08-23T11:07:04.000Z</time>
                <name>Trackpoint 5310</name>
            </trkpt>
            <trkpt lat="49.7427904" lon="10.161288">
                <ele>183.0</ele>
                <time>2020-08-23T11:07:06.000Z</time>
                <name>Trackpoint 5311</name>
            </trkpt>
            <trkpt lat="49.7427136" lon="10.1613616">
                <ele>183.0</ele>
                <time>2020-08-23T11:07:08.000Z</time>
                <name>Trackpoint 5312</name>
            </trkpt>
            <trkpt lat="49.74264" lon="10.16142">
                <ele>183.0</ele>
                <time>2020-08-23T11:07:10.000Z</time>
                <name>Trackpoint 5313</name>
            </trkpt>
            <trkpt lat="49.7425472" lon="10.1614936">
                <ele>183.0</ele>
                <time>2020-08-23T11:07:12.000Z</time>
                <name>Trackpoint 5314</name>
            </trkpt>
            <trkpt lat="49.742448" lon="10.1615648">
                <ele>183.0</ele>
                <time>2020-08-23T11:07:14.000Z</time>
                <name>Trackpoint 5315</name>
            </trkpt>
            <trkpt lat="49.742352" lon="10.1616296">
                <ele>183.0</ele>
                <time>2020-08-23T11:07:16.000Z</time>
                <name>Trackpoint 5316</name>
            </trkpt>
            <trkpt lat="49.742272" lon="10.1616888">
                <ele>183.0</ele>
                <time>2020-08-23T11:07:18.000Z</time>
                <name>Trackpoint 5317</name>
            </trkpt>
            <trkpt lat="49.7421632" lon="10.1617536">
                <ele>181.0</ele>
                <time>2020-08-23T11:07:21.000Z</time>
                <name>Trackpoint 5318</name>
            </trkpt>
            <trkpt lat="49.7420768" lon="10.1618048">
                <ele>180.0</ele>
                <time>2020-08-23T11:07:24.000Z</time>
                <name>Trackpoint 5319</name>
            </trkpt>
            <trkpt lat="49.7419584" lon="10.161852">
                <ele>180.0</ele>
                <time>2020-08-23T11:07:28.000Z</time>
                <name>Trackpoint 5320</name>
            </trkpt>
            <trkpt lat="49.741856" lon="10.1619416">
                <ele>179.0</ele>
                <time>2020-08-23T11:07:31.000Z</time>
                <name>Trackpoint 5321</name>
            </trkpt>
            <trkpt lat="49.741776" lon="10.1620232">
                <ele>179.0</ele>
                <time>2020-08-23T11:07:33.000Z</time>
                <name>Trackpoint 5322</name>
            </trkpt>
            <trkpt lat="49.7417024" lon="10.1621088">
                <ele>178.0</ele>
                <time>2020-08-23T11:07:35.000Z</time>
                <name>Trackpoint 5323</name>
            </trkpt>
            <trkpt lat="49.7416224" lon="10.1621904">
                <ele>178.0</ele>
                <time>2020-08-23T11:07:37.000Z</time>
                <name>Trackpoint 5324</name>
            </trkpt>
            <trkpt lat="49.7415392" lon="10.1622584">
                <ele>177.0</ele>
                <time>2020-08-23T11:07:39.000Z</time>
                <name>Trackpoint 5325</name>
            </trkpt>
            <trkpt lat="49.741456" lon="10.1623232">
                <ele>176.0</ele>
                <time>2020-08-23T11:07:41.000Z</time>
                <name>Trackpoint 5326</name>
            </trkpt>
            <trkpt lat="49.7413792" lon="10.1623832">
                <ele>175.0</ele>
                <time>2020-08-23T11:07:43.000Z</time>
                <name>Trackpoint 5327</name>
            </trkpt>
            <trkpt lat="49.7413024" lon="10.162448">
                <ele>174.0</ele>
                <time>2020-08-23T11:07:45.000Z</time>
                <name>Trackpoint 5328</name>
            </trkpt>
            <trkpt lat="49.7412288" lon="10.1625208">
                <ele>174.0</ele>
                <time>2020-08-23T11:07:47.000Z</time>
                <name>Trackpoint 5329</name>
            </trkpt>
            <trkpt lat="49.7411584" lon="10.1625832">
                <ele>174.0</ele>
                <time>2020-08-23T11:07:49.000Z</time>
                <name>Trackpoint 5330</name>
            </trkpt>
            <trkpt lat="49.7410848" lon="10.1626384">
                <ele>174.0</ele>
                <time>2020-08-23T11:07:51.000Z</time>
                <name>Trackpoint 5331</name>
            </trkpt>
            <trkpt lat="49.740992" lon="10.16272">
                <ele>175.0</ele>
                <time>2020-08-23T11:07:54.000Z</time>
                <name>Trackpoint 5332</name>
            </trkpt>
            <trkpt lat="49.740928" lon="10.1627928">
                <ele>176.0</ele>
                <time>2020-08-23T11:07:57.000Z</time>
                <name>Trackpoint 5333</name>
            </trkpt>
            <trkpt lat="49.7408416" lon="10.1628248">
                <ele>176.0</ele>
                <time>2020-08-23T11:08:03.000Z</time>
                <name>Trackpoint 5334</name>
            </trkpt>
            <trkpt lat="49.740752" lon="10.1628616">
                <ele>176.0</ele>
                <time>2020-08-23T11:08:08.000Z</time>
                <name>Trackpoint 5335</name>
            </trkpt>
            <trkpt lat="49.7406592" lon="10.1629264">
                <ele>177.0</ele>
                <time>2020-08-23T11:08:12.000Z</time>
                <name>Trackpoint 5336</name>
            </trkpt>
            <trkpt lat="49.7405792" lon="10.16298">
                <ele>177.0</ele>
                <time>2020-08-23T11:08:16.000Z</time>
                <name>Trackpoint 5337</name>
            </trkpt>
            <trkpt lat="49.74048" lon="10.1629232">
                <ele>177.0</ele>
                <time>2020-08-23T11:08:21.000Z</time>
                <name>Trackpoint 5338</name>
            </trkpt>
            <trkpt lat="49.740432" lon="10.16282">
                <ele>178.0</ele>
                <time>2020-08-23T11:08:24.000Z</time>
                <name>Trackpoint 5339</name>
            </trkpt>
            <trkpt lat="49.7403712" lon="10.1627464">
                <ele>178.0</ele>
                <time>2020-08-23T11:08:52.000Z</time>
                <name>Trackpoint 5340</name>
            </trkpt>
            <trkpt lat="49.7403232" lon="10.162668">
                <ele>178.0</ele>
                <time>2020-08-23T11:08:56.000Z</time>
                <name>Trackpoint 5341</name>
            </trkpt>
            <trkpt lat="49.7402688" lon="10.162592">
                <ele>178.0</ele>
                <time>2020-08-23T11:09:00.000Z</time>
                <name>Trackpoint 5342</name>
            </trkpt>
            <trkpt lat="49.7401856" lon="10.1625416">
                <ele>178.0</ele>
                <time>2020-08-23T11:09:07.000Z</time>
                <name>Trackpoint 5343</name>
            </trkpt>
            <trkpt lat="49.740096" lon="10.1625248">
                <ele>178.0</ele>
                <time>2020-08-23T11:09:28.000Z</time>
                <name>Trackpoint 5344</name>
            </trkpt>
            <trkpt lat="49.7400032" lon="10.1625336">
                <ele>179.0</ele>
                <time>2020-08-23T11:09:34.000Z</time>
                <name>Trackpoint 5345</name>
            </trkpt>
            <trkpt lat="49.7399904" lon="10.1626504">
                <ele>179.0</ele>
                <time>2020-08-23T11:09:50.000Z</time>
                <name>Trackpoint 5346</name>
            </trkpt>
            <trkpt lat="49.7400288" lon="10.1627568">
                <ele>179.0</ele>
                <time>2020-08-23T11:09:54.000Z</time>
                <name>Trackpoint 5347</name>
            </trkpt>
            <trkpt lat="49.7400736" lon="10.1628512">
                <ele>179.0</ele>
                <time>2020-08-23T11:09:59.000Z</time>
                <name>Trackpoint 5348</name>
            </trkpt>
            <trkpt lat="49.7400704" lon="10.1629488">
                <ele>176.0</ele>
                <time>2020-08-23T11:23:48.000Z</time>
                <name>Trackpoint 5349</name>
            </trkpt>
            <trkpt lat="49.7400384" lon="10.16304">
                <ele>173.0</ele>
                <time>2020-08-23T11:23:57.000Z</time>
                <name>Trackpoint 5350</name>
            </trkpt>
            <trkpt lat="49.7399392" lon="10.1630472">
                <ele>173.0</ele>
                <time>2020-08-23T11:27:05.000Z</time>
                <name>Trackpoint 5351</name>
            </trkpt>
            <trkpt lat="49.7398688" lon="10.163108">
                <ele>173.0</ele>
                <time>2020-08-23T11:27:11.000Z</time>
                <name>Trackpoint 5352</name>
            </trkpt>
            <trkpt lat="49.7398272" lon="10.1632">
                <ele>173.0</ele>
                <time>2020-08-23T11:27:15.000Z</time>
                <name>Trackpoint 5353</name>
            </trkpt>
            <trkpt lat="49.7397856" lon="10.163292">
                <ele>173.0</ele>
                <time>2020-08-23T11:27:18.000Z</time>
                <name>Trackpoint 5354</name>
            </trkpt>
            <trkpt lat="49.7397376" lon="10.1633864">
                <ele>174.0</ele>
                <time>2020-08-23T11:27:22.000Z</time>
                <name>Trackpoint 5355</name>
            </trkpt>
            <trkpt lat="49.7396608" lon="10.163448">
                <ele>174.0</ele>
                <time>2020-08-23T11:27:33.000Z</time>
                <name>Trackpoint 5356</name>
            </trkpt>
            <trkpt lat="49.73968" lon="10.1635464">
                <ele>174.0</ele>
                <time>2020-08-23T11:28:39.000Z</time>
                <name>Trackpoint 5357</name>
            </trkpt>
            <trkpt lat="49.739728" lon="10.1636552">
                <ele>174.0</ele>
                <time>2020-08-23T11:28:44.000Z</time>
                <name>Trackpoint 5358</name>
            </trkpt>
            <trkpt lat="49.7397888" lon="10.1637432">
                <ele>174.0</ele>
                <time>2020-08-23T11:28:48.000Z</time>
                <name>Trackpoint 5359</name>
            </trkpt>
            <trkpt lat="49.7398272" lon="10.163868">
                <ele>174.0</ele>
                <time>2020-08-23T11:28:51.000Z</time>
                <name>Trackpoint 5360</name>
            </trkpt>
            <trkpt lat="49.7398336" lon="10.1639656">
                <ele>174.0</ele>
                <time>2020-08-23T11:28:53.000Z</time>
                <name>Trackpoint 5361</name>
            </trkpt>
            <trkpt lat="49.739856" lon="10.1640768">
                <ele>174.0</ele>
                <time>2020-08-23T11:28:56.000Z</time>
                <name>Trackpoint 5362</name>
            </trkpt>
            <trkpt lat="49.7398912" lon="10.1641712">
                <ele>174.0</ele>
                <time>2020-08-23T11:29:00.000Z</time>
                <name>Trackpoint 5363</name>
            </trkpt>
            <trkpt lat="49.7399488" lon="10.1642568">
                <ele>175.0</ele>
                <time>2020-08-23T11:30:09.000Z</time>
                <name>Trackpoint 5364</name>
            </trkpt>
            <trkpt lat="49.7399872" lon="10.1643664">
                <ele>175.0</ele>
                <time>2020-08-23T11:30:13.000Z</time>
                <name>Trackpoint 5365</name>
            </trkpt>
            <trkpt lat="49.7400192" lon="10.1644832">
                <ele>176.0</ele>
                <time>2020-08-23T11:30:16.000Z</time>
                <name>Trackpoint 5366</name>
            </trkpt>
            <trkpt lat="49.7400704" lon="10.1646016">
                <ele>177.0</ele>
                <time>2020-08-23T11:30:19.000Z</time>
                <name>Trackpoint 5367</name>
            </trkpt>
            <trkpt lat="49.7401056" lon="10.1646904">
                <ele>177.0</ele>
                <time>2020-08-23T11:30:21.000Z</time>
                <name>Trackpoint 5368</name>
            </trkpt>
            <trkpt lat="49.7401536" lon="10.1648056">
                <ele>177.0</ele>
                <time>2020-08-23T11:30:24.000Z</time>
                <name>Trackpoint 5369</name>
            </trkpt>
            <trkpt lat="49.7402048" lon="10.1649176">
                <ele>177.0</ele>
                <time>2020-08-23T11:30:27.000Z</time>
                <name>Trackpoint 5370</name>
            </trkpt>
            <trkpt lat="49.7402432" lon="10.1650064">
                <ele>176.0</ele>
                <time>2020-08-23T11:30:29.000Z</time>
                <name>Trackpoint 5371</name>
            </trkpt>
            <trkpt lat="49.7402944" lon="10.1651288">
                <ele>177.0</ele>
                <time>2020-08-23T11:30:32.000Z</time>
                <name>Trackpoint 5372</name>
            </trkpt>
            <trkpt lat="49.7403328" lon="10.16522">
                <ele>177.0</ele>
                <time>2020-08-23T11:30:34.000Z</time>
                <name>Trackpoint 5373</name>
            </trkpt>
            <trkpt lat="49.7403552" lon="10.1653296">
                <ele>178.0</ele>
                <time>2020-08-23T11:30:36.000Z</time>
                <name>Trackpoint 5374</name>
            </trkpt>
            <trkpt lat="49.7404" lon="10.1654352">
                <ele>179.0</ele>
                <time>2020-08-23T11:30:39.000Z</time>
                <name>Trackpoint 5375</name>
            </trkpt>
            <trkpt lat="49.740432" lon="10.1655328">
                <ele>180.0</ele>
                <time>2020-08-23T11:31:39.000Z</time>
                <name>Trackpoint 5376</name>
            </trkpt>
            <trkpt lat="49.7404832" lon="10.1656152">
                <ele>181.0</ele>
                <time>2020-08-23T11:31:43.000Z</time>
                <name>Trackpoint 5377</name>
            </trkpt>
            <trkpt lat="49.740528" lon="10.1656936">
                <ele>180.0</ele>
                <time>2020-08-23T11:32:33.000Z</time>
                <name>Trackpoint 5378</name>
            </trkpt>
            <trkpt lat="49.7405472" lon="10.1657888">
                <ele>181.0</ele>
                <time>2020-08-23T11:32:47.000Z</time>
                <name>Trackpoint 5379</name>
            </trkpt>
            <trkpt lat="49.7405824" lon="10.1659168">
                <ele>181.0</ele>
                <time>2020-08-23T11:32:50.000Z</time>
                <name>Trackpoint 5380</name>
            </trkpt>
            <trkpt lat="49.740624" lon="10.1660032">
                <ele>181.0</ele>
                <time>2020-08-23T11:32:52.000Z</time>
                <name>Trackpoint 5381</name>
            </trkpt>
            <trkpt lat="49.7406624" lon="10.1660992">
                <ele>181.0</ele>
                <time>2020-08-23T11:32:54.000Z</time>
                <name>Trackpoint 5382</name>
            </trkpt>
            <trkpt lat="49.7407072" lon="10.166212">
                <ele>181.0</ele>
                <time>2020-08-23T11:32:56.000Z</time>
                <name>Trackpoint 5383</name>
            </trkpt>
            <trkpt lat="49.740752" lon="10.166344">
                <ele>181.0</ele>
                <time>2020-08-23T11:32:58.000Z</time>
                <name>Trackpoint 5384</name>
            </trkpt>
            <trkpt lat="49.7408064" lon="10.1664584">
                <ele>181.0</ele>
                <time>2020-08-23T11:33:00.000Z</time>
                <name>Trackpoint 5385</name>
            </trkpt>
            <trkpt lat="49.740848" lon="10.1665688">
                <ele>181.0</ele>
                <time>2020-08-23T11:33:02.000Z</time>
                <name>Trackpoint 5386</name>
            </trkpt>
            <trkpt lat="49.7408864" lon="10.166672">
                <ele>181.0</ele>
                <time>2020-08-23T11:33:04.000Z</time>
                <name>Trackpoint 5387</name>
            </trkpt>
            <trkpt lat="49.7409184" lon="10.1667744">
                <ele>181.0</ele>
                <time>2020-08-23T11:33:06.000Z</time>
                <name>Trackpoint 5388</name>
            </trkpt>
            <trkpt lat="49.7409472" lon="10.1668768">
                <ele>180.0</ele>
                <time>2020-08-23T11:33:09.000Z</time>
                <name>Trackpoint 5389</name>
            </trkpt>
            <trkpt lat="49.7409856" lon="10.1669728">
                <ele>180.0</ele>
                <time>2020-08-23T11:33:13.000Z</time>
                <name>Trackpoint 5390</name>
            </trkpt>
            <trkpt lat="49.7410624" lon="10.1670512">
                <ele>180.0</ele>
                <time>2020-08-23T11:33:16.000Z</time>
                <name>Trackpoint 5391</name>
            </trkpt>
            <trkpt lat="49.7411232" lon="10.16698">
                <ele>180.0</ele>
                <time>2020-08-23T11:33:20.000Z</time>
                <name>Trackpoint 5392</name>
            </trkpt>
            <trkpt lat="49.7411872" lon="10.166908">
                <ele>181.0</ele>
                <time>2020-08-23T11:33:25.000Z</time>
                <name>Trackpoint 5393</name>
            </trkpt>
            <trkpt lat="49.74128" lon="10.1668304">
                <ele>181.0</ele>
                <time>2020-08-23T11:33:28.000Z</time>
                <name>Trackpoint 5394</name>
            </trkpt>
            <trkpt lat="49.7413696" lon="10.1667856">
                <ele>181.0</ele>
                <time>2020-08-23T11:33:31.000Z</time>
                <name>Trackpoint 5395</name>
            </trkpt>
            <trkpt lat="49.741456" lon="10.1667496">
                <ele>181.0</ele>
                <time>2020-08-23T11:33:34.000Z</time>
                <name>Trackpoint 5396</name>
            </trkpt>
            <trkpt lat="49.7415008" lon="10.16666">
                <ele>181.0</ele>
                <time>2020-08-23T11:33:37.000Z</time>
                <name>Trackpoint 5397</name>
            </trkpt>
            <trkpt lat="49.741456" lon="10.1665472">
                <ele>180.0</ele>
                <time>2020-08-23T11:33:40.000Z</time>
                <name>Trackpoint 5398</name>
            </trkpt>
            <trkpt lat="49.7414144" lon="10.1664632">
                <ele>181.0</ele>
                <time>2020-08-23T11:33:42.000Z</time>
                <name>Trackpoint 5399</name>
            </trkpt>
            <trkpt lat="49.74136" lon="10.1663736">
                <ele>181.0</ele>
                <time>2020-08-23T11:33:44.000Z</time>
                <name>Trackpoint 5400</name>
            </trkpt>
            <trkpt lat="49.7413056" lon="10.166268">
                <ele>181.0</ele>
                <time>2020-08-23T11:33:46.000Z</time>
                <name>Trackpoint 5401</name>
            </trkpt>
            <trkpt lat="49.7412448" lon="10.16616">
                <ele>181.0</ele>
                <time>2020-08-23T11:33:48.000Z</time>
                <name>Trackpoint 5402</name>
            </trkpt>
            <trkpt lat="49.741184" lon="10.1660496">
                <ele>181.0</ele>
                <time>2020-08-23T11:33:50.000Z</time>
                <name>Trackpoint 5403</name>
            </trkpt>
            <trkpt lat="49.7411264" lon="10.1659384">
                <ele>181.0</ele>
                <time>2020-08-23T11:33:52.000Z</time>
                <name>Trackpoint 5404</name>
            </trkpt>
            <trkpt lat="49.7410752" lon="10.1658288">
                <ele>181.0</ele>
                <time>2020-08-23T11:33:54.000Z</time>
                <name>Trackpoint 5405</name>
            </trkpt>
            <trkpt lat="49.7410176" lon="10.1657312">
                <ele>181.0</ele>
                <time>2020-08-23T11:33:56.000Z</time>
                <name>Trackpoint 5406</name>
            </trkpt>
            <trkpt lat="49.7409088" lon="10.1657384">
                <ele>181.0</ele>
                <time>2020-08-23T11:33:59.000Z</time>
                <name>Trackpoint 5407</name>
            </trkpt>
            <trkpt lat="49.740848" lon="10.1658112">
                <ele>180.0</ele>
                <time>2020-08-23T11:34:01.000Z</time>
                <name>Trackpoint 5408</name>
            </trkpt>
            <trkpt lat="49.7407456" lon="10.1658064">
                <ele>181.0</ele>
                <time>2020-08-23T11:34:05.000Z</time>
                <name>Trackpoint 5409</name>
            </trkpt>
            <trkpt lat="49.7406528" lon="10.1658112">
                <ele>181.0</ele>
                <time>2020-08-23T11:34:09.000Z</time>
                <name>Trackpoint 5410</name>
            </trkpt>
            <trkpt lat="49.7405728" lon="10.1658696">
                <ele>181.0</ele>
                <time>2020-08-23T11:34:13.000Z</time>
                <name>Trackpoint 5411</name>
            </trkpt>
            <trkpt lat="49.7404832" lon="10.1659368">
                <ele>181.0</ele>
                <time>2020-08-23T11:34:16.000Z</time>
                <name>Trackpoint 5412</name>
            </trkpt>
            <trkpt lat="49.7404064" lon="10.165988">
                <ele>180.0</ele>
                <time>2020-08-23T11:34:18.000Z</time>
                <name>Trackpoint 5413</name>
            </trkpt>
            <trkpt lat="49.7403264" lon="10.166052">
                <ele>180.0</ele>
                <time>2020-08-23T11:34:20.000Z</time>
                <name>Trackpoint 5414</name>
            </trkpt>
            <trkpt lat="49.7402432" lon="10.1661128">
                <ele>180.0</ele>
                <time>2020-08-23T11:34:22.000Z</time>
                <name>Trackpoint 5415</name>
            </trkpt>
            <trkpt lat="49.7401664" lon="10.1661784">
                <ele>180.0</ele>
                <time>2020-08-23T11:34:24.000Z</time>
                <name>Trackpoint 5416</name>
            </trkpt>
            <trkpt lat="49.7400768" lon="10.1662104">
                <ele>180.0</ele>
                <time>2020-08-23T11:34:27.000Z</time>
                <name>Trackpoint 5417</name>
            </trkpt>
            <trkpt lat="49.7399904" lon="10.1662464">
                <ele>180.0</ele>
                <time>2020-08-23T11:35:11.000Z</time>
                <name>Trackpoint 5418</name>
            </trkpt>
            <trkpt lat="49.7399168" lon="10.1663328">
                <ele>180.0</ele>
                <time>2020-08-23T11:35:15.000Z</time>
                <name>Trackpoint 5419</name>
            </trkpt>
            <trkpt lat="49.7398464" lon="10.16642">
                <ele>180.0</ele>
                <time>2020-08-23T11:35:18.000Z</time>
                <name>Trackpoint 5420</name>
            </trkpt>
            <trkpt lat="49.7397408" lon="10.1664952">
                <ele>180.0</ele>
                <time>2020-08-23T11:35:21.000Z</time>
                <name>Trackpoint 5421</name>
            </trkpt>
            <trkpt lat="49.7396384" lon="10.1665752">
                <ele>180.0</ele>
                <time>2020-08-23T11:35:24.000Z</time>
                <name>Trackpoint 5422</name>
            </trkpt>
            <trkpt lat="49.739568" lon="10.1666448">
                <ele>180.0</ele>
                <time>2020-08-23T11:35:26.000Z</time>
                <name>Trackpoint 5423</name>
            </trkpt>
            <trkpt lat="49.7394784" lon="10.1667072">
                <ele>180.0</ele>
                <time>2020-08-23T11:35:28.000Z</time>
                <name>Trackpoint 5424</name>
            </trkpt>
            <trkpt lat="49.739392" lon="10.1667856">
                <ele>180.0</ele>
                <time>2020-08-23T11:35:30.000Z</time>
                <name>Trackpoint 5425</name>
            </trkpt>
            <trkpt lat="49.7392928" lon="10.1668464">
                <ele>180.0</ele>
                <time>2020-08-23T11:35:32.000Z</time>
                <name>Trackpoint 5426</name>
            </trkpt>
            <trkpt lat="49.739184" lon="10.1668952">
                <ele>180.0</ele>
                <time>2020-08-23T11:35:34.000Z</time>
                <name>Trackpoint 5427</name>
            </trkpt>
            <trkpt lat="49.7390784" lon="10.166948">
                <ele>180.0</ele>
                <time>2020-08-23T11:35:36.000Z</time>
                <name>Trackpoint 5428</name>
            </trkpt>
            <trkpt lat="49.738976" lon="10.167004">
                <ele>180.0</ele>
                <time>2020-08-23T11:35:38.000Z</time>
                <name>Trackpoint 5429</name>
            </trkpt>
            <trkpt lat="49.738864" lon="10.1670616">
                <ele>180.0</ele>
                <time>2020-08-23T11:35:40.000Z</time>
                <name>Trackpoint 5430</name>
            </trkpt>
            <trkpt lat="49.7387552" lon="10.1671216">
                <ele>180.0</ele>
                <time>2020-08-23T11:35:42.000Z</time>
                <name>Trackpoint 5431</name>
            </trkpt>
            <trkpt lat="49.73864" lon="10.1671864">
                <ele>180.0</ele>
                <time>2020-08-23T11:35:44.000Z</time>
                <name>Trackpoint 5432</name>
            </trkpt>
            <trkpt lat="49.7385408" lon="10.1672488">
                <ele>180.0</ele>
                <time>2020-08-23T11:35:46.000Z</time>
                <name>Trackpoint 5433</name>
            </trkpt>
            <trkpt lat="49.7384352" lon="10.1673088">
                <ele>180.0</ele>
                <time>2020-08-23T11:35:48.000Z</time>
                <name>Trackpoint 5434</name>
            </trkpt>
            <trkpt lat="49.7383232" lon="10.1673616">
                <ele>180.0</ele>
                <time>2020-08-23T11:35:50.000Z</time>
                <name>Trackpoint 5435</name>
            </trkpt>
            <trkpt lat="49.7382176" lon="10.1674216">
                <ele>180.0</ele>
                <time>2020-08-23T11:35:52.000Z</time>
                <name>Trackpoint 5436</name>
            </trkpt>
            <trkpt lat="49.7381024" lon="10.1674696">
                <ele>180.0</ele>
                <time>2020-08-23T11:35:54.000Z</time>
                <name>Trackpoint 5437</name>
            </trkpt>
            <trkpt lat="49.7379904" lon="10.1675032">
                <ele>180.0</ele>
                <time>2020-08-23T11:35:56.000Z</time>
                <name>Trackpoint 5438</name>
            </trkpt>
            <trkpt lat="49.737888" lon="10.1675328">
                <ele>180.0</ele>
                <time>2020-08-23T11:35:58.000Z</time>
                <name>Trackpoint 5439</name>
            </trkpt>
            <trkpt lat="49.7377856" lon="10.167568">
                <ele>181.0</ele>
                <time>2020-08-23T11:36:00.000Z</time>
                <name>Trackpoint 5440</name>
            </trkpt>
            <trkpt lat="49.7376928" lon="10.1676184">
                <ele>180.0</ele>
                <time>2020-08-23T11:36:02.000Z</time>
                <name>Trackpoint 5441</name>
            </trkpt>
            <trkpt lat="49.7376256" lon="10.1677112">
                <ele>180.0</ele>
                <time>2020-08-23T11:36:04.000Z</time>
                <name>Trackpoint 5442</name>
            </trkpt>
            <trkpt lat="49.7375744" lon="10.1678688">
                <ele>180.0</ele>
                <time>2020-08-23T11:36:06.000Z</time>
                <name>Trackpoint 5443</name>
            </trkpt>
            <trkpt lat="49.7375264" lon="10.1680272">
                <ele>180.0</ele>
                <time>2020-08-23T11:36:08.000Z</time>
                <name>Trackpoint 5444</name>
            </trkpt>
            <trkpt lat="49.737456" lon="10.1681616">
                <ele>180.0</ele>
                <time>2020-08-23T11:36:10.000Z</time>
                <name>Trackpoint 5445</name>
            </trkpt>
            <trkpt lat="49.7373696" lon="10.1682456">
                <ele>180.0</ele>
                <time>2020-08-23T11:36:12.000Z</time>
                <name>Trackpoint 5446</name>
            </trkpt>
            <trkpt lat="49.7372864" lon="10.1683">
                <ele>180.0</ele>
                <time>2020-08-23T11:36:14.000Z</time>
                <name>Trackpoint 5447</name>
            </trkpt>
            <trkpt lat="49.7371968" lon="10.1683528">
                <ele>180.0</ele>
                <time>2020-08-23T11:36:16.000Z</time>
                <name>Trackpoint 5448</name>
            </trkpt>
            <trkpt lat="49.7371072" lon="10.16842">
                <ele>180.0</ele>
                <time>2020-08-23T11:36:18.000Z</time>
                <name>Trackpoint 5449</name>
            </trkpt>
            <trkpt lat="49.737008" lon="10.1684816">
                <ele>180.0</ele>
                <time>2020-08-23T11:36:20.000Z</time>
                <name>Trackpoint 5450</name>
            </trkpt>
            <trkpt lat="49.7369088" lon="10.1685464">
                <ele>180.0</ele>
                <time>2020-08-23T11:36:22.000Z</time>
                <name>Trackpoint 5451</name>
            </trkpt>
            <trkpt lat="49.7368128" lon="10.1686184">
                <ele>180.0</ele>
                <time>2020-08-23T11:36:24.000Z</time>
                <name>Trackpoint 5452</name>
            </trkpt>
            <trkpt lat="49.73672" lon="10.1686872">
                <ele>180.0</ele>
                <time>2020-08-23T11:36:26.000Z</time>
                <name>Trackpoint 5453</name>
            </trkpt>
            <trkpt lat="49.7366176" lon="10.1687472">
                <ele>180.0</ele>
                <time>2020-08-23T11:36:28.000Z</time>
                <name>Trackpoint 5454</name>
            </trkpt>
            <trkpt lat="49.7365152" lon="10.1687944">
                <ele>180.0</ele>
                <time>2020-08-23T11:36:30.000Z</time>
                <name>Trackpoint 5455</name>
            </trkpt>
            <trkpt lat="49.7364128" lon="10.1688272">
                <ele>180.0</ele>
                <time>2020-08-23T11:36:32.000Z</time>
                <name>Trackpoint 5456</name>
            </trkpt>
            <trkpt lat="49.736304" lon="10.1688656">
                <ele>180.0</ele>
                <time>2020-08-23T11:36:34.000Z</time>
                <name>Trackpoint 5457</name>
            </trkpt>
            <trkpt lat="49.736192" lon="10.1689032">
                <ele>180.0</ele>
                <time>2020-08-23T11:36:36.000Z</time>
                <name>Trackpoint 5458</name>
            </trkpt>
            <trkpt lat="49.7360768" lon="10.1689432">
                <ele>180.0</ele>
                <time>2020-08-23T11:36:38.000Z</time>
                <name>Trackpoint 5459</name>
            </trkpt>
            <trkpt lat="49.7359616" lon="10.168992">
                <ele>180.0</ele>
                <time>2020-08-23T11:36:40.000Z</time>
                <name>Trackpoint 5460</name>
            </trkpt>
            <trkpt lat="49.7358528" lon="10.169052">
                <ele>180.0</ele>
                <time>2020-08-23T11:36:42.000Z</time>
                <name>Trackpoint 5461</name>
            </trkpt>
            <trkpt lat="49.735744" lon="10.1691112">
                <ele>179.0</ele>
                <time>2020-08-23T11:36:44.000Z</time>
                <name>Trackpoint 5462</name>
            </trkpt>
            <trkpt lat="49.7356384" lon="10.1691688">
                <ele>179.0</ele>
                <time>2020-08-23T11:36:46.000Z</time>
                <name>Trackpoint 5463</name>
            </trkpt>
            <trkpt lat="49.7355392" lon="10.1692288">
                <ele>179.0</ele>
                <time>2020-08-23T11:36:48.000Z</time>
                <name>Trackpoint 5464</name>
            </trkpt>
            <trkpt lat="49.73544" lon="10.1692888">
                <ele>179.0</ele>
                <time>2020-08-23T11:36:50.000Z</time>
                <name>Trackpoint 5465</name>
            </trkpt>
            <trkpt lat="49.7353632" lon="10.169356">
                <ele>179.0</ele>
                <time>2020-08-23T11:36:52.000Z</time>
                <name>Trackpoint 5466</name>
            </trkpt>
            <trkpt lat="49.7352956" lon="10.1694504">
                <ele>179.0</ele>
                <time>2020-08-23T11:36:54.000Z</time>
                <name>Trackpoint 5467</name>
            </trkpt>
            <trkpt lat="49.7351921" lon="10.1695789">
                <ele>185.0</ele>
                <time>2020-08-23T11:39:30.000Z</time>
                <name>Trackpoint 5509</name>
            </trkpt>
            <trkpt lat="49.7350912" lon="10.1694968">
                <ele>184.0</ele>
                <time>2020-08-23T11:39:33.000Z</time>
                <name>Trackpoint 5510</name>
            </trkpt>
            <trkpt lat="49.7350147" lon="10.1694852">
                <ele>183.0</ele>
                <time>2020-08-23T11:39:35.000Z</time>
                <name>Trackpoint 5511</name>
            </trkpt>
            <trkpt lat="49.734928" lon="10.1696328">
                <ele>182.0</ele>
                <time>2020-08-23T11:39:37.000Z</time>
                <name>Trackpoint 5512</name>
            </trkpt>
            <trkpt lat="49.7348128" lon="10.1697016">
                <ele>182.0</ele>
                <time>2020-08-23T11:39:39.000Z</time>
                <name>Trackpoint 5513</name>
            </trkpt>
            <trkpt lat="49.7347072" lon="10.1697712">
                <ele>182.0</ele>
                <time>2020-08-23T11:39:41.000Z</time>
                <name>Trackpoint 5514</name>
            </trkpt>
            <trkpt lat="49.734592" lon="10.1698288">
                <ele>181.0</ele>
                <time>2020-08-23T11:39:43.000Z</time>
                <name>Trackpoint 5515</name>
            </trkpt>
            <trkpt lat="49.7344768" lon="10.1698952">
                <ele>181.0</ele>
                <time>2020-08-23T11:39:45.000Z</time>
                <name>Trackpoint 5516</name>
            </trkpt>
            <trkpt lat="49.7343744" lon="10.1699552">
                <ele>181.0</ele>
                <time>2020-08-23T11:39:47.000Z</time>
                <name>Trackpoint 5517</name>
            </trkpt>
            <trkpt lat="49.734272" lon="10.1700088">
                <ele>181.0</ele>
                <time>2020-08-23T11:39:49.000Z</time>
                <name>Trackpoint 5518</name>
            </trkpt>
            <trkpt lat="49.7341568" lon="10.1700472">
                <ele>181.0</ele>
                <time>2020-08-23T11:39:51.000Z</time>
                <name>Trackpoint 5519</name>
            </trkpt>
            <trkpt lat="49.734048" lon="10.1700696">
                <ele>181.0</ele>
                <time>2020-08-23T11:39:53.000Z</time>
                <name>Trackpoint 5520</name>
            </trkpt>
            <trkpt lat="49.7339392" lon="10.1701032">
                <ele>181.0</ele>
                <time>2020-08-23T11:39:55.000Z</time>
                <name>Trackpoint 5521</name>
            </trkpt>
            <trkpt lat="49.7338336" lon="10.1701344">
                <ele>181.0</ele>
                <time>2020-08-23T11:39:57.000Z</time>
                <name>Trackpoint 5522</name>
            </trkpt>
            <trkpt lat="49.7337344" lon="10.170152">
                <ele>181.0</ele>
                <time>2020-08-23T11:39:59.000Z</time>
                <name>Trackpoint 5523</name>
            </trkpt>
            <trkpt lat="49.7336416" lon="10.1701736">
                <ele>181.0</ele>
                <time>2020-08-23T11:40:01.000Z</time>
                <name>Trackpoint 5524</name>
            </trkpt>
            <trkpt lat="49.733552" lon="10.1702072">
                <ele>181.0</ele>
                <time>2020-08-23T11:40:04.000Z</time>
                <name>Trackpoint 5525</name>
            </trkpt>
            <trkpt lat="49.7335168" lon="10.1702936">
                <ele>181.0</ele>
                <time>2020-08-23T11:40:09.000Z</time>
                <name>Trackpoint 5526</name>
            </trkpt>
            <trkpt lat="49.7334112" lon="10.1703856">
                <ele>181.0</ele>
                <time>2020-08-23T11:40:12.000Z</time>
                <name>Trackpoint 5527</name>
            </trkpt>
            <trkpt lat="49.7333152" lon="10.1704216">
                <ele>181.0</ele>
                <time>2020-08-23T11:40:15.000Z</time>
                <name>Trackpoint 5528</name>
            </trkpt>
            <trkpt lat="49.7331936" lon="10.1704216">
                <ele>181.0</ele>
                <time>2020-08-23T11:40:17.000Z</time>
                <name>Trackpoint 5529</name>
            </trkpt>
            <trkpt lat="49.733088" lon="10.170412">
                <ele>181.0</ele>
                <time>2020-08-23T11:40:19.000Z</time>
                <name>Trackpoint 5530</name>
            </trkpt>
            <trkpt lat="49.733024" lon="10.1705176">
                <ele>181.0</ele>
                <time>2020-08-23T11:40:22.000Z</time>
                <name>Trackpoint 5531</name>
            </trkpt>
            <trkpt lat="49.7329344" lon="10.1705368">
                <ele>181.0</ele>
                <time>2020-08-23T11:40:24.000Z</time>
                <name>Trackpoint 5532</name>
            </trkpt>
            <trkpt lat="49.7328416" lon="10.1705048">
                <ele>180.0</ele>
                <time>2020-08-23T11:40:26.000Z</time>
                <name>Trackpoint 5533</name>
            </trkpt>
            <trkpt lat="49.7327392" lon="10.1704584">
                <ele>180.0</ele>
                <time>2020-08-23T11:40:28.000Z</time>
                <name>Trackpoint 5534</name>
            </trkpt>
            <trkpt lat="49.7326368" lon="10.170408">
                <ele>180.0</ele>
                <time>2020-08-23T11:40:30.000Z</time>
                <name>Trackpoint 5535</name>
            </trkpt>
            <trkpt lat="49.7325408" lon="10.1703368">
                <ele>180.0</ele>
                <time>2020-08-23T11:40:32.000Z</time>
                <name>Trackpoint 5536</name>
            </trkpt>
            <trkpt lat="49.7324224" lon="10.1702416">
                <ele>180.0</ele>
                <time>2020-08-23T11:40:34.000Z</time>
                <name>Trackpoint 5537</name>
            </trkpt>
            <trkpt lat="49.732304" lon="10.1701816">
                <ele>180.0</ele>
                <time>2020-08-23T11:40:36.000Z</time>
                <name>Trackpoint 5538</name>
            </trkpt>
            <trkpt lat="49.7321824" lon="10.1701232">
                <ele>180.0</ele>
                <time>2020-08-23T11:40:38.000Z</time>
                <name>Trackpoint 5539</name>
            </trkpt>
            <trkpt lat="49.7320608" lon="10.1700632">
                <ele>180.0</ele>
                <time>2020-08-23T11:40:40.000Z</time>
                <name>Trackpoint 5540</name>
            </trkpt>
            <trkpt lat="49.731952" lon="10.17002">
                <ele>180.0</ele>
                <time>2020-08-23T11:40:42.000Z</time>
                <name>Trackpoint 5541</name>
            </trkpt>
            <trkpt lat="49.7318272" lon="10.1699752">
                <ele>180.0</ele>
                <time>2020-08-23T11:40:44.000Z</time>
                <name>Trackpoint 5542</name>
            </trkpt>
            <trkpt lat="49.7317056" lon="10.1699248">
                <ele>180.0</ele>
                <time>2020-08-23T11:40:46.000Z</time>
                <name>Trackpoint 5543</name>
            </trkpt>
            <trkpt lat="49.7315904" lon="10.1698736">
                <ele>180.0</ele>
                <time>2020-08-23T11:40:48.000Z</time>
                <name>Trackpoint 5544</name>
            </trkpt>
            <trkpt lat="49.7314848" lon="10.1698168">
                <ele>180.0</ele>
                <time>2020-08-23T11:40:50.000Z</time>
                <name>Trackpoint 5545</name>
            </trkpt>
            <trkpt lat="49.7313696" lon="10.169768">
                <ele>180.0</ele>
                <time>2020-08-23T11:40:52.000Z</time>
                <name>Trackpoint 5546</name>
            </trkpt>
            <trkpt lat="49.7312544" lon="10.1696984">
                <ele>180.0</ele>
                <time>2020-08-23T11:40:54.000Z</time>
                <name>Trackpoint 5547</name>
            </trkpt>
            <trkpt lat="49.731136" lon="10.1696352">
                <ele>180.0</ele>
                <time>2020-08-23T11:40:56.000Z</time>
                <name>Trackpoint 5548</name>
            </trkpt>
            <trkpt lat="49.7310176" lon="10.1695584">
                <ele>180.0</ele>
                <time>2020-08-23T11:40:58.000Z</time>
                <name>Trackpoint 5549</name>
            </trkpt>
            <trkpt lat="49.7308928" lon="10.1694736">
                <ele>180.0</ele>
                <time>2020-08-23T11:41:00.000Z</time>
                <name>Trackpoint 5550</name>
            </trkpt>
            <trkpt lat="49.7307776" lon="10.1694032">
                <ele>180.0</ele>
                <time>2020-08-23T11:41:02.000Z</time>
                <name>Trackpoint 5551</name>
            </trkpt>
            <trkpt lat="49.7306624" lon="10.1693424">
                <ele>180.0</ele>
                <time>2020-08-23T11:41:04.000Z</time>
                <name>Trackpoint 5552</name>
            </trkpt>
            <trkpt lat="49.7305504" lon="10.1692984">
                <ele>180.0</ele>
                <time>2020-08-23T11:41:06.000Z</time>
                <name>Trackpoint 5553</name>
            </trkpt>
            <trkpt lat="49.7304352" lon="10.1692416">
                <ele>180.0</ele>
                <time>2020-08-23T11:41:08.000Z</time>
                <name>Trackpoint 5554</name>
            </trkpt>
            <trkpt lat="49.7303264" lon="10.1691912">
                <ele>180.0</ele>
                <time>2020-08-23T11:41:10.000Z</time>
                <name>Trackpoint 5555</name>
            </trkpt>
            <trkpt lat="49.730224" lon="10.1691368">
                <ele>180.0</ele>
                <time>2020-08-23T11:41:12.000Z</time>
                <name>Trackpoint 5556</name>
            </trkpt>
            <trkpt lat="49.7301184" lon="10.1690768">
                <ele>181.0</ele>
                <time>2020-08-23T11:41:14.000Z</time>
                <name>Trackpoint 5557</name>
            </trkpt>
            <trkpt lat="49.7300256" lon="10.1689616">
                <ele>181.0</ele>
                <time>2020-08-23T11:41:16.000Z</time>
                <name>Trackpoint 5558</name>
            </trkpt>
            <trkpt lat="49.7299488" lon="10.168848">
                <ele>181.0</ele>
                <time>2020-08-23T11:41:18.000Z</time>
                <name>Trackpoint 5559</name>
            </trkpt>
            <trkpt lat="49.7298976" lon="10.168712">
                <ele>181.0</ele>
                <time>2020-08-23T11:41:20.000Z</time>
                <name>Trackpoint 5560</name>
            </trkpt>
            <trkpt lat="49.7298496" lon="10.1685664">
                <ele>181.0</ele>
                <time>2020-08-23T11:41:22.000Z</time>
                <name>Trackpoint 5561</name>
            </trkpt>
            <trkpt lat="49.7298112" lon="10.1684288">
                <ele>181.0</ele>
                <time>2020-08-23T11:41:24.000Z</time>
                <name>Trackpoint 5562</name>
            </trkpt>
            <trkpt lat="49.7297472" lon="10.1682984">
                <ele>181.0</ele>
                <time>2020-08-23T11:41:26.000Z</time>
                <name>Trackpoint 5563</name>
            </trkpt>
            <trkpt lat="49.7296704" lon="10.1681744">
                <ele>181.0</ele>
                <time>2020-08-23T11:41:28.000Z</time>
                <name>Trackpoint 5564</name>
            </trkpt>
            <trkpt lat="49.7296288" lon="10.1680832">
                <ele>181.0</ele>
                <time>2020-08-23T11:41:30.000Z</time>
                <name>Trackpoint 5565</name>
            </trkpt>
            <trkpt lat="49.7295936" lon="10.1679736">
                <ele>181.0</ele>
                <time>2020-08-23T11:41:32.000Z</time>
                <name>Trackpoint 5566</name>
            </trkpt>
            <trkpt lat="49.7295584" lon="10.1678832">
                <ele>181.0</ele>
                <time>2020-08-23T11:41:34.000Z</time>
                <name>Trackpoint 5567</name>
            </trkpt>
            <trkpt lat="49.729472" lon="10.1678104">
                <ele>181.0</ele>
                <time>2020-08-23T11:41:36.000Z</time>
                <name>Trackpoint 5568</name>
            </trkpt>
            <trkpt lat="49.729344" lon="10.1677912">
                <ele>181.0</ele>
                <time>2020-08-23T11:41:39.000Z</time>
                <name>Trackpoint 5569</name>
            </trkpt>
            <trkpt lat="49.729264" lon="10.1678952">
                <ele>181.0</ele>
                <time>2020-08-23T11:41:42.000Z</time>
                <name>Trackpoint 5570</name>
            </trkpt>
            <trkpt lat="49.729248" lon="10.1680032">
                <ele>180.0</ele>
                <time>2020-08-23T11:41:44.000Z</time>
                <name>Trackpoint 5571</name>
            </trkpt>
            <trkpt lat="49.729216" lon="10.1681048">
                <ele>180.0</ele>
                <time>2020-08-23T11:41:46.000Z</time>
                <name>Trackpoint 5572</name>
            </trkpt>
            <trkpt lat="49.7291552" lon="10.1681904">
                <ele>180.0</ele>
                <time>2020-08-23T11:41:48.000Z</time>
                <name>Trackpoint 5573</name>
            </trkpt>
            <trkpt lat="49.7290816" lon="10.168248">
                <ele>180.0</ele>
                <time>2020-08-23T11:41:50.000Z</time>
                <name>Trackpoint 5574</name>
            </trkpt>
            <trkpt lat="49.7289952" lon="10.1683184">
                <ele>180.0</ele>
                <time>2020-08-23T11:41:52.000Z</time>
                <name>Trackpoint 5575</name>
            </trkpt>
            <trkpt lat="49.7288928" lon="10.1683976">
                <ele>180.0</ele>
                <time>2020-08-23T11:41:54.000Z</time>
                <name>Trackpoint 5576</name>
            </trkpt>
            <trkpt lat="49.728768" lon="10.1684264">
                <ele>180.0</ele>
                <time>2020-08-23T11:41:56.000Z</time>
                <name>Trackpoint 5577</name>
            </trkpt>
            <trkpt lat="49.7286752" lon="10.1683976">
                <ele>180.0</ele>
                <time>2020-08-23T11:41:58.000Z</time>
                <name>Trackpoint 5578</name>
            </trkpt>
            <trkpt lat="49.72856" lon="10.16832">
                <ele>180.0</ele>
                <time>2020-08-23T11:42:01.000Z</time>
                <name>Trackpoint 5579</name>
            </trkpt>
            <trkpt lat="49.7284896" lon="10.1682456">
                <ele>181.0</ele>
                <time>2020-08-23T11:42:03.000Z</time>
                <name>Trackpoint 5580</name>
            </trkpt>
            <trkpt lat="49.7284256" lon="10.1681344">
                <ele>181.0</ele>
                <time>2020-08-23T11:42:05.000Z</time>
                <name>Trackpoint 5581</name>
            </trkpt>
            <trkpt lat="49.7283552" lon="10.1680344">
                <ele>180.0</ele>
                <time>2020-08-23T11:42:07.000Z</time>
                <name>Trackpoint 5582</name>
            </trkpt>
            <trkpt lat="49.728288" lon="10.1679424">
                <ele>181.0</ele>
                <time>2020-08-23T11:42:09.000Z</time>
                <name>Trackpoint 5583</name>
            </trkpt>
            <trkpt lat="49.7282208" lon="10.1678536">
                <ele>180.0</ele>
                <time>2020-08-23T11:42:11.000Z</time>
                <name>Trackpoint 5584</name>
            </trkpt>
            <trkpt lat="49.7281696" lon="10.167764">
                <ele>180.0</ele>
                <time>2020-08-23T11:42:13.000Z</time>
                <name>Trackpoint 5585</name>
            </trkpt>
            <trkpt lat="49.7281184" lon="10.1676704">
                <ele>180.0</ele>
                <time>2020-08-23T11:42:15.000Z</time>
                <name>Trackpoint 5586</name>
            </trkpt>
            <trkpt lat="49.7280608" lon="10.1675752">
                <ele>180.0</ele>
                <time>2020-08-23T11:42:17.000Z</time>
                <name>Trackpoint 5587</name>
            </trkpt>
            <trkpt lat="49.728" lon="10.167472">
                <ele>180.0</ele>
                <time>2020-08-23T11:42:19.000Z</time>
                <name>Trackpoint 5588</name>
            </trkpt>
            <trkpt lat="49.7279392" lon="10.1673648">
                <ele>180.0</ele>
                <time>2020-08-23T11:42:21.000Z</time>
                <name>Trackpoint 5589</name>
            </trkpt>
            <trkpt lat="49.7278848" lon="10.1672672">
                <ele>181.0</ele>
                <time>2020-08-23T11:42:23.000Z</time>
                <name>Trackpoint 5590</name>
            </trkpt>
            <trkpt lat="49.7278304" lon="10.1671536">
                <ele>180.0</ele>
                <time>2020-08-23T11:42:25.000Z</time>
                <name>Trackpoint 5591</name>
            </trkpt>
            <trkpt lat="49.7277728" lon="10.1670536">
                <ele>180.0</ele>
                <time>2020-08-23T11:42:27.000Z</time>
                <name>Trackpoint 5592</name>
            </trkpt>
            <trkpt lat="49.727712" lon="10.1669648">
                <ele>180.0</ele>
                <time>2020-08-23T11:42:29.000Z</time>
                <name>Trackpoint 5593</name>
            </trkpt>
            <trkpt lat="49.7276512" lon="10.1668816">
                <ele>181.0</ele>
                <time>2020-08-23T11:42:31.000Z</time>
                <name>Trackpoint 5594</name>
            </trkpt>
            <trkpt lat="49.727584" lon="10.1667984">
                <ele>181.0</ele>
                <time>2020-08-23T11:42:33.000Z</time>
                <name>Trackpoint 5595</name>
            </trkpt>
            <trkpt lat="49.72752" lon="10.1667096">
                <ele>181.0</ele>
                <time>2020-08-23T11:42:35.000Z</time>
                <name>Trackpoint 5596</name>
            </trkpt>
            <trkpt lat="49.727456" lon="10.1666368">
                <ele>181.0</ele>
                <time>2020-08-23T11:42:37.000Z</time>
                <name>Trackpoint 5597</name>
            </trkpt>
            <trkpt lat="49.7273856" lon="10.1665472">
                <ele>181.0</ele>
                <time>2020-08-23T11:42:39.000Z</time>
                <name>Trackpoint 5598</name>
            </trkpt>
            <trkpt lat="49.7273216" lon="10.1664352">
                <ele>181.0</ele>
                <time>2020-08-23T11:42:41.000Z</time>
                <name>Trackpoint 5599</name>
            </trkpt>
            <trkpt lat="49.727248" lon="10.1663288">
                <ele>181.0</ele>
                <time>2020-08-23T11:42:43.000Z</time>
                <name>Trackpoint 5600</name>
            </trkpt>
            <trkpt lat="49.727168" lon="10.16622">
                <ele>181.0</ele>
                <time>2020-08-23T11:42:45.000Z</time>
                <name>Trackpoint 5601</name>
            </trkpt>
            <trkpt lat="49.7270848" lon="10.1661128">
                <ele>181.0</ele>
                <time>2020-08-23T11:42:47.000Z</time>
                <name>Trackpoint 5602</name>
            </trkpt>
            <trkpt lat="49.7270048" lon="10.1660216">
                <ele>181.0</ele>
                <time>2020-08-23T11:42:49.000Z</time>
                <name>Trackpoint 5603</name>
            </trkpt>
            <trkpt lat="49.7269216" lon="10.1659232">
                <ele>181.0</ele>
                <time>2020-08-23T11:42:51.000Z</time>
                <name>Trackpoint 5604</name>
            </trkpt>
            <trkpt lat="49.7268448" lon="10.1658384">
                <ele>181.0</ele>
                <time>2020-08-23T11:42:53.000Z</time>
                <name>Trackpoint 5605</name>
            </trkpt>
            <trkpt lat="49.7267648" lon="10.1657616">
                <ele>181.0</ele>
                <time>2020-08-23T11:42:55.000Z</time>
                <name>Trackpoint 5606</name>
            </trkpt>
            <trkpt lat="49.7266816" lon="10.1656864">
                <ele>181.0</ele>
                <time>2020-08-23T11:42:57.000Z</time>
                <name>Trackpoint 5607</name>
            </trkpt>
            <trkpt lat="49.7266016" lon="10.1656168">
                <ele>181.0</ele>
                <time>2020-08-23T11:42:59.000Z</time>
                <name>Trackpoint 5608</name>
            </trkpt>
            <trkpt lat="49.7265216" lon="10.16554">
                <ele>181.0</ele>
                <time>2020-08-23T11:43:01.000Z</time>
                <name>Trackpoint 5609</name>
            </trkpt>
            <trkpt lat="49.7264352" lon="10.1654552">
                <ele>181.0</ele>
                <time>2020-08-23T11:43:03.000Z</time>
                <name>Trackpoint 5610</name>
            </trkpt>
            <trkpt lat="49.7263456" lon="10.1653856">
                <ele>181.0</ele>
                <time>2020-08-23T11:43:05.000Z</time>
                <name>Trackpoint 5611</name>
            </trkpt>
            <trkpt lat="49.726256" lon="10.1653184">
                <ele>181.0</ele>
                <time>2020-08-23T11:43:07.000Z</time>
                <name>Trackpoint 5612</name>
            </trkpt>
            <trkpt lat="49.7261632" lon="10.1652616">
                <ele>181.0</ele>
                <time>2020-08-23T11:43:09.000Z</time>
                <name>Trackpoint 5613</name>
            </trkpt>
            <trkpt lat="49.7260672" lon="10.1652048">
                <ele>181.0</ele>
                <time>2020-08-23T11:43:11.000Z</time>
                <name>Trackpoint 5614</name>
            </trkpt>
            <trkpt lat="49.7259744" lon="10.1651584">
                <ele>181.0</ele>
                <time>2020-08-23T11:43:13.000Z</time>
                <name>Trackpoint 5615</name>
            </trkpt>
            <trkpt lat="49.7258784" lon="10.1651032">
                <ele>181.0</ele>
                <time>2020-08-23T11:43:15.000Z</time>
                <name>Trackpoint 5616</name>
            </trkpt>
            <trkpt lat="49.7257856" lon="10.1650464">
                <ele>181.0</ele>
                <time>2020-08-23T11:43:17.000Z</time>
                <name>Trackpoint 5617</name>
            </trkpt>
            <trkpt lat="49.725696" lon="10.1649904">
                <ele>181.0</ele>
                <time>2020-08-23T11:43:19.000Z</time>
                <name>Trackpoint 5618</name>
            </trkpt>
            <trkpt lat="49.7255904" lon="10.1649064">
                <ele>181.0</ele>
                <time>2020-08-23T11:43:22.000Z</time>
                <name>Trackpoint 5619</name>
            </trkpt>
            <trkpt lat="49.7255008" lon="10.16488">
                <ele>181.0</ele>
                <time>2020-08-23T11:43:24.000Z</time>
                <name>Trackpoint 5620</name>
            </trkpt>
            <trkpt lat="49.7254112" lon="10.164812">
                <ele>181.0</ele>
                <time>2020-08-23T11:43:27.000Z</time>
                <name>Trackpoint 5621</name>
            </trkpt>
            <trkpt lat="49.7253152" lon="10.1647664">
                <ele>181.0</ele>
                <time>2020-08-23T11:43:29.000Z</time>
                <name>Trackpoint 5622</name>
            </trkpt>
            <trkpt lat="49.7252" lon="10.1647032">
                <ele>181.0</ele>
                <time>2020-08-23T11:43:31.000Z</time>
                <name>Trackpoint 5623</name>
            </trkpt>
            <trkpt lat="49.7250912" lon="10.164632">
                <ele>181.0</ele>
                <time>2020-08-23T11:43:33.000Z</time>
                <name>Trackpoint 5624</name>
            </trkpt>
            <trkpt lat="49.7249856" lon="10.1645648">
                <ele>181.0</ele>
                <time>2020-08-23T11:43:35.000Z</time>
                <name>Trackpoint 5625</name>
            </trkpt>
            <trkpt lat="49.7248928" lon="10.1644872">
                <ele>181.0</ele>
                <time>2020-08-23T11:43:37.000Z</time>
                <name>Trackpoint 5626</name>
            </trkpt>
            <trkpt lat="49.7247936" lon="10.1644064">
                <ele>181.0</ele>
                <time>2020-08-23T11:43:39.000Z</time>
                <name>Trackpoint 5627</name>
            </trkpt>
            <trkpt lat="49.7246976" lon="10.1643288">
                <ele>181.0</ele>
                <time>2020-08-23T11:43:41.000Z</time>
                <name>Trackpoint 5628</name>
            </trkpt>
            <trkpt lat="49.7246048" lon="10.16426">
                <ele>181.0</ele>
                <time>2020-08-23T11:43:43.000Z</time>
                <name>Trackpoint 5629</name>
            </trkpt>
            <trkpt lat="49.7245152" lon="10.164188">
                <ele>181.0</ele>
                <time>2020-08-23T11:43:45.000Z</time>
                <name>Trackpoint 5630</name>
            </trkpt>
            <trkpt lat="49.7244224" lon="10.1641064">
                <ele>181.0</ele>
                <time>2020-08-23T11:43:47.000Z</time>
                <name>Trackpoint 5631</name>
            </trkpt>
            <trkpt lat="49.7243296" lon="10.164032">
                <ele>181.0</ele>
                <time>2020-08-23T11:43:49.000Z</time>
                <name>Trackpoint 5632</name>
            </trkpt>
            <trkpt lat="49.7242368" lon="10.163948">
                <ele>181.0</ele>
                <time>2020-08-23T11:43:51.000Z</time>
                <name>Trackpoint 5633</name>
            </trkpt>
            <trkpt lat="49.7241504" lon="10.1638696">
                <ele>181.0</ele>
                <time>2020-08-23T11:43:53.000Z</time>
                <name>Trackpoint 5634</name>
            </trkpt>
            <trkpt lat="49.7240864" lon="10.1637984">
                <ele>181.0</ele>
                <time>2020-08-23T11:43:55.000Z</time>
                <name>Trackpoint 5635</name>
            </trkpt>
            <trkpt lat="49.7240096" lon="10.1637184">
                <ele>181.0</ele>
                <time>2020-08-23T11:43:57.000Z</time>
                <name>Trackpoint 5636</name>
            </trkpt>
            <trkpt lat="49.7239424" lon="10.1636448">
                <ele>181.0</ele>
                <time>2020-08-23T11:43:59.000Z</time>
                <name>Trackpoint 5637</name>
            </trkpt>
            <trkpt lat="49.7238656" lon="10.1635648">
                <ele>181.0</ele>
                <time>2020-08-23T11:44:01.000Z</time>
                <name>Trackpoint 5638</name>
            </trkpt>
            <trkpt lat="49.7237856" lon="10.1634752">
                <ele>181.0</ele>
                <time>2020-08-23T11:44:03.000Z</time>
                <name>Trackpoint 5639</name>
            </trkpt>
            <trkpt lat="49.723712" lon="10.16338">
                <ele>181.0</ele>
                <time>2020-08-23T11:44:05.000Z</time>
                <name>Trackpoint 5640</name>
            </trkpt>
            <trkpt lat="49.7236448" lon="10.1632928">
                <ele>181.0</ele>
                <time>2020-08-23T11:44:07.000Z</time>
                <name>Trackpoint 5641</name>
            </trkpt>
            <trkpt lat="49.7235744" lon="10.1632048">
                <ele>181.0</ele>
                <time>2020-08-23T11:44:09.000Z</time>
                <name>Trackpoint 5642</name>
            </trkpt>
            <trkpt lat="49.7235168" lon="10.1631272">
                <ele>181.0</ele>
                <time>2020-08-23T11:44:11.000Z</time>
                <name>Trackpoint 5643</name>
            </trkpt>
            <trkpt lat="49.7234624" lon="10.163052">
                <ele>181.0</ele>
                <time>2020-08-23T11:44:13.000Z</time>
                <name>Trackpoint 5644</name>
            </trkpt>
            <trkpt lat="49.723408" lon="10.16298">
                <ele>181.0</ele>
                <time>2020-08-23T11:44:15.000Z</time>
                <name>Trackpoint 5645</name>
            </trkpt>
            <trkpt lat="49.7233536" lon="10.1628968">
                <ele>181.0</ele>
                <time>2020-08-23T11:44:17.000Z</time>
                <name>Trackpoint 5646</name>
            </trkpt>
            <trkpt lat="49.7232832" lon="10.1627904">
                <ele>181.0</ele>
                <time>2020-08-23T11:44:20.000Z</time>
                <name>Trackpoint 5647</name>
            </trkpt>
            <trkpt lat="49.7232096" lon="10.1626856">
                <ele>182.0</ele>
                <time>2020-08-23T11:44:23.000Z</time>
                <name>Trackpoint 5648</name>
            </trkpt>
            <trkpt lat="49.7231456" lon="10.1625968">
                <ele>181.0</ele>
                <time>2020-08-23T11:44:26.000Z</time>
                <name>Trackpoint 5649</name>
            </trkpt>
            <trkpt lat="49.7230848" lon="10.1625016">
                <ele>181.0</ele>
                <time>2020-08-23T11:44:29.000Z</time>
                <name>Trackpoint 5650</name>
            </trkpt>
            <trkpt lat="49.723024" lon="10.1623888">
                <ele>181.0</ele>
                <time>2020-08-23T11:44:32.000Z</time>
                <name>Trackpoint 5651</name>
            </trkpt>
            <trkpt lat="49.7229664" lon="10.1622952">
                <ele>181.0</ele>
                <time>2020-08-23T11:44:34.000Z</time>
                <name>Trackpoint 5652</name>
            </trkpt>
            <trkpt lat="49.722896" lon="10.1621704">
                <ele>182.0</ele>
                <time>2020-08-23T11:44:37.000Z</time>
                <name>Trackpoint 5653</name>
            </trkpt>
            <trkpt lat="49.7228384" lon="10.1620632">
                <ele>182.0</ele>
                <time>2020-08-23T11:44:39.000Z</time>
                <name>Trackpoint 5654</name>
            </trkpt>
            <trkpt lat="49.7227744" lon="10.161948">
                <ele>183.0</ele>
                <time>2020-08-23T11:44:41.000Z</time>
                <name>Trackpoint 5655</name>
            </trkpt>
            <trkpt lat="49.7227136" lon="10.1618408">
                <ele>182.0</ele>
                <time>2020-08-23T11:44:43.000Z</time>
                <name>Trackpoint 5656</name>
            </trkpt>
            <trkpt lat="49.7226496" lon="10.1617184">
                <ele>183.0</ele>
                <time>2020-08-23T11:44:45.000Z</time>
                <name>Trackpoint 5657</name>
            </trkpt>
            <trkpt lat="49.7225792" lon="10.161596">
                <ele>183.0</ele>
                <time>2020-08-23T11:44:47.000Z</time>
                <name>Trackpoint 5658</name>
            </trkpt>
            <trkpt lat="49.7225152" lon="10.1614688">
                <ele>183.0</ele>
                <time>2020-08-23T11:44:49.000Z</time>
                <name>Trackpoint 5659</name>
            </trkpt>
            <trkpt lat="49.722448" lon="10.1613464">
                <ele>182.0</ele>
                <time>2020-08-23T11:44:51.000Z</time>
                <name>Trackpoint 5660</name>
            </trkpt>
            <trkpt lat="49.722384" lon="10.161232">
                <ele>182.0</ele>
                <time>2020-08-23T11:44:53.000Z</time>
                <name>Trackpoint 5661</name>
            </trkpt>
            <trkpt lat="49.7223168" lon="10.1611208">
                <ele>182.0</ele>
                <time>2020-08-23T11:44:55.000Z</time>
                <name>Trackpoint 5662</name>
            </trkpt>
            <trkpt lat="49.7222496" lon="10.1610248">
                <ele>182.0</ele>
                <time>2020-08-23T11:44:57.000Z</time>
                <name>Trackpoint 5663</name>
            </trkpt>
            <trkpt lat="49.7221728" lon="10.1609088">
                <ele>182.0</ele>
                <time>2020-08-23T11:44:59.000Z</time>
                <name>Trackpoint 5664</name>
            </trkpt>
            <trkpt lat="49.7221056" lon="10.1607864">
                <ele>182.0</ele>
                <time>2020-08-23T11:45:01.000Z</time>
                <name>Trackpoint 5665</name>
            </trkpt>
            <trkpt lat="49.7220384" lon="10.1606712">
                <ele>183.0</ele>
                <time>2020-08-23T11:45:03.000Z</time>
                <name>Trackpoint 5666</name>
            </trkpt>
            <trkpt lat="49.7219648" lon="10.1605584">
                <ele>183.0</ele>
                <time>2020-08-23T11:45:05.000Z</time>
                <name>Trackpoint 5667</name>
            </trkpt>
            <trkpt lat="49.7219008" lon="10.1604384">
                <ele>183.0</ele>
                <time>2020-08-23T11:45:07.000Z</time>
                <name>Trackpoint 5668</name>
            </trkpt>
            <trkpt lat="49.72184" lon="10.160308">
                <ele>183.0</ele>
                <time>2020-08-23T11:45:09.000Z</time>
                <name>Trackpoint 5669</name>
            </trkpt>
            <trkpt lat="49.721776" lon="10.16018">
                <ele>183.0</ele>
                <time>2020-08-23T11:45:11.000Z</time>
                <name>Trackpoint 5670</name>
            </trkpt>
            <trkpt lat="49.7217056" lon="10.1600568">
                <ele>183.0</ele>
                <time>2020-08-23T11:45:13.000Z</time>
                <name>Trackpoint 5671</name>
            </trkpt>
            <trkpt lat="49.7216416" lon="10.1599352">
                <ele>183.0</ele>
                <time>2020-08-23T11:45:15.000Z</time>
                <name>Trackpoint 5672</name>
            </trkpt>
            <trkpt lat="49.7215776" lon="10.1598128">
                <ele>182.0</ele>
                <time>2020-08-23T11:45:17.000Z</time>
                <name>Trackpoint 5673</name>
            </trkpt>
            <trkpt lat="49.7215104" lon="10.1596896">
                <ele>182.0</ele>
                <time>2020-08-23T11:45:19.000Z</time>
                <name>Trackpoint 5674</name>
            </trkpt>
            <trkpt lat="49.7214496" lon="10.1595768">
                <ele>182.0</ele>
                <time>2020-08-23T11:45:21.000Z</time>
                <name>Trackpoint 5675</name>
            </trkpt>
            <trkpt lat="49.7213888" lon="10.159456">
                <ele>182.0</ele>
                <time>2020-08-23T11:45:23.000Z</time>
                <name>Trackpoint 5676</name>
            </trkpt>
            <trkpt lat="49.7213248" lon="10.159344">
                <ele>182.0</ele>
                <time>2020-08-23T11:45:25.000Z</time>
                <name>Trackpoint 5677</name>
            </trkpt>
            <trkpt lat="49.721248" lon="10.1592216">
                <ele>182.0</ele>
                <time>2020-08-23T11:45:27.000Z</time>
                <name>Trackpoint 5678</name>
            </trkpt>
            <trkpt lat="49.7211808" lon="10.159112">
                <ele>182.0</ele>
                <time>2020-08-23T11:45:29.000Z</time>
                <name>Trackpoint 5679</name>
            </trkpt>
            <trkpt lat="49.7211136" lon="10.1589816">
                <ele>183.0</ele>
                <time>2020-08-23T11:45:31.000Z</time>
                <name>Trackpoint 5680</name>
            </trkpt>
            <trkpt lat="49.7210592" lon="10.1588488">
                <ele>183.0</ele>
                <time>2020-08-23T11:45:33.000Z</time>
                <name>Trackpoint 5681</name>
            </trkpt>
            <trkpt lat="49.720992" lon="10.1587048">
                <ele>183.0</ele>
                <time>2020-08-23T11:45:35.000Z</time>
                <name>Trackpoint 5682</name>
            </trkpt>
            <trkpt lat="49.720928" lon="10.1585648">
                <ele>183.0</ele>
                <time>2020-08-23T11:45:37.000Z</time>
                <name>Trackpoint 5683</name>
            </trkpt>
            <trkpt lat="49.7208608" lon="10.1584416">
                <ele>182.0</ele>
                <time>2020-08-23T11:45:39.000Z</time>
                <name>Trackpoint 5684</name>
            </trkpt>
            <trkpt lat="49.7208" lon="10.1583248">
                <ele>182.0</ele>
                <time>2020-08-23T11:45:41.000Z</time>
                <name>Trackpoint 5685</name>
            </trkpt>
            <trkpt lat="49.7207328" lon="10.1582016">
                <ele>182.0</ele>
                <time>2020-08-23T11:45:43.000Z</time>
                <name>Trackpoint 5686</name>
            </trkpt>
            <trkpt lat="49.7206752" lon="10.1580848">
                <ele>182.0</ele>
                <time>2020-08-23T11:45:45.000Z</time>
                <name>Trackpoint 5687</name>
            </trkpt>
            <trkpt lat="49.720608" lon="10.15796">
                <ele>182.0</ele>
                <time>2020-08-23T11:45:47.000Z</time>
                <name>Trackpoint 5688</name>
            </trkpt>
            <trkpt lat="49.720544" lon="10.1578376">
                <ele>182.0</ele>
                <time>2020-08-23T11:45:49.000Z</time>
                <name>Trackpoint 5689</name>
            </trkpt>
            <trkpt lat="49.720496" lon="10.157748">
                <ele>182.0</ele>
                <time>2020-08-23T11:45:51.000Z</time>
                <name>Trackpoint 5690</name>
            </trkpt>
            <trkpt lat="49.7204544" lon="10.1576656">
                <ele>182.0</ele>
                <time>2020-08-23T11:46:41.000Z</time>
                <name>Trackpoint 5691</name>
            </trkpt>
            <trkpt lat="49.7204032" lon="10.1575672">
                <ele>182.0</ele>
                <time>2020-08-23T11:46:44.000Z</time>
                <name>Trackpoint 5692</name>
            </trkpt>
            <trkpt lat="49.7203552" lon="10.1574696">
                <ele>183.0</ele>
                <time>2020-08-23T11:46:46.000Z</time>
                <name>Trackpoint 5693</name>
            </trkpt>
            <trkpt lat="49.720304" lon="10.1573752">
                <ele>183.0</ele>
                <time>2020-08-23T11:46:48.000Z</time>
                <name>Trackpoint 5694</name>
            </trkpt>
            <trkpt lat="49.72024" lon="10.15726">
                <ele>183.0</ele>
                <time>2020-08-23T11:46:50.000Z</time>
                <name>Trackpoint 5695</name>
            </trkpt>
            <trkpt lat="49.720176" lon="10.1571416">
                <ele>183.0</ele>
                <time>2020-08-23T11:46:52.000Z</time>
                <name>Trackpoint 5696</name>
            </trkpt>
            <trkpt lat="49.7201184" lon="10.15702">
                <ele>183.0</ele>
                <time>2020-08-23T11:46:54.000Z</time>
                <name>Trackpoint 5697</name>
            </trkpt>
            <trkpt lat="49.7200576" lon="10.1569048">
                <ele>183.0</ele>
                <time>2020-08-23T11:46:56.000Z</time>
                <name>Trackpoint 5698</name>
            </trkpt>
            <trkpt lat="49.72" lon="10.15678">
                <ele>183.0</ele>
                <time>2020-08-23T11:46:58.000Z</time>
                <name>Trackpoint 5699</name>
            </trkpt>
            <trkpt lat="49.7199456" lon="10.15666">
                <ele>183.0</ele>
                <time>2020-08-23T11:47:00.000Z</time>
                <name>Trackpoint 5700</name>
            </trkpt>
            <trkpt lat="49.7198752" lon="10.1565312">
                <ele>182.0</ele>
                <time>2020-08-23T11:47:02.000Z</time>
                <name>Trackpoint 5701</name>
            </trkpt>
            <trkpt lat="49.7198112" lon="10.1564192">
                <ele>182.0</ele>
                <time>2020-08-23T11:47:04.000Z</time>
                <name>Trackpoint 5702</name>
            </trkpt>
            <trkpt lat="49.7197472" lon="10.1563056">
                <ele>182.0</ele>
                <time>2020-08-23T11:47:06.000Z</time>
                <name>Trackpoint 5703</name>
            </trkpt>
            <trkpt lat="49.7196832" lon="10.1561936">
                <ele>181.0</ele>
                <time>2020-08-23T11:47:08.000Z</time>
                <name>Trackpoint 5704</name>
            </trkpt>
            <trkpt lat="49.7196224" lon="10.1560768">
                <ele>181.0</ele>
                <time>2020-08-23T11:47:10.000Z</time>
                <name>Trackpoint 5705</name>
            </trkpt>
            <trkpt lat="49.7195616" lon="10.155956">
                <ele>181.0</ele>
                <time>2020-08-23T11:47:12.000Z</time>
                <name>Trackpoint 5706</name>
            </trkpt>
            <trkpt lat="49.7194976" lon="10.1558336">
                <ele>181.0</ele>
                <time>2020-08-23T11:47:14.000Z</time>
                <name>Trackpoint 5707</name>
            </trkpt>
            <trkpt lat="49.7194368" lon="10.1557128">
                <ele>182.0</ele>
                <time>2020-08-23T11:47:16.000Z</time>
                <name>Trackpoint 5708</name>
            </trkpt>
            <trkpt lat="49.719376" lon="10.1556016">
                <ele>183.0</ele>
                <time>2020-08-23T11:47:18.000Z</time>
                <name>Trackpoint 5709</name>
            </trkpt>
            <trkpt lat="49.7193184" lon="10.1554872">
                <ele>184.0</ele>
                <time>2020-08-23T11:47:20.000Z</time>
                <name>Trackpoint 5710</name>
            </trkpt>
            <trkpt lat="49.7192576" lon="10.1553632">
                <ele>184.0</ele>
                <time>2020-08-23T11:47:22.000Z</time>
                <name>Trackpoint 5711</name>
            </trkpt>
            <trkpt lat="49.7191968" lon="10.1552488">
                <ele>184.0</ele>
                <time>2020-08-23T11:47:24.000Z</time>
                <name>Trackpoint 5712</name>
            </trkpt>
            <trkpt lat="49.7191232" lon="10.1551336">
                <ele>184.0</ele>
                <time>2020-08-23T11:47:26.000Z</time>
                <name>Trackpoint 5713</name>
            </trkpt>
            <trkpt lat="49.7190656" lon="10.155044">
                <ele>185.0</ele>
                <time>2020-08-23T11:47:28.000Z</time>
                <name>Trackpoint 5714</name>
            </trkpt>
            <trkpt lat="49.7189888" lon="10.1549504">
                <ele>186.0</ele>
                <time>2020-08-23T11:47:30.000Z</time>
                <name>Trackpoint 5715</name>
            </trkpt>
            <trkpt lat="49.7189152" lon="10.1548432">
                <ele>186.0</ele>
                <time>2020-08-23T11:47:32.000Z</time>
                <name>Trackpoint 5716</name>
            </trkpt>
            <trkpt lat="49.7188416" lon="10.1547432">
                <ele>185.0</ele>
                <time>2020-08-23T11:47:34.000Z</time>
                <name>Trackpoint 5717</name>
            </trkpt>
            <trkpt lat="49.7187744" lon="10.1546424">
                <ele>185.0</ele>
                <time>2020-08-23T11:47:36.000Z</time>
                <name>Trackpoint 5718</name>
            </trkpt>
            <trkpt lat="49.7187008" lon="10.1545448">
                <ele>184.0</ele>
                <time>2020-08-23T11:47:38.000Z</time>
                <name>Trackpoint 5719</name>
            </trkpt>
            <trkpt lat="49.7186304" lon="10.1544448">
                <ele>184.0</ele>
                <time>2020-08-23T11:47:40.000Z</time>
                <name>Trackpoint 5720</name>
            </trkpt>
            <trkpt lat="49.71856" lon="10.1543416">
                <ele>184.0</ele>
                <time>2020-08-23T11:47:42.000Z</time>
                <name>Trackpoint 5721</name>
            </trkpt>
            <trkpt lat="49.7184896" lon="10.1542416">
                <ele>184.0</ele>
                <time>2020-08-23T11:47:44.000Z</time>
                <name>Trackpoint 5722</name>
            </trkpt>
            <trkpt lat="49.7184192" lon="10.154132">
                <ele>184.0</ele>
                <time>2020-08-23T11:47:46.000Z</time>
                <name>Trackpoint 5723</name>
            </trkpt>
            <trkpt lat="49.7183424" lon="10.1540296">
                <ele>184.0</ele>
                <time>2020-08-23T11:47:48.000Z</time>
                <name>Trackpoint 5724</name>
            </trkpt>
            <trkpt lat="49.718272" lon="10.1539248">
                <ele>184.0</ele>
                <time>2020-08-23T11:47:50.000Z</time>
                <name>Trackpoint 5725</name>
            </trkpt>
            <trkpt lat="49.718208" lon="10.1538352">
                <ele>185.0</ele>
                <time>2020-08-23T11:47:52.000Z</time>
                <name>Trackpoint 5726</name>
            </trkpt>
            <trkpt lat="49.7181472" lon="10.1537504">
                <ele>185.0</ele>
                <time>2020-08-23T11:47:54.000Z</time>
                <name>Trackpoint 5727</name>
            </trkpt>
            <trkpt lat="49.7180896" lon="10.1536616">
                <ele>185.0</ele>
                <time>2020-08-23T11:47:56.000Z</time>
                <name>Trackpoint 5728</name>
            </trkpt>
            <trkpt lat="49.718032" lon="10.1535856">
                <ele>184.0</ele>
                <time>2020-08-23T11:47:58.000Z</time>
                <name>Trackpoint 5729</name>
            </trkpt>
            <trkpt lat="49.7179616" lon="10.1534768">
                <ele>184.0</ele>
                <time>2020-08-23T11:48:01.000Z</time>
                <name>Trackpoint 5730</name>
            </trkpt>
            <trkpt lat="49.7179168" lon="10.1533936">
                <ele>184.0</ele>
                <time>2020-08-23T11:48:03.000Z</time>
                <name>Trackpoint 5731</name>
            </trkpt>
            <trkpt lat="49.7178656" lon="10.1532768">
                <ele>183.0</ele>
                <time>2020-08-23T11:48:06.000Z</time>
                <name>Trackpoint 5732</name>
            </trkpt>
            <trkpt lat="49.7178112" lon="10.153156">
                <ele>182.0</ele>
                <time>2020-08-23T11:48:09.000Z</time>
                <name>Trackpoint 5733</name>
            </trkpt>
            <trkpt lat="49.7177728" lon="10.1530648">
                <ele>183.0</ele>
                <time>2020-08-23T11:48:11.000Z</time>
                <name>Trackpoint 5734</name>
            </trkpt>
            <trkpt lat="49.7177248" lon="10.1529528">
                <ele>182.0</ele>
                <time>2020-08-23T11:48:13.000Z</time>
                <name>Trackpoint 5735</name>
            </trkpt>
            <trkpt lat="49.7176704" lon="10.15284">
                <ele>182.0</ele>
                <time>2020-08-23T11:48:15.000Z</time>
                <name>Trackpoint 5736</name>
            </trkpt>
            <trkpt lat="49.7176256" lon="10.1527368">
                <ele>182.0</ele>
                <time>2020-08-23T11:48:17.000Z</time>
                <name>Trackpoint 5737</name>
            </trkpt>
            <trkpt lat="49.7175936" lon="10.1526496">
                <ele>182.0</ele>
                <time>2020-08-23T11:48:19.000Z</time>
                <name>Trackpoint 5738</name>
            </trkpt>
            <trkpt lat="49.7175584" lon="10.15252">
                <ele>182.0</ele>
                <time>2020-08-23T11:48:22.000Z</time>
                <name>Trackpoint 5739</name>
            </trkpt>
            <trkpt lat="49.7175328" lon="10.1524248">
                <ele>181.0</ele>
                <time>2020-08-23T11:48:59.000Z</time>
                <name>Trackpoint 5740</name>
            </trkpt>
            <trkpt lat="49.7175168" lon="10.1522936">
                <ele>181.0</ele>
                <time>2020-08-23T11:49:03.000Z</time>
                <name>Trackpoint 5741</name>
            </trkpt>
            <trkpt lat="49.7174944" lon="10.1521832">
                <ele>181.0</ele>
                <time>2020-08-23T11:49:05.000Z</time>
                <name>Trackpoint 5742</name>
            </trkpt>
            <trkpt lat="49.7174528" lon="10.152068">
                <ele>181.0</ele>
                <time>2020-08-23T11:49:07.000Z</time>
                <name>Trackpoint 5743</name>
            </trkpt>
            <trkpt lat="49.7174144" lon="10.1519448">
                <ele>181.0</ele>
                <time>2020-08-23T11:49:09.000Z</time>
                <name>Trackpoint 5744</name>
            </trkpt>
            <trkpt lat="49.7173728" lon="10.1518248">
                <ele>181.0</ele>
                <time>2020-08-23T11:49:11.000Z</time>
                <name>Trackpoint 5745</name>
            </trkpt>
            <trkpt lat="49.7173344" lon="10.1517112">
                <ele>181.0</ele>
                <time>2020-08-23T11:49:13.000Z</time>
                <name>Trackpoint 5746</name>
            </trkpt>
            <trkpt lat="49.7172992" lon="10.1515968">
                <ele>181.0</ele>
                <time>2020-08-23T11:49:15.000Z</time>
                <name>Trackpoint 5747</name>
            </trkpt>
            <trkpt lat="49.7172544" lon="10.151472">
                <ele>180.0</ele>
                <time>2020-08-23T11:49:17.000Z</time>
                <name>Trackpoint 5748</name>
            </trkpt>
            <trkpt lat="49.7172128" lon="10.1513456">
                <ele>180.0</ele>
                <time>2020-08-23T11:49:19.000Z</time>
                <name>Trackpoint 5749</name>
            </trkpt>
            <trkpt lat="49.717168" lon="10.151212">
                <ele>180.0</ele>
                <time>2020-08-23T11:49:21.000Z</time>
                <name>Trackpoint 5750</name>
            </trkpt>
            <trkpt lat="49.7171168" lon="10.1510784">
                <ele>180.0</ele>
                <time>2020-08-23T11:49:23.000Z</time>
                <name>Trackpoint 5751</name>
            </trkpt>
            <trkpt lat="49.7170688" lon="10.1509448">
                <ele>180.0</ele>
                <time>2020-08-23T11:49:25.000Z</time>
                <name>Trackpoint 5752</name>
            </trkpt>
            <trkpt lat="49.7170144" lon="10.1508152">
                <ele>180.0</ele>
                <time>2020-08-23T11:49:27.000Z</time>
                <name>Trackpoint 5753</name>
            </trkpt>
            <trkpt lat="49.71696" lon="10.1506904">
                <ele>180.0</ele>
                <time>2020-08-23T11:49:29.000Z</time>
                <name>Trackpoint 5754</name>
            </trkpt>
            <trkpt lat="49.7169024" lon="10.15056">
                <ele>179.0</ele>
                <time>2020-08-23T11:49:31.000Z</time>
                <name>Trackpoint 5755</name>
            </trkpt>
            <trkpt lat="49.7168416" lon="10.1504352">
                <ele>179.0</ele>
                <time>2020-08-23T11:49:33.000Z</time>
                <name>Trackpoint 5756</name>
            </trkpt>
            <trkpt lat="49.716784" lon="10.1503088">
                <ele>179.0</ele>
                <time>2020-08-23T11:49:35.000Z</time>
                <name>Trackpoint 5757</name>
            </trkpt>
            <trkpt lat="49.716736" lon="10.1501712">
                <ele>179.0</ele>
                <time>2020-08-23T11:49:37.000Z</time>
                <name>Trackpoint 5758</name>
            </trkpt>
            <trkpt lat="49.7166848" lon="10.1500368">
                <ele>179.0</ele>
                <time>2020-08-23T11:49:39.000Z</time>
                <name>Trackpoint 5759</name>
            </trkpt>
            <trkpt lat="49.716624" lon="10.1499072">
                <ele>179.0</ele>
                <time>2020-08-23T11:49:41.000Z</time>
                <name>Trackpoint 5760</name>
            </trkpt>
            <trkpt lat="49.71656" lon="10.1497816">
                <ele>179.0</ele>
                <time>2020-08-23T11:49:43.000Z</time>
                <name>Trackpoint 5761</name>
            </trkpt>
            <trkpt lat="49.7165024" lon="10.1496552">
                <ele>179.0</ele>
                <time>2020-08-23T11:49:45.000Z</time>
                <name>Trackpoint 5762</name>
            </trkpt>
            <trkpt lat="49.7164384" lon="10.1495304">
                <ele>179.0</ele>
                <time>2020-08-23T11:49:47.000Z</time>
                <name>Trackpoint 5763</name>
            </trkpt>
            <trkpt lat="49.7163744" lon="10.1494104">
                <ele>180.0</ele>
                <time>2020-08-23T11:49:49.000Z</time>
                <name>Trackpoint 5764</name>
            </trkpt>
            <trkpt lat="49.7163168" lon="10.1492904">
                <ele>180.0</ele>
                <time>2020-08-23T11:49:51.000Z</time>
                <name>Trackpoint 5765</name>
            </trkpt>
            <trkpt lat="49.7162624" lon="10.1491616">
                <ele>180.0</ele>
                <time>2020-08-23T11:49:53.000Z</time>
                <name>Trackpoint 5766</name>
            </trkpt>
            <trkpt lat="49.7162016" lon="10.1490352">
                <ele>180.0</ele>
                <time>2020-08-23T11:49:55.000Z</time>
                <name>Trackpoint 5767</name>
            </trkpt>
            <trkpt lat="49.716144" lon="10.1489136">
                <ele>179.0</ele>
                <time>2020-08-23T11:49:57.000Z</time>
                <name>Trackpoint 5768</name>
            </trkpt>
            <trkpt lat="49.7160864" lon="10.1487864">
                <ele>179.0</ele>
                <time>2020-08-23T11:49:59.000Z</time>
                <name>Trackpoint 5769</name>
            </trkpt>
            <trkpt lat="49.7160288" lon="10.1486616">
                <ele>179.0</ele>
                <time>2020-08-23T11:50:01.000Z</time>
                <name>Trackpoint 5770</name>
            </trkpt>
            <trkpt lat="49.7159744" lon="10.1485384">
                <ele>179.0</ele>
                <time>2020-08-23T11:50:03.000Z</time>
                <name>Trackpoint 5771</name>
            </trkpt>
            <trkpt lat="49.71592" lon="10.1484184">
                <ele>180.0</ele>
                <time>2020-08-23T11:50:05.000Z</time>
                <name>Trackpoint 5772</name>
            </trkpt>
            <trkpt lat="49.7158624" lon="10.1482936">
                <ele>180.0</ele>
                <time>2020-08-23T11:50:07.000Z</time>
                <name>Trackpoint 5773</name>
            </trkpt>
            <trkpt lat="49.7158048" lon="10.1481736">
                <ele>180.0</ele>
                <time>2020-08-23T11:50:09.000Z</time>
                <name>Trackpoint 5774</name>
            </trkpt>
            <trkpt lat="49.7157472" lon="10.1480504">
                <ele>180.0</ele>
                <time>2020-08-23T11:50:11.000Z</time>
                <name>Trackpoint 5775</name>
            </trkpt>
            <trkpt lat="49.7156864" lon="10.1479184">
                <ele>180.0</ele>
                <time>2020-08-23T11:50:13.000Z</time>
                <name>Trackpoint 5776</name>
            </trkpt>
            <trkpt lat="49.7156288" lon="10.147788">
                <ele>180.0</ele>
                <time>2020-08-23T11:50:15.000Z</time>
                <name>Trackpoint 5777</name>
            </trkpt>
            <trkpt lat="49.7155712" lon="10.1476616">
                <ele>180.0</ele>
                <time>2020-08-23T11:50:17.000Z</time>
                <name>Trackpoint 5778</name>
            </trkpt>
            <trkpt lat="49.7155136" lon="10.1475336">
                <ele>179.0</ele>
                <time>2020-08-23T11:50:19.000Z</time>
                <name>Trackpoint 5779</name>
            </trkpt>
            <trkpt lat="49.7154528" lon="10.1474016">
                <ele>179.0</ele>
                <time>2020-08-23T11:50:21.000Z</time>
                <name>Trackpoint 5780</name>
            </trkpt>
            <trkpt lat="49.7153984" lon="10.1472704">
                <ele>179.0</ele>
                <time>2020-08-23T11:50:23.000Z</time>
                <name>Trackpoint 5781</name>
            </trkpt>
            <trkpt lat="49.7153408" lon="10.1471432">
                <ele>179.0</ele>
                <time>2020-08-23T11:50:25.000Z</time>
                <name>Trackpoint 5782</name>
            </trkpt>
            <trkpt lat="49.71528" lon="10.1470232">
                <ele>179.0</ele>
                <time>2020-08-23T11:50:27.000Z</time>
                <name>Trackpoint 5783</name>
            </trkpt>
            <trkpt lat="49.7152256" lon="10.1469072">
                <ele>179.0</ele>
                <time>2020-08-23T11:50:29.000Z</time>
                <name>Trackpoint 5784</name>
            </trkpt>
            <trkpt lat="49.7151744" lon="10.1467816">
                <ele>179.0</ele>
                <time>2020-08-23T11:50:31.000Z</time>
                <name>Trackpoint 5785</name>
            </trkpt>
            <trkpt lat="49.7151232" lon="10.1466576">
                <ele>179.0</ele>
                <time>2020-08-23T11:50:33.000Z</time>
                <name>Trackpoint 5786</name>
            </trkpt>
            <trkpt lat="49.7150656" lon="10.1465352">
                <ele>179.0</ele>
                <time>2020-08-23T11:50:35.000Z</time>
                <name>Trackpoint 5787</name>
            </trkpt>
            <trkpt lat="49.7150112" lon="10.146412">
                <ele>179.0</ele>
                <time>2020-08-23T11:50:37.000Z</time>
                <name>Trackpoint 5788</name>
            </trkpt>
            <trkpt lat="49.7149536" lon="10.1462848">
                <ele>179.0</ele>
                <time>2020-08-23T11:50:39.000Z</time>
                <name>Trackpoint 5789</name>
            </trkpt>
            <trkpt lat="49.7148928" lon="10.1461632">
                <ele>179.0</ele>
                <time>2020-08-23T11:50:41.000Z</time>
                <name>Trackpoint 5790</name>
            </trkpt>
            <trkpt lat="49.7148384" lon="10.14604">
                <ele>179.0</ele>
                <time>2020-08-23T11:50:43.000Z</time>
                <name>Trackpoint 5791</name>
            </trkpt>
            <trkpt lat="49.7147776" lon="10.1459168">
                <ele>179.0</ele>
                <time>2020-08-23T11:50:45.000Z</time>
                <name>Trackpoint 5792</name>
            </trkpt>
            <trkpt lat="49.7147232" lon="10.1458">
                <ele>179.0</ele>
                <time>2020-08-23T11:50:47.000Z</time>
                <name>Trackpoint 5793</name>
            </trkpt>
            <trkpt lat="49.714656" lon="10.1456872">
                <ele>179.0</ele>
                <time>2020-08-23T11:50:49.000Z</time>
                <name>Trackpoint 5794</name>
            </trkpt>
            <trkpt lat="49.714592" lon="10.1455784">
                <ele>179.0</ele>
                <time>2020-08-23T11:50:51.000Z</time>
                <name>Trackpoint 5795</name>
            </trkpt>
            <trkpt lat="49.7145248" lon="10.145476">
                <ele>179.0</ele>
                <time>2020-08-23T11:50:53.000Z</time>
                <name>Trackpoint 5796</name>
            </trkpt>
            <trkpt lat="49.7144608" lon="10.1453784">
                <ele>179.0</ele>
                <time>2020-08-23T11:50:55.000Z</time>
                <name>Trackpoint 5797</name>
            </trkpt>
            <trkpt lat="49.7143936" lon="10.1452848">
                <ele>179.0</ele>
                <time>2020-08-23T11:50:57.000Z</time>
                <name>Trackpoint 5798</name>
            </trkpt>
            <trkpt lat="49.7143296" lon="10.14518">
                <ele>179.0</ele>
                <time>2020-08-23T11:50:59.000Z</time>
                <name>Trackpoint 5799</name>
            </trkpt>
            <trkpt lat="49.7142688" lon="10.1450752">
                <ele>180.0</ele>
                <time>2020-08-23T11:51:01.000Z</time>
                <name>Trackpoint 5800</name>
            </trkpt>
            <trkpt lat="49.7141984" lon="10.144968">
                <ele>180.0</ele>
                <time>2020-08-23T11:51:03.000Z</time>
                <name>Trackpoint 5801</name>
            </trkpt>
            <trkpt lat="49.7141344" lon="10.1448768">
                <ele>181.0</ele>
                <time>2020-08-23T11:51:05.000Z</time>
                <name>Trackpoint 5802</name>
            </trkpt>
            <trkpt lat="49.714064" lon="10.1447696">
                <ele>181.0</ele>
                <time>2020-08-23T11:51:07.000Z</time>
                <name>Trackpoint 5803</name>
            </trkpt>
            <trkpt lat="49.7139968" lon="10.1446664">
                <ele>180.0</ele>
                <time>2020-08-23T11:51:09.000Z</time>
                <name>Trackpoint 5804</name>
            </trkpt>
            <trkpt lat="49.7139296" lon="10.1445616">
                <ele>180.0</ele>
                <time>2020-08-23T11:51:11.000Z</time>
                <name>Trackpoint 5805</name>
            </trkpt>
            <trkpt lat="49.7138624" lon="10.1444552">
                <ele>180.0</ele>
                <time>2020-08-23T11:51:13.000Z</time>
                <name>Trackpoint 5806</name>
            </trkpt>
            <trkpt lat="49.7137952" lon="10.144348">
                <ele>180.0</ele>
                <time>2020-08-23T11:51:15.000Z</time>
                <name>Trackpoint 5807</name>
            </trkpt>
            <trkpt lat="49.7137248" lon="10.1442416">
                <ele>180.0</ele>
                <time>2020-08-23T11:51:17.000Z</time>
                <name>Trackpoint 5808</name>
            </trkpt>
            <trkpt lat="49.7136576" lon="10.1441352">
                <ele>180.0</ele>
                <time>2020-08-23T11:51:19.000Z</time>
                <name>Trackpoint 5809</name>
            </trkpt>
            <trkpt lat="49.713584" lon="10.1440248">
                <ele>180.0</ele>
                <time>2020-08-23T11:51:21.000Z</time>
                <name>Trackpoint 5810</name>
            </trkpt>
            <trkpt lat="49.7135232" lon="10.1439264">
                <ele>180.0</ele>
                <time>2020-08-23T11:51:23.000Z</time>
                <name>Trackpoint 5811</name>
            </trkpt>
            <trkpt lat="49.7134592" lon="10.1438304">
                <ele>180.0</ele>
                <time>2020-08-23T11:51:25.000Z</time>
                <name>Trackpoint 5812</name>
            </trkpt>
            <trkpt lat="49.7134016" lon="10.1437384">
                <ele>180.0</ele>
                <time>2020-08-23T11:51:27.000Z</time>
                <name>Trackpoint 5813</name>
            </trkpt>
            <trkpt lat="49.713344" lon="10.1436416">
                <ele>179.0</ele>
                <time>2020-08-23T11:51:29.000Z</time>
                <name>Trackpoint 5814</name>
            </trkpt>
            <trkpt lat="49.7132832" lon="10.1435472">
                <ele>179.0</ele>
                <time>2020-08-23T11:51:31.000Z</time>
                <name>Trackpoint 5815</name>
            </trkpt>
            <trkpt lat="49.7132224" lon="10.1434496">
                <ele>179.0</ele>
                <time>2020-08-23T11:51:33.000Z</time>
                <name>Trackpoint 5816</name>
            </trkpt>
            <trkpt lat="49.7131616" lon="10.1433448">
                <ele>179.0</ele>
                <time>2020-08-23T11:51:35.000Z</time>
                <name>Trackpoint 5817</name>
            </trkpt>
            <trkpt lat="49.7130944" lon="10.143244">
                <ele>179.0</ele>
                <time>2020-08-23T11:51:37.000Z</time>
                <name>Trackpoint 5818</name>
            </trkpt>
            <trkpt lat="49.7130208" lon="10.1431312">
                <ele>179.0</ele>
                <time>2020-08-23T11:51:39.000Z</time>
                <name>Trackpoint 5819</name>
            </trkpt>
            <trkpt lat="49.71296" lon="10.1430264">
                <ele>179.0</ele>
                <time>2020-08-23T11:51:41.000Z</time>
                <name>Trackpoint 5820</name>
            </trkpt>
            <trkpt lat="49.7128896" lon="10.1429328">
                <ele>180.0</ele>
                <time>2020-08-23T11:51:43.000Z</time>
                <name>Trackpoint 5821</name>
            </trkpt>
            <trkpt lat="49.7128256" lon="10.142828">
                <ele>179.0</ele>
                <time>2020-08-23T11:51:45.000Z</time>
                <name>Trackpoint 5822</name>
            </trkpt>
            <trkpt lat="49.7127648" lon="10.1427248">
                <ele>179.0</ele>
                <time>2020-08-23T11:51:47.000Z</time>
                <name>Trackpoint 5823</name>
            </trkpt>
            <trkpt lat="49.7126976" lon="10.142616">
                <ele>180.0</ele>
                <time>2020-08-23T11:51:49.000Z</time>
                <name>Trackpoint 5824</name>
            </trkpt>
            <trkpt lat="49.7126272" lon="10.1425104">
                <ele>180.0</ele>
                <time>2020-08-23T11:51:51.000Z</time>
                <name>Trackpoint 5825</name>
            </trkpt>
            <trkpt lat="49.7125536" lon="10.1424064">
                <ele>180.0</ele>
                <time>2020-08-23T11:51:53.000Z</time>
                <name>Trackpoint 5826</name>
            </trkpt>
            <trkpt lat="49.7124896" lon="10.1422984">
                <ele>180.0</ele>
                <time>2020-08-23T11:51:55.000Z</time>
                <name>Trackpoint 5827</name>
            </trkpt>
            <trkpt lat="49.7124224" lon="10.1421896">
                <ele>180.0</ele>
                <time>2020-08-23T11:51:57.000Z</time>
                <name>Trackpoint 5828</name>
            </trkpt>
            <trkpt lat="49.712352" lon="10.1420848">
                <ele>180.0</ele>
                <time>2020-08-23T11:51:59.000Z</time>
                <name>Trackpoint 5829</name>
            </trkpt>
            <trkpt lat="49.7122848" lon="10.14198">
                <ele>180.0</ele>
                <time>2020-08-23T11:52:01.000Z</time>
                <name>Trackpoint 5830</name>
            </trkpt>
            <trkpt lat="49.7122144" lon="10.14188">
                <ele>180.0</ele>
                <time>2020-08-23T11:52:03.000Z</time>
                <name>Trackpoint 5831</name>
            </trkpt>
            <trkpt lat="49.7121472" lon="10.1417768">
                <ele>180.0</ele>
                <time>2020-08-23T11:52:05.000Z</time>
                <name>Trackpoint 5832</name>
            </trkpt>
            <trkpt lat="49.7120672" lon="10.1416864">
                <ele>180.0</ele>
                <time>2020-08-23T11:52:07.000Z</time>
                <name>Trackpoint 5833</name>
            </trkpt>
            <trkpt lat="49.7119904" lon="10.1415952">
                <ele>180.0</ele>
                <time>2020-08-23T11:52:09.000Z</time>
                <name>Trackpoint 5834</name>
            </trkpt>
            <trkpt lat="49.7119136" lon="10.141492">
                <ele>180.0</ele>
                <time>2020-08-23T11:52:11.000Z</time>
                <name>Trackpoint 5835</name>
            </trkpt>
            <trkpt lat="49.7118368" lon="10.1413832">
                <ele>180.0</ele>
                <time>2020-08-23T11:52:13.000Z</time>
                <name>Trackpoint 5836</name>
            </trkpt>
            <trkpt lat="49.7117696" lon="10.1412712">
                <ele>180.0</ele>
                <time>2020-08-23T11:52:15.000Z</time>
                <name>Trackpoint 5837</name>
            </trkpt>
            <trkpt lat="49.7116928" lon="10.1411752">
                <ele>180.0</ele>
                <time>2020-08-23T11:52:17.000Z</time>
                <name>Trackpoint 5838</name>
            </trkpt>
            <trkpt lat="49.7116096" lon="10.1410912">
                <ele>180.0</ele>
                <time>2020-08-23T11:52:19.000Z</time>
                <name>Trackpoint 5839</name>
            </trkpt>
            <trkpt lat="49.7115296" lon="10.1410048">
                <ele>180.0</ele>
                <time>2020-08-23T11:52:21.000Z</time>
                <name>Trackpoint 5840</name>
            </trkpt>
            <trkpt lat="49.7114464" lon="10.1409184">
                <ele>180.0</ele>
                <time>2020-08-23T11:52:23.000Z</time>
                <name>Trackpoint 5841</name>
            </trkpt>
            <trkpt lat="49.71136" lon="10.1408368">
                <ele>180.0</ele>
                <time>2020-08-23T11:52:25.000Z</time>
                <name>Trackpoint 5842</name>
            </trkpt>
            <trkpt lat="49.7112768" lon="10.140752">
                <ele>180.0</ele>
                <time>2020-08-23T11:52:27.000Z</time>
                <name>Trackpoint 5843</name>
            </trkpt>
            <trkpt lat="49.7111968" lon="10.1406648">
                <ele>180.0</ele>
                <time>2020-08-23T11:52:29.000Z</time>
                <name>Trackpoint 5844</name>
            </trkpt>
            <trkpt lat="49.7111104" lon="10.140576">
                <ele>180.0</ele>
                <time>2020-08-23T11:52:31.000Z</time>
                <name>Trackpoint 5845</name>
            </trkpt>
            <trkpt lat="49.7110304" lon="10.1404936">
                <ele>180.0</ele>
                <time>2020-08-23T11:52:33.000Z</time>
                <name>Trackpoint 5846</name>
            </trkpt>
            <trkpt lat="49.710944" lon="10.1404112">
                <ele>180.0</ele>
                <time>2020-08-23T11:52:35.000Z</time>
                <name>Trackpoint 5847</name>
            </trkpt>
            <trkpt lat="49.710864" lon="10.1403216">
                <ele>180.0</ele>
                <time>2020-08-23T11:52:37.000Z</time>
                <name>Trackpoint 5848</name>
            </trkpt>
            <trkpt lat="49.710784" lon="10.1402352">
                <ele>180.0</ele>
                <time>2020-08-23T11:52:39.000Z</time>
                <name>Trackpoint 5849</name>
            </trkpt>
            <trkpt lat="49.7107008" lon="10.140152">
                <ele>180.0</ele>
                <time>2020-08-23T11:52:41.000Z</time>
                <name>Trackpoint 5850</name>
            </trkpt>
            <trkpt lat="49.7106176" lon="10.1400736">
                <ele>180.0</ele>
                <time>2020-08-23T11:52:43.000Z</time>
                <name>Trackpoint 5851</name>
            </trkpt>
            <trkpt lat="49.7105376" lon="10.1399896">
                <ele>180.0</ele>
                <time>2020-08-23T11:52:45.000Z</time>
                <name>Trackpoint 5852</name>
            </trkpt>
            <trkpt lat="49.7104576" lon="10.1399072">
                <ele>180.0</ele>
                <time>2020-08-23T11:52:47.000Z</time>
                <name>Trackpoint 5853</name>
            </trkpt>
            <trkpt lat="49.7103776" lon="10.1398232">
                <ele>180.0</ele>
                <time>2020-08-23T11:52:49.000Z</time>
                <name>Trackpoint 5854</name>
            </trkpt>
            <trkpt lat="49.7102944" lon="10.139744">
                <ele>180.0</ele>
                <time>2020-08-23T11:52:51.000Z</time>
                <name>Trackpoint 5855</name>
            </trkpt>
            <trkpt lat="49.7102048" lon="10.139664">
                <ele>180.0</ele>
                <time>2020-08-23T11:52:53.000Z</time>
                <name>Trackpoint 5856</name>
            </trkpt>
            <trkpt lat="49.710112" lon="10.1395864">
                <ele>180.0</ele>
                <time>2020-08-23T11:52:55.000Z</time>
                <name>Trackpoint 5857</name>
            </trkpt>
            <trkpt lat="49.7100256" lon="10.139508">
                <ele>180.0</ele>
                <time>2020-08-23T11:52:57.000Z</time>
                <name>Trackpoint 5858</name>
            </trkpt>
            <trkpt lat="49.7099328" lon="10.1394392">
                <ele>180.0</ele>
                <time>2020-08-23T11:52:59.000Z</time>
                <name>Trackpoint 5859</name>
            </trkpt>
            <trkpt lat="49.7098464" lon="10.1393696">
                <ele>180.0</ele>
                <time>2020-08-23T11:53:01.000Z</time>
                <name>Trackpoint 5860</name>
            </trkpt>
            <trkpt lat="49.70976" lon="10.1392872">
                <ele>180.0</ele>
                <time>2020-08-23T11:53:03.000Z</time>
                <name>Trackpoint 5861</name>
            </trkpt>
            <trkpt lat="49.7096704" lon="10.1392136">
                <ele>179.0</ele>
                <time>2020-08-23T11:53:05.000Z</time>
                <name>Trackpoint 5862</name>
            </trkpt>
            <trkpt lat="49.709584" lon="10.1391384">
                <ele>179.0</ele>
                <time>2020-08-23T11:53:07.000Z</time>
                <name>Trackpoint 5863</name>
            </trkpt>
            <trkpt lat="49.7094944" lon="10.1390648">
                <ele>179.0</ele>
                <time>2020-08-23T11:53:09.000Z</time>
                <name>Trackpoint 5864</name>
            </trkpt>
            <trkpt lat="49.709408" lon="10.1389936">
                <ele>179.0</ele>
                <time>2020-08-23T11:53:11.000Z</time>
                <name>Trackpoint 5865</name>
            </trkpt>
            <trkpt lat="49.7093152" lon="10.1389248">
                <ele>179.0</ele>
                <time>2020-08-23T11:53:13.000Z</time>
                <name>Trackpoint 5866</name>
            </trkpt>
            <trkpt lat="49.709232" lon="10.1388464">
                <ele>179.0</ele>
                <time>2020-08-23T11:53:15.000Z</time>
                <name>Trackpoint 5867</name>
            </trkpt>
            <trkpt lat="49.7091488" lon="10.1387728">
                <ele>179.0</ele>
                <time>2020-08-23T11:53:17.000Z</time>
                <name>Trackpoint 5868</name>
            </trkpt>
            <trkpt lat="49.7090592" lon="10.1387032">
                <ele>179.0</ele>
                <time>2020-08-23T11:53:19.000Z</time>
                <name>Trackpoint 5869</name>
            </trkpt>
            <trkpt lat="49.7089696" lon="10.138632">
                <ele>179.0</ele>
                <time>2020-08-23T11:53:21.000Z</time>
                <name>Trackpoint 5870</name>
            </trkpt>
            <trkpt lat="49.7088864" lon="10.13856">
                <ele>179.0</ele>
                <time>2020-08-23T11:53:23.000Z</time>
                <name>Trackpoint 5871</name>
            </trkpt>
            <trkpt lat="49.7087968" lon="10.138492">
                <ele>179.0</ele>
                <time>2020-08-23T11:53:25.000Z</time>
                <name>Trackpoint 5872</name>
            </trkpt>
            <trkpt lat="49.7087136" lon="10.1384224">
                <ele>179.0</ele>
                <time>2020-08-23T11:53:27.000Z</time>
                <name>Trackpoint 5873</name>
            </trkpt>
            <trkpt lat="49.7086304" lon="10.1383464">
                <ele>179.0</ele>
                <time>2020-08-23T11:53:29.000Z</time>
                <name>Trackpoint 5874</name>
            </trkpt>
            <trkpt lat="49.7085408" lon="10.1382752">
                <ele>179.0</ele>
                <time>2020-08-23T11:53:31.000Z</time>
                <name>Trackpoint 5875</name>
            </trkpt>
            <trkpt lat="49.7084576" lon="10.1382048">
                <ele>179.0</ele>
                <time>2020-08-23T11:53:33.000Z</time>
                <name>Trackpoint 5876</name>
            </trkpt>
            <trkpt lat="49.7083744" lon="10.1381328">
                <ele>179.0</ele>
                <time>2020-08-23T11:53:35.000Z</time>
                <name>Trackpoint 5877</name>
            </trkpt>
            <trkpt lat="49.7082912" lon="10.1380664">
                <ele>178.0</ele>
                <time>2020-08-23T11:53:37.000Z</time>
                <name>Trackpoint 5878</name>
            </trkpt>
            <trkpt lat="49.7082048" lon="10.1379944">
                <ele>178.0</ele>
                <time>2020-08-23T11:53:39.000Z</time>
                <name>Trackpoint 5879</name>
            </trkpt>
            <trkpt lat="49.7081216" lon="10.1379248">
                <ele>178.0</ele>
                <time>2020-08-23T11:53:41.000Z</time>
                <name>Trackpoint 5880</name>
            </trkpt>
            <trkpt lat="49.7080384" lon="10.1378568">
                <ele>178.0</ele>
                <time>2020-08-23T11:53:43.000Z</time>
                <name>Trackpoint 5881</name>
            </trkpt>
            <trkpt lat="49.707952" lon="10.1377888">
                <ele>178.0</ele>
                <time>2020-08-23T11:53:45.000Z</time>
                <name>Trackpoint 5882</name>
            </trkpt>
            <trkpt lat="49.7078624" lon="10.13772">
                <ele>178.0</ele>
                <time>2020-08-23T11:53:47.000Z</time>
                <name>Trackpoint 5883</name>
            </trkpt>
            <trkpt lat="49.707776" lon="10.13766">
                <ele>178.0</ele>
                <time>2020-08-23T11:53:49.000Z</time>
                <name>Trackpoint 5884</name>
            </trkpt>
            <trkpt lat="49.7076832" lon="10.1376088">
                <ele>177.0</ele>
                <time>2020-08-23T11:53:51.000Z</time>
                <name>Trackpoint 5885</name>
            </trkpt>
            <trkpt lat="49.7075936" lon="10.1375368">
                <ele>177.0</ele>
                <time>2020-08-23T11:53:53.000Z</time>
                <name>Trackpoint 5886</name>
            </trkpt>
            <trkpt lat="49.707504" lon="10.1374704">
                <ele>178.0</ele>
                <time>2020-08-23T11:53:55.000Z</time>
                <name>Trackpoint 5887</name>
            </trkpt>
            <trkpt lat="49.7074208" lon="10.137412">
                <ele>178.0</ele>
                <time>2020-08-23T11:53:57.000Z</time>
                <name>Trackpoint 5888</name>
            </trkpt>
            <trkpt lat="49.7073408" lon="10.13736">
                <ele>178.0</ele>
                <time>2020-08-23T11:53:59.000Z</time>
                <name>Trackpoint 5889</name>
            </trkpt>
            <trkpt lat="49.7072608" lon="10.1373056">
                <ele>178.0</ele>
                <time>2020-08-23T11:54:01.000Z</time>
                <name>Trackpoint 5890</name>
            </trkpt>
            <trkpt lat="49.7071712" lon="10.1372472">
                <ele>178.0</ele>
                <time>2020-08-23T11:54:03.000Z</time>
                <name>Trackpoint 5891</name>
            </trkpt>
            <trkpt lat="49.7070816" lon="10.1371968">
                <ele>178.0</ele>
                <time>2020-08-23T11:54:05.000Z</time>
                <name>Trackpoint 5892</name>
            </trkpt>
            <trkpt lat="49.706992" lon="10.1371432">
                <ele>178.0</ele>
                <time>2020-08-23T11:54:07.000Z</time>
                <name>Trackpoint 5893</name>
            </trkpt>
            <trkpt lat="49.7069024" lon="10.137092">
                <ele>178.0</ele>
                <time>2020-08-23T11:54:09.000Z</time>
                <name>Trackpoint 5894</name>
            </trkpt>
            <trkpt lat="49.7068192" lon="10.1370432">
                <ele>178.0</ele>
                <time>2020-08-23T11:54:11.000Z</time>
                <name>Trackpoint 5895</name>
            </trkpt>
            <trkpt lat="49.7067264" lon="10.1369888">
                <ele>178.0</ele>
                <time>2020-08-23T11:54:13.000Z</time>
                <name>Trackpoint 5896</name>
            </trkpt>
            <trkpt lat="49.7066336" lon="10.1369336">
                <ele>178.0</ele>
                <time>2020-08-23T11:54:15.000Z</time>
                <name>Trackpoint 5897</name>
            </trkpt>
            <trkpt lat="49.7065472" lon="10.1368768">
                <ele>177.0</ele>
                <time>2020-08-23T11:54:17.000Z</time>
                <name>Trackpoint 5898</name>
            </trkpt>
            <trkpt lat="49.7064544" lon="10.1368264">
                <ele>177.0</ele>
                <time>2020-08-23T11:54:19.000Z</time>
                <name>Trackpoint 5899</name>
            </trkpt>
            <trkpt lat="49.7063584" lon="10.1367768">
                <ele>177.0</ele>
                <time>2020-08-23T11:54:21.000Z</time>
                <name>Trackpoint 5900</name>
            </trkpt>
            <trkpt lat="49.7062656" lon="10.136728">
                <ele>177.0</ele>
                <time>2020-08-23T11:54:23.000Z</time>
                <name>Trackpoint 5901</name>
            </trkpt>
            <trkpt lat="49.7061728" lon="10.1366784">
                <ele>177.0</ele>
                <time>2020-08-23T11:54:25.000Z</time>
                <name>Trackpoint 5902</name>
            </trkpt>
            <trkpt lat="49.70608" lon="10.1366304">
                <ele>177.0</ele>
                <time>2020-08-23T11:54:27.000Z</time>
                <name>Trackpoint 5903</name>
            </trkpt>
            <trkpt lat="49.7059872" lon="10.1365872">
                <ele>177.0</ele>
                <time>2020-08-23T11:54:29.000Z</time>
                <name>Trackpoint 5904</name>
            </trkpt>
            <trkpt lat="49.7058976" lon="10.1365448">
                <ele>177.0</ele>
                <time>2020-08-23T11:54:31.000Z</time>
                <name>Trackpoint 5905</name>
            </trkpt>
            <trkpt lat="49.7058144" lon="10.1365032">
                <ele>177.0</ele>
                <time>2020-08-23T11:54:33.000Z</time>
                <name>Trackpoint 5906</name>
            </trkpt>
            <trkpt lat="49.7057312" lon="10.13646">
                <ele>177.0</ele>
                <time>2020-08-23T11:54:35.000Z</time>
                <name>Trackpoint 5907</name>
            </trkpt>
            <trkpt lat="49.7056416" lon="10.1364088">
                <ele>177.0</ele>
                <time>2020-08-23T11:54:37.000Z</time>
                <name>Trackpoint 5908</name>
            </trkpt>
            <trkpt lat="49.7055488" lon="10.1363584">
                <ele>177.0</ele>
                <time>2020-08-23T11:54:39.000Z</time>
                <name>Trackpoint 5909</name>
            </trkpt>
            <trkpt lat="49.7054496" lon="10.1363064">
                <ele>177.0</ele>
                <time>2020-08-23T11:54:41.000Z</time>
                <name>Trackpoint 5910</name>
            </trkpt>
            <trkpt lat="49.7053536" lon="10.1362584">
                <ele>177.0</ele>
                <time>2020-08-23T11:54:43.000Z</time>
                <name>Trackpoint 5911</name>
            </trkpt>
            <trkpt lat="49.7052512" lon="10.1362048">
                <ele>177.0</ele>
                <time>2020-08-23T11:54:45.000Z</time>
                <name>Trackpoint 5912</name>
            </trkpt>
            <trkpt lat="49.7051456" lon="10.1361568">
                <ele>177.0</ele>
                <time>2020-08-23T11:54:47.000Z</time>
                <name>Trackpoint 5913</name>
            </trkpt>
            <trkpt lat="49.70504" lon="10.1361016">
                <ele>177.0</ele>
                <time>2020-08-23T11:54:49.000Z</time>
                <name>Trackpoint 5914</name>
            </trkpt>
            <trkpt lat="49.7049344" lon="10.1360464">
                <ele>177.0</ele>
                <time>2020-08-23T11:54:51.000Z</time>
                <name>Trackpoint 5915</name>
            </trkpt>
            <trkpt lat="49.7048288" lon="10.1359928">
                <ele>177.0</ele>
                <time>2020-08-23T11:54:53.000Z</time>
                <name>Trackpoint 5916</name>
            </trkpt>
            <trkpt lat="49.7047232" lon="10.1359392">
                <ele>176.0</ele>
                <time>2020-08-23T11:54:55.000Z</time>
                <name>Trackpoint 5917</name>
            </trkpt>
            <trkpt lat="49.7046176" lon="10.1358864">
                <ele>176.0</ele>
                <time>2020-08-23T11:54:57.000Z</time>
                <name>Trackpoint 5918</name>
            </trkpt>
            <trkpt lat="49.704512" lon="10.1358408">
                <ele>176.0</ele>
                <time>2020-08-23T11:54:59.000Z</time>
                <name>Trackpoint 5919</name>
            </trkpt>
            <trkpt lat="49.7044128" lon="10.1357984">
                <ele>176.0</ele>
                <time>2020-08-23T11:55:01.000Z</time>
                <name>Trackpoint 5920</name>
            </trkpt>
            <trkpt lat="49.7043232" lon="10.1357544">
                <ele>177.0</ele>
                <time>2020-08-23T11:55:03.000Z</time>
                <name>Trackpoint 5921</name>
            </trkpt>
            <trkpt lat="49.7042304" lon="10.1357">
                <ele>176.0</ele>
                <time>2020-08-23T11:55:05.000Z</time>
                <name>Trackpoint 5922</name>
            </trkpt>
            <trkpt lat="49.7041312" lon="10.1356536">
                <ele>177.0</ele>
                <time>2020-08-23T11:55:07.000Z</time>
                <name>Trackpoint 5923</name>
            </trkpt>
            <trkpt lat="49.704032" lon="10.1356016">
                <ele>177.0</ele>
                <time>2020-08-23T11:55:09.000Z</time>
                <name>Trackpoint 5924</name>
            </trkpt>
            <trkpt lat="49.7039296" lon="10.1355496">
                <ele>176.0</ele>
                <time>2020-08-23T11:55:11.000Z</time>
                <name>Trackpoint 5925</name>
            </trkpt>
            <trkpt lat="49.7038304" lon="10.1354952">
                <ele>176.0</ele>
                <time>2020-08-23T11:55:13.000Z</time>
                <name>Trackpoint 5926</name>
            </trkpt>
            <trkpt lat="49.703728" lon="10.13544">
                <ele>176.0</ele>
                <time>2020-08-23T11:55:15.000Z</time>
                <name>Trackpoint 5927</name>
            </trkpt>
            <trkpt lat="49.7036288" lon="10.135404">
                <ele>176.0</ele>
                <time>2020-08-23T11:55:17.000Z</time>
                <name>Trackpoint 5928</name>
            </trkpt>
            <trkpt lat="49.7035328" lon="10.1353456">
                <ele>176.0</ele>
                <time>2020-08-23T11:55:19.000Z</time>
                <name>Trackpoint 5929</name>
            </trkpt>
            <trkpt lat="49.7034432" lon="10.1352968">
                <ele>176.0</ele>
                <time>2020-08-23T11:55:21.000Z</time>
                <name>Trackpoint 5930</name>
            </trkpt>
            <trkpt lat="49.7033504" lon="10.1352504">
                <ele>176.0</ele>
                <time>2020-08-23T11:55:23.000Z</time>
                <name>Trackpoint 5931</name>
            </trkpt>
            <trkpt lat="49.7032608" lon="10.1352064">
                <ele>176.0</ele>
                <time>2020-08-23T11:55:25.000Z</time>
                <name>Trackpoint 5932</name>
            </trkpt>
            <trkpt lat="49.7031712" lon="10.1351632">
                <ele>176.0</ele>
                <time>2020-08-23T11:55:27.000Z</time>
                <name>Trackpoint 5933</name>
            </trkpt>
            <trkpt lat="49.703088" lon="10.1351184">
                <ele>177.0</ele>
                <time>2020-08-23T11:55:29.000Z</time>
                <name>Trackpoint 5934</name>
            </trkpt>
            <trkpt lat="49.7029696" lon="10.1350632">
                <ele>177.0</ele>
                <time>2020-08-23T11:55:32.000Z</time>
                <name>Trackpoint 5935</name>
            </trkpt>
            <trkpt lat="49.7028544" lon="10.1350136">
                <ele>176.0</ele>
                <time>2020-08-23T11:55:35.000Z</time>
                <name>Trackpoint 5936</name>
            </trkpt>
            <trkpt lat="49.702736" lon="10.1349552">
                <ele>176.0</ele>
                <time>2020-08-23T11:55:38.000Z</time>
                <name>Trackpoint 5937</name>
            </trkpt>
            <trkpt lat="49.7026176" lon="10.1348984">
                <ele>176.0</ele>
                <time>2020-08-23T11:55:41.000Z</time>
                <name>Trackpoint 5938</name>
            </trkpt>
            <trkpt lat="49.702512" lon="10.1348384">
                <ele>176.0</ele>
                <time>2020-08-23T11:55:44.000Z</time>
                <name>Trackpoint 5939</name>
            </trkpt>
            <trkpt lat="49.702432" lon="10.1347952">
                <ele>176.0</ele>
                <time>2020-08-23T11:55:46.000Z</time>
                <name>Trackpoint 5940</name>
            </trkpt>
            <trkpt lat="49.7023456" lon="10.1347536">
                <ele>176.0</ele>
                <time>2020-08-23T11:55:48.000Z</time>
                <name>Trackpoint 5941</name>
            </trkpt>
            <trkpt lat="49.7022656" lon="10.1347112">
                <ele>176.0</ele>
                <time>2020-08-23T11:55:50.000Z</time>
                <name>Trackpoint 5942</name>
            </trkpt>
            <trkpt lat="49.7021856" lon="10.134668">
                <ele>176.0</ele>
                <time>2020-08-23T11:55:52.000Z</time>
                <name>Trackpoint 5943</name>
            </trkpt>
            <trkpt lat="49.7021056" lon="10.1346232">
                <ele>176.0</ele>
                <time>2020-08-23T11:55:54.000Z</time>
                <name>Trackpoint 5944</name>
            </trkpt>
            <trkpt lat="49.7020224" lon="10.1345784">
                <ele>176.0</ele>
                <time>2020-08-23T11:55:56.000Z</time>
                <name>Trackpoint 5945</name>
            </trkpt>
            <trkpt lat="49.7019424" lon="10.1345368">
                <ele>176.0</ele>
                <time>2020-08-23T11:55:58.000Z</time>
                <name>Trackpoint 5946</name>
            </trkpt>
            <trkpt lat="49.7018592" lon="10.1344968">
                <ele>177.0</ele>
                <time>2020-08-23T11:56:00.000Z</time>
                <name>Trackpoint 5947</name>
            </trkpt>
            <trkpt lat="49.7017696" lon="10.1344408">
                <ele>177.0</ele>
                <time>2020-08-23T11:56:02.000Z</time>
                <name>Trackpoint 5948</name>
            </trkpt>
            <trkpt lat="49.7016864" lon="10.1343944">
                <ele>177.0</ele>
                <time>2020-08-23T11:56:04.000Z</time>
                <name>Trackpoint 5949</name>
            </trkpt>
            <trkpt lat="49.7016" lon="10.134352">
                <ele>177.0</ele>
                <time>2020-08-23T11:56:06.000Z</time>
                <name>Trackpoint 5950</name>
            </trkpt>
            <trkpt lat="49.7015104" lon="10.1343048">
                <ele>177.0</ele>
                <time>2020-08-23T11:56:08.000Z</time>
                <name>Trackpoint 5951</name>
            </trkpt>
            <trkpt lat="49.7014208" lon="10.134256">
                <ele>177.0</ele>
                <time>2020-08-23T11:56:10.000Z</time>
                <name>Trackpoint 5952</name>
            </trkpt>
            <trkpt lat="49.7013312" lon="10.1342184">
                <ele>177.0</ele>
                <time>2020-08-23T11:56:12.000Z</time>
                <name>Trackpoint 5953</name>
            </trkpt>
            <trkpt lat="49.7012096" lon="10.13416">
                <ele>177.0</ele>
                <time>2020-08-23T11:56:15.000Z</time>
                <name>Trackpoint 5954</name>
            </trkpt>
            <trkpt lat="49.7010912" lon="10.1341048">
                <ele>177.0</ele>
                <time>2020-08-23T11:56:18.000Z</time>
                <name>Trackpoint 5955</name>
            </trkpt>
            <trkpt lat="49.7009728" lon="10.1340552">
                <ele>178.0</ele>
                <time>2020-08-23T11:56:21.000Z</time>
                <name>Trackpoint 5956</name>
            </trkpt>
            <trkpt lat="49.700896" lon="10.1340064">
                <ele>178.0</ele>
                <time>2020-08-23T11:56:29.000Z</time>
                <name>Trackpoint 5957</name>
            </trkpt>
            <trkpt lat="49.7007968" lon="10.1339816">
                <ele>179.0</ele>
                <time>2020-08-23T11:57:40.000Z</time>
                <name>Trackpoint 5958</name>
            </trkpt>
            <trkpt lat="49.7006976" lon="10.1339648">
                <ele>180.0</ele>
                <time>2020-08-23T11:57:44.000Z</time>
                <name>Trackpoint 5959</name>
            </trkpt>
            <trkpt lat="49.7005888" lon="10.1339456">
                <ele>180.0</ele>
                <time>2020-08-23T11:57:48.000Z</time>
                <name>Trackpoint 5960</name>
            </trkpt>
            <trkpt lat="49.7004608" lon="10.1339256">
                <ele>180.0</ele>
                <time>2020-08-23T11:57:52.000Z</time>
                <name>Trackpoint 5961</name>
            </trkpt>
            <trkpt lat="49.7003488" lon="10.1339016">
                <ele>179.0</ele>
                <time>2020-08-23T11:57:55.000Z</time>
                <name>Trackpoint 5962</name>
            </trkpt>
            <trkpt lat="49.7002336" lon="10.1339">
                <ele>178.0</ele>
                <time>2020-08-23T11:57:59.000Z</time>
                <name>Trackpoint 5963</name>
            </trkpt>
            <trkpt lat="49.7001408" lon="10.133912">
                <ele>180.0</ele>
                <time>2020-08-23T11:58:03.000Z</time>
                <name>Trackpoint 5964</name>
            </trkpt>
            <trkpt lat="49.7000512" lon="10.1338568">
                <ele>179.0</ele>
                <time>2020-08-23T11:58:37.000Z</time>
                <name>Trackpoint 5965</name>
            </trkpt>
            <trkpt lat="49.6999392" lon="10.1338192">
                <ele>179.0</ele>
                <time>2020-08-23T11:58:40.000Z</time>
                <name>Trackpoint 5966</name>
            </trkpt>
            <trkpt lat="49.69984" lon="10.1337784">
                <ele>179.0</ele>
                <time>2020-08-23T11:58:42.000Z</time>
                <name>Trackpoint 5967</name>
            </trkpt>
            <trkpt lat="49.6997408" lon="10.1337344">
                <ele>179.0</ele>
                <time>2020-08-23T11:58:44.000Z</time>
                <name>Trackpoint 5968</name>
            </trkpt>
            <trkpt lat="49.6996384" lon="10.1337">
                <ele>179.0</ele>
                <time>2020-08-23T11:58:46.000Z</time>
                <name>Trackpoint 5969</name>
            </trkpt>
            <trkpt lat="49.6995232" lon="10.1336584">
                <ele>179.0</ele>
                <time>2020-08-23T11:58:48.000Z</time>
                <name>Trackpoint 5970</name>
            </trkpt>
            <trkpt lat="49.6994144" lon="10.1336184">
                <ele>179.0</ele>
                <time>2020-08-23T11:58:50.000Z</time>
                <name>Trackpoint 5971</name>
            </trkpt>
            <trkpt lat="49.6992928" lon="10.1335888">
                <ele>179.0</ele>
                <time>2020-08-23T11:58:52.000Z</time>
                <name>Trackpoint 5972</name>
            </trkpt>
            <trkpt lat="49.6991808" lon="10.1335584">
                <ele>179.0</ele>
                <time>2020-08-23T11:58:54.000Z</time>
                <name>Trackpoint 5973</name>
            </trkpt>
            <trkpt lat="49.6990688" lon="10.133536">
                <ele>179.0</ele>
                <time>2020-08-23T11:58:56.000Z</time>
                <name>Trackpoint 5974</name>
            </trkpt>
            <trkpt lat="49.69896" lon="10.1335">
                <ele>179.0</ele>
                <time>2020-08-23T11:58:58.000Z</time>
                <name>Trackpoint 5975</name>
            </trkpt>
            <trkpt lat="49.6988512" lon="10.1334616">
                <ele>179.0</ele>
                <time>2020-08-23T11:59:00.000Z</time>
                <name>Trackpoint 5976</name>
            </trkpt>
            <trkpt lat="49.6987424" lon="10.1334288">
                <ele>179.0</ele>
                <time>2020-08-23T11:59:02.000Z</time>
                <name>Trackpoint 5977</name>
            </trkpt>
            <trkpt lat="49.6986336" lon="10.1334152">
                <ele>179.0</ele>
                <time>2020-08-23T11:59:04.000Z</time>
                <name>Trackpoint 5978</name>
            </trkpt>
            <trkpt lat="49.6985408" lon="10.1334088">
                <ele>179.0</ele>
                <time>2020-08-23T11:59:06.000Z</time>
                <name>Trackpoint 5979</name>
            </trkpt>
            <trkpt lat="49.6984352" lon="10.1333784">
                <ele>179.0</ele>
                <time>2020-08-23T11:59:10.000Z</time>
                <name>Trackpoint 5980</name>
            </trkpt>
            <trkpt lat="49.6983552" lon="10.13342">
                <ele>180.0</ele>
                <time>2020-08-23T11:59:13.000Z</time>
                <name>Trackpoint 5981</name>
            </trkpt>
            <trkpt lat="49.6982944" lon="10.1335088">
                <ele>180.0</ele>
                <time>2020-08-23T11:59:16.000Z</time>
                <name>Trackpoint 5982</name>
            </trkpt>
            <trkpt lat="49.6981952" lon="10.1335384">
                <ele>180.0</ele>
                <time>2020-08-23T11:59:19.000Z</time>
                <name>Trackpoint 5983</name>
            </trkpt>
            <trkpt lat="49.6980832" lon="10.133456">
                <ele>180.0</ele>
                <time>2020-08-23T11:59:22.000Z</time>
                <name>Trackpoint 5984</name>
            </trkpt>
            <trkpt lat="49.6979776" lon="10.1334168">
                <ele>180.0</ele>
                <time>2020-08-23T11:59:24.000Z</time>
                <name>Trackpoint 5985</name>
            </trkpt>
            <trkpt lat="49.6978688" lon="10.1334048">
                <ele>180.0</ele>
                <time>2020-08-23T11:59:26.000Z</time>
                <name>Trackpoint 5986</name>
            </trkpt>
            <trkpt lat="49.6977664" lon="10.1333968">
                <ele>180.0</ele>
                <time>2020-08-23T11:59:28.000Z</time>
                <name>Trackpoint 5987</name>
            </trkpt>
            <trkpt lat="49.6976672" lon="10.1333768">
                <ele>180.0</ele>
                <time>2020-08-23T11:59:30.000Z</time>
                <name>Trackpoint 5988</name>
            </trkpt>
            <trkpt lat="49.6975776" lon="10.1333648">
                <ele>180.0</ele>
                <time>2020-08-23T11:59:32.000Z</time>
                <name>Trackpoint 5989</name>
            </trkpt>
            <trkpt lat="49.697488" lon="10.13334">
                <ele>180.0</ele>
                <time>2020-08-23T11:59:34.000Z</time>
                <name>Trackpoint 5990</name>
            </trkpt>
            <trkpt lat="49.697408" lon="10.1332976">
                <ele>180.0</ele>
                <time>2020-08-23T11:59:36.000Z</time>
                <name>Trackpoint 5991</name>
            </trkpt>
            <trkpt lat="49.6972992" lon="10.1332968">
                <ele>180.0</ele>
                <time>2020-08-23T11:59:38.000Z</time>
                <name>Trackpoint 5992</name>
            </trkpt>
            <trkpt lat="49.6971744" lon="10.1332864">
                <ele>181.0</ele>
                <time>2020-08-23T11:59:41.000Z</time>
                <name>Trackpoint 5993</name>
            </trkpt>
            <trkpt lat="49.6970816" lon="10.1332648">
                <ele>181.0</ele>
                <time>2020-08-23T11:59:43.000Z</time>
                <name>Trackpoint 5994</name>
            </trkpt>
            <trkpt lat="49.69696" lon="10.1332352">
                <ele>181.0</ele>
                <time>2020-08-23T11:59:46.000Z</time>
                <name>Trackpoint 5995</name>
            </trkpt>
            <trkpt lat="49.6968448" lon="10.1332304">
                <ele>181.0</ele>
                <time>2020-08-23T11:59:49.000Z</time>
                <name>Trackpoint 5996</name>
            </trkpt>
            <trkpt lat="49.6967424" lon="10.13322">
                <ele>182.0</ele>
                <time>2020-08-23T11:59:52.000Z</time>
                <name>Trackpoint 5997</name>
            </trkpt>
            <trkpt lat="49.69664" lon="10.1332056">
                <ele>181.0</ele>
                <time>2020-08-23T11:59:56.000Z</time>
                <name>Trackpoint 5998</name>
            </trkpt>
            <trkpt lat="49.6965408" lon="10.1331832">
                <ele>181.0</ele>
                <time>2020-08-23T12:00:37.000Z</time>
                <name>Trackpoint 5999</name>
            </trkpt>
            <trkpt lat="49.6964384" lon="10.1331816">
                <ele>182.0</ele>
                <time>2020-08-23T12:00:40.000Z</time>
                <name>Trackpoint 6000</name>
            </trkpt>
            <trkpt lat="49.6963232" lon="10.133168">
                <ele>181.0</ele>
                <time>2020-08-23T12:00:43.000Z</time>
                <name>Trackpoint 6001</name>
            </trkpt>
            <trkpt lat="49.6961984" lon="10.1331632">
                <ele>181.0</ele>
                <time>2020-08-23T12:00:46.000Z</time>
                <name>Trackpoint 6002</name>
            </trkpt>
            <trkpt lat="49.6961088" lon="10.1331928">
                <ele>181.0</ele>
                <time>2020-08-23T12:00:48.000Z</time>
                <name>Trackpoint 6003</name>
            </trkpt>
            <trkpt lat="49.696032" lon="10.1332728">
                <ele>181.0</ele>
                <time>2020-08-23T12:00:50.000Z</time>
                <name>Trackpoint 6004</name>
            </trkpt>
            <trkpt lat="49.695984" lon="10.1333512">
                <ele>181.0</ele>
                <time>2020-08-23T12:00:52.000Z</time>
                <name>Trackpoint 6005</name>
            </trkpt>
            <trkpt lat="49.6959168" lon="10.1334136">
                <ele>181.0</ele>
                <time>2020-08-23T12:00:54.000Z</time>
                <name>Trackpoint 6006</name>
            </trkpt>
            <trkpt lat="49.6958112" lon="10.133436">
                <ele>181.0</ele>
                <time>2020-08-23T12:00:56.000Z</time>
                <name>Trackpoint 6007</name>
            </trkpt>
            <trkpt lat="49.6957024" lon="10.1334296">
                <ele>181.0</ele>
                <time>2020-08-23T12:00:58.000Z</time>
                <name>Trackpoint 6008</name>
            </trkpt>
            <trkpt lat="49.6956" lon="10.133424">
                <ele>181.0</ele>
                <time>2020-08-23T12:01:00.000Z</time>
                <name>Trackpoint 6009</name>
            </trkpt>
            <trkpt lat="49.6955008" lon="10.1334296">
                <ele>181.0</ele>
                <time>2020-08-23T12:01:02.000Z</time>
                <name>Trackpoint 6010</name>
            </trkpt>
            <trkpt lat="49.6953888" lon="10.1334488">
                <ele>182.0</ele>
                <time>2020-08-23T12:01:04.000Z</time>
                <name>Trackpoint 6011</name>
            </trkpt>
            <trkpt lat="49.6952672" lon="10.1334984">
                <ele>182.0</ele>
                <time>2020-08-23T12:01:06.000Z</time>
                <name>Trackpoint 6012</name>
            </trkpt>
            <trkpt lat="49.6951776" lon="10.1336072">
                <ele>182.0</ele>
                <time>2020-08-23T12:01:08.000Z</time>
                <name>Trackpoint 6013</name>
            </trkpt>
            <trkpt lat="49.6950656" lon="10.1336632">
                <ele>182.0</ele>
                <time>2020-08-23T12:01:10.000Z</time>
                <name>Trackpoint 6014</name>
            </trkpt>
            <trkpt lat="49.6949568" lon="10.1337384">
                <ele>182.0</ele>
                <time>2020-08-23T12:01:12.000Z</time>
                <name>Trackpoint 6015</name>
            </trkpt>
            <trkpt lat="49.694848" lon="10.1337864">
                <ele>182.0</ele>
                <time>2020-08-23T12:01:14.000Z</time>
                <name>Trackpoint 6016</name>
            </trkpt>
            <trkpt lat="49.694752" lon="10.1338504">
                <ele>182.0</ele>
                <time>2020-08-23T12:01:16.000Z</time>
                <name>Trackpoint 6017</name>
            </trkpt>
            <trkpt lat="49.6946528" lon="10.1339168">
                <ele>182.0</ele>
                <time>2020-08-23T12:01:18.000Z</time>
                <name>Trackpoint 6018</name>
            </trkpt>
            <trkpt lat="49.6945568" lon="10.133952">
                <ele>182.0</ele>
                <time>2020-08-23T12:01:20.000Z</time>
                <name>Trackpoint 6019</name>
            </trkpt>
            <trkpt lat="49.6944576" lon="10.1340176">
                <ele>182.0</ele>
                <time>2020-08-23T12:01:23.000Z</time>
                <name>Trackpoint 6020</name>
            </trkpt>
            <trkpt lat="49.6944512" lon="10.1341248">
                <ele>182.0</ele>
                <time>2020-08-23T12:01:25.000Z</time>
                <name>Trackpoint 6021</name>
            </trkpt>
            <trkpt lat="49.6944832" lon="10.134236">
                <ele>182.0</ele>
                <time>2020-08-23T12:01:27.000Z</time>
                <name>Trackpoint 6022</name>
            </trkpt>
            <trkpt lat="49.6945216" lon="10.1343632">
                <ele>182.0</ele>
                <time>2020-08-23T12:01:29.000Z</time>
                <name>Trackpoint 6023</name>
            </trkpt>
            <trkpt lat="49.6945408" lon="10.1345304">
                <ele>182.0</ele>
                <time>2020-08-23T12:01:31.000Z</time>
                <name>Trackpoint 6024</name>
            </trkpt>
            <trkpt lat="49.6945728" lon="10.1346568">
                <ele>182.0</ele>
                <time>2020-08-23T12:01:33.000Z</time>
                <name>Trackpoint 6025</name>
            </trkpt>
            <trkpt lat="49.694608" lon="10.1348152">
                <ele>182.0</ele>
                <time>2020-08-23T12:01:35.000Z</time>
                <name>Trackpoint 6026</name>
            </trkpt>
            <trkpt lat="49.6946272" lon="10.1349096">
                <ele>182.0</ele>
                <time>2020-08-23T12:01:36.000Z</time>
                <name>Trackpoint 6027</name>
            </trkpt>
            <trkpt lat="49.6946368" lon="10.135068">
                <ele>182.0</ele>
                <time>2020-08-23T12:01:38.000Z</time>
                <name>Trackpoint 6028</name>
            </trkpt>
            <trkpt lat="49.6946784" lon="10.1351584">
                <ele>182.0</ele>
                <time>2020-08-23T12:01:40.000Z</time>
                <name>Trackpoint 6029</name>
            </trkpt>
            <trkpt lat="49.694688" lon="10.135252">
                <ele>182.0</ele>
                <time>2020-08-23T12:01:42.000Z</time>
                <name>Trackpoint 6030</name>
            </trkpt>
            <trkpt lat="49.6946912" lon="10.1353552">
                <ele>181.0</ele>
                <time>2020-08-23T12:01:44.000Z</time>
                <name>Trackpoint 6031</name>
            </trkpt>
            <trkpt lat="49.6946976" lon="10.1354576">
                <ele>181.0</ele>
                <time>2020-08-23T12:01:46.000Z</time>
                <name>Trackpoint 6032</name>
            </trkpt>
            <trkpt lat="49.6947136" lon="10.1355816">
                <ele>182.0</ele>
                <time>2020-08-23T12:01:48.000Z</time>
                <name>Trackpoint 6033</name>
            </trkpt>
            <trkpt lat="49.6946944" lon="10.1357072">
                <ele>182.0</ele>
                <time>2020-08-23T12:01:50.000Z</time>
                <name>Trackpoint 6034</name>
            </trkpt>
            <trkpt lat="49.6946688" lon="10.1358272">
                <ele>182.0</ele>
                <time>2020-08-23T12:01:52.000Z</time>
                <name>Trackpoint 6035</name>
            </trkpt>
            <trkpt lat="49.6946272" lon="10.1359528">
                <ele>182.0</ele>
                <time>2020-08-23T12:01:54.000Z</time>
                <name>Trackpoint 6036</name>
            </trkpt>
            <trkpt lat="49.6945792" lon="10.1360704">
                <ele>182.0</ele>
                <time>2020-08-23T12:01:56.000Z</time>
                <name>Trackpoint 6037</name>
            </trkpt>
            <trkpt lat="49.6945728" lon="10.1362288">
                <ele>182.0</ele>
                <time>2020-08-23T12:01:58.000Z</time>
                <name>Trackpoint 6038</name>
            </trkpt>
            <trkpt lat="49.6945792" lon="10.1363984">
                <ele>182.0</ele>
                <time>2020-08-23T12:02:00.000Z</time>
                <name>Trackpoint 6039</name>
            </trkpt>
            <trkpt lat="49.6945664" lon="10.1365496">
                <ele>182.0</ele>
                <time>2020-08-23T12:02:02.000Z</time>
                <name>Trackpoint 6040</name>
            </trkpt>
            <trkpt lat="49.6945184" lon="10.1367064">
                <ele>182.0</ele>
                <time>2020-08-23T12:02:04.000Z</time>
                <name>Trackpoint 6041</name>
            </trkpt>
            <trkpt lat="49.6944608" lon="10.1368688">
                <ele>182.0</ele>
                <time>2020-08-23T12:02:06.000Z</time>
                <name>Trackpoint 6042</name>
            </trkpt>
            <trkpt lat="49.6944224" lon="10.1370312">
                <ele>182.0</ele>
                <time>2020-08-23T12:02:08.000Z</time>
                <name>Trackpoint 6043</name>
            </trkpt>
            <trkpt lat="49.6944" lon="10.1371232">
                <ele>182.0</ele>
                <time>2020-08-23T12:02:09.000Z</time>
                <name>Trackpoint 6044</name>
            </trkpt>
            <trkpt lat="49.6943808" lon="10.1372144">
                <ele>182.0</ele>
                <time>2020-08-23T12:02:10.000Z</time>
                <name>Trackpoint 6045</name>
            </trkpt>
            <trkpt lat="49.6943488" lon="10.1373864">
                <ele>182.0</ele>
                <time>2020-08-23T12:02:12.000Z</time>
                <name>Trackpoint 6046</name>
            </trkpt>
            <trkpt lat="49.6943008" lon="10.1375448">
                <ele>182.0</ele>
                <time>2020-08-23T12:02:14.000Z</time>
                <name>Trackpoint 6047</name>
            </trkpt>
            <trkpt lat="49.694256" lon="10.1377152">
                <ele>182.0</ele>
                <time>2020-08-23T12:02:16.000Z</time>
                <name>Trackpoint 6048</name>
            </trkpt>
            <trkpt lat="49.6942112" lon="10.1378736">
                <ele>182.0</ele>
                <time>2020-08-23T12:02:18.000Z</time>
                <name>Trackpoint 6049</name>
            </trkpt>
            <trkpt lat="49.6941632" lon="10.1380304">
                <ele>182.0</ele>
                <time>2020-08-23T12:02:20.000Z</time>
                <name>Trackpoint 6050</name>
            </trkpt>
            <trkpt lat="49.6941312" lon="10.1381768">
                <ele>182.0</ele>
                <time>2020-08-23T12:02:22.000Z</time>
                <name>Trackpoint 6051</name>
            </trkpt>
            <trkpt lat="49.6940928" lon="10.1383336">
                <ele>182.0</ele>
                <time>2020-08-23T12:02:24.000Z</time>
                <name>Trackpoint 6052</name>
            </trkpt>
            <trkpt lat="49.6940512" lon="10.1384824">
                <ele>183.0</ele>
                <time>2020-08-23T12:02:26.000Z</time>
                <name>Trackpoint 6053</name>
            </trkpt>
            <trkpt lat="49.6940224" lon="10.1386136">
                <ele>183.0</ele>
                <time>2020-08-23T12:02:28.000Z</time>
                <name>Trackpoint 6054</name>
            </trkpt>
            <trkpt lat="49.6939712" lon="10.1387584">
                <ele>183.0</ele>
                <time>2020-08-23T12:02:30.000Z</time>
                <name>Trackpoint 6055</name>
            </trkpt>
            <trkpt lat="49.6939232" lon="10.1388904">
                <ele>183.0</ele>
                <time>2020-08-23T12:02:32.000Z</time>
                <name>Trackpoint 6056</name>
            </trkpt>
            <trkpt lat="49.6938848" lon="10.139024">
                <ele>183.0</ele>
                <time>2020-08-23T12:02:34.000Z</time>
                <name>Trackpoint 6057</name>
            </trkpt>
            <trkpt lat="49.6938624" lon="10.1391488">
                <ele>183.0</ele>
                <time>2020-08-23T12:02:36.000Z</time>
                <name>Trackpoint 6058</name>
            </trkpt>
            <trkpt lat="49.6938176" lon="10.1392616">
                <ele>182.0</ele>
                <time>2020-08-23T12:02:38.000Z</time>
                <name>Trackpoint 6059</name>
            </trkpt>
            <trkpt lat="49.69376" lon="10.1393816">
                <ele>182.0</ele>
                <time>2020-08-23T12:02:40.000Z</time>
                <name>Trackpoint 6060</name>
            </trkpt>
            <trkpt lat="49.6937024" lon="10.1394904">
                <ele>182.0</ele>
                <time>2020-08-23T12:02:42.000Z</time>
                <name>Trackpoint 6061</name>
            </trkpt>
            <trkpt lat="49.6936256" lon="10.1395712">
                <ele>183.0</ele>
                <time>2020-08-23T12:02:44.000Z</time>
                <name>Trackpoint 6062</name>
            </trkpt>
            <trkpt lat="49.6935584" lon="10.1396952">
                <ele>183.0</ele>
                <time>2020-08-23T12:02:46.000Z</time>
                <name>Trackpoint 6063</name>
            </trkpt>
            <trkpt lat="49.6935008" lon="10.13982">
                <ele>183.0</ele>
                <time>2020-08-23T12:02:48.000Z</time>
                <name>Trackpoint 6064</name>
            </trkpt>
            <trkpt lat="49.693408" lon="10.1399448">
                <ele>183.0</ele>
                <time>2020-08-23T12:02:50.000Z</time>
                <name>Trackpoint 6065</name>
            </trkpt>
            <trkpt lat="49.6933504" lon="10.1400768">
                <ele>184.0</ele>
                <time>2020-08-23T12:02:52.000Z</time>
                <name>Trackpoint 6066</name>
            </trkpt>
            <trkpt lat="49.6932992" lon="10.1401568">
                <ele>184.0</ele>
                <time>2020-08-23T12:02:53.000Z</time>
                <name>Trackpoint 6067</name>
            </trkpt>
            <trkpt lat="49.693216" lon="10.1403152">
                <ele>185.0</ele>
                <time>2020-08-23T12:02:55.000Z</time>
                <name>Trackpoint 6068</name>
            </trkpt>
            <trkpt lat="49.693152" lon="10.1404616">
                <ele>185.0</ele>
                <time>2020-08-23T12:02:57.000Z</time>
                <name>Trackpoint 6069</name>
            </trkpt>
            <trkpt lat="49.693072" lon="10.1406">
                <ele>185.0</ele>
                <time>2020-08-23T12:02:59.000Z</time>
                <name>Trackpoint 6070</name>
            </trkpt>
            <trkpt lat="49.6930208" lon="10.140732">
                <ele>185.0</ele>
                <time>2020-08-23T12:03:01.000Z</time>
                <name>Trackpoint 6071</name>
            </trkpt>
            <trkpt lat="49.6929664" lon="10.1408528">
                <ele>185.0</ele>
                <time>2020-08-23T12:03:03.000Z</time>
                <name>Trackpoint 6072</name>
            </trkpt>
            <trkpt lat="49.6929216" lon="10.1409656">
                <ele>186.0</ele>
                <time>2020-08-23T12:03:05.000Z</time>
                <name>Trackpoint 6073</name>
            </trkpt>
            <trkpt lat="49.6928704" lon="10.1410752">
                <ele>186.0</ele>
                <time>2020-08-23T12:03:07.000Z</time>
                <name>Trackpoint 6074</name>
            </trkpt>
            <trkpt lat="49.6928128" lon="10.1412112">
                <ele>186.0</ele>
                <time>2020-08-23T12:03:09.000Z</time>
                <name>Trackpoint 6075</name>
            </trkpt>
            <trkpt lat="49.6927872" lon="10.1413496">
                <ele>186.0</ele>
                <time>2020-08-23T12:03:11.000Z</time>
                <name>Trackpoint 6076</name>
            </trkpt>
            <trkpt lat="49.6927872" lon="10.1414832">
                <ele>186.0</ele>
                <time>2020-08-23T12:03:13.000Z</time>
                <name>Trackpoint 6077</name>
            </trkpt>
            <trkpt lat="49.6928032" lon="10.1416168">
                <ele>186.0</ele>
                <time>2020-08-23T12:03:15.000Z</time>
                <name>Trackpoint 6078</name>
            </trkpt>
            <trkpt lat="49.6928096" lon="10.1417736">
                <ele>187.0</ele>
                <time>2020-08-23T12:03:17.000Z</time>
                <name>Trackpoint 6079</name>
            </trkpt>
            <trkpt lat="49.6928224" lon="10.1419264">
                <ele>187.0</ele>
                <time>2020-08-23T12:03:19.000Z</time>
                <name>Trackpoint 6080</name>
            </trkpt>
            <trkpt lat="49.6928224" lon="10.1420768">
                <ele>187.0</ele>
                <time>2020-08-23T12:03:21.000Z</time>
                <name>Trackpoint 6081</name>
            </trkpt>
            <trkpt lat="49.692832" lon="10.1422216">
                <ele>189.0</ele>
                <time>2020-08-23T12:03:23.000Z</time>
                <name>Trackpoint 6082</name>
            </trkpt>
            <trkpt lat="49.692832" lon="10.1423728">
                <ele>189.0</ele>
                <time>2020-08-23T12:03:25.000Z</time>
                <name>Trackpoint 6083</name>
            </trkpt>
            <trkpt lat="49.6928224" lon="10.1425136">
                <ele>190.0</ele>
                <time>2020-08-23T12:03:27.000Z</time>
                <name>Trackpoint 6084</name>
            </trkpt>
            <trkpt lat="49.6928128" lon="10.142656">
                <ele>191.0</ele>
                <time>2020-08-23T12:03:29.000Z</time>
                <name>Trackpoint 6085</name>
            </trkpt>
            <trkpt lat="49.6928032" lon="10.1428032">
                <ele>190.0</ele>
                <time>2020-08-23T12:03:31.000Z</time>
                <name>Trackpoint 6086</name>
            </trkpt>
            <trkpt lat="49.6927904" lon="10.1429432">
                <ele>190.0</ele>
                <time>2020-08-23T12:03:33.000Z</time>
                <name>Trackpoint 6087</name>
            </trkpt>
            <trkpt lat="49.6927808" lon="10.1430752">
                <ele>190.0</ele>
                <time>2020-08-23T12:03:35.000Z</time>
                <name>Trackpoint 6088</name>
            </trkpt>
            <trkpt lat="49.692768" lon="10.1432104">
                <ele>191.0</ele>
                <time>2020-08-23T12:03:37.000Z</time>
                <name>Trackpoint 6089</name>
            </trkpt>
            <trkpt lat="49.6927616" lon="10.1433312">
                <ele>191.0</ele>
                <time>2020-08-23T12:03:39.000Z</time>
                <name>Trackpoint 6090</name>
            </trkpt>
            <trkpt lat="49.692752" lon="10.1434496">
                <ele>191.0</ele>
                <time>2020-08-23T12:03:41.000Z</time>
                <name>Trackpoint 6091</name>
            </trkpt>
            <trkpt lat="49.6927424" lon="10.1435616">
                <ele>191.0</ele>
                <time>2020-08-23T12:03:43.000Z</time>
                <name>Trackpoint 6092</name>
            </trkpt>
            <trkpt lat="49.6926368" lon="10.1436328">
                <ele>190.0</ele>
                <time>2020-08-23T12:03:46.000Z</time>
                <name>Trackpoint 6093</name>
            </trkpt>
            <trkpt lat="49.6925312" lon="10.1436456">
                <ele>189.0</ele>
                <time>2020-08-23T12:03:48.000Z</time>
                <name>Trackpoint 6094</name>
            </trkpt>
            <trkpt lat="49.6924096" lon="10.1436528">
                <ele>189.0</ele>
                <time>2020-08-23T12:03:50.000Z</time>
                <name>Trackpoint 6095</name>
            </trkpt>
            <trkpt lat="49.6922752" lon="10.143668">
                <ele>188.0</ele>
                <time>2020-08-23T12:03:52.000Z</time>
                <name>Trackpoint 6096</name>
            </trkpt>
            <trkpt lat="49.6921344" lon="10.1436864">
                <ele>188.0</ele>
                <time>2020-08-23T12:03:54.000Z</time>
                <name>Trackpoint 6097</name>
            </trkpt>
            <trkpt lat="49.6919808" lon="10.1437">
                <ele>187.0</ele>
                <time>2020-08-23T12:03:56.000Z</time>
                <name>Trackpoint 6098</name>
            </trkpt>
            <trkpt lat="49.6918272" lon="10.1437256">
                <ele>186.0</ele>
                <time>2020-08-23T12:03:58.000Z</time>
                <name>Trackpoint 6099</name>
            </trkpt>
            <trkpt lat="49.6916544" lon="10.1437168">
                <ele>185.0</ele>
                <time>2020-08-23T12:04:00.000Z</time>
                <name>Trackpoint 6100</name>
            </trkpt>
            <trkpt lat="49.6914912" lon="10.1437264">
                <ele>184.0</ele>
                <time>2020-08-23T12:04:02.000Z</time>
                <name>Trackpoint 6101</name>
            </trkpt>
            <trkpt lat="49.6913376" lon="10.1437384">
                <ele>184.0</ele>
                <time>2020-08-23T12:04:04.000Z</time>
                <name>Trackpoint 6102</name>
            </trkpt>
            <trkpt lat="49.6912" lon="10.1437432">
                <ele>183.0</ele>
                <time>2020-08-23T12:04:06.000Z</time>
                <name>Trackpoint 6103</name>
            </trkpt>
            <trkpt lat="49.6910944" lon="10.14376">
                <ele>183.0</ele>
                <time>2020-08-23T12:04:08.000Z</time>
                <name>Trackpoint 6104</name>
            </trkpt>
            <trkpt lat="49.6910336" lon="10.1438352">
                <ele>182.0</ele>
                <time>2020-08-23T12:04:10.000Z</time>
                <name>Trackpoint 6105</name>
            </trkpt>
            <trkpt lat="49.6910336" lon="10.1439536">
                <ele>182.0</ele>
                <time>2020-08-23T12:04:12.000Z</time>
                <name>Trackpoint 6106</name>
            </trkpt>
            <trkpt lat="49.691072" lon="10.1440552">
                <ele>182.0</ele>
                <time>2020-08-23T12:04:14.000Z</time>
                <name>Trackpoint 6107</name>
            </trkpt>
            <trkpt lat="49.6910944" lon="10.1441784">
                <ele>182.0</ele>
                <time>2020-08-23T12:04:16.000Z</time>
                <name>Trackpoint 6108</name>
            </trkpt>
            <trkpt lat="49.691072" lon="10.1442984">
                <ele>182.0</ele>
                <time>2020-08-23T12:04:18.000Z</time>
                <name>Trackpoint 6109</name>
            </trkpt>
            <trkpt lat="49.6909664" lon="10.1443856">
                <ele>182.0</ele>
                <time>2020-08-23T12:04:20.000Z</time>
                <name>Trackpoint 6110</name>
            </trkpt>
            <trkpt lat="49.6908608" lon="10.14438">
                <ele>183.0</ele>
                <time>2020-08-23T12:04:22.000Z</time>
                <name>Trackpoint 6111</name>
            </trkpt>
            <trkpt lat="49.6907584" lon="10.1443928">
                <ele>183.0</ele>
                <time>2020-08-23T12:04:24.000Z</time>
                <name>Trackpoint 6112</name>
            </trkpt>
            <trkpt lat="49.6906368" lon="10.1443728">
                <ele>184.0</ele>
                <time>2020-08-23T12:04:26.000Z</time>
                <name>Trackpoint 6113</name>
            </trkpt>
            <trkpt lat="49.6905216" lon="10.1443768">
                <ele>185.0</ele>
                <time>2020-08-23T12:04:28.000Z</time>
                <name>Trackpoint 6114</name>
            </trkpt>
            <trkpt lat="49.6904064" lon="10.1443704">
                <ele>185.0</ele>
                <time>2020-08-23T12:04:30.000Z</time>
                <name>Trackpoint 6115</name>
            </trkpt>
            <trkpt lat="49.6902912" lon="10.1443464">
                <ele>185.0</ele>
                <time>2020-08-23T12:04:32.000Z</time>
                <name>Trackpoint 6116</name>
            </trkpt>
            <trkpt lat="49.6901824" lon="10.1443216">
                <ele>185.0</ele>
                <time>2020-08-23T12:04:34.000Z</time>
                <name>Trackpoint 6117</name>
            </trkpt>
            <trkpt lat="49.6900736" lon="10.144308">
                <ele>185.0</ele>
                <time>2020-08-23T12:04:36.000Z</time>
                <name>Trackpoint 6118</name>
            </trkpt>
            <trkpt lat="49.689968" lon="10.1443056">
                <ele>185.0</ele>
                <time>2020-08-23T12:04:38.000Z</time>
                <name>Trackpoint 6119</name>
            </trkpt>
            <trkpt lat="49.6898656" lon="10.144308">
                <ele>185.0</ele>
                <time>2020-08-23T12:04:40.000Z</time>
                <name>Trackpoint 6120</name>
            </trkpt>
            <trkpt lat="49.6897568" lon="10.1443144">
                <ele>184.0</ele>
                <time>2020-08-23T12:04:42.000Z</time>
                <name>Trackpoint 6121</name>
            </trkpt>
            <trkpt lat="49.6896544" lon="10.1443192">
                <ele>184.0</ele>
                <time>2020-08-23T12:04:44.000Z</time>
                <name>Trackpoint 6122</name>
            </trkpt>
            <trkpt lat="49.6895456" lon="10.1443256">
                <ele>184.0</ele>
                <time>2020-08-23T12:04:46.000Z</time>
                <name>Trackpoint 6123</name>
            </trkpt>
            <trkpt lat="49.6894432" lon="10.14438">
                <ele>184.0</ele>
                <time>2020-08-23T12:04:48.000Z</time>
                <name>Trackpoint 6124</name>
            </trkpt>
            <trkpt lat="49.6893504" lon="10.1444656">
                <ele>184.0</ele>
                <time>2020-08-23T12:04:50.000Z</time>
                <name>Trackpoint 6125</name>
            </trkpt>
            <trkpt lat="49.6892576" lon="10.1445352">
                <ele>184.0</ele>
                <time>2020-08-23T12:04:52.000Z</time>
                <name>Trackpoint 6126</name>
            </trkpt>
            <trkpt lat="49.6891712" lon="10.1446">
                <ele>184.0</ele>
                <time>2020-08-23T12:04:54.000Z</time>
                <name>Trackpoint 6127</name>
            </trkpt>
            <trkpt lat="49.6890912" lon="10.1446616">
                <ele>185.0</ele>
                <time>2020-08-23T12:04:56.000Z</time>
                <name>Trackpoint 6128</name>
            </trkpt>
            <trkpt lat="49.6890176" lon="10.1447184">
                <ele>185.0</ele>
                <time>2020-08-23T12:04:58.000Z</time>
                <name>Trackpoint 6129</name>
            </trkpt>
            <trkpt lat="49.688912" lon="10.1447936">
                <ele>185.0</ele>
                <time>2020-08-23T12:05:01.000Z</time>
                <name>Trackpoint 6130</name>
            </trkpt>
            <trkpt lat="49.6888224" lon="10.144852">
                <ele>185.0</ele>
                <time>2020-08-23T12:05:03.000Z</time>
                <name>Trackpoint 6131</name>
            </trkpt>
            <trkpt lat="49.6887424" lon="10.1449144">
                <ele>185.0</ele>
                <time>2020-08-23T12:05:05.000Z</time>
                <name>Trackpoint 6132</name>
            </trkpt>
            <trkpt lat="49.6886592" lon="10.1449832">
                <ele>185.0</ele>
                <time>2020-08-23T12:05:07.000Z</time>
                <name>Trackpoint 6133</name>
            </trkpt>
            <trkpt lat="49.6885728" lon="10.1450552">
                <ele>185.0</ele>
                <time>2020-08-23T12:05:09.000Z</time>
                <name>Trackpoint 6134</name>
            </trkpt>
            <trkpt lat="49.68848" lon="10.14514">
                <ele>185.0</ele>
                <time>2020-08-23T12:05:11.000Z</time>
                <name>Trackpoint 6135</name>
            </trkpt>
            <trkpt lat="49.6883968" lon="10.1452216">
                <ele>185.0</ele>
                <time>2020-08-23T12:05:13.000Z</time>
                <name>Trackpoint 6136</name>
            </trkpt>
            <trkpt lat="49.68832" lon="10.1453184">
                <ele>185.0</ele>
                <time>2020-08-23T12:05:15.000Z</time>
                <name>Trackpoint 6137</name>
            </trkpt>
            <trkpt lat="49.6882528" lon="10.1454248">
                <ele>185.0</ele>
                <time>2020-08-23T12:05:17.000Z</time>
                <name>Trackpoint 6138</name>
            </trkpt>
            <trkpt lat="49.688192" lon="10.1455288">
                <ele>185.0</ele>
                <time>2020-08-23T12:05:19.000Z</time>
                <name>Trackpoint 6139</name>
            </trkpt>
            <trkpt lat="49.6881248" lon="10.1456296">
                <ele>185.0</ele>
                <time>2020-08-23T12:05:21.000Z</time>
                <name>Trackpoint 6140</name>
            </trkpt>
            <trkpt lat="49.6880608" lon="10.1457328">
                <ele>185.0</ele>
                <time>2020-08-23T12:05:23.000Z</time>
                <name>Trackpoint 6141</name>
            </trkpt>
            <trkpt lat="49.688" lon="10.1458432">
                <ele>185.0</ele>
                <time>2020-08-23T12:05:25.000Z</time>
                <name>Trackpoint 6142</name>
            </trkpt>
            <trkpt lat="49.687936" lon="10.1459576">
                <ele>185.0</ele>
                <time>2020-08-23T12:05:27.000Z</time>
                <name>Trackpoint 6143</name>
            </trkpt>
            <trkpt lat="49.6878688" lon="10.1460712">
                <ele>185.0</ele>
                <time>2020-08-23T12:05:29.000Z</time>
                <name>Trackpoint 6144</name>
            </trkpt>
            <trkpt lat="49.6878016" lon="10.1461896">
                <ele>185.0</ele>
                <time>2020-08-23T12:05:31.000Z</time>
                <name>Trackpoint 6145</name>
            </trkpt>
            <trkpt lat="49.687744" lon="10.1462984">
                <ele>185.0</ele>
                <time>2020-08-23T12:05:33.000Z</time>
                <name>Trackpoint 6146</name>
            </trkpt>
            <trkpt lat="49.6876832" lon="10.1463984">
                <ele>185.0</ele>
                <time>2020-08-23T12:05:35.000Z</time>
                <name>Trackpoint 6147</name>
            </trkpt>
            <trkpt lat="49.687632" lon="10.146492">
                <ele>185.0</ele>
                <time>2020-08-23T12:05:37.000Z</time>
                <name>Trackpoint 6148</name>
            </trkpt>
            <trkpt lat="49.6875712" lon="10.1465632">
                <ele>185.0</ele>
                <time>2020-08-23T12:05:40.000Z</time>
                <name>Trackpoint 6149</name>
            </trkpt>
            <trkpt lat="49.6874912" lon="10.1466112">
                <ele>185.0</ele>
                <time>2020-08-23T12:05:46.000Z</time>
                <name>Trackpoint 6150</name>
            </trkpt>
            <trkpt lat="49.6875008" lon="10.1467088">
                <ele>184.0</ele>
                <time>2020-08-23T12:06:37.000Z</time>
                <name>Trackpoint 6151</name>
            </trkpt>
            <trkpt lat="49.68744" lon="10.1467896">
                <ele>184.0</ele>
                <time>2020-08-23T12:06:41.000Z</time>
                <name>Trackpoint 6152</name>
            </trkpt>
            <trkpt lat="49.6873824" lon="10.1468888">
                <ele>184.0</ele>
                <time>2020-08-23T12:06:44.000Z</time>
                <name>Trackpoint 6153</name>
            </trkpt>
            <trkpt lat="49.6873408" lon="10.1469696">
                <ele>184.0</ele>
                <time>2020-08-23T12:06:46.000Z</time>
                <name>Trackpoint 6154</name>
            </trkpt>
            <trkpt lat="49.6872896" lon="10.1470472">
                <ele>184.0</ele>
                <time>2020-08-23T12:06:48.000Z</time>
                <name>Trackpoint 6155</name>
            </trkpt>
            <trkpt lat="49.6872352" lon="10.1471264">
                <ele>184.0</ele>
                <time>2020-08-23T12:06:50.000Z</time>
                <name>Trackpoint 6156</name>
            </trkpt>
            <trkpt lat="49.687184" lon="10.147208">
                <ele>184.0</ele>
                <time>2020-08-23T12:06:52.000Z</time>
                <name>Trackpoint 6157</name>
            </trkpt>
            <trkpt lat="49.6871072" lon="10.1472952">
                <ele>184.0</ele>
                <time>2020-08-23T12:06:54.000Z</time>
                <name>Trackpoint 6158</name>
            </trkpt>
            <trkpt lat="49.6870272" lon="10.1473864">
                <ele>184.0</ele>
                <time>2020-08-23T12:06:56.000Z</time>
                <name>Trackpoint 6159</name>
            </trkpt>
            <trkpt lat="49.686944" lon="10.1474816">
                <ele>184.0</ele>
                <time>2020-08-23T12:06:58.000Z</time>
                <name>Trackpoint 6160</name>
            </trkpt>
            <trkpt lat="49.686864" lon="10.147576">
                <ele>184.0</ele>
                <time>2020-08-23T12:07:00.000Z</time>
                <name>Trackpoint 6161</name>
            </trkpt>
            <trkpt lat="49.686784" lon="10.1476584">
                <ele>184.0</ele>
                <time>2020-08-23T12:07:02.000Z</time>
                <name>Trackpoint 6162</name>
            </trkpt>
            <trkpt lat="49.686704" lon="10.1477344">
                <ele>185.0</ele>
                <time>2020-08-23T12:07:04.000Z</time>
                <name>Trackpoint 6163</name>
            </trkpt>
            <trkpt lat="49.6866304" lon="10.1478056">
                <ele>184.0</ele>
                <time>2020-08-23T12:07:06.000Z</time>
                <name>Trackpoint 6164</name>
            </trkpt>
            <trkpt lat="49.6865568" lon="10.1478704">
                <ele>185.0</ele>
                <time>2020-08-23T12:07:08.000Z</time>
                <name>Trackpoint 6165</name>
            </trkpt>
            <trkpt lat="49.68648" lon="10.147928">
                <ele>185.0</ele>
                <time>2020-08-23T12:07:10.000Z</time>
                <name>Trackpoint 6166</name>
            </trkpt>
            <trkpt lat="49.6863776" lon="10.148008">
                <ele>185.0</ele>
                <time>2020-08-23T12:07:13.000Z</time>
                <name>Trackpoint 6167</name>
            </trkpt>
            <trkpt lat="49.6862976" lon="10.1480648">
                <ele>185.0</ele>
                <time>2020-08-23T12:07:15.000Z</time>
                <name>Trackpoint 6168</name>
            </trkpt>
            <trkpt lat="49.6862144" lon="10.1481264">
                <ele>186.0</ele>
                <time>2020-08-23T12:07:17.000Z</time>
                <name>Trackpoint 6169</name>
            </trkpt>
            <trkpt lat="49.686128" lon="10.1481832">
                <ele>186.0</ele>
                <time>2020-08-23T12:07:19.000Z</time>
                <name>Trackpoint 6170</name>
            </trkpt>
            <trkpt lat="49.6860384" lon="10.1482432">
                <ele>185.0</ele>
                <time>2020-08-23T12:07:21.000Z</time>
                <name>Trackpoint 6171</name>
            </trkpt>
            <trkpt lat="49.6859392" lon="10.148296">
                <ele>186.0</ele>
                <time>2020-08-23T12:07:23.000Z</time>
                <name>Trackpoint 6172</name>
            </trkpt>
            <trkpt lat="49.6858496" lon="10.1483568">
                <ele>185.0</ele>
                <time>2020-08-23T12:07:25.000Z</time>
                <name>Trackpoint 6173</name>
            </trkpt>
            <trkpt lat="49.6857568" lon="10.1484144">
                <ele>185.0</ele>
                <time>2020-08-23T12:07:27.000Z</time>
                <name>Trackpoint 6174</name>
            </trkpt>
            <trkpt lat="49.6856768" lon="10.1484808">
                <ele>185.0</ele>
                <time>2020-08-23T12:07:29.000Z</time>
                <name>Trackpoint 6175</name>
            </trkpt>
            <trkpt lat="49.6855968" lon="10.1485568">
                <ele>185.0</ele>
                <time>2020-08-23T12:07:31.000Z</time>
                <name>Trackpoint 6176</name>
            </trkpt>
            <trkpt lat="49.6855168" lon="10.1486464">
                <ele>185.0</ele>
                <time>2020-08-23T12:07:33.000Z</time>
                <name>Trackpoint 6177</name>
            </trkpt>
            <trkpt lat="49.6854368" lon="10.148744">
                <ele>185.0</ele>
                <time>2020-08-23T12:07:35.000Z</time>
                <name>Trackpoint 6178</name>
            </trkpt>
            <trkpt lat="49.6853568" lon="10.1488488">
                <ele>185.0</ele>
                <time>2020-08-23T12:07:37.000Z</time>
                <name>Trackpoint 6179</name>
            </trkpt>
            <trkpt lat="49.68528" lon="10.1489584">
                <ele>185.0</ele>
                <time>2020-08-23T12:07:39.000Z</time>
                <name>Trackpoint 6180</name>
            </trkpt>
            <trkpt lat="49.6851936" lon="10.1490648">
                <ele>185.0</ele>
                <time>2020-08-23T12:07:41.000Z</time>
                <name>Trackpoint 6181</name>
            </trkpt>
            <trkpt lat="49.6851072" lon="10.1491768">
                <ele>185.0</ele>
                <time>2020-08-23T12:07:43.000Z</time>
                <name>Trackpoint 6182</name>
            </trkpt>
            <trkpt lat="49.685024" lon="10.1492816">
                <ele>185.0</ele>
                <time>2020-08-23T12:07:45.000Z</time>
                <name>Trackpoint 6183</name>
            </trkpt>
            <trkpt lat="49.684944" lon="10.1493816">
                <ele>185.0</ele>
                <time>2020-08-23T12:07:47.000Z</time>
                <name>Trackpoint 6184</name>
            </trkpt>
            <trkpt lat="49.6848608" lon="10.1494752">
                <ele>185.0</ele>
                <time>2020-08-23T12:07:49.000Z</time>
                <name>Trackpoint 6185</name>
            </trkpt>
            <trkpt lat="49.6847808" lon="10.1495664">
                <ele>185.0</ele>
                <time>2020-08-23T12:07:51.000Z</time>
                <name>Trackpoint 6186</name>
            </trkpt>
            <trkpt lat="49.6846976" lon="10.1496552">
                <ele>185.0</ele>
                <time>2020-08-23T12:07:53.000Z</time>
                <name>Trackpoint 6187</name>
            </trkpt>
            <trkpt lat="49.6846112" lon="10.14974">
                <ele>185.0</ele>
                <time>2020-08-23T12:07:55.000Z</time>
                <name>Trackpoint 6188</name>
            </trkpt>
            <trkpt lat="49.6845216" lon="10.1498144">
                <ele>186.0</ele>
                <time>2020-08-23T12:07:57.000Z</time>
                <name>Trackpoint 6189</name>
            </trkpt>
            <trkpt lat="49.6844352" lon="10.1498936">
                <ele>186.0</ele>
                <time>2020-08-23T12:07:59.000Z</time>
                <name>Trackpoint 6190</name>
            </trkpt>
            <trkpt lat="49.6843744" lon="10.1499664">
                <ele>186.0</ele>
                <time>2020-08-23T12:08:01.000Z</time>
                <name>Trackpoint 6191</name>
            </trkpt>
            <trkpt lat="49.6843008" lon="10.150072">
                <ele>186.0</ele>
                <time>2020-08-23T12:08:04.000Z</time>
                <name>Trackpoint 6192</name>
            </trkpt>
            <trkpt lat="49.6842304" lon="10.1501576">
                <ele>186.0</ele>
                <time>2020-08-23T12:08:06.000Z</time>
                <name>Trackpoint 6193</name>
            </trkpt>
            <trkpt lat="49.6841536" lon="10.1502504">
                <ele>186.0</ele>
                <time>2020-08-23T12:08:08.000Z</time>
                <name>Trackpoint 6194</name>
            </trkpt>
            <trkpt lat="49.6840704" lon="10.1503488">
                <ele>186.0</ele>
                <time>2020-08-23T12:08:10.000Z</time>
                <name>Trackpoint 6195</name>
            </trkpt>
            <trkpt lat="49.6839904" lon="10.1504488">
                <ele>186.0</ele>
                <time>2020-08-23T12:08:12.000Z</time>
                <name>Trackpoint 6196</name>
            </trkpt>
            <trkpt lat="49.6838944" lon="10.1505632">
                <ele>186.0</ele>
                <time>2020-08-23T12:08:14.000Z</time>
                <name>Trackpoint 6197</name>
            </trkpt>
            <trkpt lat="49.6838048" lon="10.150672">
                <ele>187.0</ele>
                <time>2020-08-23T12:08:16.000Z</time>
                <name>Trackpoint 6198</name>
            </trkpt>
            <trkpt lat="49.6837312" lon="10.1507664">
                <ele>187.0</ele>
                <time>2020-08-23T12:08:18.000Z</time>
                <name>Trackpoint 6199</name>
            </trkpt>
            <trkpt lat="49.6836448" lon="10.1508712">
                <ele>187.0</ele>
                <time>2020-08-23T12:08:20.000Z</time>
                <name>Trackpoint 6200</name>
            </trkpt>
            <trkpt lat="49.683568" lon="10.150964">
                <ele>187.0</ele>
                <time>2020-08-23T12:08:22.000Z</time>
                <name>Trackpoint 6201</name>
            </trkpt>
            <trkpt lat="49.6834752" lon="10.1510688">
                <ele>188.0</ele>
                <time>2020-08-23T12:08:24.000Z</time>
                <name>Trackpoint 6202</name>
            </trkpt>
            <trkpt lat="49.6834016" lon="10.1511648">
                <ele>188.0</ele>
                <time>2020-08-23T12:08:26.000Z</time>
                <name>Trackpoint 6203</name>
            </trkpt>
            <trkpt lat="49.6833312" lon="10.1512584">
                <ele>188.0</ele>
                <time>2020-08-23T12:08:28.000Z</time>
                <name>Trackpoint 6204</name>
            </trkpt>
            <trkpt lat="49.6832576" lon="10.1513504">
                <ele>189.0</ele>
                <time>2020-08-23T12:08:30.000Z</time>
                <name>Trackpoint 6205</name>
            </trkpt>
            <trkpt lat="49.6831968" lon="10.1514184">
                <ele>189.0</ele>
                <time>2020-08-23T12:08:32.000Z</time>
                <name>Trackpoint 6206</name>
            </trkpt>
            <trkpt lat="49.683104" lon="10.1515152">
                <ele>190.0</ele>
                <time>2020-08-23T12:08:35.000Z</time>
                <name>Trackpoint 6207</name>
            </trkpt>
            <trkpt lat="49.6830304" lon="10.151584">
                <ele>190.0</ele>
                <time>2020-08-23T12:08:37.000Z</time>
                <name>Trackpoint 6208</name>
            </trkpt>
            <trkpt lat="49.6829536" lon="10.1516664">
                <ele>190.0</ele>
                <time>2020-08-23T12:08:39.000Z</time>
                <name>Trackpoint 6209</name>
            </trkpt>
            <trkpt lat="49.68288" lon="10.1517664">
                <ele>191.0</ele>
                <time>2020-08-23T12:08:41.000Z</time>
                <name>Trackpoint 6210</name>
            </trkpt>
            <trkpt lat="49.6827648" lon="10.151868">
                <ele>191.0</ele>
                <time>2020-08-23T12:08:43.000Z</time>
                <name>Trackpoint 6211</name>
            </trkpt>
            <trkpt lat="49.6826592" lon="10.151972">
                <ele>192.0</ele>
                <time>2020-08-23T12:08:45.000Z</time>
                <name>Trackpoint 6212</name>
            </trkpt>
            <trkpt lat="49.6825216" lon="10.1520584">
                <ele>193.0</ele>
                <time>2020-08-23T12:08:47.000Z</time>
                <name>Trackpoint 6213</name>
            </trkpt>
            <trkpt lat="49.682448" lon="10.15212">
                <ele>193.0</ele>
                <time>2020-08-23T12:08:48.000Z</time>
                <name>Trackpoint 6214</name>
            </trkpt>
            <trkpt lat="49.6823552" lon="10.1522376">
                <ele>193.0</ele>
                <time>2020-08-23T12:08:50.000Z</time>
                <name>Trackpoint 6215</name>
            </trkpt>
            <trkpt lat="49.6822496" lon="10.1523368">
                <ele>192.0</ele>
                <time>2020-08-23T12:08:52.000Z</time>
                <name>Trackpoint 6216</name>
            </trkpt>
            <trkpt lat="49.6821664" lon="10.1524048">
                <ele>192.0</ele>
                <time>2020-08-23T12:08:54.000Z</time>
                <name>Trackpoint 6217</name>
            </trkpt>
            <trkpt lat="49.682096" lon="10.1524632">
                <ele>192.0</ele>
                <time>2020-08-23T12:08:56.000Z</time>
                <name>Trackpoint 6218</name>
            </trkpt>
            <trkpt lat="49.682016" lon="10.152532">
                <ele>192.0</ele>
                <time>2020-08-23T12:08:58.000Z</time>
                <name>Trackpoint 6219</name>
            </trkpt>
            <trkpt lat="49.6819328" lon="10.1526016">
                <ele>192.0</ele>
                <time>2020-08-23T12:09:00.000Z</time>
                <name>Trackpoint 6220</name>
            </trkpt>
            <trkpt lat="49.6818496" lon="10.1526744">
                <ele>192.0</ele>
                <time>2020-08-23T12:09:02.000Z</time>
                <name>Trackpoint 6221</name>
            </trkpt>
            <trkpt lat="49.6817632" lon="10.1527272">
                <ele>192.0</ele>
                <time>2020-08-23T12:09:04.000Z</time>
                <name>Trackpoint 6222</name>
            </trkpt>
            <trkpt lat="49.6816832" lon="10.1527904">
                <ele>191.0</ele>
                <time>2020-08-23T12:09:06.000Z</time>
                <name>Trackpoint 6223</name>
            </trkpt>
            <trkpt lat="49.6815936" lon="10.1528584">
                <ele>191.0</ele>
                <time>2020-08-23T12:09:08.000Z</time>
                <name>Trackpoint 6224</name>
            </trkpt>
            <trkpt lat="49.6815264" lon="10.152928">
                <ele>191.0</ele>
                <time>2020-08-23T12:09:10.000Z</time>
                <name>Trackpoint 6225</name>
            </trkpt>
            <trkpt lat="49.6814528" lon="10.1529968">
                <ele>191.0</ele>
                <time>2020-08-23T12:09:12.000Z</time>
                <name>Trackpoint 6226</name>
            </trkpt>
            <trkpt lat="49.6813728" lon="10.1530512">
                <ele>190.0</ele>
                <time>2020-08-23T12:09:14.000Z</time>
                <name>Trackpoint 6227</name>
            </trkpt>
            <trkpt lat="49.6812864" lon="10.1531112">
                <ele>190.0</ele>
                <time>2020-08-23T12:09:16.000Z</time>
                <name>Trackpoint 6228</name>
            </trkpt>
            <trkpt lat="49.6811968" lon="10.1531784">
                <ele>190.0</ele>
                <time>2020-08-23T12:09:18.000Z</time>
                <name>Trackpoint 6229</name>
            </trkpt>
            <trkpt lat="49.6811072" lon="10.15324">
                <ele>190.0</ele>
                <time>2020-08-23T12:09:20.000Z</time>
                <name>Trackpoint 6230</name>
            </trkpt>
            <trkpt lat="49.6810048" lon="10.1533">
                <ele>190.0</ele>
                <time>2020-08-23T12:09:22.000Z</time>
                <name>Trackpoint 6231</name>
            </trkpt>
            <trkpt lat="49.680896" lon="10.1533496">
                <ele>190.0</ele>
                <time>2020-08-23T12:09:24.000Z</time>
                <name>Trackpoint 6232</name>
            </trkpt>
            <trkpt lat="49.6807904" lon="10.1533944">
                <ele>191.0</ele>
                <time>2020-08-23T12:09:26.000Z</time>
                <name>Trackpoint 6233</name>
            </trkpt>
            <trkpt lat="49.6806816" lon="10.1534416">
                <ele>190.0</ele>
                <time>2020-08-23T12:09:28.000Z</time>
                <name>Trackpoint 6234</name>
            </trkpt>
            <trkpt lat="49.6805824" lon="10.1534792">
                <ele>189.0</ele>
                <time>2020-08-23T12:09:30.000Z</time>
                <name>Trackpoint 6235</name>
            </trkpt>
            <trkpt lat="49.6804896" lon="10.1535128">
                <ele>190.0</ele>
                <time>2020-08-23T12:09:32.000Z</time>
                <name>Trackpoint 6236</name>
            </trkpt>
            <trkpt lat="49.6803744" lon="10.1535664">
                <ele>190.0</ele>
                <time>2020-08-23T12:09:35.000Z</time>
                <name>Trackpoint 6237</name>
            </trkpt>
            <trkpt lat="49.680272" lon="10.1535832">
                <ele>191.0</ele>
                <time>2020-08-23T12:09:40.000Z</time>
                <name>Trackpoint 6238</name>
            </trkpt>
            <trkpt lat="49.6802208" lon="10.1534952">
                <ele>191.0</ele>
                <time>2020-08-23T12:09:43.000Z</time>
                <name>Trackpoint 6239</name>
            </trkpt>
            <trkpt lat="49.6801888" lon="10.1534008">
                <ele>191.0</ele>
                <time>2020-08-23T12:09:45.000Z</time>
                <name>Trackpoint 6240</name>
            </trkpt>
            <trkpt lat="49.6801312" lon="10.1532968">
                <ele>191.0</ele>
                <time>2020-08-23T12:09:48.000Z</time>
                <name>Trackpoint 6241</name>
            </trkpt>
            <trkpt lat="49.6800384" lon="10.1532944">
                <ele>189.0</ele>
                <time>2020-08-23T12:10:43.000Z</time>
                <name>Trackpoint 6242</name>
            </trkpt>
            <trkpt lat="49.6799072" lon="10.153292">
                <ele>189.0</ele>
                <time>2020-08-23T12:10:47.000Z</time>
                <name>Trackpoint 6243</name>
            </trkpt>
            <trkpt lat="49.679808" lon="10.1532768">
                <ele>189.0</ele>
                <time>2020-08-23T12:10:49.000Z</time>
                <name>Trackpoint 6244</name>
            </trkpt>
            <trkpt lat="49.6796864" lon="10.1532496">
                <ele>188.0</ele>
                <time>2020-08-23T12:10:51.000Z</time>
                <name>Trackpoint 6245</name>
            </trkpt>
            <trkpt lat="49.6795616" lon="10.1532288">
                <ele>188.0</ele>
                <time>2020-08-23T12:10:53.000Z</time>
                <name>Trackpoint 6246</name>
            </trkpt>
            <trkpt lat="49.6794368" lon="10.1532024">
                <ele>187.0</ele>
                <time>2020-08-23T12:10:55.000Z</time>
                <name>Trackpoint 6247</name>
            </trkpt>
            <trkpt lat="49.6793184" lon="10.1531752">
                <ele>187.0</ele>
                <time>2020-08-23T12:10:57.000Z</time>
                <name>Trackpoint 6248</name>
            </trkpt>
            <trkpt lat="49.6792032" lon="10.1531464">
                <ele>188.0</ele>
                <time>2020-08-23T12:10:59.000Z</time>
                <name>Trackpoint 6249</name>
            </trkpt>
            <trkpt lat="49.6790848" lon="10.1531184">
                <ele>188.0</ele>
                <time>2020-08-23T12:11:01.000Z</time>
                <name>Trackpoint 6250</name>
            </trkpt>
            <trkpt lat="49.6789632" lon="10.1530752">
                <ele>188.0</ele>
                <time>2020-08-23T12:11:03.000Z</time>
                <name>Trackpoint 6251</name>
            </trkpt>
            <trkpt lat="49.6788416" lon="10.1530312">
                <ele>188.0</ele>
                <time>2020-08-23T12:11:05.000Z</time>
                <name>Trackpoint 6252</name>
            </trkpt>
            <trkpt lat="49.6787264" lon="10.152984">
                <ele>188.0</ele>
                <time>2020-08-23T12:11:07.000Z</time>
                <name>Trackpoint 6253</name>
            </trkpt>
            <trkpt lat="49.6786112" lon="10.152948">
                <ele>187.0</ele>
                <time>2020-08-23T12:11:09.000Z</time>
                <name>Trackpoint 6254</name>
            </trkpt>
            <trkpt lat="49.6784928" lon="10.152912">
                <ele>187.0</ele>
                <time>2020-08-23T12:11:11.000Z</time>
                <name>Trackpoint 6255</name>
            </trkpt>
            <trkpt lat="49.6783712" lon="10.1528784">
                <ele>187.0</ele>
                <time>2020-08-23T12:11:13.000Z</time>
                <name>Trackpoint 6256</name>
            </trkpt>
            <trkpt lat="49.6782496" lon="10.1528416">
                <ele>187.0</ele>
                <time>2020-08-23T12:11:15.000Z</time>
                <name>Trackpoint 6257</name>
            </trkpt>
            <trkpt lat="49.6781344" lon="10.1528">
                <ele>187.0</ele>
                <time>2020-08-23T12:11:17.000Z</time>
                <name>Trackpoint 6258</name>
            </trkpt>
            <trkpt lat="49.6780288" lon="10.1527584">
                <ele>187.0</ele>
                <time>2020-08-23T12:11:19.000Z</time>
                <name>Trackpoint 6259</name>
            </trkpt>
            <trkpt lat="49.6779104" lon="10.152712">
                <ele>187.0</ele>
                <time>2020-08-23T12:11:21.000Z</time>
                <name>Trackpoint 6260</name>
            </trkpt>
            <trkpt lat="49.6777952" lon="10.1526544">
                <ele>187.0</ele>
                <time>2020-08-23T12:11:23.000Z</time>
                <name>Trackpoint 6261</name>
            </trkpt>
            <trkpt lat="49.6776736" lon="10.152612">
                <ele>187.0</ele>
                <time>2020-08-23T12:11:25.000Z</time>
                <name>Trackpoint 6262</name>
            </trkpt>
            <trkpt lat="49.6775552" lon="10.1525848">
                <ele>187.0</ele>
                <time>2020-08-23T12:11:27.000Z</time>
                <name>Trackpoint 6263</name>
            </trkpt>
            <trkpt lat="49.6774496" lon="10.1525448">
                <ele>187.0</ele>
                <time>2020-08-23T12:11:29.000Z</time>
                <name>Trackpoint 6264</name>
            </trkpt>
            <trkpt lat="49.6773376" lon="10.1525136">
                <ele>187.0</ele>
                <time>2020-08-23T12:11:31.000Z</time>
                <name>Trackpoint 6265</name>
            </trkpt>
            <trkpt lat="49.6772224" lon="10.1524872">
                <ele>187.0</ele>
                <time>2020-08-23T12:11:33.000Z</time>
                <name>Trackpoint 6266</name>
            </trkpt>
            <trkpt lat="49.677104" lon="10.1524496">
                <ele>187.0</ele>
                <time>2020-08-23T12:11:35.000Z</time>
                <name>Trackpoint 6267</name>
            </trkpt>
            <trkpt lat="49.6769792" lon="10.1524152">
                <ele>186.0</ele>
                <time>2020-08-23T12:11:37.000Z</time>
                <name>Trackpoint 6268</name>
            </trkpt>
            <trkpt lat="49.6768672" lon="10.1523864">
                <ele>187.0</ele>
                <time>2020-08-23T12:11:39.000Z</time>
                <name>Trackpoint 6269</name>
            </trkpt>
            <trkpt lat="49.6767616" lon="10.1523536">
                <ele>186.0</ele>
                <time>2020-08-23T12:11:41.000Z</time>
                <name>Trackpoint 6270</name>
            </trkpt>
            <trkpt lat="49.676656" lon="10.1523304">
                <ele>186.0</ele>
                <time>2020-08-23T12:11:43.000Z</time>
                <name>Trackpoint 6271</name>
            </trkpt>
            <trkpt lat="49.6765504" lon="10.1523168">
                <ele>187.0</ele>
                <time>2020-08-23T12:11:45.000Z</time>
                <name>Trackpoint 6272</name>
            </trkpt>
            <trkpt lat="49.6764448" lon="10.1522768">
                <ele>187.0</ele>
                <time>2020-08-23T12:11:47.000Z</time>
                <name>Trackpoint 6273</name>
            </trkpt>
            <trkpt lat="49.6763296" lon="10.152264">
                <ele>187.0</ele>
                <time>2020-08-23T12:11:49.000Z</time>
                <name>Trackpoint 6274</name>
            </trkpt>
            <trkpt lat="49.6762208" lon="10.15224">
                <ele>187.0</ele>
                <time>2020-08-23T12:11:51.000Z</time>
                <name>Trackpoint 6275</name>
            </trkpt>
            <trkpt lat="49.6761088" lon="10.1522232">
                <ele>187.0</ele>
                <time>2020-08-23T12:11:53.000Z</time>
                <name>Trackpoint 6276</name>
            </trkpt>
            <trkpt lat="49.6759904" lon="10.1522128">
                <ele>186.0</ele>
                <time>2020-08-23T12:11:55.000Z</time>
                <name>Trackpoint 6277</name>
            </trkpt>
            <trkpt lat="49.6758752" lon="10.1521856">
                <ele>186.0</ele>
                <time>2020-08-23T12:11:57.000Z</time>
                <name>Trackpoint 6278</name>
            </trkpt>
            <trkpt lat="49.6757696" lon="10.1521232">
                <ele>186.0</ele>
                <time>2020-08-23T12:11:59.000Z</time>
                <name>Trackpoint 6279</name>
            </trkpt>
            <trkpt lat="49.6756672" lon="10.1520864">
                <ele>186.0</ele>
                <time>2020-08-23T12:12:01.000Z</time>
                <name>Trackpoint 6280</name>
            </trkpt>
            <trkpt lat="49.6755584" lon="10.1520216">
                <ele>186.0</ele>
                <time>2020-08-23T12:12:03.000Z</time>
                <name>Trackpoint 6281</name>
            </trkpt>
            <trkpt lat="49.6754528" lon="10.1519544">
                <ele>185.0</ele>
                <time>2020-08-23T12:12:05.000Z</time>
                <name>Trackpoint 6282</name>
            </trkpt>
            <trkpt lat="49.675344" lon="10.1518848">
                <ele>185.0</ele>
                <time>2020-08-23T12:12:07.000Z</time>
                <name>Trackpoint 6283</name>
            </trkpt>
            <trkpt lat="49.6752256" lon="10.1518184">
                <ele>185.0</ele>
                <time>2020-08-23T12:12:09.000Z</time>
                <name>Trackpoint 6284</name>
            </trkpt>
            <trkpt lat="49.6751008" lon="10.1517488">
                <ele>185.0</ele>
                <time>2020-08-23T12:12:11.000Z</time>
                <name>Trackpoint 6285</name>
            </trkpt>
            <trkpt lat="49.6749824" lon="10.1516704">
                <ele>185.0</ele>
                <time>2020-08-23T12:12:13.000Z</time>
                <name>Trackpoint 6286</name>
            </trkpt>
            <trkpt lat="49.6748608" lon="10.1515976">
                <ele>185.0</ele>
                <time>2020-08-23T12:12:15.000Z</time>
                <name>Trackpoint 6287</name>
            </trkpt>
            <trkpt lat="49.674752" lon="10.1515248">
                <ele>185.0</ele>
                <time>2020-08-23T12:12:17.000Z</time>
                <name>Trackpoint 6288</name>
            </trkpt>
            <trkpt lat="49.6746432" lon="10.15146">
                <ele>185.0</ele>
                <time>2020-08-23T12:12:19.000Z</time>
                <name>Trackpoint 6289</name>
            </trkpt>
            <trkpt lat="49.6745344" lon="10.1513928">
                <ele>185.0</ele>
                <time>2020-08-23T12:12:21.000Z</time>
                <name>Trackpoint 6290</name>
            </trkpt>
            <trkpt lat="49.6744224" lon="10.1513256">
                <ele>185.0</ele>
                <time>2020-08-23T12:12:23.000Z</time>
                <name>Trackpoint 6291</name>
            </trkpt>
            <trkpt lat="49.6743072" lon="10.1512816">
                <ele>185.0</ele>
                <time>2020-08-23T12:12:25.000Z</time>
                <name>Trackpoint 6292</name>
            </trkpt>
            <trkpt lat="49.6741984" lon="10.1512568">
                <ele>185.0</ele>
                <time>2020-08-23T12:12:27.000Z</time>
                <name>Trackpoint 6293</name>
            </trkpt>
            <trkpt lat="49.674096" lon="10.1512448">
                <ele>185.0</ele>
                <time>2020-08-23T12:12:29.000Z</time>
                <name>Trackpoint 6294</name>
            </trkpt>
            <trkpt lat="49.6739936" lon="10.1512368">
                <ele>185.0</ele>
                <time>2020-08-23T12:12:31.000Z</time>
                <name>Trackpoint 6295</name>
            </trkpt>
            <trkpt lat="49.673888" lon="10.1512232">
                <ele>185.0</ele>
                <time>2020-08-23T12:12:33.000Z</time>
                <name>Trackpoint 6296</name>
            </trkpt>
            <trkpt lat="49.6737888" lon="10.1512144">
                <ele>185.0</ele>
                <time>2020-08-23T12:12:35.000Z</time>
                <name>Trackpoint 6297</name>
            </trkpt>
            <trkpt lat="49.6736864" lon="10.1512072">
                <ele>185.0</ele>
                <time>2020-08-23T12:12:37.000Z</time>
                <name>Trackpoint 6298</name>
            </trkpt>
            <trkpt lat="49.6735872" lon="10.1511872">
                <ele>185.0</ele>
                <time>2020-08-23T12:12:39.000Z</time>
                <name>Trackpoint 6299</name>
            </trkpt>
            <trkpt lat="49.6734848" lon="10.1511584">
                <ele>185.0</ele>
                <time>2020-08-23T12:12:41.000Z</time>
                <name>Trackpoint 6300</name>
            </trkpt>
            <trkpt lat="49.6733856" lon="10.1511352">
                <ele>185.0</ele>
                <time>2020-08-23T12:12:43.000Z</time>
                <name>Trackpoint 6301</name>
            </trkpt>
            <trkpt lat="49.6732896" lon="10.1511032">
                <ele>185.0</ele>
                <time>2020-08-23T12:12:45.000Z</time>
                <name>Trackpoint 6302</name>
            </trkpt>
            <trkpt lat="49.6731904" lon="10.1510664">
                <ele>185.0</ele>
                <time>2020-08-23T12:12:47.000Z</time>
                <name>Trackpoint 6303</name>
            </trkpt>
            <trkpt lat="49.673088" lon="10.151036">
                <ele>185.0</ele>
                <time>2020-08-23T12:12:49.000Z</time>
                <name>Trackpoint 6304</name>
            </trkpt>
            <trkpt lat="49.6729888" lon="10.1509912">
                <ele>185.0</ele>
                <time>2020-08-23T12:12:51.000Z</time>
                <name>Trackpoint 6305</name>
            </trkpt>
            <trkpt lat="49.6728928" lon="10.15094">
                <ele>185.0</ele>
                <time>2020-08-23T12:12:53.000Z</time>
                <name>Trackpoint 6306</name>
            </trkpt>
            <trkpt lat="49.6727968" lon="10.1508968">
                <ele>185.0</ele>
                <time>2020-08-23T12:12:55.000Z</time>
                <name>Trackpoint 6307</name>
            </trkpt>
            <trkpt lat="49.672704" lon="10.1508512">
                <ele>185.0</ele>
                <time>2020-08-23T12:12:57.000Z</time>
                <name>Trackpoint 6308</name>
            </trkpt>
            <trkpt lat="49.6726112" lon="10.1508016">
                <ele>185.0</ele>
                <time>2020-08-23T12:12:59.000Z</time>
                <name>Trackpoint 6309</name>
            </trkpt>
            <trkpt lat="49.6725152" lon="10.1507416">
                <ele>185.0</ele>
                <time>2020-08-23T12:13:01.000Z</time>
                <name>Trackpoint 6310</name>
            </trkpt>
            <trkpt lat="49.6724288" lon="10.1506952">
                <ele>185.0</ele>
                <time>2020-08-23T12:13:03.000Z</time>
                <name>Trackpoint 6311</name>
            </trkpt>
            <trkpt lat="49.6723392" lon="10.1506504">
                <ele>185.0</ele>
                <time>2020-08-23T12:13:05.000Z</time>
                <name>Trackpoint 6312</name>
            </trkpt>
            <trkpt lat="49.6722208" lon="10.150612">
                <ele>185.0</ele>
                <time>2020-08-23T12:13:08.000Z</time>
                <name>Trackpoint 6313</name>
            </trkpt>
            <trkpt lat="49.6721088" lon="10.1506232">
                <ele>185.0</ele>
                <time>2020-08-23T12:13:11.000Z</time>
                <name>Trackpoint 6314</name>
            </trkpt>
            <trkpt lat="49.6720032" lon="10.1505848">
                <ele>185.0</ele>
                <time>2020-08-23T12:13:14.000Z</time>
                <name>Trackpoint 6315</name>
            </trkpt>
            <trkpt lat="49.6719392" lon="10.1505144">
                <ele>185.0</ele>
                <time>2020-08-23T12:13:16.000Z</time>
                <name>Trackpoint 6316</name>
            </trkpt>
            <trkpt lat="49.6718752" lon="10.1504384">
                <ele>185.0</ele>
                <time>2020-08-23T12:13:18.000Z</time>
                <name>Trackpoint 6317</name>
            </trkpt>
            <trkpt lat="49.6718016" lon="10.15036">
                <ele>185.0</ele>
                <time>2020-08-23T12:13:20.000Z</time>
                <name>Trackpoint 6318</name>
            </trkpt>
            <trkpt lat="49.6717216" lon="10.1502832">
                <ele>185.0</ele>
                <time>2020-08-23T12:13:22.000Z</time>
                <name>Trackpoint 6319</name>
            </trkpt>
            <trkpt lat="49.6716384" lon="10.1502136">
                <ele>185.0</ele>
                <time>2020-08-23T12:13:24.000Z</time>
                <name>Trackpoint 6320</name>
            </trkpt>
            <trkpt lat="49.6715424" lon="10.1501368">
                <ele>185.0</ele>
                <time>2020-08-23T12:13:26.000Z</time>
                <name>Trackpoint 6321</name>
            </trkpt>
            <trkpt lat="49.6714528" lon="10.1500656">
                <ele>185.0</ele>
                <time>2020-08-23T12:13:28.000Z</time>
                <name>Trackpoint 6322</name>
            </trkpt>
            <trkpt lat="49.6713664" lon="10.1499864">
                <ele>185.0</ele>
                <time>2020-08-23T12:13:30.000Z</time>
                <name>Trackpoint 6323</name>
            </trkpt>
            <trkpt lat="49.6712832" lon="10.1499008">
                <ele>185.0</ele>
                <time>2020-08-23T12:13:32.000Z</time>
                <name>Trackpoint 6324</name>
            </trkpt>
            <trkpt lat="49.6712" lon="10.14982">
                <ele>185.0</ele>
                <time>2020-08-23T12:13:34.000Z</time>
                <name>Trackpoint 6325</name>
            </trkpt>
            <trkpt lat="49.6711168" lon="10.14974">
                <ele>185.0</ele>
                <time>2020-08-23T12:13:36.000Z</time>
                <name>Trackpoint 6326</name>
            </trkpt>
            <trkpt lat="49.6710432" lon="10.1496432">
                <ele>185.0</ele>
                <time>2020-08-23T12:13:38.000Z</time>
                <name>Trackpoint 6327</name>
            </trkpt>
            <trkpt lat="49.6709664" lon="10.1495536">
                <ele>185.0</ele>
                <time>2020-08-23T12:13:40.000Z</time>
                <name>Trackpoint 6328</name>
            </trkpt>
            <trkpt lat="49.6708992" lon="10.1494768">
                <ele>185.0</ele>
                <time>2020-08-23T12:13:42.000Z</time>
                <name>Trackpoint 6329</name>
            </trkpt>
            <trkpt lat="49.6708224" lon="10.1493832">
                <ele>186.0</ele>
                <time>2020-08-23T12:13:44.000Z</time>
                <name>Trackpoint 6330</name>
            </trkpt>
            <trkpt lat="49.670752" lon="10.1492728">
                <ele>186.0</ele>
                <time>2020-08-23T12:13:46.000Z</time>
                <name>Trackpoint 6331</name>
            </trkpt>
            <trkpt lat="49.6706848" lon="10.1491696">
                <ele>186.0</ele>
                <time>2020-08-23T12:13:48.000Z</time>
                <name>Trackpoint 6332</name>
            </trkpt>
            <trkpt lat="49.6706176" lon="10.1490648">
                <ele>186.0</ele>
                <time>2020-08-23T12:13:50.000Z</time>
                <name>Trackpoint 6333</name>
            </trkpt>
            <trkpt lat="49.6705408" lon="10.1489584">
                <ele>186.0</ele>
                <time>2020-08-23T12:13:52.000Z</time>
                <name>Trackpoint 6334</name>
            </trkpt>
            <trkpt lat="49.6704896" lon="10.1488512">
                <ele>186.0</ele>
                <time>2020-08-23T12:13:54.000Z</time>
                <name>Trackpoint 6335</name>
            </trkpt>
            <trkpt lat="49.670432" lon="10.1487568">
                <ele>186.0</ele>
                <time>2020-08-23T12:13:56.000Z</time>
                <name>Trackpoint 6336</name>
            </trkpt>
            <trkpt lat="49.6703456" lon="10.1486">
                <ele>186.0</ele>
                <time>2020-08-23T12:13:58.000Z</time>
                <name>Trackpoint 6337</name>
            </trkpt>
            <trkpt lat="49.670304" lon="10.1484816">
                <ele>186.0</ele>
                <time>2020-08-23T12:14:00.000Z</time>
                <name>Trackpoint 6338</name>
            </trkpt>
            <trkpt lat="49.6702496" lon="10.1483696">
                <ele>186.0</ele>
                <time>2020-08-23T12:14:02.000Z</time>
                <name>Trackpoint 6339</name>
            </trkpt>
            <trkpt lat="49.6701952" lon="10.1482624">
                <ele>186.0</ele>
                <time>2020-08-23T12:14:04.000Z</time>
                <name>Trackpoint 6340</name>
            </trkpt>
            <trkpt lat="49.670144" lon="10.1481352">
                <ele>186.0</ele>
                <time>2020-08-23T12:14:06.000Z</time>
                <name>Trackpoint 6341</name>
            </trkpt>
            <trkpt lat="49.6700768" lon="10.1480264">
                <ele>186.0</ele>
                <time>2020-08-23T12:14:08.000Z</time>
                <name>Trackpoint 6342</name>
            </trkpt>
            <trkpt lat="49.6700224" lon="10.1479216">
                <ele>186.0</ele>
                <time>2020-08-23T12:14:10.000Z</time>
                <name>Trackpoint 6343</name>
            </trkpt>
            <trkpt lat="49.6699744" lon="10.1478096">
                <ele>186.0</ele>
                <time>2020-08-23T12:14:12.000Z</time>
                <name>Trackpoint 6344</name>
            </trkpt>
            <trkpt lat="49.669936" lon="10.1477016">
                <ele>186.0</ele>
                <time>2020-08-23T12:14:14.000Z</time>
                <name>Trackpoint 6345</name>
            </trkpt>
            <trkpt lat="49.6698944" lon="10.147576">
                <ele>186.0</ele>
                <time>2020-08-23T12:14:16.000Z</time>
                <name>Trackpoint 6346</name>
            </trkpt>
            <trkpt lat="49.6698432" lon="10.1474352">
                <ele>187.0</ele>
                <time>2020-08-23T12:14:18.000Z</time>
                <name>Trackpoint 6347</name>
            </trkpt>
            <trkpt lat="49.6697792" lon="10.1473048">
                <ele>187.0</ele>
                <time>2020-08-23T12:14:20.000Z</time>
                <name>Trackpoint 6348</name>
            </trkpt>
            <trkpt lat="49.6697152" lon="10.14718">
                <ele>187.0</ele>
                <time>2020-08-23T12:14:22.000Z</time>
                <name>Trackpoint 6349</name>
            </trkpt>
            <trkpt lat="49.6696448" lon="10.1470544">
                <ele>187.0</ele>
                <time>2020-08-23T12:14:24.000Z</time>
                <name>Trackpoint 6350</name>
            </trkpt>
            <trkpt lat="49.6695712" lon="10.1469224">
                <ele>187.0</ele>
                <time>2020-08-23T12:14:26.000Z</time>
                <name>Trackpoint 6351</name>
            </trkpt>
            <trkpt lat="49.6695072" lon="10.1467896">
                <ele>187.0</ele>
                <time>2020-08-23T12:14:28.000Z</time>
                <name>Trackpoint 6352</name>
            </trkpt>
            <trkpt lat="49.6694496" lon="10.1466752">
                <ele>187.0</ele>
                <time>2020-08-23T12:14:30.000Z</time>
                <name>Trackpoint 6353</name>
            </trkpt>
            <trkpt lat="49.6693952" lon="10.146548">
                <ele>187.0</ele>
                <time>2020-08-23T12:14:32.000Z</time>
                <name>Trackpoint 6354</name>
            </trkpt>
            <trkpt lat="49.6693536" lon="10.1464392">
                <ele>187.0</ele>
                <time>2020-08-23T12:14:34.000Z</time>
                <name>Trackpoint 6355</name>
            </trkpt>
            <trkpt lat="49.6693312" lon="10.146312">
                <ele>188.0</ele>
                <time>2020-08-23T12:14:36.000Z</time>
                <name>Trackpoint 6356</name>
            </trkpt>
            <trkpt lat="49.6693088" lon="10.1461832">
                <ele>188.0</ele>
                <time>2020-08-23T12:14:38.000Z</time>
                <name>Trackpoint 6357</name>
            </trkpt>
            <trkpt lat="49.6692736" lon="10.1460352">
                <ele>188.0</ele>
                <time>2020-08-23T12:14:40.000Z</time>
                <name>Trackpoint 6358</name>
            </trkpt>
            <trkpt lat="49.6692352" lon="10.145888">
                <ele>188.0</ele>
                <time>2020-08-23T12:14:42.000Z</time>
                <name>Trackpoint 6359</name>
            </trkpt>
            <trkpt lat="49.6691872" lon="10.1457344">
                <ele>188.0</ele>
                <time>2020-08-23T12:14:44.000Z</time>
                <name>Trackpoint 6360</name>
            </trkpt>
            <trkpt lat="49.6691296" lon="10.1455832">
                <ele>188.0</ele>
                <time>2020-08-23T12:14:46.000Z</time>
                <name>Trackpoint 6361</name>
            </trkpt>
            <trkpt lat="49.669072" lon="10.1454488">
                <ele>188.0</ele>
                <time>2020-08-23T12:14:48.000Z</time>
                <name>Trackpoint 6362</name>
            </trkpt>
            <trkpt lat="49.6690112" lon="10.1453064">
                <ele>188.0</ele>
                <time>2020-08-23T12:14:50.000Z</time>
                <name>Trackpoint 6363</name>
            </trkpt>
            <trkpt lat="49.6689568" lon="10.1451616">
                <ele>188.0</ele>
                <time>2020-08-23T12:14:52.000Z</time>
                <name>Trackpoint 6364</name>
            </trkpt>
            <trkpt lat="49.668912" lon="10.1450232">
                <ele>187.0</ele>
                <time>2020-08-23T12:14:54.000Z</time>
                <name>Trackpoint 6365</name>
            </trkpt>
            <trkpt lat="49.6688544" lon="10.1449016">
                <ele>187.0</ele>
                <time>2020-08-23T12:14:56.000Z</time>
                <name>Trackpoint 6366</name>
            </trkpt>
            <trkpt lat="49.6688032" lon="10.1447648">
                <ele>187.0</ele>
                <time>2020-08-23T12:14:58.000Z</time>
                <name>Trackpoint 6367</name>
            </trkpt>
            <trkpt lat="49.6687392" lon="10.144624">
                <ele>187.0</ele>
                <time>2020-08-23T12:15:00.000Z</time>
                <name>Trackpoint 6368</name>
            </trkpt>
            <trkpt lat="49.6686848" lon="10.1445032">
                <ele>187.0</ele>
                <time>2020-08-23T12:15:02.000Z</time>
                <name>Trackpoint 6369</name>
            </trkpt>
            <trkpt lat="49.6686336" lon="10.1443784">
                <ele>187.0</ele>
                <time>2020-08-23T12:15:04.000Z</time>
                <name>Trackpoint 6370</name>
            </trkpt>
            <trkpt lat="49.6685728" lon="10.1442784">
                <ele>187.0</ele>
                <time>2020-08-23T12:15:06.000Z</time>
                <name>Trackpoint 6371</name>
            </trkpt>
            <trkpt lat="49.6685184" lon="10.1441848">
                <ele>187.0</ele>
                <time>2020-08-23T12:15:08.000Z</time>
                <name>Trackpoint 6372</name>
            </trkpt>
            <trkpt lat="49.6684768" lon="10.1440832">
                <ele>187.0</ele>
                <time>2020-08-23T12:15:10.000Z</time>
                <name>Trackpoint 6373</name>
            </trkpt>
            <trkpt lat="49.6684416" lon="10.1439816">
                <ele>186.0</ele>
                <time>2020-08-23T12:15:14.000Z</time>
                <name>Trackpoint 6374</name>
            </trkpt>
            <trkpt lat="49.6683968" lon="10.1438968">
                <ele>186.0</ele>
                <time>2020-08-23T12:15:45.000Z</time>
                <name>Trackpoint 6375</name>
            </trkpt>
            <trkpt lat="49.6683968" lon="10.1438064">
                <ele>186.0</ele>
                <time>2020-08-23T12:16:20.000Z</time>
                <name>Trackpoint 6376</name>
            </trkpt>
            <trkpt lat="49.6684" lon="10.1437128">
                <ele>186.0</ele>
                <time>2020-08-23T12:16:33.000Z</time>
                <name>Trackpoint 6377</name>
            </trkpt>
            <trkpt lat="49.6684416" lon="10.1436264">
                <ele>186.0</ele>
                <time>2020-08-23T12:17:19.000Z</time>
                <name>Trackpoint 6378</name>
            </trkpt>
            <trkpt lat="49.6685056" lon="10.1435584">
                <ele>186.0</ele>
                <time>2020-08-23T12:17:24.000Z</time>
                <name>Trackpoint 6379</name>
            </trkpt>
            <trkpt lat="49.6685248" lon="10.1434496">
                <ele>186.0</ele>
                <time>2020-08-23T12:17:28.000Z</time>
                <name>Trackpoint 6380</name>
            </trkpt>
            <trkpt lat="49.6685824" lon="10.1433536">
                <ele>186.0</ele>
                <time>2020-08-23T12:17:31.000Z</time>
                <name>Trackpoint 6381</name>
            </trkpt>
            <trkpt lat="49.6686528" lon="10.1432752">
                <ele>186.0</ele>
                <time>2020-08-23T12:17:34.000Z</time>
                <name>Trackpoint 6382</name>
            </trkpt>
            <trkpt lat="49.6687328" lon="10.1432168">
                <ele>186.0</ele>
                <time>2020-08-23T12:18:01.000Z</time>
                <name>Trackpoint 6383</name>
            </trkpt>
            <trkpt lat="49.6687968" lon="10.1431448">
                <ele>185.0</ele>
                <time>2020-08-23T12:18:06.000Z</time>
                <name>Trackpoint 6384</name>
            </trkpt>
            <trkpt lat="49.6688128" lon="10.14304">
                <ele>185.0</ele>
                <time>2020-08-23T12:19:01.000Z</time>
                <name>Trackpoint 6385</name>
            </trkpt>
            <trkpt lat="49.6687904" lon="10.1429232">
                <ele>185.0</ele>
                <time>2020-08-23T12:19:04.000Z</time>
                <name>Trackpoint 6386</name>
            </trkpt>
            <trkpt lat="49.6687584" lon="10.1427984">
                <ele>185.0</ele>
                <time>2020-08-23T12:19:07.000Z</time>
                <name>Trackpoint 6387</name>
            </trkpt>
            <trkpt lat="49.6687392" lon="10.1426936">
                <ele>185.0</ele>
                <time>2020-08-23T12:19:09.000Z</time>
                <name>Trackpoint 6388</name>
            </trkpt>
            <trkpt lat="49.6687168" lon="10.1425864">
                <ele>185.0</ele>
                <time>2020-08-23T12:19:11.000Z</time>
                <name>Trackpoint 6389</name>
            </trkpt>
            <trkpt lat="49.6686912" lon="10.1424752">
                <ele>185.0</ele>
                <time>2020-08-23T12:19:13.000Z</time>
                <name>Trackpoint 6390</name>
            </trkpt>
            <trkpt lat="49.6686656" lon="10.1423616">
                <ele>185.0</ele>
                <time>2020-08-23T12:19:15.000Z</time>
                <name>Trackpoint 6391</name>
            </trkpt>
            <trkpt lat="49.6686528" lon="10.142248">
                <ele>185.0</ele>
                <time>2020-08-23T12:19:18.000Z</time>
                <name>Trackpoint 6392</name>
            </trkpt>
            <trkpt lat="49.6686272" lon="10.14214">
                <ele>183.0</ele>
                <time>2020-08-23T12:19:36.000Z</time>
                <name>Trackpoint 6393</name>
            </trkpt>
            <trkpt lat="49.6685824" lon="10.1420448">
                <ele>183.0</ele>
                <time>2020-08-23T12:19:39.000Z</time>
                <name>Trackpoint 6394</name>
            </trkpt>
            <trkpt lat="49.6685472" lon="10.14192">
                <ele>183.0</ele>
                <time>2020-08-23T12:19:42.000Z</time>
                <name>Trackpoint 6395</name>
            </trkpt>
            <trkpt lat="49.6685248" lon="10.1418184">
                <ele>182.0</ele>
                <time>2020-08-23T12:19:44.000Z</time>
                <name>Trackpoint 6396</name>
            </trkpt>
            <trkpt lat="49.6685184" lon="10.1417112">
                <ele>182.0</ele>
                <time>2020-08-23T12:19:46.000Z</time>
                <name>Trackpoint 6397</name>
            </trkpt>
            <trkpt lat="49.6685216" lon="10.1416128">
                <ele>182.0</ele>
                <time>2020-08-23T12:19:48.000Z</time>
                <name>Trackpoint 6398</name>
            </trkpt>
            <trkpt lat="49.668528" lon="10.1414968">
                <ele>182.0</ele>
                <time>2020-08-23T12:19:50.000Z</time>
                <name>Trackpoint 6399</name>
            </trkpt>
            <trkpt lat="49.6685216" lon="10.141372">
                <ele>182.0</ele>
                <time>2020-08-23T12:19:52.000Z</time>
                <name>Trackpoint 6400</name>
            </trkpt>
            <trkpt lat="49.668496" lon="10.141256">
                <ele>182.0</ele>
                <time>2020-08-23T12:19:54.000Z</time>
                <name>Trackpoint 6401</name>
            </trkpt>
            <trkpt lat="49.668464" lon="10.141144">
                <ele>182.0</ele>
                <time>2020-08-23T12:19:56.000Z</time>
                <name>Trackpoint 6402</name>
            </trkpt>
            <trkpt lat="49.6684288" lon="10.1410168">
                <ele>182.0</ele>
                <time>2020-08-23T12:19:58.000Z</time>
                <name>Trackpoint 6403</name>
            </trkpt>
            <trkpt lat="49.6683872" lon="10.1408984">
                <ele>182.0</ele>
                <time>2020-08-23T12:20:00.000Z</time>
                <name>Trackpoint 6404</name>
            </trkpt>
            <trkpt lat="49.6683456" lon="10.140788">
                <ele>182.0</ele>
                <time>2020-08-23T12:20:02.000Z</time>
                <name>Trackpoint 6405</name>
            </trkpt>
            <trkpt lat="49.6683232" lon="10.1406472">
                <ele>182.0</ele>
                <time>2020-08-23T12:20:04.000Z</time>
                <name>Trackpoint 6406</name>
            </trkpt>
            <trkpt lat="49.6683136" lon="10.140516">
                <ele>182.0</ele>
                <time>2020-08-23T12:20:06.000Z</time>
                <name>Trackpoint 6407</name>
            </trkpt>
            <trkpt lat="49.668288" lon="10.1403952">
                <ele>182.0</ele>
                <time>2020-08-23T12:20:08.000Z</time>
                <name>Trackpoint 6408</name>
            </trkpt>
            <trkpt lat="49.6682496" lon="10.1402528">
                <ele>182.0</ele>
                <time>2020-08-23T12:20:10.000Z</time>
                <name>Trackpoint 6409</name>
            </trkpt>
            <trkpt lat="49.6682176" lon="10.1401368">
                <ele>182.0</ele>
                <time>2020-08-23T12:20:12.000Z</time>
                <name>Trackpoint 6410</name>
            </trkpt>
            <trkpt lat="49.6681824" lon="10.1400248">
                <ele>182.0</ele>
                <time>2020-08-23T12:20:14.000Z</time>
                <name>Trackpoint 6411</name>
            </trkpt>
            <trkpt lat="49.6681504" lon="10.1399032">
                <ele>182.0</ele>
                <time>2020-08-23T12:20:16.000Z</time>
                <name>Trackpoint 6412</name>
            </trkpt>
            <trkpt lat="49.668128" lon="10.139796">
                <ele>182.0</ele>
                <time>2020-08-23T12:20:18.000Z</time>
                <name>Trackpoint 6413</name>
            </trkpt>
            <trkpt lat="49.6680992" lon="10.1396712">
                <ele>182.0</ele>
                <time>2020-08-23T12:20:20.000Z</time>
                <name>Trackpoint 6414</name>
            </trkpt>
            <trkpt lat="49.6680576" lon="10.1395456">
                <ele>182.0</ele>
                <time>2020-08-23T12:20:22.000Z</time>
                <name>Trackpoint 6415</name>
            </trkpt>
            <trkpt lat="49.6680192" lon="10.1394368">
                <ele>183.0</ele>
                <time>2020-08-23T12:20:24.000Z</time>
                <name>Trackpoint 6416</name>
            </trkpt>
            <trkpt lat="49.6679648" lon="10.139292">
                <ele>182.0</ele>
                <time>2020-08-23T12:20:26.000Z</time>
                <name>Trackpoint 6417</name>
            </trkpt>
            <trkpt lat="49.6679296" lon="10.1391672">
                <ele>182.0</ele>
                <time>2020-08-23T12:20:28.000Z</time>
                <name>Trackpoint 6418</name>
            </trkpt>
            <trkpt lat="49.667888" lon="10.1390496">
                <ele>182.0</ele>
                <time>2020-08-23T12:20:30.000Z</time>
                <name>Trackpoint 6419</name>
            </trkpt>
            <trkpt lat="49.6678592" lon="10.138944">
                <ele>182.0</ele>
                <time>2020-08-23T12:20:32.000Z</time>
                <name>Trackpoint 6420</name>
            </trkpt>
            <trkpt lat="49.6678368" lon="10.1388464">
                <ele>182.0</ele>
                <time>2020-08-23T12:20:34.000Z</time>
                <name>Trackpoint 6421</name>
            </trkpt>
            <trkpt lat="49.6678048" lon="10.1387416">
                <ele>181.0</ele>
                <time>2020-08-23T12:20:36.000Z</time>
                <name>Trackpoint 6422</name>
            </trkpt>
            <trkpt lat="49.6677824" lon="10.1386472">
                <ele>181.0</ele>
                <time>2020-08-23T12:20:38.000Z</time>
                <name>Trackpoint 6423</name>
            </trkpt>
            <trkpt lat="49.6677504" lon="10.1385336">
                <ele>181.0</ele>
                <time>2020-08-23T12:20:40.000Z</time>
                <name>Trackpoint 6424</name>
            </trkpt>
            <trkpt lat="49.667712" lon="10.1384032">
                <ele>181.0</ele>
                <time>2020-08-23T12:20:42.000Z</time>
                <name>Trackpoint 6425</name>
            </trkpt>
            <trkpt lat="49.6676736" lon="10.1382704">
                <ele>181.0</ele>
                <time>2020-08-23T12:20:44.000Z</time>
                <name>Trackpoint 6426</name>
            </trkpt>
            <trkpt lat="49.6676416" lon="10.1381328">
                <ele>182.0</ele>
                <time>2020-08-23T12:20:46.000Z</time>
                <name>Trackpoint 6427</name>
            </trkpt>
            <trkpt lat="49.6676032" lon="10.137988">
                <ele>182.0</ele>
                <time>2020-08-23T12:20:48.000Z</time>
                <name>Trackpoint 6428</name>
            </trkpt>
            <trkpt lat="49.667552" lon="10.1378368">
                <ele>182.0</ele>
                <time>2020-08-23T12:20:50.000Z</time>
                <name>Trackpoint 6429</name>
            </trkpt>
            <trkpt lat="49.667504" lon="10.1376896">
                <ele>182.0</ele>
                <time>2020-08-23T12:20:52.000Z</time>
                <name>Trackpoint 6430</name>
            </trkpt>
            <trkpt lat="49.6674688" lon="10.1375464">
                <ele>182.0</ele>
                <time>2020-08-23T12:20:54.000Z</time>
                <name>Trackpoint 6431</name>
            </trkpt>
            <trkpt lat="49.667424" lon="10.1374016">
                <ele>182.0</ele>
                <time>2020-08-23T12:20:56.000Z</time>
                <name>Trackpoint 6432</name>
            </trkpt>
            <trkpt lat="49.6673888" lon="10.1372536">
                <ele>182.0</ele>
                <time>2020-08-23T12:20:58.000Z</time>
                <name>Trackpoint 6433</name>
            </trkpt>
            <trkpt lat="49.667344" lon="10.1371144">
                <ele>182.0</ele>
                <time>2020-08-23T12:21:00.000Z</time>
                <name>Trackpoint 6434</name>
            </trkpt>
            <trkpt lat="49.6673248" lon="10.1369584">
                <ele>182.0</ele>
                <time>2020-08-23T12:21:02.000Z</time>
                <name>Trackpoint 6435</name>
            </trkpt>
            <trkpt lat="49.667296" lon="10.1368168">
                <ele>182.0</ele>
                <time>2020-08-23T12:21:04.000Z</time>
                <name>Trackpoint 6436</name>
            </trkpt>
            <trkpt lat="49.6672768" lon="10.1366968">
                <ele>182.0</ele>
                <time>2020-08-23T12:21:06.000Z</time>
                <name>Trackpoint 6437</name>
            </trkpt>
            <trkpt lat="49.6672544" lon="10.1365968">
                <ele>182.0</ele>
                <time>2020-08-23T12:21:08.000Z</time>
                <name>Trackpoint 6438</name>
            </trkpt>
            <trkpt lat="49.6672288" lon="10.136492">
                <ele>182.0</ele>
                <time>2020-08-23T12:21:10.000Z</time>
                <name>Trackpoint 6439</name>
            </trkpt>
            <trkpt lat="49.6671936" lon="10.1363672">
                <ele>182.0</ele>
                <time>2020-08-23T12:21:12.000Z</time>
                <name>Trackpoint 6440</name>
            </trkpt>
            <trkpt lat="49.6671616" lon="10.1362432">
                <ele>182.0</ele>
                <time>2020-08-23T12:21:14.000Z</time>
                <name>Trackpoint 6441</name>
            </trkpt>
            <trkpt lat="49.6671264" lon="10.1361312">
                <ele>182.0</ele>
                <time>2020-08-23T12:21:16.000Z</time>
                <name>Trackpoint 6442</name>
            </trkpt>
            <trkpt lat="49.6670944" lon="10.1360128">
                <ele>183.0</ele>
                <time>2020-08-23T12:21:18.000Z</time>
                <name>Trackpoint 6443</name>
            </trkpt>
            <trkpt lat="49.6670656" lon="10.1359032">
                <ele>182.0</ele>
                <time>2020-08-23T12:21:20.000Z</time>
                <name>Trackpoint 6444</name>
            </trkpt>
            <trkpt lat="49.6670432" lon="10.1357984">
                <ele>182.0</ele>
                <time>2020-08-23T12:21:23.000Z</time>
                <name>Trackpoint 6445</name>
            </trkpt>
            <trkpt lat="49.6670112" lon="10.1356832">
                <ele>181.0</ele>
                <time>2020-08-23T12:21:53.000Z</time>
                <name>Trackpoint 6446</name>
            </trkpt>
            <trkpt lat="49.6669856" lon="10.1355936">
                <ele>181.0</ele>
                <time>2020-08-23T12:21:55.000Z</time>
                <name>Trackpoint 6447</name>
            </trkpt>
            <trkpt lat="49.6669536" lon="10.1354904">
                <ele>181.0</ele>
                <time>2020-08-23T12:21:57.000Z</time>
                <name>Trackpoint 6448</name>
            </trkpt>
            <trkpt lat="49.666912" lon="10.1353816">
                <ele>181.0</ele>
                <time>2020-08-23T12:21:59.000Z</time>
                <name>Trackpoint 6449</name>
            </trkpt>
            <trkpt lat="49.6668544" lon="10.13528">
                <ele>181.0</ele>
                <time>2020-08-23T12:22:01.000Z</time>
                <name>Trackpoint 6450</name>
            </trkpt>
            <trkpt lat="49.6667904" lon="10.1351696">
                <ele>181.0</ele>
                <time>2020-08-23T12:22:03.000Z</time>
                <name>Trackpoint 6451</name>
            </trkpt>
            <trkpt lat="49.666736" lon="10.135048">
                <ele>181.0</ele>
                <time>2020-08-23T12:22:05.000Z</time>
                <name>Trackpoint 6452</name>
            </trkpt>
            <trkpt lat="49.6666976" lon="10.1349232">
                <ele>181.0</ele>
                <time>2020-08-23T12:22:07.000Z</time>
                <name>Trackpoint 6453</name>
            </trkpt>
            <trkpt lat="49.6666688" lon="10.1347912">
                <ele>181.0</ele>
                <time>2020-08-23T12:22:09.000Z</time>
                <name>Trackpoint 6454</name>
            </trkpt>
            <trkpt lat="49.6666304" lon="10.1346576">
                <ele>181.0</ele>
                <time>2020-08-23T12:22:11.000Z</time>
                <name>Trackpoint 6455</name>
            </trkpt>
            <trkpt lat="49.666592" lon="10.1345264">
                <ele>181.0</ele>
                <time>2020-08-23T12:22:13.000Z</time>
                <name>Trackpoint 6456</name>
            </trkpt>
            <trkpt lat="49.6665536" lon="10.1344032">
                <ele>181.0</ele>
                <time>2020-08-23T12:22:15.000Z</time>
                <name>Trackpoint 6457</name>
            </trkpt>
            <trkpt lat="49.6665184" lon="10.1342824">
                <ele>181.0</ele>
                <time>2020-08-23T12:22:17.000Z</time>
                <name>Trackpoint 6458</name>
            </trkpt>
            <trkpt lat="49.6664864" lon="10.1341648">
                <ele>181.0</ele>
                <time>2020-08-23T12:22:19.000Z</time>
                <name>Trackpoint 6459</name>
            </trkpt>
            <trkpt lat="49.6664416" lon="10.1340504">
                <ele>181.0</ele>
                <time>2020-08-23T12:22:21.000Z</time>
                <name>Trackpoint 6460</name>
            </trkpt>
            <trkpt lat="49.6664096" lon="10.1339256">
                <ele>181.0</ele>
                <time>2020-08-23T12:22:23.000Z</time>
                <name>Trackpoint 6461</name>
            </trkpt>
            <trkpt lat="49.6663744" lon="10.1338056">
                <ele>180.0</ele>
                <time>2020-08-23T12:22:25.000Z</time>
                <name>Trackpoint 6462</name>
            </trkpt>
            <trkpt lat="49.6663424" lon="10.1336848">
                <ele>181.0</ele>
                <time>2020-08-23T12:22:27.000Z</time>
                <name>Trackpoint 6463</name>
            </trkpt>
            <trkpt lat="49.6663136" lon="10.1335688">
                <ele>181.0</ele>
                <time>2020-08-23T12:22:29.000Z</time>
                <name>Trackpoint 6464</name>
            </trkpt>
            <trkpt lat="49.6662816" lon="10.1334416">
                <ele>181.0</ele>
                <time>2020-08-23T12:22:31.000Z</time>
                <name>Trackpoint 6465</name>
            </trkpt>
            <trkpt lat="49.666256" lon="10.13332">
                <ele>181.0</ele>
                <time>2020-08-23T12:22:33.000Z</time>
                <name>Trackpoint 6466</name>
            </trkpt>
            <trkpt lat="49.6662368" lon="10.1331864">
                <ele>181.0</ele>
                <time>2020-08-23T12:22:35.000Z</time>
                <name>Trackpoint 6467</name>
            </trkpt>
            <trkpt lat="49.6662144" lon="10.1330616">
                <ele>181.0</ele>
                <time>2020-08-23T12:22:37.000Z</time>
                <name>Trackpoint 6468</name>
            </trkpt>
            <trkpt lat="49.666192" lon="10.1329272">
                <ele>181.0</ele>
                <time>2020-08-23T12:22:39.000Z</time>
                <name>Trackpoint 6469</name>
            </trkpt>
            <trkpt lat="49.666176" lon="10.1328024">
                <ele>181.0</ele>
                <time>2020-08-23T12:22:41.000Z</time>
                <name>Trackpoint 6470</name>
            </trkpt>
            <trkpt lat="49.6661504" lon="10.1326864">
                <ele>181.0</ele>
                <time>2020-08-23T12:22:43.000Z</time>
                <name>Trackpoint 6471</name>
            </trkpt>
            <trkpt lat="49.6661312" lon="10.1325632">
                <ele>181.0</ele>
                <time>2020-08-23T12:22:45.000Z</time>
                <name>Trackpoint 6472</name>
            </trkpt>
            <trkpt lat="49.6661184" lon="10.132432">
                <ele>181.0</ele>
                <time>2020-08-23T12:22:47.000Z</time>
                <name>Trackpoint 6473</name>
            </trkpt>
            <trkpt lat="49.6661184" lon="10.1322896">
                <ele>181.0</ele>
                <time>2020-08-23T12:22:49.000Z</time>
                <name>Trackpoint 6474</name>
            </trkpt>
            <trkpt lat="49.666112" lon="10.1321384">
                <ele>181.0</ele>
                <time>2020-08-23T12:22:51.000Z</time>
                <name>Trackpoint 6475</name>
            </trkpt>
            <trkpt lat="49.6661024" lon="10.1319904">
                <ele>181.0</ele>
                <time>2020-08-23T12:22:53.000Z</time>
                <name>Trackpoint 6476</name>
            </trkpt>
            <trkpt lat="49.6660992" lon="10.1318504">
                <ele>181.0</ele>
                <time>2020-08-23T12:22:55.000Z</time>
                <name>Trackpoint 6477</name>
            </trkpt>
            <trkpt lat="49.6661056" lon="10.1316944">
                <ele>181.0</ele>
                <time>2020-08-23T12:22:57.000Z</time>
                <name>Trackpoint 6478</name>
            </trkpt>
            <trkpt lat="49.6660992" lon="10.1315536">
                <ele>180.0</ele>
                <time>2020-08-23T12:22:59.000Z</time>
                <name>Trackpoint 6479</name>
            </trkpt>
            <trkpt lat="49.6660928" lon="10.1314448">
                <ele>180.0</ele>
                <time>2020-08-23T12:23:01.000Z</time>
                <name>Trackpoint 6480</name>
            </trkpt>
            <trkpt lat="49.6661024" lon="10.1313296">
                <ele>179.0</ele>
                <time>2020-08-23T12:23:03.000Z</time>
                <name>Trackpoint 6481</name>
            </trkpt>
            <trkpt lat="49.6660992" lon="10.1312376">
                <ele>179.0</ele>
                <time>2020-08-23T12:23:05.000Z</time>
                <name>Trackpoint 6482</name>
            </trkpt>
            <trkpt lat="49.6660896" lon="10.1311464">
                <ele>179.0</ele>
                <time>2020-08-23T12:23:47.000Z</time>
                <name>Trackpoint 6483</name>
            </trkpt>
            <trkpt lat="49.6660832" lon="10.1310352">
                <ele>179.0</ele>
                <time>2020-08-23T12:23:50.000Z</time>
                <name>Trackpoint 6484</name>
            </trkpt>
            <trkpt lat="49.6660832" lon="10.130932">
                <ele>179.0</ele>
                <time>2020-08-23T12:23:52.000Z</time>
                <name>Trackpoint 6485</name>
            </trkpt>
            <trkpt lat="49.6660832" lon="10.130812">
                <ele>179.0</ele>
                <time>2020-08-23T12:23:54.000Z</time>
                <name>Trackpoint 6486</name>
            </trkpt>
            <trkpt lat="49.6660896" lon="10.1306736">
                <ele>180.0</ele>
                <time>2020-08-23T12:23:56.000Z</time>
                <name>Trackpoint 6487</name>
            </trkpt>
            <trkpt lat="49.6660896" lon="10.1305312">
                <ele>180.0</ele>
                <time>2020-08-23T12:23:58.000Z</time>
                <name>Trackpoint 6488</name>
            </trkpt>
            <trkpt lat="49.6660896" lon="10.1303928">
                <ele>180.0</ele>
                <time>2020-08-23T12:24:00.000Z</time>
                <name>Trackpoint 6489</name>
            </trkpt>
            <trkpt lat="49.6660832" lon="10.1302568">
                <ele>180.0</ele>
                <time>2020-08-23T12:24:02.000Z</time>
                <name>Trackpoint 6490</name>
            </trkpt>
            <trkpt lat="49.66608" lon="10.13012">
                <ele>180.0</ele>
                <time>2020-08-23T12:24:04.000Z</time>
                <name>Trackpoint 6491</name>
            </trkpt>
            <trkpt lat="49.66608" lon="10.1299752">
                <ele>179.0</ele>
                <time>2020-08-23T12:24:06.000Z</time>
                <name>Trackpoint 6492</name>
            </trkpt>
            <trkpt lat="49.6660704" lon="10.1298368">
                <ele>180.0</ele>
                <time>2020-08-23T12:24:08.000Z</time>
                <name>Trackpoint 6493</name>
            </trkpt>
            <trkpt lat="49.6660448" lon="10.1297256">
                <ele>180.0</ele>
                <time>2020-08-23T12:24:10.000Z</time>
                <name>Trackpoint 6494</name>
            </trkpt>
            <trkpt lat="49.6660544" lon="10.1295616">
                <ele>180.0</ele>
                <time>2020-08-23T12:24:12.000Z</time>
                <name>Trackpoint 6495</name>
            </trkpt>
            <trkpt lat="49.6660384" lon="10.1294216">
                <ele>180.0</ele>
                <time>2020-08-23T12:24:14.000Z</time>
                <name>Trackpoint 6496</name>
            </trkpt>
            <trkpt lat="49.666032" lon="10.12928">
                <ele>180.0</ele>
                <time>2020-08-23T12:24:16.000Z</time>
                <name>Trackpoint 6497</name>
            </trkpt>
            <trkpt lat="49.6660192" lon="10.1291304">
                <ele>180.0</ele>
                <time>2020-08-23T12:24:18.000Z</time>
                <name>Trackpoint 6498</name>
            </trkpt>
            <trkpt lat="49.6660128" lon="10.128972">
                <ele>180.0</ele>
                <time>2020-08-23T12:24:20.000Z</time>
                <name>Trackpoint 6499</name>
            </trkpt>
            <trkpt lat="49.6660128" lon="10.1288136">
                <ele>180.0</ele>
                <time>2020-08-23T12:24:22.000Z</time>
                <name>Trackpoint 6500</name>
            </trkpt>
            <trkpt lat="49.6660128" lon="10.1286624">
                <ele>180.0</ele>
                <time>2020-08-23T12:24:24.000Z</time>
                <name>Trackpoint 6501</name>
            </trkpt>
            <trkpt lat="49.6660128" lon="10.1285016">
                <ele>181.0</ele>
                <time>2020-08-23T12:24:26.000Z</time>
                <name>Trackpoint 6502</name>
            </trkpt>
            <trkpt lat="49.6660064" lon="10.1283504">
                <ele>181.0</ele>
                <time>2020-08-23T12:24:28.000Z</time>
                <name>Trackpoint 6503</name>
            </trkpt>
            <trkpt lat="49.6660032" lon="10.1281952">
                <ele>181.0</ele>
                <time>2020-08-23T12:24:30.000Z</time>
                <name>Trackpoint 6504</name>
            </trkpt>
            <trkpt lat="49.6660064" lon="10.1280368">
                <ele>181.0</ele>
                <time>2020-08-23T12:24:32.000Z</time>
                <name>Trackpoint 6505</name>
            </trkpt>
            <trkpt lat="49.6660032" lon="10.1278824">
                <ele>181.0</ele>
                <time>2020-08-23T12:24:34.000Z</time>
                <name>Trackpoint 6506</name>
            </trkpt>
            <trkpt lat="49.666" lon="10.1277248">
                <ele>182.0</ele>
                <time>2020-08-23T12:24:36.000Z</time>
                <name>Trackpoint 6507</name>
            </trkpt>
            <trkpt lat="49.666" lon="10.127572">
                <ele>182.0</ele>
                <time>2020-08-23T12:24:38.000Z</time>
                <name>Trackpoint 6508</name>
            </trkpt>
            <trkpt lat="49.666" lon="10.127428">
                <ele>181.0</ele>
                <time>2020-08-23T12:24:40.000Z</time>
                <name>Trackpoint 6509</name>
            </trkpt>
            <trkpt lat="49.666" lon="10.1272824">
                <ele>182.0</ele>
                <time>2020-08-23T12:24:42.000Z</time>
                <name>Trackpoint 6510</name>
            </trkpt>
            <trkpt lat="49.666" lon="10.1271336">
                <ele>181.0</ele>
                <time>2020-08-23T12:24:44.000Z</time>
                <name>Trackpoint 6511</name>
            </trkpt>
            <trkpt lat="49.666" lon="10.12698">
                <ele>181.0</ele>
                <time>2020-08-23T12:24:46.000Z</time>
                <name>Trackpoint 6512</name>
            </trkpt>
            <trkpt lat="49.665984" lon="10.1268328">
                <ele>181.0</ele>
                <time>2020-08-23T12:24:48.000Z</time>
                <name>Trackpoint 6513</name>
            </trkpt>
            <trkpt lat="49.6659776" lon="10.1266784">
                <ele>182.0</ele>
                <time>2020-08-23T12:24:50.000Z</time>
                <name>Trackpoint 6514</name>
            </trkpt>
            <trkpt lat="49.6659648" lon="10.12652">
                <ele>182.0</ele>
                <time>2020-08-23T12:24:52.000Z</time>
                <name>Trackpoint 6515</name>
            </trkpt>
            <trkpt lat="49.665984" lon="10.1263352">
                <ele>182.0</ele>
                <time>2020-08-23T12:24:54.000Z</time>
                <name>Trackpoint 6516</name>
            </trkpt>
            <trkpt lat="49.6659904" lon="10.1262448">
                <ele>182.0</ele>
                <time>2020-08-23T12:24:55.000Z</time>
                <name>Trackpoint 6517</name>
            </trkpt>
            <trkpt lat="49.6659968" lon="10.1260792">
                <ele>183.0</ele>
                <time>2020-08-23T12:24:57.000Z</time>
                <name>Trackpoint 6518</name>
            </trkpt>
            <trkpt lat="49.666" lon="10.1259032">
                <ele>183.0</ele>
                <time>2020-08-23T12:24:59.000Z</time>
                <name>Trackpoint 6519</name>
            </trkpt>
            <trkpt lat="49.6659968" lon="10.1257288">
                <ele>183.0</ele>
                <time>2020-08-23T12:25:01.000Z</time>
                <name>Trackpoint 6520</name>
            </trkpt>
            <trkpt lat="49.665984" lon="10.1255568">
                <ele>183.0</ele>
                <time>2020-08-23T12:25:03.000Z</time>
                <name>Trackpoint 6521</name>
            </trkpt>
            <trkpt lat="49.6659808" lon="10.1253792">
                <ele>184.0</ele>
                <time>2020-08-23T12:25:05.000Z</time>
                <name>Trackpoint 6522</name>
            </trkpt>
            <trkpt lat="49.6659712" lon="10.1252248">
                <ele>184.0</ele>
                <time>2020-08-23T12:25:07.000Z</time>
                <name>Trackpoint 6523</name>
            </trkpt>
            <trkpt lat="49.6659648" lon="10.125056">
                <ele>184.0</ele>
                <time>2020-08-23T12:25:09.000Z</time>
                <name>Trackpoint 6524</name>
            </trkpt>
            <trkpt lat="49.6659648" lon="10.1248912">
                <ele>185.0</ele>
                <time>2020-08-23T12:25:11.000Z</time>
                <name>Trackpoint 6525</name>
            </trkpt>
            <trkpt lat="49.6659648" lon="10.1247384">
                <ele>185.0</ele>
                <time>2020-08-23T12:25:13.000Z</time>
                <name>Trackpoint 6526</name>
            </trkpt>
            <trkpt lat="49.6659712" lon="10.1245968">
                <ele>185.0</ele>
                <time>2020-08-23T12:25:15.000Z</time>
                <name>Trackpoint 6527</name>
            </trkpt>
            <trkpt lat="49.6659584" lon="10.1245">
                <ele>185.0</ele>
                <time>2020-08-23T12:25:17.000Z</time>
                <name>Trackpoint 6528</name>
            </trkpt>
            <trkpt lat="49.6659584" lon="10.1243912">
                <ele>185.0</ele>
                <time>2020-08-23T12:25:19.000Z</time>
                <name>Trackpoint 6529</name>
            </trkpt>
            <trkpt lat="49.6659552" lon="10.1242816">
                <ele>185.0</ele>
                <time>2020-08-23T12:25:21.000Z</time>
                <name>Trackpoint 6530</name>
            </trkpt>
            <trkpt lat="49.6659584" lon="10.1241712">
                <ele>185.0</ele>
                <time>2020-08-23T12:25:23.000Z</time>
                <name>Trackpoint 6531</name>
            </trkpt>
            <trkpt lat="49.6659584" lon="10.1240664">
                <ele>185.0</ele>
                <time>2020-08-23T12:25:25.000Z</time>
                <name>Trackpoint 6532</name>
            </trkpt>
            <trkpt lat="49.6659776" lon="10.1239592">
                <ele>184.0</ele>
                <time>2020-08-23T12:25:27.000Z</time>
                <name>Trackpoint 6533</name>
            </trkpt>
            <trkpt lat="49.6659808" lon="10.1238568">
                <ele>183.0</ele>
                <time>2020-08-23T12:25:30.000Z</time>
                <name>Trackpoint 6534</name>
            </trkpt>
            <trkpt lat="49.6659776" lon="10.1237648">
                <ele>183.0</ele>
                <time>2020-08-23T12:26:57.000Z</time>
                <name>Trackpoint 6535</name>
            </trkpt>
            <trkpt lat="49.6659616" lon="10.12366">
                <ele>184.0</ele>
                <time>2020-08-23T12:27:00.000Z</time>
                <name>Trackpoint 6536</name>
            </trkpt>
            <trkpt lat="49.6659584" lon="10.1235216">
                <ele>184.0</ele>
                <time>2020-08-23T12:27:03.000Z</time>
                <name>Trackpoint 6537</name>
            </trkpt>
            <trkpt lat="49.6659776" lon="10.1234104">
                <ele>184.0</ele>
                <time>2020-08-23T12:27:05.000Z</time>
                <name>Trackpoint 6538</name>
            </trkpt>
            <trkpt lat="49.6659936" lon="10.1232752">
                <ele>183.0</ele>
                <time>2020-08-23T12:27:07.000Z</time>
                <name>Trackpoint 6539</name>
            </trkpt>
            <trkpt lat="49.6660256" lon="10.123132">
                <ele>182.0</ele>
                <time>2020-08-23T12:27:09.000Z</time>
                <name>Trackpoint 6540</name>
            </trkpt>
            <trkpt lat="49.6660576" lon="10.122956">
                <ele>182.0</ele>
                <time>2020-08-23T12:27:11.000Z</time>
                <name>Trackpoint 6541</name>
            </trkpt>
            <trkpt lat="49.6660608" lon="10.1228016">
                <ele>182.0</ele>
                <time>2020-08-23T12:27:13.000Z</time>
                <name>Trackpoint 6542</name>
            </trkpt>
            <trkpt lat="49.6660576" lon="10.1226384">
                <ele>182.0</ele>
                <time>2020-08-23T12:27:15.000Z</time>
                <name>Trackpoint 6543</name>
            </trkpt>
            <trkpt lat="49.6660704" lon="10.122548">
                <ele>182.0</ele>
                <time>2020-08-23T12:27:16.000Z</time>
                <name>Trackpoint 6544</name>
            </trkpt>
            <trkpt lat="49.66608" lon="10.1224568">
                <ele>182.0</ele>
                <time>2020-08-23T12:27:17.000Z</time>
                <name>Trackpoint 6545</name>
            </trkpt>
            <trkpt lat="49.666096" lon="10.1222896">
                <ele>181.0</ele>
                <time>2020-08-23T12:27:19.000Z</time>
                <name>Trackpoint 6546</name>
            </trkpt>
            <trkpt lat="49.6661024" lon="10.122144">
                <ele>182.0</ele>
                <time>2020-08-23T12:27:21.000Z</time>
                <name>Trackpoint 6547</name>
            </trkpt>
            <trkpt lat="49.6661248" lon="10.1220056">
                <ele>183.0</ele>
                <time>2020-08-23T12:27:23.000Z</time>
                <name>Trackpoint 6548</name>
            </trkpt>
            <trkpt lat="49.6661504" lon="10.1218728">
                <ele>186.0</ele>
                <time>2020-08-23T12:27:25.000Z</time>
                <name>Trackpoint 6549</name>
            </trkpt>
            <trkpt lat="49.6661792" lon="10.1217472">
                <ele>187.0</ele>
                <time>2020-08-23T12:27:27.000Z</time>
                <name>Trackpoint 6550</name>
            </trkpt>
            <trkpt lat="49.6662112" lon="10.1216336">
                <ele>188.0</ele>
                <time>2020-08-23T12:27:29.000Z</time>
                <name>Trackpoint 6551</name>
            </trkpt>
            <trkpt lat="49.666224" lon="10.12152">
                <ele>185.0</ele>
                <time>2020-08-23T12:27:31.000Z</time>
                <name>Trackpoint 6552</name>
            </trkpt>
            <trkpt lat="49.6662496" lon="10.1214168">
                <ele>184.0</ele>
                <time>2020-08-23T12:27:33.000Z</time>
                <name>Trackpoint 6553</name>
            </trkpt>
            <trkpt lat="49.666256" lon="10.1213264">
                <ele>183.0</ele>
                <time>2020-08-23T12:27:36.000Z</time>
                <name>Trackpoint 6554</name>
            </trkpt>
            <trkpt lat="49.6662304" lon="10.1212368">
                <ele>183.0</ele>
                <time>2020-08-23T12:27:44.000Z</time>
                <name>Trackpoint 6555</name>
            </trkpt>
            <trkpt lat="49.6661344" lon="10.1212416">
                <ele>181.0</ele>
                <time>2020-08-23T12:28:08.000Z</time>
                <name>Trackpoint 6556</name>
            </trkpt>
            <trkpt lat="49.6660352" lon="10.1212432">
                <ele>181.0</ele>
                <time>2020-08-23T12:28:13.000Z</time>
                <name>Trackpoint 6557</name>
            </trkpt>
            <trkpt lat="49.6659424" lon="10.1212304">
                <ele>182.0</ele>
                <time>2020-08-23T12:28:16.000Z</time>
                <name>Trackpoint 6558</name>
            </trkpt>
            <trkpt lat="49.6658464" lon="10.121168">
                <ele>182.0</ele>
                <time>2020-08-23T12:28:19.000Z</time>
                <name>Trackpoint 6559</name>
            </trkpt>
            <trkpt lat="49.6657824" lon="10.12104">
                <ele>183.0</ele>
                <time>2020-08-23T12:28:22.000Z</time>
                <name>Trackpoint 6560</name>
            </trkpt>
            <trkpt lat="49.6657664" lon="10.1209432">
                <ele>184.0</ele>
                <time>2020-08-23T12:28:24.000Z</time>
                <name>Trackpoint 6561</name>
            </trkpt>
            <trkpt lat="49.6657472" lon="10.120836">
                <ele>184.0</ele>
                <time>2020-08-23T12:28:26.000Z</time>
                <name>Trackpoint 6562</name>
            </trkpt>
            <trkpt lat="49.6657408" lon="10.1207112">
                <ele>184.0</ele>
                <time>2020-08-23T12:28:28.000Z</time>
                <name>Trackpoint 6563</name>
            </trkpt>
            <trkpt lat="49.6657376" lon="10.1205784">
                <ele>184.0</ele>
                <time>2020-08-23T12:28:30.000Z</time>
                <name>Trackpoint 6564</name>
            </trkpt>
            <trkpt lat="49.6657344" lon="10.1204584">
                <ele>184.0</ele>
                <time>2020-08-23T12:28:32.000Z</time>
                <name>Trackpoint 6565</name>
            </trkpt>
            <trkpt lat="49.6657216" lon="10.1203336">
                <ele>184.0</ele>
                <time>2020-08-23T12:28:34.000Z</time>
                <name>Trackpoint 6566</name>
            </trkpt>
            <trkpt lat="49.6657184" lon="10.1202024">
                <ele>184.0</ele>
                <time>2020-08-23T12:28:36.000Z</time>
                <name>Trackpoint 6567</name>
            </trkpt>
            <trkpt lat="49.6657152" lon="10.1200704">
                <ele>184.0</ele>
                <time>2020-08-23T12:28:38.000Z</time>
                <name>Trackpoint 6568</name>
            </trkpt>
            <trkpt lat="49.665712" lon="10.11994">
                <ele>184.0</ele>
                <time>2020-08-23T12:28:40.000Z</time>
                <name>Trackpoint 6569</name>
            </trkpt>
            <trkpt lat="49.6657024" lon="10.1198104">
                <ele>183.0</ele>
                <time>2020-08-23T12:28:42.000Z</time>
                <name>Trackpoint 6570</name>
            </trkpt>
            <trkpt lat="49.6656992" lon="10.1196648">
                <ele>183.0</ele>
                <time>2020-08-23T12:28:44.000Z</time>
                <name>Trackpoint 6571</name>
            </trkpt>
            <trkpt lat="49.6657024" lon="10.1195024">
                <ele>183.0</ele>
                <time>2020-08-23T12:28:46.000Z</time>
                <name>Trackpoint 6572</name>
            </trkpt>
            <trkpt lat="49.6657024" lon="10.1193336">
                <ele>183.0</ele>
                <time>2020-08-23T12:28:48.000Z</time>
                <name>Trackpoint 6573</name>
            </trkpt>
            <trkpt lat="49.6657024" lon="10.119172">
                <ele>183.0</ele>
                <time>2020-08-23T12:28:50.000Z</time>
                <name>Trackpoint 6574</name>
            </trkpt>
            <trkpt lat="49.665696" lon="10.1190272">
                <ele>182.0</ele>
                <time>2020-08-23T12:28:52.000Z</time>
                <name>Trackpoint 6575</name>
            </trkpt>
            <trkpt lat="49.6656864" lon="10.1188768">
                <ele>182.0</ele>
                <time>2020-08-23T12:28:54.000Z</time>
                <name>Trackpoint 6576</name>
            </trkpt>
            <trkpt lat="49.66568" lon="10.1187384">
                <ele>182.0</ele>
                <time>2020-08-23T12:28:56.000Z</time>
                <name>Trackpoint 6577</name>
            </trkpt>
            <trkpt lat="49.6656544" lon="10.1186168">
                <ele>183.0</ele>
                <time>2020-08-23T12:28:58.000Z</time>
                <name>Trackpoint 6578</name>
            </trkpt>
            <trkpt lat="49.6656448" lon="10.1184904">
                <ele>183.0</ele>
                <time>2020-08-23T12:29:00.000Z</time>
                <name>Trackpoint 6579</name>
            </trkpt>
            <trkpt lat="49.6656608" lon="10.1183568">
                <ele>184.0</ele>
                <time>2020-08-23T12:29:02.000Z</time>
                <name>Trackpoint 6580</name>
            </trkpt>
            <trkpt lat="49.6656448" lon="10.1182496">
                <ele>184.0</ele>
                <time>2020-08-23T12:29:04.000Z</time>
                <name>Trackpoint 6581</name>
            </trkpt>
            <trkpt lat="49.6656256" lon="10.1181496">
                <ele>184.0</ele>
                <time>2020-08-23T12:29:06.000Z</time>
                <name>Trackpoint 6582</name>
            </trkpt>
            <trkpt lat="49.6656256" lon="10.1180352">
                <ele>185.0</ele>
                <time>2020-08-23T12:29:08.000Z</time>
                <name>Trackpoint 6583</name>
            </trkpt>
            <trkpt lat="49.665616" lon="10.117924">
                <ele>185.0</ele>
                <time>2020-08-23T12:29:10.000Z</time>
                <name>Trackpoint 6584</name>
            </trkpt>
            <trkpt lat="49.6656" lon="10.1178248">
                <ele>185.0</ele>
                <time>2020-08-23T12:29:12.000Z</time>
                <name>Trackpoint 6585</name>
            </trkpt>
            <trkpt lat="49.6656064" lon="10.1177128">
                <ele>186.0</ele>
                <time>2020-08-23T12:29:14.000Z</time>
                <name>Trackpoint 6586</name>
            </trkpt>
            <trkpt lat="49.665616" lon="10.1176056">
                <ele>185.0</ele>
                <time>2020-08-23T12:29:16.000Z</time>
                <name>Trackpoint 6587</name>
            </trkpt>
            <trkpt lat="49.6656224" lon="10.117488">
                <ele>186.0</ele>
                <time>2020-08-23T12:29:18.000Z</time>
                <name>Trackpoint 6588</name>
            </trkpt>
            <trkpt lat="49.6656256" lon="10.1173648">
                <ele>187.0</ele>
                <time>2020-08-23T12:29:20.000Z</time>
                <name>Trackpoint 6589</name>
            </trkpt>
            <trkpt lat="49.6656224" lon="10.117244">
                <ele>187.0</ele>
                <time>2020-08-23T12:29:22.000Z</time>
                <name>Trackpoint 6590</name>
            </trkpt>
            <trkpt lat="49.665616" lon="10.1171216">
                <ele>187.0</ele>
                <time>2020-08-23T12:29:24.000Z</time>
                <name>Trackpoint 6591</name>
            </trkpt>
            <trkpt lat="49.665616" lon="10.1169856">
                <ele>188.0</ele>
                <time>2020-08-23T12:29:26.000Z</time>
                <name>Trackpoint 6592</name>
            </trkpt>
            <trkpt lat="49.6656256" lon="10.1168432">
                <ele>188.0</ele>
                <time>2020-08-23T12:29:28.000Z</time>
                <name>Trackpoint 6593</name>
            </trkpt>
            <trkpt lat="49.6656384" lon="10.1166936">
                <ele>188.0</ele>
                <time>2020-08-23T12:29:30.000Z</time>
                <name>Trackpoint 6594</name>
            </trkpt>
            <trkpt lat="49.6656384" lon="10.11654">
                <ele>188.0</ele>
                <time>2020-08-23T12:29:32.000Z</time>
                <name>Trackpoint 6595</name>
            </trkpt>
            <trkpt lat="49.6656352" lon="10.1163784">
                <ele>188.0</ele>
                <time>2020-08-23T12:29:34.000Z</time>
                <name>Trackpoint 6596</name>
            </trkpt>
            <trkpt lat="49.6656192" lon="10.1162136">
                <ele>189.0</ele>
                <time>2020-08-23T12:29:36.000Z</time>
                <name>Trackpoint 6597</name>
            </trkpt>
            <trkpt lat="49.6656064" lon="10.1160384">
                <ele>189.0</ele>
                <time>2020-08-23T12:29:38.000Z</time>
                <name>Trackpoint 6598</name>
            </trkpt>
            <trkpt lat="49.6656064" lon="10.1158664">
                <ele>188.0</ele>
                <time>2020-08-23T12:29:40.000Z</time>
                <name>Trackpoint 6599</name>
            </trkpt>
            <trkpt lat="49.6656064" lon="10.1157752">
                <ele>188.0</ele>
                <time>2020-08-23T12:29:41.000Z</time>
                <name>Trackpoint 6600</name>
            </trkpt>
            <trkpt lat="49.6656" lon="10.1156104">
                <ele>187.0</ele>
                <time>2020-08-23T12:29:43.000Z</time>
                <name>Trackpoint 6601</name>
            </trkpt>
            <trkpt lat="49.6655872" lon="10.1154536">
                <ele>187.0</ele>
                <time>2020-08-23T12:29:45.000Z</time>
                <name>Trackpoint 6602</name>
            </trkpt>
            <trkpt lat="49.665584" lon="10.1152888">
                <ele>187.0</ele>
                <time>2020-08-23T12:29:47.000Z</time>
                <name>Trackpoint 6603</name>
            </trkpt>
            <trkpt lat="49.6656032" lon="10.1151448">
                <ele>187.0</ele>
                <time>2020-08-23T12:29:49.000Z</time>
                <name>Trackpoint 6604</name>
            </trkpt>
            <trkpt lat="49.6656416" lon="10.1150376">
                <ele>187.0</ele>
                <time>2020-08-23T12:29:51.000Z</time>
                <name>Trackpoint 6605</name>
            </trkpt>
            <trkpt lat="49.6656928" lon="10.1149552">
                <ele>187.0</ele>
                <time>2020-08-23T12:29:53.000Z</time>
                <name>Trackpoint 6606</name>
            </trkpt>
            <trkpt lat="49.6656992" lon="10.1148632">
                <ele>189.0</ele>
                <time>2020-08-23T12:29:55.000Z</time>
                <name>Trackpoint 6607</name>
            </trkpt>
            <trkpt lat="49.6657376" lon="10.114712">
                <ele>188.0</ele>
                <time>2020-08-23T12:29:57.000Z</time>
                <name>Trackpoint 6608</name>
            </trkpt>
            <trkpt lat="49.6657216" lon="10.1146032">
                <ele>188.0</ele>
                <time>2020-08-23T12:29:59.000Z</time>
                <name>Trackpoint 6609</name>
            </trkpt>
            <trkpt lat="49.6656928" lon="10.1145136">
                <ele>188.0</ele>
                <time>2020-08-23T12:30:01.000Z</time>
                <name>Trackpoint 6610</name>
            </trkpt>
            <trkpt lat="49.6656544" lon="10.1144312">
                <ele>187.0</ele>
                <time>2020-08-23T12:30:03.000Z</time>
                <name>Trackpoint 6611</name>
            </trkpt>
            <trkpt lat="49.665616" lon="10.1143352">
                <ele>187.0</ele>
                <time>2020-08-23T12:30:05.000Z</time>
                <name>Trackpoint 6612</name>
            </trkpt>
            <trkpt lat="49.665584" lon="10.114208">
                <ele>186.0</ele>
                <time>2020-08-23T12:30:07.000Z</time>
                <name>Trackpoint 6613</name>
            </trkpt>
            <trkpt lat="49.6655776" lon="10.1140616">
                <ele>186.0</ele>
                <time>2020-08-23T12:30:09.000Z</time>
                <name>Trackpoint 6614</name>
            </trkpt>
            <trkpt lat="49.6655808" lon="10.1138952">
                <ele>186.0</ele>
                <time>2020-08-23T12:30:11.000Z</time>
                <name>Trackpoint 6615</name>
            </trkpt>
            <trkpt lat="49.6656" lon="10.1137168">
                <ele>186.0</ele>
                <time>2020-08-23T12:30:13.000Z</time>
                <name>Trackpoint 6616</name>
            </trkpt>
            <trkpt lat="49.665616" lon="10.113624">
                <ele>186.0</ele>
                <time>2020-08-23T12:30:14.000Z</time>
                <name>Trackpoint 6617</name>
            </trkpt>
            <trkpt lat="49.6656224" lon="10.1135256">
                <ele>186.0</ele>
                <time>2020-08-23T12:30:15.000Z</time>
                <name>Trackpoint 6618</name>
            </trkpt>
            <trkpt lat="49.6656256" lon="10.1134344">
                <ele>186.0</ele>
                <time>2020-08-23T12:30:16.000Z</time>
                <name>Trackpoint 6619</name>
            </trkpt>
            <trkpt lat="49.6656192" lon="10.1132632">
                <ele>186.0</ele>
                <time>2020-08-23T12:30:18.000Z</time>
                <name>Trackpoint 6620</name>
            </trkpt>
            <trkpt lat="49.6656352" lon="10.1131672">
                <ele>186.0</ele>
                <time>2020-08-23T12:30:19.000Z</time>
                <name>Trackpoint 6621</name>
            </trkpt>
            <trkpt lat="49.6656416" lon="10.1129936">
                <ele>186.0</ele>
                <time>2020-08-23T12:30:21.000Z</time>
                <name>Trackpoint 6622</name>
            </trkpt>
            <trkpt lat="49.6656448" lon="10.1128152">
                <ele>185.0</ele>
                <time>2020-08-23T12:30:23.000Z</time>
                <name>Trackpoint 6623</name>
            </trkpt>
            <trkpt lat="49.6656544" lon="10.1127216">
                <ele>186.0</ele>
                <time>2020-08-23T12:30:24.000Z</time>
                <name>Trackpoint 6624</name>
            </trkpt>
            <trkpt lat="49.6656544" lon="10.1125472">
                <ele>186.0</ele>
                <time>2020-08-23T12:30:26.000Z</time>
                <name>Trackpoint 6625</name>
            </trkpt>
            <trkpt lat="49.6656448" lon="10.1123832">
                <ele>186.0</ele>
                <time>2020-08-23T12:30:28.000Z</time>
                <name>Trackpoint 6626</name>
            </trkpt>
            <trkpt lat="49.6656576" lon="10.1122152">
                <ele>185.0</ele>
                <time>2020-08-23T12:30:30.000Z</time>
                <name>Trackpoint 6627</name>
            </trkpt>
            <trkpt lat="49.6656672" lon="10.112052">
                <ele>185.0</ele>
                <time>2020-08-23T12:30:32.000Z</time>
                <name>Trackpoint 6628</name>
            </trkpt>
            <trkpt lat="49.6656832" lon="10.11188">
                <ele>186.0</ele>
                <time>2020-08-23T12:30:34.000Z</time>
                <name>Trackpoint 6629</name>
            </trkpt>
            <trkpt lat="49.6657056" lon="10.1117824">
                <ele>186.0</ele>
                <time>2020-08-23T12:30:35.000Z</time>
                <name>Trackpoint 6630</name>
            </trkpt>
            <trkpt lat="49.6657216" lon="10.1116216">
                <ele>186.0</ele>
                <time>2020-08-23T12:30:37.000Z</time>
                <name>Trackpoint 6631</name>
            </trkpt>
            <trkpt lat="49.6657248" lon="10.1114728">
                <ele>185.0</ele>
                <time>2020-08-23T12:30:39.000Z</time>
                <name>Trackpoint 6632</name>
            </trkpt>
            <trkpt lat="49.6657408" lon="10.1113256">
                <ele>185.0</ele>
                <time>2020-08-23T12:30:41.000Z</time>
                <name>Trackpoint 6633</name>
            </trkpt>
            <trkpt lat="49.6657472" lon="10.1111872">
                <ele>185.0</ele>
                <time>2020-08-23T12:30:43.000Z</time>
                <name>Trackpoint 6634</name>
            </trkpt>
            <trkpt lat="49.6657632" lon="10.1110432">
                <ele>184.0</ele>
                <time>2020-08-23T12:30:45.000Z</time>
                <name>Trackpoint 6635</name>
            </trkpt>
            <trkpt lat="49.665776" lon="10.1109016">
                <ele>184.0</ele>
                <time>2020-08-23T12:30:47.000Z</time>
                <name>Trackpoint 6636</name>
            </trkpt>
            <trkpt lat="49.665792" lon="10.110768">
                <ele>184.0</ele>
                <time>2020-08-23T12:30:49.000Z</time>
                <name>Trackpoint 6637</name>
            </trkpt>
            <trkpt lat="49.6658016" lon="10.1106392">
                <ele>184.0</ele>
                <time>2020-08-23T12:30:51.000Z</time>
                <name>Trackpoint 6638</name>
            </trkpt>
            <trkpt lat="49.6658144" lon="10.1105096">
                <ele>184.0</ele>
                <time>2020-08-23T12:30:53.000Z</time>
                <name>Trackpoint 6639</name>
            </trkpt>
            <trkpt lat="49.6658176" lon="10.1103832">
                <ele>185.0</ele>
                <time>2020-08-23T12:30:55.000Z</time>
                <name>Trackpoint 6640</name>
            </trkpt>
            <trkpt lat="49.6658176" lon="10.1102552">
                <ele>185.0</ele>
                <time>2020-08-23T12:30:57.000Z</time>
                <name>Trackpoint 6641</name>
            </trkpt>
            <trkpt lat="49.665824" lon="10.1101248">
                <ele>185.0</ele>
                <time>2020-08-23T12:30:59.000Z</time>
                <name>Trackpoint 6642</name>
            </trkpt>
            <trkpt lat="49.6658368" lon="10.1099928">
                <ele>186.0</ele>
                <time>2020-08-23T12:31:01.000Z</time>
                <name>Trackpoint 6643</name>
            </trkpt>
            <trkpt lat="49.6658432" lon="10.1098648">
                <ele>186.0</ele>
                <time>2020-08-23T12:31:03.000Z</time>
                <name>Trackpoint 6644</name>
            </trkpt>
            <trkpt lat="49.6658528" lon="10.1097416">
                <ele>186.0</ele>
                <time>2020-08-23T12:31:05.000Z</time>
                <name>Trackpoint 6645</name>
            </trkpt>
            <trkpt lat="49.6658624" lon="10.1096264">
                <ele>186.0</ele>
                <time>2020-08-23T12:31:07.000Z</time>
                <name>Trackpoint 6646</name>
            </trkpt>
            <trkpt lat="49.6658784" lon="10.1095264">
                <ele>186.0</ele>
                <time>2020-08-23T12:31:09.000Z</time>
                <name>Trackpoint 6647</name>
            </trkpt>
            <trkpt lat="49.6659168" lon="10.1094376">
                <ele>186.0</ele>
                <time>2020-08-23T12:31:11.000Z</time>
                <name>Trackpoint 6648</name>
            </trkpt>
            <trkpt lat="49.6659264" lon="10.1093432">
                <ele>186.0</ele>
                <time>2020-08-23T12:31:13.000Z</time>
                <name>Trackpoint 6649</name>
            </trkpt>
            <trkpt lat="49.665936" lon="10.1092416">
                <ele>186.0</ele>
                <time>2020-08-23T12:31:15.000Z</time>
                <name>Trackpoint 6650</name>
            </trkpt>
            <trkpt lat="49.6659456" lon="10.1091232">
                <ele>186.0</ele>
                <time>2020-08-23T12:31:17.000Z</time>
                <name>Trackpoint 6651</name>
            </trkpt>
            <trkpt lat="49.6659744" lon="10.109">
                <ele>187.0</ele>
                <time>2020-08-23T12:31:19.000Z</time>
                <name>Trackpoint 6652</name>
            </trkpt>
            <trkpt lat="49.6659936" lon="10.1088648">
                <ele>187.0</ele>
                <time>2020-08-23T12:31:21.000Z</time>
                <name>Trackpoint 6653</name>
            </trkpt>
            <trkpt lat="49.6660128" lon="10.1087288">
                <ele>187.0</ele>
                <time>2020-08-23T12:31:23.000Z</time>
                <name>Trackpoint 6654</name>
            </trkpt>
            <trkpt lat="49.6660256" lon="10.1085864">
                <ele>187.0</ele>
                <time>2020-08-23T12:31:25.000Z</time>
                <name>Trackpoint 6655</name>
            </trkpt>
            <trkpt lat="49.6660384" lon="10.108448">
                <ele>187.0</ele>
                <time>2020-08-23T12:31:27.000Z</time>
                <name>Trackpoint 6656</name>
            </trkpt>
            <trkpt lat="49.6660608" lon="10.1083024">
                <ele>187.0</ele>
                <time>2020-08-23T12:31:29.000Z</time>
                <name>Trackpoint 6657</name>
            </trkpt>
            <trkpt lat="49.6660832" lon="10.1081552">
                <ele>187.0</ele>
                <time>2020-08-23T12:31:31.000Z</time>
                <name>Trackpoint 6658</name>
            </trkpt>
            <trkpt lat="49.6661024" lon="10.1080104">
                <ele>186.0</ele>
                <time>2020-08-23T12:31:33.000Z</time>
                <name>Trackpoint 6659</name>
            </trkpt>
            <trkpt lat="49.6661216" lon="10.107868">
                <ele>187.0</ele>
                <time>2020-08-23T12:31:35.000Z</time>
                <name>Trackpoint 6660</name>
            </trkpt>
            <trkpt lat="49.6661376" lon="10.107728">
                <ele>187.0</ele>
                <time>2020-08-23T12:31:37.000Z</time>
                <name>Trackpoint 6661</name>
            </trkpt>
            <trkpt lat="49.66616" lon="10.107576">
                <ele>186.0</ele>
                <time>2020-08-23T12:31:39.000Z</time>
                <name>Trackpoint 6662</name>
            </trkpt>
            <trkpt lat="49.6661792" lon="10.1074248">
                <ele>187.0</ele>
                <time>2020-08-23T12:31:41.000Z</time>
                <name>Trackpoint 6663</name>
            </trkpt>
            <trkpt lat="49.6662016" lon="10.1072728">
                <ele>187.0</ele>
                <time>2020-08-23T12:31:43.000Z</time>
                <name>Trackpoint 6664</name>
            </trkpt>
            <trkpt lat="49.6662208" lon="10.1071232">
                <ele>186.0</ele>
                <time>2020-08-23T12:31:45.000Z</time>
                <name>Trackpoint 6665</name>
            </trkpt>
            <trkpt lat="49.6662432" lon="10.1069816">
                <ele>186.0</ele>
                <time>2020-08-23T12:31:47.000Z</time>
                <name>Trackpoint 6666</name>
            </trkpt>
            <trkpt lat="49.6662624" lon="10.1068336">
                <ele>185.0</ele>
                <time>2020-08-23T12:31:49.000Z</time>
                <name>Trackpoint 6667</name>
            </trkpt>
            <trkpt lat="49.6662816" lon="10.1066864">
                <ele>185.0</ele>
                <time>2020-08-23T12:31:51.000Z</time>
                <name>Trackpoint 6668</name>
            </trkpt>
            <trkpt lat="49.6663008" lon="10.1065352">
                <ele>185.0</ele>
                <time>2020-08-23T12:31:53.000Z</time>
                <name>Trackpoint 6669</name>
            </trkpt>
            <trkpt lat="49.66632" lon="10.1063872">
                <ele>185.0</ele>
                <time>2020-08-23T12:31:55.000Z</time>
                <name>Trackpoint 6670</name>
            </trkpt>
            <trkpt lat="49.6663392" lon="10.1062384">
                <ele>184.0</ele>
                <time>2020-08-23T12:31:57.000Z</time>
                <name>Trackpoint 6671</name>
            </trkpt>
            <trkpt lat="49.6663616" lon="10.1060888">
                <ele>184.0</ele>
                <time>2020-08-23T12:31:59.000Z</time>
                <name>Trackpoint 6672</name>
            </trkpt>
            <trkpt lat="49.6663808" lon="10.10594">
                <ele>185.0</ele>
                <time>2020-08-23T12:32:01.000Z</time>
                <name>Trackpoint 6673</name>
            </trkpt>
            <trkpt lat="49.6664" lon="10.1057832">
                <ele>185.0</ele>
                <time>2020-08-23T12:32:03.000Z</time>
                <name>Trackpoint 6674</name>
            </trkpt>
            <trkpt lat="49.6664192" lon="10.1056248">
                <ele>185.0</ele>
                <time>2020-08-23T12:32:05.000Z</time>
                <name>Trackpoint 6675</name>
            </trkpt>
            <trkpt lat="49.6664416" lon="10.1054624">
                <ele>185.0</ele>
                <time>2020-08-23T12:32:07.000Z</time>
                <name>Trackpoint 6676</name>
            </trkpt>
            <trkpt lat="49.6664672" lon="10.1052936">
                <ele>185.0</ele>
                <time>2020-08-23T12:32:09.000Z</time>
                <name>Trackpoint 6677</name>
            </trkpt>
            <trkpt lat="49.6664896" lon="10.105128">
                <ele>185.0</ele>
                <time>2020-08-23T12:32:11.000Z</time>
                <name>Trackpoint 6678</name>
            </trkpt>
            <trkpt lat="49.666512" lon="10.1049632">
                <ele>185.0</ele>
                <time>2020-08-23T12:32:13.000Z</time>
                <name>Trackpoint 6679</name>
            </trkpt>
            <trkpt lat="49.6665312" lon="10.1048048">
                <ele>184.0</ele>
                <time>2020-08-23T12:32:15.000Z</time>
                <name>Trackpoint 6680</name>
            </trkpt>
            <trkpt lat="49.6665536" lon="10.1046512">
                <ele>184.0</ele>
                <time>2020-08-23T12:32:17.000Z</time>
                <name>Trackpoint 6681</name>
            </trkpt>
            <trkpt lat="49.6665728" lon="10.1044912">
                <ele>184.0</ele>
                <time>2020-08-23T12:32:19.000Z</time>
                <name>Trackpoint 6682</name>
            </trkpt>
            <trkpt lat="49.6665952" lon="10.104328">
                <ele>184.0</ele>
                <time>2020-08-23T12:32:21.000Z</time>
                <name>Trackpoint 6683</name>
            </trkpt>
            <trkpt lat="49.6666144" lon="10.1041568">
                <ele>184.0</ele>
                <time>2020-08-23T12:32:23.000Z</time>
                <name>Trackpoint 6684</name>
            </trkpt>
            <trkpt lat="49.6666368" lon="10.1039848">
                <ele>184.0</ele>
                <time>2020-08-23T12:32:25.000Z</time>
                <name>Trackpoint 6685</name>
            </trkpt>
            <trkpt lat="49.6666592" lon="10.1038128">
                <ele>184.0</ele>
                <time>2020-08-23T12:32:27.000Z</time>
                <name>Trackpoint 6686</name>
            </trkpt>
            <trkpt lat="49.6666784" lon="10.103648">
                <ele>183.0</ele>
                <time>2020-08-23T12:32:29.000Z</time>
                <name>Trackpoint 6687</name>
            </trkpt>
            <trkpt lat="49.6667008" lon="10.1034696">
                <ele>184.0</ele>
                <time>2020-08-23T12:32:31.000Z</time>
                <name>Trackpoint 6688</name>
            </trkpt>
            <trkpt lat="49.6667136" lon="10.1032936">
                <ele>183.0</ele>
                <time>2020-08-23T12:32:33.000Z</time>
                <name>Trackpoint 6689</name>
            </trkpt>
            <trkpt lat="49.6667168" lon="10.1031176">
                <ele>183.0</ele>
                <time>2020-08-23T12:32:35.000Z</time>
                <name>Trackpoint 6690</name>
            </trkpt>
            <trkpt lat="49.6667456" lon="10.102952">
                <ele>182.0</ele>
                <time>2020-08-23T12:32:37.000Z</time>
                <name>Trackpoint 6691</name>
            </trkpt>
            <trkpt lat="49.6667776" lon="10.102792">
                <ele>183.0</ele>
                <time>2020-08-23T12:32:39.000Z</time>
                <name>Trackpoint 6692</name>
            </trkpt>
            <trkpt lat="49.6668096" lon="10.1026352">
                <ele>183.0</ele>
                <time>2020-08-23T12:32:41.000Z</time>
                <name>Trackpoint 6693</name>
            </trkpt>
            <trkpt lat="49.6668352" lon="10.1024864">
                <ele>183.0</ele>
                <time>2020-08-23T12:32:43.000Z</time>
                <name>Trackpoint 6694</name>
            </trkpt>
            <trkpt lat="49.666864" lon="10.1023384">
                <ele>182.0</ele>
                <time>2020-08-23T12:32:45.000Z</time>
                <name>Trackpoint 6695</name>
            </trkpt>
            <trkpt lat="49.6668896" lon="10.1021992">
                <ele>182.0</ele>
                <time>2020-08-23T12:32:47.000Z</time>
                <name>Trackpoint 6696</name>
            </trkpt>
            <trkpt lat="49.666912" lon="10.1020584">
                <ele>182.0</ele>
                <time>2020-08-23T12:32:49.000Z</time>
                <name>Trackpoint 6697</name>
            </trkpt>
            <trkpt lat="49.6669376" lon="10.1019112">
                <ele>182.0</ele>
                <time>2020-08-23T12:32:51.000Z</time>
                <name>Trackpoint 6698</name>
            </trkpt>
            <trkpt lat="49.6669664" lon="10.1017664">
                <ele>182.0</ele>
                <time>2020-08-23T12:32:53.000Z</time>
                <name>Trackpoint 6699</name>
            </trkpt>
            <trkpt lat="49.6669888" lon="10.1016232">
                <ele>182.0</ele>
                <time>2020-08-23T12:32:55.000Z</time>
                <name>Trackpoint 6700</name>
            </trkpt>
            <trkpt lat="49.667008" lon="10.1014864">
                <ele>182.0</ele>
                <time>2020-08-23T12:32:57.000Z</time>
                <name>Trackpoint 6701</name>
            </trkpt>
            <trkpt lat="49.6670272" lon="10.1013536">
                <ele>182.0</ele>
                <time>2020-08-23T12:32:59.000Z</time>
                <name>Trackpoint 6702</name>
            </trkpt>
            <trkpt lat="49.6670464" lon="10.1012232">
                <ele>182.0</ele>
                <time>2020-08-23T12:33:01.000Z</time>
                <name>Trackpoint 6703</name>
            </trkpt>
            <trkpt lat="49.6670656" lon="10.1010912">
                <ele>182.0</ele>
                <time>2020-08-23T12:33:03.000Z</time>
                <name>Trackpoint 6704</name>
            </trkpt>
            <trkpt lat="49.6670784" lon="10.1009568">
                <ele>182.0</ele>
                <time>2020-08-23T12:33:05.000Z</time>
                <name>Trackpoint 6705</name>
            </trkpt>
            <trkpt lat="49.6670944" lon="10.1008216">
                <ele>182.0</ele>
                <time>2020-08-23T12:33:07.000Z</time>
                <name>Trackpoint 6706</name>
            </trkpt>
            <trkpt lat="49.6671168" lon="10.1006848">
                <ele>181.0</ele>
                <time>2020-08-23T12:33:09.000Z</time>
                <name>Trackpoint 6707</name>
            </trkpt>
            <trkpt lat="49.667136" lon="10.1005488">
                <ele>181.0</ele>
                <time>2020-08-23T12:33:11.000Z</time>
                <name>Trackpoint 6708</name>
            </trkpt>
            <trkpt lat="49.6671488" lon="10.1004152">
                <ele>181.0</ele>
                <time>2020-08-23T12:33:13.000Z</time>
                <name>Trackpoint 6709</name>
            </trkpt>
            <trkpt lat="49.6671648" lon="10.100284">
                <ele>181.0</ele>
                <time>2020-08-23T12:33:15.000Z</time>
                <name>Trackpoint 6710</name>
            </trkpt>
            <trkpt lat="49.6671776" lon="10.1001456">
                <ele>181.0</ele>
                <time>2020-08-23T12:33:17.000Z</time>
                <name>Trackpoint 6711</name>
            </trkpt>
            <trkpt lat="49.6671872" lon="10.100012">
                <ele>181.0</ele>
                <time>2020-08-23T12:33:19.000Z</time>
                <name>Trackpoint 6712</name>
            </trkpt>
            <trkpt lat="49.6672032" lon="10.0998688">
                <ele>181.0</ele>
                <time>2020-08-23T12:33:21.000Z</time>
                <name>Trackpoint 6713</name>
            </trkpt>
            <trkpt lat="49.6672224" lon="10.0997216">
                <ele>181.0</ele>
                <time>2020-08-23T12:33:23.000Z</time>
                <name>Trackpoint 6714</name>
            </trkpt>
            <trkpt lat="49.6672288" lon="10.0995768">
                <ele>181.0</ele>
                <time>2020-08-23T12:33:25.000Z</time>
                <name>Trackpoint 6715</name>
            </trkpt>
            <trkpt lat="49.667248" lon="10.0994304">
                <ele>181.0</ele>
                <time>2020-08-23T12:33:27.000Z</time>
                <name>Trackpoint 6716</name>
            </trkpt>
            <trkpt lat="49.6672608" lon="10.0992816">
                <ele>181.0</ele>
                <time>2020-08-23T12:33:29.000Z</time>
                <name>Trackpoint 6717</name>
            </trkpt>
            <trkpt lat="49.6672704" lon="10.0991352">
                <ele>181.0</ele>
                <time>2020-08-23T12:33:31.000Z</time>
                <name>Trackpoint 6718</name>
            </trkpt>
            <trkpt lat="49.6672768" lon="10.0989904">
                <ele>181.0</ele>
                <time>2020-08-23T12:33:33.000Z</time>
                <name>Trackpoint 6719</name>
            </trkpt>
            <trkpt lat="49.6672896" lon="10.098848">
                <ele>180.0</ele>
                <time>2020-08-23T12:33:35.000Z</time>
                <name>Trackpoint 6720</name>
            </trkpt>
            <trkpt lat="49.6673024" lon="10.0987064">
                <ele>180.0</ele>
                <time>2020-08-23T12:33:37.000Z</time>
                <name>Trackpoint 6721</name>
            </trkpt>
            <trkpt lat="49.6673088" lon="10.0985648">
                <ele>180.0</ele>
                <time>2020-08-23T12:33:39.000Z</time>
                <name>Trackpoint 6722</name>
            </trkpt>
            <trkpt lat="49.6673216" lon="10.0984224">
                <ele>180.0</ele>
                <time>2020-08-23T12:33:41.000Z</time>
                <name>Trackpoint 6723</name>
            </trkpt>
            <trkpt lat="49.667328" lon="10.0982816">
                <ele>180.0</ele>
                <time>2020-08-23T12:33:43.000Z</time>
                <name>Trackpoint 6724</name>
            </trkpt>
            <trkpt lat="49.6673408" lon="10.09814">
                <ele>180.0</ele>
                <time>2020-08-23T12:33:45.000Z</time>
                <name>Trackpoint 6725</name>
            </trkpt>
            <trkpt lat="49.6673472" lon="10.0980016">
                <ele>180.0</ele>
                <time>2020-08-23T12:33:47.000Z</time>
                <name>Trackpoint 6726</name>
            </trkpt>
            <trkpt lat="49.6673536" lon="10.0978648">
                <ele>180.0</ele>
                <time>2020-08-23T12:33:49.000Z</time>
                <name>Trackpoint 6727</name>
            </trkpt>
            <trkpt lat="49.6673664" lon="10.0977312">
                <ele>180.0</ele>
                <time>2020-08-23T12:33:51.000Z</time>
                <name>Trackpoint 6728</name>
            </trkpt>
            <trkpt lat="49.6673728" lon="10.0975936">
                <ele>180.0</ele>
                <time>2020-08-23T12:33:53.000Z</time>
                <name>Trackpoint 6729</name>
            </trkpt>
            <trkpt lat="49.6673728" lon="10.0974568">
                <ele>180.0</ele>
                <time>2020-08-23T12:33:55.000Z</time>
                <name>Trackpoint 6730</name>
            </trkpt>
            <trkpt lat="49.6673888" lon="10.0973168">
                <ele>181.0</ele>
                <time>2020-08-23T12:33:57.000Z</time>
                <name>Trackpoint 6731</name>
            </trkpt>
            <trkpt lat="49.6673952" lon="10.09718">
                <ele>181.0</ele>
                <time>2020-08-23T12:33:59.000Z</time>
                <name>Trackpoint 6732</name>
            </trkpt>
            <trkpt lat="49.6673952" lon="10.097052">
                <ele>181.0</ele>
                <time>2020-08-23T12:34:01.000Z</time>
                <name>Trackpoint 6733</name>
            </trkpt>
            <trkpt lat="49.6674112" lon="10.0969288">
                <ele>181.0</ele>
                <time>2020-08-23T12:34:03.000Z</time>
                <name>Trackpoint 6734</name>
            </trkpt>
            <trkpt lat="49.6674112" lon="10.0968">
                <ele>181.0</ele>
                <time>2020-08-23T12:34:05.000Z</time>
                <name>Trackpoint 6735</name>
            </trkpt>
            <trkpt lat="49.667408" lon="10.096668">
                <ele>180.0</ele>
                <time>2020-08-23T12:34:07.000Z</time>
                <name>Trackpoint 6736</name>
            </trkpt>
            <trkpt lat="49.6674112" lon="10.0965336">
                <ele>180.0</ele>
                <time>2020-08-23T12:34:09.000Z</time>
                <name>Trackpoint 6737</name>
            </trkpt>
            <trkpt lat="49.6674112" lon="10.0963968">
                <ele>180.0</ele>
                <time>2020-08-23T12:34:11.000Z</time>
                <name>Trackpoint 6738</name>
            </trkpt>
            <trkpt lat="49.6674112" lon="10.0962632">
                <ele>180.0</ele>
                <time>2020-08-23T12:34:13.000Z</time>
                <name>Trackpoint 6739</name>
            </trkpt>
            <trkpt lat="49.6674112" lon="10.0961312">
                <ele>180.0</ele>
                <time>2020-08-23T12:34:15.000Z</time>
                <name>Trackpoint 6740</name>
            </trkpt>
            <trkpt lat="49.6674112" lon="10.0959984">
                <ele>180.0</ele>
                <time>2020-08-23T12:34:17.000Z</time>
                <name>Trackpoint 6741</name>
            </trkpt>
            <trkpt lat="49.6674048" lon="10.0958632">
                <ele>180.0</ele>
                <time>2020-08-23T12:34:19.000Z</time>
                <name>Trackpoint 6742</name>
            </trkpt>
            <trkpt lat="49.6674048" lon="10.0957248">
                <ele>180.0</ele>
                <time>2020-08-23T12:34:21.000Z</time>
                <name>Trackpoint 6743</name>
            </trkpt>
            <trkpt lat="49.6673952" lon="10.0955864">
                <ele>180.0</ele>
                <time>2020-08-23T12:34:23.000Z</time>
                <name>Trackpoint 6744</name>
            </trkpt>
            <trkpt lat="49.667392" lon="10.0954504">
                <ele>179.0</ele>
                <time>2020-08-23T12:34:25.000Z</time>
                <name>Trackpoint 6745</name>
            </trkpt>
            <trkpt lat="49.667392" lon="10.0953104">
                <ele>180.0</ele>
                <time>2020-08-23T12:34:27.000Z</time>
                <name>Trackpoint 6746</name>
            </trkpt>
            <trkpt lat="49.6673888" lon="10.0951704">
                <ele>180.0</ele>
                <time>2020-08-23T12:34:29.000Z</time>
                <name>Trackpoint 6747</name>
            </trkpt>
            <trkpt lat="49.6673856" lon="10.0950248">
                <ele>179.0</ele>
                <time>2020-08-23T12:34:31.000Z</time>
                <name>Trackpoint 6748</name>
            </trkpt>
            <trkpt lat="49.6673824" lon="10.09488">
                <ele>179.0</ele>
                <time>2020-08-23T12:34:33.000Z</time>
                <name>Trackpoint 6749</name>
            </trkpt>
            <trkpt lat="49.667376" lon="10.09474">
                <ele>179.0</ele>
                <time>2020-08-23T12:34:35.000Z</time>
                <name>Trackpoint 6750</name>
            </trkpt>
            <trkpt lat="49.6673696" lon="10.0946016">
                <ele>179.0</ele>
                <time>2020-08-23T12:34:37.000Z</time>
                <name>Trackpoint 6751</name>
            </trkpt>
            <trkpt lat="49.6673696" lon="10.0944616">
                <ele>179.0</ele>
                <time>2020-08-23T12:34:39.000Z</time>
                <name>Trackpoint 6752</name>
            </trkpt>
            <trkpt lat="49.6673632" lon="10.0943216">
                <ele>180.0</ele>
                <time>2020-08-23T12:34:41.000Z</time>
                <name>Trackpoint 6753</name>
            </trkpt>
            <trkpt lat="49.6673568" lon="10.0941832">
                <ele>180.0</ele>
                <time>2020-08-23T12:34:43.000Z</time>
                <name>Trackpoint 6754</name>
            </trkpt>
            <trkpt lat="49.6673536" lon="10.09404">
                <ele>180.0</ele>
                <time>2020-08-23T12:34:45.000Z</time>
                <name>Trackpoint 6755</name>
            </trkpt>
            <trkpt lat="49.6673504" lon="10.0938968">
                <ele>179.0</ele>
                <time>2020-08-23T12:34:47.000Z</time>
                <name>Trackpoint 6756</name>
            </trkpt>
            <trkpt lat="49.6673472" lon="10.093752">
                <ele>180.0</ele>
                <time>2020-08-23T12:34:49.000Z</time>
                <name>Trackpoint 6757</name>
            </trkpt>
            <trkpt lat="49.667344" lon="10.0936096">
                <ele>180.0</ele>
                <time>2020-08-23T12:34:51.000Z</time>
                <name>Trackpoint 6758</name>
            </trkpt>
            <trkpt lat="49.6673408" lon="10.0934712">
                <ele>180.0</ele>
                <time>2020-08-23T12:34:53.000Z</time>
                <name>Trackpoint 6759</name>
            </trkpt>
            <trkpt lat="49.6673344" lon="10.0933368">
                <ele>180.0</ele>
                <time>2020-08-23T12:34:55.000Z</time>
                <name>Trackpoint 6760</name>
            </trkpt>
            <trkpt lat="49.6673312" lon="10.0931968">
                <ele>180.0</ele>
                <time>2020-08-23T12:34:57.000Z</time>
                <name>Trackpoint 6761</name>
            </trkpt>
            <trkpt lat="49.667328" lon="10.0930568">
                <ele>180.0</ele>
                <time>2020-08-23T12:34:59.000Z</time>
                <name>Trackpoint 6762</name>
            </trkpt>
            <trkpt lat="49.6673248" lon="10.0929168">
                <ele>180.0</ele>
                <time>2020-08-23T12:35:01.000Z</time>
                <name>Trackpoint 6763</name>
            </trkpt>
            <trkpt lat="49.6673152" lon="10.0927848">
                <ele>180.0</ele>
                <time>2020-08-23T12:35:03.000Z</time>
                <name>Trackpoint 6764</name>
            </trkpt>
            <trkpt lat="49.667312" lon="10.09266">
                <ele>180.0</ele>
                <time>2020-08-23T12:35:05.000Z</time>
                <name>Trackpoint 6765</name>
            </trkpt>
            <trkpt lat="49.6673056" lon="10.09254">
                <ele>181.0</ele>
                <time>2020-08-23T12:35:07.000Z</time>
                <name>Trackpoint 6766</name>
            </trkpt>
            <trkpt lat="49.6673024" lon="10.0924264">
                <ele>181.0</ele>
                <time>2020-08-23T12:35:09.000Z</time>
                <name>Trackpoint 6767</name>
            </trkpt>
            <trkpt lat="49.667296" lon="10.0923256">
                <ele>181.0</ele>
                <time>2020-08-23T12:35:11.000Z</time>
                <name>Trackpoint 6768</name>
            </trkpt>
            <trkpt lat="49.6673344" lon="10.092208">
                <ele>181.0</ele>
                <time>2020-08-23T12:35:14.000Z</time>
                <name>Trackpoint 6769</name>
            </trkpt>
            <trkpt lat="49.6674432" lon="10.0921648">
                <ele>180.0</ele>
                <time>2020-08-23T12:35:17.000Z</time>
                <name>Trackpoint 6770</name>
            </trkpt>
            <trkpt lat="49.6675264" lon="10.0922016">
                <ele>180.0</ele>
                <time>2020-08-23T12:35:19.000Z</time>
                <name>Trackpoint 6771</name>
            </trkpt>
            <trkpt lat="49.6676128" lon="10.0922544">
                <ele>179.0</ele>
                <time>2020-08-23T12:35:21.000Z</time>
                <name>Trackpoint 6772</name>
            </trkpt>
            <trkpt lat="49.6677056" lon="10.0923256">
                <ele>179.0</ele>
                <time>2020-08-23T12:35:23.000Z</time>
                <name>Trackpoint 6773</name>
            </trkpt>
            <trkpt lat="49.6678048" lon="10.0923952">
                <ele>179.0</ele>
                <time>2020-08-23T12:35:25.000Z</time>
                <name>Trackpoint 6774</name>
            </trkpt>
            <trkpt lat="49.6679072" lon="10.0924552">
                <ele>179.0</ele>
                <time>2020-08-23T12:35:27.000Z</time>
                <name>Trackpoint 6775</name>
            </trkpt>
            <trkpt lat="49.6680192" lon="10.0924984">
                <ele>178.0</ele>
                <time>2020-08-23T12:35:29.000Z</time>
                <name>Trackpoint 6776</name>
            </trkpt>
            <trkpt lat="49.6681248" lon="10.0925168">
                <ele>178.0</ele>
                <time>2020-08-23T12:35:31.000Z</time>
                <name>Trackpoint 6777</name>
            </trkpt>
            <trkpt lat="49.66824" lon="10.09252">
                <ele>177.0</ele>
                <time>2020-08-23T12:35:33.000Z</time>
                <name>Trackpoint 6778</name>
            </trkpt>
            <trkpt lat="49.6683488" lon="10.0925304">
                <ele>177.0</ele>
                <time>2020-08-23T12:35:35.000Z</time>
                <name>Trackpoint 6779</name>
            </trkpt>
            <trkpt lat="49.6684544" lon="10.0925416">
                <ele>176.0</ele>
                <time>2020-08-23T12:35:37.000Z</time>
                <name>Trackpoint 6780</name>
            </trkpt>
            <trkpt lat="49.66856" lon="10.0925328">
                <ele>176.0</ele>
                <time>2020-08-23T12:35:39.000Z</time>
                <name>Trackpoint 6781</name>
            </trkpt>
            <trkpt lat="49.6686432" lon="10.092472">
                <ele>177.0</ele>
                <time>2020-08-23T12:35:41.000Z</time>
                <name>Trackpoint 6782</name>
            </trkpt>
            <trkpt lat="49.6686848" lon="10.0923336">
                <ele>178.0</ele>
                <time>2020-08-23T12:35:43.000Z</time>
                <name>Trackpoint 6783</name>
            </trkpt>
            <trkpt lat="49.6687168" lon="10.0921696">
                <ele>179.0</ele>
                <time>2020-08-23T12:35:45.000Z</time>
                <name>Trackpoint 6784</name>
            </trkpt>
            <trkpt lat="49.6687392" lon="10.092016">
                <ele>180.0</ele>
                <time>2020-08-23T12:35:47.000Z</time>
                <name>Trackpoint 6785</name>
            </trkpt>
            <trkpt lat="49.668752" lon="10.0918704">
                <ele>181.0</ele>
                <time>2020-08-23T12:35:49.000Z</time>
                <name>Trackpoint 6786</name>
            </trkpt>
            <trkpt lat="49.6687648" lon="10.0917264">
                <ele>181.0</ele>
                <time>2020-08-23T12:35:51.000Z</time>
                <name>Trackpoint 6787</name>
            </trkpt>
            <trkpt lat="49.6687808" lon="10.0916016">
                <ele>181.0</ele>
                <time>2020-08-23T12:35:53.000Z</time>
                <name>Trackpoint 6788</name>
            </trkpt>
            <trkpt lat="49.6687936" lon="10.091472">
                <ele>181.0</ele>
                <time>2020-08-23T12:35:55.000Z</time>
                <name>Trackpoint 6789</name>
            </trkpt>
            <trkpt lat="49.6688" lon="10.0913384">
                <ele>181.0</ele>
                <time>2020-08-23T12:35:57.000Z</time>
                <name>Trackpoint 6790</name>
            </trkpt>
            <trkpt lat="49.6688128" lon="10.0912048">
                <ele>181.0</ele>
                <time>2020-08-23T12:35:59.000Z</time>
                <name>Trackpoint 6791</name>
            </trkpt>
            <trkpt lat="49.668832" lon="10.0910864">
                <ele>181.0</ele>
                <time>2020-08-23T12:36:01.000Z</time>
                <name>Trackpoint 6792</name>
            </trkpt>
            <trkpt lat="49.6688512" lon="10.0909584">
                <ele>181.0</ele>
                <time>2020-08-23T12:36:03.000Z</time>
                <name>Trackpoint 6793</name>
            </trkpt>
            <trkpt lat="49.6688608" lon="10.0908336">
                <ele>181.0</ele>
                <time>2020-08-23T12:36:05.000Z</time>
                <name>Trackpoint 6794</name>
            </trkpt>
            <trkpt lat="49.668864" lon="10.0907088">
                <ele>181.0</ele>
                <time>2020-08-23T12:36:07.000Z</time>
                <name>Trackpoint 6795</name>
            </trkpt>
            <trkpt lat="49.6688768" lon="10.0905816">
                <ele>181.0</ele>
                <time>2020-08-23T12:36:09.000Z</time>
                <name>Trackpoint 6796</name>
            </trkpt>
            <trkpt lat="49.6688768" lon="10.09046">
                <ele>181.0</ele>
                <time>2020-08-23T12:36:11.000Z</time>
                <name>Trackpoint 6797</name>
            </trkpt>
            <trkpt lat="49.6688832" lon="10.0903384">
                <ele>180.0</ele>
                <time>2020-08-23T12:36:13.000Z</time>
                <name>Trackpoint 6798</name>
            </trkpt>
            <trkpt lat="49.6688896" lon="10.0902048">
                <ele>180.0</ele>
                <time>2020-08-23T12:36:15.000Z</time>
                <name>Trackpoint 6799</name>
            </trkpt>
            <trkpt lat="49.6689056" lon="10.090068">
                <ele>180.0</ele>
                <time>2020-08-23T12:36:17.000Z</time>
                <name>Trackpoint 6800</name>
            </trkpt>
            <trkpt lat="49.6689152" lon="10.0899512">
                <ele>180.0</ele>
                <time>2020-08-23T12:36:19.000Z</time>
                <name>Trackpoint 6801</name>
            </trkpt>
            <trkpt lat="49.6689184" lon="10.0898464">
                <ele>180.0</ele>
                <time>2020-08-23T12:36:21.000Z</time>
                <name>Trackpoint 6802</name>
            </trkpt>
            <trkpt lat="49.6689312" lon="10.0897352">
                <ele>180.0</ele>
                <time>2020-08-23T12:36:23.000Z</time>
                <name>Trackpoint 6803</name>
            </trkpt>
            <trkpt lat="49.6689696" lon="10.0895704">
                <ele>180.0</ele>
                <time>2020-08-23T12:36:25.000Z</time>
                <name>Trackpoint 6804</name>
            </trkpt>
            <trkpt lat="49.668976" lon="10.0894768">
                <ele>180.0</ele>
                <time>2020-08-23T12:36:27.000Z</time>
                <name>Trackpoint 6805</name>
            </trkpt>
            <trkpt lat="49.6689696" lon="10.089332">
                <ele>180.0</ele>
                <time>2020-08-23T12:36:30.000Z</time>
                <name>Trackpoint 6806</name>
            </trkpt>
            <trkpt lat="49.6689504" lon="10.0891952">
                <ele>180.0</ele>
                <time>2020-08-23T12:36:33.000Z</time>
                <name>Trackpoint 6807</name>
            </trkpt>
            <trkpt lat="49.6689344" lon="10.0890728">
                <ele>180.0</ele>
                <time>2020-08-23T12:36:35.000Z</time>
                <name>Trackpoint 6808</name>
            </trkpt>
            <trkpt lat="49.6689312" lon="10.0889752">
                <ele>180.0</ele>
                <time>2020-08-23T12:36:37.000Z</time>
                <name>Trackpoint 6809</name>
            </trkpt>
            <trkpt lat="49.6689312" lon="10.088868">
                <ele>180.0</ele>
                <time>2020-08-23T12:36:39.000Z</time>
                <name>Trackpoint 6810</name>
            </trkpt>
            <trkpt lat="49.6689312" lon="10.0887544">
                <ele>180.0</ele>
                <time>2020-08-23T12:36:41.000Z</time>
                <name>Trackpoint 6811</name>
            </trkpt>
            <trkpt lat="49.668944" lon="10.0886584">
                <ele>181.0</ele>
                <time>2020-08-23T12:36:43.000Z</time>
                <name>Trackpoint 6812</name>
            </trkpt>
            <trkpt lat="49.6689568" lon="10.0885288">
                <ele>181.0</ele>
                <time>2020-08-23T12:36:45.000Z</time>
                <name>Trackpoint 6813</name>
            </trkpt>
            <trkpt lat="49.6689568" lon="10.0883912">
                <ele>181.0</ele>
                <time>2020-08-23T12:36:47.000Z</time>
                <name>Trackpoint 6814</name>
            </trkpt>
            <trkpt lat="49.668992" lon="10.0882552">
                <ele>181.0</ele>
                <time>2020-08-23T12:36:49.000Z</time>
                <name>Trackpoint 6815</name>
            </trkpt>
            <trkpt lat="49.6690176" lon="10.0881016">
                <ele>181.0</ele>
                <time>2020-08-23T12:36:51.000Z</time>
                <name>Trackpoint 6816</name>
            </trkpt>
            <trkpt lat="49.6690144" lon="10.088">
                <ele>181.0</ele>
                <time>2020-08-23T12:36:53.000Z</time>
                <name>Trackpoint 6817</name>
            </trkpt>
            <trkpt lat="49.6689952" lon="10.0878888">
                <ele>181.0</ele>
                <time>2020-08-23T12:36:56.000Z</time>
                <name>Trackpoint 6818</name>
            </trkpt>
            <trkpt lat="49.6690016" lon="10.0877688">
                <ele>181.0</ele>
                <time>2020-08-23T12:36:59.000Z</time>
                <name>Trackpoint 6819</name>
            </trkpt>
            <trkpt lat="49.6690112" lon="10.0876648">
                <ele>181.0</ele>
                <time>2020-08-23T12:37:01.000Z</time>
                <name>Trackpoint 6820</name>
            </trkpt>
            <trkpt lat="49.6690176" lon="10.0875528">
                <ele>181.0</ele>
                <time>2020-08-23T12:37:03.000Z</time>
                <name>Trackpoint 6821</name>
            </trkpt>
            <trkpt lat="49.6690176" lon="10.0874304">
                <ele>181.0</ele>
                <time>2020-08-23T12:37:05.000Z</time>
                <name>Trackpoint 6822</name>
            </trkpt>
            <trkpt lat="49.6690112" lon="10.0873016">
                <ele>181.0</ele>
                <time>2020-08-23T12:37:07.000Z</time>
                <name>Trackpoint 6823</name>
            </trkpt>
            <trkpt lat="49.6690112" lon="10.0871712">
                <ele>181.0</ele>
                <time>2020-08-23T12:37:09.000Z</time>
                <name>Trackpoint 6824</name>
            </trkpt>
            <trkpt lat="49.6690016" lon="10.0870464">
                <ele>181.0</ele>
                <time>2020-08-23T12:37:11.000Z</time>
                <name>Trackpoint 6825</name>
            </trkpt>
            <trkpt lat="49.668992" lon="10.0869128">
                <ele>181.0</ele>
                <time>2020-08-23T12:37:13.000Z</time>
                <name>Trackpoint 6826</name>
            </trkpt>
            <trkpt lat="49.6689888" lon="10.0867752">
                <ele>181.0</ele>
                <time>2020-08-23T12:37:15.000Z</time>
                <name>Trackpoint 6827</name>
            </trkpt>
            <trkpt lat="49.6689696" lon="10.0866448">
                <ele>182.0</ele>
                <time>2020-08-23T12:37:17.000Z</time>
                <name>Trackpoint 6828</name>
            </trkpt>
            <trkpt lat="49.6689632" lon="10.086512">
                <ele>182.0</ele>
                <time>2020-08-23T12:37:19.000Z</time>
                <name>Trackpoint 6829</name>
            </trkpt>
            <trkpt lat="49.6689408" lon="10.0863912">
                <ele>182.0</ele>
                <time>2020-08-23T12:37:22.000Z</time>
                <name>Trackpoint 6830</name>
            </trkpt>
            <trkpt lat="49.6689024" lon="10.0862904">
                <ele>182.0</ele>
                <time>2020-08-23T12:37:28.000Z</time>
                <name>Trackpoint 6831</name>
            </trkpt>
            <trkpt lat="49.66888" lon="10.0861832">
                <ele>183.0</ele>
                <time>2020-08-23T12:37:30.000Z</time>
                <name>Trackpoint 6832</name>
            </trkpt>
            <trkpt lat="49.6688832" lon="10.0860416">
                <ele>183.0</ele>
                <time>2020-08-23T12:37:32.000Z</time>
                <name>Trackpoint 6833</name>
            </trkpt>
            <trkpt lat="49.6688832" lon="10.0859144">
                <ele>183.0</ele>
                <time>2020-08-23T12:37:34.000Z</time>
                <name>Trackpoint 6834</name>
            </trkpt>
            <trkpt lat="49.668864" lon="10.08578">
                <ele>183.0</ele>
                <time>2020-08-23T12:37:36.000Z</time>
                <name>Trackpoint 6835</name>
            </trkpt>
            <trkpt lat="49.6688512" lon="10.0856064">
                <ele>184.0</ele>
                <time>2020-08-23T12:37:38.000Z</time>
                <name>Trackpoint 6836</name>
            </trkpt>
            <trkpt lat="49.6688448" lon="10.085448">
                <ele>184.0</ele>
                <time>2020-08-23T12:37:40.000Z</time>
                <name>Trackpoint 6837</name>
            </trkpt>
            <trkpt lat="49.6688512" lon="10.0853032">
                <ele>184.0</ele>
                <time>2020-08-23T12:37:42.000Z</time>
                <name>Trackpoint 6838</name>
            </trkpt>
            <trkpt lat="49.6688448" lon="10.0851648">
                <ele>184.0</ele>
                <time>2020-08-23T12:37:44.000Z</time>
                <name>Trackpoint 6839</name>
            </trkpt>
            <trkpt lat="49.6688352" lon="10.0850112">
                <ele>184.0</ele>
                <time>2020-08-23T12:37:46.000Z</time>
                <name>Trackpoint 6840</name>
            </trkpt>
            <trkpt lat="49.6688384" lon="10.0849184">
                <ele>185.0</ele>
                <time>2020-08-23T12:37:47.000Z</time>
                <name>Trackpoint 6841</name>
            </trkpt>
            <trkpt lat="49.6688544" lon="10.0848248">
                <ele>185.0</ele>
                <time>2020-08-23T12:37:48.000Z</time>
                <name>Trackpoint 6842</name>
            </trkpt>
            <trkpt lat="49.6688896" lon="10.0846616">
                <ele>185.0</ele>
                <time>2020-08-23T12:37:50.000Z</time>
                <name>Trackpoint 6843</name>
            </trkpt>
            <trkpt lat="49.6689312" lon="10.084512">
                <ele>185.0</ele>
                <time>2020-08-23T12:37:52.000Z</time>
                <name>Trackpoint 6844</name>
            </trkpt>
            <trkpt lat="49.6689536" lon="10.0843424">
                <ele>185.0</ele>
                <time>2020-08-23T12:37:54.000Z</time>
                <name>Trackpoint 6845</name>
            </trkpt>
            <trkpt lat="49.668976" lon="10.0841752">
                <ele>185.0</ele>
                <time>2020-08-23T12:37:56.000Z</time>
                <name>Trackpoint 6846</name>
            </trkpt>
            <trkpt lat="49.6689824" lon="10.08408">
                <ele>186.0</ele>
                <time>2020-08-23T12:37:57.000Z</time>
                <name>Trackpoint 6847</name>
            </trkpt>
            <trkpt lat="49.6689952" lon="10.0839816">
                <ele>185.0</ele>
                <time>2020-08-23T12:37:58.000Z</time>
                <name>Trackpoint 6848</name>
            </trkpt>
            <trkpt lat="49.6690016" lon="10.0838816">
                <ele>185.0</ele>
                <time>2020-08-23T12:37:59.000Z</time>
                <name>Trackpoint 6849</name>
            </trkpt>
            <trkpt lat="49.668992" lon="10.0837048">
                <ele>185.0</ele>
                <time>2020-08-23T12:38:01.000Z</time>
                <name>Trackpoint 6850</name>
            </trkpt>
            <trkpt lat="49.6689824" lon="10.0836112">
                <ele>185.0</ele>
                <time>2020-08-23T12:38:02.000Z</time>
                <name>Trackpoint 6851</name>
            </trkpt>
            <trkpt lat="49.6689888" lon="10.0835">
                <ele>185.0</ele>
                <time>2020-08-23T12:38:03.000Z</time>
                <name>Trackpoint 6852</name>
            </trkpt>
            <trkpt lat="49.6689824" lon="10.0833968">
                <ele>185.0</ele>
                <time>2020-08-23T12:38:04.000Z</time>
                <name>Trackpoint 6853</name>
            </trkpt>
            <trkpt lat="49.6689888" lon="10.083288">
                <ele>185.0</ele>
                <time>2020-08-23T12:38:05.000Z</time>
                <name>Trackpoint 6854</name>
            </trkpt>
            <trkpt lat="49.6689792" lon="10.0831896">
                <ele>185.0</ele>
                <time>2020-08-23T12:38:06.000Z</time>
                <name>Trackpoint 6855</name>
            </trkpt>
            <trkpt lat="49.6689728" lon="10.0830896">
                <ele>185.0</ele>
                <time>2020-08-23T12:38:07.000Z</time>
                <name>Trackpoint 6856</name>
            </trkpt>
            <trkpt lat="49.6689696" lon="10.082992">
                <ele>184.0</ele>
                <time>2020-08-23T12:38:08.000Z</time>
                <name>Trackpoint 6857</name>
            </trkpt>
            <trkpt lat="49.6689536" lon="10.0829">
                <ele>184.0</ele>
                <time>2020-08-23T12:38:09.000Z</time>
                <name>Trackpoint 6858</name>
            </trkpt>
            <trkpt lat="49.6689344" lon="10.0828088">
                <ele>184.0</ele>
                <time>2020-08-23T12:38:10.000Z</time>
                <name>Trackpoint 6859</name>
            </trkpt>
            <trkpt lat="49.6689152" lon="10.0827152">
                <ele>184.0</ele>
                <time>2020-08-23T12:38:11.000Z</time>
                <name>Trackpoint 6860</name>
            </trkpt>
            <trkpt lat="49.6688768" lon="10.0825528">
                <ele>184.0</ele>
                <time>2020-08-23T12:38:13.000Z</time>
                <name>Trackpoint 6861</name>
            </trkpt>
            <trkpt lat="49.6688352" lon="10.082412">
                <ele>184.0</ele>
                <time>2020-08-23T12:38:15.000Z</time>
                <name>Trackpoint 6862</name>
            </trkpt>
            <trkpt lat="49.6687808" lon="10.0822512">
                <ele>184.0</ele>
                <time>2020-08-23T12:38:17.000Z</time>
                <name>Trackpoint 6863</name>
            </trkpt>
            <trkpt lat="49.6687392" lon="10.0821016">
                <ele>184.0</ele>
                <time>2020-08-23T12:38:19.000Z</time>
                <name>Trackpoint 6864</name>
            </trkpt>
            <trkpt lat="49.6686944" lon="10.08198">
                <ele>184.0</ele>
                <time>2020-08-23T12:38:21.000Z</time>
                <name>Trackpoint 6865</name>
            </trkpt>
            <trkpt lat="49.6686464" lon="10.0818464">
                <ele>184.0</ele>
                <time>2020-08-23T12:38:23.000Z</time>
                <name>Trackpoint 6866</name>
            </trkpt>
            <trkpt lat="49.6685728" lon="10.081672">
                <ele>184.0</ele>
                <time>2020-08-23T12:38:25.000Z</time>
                <name>Trackpoint 6867</name>
            </trkpt>
            <trkpt lat="49.6685248" lon="10.081576">
                <ele>184.0</ele>
                <time>2020-08-23T12:38:26.000Z</time>
                <name>Trackpoint 6868</name>
            </trkpt>
            <trkpt lat="49.6684672" lon="10.081444">
                <ele>184.0</ele>
                <time>2020-08-23T12:38:28.000Z</time>
                <name>Trackpoint 6869</name>
            </trkpt>
            <trkpt lat="49.668416" lon="10.081308">
                <ele>184.0</ele>
                <time>2020-08-23T12:38:30.000Z</time>
                <name>Trackpoint 6870</name>
            </trkpt>
            <trkpt lat="49.6683584" lon="10.0811616">
                <ele>183.0</ele>
                <time>2020-08-23T12:38:32.000Z</time>
                <name>Trackpoint 6871</name>
            </trkpt>
            <trkpt lat="49.6683072" lon="10.0810216">
                <ele>183.0</ele>
                <time>2020-08-23T12:38:34.000Z</time>
                <name>Trackpoint 6872</name>
            </trkpt>
            <trkpt lat="49.6682752" lon="10.080896">
                <ele>183.0</ele>
                <time>2020-08-23T12:38:36.000Z</time>
                <name>Trackpoint 6873</name>
            </trkpt>
            <trkpt lat="49.6682368" lon="10.0807832">
                <ele>183.0</ele>
                <time>2020-08-23T12:38:38.000Z</time>
                <name>Trackpoint 6874</name>
            </trkpt>
            <trkpt lat="49.6681856" lon="10.0806576">
                <ele>183.0</ele>
                <time>2020-08-23T12:38:40.000Z</time>
                <name>Trackpoint 6875</name>
            </trkpt>
            <trkpt lat="49.6681376" lon="10.0805352">
                <ele>183.0</ele>
                <time>2020-08-23T12:38:42.000Z</time>
                <name>Trackpoint 6876</name>
            </trkpt>
            <trkpt lat="49.6680832" lon="10.0803984">
                <ele>183.0</ele>
                <time>2020-08-23T12:38:44.000Z</time>
                <name>Trackpoint 6877</name>
            </trkpt>
            <trkpt lat="49.6680416" lon="10.0802672">
                <ele>183.0</ele>
                <time>2020-08-23T12:38:46.000Z</time>
                <name>Trackpoint 6878</name>
            </trkpt>
            <trkpt lat="49.668" lon="10.0801536">
                <ele>183.0</ele>
                <time>2020-08-23T12:38:48.000Z</time>
                <name>Trackpoint 6879</name>
            </trkpt>
            <trkpt lat="49.6679808" lon="10.0800352">
                <ele>183.0</ele>
                <time>2020-08-23T12:38:50.000Z</time>
                <name>Trackpoint 6880</name>
            </trkpt>
            <trkpt lat="49.6679488" lon="10.0799128">
                <ele>183.0</ele>
                <time>2020-08-23T12:38:52.000Z</time>
                <name>Trackpoint 6881</name>
            </trkpt>
            <trkpt lat="49.6678912" lon="10.0797816">
                <ele>183.0</ele>
                <time>2020-08-23T12:38:54.000Z</time>
                <name>Trackpoint 6882</name>
            </trkpt>
            <trkpt lat="49.66784" lon="10.079648">
                <ele>183.0</ele>
                <time>2020-08-23T12:38:56.000Z</time>
                <name>Trackpoint 6883</name>
            </trkpt>
            <trkpt lat="49.6677888" lon="10.0795248">
                <ele>183.0</ele>
                <time>2020-08-23T12:38:58.000Z</time>
                <name>Trackpoint 6884</name>
            </trkpt>
            <trkpt lat="49.6677312" lon="10.0794048">
                <ele>183.0</ele>
                <time>2020-08-23T12:39:00.000Z</time>
                <name>Trackpoint 6885</name>
            </trkpt>
            <trkpt lat="49.6676736" lon="10.0793048">
                <ele>183.0</ele>
                <time>2020-08-23T12:39:02.000Z</time>
                <name>Trackpoint 6886</name>
            </trkpt>
            <trkpt lat="49.6676224" lon="10.0792152">
                <ele>183.0</ele>
                <time>2020-08-23T12:39:04.000Z</time>
                <name>Trackpoint 6887</name>
            </trkpt>
            <trkpt lat="49.6675648" lon="10.079112">
                <ele>183.0</ele>
                <time>2020-08-23T12:39:06.000Z</time>
                <name>Trackpoint 6888</name>
            </trkpt>
            <trkpt lat="49.66752" lon="10.0790216">
                <ele>182.0</ele>
                <time>2020-08-23T12:39:08.000Z</time>
                <name>Trackpoint 6889</name>
            </trkpt>
            <trkpt lat="49.6674816" lon="10.078912">
                <ele>182.0</ele>
                <time>2020-08-23T12:39:11.000Z</time>
                <name>Trackpoint 6890</name>
            </trkpt>
            <trkpt lat="49.6674624" lon="10.0787872">
                <ele>182.0</ele>
                <time>2020-08-23T12:39:13.000Z</time>
                <name>Trackpoint 6891</name>
            </trkpt>
            <trkpt lat="49.6674528" lon="10.078644">
                <ele>182.0</ele>
                <time>2020-08-23T12:39:15.000Z</time>
                <name>Trackpoint 6892</name>
            </trkpt>
            <trkpt lat="49.6674144" lon="10.0784864">
                <ele>182.0</ele>
                <time>2020-08-23T12:39:17.000Z</time>
                <name>Trackpoint 6893</name>
            </trkpt>
            <trkpt lat="49.6674048" lon="10.0783384">
                <ele>182.0</ele>
                <time>2020-08-23T12:39:19.000Z</time>
                <name>Trackpoint 6894</name>
            </trkpt>
            <trkpt lat="49.6673888" lon="10.0782216">
                <ele>182.0</ele>
                <time>2020-08-23T12:39:21.000Z</time>
                <name>Trackpoint 6895</name>
            </trkpt>
            <trkpt lat="49.6673696" lon="10.0780552">
                <ele>182.0</ele>
                <time>2020-08-23T12:39:23.000Z</time>
                <name>Trackpoint 6896</name>
            </trkpt>
            <trkpt lat="49.6673472" lon="10.0778888">
                <ele>182.0</ele>
                <time>2020-08-23T12:39:25.000Z</time>
                <name>Trackpoint 6897</name>
            </trkpt>
            <trkpt lat="49.6673248" lon="10.0777">
                <ele>182.0</ele>
                <time>2020-08-23T12:39:27.000Z</time>
                <name>Trackpoint 6898</name>
            </trkpt>
            <trkpt lat="49.6673056" lon="10.077532">
                <ele>182.0</ele>
                <time>2020-08-23T12:39:29.000Z</time>
                <name>Trackpoint 6899</name>
            </trkpt>
            <trkpt lat="49.6672864" lon="10.07744">
                <ele>182.0</ele>
                <time>2020-08-23T12:39:30.000Z</time>
                <name>Trackpoint 6900</name>
            </trkpt>
            <trkpt lat="49.6672768" lon="10.0772752">
                <ele>182.0</ele>
                <time>2020-08-23T12:39:32.000Z</time>
                <name>Trackpoint 6901</name>
            </trkpt>
            <trkpt lat="49.6672704" lon="10.077124">
                <ele>182.0</ele>
                <time>2020-08-23T12:39:34.000Z</time>
                <name>Trackpoint 6902</name>
            </trkpt>
            <trkpt lat="49.667248" lon="10.0770352">
                <ele>182.0</ele>
                <time>2020-08-23T12:39:35.000Z</time>
                <name>Trackpoint 6903</name>
            </trkpt>
            <trkpt lat="49.667216" lon="10.0768808">
                <ele>182.0</ele>
                <time>2020-08-23T12:39:37.000Z</time>
                <name>Trackpoint 6904</name>
            </trkpt>
            <trkpt lat="49.6671968" lon="10.0767672">
                <ele>182.0</ele>
                <time>2020-08-23T12:39:38.000Z</time>
                <name>Trackpoint 6905</name>
            </trkpt>
            <trkpt lat="49.6671552" lon="10.0765736">
                <ele>182.0</ele>
                <time>2020-08-23T12:39:40.000Z</time>
                <name>Trackpoint 6906</name>
            </trkpt>
            <trkpt lat="49.6671264" lon="10.0764352">
                <ele>182.0</ele>
                <time>2020-08-23T12:39:41.000Z</time>
                <name>Trackpoint 6907</name>
            </trkpt>
            <trkpt lat="49.667088" lon="10.0763128">
                <ele>181.0</ele>
                <time>2020-08-23T12:39:42.000Z</time>
                <name>Trackpoint 6908</name>
            </trkpt>
            <trkpt lat="49.6670688" lon="10.0762168">
                <ele>181.0</ele>
                <time>2020-08-23T12:39:43.000Z</time>
                <name>Trackpoint 6909</name>
            </trkpt>
            <trkpt lat="49.6670528" lon="10.0760736">
                <ele>181.0</ele>
                <time>2020-08-23T12:39:45.000Z</time>
                <name>Trackpoint 6910</name>
            </trkpt>
            <trkpt lat="49.6670304" lon="10.0759424">
                <ele>180.0</ele>
                <time>2020-08-23T12:39:47.000Z</time>
                <name>Trackpoint 6911</name>
            </trkpt>
            <trkpt lat="49.6670112" lon="10.0758432">
                <ele>180.0</ele>
                <time>2020-08-23T12:39:48.000Z</time>
                <name>Trackpoint 6912</name>
            </trkpt>
            <trkpt lat="49.667008" lon="10.0757512">
                <ele>180.0</ele>
                <time>2020-08-23T12:39:49.000Z</time>
                <name>Trackpoint 6913</name>
            </trkpt>
            <trkpt lat="49.6669888" lon="10.075652">
                <ele>180.0</ele>
                <time>2020-08-23T12:39:50.000Z</time>
                <name>Trackpoint 6914</name>
            </trkpt>
            <trkpt lat="49.6669728" lon="10.075552">
                <ele>180.0</ele>
                <time>2020-08-23T12:39:51.000Z</time>
                <name>Trackpoint 6915</name>
            </trkpt>
            <trkpt lat="49.6669632" lon="10.0754536">
                <ele>180.0</ele>
                <time>2020-08-23T12:39:52.000Z</time>
                <name>Trackpoint 6916</name>
            </trkpt>
            <trkpt lat="49.6669344" lon="10.0752952">
                <ele>179.0</ele>
                <time>2020-08-23T12:39:54.000Z</time>
                <name>Trackpoint 6917</name>
            </trkpt>
            <trkpt lat="49.6669248" lon="10.0751512">
                <ele>179.0</ele>
                <time>2020-08-23T12:39:56.000Z</time>
                <name>Trackpoint 6918</name>
            </trkpt>
            <trkpt lat="49.6669056" lon="10.07498">
                <ele>179.0</ele>
                <time>2020-08-23T12:39:58.000Z</time>
                <name>Trackpoint 6919</name>
            </trkpt>
            <trkpt lat="49.6668896" lon="10.0748184">
                <ele>179.0</ele>
                <time>2020-08-23T12:40:00.000Z</time>
                <name>Trackpoint 6920</name>
            </trkpt>
            <trkpt lat="49.66688" lon="10.0747096">
                <ele>179.0</ele>
                <time>2020-08-23T12:40:01.000Z</time>
                <name>Trackpoint 6921</name>
            </trkpt>
            <trkpt lat="49.6668768" lon="10.074612">
                <ele>179.0</ele>
                <time>2020-08-23T12:40:02.000Z</time>
                <name>Trackpoint 6922</name>
            </trkpt>
            <trkpt lat="49.6668768" lon="10.0744312">
                <ele>178.0</ele>
                <time>2020-08-23T12:40:04.000Z</time>
                <name>Trackpoint 6923</name>
            </trkpt>
            <trkpt lat="49.666864" lon="10.0742648">
                <ele>177.0</ele>
                <time>2020-08-23T12:40:06.000Z</time>
                <name>Trackpoint 6924</name>
            </trkpt>
            <trkpt lat="49.666848" lon="10.074132">
                <ele>177.0</ele>
                <time>2020-08-23T12:40:08.000Z</time>
                <name>Trackpoint 6925</name>
            </trkpt>
            <trkpt lat="49.6668096" lon="10.0740448">
                <ele>177.0</ele>
                <time>2020-08-23T13:02:55.000Z</time>
                <name>Trackpoint 6926</name>
            </trkpt>
            <trkpt lat="49.6668096" lon="10.0739544">
                <ele>176.0</ele>
                <time>2020-08-23T13:03:24.000Z</time>
                <name>Trackpoint 6927</name>
            </trkpt>
            <trkpt lat="49.6667968" lon="10.0738336">
                <ele>175.0</ele>
                <time>2020-08-23T13:03:27.000Z</time>
                <name>Trackpoint 6928</name>
            </trkpt>
            <trkpt lat="49.6667712" lon="10.0737048">
                <ele>175.0</ele>
                <time>2020-08-23T13:03:30.000Z</time>
                <name>Trackpoint 6929</name>
            </trkpt>
            <trkpt lat="49.6667488" lon="10.0735704">
                <ele>175.0</ele>
                <time>2020-08-23T13:03:33.000Z</time>
                <name>Trackpoint 6930</name>
            </trkpt>
            <trkpt lat="49.666736" lon="10.0734664">
                <ele>176.0</ele>
                <time>2020-08-23T13:03:35.000Z</time>
                <name>Trackpoint 6931</name>
            </trkpt>
            <trkpt lat="49.6667136" lon="10.0733608">
                <ele>177.0</ele>
                <time>2020-08-23T13:03:37.000Z</time>
                <name>Trackpoint 6932</name>
            </trkpt>
            <trkpt lat="49.6666944" lon="10.073248">
                <ele>177.0</ele>
                <time>2020-08-23T13:03:39.000Z</time>
                <name>Trackpoint 6933</name>
            </trkpt>
            <trkpt lat="49.6666784" lon="10.0731248">
                <ele>177.0</ele>
                <time>2020-08-23T13:03:41.000Z</time>
                <name>Trackpoint 6934</name>
            </trkpt>
            <trkpt lat="49.6666656" lon="10.0730088">
                <ele>177.0</ele>
                <time>2020-08-23T13:03:43.000Z</time>
                <name>Trackpoint 6935</name>
            </trkpt>
            <trkpt lat="49.6666464" lon="10.0728976">
                <ele>177.0</ele>
                <time>2020-08-23T13:03:45.000Z</time>
                <name>Trackpoint 6936</name>
            </trkpt>
            <trkpt lat="49.6666304" lon="10.0728">
                <ele>177.0</ele>
                <time>2020-08-23T13:03:47.000Z</time>
                <name>Trackpoint 6937</name>
            </trkpt>
            <trkpt lat="49.6666112" lon="10.0726808">
                <ele>177.0</ele>
                <time>2020-08-23T13:03:49.000Z</time>
                <name>Trackpoint 6938</name>
            </trkpt>
            <trkpt lat="49.666592" lon="10.0725584">
                <ele>177.0</ele>
                <time>2020-08-23T13:03:51.000Z</time>
                <name>Trackpoint 6939</name>
            </trkpt>
            <trkpt lat="49.666576" lon="10.0724496">
                <ele>177.0</ele>
                <time>2020-08-23T13:03:53.000Z</time>
                <name>Trackpoint 6940</name>
            </trkpt>
            <trkpt lat="49.66656" lon="10.0723248">
                <ele>177.0</ele>
                <time>2020-08-23T13:03:55.000Z</time>
                <name>Trackpoint 6941</name>
            </trkpt>
            <trkpt lat="49.6665504" lon="10.0722064">
                <ele>177.0</ele>
                <time>2020-08-23T13:03:57.000Z</time>
                <name>Trackpoint 6942</name>
            </trkpt>
            <trkpt lat="49.6665376" lon="10.0720728">
                <ele>177.0</ele>
                <time>2020-08-23T13:03:59.000Z</time>
                <name>Trackpoint 6943</name>
            </trkpt>
            <trkpt lat="49.6665184" lon="10.0719344">
                <ele>176.0</ele>
                <time>2020-08-23T13:04:01.000Z</time>
                <name>Trackpoint 6944</name>
            </trkpt>
            <trkpt lat="49.6665024" lon="10.0718024">
                <ele>176.0</ele>
                <time>2020-08-23T13:04:03.000Z</time>
                <name>Trackpoint 6945</name>
            </trkpt>
            <trkpt lat="49.6664864" lon="10.0716688">
                <ele>175.0</ele>
                <time>2020-08-23T13:04:05.000Z</time>
                <name>Trackpoint 6946</name>
            </trkpt>
            <trkpt lat="49.6664704" lon="10.0715312">
                <ele>176.0</ele>
                <time>2020-08-23T13:04:07.000Z</time>
                <name>Trackpoint 6947</name>
            </trkpt>
            <trkpt lat="49.666448" lon="10.0713984">
                <ele>175.0</ele>
                <time>2020-08-23T13:04:09.000Z</time>
                <name>Trackpoint 6948</name>
            </trkpt>
            <trkpt lat="49.666432" lon="10.0712616">
                <ele>175.0</ele>
                <time>2020-08-23T13:04:11.000Z</time>
                <name>Trackpoint 6949</name>
            </trkpt>
            <trkpt lat="49.6664128" lon="10.0711232">
                <ele>174.0</ele>
                <time>2020-08-23T13:04:13.000Z</time>
                <name>Trackpoint 6950</name>
            </trkpt>
            <trkpt lat="49.6664" lon="10.0709784">
                <ele>175.0</ele>
                <time>2020-08-23T13:04:15.000Z</time>
                <name>Trackpoint 6951</name>
            </trkpt>
            <trkpt lat="49.6663936" lon="10.0708304">
                <ele>176.0</ele>
                <time>2020-08-23T13:04:17.000Z</time>
                <name>Trackpoint 6952</name>
            </trkpt>
            <trkpt lat="49.6663808" lon="10.0706768">
                <ele>177.0</ele>
                <time>2020-08-23T13:04:19.000Z</time>
                <name>Trackpoint 6953</name>
            </trkpt>
            <trkpt lat="49.6663712" lon="10.070532">
                <ele>177.0</ele>
                <time>2020-08-23T13:04:21.000Z</time>
                <name>Trackpoint 6954</name>
            </trkpt>
            <trkpt lat="49.6663616" lon="10.0703752">
                <ele>178.0</ele>
                <time>2020-08-23T13:04:23.000Z</time>
                <name>Trackpoint 6955</name>
            </trkpt>
            <trkpt lat="49.666352" lon="10.0702312">
                <ele>178.0</ele>
                <time>2020-08-23T13:04:25.000Z</time>
                <name>Trackpoint 6956</name>
            </trkpt>
            <trkpt lat="49.6663424" lon="10.0701016">
                <ele>178.0</ele>
                <time>2020-08-23T13:04:27.000Z</time>
                <name>Trackpoint 6957</name>
            </trkpt>
            <trkpt lat="49.6663392" lon="10.069972">
                <ele>178.0</ele>
                <time>2020-08-23T13:04:29.000Z</time>
                <name>Trackpoint 6958</name>
            </trkpt>
            <trkpt lat="49.666336" lon="10.0698608">
                <ele>179.0</ele>
                <time>2020-08-23T13:04:31.000Z</time>
                <name>Trackpoint 6959</name>
            </trkpt>
            <trkpt lat="49.6663392" lon="10.069728">
                <ele>179.0</ele>
                <time>2020-08-23T13:04:33.000Z</time>
                <name>Trackpoint 6960</name>
            </trkpt>
            <trkpt lat="49.666336" lon="10.0695936">
                <ele>179.0</ele>
                <time>2020-08-23T13:04:35.000Z</time>
                <name>Trackpoint 6961</name>
            </trkpt>
            <trkpt lat="49.6663392" lon="10.06946">
                <ele>180.0</ele>
                <time>2020-08-23T13:04:37.000Z</time>
                <name>Trackpoint 6962</name>
            </trkpt>
            <trkpt lat="49.6663584" lon="10.069332">
                <ele>181.0</ele>
                <time>2020-08-23T13:04:39.000Z</time>
                <name>Trackpoint 6963</name>
            </trkpt>
            <trkpt lat="49.6663936" lon="10.0691832">
                <ele>182.0</ele>
                <time>2020-08-23T13:04:41.000Z</time>
                <name>Trackpoint 6964</name>
            </trkpt>
            <trkpt lat="49.6664096" lon="10.0690496">
                <ele>182.0</ele>
                <time>2020-08-23T13:04:43.000Z</time>
                <name>Trackpoint 6965</name>
            </trkpt>
            <trkpt lat="49.6664096" lon="10.0689096">
                <ele>183.0</ele>
                <time>2020-08-23T13:04:45.000Z</time>
                <name>Trackpoint 6966</name>
            </trkpt>
            <trkpt lat="49.6664192" lon="10.0687648">
                <ele>182.0</ele>
                <time>2020-08-23T13:04:47.000Z</time>
                <name>Trackpoint 6967</name>
            </trkpt>
            <trkpt lat="49.6664288" lon="10.0686256">
                <ele>182.0</ele>
                <time>2020-08-23T13:04:49.000Z</time>
                <name>Trackpoint 6968</name>
            </trkpt>
            <trkpt lat="49.6664352" lon="10.0684832">
                <ele>183.0</ele>
                <time>2020-08-23T13:04:51.000Z</time>
                <name>Trackpoint 6969</name>
            </trkpt>
            <trkpt lat="49.6664352" lon="10.06834">
                <ele>183.0</ele>
                <time>2020-08-23T13:04:53.000Z</time>
                <name>Trackpoint 6970</name>
            </trkpt>
            <trkpt lat="49.666432" lon="10.0682048">
                <ele>184.0</ele>
                <time>2020-08-23T13:04:55.000Z</time>
                <name>Trackpoint 6971</name>
            </trkpt>
            <trkpt lat="49.6664224" lon="10.0680912">
                <ele>183.0</ele>
                <time>2020-08-23T13:04:57.000Z</time>
                <name>Trackpoint 6972</name>
            </trkpt>
            <trkpt lat="49.6664224" lon="10.0679816">
                <ele>183.0</ele>
                <time>2020-08-23T13:04:59.000Z</time>
                <name>Trackpoint 6973</name>
            </trkpt>
            <trkpt lat="49.666432" lon="10.06788">
                <ele>184.0</ele>
                <time>2020-08-23T13:05:01.000Z</time>
                <name>Trackpoint 6974</name>
            </trkpt>
            <trkpt lat="49.6664192" lon="10.0677656">
                <ele>183.0</ele>
                <time>2020-08-23T13:05:04.000Z</time>
                <name>Trackpoint 6975</name>
            </trkpt>
            <trkpt lat="49.6664576" lon="10.06764">
                <ele>183.0</ele>
                <time>2020-08-23T13:05:07.000Z</time>
                <name>Trackpoint 6976</name>
            </trkpt>
            <trkpt lat="49.6664864" lon="10.0675352">
                <ele>183.0</ele>
                <time>2020-08-23T13:05:09.000Z</time>
                <name>Trackpoint 6977</name>
            </trkpt>
            <trkpt lat="49.666496" lon="10.0674296">
                <ele>182.0</ele>
                <time>2020-08-23T13:05:11.000Z</time>
                <name>Trackpoint 6978</name>
            </trkpt>
            <trkpt lat="49.6664992" lon="10.0673352">
                <ele>182.0</ele>
                <time>2020-08-23T13:05:13.000Z</time>
                <name>Trackpoint 6979</name>
            </trkpt>
            <trkpt lat="49.6665024" lon="10.0672104">
                <ele>182.0</ele>
                <time>2020-08-23T13:05:16.000Z</time>
                <name>Trackpoint 6980</name>
            </trkpt>
            <trkpt lat="49.666528" lon="10.0670992">
                <ele>183.0</ele>
                <time>2020-08-23T13:05:19.000Z</time>
                <name>Trackpoint 6981</name>
            </trkpt>
            <trkpt lat="49.6665184" lon="10.066988">
                <ele>183.0</ele>
                <time>2020-08-23T13:06:06.000Z</time>
                <name>Trackpoint 6982</name>
            </trkpt>
            <trkpt lat="49.6664992" lon="10.0668736">
                <ele>184.0</ele>
                <time>2020-08-23T13:06:09.000Z</time>
                <name>Trackpoint 6983</name>
            </trkpt>
            <trkpt lat="49.6664736" lon="10.0667864">
                <ele>184.0</ele>
                <time>2020-08-23T13:06:11.000Z</time>
                <name>Trackpoint 6984</name>
            </trkpt>
            <trkpt lat="49.66648" lon="10.0666664">
                <ele>184.0</ele>
                <time>2020-08-23T13:06:13.000Z</time>
                <name>Trackpoint 6985</name>
            </trkpt>
            <trkpt lat="49.666496" lon="10.066528">
                <ele>185.0</ele>
                <time>2020-08-23T13:06:15.000Z</time>
                <name>Trackpoint 6986</name>
            </trkpt>
            <trkpt lat="49.6665024" lon="10.0663816">
                <ele>184.0</ele>
                <time>2020-08-23T13:06:17.000Z</time>
                <name>Trackpoint 6987</name>
            </trkpt>
            <trkpt lat="49.6665152" lon="10.0662272">
                <ele>184.0</ele>
                <time>2020-08-23T13:06:19.000Z</time>
                <name>Trackpoint 6988</name>
            </trkpt>
            <trkpt lat="49.666512" lon="10.0660736">
                <ele>183.0</ele>
                <time>2020-08-23T13:06:21.000Z</time>
                <name>Trackpoint 6989</name>
            </trkpt>
            <trkpt lat="49.666512" lon="10.0659176">
                <ele>182.0</ele>
                <time>2020-08-23T13:06:23.000Z</time>
                <name>Trackpoint 6990</name>
            </trkpt>
            <trkpt lat="49.6665152" lon="10.065768">
                <ele>182.0</ele>
                <time>2020-08-23T13:06:25.000Z</time>
                <name>Trackpoint 6991</name>
            </trkpt>
            <trkpt lat="49.6665216" lon="10.0656208">
                <ele>182.0</ele>
                <time>2020-08-23T13:06:27.000Z</time>
                <name>Trackpoint 6992</name>
            </trkpt>
            <trkpt lat="49.6665216" lon="10.0654784">
                <ele>182.0</ele>
                <time>2020-08-23T13:06:29.000Z</time>
                <name>Trackpoint 6993</name>
            </trkpt>
            <trkpt lat="49.6665184" lon="10.06534">
                <ele>181.0</ele>
                <time>2020-08-23T13:06:31.000Z</time>
                <name>Trackpoint 6994</name>
            </trkpt>
            <trkpt lat="49.666528" lon="10.065204">
                <ele>182.0</ele>
                <time>2020-08-23T13:06:33.000Z</time>
                <name>Trackpoint 6995</name>
            </trkpt>
            <trkpt lat="49.6665184" lon="10.0650528">
                <ele>180.0</ele>
                <time>2020-08-23T13:06:35.000Z</time>
                <name>Trackpoint 6996</name>
            </trkpt>
            <trkpt lat="49.6665152" lon="10.0649048">
                <ele>180.0</ele>
                <time>2020-08-23T13:06:37.000Z</time>
                <name>Trackpoint 6997</name>
            </trkpt>
            <trkpt lat="49.6665184" lon="10.0647536">
                <ele>180.0</ele>
                <time>2020-08-23T13:06:39.000Z</time>
                <name>Trackpoint 6998</name>
            </trkpt>
            <trkpt lat="49.6665152" lon="10.0646088">
                <ele>180.0</ele>
                <time>2020-08-23T13:06:41.000Z</time>
                <name>Trackpoint 6999</name>
            </trkpt>
            <trkpt lat="49.666528" lon="10.0644464">
                <ele>180.0</ele>
                <time>2020-08-23T13:06:43.000Z</time>
                <name>Trackpoint 7000</name>
            </trkpt>
            <trkpt lat="49.6665216" lon="10.064292">
                <ele>180.0</ele>
                <time>2020-08-23T13:06:45.000Z</time>
                <name>Trackpoint 7001</name>
            </trkpt>
            <trkpt lat="49.6665184" lon="10.064132">
                <ele>180.0</ele>
                <time>2020-08-23T13:06:47.000Z</time>
                <name>Trackpoint 7002</name>
            </trkpt>
            <trkpt lat="49.6665152" lon="10.0639696">
                <ele>180.0</ele>
                <time>2020-08-23T13:06:49.000Z</time>
                <name>Trackpoint 7003</name>
            </trkpt>
            <trkpt lat="49.666512" lon="10.0638176">
                <ele>180.0</ele>
                <time>2020-08-23T13:06:51.000Z</time>
                <name>Trackpoint 7004</name>
            </trkpt>
            <trkpt lat="49.666512" lon="10.0636704">
                <ele>179.0</ele>
                <time>2020-08-23T13:06:53.000Z</time>
                <name>Trackpoint 7005</name>
            </trkpt>
            <trkpt lat="49.6665024" lon="10.0635272">
                <ele>179.0</ele>
                <time>2020-08-23T13:06:55.000Z</time>
                <name>Trackpoint 7006</name>
            </trkpt>
            <trkpt lat="49.6665088" lon="10.063388">
                <ele>179.0</ele>
                <time>2020-08-23T13:06:57.000Z</time>
                <name>Trackpoint 7007</name>
            </trkpt>
            <trkpt lat="49.6665088" lon="10.0632664">
                <ele>179.0</ele>
                <time>2020-08-23T13:06:59.000Z</time>
                <name>Trackpoint 7008</name>
            </trkpt>
            <trkpt lat="49.6665152" lon="10.0631648">
                <ele>179.0</ele>
                <time>2020-08-23T13:07:01.000Z</time>
                <name>Trackpoint 7009</name>
            </trkpt>
            <trkpt lat="49.6665376" lon="10.0630712">
                <ele>180.0</ele>
                <time>2020-08-23T13:07:04.000Z</time>
                <name>Trackpoint 7010</name>
            </trkpt>
            <trkpt lat="49.666448" lon="10.063048">
                <ele>179.0</ele>
                <time>2020-08-23T13:09:26.000Z</time>
                <name>Trackpoint 7011</name>
            </trkpt>
            <trkpt lat="49.6663488" lon="10.0630776">
                <ele>179.0</ele>
                <time>2020-08-23T13:09:30.000Z</time>
                <name>Trackpoint 7012</name>
            </trkpt>
            <trkpt lat="49.666256" lon="10.0630816">
                <ele>179.0</ele>
                <time>2020-08-23T13:09:33.000Z</time>
                <name>Trackpoint 7013</name>
            </trkpt>
            <trkpt lat="49.6661536" lon="10.0630528">
                <ele>179.0</ele>
                <time>2020-08-23T13:09:37.000Z</time>
                <name>Trackpoint 7014</name>
            </trkpt>
            <trkpt lat="49.6660544" lon="10.0630528">
                <ele>179.0</ele>
                <time>2020-08-23T13:09:42.000Z</time>
                <name>Trackpoint 7015</name>
            </trkpt>
            <trkpt lat="49.6659648" lon="10.0631088">
                <ele>179.0</ele>
                <time>2020-08-23T13:09:47.000Z</time>
                <name>Trackpoint 7016</name>
            </trkpt>
            <trkpt lat="49.6658976" lon="10.0631904">
                <ele>179.0</ele>
                <time>2020-08-23T13:09:53.000Z</time>
                <name>Trackpoint 7017</name>
            </trkpt>
            <trkpt lat="49.6658912" lon="10.0632888">
                <ele>179.0</ele>
                <time>2020-08-23T13:10:01.000Z</time>
                <name>Trackpoint 7018</name>
            </trkpt>
            <trkpt lat="49.6659552" lon="10.0633768">
                <ele>179.0</ele>
                <time>2020-08-23T13:10:09.000Z</time>
                <name>Trackpoint 7019</name>
            </trkpt>
            <trkpt lat="49.6660224" lon="10.0634616">
                <ele>179.0</ele>
                <time>2020-08-23T13:10:17.000Z</time>
                <name>Trackpoint 7020</name>
            </trkpt>
            <trkpt lat="49.6661152" lon="10.0634416">
                <ele>179.0</ele>
                <time>2020-08-23T13:11:05.000Z</time>
                <name>Trackpoint 7021</name>
            </trkpt>
            <trkpt lat="49.666224" lon="10.0634672">
                <ele>179.0</ele>
                <time>2020-08-23T13:11:09.000Z</time>
                <name>Trackpoint 7022</name>
            </trkpt>
            <trkpt lat="49.6663296" lon="10.063488">
                <ele>179.0</ele>
                <time>2020-08-23T13:11:12.000Z</time>
                <name>Trackpoint 7023</name>
            </trkpt>
            <trkpt lat="49.6664352" lon="10.0634896">
                <ele>179.0</ele>
                <time>2020-08-23T13:11:15.000Z</time>
                <name>Trackpoint 7024</name>
            </trkpt>
            <trkpt lat="49.6665376" lon="10.0635008">
                <ele>179.0</ele>
                <time>2020-08-23T13:11:18.000Z</time>
                <name>Trackpoint 7025</name>
            </trkpt>
            <trkpt lat="49.6666336" lon="10.0635032">
                <ele>179.0</ele>
                <time>2020-08-23T13:11:21.000Z</time>
                <name>Trackpoint 7026</name>
            </trkpt>
            <trkpt lat="49.666736" lon="10.0635048">
                <ele>179.0</ele>
                <time>2020-08-23T13:11:24.000Z</time>
                <name>Trackpoint 7027</name>
            </trkpt>
            <trkpt lat="49.6668512" lon="10.0635184">
                <ele>180.0</ele>
                <time>2020-08-23T13:11:28.000Z</time>
                <name>Trackpoint 7028</name>
            </trkpt>
            <trkpt lat="49.6669632" lon="10.063532">
                <ele>180.0</ele>
                <time>2020-08-23T13:11:32.000Z</time>
                <name>Trackpoint 7029</name>
            </trkpt>
            <trkpt lat="49.6670656" lon="10.0635248">
                <ele>180.0</ele>
                <time>2020-08-23T13:11:37.000Z</time>
                <name>Trackpoint 7030</name>
            </trkpt>
            <trkpt lat="49.6671616" lon="10.0635048">
                <ele>180.0</ele>
                <time>2020-08-23T13:13:14.000Z</time>
                <name>Trackpoint 7031</name>
            </trkpt>
            <trkpt lat="49.6672608" lon="10.0635048">
                <ele>180.0</ele>
                <time>2020-08-23T13:13:19.000Z</time>
                <name>Trackpoint 7032</name>
            </trkpt>
            <trkpt lat="49.6673696" lon="10.0635096">
                <ele>180.0</ele>
                <time>2020-08-23T13:13:23.000Z</time>
                <name>Trackpoint 7033</name>
            </trkpt>
            <trkpt lat="49.6674624" lon="10.0635072">
                <ele>180.0</ele>
                <time>2020-08-23T13:13:26.000Z</time>
                <name>Trackpoint 7034</name>
            </trkpt>
            <trkpt lat="49.6675936" lon="10.0635016">
                <ele>180.0</ele>
                <time>2020-08-23T13:13:30.000Z</time>
                <name>Trackpoint 7035</name>
            </trkpt>
            <trkpt lat="49.6677248" lon="10.0634944">
                <ele>180.0</ele>
                <time>2020-08-23T13:13:33.000Z</time>
                <name>Trackpoint 7036</name>
            </trkpt>
            <trkpt lat="49.6678592" lon="10.0634848">
                <ele>180.0</ele>
                <time>2020-08-23T13:13:36.000Z</time>
                <name>Trackpoint 7037</name>
            </trkpt>
            <trkpt lat="49.6679904" lon="10.0634768">
                <ele>180.0</ele>
                <time>2020-08-23T13:13:39.000Z</time>
                <name>Trackpoint 7038</name>
            </trkpt>
            <trkpt lat="49.6681216" lon="10.063468">
                <ele>180.0</ele>
                <time>2020-08-23T13:13:42.000Z</time>
                <name>Trackpoint 7039</name>
            </trkpt>
            <trkpt lat="49.6682368" lon="10.0634584">
                <ele>180.0</ele>
                <time>2020-08-23T13:13:45.000Z</time>
                <name>Trackpoint 7040</name>
            </trkpt>
            <trkpt lat="49.6683296" lon="10.0634616">
                <ele>181.0</ele>
                <time>2020-08-23T13:13:48.000Z</time>
                <name>Trackpoint 7041</name>
            </trkpt>
            <trkpt lat="49.668416" lon="10.0634296">
                <ele>181.0</ele>
                <time>2020-08-23T13:14:07.000Z</time>
                <name>Trackpoint 7042</name>
            </trkpt>
            <trkpt lat="49.6684288" lon="10.0633296">
                <ele>181.0</ele>
                <time>2020-08-23T13:14:12.000Z</time>
                <name>Trackpoint 7043</name>
            </trkpt>
            <trkpt lat="49.6684224" lon="10.0632216">
                <ele>181.0</ele>
                <time>2020-08-23T13:14:14.000Z</time>
                <name>Trackpoint 7044</name>
            </trkpt>
            <trkpt lat="49.6684224" lon="10.063104">
                <ele>181.0</ele>
                <time>2020-08-23T13:14:16.000Z</time>
                <name>Trackpoint 7045</name>
            </trkpt>
            <trkpt lat="49.668416" lon="10.06296">
                <ele>181.0</ele>
                <time>2020-08-23T13:14:18.000Z</time>
                <name>Trackpoint 7046</name>
            </trkpt>
            <trkpt lat="49.6684" lon="10.0628168">
                <ele>181.0</ele>
                <time>2020-08-23T13:14:20.000Z</time>
                <name>Trackpoint 7047</name>
            </trkpt>
            <trkpt lat="49.6683744" lon="10.062688">
                <ele>181.0</ele>
                <time>2020-08-23T13:14:22.000Z</time>
                <name>Trackpoint 7048</name>
            </trkpt>
            <trkpt lat="49.6683456" lon="10.0625952">
                <ele>181.0</ele>
                <time>2020-08-23T13:14:24.000Z</time>
                <name>Trackpoint 7049</name>
            </trkpt>
            <trkpt lat="49.6683168" lon="10.0625">
                <ele>181.0</ele>
                <time>2020-08-23T13:14:26.000Z</time>
                <name>Trackpoint 7050</name>
            </trkpt>
            <trkpt lat="49.6682944" lon="10.062384">
                <ele>180.0</ele>
                <time>2020-08-23T13:14:28.000Z</time>
                <name>Trackpoint 7051</name>
            </trkpt>
            <trkpt lat="49.6682944" lon="10.062252">
                <ele>180.0</ele>
                <time>2020-08-23T13:14:30.000Z</time>
                <name>Trackpoint 7052</name>
            </trkpt>
            <trkpt lat="49.6682976" lon="10.062108">
                <ele>181.0</ele>
                <time>2020-08-23T13:14:32.000Z</time>
                <name>Trackpoint 7053</name>
            </trkpt>
            <trkpt lat="49.6683008" lon="10.0619584">
                <ele>181.0</ele>
                <time>2020-08-23T13:14:34.000Z</time>
                <name>Trackpoint 7054</name>
            </trkpt>
            <trkpt lat="49.6683008" lon="10.0618112">
                <ele>181.0</ele>
                <time>2020-08-23T13:14:36.000Z</time>
                <name>Trackpoint 7055</name>
            </trkpt>
            <trkpt lat="49.6683072" lon="10.0616664">
                <ele>181.0</ele>
                <time>2020-08-23T13:14:38.000Z</time>
                <name>Trackpoint 7056</name>
            </trkpt>
            <trkpt lat="49.66832" lon="10.0615016">
                <ele>181.0</ele>
                <time>2020-08-23T13:14:40.000Z</time>
                <name>Trackpoint 7057</name>
            </trkpt>
            <trkpt lat="49.668336" lon="10.0613368">
                <ele>181.0</ele>
                <time>2020-08-23T13:14:42.000Z</time>
                <name>Trackpoint 7058</name>
            </trkpt>
            <trkpt lat="49.6683488" lon="10.0611896">
                <ele>181.0</ele>
                <time>2020-08-23T13:14:44.000Z</time>
                <name>Trackpoint 7059</name>
            </trkpt>
            <trkpt lat="49.6683584" lon="10.0610536">
                <ele>181.0</ele>
                <time>2020-08-23T13:14:46.000Z</time>
                <name>Trackpoint 7060</name>
            </trkpt>
            <trkpt lat="49.668368" lon="10.0609128">
                <ele>181.0</ele>
                <time>2020-08-23T13:14:48.000Z</time>
                <name>Trackpoint 7061</name>
            </trkpt>
            <trkpt lat="49.6683936" lon="10.0607856">
                <ele>181.0</ele>
                <time>2020-08-23T13:14:50.000Z</time>
                <name>Trackpoint 7062</name>
            </trkpt>
            <trkpt lat="49.6684128" lon="10.0606536">
                <ele>181.0</ele>
                <time>2020-08-23T13:14:52.000Z</time>
                <name>Trackpoint 7063</name>
            </trkpt>
            <trkpt lat="49.6684384" lon="10.0605288">
                <ele>181.0</ele>
                <time>2020-08-23T13:14:54.000Z</time>
                <name>Trackpoint 7064</name>
            </trkpt>
            <trkpt lat="49.6684576" lon="10.0603936">
                <ele>181.0</ele>
                <time>2020-08-23T13:14:56.000Z</time>
                <name>Trackpoint 7065</name>
            </trkpt>
            <trkpt lat="49.6684608" lon="10.0602952">
                <ele>181.0</ele>
                <time>2020-08-23T13:14:57.000Z</time>
                <name>Trackpoint 7066</name>
            </trkpt>
            <trkpt lat="49.6684672" lon="10.0602016">
                <ele>181.0</ele>
                <time>2020-08-23T13:14:58.000Z</time>
                <name>Trackpoint 7067</name>
            </trkpt>
            <trkpt lat="49.66848" lon="10.0600408">
                <ele>181.0</ele>
                <time>2020-08-23T13:15:00.000Z</time>
                <name>Trackpoint 7068</name>
            </trkpt>
            <trkpt lat="49.668496" lon="10.059868">
                <ele>181.0</ele>
                <time>2020-08-23T13:15:02.000Z</time>
                <name>Trackpoint 7069</name>
            </trkpt>
            <trkpt lat="49.6685056" lon="10.0597088">
                <ele>181.0</ele>
                <time>2020-08-23T13:15:04.000Z</time>
                <name>Trackpoint 7070</name>
            </trkpt>
            <trkpt lat="49.6685184" lon="10.059544">
                <ele>181.0</ele>
                <time>2020-08-23T13:15:06.000Z</time>
                <name>Trackpoint 7071</name>
            </trkpt>
            <trkpt lat="49.6685216" lon="10.0593816">
                <ele>181.0</ele>
                <time>2020-08-23T13:15:08.000Z</time>
                <name>Trackpoint 7072</name>
            </trkpt>
            <trkpt lat="49.6685408" lon="10.0592168">
                <ele>181.0</ele>
                <time>2020-08-23T13:15:10.000Z</time>
                <name>Trackpoint 7073</name>
            </trkpt>
            <trkpt lat="49.6685632" lon="10.0590496">
                <ele>181.0</ele>
                <time>2020-08-23T13:15:12.000Z</time>
                <name>Trackpoint 7074</name>
            </trkpt>
            <trkpt lat="49.6685984" lon="10.0588768">
                <ele>181.0</ele>
                <time>2020-08-23T13:15:14.000Z</time>
                <name>Trackpoint 7075</name>
            </trkpt>
            <trkpt lat="49.6685984" lon="10.0587704">
                <ele>181.0</ele>
                <time>2020-08-23T13:15:15.000Z</time>
                <name>Trackpoint 7076</name>
            </trkpt>
            <trkpt lat="49.6686048" lon="10.0585944">
                <ele>181.0</ele>
                <time>2020-08-23T13:15:17.000Z</time>
                <name>Trackpoint 7077</name>
            </trkpt>
            <trkpt lat="49.6685856" lon="10.0584296">
                <ele>181.0</ele>
                <time>2020-08-23T13:15:19.000Z</time>
                <name>Trackpoint 7078</name>
            </trkpt>
            <trkpt lat="49.6685824" lon="10.0583">
                <ele>181.0</ele>
                <time>2020-08-23T13:15:21.000Z</time>
                <name>Trackpoint 7079</name>
            </trkpt>
            <trkpt lat="49.6685856" lon="10.0581864">
                <ele>181.0</ele>
                <time>2020-08-23T13:15:23.000Z</time>
                <name>Trackpoint 7080</name>
            </trkpt>
            <trkpt lat="49.6685984" lon="10.058092">
                <ele>181.0</ele>
                <time>2020-08-23T13:15:25.000Z</time>
                <name>Trackpoint 7081</name>
            </trkpt>
            <trkpt lat="49.6686176" lon="10.0579584">
                <ele>180.0</ele>
                <time>2020-08-23T13:15:27.000Z</time>
                <name>Trackpoint 7082</name>
            </trkpt>
            <trkpt lat="49.66864" lon="10.0578696">
                <ele>180.0</ele>
                <time>2020-08-23T13:15:30.000Z</time>
                <name>Trackpoint 7083</name>
            </trkpt>
            <trkpt lat="49.6686592" lon="10.05776">
                <ele>180.0</ele>
                <time>2020-08-23T13:15:51.000Z</time>
                <name>Trackpoint 7084</name>
            </trkpt>
            <trkpt lat="49.6686816" lon="10.057656">
                <ele>180.0</ele>
                <time>2020-08-23T13:15:56.000Z</time>
                <name>Trackpoint 7085</name>
            </trkpt>
            <trkpt lat="49.6686816" lon="10.0575648">
                <ele>180.0</ele>
                <time>2020-08-23T13:15:58.000Z</time>
                <name>Trackpoint 7086</name>
            </trkpt>
            <trkpt lat="49.6686912" lon="10.0574688">
                <ele>180.0</ele>
                <time>2020-08-23T13:16:00.000Z</time>
                <name>Trackpoint 7087</name>
            </trkpt>
            <trkpt lat="49.6686976" lon="10.0573456">
                <ele>180.0</ele>
                <time>2020-08-23T13:16:02.000Z</time>
                <name>Trackpoint 7088</name>
            </trkpt>
            <trkpt lat="49.6687264" lon="10.0572184">
                <ele>180.0</ele>
                <time>2020-08-23T13:16:04.000Z</time>
                <name>Trackpoint 7089</name>
            </trkpt>
            <trkpt lat="49.6687712" lon="10.057068">
                <ele>180.0</ele>
                <time>2020-08-23T13:16:06.000Z</time>
                <name>Trackpoint 7090</name>
            </trkpt>
            <trkpt lat="49.668816" lon="10.0569264">
                <ele>180.0</ele>
                <time>2020-08-23T13:16:08.000Z</time>
                <name>Trackpoint 7091</name>
            </trkpt>
            <trkpt lat="49.6688576" lon="10.0567976">
                <ele>180.0</ele>
                <time>2020-08-23T13:16:10.000Z</time>
                <name>Trackpoint 7092</name>
            </trkpt>
            <trkpt lat="49.6688992" lon="10.0566728">
                <ele>180.0</ele>
                <time>2020-08-23T13:16:12.000Z</time>
                <name>Trackpoint 7093</name>
            </trkpt>
            <trkpt lat="49.6689376" lon="10.0565384">
                <ele>180.0</ele>
                <time>2020-08-23T13:16:14.000Z</time>
                <name>Trackpoint 7094</name>
            </trkpt>
            <trkpt lat="49.6689728" lon="10.0564">
                <ele>180.0</ele>
                <time>2020-08-23T13:16:16.000Z</time>
                <name>Trackpoint 7095</name>
            </trkpt>
            <trkpt lat="49.6690112" lon="10.0562632">
                <ele>180.0</ele>
                <time>2020-08-23T13:16:18.000Z</time>
                <name>Trackpoint 7096</name>
            </trkpt>
            <trkpt lat="49.6690368" lon="10.0561288">
                <ele>180.0</ele>
                <time>2020-08-23T13:16:20.000Z</time>
                <name>Trackpoint 7097</name>
            </trkpt>
            <trkpt lat="49.6690752" lon="10.0559952">
                <ele>180.0</ele>
                <time>2020-08-23T13:16:22.000Z</time>
                <name>Trackpoint 7098</name>
            </trkpt>
            <trkpt lat="49.6691136" lon="10.0558568">
                <ele>180.0</ele>
                <time>2020-08-23T13:16:24.000Z</time>
                <name>Trackpoint 7099</name>
            </trkpt>
            <trkpt lat="49.6691552" lon="10.0557136">
                <ele>180.0</ele>
                <time>2020-08-23T13:16:26.000Z</time>
                <name>Trackpoint 7100</name>
            </trkpt>
            <trkpt lat="49.6692" lon="10.0555688">
                <ele>180.0</ele>
                <time>2020-08-23T13:16:28.000Z</time>
                <name>Trackpoint 7101</name>
            </trkpt>
            <trkpt lat="49.6692384" lon="10.0554264">
                <ele>179.0</ele>
                <time>2020-08-23T13:16:30.000Z</time>
                <name>Trackpoint 7102</name>
            </trkpt>
            <trkpt lat="49.66928" lon="10.055292">
                <ele>179.0</ele>
                <time>2020-08-23T13:16:32.000Z</time>
                <name>Trackpoint 7103</name>
            </trkpt>
            <trkpt lat="49.669328" lon="10.0551528">
                <ele>180.0</ele>
                <time>2020-08-23T13:16:34.000Z</time>
                <name>Trackpoint 7104</name>
            </trkpt>
            <trkpt lat="49.6693568" lon="10.0550072">
                <ele>180.0</ele>
                <time>2020-08-23T13:16:36.000Z</time>
                <name>Trackpoint 7105</name>
            </trkpt>
            <trkpt lat="49.6693984" lon="10.0548536">
                <ele>180.0</ele>
                <time>2020-08-23T13:16:38.000Z</time>
                <name>Trackpoint 7106</name>
            </trkpt>
            <trkpt lat="49.6694464" lon="10.0546968">
                <ele>179.0</ele>
                <time>2020-08-23T13:16:40.000Z</time>
                <name>Trackpoint 7107</name>
            </trkpt>
            <trkpt lat="49.6694912" lon="10.0545456">
                <ele>179.0</ele>
                <time>2020-08-23T13:16:42.000Z</time>
                <name>Trackpoint 7108</name>
            </trkpt>
            <trkpt lat="49.6695264" lon="10.0543848">
                <ele>179.0</ele>
                <time>2020-08-23T13:16:44.000Z</time>
                <name>Trackpoint 7109</name>
            </trkpt>
            <trkpt lat="49.6695392" lon="10.0542232">
                <ele>179.0</ele>
                <time>2020-08-23T13:16:46.000Z</time>
                <name>Trackpoint 7110</name>
            </trkpt>
            <trkpt lat="49.6695584" lon="10.0540664">
                <ele>179.0</ele>
                <time>2020-08-23T13:16:48.000Z</time>
                <name>Trackpoint 7111</name>
            </trkpt>
            <trkpt lat="49.6695776" lon="10.0539104">
                <ele>179.0</ele>
                <time>2020-08-23T13:16:50.000Z</time>
                <name>Trackpoint 7112</name>
            </trkpt>
            <trkpt lat="49.6696128" lon="10.0537432">
                <ele>179.0</ele>
                <time>2020-08-23T13:16:52.000Z</time>
                <name>Trackpoint 7113</name>
            </trkpt>
            <trkpt lat="49.6696448" lon="10.0535832">
                <ele>179.0</ele>
                <time>2020-08-23T13:16:54.000Z</time>
                <name>Trackpoint 7114</name>
            </trkpt>
            <trkpt lat="49.6696704" lon="10.0534336">
                <ele>179.0</ele>
                <time>2020-08-23T13:16:56.000Z</time>
                <name>Trackpoint 7115</name>
            </trkpt>
            <trkpt lat="49.669712" lon="10.0532864">
                <ele>179.0</ele>
                <time>2020-08-23T13:16:58.000Z</time>
                <name>Trackpoint 7116</name>
            </trkpt>
            <trkpt lat="49.6697568" lon="10.05314">
                <ele>179.0</ele>
                <time>2020-08-23T13:17:00.000Z</time>
                <name>Trackpoint 7117</name>
            </trkpt>
            <trkpt lat="49.6697984" lon="10.0529896">
                <ele>179.0</ele>
                <time>2020-08-23T13:17:02.000Z</time>
                <name>Trackpoint 7118</name>
            </trkpt>
            <trkpt lat="49.6698432" lon="10.052848">
                <ele>179.0</ele>
                <time>2020-08-23T13:17:04.000Z</time>
                <name>Trackpoint 7119</name>
            </trkpt>
            <trkpt lat="49.6698784" lon="10.0527048">
                <ele>179.0</ele>
                <time>2020-08-23T13:17:06.000Z</time>
                <name>Trackpoint 7120</name>
            </trkpt>
            <trkpt lat="49.6699168" lon="10.0525568">
                <ele>179.0</ele>
                <time>2020-08-23T13:17:08.000Z</time>
                <name>Trackpoint 7121</name>
            </trkpt>
            <trkpt lat="49.6699552" lon="10.0524168">
                <ele>179.0</ele>
                <time>2020-08-23T13:17:10.000Z</time>
                <name>Trackpoint 7122</name>
            </trkpt>
            <trkpt lat="49.6700064" lon="10.052288">
                <ele>179.0</ele>
                <time>2020-08-23T13:17:12.000Z</time>
                <name>Trackpoint 7123</name>
            </trkpt>
            <trkpt lat="49.670064" lon="10.0521584">
                <ele>179.0</ele>
                <time>2020-08-23T13:17:14.000Z</time>
                <name>Trackpoint 7124</name>
            </trkpt>
            <trkpt lat="49.6701152" lon="10.0520384">
                <ele>179.0</ele>
                <time>2020-08-23T13:17:16.000Z</time>
                <name>Trackpoint 7125</name>
            </trkpt>
            <trkpt lat="49.6701664" lon="10.0519248">
                <ele>179.0</ele>
                <time>2020-08-23T13:17:18.000Z</time>
                <name>Trackpoint 7126</name>
            </trkpt>
            <trkpt lat="49.6702208" lon="10.0518152">
                <ele>179.0</ele>
                <time>2020-08-23T13:17:20.000Z</time>
                <name>Trackpoint 7127</name>
            </trkpt>
            <trkpt lat="49.6702688" lon="10.0517256">
                <ele>179.0</ele>
                <time>2020-08-23T13:17:22.000Z</time>
                <name>Trackpoint 7128</name>
            </trkpt>
            <trkpt lat="49.6703136" lon="10.0516304">
                <ele>179.0</ele>
                <time>2020-08-23T13:17:24.000Z</time>
                <name>Trackpoint 7129</name>
            </trkpt>
            <trkpt lat="49.6703648" lon="10.0515384">
                <ele>179.0</ele>
                <time>2020-08-23T13:17:26.000Z</time>
                <name>Trackpoint 7130</name>
            </trkpt>
            <trkpt lat="49.6704128" lon="10.0514536">
                <ele>179.0</ele>
                <time>2020-08-23T13:17:28.000Z</time>
                <name>Trackpoint 7131</name>
            </trkpt>
            <trkpt lat="49.6704832" lon="10.0513448">
                <ele>179.0</ele>
                <time>2020-08-23T13:17:31.000Z</time>
                <name>Trackpoint 7132</name>
            </trkpt>
            <trkpt lat="49.6705408" lon="10.0512712">
                <ele>179.0</ele>
                <time>2020-08-23T13:17:34.000Z</time>
                <name>Trackpoint 7133</name>
            </trkpt>
            <trkpt lat="49.6705984" lon="10.0511648">
                <ele>179.0</ele>
                <time>2020-08-23T13:18:05.000Z</time>
                <name>Trackpoint 7134</name>
            </trkpt>
            <trkpt lat="49.6706688" lon="10.0510568">
                <ele>179.0</ele>
                <time>2020-08-23T13:18:08.000Z</time>
                <name>Trackpoint 7135</name>
            </trkpt>
            <trkpt lat="49.6707264" lon="10.0509728">
                <ele>179.0</ele>
                <time>2020-08-23T13:18:10.000Z</time>
                <name>Trackpoint 7136</name>
            </trkpt>
            <trkpt lat="49.6707904" lon="10.0508808">
                <ele>179.0</ele>
                <time>2020-08-23T13:18:12.000Z</time>
                <name>Trackpoint 7137</name>
            </trkpt>
            <trkpt lat="49.670864" lon="10.0507768">
                <ele>179.0</ele>
                <time>2020-08-23T13:18:14.000Z</time>
                <name>Trackpoint 7138</name>
            </trkpt>
            <trkpt lat="49.6709312" lon="10.0506688">
                <ele>179.0</ele>
                <time>2020-08-23T13:18:16.000Z</time>
                <name>Trackpoint 7139</name>
            </trkpt>
            <trkpt lat="49.671008" lon="10.0505632">
                <ele>179.0</ele>
                <time>2020-08-23T13:18:18.000Z</time>
                <name>Trackpoint 7140</name>
            </trkpt>
            <trkpt lat="49.6710848" lon="10.05046">
                <ele>179.0</ele>
                <time>2020-08-23T13:18:20.000Z</time>
                <name>Trackpoint 7141</name>
            </trkpt>
            <trkpt lat="49.6711648" lon="10.0503632">
                <ele>179.0</ele>
                <time>2020-08-23T13:18:22.000Z</time>
                <name>Trackpoint 7142</name>
            </trkpt>
            <trkpt lat="49.6712448" lon="10.0502552">
                <ele>179.0</ele>
                <time>2020-08-23T13:18:24.000Z</time>
                <name>Trackpoint 7143</name>
            </trkpt>
            <trkpt lat="49.6713184" lon="10.0501568">
                <ele>179.0</ele>
                <time>2020-08-23T13:18:26.000Z</time>
                <name>Trackpoint 7144</name>
            </trkpt>
            <trkpt lat="49.6713856" lon="10.050048">
                <ele>179.0</ele>
                <time>2020-08-23T13:18:28.000Z</time>
                <name>Trackpoint 7145</name>
            </trkpt>
            <trkpt lat="49.6714368" lon="10.0499152">
                <ele>179.0</ele>
                <time>2020-08-23T13:18:30.000Z</time>
                <name>Trackpoint 7146</name>
            </trkpt>
            <trkpt lat="49.671504" lon="10.0497864">
                <ele>179.0</ele>
                <time>2020-08-23T13:18:32.000Z</time>
                <name>Trackpoint 7147</name>
            </trkpt>
            <trkpt lat="49.6715904" lon="10.0496816">
                <ele>179.0</ele>
                <time>2020-08-23T13:18:34.000Z</time>
                <name>Trackpoint 7148</name>
            </trkpt>
            <trkpt lat="49.6716768" lon="10.0495864">
                <ele>179.0</ele>
                <time>2020-08-23T13:18:36.000Z</time>
                <name>Trackpoint 7149</name>
            </trkpt>
            <trkpt lat="49.6717568" lon="10.0494856">
                <ele>179.0</ele>
                <time>2020-08-23T13:18:38.000Z</time>
                <name>Trackpoint 7150</name>
            </trkpt>
            <trkpt lat="49.6718336" lon="10.049392">
                <ele>179.0</ele>
                <time>2020-08-23T13:18:40.000Z</time>
                <name>Trackpoint 7151</name>
            </trkpt>
            <trkpt lat="49.671904" lon="10.0492752">
                <ele>179.0</ele>
                <time>2020-08-23T13:18:42.000Z</time>
                <name>Trackpoint 7152</name>
            </trkpt>
            <trkpt lat="49.6719744" lon="10.0491584">
                <ele>179.0</ele>
                <time>2020-08-23T13:18:44.000Z</time>
                <name>Trackpoint 7153</name>
            </trkpt>
            <trkpt lat="49.6720416" lon="10.0490616">
                <ele>179.0</ele>
                <time>2020-08-23T13:18:46.000Z</time>
                <name>Trackpoint 7154</name>
            </trkpt>
            <trkpt lat="49.672112" lon="10.048972">
                <ele>179.0</ele>
                <time>2020-08-23T13:18:48.000Z</time>
                <name>Trackpoint 7155</name>
            </trkpt>
            <trkpt lat="49.6721792" lon="10.0488768">
                <ele>179.0</ele>
                <time>2020-08-23T13:18:50.000Z</time>
                <name>Trackpoint 7156</name>
            </trkpt>
            <trkpt lat="49.6722528" lon="10.0488056">
                <ele>179.0</ele>
                <time>2020-08-23T13:18:52.000Z</time>
                <name>Trackpoint 7157</name>
            </trkpt>
            <trkpt lat="49.67232" lon="10.0487232">
                <ele>179.0</ele>
                <time>2020-08-23T13:18:54.000Z</time>
                <name>Trackpoint 7158</name>
            </trkpt>
            <trkpt lat="49.6723904" lon="10.0486232">
                <ele>179.0</ele>
                <time>2020-08-23T13:18:56.000Z</time>
                <name>Trackpoint 7159</name>
            </trkpt>
            <trkpt lat="49.6724544" lon="10.0485048">
                <ele>179.0</ele>
                <time>2020-08-23T13:18:58.000Z</time>
                <name>Trackpoint 7160</name>
            </trkpt>
            <trkpt lat="49.6725312" lon="10.0483912">
                <ele>179.0</ele>
                <time>2020-08-23T13:19:00.000Z</time>
                <name>Trackpoint 7161</name>
            </trkpt>
            <trkpt lat="49.6725984" lon="10.0482752">
                <ele>179.0</ele>
                <time>2020-08-23T13:19:02.000Z</time>
                <name>Trackpoint 7162</name>
            </trkpt>
            <trkpt lat="49.672672" lon="10.0481456">
                <ele>179.0</ele>
                <time>2020-08-23T13:19:04.000Z</time>
                <name>Trackpoint 7163</name>
            </trkpt>
            <trkpt lat="49.672736" lon="10.0480432">
                <ele>179.0</ele>
                <time>2020-08-23T13:19:06.000Z</time>
                <name>Trackpoint 7164</name>
            </trkpt>
            <trkpt lat="49.6728096" lon="10.04794">
                <ele>179.0</ele>
                <time>2020-08-23T13:19:08.000Z</time>
                <name>Trackpoint 7165</name>
            </trkpt>
            <trkpt lat="49.6728768" lon="10.04784">
                <ele>179.0</ele>
                <time>2020-08-23T13:19:10.000Z</time>
                <name>Trackpoint 7166</name>
            </trkpt>
            <trkpt lat="49.6729504" lon="10.0477384">
                <ele>179.0</ele>
                <time>2020-08-23T13:19:12.000Z</time>
                <name>Trackpoint 7167</name>
            </trkpt>
            <trkpt lat="49.6730144" lon="10.0476368">
                <ele>178.0</ele>
                <time>2020-08-23T13:19:14.000Z</time>
                <name>Trackpoint 7168</name>
            </trkpt>
            <trkpt lat="49.673072" lon="10.0475464">
                <ele>178.0</ele>
                <time>2020-08-23T13:19:16.000Z</time>
                <name>Trackpoint 7169</name>
            </trkpt>
            <trkpt lat="49.67312" lon="10.0474552">
                <ele>178.0</ele>
                <time>2020-08-23T13:19:18.000Z</time>
                <name>Trackpoint 7170</name>
            </trkpt>
            <trkpt lat="49.673168" lon="10.0473536">
                <ele>178.0</ele>
                <time>2020-08-23T13:19:21.000Z</time>
                <name>Trackpoint 7171</name>
            </trkpt>
            <trkpt lat="49.6732192" lon="10.0472584">
                <ele>178.0</ele>
                <time>2020-08-23T13:19:53.000Z</time>
                <name>Trackpoint 7172</name>
            </trkpt>
            <trkpt lat="49.6732864" lon="10.0471584">
                <ele>178.0</ele>
                <time>2020-08-23T13:19:56.000Z</time>
                <name>Trackpoint 7173</name>
            </trkpt>
            <trkpt lat="49.6733472" lon="10.0470688">
                <ele>178.0</ele>
                <time>2020-08-23T13:19:58.000Z</time>
                <name>Trackpoint 7174</name>
            </trkpt>
            <trkpt lat="49.673408" lon="10.04696">
                <ele>178.0</ele>
                <time>2020-08-23T13:20:00.000Z</time>
                <name>Trackpoint 7175</name>
            </trkpt>
            <trkpt lat="49.673472" lon="10.0468584">
                <ele>178.0</ele>
                <time>2020-08-23T13:20:02.000Z</time>
                <name>Trackpoint 7176</name>
            </trkpt>
            <trkpt lat="49.6735392" lon="10.046748">
                <ele>178.0</ele>
                <time>2020-08-23T13:20:04.000Z</time>
                <name>Trackpoint 7177</name>
            </trkpt>
            <trkpt lat="49.6736032" lon="10.0466384">
                <ele>178.0</ele>
                <time>2020-08-23T13:20:06.000Z</time>
                <name>Trackpoint 7178</name>
            </trkpt>
            <trkpt lat="49.673664" lon="10.046528">
                <ele>178.0</ele>
                <time>2020-08-23T13:20:08.000Z</time>
                <name>Trackpoint 7179</name>
            </trkpt>
            <trkpt lat="49.6737312" lon="10.0464112">
                <ele>178.0</ele>
                <time>2020-08-23T13:20:10.000Z</time>
                <name>Trackpoint 7180</name>
            </trkpt>
            <trkpt lat="49.6737984" lon="10.0462936">
                <ele>178.0</ele>
                <time>2020-08-23T13:20:12.000Z</time>
                <name>Trackpoint 7181</name>
            </trkpt>
            <trkpt lat="49.673856" lon="10.0461816">
                <ele>178.0</ele>
                <time>2020-08-23T13:20:14.000Z</time>
                <name>Trackpoint 7182</name>
            </trkpt>
            <trkpt lat="49.6739136" lon="10.0460664">
                <ele>178.0</ele>
                <time>2020-08-23T13:20:16.000Z</time>
                <name>Trackpoint 7183</name>
            </trkpt>
            <trkpt lat="49.6739808" lon="10.045952">
                <ele>178.0</ele>
                <time>2020-08-23T13:20:18.000Z</time>
                <name>Trackpoint 7184</name>
            </trkpt>
            <trkpt lat="49.674048" lon="10.0458088">
                <ele>178.0</ele>
                <time>2020-08-23T13:20:20.000Z</time>
                <name>Trackpoint 7185</name>
            </trkpt>
            <trkpt lat="49.6741152" lon="10.0456888">
                <ele>178.0</ele>
                <time>2020-08-23T13:20:22.000Z</time>
                <name>Trackpoint 7186</name>
            </trkpt>
            <trkpt lat="49.6741664" lon="10.0455864">
                <ele>178.0</ele>
                <time>2020-08-23T13:20:24.000Z</time>
                <name>Trackpoint 7187</name>
            </trkpt>
            <trkpt lat="49.6742336" lon="10.0454864">
                <ele>178.0</ele>
                <time>2020-08-23T13:20:26.000Z</time>
                <name>Trackpoint 7188</name>
            </trkpt>
            <trkpt lat="49.6742976" lon="10.0453784">
                <ele>179.0</ele>
                <time>2020-08-23T13:20:28.000Z</time>
                <name>Trackpoint 7189</name>
            </trkpt>
            <trkpt lat="49.6743744" lon="10.0452632">
                <ele>179.0</ele>
                <time>2020-08-23T13:20:30.000Z</time>
                <name>Trackpoint 7190</name>
            </trkpt>
            <trkpt lat="49.6744416" lon="10.0451536">
                <ele>179.0</ele>
                <time>2020-08-23T13:20:32.000Z</time>
                <name>Trackpoint 7191</name>
            </trkpt>
            <trkpt lat="49.674512" lon="10.0450432">
                <ele>179.0</ele>
                <time>2020-08-23T13:20:34.000Z</time>
                <name>Trackpoint 7192</name>
            </trkpt>
            <trkpt lat="49.6745792" lon="10.04494">
                <ele>179.0</ele>
                <time>2020-08-23T13:20:36.000Z</time>
                <name>Trackpoint 7193</name>
            </trkpt>
            <trkpt lat="49.6746432" lon="10.04482">
                <ele>179.0</ele>
                <time>2020-08-23T13:20:38.000Z</time>
                <name>Trackpoint 7194</name>
            </trkpt>
            <trkpt lat="49.6747136" lon="10.0446968">
                <ele>179.0</ele>
                <time>2020-08-23T13:20:40.000Z</time>
                <name>Trackpoint 7195</name>
            </trkpt>
            <trkpt lat="49.6747808" lon="10.0445808">
                <ele>179.0</ele>
                <time>2020-08-23T13:20:42.000Z</time>
                <name>Trackpoint 7196</name>
            </trkpt>
            <trkpt lat="49.674848" lon="10.0444672">
                <ele>179.0</ele>
                <time>2020-08-23T13:20:44.000Z</time>
                <name>Trackpoint 7197</name>
            </trkpt>
            <trkpt lat="49.6749024" lon="10.0443624">
                <ele>179.0</ele>
                <time>2020-08-23T13:20:46.000Z</time>
                <name>Trackpoint 7198</name>
            </trkpt>
            <trkpt lat="49.67496" lon="10.0442584">
                <ele>179.0</ele>
                <time>2020-08-23T13:20:48.000Z</time>
                <name>Trackpoint 7199</name>
            </trkpt>
            <trkpt lat="49.6750144" lon="10.0441552">
                <ele>179.0</ele>
                <time>2020-08-23T13:20:50.000Z</time>
                <name>Trackpoint 7200</name>
            </trkpt>
            <trkpt lat="49.675072" lon="10.0440432">
                <ele>179.0</ele>
                <time>2020-08-23T13:20:52.000Z</time>
                <name>Trackpoint 7201</name>
            </trkpt>
            <trkpt lat="49.6751296" lon="10.0439464">
                <ele>179.0</ele>
                <time>2020-08-23T13:20:54.000Z</time>
                <name>Trackpoint 7202</name>
            </trkpt>
            <trkpt lat="49.6751968" lon="10.0438416">
                <ele>179.0</ele>
                <time>2020-08-23T13:20:56.000Z</time>
                <name>Trackpoint 7203</name>
            </trkpt>
            <trkpt lat="49.6752672" lon="10.0437384">
                <ele>180.0</ele>
                <time>2020-08-23T13:20:58.000Z</time>
                <name>Trackpoint 7204</name>
            </trkpt>
            <trkpt lat="49.6753344" lon="10.0436232">
                <ele>180.0</ele>
                <time>2020-08-23T13:21:00.000Z</time>
                <name>Trackpoint 7205</name>
            </trkpt>
            <trkpt lat="49.6753888" lon="10.0434888">
                <ele>180.0</ele>
                <time>2020-08-23T13:21:02.000Z</time>
                <name>Trackpoint 7206</name>
            </trkpt>
            <trkpt lat="49.6754528" lon="10.0433864">
                <ele>180.0</ele>
                <time>2020-08-23T13:21:04.000Z</time>
                <name>Trackpoint 7207</name>
            </trkpt>
            <trkpt lat="49.6755296" lon="10.0432952">
                <ele>180.0</ele>
                <time>2020-08-23T13:21:06.000Z</time>
                <name>Trackpoint 7208</name>
            </trkpt>
            <trkpt lat="49.6756064" lon="10.043212">
                <ele>180.0</ele>
                <time>2020-08-23T13:21:08.000Z</time>
                <name>Trackpoint 7209</name>
            </trkpt>
            <trkpt lat="49.6756832" lon="10.04312">
                <ele>180.0</ele>
                <time>2020-08-23T13:21:10.000Z</time>
                <name>Trackpoint 7210</name>
            </trkpt>
            <trkpt lat="49.6757344" lon="10.0430184">
                <ele>180.0</ele>
                <time>2020-08-23T13:21:12.000Z</time>
                <name>Trackpoint 7211</name>
            </trkpt>
            <trkpt lat="49.6757824" lon="10.0428848">
                <ele>180.0</ele>
                <time>2020-08-23T13:21:14.000Z</time>
                <name>Trackpoint 7212</name>
            </trkpt>
            <trkpt lat="49.6758144" lon="10.042744">
                <ele>180.0</ele>
                <time>2020-08-23T13:21:16.000Z</time>
                <name>Trackpoint 7213</name>
            </trkpt>
            <trkpt lat="49.6758624" lon="10.042612">
                <ele>180.0</ele>
                <time>2020-08-23T13:21:18.000Z</time>
                <name>Trackpoint 7214</name>
            </trkpt>
            <trkpt lat="49.6759136" lon="10.0424904">
                <ele>180.0</ele>
                <time>2020-08-23T13:21:20.000Z</time>
                <name>Trackpoint 7215</name>
            </trkpt>
            <trkpt lat="49.6759712" lon="10.0423672">
                <ele>180.0</ele>
                <time>2020-08-23T13:21:22.000Z</time>
                <name>Trackpoint 7216</name>
            </trkpt>
            <trkpt lat="49.676032" lon="10.0422536">
                <ele>179.0</ele>
                <time>2020-08-23T13:21:24.000Z</time>
                <name>Trackpoint 7217</name>
            </trkpt>
            <trkpt lat="49.6760992" lon="10.0421416">
                <ele>179.0</ele>
                <time>2020-08-23T13:21:26.000Z</time>
                <name>Trackpoint 7218</name>
            </trkpt>
            <trkpt lat="49.67616" lon="10.0420304">
                <ele>179.0</ele>
                <time>2020-08-23T13:21:28.000Z</time>
                <name>Trackpoint 7219</name>
            </trkpt>
            <trkpt lat="49.6762208" lon="10.04192">
                <ele>179.0</ele>
                <time>2020-08-23T13:21:30.000Z</time>
                <name>Trackpoint 7220</name>
            </trkpt>
            <trkpt lat="49.6762784" lon="10.041812">
                <ele>180.0</ele>
                <time>2020-08-23T13:21:32.000Z</time>
                <name>Trackpoint 7221</name>
            </trkpt>
            <trkpt lat="49.6763392" lon="10.0416968">
                <ele>180.0</ele>
                <time>2020-08-23T13:21:34.000Z</time>
                <name>Trackpoint 7222</name>
            </trkpt>
            <trkpt lat="49.6764032" lon="10.0415896">
                <ele>179.0</ele>
                <time>2020-08-23T13:21:36.000Z</time>
                <name>Trackpoint 7223</name>
            </trkpt>
            <trkpt lat="49.6764672" lon="10.0414816">
                <ele>179.0</ele>
                <time>2020-08-23T13:21:38.000Z</time>
                <name>Trackpoint 7224</name>
            </trkpt>
            <trkpt lat="49.6765312" lon="10.0413768">
                <ele>179.0</ele>
                <time>2020-08-23T13:21:40.000Z</time>
                <name>Trackpoint 7225</name>
            </trkpt>
            <trkpt lat="49.6766048" lon="10.0412712">
                <ele>179.0</ele>
                <time>2020-08-23T13:21:42.000Z</time>
                <name>Trackpoint 7226</name>
            </trkpt>
            <trkpt lat="49.6766752" lon="10.041172">
                <ele>179.0</ele>
                <time>2020-08-23T13:21:44.000Z</time>
                <name>Trackpoint 7227</name>
            </trkpt>
            <trkpt lat="49.6767424" lon="10.0410696">
                <ele>179.0</ele>
                <time>2020-08-23T13:21:46.000Z</time>
                <name>Trackpoint 7228</name>
            </trkpt>
            <trkpt lat="49.6768128" lon="10.040968">
                <ele>179.0</ele>
                <time>2020-08-23T13:21:48.000Z</time>
                <name>Trackpoint 7229</name>
            </trkpt>
            <trkpt lat="49.67688" lon="10.0408752">
                <ele>179.0</ele>
                <time>2020-08-23T13:21:50.000Z</time>
                <name>Trackpoint 7230</name>
            </trkpt>
            <trkpt lat="49.6769472" lon="10.0407712">
                <ele>178.0</ele>
                <time>2020-08-23T13:21:52.000Z</time>
                <name>Trackpoint 7231</name>
            </trkpt>
            <trkpt lat="49.6770144" lon="10.0406688">
                <ele>179.0</ele>
                <time>2020-08-23T13:21:54.000Z</time>
                <name>Trackpoint 7232</name>
            </trkpt>
            <trkpt lat="49.6770784" lon="10.0405648">
                <ele>178.0</ele>
                <time>2020-08-23T13:21:56.000Z</time>
                <name>Trackpoint 7233</name>
            </trkpt>
            <trkpt lat="49.6771424" lon="10.0404904">
                <ele>179.0</ele>
                <time>2020-08-23T13:21:58.000Z</time>
                <name>Trackpoint 7234</name>
            </trkpt>
            <trkpt lat="49.6772352" lon="10.0404568">
                <ele>179.0</ele>
                <time>2020-08-23T13:22:00.000Z</time>
                <name>Trackpoint 7235</name>
            </trkpt>
            <trkpt lat="49.6773696" lon="10.0404416">
                <ele>179.0</ele>
                <time>2020-08-23T13:22:03.000Z</time>
                <name>Trackpoint 7236</name>
            </trkpt>
            <trkpt lat="49.6774496" lon="10.0403696">
                <ele>179.0</ele>
                <time>2020-08-23T13:22:05.000Z</time>
                <name>Trackpoint 7237</name>
            </trkpt>
            <trkpt lat="49.6774944" lon="10.040252">
                <ele>178.0</ele>
                <time>2020-08-23T13:22:07.000Z</time>
                <name>Trackpoint 7238</name>
            </trkpt>
            <trkpt lat="49.6775392" lon="10.0401184">
                <ele>178.0</ele>
                <time>2020-08-23T13:22:09.000Z</time>
                <name>Trackpoint 7239</name>
            </trkpt>
            <trkpt lat="49.6775776" lon="10.0399704">
                <ele>178.0</ele>
                <time>2020-08-23T13:22:11.000Z</time>
                <name>Trackpoint 7240</name>
            </trkpt>
            <trkpt lat="49.6776288" lon="10.0398352">
                <ele>178.0</ele>
                <time>2020-08-23T13:22:13.000Z</time>
                <name>Trackpoint 7241</name>
            </trkpt>
            <trkpt lat="49.6776576" lon="10.039748">
                <ele>178.0</ele>
                <time>2020-08-23T13:22:14.000Z</time>
                <name>Trackpoint 7242</name>
            </trkpt>
            <trkpt lat="49.677712" lon="10.0396168">
                <ele>178.0</ele>
                <time>2020-08-23T13:22:16.000Z</time>
                <name>Trackpoint 7243</name>
            </trkpt>
            <trkpt lat="49.67776" lon="10.0394848">
                <ele>178.0</ele>
                <time>2020-08-23T13:22:18.000Z</time>
                <name>Trackpoint 7244</name>
            </trkpt>
            <trkpt lat="49.6778304" lon="10.0393696">
                <ele>178.0</ele>
                <time>2020-08-23T13:22:20.000Z</time>
                <name>Trackpoint 7245</name>
            </trkpt>
            <trkpt lat="49.6779008" lon="10.0392752">
                <ele>178.0</ele>
                <time>2020-08-23T13:22:22.000Z</time>
                <name>Trackpoint 7246</name>
            </trkpt>
            <trkpt lat="49.6779776" lon="10.039188">
                <ele>177.0</ele>
                <time>2020-08-23T13:22:24.000Z</time>
                <name>Trackpoint 7247</name>
            </trkpt>
            <trkpt lat="49.6780544" lon="10.0390968">
                <ele>177.0</ele>
                <time>2020-08-23T13:22:26.000Z</time>
                <name>Trackpoint 7248</name>
            </trkpt>
            <trkpt lat="49.6781344" lon="10.0390032">
                <ele>177.0</ele>
                <time>2020-08-23T13:22:28.000Z</time>
                <name>Trackpoint 7249</name>
            </trkpt>
            <trkpt lat="49.6782144" lon="10.0389136">
                <ele>177.0</ele>
                <time>2020-08-23T13:22:30.000Z</time>
                <name>Trackpoint 7250</name>
            </trkpt>
            <trkpt lat="49.6782944" lon="10.038828">
                <ele>178.0</ele>
                <time>2020-08-23T13:22:32.000Z</time>
                <name>Trackpoint 7251</name>
            </trkpt>
            <trkpt lat="49.6783776" lon="10.0387472">
                <ele>178.0</ele>
                <time>2020-08-23T13:22:34.000Z</time>
                <name>Trackpoint 7252</name>
            </trkpt>
            <trkpt lat="49.6784576" lon="10.0386648">
                <ele>178.0</ele>
                <time>2020-08-23T13:22:36.000Z</time>
                <name>Trackpoint 7253</name>
            </trkpt>
            <trkpt lat="49.6785344" lon="10.0385864">
                <ele>178.0</ele>
                <time>2020-08-23T13:22:38.000Z</time>
                <name>Trackpoint 7254</name>
            </trkpt>
            <trkpt lat="49.6786112" lon="10.0385104">
                <ele>178.0</ele>
                <time>2020-08-23T13:22:40.000Z</time>
                <name>Trackpoint 7255</name>
            </trkpt>
            <trkpt lat="49.678688" lon="10.038432">
                <ele>178.0</ele>
                <time>2020-08-23T13:22:42.000Z</time>
                <name>Trackpoint 7256</name>
            </trkpt>
            <trkpt lat="49.678768" lon="10.038348">
                <ele>178.0</ele>
                <time>2020-08-23T13:22:44.000Z</time>
                <name>Trackpoint 7257</name>
            </trkpt>
            <trkpt lat="49.678848" lon="10.038272">
                <ele>178.0</ele>
                <time>2020-08-23T13:22:46.000Z</time>
                <name>Trackpoint 7258</name>
            </trkpt>
            <trkpt lat="49.6789184" lon="10.038192">
                <ele>178.0</ele>
                <time>2020-08-23T13:22:48.000Z</time>
                <name>Trackpoint 7259</name>
            </trkpt>
            <trkpt lat="49.678992" lon="10.03812">
                <ele>178.0</ele>
                <time>2020-08-23T13:22:50.000Z</time>
                <name>Trackpoint 7260</name>
            </trkpt>
            <trkpt lat="49.679072" lon="10.0380432">
                <ele>179.0</ele>
                <time>2020-08-23T13:22:52.000Z</time>
                <name>Trackpoint 7261</name>
            </trkpt>
            <trkpt lat="49.679152" lon="10.0379632">
                <ele>179.0</ele>
                <time>2020-08-23T13:22:54.000Z</time>
                <name>Trackpoint 7262</name>
            </trkpt>
            <trkpt lat="49.679232" lon="10.0378816">
                <ele>179.0</ele>
                <time>2020-08-23T13:22:56.000Z</time>
                <name>Trackpoint 7263</name>
            </trkpt>
            <trkpt lat="49.6793056" lon="10.0377976">
                <ele>179.0</ele>
                <time>2020-08-23T13:22:58.000Z</time>
                <name>Trackpoint 7264</name>
            </trkpt>
            <trkpt lat="49.6793792" lon="10.0377152">
                <ele>179.0</ele>
                <time>2020-08-23T13:23:00.000Z</time>
                <name>Trackpoint 7265</name>
            </trkpt>
            <trkpt lat="49.6794496" lon="10.0376264">
                <ele>179.0</ele>
                <time>2020-08-23T13:23:02.000Z</time>
                <name>Trackpoint 7266</name>
            </trkpt>
            <trkpt lat="49.6795136" lon="10.0375368">
                <ele>178.0</ele>
                <time>2020-08-23T13:23:04.000Z</time>
                <name>Trackpoint 7267</name>
            </trkpt>
            <trkpt lat="49.6795808" lon="10.037448">
                <ele>178.0</ele>
                <time>2020-08-23T13:23:06.000Z</time>
                <name>Trackpoint 7268</name>
            </trkpt>
            <trkpt lat="49.679648" lon="10.03736">
                <ele>178.0</ele>
                <time>2020-08-23T13:23:08.000Z</time>
                <name>Trackpoint 7269</name>
            </trkpt>
            <trkpt lat="49.6797216" lon="10.0372912">
                <ele>178.0</ele>
                <time>2020-08-23T13:23:10.000Z</time>
                <name>Trackpoint 7270</name>
            </trkpt>
            <trkpt lat="49.6797984" lon="10.0372">
                <ele>178.0</ele>
                <time>2020-08-23T13:23:12.000Z</time>
                <name>Trackpoint 7271</name>
            </trkpt>
            <trkpt lat="49.6798816" lon="10.03712">
                <ele>178.0</ele>
                <time>2020-08-23T13:23:14.000Z</time>
                <name>Trackpoint 7272</name>
            </trkpt>
            <trkpt lat="49.6799648" lon="10.0370392">
                <ele>178.0</ele>
                <time>2020-08-23T13:23:16.000Z</time>
                <name>Trackpoint 7273</name>
            </trkpt>
            <trkpt lat="49.6800512" lon="10.0369616">
                <ele>178.0</ele>
                <time>2020-08-23T13:23:18.000Z</time>
                <name>Trackpoint 7274</name>
            </trkpt>
            <trkpt lat="49.6801216" lon="10.0368672">
                <ele>178.0</ele>
                <time>2020-08-23T13:23:20.000Z</time>
                <name>Trackpoint 7275</name>
            </trkpt>
            <trkpt lat="49.680192" lon="10.0367696">
                <ele>178.0</ele>
                <time>2020-08-23T13:23:22.000Z</time>
                <name>Trackpoint 7276</name>
            </trkpt>
            <trkpt lat="49.6802624" lon="10.0366832">
                <ele>178.0</ele>
                <time>2020-08-23T13:23:24.000Z</time>
                <name>Trackpoint 7277</name>
            </trkpt>
            <trkpt lat="49.6803392" lon="10.0366048">
                <ele>178.0</ele>
                <time>2020-08-23T13:23:26.000Z</time>
                <name>Trackpoint 7278</name>
            </trkpt>
            <trkpt lat="49.6804192" lon="10.0365168">
                <ele>178.0</ele>
                <time>2020-08-23T13:23:28.000Z</time>
                <name>Trackpoint 7279</name>
            </trkpt>
            <trkpt lat="49.6804928" lon="10.0364216">
                <ele>178.0</ele>
                <time>2020-08-23T13:23:30.000Z</time>
                <name>Trackpoint 7280</name>
            </trkpt>
            <trkpt lat="49.6805728" lon="10.0363216">
                <ele>178.0</ele>
                <time>2020-08-23T13:23:32.000Z</time>
                <name>Trackpoint 7281</name>
            </trkpt>
            <trkpt lat="49.6806528" lon="10.0362456">
                <ele>178.0</ele>
                <time>2020-08-23T13:23:34.000Z</time>
                <name>Trackpoint 7282</name>
            </trkpt>
            <trkpt lat="49.6807392" lon="10.036148">
                <ele>178.0</ele>
                <time>2020-08-23T13:23:36.000Z</time>
                <name>Trackpoint 7283</name>
            </trkpt>
            <trkpt lat="49.6808256" lon="10.0360648">
                <ele>178.0</ele>
                <time>2020-08-23T13:23:38.000Z</time>
                <name>Trackpoint 7284</name>
            </trkpt>
            <trkpt lat="49.6809088" lon="10.035972">
                <ele>178.0</ele>
                <time>2020-08-23T13:23:40.000Z</time>
                <name>Trackpoint 7285</name>
            </trkpt>
            <trkpt lat="49.6809984" lon="10.0358832">
                <ele>178.0</ele>
                <time>2020-08-23T13:23:42.000Z</time>
                <name>Trackpoint 7286</name>
            </trkpt>
            <trkpt lat="49.6810848" lon="10.0357912">
                <ele>178.0</ele>
                <time>2020-08-23T13:23:44.000Z</time>
                <name>Trackpoint 7287</name>
            </trkpt>
            <trkpt lat="49.6811744" lon="10.0356976">
                <ele>178.0</ele>
                <time>2020-08-23T13:23:46.000Z</time>
                <name>Trackpoint 7288</name>
            </trkpt>
            <trkpt lat="49.6812704" lon="10.0356152">
                <ele>178.0</ele>
                <time>2020-08-23T13:23:48.000Z</time>
                <name>Trackpoint 7289</name>
            </trkpt>
            <trkpt lat="49.681376" lon="10.0355552">
                <ele>178.0</ele>
                <time>2020-08-23T13:23:50.000Z</time>
                <name>Trackpoint 7290</name>
            </trkpt>
            <trkpt lat="49.6814656" lon="10.035448">
                <ele>178.0</ele>
                <time>2020-08-23T13:23:52.000Z</time>
                <name>Trackpoint 7291</name>
            </trkpt>
            <trkpt lat="49.6815552" lon="10.035348">
                <ele>178.0</ele>
                <time>2020-08-23T13:23:54.000Z</time>
                <name>Trackpoint 7292</name>
            </trkpt>
            <trkpt lat="49.6816384" lon="10.0352248">
                <ele>178.0</ele>
                <time>2020-08-23T13:23:56.000Z</time>
                <name>Trackpoint 7293</name>
            </trkpt>
            <trkpt lat="49.6817184" lon="10.0351184">
                <ele>177.0</ele>
                <time>2020-08-23T13:23:58.000Z</time>
                <name>Trackpoint 7294</name>
            </trkpt>
            <trkpt lat="49.6818048" lon="10.0350216">
                <ele>177.0</ele>
                <time>2020-08-23T13:24:00.000Z</time>
                <name>Trackpoint 7295</name>
            </trkpt>
            <trkpt lat="49.6818848" lon="10.0349128">
                <ele>177.0</ele>
                <time>2020-08-23T13:24:02.000Z</time>
                <name>Trackpoint 7296</name>
            </trkpt>
            <trkpt lat="49.6819648" lon="10.0347992">
                <ele>177.0</ele>
                <time>2020-08-23T13:24:04.000Z</time>
                <name>Trackpoint 7297</name>
            </trkpt>
            <trkpt lat="49.6820448" lon="10.0346784">
                <ele>177.0</ele>
                <time>2020-08-23T13:24:06.000Z</time>
                <name>Trackpoint 7298</name>
            </trkpt>
            <trkpt lat="49.6821248" lon="10.0345584">
                <ele>177.0</ele>
                <time>2020-08-23T13:24:08.000Z</time>
                <name>Trackpoint 7299</name>
            </trkpt>
            <trkpt lat="49.6822048" lon="10.0344296">
                <ele>177.0</ele>
                <time>2020-08-23T13:24:10.000Z</time>
                <name>Trackpoint 7300</name>
            </trkpt>
            <trkpt lat="49.6822944" lon="10.0343176">
                <ele>177.0</ele>
                <time>2020-08-23T13:24:12.000Z</time>
                <name>Trackpoint 7301</name>
            </trkpt>
            <trkpt lat="49.6823776" lon="10.0341816">
                <ele>177.0</ele>
                <time>2020-08-23T13:24:14.000Z</time>
                <name>Trackpoint 7302</name>
            </trkpt>
            <trkpt lat="49.6824608" lon="10.0340496">
                <ele>177.0</ele>
                <time>2020-08-23T13:24:16.000Z</time>
                <name>Trackpoint 7303</name>
            </trkpt>
            <trkpt lat="49.6825344" lon="10.0339">
                <ele>177.0</ele>
                <time>2020-08-23T13:24:18.000Z</time>
                <name>Trackpoint 7304</name>
            </trkpt>
            <trkpt lat="49.682608" lon="10.0337712">
                <ele>177.0</ele>
                <time>2020-08-23T13:24:20.000Z</time>
                <name>Trackpoint 7305</name>
            </trkpt>
            <trkpt lat="49.6826848" lon="10.0336488">
                <ele>177.0</ele>
                <time>2020-08-23T13:24:22.000Z</time>
                <name>Trackpoint 7306</name>
            </trkpt>
            <trkpt lat="49.6827552" lon="10.0335128">
                <ele>177.0</ele>
                <time>2020-08-23T13:24:24.000Z</time>
                <name>Trackpoint 7307</name>
            </trkpt>
            <trkpt lat="49.6828256" lon="10.0333952">
                <ele>177.0</ele>
                <time>2020-08-23T13:24:26.000Z</time>
                <name>Trackpoint 7308</name>
            </trkpt>
            <trkpt lat="49.6828992" lon="10.0332696">
                <ele>177.0</ele>
                <time>2020-08-23T13:24:28.000Z</time>
                <name>Trackpoint 7309</name>
            </trkpt>
            <trkpt lat="49.682976" lon="10.0331384">
                <ele>177.0</ele>
                <time>2020-08-23T13:24:30.000Z</time>
                <name>Trackpoint 7310</name>
            </trkpt>
            <trkpt lat="49.683056" lon="10.0330152">
                <ele>177.0</ele>
                <time>2020-08-23T13:24:32.000Z</time>
                <name>Trackpoint 7311</name>
            </trkpt>
            <trkpt lat="49.6831296" lon="10.0328888">
                <ele>177.0</ele>
                <time>2020-08-23T13:24:34.000Z</time>
                <name>Trackpoint 7312</name>
            </trkpt>
            <trkpt lat="49.6832032" lon="10.0327584">
                <ele>177.0</ele>
                <time>2020-08-23T13:24:36.000Z</time>
                <name>Trackpoint 7313</name>
            </trkpt>
            <trkpt lat="49.6832832" lon="10.0326336">
                <ele>177.0</ele>
                <time>2020-08-23T13:24:38.000Z</time>
                <name>Trackpoint 7314</name>
            </trkpt>
            <trkpt lat="49.68336" lon="10.0324984">
                <ele>177.0</ele>
                <time>2020-08-23T13:24:40.000Z</time>
                <name>Trackpoint 7315</name>
            </trkpt>
            <trkpt lat="49.6834368" lon="10.0323552">
                <ele>177.0</ele>
                <time>2020-08-23T13:24:42.000Z</time>
                <name>Trackpoint 7316</name>
            </trkpt>
            <trkpt lat="49.6835136" lon="10.0322176">
                <ele>177.0</ele>
                <time>2020-08-23T13:24:44.000Z</time>
                <name>Trackpoint 7317</name>
            </trkpt>
            <trkpt lat="49.6835904" lon="10.0320752">
                <ele>177.0</ele>
                <time>2020-08-23T13:24:46.000Z</time>
                <name>Trackpoint 7318</name>
            </trkpt>
            <trkpt lat="49.683664" lon="10.0319296">
                <ele>177.0</ele>
                <time>2020-08-23T13:24:48.000Z</time>
                <name>Trackpoint 7319</name>
            </trkpt>
            <trkpt lat="49.6837344" lon="10.0317832">
                <ele>177.0</ele>
                <time>2020-08-23T13:24:50.000Z</time>
                <name>Trackpoint 7320</name>
            </trkpt>
            <trkpt lat="49.6838112" lon="10.0316384">
                <ele>177.0</ele>
                <time>2020-08-23T13:24:52.000Z</time>
                <name>Trackpoint 7321</name>
            </trkpt>
            <trkpt lat="49.683888" lon="10.0314976">
                <ele>176.0</ele>
                <time>2020-08-23T13:24:54.000Z</time>
                <name>Trackpoint 7322</name>
            </trkpt>
            <trkpt lat="49.683968" lon="10.0313528">
                <ele>176.0</ele>
                <time>2020-08-23T13:24:56.000Z</time>
                <name>Trackpoint 7323</name>
            </trkpt>
            <trkpt lat="49.6840512" lon="10.031212">
                <ele>176.0</ele>
                <time>2020-08-23T13:24:58.000Z</time>
                <name>Trackpoint 7324</name>
            </trkpt>
            <trkpt lat="49.6841312" lon="10.0310648">
                <ele>176.0</ele>
                <time>2020-08-23T13:25:00.000Z</time>
                <name>Trackpoint 7325</name>
            </trkpt>
            <trkpt lat="49.6842144" lon="10.0309264">
                <ele>176.0</ele>
                <time>2020-08-23T13:25:02.000Z</time>
                <name>Trackpoint 7326</name>
            </trkpt>
            <trkpt lat="49.6842912" lon="10.0307928">
                <ele>176.0</ele>
                <time>2020-08-23T13:25:04.000Z</time>
                <name>Trackpoint 7327</name>
            </trkpt>
            <trkpt lat="49.684368" lon="10.030668">
                <ele>176.0</ele>
                <time>2020-08-23T13:25:06.000Z</time>
                <name>Trackpoint 7328</name>
            </trkpt>
            <trkpt lat="49.684448" lon="10.0305544">
                <ele>175.0</ele>
                <time>2020-08-23T13:25:08.000Z</time>
                <name>Trackpoint 7329</name>
            </trkpt>
            <trkpt lat="49.6845344" lon="10.03046">
                <ele>174.0</ele>
                <time>2020-08-23T13:25:10.000Z</time>
                <name>Trackpoint 7330</name>
            </trkpt>
            <trkpt lat="49.6846208" lon="10.0303624">
                <ele>174.0</ele>
                <time>2020-08-23T13:25:12.000Z</time>
                <name>Trackpoint 7331</name>
            </trkpt>
            <trkpt lat="49.684704" lon="10.0302632">
                <ele>174.0</ele>
                <time>2020-08-23T13:25:14.000Z</time>
                <name>Trackpoint 7332</name>
            </trkpt>
            <trkpt lat="49.684784" lon="10.03016">
                <ele>174.0</ele>
                <time>2020-08-23T13:25:16.000Z</time>
                <name>Trackpoint 7333</name>
            </trkpt>
            <trkpt lat="49.6848608" lon="10.0300616">
                <ele>174.0</ele>
                <time>2020-08-23T13:25:18.000Z</time>
                <name>Trackpoint 7334</name>
            </trkpt>
            <trkpt lat="49.6849408" lon="10.0299552">
                <ele>174.0</ele>
                <time>2020-08-23T13:25:20.000Z</time>
                <name>Trackpoint 7335</name>
            </trkpt>
            <trkpt lat="49.685024" lon="10.029852">
                <ele>174.0</ele>
                <time>2020-08-23T13:25:22.000Z</time>
                <name>Trackpoint 7336</name>
            </trkpt>
            <trkpt lat="49.6851072" lon="10.029752">
                <ele>174.0</ele>
                <time>2020-08-23T13:25:24.000Z</time>
                <name>Trackpoint 7337</name>
            </trkpt>
            <trkpt lat="49.6851872" lon="10.0296448">
                <ele>174.0</ele>
                <time>2020-08-23T13:25:26.000Z</time>
                <name>Trackpoint 7338</name>
            </trkpt>
            <trkpt lat="49.6852672" lon="10.0295136">
                <ele>174.0</ele>
                <time>2020-08-23T13:25:28.000Z</time>
                <name>Trackpoint 7339</name>
            </trkpt>
            <trkpt lat="49.68536" lon="10.029404">
                <ele>174.0</ele>
                <time>2020-08-23T13:25:30.000Z</time>
                <name>Trackpoint 7340</name>
            </trkpt>
            <trkpt lat="49.6854272" lon="10.0292832">
                <ele>174.0</ele>
                <time>2020-08-23T13:25:32.000Z</time>
                <name>Trackpoint 7341</name>
            </trkpt>
            <trkpt lat="49.68552" lon="10.0291832">
                <ele>174.0</ele>
                <time>2020-08-23T13:25:34.000Z</time>
                <name>Trackpoint 7342</name>
            </trkpt>
            <trkpt lat="49.6855968" lon="10.0290832">
                <ele>174.0</ele>
                <time>2020-08-23T13:25:36.000Z</time>
                <name>Trackpoint 7343</name>
            </trkpt>
            <trkpt lat="49.6856736" lon="10.02898">
                <ele>174.0</ele>
                <time>2020-08-23T13:25:38.000Z</time>
                <name>Trackpoint 7344</name>
            </trkpt>
            <trkpt lat="49.6857536" lon="10.0288752">
                <ele>174.0</ele>
                <time>2020-08-23T13:25:40.000Z</time>
                <name>Trackpoint 7345</name>
            </trkpt>
            <trkpt lat="49.6858336" lon="10.0287568">
                <ele>174.0</ele>
                <time>2020-08-23T13:25:42.000Z</time>
                <name>Trackpoint 7346</name>
            </trkpt>
            <trkpt lat="49.6859168" lon="10.028648">
                <ele>174.0</ele>
                <time>2020-08-23T13:25:44.000Z</time>
                <name>Trackpoint 7347</name>
            </trkpt>
            <trkpt lat="49.686" lon="10.0285504">
                <ele>174.0</ele>
                <time>2020-08-23T13:25:46.000Z</time>
                <name>Trackpoint 7348</name>
            </trkpt>
            <trkpt lat="49.6860832" lon="10.028448">
                <ele>174.0</ele>
                <time>2020-08-23T13:25:48.000Z</time>
                <name>Trackpoint 7349</name>
            </trkpt>
            <trkpt lat="49.6861664" lon="10.0283416">
                <ele>174.0</ele>
                <time>2020-08-23T13:25:50.000Z</time>
                <name>Trackpoint 7350</name>
            </trkpt>
            <trkpt lat="49.68624" lon="10.0282296">
                <ele>173.0</ele>
                <time>2020-08-23T13:25:52.000Z</time>
                <name>Trackpoint 7351</name>
            </trkpt>
            <trkpt lat="49.6863264" lon="10.0281152">
                <ele>174.0</ele>
                <time>2020-08-23T13:25:54.000Z</time>
                <name>Trackpoint 7352</name>
            </trkpt>
            <trkpt lat="49.6864064" lon="10.0280048">
                <ele>174.0</ele>
                <time>2020-08-23T13:25:56.000Z</time>
                <name>Trackpoint 7353</name>
            </trkpt>
            <trkpt lat="49.6864736" lon="10.0278952">
                <ele>174.0</ele>
                <time>2020-08-23T13:25:58.000Z</time>
                <name>Trackpoint 7354</name>
            </trkpt>
            <trkpt lat="49.6865472" lon="10.027792">
                <ele>174.0</ele>
                <time>2020-08-23T13:26:00.000Z</time>
                <name>Trackpoint 7355</name>
            </trkpt>
            <trkpt lat="49.6866304" lon="10.0276936">
                <ele>175.0</ele>
                <time>2020-08-23T13:26:02.000Z</time>
                <name>Trackpoint 7356</name>
            </trkpt>
            <trkpt lat="49.686704" lon="10.0275944">
                <ele>175.0</ele>
                <time>2020-08-23T13:26:04.000Z</time>
                <name>Trackpoint 7357</name>
            </trkpt>
            <trkpt lat="49.6867904" lon="10.0275">
                <ele>175.0</ele>
                <time>2020-08-23T13:26:06.000Z</time>
                <name>Trackpoint 7358</name>
            </trkpt>
            <trkpt lat="49.6868768" lon="10.0274032">
                <ele>175.0</ele>
                <time>2020-08-23T13:26:08.000Z</time>
                <name>Trackpoint 7359</name>
            </trkpt>
            <trkpt lat="49.6869728" lon="10.0273064">
                <ele>175.0</ele>
                <time>2020-08-23T13:26:10.000Z</time>
                <name>Trackpoint 7360</name>
            </trkpt>
            <trkpt lat="49.6870656" lon="10.0272104">
                <ele>175.0</ele>
                <time>2020-08-23T13:26:12.000Z</time>
                <name>Trackpoint 7361</name>
            </trkpt>
            <trkpt lat="49.6871616" lon="10.0271128">
                <ele>175.0</ele>
                <time>2020-08-23T13:26:14.000Z</time>
                <name>Trackpoint 7362</name>
            </trkpt>
            <trkpt lat="49.687264" lon="10.0270208">
                <ele>175.0</ele>
                <time>2020-08-23T13:26:16.000Z</time>
                <name>Trackpoint 7363</name>
            </trkpt>
            <trkpt lat="49.6873536" lon="10.0269216">
                <ele>176.0</ele>
                <time>2020-08-23T13:26:18.000Z</time>
                <name>Trackpoint 7364</name>
            </trkpt>
            <trkpt lat="49.6874464" lon="10.0268088">
                <ele>175.0</ele>
                <time>2020-08-23T13:26:20.000Z</time>
                <name>Trackpoint 7365</name>
            </trkpt>
            <trkpt lat="49.6875392" lon="10.0266936">
                <ele>175.0</ele>
                <time>2020-08-23T13:26:22.000Z</time>
                <name>Trackpoint 7366</name>
            </trkpt>
            <trkpt lat="49.6876288" lon="10.0265712">
                <ele>174.0</ele>
                <time>2020-08-23T13:26:24.000Z</time>
                <name>Trackpoint 7367</name>
            </trkpt>
            <trkpt lat="49.6877216" lon="10.0264384">
                <ele>174.0</ele>
                <time>2020-08-23T13:26:26.000Z</time>
                <name>Trackpoint 7368</name>
            </trkpt>
            <trkpt lat="49.6878144" lon="10.0263072">
                <ele>173.0</ele>
                <time>2020-08-23T13:26:28.000Z</time>
                <name>Trackpoint 7369</name>
            </trkpt>
            <trkpt lat="49.6879072" lon="10.0261784">
                <ele>173.0</ele>
                <time>2020-08-23T13:26:30.000Z</time>
                <name>Trackpoint 7370</name>
            </trkpt>
            <trkpt lat="49.688016" lon="10.0260488">
                <ele>173.0</ele>
                <time>2020-08-23T13:26:32.000Z</time>
                <name>Trackpoint 7371</name>
            </trkpt>
            <trkpt lat="49.6881056" lon="10.025924">
                <ele>173.0</ele>
                <time>2020-08-23T13:26:34.000Z</time>
                <name>Trackpoint 7372</name>
            </trkpt>
            <trkpt lat="49.6882016" lon="10.0258056">
                <ele>173.0</ele>
                <time>2020-08-23T13:26:36.000Z</time>
                <name>Trackpoint 7373</name>
            </trkpt>
            <trkpt lat="49.6883008" lon="10.0257064">
                <ele>173.0</ele>
                <time>2020-08-23T13:26:38.000Z</time>
                <name>Trackpoint 7374</name>
            </trkpt>
            <trkpt lat="49.6883968" lon="10.0256096">
                <ele>173.0</ele>
                <time>2020-08-23T13:26:40.000Z</time>
                <name>Trackpoint 7375</name>
            </trkpt>
            <trkpt lat="49.6884896" lon="10.0254968">
                <ele>173.0</ele>
                <time>2020-08-23T13:26:42.000Z</time>
                <name>Trackpoint 7376</name>
            </trkpt>
            <trkpt lat="49.6885728" lon="10.025376">
                <ele>173.0</ele>
                <time>2020-08-23T13:26:44.000Z</time>
                <name>Trackpoint 7377</name>
            </trkpt>
            <trkpt lat="49.6886624" lon="10.0252704">
                <ele>173.0</ele>
                <time>2020-08-23T13:26:46.000Z</time>
                <name>Trackpoint 7378</name>
            </trkpt>
            <trkpt lat="49.688768" lon="10.0251816">
                <ele>174.0</ele>
                <time>2020-08-23T13:26:48.000Z</time>
                <name>Trackpoint 7379</name>
            </trkpt>
            <trkpt lat="49.6888736" lon="10.0250992">
                <ele>174.0</ele>
                <time>2020-08-23T13:26:50.000Z</time>
                <name>Trackpoint 7380</name>
            </trkpt>
            <trkpt lat="49.6889696" lon="10.0249984">
                <ele>174.0</ele>
                <time>2020-08-23T13:26:52.000Z</time>
                <name>Trackpoint 7381</name>
            </trkpt>
            <trkpt lat="49.6890656" lon="10.0248968">
                <ele>174.0</ele>
                <time>2020-08-23T13:26:54.000Z</time>
                <name>Trackpoint 7382</name>
            </trkpt>
            <trkpt lat="49.689152" lon="10.0247896">
                <ele>174.0</ele>
                <time>2020-08-23T13:26:56.000Z</time>
                <name>Trackpoint 7383</name>
            </trkpt>
            <trkpt lat="49.6892352" lon="10.0246784">
                <ele>174.0</ele>
                <time>2020-08-23T13:26:58.000Z</time>
                <name>Trackpoint 7384</name>
            </trkpt>
            <trkpt lat="49.6893312" lon="10.0245704">
                <ele>174.0</ele>
                <time>2020-08-23T13:27:00.000Z</time>
                <name>Trackpoint 7385</name>
            </trkpt>
            <trkpt lat="49.6894304" lon="10.0244504">
                <ele>173.0</ele>
                <time>2020-08-23T13:27:02.000Z</time>
                <name>Trackpoint 7386</name>
            </trkpt>
            <trkpt lat="49.6895136" lon="10.0243184">
                <ele>173.0</ele>
                <time>2020-08-23T13:27:04.000Z</time>
                <name>Trackpoint 7387</name>
            </trkpt>
            <trkpt lat="49.6895968" lon="10.0241816">
                <ele>173.0</ele>
                <time>2020-08-23T13:27:06.000Z</time>
                <name>Trackpoint 7388</name>
            </trkpt>
            <trkpt lat="49.6896768" lon="10.0240432">
                <ele>173.0</ele>
                <time>2020-08-23T13:27:08.000Z</time>
                <name>Trackpoint 7389</name>
            </trkpt>
            <trkpt lat="49.6897568" lon="10.0239048">
                <ele>172.0</ele>
                <time>2020-08-23T13:27:10.000Z</time>
                <name>Trackpoint 7390</name>
            </trkpt>
            <trkpt lat="49.68984" lon="10.0237688">
                <ele>173.0</ele>
                <time>2020-08-23T13:27:12.000Z</time>
                <name>Trackpoint 7391</name>
            </trkpt>
            <trkpt lat="49.68992" lon="10.0236456">
                <ele>173.0</ele>
                <time>2020-08-23T13:27:14.000Z</time>
                <name>Trackpoint 7392</name>
            </trkpt>
            <trkpt lat="49.6899936" lon="10.0235232">
                <ele>172.0</ele>
                <time>2020-08-23T13:27:16.000Z</time>
                <name>Trackpoint 7393</name>
            </trkpt>
            <trkpt lat="49.6900736" lon="10.023412">
                <ele>172.0</ele>
                <time>2020-08-23T13:27:18.000Z</time>
                <name>Trackpoint 7394</name>
            </trkpt>
            <trkpt lat="49.6901632" lon="10.0233088">
                <ele>173.0</ele>
                <time>2020-08-23T13:27:20.000Z</time>
                <name>Trackpoint 7395</name>
            </trkpt>
            <trkpt lat="49.6902496" lon="10.0232184">
                <ele>173.0</ele>
                <time>2020-08-23T13:27:22.000Z</time>
                <name>Trackpoint 7396</name>
            </trkpt>
            <trkpt lat="49.690352" lon="10.0231488">
                <ele>173.0</ele>
                <time>2020-08-23T13:27:24.000Z</time>
                <name>Trackpoint 7397</name>
            </trkpt>
            <trkpt lat="49.6904576" lon="10.0230864">
                <ele>173.0</ele>
                <time>2020-08-23T13:27:26.000Z</time>
                <name>Trackpoint 7398</name>
            </trkpt>
            <trkpt lat="49.6905632" lon="10.02302">
                <ele>173.0</ele>
                <time>2020-08-23T13:27:28.000Z</time>
                <name>Trackpoint 7399</name>
            </trkpt>
            <trkpt lat="49.6906656" lon="10.0229528">
                <ele>173.0</ele>
                <time>2020-08-23T13:27:30.000Z</time>
                <name>Trackpoint 7400</name>
            </trkpt>
            <trkpt lat="49.6907616" lon="10.0228952">
                <ele>173.0</ele>
                <time>2020-08-23T13:27:32.000Z</time>
                <name>Trackpoint 7401</name>
            </trkpt>
            <trkpt lat="49.6908576" lon="10.0228384">
                <ele>174.0</ele>
                <time>2020-08-23T13:27:34.000Z</time>
                <name>Trackpoint 7402</name>
            </trkpt>
            <trkpt lat="49.69096" lon="10.0227816">
                <ele>174.0</ele>
                <time>2020-08-23T13:27:36.000Z</time>
                <name>Trackpoint 7403</name>
            </trkpt>
            <trkpt lat="49.6910624" lon="10.0227336">
                <ele>174.0</ele>
                <time>2020-08-23T13:27:38.000Z</time>
                <name>Trackpoint 7404</name>
            </trkpt>
            <trkpt lat="49.6911648" lon="10.0226944">
                <ele>174.0</ele>
                <time>2020-08-23T13:27:40.000Z</time>
                <name>Trackpoint 7405</name>
            </trkpt>
            <trkpt lat="49.6912768" lon="10.0226472">
                <ele>174.0</ele>
                <time>2020-08-23T13:27:42.000Z</time>
                <name>Trackpoint 7406</name>
            </trkpt>
            <trkpt lat="49.6913824" lon="10.0226024">
                <ele>175.0</ele>
                <time>2020-08-23T13:27:44.000Z</time>
                <name>Trackpoint 7407</name>
            </trkpt>
            <trkpt lat="49.6914976" lon="10.02256">
                <ele>175.0</ele>
                <time>2020-08-23T13:27:46.000Z</time>
                <name>Trackpoint 7408</name>
            </trkpt>
            <trkpt lat="49.6916096" lon="10.0225232">
                <ele>175.0</ele>
                <time>2020-08-23T13:27:48.000Z</time>
                <name>Trackpoint 7409</name>
            </trkpt>
            <trkpt lat="49.6917216" lon="10.0224896">
                <ele>175.0</ele>
                <time>2020-08-23T13:27:50.000Z</time>
                <name>Trackpoint 7410</name>
            </trkpt>
            <trkpt lat="49.69184" lon="10.0224504">
                <ele>176.0</ele>
                <time>2020-08-23T13:27:52.000Z</time>
                <name>Trackpoint 7411</name>
            </trkpt>
            <trkpt lat="49.6919552" lon="10.0224184">
                <ele>176.0</ele>
                <time>2020-08-23T13:27:54.000Z</time>
                <name>Trackpoint 7412</name>
            </trkpt>
            <trkpt lat="49.6920736" lon="10.0223888">
                <ele>176.0</ele>
                <time>2020-08-23T13:27:56.000Z</time>
                <name>Trackpoint 7413</name>
            </trkpt>
            <trkpt lat="49.6921984" lon="10.0223528">
                <ele>176.0</ele>
                <time>2020-08-23T13:27:58.000Z</time>
                <name>Trackpoint 7414</name>
            </trkpt>
            <trkpt lat="49.6923232" lon="10.022328">
                <ele>176.0</ele>
                <time>2020-08-23T13:28:00.000Z</time>
                <name>Trackpoint 7415</name>
            </trkpt>
            <trkpt lat="49.6924448" lon="10.0222928">
                <ele>176.0</ele>
                <time>2020-08-23T13:28:02.000Z</time>
                <name>Trackpoint 7416</name>
            </trkpt>
            <trkpt lat="49.6925664" lon="10.02226">
                <ele>176.0</ele>
                <time>2020-08-23T13:28:04.000Z</time>
                <name>Trackpoint 7417</name>
            </trkpt>
            <trkpt lat="49.6926848" lon="10.0222504">
                <ele>176.0</ele>
                <time>2020-08-23T13:28:06.000Z</time>
                <name>Trackpoint 7418</name>
            </trkpt>
            <trkpt lat="49.6928032" lon="10.0222352">
                <ele>176.0</ele>
                <time>2020-08-23T13:28:08.000Z</time>
                <name>Trackpoint 7419</name>
            </trkpt>
            <trkpt lat="49.692928" lon="10.022212">
                <ele>176.0</ele>
                <time>2020-08-23T13:28:10.000Z</time>
                <name>Trackpoint 7420</name>
            </trkpt>
            <trkpt lat="49.6930592" lon="10.0222128">
                <ele>176.0</ele>
                <time>2020-08-23T13:28:12.000Z</time>
                <name>Trackpoint 7421</name>
            </trkpt>
            <trkpt lat="49.693184" lon="10.0222368">
                <ele>176.0</ele>
                <time>2020-08-23T13:28:14.000Z</time>
                <name>Trackpoint 7422</name>
            </trkpt>
            <trkpt lat="49.693312" lon="10.0222784">
                <ele>176.0</ele>
                <time>2020-08-23T13:28:16.000Z</time>
                <name>Trackpoint 7423</name>
            </trkpt>
            <trkpt lat="49.6934432" lon="10.0223128">
                <ele>176.0</ele>
                <time>2020-08-23T13:28:18.000Z</time>
                <name>Trackpoint 7424</name>
            </trkpt>
            <trkpt lat="49.6935616" lon="10.022344">
                <ele>176.0</ele>
                <time>2020-08-23T13:28:20.000Z</time>
                <name>Trackpoint 7425</name>
            </trkpt>
            <trkpt lat="49.6936928" lon="10.0223648">
                <ele>176.0</ele>
                <time>2020-08-23T13:28:22.000Z</time>
                <name>Trackpoint 7426</name>
            </trkpt>
            <trkpt lat="49.6938208" lon="10.0224064">
                <ele>176.0</ele>
                <time>2020-08-23T13:28:24.000Z</time>
                <name>Trackpoint 7427</name>
            </trkpt>
            <trkpt lat="49.6939424" lon="10.0224248">
                <ele>176.0</ele>
                <time>2020-08-23T13:28:26.000Z</time>
                <name>Trackpoint 7428</name>
            </trkpt>
            <trkpt lat="49.6940736" lon="10.0224184">
                <ele>176.0</ele>
                <time>2020-08-23T13:28:28.000Z</time>
                <name>Trackpoint 7429</name>
            </trkpt>
            <trkpt lat="49.6941984" lon="10.0224104">
                <ele>177.0</ele>
                <time>2020-08-23T13:28:30.000Z</time>
                <name>Trackpoint 7430</name>
            </trkpt>
            <trkpt lat="49.6943232" lon="10.0224136">
                <ele>177.0</ele>
                <time>2020-08-23T13:28:32.000Z</time>
                <name>Trackpoint 7431</name>
            </trkpt>
            <trkpt lat="49.6944512" lon="10.0224384">
                <ele>177.0</ele>
                <time>2020-08-23T13:28:34.000Z</time>
                <name>Trackpoint 7432</name>
            </trkpt>
            <trkpt lat="49.6945792" lon="10.0224648">
                <ele>177.0</ele>
                <time>2020-08-23T13:28:36.000Z</time>
                <name>Trackpoint 7433</name>
            </trkpt>
            <trkpt lat="49.6947072" lon="10.0224816">
                <ele>177.0</ele>
                <time>2020-08-23T13:28:38.000Z</time>
                <name>Trackpoint 7434</name>
            </trkpt>
            <trkpt lat="49.694832" lon="10.0224912">
                <ele>177.0</ele>
                <time>2020-08-23T13:28:40.000Z</time>
                <name>Trackpoint 7435</name>
            </trkpt>
            <trkpt lat="49.6949568" lon="10.0225088">
                <ele>177.0</ele>
                <time>2020-08-23T13:28:42.000Z</time>
                <name>Trackpoint 7436</name>
            </trkpt>
            <trkpt lat="49.6950752" lon="10.0225352">
                <ele>177.0</ele>
                <time>2020-08-23T13:28:44.000Z</time>
                <name>Trackpoint 7437</name>
            </trkpt>
            <trkpt lat="49.695184" lon="10.0225872">
                <ele>177.0</ele>
                <time>2020-08-23T13:28:46.000Z</time>
                <name>Trackpoint 7438</name>
            </trkpt>
            <trkpt lat="49.6952928" lon="10.0226096">
                <ele>177.0</ele>
                <time>2020-08-23T13:28:48.000Z</time>
                <name>Trackpoint 7439</name>
            </trkpt>
            <trkpt lat="49.695408" lon="10.0226288">
                <ele>177.0</ele>
                <time>2020-08-23T13:28:50.000Z</time>
                <name>Trackpoint 7440</name>
            </trkpt>
            <trkpt lat="49.6955296" lon="10.0226472">
                <ele>178.0</ele>
                <time>2020-08-23T13:28:52.000Z</time>
                <name>Trackpoint 7441</name>
            </trkpt>
            <trkpt lat="49.695664" lon="10.022648">
                <ele>178.0</ele>
                <time>2020-08-23T13:28:54.000Z</time>
                <name>Trackpoint 7442</name>
            </trkpt>
            <trkpt lat="49.6957856" lon="10.0226648">
                <ele>178.0</ele>
                <time>2020-08-23T13:28:56.000Z</time>
                <name>Trackpoint 7443</name>
            </trkpt>
            <trkpt lat="49.695904" lon="10.022668">
                <ele>178.0</ele>
                <time>2020-08-23T13:28:58.000Z</time>
                <name>Trackpoint 7444</name>
            </trkpt>
            <trkpt lat="49.6960224" lon="10.0226784">
                <ele>178.0</ele>
                <time>2020-08-23T13:29:00.000Z</time>
                <name>Trackpoint 7445</name>
            </trkpt>
            <trkpt lat="49.6961376" lon="10.0226968">
                <ele>178.0</ele>
                <time>2020-08-23T13:29:02.000Z</time>
                <name>Trackpoint 7446</name>
            </trkpt>
            <trkpt lat="49.6962496" lon="10.022712">
                <ele>178.0</ele>
                <time>2020-08-23T13:29:04.000Z</time>
                <name>Trackpoint 7447</name>
            </trkpt>
            <trkpt lat="49.696336" lon="10.0227496">
                <ele>178.0</ele>
                <time>2020-08-23T13:29:06.000Z</time>
                <name>Trackpoint 7448</name>
            </trkpt>
            <trkpt lat="49.6964416" lon="10.0227616">
                <ele>178.0</ele>
                <time>2020-08-23T13:29:08.000Z</time>
                <name>Trackpoint 7449</name>
            </trkpt>
            <trkpt lat="49.696576" lon="10.0227544">
                <ele>178.0</ele>
                <time>2020-08-23T13:29:10.000Z</time>
                <name>Trackpoint 7450</name>
            </trkpt>
            <trkpt lat="49.6967232" lon="10.0227496">
                <ele>178.0</ele>
                <time>2020-08-23T13:29:12.000Z</time>
                <name>Trackpoint 7451</name>
            </trkpt>
            <trkpt lat="49.6968384" lon="10.0227536">
                <ele>178.0</ele>
                <time>2020-08-23T13:29:14.000Z</time>
                <name>Trackpoint 7452</name>
            </trkpt>
            <trkpt lat="49.6969568" lon="10.0227368">
                <ele>177.0</ele>
                <time>2020-08-23T13:29:16.000Z</time>
                <name>Trackpoint 7453</name>
            </trkpt>
            <trkpt lat="49.6970624" lon="10.02272">
                <ele>178.0</ele>
                <time>2020-08-23T13:29:18.000Z</time>
                <name>Trackpoint 7454</name>
            </trkpt>
            <trkpt lat="49.697168" lon="10.022708">
                <ele>178.0</ele>
                <time>2020-08-23T13:29:20.000Z</time>
                <name>Trackpoint 7455</name>
            </trkpt>
            <trkpt lat="49.6972704" lon="10.0227">
                <ele>178.0</ele>
                <time>2020-08-23T13:29:22.000Z</time>
                <name>Trackpoint 7456</name>
            </trkpt>
            <trkpt lat="49.697376" lon="10.0226936">
                <ele>178.0</ele>
                <time>2020-08-23T13:29:24.000Z</time>
                <name>Trackpoint 7457</name>
            </trkpt>
            <trkpt lat="49.697488" lon="10.022692">
                <ele>177.0</ele>
                <time>2020-08-23T13:29:26.000Z</time>
                <name>Trackpoint 7458</name>
            </trkpt>
            <trkpt lat="49.6976128" lon="10.022692">
                <ele>177.0</ele>
                <time>2020-08-23T13:29:28.000Z</time>
                <name>Trackpoint 7459</name>
            </trkpt>
            <trkpt lat="49.697744" lon="10.0226944">
                <ele>177.0</ele>
                <time>2020-08-23T13:29:30.000Z</time>
                <name>Trackpoint 7460</name>
            </trkpt>
            <trkpt lat="49.697888" lon="10.0227072">
                <ele>178.0</ele>
                <time>2020-08-23T13:29:32.000Z</time>
                <name>Trackpoint 7461</name>
            </trkpt>
            <trkpt lat="49.6980096" lon="10.0226944">
                <ele>178.0</ele>
                <time>2020-08-23T13:29:34.000Z</time>
                <name>Trackpoint 7462</name>
            </trkpt>
            <trkpt lat="49.6981248" lon="10.0227032">
                <ele>178.0</ele>
                <time>2020-08-23T13:29:36.000Z</time>
                <name>Trackpoint 7463</name>
            </trkpt>
            <trkpt lat="49.6982432" lon="10.0226944">
                <ele>178.0</ele>
                <time>2020-08-23T13:29:38.000Z</time>
                <name>Trackpoint 7464</name>
            </trkpt>
            <trkpt lat="49.6983712" lon="10.0226816">
                <ele>178.0</ele>
                <time>2020-08-23T13:29:40.000Z</time>
                <name>Trackpoint 7465</name>
            </trkpt>
            <trkpt lat="49.6984896" lon="10.0226616">
                <ele>178.0</ele>
                <time>2020-08-23T13:29:42.000Z</time>
                <name>Trackpoint 7466</name>
            </trkpt>
            <trkpt lat="49.6986048" lon="10.0226432">
                <ele>178.0</ele>
                <time>2020-08-23T13:29:44.000Z</time>
                <name>Trackpoint 7467</name>
            </trkpt>
            <trkpt lat="49.69872" lon="10.0226288">
                <ele>178.0</ele>
                <time>2020-08-23T13:29:46.000Z</time>
                <name>Trackpoint 7468</name>
            </trkpt>
            <trkpt lat="49.698832" lon="10.022616">
                <ele>178.0</ele>
                <time>2020-08-23T13:29:48.000Z</time>
                <name>Trackpoint 7469</name>
            </trkpt>
            <trkpt lat="49.6989504" lon="10.0226048">
                <ele>178.0</ele>
                <time>2020-08-23T13:29:50.000Z</time>
                <name>Trackpoint 7470</name>
            </trkpt>
            <trkpt lat="49.6990656" lon="10.022596">
                <ele>178.0</ele>
                <time>2020-08-23T13:29:52.000Z</time>
                <name>Trackpoint 7471</name>
            </trkpt>
            <trkpt lat="49.6991808" lon="10.0225896">
                <ele>178.0</ele>
                <time>2020-08-23T13:29:54.000Z</time>
                <name>Trackpoint 7472</name>
            </trkpt>
            <trkpt lat="49.699296" lon="10.0225888">
                <ele>177.0</ele>
                <time>2020-08-23T13:29:56.000Z</time>
                <name>Trackpoint 7473</name>
            </trkpt>
            <trkpt lat="49.6994016" lon="10.0225848">
                <ele>177.0</ele>
                <time>2020-08-23T13:29:58.000Z</time>
                <name>Trackpoint 7474</name>
            </trkpt>
            <trkpt lat="49.6995168" lon="10.0225736">
                <ele>177.0</ele>
                <time>2020-08-23T13:30:00.000Z</time>
                <name>Trackpoint 7475</name>
            </trkpt>
            <trkpt lat="49.6996224" lon="10.022556">
                <ele>177.0</ele>
                <time>2020-08-23T13:30:02.000Z</time>
                <name>Trackpoint 7476</name>
            </trkpt>
            <trkpt lat="49.6997376" lon="10.0225432">
                <ele>177.0</ele>
                <time>2020-08-23T13:30:04.000Z</time>
                <name>Trackpoint 7477</name>
            </trkpt>
            <trkpt lat="49.6998496" lon="10.022536">
                <ele>176.0</ele>
                <time>2020-08-23T13:30:06.000Z</time>
                <name>Trackpoint 7478</name>
            </trkpt>
            <trkpt lat="49.6999584" lon="10.0225216">
                <ele>176.0</ele>
                <time>2020-08-23T13:30:08.000Z</time>
                <name>Trackpoint 7479</name>
            </trkpt>
            <trkpt lat="49.7000704" lon="10.0225136">
                <ele>176.0</ele>
                <time>2020-08-23T13:30:10.000Z</time>
                <name>Trackpoint 7480</name>
            </trkpt>
            <trkpt lat="49.700176" lon="10.0225088">
                <ele>176.0</ele>
                <time>2020-08-23T13:30:12.000Z</time>
                <name>Trackpoint 7481</name>
            </trkpt>
            <trkpt lat="49.700288" lon="10.0225136">
                <ele>176.0</ele>
                <time>2020-08-23T13:30:14.000Z</time>
                <name>Trackpoint 7482</name>
            </trkpt>
            <trkpt lat="49.7004" lon="10.0225336">
                <ele>176.0</ele>
                <time>2020-08-23T13:30:16.000Z</time>
                <name>Trackpoint 7483</name>
            </trkpt>
            <trkpt lat="49.7005088" lon="10.022556">
                <ele>176.0</ele>
                <time>2020-08-23T13:30:18.000Z</time>
                <name>Trackpoint 7484</name>
            </trkpt>
            <trkpt lat="49.7006144" lon="10.0225752">
                <ele>176.0</ele>
                <time>2020-08-23T13:30:20.000Z</time>
                <name>Trackpoint 7485</name>
            </trkpt>
            <trkpt lat="49.7007264" lon="10.0225784">
                <ele>175.0</ele>
                <time>2020-08-23T13:30:22.000Z</time>
                <name>Trackpoint 7486</name>
            </trkpt>
            <trkpt lat="49.700832" lon="10.02258">
                <ele>175.0</ele>
                <time>2020-08-23T13:30:24.000Z</time>
                <name>Trackpoint 7487</name>
            </trkpt>
            <trkpt lat="49.7009472" lon="10.0225952">
                <ele>175.0</ele>
                <time>2020-08-23T13:30:26.000Z</time>
                <name>Trackpoint 7488</name>
            </trkpt>
            <trkpt lat="49.7010528" lon="10.022596">
                <ele>175.0</ele>
                <time>2020-08-23T13:30:28.000Z</time>
                <name>Trackpoint 7489</name>
            </trkpt>
            <trkpt lat="49.701168" lon="10.0226">
                <ele>175.0</ele>
                <time>2020-08-23T13:30:30.000Z</time>
                <name>Trackpoint 7490</name>
            </trkpt>
            <trkpt lat="49.7012864" lon="10.0226024">
                <ele>175.0</ele>
                <time>2020-08-23T13:30:32.000Z</time>
                <name>Trackpoint 7491</name>
            </trkpt>
            <trkpt lat="49.7014016" lon="10.0226024">
                <ele>175.0</ele>
                <time>2020-08-23T13:30:34.000Z</time>
                <name>Trackpoint 7492</name>
            </trkpt>
            <trkpt lat="49.70152" lon="10.0226024">
                <ele>175.0</ele>
                <time>2020-08-23T13:30:36.000Z</time>
                <name>Trackpoint 7493</name>
            </trkpt>
            <trkpt lat="49.701632" lon="10.0226">
                <ele>175.0</ele>
                <time>2020-08-23T13:30:38.000Z</time>
                <name>Trackpoint 7494</name>
            </trkpt>
            <trkpt lat="49.7017312" lon="10.0225896">
                <ele>175.0</ele>
                <time>2020-08-23T13:30:40.000Z</time>
                <name>Trackpoint 7495</name>
            </trkpt>
            <trkpt lat="49.701824" lon="10.0225824">
                <ele>176.0</ele>
                <time>2020-08-23T13:30:42.000Z</time>
                <name>Trackpoint 7496</name>
            </trkpt>
            <trkpt lat="49.7019488" lon="10.0225824">
                <ele>176.0</ele>
                <time>2020-08-23T13:30:45.000Z</time>
                <name>Trackpoint 7497</name>
            </trkpt>
            <trkpt lat="49.70208" lon="10.0225752">
                <ele>176.0</ele>
                <time>2020-08-23T13:30:48.000Z</time>
                <name>Trackpoint 7498</name>
            </trkpt>
            <trkpt lat="49.7022016" lon="10.02258">
                <ele>176.0</ele>
                <time>2020-08-23T13:30:51.000Z</time>
                <name>Trackpoint 7499</name>
            </trkpt>
            <trkpt lat="49.7022944" lon="10.0225752">
                <ele>176.0</ele>
                <time>2020-08-23T13:30:53.000Z</time>
                <name>Trackpoint 7500</name>
            </trkpt>
            <trkpt lat="49.7023872" lon="10.0225632">
                <ele>176.0</ele>
                <time>2020-08-23T13:30:55.000Z</time>
                <name>Trackpoint 7501</name>
            </trkpt>
            <trkpt lat="49.7025056" lon="10.0225448">
                <ele>176.0</ele>
                <time>2020-08-23T13:30:58.000Z</time>
                <name>Trackpoint 7502</name>
            </trkpt>
            <trkpt lat="49.7026016" lon="10.0225232">
                <ele>176.0</ele>
                <time>2020-08-23T13:31:01.000Z</time>
                <name>Trackpoint 7503</name>
            </trkpt>
            <trkpt lat="49.702736" lon="10.0225184">
                <ele>176.0</ele>
                <time>2020-08-23T13:31:04.000Z</time>
                <name>Trackpoint 7504</name>
            </trkpt>
            <trkpt lat="49.7028608" lon="10.0224864">
                <ele>176.0</ele>
                <time>2020-08-23T13:31:06.000Z</time>
                <name>Trackpoint 7505</name>
            </trkpt>
            <trkpt lat="49.70296" lon="10.022444">
                <ele>175.0</ele>
                <time>2020-08-23T13:31:08.000Z</time>
                <name>Trackpoint 7506</name>
            </trkpt>
            <trkpt lat="49.7030624" lon="10.0224016">
                <ele>175.0</ele>
                <time>2020-08-23T13:31:10.000Z</time>
                <name>Trackpoint 7507</name>
            </trkpt>
            <trkpt lat="49.703152" lon="10.0223448">
                <ele>175.0</ele>
                <time>2020-08-23T13:31:12.000Z</time>
                <name>Trackpoint 7508</name>
            </trkpt>
            <trkpt lat="49.703232" lon="10.0222976">
                <ele>175.0</ele>
                <time>2020-08-23T13:31:14.000Z</time>
                <name>Trackpoint 7509</name>
            </trkpt>
            <trkpt lat="49.7033472" lon="10.0222464">
                <ele>175.0</ele>
                <time>2020-08-23T13:31:17.000Z</time>
                <name>Trackpoint 7510</name>
            </trkpt>
            <trkpt lat="49.7034656" lon="10.02218">
                <ele>175.0</ele>
                <time>2020-08-23T13:31:20.000Z</time>
                <name>Trackpoint 7511</name>
            </trkpt>
            <trkpt lat="49.7035872" lon="10.0221344">
                <ele>175.0</ele>
                <time>2020-08-23T13:31:23.000Z</time>
                <name>Trackpoint 7512</name>
            </trkpt>
            <trkpt lat="49.7037152" lon="10.0221168">
                <ele>175.0</ele>
                <time>2020-08-23T13:31:26.000Z</time>
                <name>Trackpoint 7513</name>
            </trkpt>
            <trkpt lat="49.703808" lon="10.0221056">
                <ele>175.0</ele>
                <time>2020-08-23T13:31:28.000Z</time>
                <name>Trackpoint 7514</name>
            </trkpt>
            <trkpt lat="49.7039424" lon="10.0220736">
                <ele>175.0</ele>
                <time>2020-08-23T13:31:31.000Z</time>
                <name>Trackpoint 7515</name>
            </trkpt>
            <trkpt lat="49.704064" lon="10.0220272">
                <ele>175.0</ele>
                <time>2020-08-23T13:31:34.000Z</time>
                <name>Trackpoint 7516</name>
            </trkpt>
            <trkpt lat="49.7041728" lon="10.0219648">
                <ele>175.0</ele>
                <time>2020-08-23T13:31:37.000Z</time>
                <name>Trackpoint 7517</name>
            </trkpt>
            <trkpt lat="49.7043008" lon="10.0218784">
                <ele>175.0</ele>
                <time>2020-08-23T13:31:40.000Z</time>
                <name>Trackpoint 7518</name>
            </trkpt>
            <trkpt lat="49.7044064" lon="10.02182">
                <ele>175.0</ele>
                <time>2020-08-23T13:31:43.000Z</time>
                <name>Trackpoint 7519</name>
            </trkpt>
            <trkpt lat="49.7045024" lon="10.0218032">
                <ele>175.0</ele>
                <time>2020-08-23T13:31:46.000Z</time>
                <name>Trackpoint 7520</name>
            </trkpt>
            <trkpt lat="49.7045984" lon="10.0218048">
                <ele>175.0</ele>
                <time>2020-08-23T13:31:48.000Z</time>
                <name>Trackpoint 7521</name>
            </trkpt>
            <trkpt lat="49.70472" lon="10.0217896">
                <ele>175.0</ele>
                <time>2020-08-23T13:31:52.000Z</time>
                <name>Trackpoint 7522</name>
            </trkpt>
            <trkpt lat="49.704816" lon="10.0217536">
                <ele>175.0</ele>
                <time>2020-08-23T13:31:55.000Z</time>
                <name>Trackpoint 7523</name>
            </trkpt>
            <trkpt lat="49.7048928" lon="10.021704">
                <ele>175.0</ele>
                <time>2020-08-23T13:31:58.000Z</time>
                <name>Trackpoint 7524</name>
            </trkpt>
            <trkpt lat="49.7049632" lon="10.0216368">
                <ele>175.0</ele>
                <time>2020-08-23T13:32:01.000Z</time>
                <name>Trackpoint 7525</name>
            </trkpt>
            <trkpt lat="49.7050752" lon="10.0215568">
                <ele>175.0</ele>
                <time>2020-08-23T13:32:04.000Z</time>
                <name>Trackpoint 7526</name>
            </trkpt>
            <trkpt lat="49.7051552" lon="10.0215152">
                <ele>175.0</ele>
                <time>2020-08-23T13:32:06.000Z</time>
                <name>Trackpoint 7527</name>
            </trkpt>
            <trkpt lat="49.705264" lon="10.021452">
                <ele>175.0</ele>
                <time>2020-08-23T13:32:09.000Z</time>
                <name>Trackpoint 7528</name>
            </trkpt>
            <trkpt lat="49.7053824" lon="10.0213984">
                <ele>175.0</ele>
                <time>2020-08-23T13:32:12.000Z</time>
                <name>Trackpoint 7529</name>
            </trkpt>
            <trkpt lat="49.7054944" lon="10.0213584">
                <ele>175.0</ele>
                <time>2020-08-23T13:32:15.000Z</time>
                <name>Trackpoint 7530</name>
            </trkpt>
            <trkpt lat="49.7055904" lon="10.0213232">
                <ele>175.0</ele>
                <time>2020-08-23T13:32:18.000Z</time>
                <name>Trackpoint 7531</name>
            </trkpt>
            <trkpt lat="49.7056928" lon="10.0212896">
                <ele>175.0</ele>
                <time>2020-08-23T13:32:21.000Z</time>
                <name>Trackpoint 7532</name>
            </trkpt>
            <trkpt lat="49.7057792" lon="10.02124">
                <ele>175.0</ele>
                <time>2020-08-23T13:32:26.000Z</time>
                <name>Trackpoint 7533</name>
            </trkpt>
            <trkpt lat="49.7058112" lon="10.0211184">
                <ele>175.0</ele>
                <time>2020-08-23T13:32:34.000Z</time>
                <name>Trackpoint 7534</name>
            </trkpt>
            <trkpt lat="49.705872" lon="10.021044">
                <ele>174.0</ele>
                <time>2020-08-23T13:33:46.000Z</time>
                <name>Trackpoint 7535</name>
            </trkpt>
            <trkpt lat="49.7059776" lon="10.0210264">
                <ele>174.0</ele>
                <time>2020-08-23T13:33:54.000Z</time>
                <name>Trackpoint 7536</name>
            </trkpt>
            <trkpt lat="49.706032" lon="10.0211">
                <ele>174.0</ele>
                <time>2020-08-23T13:33:59.000Z</time>
                <name>Trackpoint 7537</name>
            </trkpt>
            <trkpt lat="49.7061184" lon="10.0210168">
                <ele>174.0</ele>
                <time>2020-08-23T13:34:03.000Z</time>
                <name>Trackpoint 7538</name>
            </trkpt>
            <trkpt lat="49.7062144" lon="10.0209776">
                <ele>174.0</ele>
                <time>2020-08-23T13:34:08.000Z</time>
                <name>Trackpoint 7539</name>
            </trkpt>
            <trkpt lat="49.706304" lon="10.0209504">
                <ele>174.0</ele>
                <time>2020-08-23T13:34:13.000Z</time>
                <name>Trackpoint 7540</name>
            </trkpt>
            <trkpt lat="49.7063904" lon="10.0209176">
                <ele>174.0</ele>
                <time>2020-08-23T13:34:18.000Z</time>
                <name>Trackpoint 7541</name>
            </trkpt>
            <trkpt lat="49.7064864" lon="10.0208832">
                <ele>174.0</ele>
                <time>2020-08-23T13:34:24.000Z</time>
                <name>Trackpoint 7542</name>
            </trkpt>
            <trkpt lat="49.7065856" lon="10.020892">
                <ele>174.0</ele>
                <time>2020-08-23T13:34:29.000Z</time>
                <name>Trackpoint 7543</name>
            </trkpt>
            <trkpt lat="49.7067008" lon="10.0208456">
                <ele>174.0</ele>
                <time>2020-08-23T13:34:32.000Z</time>
                <name>Trackpoint 7544</name>
            </trkpt>
            <trkpt lat="49.7067872" lon="10.0208064">
                <ele>174.0</ele>
                <time>2020-08-23T13:34:34.000Z</time>
                <name>Trackpoint 7545</name>
            </trkpt>
            <trkpt lat="49.7068832" lon="10.020768">
                <ele>174.0</ele>
                <time>2020-08-23T13:34:36.000Z</time>
                <name>Trackpoint 7546</name>
            </trkpt>
            <trkpt lat="49.7069664" lon="10.0207232">
                <ele>174.0</ele>
                <time>2020-08-23T13:34:38.000Z</time>
                <name>Trackpoint 7547</name>
            </trkpt>
            <trkpt lat="49.7070592" lon="10.0206632">
                <ele>174.0</ele>
                <time>2020-08-23T13:34:40.000Z</time>
                <name>Trackpoint 7548</name>
            </trkpt>
            <trkpt lat="49.7071456" lon="10.0206048">
                <ele>174.0</ele>
                <time>2020-08-23T13:34:42.000Z</time>
                <name>Trackpoint 7549</name>
            </trkpt>
            <trkpt lat="49.7072416" lon="10.0205296">
                <ele>174.0</ele>
                <time>2020-08-23T13:34:44.000Z</time>
                <name>Trackpoint 7550</name>
            </trkpt>
            <trkpt lat="49.7073408" lon="10.0204552">
                <ele>174.0</ele>
                <time>2020-08-23T13:34:46.000Z</time>
                <name>Trackpoint 7551</name>
            </trkpt>
            <trkpt lat="49.7074368" lon="10.0203888">
                <ele>174.0</ele>
                <time>2020-08-23T13:34:48.000Z</time>
                <name>Trackpoint 7552</name>
            </trkpt>
            <trkpt lat="49.7075296" lon="10.0203584">
                <ele>174.0</ele>
                <time>2020-08-23T13:34:50.000Z</time>
                <name>Trackpoint 7553</name>
            </trkpt>
            <trkpt lat="49.7076224" lon="10.0203304">
                <ele>174.0</ele>
                <time>2020-08-23T13:34:52.000Z</time>
                <name>Trackpoint 7554</name>
            </trkpt>
            <trkpt lat="49.7077152" lon="10.020304">
                <ele>174.0</ele>
                <time>2020-08-23T13:34:54.000Z</time>
                <name>Trackpoint 7555</name>
            </trkpt>
            <trkpt lat="49.707808" lon="10.0202736">
                <ele>174.0</ele>
                <time>2020-08-23T13:34:56.000Z</time>
                <name>Trackpoint 7556</name>
            </trkpt>
            <trkpt lat="49.707936" lon="10.0202416">
                <ele>174.0</ele>
                <time>2020-08-23T13:34:58.000Z</time>
                <name>Trackpoint 7557</name>
            </trkpt>
            <trkpt lat="49.7080448" lon="10.0201976">
                <ele>174.0</ele>
                <time>2020-08-23T13:35:00.000Z</time>
                <name>Trackpoint 7558</name>
            </trkpt>
            <trkpt lat="49.7081504" lon="10.0201704">
                <ele>174.0</ele>
                <time>2020-08-23T13:35:02.000Z</time>
                <name>Trackpoint 7559</name>
            </trkpt>
            <trkpt lat="49.7082592" lon="10.0201904">
                <ele>174.0</ele>
                <time>2020-08-23T13:35:04.000Z</time>
                <name>Trackpoint 7560</name>
            </trkpt>
            <trkpt lat="49.7083808" lon="10.020228">
                <ele>174.0</ele>
                <time>2020-08-23T13:35:06.000Z</time>
                <name>Trackpoint 7561</name>
            </trkpt>
            <trkpt lat="49.7084928" lon="10.0202704">
                <ele>174.0</ele>
                <time>2020-08-23T13:35:08.000Z</time>
                <name>Trackpoint 7562</name>
            </trkpt>
            <trkpt lat="49.7085952" lon="10.020324">
                <ele>175.0</ele>
                <time>2020-08-23T13:35:10.000Z</time>
                <name>Trackpoint 7563</name>
            </trkpt>
            <trkpt lat="49.7087008" lon="10.02036">
                <ele>175.0</ele>
                <time>2020-08-23T13:35:12.000Z</time>
                <name>Trackpoint 7564</name>
            </trkpt>
            <trkpt lat="49.7088192" lon="10.02038">
                <ele>175.0</ele>
                <time>2020-08-23T13:35:14.000Z</time>
                <name>Trackpoint 7565</name>
            </trkpt>
            <trkpt lat="49.7089376" lon="10.0203832">
                <ele>175.0</ele>
                <time>2020-08-23T13:35:16.000Z</time>
                <name>Trackpoint 7566</name>
            </trkpt>
            <trkpt lat="49.70904" lon="10.0203584">
                <ele>175.0</ele>
                <time>2020-08-23T13:35:18.000Z</time>
                <name>Trackpoint 7567</name>
            </trkpt>
            <trkpt lat="49.7091488" lon="10.0203136">
                <ele>175.0</ele>
                <time>2020-08-23T13:35:20.000Z</time>
                <name>Trackpoint 7568</name>
            </trkpt>
            <trkpt lat="49.7092576" lon="10.0203016">
                <ele>175.0</ele>
                <time>2020-08-23T13:35:22.000Z</time>
                <name>Trackpoint 7569</name>
            </trkpt>
            <trkpt lat="49.7094048" lon="10.0203104">
                <ele>175.0</ele>
                <time>2020-08-23T13:35:24.000Z</time>
                <name>Trackpoint 7570</name>
            </trkpt>
            <trkpt lat="49.7095456" lon="10.0202984">
                <ele>175.0</ele>
                <time>2020-08-23T13:35:26.000Z</time>
                <name>Trackpoint 7571</name>
            </trkpt>
            <trkpt lat="49.7096736" lon="10.02028">
                <ele>174.0</ele>
                <time>2020-08-23T13:35:28.000Z</time>
                <name>Trackpoint 7572</name>
            </trkpt>
            <trkpt lat="49.7098048" lon="10.0202576">
                <ele>174.0</ele>
                <time>2020-08-23T13:35:30.000Z</time>
                <name>Trackpoint 7573</name>
            </trkpt>
            <trkpt lat="49.7099392" lon="10.0202304">
                <ele>174.0</ele>
                <time>2020-08-23T13:35:32.000Z</time>
                <name>Trackpoint 7574</name>
            </trkpt>
            <trkpt lat="49.710064" lon="10.0201904">
                <ele>174.0</ele>
                <time>2020-08-23T13:35:34.000Z</time>
                <name>Trackpoint 7575</name>
            </trkpt>
            <trkpt lat="49.71016" lon="10.0201304">
                <ele>174.0</ele>
                <time>2020-08-23T13:35:36.000Z</time>
                <name>Trackpoint 7576</name>
            </trkpt>
            <trkpt lat="49.7102496" lon="10.0201056">
                <ele>174.0</ele>
                <time>2020-08-23T13:35:38.000Z</time>
                <name>Trackpoint 7577</name>
            </trkpt>
            <trkpt lat="49.7103648" lon="10.0200216">
                <ele>174.0</ele>
                <time>2020-08-23T13:35:40.000Z</time>
                <name>Trackpoint 7578</name>
            </trkpt>
            <trkpt lat="49.710448" lon="10.0199832">
                <ele>174.0</ele>
                <time>2020-08-23T13:35:41.000Z</time>
                <name>Trackpoint 7579</name>
            </trkpt>
            <trkpt lat="49.7105344" lon="10.0199544">
                <ele>174.0</ele>
                <time>2020-08-23T13:35:42.000Z</time>
                <name>Trackpoint 7580</name>
            </trkpt>
            <trkpt lat="49.7106464" lon="10.0199232">
                <ele>173.0</ele>
                <time>2020-08-23T13:35:44.000Z</time>
                <name>Trackpoint 7581</name>
            </trkpt>
            <trkpt lat="49.7107456" lon="10.0198984">
                <ele>173.0</ele>
                <time>2020-08-23T13:35:46.000Z</time>
                <name>Trackpoint 7582</name>
            </trkpt>
            <trkpt lat="49.7108512" lon="10.019852">
                <ele>173.0</ele>
                <time>2020-08-23T13:35:48.000Z</time>
                <name>Trackpoint 7583</name>
            </trkpt>
            <trkpt lat="49.710944" lon="10.0198">
                <ele>173.0</ele>
                <time>2020-08-23T13:35:50.000Z</time>
                <name>Trackpoint 7584</name>
            </trkpt>
            <trkpt lat="49.7110496" lon="10.0197432">
                <ele>173.0</ele>
                <time>2020-08-23T13:35:52.000Z</time>
                <name>Trackpoint 7585</name>
            </trkpt>
            <trkpt lat="49.7111424" lon="10.0196784">
                <ele>173.0</ele>
                <time>2020-08-23T13:35:54.000Z</time>
                <name>Trackpoint 7586</name>
            </trkpt>
            <trkpt lat="49.711248" lon="10.0196104">
                <ele>173.0</ele>
                <time>2020-08-23T13:35:56.000Z</time>
                <name>Trackpoint 7587</name>
            </trkpt>
            <trkpt lat="49.7113504" lon="10.0195368">
                <ele>173.0</ele>
                <time>2020-08-23T13:35:58.000Z</time>
                <name>Trackpoint 7588</name>
            </trkpt>
            <trkpt lat="49.7114464" lon="10.0194656">
                <ele>173.0</ele>
                <time>2020-08-23T13:36:00.000Z</time>
                <name>Trackpoint 7589</name>
            </trkpt>
            <trkpt lat="49.7115488" lon="10.0193952">
                <ele>173.0</ele>
                <time>2020-08-23T13:36:02.000Z</time>
                <name>Trackpoint 7590</name>
            </trkpt>
            <trkpt lat="49.711648" lon="10.0193184">
                <ele>173.0</ele>
                <time>2020-08-23T13:36:04.000Z</time>
                <name>Trackpoint 7591</name>
            </trkpt>
            <trkpt lat="49.711744" lon="10.0192384">
                <ele>173.0</ele>
                <time>2020-08-23T13:36:06.000Z</time>
                <name>Trackpoint 7592</name>
            </trkpt>
            <trkpt lat="49.7118336" lon="10.0191536">
                <ele>173.0</ele>
                <time>2020-08-23T13:36:08.000Z</time>
                <name>Trackpoint 7593</name>
            </trkpt>
            <trkpt lat="49.7119264" lon="10.0190672">
                <ele>174.0</ele>
                <time>2020-08-23T13:36:10.000Z</time>
                <name>Trackpoint 7594</name>
            </trkpt>
            <trkpt lat="49.712016" lon="10.01898">
                <ele>174.0</ele>
                <time>2020-08-23T13:36:12.000Z</time>
                <name>Trackpoint 7595</name>
            </trkpt>
            <trkpt lat="49.7121056" lon="10.0188904">
                <ele>174.0</ele>
                <time>2020-08-23T13:36:14.000Z</time>
                <name>Trackpoint 7596</name>
            </trkpt>
            <trkpt lat="49.7121952" lon="10.0187968">
                <ele>174.0</ele>
                <time>2020-08-23T13:36:16.000Z</time>
                <name>Trackpoint 7597</name>
            </trkpt>
            <trkpt lat="49.7122848" lon="10.0187">
                <ele>174.0</ele>
                <time>2020-08-23T13:36:18.000Z</time>
                <name>Trackpoint 7598</name>
            </trkpt>
            <trkpt lat="49.7123712" lon="10.0185984">
                <ele>174.0</ele>
                <time>2020-08-23T13:36:20.000Z</time>
                <name>Trackpoint 7599</name>
            </trkpt>
            <trkpt lat="49.7124608" lon="10.0184984">
                <ele>174.0</ele>
                <time>2020-08-23T13:36:22.000Z</time>
                <name>Trackpoint 7600</name>
            </trkpt>
            <trkpt lat="49.712544" lon="10.0183952">
                <ele>174.0</ele>
                <time>2020-08-23T13:36:24.000Z</time>
                <name>Trackpoint 7601</name>
            </trkpt>
            <trkpt lat="49.7126272" lon="10.0182832">
                <ele>174.0</ele>
                <time>2020-08-23T13:36:26.000Z</time>
                <name>Trackpoint 7602</name>
            </trkpt>
            <trkpt lat="49.7127072" lon="10.0181616">
                <ele>173.0</ele>
                <time>2020-08-23T13:36:28.000Z</time>
                <name>Trackpoint 7603</name>
            </trkpt>
            <trkpt lat="49.7127968" lon="10.018032">
                <ele>173.0</ele>
                <time>2020-08-23T13:36:30.000Z</time>
                <name>Trackpoint 7604</name>
            </trkpt>
            <trkpt lat="49.712896" lon="10.0179056">
                <ele>173.0</ele>
                <time>2020-08-23T13:36:32.000Z</time>
                <name>Trackpoint 7605</name>
            </trkpt>
            <trkpt lat="49.7129888" lon="10.0177784">
                <ele>173.0</ele>
                <time>2020-08-23T13:36:34.000Z</time>
                <name>Trackpoint 7606</name>
            </trkpt>
            <trkpt lat="49.7130816" lon="10.0176584">
                <ele>173.0</ele>
                <time>2020-08-23T13:36:36.000Z</time>
                <name>Trackpoint 7607</name>
            </trkpt>
            <trkpt lat="49.7131776" lon="10.0175512">
                <ele>173.0</ele>
                <time>2020-08-23T13:36:38.000Z</time>
                <name>Trackpoint 7608</name>
            </trkpt>
            <trkpt lat="49.713264" lon="10.0174504">
                <ele>173.0</ele>
                <time>2020-08-23T13:36:40.000Z</time>
                <name>Trackpoint 7609</name>
            </trkpt>
            <trkpt lat="49.7133472" lon="10.0173568">
                <ele>173.0</ele>
                <time>2020-08-23T13:36:42.000Z</time>
                <name>Trackpoint 7610</name>
            </trkpt>
            <trkpt lat="49.7134272" lon="10.0172664">
                <ele>174.0</ele>
                <time>2020-08-23T13:36:44.000Z</time>
                <name>Trackpoint 7611</name>
            </trkpt>
            <trkpt lat="49.713504" lon="10.017168">
                <ele>174.0</ele>
                <time>2020-08-23T13:36:46.000Z</time>
                <name>Trackpoint 7612</name>
            </trkpt>
            <trkpt lat="49.7135776" lon="10.0170648">
                <ele>174.0</ele>
                <time>2020-08-23T13:36:48.000Z</time>
                <name>Trackpoint 7613</name>
            </trkpt>
            <trkpt lat="49.7136512" lon="10.016956">
                <ele>174.0</ele>
                <time>2020-08-23T13:36:50.000Z</time>
                <name>Trackpoint 7614</name>
            </trkpt>
            <trkpt lat="49.7137184" lon="10.0168448">
                <ele>174.0</ele>
                <time>2020-08-23T13:36:52.000Z</time>
                <name>Trackpoint 7615</name>
            </trkpt>
            <trkpt lat="49.7137856" lon="10.0167312">
                <ele>174.0</ele>
                <time>2020-08-23T13:36:54.000Z</time>
                <name>Trackpoint 7616</name>
            </trkpt>
            <trkpt lat="49.7138592" lon="10.0166168">
                <ele>174.0</ele>
                <time>2020-08-23T13:36:56.000Z</time>
                <name>Trackpoint 7617</name>
            </trkpt>
            <trkpt lat="49.7139296" lon="10.0165008">
                <ele>174.0</ele>
                <time>2020-08-23T13:36:58.000Z</time>
                <name>Trackpoint 7618</name>
            </trkpt>
            <trkpt lat="49.7139968" lon="10.0163744">
                <ele>174.0</ele>
                <time>2020-08-23T13:37:00.000Z</time>
                <name>Trackpoint 7619</name>
            </trkpt>
            <trkpt lat="49.714064" lon="10.0162464">
                <ele>174.0</ele>
                <time>2020-08-23T13:37:02.000Z</time>
                <name>Trackpoint 7620</name>
            </trkpt>
            <trkpt lat="49.7141376" lon="10.0161152">
                <ele>174.0</ele>
                <time>2020-08-23T13:37:04.000Z</time>
                <name>Trackpoint 7621</name>
            </trkpt>
            <trkpt lat="49.714208" lon="10.0159816">
                <ele>174.0</ele>
                <time>2020-08-23T13:37:06.000Z</time>
                <name>Trackpoint 7622</name>
            </trkpt>
            <trkpt lat="49.714288" lon="10.0158584">
                <ele>174.0</ele>
                <time>2020-08-23T13:37:08.000Z</time>
                <name>Trackpoint 7623</name>
            </trkpt>
            <trkpt lat="49.7143616" lon="10.0157448">
                <ele>174.0</ele>
                <time>2020-08-23T13:37:10.000Z</time>
                <name>Trackpoint 7624</name>
            </trkpt>
            <trkpt lat="49.7144384" lon="10.0156344">
                <ele>174.0</ele>
                <time>2020-08-23T13:37:12.000Z</time>
                <name>Trackpoint 7625</name>
            </trkpt>
            <trkpt lat="49.714512" lon="10.01552">
                <ele>174.0</ele>
                <time>2020-08-23T13:37:14.000Z</time>
                <name>Trackpoint 7626</name>
            </trkpt>
            <trkpt lat="49.7145888" lon="10.0154048">
                <ele>173.0</ele>
                <time>2020-08-23T13:37:16.000Z</time>
                <name>Trackpoint 7627</name>
            </trkpt>
            <trkpt lat="49.7146688" lon="10.0152968">
                <ele>173.0</ele>
                <time>2020-08-23T13:37:18.000Z</time>
                <name>Trackpoint 7628</name>
            </trkpt>
            <trkpt lat="49.7147488" lon="10.0151856">
                <ele>174.0</ele>
                <time>2020-08-23T13:37:20.000Z</time>
                <name>Trackpoint 7629</name>
            </trkpt>
            <trkpt lat="49.7148256" lon="10.0150744">
                <ele>174.0</ele>
                <time>2020-08-23T13:37:22.000Z</time>
                <name>Trackpoint 7630</name>
            </trkpt>
            <trkpt lat="49.714896" lon="10.0149672">
                <ele>174.0</ele>
                <time>2020-08-23T13:37:24.000Z</time>
                <name>Trackpoint 7631</name>
            </trkpt>
            <trkpt lat="49.7149728" lon="10.0148512">
                <ele>174.0</ele>
                <time>2020-08-23T13:37:26.000Z</time>
                <name>Trackpoint 7632</name>
            </trkpt>
            <trkpt lat="49.7150464" lon="10.0147384">
                <ele>174.0</ele>
                <time>2020-08-23T13:37:28.000Z</time>
                <name>Trackpoint 7633</name>
            </trkpt>
            <trkpt lat="49.71512" lon="10.0146216">
                <ele>174.0</ele>
                <time>2020-08-23T13:37:30.000Z</time>
                <name>Trackpoint 7634</name>
            </trkpt>
            <trkpt lat="49.7151872" lon="10.0145032">
                <ele>174.0</ele>
                <time>2020-08-23T13:37:32.000Z</time>
                <name>Trackpoint 7635</name>
            </trkpt>
            <trkpt lat="49.7152608" lon="10.0143784">
                <ele>174.0</ele>
                <time>2020-08-23T13:37:34.000Z</time>
                <name>Trackpoint 7636</name>
            </trkpt>
            <trkpt lat="49.7153312" lon="10.0142616">
                <ele>174.0</ele>
                <time>2020-08-23T13:37:36.000Z</time>
                <name>Trackpoint 7637</name>
            </trkpt>
            <trkpt lat="49.7154048" lon="10.01414">
                <ele>173.0</ele>
                <time>2020-08-23T13:37:38.000Z</time>
                <name>Trackpoint 7638</name>
            </trkpt>
            <trkpt lat="49.715472" lon="10.0140184">
                <ele>173.0</ele>
                <time>2020-08-23T13:37:40.000Z</time>
                <name>Trackpoint 7639</name>
            </trkpt>
            <trkpt lat="49.7155488" lon="10.0138928">
                <ele>173.0</ele>
                <time>2020-08-23T13:37:42.000Z</time>
                <name>Trackpoint 7640</name>
            </trkpt>
            <trkpt lat="49.7156256" lon="10.0137704">
                <ele>173.0</ele>
                <time>2020-08-23T13:37:44.000Z</time>
                <name>Trackpoint 7641</name>
            </trkpt>
            <trkpt lat="49.7157024" lon="10.0136408">
                <ele>173.0</ele>
                <time>2020-08-23T13:37:46.000Z</time>
                <name>Trackpoint 7642</name>
            </trkpt>
            <trkpt lat="49.7157856" lon="10.0135048">
                <ele>173.0</ele>
                <time>2020-08-23T13:37:48.000Z</time>
                <name>Trackpoint 7643</name>
            </trkpt>
            <trkpt lat="49.7158656" lon="10.0133632">
                <ele>173.0</ele>
                <time>2020-08-23T13:37:50.000Z</time>
                <name>Trackpoint 7644</name>
            </trkpt>
            <trkpt lat="49.7159552" lon="10.013224">
                <ele>173.0</ele>
                <time>2020-08-23T13:37:52.000Z</time>
                <name>Trackpoint 7645</name>
            </trkpt>
            <trkpt lat="49.7160384" lon="10.0130864">
                <ele>173.0</ele>
                <time>2020-08-23T13:37:54.000Z</time>
                <name>Trackpoint 7646</name>
            </trkpt>
            <trkpt lat="49.7161216" lon="10.0129536">
                <ele>173.0</ele>
                <time>2020-08-23T13:37:56.000Z</time>
                <name>Trackpoint 7647</name>
            </trkpt>
            <trkpt lat="49.7162048" lon="10.0128232">
                <ele>173.0</ele>
                <time>2020-08-23T13:37:58.000Z</time>
                <name>Trackpoint 7648</name>
            </trkpt>
            <trkpt lat="49.7162848" lon="10.0126936">
                <ele>172.0</ele>
                <time>2020-08-23T13:38:00.000Z</time>
                <name>Trackpoint 7649</name>
            </trkpt>
            <trkpt lat="49.7163648" lon="10.012564">
                <ele>172.0</ele>
                <time>2020-08-23T13:38:02.000Z</time>
                <name>Trackpoint 7650</name>
            </trkpt>
            <trkpt lat="49.7164416" lon="10.0124368">
                <ele>172.0</ele>
                <time>2020-08-23T13:38:04.000Z</time>
                <name>Trackpoint 7651</name>
            </trkpt>
            <trkpt lat="49.7165184" lon="10.0123144">
                <ele>172.0</ele>
                <time>2020-08-23T13:38:06.000Z</time>
                <name>Trackpoint 7652</name>
            </trkpt>
            <trkpt lat="49.7165984" lon="10.0121896">
                <ele>173.0</ele>
                <time>2020-08-23T13:38:08.000Z</time>
                <name>Trackpoint 7653</name>
            </trkpt>
            <trkpt lat="49.7166752" lon="10.0120648">
                <ele>173.0</ele>
                <time>2020-08-23T13:38:10.000Z</time>
                <name>Trackpoint 7654</name>
            </trkpt>
            <trkpt lat="49.7167552" lon="10.0119416">
                <ele>173.0</ele>
                <time>2020-08-23T13:38:12.000Z</time>
                <name>Trackpoint 7655</name>
            </trkpt>
            <trkpt lat="49.716832" lon="10.0118128">
                <ele>173.0</ele>
                <time>2020-08-23T13:38:14.000Z</time>
                <name>Trackpoint 7656</name>
            </trkpt>
            <trkpt lat="49.7169088" lon="10.0116904">
                <ele>173.0</ele>
                <time>2020-08-23T13:38:16.000Z</time>
                <name>Trackpoint 7657</name>
            </trkpt>
            <trkpt lat="49.716992" lon="10.0115672">
                <ele>173.0</ele>
                <time>2020-08-23T13:38:18.000Z</time>
                <name>Trackpoint 7658</name>
            </trkpt>
            <trkpt lat="49.7170688" lon="10.0114384">
                <ele>173.0</ele>
                <time>2020-08-23T13:38:20.000Z</time>
                <name>Trackpoint 7659</name>
            </trkpt>
            <trkpt lat="49.7171392" lon="10.0113096">
                <ele>173.0</ele>
                <time>2020-08-23T13:38:22.000Z</time>
                <name>Trackpoint 7660</name>
            </trkpt>
            <trkpt lat="49.717216" lon="10.011184">
                <ele>173.0</ele>
                <time>2020-08-23T13:38:24.000Z</time>
                <name>Trackpoint 7661</name>
            </trkpt>
            <trkpt lat="49.7172896" lon="10.0110592">
                <ele>172.0</ele>
                <time>2020-08-23T13:38:26.000Z</time>
                <name>Trackpoint 7662</name>
            </trkpt>
            <trkpt lat="49.7173696" lon="10.010932">
                <ele>173.0</ele>
                <time>2020-08-23T13:38:28.000Z</time>
                <name>Trackpoint 7663</name>
            </trkpt>
            <trkpt lat="49.7174464" lon="10.0108096">
                <ele>172.0</ele>
                <time>2020-08-23T13:38:30.000Z</time>
                <name>Trackpoint 7664</name>
            </trkpt>
            <trkpt lat="49.7175168" lon="10.0106824">
                <ele>172.0</ele>
                <time>2020-08-23T13:38:32.000Z</time>
                <name>Trackpoint 7665</name>
            </trkpt>
            <trkpt lat="49.7175872" lon="10.0105488">
                <ele>172.0</ele>
                <time>2020-08-23T13:38:34.000Z</time>
                <name>Trackpoint 7666</name>
            </trkpt>
            <trkpt lat="49.717664" lon="10.0104176">
                <ele>172.0</ele>
                <time>2020-08-23T13:38:36.000Z</time>
                <name>Trackpoint 7667</name>
            </trkpt>
            <trkpt lat="49.717744" lon="10.0102904">
                <ele>172.0</ele>
                <time>2020-08-23T13:38:38.000Z</time>
                <name>Trackpoint 7668</name>
            </trkpt>
            <trkpt lat="49.7178144" lon="10.0101616">
                <ele>173.0</ele>
                <time>2020-08-23T13:38:40.000Z</time>
                <name>Trackpoint 7669</name>
            </trkpt>
            <trkpt lat="49.717888" lon="10.0100336">
                <ele>172.0</ele>
                <time>2020-08-23T13:38:42.000Z</time>
                <name>Trackpoint 7670</name>
            </trkpt>
            <trkpt lat="49.7179552" lon="10.0099032">
                <ele>172.0</ele>
                <time>2020-08-23T13:38:44.000Z</time>
                <name>Trackpoint 7671</name>
            </trkpt>
            <trkpt lat="49.7180224" lon="10.0097704">
                <ele>172.0</ele>
                <time>2020-08-23T13:38:46.000Z</time>
                <name>Trackpoint 7672</name>
            </trkpt>
            <trkpt lat="49.7180864" lon="10.0096368">
                <ele>171.0</ele>
                <time>2020-08-23T13:38:48.000Z</time>
                <name>Trackpoint 7673</name>
            </trkpt>
            <trkpt lat="49.7181536" lon="10.0095032">
                <ele>172.0</ele>
                <time>2020-08-23T13:38:50.000Z</time>
                <name>Trackpoint 7674</name>
            </trkpt>
            <trkpt lat="49.718224" lon="10.009368">
                <ele>172.0</ele>
                <time>2020-08-23T13:38:52.000Z</time>
                <name>Trackpoint 7675</name>
            </trkpt>
            <trkpt lat="49.7182816" lon="10.0092288">
                <ele>172.0</ele>
                <time>2020-08-23T13:38:54.000Z</time>
                <name>Trackpoint 7676</name>
            </trkpt>
            <trkpt lat="49.7183296" lon="10.0090848">
                <ele>172.0</ele>
                <time>2020-08-23T13:38:56.000Z</time>
                <name>Trackpoint 7677</name>
            </trkpt>
            <trkpt lat="49.718368" lon="10.0089384">
                <ele>171.0</ele>
                <time>2020-08-23T13:38:58.000Z</time>
                <name>Trackpoint 7678</name>
            </trkpt>
            <trkpt lat="49.7184064" lon="10.0087904">
                <ele>172.0</ele>
                <time>2020-08-23T13:39:00.000Z</time>
                <name>Trackpoint 7679</name>
            </trkpt>
            <trkpt lat="49.7184288" lon="10.0086384">
                <ele>172.0</ele>
                <time>2020-08-23T13:39:02.000Z</time>
                <name>Trackpoint 7680</name>
            </trkpt>
            <trkpt lat="49.7184448" lon="10.0084712">
                <ele>173.0</ele>
                <time>2020-08-23T13:39:04.000Z</time>
                <name>Trackpoint 7681</name>
            </trkpt>
            <trkpt lat="49.7184576" lon="10.0083088">
                <ele>173.0</ele>
                <time>2020-08-23T13:39:06.000Z</time>
                <name>Trackpoint 7682</name>
            </trkpt>
            <trkpt lat="49.7184704" lon="10.0081528">
                <ele>173.0</ele>
                <time>2020-08-23T13:39:08.000Z</time>
                <name>Trackpoint 7683</name>
            </trkpt>
            <trkpt lat="49.7184768" lon="10.0080168">
                <ele>173.0</ele>
                <time>2020-08-23T13:39:10.000Z</time>
                <name>Trackpoint 7684</name>
            </trkpt>
            <trkpt lat="49.71848" lon="10.0078688">
                <ele>173.0</ele>
                <time>2020-08-23T13:39:12.000Z</time>
                <name>Trackpoint 7685</name>
            </trkpt>
            <trkpt lat="49.7184832" lon="10.0077104">
                <ele>174.0</ele>
                <time>2020-08-23T13:39:14.000Z</time>
                <name>Trackpoint 7686</name>
            </trkpt>
            <trkpt lat="49.7184992" lon="10.0075416">
                <ele>175.0</ele>
                <time>2020-08-23T13:39:16.000Z</time>
                <name>Trackpoint 7687</name>
            </trkpt>
            <trkpt lat="49.7185248" lon="10.0073696">
                <ele>175.0</ele>
                <time>2020-08-23T13:39:18.000Z</time>
                <name>Trackpoint 7688</name>
            </trkpt>
            <trkpt lat="49.7185472" lon="10.0071968">
                <ele>175.0</ele>
                <time>2020-08-23T13:39:20.000Z</time>
                <name>Trackpoint 7689</name>
            </trkpt>
            <trkpt lat="49.7185568" lon="10.0070248">
                <ele>175.0</ele>
                <time>2020-08-23T13:39:22.000Z</time>
                <name>Trackpoint 7690</name>
            </trkpt>
            <trkpt lat="49.7185664" lon="10.0068464">
                <ele>175.0</ele>
                <time>2020-08-23T13:39:24.000Z</time>
                <name>Trackpoint 7691</name>
            </trkpt>
            <trkpt lat="49.7185696" lon="10.006668">
                <ele>175.0</ele>
                <time>2020-08-23T13:39:26.000Z</time>
                <name>Trackpoint 7692</name>
            </trkpt>
            <trkpt lat="49.718576" lon="10.0064936">
                <ele>175.0</ele>
                <time>2020-08-23T13:39:28.000Z</time>
                <name>Trackpoint 7693</name>
            </trkpt>
            <trkpt lat="49.7185856" lon="10.0063112">
                <ele>176.0</ele>
                <time>2020-08-23T13:39:30.000Z</time>
                <name>Trackpoint 7694</name>
            </trkpt>
            <trkpt lat="49.718592" lon="10.006132">
                <ele>176.0</ele>
                <time>2020-08-23T13:39:32.000Z</time>
                <name>Trackpoint 7695</name>
            </trkpt>
            <trkpt lat="49.7185984" lon="10.00604">
                <ele>175.0</ele>
                <time>2020-08-23T13:39:33.000Z</time>
                <name>Trackpoint 7696</name>
            </trkpt>
            <trkpt lat="49.718608" lon="10.0058568">
                <ele>175.0</ele>
                <time>2020-08-23T13:39:35.000Z</time>
                <name>Trackpoint 7697</name>
            </trkpt>
            <trkpt lat="49.7186208" lon="10.00576">
                <ele>175.0</ele>
                <time>2020-08-23T13:39:36.000Z</time>
                <name>Trackpoint 7698</name>
            </trkpt>
            <trkpt lat="49.7186464" lon="10.005584">
                <ele>175.0</ele>
                <time>2020-08-23T13:39:38.000Z</time>
                <name>Trackpoint 7699</name>
            </trkpt>
            <trkpt lat="49.7186656" lon="10.0054928">
                <ele>174.0</ele>
                <time>2020-08-23T13:39:39.000Z</time>
                <name>Trackpoint 7700</name>
            </trkpt>
            <trkpt lat="49.7187168" lon="10.0053216">
                <ele>174.0</ele>
                <time>2020-08-23T13:39:41.000Z</time>
                <name>Trackpoint 7701</name>
            </trkpt>
            <trkpt lat="49.7187648" lon="10.00516">
                <ele>174.0</ele>
                <time>2020-08-23T13:39:43.000Z</time>
                <name>Trackpoint 7702</name>
            </trkpt>
            <trkpt lat="49.7188064" lon="10.004996">
                <ele>174.0</ele>
                <time>2020-08-23T13:39:45.000Z</time>
                <name>Trackpoint 7703</name>
            </trkpt>
            <trkpt lat="49.7188576" lon="10.0048336">
                <ele>174.0</ele>
                <time>2020-08-23T13:39:47.000Z</time>
                <name>Trackpoint 7704</name>
            </trkpt>
            <trkpt lat="49.7189088" lon="10.0046816">
                <ele>174.0</ele>
                <time>2020-08-23T13:39:49.000Z</time>
                <name>Trackpoint 7705</name>
            </trkpt>
            <trkpt lat="49.7189792" lon="10.0045368">
                <ele>174.0</ele>
                <time>2020-08-23T13:39:51.000Z</time>
                <name>Trackpoint 7706</name>
            </trkpt>
            <trkpt lat="49.7190432" lon="10.0043984">
                <ele>173.0</ele>
                <time>2020-08-23T13:39:53.000Z</time>
                <name>Trackpoint 7707</name>
            </trkpt>
            <trkpt lat="49.71912" lon="10.0042616">
                <ele>174.0</ele>
                <time>2020-08-23T13:39:55.000Z</time>
                <name>Trackpoint 7708</name>
            </trkpt>
            <trkpt lat="49.7191776" lon="10.0041168">
                <ele>174.0</ele>
                <time>2020-08-23T13:39:57.000Z</time>
                <name>Trackpoint 7709</name>
            </trkpt>
            <trkpt lat="49.7192384" lon="10.0039752">
                <ele>174.0</ele>
                <time>2020-08-23T13:39:59.000Z</time>
                <name>Trackpoint 7710</name>
            </trkpt>
            <trkpt lat="49.7193024" lon="10.0038384">
                <ele>174.0</ele>
                <time>2020-08-23T13:40:01.000Z</time>
                <name>Trackpoint 7711</name>
            </trkpt>
            <trkpt lat="49.71936" lon="10.0037032">
                <ele>174.0</ele>
                <time>2020-08-23T13:40:03.000Z</time>
                <name>Trackpoint 7712</name>
            </trkpt>
            <trkpt lat="49.7194208" lon="10.0035736">
                <ele>174.0</ele>
                <time>2020-08-23T13:40:05.000Z</time>
                <name>Trackpoint 7713</name>
            </trkpt>
            <trkpt lat="49.7194816" lon="10.003444">
                <ele>174.0</ele>
                <time>2020-08-23T13:40:07.000Z</time>
                <name>Trackpoint 7714</name>
            </trkpt>
            <trkpt lat="49.7195424" lon="10.0033152">
                <ele>174.0</ele>
                <time>2020-08-23T13:40:09.000Z</time>
                <name>Trackpoint 7715</name>
            </trkpt>
            <trkpt lat="49.7195968" lon="10.0031864">
                <ele>174.0</ele>
                <time>2020-08-23T13:40:11.000Z</time>
                <name>Trackpoint 7716</name>
            </trkpt>
            <trkpt lat="49.7196512" lon="10.0030648">
                <ele>174.0</ele>
                <time>2020-08-23T13:40:13.000Z</time>
                <name>Trackpoint 7717</name>
            </trkpt>
            <trkpt lat="49.719696" lon="10.0029424">
                <ele>174.0</ele>
                <time>2020-08-23T13:40:15.000Z</time>
                <name>Trackpoint 7718</name>
            </trkpt>
            <trkpt lat="49.7197472" lon="10.0028264">
                <ele>174.0</ele>
                <time>2020-08-23T13:40:17.000Z</time>
                <name>Trackpoint 7719</name>
            </trkpt>
            <trkpt lat="49.7198112" lon="10.0027216">
                <ele>174.0</ele>
                <time>2020-08-23T13:40:19.000Z</time>
                <name>Trackpoint 7720</name>
            </trkpt>
            <trkpt lat="49.719872" lon="10.0026184">
                <ele>174.0</ele>
                <time>2020-08-23T13:40:21.000Z</time>
                <name>Trackpoint 7721</name>
            </trkpt>
            <trkpt lat="49.7199296" lon="10.0025216">
                <ele>174.0</ele>
                <time>2020-08-23T13:40:23.000Z</time>
                <name>Trackpoint 7722</name>
            </trkpt>
            <trkpt lat="49.7200064" lon="10.0024472">
                <ele>174.0</ele>
                <time>2020-08-23T13:40:25.000Z</time>
                <name>Trackpoint 7723</name>
            </trkpt>
            <trkpt lat="49.72008" lon="10.0023736">
                <ele>174.0</ele>
                <time>2020-08-23T13:40:27.000Z</time>
                <name>Trackpoint 7724</name>
            </trkpt>
            <trkpt lat="49.7201472" lon="10.002288">
                <ele>174.0</ele>
                <time>2020-08-23T13:40:29.000Z</time>
                <name>Trackpoint 7725</name>
            </trkpt>
            <trkpt lat="49.7202048" lon="10.0022088">
                <ele>174.0</ele>
                <time>2020-08-23T13:40:31.000Z</time>
                <name>Trackpoint 7726</name>
            </trkpt>
            <trkpt lat="49.7202464" lon="10.0021152">
                <ele>175.0</ele>
                <time>2020-08-23T13:40:33.000Z</time>
                <name>Trackpoint 7727</name>
            </trkpt>
            <trkpt lat="49.7202848" lon="10.0020176">
                <ele>175.0</ele>
                <time>2020-08-23T13:40:35.000Z</time>
                <name>Trackpoint 7728</name>
            </trkpt>
            <trkpt lat="49.7203168" lon="10.0019128">
                <ele>175.0</ele>
                <time>2020-08-23T13:40:37.000Z</time>
                <name>Trackpoint 7729</name>
            </trkpt>
            <trkpt lat="49.7203584" lon="10.001812">
                <ele>175.0</ele>
                <time>2020-08-23T13:40:39.000Z</time>
                <name>Trackpoint 7730</name>
            </trkpt>
            <trkpt lat="49.7204096" lon="10.0017144">
                <ele>175.0</ele>
                <time>2020-08-23T13:40:41.000Z</time>
                <name>Trackpoint 7731</name>
            </trkpt>
            <trkpt lat="49.7204544" lon="10.0016136">
                <ele>175.0</ele>
                <time>2020-08-23T13:40:43.000Z</time>
                <name>Trackpoint 7732</name>
            </trkpt>
            <trkpt lat="49.720496" lon="10.0015232">
                <ele>175.0</ele>
                <time>2020-08-23T13:40:45.000Z</time>
                <name>Trackpoint 7733</name>
            </trkpt>
            <trkpt lat="49.7205472" lon="10.001404">
                <ele>175.0</ele>
                <time>2020-08-23T13:40:48.000Z</time>
                <name>Trackpoint 7734</name>
            </trkpt>
            <trkpt lat="49.7205696" lon="10.0012928">
                <ele>174.0</ele>
                <time>2020-08-23T13:41:26.000Z</time>
                <name>Trackpoint 7735</name>
            </trkpt>
            <trkpt lat="49.7206016" lon="10.0011904">
                <ele>174.0</ele>
                <time>2020-08-23T13:41:29.000Z</time>
                <name>Trackpoint 7736</name>
            </trkpt>
            <trkpt lat="49.7206464" lon="10.0010744">
                <ele>174.0</ele>
                <time>2020-08-23T13:41:32.000Z</time>
                <name>Trackpoint 7737</name>
            </trkpt>
            <trkpt lat="49.720704" lon="10.0009672">
                <ele>174.0</ele>
                <time>2020-08-23T13:41:35.000Z</time>
                <name>Trackpoint 7738</name>
            </trkpt>
            <trkpt lat="49.7208" lon="10.0008896">
                <ele>174.0</ele>
                <time>2020-08-23T13:41:38.000Z</time>
                <name>Trackpoint 7739</name>
            </trkpt>
            <trkpt lat="49.7208896" lon="10.0008096">
                <ele>174.0</ele>
                <time>2020-08-23T13:41:41.000Z</time>
                <name>Trackpoint 7740</name>
            </trkpt>
            <trkpt lat="49.7209408" lon="10.0007336">
                <ele>174.0</ele>
                <time>2020-08-23T13:41:43.000Z</time>
                <name>Trackpoint 7741</name>
            </trkpt>
            <trkpt lat="49.720992" lon="10.0006512">
                <ele>174.0</ele>
                <time>2020-08-23T13:41:45.000Z</time>
                <name>Trackpoint 7742</name>
            </trkpt>
            <trkpt lat="49.72104" lon="10.0005712">
                <ele>174.0</ele>
                <time>2020-08-23T13:41:47.000Z</time>
                <name>Trackpoint 7743</name>
            </trkpt>
            <trkpt lat="49.7210912" lon="10.0004728">
                <ele>174.0</ele>
                <time>2020-08-23T13:41:49.000Z</time>
                <name>Trackpoint 7744</name>
            </trkpt>
            <trkpt lat="49.7211328" lon="10.0003568">
                <ele>174.0</ele>
                <time>2020-08-23T13:41:51.000Z</time>
                <name>Trackpoint 7745</name>
            </trkpt>
            <trkpt lat="49.7211808" lon="10.0002536">
                <ele>174.0</ele>
                <time>2020-08-23T13:41:53.000Z</time>
                <name>Trackpoint 7746</name>
            </trkpt>
            <trkpt lat="49.7212192" lon="10.0001424">
                <ele>174.0</ele>
                <time>2020-08-23T13:41:55.000Z</time>
                <name>Trackpoint 7747</name>
            </trkpt>
            <trkpt lat="49.7212576" lon="10.0000416">
                <ele>174.0</ele>
                <time>2020-08-23T13:41:57.000Z</time>
                <name>Trackpoint 7748</name>
            </trkpt>
            <trkpt lat="49.721296" lon="9.999944">
                <ele>174.0</ele>
                <time>2020-08-23T13:41:59.000Z</time>
                <name>Trackpoint 7749</name>
            </trkpt>
            <trkpt lat="49.7213408" lon="9.99984">
                <ele>174.0</ele>
                <time>2020-08-23T13:42:01.000Z</time>
                <name>Trackpoint 7750</name>
            </trkpt>
            <trkpt lat="49.7213824" lon="9.9997504">
                <ele>174.0</ele>
                <time>2020-08-23T13:42:03.000Z</time>
                <name>Trackpoint 7751</name>
            </trkpt>
            <trkpt lat="49.7214048" lon="9.9996568">
                <ele>174.0</ele>
                <time>2020-08-23T13:42:05.000Z</time>
                <name>Trackpoint 7752</name>
            </trkpt>
            <trkpt lat="49.72144" lon="9.9995672">
                <ele>174.0</ele>
                <time>2020-08-23T13:42:07.000Z</time>
                <name>Trackpoint 7753</name>
            </trkpt>
            <trkpt lat="49.721488" lon="9.9994848">
                <ele>174.0</ele>
                <time>2020-08-23T13:42:09.000Z</time>
                <name>Trackpoint 7754</name>
            </trkpt>
            <trkpt lat="49.7215264" lon="9.9993864">
                <ele>174.0</ele>
                <time>2020-08-23T13:42:11.000Z</time>
                <name>Trackpoint 7755</name>
            </trkpt>
            <trkpt lat="49.721568" lon="9.9992904">
                <ele>174.0</ele>
                <time>2020-08-23T13:42:13.000Z</time>
                <name>Trackpoint 7756</name>
            </trkpt>
            <trkpt lat="49.7216032" lon="9.9991976">
                <ele>174.0</ele>
                <time>2020-08-23T13:42:15.000Z</time>
                <name>Trackpoint 7757</name>
            </trkpt>
            <trkpt lat="49.721648" lon="9.9991032">
                <ele>174.0</ele>
                <time>2020-08-23T13:42:17.000Z</time>
                <name>Trackpoint 7758</name>
            </trkpt>
            <trkpt lat="49.7216896" lon="9.9989968">
                <ele>174.0</ele>
                <time>2020-08-23T13:42:19.000Z</time>
                <name>Trackpoint 7759</name>
            </trkpt>
            <trkpt lat="49.721728" lon="9.9988816">
                <ele>174.0</ele>
                <time>2020-08-23T13:42:21.000Z</time>
                <name>Trackpoint 7760</name>
            </trkpt>
            <trkpt lat="49.7217856" lon="9.9987672">
                <ele>174.0</ele>
                <time>2020-08-23T13:42:24.000Z</time>
                <name>Trackpoint 7761</name>
            </trkpt>
            <trkpt lat="49.7218368" lon="9.998676">
                <ele>174.0</ele>
                <time>2020-08-23T13:42:27.000Z</time>
                <name>Trackpoint 7762</name>
            </trkpt>
            <trkpt lat="49.7218528" lon="9.99858">
                <ele>174.0</ele>
                <time>2020-08-23T13:57:41.000Z</time>
                <name>Trackpoint 7763</name>
            </trkpt>
            <trkpt lat="49.7218752" lon="9.9984728">
                <ele>173.0</ele>
                <time>2020-08-23T13:58:16.000Z</time>
                <name>Trackpoint 7764</name>
            </trkpt>
            <trkpt lat="49.721904" lon="9.9983704">
                <ele>173.0</ele>
                <time>2020-08-23T13:58:20.000Z</time>
                <name>Trackpoint 7765</name>
            </trkpt>
            <trkpt lat="49.721952" lon="9.9982928">
                <ele>173.0</ele>
                <time>2020-08-23T13:58:47.000Z</time>
                <name>Trackpoint 7766</name>
            </trkpt>
            <trkpt lat="49.7220256" lon="9.998188">
                <ele>173.0</ele>
                <time>2020-08-23T13:58:51.000Z</time>
                <name>Trackpoint 7767</name>
            </trkpt>
            <trkpt lat="49.7221024" lon="9.9981136">
                <ele>174.0</ele>
                <time>2020-08-23T13:58:54.000Z</time>
                <name>Trackpoint 7768</name>
            </trkpt>
            <trkpt lat="49.7221728" lon="9.9980424">
                <ele>174.0</ele>
                <time>2020-08-23T13:58:56.000Z</time>
                <name>Trackpoint 7769</name>
            </trkpt>
            <trkpt lat="49.72224" lon="9.9979488">
                <ele>174.0</ele>
                <time>2020-08-23T13:58:58.000Z</time>
                <name>Trackpoint 7770</name>
            </trkpt>
            <trkpt lat="49.7223104" lon="9.997844">
                <ele>174.0</ele>
                <time>2020-08-23T13:59:00.000Z</time>
                <name>Trackpoint 7771</name>
            </trkpt>
            <trkpt lat="49.7223776" lon="9.9977448">
                <ele>173.0</ele>
                <time>2020-08-23T13:59:02.000Z</time>
                <name>Trackpoint 7772</name>
            </trkpt>
            <trkpt lat="49.7224416" lon="9.9976432">
                <ele>173.0</ele>
                <time>2020-08-23T13:59:04.000Z</time>
                <name>Trackpoint 7773</name>
            </trkpt>
            <trkpt lat="49.7225088" lon="9.9975432">
                <ele>173.0</ele>
                <time>2020-08-23T13:59:06.000Z</time>
                <name>Trackpoint 7774</name>
            </trkpt>
            <trkpt lat="49.7225728" lon="9.9974384">
                <ele>173.0</ele>
                <time>2020-08-23T13:59:08.000Z</time>
                <name>Trackpoint 7775</name>
            </trkpt>
            <trkpt lat="49.7226464" lon="9.99734">
                <ele>174.0</ele>
                <time>2020-08-23T13:59:10.000Z</time>
                <name>Trackpoint 7776</name>
            </trkpt>
            <trkpt lat="49.7227264" lon="9.9972416">
                <ele>174.0</ele>
                <time>2020-08-23T13:59:12.000Z</time>
                <name>Trackpoint 7777</name>
            </trkpt>
            <trkpt lat="49.7227936" lon="9.99714">
                <ele>174.0</ele>
                <time>2020-08-23T13:59:14.000Z</time>
                <name>Trackpoint 7778</name>
            </trkpt>
            <trkpt lat="49.7228576" lon="9.9970328">
                <ele>174.0</ele>
                <time>2020-08-23T13:59:16.000Z</time>
                <name>Trackpoint 7779</name>
            </trkpt>
            <trkpt lat="49.7229312" lon="9.9969368">
                <ele>174.0</ele>
                <time>2020-08-23T13:59:18.000Z</time>
                <name>Trackpoint 7780</name>
            </trkpt>
            <trkpt lat="49.7229984" lon="9.9968392">
                <ele>174.0</ele>
                <time>2020-08-23T13:59:20.000Z</time>
                <name>Trackpoint 7781</name>
            </trkpt>
            <trkpt lat="49.723072" lon="9.99674">
                <ele>174.0</ele>
                <time>2020-08-23T13:59:22.000Z</time>
                <name>Trackpoint 7782</name>
            </trkpt>
            <trkpt lat="49.7231488" lon="9.996632">
                <ele>173.0</ele>
                <time>2020-08-23T13:59:24.000Z</time>
                <name>Trackpoint 7783</name>
            </trkpt>
            <trkpt lat="49.7232224" lon="9.9965232">
                <ele>174.0</ele>
                <time>2020-08-23T13:59:26.000Z</time>
                <name>Trackpoint 7784</name>
            </trkpt>
            <trkpt lat="49.7232896" lon="9.9964112">
                <ele>174.0</ele>
                <time>2020-08-23T13:59:28.000Z</time>
                <name>Trackpoint 7785</name>
            </trkpt>
            <trkpt lat="49.7233728" lon="9.9963128">
                <ele>174.0</ele>
                <time>2020-08-23T13:59:30.000Z</time>
                <name>Trackpoint 7786</name>
            </trkpt>
            <trkpt lat="49.7234528" lon="9.996212">
                <ele>174.0</ele>
                <time>2020-08-23T13:59:32.000Z</time>
                <name>Trackpoint 7787</name>
            </trkpt>
            <trkpt lat="49.723536" lon="9.9961096">
                <ele>174.0</ele>
                <time>2020-08-23T13:59:34.000Z</time>
                <name>Trackpoint 7788</name>
            </trkpt>
            <trkpt lat="49.723616" lon="9.996">
                <ele>174.0</ele>
                <time>2020-08-23T13:59:36.000Z</time>
                <name>Trackpoint 7789</name>
            </trkpt>
            <trkpt lat="49.7237024" lon="9.9958888">
                <ele>173.0</ele>
                <time>2020-08-23T13:59:38.000Z</time>
                <name>Trackpoint 7790</name>
            </trkpt>
            <trkpt lat="49.7237856" lon="9.99576">
                <ele>173.0</ele>
                <time>2020-08-23T13:59:40.000Z</time>
                <name>Trackpoint 7791</name>
            </trkpt>
            <trkpt lat="49.7238624" lon="9.9956216">
                <ele>172.0</ele>
                <time>2020-08-23T13:59:42.000Z</time>
                <name>Trackpoint 7792</name>
            </trkpt>
            <trkpt lat="49.723952" lon="9.9954704">
                <ele>173.0</ele>
                <time>2020-08-23T13:59:44.000Z</time>
                <name>Trackpoint 7793</name>
            </trkpt>
            <trkpt lat="49.7240416" lon="9.9953496">
                <ele>173.0</ele>
                <time>2020-08-23T13:59:46.000Z</time>
                <name>Trackpoint 7794</name>
            </trkpt>
            <trkpt lat="49.7241504" lon="9.9952936">
                <ele>173.0</ele>
                <time>2020-08-23T13:59:48.000Z</time>
                <name>Trackpoint 7795</name>
            </trkpt>
            <trkpt lat="49.7242656" lon="9.9952352">
                <ele>173.0</ele>
                <time>2020-08-23T13:59:50.000Z</time>
                <name>Trackpoint 7796</name>
            </trkpt>
            <trkpt lat="49.7243744" lon="9.9951432">
                <ele>174.0</ele>
                <time>2020-08-23T13:59:52.000Z</time>
                <name>Trackpoint 7797</name>
            </trkpt>
            <trkpt lat="49.7244736" lon="9.9950552">
                <ele>174.0</ele>
                <time>2020-08-23T13:59:54.000Z</time>
                <name>Trackpoint 7798</name>
            </trkpt>
            <trkpt lat="49.724576" lon="9.9949648">
                <ele>174.0</ele>
                <time>2020-08-23T13:59:56.000Z</time>
                <name>Trackpoint 7799</name>
            </trkpt>
            <trkpt lat="49.7246784" lon="9.9948864">
                <ele>174.0</ele>
                <time>2020-08-23T13:59:58.000Z</time>
                <name>Trackpoint 7800</name>
            </trkpt>
            <trkpt lat="49.724784" lon="9.9948056">
                <ele>174.0</ele>
                <time>2020-08-23T14:00:00.000Z</time>
                <name>Trackpoint 7801</name>
            </trkpt>
            <trkpt lat="49.72488" lon="9.994692">
                <ele>174.0</ele>
                <time>2020-08-23T14:00:02.000Z</time>
                <name>Trackpoint 7802</name>
            </trkpt>
            <trkpt lat="49.7249856" lon="9.9945896">
                <ele>174.0</ele>
                <time>2020-08-23T14:00:04.000Z</time>
                <name>Trackpoint 7803</name>
            </trkpt>
            <trkpt lat="49.7250976" lon="9.9944888">
                <ele>174.0</ele>
                <time>2020-08-23T14:00:06.000Z</time>
                <name>Trackpoint 7804</name>
            </trkpt>
            <trkpt lat="49.7252" lon="9.9943752">
                <ele>173.0</ele>
                <time>2020-08-23T14:00:08.000Z</time>
                <name>Trackpoint 7805</name>
            </trkpt>
            <trkpt lat="49.725312" lon="9.9942768">
                <ele>173.0</ele>
                <time>2020-08-23T14:00:10.000Z</time>
                <name>Trackpoint 7806</name>
            </trkpt>
            <trkpt lat="49.7254208" lon="9.9942056">
                <ele>173.0</ele>
                <time>2020-08-23T14:00:12.000Z</time>
                <name>Trackpoint 7807</name>
            </trkpt>
            <trkpt lat="49.7255168" lon="9.9941464">
                <ele>173.0</ele>
                <time>2020-08-23T14:00:14.000Z</time>
                <name>Trackpoint 7808</name>
            </trkpt>
            <trkpt lat="49.7255968" lon="9.9940664">
                <ele>173.0</ele>
                <time>2020-08-23T14:00:17.000Z</time>
                <name>Trackpoint 7809</name>
            </trkpt>
            <trkpt lat="49.7255936" lon="9.9939496">
                <ele>173.0</ele>
                <time>2020-08-23T14:00:20.000Z</time>
                <name>Trackpoint 7810</name>
            </trkpt>
            <trkpt lat="49.7255744" lon="9.9938288">
                <ele>173.0</ele>
                <time>2020-08-23T14:00:22.000Z</time>
                <name>Trackpoint 7811</name>
            </trkpt>
            <trkpt lat="49.7256" lon="9.9936848">
                <ele>173.0</ele>
                <time>2020-08-23T14:00:24.000Z</time>
                <name>Trackpoint 7812</name>
            </trkpt>
            <trkpt lat="49.7256576" lon="9.9935704">
                <ele>173.0</ele>
                <time>2020-08-23T14:00:26.000Z</time>
                <name>Trackpoint 7813</name>
            </trkpt>
            <trkpt lat="49.7257184" lon="9.9934552">
                <ele>173.0</ele>
                <time>2020-08-23T14:00:28.000Z</time>
                <name>Trackpoint 7814</name>
            </trkpt>
            <trkpt lat="49.7257792" lon="9.9933416">
                <ele>173.0</ele>
                <time>2020-08-23T14:00:30.000Z</time>
                <name>Trackpoint 7815</name>
            </trkpt>
            <trkpt lat="49.7258464" lon="9.9932168">
                <ele>172.0</ele>
                <time>2020-08-23T14:00:32.000Z</time>
                <name>Trackpoint 7816</name>
            </trkpt>
            <trkpt lat="49.7259104" lon="9.9930952">
                <ele>173.0</ele>
                <time>2020-08-23T14:00:34.000Z</time>
                <name>Trackpoint 7817</name>
            </trkpt>
            <trkpt lat="49.7259712" lon="9.9929784">
                <ele>173.0</ele>
                <time>2020-08-23T14:00:36.000Z</time>
                <name>Trackpoint 7818</name>
            </trkpt>
            <trkpt lat="49.726032" lon="9.9928648">
                <ele>172.0</ele>
                <time>2020-08-23T14:00:38.000Z</time>
                <name>Trackpoint 7819</name>
            </trkpt>
            <trkpt lat="49.7260928" lon="9.9927552">
                <ele>173.0</ele>
                <time>2020-08-23T14:00:40.000Z</time>
                <name>Trackpoint 7820</name>
            </trkpt>
            <trkpt lat="49.7261568" lon="9.9926456">
                <ele>173.0</ele>
                <time>2020-08-23T14:00:42.000Z</time>
                <name>Trackpoint 7821</name>
            </trkpt>
            <trkpt lat="49.726224" lon="9.992528">
                <ele>173.0</ele>
                <time>2020-08-23T14:00:44.000Z</time>
                <name>Trackpoint 7822</name>
            </trkpt>
            <trkpt lat="49.7262912" lon="9.9924088">
                <ele>172.0</ele>
                <time>2020-08-23T14:00:46.000Z</time>
                <name>Trackpoint 7823</name>
            </trkpt>
            <trkpt lat="49.7263616" lon="9.9922864">
                <ele>172.0</ele>
                <time>2020-08-23T14:00:48.000Z</time>
                <name>Trackpoint 7824</name>
            </trkpt>
            <trkpt lat="49.726432" lon="9.9921728">
                <ele>172.0</ele>
                <time>2020-08-23T14:00:50.000Z</time>
                <name>Trackpoint 7825</name>
            </trkpt>
            <trkpt lat="49.726512" lon="9.9920656">
                <ele>172.0</ele>
                <time>2020-08-23T14:00:52.000Z</time>
                <name>Trackpoint 7826</name>
            </trkpt>
            <trkpt lat="49.7265856" lon="9.991952">
                <ele>172.0</ele>
                <time>2020-08-23T14:00:54.000Z</time>
                <name>Trackpoint 7827</name>
            </trkpt>
            <trkpt lat="49.7266624" lon="9.9918416">
                <ele>172.0</ele>
                <time>2020-08-23T14:00:56.000Z</time>
                <name>Trackpoint 7828</name>
            </trkpt>
            <trkpt lat="49.7267296" lon="9.9917272">
                <ele>171.0</ele>
                <time>2020-08-23T14:00:58.000Z</time>
                <name>Trackpoint 7829</name>
            </trkpt>
            <trkpt lat="49.7268" lon="9.9916064">
                <ele>171.0</ele>
                <time>2020-08-23T14:01:00.000Z</time>
                <name>Trackpoint 7830</name>
            </trkpt>
            <trkpt lat="49.7268608" lon="9.9914864">
                <ele>171.0</ele>
                <time>2020-08-23T14:01:02.000Z</time>
                <name>Trackpoint 7831</name>
            </trkpt>
            <trkpt lat="49.7269248" lon="9.9913704">
                <ele>171.0</ele>
                <time>2020-08-23T14:01:04.000Z</time>
                <name>Trackpoint 7832</name>
            </trkpt>
            <trkpt lat="49.726992" lon="9.9912632">
                <ele>171.0</ele>
                <time>2020-08-23T14:01:06.000Z</time>
                <name>Trackpoint 7833</name>
            </trkpt>
            <trkpt lat="49.7270688" lon="9.9911648">
                <ele>171.0</ele>
                <time>2020-08-23T14:01:08.000Z</time>
                <name>Trackpoint 7834</name>
            </trkpt>
            <trkpt lat="49.7271552" lon="9.9910696">
                <ele>171.0</ele>
                <time>2020-08-23T14:01:10.000Z</time>
                <name>Trackpoint 7835</name>
            </trkpt>
            <trkpt lat="49.7272384" lon="9.9909824">
                <ele>171.0</ele>
                <time>2020-08-23T14:01:12.000Z</time>
                <name>Trackpoint 7836</name>
            </trkpt>
            <trkpt lat="49.7273184" lon="9.99088">
                <ele>171.0</ele>
                <time>2020-08-23T14:01:14.000Z</time>
                <name>Trackpoint 7837</name>
            </trkpt>
            <trkpt lat="49.7274016" lon="9.9907712">
                <ele>171.0</ele>
                <time>2020-08-23T14:01:16.000Z</time>
                <name>Trackpoint 7838</name>
            </trkpt>
            <trkpt lat="49.7274944" lon="9.990672">
                <ele>171.0</ele>
                <time>2020-08-23T14:01:18.000Z</time>
                <name>Trackpoint 7839</name>
            </trkpt>
            <trkpt lat="49.7275776" lon="9.9905832">
                <ele>171.0</ele>
                <time>2020-08-23T14:01:20.000Z</time>
                <name>Trackpoint 7840</name>
            </trkpt>
            <trkpt lat="49.7276672" lon="9.9904872">
                <ele>171.0</ele>
                <time>2020-08-23T14:01:22.000Z</time>
                <name>Trackpoint 7841</name>
            </trkpt>
            <trkpt lat="49.7277728" lon="9.9903872">
                <ele>171.0</ele>
                <time>2020-08-23T14:01:24.000Z</time>
                <name>Trackpoint 7842</name>
            </trkpt>
            <trkpt lat="49.7278752" lon="9.9903">
                <ele>172.0</ele>
                <time>2020-08-23T14:01:26.000Z</time>
                <name>Trackpoint 7843</name>
            </trkpt>
            <trkpt lat="49.7279712" lon="9.9902064">
                <ele>172.0</ele>
                <time>2020-08-23T14:01:28.000Z</time>
                <name>Trackpoint 7844</name>
            </trkpt>
            <trkpt lat="49.7280736" lon="9.9901216">
                <ele>172.0</ele>
                <time>2020-08-23T14:01:30.000Z</time>
                <name>Trackpoint 7845</name>
            </trkpt>
            <trkpt lat="49.7281632" lon="9.9900368">
                <ele>171.0</ele>
                <time>2020-08-23T14:01:32.000Z</time>
                <name>Trackpoint 7846</name>
            </trkpt>
            <trkpt lat="49.728256" lon="9.9899456">
                <ele>171.0</ele>
                <time>2020-08-23T14:01:34.000Z</time>
                <name>Trackpoint 7847</name>
            </trkpt>
            <trkpt lat="49.728352" lon="9.989852">
                <ele>170.0</ele>
                <time>2020-08-23T14:01:36.000Z</time>
                <name>Trackpoint 7848</name>
            </trkpt>
            <trkpt lat="49.7284512" lon="9.9897808">
                <ele>170.0</ele>
                <time>2020-08-23T14:01:38.000Z</time>
                <name>Trackpoint 7849</name>
            </trkpt>
            <trkpt lat="49.7285472" lon="9.9897144">
                <ele>170.0</ele>
                <time>2020-08-23T14:01:40.000Z</time>
                <name>Trackpoint 7850</name>
            </trkpt>
            <trkpt lat="49.7286368" lon="9.9896496">
                <ele>171.0</ele>
                <time>2020-08-23T14:01:42.000Z</time>
                <name>Trackpoint 7851</name>
            </trkpt>
            <trkpt lat="49.7287328" lon="9.98958">
                <ele>171.0</ele>
                <time>2020-08-23T14:01:44.000Z</time>
                <name>Trackpoint 7852</name>
            </trkpt>
            <trkpt lat="49.728832" lon="9.9895248">
                <ele>170.0</ele>
                <time>2020-08-23T14:01:46.000Z</time>
                <name>Trackpoint 7853</name>
            </trkpt>
            <trkpt lat="49.728928" lon="9.9894736">
                <ele>171.0</ele>
                <time>2020-08-23T14:01:48.000Z</time>
                <name>Trackpoint 7854</name>
            </trkpt>
            <trkpt lat="49.7290144" lon="9.9894184">
                <ele>170.0</ele>
                <time>2020-08-23T14:01:50.000Z</time>
                <name>Trackpoint 7855</name>
            </trkpt>
            <trkpt lat="49.7291008" lon="9.9893512">
                <ele>170.0</ele>
                <time>2020-08-23T14:01:52.000Z</time>
                <name>Trackpoint 7856</name>
            </trkpt>
            <trkpt lat="49.729184" lon="9.9892976">
                <ele>170.0</ele>
                <time>2020-08-23T14:01:54.000Z</time>
                <name>Trackpoint 7857</name>
            </trkpt>
            <trkpt lat="49.7292704" lon="9.9892464">
                <ele>170.0</ele>
                <time>2020-08-23T14:01:56.000Z</time>
                <name>Trackpoint 7858</name>
            </trkpt>
            <trkpt lat="49.72936" lon="9.9892">
                <ele>170.0</ele>
                <time>2020-08-23T14:01:58.000Z</time>
                <name>Trackpoint 7859</name>
            </trkpt>
            <trkpt lat="49.7294528" lon="9.9891584">
                <ele>170.0</ele>
                <time>2020-08-23T14:02:00.000Z</time>
                <name>Trackpoint 7860</name>
            </trkpt>
            <trkpt lat="49.7295424" lon="9.9891216">
                <ele>171.0</ele>
                <time>2020-08-23T14:02:02.000Z</time>
                <name>Trackpoint 7861</name>
            </trkpt>
            <trkpt lat="49.7296288" lon="9.9890832">
                <ele>171.0</ele>
                <time>2020-08-23T14:02:04.000Z</time>
                <name>Trackpoint 7862</name>
            </trkpt>
            <trkpt lat="49.7297216" lon="9.9890432">
                <ele>171.0</ele>
                <time>2020-08-23T14:02:06.000Z</time>
                <name>Trackpoint 7863</name>
            </trkpt>
            <trkpt lat="49.7298112" lon="9.9890096">
                <ele>172.0</ele>
                <time>2020-08-23T14:02:08.000Z</time>
                <name>Trackpoint 7864</name>
            </trkpt>
            <trkpt lat="49.7298976" lon="9.9889784">
                <ele>172.0</ele>
                <time>2020-08-23T14:02:10.000Z</time>
                <name>Trackpoint 7865</name>
            </trkpt>
            <trkpt lat="49.7300032" lon="9.9889352">
                <ele>171.0</ele>
                <time>2020-08-23T14:02:12.000Z</time>
                <name>Trackpoint 7866</name>
            </trkpt>
            <trkpt lat="49.7301024" lon="9.9888888">
                <ele>172.0</ele>
                <time>2020-08-23T14:02:14.000Z</time>
                <name>Trackpoint 7867</name>
            </trkpt>
            <trkpt lat="49.7302016" lon="9.9888488">
                <ele>172.0</ele>
                <time>2020-08-23T14:02:16.000Z</time>
                <name>Trackpoint 7868</name>
            </trkpt>
            <trkpt lat="49.7303072" lon="9.9888184">
                <ele>173.0</ele>
                <time>2020-08-23T14:02:18.000Z</time>
                <name>Trackpoint 7869</name>
            </trkpt>
            <trkpt lat="49.7304064" lon="9.9887784">
                <ele>173.0</ele>
                <time>2020-08-23T14:02:20.000Z</time>
                <name>Trackpoint 7870</name>
            </trkpt>
            <trkpt lat="49.730512" lon="9.98874">
                <ele>173.0</ele>
                <time>2020-08-23T14:02:22.000Z</time>
                <name>Trackpoint 7871</name>
            </trkpt>
            <trkpt lat="49.7306176" lon="9.988704">
                <ele>173.0</ele>
                <time>2020-08-23T14:02:24.000Z</time>
                <name>Trackpoint 7872</name>
            </trkpt>
            <trkpt lat="49.7307136" lon="9.9886664">
                <ele>173.0</ele>
                <time>2020-08-23T14:02:26.000Z</time>
                <name>Trackpoint 7873</name>
            </trkpt>
            <trkpt lat="49.7308128" lon="9.9886264">
                <ele>172.0</ele>
                <time>2020-08-23T14:02:28.000Z</time>
                <name>Trackpoint 7874</name>
            </trkpt>
            <trkpt lat="49.7309088" lon="9.98858">
                <ele>172.0</ele>
                <time>2020-08-23T14:02:30.000Z</time>
                <name>Trackpoint 7875</name>
            </trkpt>
            <trkpt lat="49.731008" lon="9.9885368">
                <ele>172.0</ele>
                <time>2020-08-23T14:02:32.000Z</time>
                <name>Trackpoint 7876</name>
            </trkpt>
            <trkpt lat="49.7311136" lon="9.9885016">
                <ele>172.0</ele>
                <time>2020-08-23T14:02:34.000Z</time>
                <name>Trackpoint 7877</name>
            </trkpt>
            <trkpt lat="49.7312128" lon="9.9884704">
                <ele>173.0</ele>
                <time>2020-08-23T14:02:36.000Z</time>
                <name>Trackpoint 7878</name>
            </trkpt>
            <trkpt lat="49.7313056" lon="9.9884344">
                <ele>173.0</ele>
                <time>2020-08-23T14:02:38.000Z</time>
                <name>Trackpoint 7879</name>
            </trkpt>
            <trkpt lat="49.7314304" lon="9.9883936">
                <ele>173.0</ele>
                <time>2020-08-23T14:02:41.000Z</time>
                <name>Trackpoint 7880</name>
            </trkpt>
            <trkpt lat="49.7315264" lon="9.9883616">
                <ele>173.0</ele>
                <time>2020-08-23T14:02:43.000Z</time>
                <name>Trackpoint 7881</name>
            </trkpt>
            <trkpt lat="49.7316256" lon="9.9883232">
                <ele>173.0</ele>
                <time>2020-08-23T14:02:45.000Z</time>
                <name>Trackpoint 7882</name>
            </trkpt>
            <trkpt lat="49.7317184" lon="9.9882768">
                <ele>173.0</ele>
                <time>2020-08-23T14:02:47.000Z</time>
                <name>Trackpoint 7883</name>
            </trkpt>
            <trkpt lat="49.7318048" lon="9.9882272">
                <ele>173.0</ele>
                <time>2020-08-23T14:02:49.000Z</time>
                <name>Trackpoint 7884</name>
            </trkpt>
            <trkpt lat="49.7319008" lon="9.988176">
                <ele>173.0</ele>
                <time>2020-08-23T14:02:51.000Z</time>
                <name>Trackpoint 7885</name>
            </trkpt>
            <trkpt lat="49.7319904" lon="9.9881384">
                <ele>173.0</ele>
                <time>2020-08-23T14:02:53.000Z</time>
                <name>Trackpoint 7886</name>
            </trkpt>
            <trkpt lat="49.7320864" lon="9.9880896">
                <ele>173.0</ele>
                <time>2020-08-23T14:02:55.000Z</time>
                <name>Trackpoint 7887</name>
            </trkpt>
            <trkpt lat="49.7321824" lon="9.9880368">
                <ele>173.0</ele>
                <time>2020-08-23T14:02:57.000Z</time>
                <name>Trackpoint 7888</name>
            </trkpt>
            <trkpt lat="49.7322784" lon="9.9879816">
                <ele>173.0</ele>
                <time>2020-08-23T14:02:59.000Z</time>
                <name>Trackpoint 7889</name>
            </trkpt>
            <trkpt lat="49.7323776" lon="9.9879312">
                <ele>173.0</ele>
                <time>2020-08-23T14:03:01.000Z</time>
                <name>Trackpoint 7890</name>
            </trkpt>
            <trkpt lat="49.7324832" lon="9.9878856">
                <ele>173.0</ele>
                <time>2020-08-23T14:03:03.000Z</time>
                <name>Trackpoint 7891</name>
            </trkpt>
            <trkpt lat="49.7325792" lon="9.9878328">
                <ele>173.0</ele>
                <time>2020-08-23T14:03:05.000Z</time>
                <name>Trackpoint 7892</name>
            </trkpt>
            <trkpt lat="49.7326848" lon="9.9877752">
                <ele>173.0</ele>
                <time>2020-08-23T14:03:07.000Z</time>
                <name>Trackpoint 7893</name>
            </trkpt>
            <trkpt lat="49.7327872" lon="9.9877144">
                <ele>173.0</ele>
                <time>2020-08-23T14:03:09.000Z</time>
                <name>Trackpoint 7894</name>
            </trkpt>
            <trkpt lat="49.732896" lon="9.9876736">
                <ele>173.0</ele>
                <time>2020-08-23T14:03:11.000Z</time>
                <name>Trackpoint 7895</name>
            </trkpt>
            <trkpt lat="49.7329984" lon="9.9876272">
                <ele>173.0</ele>
                <time>2020-08-23T14:03:13.000Z</time>
                <name>Trackpoint 7896</name>
            </trkpt>
            <trkpt lat="49.7330976" lon="9.9875736">
                <ele>173.0</ele>
                <time>2020-08-23T14:03:15.000Z</time>
                <name>Trackpoint 7897</name>
            </trkpt>
            <trkpt lat="49.7331968" lon="9.9875296">
                <ele>173.0</ele>
                <time>2020-08-23T14:03:17.000Z</time>
                <name>Trackpoint 7898</name>
            </trkpt>
            <trkpt lat="49.7333024" lon="9.9874832">
                <ele>173.0</ele>
                <time>2020-08-23T14:03:19.000Z</time>
                <name>Trackpoint 7899</name>
            </trkpt>
            <trkpt lat="49.7334048" lon="9.9874352">
                <ele>173.0</ele>
                <time>2020-08-23T14:03:21.000Z</time>
                <name>Trackpoint 7900</name>
            </trkpt>
            <trkpt lat="49.7334976" lon="9.9873864">
                <ele>173.0</ele>
                <time>2020-08-23T14:03:23.000Z</time>
                <name>Trackpoint 7901</name>
            </trkpt>
            <trkpt lat="49.7335968" lon="9.9873352">
                <ele>173.0</ele>
                <time>2020-08-23T14:03:25.000Z</time>
                <name>Trackpoint 7902</name>
            </trkpt>
            <trkpt lat="49.7336928" lon="9.9872904">
                <ele>173.0</ele>
                <time>2020-08-23T14:03:27.000Z</time>
                <name>Trackpoint 7903</name>
            </trkpt>
            <trkpt lat="49.7337888" lon="9.9872416">
                <ele>173.0</ele>
                <time>2020-08-23T14:03:29.000Z</time>
                <name>Trackpoint 7904</name>
            </trkpt>
            <trkpt lat="49.733888" lon="9.9872048">
                <ele>173.0</ele>
                <time>2020-08-23T14:03:31.000Z</time>
                <name>Trackpoint 7905</name>
            </trkpt>
            <trkpt lat="49.7339776" lon="9.9871768">
                <ele>173.0</ele>
                <time>2020-08-23T14:03:33.000Z</time>
                <name>Trackpoint 7906</name>
            </trkpt>
            <trkpt lat="49.7340864" lon="9.98714">
                <ele>173.0</ele>
                <time>2020-08-23T14:03:35.000Z</time>
                <name>Trackpoint 7907</name>
            </trkpt>
            <trkpt lat="49.7341792" lon="9.987108">
                <ele>173.0</ele>
                <time>2020-08-23T14:03:37.000Z</time>
                <name>Trackpoint 7908</name>
            </trkpt>
            <trkpt lat="49.7342944" lon="9.9870656">
                <ele>172.0</ele>
                <time>2020-08-23T14:03:39.000Z</time>
                <name>Trackpoint 7909</name>
            </trkpt>
            <trkpt lat="49.7344128" lon="9.9870192">
                <ele>173.0</ele>
                <time>2020-08-23T14:03:41.000Z</time>
                <name>Trackpoint 7910</name>
            </trkpt>
            <trkpt lat="49.7345376" lon="9.986972">
                <ele>173.0</ele>
                <time>2020-08-23T14:03:43.000Z</time>
                <name>Trackpoint 7911</name>
            </trkpt>
            <trkpt lat="49.734656" lon="9.9869184">
                <ele>173.0</ele>
                <time>2020-08-23T14:03:45.000Z</time>
                <name>Trackpoint 7912</name>
            </trkpt>
            <trkpt lat="49.7347808" lon="9.9868584">
                <ele>173.0</ele>
                <time>2020-08-23T14:03:47.000Z</time>
                <name>Trackpoint 7913</name>
            </trkpt>
            <trkpt lat="49.7349056" lon="9.9868">
                <ele>172.0</ele>
                <time>2020-08-23T14:03:49.000Z</time>
                <name>Trackpoint 7914</name>
            </trkpt>
            <trkpt lat="49.735024" lon="9.9867624">
                <ele>172.0</ele>
                <time>2020-08-23T14:03:51.000Z</time>
                <name>Trackpoint 7915</name>
            </trkpt>
            <trkpt lat="49.7351456" lon="9.9867424">
                <ele>172.0</ele>
                <time>2020-08-23T14:03:53.000Z</time>
                <name>Trackpoint 7916</name>
            </trkpt>
            <trkpt lat="49.7352608" lon="9.9867336">
                <ele>172.0</ele>
                <time>2020-08-23T14:03:55.000Z</time>
                <name>Trackpoint 7917</name>
            </trkpt>
            <trkpt lat="49.735376" lon="9.9867336">
                <ele>172.0</ele>
                <time>2020-08-23T14:03:57.000Z</time>
                <name>Trackpoint 7918</name>
            </trkpt>
            <trkpt lat="49.7354816" lon="9.9867296">
                <ele>172.0</ele>
                <time>2020-08-23T14:03:59.000Z</time>
                <name>Trackpoint 7919</name>
            </trkpt>
            <trkpt lat="49.7356" lon="9.9867296">
                <ele>172.0</ele>
                <time>2020-08-23T14:04:01.000Z</time>
                <name>Trackpoint 7920</name>
            </trkpt>
            <trkpt lat="49.7357216" lon="9.9867352">
                <ele>172.0</ele>
                <time>2020-08-23T14:04:03.000Z</time>
                <name>Trackpoint 7921</name>
            </trkpt>
            <trkpt lat="49.7358432" lon="9.9867584">
                <ele>172.0</ele>
                <time>2020-08-23T14:04:05.000Z</time>
                <name>Trackpoint 7922</name>
            </trkpt>
            <trkpt lat="49.7359744" lon="9.986776">
                <ele>172.0</ele>
                <time>2020-08-23T14:04:07.000Z</time>
                <name>Trackpoint 7923</name>
            </trkpt>
            <trkpt lat="49.736096" lon="9.9868048">
                <ele>173.0</ele>
                <time>2020-08-23T14:04:09.000Z</time>
                <name>Trackpoint 7924</name>
            </trkpt>
            <trkpt lat="49.736224" lon="9.9868232">
                <ele>172.0</ele>
                <time>2020-08-23T14:04:11.000Z</time>
                <name>Trackpoint 7925</name>
            </trkpt>
            <trkpt lat="49.7363456" lon="9.986868">
                <ele>172.0</ele>
                <time>2020-08-23T14:04:13.000Z</time>
                <name>Trackpoint 7926</name>
            </trkpt>
            <trkpt lat="49.7364704" lon="9.9868896">
                <ele>173.0</ele>
                <time>2020-08-23T14:04:15.000Z</time>
                <name>Trackpoint 7927</name>
            </trkpt>
            <trkpt lat="49.7365952" lon="9.9869232">
                <ele>173.0</ele>
                <time>2020-08-23T14:04:17.000Z</time>
                <name>Trackpoint 7928</name>
            </trkpt>
            <trkpt lat="49.7367264" lon="9.9869472">
                <ele>173.0</ele>
                <time>2020-08-23T14:04:19.000Z</time>
                <name>Trackpoint 7929</name>
            </trkpt>
            <trkpt lat="49.7368416" lon="9.986992">
                <ele>173.0</ele>
                <time>2020-08-23T14:04:21.000Z</time>
                <name>Trackpoint 7930</name>
            </trkpt>
            <trkpt lat="49.7369568" lon="9.9870456">
                <ele>173.0</ele>
                <time>2020-08-23T14:04:23.000Z</time>
                <name>Trackpoint 7931</name>
            </trkpt>
            <trkpt lat="49.7370688" lon="9.9870984">
                <ele>173.0</ele>
                <time>2020-08-23T14:04:25.000Z</time>
                <name>Trackpoint 7932</name>
            </trkpt>
            <trkpt lat="49.7371872" lon="9.9871664">
                <ele>173.0</ele>
                <time>2020-08-23T14:04:27.000Z</time>
                <name>Trackpoint 7933</name>
            </trkpt>
            <trkpt lat="49.7372928" lon="9.9872328">
                <ele>173.0</ele>
                <time>2020-08-23T14:04:29.000Z</time>
                <name>Trackpoint 7934</name>
            </trkpt>
            <trkpt lat="49.7374016" lon="9.9872936">
                <ele>173.0</ele>
                <time>2020-08-23T14:04:31.000Z</time>
                <name>Trackpoint 7935</name>
            </trkpt>
            <trkpt lat="49.7375008" lon="9.9873488">
                <ele>173.0</ele>
                <time>2020-08-23T14:04:33.000Z</time>
                <name>Trackpoint 7936</name>
            </trkpt>
            <trkpt lat="49.7376032" lon="9.9873984">
                <ele>173.0</ele>
                <time>2020-08-23T14:04:35.000Z</time>
                <name>Trackpoint 7937</name>
            </trkpt>
            <trkpt lat="49.737712" lon="9.9874536">
                <ele>174.0</ele>
                <time>2020-08-23T14:04:37.000Z</time>
                <name>Trackpoint 7938</name>
            </trkpt>
            <trkpt lat="49.7378336" lon="9.9875024">
                <ele>174.0</ele>
                <time>2020-08-23T14:04:39.000Z</time>
                <name>Trackpoint 7939</name>
            </trkpt>
            <trkpt lat="49.7379584" lon="9.98754">
                <ele>174.0</ele>
                <time>2020-08-23T14:04:41.000Z</time>
                <name>Trackpoint 7940</name>
            </trkpt>
            <trkpt lat="49.7380864" lon="9.9875744">
                <ele>173.0</ele>
                <time>2020-08-23T14:04:43.000Z</time>
                <name>Trackpoint 7941</name>
            </trkpt>
            <trkpt lat="49.7382208" lon="9.9875944">
                <ele>173.0</ele>
                <time>2020-08-23T14:04:45.000Z</time>
                <name>Trackpoint 7942</name>
            </trkpt>
            <trkpt lat="49.7383488" lon="9.9876144">
                <ele>173.0</ele>
                <time>2020-08-23T14:04:47.000Z</time>
                <name>Trackpoint 7943</name>
            </trkpt>
            <trkpt lat="49.7384832" lon="9.9876472">
                <ele>174.0</ele>
                <time>2020-08-23T14:04:49.000Z</time>
                <name>Trackpoint 7944</name>
            </trkpt>
            <trkpt lat="49.738608" lon="9.9876608">
                <ele>175.0</ele>
                <time>2020-08-23T14:04:51.000Z</time>
                <name>Trackpoint 7945</name>
            </trkpt>
            <trkpt lat="49.7387264" lon="9.9876872">
                <ele>175.0</ele>
                <time>2020-08-23T14:04:53.000Z</time>
                <name>Trackpoint 7946</name>
            </trkpt>
            <trkpt lat="49.7388576" lon="9.987648">
                <ele>175.0</ele>
                <time>2020-08-23T14:04:55.000Z</time>
                <name>Trackpoint 7947</name>
            </trkpt>
            <trkpt lat="49.7389952" lon="9.9876048">
                <ele>175.0</ele>
                <time>2020-08-23T14:04:57.000Z</time>
                <name>Trackpoint 7948</name>
            </trkpt>
            <trkpt lat="49.7391296" lon="9.9875744">
                <ele>175.0</ele>
                <time>2020-08-23T14:04:59.000Z</time>
                <name>Trackpoint 7949</name>
            </trkpt>
            <trkpt lat="49.7392416" lon="9.98754">
                <ele>175.0</ele>
                <time>2020-08-23T14:05:01.000Z</time>
                <name>Trackpoint 7950</name>
            </trkpt>
            <trkpt lat="49.73936" lon="9.9875048">
                <ele>175.0</ele>
                <time>2020-08-23T14:05:03.000Z</time>
                <name>Trackpoint 7951</name>
            </trkpt>
            <trkpt lat="49.7394784" lon="9.9874712">
                <ele>175.0</ele>
                <time>2020-08-23T14:05:05.000Z</time>
                <name>Trackpoint 7952</name>
            </trkpt>
            <trkpt lat="49.7395968" lon="9.9874432">
                <ele>176.0</ele>
                <time>2020-08-23T14:05:07.000Z</time>
                <name>Trackpoint 7953</name>
            </trkpt>
            <trkpt lat="49.739712" lon="9.9874264">
                <ele>176.0</ele>
                <time>2020-08-23T14:05:09.000Z</time>
                <name>Trackpoint 7954</name>
            </trkpt>
            <trkpt lat="49.7398272" lon="9.9874232">
                <ele>175.0</ele>
                <time>2020-08-23T14:05:11.000Z</time>
                <name>Trackpoint 7955</name>
            </trkpt>
            <trkpt lat="49.7399392" lon="9.9874264">
                <ele>175.0</ele>
                <time>2020-08-23T14:05:13.000Z</time>
                <name>Trackpoint 7956</name>
            </trkpt>
            <trkpt lat="49.7400544" lon="9.9874424">
                <ele>175.0</ele>
                <time>2020-08-23T14:05:15.000Z</time>
                <name>Trackpoint 7957</name>
            </trkpt>
            <trkpt lat="49.740176" lon="9.9874512">
                <ele>175.0</ele>
                <time>2020-08-23T14:05:17.000Z</time>
                <name>Trackpoint 7958</name>
            </trkpt>
            <trkpt lat="49.740304" lon="9.987456">
                <ele>175.0</ele>
                <time>2020-08-23T14:05:19.000Z</time>
                <name>Trackpoint 7959</name>
            </trkpt>
            <trkpt lat="49.740432" lon="9.9874696">
                <ele>175.0</ele>
                <time>2020-08-23T14:05:21.000Z</time>
                <name>Trackpoint 7960</name>
            </trkpt>
            <trkpt lat="49.7405696" lon="9.987496">
                <ele>174.0</ele>
                <time>2020-08-23T14:05:23.000Z</time>
                <name>Trackpoint 7961</name>
            </trkpt>
            <trkpt lat="49.7407072" lon="9.9875472">
                <ele>174.0</ele>
                <time>2020-08-23T14:05:25.000Z</time>
                <name>Trackpoint 7962</name>
            </trkpt>
            <trkpt lat="49.7408416" lon="9.9875936">
                <ele>174.0</ele>
                <time>2020-08-23T14:05:27.000Z</time>
                <name>Trackpoint 7963</name>
            </trkpt>
            <trkpt lat="49.740976" lon="9.9876184">
                <ele>174.0</ele>
                <time>2020-08-23T14:05:29.000Z</time>
                <name>Trackpoint 7964</name>
            </trkpt>
            <trkpt lat="49.7411072" lon="9.9876336">
                <ele>174.0</ele>
                <time>2020-08-23T14:05:31.000Z</time>
                <name>Trackpoint 7965</name>
            </trkpt>
            <trkpt lat="49.7412416" lon="9.9876416">
                <ele>174.0</ele>
                <time>2020-08-23T14:05:33.000Z</time>
                <name>Trackpoint 7966</name>
            </trkpt>
            <trkpt lat="49.7413696" lon="9.9876432">
                <ele>173.0</ele>
                <time>2020-08-23T14:05:35.000Z</time>
                <name>Trackpoint 7967</name>
            </trkpt>
            <trkpt lat="49.7415008" lon="9.98764">
                <ele>173.0</ele>
                <time>2020-08-23T14:05:37.000Z</time>
                <name>Trackpoint 7968</name>
            </trkpt>
            <trkpt lat="49.7416256" lon="9.9876448">
                <ele>173.0</ele>
                <time>2020-08-23T14:05:39.000Z</time>
                <name>Trackpoint 7969</name>
            </trkpt>
            <trkpt lat="49.741744" lon="9.9876808">
                <ele>173.0</ele>
                <time>2020-08-23T14:05:41.000Z</time>
                <name>Trackpoint 7970</name>
            </trkpt>
            <trkpt lat="49.7418624" lon="9.9877128">
                <ele>173.0</ele>
                <time>2020-08-23T14:05:43.000Z</time>
                <name>Trackpoint 7971</name>
            </trkpt>
            <trkpt lat="49.7419808" lon="9.9877256">
                <ele>173.0</ele>
                <time>2020-08-23T14:05:45.000Z</time>
                <name>Trackpoint 7972</name>
            </trkpt>
            <trkpt lat="49.7420992" lon="9.9877416">
                <ele>173.0</ele>
                <time>2020-08-23T14:05:47.000Z</time>
                <name>Trackpoint 7973</name>
            </trkpt>
            <trkpt lat="49.7422208" lon="9.9877584">
                <ele>172.0</ele>
                <time>2020-08-23T14:05:49.000Z</time>
                <name>Trackpoint 7974</name>
            </trkpt>
            <trkpt lat="49.7423392" lon="9.987768">
                <ele>172.0</ele>
                <time>2020-08-23T14:05:51.000Z</time>
                <name>Trackpoint 7975</name>
            </trkpt>
            <trkpt lat="49.7424608" lon="9.9877728">
                <ele>172.0</ele>
                <time>2020-08-23T14:05:53.000Z</time>
                <name>Trackpoint 7976</name>
            </trkpt>
            <trkpt lat="49.7425888" lon="9.9877864">
                <ele>172.0</ele>
                <time>2020-08-23T14:05:55.000Z</time>
                <name>Trackpoint 7977</name>
            </trkpt>
            <trkpt lat="49.7427136" lon="9.98778">
                <ele>172.0</ele>
                <time>2020-08-23T14:05:57.000Z</time>
                <name>Trackpoint 7978</name>
            </trkpt>
            <trkpt lat="49.7428384" lon="9.9877632">
                <ele>172.0</ele>
                <time>2020-08-23T14:05:59.000Z</time>
                <name>Trackpoint 7979</name>
            </trkpt>
            <trkpt lat="49.742976" lon="9.987748">
                <ele>172.0</ele>
                <time>2020-08-23T14:06:01.000Z</time>
                <name>Trackpoint 7980</name>
            </trkpt>
            <trkpt lat="49.7431072" lon="9.9877464">
                <ele>172.0</ele>
                <time>2020-08-23T14:06:03.000Z</time>
                <name>Trackpoint 7981</name>
            </trkpt>
            <trkpt lat="49.743232" lon="9.9877464">
                <ele>173.0</ele>
                <time>2020-08-23T14:06:05.000Z</time>
                <name>Trackpoint 7982</name>
            </trkpt>
            <trkpt lat="49.7433696" lon="9.9877504">
                <ele>173.0</ele>
                <time>2020-08-23T14:06:07.000Z</time>
                <name>Trackpoint 7983</name>
            </trkpt>
            <trkpt lat="49.7435072" lon="9.9877504">
                <ele>173.0</ele>
                <time>2020-08-23T14:06:09.000Z</time>
                <name>Trackpoint 7984</name>
            </trkpt>
            <trkpt lat="49.7436448" lon="9.9877456">
                <ele>173.0</ele>
                <time>2020-08-23T14:06:11.000Z</time>
                <name>Trackpoint 7985</name>
            </trkpt>
            <trkpt lat="49.7437856" lon="9.9877368">
                <ele>173.0</ele>
                <time>2020-08-23T14:06:13.000Z</time>
                <name>Trackpoint 7986</name>
            </trkpt>
            <trkpt lat="49.7439232" lon="9.9877144">
                <ele>173.0</ele>
                <time>2020-08-23T14:06:15.000Z</time>
                <name>Trackpoint 7987</name>
            </trkpt>
            <trkpt lat="49.744064" lon="9.987708">
                <ele>173.0</ele>
                <time>2020-08-23T14:06:17.000Z</time>
                <name>Trackpoint 7988</name>
            </trkpt>
            <trkpt lat="49.7442016" lon="9.9877192">
                <ele>173.0</ele>
                <time>2020-08-23T14:06:19.000Z</time>
                <name>Trackpoint 7989</name>
            </trkpt>
            <trkpt lat="49.7443392" lon="9.9877304">
                <ele>173.0</ele>
                <time>2020-08-23T14:06:21.000Z</time>
                <name>Trackpoint 7990</name>
            </trkpt>
            <trkpt lat="49.7444736" lon="9.9877552">
                <ele>173.0</ele>
                <time>2020-08-23T14:06:23.000Z</time>
                <name>Trackpoint 7991</name>
            </trkpt>
            <trkpt lat="49.7446016" lon="9.9877664">
                <ele>173.0</ele>
                <time>2020-08-23T14:06:25.000Z</time>
                <name>Trackpoint 7992</name>
            </trkpt>
            <trkpt lat="49.7447232" lon="9.9877856">
                <ele>173.0</ele>
                <time>2020-08-23T14:06:27.000Z</time>
                <name>Trackpoint 7993</name>
            </trkpt>
            <trkpt lat="49.7448448" lon="9.9878">
                <ele>173.0</ele>
                <time>2020-08-23T14:06:29.000Z</time>
                <name>Trackpoint 7994</name>
            </trkpt>
            <trkpt lat="49.74496" lon="9.9878128">
                <ele>174.0</ele>
                <time>2020-08-23T14:06:31.000Z</time>
                <name>Trackpoint 7995</name>
            </trkpt>
            <trkpt lat="49.7450816" lon="9.9878328">
                <ele>174.0</ele>
                <time>2020-08-23T14:06:33.000Z</time>
                <name>Trackpoint 7996</name>
            </trkpt>
            <trkpt lat="49.7452064" lon="9.9878528">
                <ele>175.0</ele>
                <time>2020-08-23T14:06:35.000Z</time>
                <name>Trackpoint 7997</name>
            </trkpt>
            <trkpt lat="49.7453216" lon="9.9878616">
                <ele>175.0</ele>
                <time>2020-08-23T14:06:37.000Z</time>
                <name>Trackpoint 7998</name>
            </trkpt>
            <trkpt lat="49.7454496" lon="9.9878704">
                <ele>173.0</ele>
                <time>2020-08-23T14:06:39.000Z</time>
                <name>Trackpoint 7999</name>
            </trkpt>
            <trkpt lat="49.7455744" lon="9.9878616">
                <ele>173.0</ele>
                <time>2020-08-23T14:06:41.000Z</time>
                <name>Trackpoint 8000</name>
            </trkpt>
            <trkpt lat="49.7457024" lon="9.9878464">
                <ele>173.0</ele>
                <time>2020-08-23T14:06:43.000Z</time>
                <name>Trackpoint 8001</name>
            </trkpt>
            <trkpt lat="49.7458304" lon="9.9878368">
                <ele>173.0</ele>
                <time>2020-08-23T14:06:45.000Z</time>
                <name>Trackpoint 8002</name>
            </trkpt>
            <trkpt lat="49.7459552" lon="9.9878232">
                <ele>174.0</ele>
                <time>2020-08-23T14:06:47.000Z</time>
                <name>Trackpoint 8003</name>
            </trkpt>
            <trkpt lat="49.7460832" lon="9.9878104">
                <ele>173.0</ele>
                <time>2020-08-23T14:06:49.000Z</time>
                <name>Trackpoint 8004</name>
            </trkpt>
            <trkpt lat="49.7462016" lon="9.9878016">
                <ele>174.0</ele>
                <time>2020-08-23T14:06:51.000Z</time>
                <name>Trackpoint 8005</name>
            </trkpt>
            <trkpt lat="49.7463232" lon="9.9877984">
                <ele>174.0</ele>
                <time>2020-08-23T14:06:53.000Z</time>
                <name>Trackpoint 8006</name>
            </trkpt>
            <trkpt lat="49.7464416" lon="9.9877968">
                <ele>174.0</ele>
                <time>2020-08-23T14:06:55.000Z</time>
                <name>Trackpoint 8007</name>
            </trkpt>
            <trkpt lat="49.7465568" lon="9.9877904">
                <ele>174.0</ele>
                <time>2020-08-23T14:06:57.000Z</time>
                <name>Trackpoint 8008</name>
            </trkpt>
            <trkpt lat="49.7466688" lon="9.9877728">
                <ele>174.0</ele>
                <time>2020-08-23T14:06:59.000Z</time>
                <name>Trackpoint 8009</name>
            </trkpt>
            <trkpt lat="49.7467872" lon="9.9877464">
                <ele>173.0</ele>
                <time>2020-08-23T14:07:01.000Z</time>
                <name>Trackpoint 8010</name>
            </trkpt>
            <trkpt lat="49.7468992" lon="9.987728">
                <ele>173.0</ele>
                <time>2020-08-23T14:07:03.000Z</time>
                <name>Trackpoint 8011</name>
            </trkpt>
            <trkpt lat="49.747024" lon="9.9877144">
                <ele>173.0</ele>
                <time>2020-08-23T14:07:05.000Z</time>
                <name>Trackpoint 8012</name>
            </trkpt>
            <trkpt lat="49.7471456" lon="9.9876816">
                <ele>173.0</ele>
                <time>2020-08-23T14:07:07.000Z</time>
                <name>Trackpoint 8013</name>
            </trkpt>
            <trkpt lat="49.74728" lon="9.9876544">
                <ele>173.0</ele>
                <time>2020-08-23T14:07:09.000Z</time>
                <name>Trackpoint 8014</name>
            </trkpt>
            <trkpt lat="49.7474112" lon="9.987628">
                <ele>172.0</ele>
                <time>2020-08-23T14:07:11.000Z</time>
                <name>Trackpoint 8015</name>
            </trkpt>
            <trkpt lat="49.747536" lon="9.9876">
                <ele>172.0</ele>
                <time>2020-08-23T14:07:13.000Z</time>
                <name>Trackpoint 8016</name>
            </trkpt>
            <trkpt lat="49.7476608" lon="9.9875696">
                <ele>172.0</ele>
                <time>2020-08-23T14:07:15.000Z</time>
                <name>Trackpoint 8017</name>
            </trkpt>
            <trkpt lat="49.747776" lon="9.9875384">
                <ele>172.0</ele>
                <time>2020-08-23T14:07:17.000Z</time>
                <name>Trackpoint 8018</name>
            </trkpt>
            <trkpt lat="49.7478976" lon="9.9875088">
                <ele>172.0</ele>
                <time>2020-08-23T14:07:19.000Z</time>
                <name>Trackpoint 8019</name>
            </trkpt>
            <trkpt lat="49.748016" lon="9.9874712">
                <ele>172.0</ele>
                <time>2020-08-23T14:07:21.000Z</time>
                <name>Trackpoint 8020</name>
            </trkpt>
            <trkpt lat="49.7481216" lon="9.9874336">
                <ele>172.0</ele>
                <time>2020-08-23T14:07:23.000Z</time>
                <name>Trackpoint 8021</name>
            </trkpt>
            <trkpt lat="49.7482336" lon="9.9874">
                <ele>172.0</ele>
                <time>2020-08-23T14:07:25.000Z</time>
                <name>Trackpoint 8022</name>
            </trkpt>
            <trkpt lat="49.748352" lon="9.9873688">
                <ele>172.0</ele>
                <time>2020-08-23T14:07:27.000Z</time>
                <name>Trackpoint 8023</name>
            </trkpt>
            <trkpt lat="49.7484672" lon="9.9873184">
                <ele>172.0</ele>
                <time>2020-08-23T14:07:29.000Z</time>
                <name>Trackpoint 8024</name>
            </trkpt>
            <trkpt lat="49.7485664" lon="9.9872664">
                <ele>172.0</ele>
                <time>2020-08-23T14:07:31.000Z</time>
                <name>Trackpoint 8025</name>
            </trkpt>
            <trkpt lat="49.7486816" lon="9.9872064">
                <ele>172.0</ele>
                <time>2020-08-23T14:07:33.000Z</time>
                <name>Trackpoint 8026</name>
            </trkpt>
            <trkpt lat="49.7487936" lon="9.987148">
                <ele>172.0</ele>
                <time>2020-08-23T14:07:35.000Z</time>
                <name>Trackpoint 8027</name>
            </trkpt>
            <trkpt lat="49.7489056" lon="9.987088">
                <ele>172.0</ele>
                <time>2020-08-23T14:07:37.000Z</time>
                <name>Trackpoint 8028</name>
            </trkpt>
            <trkpt lat="49.7490432" lon="9.9870432">
                <ele>172.0</ele>
                <time>2020-08-23T14:07:39.000Z</time>
                <name>Trackpoint 8029</name>
            </trkpt>
            <trkpt lat="49.7491808" lon="9.9869936">
                <ele>172.0</ele>
                <time>2020-08-23T14:07:41.000Z</time>
                <name>Trackpoint 8030</name>
            </trkpt>
            <trkpt lat="49.7492928" lon="9.98694">
                <ele>172.0</ele>
                <time>2020-08-23T14:07:43.000Z</time>
                <name>Trackpoint 8031</name>
            </trkpt>
            <trkpt lat="49.7494016" lon="9.9868744">
                <ele>172.0</ele>
                <time>2020-08-23T14:07:45.000Z</time>
                <name>Trackpoint 8032</name>
            </trkpt>
            <trkpt lat="49.7495072" lon="9.9868184">
                <ele>172.0</ele>
                <time>2020-08-23T14:07:47.000Z</time>
                <name>Trackpoint 8033</name>
            </trkpt>
            <trkpt lat="49.7496192" lon="9.9867712">
                <ele>172.0</ele>
                <time>2020-08-23T14:07:49.000Z</time>
                <name>Trackpoint 8034</name>
            </trkpt>
            <trkpt lat="49.7497472" lon="9.9867184">
                <ele>172.0</ele>
                <time>2020-08-23T14:07:51.000Z</time>
                <name>Trackpoint 8035</name>
            </trkpt>
            <trkpt lat="49.7498688" lon="9.9866504">
                <ele>172.0</ele>
                <time>2020-08-23T14:07:53.000Z</time>
                <name>Trackpoint 8036</name>
            </trkpt>
            <trkpt lat="49.7499968" lon="9.98658">
                <ele>172.0</ele>
                <time>2020-08-23T14:07:55.000Z</time>
                <name>Trackpoint 8037</name>
            </trkpt>
            <trkpt lat="49.7501152" lon="9.9865104">
                <ele>172.0</ele>
                <time>2020-08-23T14:07:57.000Z</time>
                <name>Trackpoint 8038</name>
            </trkpt>
            <trkpt lat="49.7502304" lon="9.9864384">
                <ele>172.0</ele>
                <time>2020-08-23T14:07:59.000Z</time>
                <name>Trackpoint 8039</name>
            </trkpt>
            <trkpt lat="49.7503296" lon="9.9863592">
                <ele>172.0</ele>
                <time>2020-08-23T14:08:01.000Z</time>
                <name>Trackpoint 8040</name>
            </trkpt>
            <trkpt lat="49.7504416" lon="9.9862832">
                <ele>172.0</ele>
                <time>2020-08-23T14:08:03.000Z</time>
                <name>Trackpoint 8041</name>
            </trkpt>
            <trkpt lat="49.7505536" lon="9.9862048">
                <ele>171.0</ele>
                <time>2020-08-23T14:08:05.000Z</time>
                <name>Trackpoint 8042</name>
            </trkpt>
            <trkpt lat="49.7506528" lon="9.9861184">
                <ele>171.0</ele>
                <time>2020-08-23T14:08:07.000Z</time>
                <name>Trackpoint 8043</name>
            </trkpt>
            <trkpt lat="49.7507488" lon="9.9860312">
                <ele>171.0</ele>
                <time>2020-08-23T14:08:09.000Z</time>
                <name>Trackpoint 8044</name>
            </trkpt>
            <trkpt lat="49.7508384" lon="9.9859352">
                <ele>172.0</ele>
                <time>2020-08-23T14:08:11.000Z</time>
                <name>Trackpoint 8045</name>
            </trkpt>
            <trkpt lat="49.7509152" lon="9.9858216">
                <ele>172.0</ele>
                <time>2020-08-23T14:08:13.000Z</time>
                <name>Trackpoint 8046</name>
            </trkpt>
            <trkpt lat="49.750992" lon="9.9856984">
                <ele>171.0</ele>
                <time>2020-08-23T14:08:15.000Z</time>
                <name>Trackpoint 8047</name>
            </trkpt>
            <trkpt lat="49.7510752" lon="9.9855736">
                <ele>171.0</ele>
                <time>2020-08-23T14:08:17.000Z</time>
                <name>Trackpoint 8048</name>
            </trkpt>
            <trkpt lat="49.7511648" lon="9.9854832">
                <ele>171.0</ele>
                <time>2020-08-23T14:08:19.000Z</time>
                <name>Trackpoint 8049</name>
            </trkpt>
            <trkpt lat="49.7512288" lon="9.9853848">
                <ele>171.0</ele>
                <time>2020-08-23T14:08:21.000Z</time>
                <name>Trackpoint 8050</name>
            </trkpt>
            <trkpt lat="49.7513248" lon="9.9852688">
                <ele>171.0</ele>
                <time>2020-08-23T14:08:23.000Z</time>
                <name>Trackpoint 8051</name>
            </trkpt>
            <trkpt lat="49.7513984" lon="9.9852">
                <ele>171.0</ele>
                <time>2020-08-23T14:08:24.000Z</time>
                <name>Trackpoint 8052</name>
            </trkpt>
            <trkpt lat="49.7514912" lon="9.9851352">
                <ele>171.0</ele>
                <time>2020-08-23T14:08:25.000Z</time>
                <name>Trackpoint 8053</name>
            </trkpt>
            <trkpt lat="49.7515744" lon="9.98506">
                <ele>171.0</ele>
                <time>2020-08-23T14:08:26.000Z</time>
                <name>Trackpoint 8054</name>
            </trkpt>
            <trkpt lat="49.751632" lon="9.9849816">
                <ele>171.0</ele>
                <time>2020-08-23T14:08:27.000Z</time>
                <name>Trackpoint 8055</name>
            </trkpt>
            <trkpt lat="49.7516864" lon="9.9849032">
                <ele>170.0</ele>
                <time>2020-08-23T14:08:28.000Z</time>
                <name>Trackpoint 8056</name>
            </trkpt>
            <trkpt lat="49.751744" lon="9.9848272">
                <ele>171.0</ele>
                <time>2020-08-23T14:08:29.000Z</time>
                <name>Trackpoint 8057</name>
            </trkpt>
            <trkpt lat="49.7518048" lon="9.9847496">
                <ele>171.0</ele>
                <time>2020-08-23T14:08:30.000Z</time>
                <name>Trackpoint 8058</name>
            </trkpt>
            <trkpt lat="49.7519008" lon="9.9846088">
                <ele>171.0</ele>
                <time>2020-08-23T14:08:32.000Z</time>
                <name>Trackpoint 8059</name>
            </trkpt>
            <trkpt lat="49.752" lon="9.9844816">
                <ele>171.0</ele>
                <time>2020-08-23T14:08:34.000Z</time>
                <name>Trackpoint 8060</name>
            </trkpt>
            <trkpt lat="49.7520864" lon="9.984352">
                <ele>171.0</ele>
                <time>2020-08-23T14:08:36.000Z</time>
                <name>Trackpoint 8061</name>
            </trkpt>
            <trkpt lat="49.7521568" lon="9.9841984">
                <ele>171.0</ele>
                <time>2020-08-23T14:08:38.000Z</time>
                <name>Trackpoint 8062</name>
            </trkpt>
            <trkpt lat="49.7522048" lon="9.9840432">
                <ele>171.0</ele>
                <time>2020-08-23T14:08:40.000Z</time>
                <name>Trackpoint 8063</name>
            </trkpt>
            <trkpt lat="49.7522688" lon="9.9839224">
                <ele>171.0</ele>
                <time>2020-08-23T14:08:42.000Z</time>
                <name>Trackpoint 8064</name>
            </trkpt>
            <trkpt lat="49.7523648" lon="9.9838264">
                <ele>171.0</ele>
                <time>2020-08-23T14:08:44.000Z</time>
                <name>Trackpoint 8065</name>
            </trkpt>
            <trkpt lat="49.7524608" lon="9.9837368">
                <ele>171.0</ele>
                <time>2020-08-23T14:08:46.000Z</time>
                <name>Trackpoint 8066</name>
            </trkpt>
            <trkpt lat="49.75256" lon="9.9836464">
                <ele>171.0</ele>
                <time>2020-08-23T14:08:48.000Z</time>
                <name>Trackpoint 8067</name>
            </trkpt>
            <trkpt lat="49.7526592" lon="9.9835568">
                <ele>171.0</ele>
                <time>2020-08-23T14:08:50.000Z</time>
                <name>Trackpoint 8068</name>
            </trkpt>
            <trkpt lat="49.7527584" lon="9.9834672">
                <ele>171.0</ele>
                <time>2020-08-23T14:08:52.000Z</time>
                <name>Trackpoint 8069</name>
            </trkpt>
            <trkpt lat="49.7528544" lon="9.9833816">
                <ele>171.0</ele>
                <time>2020-08-23T14:08:54.000Z</time>
                <name>Trackpoint 8070</name>
            </trkpt>
            <trkpt lat="49.7529408" lon="9.983296">
                <ele>170.0</ele>
                <time>2020-08-23T14:08:56.000Z</time>
                <name>Trackpoint 8071</name>
            </trkpt>
            <trkpt lat="49.75304" lon="9.9832136">
                <ele>170.0</ele>
                <time>2020-08-23T14:08:58.000Z</time>
                <name>Trackpoint 8072</name>
            </trkpt>
            <trkpt lat="49.7531328" lon="9.9831384">
                <ele>170.0</ele>
                <time>2020-08-23T14:09:00.000Z</time>
                <name>Trackpoint 8073</name>
            </trkpt>
            <trkpt lat="49.7532096" lon="9.9830488">
                <ele>170.0</ele>
                <time>2020-08-23T14:09:02.000Z</time>
                <name>Trackpoint 8074</name>
            </trkpt>
            <trkpt lat="49.7532928" lon="9.9829712">
                <ele>170.0</ele>
                <time>2020-08-23T14:09:04.000Z</time>
                <name>Trackpoint 8075</name>
            </trkpt>
            <trkpt lat="49.7533728" lon="9.9828952">
                <ele>171.0</ele>
                <time>2020-08-23T14:09:06.000Z</time>
                <name>Trackpoint 8076</name>
            </trkpt>
            <trkpt lat="49.7534688" lon="9.9828104">
                <ele>171.0</ele>
                <time>2020-08-23T14:09:08.000Z</time>
                <name>Trackpoint 8077</name>
            </trkpt>
            <trkpt lat="49.753568" lon="9.9827368">
                <ele>171.0</ele>
                <time>2020-08-23T14:09:10.000Z</time>
                <name>Trackpoint 8078</name>
            </trkpt>
            <trkpt lat="49.7536576" lon="9.9826648">
                <ele>171.0</ele>
                <time>2020-08-23T14:09:12.000Z</time>
                <name>Trackpoint 8079</name>
            </trkpt>
            <trkpt lat="49.7537504" lon="9.982592">
                <ele>171.0</ele>
                <time>2020-08-23T14:09:14.000Z</time>
                <name>Trackpoint 8080</name>
            </trkpt>
            <trkpt lat="49.75384" lon="9.9825224">
                <ele>171.0</ele>
                <time>2020-08-23T14:09:16.000Z</time>
                <name>Trackpoint 8081</name>
            </trkpt>
            <trkpt lat="49.75392" lon="9.9824664">
                <ele>172.0</ele>
                <time>2020-08-23T14:09:18.000Z</time>
                <name>Trackpoint 8082</name>
            </trkpt>
            <trkpt lat="49.754032" lon="9.9824016">
                <ele>172.0</ele>
                <time>2020-08-23T14:09:21.000Z</time>
                <name>Trackpoint 8083</name>
            </trkpt>
            <trkpt lat="49.7541344" lon="9.982364">
                <ele>172.0</ele>
                <time>2020-08-23T14:09:24.000Z</time>
                <name>Trackpoint 8084</name>
            </trkpt>
            <trkpt lat="49.7542048" lon="9.9823048">
                <ele>172.0</ele>
                <time>2020-08-23T14:09:26.000Z</time>
                <name>Trackpoint 8085</name>
            </trkpt>
            <trkpt lat="49.7542656" lon="9.9822328">
                <ele>171.0</ele>
                <time>2020-08-23T14:09:28.000Z</time>
                <name>Trackpoint 8086</name>
            </trkpt>
            <trkpt lat="49.7543264" lon="9.9821552">
                <ele>171.0</ele>
                <time>2020-08-23T14:09:30.000Z</time>
                <name>Trackpoint 8087</name>
            </trkpt>
            <trkpt lat="49.7543904" lon="9.9820768">
                <ele>171.0</ele>
                <time>2020-08-23T14:09:32.000Z</time>
                <name>Trackpoint 8088</name>
            </trkpt>
            <trkpt lat="49.7544704" lon="9.9819944">
                <ele>171.0</ele>
                <time>2020-08-23T14:09:34.000Z</time>
                <name>Trackpoint 8089</name>
            </trkpt>
            <trkpt lat="49.7545664" lon="9.9819232">
                <ele>171.0</ele>
                <time>2020-08-23T14:09:36.000Z</time>
                <name>Trackpoint 8090</name>
            </trkpt>
            <trkpt lat="49.7546528" lon="9.9818632">
                <ele>171.0</ele>
                <time>2020-08-23T14:09:38.000Z</time>
                <name>Trackpoint 8091</name>
            </trkpt>
            <trkpt lat="49.7547392" lon="9.9817912">
                <ele>171.0</ele>
                <time>2020-08-23T14:09:40.000Z</time>
                <name>Trackpoint 8092</name>
            </trkpt>
            <trkpt lat="49.7548192" lon="9.981724">
                <ele>171.0</ele>
                <time>2020-08-23T14:09:42.000Z</time>
                <name>Trackpoint 8093</name>
            </trkpt>
            <trkpt lat="49.7549088" lon="9.9816704">
                <ele>171.0</ele>
                <time>2020-08-23T14:09:44.000Z</time>
                <name>Trackpoint 8094</name>
            </trkpt>
            <trkpt lat="49.7550048" lon="9.9816">
                <ele>171.0</ele>
                <time>2020-08-23T14:09:46.000Z</time>
                <name>Trackpoint 8095</name>
            </trkpt>
            <trkpt lat="49.7550976" lon="9.9815256">
                <ele>171.0</ele>
                <time>2020-08-23T14:09:48.000Z</time>
                <name>Trackpoint 8096</name>
            </trkpt>
            <trkpt lat="49.755184" lon="9.9814368">
                <ele>170.0</ele>
                <time>2020-08-23T14:09:50.000Z</time>
                <name>Trackpoint 8097</name>
            </trkpt>
            <trkpt lat="49.7552704" lon="9.9813544">
                <ele>170.0</ele>
                <time>2020-08-23T14:09:52.000Z</time>
                <name>Trackpoint 8098</name>
            </trkpt>
            <trkpt lat="49.7553632" lon="9.981288">
                <ele>170.0</ele>
                <time>2020-08-23T14:09:54.000Z</time>
                <name>Trackpoint 8099</name>
            </trkpt>
            <trkpt lat="49.755456" lon="9.9812168">
                <ele>170.0</ele>
                <time>2020-08-23T14:09:56.000Z</time>
                <name>Trackpoint 8100</name>
            </trkpt>
            <trkpt lat="49.7555616" lon="9.9811312">
                <ele>170.0</ele>
                <time>2020-08-23T14:09:59.000Z</time>
                <name>Trackpoint 8101</name>
            </trkpt>
            <trkpt lat="49.755632" lon="9.9810648">
                <ele>170.0</ele>
                <time>2020-08-23T14:10:01.000Z</time>
                <name>Trackpoint 8102</name>
            </trkpt>
            <trkpt lat="49.7557472" lon="9.98098">
                <ele>171.0</ele>
                <time>2020-08-23T14:10:04.000Z</time>
                <name>Trackpoint 8103</name>
            </trkpt>
            <trkpt lat="49.75584" lon="9.9809064">
                <ele>170.0</ele>
                <time>2020-08-23T14:10:06.000Z</time>
                <name>Trackpoint 8104</name>
            </trkpt>
            <trkpt lat="49.755936" lon="9.9808304">
                <ele>170.0</ele>
                <time>2020-08-23T14:10:08.000Z</time>
                <name>Trackpoint 8105</name>
            </trkpt>
            <trkpt lat="49.7560384" lon="9.9807656">
                <ele>171.0</ele>
                <time>2020-08-23T14:10:10.000Z</time>
                <name>Trackpoint 8106</name>
            </trkpt>
            <trkpt lat="49.7561504" lon="9.9806856">
                <ele>170.0</ele>
                <time>2020-08-23T14:10:12.000Z</time>
                <name>Trackpoint 8107</name>
            </trkpt>
            <trkpt lat="49.756256" lon="9.9806168">
                <ele>170.0</ele>
                <time>2020-08-23T14:10:14.000Z</time>
                <name>Trackpoint 8108</name>
            </trkpt>
            <trkpt lat="49.7563552" lon="9.980548">
                <ele>170.0</ele>
                <time>2020-08-23T14:10:16.000Z</time>
                <name>Trackpoint 8109</name>
            </trkpt>
            <trkpt lat="49.7564608" lon="9.9804672">
                <ele>170.0</ele>
                <time>2020-08-23T14:10:18.000Z</time>
                <name>Trackpoint 8110</name>
            </trkpt>
            <trkpt lat="49.75656" lon="9.9803832">
                <ele>170.0</ele>
                <time>2020-08-23T14:10:20.000Z</time>
                <name>Trackpoint 8111</name>
            </trkpt>
            <trkpt lat="49.7566848" lon="9.9802784">
                <ele>169.0</ele>
                <time>2020-08-23T14:10:22.000Z</time>
                <name>Trackpoint 8112</name>
            </trkpt>
            <trkpt lat="49.7567904" lon="9.9801904">
                <ele>168.0</ele>
                <time>2020-08-23T14:10:24.000Z</time>
                <name>Trackpoint 8113</name>
            </trkpt>
            <trkpt lat="49.7568864" lon="9.980112">
                <ele>168.0</ele>
                <time>2020-08-23T14:10:26.000Z</time>
                <name>Trackpoint 8114</name>
            </trkpt>
            <trkpt lat="49.7569856" lon="9.9800664">
                <ele>168.0</ele>
                <time>2020-08-23T14:10:28.000Z</time>
                <name>Trackpoint 8115</name>
            </trkpt>
            <trkpt lat="49.7570912" lon="9.9800304">
                <ele>168.0</ele>
                <time>2020-08-23T14:10:30.000Z</time>
                <name>Trackpoint 8116</name>
            </trkpt>
            <trkpt lat="49.7571968" lon="9.9799568">
                <ele>168.0</ele>
                <time>2020-08-23T14:10:32.000Z</time>
                <name>Trackpoint 8117</name>
            </trkpt>
            <trkpt lat="49.7572896" lon="9.9798616">
                <ele>168.0</ele>
                <time>2020-08-23T14:10:34.000Z</time>
                <name>Trackpoint 8118</name>
            </trkpt>
            <trkpt lat="49.7573728" lon="9.9797448">
                <ele>168.0</ele>
                <time>2020-08-23T14:10:36.000Z</time>
                <name>Trackpoint 8119</name>
            </trkpt>
            <trkpt lat="49.7574528" lon="9.9796312">
                <ele>168.0</ele>
                <time>2020-08-23T14:10:38.000Z</time>
                <name>Trackpoint 8120</name>
            </trkpt>
            <trkpt lat="49.7575488" lon="9.9795312">
                <ele>168.0</ele>
                <time>2020-08-23T14:10:40.000Z</time>
                <name>Trackpoint 8121</name>
            </trkpt>
            <trkpt lat="49.7576576" lon="9.9794328">
                <ele>168.0</ele>
                <time>2020-08-23T14:10:42.000Z</time>
                <name>Trackpoint 8122</name>
            </trkpt>
            <trkpt lat="49.7577664" lon="9.9793368">
                <ele>168.0</ele>
                <time>2020-08-23T14:10:44.000Z</time>
                <name>Trackpoint 8123</name>
            </trkpt>
            <trkpt lat="49.7578688" lon="9.9792272">
                <ele>167.0</ele>
                <time>2020-08-23T14:10:46.000Z</time>
                <name>Trackpoint 8124</name>
            </trkpt>
            <trkpt lat="49.7579712" lon="9.9791096">
                <ele>167.0</ele>
                <time>2020-08-23T14:10:48.000Z</time>
                <name>Trackpoint 8125</name>
            </trkpt>
            <trkpt lat="49.7580672" lon="9.9789896">
                <ele>166.0</ele>
                <time>2020-08-23T14:10:50.000Z</time>
                <name>Trackpoint 8126</name>
            </trkpt>
            <trkpt lat="49.7581376" lon="9.9788664">
                <ele>166.0</ele>
                <time>2020-08-23T14:10:52.000Z</time>
                <name>Trackpoint 8127</name>
            </trkpt>
            <trkpt lat="49.7582048" lon="9.9787704">
                <ele>166.0</ele>
                <time>2020-08-23T14:10:54.000Z</time>
                <name>Trackpoint 8128</name>
            </trkpt>
            <trkpt lat="49.7583008" lon="9.9787064">
                <ele>166.0</ele>
                <time>2020-08-23T14:10:56.000Z</time>
                <name>Trackpoint 8129</name>
            </trkpt>
            <trkpt lat="49.7583872" lon="9.978628">
                <ele>166.0</ele>
                <time>2020-08-23T14:10:58.000Z</time>
                <name>Trackpoint 8130</name>
            </trkpt>
            <trkpt lat="49.7584544" lon="9.978528">
                <ele>166.0</ele>
                <time>2020-08-23T14:11:00.000Z</time>
                <name>Trackpoint 8131</name>
            </trkpt>
            <trkpt lat="49.7584928" lon="9.9784248">
                <ele>166.0</ele>
                <time>2020-08-23T14:11:02.000Z</time>
                <name>Trackpoint 8132</name>
            </trkpt>
            <trkpt lat="49.7585152" lon="9.9783312">
                <ele>167.0</ele>
                <time>2020-08-23T14:11:04.000Z</time>
                <name>Trackpoint 8133</name>
            </trkpt>
            <trkpt lat="49.7585376" lon="9.9782336">
                <ele>167.0</ele>
                <time>2020-08-23T14:11:06.000Z</time>
                <name>Trackpoint 8134</name>
            </trkpt>
            <trkpt lat="49.75856" lon="9.9781248">
                <ele>167.0</ele>
                <time>2020-08-23T14:11:08.000Z</time>
                <name>Trackpoint 8135</name>
            </trkpt>
            <trkpt lat="49.7585984" lon="9.9780256">
                <ele>167.0</ele>
                <time>2020-08-23T14:11:10.000Z</time>
                <name>Trackpoint 8136</name>
            </trkpt>
            <trkpt lat="49.7585984" lon="9.9780056">
                <ele>167.0</ele>
                <time>2020-08-23T14:13:01.000Z</time>
                <name>Trackpoint 8138</name>
            </trkpt>
            <trkpt lat="49.7586368" lon="9.9779064">
                <ele>167.0</ele>
                <time>2020-08-23T14:13:03.000Z</time>
                <name>Trackpoint 8139</name>
            </trkpt>
            <trkpt lat="49.7586816" lon="9.9778184">
                <ele>167.0</ele>
                <time>2020-08-23T14:13:05.000Z</time>
                <name>Trackpoint 8140</name>
            </trkpt>
            <trkpt lat="49.7587392" lon="9.9777384">
                <ele>166.0</ele>
                <time>2020-08-23T14:13:07.000Z</time>
                <name>Trackpoint 8141</name>
            </trkpt>
            <trkpt lat="49.7588288" lon="9.9776512">
                <ele>166.0</ele>
                <time>2020-08-23T14:13:10.000Z</time>
                <name>Trackpoint 8142</name>
            </trkpt>
            <trkpt lat="49.7589184" lon="9.9775736">
                <ele>166.0</ele>
                <time>2020-08-23T14:13:13.000Z</time>
                <name>Trackpoint 8143</name>
            </trkpt>
            <trkpt lat="49.759024" lon="9.9775">
                <ele>166.0</ele>
                <time>2020-08-23T14:13:16.000Z</time>
                <name>Trackpoint 8144</name>
            </trkpt>
            <trkpt lat="49.7591392" lon="9.9774288">
                <ele>166.0</ele>
                <time>2020-08-23T14:13:19.000Z</time>
                <name>Trackpoint 8145</name>
            </trkpt>
            <trkpt lat="49.7592544" lon="9.9773648">
                <ele>166.0</ele>
                <time>2020-08-23T14:13:22.000Z</time>
                <name>Trackpoint 8146</name>
            </trkpt>
            <trkpt lat="49.7593216" lon="9.9772928">
                <ele>167.0</ele>
                <time>2020-08-23T14:13:24.000Z</time>
                <name>Trackpoint 8147</name>
            </trkpt>
            <trkpt lat="49.7594336" lon="9.9772304">
                <ele>167.0</ele>
                <time>2020-08-23T14:13:27.000Z</time>
                <name>Trackpoint 8148</name>
            </trkpt>
            <trkpt lat="49.7595136" lon="9.9771672">
                <ele>167.0</ele>
                <time>2020-08-23T14:13:29.000Z</time>
                <name>Trackpoint 8149</name>
            </trkpt>
            <trkpt lat="49.7595904" lon="9.9771096">
                <ele>167.0</ele>
                <time>2020-08-23T14:13:31.000Z</time>
                <name>Trackpoint 8150</name>
            </trkpt>
            <trkpt lat="49.7596832" lon="9.9770744">
                <ele>167.0</ele>
                <time>2020-08-23T14:13:33.000Z</time>
                <name>Trackpoint 8151</name>
            </trkpt>
            <trkpt lat="49.759792" lon="9.9770832">
                <ele>167.0</ele>
                <time>2020-08-23T14:13:35.000Z</time>
                <name>Trackpoint 8152</name>
            </trkpt>
            <trkpt lat="49.7598752" lon="9.9771656">
                <ele>167.0</ele>
                <time>2020-08-23T14:13:37.000Z</time>
                <name>Trackpoint 8153</name>
            </trkpt>
            <trkpt lat="49.7599648" lon="9.9772184">
                <ele>167.0</ele>
                <time>2020-08-23T14:13:39.000Z</time>
                <name>Trackpoint 8154</name>
            </trkpt>
            <trkpt lat="49.760096" lon="9.9771928">
                <ele>167.0</ele>
                <time>2020-08-23T14:13:42.000Z</time>
                <name>Trackpoint 8155</name>
            </trkpt>
            <trkpt lat="49.7601824" lon="9.9771408">
                <ele>167.0</ele>
                <time>2020-08-23T14:13:44.000Z</time>
                <name>Trackpoint 8156</name>
            </trkpt>
            <trkpt lat="49.7602688" lon="9.9770648">
                <ele>167.0</ele>
                <time>2020-08-23T14:13:46.000Z</time>
                <name>Trackpoint 8157</name>
            </trkpt>
            <trkpt lat="49.7603584" lon="9.9769824">
                <ele>167.0</ele>
                <time>2020-08-23T14:13:48.000Z</time>
                <name>Trackpoint 8158</name>
            </trkpt>
            <trkpt lat="49.760448" lon="9.97688">
                <ele>167.0</ele>
                <time>2020-08-23T14:13:50.000Z</time>
                <name>Trackpoint 8159</name>
            </trkpt>
            <trkpt lat="49.7605248" lon="9.9767736">
                <ele>167.0</ele>
                <time>2020-08-23T14:13:52.000Z</time>
                <name>Trackpoint 8160</name>
            </trkpt>
            <trkpt lat="49.7606112" lon="9.9766432">
                <ele>167.0</ele>
                <time>2020-08-23T14:13:54.000Z</time>
                <name>Trackpoint 8161</name>
            </trkpt>
            <trkpt lat="49.7607104" lon="9.9765104">
                <ele>167.0</ele>
                <time>2020-08-23T14:13:56.000Z</time>
                <name>Trackpoint 8162</name>
            </trkpt>
            <trkpt lat="49.7607904" lon="9.9763584">
                <ele>167.0</ele>
                <time>2020-08-23T14:13:58.000Z</time>
                <name>Trackpoint 8163</name>
            </trkpt>
            <trkpt lat="49.7608288" lon="9.9762752">
                <ele>167.0</ele>
                <time>2020-08-23T14:13:59.000Z</time>
                <name>Trackpoint 8164</name>
            </trkpt>
            <trkpt lat="49.7609088" lon="9.9761384">
                <ele>168.0</ele>
                <time>2020-08-23T14:14:01.000Z</time>
                <name>Trackpoint 8165</name>
            </trkpt>
            <trkpt lat="49.7609888" lon="9.9760064">
                <ele>168.0</ele>
                <time>2020-08-23T14:14:03.000Z</time>
                <name>Trackpoint 8166</name>
            </trkpt>
            <trkpt lat="49.7610688" lon="9.9758856">
                <ele>168.0</ele>
                <time>2020-08-23T14:14:05.000Z</time>
                <name>Trackpoint 8167</name>
            </trkpt>
            <trkpt lat="49.761168" lon="9.9757632">
                <ele>168.0</ele>
                <time>2020-08-23T14:14:07.000Z</time>
                <name>Trackpoint 8168</name>
            </trkpt>
            <trkpt lat="49.7612448" lon="9.9756368">
                <ele>168.0</ele>
                <time>2020-08-23T14:14:09.000Z</time>
                <name>Trackpoint 8169</name>
            </trkpt>
            <trkpt lat="49.7613216" lon="9.9755088">
                <ele>168.0</ele>
                <time>2020-08-23T14:14:11.000Z</time>
                <name>Trackpoint 8170</name>
            </trkpt>
            <trkpt lat="49.7613952" lon="9.9753736">
                <ele>168.0</ele>
                <time>2020-08-23T14:14:13.000Z</time>
                <name>Trackpoint 8171</name>
            </trkpt>
            <trkpt lat="49.7614752" lon="9.9752392">
                <ele>167.0</ele>
                <time>2020-08-23T14:14:15.000Z</time>
                <name>Trackpoint 8172</name>
            </trkpt>
            <trkpt lat="49.761536" lon="9.9750968">
                <ele>167.0</ele>
                <time>2020-08-23T14:14:17.000Z</time>
                <name>Trackpoint 8173</name>
            </trkpt>
            <trkpt lat="49.7615968" lon="9.974952">
                <ele>167.0</ele>
                <time>2020-08-23T14:14:19.000Z</time>
                <name>Trackpoint 8174</name>
            </trkpt>
            <trkpt lat="49.7616704" lon="9.9748096">
                <ele>167.0</ele>
                <time>2020-08-23T14:14:21.000Z</time>
                <name>Trackpoint 8175</name>
            </trkpt>
            <trkpt lat="49.7617344" lon="9.9746648">
                <ele>167.0</ele>
                <time>2020-08-23T14:14:23.000Z</time>
                <name>Trackpoint 8176</name>
            </trkpt>
            <trkpt lat="49.761792" lon="9.974508">
                <ele>167.0</ele>
                <time>2020-08-23T14:14:25.000Z</time>
                <name>Trackpoint 8177</name>
            </trkpt>
            <trkpt lat="49.7618432" lon="9.9743432">
                <ele>168.0</ele>
                <time>2020-08-23T14:14:27.000Z</time>
                <name>Trackpoint 8178</name>
            </trkpt>
            <trkpt lat="49.7618976" lon="9.9741848">
                <ele>168.0</ele>
                <time>2020-08-23T14:14:29.000Z</time>
                <name>Trackpoint 8179</name>
            </trkpt>
            <trkpt lat="49.7619616" lon="9.9740288">
                <ele>168.0</ele>
                <time>2020-08-23T14:14:31.000Z</time>
                <name>Trackpoint 8180</name>
            </trkpt>
            <trkpt lat="49.7620288" lon="9.9738648">
                <ele>168.0</ele>
                <time>2020-08-23T14:14:33.000Z</time>
                <name>Trackpoint 8181</name>
            </trkpt>
            <trkpt lat="49.7620576" lon="9.9737784">
                <ele>168.0</ele>
                <time>2020-08-23T14:14:34.000Z</time>
                <name>Trackpoint 8182</name>
            </trkpt>
            <trkpt lat="49.7621216" lon="9.9736232">
                <ele>168.0</ele>
                <time>2020-08-23T14:14:36.000Z</time>
                <name>Trackpoint 8183</name>
            </trkpt>
            <trkpt lat="49.7621952" lon="9.9734688">
                <ele>168.0</ele>
                <time>2020-08-23T14:14:38.000Z</time>
                <name>Trackpoint 8184</name>
            </trkpt>
            <trkpt lat="49.7622592" lon="9.973304">
                <ele>168.0</ele>
                <time>2020-08-23T14:14:40.000Z</time>
                <name>Trackpoint 8185</name>
            </trkpt>
            <trkpt lat="49.7623104" lon="9.9731352">
                <ele>168.0</ele>
                <time>2020-08-23T14:14:42.000Z</time>
                <name>Trackpoint 8186</name>
            </trkpt>
            <trkpt lat="49.762368" lon="9.972968">
                <ele>168.0</ele>
                <time>2020-08-23T14:14:44.000Z</time>
                <name>Trackpoint 8187</name>
            </trkpt>
            <trkpt lat="49.7624288" lon="9.9728">
                <ele>168.0</ele>
                <time>2020-08-23T14:14:46.000Z</time>
                <name>Trackpoint 8188</name>
            </trkpt>
            <trkpt lat="49.7624896" lon="9.9726296">
                <ele>168.0</ele>
                <time>2020-08-23T14:14:48.000Z</time>
                <name>Trackpoint 8189</name>
            </trkpt>
            <trkpt lat="49.7625184" lon="9.9725416">
                <ele>168.0</ele>
                <time>2020-08-23T14:14:49.000Z</time>
                <name>Trackpoint 8190</name>
            </trkpt>
            <trkpt lat="49.7625568" lon="9.972448">
                <ele>168.0</ele>
                <time>2020-08-23T14:14:50.000Z</time>
                <name>Trackpoint 8191</name>
            </trkpt>
            <trkpt lat="49.7625888" lon="9.9723632">
                <ele>168.0</ele>
                <time>2020-08-23T14:14:51.000Z</time>
                <name>Trackpoint 8192</name>
            </trkpt>
            <trkpt lat="49.7626272" lon="9.9722784">
                <ele>168.0</ele>
                <time>2020-08-23T14:14:52.000Z</time>
                <name>Trackpoint 8193</name>
            </trkpt>
            <trkpt lat="49.7626656" lon="9.9721896">
                <ele>168.0</ele>
                <time>2020-08-23T14:14:53.000Z</time>
                <name>Trackpoint 8194</name>
            </trkpt>
            <trkpt lat="49.7626944" lon="9.9720984">
                <ele>168.0</ele>
                <time>2020-08-23T14:14:54.000Z</time>
                <name>Trackpoint 8195</name>
            </trkpt>
            <trkpt lat="49.7627296" lon="9.9720096">
                <ele>168.0</ele>
                <time>2020-08-23T14:14:55.000Z</time>
                <name>Trackpoint 8196</name>
            </trkpt>
            <trkpt lat="49.7627616" lon="9.97192">
                <ele>168.0</ele>
                <time>2020-08-23T14:14:56.000Z</time>
                <name>Trackpoint 8197</name>
            </trkpt>
            <trkpt lat="49.7627872" lon="9.9718304">
                <ele>168.0</ele>
                <time>2020-08-23T14:14:57.000Z</time>
                <name>Trackpoint 8198</name>
            </trkpt>
            <trkpt lat="49.7628224" lon="9.97174">
                <ele>168.0</ele>
                <time>2020-08-23T14:14:58.000Z</time>
                <name>Trackpoint 8199</name>
            </trkpt>
            <trkpt lat="49.7628544" lon="9.971652">
                <ele>168.0</ele>
                <time>2020-08-23T14:14:59.000Z</time>
                <name>Trackpoint 8200</name>
            </trkpt>
            <trkpt lat="49.7628896" lon="9.9715592">
                <ele>168.0</ele>
                <time>2020-08-23T14:15:00.000Z</time>
                <name>Trackpoint 8201</name>
            </trkpt>
            <trkpt lat="49.762928" lon="9.971468">
                <ele>168.0</ele>
                <time>2020-08-23T14:15:01.000Z</time>
                <name>Trackpoint 8202</name>
            </trkpt>
            <trkpt lat="49.7629632" lon="9.9713768">
                <ele>168.0</ele>
                <time>2020-08-23T14:15:02.000Z</time>
                <name>Trackpoint 8203</name>
            </trkpt>
            <trkpt lat="49.762992" lon="9.9712832">
                <ele>168.0</ele>
                <time>2020-08-23T14:15:03.000Z</time>
                <name>Trackpoint 8204</name>
            </trkpt>
            <trkpt lat="49.7630208" lon="9.9711888">
                <ele>168.0</ele>
                <time>2020-08-23T14:15:04.000Z</time>
                <name>Trackpoint 8205</name>
            </trkpt>
            <trkpt lat="49.7630496" lon="9.9710976">
                <ele>168.0</ele>
                <time>2020-08-23T14:15:05.000Z</time>
                <name>Trackpoint 8206</name>
            </trkpt>
            <trkpt lat="49.7630848" lon="9.9710056">
                <ele>168.0</ele>
                <time>2020-08-23T14:15:06.000Z</time>
                <name>Trackpoint 8207</name>
            </trkpt>
            <trkpt lat="49.7631232" lon="9.9709056">
                <ele>168.0</ele>
                <time>2020-08-23T14:15:07.000Z</time>
                <name>Trackpoint 8208</name>
            </trkpt>
            <trkpt lat="49.7631584" lon="9.970812">
                <ele>168.0</ele>
                <time>2020-08-23T14:15:08.000Z</time>
                <name>Trackpoint 8209</name>
            </trkpt>
            <trkpt lat="49.7631904" lon="9.970712">
                <ele>168.0</ele>
                <time>2020-08-23T14:15:09.000Z</time>
                <name>Trackpoint 8210</name>
            </trkpt>
            <trkpt lat="49.7632288" lon="9.9706096">
                <ele>169.0</ele>
                <time>2020-08-23T14:15:10.000Z</time>
                <name>Trackpoint 8211</name>
            </trkpt>
            <trkpt lat="49.763264" lon="9.9705136">
                <ele>169.0</ele>
                <time>2020-08-23T14:15:11.000Z</time>
                <name>Trackpoint 8212</name>
            </trkpt>
            <trkpt lat="49.7632992" lon="9.9704168">
                <ele>169.0</ele>
                <time>2020-08-23T14:15:12.000Z</time>
                <name>Trackpoint 8213</name>
            </trkpt>
            <trkpt lat="49.763328" lon="9.9703256">
                <ele>169.0</ele>
                <time>2020-08-23T14:15:13.000Z</time>
                <name>Trackpoint 8214</name>
            </trkpt>
            <trkpt lat="49.7633632" lon="9.9702304">
                <ele>169.0</ele>
                <time>2020-08-23T14:15:14.000Z</time>
                <name>Trackpoint 8215</name>
            </trkpt>
            <trkpt lat="49.763392" lon="9.9701384">
                <ele>169.0</ele>
                <time>2020-08-23T14:15:15.000Z</time>
                <name>Trackpoint 8216</name>
            </trkpt>
            <trkpt lat="49.7634272" lon="9.9700472">
                <ele>169.0</ele>
                <time>2020-08-23T14:15:16.000Z</time>
                <name>Trackpoint 8217</name>
            </trkpt>
            <trkpt lat="49.7634624" lon="9.9699584">
                <ele>169.0</ele>
                <time>2020-08-23T14:15:17.000Z</time>
                <name>Trackpoint 8218</name>
            </trkpt>
            <trkpt lat="49.7634912" lon="9.9698664">
                <ele>169.0</ele>
                <time>2020-08-23T14:15:18.000Z</time>
                <name>Trackpoint 8219</name>
            </trkpt>
            <trkpt lat="49.7635168" lon="9.9697712">
                <ele>169.0</ele>
                <time>2020-08-23T14:15:19.000Z</time>
                <name>Trackpoint 8220</name>
            </trkpt>
            <trkpt lat="49.7635392" lon="9.9696768">
                <ele>169.0</ele>
                <time>2020-08-23T14:15:20.000Z</time>
                <name>Trackpoint 8221</name>
            </trkpt>
            <trkpt lat="49.7635616" lon="9.96958">
                <ele>169.0</ele>
                <time>2020-08-23T14:15:21.000Z</time>
                <name>Trackpoint 8222</name>
            </trkpt>
            <trkpt lat="49.7635808" lon="9.9694856">
                <ele>169.0</ele>
                <time>2020-08-23T14:15:22.000Z</time>
                <name>Trackpoint 8223</name>
            </trkpt>
            <trkpt lat="49.7636032" lon="9.969388">
                <ele>169.0</ele>
                <time>2020-08-23T14:15:23.000Z</time>
                <name>Trackpoint 8224</name>
            </trkpt>
            <trkpt lat="49.7636224" lon="9.9692896">
                <ele>169.0</ele>
                <time>2020-08-23T14:15:24.000Z</time>
                <name>Trackpoint 8225</name>
            </trkpt>
            <trkpt lat="49.7636352" lon="9.9691936">
                <ele>169.0</ele>
                <time>2020-08-23T14:15:25.000Z</time>
                <name>Trackpoint 8226</name>
            </trkpt>
            <trkpt lat="49.7636416" lon="9.9690984">
                <ele>169.0</ele>
                <time>2020-08-23T14:15:26.000Z</time>
                <name>Trackpoint 8227</name>
            </trkpt>
            <trkpt lat="49.763648" lon="9.9690016">
                <ele>169.0</ele>
                <time>2020-08-23T14:15:27.000Z</time>
                <name>Trackpoint 8228</name>
            </trkpt>
            <trkpt lat="49.7636576" lon="9.9689064">
                <ele>169.0</ele>
                <time>2020-08-23T14:15:28.000Z</time>
                <name>Trackpoint 8229</name>
            </trkpt>
            <trkpt lat="49.7636608" lon="9.9688104">
                <ele>169.0</ele>
                <time>2020-08-23T14:15:29.000Z</time>
                <name>Trackpoint 8230</name>
            </trkpt>
            <trkpt lat="49.763664" lon="9.9687144">
                <ele>169.0</ele>
                <time>2020-08-23T14:15:30.000Z</time>
                <name>Trackpoint 8231</name>
            </trkpt>
            <trkpt lat="49.7636704" lon="9.968532">
                <ele>169.0</ele>
                <time>2020-08-23T14:15:32.000Z</time>
                <name>Trackpoint 8232</name>
            </trkpt>
            <trkpt lat="49.7636704" lon="9.9684352">
                <ele>169.0</ele>
                <time>2020-08-23T14:15:33.000Z</time>
                <name>Trackpoint 8233</name>
            </trkpt>
            <trkpt lat="49.7636704" lon="9.9683448">
                <ele>169.0</ele>
                <time>2020-08-23T14:15:34.000Z</time>
                <name>Trackpoint 8234</name>
            </trkpt>
            <trkpt lat="49.7636672" lon="9.9682504">
                <ele>169.0</ele>
                <time>2020-08-23T14:15:35.000Z</time>
                <name>Trackpoint 8235</name>
            </trkpt>
            <trkpt lat="49.7636608" lon="9.9681584">
                <ele>169.0</ele>
                <time>2020-08-23T14:15:36.000Z</time>
                <name>Trackpoint 8236</name>
            </trkpt>
            <trkpt lat="49.7636544" lon="9.9680616">
                <ele>169.0</ele>
                <time>2020-08-23T14:15:37.000Z</time>
                <name>Trackpoint 8237</name>
            </trkpt>
            <trkpt lat="49.7636416" lon="9.9679632">
                <ele>169.0</ele>
                <time>2020-08-23T14:15:38.000Z</time>
                <name>Trackpoint 8238</name>
            </trkpt>
            <trkpt lat="49.7636384" lon="9.9677984">
                <ele>169.0</ele>
                <time>2020-08-23T14:15:40.000Z</time>
                <name>Trackpoint 8239</name>
            </trkpt>
            <trkpt lat="49.7636288" lon="9.9676352">
                <ele>169.0</ele>
                <time>2020-08-23T14:15:42.000Z</time>
                <name>Trackpoint 8240</name>
            </trkpt>
            <trkpt lat="49.7636192" lon="9.9674656">
                <ele>169.0</ele>
                <time>2020-08-23T14:15:44.000Z</time>
                <name>Trackpoint 8241</name>
            </trkpt>
            <trkpt lat="49.7636288" lon="9.9673728">
                <ele>169.0</ele>
                <time>2020-08-23T14:15:45.000Z</time>
                <name>Trackpoint 8242</name>
            </trkpt>
            <trkpt lat="49.7636608" lon="9.9671896">
                <ele>169.0</ele>
                <time>2020-08-23T14:15:47.000Z</time>
                <name>Trackpoint 8243</name>
            </trkpt>
            <trkpt lat="49.7636704" lon="9.9670912">
                <ele>169.0</ele>
                <time>2020-08-23T14:15:48.000Z</time>
                <name>Trackpoint 8244</name>
            </trkpt>
            <trkpt lat="49.76368" lon="9.9669912">
                <ele>170.0</ele>
                <time>2020-08-23T14:15:49.000Z</time>
                <name>Trackpoint 8245</name>
            </trkpt>
            <trkpt lat="49.7637056" lon="9.9668912">
                <ele>169.0</ele>
                <time>2020-08-23T14:15:50.000Z</time>
                <name>Trackpoint 8246</name>
            </trkpt>
            <trkpt lat="49.7637344" lon="9.9667928">
                <ele>169.0</ele>
                <time>2020-08-23T14:15:51.000Z</time>
                <name>Trackpoint 8247</name>
            </trkpt>
            <trkpt lat="49.7637664" lon="9.9666984">
                <ele>169.0</ele>
                <time>2020-08-23T14:15:52.000Z</time>
                <name>Trackpoint 8248</name>
            </trkpt>
            <trkpt lat="49.7638016" lon="9.9666072">
                <ele>168.0</ele>
                <time>2020-08-23T14:15:53.000Z</time>
                <name>Trackpoint 8249</name>
            </trkpt>
            <trkpt lat="49.7638336" lon="9.9665144">
                <ele>169.0</ele>
                <time>2020-08-23T14:15:54.000Z</time>
                <name>Trackpoint 8250</name>
            </trkpt>
            <trkpt lat="49.7638624" lon="9.96642">
                <ele>169.0</ele>
                <time>2020-08-23T14:15:55.000Z</time>
                <name>Trackpoint 8251</name>
            </trkpt>
            <trkpt lat="49.7638944" lon="9.9663296">
                <ele>169.0</ele>
                <time>2020-08-23T14:15:56.000Z</time>
                <name>Trackpoint 8252</name>
            </trkpt>
            <trkpt lat="49.7639232" lon="9.966244">
                <ele>169.0</ele>
                <time>2020-08-23T14:15:57.000Z</time>
                <name>Trackpoint 8253</name>
            </trkpt>
            <trkpt lat="49.7639584" lon="9.9661568">
                <ele>169.0</ele>
                <time>2020-08-23T14:15:58.000Z</time>
                <name>Trackpoint 8254</name>
            </trkpt>
            <trkpt lat="49.763984" lon="9.9660704">
                <ele>169.0</ele>
                <time>2020-08-23T14:15:59.000Z</time>
                <name>Trackpoint 8255</name>
            </trkpt>
            <trkpt lat="49.7640128" lon="9.9659832">
                <ele>169.0</ele>
                <time>2020-08-23T14:16:00.000Z</time>
                <name>Trackpoint 8256</name>
            </trkpt>
            <trkpt lat="49.7640352" lon="9.9658944">
                <ele>169.0</ele>
                <time>2020-08-23T14:16:01.000Z</time>
                <name>Trackpoint 8257</name>
            </trkpt>
            <trkpt lat="49.7640768" lon="9.96572">
                <ele>169.0</ele>
                <time>2020-08-23T14:16:03.000Z</time>
                <name>Trackpoint 8258</name>
            </trkpt>
            <trkpt lat="49.764112" lon="9.9655488">
                <ele>169.0</ele>
                <time>2020-08-23T14:16:05.000Z</time>
                <name>Trackpoint 8259</name>
            </trkpt>
            <trkpt lat="49.764144" lon="9.9653752">
                <ele>170.0</ele>
                <time>2020-08-23T14:16:07.000Z</time>
                <name>Trackpoint 8260</name>
            </trkpt>
            <trkpt lat="49.7641664" lon="9.965288">
                <ele>169.0</ele>
                <time>2020-08-23T14:16:08.000Z</time>
                <name>Trackpoint 8261</name>
            </trkpt>
            <trkpt lat="49.7642048" lon="9.9651184">
                <ele>169.0</ele>
                <time>2020-08-23T14:16:10.000Z</time>
                <name>Trackpoint 8262</name>
            </trkpt>
            <trkpt lat="49.76424" lon="9.9649536">
                <ele>170.0</ele>
                <time>2020-08-23T14:16:12.000Z</time>
                <name>Trackpoint 8263</name>
            </trkpt>
            <trkpt lat="49.7642784" lon="9.9647904">
                <ele>170.0</ele>
                <time>2020-08-23T14:16:14.000Z</time>
                <name>Trackpoint 8264</name>
            </trkpt>
            <trkpt lat="49.7643168" lon="9.9646184">
                <ele>170.0</ele>
                <time>2020-08-23T14:16:16.000Z</time>
                <name>Trackpoint 8265</name>
            </trkpt>
            <trkpt lat="49.7643456" lon="9.9644432">
                <ele>170.0</ele>
                <time>2020-08-23T14:16:18.000Z</time>
                <name>Trackpoint 8266</name>
            </trkpt>
            <trkpt lat="49.7643776" lon="9.9642752">
                <ele>170.0</ele>
                <time>2020-08-23T14:16:20.000Z</time>
                <name>Trackpoint 8267</name>
            </trkpt>
            <trkpt lat="49.7644128" lon="9.9641104">
                <ele>169.0</ele>
                <time>2020-08-23T14:16:22.000Z</time>
                <name>Trackpoint 8268</name>
            </trkpt>
            <trkpt lat="49.7644512" lon="9.9639384">
                <ele>170.0</ele>
                <time>2020-08-23T14:16:24.000Z</time>
                <name>Trackpoint 8269</name>
            </trkpt>
            <trkpt lat="49.7644832" lon="9.9637672">
                <ele>169.0</ele>
                <time>2020-08-23T14:16:26.000Z</time>
                <name>Trackpoint 8270</name>
            </trkpt>
            <trkpt lat="49.7645184" lon="9.963596">
                <ele>169.0</ele>
                <time>2020-08-23T14:16:28.000Z</time>
                <name>Trackpoint 8271</name>
            </trkpt>
            <trkpt lat="49.76456" lon="9.9634288">
                <ele>169.0</ele>
                <time>2020-08-23T14:16:30.000Z</time>
                <name>Trackpoint 8272</name>
            </trkpt>
            <trkpt lat="49.764592" lon="9.9632616">
                <ele>169.0</ele>
                <time>2020-08-23T14:16:32.000Z</time>
                <name>Trackpoint 8273</name>
            </trkpt>
            <trkpt lat="49.764624" lon="9.9630944">
                <ele>169.0</ele>
                <time>2020-08-23T14:16:34.000Z</time>
                <name>Trackpoint 8274</name>
            </trkpt>
            <trkpt lat="49.764656" lon="9.9629272">
                <ele>168.0</ele>
                <time>2020-08-23T14:16:36.000Z</time>
                <name>Trackpoint 8275</name>
            </trkpt>
            <trkpt lat="49.764688" lon="9.9627568">
                <ele>168.0</ele>
                <time>2020-08-23T14:16:38.000Z</time>
                <name>Trackpoint 8276</name>
            </trkpt>
            <trkpt lat="49.7647168" lon="9.962588">
                <ele>168.0</ele>
                <time>2020-08-23T14:16:40.000Z</time>
                <name>Trackpoint 8277</name>
            </trkpt>
            <trkpt lat="49.764752" lon="9.9624168">
                <ele>168.0</ele>
                <time>2020-08-23T14:16:42.000Z</time>
                <name>Trackpoint 8278</name>
            </trkpt>
            <trkpt lat="49.7647904" lon="9.9622432">
                <ele>169.0</ele>
                <time>2020-08-23T14:16:44.000Z</time>
                <name>Trackpoint 8279</name>
            </trkpt>
            <trkpt lat="49.7648192" lon="9.9620712">
                <ele>169.0</ele>
                <time>2020-08-23T14:16:46.000Z</time>
                <name>Trackpoint 8280</name>
            </trkpt>
            <trkpt lat="49.7648544" lon="9.9619016">
                <ele>169.0</ele>
                <time>2020-08-23T14:16:48.000Z</time>
                <name>Trackpoint 8281</name>
            </trkpt>
            <trkpt lat="49.7648896" lon="9.9617328">
                <ele>170.0</ele>
                <time>2020-08-23T14:16:50.000Z</time>
                <name>Trackpoint 8282</name>
            </trkpt>
            <trkpt lat="49.7649216" lon="9.9615648">
                <ele>170.0</ele>
                <time>2020-08-23T14:16:52.000Z</time>
                <name>Trackpoint 8283</name>
            </trkpt>
            <trkpt lat="49.7649536" lon="9.9613984">
                <ele>170.0</ele>
                <time>2020-08-23T14:16:54.000Z</time>
                <name>Trackpoint 8284</name>
            </trkpt>
            <trkpt lat="49.7649888" lon="9.9612352">
                <ele>170.0</ele>
                <time>2020-08-23T14:16:56.000Z</time>
                <name>Trackpoint 8285</name>
            </trkpt>
            <trkpt lat="49.7650208" lon="9.9610728">
                <ele>171.0</ele>
                <time>2020-08-23T14:16:58.000Z</time>
                <name>Trackpoint 8286</name>
            </trkpt>
            <trkpt lat="49.7650496" lon="9.9609096">
                <ele>171.0</ele>
                <time>2020-08-23T14:17:00.000Z</time>
                <name>Trackpoint 8287</name>
            </trkpt>
            <trkpt lat="49.7650848" lon="9.9607464">
                <ele>171.0</ele>
                <time>2020-08-23T14:17:02.000Z</time>
                <name>Trackpoint 8288</name>
            </trkpt>
            <trkpt lat="49.7651296" lon="9.960584">
                <ele>171.0</ele>
                <time>2020-08-23T14:17:04.000Z</time>
                <name>Trackpoint 8289</name>
            </trkpt>
            <trkpt lat="49.765168" lon="9.9604152">
                <ele>171.0</ele>
                <time>2020-08-23T14:17:06.000Z</time>
                <name>Trackpoint 8290</name>
            </trkpt>
            <trkpt lat="49.7651936" lon="9.960248">
                <ele>171.0</ele>
                <time>2020-08-23T14:17:08.000Z</time>
                <name>Trackpoint 8291</name>
            </trkpt>
            <trkpt lat="49.7652192" lon="9.9600872">
                <ele>171.0</ele>
                <time>2020-08-23T14:17:10.000Z</time>
                <name>Trackpoint 8292</name>
            </trkpt>
            <trkpt lat="49.7652448" lon="9.9599248">
                <ele>171.0</ele>
                <time>2020-08-23T14:17:12.000Z</time>
                <name>Trackpoint 8293</name>
            </trkpt>
            <trkpt lat="49.7652704" lon="9.9597656">
                <ele>171.0</ele>
                <time>2020-08-23T14:17:14.000Z</time>
                <name>Trackpoint 8294</name>
            </trkpt>
            <trkpt lat="49.7653056" lon="9.9596136">
                <ele>171.0</ele>
                <time>2020-08-23T14:17:16.000Z</time>
                <name>Trackpoint 8295</name>
            </trkpt>
            <trkpt lat="49.7653376" lon="9.9594744">
                <ele>171.0</ele>
                <time>2020-08-23T14:17:18.000Z</time>
                <name>Trackpoint 8296</name>
            </trkpt>
            <trkpt lat="49.765376" lon="9.9593584">
                <ele>171.0</ele>
                <time>2020-08-23T14:17:20.000Z</time>
                <name>Trackpoint 8297</name>
            </trkpt>
            <trkpt lat="49.7654048" lon="9.9592416">
                <ele>171.0</ele>
                <time>2020-08-23T14:17:22.000Z</time>
                <name>Trackpoint 8298</name>
            </trkpt>
            <trkpt lat="49.7654432" lon="9.9591128">
                <ele>171.0</ele>
                <time>2020-08-23T14:17:24.000Z</time>
                <name>Trackpoint 8299</name>
            </trkpt>
            <trkpt lat="49.7654816" lon="9.9589784">
                <ele>171.0</ele>
                <time>2020-08-23T14:17:26.000Z</time>
                <name>Trackpoint 8300</name>
            </trkpt>
            <trkpt lat="49.7655264" lon="9.958832">
                <ele>171.0</ele>
                <time>2020-08-23T14:17:28.000Z</time>
                <name>Trackpoint 8301</name>
            </trkpt>
            <trkpt lat="49.7655712" lon="9.9586696">
                <ele>171.0</ele>
                <time>2020-08-23T14:17:30.000Z</time>
                <name>Trackpoint 8302</name>
            </trkpt>
            <trkpt lat="49.7656256" lon="9.9585048">
                <ele>170.0</ele>
                <time>2020-08-23T14:17:32.000Z</time>
                <name>Trackpoint 8303</name>
            </trkpt>
            <trkpt lat="49.7656832" lon="9.9583456">
                <ele>170.0</ele>
                <time>2020-08-23T14:17:34.000Z</time>
                <name>Trackpoint 8304</name>
            </trkpt>
            <trkpt lat="49.7657408" lon="9.9581848">
                <ele>170.0</ele>
                <time>2020-08-23T14:17:36.000Z</time>
                <name>Trackpoint 8305</name>
            </trkpt>
            <trkpt lat="49.7657888" lon="9.9580272">
                <ele>170.0</ele>
                <time>2020-08-23T14:17:38.000Z</time>
                <name>Trackpoint 8306</name>
            </trkpt>
            <trkpt lat="49.7658336" lon="9.9578688">
                <ele>171.0</ele>
                <time>2020-08-23T14:17:40.000Z</time>
                <name>Trackpoint 8307</name>
            </trkpt>
            <trkpt lat="49.7658944" lon="9.9577264">
                <ele>171.0</ele>
                <time>2020-08-23T14:17:42.000Z</time>
                <name>Trackpoint 8308</name>
            </trkpt>
            <trkpt lat="49.7659488" lon="9.9575704">
                <ele>171.0</ele>
                <time>2020-08-23T14:17:44.000Z</time>
                <name>Trackpoint 8309</name>
            </trkpt>
            <trkpt lat="49.7660032" lon="9.9574144">
                <ele>170.0</ele>
                <time>2020-08-23T14:17:46.000Z</time>
                <name>Trackpoint 8310</name>
            </trkpt>
            <trkpt lat="49.7660608" lon="9.9572648">
                <ele>170.0</ele>
                <time>2020-08-23T14:17:48.000Z</time>
                <name>Trackpoint 8311</name>
            </trkpt>
            <trkpt lat="49.7661184" lon="9.9571112">
                <ele>170.0</ele>
                <time>2020-08-23T14:17:50.000Z</time>
                <name>Trackpoint 8312</name>
            </trkpt>
            <trkpt lat="49.7661792" lon="9.9569616">
                <ele>170.0</ele>
                <time>2020-08-23T14:17:52.000Z</time>
                <name>Trackpoint 8313</name>
            </trkpt>
            <trkpt lat="49.7662464" lon="9.9568232">
                <ele>170.0</ele>
                <time>2020-08-23T14:17:54.000Z</time>
                <name>Trackpoint 8314</name>
            </trkpt>
            <trkpt lat="49.7663104" lon="9.956672">
                <ele>170.0</ele>
                <time>2020-08-23T14:17:56.000Z</time>
                <name>Trackpoint 8315</name>
            </trkpt>
            <trkpt lat="49.7663808" lon="9.9565296">
                <ele>170.0</ele>
                <time>2020-08-23T14:17:58.000Z</time>
                <name>Trackpoint 8316</name>
            </trkpt>
            <trkpt lat="49.7664512" lon="9.9563776">
                <ele>170.0</ele>
                <time>2020-08-23T14:18:00.000Z</time>
                <name>Trackpoint 8317</name>
            </trkpt>
            <trkpt lat="49.7665184" lon="9.956228">
                <ele>170.0</ele>
                <time>2020-08-23T14:18:02.000Z</time>
                <name>Trackpoint 8318</name>
            </trkpt>
            <trkpt lat="49.7665632" lon="9.9560736">
                <ele>170.0</ele>
                <time>2020-08-23T14:18:04.000Z</time>
                <name>Trackpoint 8319</name>
            </trkpt>
            <trkpt lat="49.7665824" lon="9.9559848">
                <ele>170.0</ele>
                <time>2020-08-23T14:18:05.000Z</time>
                <name>Trackpoint 8320</name>
            </trkpt>
            <trkpt lat="49.7666272" lon="9.9558184">
                <ele>170.0</ele>
                <time>2020-08-23T14:18:07.000Z</time>
                <name>Trackpoint 8321</name>
            </trkpt>
            <trkpt lat="49.7666816" lon="9.9556576">
                <ele>170.0</ele>
                <time>2020-08-23T14:18:09.000Z</time>
                <name>Trackpoint 8322</name>
            </trkpt>
            <trkpt lat="49.76672" lon="9.9555">
                <ele>170.0</ele>
                <time>2020-08-23T14:18:11.000Z</time>
                <name>Trackpoint 8323</name>
            </trkpt>
            <trkpt lat="49.7667552" lon="9.9553344">
                <ele>170.0</ele>
                <time>2020-08-23T14:18:13.000Z</time>
                <name>Trackpoint 8324</name>
            </trkpt>
            <trkpt lat="49.766816" lon="9.955176">
                <ele>170.0</ele>
                <time>2020-08-23T14:18:15.000Z</time>
                <name>Trackpoint 8325</name>
            </trkpt>
            <trkpt lat="49.7668864" lon="9.9550368">
                <ele>170.0</ele>
                <time>2020-08-23T14:18:17.000Z</time>
                <name>Trackpoint 8326</name>
            </trkpt>
            <trkpt lat="49.7669568" lon="9.954924">
                <ele>170.0</ele>
                <time>2020-08-23T14:18:19.000Z</time>
                <name>Trackpoint 8327</name>
            </trkpt>
            <trkpt lat="49.7670336" lon="9.954828">
                <ele>170.0</ele>
                <time>2020-08-23T14:18:21.000Z</time>
                <name>Trackpoint 8328</name>
            </trkpt>
            <trkpt lat="49.7671008" lon="9.9547456">
                <ele>170.0</ele>
                <time>2020-08-23T14:18:23.000Z</time>
                <name>Trackpoint 8329</name>
            </trkpt>
            <trkpt lat="49.7671744" lon="9.9546416">
                <ele>170.0</ele>
                <time>2020-08-23T14:18:25.000Z</time>
                <name>Trackpoint 8330</name>
            </trkpt>
            <trkpt lat="49.7672352" lon="9.9545472">
                <ele>170.0</ele>
                <time>2020-08-23T14:18:27.000Z</time>
                <name>Trackpoint 8331</name>
            </trkpt>
            <trkpt lat="49.7673024" lon="9.95446">
                <ele>170.0</ele>
                <time>2020-08-23T14:18:29.000Z</time>
                <name>Trackpoint 8332</name>
            </trkpt>
            <trkpt lat="49.767376" lon="9.954376">
                <ele>170.0</ele>
                <time>2020-08-23T14:18:31.000Z</time>
                <name>Trackpoint 8333</name>
            </trkpt>
            <trkpt lat="49.7674592" lon="9.9542704">
                <ele>170.0</ele>
                <time>2020-08-23T14:18:33.000Z</time>
                <name>Trackpoint 8334</name>
            </trkpt>
            <trkpt lat="49.767536" lon="9.9541432">
                <ele>170.0</ele>
                <time>2020-08-23T14:18:35.000Z</time>
                <name>Trackpoint 8335</name>
            </trkpt>
            <trkpt lat="49.7676064" lon="9.9540192">
                <ele>170.0</ele>
                <time>2020-08-23T14:18:37.000Z</time>
                <name>Trackpoint 8336</name>
            </trkpt>
            <trkpt lat="49.7676736" lon="9.953908">
                <ele>170.0</ele>
                <time>2020-08-23T14:18:39.000Z</time>
                <name>Trackpoint 8337</name>
            </trkpt>
            <trkpt lat="49.7677216" lon="9.9538048">
                <ele>170.0</ele>
                <time>2020-08-23T14:18:41.000Z</time>
                <name>Trackpoint 8338</name>
            </trkpt>
            <trkpt lat="49.767776" lon="9.9536864">
                <ele>170.0</ele>
                <time>2020-08-23T14:18:43.000Z</time>
                <name>Trackpoint 8339</name>
            </trkpt>
            <trkpt lat="49.7678528" lon="9.9535512">
                <ele>170.0</ele>
                <time>2020-08-23T14:18:45.000Z</time>
                <name>Trackpoint 8340</name>
            </trkpt>
            <trkpt lat="49.7679264" lon="9.9534216">
                <ele>170.0</ele>
                <time>2020-08-23T14:18:47.000Z</time>
                <name>Trackpoint 8341</name>
            </trkpt>
            <trkpt lat="49.7679936" lon="9.9532872">
                <ele>170.0</ele>
                <time>2020-08-23T14:18:49.000Z</time>
                <name>Trackpoint 8342</name>
            </trkpt>
            <trkpt lat="49.7680576" lon="9.953168">
                <ele>170.0</ele>
                <time>2020-08-23T14:18:51.000Z</time>
                <name>Trackpoint 8343</name>
            </trkpt>
            <trkpt lat="49.7681152" lon="9.9530496">
                <ele>170.0</ele>
                <time>2020-08-23T14:18:53.000Z</time>
                <name>Trackpoint 8344</name>
            </trkpt>
            <trkpt lat="49.7681728" lon="9.9529288">
                <ele>170.0</ele>
                <time>2020-08-23T14:18:55.000Z</time>
                <name>Trackpoint 8345</name>
            </trkpt>
            <trkpt lat="49.7682144" lon="9.952788">
                <ele>170.0</ele>
                <time>2020-08-23T14:18:57.000Z</time>
                <name>Trackpoint 8346</name>
            </trkpt>
            <trkpt lat="49.7682528" lon="9.9526368">
                <ele>170.0</ele>
                <time>2020-08-23T14:18:59.000Z</time>
                <name>Trackpoint 8347</name>
            </trkpt>
            <trkpt lat="49.7682944" lon="9.9524936">
                <ele>170.0</ele>
                <time>2020-08-23T14:19:01.000Z</time>
                <name>Trackpoint 8348</name>
            </trkpt>
            <trkpt lat="49.768352" lon="9.952336">
                <ele>171.0</ele>
                <time>2020-08-23T14:19:03.000Z</time>
                <name>Trackpoint 8349</name>
            </trkpt>
            <trkpt lat="49.768384" lon="9.9521984">
                <ele>171.0</ele>
                <time>2020-08-23T14:19:05.000Z</time>
                <name>Trackpoint 8350</name>
            </trkpt>
            <trkpt lat="49.7684128" lon="9.9520528">
                <ele>171.0</ele>
                <time>2020-08-23T14:19:07.000Z</time>
                <name>Trackpoint 8351</name>
            </trkpt>
            <trkpt lat="49.7684256" lon="9.951952">
                <ele>171.0</ele>
                <time>2020-08-23T14:19:08.000Z</time>
                <name>Trackpoint 8352</name>
            </trkpt>
            <trkpt lat="49.7684512" lon="9.951848">
                <ele>171.0</ele>
                <time>2020-08-23T14:19:09.000Z</time>
                <name>Trackpoint 8353</name>
            </trkpt>
            <trkpt lat="49.7684768" lon="9.9517568">
                <ele>171.0</ele>
                <time>2020-08-23T14:19:10.000Z</time>
                <name>Trackpoint 8354</name>
            </trkpt>
            <trkpt lat="49.7685024" lon="9.9516696">
                <ele>171.0</ele>
                <time>2020-08-23T14:19:11.000Z</time>
                <name>Trackpoint 8355</name>
            </trkpt>
            <trkpt lat="49.7685312" lon="9.9515">
                <ele>171.0</ele>
                <time>2020-08-23T14:19:13.000Z</time>
                <name>Trackpoint 8356</name>
            </trkpt>
            <trkpt lat="49.7685696" lon="9.9513432">
                <ele>171.0</ele>
                <time>2020-08-23T14:19:15.000Z</time>
                <name>Trackpoint 8357</name>
            </trkpt>
            <trkpt lat="49.7686112" lon="9.9511784">
                <ele>171.0</ele>
                <time>2020-08-23T14:19:17.000Z</time>
                <name>Trackpoint 8358</name>
            </trkpt>
            <trkpt lat="49.7686464" lon="9.951028">
                <ele>171.0</ele>
                <time>2020-08-23T14:19:19.000Z</time>
                <name>Trackpoint 8359</name>
            </trkpt>
            <trkpt lat="49.768672" lon="9.9509064">
                <ele>171.0</ele>
                <time>2020-08-23T14:19:21.000Z</time>
                <name>Trackpoint 8360</name>
            </trkpt>
            <trkpt lat="49.7687136" lon="9.9507368">
                <ele>171.0</ele>
                <time>2020-08-23T14:19:23.000Z</time>
                <name>Trackpoint 8361</name>
            </trkpt>
            <trkpt lat="49.7687424" lon="9.950592">
                <ele>171.0</ele>
                <time>2020-08-23T14:19:25.000Z</time>
                <name>Trackpoint 8362</name>
            </trkpt>
            <trkpt lat="49.7687744" lon="9.9504584">
                <ele>171.0</ele>
                <time>2020-08-23T14:19:27.000Z</time>
                <name>Trackpoint 8363</name>
            </trkpt>
            <trkpt lat="49.7688096" lon="9.9503072">
                <ele>171.0</ele>
                <time>2020-08-23T14:19:29.000Z</time>
                <name>Trackpoint 8364</name>
            </trkpt>
            <trkpt lat="49.7688512" lon="9.9501632">
                <ele>171.0</ele>
                <time>2020-08-23T14:19:31.000Z</time>
                <name>Trackpoint 8365</name>
            </trkpt>
            <trkpt lat="49.7688832" lon="9.950024">
                <ele>171.0</ele>
                <time>2020-08-23T14:19:33.000Z</time>
                <name>Trackpoint 8366</name>
            </trkpt>
            <trkpt lat="49.7689024" lon="9.9499104">
                <ele>171.0</ele>
                <time>2020-08-23T14:19:35.000Z</time>
                <name>Trackpoint 8367</name>
            </trkpt>
            <trkpt lat="49.7689472" lon="9.9497432">
                <ele>171.0</ele>
                <time>2020-08-23T14:19:37.000Z</time>
                <name>Trackpoint 8368</name>
            </trkpt>
            <trkpt lat="49.7689792" lon="9.9496496">
                <ele>171.0</ele>
                <time>2020-08-23T14:19:38.000Z</time>
                <name>Trackpoint 8369</name>
            </trkpt>
            <trkpt lat="49.7690176" lon="9.9495424">
                <ele>170.0</ele>
                <time>2020-08-23T14:19:39.000Z</time>
                <name>Trackpoint 8370</name>
            </trkpt>
            <trkpt lat="49.769072" lon="9.9493784">
                <ele>170.0</ele>
                <time>2020-08-23T14:19:41.000Z</time>
                <name>Trackpoint 8371</name>
            </trkpt>
            <trkpt lat="49.769104" lon="9.9492216">
                <ele>170.0</ele>
                <time>2020-08-23T14:19:43.000Z</time>
                <name>Trackpoint 8372</name>
            </trkpt>
            <trkpt lat="49.769152" lon="9.9490616">
                <ele>170.0</ele>
                <time>2020-08-23T14:19:45.000Z</time>
                <name>Trackpoint 8373</name>
            </trkpt>
            <trkpt lat="49.7692" lon="9.94892">
                <ele>170.0</ele>
                <time>2020-08-23T14:19:47.000Z</time>
                <name>Trackpoint 8374</name>
            </trkpt>
            <trkpt lat="49.7692384" lon="9.9487648">
                <ele>170.0</ele>
                <time>2020-08-23T14:19:49.000Z</time>
                <name>Trackpoint 8375</name>
            </trkpt>
            <trkpt lat="49.7692896" lon="9.9486128">
                <ele>170.0</ele>
                <time>2020-08-23T14:19:51.000Z</time>
                <name>Trackpoint 8376</name>
            </trkpt>
            <trkpt lat="49.769344" lon="9.9484584">
                <ele>170.0</ele>
                <time>2020-08-23T14:19:53.000Z</time>
                <name>Trackpoint 8377</name>
            </trkpt>
            <trkpt lat="49.769376" lon="9.9483072">
                <ele>169.0</ele>
                <time>2020-08-23T14:19:55.000Z</time>
                <name>Trackpoint 8378</name>
            </trkpt>
            <trkpt lat="49.7694144" lon="9.9481488">
                <ele>169.0</ele>
                <time>2020-08-23T14:19:57.000Z</time>
                <name>Trackpoint 8379</name>
            </trkpt>
            <trkpt lat="49.769456" lon="9.947984">
                <ele>170.0</ele>
                <time>2020-08-23T14:19:59.000Z</time>
                <name>Trackpoint 8380</name>
            </trkpt>
            <trkpt lat="49.7694752" lon="9.9478232">
                <ele>170.0</ele>
                <time>2020-08-23T14:20:01.000Z</time>
                <name>Trackpoint 8381</name>
            </trkpt>
            <trkpt lat="49.7694816" lon="9.9476616">
                <ele>170.0</ele>
                <time>2020-08-23T14:20:03.000Z</time>
                <name>Trackpoint 8382</name>
            </trkpt>
            <trkpt lat="49.7694976" lon="9.9475048">
                <ele>170.0</ele>
                <time>2020-08-23T14:20:05.000Z</time>
                <name>Trackpoint 8383</name>
            </trkpt>
            <trkpt lat="49.76952" lon="9.9473536">
                <ele>171.0</ele>
                <time>2020-08-23T14:20:07.000Z</time>
                <name>Trackpoint 8384</name>
            </trkpt>
            <trkpt lat="49.7695424" lon="9.94722">
                <ele>171.0</ele>
                <time>2020-08-23T14:20:09.000Z</time>
                <name>Trackpoint 8385</name>
            </trkpt>
            <trkpt lat="49.7695744" lon="9.947132">
                <ele>170.0</ele>
                <time>2020-08-23T14:20:10.000Z</time>
                <name>Trackpoint 8386</name>
            </trkpt>
            <trkpt lat="49.7696128" lon="9.9469768">
                <ele>171.0</ele>
                <time>2020-08-23T14:20:12.000Z</time>
                <name>Trackpoint 8387</name>
            </trkpt>
            <trkpt lat="49.7696736" lon="9.9468384">
                <ele>170.0</ele>
                <time>2020-08-23T14:20:14.000Z</time>
                <name>Trackpoint 8388</name>
            </trkpt>
            <trkpt lat="49.7697216" lon="9.9467048">
                <ele>171.0</ele>
                <time>2020-08-23T14:20:16.000Z</time>
                <name>Trackpoint 8389</name>
            </trkpt>
            <trkpt lat="49.7697536" lon="9.9465664">
                <ele>171.0</ele>
                <time>2020-08-23T14:20:18.000Z</time>
                <name>Trackpoint 8390</name>
            </trkpt>
            <trkpt lat="49.7697984" lon="9.9464432">
                <ele>170.0</ele>
                <time>2020-08-23T14:20:20.000Z</time>
                <name>Trackpoint 8391</name>
            </trkpt>
            <trkpt lat="49.76984" lon="9.9463152">
                <ele>170.0</ele>
                <time>2020-08-23T14:20:22.000Z</time>
                <name>Trackpoint 8392</name>
            </trkpt>
            <trkpt lat="49.7698816" lon="9.9461896">
                <ele>170.0</ele>
                <time>2020-08-23T14:20:24.000Z</time>
                <name>Trackpoint 8393</name>
            </trkpt>
            <trkpt lat="49.7699328" lon="9.946072">
                <ele>170.0</ele>
                <time>2020-08-23T14:20:26.000Z</time>
                <name>Trackpoint 8394</name>
            </trkpt>
            <trkpt lat="49.7699712" lon="9.9459512">
                <ele>170.0</ele>
                <time>2020-08-23T14:20:28.000Z</time>
                <name>Trackpoint 8395</name>
            </trkpt>
            <trkpt lat="49.7700256" lon="9.9458088">
                <ele>171.0</ele>
                <time>2020-08-23T14:20:30.000Z</time>
                <name>Trackpoint 8396</name>
            </trkpt>
            <trkpt lat="49.77008" lon="9.9456728">
                <ele>171.0</ele>
                <time>2020-08-23T14:20:32.000Z</time>
                <name>Trackpoint 8397</name>
            </trkpt>
            <trkpt lat="49.7701248" lon="9.9455384">
                <ele>171.0</ele>
                <time>2020-08-23T14:20:34.000Z</time>
                <name>Trackpoint 8398</name>
            </trkpt>
            <trkpt lat="49.7701728" lon="9.9454008">
                <ele>171.0</ele>
                <time>2020-08-23T14:20:36.000Z</time>
                <name>Trackpoint 8399</name>
            </trkpt>
            <trkpt lat="49.7702208" lon="9.9452752">
                <ele>171.0</ele>
                <time>2020-08-23T14:20:38.000Z</time>
                <name>Trackpoint 8400</name>
            </trkpt>
            <trkpt lat="49.7702816" lon="9.9451376">
                <ele>171.0</ele>
                <time>2020-08-23T14:20:40.000Z</time>
                <name>Trackpoint 8401</name>
            </trkpt>
            <trkpt lat="49.7703296" lon="9.945">
                <ele>171.0</ele>
                <time>2020-08-23T14:20:42.000Z</time>
                <name>Trackpoint 8402</name>
            </trkpt>
            <trkpt lat="49.7703744" lon="9.9448584">
                <ele>171.0</ele>
                <time>2020-08-23T14:20:44.000Z</time>
                <name>Trackpoint 8403</name>
            </trkpt>
            <trkpt lat="49.770416" lon="9.9447184">
                <ele>171.0</ele>
                <time>2020-08-23T14:20:46.000Z</time>
                <name>Trackpoint 8404</name>
            </trkpt>
            <trkpt lat="49.7704608" lon="9.9445816">
                <ele>171.0</ele>
                <time>2020-08-23T14:20:48.000Z</time>
                <name>Trackpoint 8405</name>
            </trkpt>
            <trkpt lat="49.770512" lon="9.944444">
                <ele>172.0</ele>
                <time>2020-08-23T14:20:50.000Z</time>
                <name>Trackpoint 8406</name>
            </trkpt>
            <trkpt lat="49.7705568" lon="9.9442952">
                <ele>171.0</ele>
                <time>2020-08-23T14:20:52.000Z</time>
                <name>Trackpoint 8407</name>
            </trkpt>
            <trkpt lat="49.770592" lon="9.9441456">
                <ele>171.0</ele>
                <time>2020-08-23T14:20:54.000Z</time>
                <name>Trackpoint 8408</name>
            </trkpt>
            <trkpt lat="49.7706176" lon="9.9439952">
                <ele>172.0</ele>
                <time>2020-08-23T14:20:56.000Z</time>
                <name>Trackpoint 8409</name>
            </trkpt>
            <trkpt lat="49.770656" lon="9.9438464">
                <ele>171.0</ele>
                <time>2020-08-23T14:20:58.000Z</time>
                <name>Trackpoint 8410</name>
            </trkpt>
            <trkpt lat="49.7707104" lon="9.9436976">
                <ele>171.0</ele>
                <time>2020-08-23T14:21:00.000Z</time>
                <name>Trackpoint 8411</name>
            </trkpt>
            <trkpt lat="49.7707648" lon="9.9435552">
                <ele>170.0</ele>
                <time>2020-08-23T14:21:02.000Z</time>
                <name>Trackpoint 8412</name>
            </trkpt>
            <trkpt lat="49.7708256" lon="9.943412">
                <ele>170.0</ele>
                <time>2020-08-23T14:21:04.000Z</time>
                <name>Trackpoint 8413</name>
            </trkpt>
            <trkpt lat="49.7708768" lon="9.9432624">
                <ele>170.0</ele>
                <time>2020-08-23T14:21:06.000Z</time>
                <name>Trackpoint 8414</name>
            </trkpt>
            <trkpt lat="49.770928" lon="9.9431152">
                <ele>169.0</ele>
                <time>2020-08-23T14:21:08.000Z</time>
                <name>Trackpoint 8415</name>
            </trkpt>
            <trkpt lat="49.7709824" lon="9.942964">
                <ele>169.0</ele>
                <time>2020-08-23T14:21:10.000Z</time>
                <name>Trackpoint 8416</name>
            </trkpt>
            <trkpt lat="49.7710336" lon="9.9428216">
                <ele>169.0</ele>
                <time>2020-08-23T14:21:12.000Z</time>
                <name>Trackpoint 8417</name>
            </trkpt>
            <trkpt lat="49.771088" lon="9.9426784">
                <ele>169.0</ele>
                <time>2020-08-23T14:21:14.000Z</time>
                <name>Trackpoint 8418</name>
            </trkpt>
            <trkpt lat="49.771136" lon="9.9425296">
                <ele>169.0</ele>
                <time>2020-08-23T14:21:16.000Z</time>
                <name>Trackpoint 8419</name>
            </trkpt>
            <trkpt lat="49.7711872" lon="9.942384">
                <ele>169.0</ele>
                <time>2020-08-23T14:21:18.000Z</time>
                <name>Trackpoint 8420</name>
            </trkpt>
            <trkpt lat="49.771232" lon="9.9422392">
                <ele>169.0</ele>
                <time>2020-08-23T14:21:20.000Z</time>
                <name>Trackpoint 8421</name>
            </trkpt>
            <trkpt lat="49.7712768" lon="9.9420904">
                <ele>169.0</ele>
                <time>2020-08-23T14:21:22.000Z</time>
                <name>Trackpoint 8422</name>
            </trkpt>
            <trkpt lat="49.771328" lon="9.9419432">
                <ele>169.0</ele>
                <time>2020-08-23T14:21:24.000Z</time>
                <name>Trackpoint 8423</name>
            </trkpt>
            <trkpt lat="49.7713664" lon="9.9417984">
                <ele>169.0</ele>
                <time>2020-08-23T14:21:26.000Z</time>
                <name>Trackpoint 8424</name>
            </trkpt>
            <trkpt lat="49.7713888" lon="9.9416648">
                <ele>169.0</ele>
                <time>2020-08-23T14:21:28.000Z</time>
                <name>Trackpoint 8425</name>
            </trkpt>
            <trkpt lat="49.7714272" lon="9.941528">
                <ele>169.0</ele>
                <time>2020-08-23T14:21:30.000Z</time>
                <name>Trackpoint 8426</name>
            </trkpt>
            <trkpt lat="49.7715008" lon="9.9413832">
                <ele>170.0</ele>
                <time>2020-08-23T14:21:32.000Z</time>
                <name>Trackpoint 8427</name>
            </trkpt>
            <trkpt lat="49.7715488" lon="9.9412472">
                <ele>170.0</ele>
                <time>2020-08-23T14:21:34.000Z</time>
                <name>Trackpoint 8428</name>
            </trkpt>
            <trkpt lat="49.7716064" lon="9.9411112">
                <ele>170.0</ele>
                <time>2020-08-23T14:21:36.000Z</time>
                <name>Trackpoint 8429</name>
            </trkpt>
            <trkpt lat="49.7716736" lon="9.94096">
                <ele>170.0</ele>
                <time>2020-08-23T14:21:38.000Z</time>
                <name>Trackpoint 8430</name>
            </trkpt>
            <trkpt lat="49.771712" lon="9.9408776">
                <ele>170.0</ele>
                <time>2020-08-23T14:21:39.000Z</time>
                <name>Trackpoint 8431</name>
            </trkpt>
            <trkpt lat="49.7717728" lon="9.9407584">
                <ele>170.0</ele>
                <time>2020-08-23T14:21:41.000Z</time>
                <name>Trackpoint 8432</name>
            </trkpt>
            <trkpt lat="49.7718272" lon="9.9406336">
                <ele>170.0</ele>
                <time>2020-08-23T14:21:43.000Z</time>
                <name>Trackpoint 8433</name>
            </trkpt>
            <trkpt lat="49.7719168" lon="9.940492">
                <ele>170.0</ele>
                <time>2020-08-23T14:21:45.000Z</time>
                <name>Trackpoint 8434</name>
            </trkpt>
            <trkpt lat="49.7719648" lon="9.9403752">
                <ele>170.0</ele>
                <time>2020-08-23T14:21:47.000Z</time>
                <name>Trackpoint 8435</name>
            </trkpt>
            <trkpt lat="49.7719904" lon="9.9402416">
                <ele>170.0</ele>
                <time>2020-08-23T14:21:49.000Z</time>
                <name>Trackpoint 8436</name>
            </trkpt>
            <trkpt lat="49.7720384" lon="9.940068">
                <ele>170.0</ele>
                <time>2020-08-23T14:21:51.000Z</time>
                <name>Trackpoint 8437</name>
            </trkpt>
            <trkpt lat="49.7720832" lon="9.9399368">
                <ele>170.0</ele>
                <time>2020-08-23T14:21:53.000Z</time>
                <name>Trackpoint 8438</name>
            </trkpt>
            <trkpt lat="49.772144" lon="9.9397968">
                <ele>171.0</ele>
                <time>2020-08-23T14:21:55.000Z</time>
                <name>Trackpoint 8439</name>
            </trkpt>
            <trkpt lat="49.7722048" lon="9.9396416">
                <ele>171.0</ele>
                <time>2020-08-23T14:21:57.000Z</time>
                <name>Trackpoint 8440</name>
            </trkpt>
            <trkpt lat="49.7722816" lon="9.9394928">
                <ele>171.0</ele>
                <time>2020-08-23T14:21:59.000Z</time>
                <name>Trackpoint 8441</name>
            </trkpt>
            <trkpt lat="49.772336" lon="9.9393416">
                <ele>171.0</ele>
                <time>2020-08-23T14:22:01.000Z</time>
                <name>Trackpoint 8442</name>
            </trkpt>
            <trkpt lat="49.7723808" lon="9.939228">
                <ele>171.0</ele>
                <time>2020-08-23T14:22:03.000Z</time>
                <name>Trackpoint 8443</name>
            </trkpt>
            <trkpt lat="49.7724384" lon="9.9390784">
                <ele>172.0</ele>
                <time>2020-08-23T14:22:05.000Z</time>
                <name>Trackpoint 8444</name>
            </trkpt>
            <trkpt lat="49.7724768" lon="9.9389888">
                <ele>172.0</ele>
                <time>2020-08-23T14:22:06.000Z</time>
                <name>Trackpoint 8445</name>
            </trkpt>
            <trkpt lat="49.7725248" lon="9.9388448">
                <ele>172.0</ele>
                <time>2020-08-23T14:22:08.000Z</time>
                <name>Trackpoint 8446</name>
            </trkpt>
            <trkpt lat="49.7725728" lon="9.9387216">
                <ele>172.0</ele>
                <time>2020-08-23T14:22:10.000Z</time>
                <name>Trackpoint 8447</name>
            </trkpt>
            <trkpt lat="49.772624" lon="9.9385784">
                <ele>172.0</ele>
                <time>2020-08-23T14:22:12.000Z</time>
                <name>Trackpoint 8448</name>
            </trkpt>
            <trkpt lat="49.7726784" lon="9.93842">
                <ele>172.0</ele>
                <time>2020-08-23T14:22:14.000Z</time>
                <name>Trackpoint 8449</name>
            </trkpt>
            <trkpt lat="49.7727328" lon="9.938276">
                <ele>171.0</ele>
                <time>2020-08-23T14:22:16.000Z</time>
                <name>Trackpoint 8450</name>
            </trkpt>
            <trkpt lat="49.7727744" lon="9.9381264">
                <ele>172.0</ele>
                <time>2020-08-23T14:22:18.000Z</time>
                <name>Trackpoint 8451</name>
            </trkpt>
            <trkpt lat="49.7728224" lon="9.937992">
                <ele>172.0</ele>
                <time>2020-08-23T14:22:20.000Z</time>
                <name>Trackpoint 8452</name>
            </trkpt>
            <trkpt lat="49.77288" lon="9.9378432">
                <ele>172.0</ele>
                <time>2020-08-23T14:22:22.000Z</time>
                <name>Trackpoint 8453</name>
            </trkpt>
            <trkpt lat="49.7729184" lon="9.9377616">
                <ele>171.0</ele>
                <time>2020-08-23T14:22:23.000Z</time>
                <name>Trackpoint 8454</name>
            </trkpt>
            <trkpt lat="49.7729728" lon="9.9376">
                <ele>171.0</ele>
                <time>2020-08-23T14:22:25.000Z</time>
                <name>Trackpoint 8455</name>
            </trkpt>
            <trkpt lat="49.7729952" lon="9.9375088">
                <ele>171.0</ele>
                <time>2020-08-23T14:22:26.000Z</time>
                <name>Trackpoint 8456</name>
            </trkpt>
            <trkpt lat="49.7730528" lon="9.9373752">
                <ele>171.0</ele>
                <time>2020-08-23T14:22:28.000Z</time>
                <name>Trackpoint 8457</name>
            </trkpt>
            <trkpt lat="49.7731072" lon="9.9372784">
                <ele>171.0</ele>
                <time>2020-08-23T14:22:30.000Z</time>
                <name>Trackpoint 8458</name>
            </trkpt>
            <trkpt lat="49.7731712" lon="9.937172">
                <ele>171.0</ele>
                <time>2020-08-23T14:22:32.000Z</time>
                <name>Trackpoint 8459</name>
            </trkpt>
            <trkpt lat="49.7732384" lon="9.9370544">
                <ele>171.0</ele>
                <time>2020-08-23T14:22:34.000Z</time>
                <name>Trackpoint 8460</name>
            </trkpt>
            <trkpt lat="49.773312" lon="9.9369248">
                <ele>171.0</ele>
                <time>2020-08-23T14:22:36.000Z</time>
                <name>Trackpoint 8461</name>
            </trkpt>
            <trkpt lat="49.773376" lon="9.9368">
                <ele>171.0</ele>
                <time>2020-08-23T14:22:38.000Z</time>
                <name>Trackpoint 8462</name>
            </trkpt>
            <trkpt lat="49.77344" lon="9.9366752">
                <ele>171.0</ele>
                <time>2020-08-23T14:22:40.000Z</time>
                <name>Trackpoint 8463</name>
            </trkpt>
            <trkpt lat="49.7735008" lon="9.9365368">
                <ele>171.0</ele>
                <time>2020-08-23T14:22:42.000Z</time>
                <name>Trackpoint 8464</name>
            </trkpt>
            <trkpt lat="49.7735744" lon="9.936412">
                <ele>171.0</ele>
                <time>2020-08-23T14:22:44.000Z</time>
                <name>Trackpoint 8465</name>
            </trkpt>
            <trkpt lat="49.7736448" lon="9.9362744">
                <ele>171.0</ele>
                <time>2020-08-23T14:22:46.000Z</time>
                <name>Trackpoint 8466</name>
            </trkpt>
            <trkpt lat="49.7737184" lon="9.9361488">
                <ele>171.0</ele>
                <time>2020-08-23T14:22:48.000Z</time>
                <name>Trackpoint 8467</name>
            </trkpt>
            <trkpt lat="49.7737888" lon="9.9360176">
                <ele>171.0</ele>
                <time>2020-08-23T14:22:50.000Z</time>
                <name>Trackpoint 8468</name>
            </trkpt>
            <trkpt lat="49.7738816" lon="9.9359">
                <ele>171.0</ele>
                <time>2020-08-23T14:22:52.000Z</time>
                <name>Trackpoint 8469</name>
            </trkpt>
            <trkpt lat="49.773952" lon="9.935772">
                <ele>171.0</ele>
                <time>2020-08-23T14:22:54.000Z</time>
                <name>Trackpoint 8470</name>
            </trkpt>
            <trkpt lat="49.7740288" lon="9.9356416">
                <ele>171.0</ele>
                <time>2020-08-23T14:22:56.000Z</time>
                <name>Trackpoint 8471</name>
            </trkpt>
            <trkpt lat="49.774112" lon="9.9355152">
                <ele>171.0</ele>
                <time>2020-08-23T14:22:58.000Z</time>
                <name>Trackpoint 8472</name>
            </trkpt>
            <trkpt lat="49.774192" lon="9.9353952">
                <ele>171.0</ele>
                <time>2020-08-23T14:23:00.000Z</time>
                <name>Trackpoint 8473</name>
            </trkpt>
            <trkpt lat="49.7742816" lon="9.9352768">
                <ele>171.0</ele>
                <time>2020-08-23T14:23:02.000Z</time>
                <name>Trackpoint 8474</name>
            </trkpt>
            <trkpt lat="49.7743648" lon="9.9351584">
                <ele>171.0</ele>
                <time>2020-08-23T14:23:04.000Z</time>
                <name>Trackpoint 8475</name>
            </trkpt>
            <trkpt lat="49.7744512" lon="9.9350416">
                <ele>171.0</ele>
                <time>2020-08-23T14:23:06.000Z</time>
                <name>Trackpoint 8476</name>
            </trkpt>
            <trkpt lat="49.7745376" lon="9.9349296">
                <ele>171.0</ele>
                <time>2020-08-23T14:23:08.000Z</time>
                <name>Trackpoint 8477</name>
            </trkpt>
            <trkpt lat="49.7746112" lon="9.934816">
                <ele>171.0</ele>
                <time>2020-08-23T14:23:10.000Z</time>
                <name>Trackpoint 8478</name>
            </trkpt>
            <trkpt lat="49.7746912" lon="9.9347112">
                <ele>171.0</ele>
                <time>2020-08-23T14:23:12.000Z</time>
                <name>Trackpoint 8479</name>
            </trkpt>
            <trkpt lat="49.7747712" lon="9.9345968">
                <ele>171.0</ele>
                <time>2020-08-23T14:23:14.000Z</time>
                <name>Trackpoint 8480</name>
            </trkpt>
            <trkpt lat="49.7748576" lon="9.9344864">
                <ele>171.0</ele>
                <time>2020-08-23T14:23:16.000Z</time>
                <name>Trackpoint 8481</name>
            </trkpt>
            <trkpt lat="49.7749472" lon="9.9343856">
                <ele>171.0</ele>
                <time>2020-08-23T14:23:18.000Z</time>
                <name>Trackpoint 8482</name>
            </trkpt>
            <trkpt lat="49.7750464" lon="9.9342832">
                <ele>172.0</ele>
                <time>2020-08-23T14:23:20.000Z</time>
                <name>Trackpoint 8483</name>
            </trkpt>
            <trkpt lat="49.7751424" lon="9.9341816">
                <ele>172.0</ele>
                <time>2020-08-23T14:23:22.000Z</time>
                <name>Trackpoint 8484</name>
            </trkpt>
            <trkpt lat="49.7752224" lon="9.9340896">
                <ele>172.0</ele>
                <time>2020-08-23T14:23:24.000Z</time>
                <name>Trackpoint 8485</name>
            </trkpt>
            <trkpt lat="49.7753152" lon="9.9340088">
                <ele>172.0</ele>
                <time>2020-08-23T14:23:26.000Z</time>
                <name>Trackpoint 8486</name>
            </trkpt>
            <trkpt lat="49.7753824" lon="9.9339168">
                <ele>172.0</ele>
                <time>2020-08-23T14:23:28.000Z</time>
                <name>Trackpoint 8487</name>
            </trkpt>
            <trkpt lat="49.775472" lon="9.93382">
                <ele>172.0</ele>
                <time>2020-08-23T14:23:30.000Z</time>
                <name>Trackpoint 8488</name>
            </trkpt>
            <trkpt lat="49.7755584" lon="9.9337328">
                <ele>171.0</ele>
                <time>2020-08-23T14:23:32.000Z</time>
                <name>Trackpoint 8489</name>
            </trkpt>
            <trkpt lat="49.7756416" lon="9.9336528">
                <ele>171.0</ele>
                <time>2020-08-23T14:23:34.000Z</time>
                <name>Trackpoint 8490</name>
            </trkpt>
            <trkpt lat="49.7757184" lon="9.9335816">
                <ele>171.0</ele>
                <time>2020-08-23T14:23:36.000Z</time>
                <name>Trackpoint 8491</name>
            </trkpt>
            <trkpt lat="49.7758176" lon="9.9334936">
                <ele>171.0</ele>
                <time>2020-08-23T14:23:38.000Z</time>
                <name>Trackpoint 8492</name>
            </trkpt>
            <trkpt lat="49.7759104" lon="9.9334024">
                <ele>171.0</ele>
                <time>2020-08-23T14:23:40.000Z</time>
                <name>Trackpoint 8493</name>
            </trkpt>
            <trkpt lat="49.7760032" lon="9.93332">
                <ele>171.0</ele>
                <time>2020-08-23T14:23:42.000Z</time>
                <name>Trackpoint 8494</name>
            </trkpt>
            <trkpt lat="49.776112" lon="9.9332552">
                <ele>171.0</ele>
                <time>2020-08-23T14:23:44.000Z</time>
                <name>Trackpoint 8495</name>
            </trkpt>
            <trkpt lat="49.7762144" lon="9.9331904">
                <ele>171.0</ele>
                <time>2020-08-23T14:23:46.000Z</time>
                <name>Trackpoint 8496</name>
            </trkpt>
            <trkpt lat="49.77632" lon="9.9331248">
                <ele>171.0</ele>
                <time>2020-08-23T14:23:48.000Z</time>
                <name>Trackpoint 8497</name>
            </trkpt>
            <trkpt lat="49.7764256" lon="9.933048">
                <ele>171.0</ele>
                <time>2020-08-23T14:23:50.000Z</time>
                <name>Trackpoint 8498</name>
            </trkpt>
            <trkpt lat="49.7765152" lon="9.9329664">
                <ele>171.0</ele>
                <time>2020-08-23T14:23:52.000Z</time>
                <name>Trackpoint 8499</name>
            </trkpt>
            <trkpt lat="49.7765856" lon="9.9328944">
                <ele>171.0</ele>
                <time>2020-08-23T14:23:54.000Z</time>
                <name>Trackpoint 8500</name>
            </trkpt>
            <trkpt lat="49.7766656" lon="9.9328096">
                <ele>171.0</ele>
                <time>2020-08-23T14:23:56.000Z</time>
                <name>Trackpoint 8501</name>
            </trkpt>
            <trkpt lat="49.776768" lon="9.9327272">
                <ele>171.0</ele>
                <time>2020-08-23T14:23:58.000Z</time>
                <name>Trackpoint 8502</name>
            </trkpt>
            <trkpt lat="49.7768704" lon="9.9326464">
                <ele>171.0</ele>
                <time>2020-08-23T14:24:00.000Z</time>
                <name>Trackpoint 8503</name>
            </trkpt>
            <trkpt lat="49.7769824" lon="9.9325784">
                <ele>171.0</ele>
                <time>2020-08-23T14:24:02.000Z</time>
                <name>Trackpoint 8504</name>
            </trkpt>
            <trkpt lat="49.777088" lon="9.9325088">
                <ele>171.0</ele>
                <time>2020-08-23T14:24:04.000Z</time>
                <name>Trackpoint 8505</name>
            </trkpt>
            <trkpt lat="49.7771872" lon="9.9324312">
                <ele>171.0</ele>
                <time>2020-08-23T14:24:06.000Z</time>
                <name>Trackpoint 8506</name>
            </trkpt>
            <trkpt lat="49.7772864" lon="9.9323528">
                <ele>171.0</ele>
                <time>2020-08-23T14:24:08.000Z</time>
                <name>Trackpoint 8507</name>
            </trkpt>
            <trkpt lat="49.7773728" lon="9.932288">
                <ele>171.0</ele>
                <time>2020-08-23T14:24:10.000Z</time>
                <name>Trackpoint 8508</name>
            </trkpt>
            <trkpt lat="49.7774592" lon="9.9322208">
                <ele>171.0</ele>
                <time>2020-08-23T14:24:12.000Z</time>
                <name>Trackpoint 8509</name>
            </trkpt>
            <trkpt lat="49.7775456" lon="9.9321584">
                <ele>171.0</ele>
                <time>2020-08-23T14:24:14.000Z</time>
                <name>Trackpoint 8510</name>
            </trkpt>
            <trkpt lat="49.7776512" lon="9.9320968">
                <ele>171.0</ele>
                <time>2020-08-23T14:24:16.000Z</time>
                <name>Trackpoint 8511</name>
            </trkpt>
            <trkpt lat="49.7777664" lon="9.9320248">
                <ele>172.0</ele>
                <time>2020-08-23T14:24:18.000Z</time>
                <name>Trackpoint 8512</name>
            </trkpt>
            <trkpt lat="49.7778688" lon="9.9319632">
                <ele>172.0</ele>
                <time>2020-08-23T14:24:20.000Z</time>
                <name>Trackpoint 8513</name>
            </trkpt>
            <trkpt lat="49.7779744" lon="9.9319048">
                <ele>172.0</ele>
                <time>2020-08-23T14:24:22.000Z</time>
                <name>Trackpoint 8514</name>
            </trkpt>
            <trkpt lat="49.77808" lon="9.9318352">
                <ele>172.0</ele>
                <time>2020-08-23T14:24:25.000Z</time>
                <name>Trackpoint 8515</name>
            </trkpt>
            <trkpt lat="49.7781792" lon="9.9317728">
                <ele>172.0</ele>
                <time>2020-08-23T14:24:28.000Z</time>
                <name>Trackpoint 8516</name>
            </trkpt>
            <trkpt lat="49.7782624" lon="9.9317376">
                <ele>172.0</ele>
                <time>2020-08-23T14:24:30.000Z</time>
                <name>Trackpoint 8517</name>
            </trkpt>
            <trkpt lat="49.7783424" lon="9.931688">
                <ele>172.0</ele>
                <time>2020-08-23T14:24:32.000Z</time>
                <name>Trackpoint 8518</name>
            </trkpt>
            <trkpt lat="49.7784576" lon="9.9316552">
                <ele>172.0</ele>
                <time>2020-08-23T14:24:35.000Z</time>
                <name>Trackpoint 8519</name>
            </trkpt>
            <trkpt lat="49.7785536" lon="9.9316368">
                <ele>172.0</ele>
                <time>2020-08-23T14:24:38.000Z</time>
                <name>Trackpoint 8520</name>
            </trkpt>
            <trkpt lat="49.7786528" lon="9.9315728">
                <ele>172.0</ele>
                <time>2020-08-23T14:24:41.000Z</time>
                <name>Trackpoint 8521</name>
            </trkpt>
            <trkpt lat="49.7787616" lon="9.931508">
                <ele>173.0</ele>
                <time>2020-08-23T14:24:44.000Z</time>
                <name>Trackpoint 8522</name>
            </trkpt>
            <trkpt lat="49.7788928" lon="9.9314448">
                <ele>173.0</ele>
                <time>2020-08-23T14:24:47.000Z</time>
                <name>Trackpoint 8523</name>
            </trkpt>
            <trkpt lat="49.7790016" lon="9.9313872">
                <ele>173.0</ele>
                <time>2020-08-23T14:24:49.000Z</time>
                <name>Trackpoint 8524</name>
            </trkpt>
            <trkpt lat="49.7791008" lon="9.9313368">
                <ele>173.0</ele>
                <time>2020-08-23T14:24:51.000Z</time>
                <name>Trackpoint 8525</name>
            </trkpt>
            <trkpt lat="49.7791904" lon="9.9312824">
                <ele>173.0</ele>
                <time>2020-08-23T14:24:53.000Z</time>
                <name>Trackpoint 8526</name>
            </trkpt>
            <trkpt lat="49.7792928" lon="9.931196">
                <ele>173.0</ele>
                <time>2020-08-23T14:24:56.000Z</time>
                <name>Trackpoint 8527</name>
            </trkpt>
            <trkpt lat="49.779376" lon="9.9311168">
                <ele>173.0</ele>
                <time>2020-08-23T14:24:58.000Z</time>
                <name>Trackpoint 8528</name>
            </trkpt>
            <trkpt lat="49.779504" lon="9.9310352">
                <ele>173.0</ele>
                <time>2020-08-23T14:25:01.000Z</time>
                <name>Trackpoint 8529</name>
            </trkpt>
            <trkpt lat="49.7795776" lon="9.9309832">
                <ele>173.0</ele>
                <time>2020-08-23T14:25:03.000Z</time>
                <name>Trackpoint 8530</name>
            </trkpt>
            <trkpt lat="49.779648" lon="9.9309264">
                <ele>174.0</ele>
                <time>2020-08-23T14:25:05.000Z</time>
                <name>Trackpoint 8531</name>
            </trkpt>
            <trkpt lat="49.7797312" lon="9.9308664">
                <ele>174.0</ele>
                <time>2020-08-23T14:25:07.000Z</time>
                <name>Trackpoint 8532</name>
            </trkpt>
            <trkpt lat="49.7798336" lon="9.9308056">
                <ele>174.0</ele>
                <time>2020-08-23T14:25:10.000Z</time>
                <name>Trackpoint 8533</name>
            </trkpt>
            <trkpt lat="49.7799488" lon="9.9307568">
                <ele>174.0</ele>
                <time>2020-08-23T14:25:13.000Z</time>
                <name>Trackpoint 8534</name>
            </trkpt>
            <trkpt lat="49.7800416" lon="9.9306944">
                <ele>174.0</ele>
                <time>2020-08-23T14:25:15.000Z</time>
                <name>Trackpoint 8535</name>
            </trkpt>
            <trkpt lat="49.7801216" lon="9.9306368">
                <ele>174.0</ele>
                <time>2020-08-23T14:25:17.000Z</time>
                <name>Trackpoint 8536</name>
            </trkpt>
            <trkpt lat="49.780208" lon="9.9305624">
                <ele>174.0</ele>
                <time>2020-08-23T14:25:19.000Z</time>
                <name>Trackpoint 8537</name>
            </trkpt>
            <trkpt lat="49.7802976" lon="9.930516">
                <ele>174.0</ele>
                <time>2020-08-23T14:25:21.000Z</time>
                <name>Trackpoint 8538</name>
            </trkpt>
            <trkpt lat="49.7803776" lon="9.9304712">
                <ele>174.0</ele>
                <time>2020-08-23T14:25:24.000Z</time>
                <name>Trackpoint 8539</name>
            </trkpt>
            <trkpt lat="49.780464" lon="9.9304184">
                <ele>174.0</ele>
                <time>2020-08-23T14:25:27.000Z</time>
                <name>Trackpoint 8540</name>
            </trkpt>
            <trkpt lat="49.7805696" lon="9.9303248">
                <ele>174.0</ele>
                <time>2020-08-23T14:25:30.000Z</time>
                <name>Trackpoint 8541</name>
            </trkpt>
            <trkpt lat="49.7806496" lon="9.9302456">
                <ele>174.0</ele>
                <time>2020-08-23T14:25:32.000Z</time>
                <name>Trackpoint 8542</name>
            </trkpt>
            <trkpt lat="49.7807392" lon="9.9301984">
                <ele>174.0</ele>
                <time>2020-08-23T14:25:35.000Z</time>
                <name>Trackpoint 8543</name>
            </trkpt>
            <trkpt lat="49.780848" lon="9.930132">
                <ele>174.0</ele>
                <time>2020-08-23T14:25:38.000Z</time>
                <name>Trackpoint 8544</name>
            </trkpt>
            <trkpt lat="49.780928" lon="9.9300816">
                <ele>174.0</ele>
                <time>2020-08-23T14:25:45.000Z</time>
                <name>Trackpoint 8545</name>
            </trkpt>
            <trkpt lat="49.7809184" lon="9.9299736">
                <ele>174.0</ele>
                <time>2020-08-23T14:26:22.000Z</time>
                <name>Trackpoint 8546</name>
            </trkpt>
            <trkpt lat="49.781024" lon="9.9299648">
                <ele>174.0</ele>
                <time>2020-08-23T14:26:56.000Z</time>
                <name>Trackpoint 8547</name>
            </trkpt>
            <trkpt lat="49.7811328" lon="9.9299424">
                <ele>174.0</ele>
                <time>2020-08-23T14:26:59.000Z</time>
                <name>Trackpoint 8548</name>
            </trkpt>
            <trkpt lat="49.7812224" lon="9.9299224">
                <ele>174.0</ele>
                <time>2020-08-23T14:27:02.000Z</time>
                <name>Trackpoint 8549</name>
            </trkpt>
            <trkpt lat="49.7812992" lon="9.9298696">
                <ele>174.0</ele>
                <time>2020-08-23T14:27:05.000Z</time>
                <name>Trackpoint 8550</name>
            </trkpt>
            <trkpt lat="49.7813952" lon="9.9298232">
                <ele>174.0</ele>
                <time>2020-08-23T14:27:07.000Z</time>
                <name>Trackpoint 8551</name>
            </trkpt>
            <trkpt lat="49.7814944" lon="9.9297688">
                <ele>174.0</ele>
                <time>2020-08-23T14:27:09.000Z</time>
                <name>Trackpoint 8552</name>
            </trkpt>
            <trkpt lat="49.7815744" lon="9.9297112">
                <ele>174.0</ele>
                <time>2020-08-23T14:27:11.000Z</time>
                <name>Trackpoint 8553</name>
            </trkpt>
            <trkpt lat="49.7816736" lon="9.929648">
                <ele>174.0</ele>
                <time>2020-08-23T14:27:13.000Z</time>
                <name>Trackpoint 8554</name>
            </trkpt>
            <trkpt lat="49.7817728" lon="9.9295632">
                <ele>174.0</ele>
                <time>2020-08-23T14:27:15.000Z</time>
                <name>Trackpoint 8555</name>
            </trkpt>
            <trkpt lat="49.7818496" lon="9.9294664">
                <ele>174.0</ele>
                <time>2020-08-23T14:27:17.000Z</time>
                <name>Trackpoint 8556</name>
            </trkpt>
            <trkpt lat="49.7819392" lon="9.9293944">
                <ele>174.0</ele>
                <time>2020-08-23T14:27:19.000Z</time>
                <name>Trackpoint 8557</name>
            </trkpt>
            <trkpt lat="49.7820288" lon="9.9293296">
                <ele>174.0</ele>
                <time>2020-08-23T14:27:22.000Z</time>
                <name>Trackpoint 8558</name>
            </trkpt>
            <trkpt lat="49.7820704" lon="9.9292232">
                <ele>174.0</ele>
                <time>2020-08-23T14:27:25.000Z</time>
                <name>Trackpoint 8559</name>
            </trkpt>
            <trkpt lat="49.7821472" lon="9.9291448">
                <ele>174.0</ele>
                <time>2020-08-23T14:27:27.000Z</time>
                <name>Trackpoint 8560</name>
            </trkpt>
            <trkpt lat="49.7822432" lon="9.9290864">
                <ele>174.0</ele>
                <time>2020-08-23T14:27:29.000Z</time>
                <name>Trackpoint 8561</name>
            </trkpt>
            <trkpt lat="49.7823776" lon="9.92902">
                <ele>174.0</ele>
                <time>2020-08-23T14:27:31.000Z</time>
                <name>Trackpoint 8562</name>
            </trkpt>
            <trkpt lat="49.7824672" lon="9.9289816">
                <ele>174.0</ele>
                <time>2020-08-23T14:27:32.000Z</time>
                <name>Trackpoint 8563</name>
            </trkpt>
            <trkpt lat="49.7826048" lon="9.9289464">
                <ele>174.0</ele>
                <time>2020-08-23T14:27:34.000Z</time>
                <name>Trackpoint 8564</name>
            </trkpt>
            <trkpt lat="49.7827296" lon="9.9289176">
                <ele>174.0</ele>
                <time>2020-08-23T14:27:36.000Z</time>
                <name>Trackpoint 8565</name>
            </trkpt>
            <trkpt lat="49.782848" lon="9.9288632">
                <ele>174.0</ele>
                <time>2020-08-23T14:27:38.000Z</time>
                <name>Trackpoint 8566</name>
            </trkpt>
            <trkpt lat="49.7829216" lon="9.9287784">
                <ele>174.0</ele>
                <time>2020-08-23T14:27:40.000Z</time>
                <name>Trackpoint 8567</name>
            </trkpt>
            <trkpt lat="49.783024" lon="9.92878">
                <ele>174.0</ele>
                <time>2020-08-23T14:28:28.000Z</time>
                <name>Trackpoint 8568</name>
            </trkpt>
            <trkpt lat="49.7831168" lon="9.9287504">
                <ele>174.0</ele>
                <time>2020-08-23T14:28:33.000Z</time>
                <name>Trackpoint 8569</name>
            </trkpt>
            <trkpt lat="49.7832032" lon="9.9286616">
                <ele>174.0</ele>
                <time>2020-08-23T14:28:37.000Z</time>
                <name>Trackpoint 8570</name>
            </trkpt>
            <trkpt lat="49.7833248" lon="9.9286136">
                <ele>174.0</ele>
                <time>2020-08-23T14:28:40.000Z</time>
                <name>Trackpoint 8571</name>
            </trkpt>
            <trkpt lat="49.7834176" lon="9.9285784">
                <ele>174.0</ele>
                <time>2020-08-23T14:28:42.000Z</time>
                <name>Trackpoint 8572</name>
            </trkpt>
            <trkpt lat="49.7835232" lon="9.9285336">
                <ele>174.0</ele>
                <time>2020-08-23T14:28:45.000Z</time>
                <name>Trackpoint 8573</name>
            </trkpt>
            <trkpt lat="49.783648" lon="9.9285088">
                <ele>174.0</ele>
                <time>2020-08-23T14:28:48.000Z</time>
                <name>Trackpoint 8574</name>
            </trkpt>
            <trkpt lat="49.7837376" lon="9.9284872">
                <ele>174.0</ele>
                <time>2020-08-23T14:28:50.000Z</time>
                <name>Trackpoint 8575</name>
            </trkpt>
            <trkpt lat="49.7838208" lon="9.9284352">
                <ele>174.0</ele>
                <time>2020-08-23T14:28:52.000Z</time>
                <name>Trackpoint 8576</name>
            </trkpt>
            <trkpt lat="49.7839392" lon="9.9283864">
                <ele>174.0</ele>
                <time>2020-08-23T14:28:55.000Z</time>
                <name>Trackpoint 8577</name>
            </trkpt>
            <trkpt lat="49.7840608" lon="9.928344">
                <ele>174.0</ele>
                <time>2020-08-23T14:28:58.000Z</time>
                <name>Trackpoint 8578</name>
            </trkpt>
            <trkpt lat="49.7841888" lon="9.92828">
                <ele>174.0</ele>
                <time>2020-08-23T14:29:01.000Z</time>
                <name>Trackpoint 8579</name>
            </trkpt>
            <trkpt lat="49.784288" lon="9.9282328">
                <ele>174.0</ele>
                <time>2020-08-23T14:29:03.000Z</time>
                <name>Trackpoint 8580</name>
            </trkpt>
            <trkpt lat="49.7843872" lon="9.9281952">
                <ele>174.0</ele>
                <time>2020-08-23T14:29:05.000Z</time>
                <name>Trackpoint 8581</name>
            </trkpt>
            <trkpt lat="49.7844864" lon="9.92816">
                <ele>174.0</ele>
                <time>2020-08-23T14:29:07.000Z</time>
                <name>Trackpoint 8582</name>
            </trkpt>
            <trkpt lat="49.7845792" lon="9.9281232">
                <ele>174.0</ele>
                <time>2020-08-23T14:29:09.000Z</time>
                <name>Trackpoint 8583</name>
            </trkpt>
            <trkpt lat="49.7846688" lon="9.9280984">
                <ele>174.0</ele>
                <time>2020-08-23T14:29:11.000Z</time>
                <name>Trackpoint 8584</name>
            </trkpt>
            <trkpt lat="49.7847936" lon="9.9280752">
                <ele>174.0</ele>
                <time>2020-08-23T14:29:14.000Z</time>
                <name>Trackpoint 8585</name>
            </trkpt>
            <trkpt lat="49.7849056" lon="9.9280528">
                <ele>174.0</ele>
                <time>2020-08-23T14:29:17.000Z</time>
                <name>Trackpoint 8586</name>
            </trkpt>
            <trkpt lat="49.7849984" lon="9.928048">
                <ele>174.0</ele>
                <time>2020-08-23T14:29:20.000Z</time>
                <name>Trackpoint 8587</name>
            </trkpt>
            <trkpt lat="49.7851168" lon="9.9280192">
                <ele>174.0</ele>
                <time>2020-08-23T14:29:24.000Z</time>
                <name>Trackpoint 8588</name>
            </trkpt>
            <trkpt lat="49.7852128" lon="9.9279672">
                <ele>174.0</ele>
                <time>2020-08-23T14:29:27.000Z</time>
                <name>Trackpoint 8589</name>
            </trkpt>
            <trkpt lat="49.7853024" lon="9.9279232">
                <ele>174.0</ele>
                <time>2020-08-23T14:29:30.000Z</time>
                <name>Trackpoint 8590</name>
            </trkpt>
            <trkpt lat="49.7853888" lon="9.9278744">
                <ele>174.0</ele>
                <time>2020-08-23T14:29:43.000Z</time>
                <name>Trackpoint 8591</name>
            </trkpt>
            <trkpt lat="49.785296" lon="9.9278632">
                <ele>174.0</ele>
                <time>2020-08-23T14:30:14.000Z</time>
                <name>Trackpoint 8592</name>
            </trkpt>
            <trkpt lat="49.7853632" lon="9.9279336">
                <ele>174.0</ele>
                <time>2020-08-23T14:31:53.000Z</time>
                <name>Trackpoint 8593</name>
            </trkpt>
            <trkpt lat="49.7854816" lon="9.9279472">
                <ele>174.0</ele>
                <time>2020-08-23T14:31:56.000Z</time>
                <name>Trackpoint 8594</name>
            </trkpt>
            <trkpt lat="49.7856192" lon="9.9279536">
                <ele>174.0</ele>
                <time>2020-08-23T14:31:59.000Z</time>
                <name>Trackpoint 8595</name>
            </trkpt>
            <trkpt lat="49.7857184" lon="9.9279696">
                <ele>174.0</ele>
                <time>2020-08-23T14:32:01.000Z</time>
                <name>Trackpoint 8596</name>
            </trkpt>
            <trkpt lat="49.7858208" lon="9.9279672">
                <ele>174.0</ele>
                <time>2020-08-23T14:32:03.000Z</time>
                <name>Trackpoint 8597</name>
            </trkpt>
            <trkpt lat="49.7859232" lon="9.9279536">
                <ele>174.0</ele>
                <time>2020-08-23T14:32:05.000Z</time>
                <name>Trackpoint 8598</name>
            </trkpt>
            <trkpt lat="49.7860416" lon="9.927948">
                <ele>174.0</ele>
                <time>2020-08-23T14:32:07.000Z</time>
                <name>Trackpoint 8599</name>
            </trkpt>
            <trkpt lat="49.7861632" lon="9.92794">
                <ele>174.0</ele>
                <time>2020-08-23T14:32:09.000Z</time>
                <name>Trackpoint 8600</name>
            </trkpt>
            <trkpt lat="49.7862688" lon="9.9279584">
                <ele>174.0</ele>
                <time>2020-08-23T14:32:11.000Z</time>
                <name>Trackpoint 8601</name>
            </trkpt>
            <trkpt lat="49.7863616" lon="9.9279632">
                <ele>174.0</ele>
                <time>2020-08-23T14:32:13.000Z</time>
                <name>Trackpoint 8602</name>
            </trkpt>
            <trkpt lat="49.786496" lon="9.9279584">
                <ele>174.0</ele>
                <time>2020-08-23T14:32:16.000Z</time>
                <name>Trackpoint 8603</name>
            </trkpt>
            <trkpt lat="49.786624" lon="9.92794">
                <ele>174.0</ele>
                <time>2020-08-23T14:32:19.000Z</time>
                <name>Trackpoint 8604</name>
            </trkpt>
            <trkpt lat="49.7867328" lon="9.927928">
                <ele>175.0</ele>
                <time>2020-08-23T14:32:22.000Z</time>
                <name>Trackpoint 8605</name>
            </trkpt>
            <trkpt lat="49.7868704" lon="9.9279096">
                <ele>175.0</ele>
                <time>2020-08-23T14:32:25.000Z</time>
                <name>Trackpoint 8606</name>
            </trkpt>
            <trkpt lat="49.7869824" lon="9.927888">
                <ele>175.0</ele>
                <time>2020-08-23T14:32:28.000Z</time>
                <name>Trackpoint 8607</name>
            </trkpt>
            <trkpt lat="49.787088" lon="9.9278648">
                <ele>175.0</ele>
                <time>2020-08-23T14:32:31.000Z</time>
                <name>Trackpoint 8608</name>
            </trkpt>
            <trkpt lat="49.7872128" lon="9.9278424">
                <ele>175.0</ele>
                <time>2020-08-23T14:32:34.000Z</time>
                <name>Trackpoint 8609</name>
            </trkpt>
            <trkpt lat="49.7873376" lon="9.9278272">
                <ele>175.0</ele>
                <time>2020-08-23T14:32:37.000Z</time>
                <name>Trackpoint 8610</name>
            </trkpt>
            <trkpt lat="49.7874592" lon="9.9278288">
                <ele>175.0</ele>
                <time>2020-08-23T14:32:40.000Z</time>
                <name>Trackpoint 8611</name>
            </trkpt>
            <trkpt lat="49.7875808" lon="9.9278288">
                <ele>175.0</ele>
                <time>2020-08-23T14:32:43.000Z</time>
                <name>Trackpoint 8612</name>
            </trkpt>
            <trkpt lat="49.7877088" lon="9.9278272">
                <ele>175.0</ele>
                <time>2020-08-23T14:32:46.000Z</time>
                <name>Trackpoint 8613</name>
            </trkpt>
            <trkpt lat="49.7877984" lon="9.9278072">
                <ele>175.0</ele>
                <time>2020-08-23T14:32:48.000Z</time>
                <name>Trackpoint 8614</name>
            </trkpt>
            <trkpt lat="49.7878912" lon="9.9277824">
                <ele>175.0</ele>
                <time>2020-08-23T14:32:50.000Z</time>
                <name>Trackpoint 8615</name>
            </trkpt>
            <trkpt lat="49.7880096" lon="9.9277432">
                <ele>175.0</ele>
                <time>2020-08-23T14:32:52.000Z</time>
                <name>Trackpoint 8616</name>
            </trkpt>
            <trkpt lat="49.7881056" lon="9.9277096">
                <ele>175.0</ele>
                <time>2020-08-23T14:32:54.000Z</time>
                <name>Trackpoint 8617</name>
            </trkpt>
            <trkpt lat="49.7882336" lon="9.9276864">
                <ele>175.0</ele>
                <time>2020-08-23T14:32:57.000Z</time>
                <name>Trackpoint 8618</name>
            </trkpt>
            <trkpt lat="49.7883456" lon="9.9276848">
                <ele>175.0</ele>
                <time>2020-08-23T14:33:00.000Z</time>
                <name>Trackpoint 8619</name>
            </trkpt>
            <trkpt lat="49.7884384" lon="9.9276848">
                <ele>175.0</ele>
                <time>2020-08-23T14:33:02.000Z</time>
                <name>Trackpoint 8620</name>
            </trkpt>
            <trkpt lat="49.7885504" lon="9.9276864">
                <ele>175.0</ele>
                <time>2020-08-23T14:33:04.000Z</time>
                <name>Trackpoint 8621</name>
            </trkpt>
            <trkpt lat="49.788672" lon="9.9276712">
                <ele>175.0</ele>
                <time>2020-08-23T14:33:06.000Z</time>
                <name>Trackpoint 8622</name>
            </trkpt>
            <trkpt lat="49.7888064" lon="9.9276136">
                <ele>175.0</ele>
                <time>2020-08-23T14:33:08.000Z</time>
                <name>Trackpoint 8623</name>
            </trkpt>
            <trkpt lat="49.78896" lon="9.9275464">
                <ele>175.0</ele>
                <time>2020-08-23T14:33:10.000Z</time>
                <name>Trackpoint 8624</name>
            </trkpt>
            <trkpt lat="49.78904" lon="9.9275048">
                <ele>175.0</ele>
                <time>2020-08-23T14:33:11.000Z</time>
                <name>Trackpoint 8625</name>
            </trkpt>
            <trkpt lat="49.7891616" lon="9.92744">
                <ele>175.0</ele>
                <time>2020-08-23T14:33:13.000Z</time>
                <name>Trackpoint 8626</name>
            </trkpt>
            <trkpt lat="49.789264" lon="9.9273856">
                <ele>175.0</ele>
                <time>2020-08-23T14:33:15.000Z</time>
                <name>Trackpoint 8627</name>
            </trkpt>
            <trkpt lat="49.7893664" lon="9.9273528">
                <ele>175.0</ele>
                <time>2020-08-23T14:33:17.000Z</time>
                <name>Trackpoint 8628</name>
            </trkpt>
            <trkpt lat="49.7894656" lon="9.927332">
                <ele>175.0</ele>
                <time>2020-08-23T14:33:19.000Z</time>
                <name>Trackpoint 8629</name>
            </trkpt>
            <trkpt lat="49.7895584" lon="9.9273168">
                <ele>175.0</ele>
                <time>2020-08-23T14:33:21.000Z</time>
                <name>Trackpoint 8630</name>
            </trkpt>
            <trkpt lat="49.7896832" lon="9.927308">
                <ele>175.0</ele>
                <time>2020-08-23T14:33:24.000Z</time>
                <name>Trackpoint 8631</name>
            </trkpt>
            <trkpt lat="49.7897952" lon="9.9272968">
                <ele>175.0</ele>
                <time>2020-08-23T14:33:27.000Z</time>
                <name>Trackpoint 8632</name>
            </trkpt>
            <trkpt lat="49.7898912" lon="9.9272832">
                <ele>175.0</ele>
                <time>2020-08-23T14:33:31.000Z</time>
                <name>Trackpoint 8633</name>
            </trkpt>
            <trkpt lat="49.7899904" lon="9.9272648">
                <ele>175.0</ele>
                <time>2020-08-23T14:33:39.000Z</time>
                <name>Trackpoint 8634</name>
            </trkpt>
            <trkpt lat="49.79" lon="9.9273616">
                <ele>172.0</ele>
                <time>2020-08-23T14:36:47.000Z</time>
                <name>Trackpoint 8635</name>
            </trkpt>
            <trkpt lat="49.790032" lon="9.927448">
                <ele>172.0</ele>
                <time>2020-08-23T14:36:49.000Z</time>
                <name>Trackpoint 8636</name>
            </trkpt>
            <trkpt lat="49.7900704" lon="9.9275552">
                <ele>172.0</ele>
                <time>2020-08-23T14:36:51.000Z</time>
                <name>Trackpoint 8637</name>
            </trkpt>
            <trkpt lat="49.7900992" lon="9.9276568">
                <ele>172.0</ele>
                <time>2020-08-23T14:36:53.000Z</time>
                <name>Trackpoint 8638</name>
            </trkpt>
            <trkpt lat="49.79016" lon="9.9277632">
                <ele>172.0</ele>
                <time>2020-08-23T14:36:56.000Z</time>
                <name>Trackpoint 8639</name>
            </trkpt>
            <trkpt lat="49.79024" lon="9.9278272">
                <ele>172.0</ele>
                <time>2020-08-23T14:37:00.000Z</time>
                <name>Trackpoint 8640</name>
            </trkpt>
            <trkpt lat="49.7903392" lon="9.9278848">
                <ele>171.0</ele>
                <time>2020-08-23T14:37:05.000Z</time>
                <name>Trackpoint 8641</name>
            </trkpt>
            <trkpt lat="49.7904448" lon="9.9278696">
                <ele>172.0</ele>
                <time>2020-08-23T14:37:08.000Z</time>
                <name>Trackpoint 8642</name>
            </trkpt>
            <trkpt lat="49.7905568" lon="9.9278352">
                <ele>172.0</ele>
                <time>2020-08-23T14:37:11.000Z</time>
                <name>Trackpoint 8643</name>
            </trkpt>
            <trkpt lat="49.7906432" lon="9.9278696">
                <ele>172.0</ele>
                <time>2020-08-23T14:37:14.000Z</time>
                <name>Trackpoint 8644</name>
            </trkpt>
            <trkpt lat="49.7907648" lon="9.9279072">
                <ele>172.0</ele>
                <time>2020-08-23T14:37:20.000Z</time>
                <name>Trackpoint 8645</name>
            </trkpt>
            <trkpt lat="49.7909056" lon="9.9279232">
                <ele>172.0</ele>
                <time>2020-08-23T14:37:23.000Z</time>
                <name>Trackpoint 8646</name>
            </trkpt>
            <trkpt lat="49.791024" lon="9.9279232">
                <ele>172.0</ele>
                <time>2020-08-23T14:37:25.000Z</time>
                <name>Trackpoint 8647</name>
            </trkpt>
            <trkpt lat="49.7911424" lon="9.92792">
                <ele>172.0</ele>
                <time>2020-08-23T14:37:28.000Z</time>
                <name>Trackpoint 8648</name>
            </trkpt>
            <trkpt lat="49.7912192" lon="9.9278472">
                <ele>172.0</ele>
                <time>2020-08-23T14:37:30.000Z</time>
                <name>Trackpoint 8649</name>
            </trkpt>
            <trkpt lat="49.7913248" lon="9.927812">
                <ele>172.0</ele>
                <time>2020-08-23T14:37:33.000Z</time>
                <name>Trackpoint 8650</name>
            </trkpt>
            <trkpt lat="49.7914464" lon="9.9277824">
                <ele>172.0</ele>
                <time>2020-08-23T14:37:36.000Z</time>
                <name>Trackpoint 8651</name>
            </trkpt>
            <trkpt lat="49.7915392" lon="9.9277488">
                <ele>172.0</ele>
                <time>2020-08-23T14:37:38.000Z</time>
                <name>Trackpoint 8652</name>
            </trkpt>
            <trkpt lat="49.7916576" lon="9.9277248">
                <ele>172.0</ele>
                <time>2020-08-23T14:37:41.000Z</time>
                <name>Trackpoint 8653</name>
            </trkpt>
            <trkpt lat="49.7917952" lon="9.9277248">
                <ele>172.0</ele>
                <time>2020-08-23T14:37:44.000Z</time>
                <name>Trackpoint 8654</name>
            </trkpt>
            <trkpt lat="49.79192" lon="9.9277288">
                <ele>172.0</ele>
                <time>2020-08-23T14:37:47.000Z</time>
                <name>Trackpoint 8655</name>
            </trkpt>
            <trkpt lat="49.7920576" lon="9.9277424">
                <ele>172.0</ele>
                <time>2020-08-23T14:37:50.000Z</time>
                <name>Trackpoint 8656</name>
            </trkpt>
            <trkpt lat="49.7921664" lon="9.9277824">
                <ele>172.0</ele>
                <time>2020-08-23T14:37:53.000Z</time>
                <name>Trackpoint 8657</name>
            </trkpt>
            <trkpt lat="49.7922528" lon="9.9278568">
                <ele>172.0</ele>
                <time>2020-08-23T14:37:56.000Z</time>
                <name>Trackpoint 8658</name>
            </trkpt>
            <trkpt lat="49.79232" lon="9.92796">
                <ele>173.0</ele>
                <time>2020-08-23T14:37:59.000Z</time>
                <name>Trackpoint 8659</name>
            </trkpt>
            <trkpt lat="49.7923744" lon="9.9280504">
                <ele>173.0</ele>
                <time>2020-08-23T14:38:02.000Z</time>
                <name>Trackpoint 8660</name>
            </trkpt>
            <trkpt lat="49.7924416" lon="9.9281232">
                <ele>173.0</ele>
                <time>2020-08-23T14:38:07.000Z</time>
                <name>Trackpoint 8661</name>
            </trkpt>
            <trkpt lat="49.7925248" lon="9.928168">
                <ele>173.0</ele>
                <time>2020-08-23T14:38:10.000Z</time>
                <name>Trackpoint 8662</name>
            </trkpt>
            <trkpt lat="49.7926208" lon="9.9282">
                <ele>173.0</ele>
                <time>2020-08-23T14:38:14.000Z</time>
                <name>Trackpoint 8663</name>
            </trkpt>
            <trkpt lat="49.7927136" lon="9.9282512">
                <ele>173.0</ele>
                <time>2020-08-23T14:38:17.000Z</time>
                <name>Trackpoint 8664</name>
            </trkpt>
            <trkpt lat="49.7928096" lon="9.9282976">
                <ele>173.0</ele>
                <time>2020-08-23T14:38:23.000Z</time>
                <name>Trackpoint 8665</name>
            </trkpt>
            <trkpt lat="49.7928768" lon="9.9283648">
                <ele>173.0</ele>
                <time>2020-08-23T14:38:30.000Z</time>
                <name>Trackpoint 8666</name>
            </trkpt>
            <trkpt lat="49.7929504" lon="9.9283536">
                <ele>175.0</ele>
                <time>2020-08-23T14:39:59.000Z</time>
                <name>Trackpoint 8673</name>
            </trkpt>
            <trkpt lat="49.7930464" lon="9.92832">
                <ele>175.0</ele>
                <time>2020-08-23T14:40:05.000Z</time>
                <name>Trackpoint 8674</name>
            </trkpt>
            <trkpt lat="49.7930816" lon="9.9282512">
                <ele>190.0</ele>
                <time>2020-08-28T08:36:20.000Z</time>
                <name>Trackpoint 119</name>
            </trkpt>
            <trkpt lat="49.7931392" lon="9.9281752">
                <ele>189.0</ele>
                <time>2020-08-28T08:37:07.000Z</time>
                <name>Trackpoint 120</name>
            </trkpt>
            <trkpt lat="49.7931603" lon="9.9280816">
                <ele>189.0</ele>
                <time>2020-08-28T08:37:25.000Z</time>
                <name>Trackpoint 121</name>
            </trkpt>
            <trkpt lat="49.7931636" lon="9.927991">
                <ele>189.0</ele>
                <time>2020-08-28T08:37:37.000Z</time>
                <name>Trackpoint 122</name>
            </trkpt>
            <trkpt lat="49.7931353" lon="9.9277813">
                <ele>189.0</ele>
                <time>2020-08-28T08:37:52.000Z</time>
                <name>Trackpoint 124</name>
            </trkpt>
            <trkpt lat="49.7931386" lon="9.9276279">
                <ele>189.0</ele>
                <time>2020-08-28T08:38:02.000Z</time>
                <name>Trackpoint 126</name>
            </trkpt>
            <trkpt lat="49.7931301" lon="9.9275139">
                <ele>189.0</ele>
                <time>2020-08-28T08:38:05.000Z</time>
                <name>Trackpoint 127</name>
            </trkpt>
            <trkpt lat="49.7931121" lon="9.9273258">
                <ele>188.0</ele>
                <time>2020-08-28T08:38:13.000Z</time>
                <name>Trackpoint 130</name>
            </trkpt>
            <trkpt lat="49.793112" lon="9.927208">
                <ele>188.0</ele>
                <time>2020-08-28T08:38:15.000Z</time>
                <name>Trackpoint 131</name>
            </trkpt>
            <trkpt lat="49.7930912" lon="9.9271136">
                <ele>189.0</ele>
                <time>2020-08-28T08:38:19.000Z</time>
                <name>Trackpoint 132</name>
            </trkpt>
            <trkpt lat="49.7930752" lon="9.9270184">
                <ele>188.0</ele>
                <time>2020-08-28T08:38:23.000Z</time>
                <name>Trackpoint 133</name>
            </trkpt>
            <trkpt lat="49.7930784" lon="9.9269264">
                <ele>188.0</ele>
                <time>2020-08-28T08:38:25.000Z</time>
                <name>Trackpoint 134</name>
            </trkpt>
            <trkpt lat="49.7930688" lon="9.9268352">
                <ele>188.0</ele>
                <time>2020-08-28T08:38:27.000Z</time>
                <name>Trackpoint 135</name>
            </trkpt>
            <trkpt lat="49.7930592" lon="9.9267304">
                <ele>188.0</ele>
                <time>2020-08-28T08:38:30.000Z</time>
                <name>Trackpoint 136</name>
            </trkpt>
            <trkpt lat="49.7930528" lon="9.9266016">
                <ele>188.0</ele>
                <time>2020-08-28T08:38:33.000Z</time>
                <name>Trackpoint 137</name>
            </trkpt>
            <trkpt lat="49.7930368" lon="9.926512">
                <ele>188.0</ele>
                <time>2020-08-28T08:38:35.000Z</time>
                <name>Trackpoint 138</name>
            </trkpt>
            <trkpt lat="49.7930464" lon="9.9264184">
                <ele>188.0</ele>
                <time>2020-08-28T08:38:37.000Z</time>
                <name>Trackpoint 139</name>
            </trkpt>
            <trkpt lat="49.7930496" lon="9.9263264">
                <ele>187.0</ele>
                <time>2020-08-28T08:38:39.000Z</time>
                <name>Trackpoint 140</name>
            </trkpt>
            <trkpt lat="49.7930464" lon="9.9261984">
                <ele>187.0</ele>
                <time>2020-08-28T08:38:42.000Z</time>
                <name>Trackpoint 141</name>
            </trkpt>
            <trkpt lat="49.7930336" lon="9.9261032">
                <ele>186.0</ele>
                <time>2020-08-28T08:39:11.000Z</time>
                <name>Trackpoint 142</name>
            </trkpt>
            <trkpt lat="49.7930176" lon="9.9260032">
                <ele>186.0</ele>
                <time>2020-08-28T08:40:11.000Z</time>
                <name>Trackpoint 143</name>
            </trkpt>
            <trkpt lat="49.7930176" lon="9.9258744">
                <ele>186.0</ele>
                <time>2020-08-28T08:40:15.000Z</time>
                <name>Trackpoint 144</name>
            </trkpt>
            <trkpt lat="49.793008" lon="9.9257616">
                <ele>186.0</ele>
                <time>2020-08-28T08:40:18.000Z</time>
                <name>Trackpoint 145</name>
            </trkpt>
            <trkpt lat="49.7930016" lon="9.92566">
                <ele>185.0</ele>
                <time>2020-08-28T08:40:21.000Z</time>
                <name>Trackpoint 146</name>
            </trkpt>
            <trkpt lat="49.792992" lon="9.9255536">
                <ele>185.0</ele>
                <time>2020-08-28T08:40:46.000Z</time>
                <name>Trackpoint 147</name>
            </trkpt>
            <trkpt lat="49.7929792" lon="9.92546">
                <ele>185.0</ele>
                <time>2020-08-28T08:40:49.000Z</time>
                <name>Trackpoint 148</name>
            </trkpt>
            <trkpt lat="49.7929696" lon="9.9253328">
                <ele>185.0</ele>
                <time>2020-08-28T08:40:52.000Z</time>
                <name>Trackpoint 149</name>
            </trkpt>
            <trkpt lat="49.7929568" lon="9.9252056">
                <ele>184.0</ele>
                <time>2020-08-28T08:40:55.000Z</time>
                <name>Trackpoint 150</name>
            </trkpt>
            <trkpt lat="49.7929408" lon="9.9250936">
                <ele>184.0</ele>
                <time>2020-08-28T08:40:58.000Z</time>
                <name>Trackpoint 151</name>
            </trkpt>
            <trkpt lat="49.792928" lon="9.9249696">
                <ele>184.0</ele>
                <time>2020-08-28T08:41:01.000Z</time>
                <name>Trackpoint 152</name>
            </trkpt>
            <trkpt lat="49.792928" lon="9.9248752">
                <ele>184.0</ele>
                <time>2020-08-28T08:41:03.000Z</time>
                <name>Trackpoint 153</name>
            </trkpt>
            <trkpt lat="49.7929184" lon="9.9247688">
                <ele>184.0</ele>
                <time>2020-08-28T08:41:06.000Z</time>
                <name>Trackpoint 154</name>
            </trkpt>
            <trkpt lat="49.792928" lon="9.9246616">
                <ele>184.0</ele>
                <time>2020-08-28T08:41:10.000Z</time>
                <name>Trackpoint 155</name>
            </trkpt>
            <trkpt lat="49.7929664" lon="9.9245704">
                <ele>184.0</ele>
                <time>2020-08-28T08:42:12.000Z</time>
                <name>Trackpoint 156</name>
            </trkpt>
            <trkpt lat="49.7930016" lon="9.9244816">
                <ele>184.0</ele>
                <time>2020-08-28T08:42:24.000Z</time>
                <name>Trackpoint 157</name>
            </trkpt>
            <trkpt lat="49.79312" lon="9.9244248">
                <ele>184.0</ele>
                <time>2020-08-28T08:42:27.000Z</time>
                <name>Trackpoint 158</name>
            </trkpt>
            <trkpt lat="49.7932256" lon="9.9243536">
                <ele>184.0</ele>
                <time>2020-08-28T08:42:30.000Z</time>
                <name>Trackpoint 159</name>
            </trkpt>
            <trkpt lat="49.7933184" lon="9.9243072">
                <ele>182.0</ele>
                <time>2020-08-28T08:45:39.000Z</time>
                <name>Trackpoint 162</name>
            </trkpt>
            <trkpt lat="49.7933056" lon="9.9242064">
                <ele>182.0</ele>
                <time>2020-08-28T08:46:03.000Z</time>
                <name>Trackpoint 163</name>
            </trkpt>
            <trkpt lat="49.7932288" lon="9.924144">
                <ele>181.0</ele>
                <time>2020-08-28T08:46:07.000Z</time>
                <name>Trackpoint 164</name>
            </trkpt>
            <trkpt lat="49.7931264" lon="9.9241936">
                <ele>181.0</ele>
                <time>2020-08-28T08:46:10.000Z</time>
                <name>Trackpoint 165</name>
            </trkpt>
            <trkpt lat="49.7930176" lon="9.9242584">
                <ele>181.0</ele>
                <time>2020-08-28T08:46:13.000Z</time>
                <name>Trackpoint 166</name>
            </trkpt>
            <trkpt lat="49.7929024" lon="9.924312">
                <ele>181.0</ele>
                <time>2020-08-28T08:46:16.000Z</time>
                <name>Trackpoint 167</name>
            </trkpt>
            <trkpt lat="49.7927904" lon="9.92436">
                <ele>180.0</ele>
                <time>2020-08-28T08:46:19.000Z</time>
                <name>Trackpoint 168</name>
            </trkpt>
            <trkpt lat="49.7926752" lon="9.9244144">
                <ele>180.0</ele>
                <time>2020-08-28T08:46:22.000Z</time>
                <name>Trackpoint 169</name>
            </trkpt>
            <trkpt lat="49.7925728" lon="9.9244336">
                <ele>180.0</ele>
                <time>2020-08-28T08:46:24.000Z</time>
                <name>Trackpoint 170</name>
            </trkpt>
            <trkpt lat="49.7924704" lon="9.924468">
                <ele>180.0</ele>
                <time>2020-08-28T08:46:26.000Z</time>
                <name>Trackpoint 171</name>
            </trkpt>
            <trkpt lat="49.7923648" lon="9.9245168">
                <ele>181.0</ele>
                <time>2020-08-28T08:46:28.000Z</time>
                <name>Trackpoint 172</name>
            </trkpt>
            <trkpt lat="49.7922624" lon="9.9245584">
                <ele>181.0</ele>
                <time>2020-08-28T08:46:30.000Z</time>
                <name>Trackpoint 173</name>
            </trkpt>
            <trkpt lat="49.79216" lon="9.9245968">
                <ele>181.0</ele>
                <time>2020-08-28T08:46:32.000Z</time>
                <name>Trackpoint 174</name>
            </trkpt>
            <trkpt lat="49.792064" lon="9.9246232">
                <ele>181.0</ele>
                <time>2020-08-28T08:46:34.000Z</time>
                <name>Trackpoint 175</name>
            </trkpt>
            <trkpt lat="49.7919648" lon="9.9246656">
                <ele>180.0</ele>
                <time>2020-08-28T08:46:37.000Z</time>
                <name>Trackpoint 176</name>
            </trkpt>
            <trkpt lat="49.7918592" lon="9.9246584">
                <ele>179.0</ele>
                <time>2020-08-28T08:46:47.000Z</time>
                <name>Trackpoint 177</name>
            </trkpt>
            <trkpt lat="49.7917632" lon="9.9246232">
                <ele>179.0</ele>
                <time>2020-08-28T08:47:02.000Z</time>
                <name>Trackpoint 178</name>
            </trkpt>
            <trkpt lat="49.7917856" lon="9.9247168">
                <ele>179.0</ele>
                <time>2020-08-28T08:47:08.000Z</time>
                <name>Trackpoint 179</name>
            </trkpt>
            <trkpt lat="49.7918272" lon="9.9248104">
                <ele>179.0</ele>
                <time>2020-08-28T08:47:10.000Z</time>
                <name>Trackpoint 180</name>
            </trkpt>
            <trkpt lat="49.7918816" lon="9.924936">
                <ele>179.0</ele>
                <time>2020-08-28T08:47:50.000Z</time>
                <name>Trackpoint 181</name>
            </trkpt>
            <trkpt lat="49.7919744" lon="9.9249384">
                <ele>179.0</ele>
                <time>2020-08-28T08:47:58.000Z</time>
                <name>Trackpoint 182</name>
            </trkpt>
            <trkpt lat="49.792096" lon="9.924936">
                <ele>179.0</ele>
                <time>2020-08-28T08:48:01.000Z</time>
                <name>Trackpoint 183</name>
            </trkpt>
            <trkpt lat="49.792192" lon="9.9249648">
                <ele>179.0</ele>
                <time>2020-08-28T08:48:03.000Z</time>
                <name>Trackpoint 184</name>
            </trkpt>
            <trkpt lat="49.7922816" lon="9.9250024">
                <ele>179.0</ele>
                <time>2020-08-28T08:48:05.000Z</time>
                <name>Trackpoint 185</name>
            </trkpt>
            <trkpt lat="49.7923808" lon="9.9250024">
                <ele>179.0</ele>
                <time>2020-08-28T08:48:23.000Z</time>
                <name>Trackpoint 186</name>
            </trkpt>
            <trkpt lat="49.792496" lon="9.9249248">
                <ele>178.0</ele>
                <time>2020-08-28T08:48:57.000Z</time>
                <name>Trackpoint 187</name>
            </trkpt>
            <trkpt lat="49.7925824" lon="9.9248984">
                <ele>178.0</ele>
                <time>2020-08-28T08:49:00.000Z</time>
                <name>Trackpoint 188</name>
            </trkpt>
            <trkpt lat="49.7927008" lon="9.9248848">
                <ele>178.0</ele>
                <time>2020-08-28T08:49:04.000Z</time>
                <name>Trackpoint 189</name>
            </trkpt>
            <trkpt lat="49.792832" lon="9.9248352">
                <ele>178.0</ele>
                <time>2020-08-28T08:49:08.000Z</time>
                <name>Trackpoint 190</name>
            </trkpt>
            <trkpt lat="49.7929312" lon="9.9248152">
                <ele>178.0</ele>
                <time>2020-08-28T08:49:11.000Z</time>
                <name>Trackpoint 191</name>
            </trkpt>
            <trkpt lat="49.7930208" lon="9.9248048">
                <ele>177.0</ele>
                <time>2020-08-28T08:49:14.000Z</time>
                <name>Trackpoint 192</name>
            </trkpt>
            <trkpt lat="49.793136" lon="9.9247912">
                <ele>177.0</ele>
                <time>2020-08-28T08:49:17.000Z</time>
                <name>Trackpoint 193</name>
            </trkpt>
            <trkpt lat="49.7932288" lon="9.9247848">
                <ele>177.0</ele>
                <time>2020-08-28T08:49:20.000Z</time>
                <name>Trackpoint 194</name>
            </trkpt>
            <trkpt lat="49.7933376" lon="9.9247512">
                <ele>177.0</ele>
                <time>2020-08-28T08:49:24.000Z</time>
                <name>Trackpoint 195</name>
            </trkpt>
            <trkpt lat="49.7934304" lon="9.9247368">
                <ele>176.0</ele>
                <time>2020-08-28T08:49:27.000Z</time>
                <name>Trackpoint 196</name>
            </trkpt>
            <trkpt lat="49.7934912" lon="9.924764">
                <ele>176.0</ele>
                <time>2020-08-28T08:51:02.000Z</time>
                <name>Trackpoint 197</name>
            </trkpt>
            <trkpt lat="49.7935744" lon="9.9247168">
                <ele>176.0</ele>
                <time>2020-08-28T08:51:13.000Z</time>
                <name>Trackpoint 198</name>
            </trkpt>
            <trkpt lat="49.793664" lon="9.9246816">
                <ele>176.0</ele>
                <time>2020-08-28T08:51:17.000Z</time>
                <name>Trackpoint 199</name>
            </trkpt>
            <trkpt lat="49.7937536" lon="9.9246368">
                <ele>176.0</ele>
                <time>2020-08-28T08:51:20.000Z</time>
                <name>Trackpoint 200</name>
            </trkpt>
            <trkpt lat="49.7938752" lon="9.9246128">
                <ele>176.0</ele>
                <time>2020-08-28T08:51:23.000Z</time>
                <name>Trackpoint 201</name>
            </trkpt>
            <trkpt lat="49.7939648" lon="9.9245816">
                <ele>176.0</ele>
                <time>2020-08-28T08:51:25.000Z</time>
                <name>Trackpoint 202</name>
            </trkpt>
            <trkpt lat="49.7940992" lon="9.9245728">
                <ele>176.0</ele>
                <time>2020-08-28T08:51:28.000Z</time>
                <name>Trackpoint 203</name>
            </trkpt>
            <trkpt lat="49.794192" lon="9.9245728">
                <ele>176.0</ele>
                <time>2020-08-28T08:51:30.000Z</time>
                <name>Trackpoint 204</name>
            </trkpt>
            <trkpt lat="49.794288" lon="9.9245728">
                <ele>175.0</ele>
                <time>2020-08-28T08:51:32.000Z</time>
                <name>Trackpoint 205</name>
            </trkpt>
            <trkpt lat="49.794384" lon="9.9245984">
                <ele>175.0</ele>
                <time>2020-08-28T08:51:34.000Z</time>
                <name>Trackpoint 206</name>
            </trkpt>
            <trkpt lat="49.79448" lon="9.9246304">
                <ele>175.0</ele>
                <time>2020-08-28T08:51:36.000Z</time>
                <name>Trackpoint 207</name>
            </trkpt>
            <trkpt lat="49.794576" lon="9.9246504">
                <ele>175.0</ele>
                <time>2020-08-28T08:51:38.000Z</time>
                <name>Trackpoint 208</name>
            </trkpt>
            <trkpt lat="49.7946688" lon="9.924612">
                <ele>175.0</ele>
                <time>2020-08-28T08:51:40.000Z</time>
                <name>Trackpoint 209</name>
            </trkpt>
            <trkpt lat="49.7947648" lon="9.9245656">
                <ele>175.0</ele>
                <time>2020-08-28T08:51:42.000Z</time>
                <name>Trackpoint 210</name>
            </trkpt>
            <trkpt lat="49.7948608" lon="9.9245072">
                <ele>175.0</ele>
                <time>2020-08-28T08:51:44.000Z</time>
                <name>Trackpoint 211</name>
            </trkpt>
            <trkpt lat="49.7949472" lon="9.9244584">
                <ele>175.0</ele>
                <time>2020-08-28T08:51:46.000Z</time>
                <name>Trackpoint 212</name>
            </trkpt>
            <trkpt lat="49.7950816" lon="9.9244232">
                <ele>175.0</ele>
                <time>2020-08-28T08:51:49.000Z</time>
                <name>Trackpoint 213</name>
            </trkpt>
            <trkpt lat="49.7951776" lon="9.9243816">
                <ele>175.0</ele>
                <time>2020-08-28T08:51:51.000Z</time>
                <name>Trackpoint 214</name>
            </trkpt>
            <trkpt lat="49.79528" lon="9.92436">
                <ele>175.0</ele>
                <time>2020-08-28T08:51:53.000Z</time>
                <name>Trackpoint 215</name>
            </trkpt>
            <trkpt lat="49.7953824" lon="9.9243384">
                <ele>175.0</ele>
                <time>2020-08-28T08:51:55.000Z</time>
                <name>Trackpoint 216</name>
            </trkpt>
            <trkpt lat="49.7955008" lon="9.92432">
                <ele>175.0</ele>
                <time>2020-08-28T08:51:57.000Z</time>
                <name>Trackpoint 217</name>
            </trkpt>
            <trkpt lat="49.795616" lon="9.9243184">
                <ele>175.0</ele>
                <time>2020-08-28T08:51:59.000Z</time>
                <name>Trackpoint 218</name>
            </trkpt>
            <trkpt lat="49.795728" lon="9.9242896">
                <ele>175.0</ele>
                <time>2020-08-28T08:52:01.000Z</time>
                <name>Trackpoint 219</name>
            </trkpt>
            <trkpt lat="49.7958464" lon="9.924276">
                <ele>175.0</ele>
                <time>2020-08-28T08:52:03.000Z</time>
                <name>Trackpoint 220</name>
            </trkpt>
            <trkpt lat="49.795968" lon="9.9242496">
                <ele>175.0</ele>
                <time>2020-08-28T08:52:05.000Z</time>
                <name>Trackpoint 221</name>
            </trkpt>
            <trkpt lat="49.79608" lon="9.9242216">
                <ele>175.0</ele>
                <time>2020-08-28T08:52:07.000Z</time>
                <name>Trackpoint 222</name>
            </trkpt>
            <trkpt lat="49.7961952" lon="9.9241864">
                <ele>175.0</ele>
                <time>2020-08-28T08:52:09.000Z</time>
                <name>Trackpoint 223</name>
            </trkpt>
            <trkpt lat="49.796304" lon="9.9241368">
                <ele>175.0</ele>
                <time>2020-08-28T08:52:11.000Z</time>
                <name>Trackpoint 224</name>
            </trkpt>
            <trkpt lat="49.7964128" lon="9.9240888">
                <ele>175.0</ele>
                <time>2020-08-28T08:52:13.000Z</time>
                <name>Trackpoint 225</name>
            </trkpt>
            <trkpt lat="49.7965248" lon="9.92404">
                <ele>174.0</ele>
                <time>2020-08-28T08:52:15.000Z</time>
                <name>Trackpoint 226</name>
            </trkpt>
            <trkpt lat="49.7966304" lon="9.9239904">
                <ele>174.0</ele>
                <time>2020-08-28T08:52:17.000Z</time>
                <name>Trackpoint 227</name>
            </trkpt>
            <trkpt lat="49.7967296" lon="9.9239456">
                <ele>174.0</ele>
                <time>2020-08-28T08:52:19.000Z</time>
                <name>Trackpoint 228</name>
            </trkpt>
            <trkpt lat="49.7968288" lon="9.9238968">
                <ele>174.0</ele>
                <time>2020-08-28T08:52:21.000Z</time>
                <name>Trackpoint 229</name>
            </trkpt>
            <trkpt lat="49.7969248" lon="9.9238552">
                <ele>174.0</ele>
                <time>2020-08-28T08:52:23.000Z</time>
                <name>Trackpoint 230</name>
            </trkpt>
            <trkpt lat="49.7970208" lon="9.9238256">
                <ele>173.0</ele>
                <time>2020-08-28T08:52:25.000Z</time>
                <name>Trackpoint 231</name>
            </trkpt>
            <trkpt lat="49.7971072" lon="9.9237872">
                <ele>173.0</ele>
                <time>2020-08-28T08:52:27.000Z</time>
                <name>Trackpoint 232</name>
            </trkpt>
            <trkpt lat="49.7972256" lon="9.92374">
                <ele>173.0</ele>
                <time>2020-08-28T08:52:30.000Z</time>
                <name>Trackpoint 233</name>
            </trkpt>
            <trkpt lat="49.7972992" lon="9.9236648">
                <ele>173.0</ele>
                <time>2020-08-28T08:52:33.000Z</time>
                <name>Trackpoint 234</name>
            </trkpt>
            <trkpt lat="49.7973376" lon="9.9235624">
                <ele>172.0</ele>
                <time>2020-08-28T08:52:37.000Z</time>
                <name>Trackpoint 235</name>
            </trkpt>
            <trkpt lat="49.7974176" lon="9.9235064">
                <ele>173.0</ele>
                <time>2020-08-28T08:52:43.000Z</time>
                <name>Trackpoint 236</name>
            </trkpt>
            <trkpt lat="49.7975072" lon="9.9234536">
                <ele>172.0</ele>
                <time>2020-08-28T08:52:48.000Z</time>
                <name>Trackpoint 237</name>
            </trkpt>
            <trkpt lat="49.7975744" lon="9.9233488">
                <ele>172.0</ele>
                <time>2020-08-28T08:52:51.000Z</time>
                <name>Trackpoint 238</name>
            </trkpt>
            <trkpt lat="49.7976" lon="9.923252">
                <ele>172.0</ele>
                <time>2020-08-28T08:52:53.000Z</time>
                <name>Trackpoint 239</name>
            </trkpt>
            <trkpt lat="49.7976672" lon="9.9231392">
                <ele>171.0</ele>
                <time>2020-08-28T08:52:56.000Z</time>
                <name>Trackpoint 240</name>
            </trkpt>
            <trkpt lat="49.7977184" lon="9.9230584">
                <ele>171.0</ele>
                <time>2020-08-28T08:52:58.000Z</time>
                <name>Trackpoint 241</name>
            </trkpt>
            <trkpt lat="49.7978016" lon="9.9229568">
                <ele>172.0</ele>
                <time>2020-08-28T08:53:01.000Z</time>
                <name>Trackpoint 242</name>
            </trkpt>
            <trkpt lat="49.7978752" lon="9.9228896">
                <ele>172.0</ele>
                <time>2020-08-28T08:53:03.000Z</time>
                <name>Trackpoint 243</name>
            </trkpt>
            <trkpt lat="49.7979424" lon="9.922816">
                <ele>172.0</ele>
                <time>2020-08-28T08:53:05.000Z</time>
                <name>Trackpoint 244</name>
            </trkpt>
            <trkpt lat="49.798" lon="9.922724">
                <ele>172.0</ele>
                <time>2020-08-28T08:53:07.000Z</time>
                <name>Trackpoint 245</name>
            </trkpt>
            <trkpt lat="49.7980576" lon="9.9226328">
                <ele>172.0</ele>
                <time>2020-08-28T08:53:09.000Z</time>
                <name>Trackpoint 246</name>
            </trkpt>
            <trkpt lat="49.7981152" lon="9.922548">
                <ele>172.0</ele>
                <time>2020-08-28T08:53:11.000Z</time>
                <name>Trackpoint 247</name>
            </trkpt>
            <trkpt lat="49.7981792" lon="9.9224704">
                <ele>172.0</ele>
                <time>2020-08-28T08:53:13.000Z</time>
                <name>Trackpoint 248</name>
            </trkpt>
            <trkpt lat="49.798288" lon="9.9223984">
                <ele>173.0</ele>
                <time>2020-08-28T08:53:16.000Z</time>
                <name>Trackpoint 249</name>
            </trkpt>
            <trkpt lat="49.7983872" lon="9.9223448">
                <ele>173.0</ele>
                <time>2020-08-28T08:53:19.000Z</time>
                <name>Trackpoint 250</name>
            </trkpt>
            <trkpt lat="49.7984384" lon="9.9224216">
                <ele>172.0</ele>
                <time>2020-08-28T08:53:21.000Z</time>
                <name>Trackpoint 251</name>
            </trkpt>
            <trkpt lat="49.7984864" lon="9.9225168">
                <ele>172.0</ele>
                <time>2020-08-28T08:53:23.000Z</time>
                <name>Trackpoint 252</name>
            </trkpt>
            <trkpt lat="49.7985664" lon="9.9225976">
                <ele>172.0</ele>
                <time>2020-08-28T08:53:26.000Z</time>
                <name>Trackpoint 253</name>
            </trkpt>
            <trkpt lat="49.7986752" lon="9.922508">
                <ele>172.0</ele>
                <time>2020-08-28T08:53:29.000Z</time>
                <name>Trackpoint 254</name>
            </trkpt>
            <trkpt lat="49.7987488" lon="9.9224184">
                <ele>170.0</ele>
                <time>2020-08-28T08:53:31.000Z</time>
                <name>Trackpoint 255</name>
            </trkpt>
            <trkpt lat="49.798832" lon="9.9223568">
                <ele>169.0</ele>
                <time>2020-08-28T08:53:33.000Z</time>
                <name>Trackpoint 256</name>
            </trkpt>
            <trkpt lat="49.7988992" lon="9.92228">
                <ele>168.0</ele>
                <time>2020-08-28T08:53:35.000Z</time>
                <name>Trackpoint 257</name>
            </trkpt>
            <trkpt lat="49.7989664" lon="9.9222048">
                <ele>168.0</ele>
                <time>2020-08-28T08:53:37.000Z</time>
                <name>Trackpoint 258</name>
            </trkpt>
            <trkpt lat="49.799024" lon="9.9221288">
                <ele>168.0</ele>
                <time>2020-08-28T08:53:39.000Z</time>
                <name>Trackpoint 259</name>
            </trkpt>
            <trkpt lat="49.7990688" lon="9.9220352">
                <ele>168.0</ele>
                <time>2020-08-28T08:53:41.000Z</time>
                <name>Trackpoint 260</name>
            </trkpt>
            <trkpt lat="49.7990912" lon="9.92192">
                <ele>168.0</ele>
                <time>2020-08-28T08:53:43.000Z</time>
                <name>Trackpoint 261</name>
            </trkpt>
            <trkpt lat="49.7990944" lon="9.9218064">
                <ele>167.0</ele>
                <time>2020-08-28T08:53:45.000Z</time>
                <name>Trackpoint 262</name>
            </trkpt>
            <trkpt lat="49.7990848" lon="9.921708">
                <ele>167.0</ele>
                <time>2020-08-28T08:53:47.000Z</time>
                <name>Trackpoint 263</name>
            </trkpt>
            <trkpt lat="49.7990912" lon="9.921608">
                <ele>167.0</ele>
                <time>2020-08-28T08:53:49.000Z</time>
                <name>Trackpoint 264</name>
            </trkpt>
            <trkpt lat="49.7991264" lon="9.9215152">
                <ele>167.0</ele>
                <time>2020-08-28T08:53:51.000Z</time>
                <name>Trackpoint 265</name>
            </trkpt>
            <trkpt lat="49.7992256" lon="9.9214232">
                <ele>167.0</ele>
                <time>2020-08-28T08:53:54.000Z</time>
                <name>Trackpoint 266</name>
            </trkpt>
            <trkpt lat="49.7993088" lon="9.9213632">
                <ele>167.0</ele>
                <time>2020-08-28T08:53:56.000Z</time>
                <name>Trackpoint 267</name>
            </trkpt>
            <trkpt lat="49.7994016" lon="9.9213016">
                <ele>167.0</ele>
                <time>2020-08-28T08:53:58.000Z</time>
                <name>Trackpoint 268</name>
            </trkpt>
            <trkpt lat="49.799488" lon="9.921224">
                <ele>167.0</ele>
                <time>2020-08-28T08:54:00.000Z</time>
                <name>Trackpoint 269</name>
            </trkpt>
            <trkpt lat="49.799568" lon="9.9211184">
                <ele>167.0</ele>
                <time>2020-08-28T08:54:02.000Z</time>
                <name>Trackpoint 270</name>
            </trkpt>
            <trkpt lat="49.7996448" lon="9.9210104">
                <ele>167.0</ele>
                <time>2020-08-28T08:54:04.000Z</time>
                <name>Trackpoint 271</name>
            </trkpt>
            <trkpt lat="49.7997312" lon="9.9208984">
                <ele>168.0</ele>
                <time>2020-08-28T08:54:06.000Z</time>
                <name>Trackpoint 272</name>
            </trkpt>
            <trkpt lat="49.7998208" lon="9.9207888">
                <ele>168.0</ele>
                <time>2020-08-28T08:54:08.000Z</time>
                <name>Trackpoint 273</name>
            </trkpt>
            <trkpt lat="49.799904" lon="9.9206712">
                <ele>168.0</ele>
                <time>2020-08-28T08:54:10.000Z</time>
                <name>Trackpoint 274</name>
            </trkpt>
            <trkpt lat="49.7999904" lon="9.9205576">
                <ele>168.0</ele>
                <time>2020-08-28T08:54:12.000Z</time>
                <name>Trackpoint 275</name>
            </trkpt>
            <trkpt lat="49.8000704" lon="9.92042">
                <ele>168.0</ele>
                <time>2020-08-28T08:54:14.000Z</time>
                <name>Trackpoint 276</name>
            </trkpt>
            <trkpt lat="49.8001472" lon="9.9202832">
                <ele>168.0</ele>
                <time>2020-08-28T08:54:16.000Z</time>
                <name>Trackpoint 277</name>
            </trkpt>
            <trkpt lat="49.8002304" lon="9.9201616">
                <ele>168.0</ele>
                <time>2020-08-28T08:54:18.000Z</time>
                <name>Trackpoint 278</name>
            </trkpt>
            <trkpt lat="49.8003232" lon="9.9200472">
                <ele>167.0</ele>
                <time>2020-08-28T08:54:20.000Z</time>
                <name>Trackpoint 279</name>
            </trkpt>
            <trkpt lat="49.8004256" lon="9.9199464">
                <ele>167.0</ele>
                <time>2020-08-28T08:54:22.000Z</time>
                <name>Trackpoint 280</name>
            </trkpt>
            <trkpt lat="49.8005216" lon="9.9198464">
                <ele>167.0</ele>
                <time>2020-08-28T08:54:24.000Z</time>
                <name>Trackpoint 281</name>
            </trkpt>
            <trkpt lat="49.8006048" lon="9.9197304">
                <ele>167.0</ele>
                <time>2020-08-28T08:54:26.000Z</time>
                <name>Trackpoint 282</name>
            </trkpt>
            <trkpt lat="49.8006976" lon="9.9196032">
                <ele>166.0</ele>
                <time>2020-08-28T08:54:28.000Z</time>
                <name>Trackpoint 283</name>
            </trkpt>
            <trkpt lat="49.8007904" lon="9.9194872">
                <ele>167.0</ele>
                <time>2020-08-28T08:54:30.000Z</time>
                <name>Trackpoint 284</name>
            </trkpt>
            <trkpt lat="49.8008768" lon="9.9193696">
                <ele>167.0</ele>
                <time>2020-08-28T08:54:32.000Z</time>
                <name>Trackpoint 285</name>
            </trkpt>
            <trkpt lat="49.8009632" lon="9.9192496">
                <ele>167.0</ele>
                <time>2020-08-28T08:54:34.000Z</time>
                <name>Trackpoint 286</name>
            </trkpt>
            <trkpt lat="49.8010528" lon="9.9191288">
                <ele>167.0</ele>
                <time>2020-08-28T08:54:36.000Z</time>
                <name>Trackpoint 287</name>
            </trkpt>
            <trkpt lat="49.801136" lon="9.9190128">
                <ele>167.0</ele>
                <time>2020-08-28T08:54:38.000Z</time>
                <name>Trackpoint 288</name>
            </trkpt>
            <trkpt lat="49.801216" lon="9.9188896">
                <ele>167.0</ele>
                <time>2020-08-28T08:54:40.000Z</time>
                <name>Trackpoint 289</name>
            </trkpt>
            <trkpt lat="49.8012992" lon="9.91878">
                <ele>167.0</ele>
                <time>2020-08-28T08:54:42.000Z</time>
                <name>Trackpoint 290</name>
            </trkpt>
            <trkpt lat="49.8013664" lon="9.9186688">
                <ele>167.0</ele>
                <time>2020-08-28T08:54:44.000Z</time>
                <name>Trackpoint 291</name>
            </trkpt>
            <trkpt lat="49.8014368" lon="9.9185584">
                <ele>168.0</ele>
                <time>2020-08-28T08:54:46.000Z</time>
                <name>Trackpoint 292</name>
            </trkpt>
            <trkpt lat="49.8014976" lon="9.9184568">
                <ele>168.0</ele>
                <time>2020-08-28T08:54:48.000Z</time>
                <name>Trackpoint 293</name>
            </trkpt>
            <trkpt lat="49.8015488" lon="9.9183712">
                <ele>168.0</ele>
                <time>2020-08-28T08:54:50.000Z</time>
                <name>Trackpoint 294</name>
            </trkpt>
            <trkpt lat="49.8016096" lon="9.9182704">
                <ele>168.0</ele>
                <time>2020-08-28T08:54:53.000Z</time>
                <name>Trackpoint 295</name>
            </trkpt>
            <trkpt lat="49.801664" lon="9.918192">
                <ele>168.0</ele>
                <time>2020-08-28T08:54:56.000Z</time>
                <name>Trackpoint 296</name>
            </trkpt>
            <trkpt lat="49.8017152" lon="9.918112">
                <ele>168.0</ele>
                <time>2020-08-28T08:55:41.000Z</time>
                <name>Trackpoint 297</name>
            </trkpt>
            <trkpt lat="49.8017664" lon="9.9180216">
                <ele>168.0</ele>
                <time>2020-08-28T08:55:45.000Z</time>
                <name>Trackpoint 298</name>
            </trkpt>
            <trkpt lat="49.8018368" lon="9.9179232">
                <ele>168.0</ele>
                <time>2020-08-28T08:55:49.000Z</time>
                <name>Trackpoint 299</name>
            </trkpt>
            <trkpt lat="49.8018848" lon="9.9178248">
                <ele>168.0</ele>
                <time>2020-08-28T08:55:52.000Z</time>
                <name>Trackpoint 300</name>
            </trkpt>
            <trkpt lat="49.8019488" lon="9.917708">
                <ele>168.0</ele>
                <time>2020-08-28T08:55:55.000Z</time>
                <name>Trackpoint 301</name>
            </trkpt>
            <trkpt lat="49.8019936" lon="9.9176064">
                <ele>168.0</ele>
                <time>2020-08-28T08:55:57.000Z</time>
                <name>Trackpoint 302</name>
            </trkpt>
            <trkpt lat="49.8020416" lon="9.9175056">
                <ele>168.0</ele>
                <time>2020-08-28T08:55:59.000Z</time>
                <name>Trackpoint 303</name>
            </trkpt>
            <trkpt lat="49.8020928" lon="9.9173936">
                <ele>168.0</ele>
                <time>2020-08-28T08:56:01.000Z</time>
                <name>Trackpoint 304</name>
            </trkpt>
            <trkpt lat="49.8021472" lon="9.917272">
                <ele>169.0</ele>
                <time>2020-08-28T08:56:03.000Z</time>
                <name>Trackpoint 305</name>
            </trkpt>
            <trkpt lat="49.8022016" lon="9.9171464">
                <ele>169.0</ele>
                <time>2020-08-28T08:56:05.000Z</time>
                <name>Trackpoint 306</name>
            </trkpt>
            <trkpt lat="49.8022336" lon="9.9170168">
                <ele>168.0</ele>
                <time>2020-08-28T08:56:07.000Z</time>
                <name>Trackpoint 307</name>
            </trkpt>
            <trkpt lat="49.802272" lon="9.9168832">
                <ele>168.0</ele>
                <time>2020-08-28T08:56:09.000Z</time>
                <name>Trackpoint 308</name>
            </trkpt>
            <trkpt lat="49.8023072" lon="9.9167536">
                <ele>168.0</ele>
                <time>2020-08-28T08:56:11.000Z</time>
                <name>Trackpoint 309</name>
            </trkpt>
            <trkpt lat="49.8023424" lon="9.9166216">
                <ele>168.0</ele>
                <time>2020-08-28T08:56:13.000Z</time>
                <name>Trackpoint 310</name>
            </trkpt>
            <trkpt lat="49.8023808" lon="9.91648">
                <ele>168.0</ele>
                <time>2020-08-28T08:56:15.000Z</time>
                <name>Trackpoint 311</name>
            </trkpt>
            <trkpt lat="49.8024192" lon="9.9163448">
                <ele>168.0</ele>
                <time>2020-08-28T08:56:17.000Z</time>
                <name>Trackpoint 312</name>
            </trkpt>
            <trkpt lat="49.8024672" lon="9.916212">
                <ele>168.0</ele>
                <time>2020-08-28T08:56:19.000Z</time>
                <name>Trackpoint 313</name>
            </trkpt>
            <trkpt lat="49.8025024" lon="9.9160856">
                <ele>168.0</ele>
                <time>2020-08-28T08:56:21.000Z</time>
                <name>Trackpoint 314</name>
            </trkpt>
            <trkpt lat="49.8025408" lon="9.915972">
                <ele>168.0</ele>
                <time>2020-08-28T08:56:23.000Z</time>
                <name>Trackpoint 315</name>
            </trkpt>
            <trkpt lat="49.8025728" lon="9.9158632">
                <ele>168.0</ele>
                <time>2020-08-28T08:56:25.000Z</time>
                <name>Trackpoint 316</name>
            </trkpt>
            <trkpt lat="49.8026272" lon="9.9157752">
                <ele>168.0</ele>
                <time>2020-08-28T08:56:27.000Z</time>
                <name>Trackpoint 317</name>
            </trkpt>
            <trkpt lat="49.802704" lon="9.915724">
                <ele>168.0</ele>
                <time>2020-08-28T08:56:29.000Z</time>
                <name>Trackpoint 318</name>
            </trkpt>
            <trkpt lat="49.802784" lon="9.9156712">
                <ele>168.0</ele>
                <time>2020-08-28T08:56:31.000Z</time>
                <name>Trackpoint 319</name>
            </trkpt>
            <trkpt lat="49.8028704" lon="9.9156048">
                <ele>168.0</ele>
                <time>2020-08-28T08:56:33.000Z</time>
                <name>Trackpoint 320</name>
            </trkpt>
            <trkpt lat="49.8029632" lon="9.915528">
                <ele>168.0</ele>
                <time>2020-08-28T08:56:35.000Z</time>
                <name>Trackpoint 321</name>
            </trkpt>
            <trkpt lat="49.80304" lon="9.9154416">
                <ele>168.0</ele>
                <time>2020-08-28T08:56:37.000Z</time>
                <name>Trackpoint 322</name>
            </trkpt>
            <trkpt lat="49.8031168" lon="9.9153536">
                <ele>168.0</ele>
                <time>2020-08-28T08:56:39.000Z</time>
                <name>Trackpoint 323</name>
            </trkpt>
            <trkpt lat="49.8031936" lon="9.91526">
                <ele>168.0</ele>
                <time>2020-08-28T08:56:41.000Z</time>
                <name>Trackpoint 324</name>
            </trkpt>
            <trkpt lat="49.803264" lon="9.9151496">
                <ele>168.0</ele>
                <time>2020-08-28T08:56:43.000Z</time>
                <name>Trackpoint 325</name>
            </trkpt>
            <trkpt lat="49.803328" lon="9.9150336">
                <ele>168.0</ele>
                <time>2020-08-28T08:56:45.000Z</time>
                <name>Trackpoint 326</name>
            </trkpt>
            <trkpt lat="49.8033728" lon="9.9148928">
                <ele>168.0</ele>
                <time>2020-08-28T08:56:47.000Z</time>
                <name>Trackpoint 327</name>
            </trkpt>
            <trkpt lat="49.8033856" lon="9.9147328">
                <ele>168.0</ele>
                <time>2020-08-28T08:56:49.000Z</time>
                <name>Trackpoint 328</name>
            </trkpt>
            <trkpt lat="49.8033984" lon="9.914572">
                <ele>168.0</ele>
                <time>2020-08-28T08:56:51.000Z</time>
                <name>Trackpoint 329</name>
            </trkpt>
            <trkpt lat="49.803408" lon="9.9144112">
                <ele>168.0</ele>
                <time>2020-08-28T08:56:53.000Z</time>
                <name>Trackpoint 330</name>
            </trkpt>
            <trkpt lat="49.8034144" lon="9.9142512">
                <ele>168.0</ele>
                <time>2020-08-28T08:56:55.000Z</time>
                <name>Trackpoint 331</name>
            </trkpt>
            <trkpt lat="49.803408" lon="9.914072">
                <ele>167.0</ele>
                <time>2020-08-28T08:56:57.000Z</time>
                <name>Trackpoint 332</name>
            </trkpt>
            <trkpt lat="49.8034144" lon="9.9139072">
                <ele>167.0</ele>
                <time>2020-08-28T08:56:59.000Z</time>
                <name>Trackpoint 333</name>
            </trkpt>
            <trkpt lat="49.8034144" lon="9.913752">
                <ele>167.0</ele>
                <time>2020-08-28T08:57:01.000Z</time>
                <name>Trackpoint 334</name>
            </trkpt>
            <trkpt lat="49.803408" lon="9.9136136">
                <ele>167.0</ele>
                <time>2020-08-28T08:57:03.000Z</time>
                <name>Trackpoint 335</name>
            </trkpt>
            <trkpt lat="49.803424" lon="9.9134504">
                <ele>167.0</ele>
                <time>2020-08-28T08:57:05.000Z</time>
                <name>Trackpoint 336</name>
            </trkpt>
            <trkpt lat="49.8034208" lon="9.9132968">
                <ele>167.0</ele>
                <time>2020-08-28T08:57:07.000Z</time>
                <name>Trackpoint 337</name>
            </trkpt>
            <trkpt lat="49.8033856" lon="9.913132">
                <ele>167.0</ele>
                <time>2020-08-28T08:57:09.000Z</time>
                <name>Trackpoint 338</name>
            </trkpt>
            <trkpt lat="49.8033568" lon="9.91298">
                <ele>167.0</ele>
                <time>2020-08-28T08:57:11.000Z</time>
                <name>Trackpoint 339</name>
            </trkpt>
            <trkpt lat="49.8033216" lon="9.9128512">
                <ele>167.0</ele>
                <time>2020-08-28T08:57:13.000Z</time>
                <name>Trackpoint 340</name>
            </trkpt>
            <trkpt lat="49.8032928" lon="9.91272">
                <ele>167.0</ele>
                <time>2020-08-28T08:57:15.000Z</time>
                <name>Trackpoint 341</name>
            </trkpt>
            <trkpt lat="49.8032672" lon="9.9125744">
                <ele>167.0</ele>
                <time>2020-08-28T08:57:17.000Z</time>
                <name>Trackpoint 342</name>
            </trkpt>
            <trkpt lat="49.8032672" lon="9.9124168">
                <ele>167.0</ele>
                <time>2020-08-28T08:57:19.000Z</time>
                <name>Trackpoint 343</name>
            </trkpt>
            <trkpt lat="49.803264" lon="9.9122664">
                <ele>167.0</ele>
                <time>2020-08-28T08:57:21.000Z</time>
                <name>Trackpoint 344</name>
            </trkpt>
            <trkpt lat="49.8032576" lon="9.9121152">
                <ele>167.0</ele>
                <time>2020-08-28T08:57:23.000Z</time>
                <name>Trackpoint 345</name>
            </trkpt>
            <trkpt lat="49.8032608" lon="9.91196">
                <ele>167.0</ele>
                <time>2020-08-28T08:57:25.000Z</time>
                <name>Trackpoint 346</name>
            </trkpt>
            <trkpt lat="49.8032576" lon="9.911832">
                <ele>167.0</ele>
                <time>2020-08-28T08:57:27.000Z</time>
                <name>Trackpoint 347</name>
            </trkpt>
            <trkpt lat="49.8032576" lon="9.911708">
                <ele>167.0</ele>
                <time>2020-08-28T08:57:29.000Z</time>
                <name>Trackpoint 348</name>
            </trkpt>
            <trkpt lat="49.8032544" lon="9.9115888">
                <ele>167.0</ele>
                <time>2020-08-28T08:57:31.000Z</time>
                <name>Trackpoint 349</name>
            </trkpt>
            <trkpt lat="49.8032416" lon="9.9114768">
                <ele>167.0</ele>
                <time>2020-08-28T08:57:33.000Z</time>
                <name>Trackpoint 350</name>
            </trkpt>
            <trkpt lat="49.8032224" lon="9.9113816">
                <ele>167.0</ele>
                <time>2020-08-28T08:57:35.000Z</time>
                <name>Trackpoint 351</name>
            </trkpt>
            <trkpt lat="49.8031872" lon="9.9112664">
                <ele>167.0</ele>
                <time>2020-08-28T08:57:37.000Z</time>
                <name>Trackpoint 352</name>
            </trkpt>
            <trkpt lat="49.8031488" lon="9.9111608">
                <ele>167.0</ele>
                <time>2020-08-28T08:57:39.000Z</time>
                <name>Trackpoint 353</name>
            </trkpt>
            <trkpt lat="49.8031072" lon="9.9110184">
                <ele>167.0</ele>
                <time>2020-08-28T08:57:41.000Z</time>
                <name>Trackpoint 354</name>
            </trkpt>
            <trkpt lat="49.8030784" lon="9.91088">
                <ele>167.0</ele>
                <time>2020-08-28T08:57:43.000Z</time>
                <name>Trackpoint 355</name>
            </trkpt>
            <trkpt lat="49.8030304" lon="9.9107376">
                <ele>167.0</ele>
                <time>2020-08-28T08:57:45.000Z</time>
                <name>Trackpoint 356</name>
            </trkpt>
            <trkpt lat="49.8029888" lon="9.9106104">
                <ele>167.0</ele>
                <time>2020-08-28T08:57:47.000Z</time>
                <name>Trackpoint 357</name>
            </trkpt>
            <trkpt lat="49.8029472" lon="9.9104704">
                <ele>168.0</ele>
                <time>2020-08-28T08:57:49.000Z</time>
                <name>Trackpoint 358</name>
            </trkpt>
            <trkpt lat="49.8029248" lon="9.9103144">
                <ele>168.0</ele>
                <time>2020-08-28T08:57:51.000Z</time>
                <name>Trackpoint 359</name>
            </trkpt>
            <trkpt lat="49.8029088" lon="9.9101736">
                <ele>168.0</ele>
                <time>2020-08-28T08:57:53.000Z</time>
                <name>Trackpoint 360</name>
            </trkpt>
            <trkpt lat="49.8028672" lon="9.9100376">
                <ele>168.0</ele>
                <time>2020-08-28T08:57:55.000Z</time>
                <name>Trackpoint 361</name>
            </trkpt>
            <trkpt lat="49.8028032" lon="9.9098864">
                <ele>169.0</ele>
                <time>2020-08-28T08:57:57.000Z</time>
                <name>Trackpoint 362</name>
            </trkpt>
            <trkpt lat="49.802752" lon="9.9097656">
                <ele>169.0</ele>
                <time>2020-08-28T08:57:59.000Z</time>
                <name>Trackpoint 363</name>
            </trkpt>
            <trkpt lat="49.8026976" lon="9.909672">
                <ele>169.0</ele>
                <time>2020-08-28T08:58:01.000Z</time>
                <name>Trackpoint 364</name>
            </trkpt>
            <trkpt lat="49.80264" lon="9.909556">
                <ele>169.0</ele>
                <time>2020-08-28T08:58:04.000Z</time>
                <name>Trackpoint 365</name>
            </trkpt>
            <trkpt lat="49.8026112" lon="9.909456">
                <ele>170.0</ele>
                <time>2020-08-28T08:58:07.000Z</time>
                <name>Trackpoint 366</name>
            </trkpt>
            <trkpt lat="49.8025792" lon="9.9093304">
                <ele>170.0</ele>
                <time>2020-08-28T08:58:10.000Z</time>
                <name>Trackpoint 367</name>
            </trkpt>
            <trkpt lat="49.8025504" lon="9.9092216">
                <ele>170.0</ele>
                <time>2020-08-28T08:58:12.000Z</time>
                <name>Trackpoint 368</name>
            </trkpt>
            <trkpt lat="49.8025248" lon="9.9090968">
                <ele>170.0</ele>
                <time>2020-08-28T08:58:14.000Z</time>
                <name>Trackpoint 369</name>
            </trkpt>
            <trkpt lat="49.8024864" lon="9.9089768">
                <ele>170.0</ele>
                <time>2020-08-28T08:58:16.000Z</time>
                <name>Trackpoint 370</name>
            </trkpt>
            <trkpt lat="49.8024416" lon="9.908836">
                <ele>170.0</ele>
                <time>2020-08-28T08:58:18.000Z</time>
                <name>Trackpoint 371</name>
            </trkpt>
            <trkpt lat="49.8024032" lon="9.9086864">
                <ele>170.0</ele>
                <time>2020-08-28T08:58:20.000Z</time>
                <name>Trackpoint 372</name>
            </trkpt>
            <trkpt lat="49.8023712" lon="9.9085264">
                <ele>170.0</ele>
                <time>2020-08-28T08:58:22.000Z</time>
                <name>Trackpoint 373</name>
            </trkpt>
            <trkpt lat="49.8023264" lon="9.908368">
                <ele>170.0</ele>
                <time>2020-08-28T08:58:24.000Z</time>
                <name>Trackpoint 374</name>
            </trkpt>
            <trkpt lat="49.802304" lon="9.90828">
                <ele>170.0</ele>
                <time>2020-08-28T08:58:25.000Z</time>
                <name>Trackpoint 375</name>
            </trkpt>
            <trkpt lat="49.8022464" lon="9.9081296">
                <ele>170.0</ele>
                <time>2020-08-28T08:58:27.000Z</time>
                <name>Trackpoint 376</name>
            </trkpt>
            <trkpt lat="49.8022016" lon="9.9079784">
                <ele>170.0</ele>
                <time>2020-08-28T08:58:29.000Z</time>
                <name>Trackpoint 377</name>
            </trkpt>
            <trkpt lat="49.8021568" lon="9.9078264">
                <ele>170.0</ele>
                <time>2020-08-28T08:58:31.000Z</time>
                <name>Trackpoint 378</name>
            </trkpt>
            <trkpt lat="49.8021056" lon="9.907692">
                <ele>170.0</ele>
                <time>2020-08-28T08:58:33.000Z</time>
                <name>Trackpoint 379</name>
            </trkpt>
            <trkpt lat="49.8020512" lon="9.9075568">
                <ele>170.0</ele>
                <time>2020-08-28T08:58:35.000Z</time>
                <name>Trackpoint 380</name>
            </trkpt>
            <trkpt lat="49.802016" lon="9.90742">
                <ele>170.0</ele>
                <time>2020-08-28T08:58:37.000Z</time>
                <name>Trackpoint 381</name>
            </trkpt>
            <trkpt lat="49.801984" lon="9.9072888">
                <ele>170.0</ele>
                <time>2020-08-28T08:58:39.000Z</time>
                <name>Trackpoint 382</name>
            </trkpt>
            <trkpt lat="49.8019424" lon="9.907148">
                <ele>170.0</ele>
                <time>2020-08-28T08:58:41.000Z</time>
                <name>Trackpoint 383</name>
            </trkpt>
            <trkpt lat="49.8018912" lon="9.9069992">
                <ele>170.0</ele>
                <time>2020-08-28T08:58:43.000Z</time>
                <name>Trackpoint 384</name>
            </trkpt>
            <trkpt lat="49.8018656" lon="9.9068544">
                <ele>170.0</ele>
                <time>2020-08-28T08:58:45.000Z</time>
                <name>Trackpoint 385</name>
            </trkpt>
            <trkpt lat="49.8018464" lon="9.9067024">
                <ele>170.0</ele>
                <time>2020-08-28T08:58:47.000Z</time>
                <name>Trackpoint 386</name>
            </trkpt>
            <trkpt lat="49.8017888" lon="9.9065312">
                <ele>170.0</ele>
                <time>2020-08-28T08:58:49.000Z</time>
                <name>Trackpoint 387</name>
            </trkpt>
            <trkpt lat="49.8017632" lon="9.9064448">
                <ele>170.0</ele>
                <time>2020-08-28T08:58:50.000Z</time>
                <name>Trackpoint 388</name>
            </trkpt>
            <trkpt lat="49.8017344" lon="9.9062792">
                <ele>170.0</ele>
                <time>2020-08-28T08:58:52.000Z</time>
                <name>Trackpoint 389</name>
            </trkpt>
            <trkpt lat="49.80168" lon="9.906132">
                <ele>170.0</ele>
                <time>2020-08-28T08:58:54.000Z</time>
                <name>Trackpoint 390</name>
            </trkpt>
            <trkpt lat="49.8016352" lon="9.9059824">
                <ele>170.0</ele>
                <time>2020-08-28T08:58:56.000Z</time>
                <name>Trackpoint 391</name>
            </trkpt>
            <trkpt lat="49.8015936" lon="9.9058768">
                <ele>170.0</ele>
                <time>2020-08-28T08:58:58.000Z</time>
                <name>Trackpoint 392</name>
            </trkpt>
            <trkpt lat="49.8015392" lon="9.9057376">
                <ele>170.0</ele>
                <time>2020-08-28T08:59:00.000Z</time>
                <name>Trackpoint 393</name>
            </trkpt>
            <trkpt lat="49.8015072" lon="9.9055968">
                <ele>170.0</ele>
                <time>2020-08-28T08:59:02.000Z</time>
                <name>Trackpoint 394</name>
            </trkpt>
            <trkpt lat="49.8014336" lon="9.9054672">
                <ele>170.0</ele>
                <time>2020-08-28T08:59:04.000Z</time>
                <name>Trackpoint 395</name>
            </trkpt>
            <trkpt lat="49.8013728" lon="9.9053384">
                <ele>170.0</ele>
                <time>2020-08-28T08:59:06.000Z</time>
                <name>Trackpoint 396</name>
            </trkpt>
            <trkpt lat="49.8013504" lon="9.9052496">
                <ele>170.0</ele>
                <time>2020-08-28T08:59:07.000Z</time>
                <name>Trackpoint 397</name>
            </trkpt>
            <trkpt lat="49.8013024" lon="9.9051048">
                <ele>170.0</ele>
                <time>2020-08-28T08:59:09.000Z</time>
                <name>Trackpoint 398</name>
            </trkpt>
            <trkpt lat="49.8012352" lon="9.9049616">
                <ele>170.0</ele>
                <time>2020-08-28T08:59:11.000Z</time>
                <name>Trackpoint 399</name>
            </trkpt>
            <trkpt lat="49.8011936" lon="9.9048072">
                <ele>170.0</ele>
                <time>2020-08-28T08:59:13.000Z</time>
                <name>Trackpoint 400</name>
            </trkpt>
            <trkpt lat="49.8011488" lon="9.9046648">
                <ele>170.0</ele>
                <time>2020-08-28T08:59:15.000Z</time>
                <name>Trackpoint 401</name>
            </trkpt>
            <trkpt lat="49.8010976" lon="9.9045088">
                <ele>170.0</ele>
                <time>2020-08-28T08:59:17.000Z</time>
                <name>Trackpoint 402</name>
            </trkpt>
            <trkpt lat="49.80104" lon="9.9043376">
                <ele>170.0</ele>
                <time>2020-08-28T08:59:19.000Z</time>
                <name>Trackpoint 403</name>
            </trkpt>
            <trkpt lat="49.8009792" lon="9.9041752">
                <ele>170.0</ele>
                <time>2020-08-28T08:59:21.000Z</time>
                <name>Trackpoint 404</name>
            </trkpt>
            <trkpt lat="49.8008992" lon="9.9040272">
                <ele>170.0</ele>
                <time>2020-08-28T08:59:23.000Z</time>
                <name>Trackpoint 405</name>
            </trkpt>
            <trkpt lat="49.8008384" lon="9.9038752">
                <ele>170.0</ele>
                <time>2020-08-28T08:59:25.000Z</time>
                <name>Trackpoint 406</name>
            </trkpt>
            <trkpt lat="49.8007712" lon="9.9037448">
                <ele>170.0</ele>
                <time>2020-08-28T08:59:27.000Z</time>
                <name>Trackpoint 407</name>
            </trkpt>
            <trkpt lat="49.800704" lon="9.9036128">
                <ele>170.0</ele>
                <time>2020-08-28T08:59:29.000Z</time>
                <name>Trackpoint 408</name>
            </trkpt>
            <trkpt lat="49.8006464" lon="9.9035016">
                <ele>170.0</ele>
                <time>2020-08-28T08:59:31.000Z</time>
                <name>Trackpoint 409</name>
            </trkpt>
            <trkpt lat="49.8005792" lon="9.9033816">
                <ele>170.0</ele>
                <time>2020-08-28T08:59:33.000Z</time>
                <name>Trackpoint 410</name>
            </trkpt>
            <trkpt lat="49.8005216" lon="9.9032584">
                <ele>170.0</ele>
                <time>2020-08-28T08:59:35.000Z</time>
                <name>Trackpoint 411</name>
            </trkpt>
            <trkpt lat="49.8004672" lon="9.9031536">
                <ele>170.0</ele>
                <time>2020-08-28T08:59:37.000Z</time>
                <name>Trackpoint 412</name>
            </trkpt>
            <trkpt lat="49.8004" lon="9.9030112">
                <ele>170.0</ele>
                <time>2020-08-28T08:59:39.000Z</time>
                <name>Trackpoint 413</name>
            </trkpt>
            <trkpt lat="49.8003456" lon="9.9028632">
                <ele>170.0</ele>
                <time>2020-08-28T08:59:41.000Z</time>
                <name>Trackpoint 414</name>
            </trkpt>
            <trkpt lat="49.8002816" lon="9.9027256">
                <ele>170.0</ele>
                <time>2020-08-28T08:59:43.000Z</time>
                <name>Trackpoint 415</name>
            </trkpt>
            <trkpt lat="49.8002176" lon="9.902592">
                <ele>170.0</ele>
                <time>2020-08-28T08:59:45.000Z</time>
                <name>Trackpoint 416</name>
            </trkpt>
            <trkpt lat="49.8001504" lon="9.9024664">
                <ele>170.0</ele>
                <time>2020-08-28T08:59:47.000Z</time>
                <name>Trackpoint 417</name>
            </trkpt>
            <trkpt lat="49.8001088" lon="9.9023312">
                <ele>170.0</ele>
                <time>2020-08-28T08:59:49.000Z</time>
                <name>Trackpoint 418</name>
            </trkpt>
            <trkpt lat="49.8000672" lon="9.9021968">
                <ele>170.0</ele>
                <time>2020-08-28T08:59:51.000Z</time>
                <name>Trackpoint 419</name>
            </trkpt>
            <trkpt lat="49.800016" lon="9.9020504">
                <ele>170.0</ele>
                <time>2020-08-28T08:59:53.000Z</time>
                <name>Trackpoint 420</name>
            </trkpt>
            <trkpt lat="49.799952" lon="9.9019">
                <ele>170.0</ele>
                <time>2020-08-28T08:59:55.000Z</time>
                <name>Trackpoint 421</name>
            </trkpt>
            <trkpt lat="49.7999072" lon="9.9017688">
                <ele>171.0</ele>
                <time>2020-08-28T08:59:57.000Z</time>
                <name>Trackpoint 422</name>
            </trkpt>
            <trkpt lat="49.7998688" lon="9.9016336">
                <ele>171.0</ele>
                <time>2020-08-28T08:59:59.000Z</time>
                <name>Trackpoint 423</name>
            </trkpt>
            <trkpt lat="49.7998272" lon="9.9014968">
                <ele>171.0</ele>
                <time>2020-08-28T09:00:01.000Z</time>
                <name>Trackpoint 424</name>
            </trkpt>
            <trkpt lat="49.7997792" lon="9.9013632">
                <ele>171.0</ele>
                <time>2020-08-28T09:00:03.000Z</time>
                <name>Trackpoint 425</name>
            </trkpt>
            <trkpt lat="49.7997248" lon="9.901212">
                <ele>171.0</ele>
                <time>2020-08-28T09:00:05.000Z</time>
                <name>Trackpoint 426</name>
            </trkpt>
            <trkpt lat="49.7996704" lon="9.9010664">
                <ele>171.0</ele>
                <time>2020-08-28T09:00:07.000Z</time>
                <name>Trackpoint 427</name>
            </trkpt>
            <trkpt lat="49.7996192" lon="9.9009368">
                <ele>171.0</ele>
                <time>2020-08-28T09:00:09.000Z</time>
                <name>Trackpoint 428</name>
            </trkpt>
            <trkpt lat="49.7995744" lon="9.9007984">
                <ele>171.0</ele>
                <time>2020-08-28T09:00:11.000Z</time>
                <name>Trackpoint 429</name>
            </trkpt>
            <trkpt lat="49.7995328" lon="9.9006504">
                <ele>171.0</ele>
                <time>2020-08-28T09:00:13.000Z</time>
                <name>Trackpoint 430</name>
            </trkpt>
            <trkpt lat="49.7994848" lon="9.9004832">
                <ele>171.0</ele>
                <time>2020-08-28T09:00:15.000Z</time>
                <name>Trackpoint 431</name>
            </trkpt>
            <trkpt lat="49.7994336" lon="9.9003288">
                <ele>171.0</ele>
                <time>2020-08-28T09:00:17.000Z</time>
                <name>Trackpoint 432</name>
            </trkpt>
            <trkpt lat="49.7993952" lon="9.9001728">
                <ele>171.0</ele>
                <time>2020-08-28T09:00:19.000Z</time>
                <name>Trackpoint 433</name>
            </trkpt>
            <trkpt lat="49.7993568" lon="9.9000104">
                <ele>171.0</ele>
                <time>2020-08-28T09:00:21.000Z</time>
                <name>Trackpoint 434</name>
            </trkpt>
            <trkpt lat="49.7993344" lon="9.8999216">
                <ele>171.0</ele>
                <time>2020-08-28T09:00:22.000Z</time>
                <name>Trackpoint 435</name>
            </trkpt>
            <trkpt lat="49.7992768" lon="9.899772">
                <ele>171.0</ele>
                <time>2020-08-28T09:00:24.000Z</time>
                <name>Trackpoint 436</name>
            </trkpt>
            <trkpt lat="49.7992288" lon="9.8996184">
                <ele>171.0</ele>
                <time>2020-08-28T09:00:26.000Z</time>
                <name>Trackpoint 437</name>
            </trkpt>
            <trkpt lat="49.7991872" lon="9.8994776">
                <ele>171.0</ele>
                <time>2020-08-28T09:00:28.000Z</time>
                <name>Trackpoint 438</name>
            </trkpt>
            <trkpt lat="49.7991456" lon="9.8993232">
                <ele>171.0</ele>
                <time>2020-08-28T09:00:30.000Z</time>
                <name>Trackpoint 439</name>
            </trkpt>
            <trkpt lat="49.7990912" lon="9.8991544">
                <ele>171.0</ele>
                <time>2020-08-28T09:00:32.000Z</time>
                <name>Trackpoint 440</name>
            </trkpt>
            <trkpt lat="49.7990432" lon="9.899">
                <ele>171.0</ele>
                <time>2020-08-28T09:00:34.000Z</time>
                <name>Trackpoint 441</name>
            </trkpt>
            <trkpt lat="49.7989952" lon="9.8988336">
                <ele>171.0</ele>
                <time>2020-08-28T09:00:36.000Z</time>
                <name>Trackpoint 442</name>
            </trkpt>
            <trkpt lat="49.7989376" lon="9.89868">
                <ele>171.0</ele>
                <time>2020-08-28T09:00:38.000Z</time>
                <name>Trackpoint 443</name>
            </trkpt>
            <trkpt lat="49.7989152" lon="9.8985856">
                <ele>170.0</ele>
                <time>2020-08-28T09:00:39.000Z</time>
                <name>Trackpoint 444</name>
            </trkpt>
            <trkpt lat="49.798864" lon="9.898448">
                <ele>170.0</ele>
                <time>2020-08-28T09:00:41.000Z</time>
                <name>Trackpoint 445</name>
            </trkpt>
            <trkpt lat="49.7988064" lon="9.898312">
                <ele>170.0</ele>
                <time>2020-08-28T09:00:43.000Z</time>
                <name>Trackpoint 446</name>
            </trkpt>
            <trkpt lat="49.7987488" lon="9.8981736">
                <ele>170.0</ele>
                <time>2020-08-28T09:00:45.000Z</time>
                <name>Trackpoint 447</name>
            </trkpt>
            <trkpt lat="49.7986944" lon="9.89804">
                <ele>170.0</ele>
                <time>2020-08-28T09:00:47.000Z</time>
                <name>Trackpoint 448</name>
            </trkpt>
            <trkpt lat="49.79864" lon="9.8979056">
                <ele>170.0</ele>
                <time>2020-08-28T09:00:49.000Z</time>
                <name>Trackpoint 449</name>
            </trkpt>
            <trkpt lat="49.7985824" lon="9.8977672">
                <ele>170.0</ele>
                <time>2020-08-28T09:00:51.000Z</time>
                <name>Trackpoint 450</name>
            </trkpt>
            <trkpt lat="49.7985344" lon="9.8976336">
                <ele>170.0</ele>
                <time>2020-08-28T09:00:53.000Z</time>
                <name>Trackpoint 451</name>
            </trkpt>
            <trkpt lat="49.7984864" lon="9.8975112">
                <ele>170.0</ele>
                <time>2020-08-28T09:00:55.000Z</time>
                <name>Trackpoint 452</name>
            </trkpt>
            <trkpt lat="49.7984224" lon="9.8973888">
                <ele>170.0</ele>
                <time>2020-08-28T09:00:57.000Z</time>
                <name>Trackpoint 453</name>
            </trkpt>
            <trkpt lat="49.7983744" lon="9.8972584">
                <ele>170.0</ele>
                <time>2020-08-28T09:00:59.000Z</time>
                <name>Trackpoint 454</name>
            </trkpt>
            <trkpt lat="49.79832" lon="9.8971344">
                <ele>170.0</ele>
                <time>2020-08-28T09:01:01.000Z</time>
                <name>Trackpoint 455</name>
            </trkpt>
            <trkpt lat="49.7982624" lon="9.89702">
                <ele>170.0</ele>
                <time>2020-08-28T09:01:03.000Z</time>
                <name>Trackpoint 456</name>
            </trkpt>
            <trkpt lat="49.7981984" lon="9.8969072">
                <ele>170.0</ele>
                <time>2020-08-28T09:01:05.000Z</time>
                <name>Trackpoint 457</name>
            </trkpt>
            <trkpt lat="49.7981504" lon="9.8968032">
                <ele>170.0</ele>
                <time>2020-08-28T09:01:07.000Z</time>
                <name>Trackpoint 458</name>
            </trkpt>
            <trkpt lat="49.7980768" lon="9.8967088">
                <ele>170.0</ele>
                <time>2020-08-28T09:01:09.000Z</time>
                <name>Trackpoint 459</name>
            </trkpt>
            <trkpt lat="49.7980224" lon="9.8966168">
                <ele>170.0</ele>
                <time>2020-08-28T09:01:11.000Z</time>
                <name>Trackpoint 460</name>
            </trkpt>
            <trkpt lat="49.7979648" lon="9.8965152">
                <ele>170.0</ele>
                <time>2020-08-28T09:01:13.000Z</time>
                <name>Trackpoint 461</name>
            </trkpt>
            <trkpt lat="49.797904" lon="9.8964184">
                <ele>170.0</ele>
                <time>2020-08-28T09:01:15.000Z</time>
                <name>Trackpoint 462</name>
            </trkpt>
            <trkpt lat="49.79784" lon="9.8963072">
                <ele>170.0</ele>
                <time>2020-08-28T09:01:17.000Z</time>
                <name>Trackpoint 463</name>
            </trkpt>
            <trkpt lat="49.7977792" lon="9.8961896">
                <ele>170.0</ele>
                <time>2020-08-28T09:01:19.000Z</time>
                <name>Trackpoint 464</name>
            </trkpt>
            <trkpt lat="49.7977216" lon="9.8960568">
                <ele>171.0</ele>
                <time>2020-08-28T09:01:21.000Z</time>
                <name>Trackpoint 465</name>
            </trkpt>
            <trkpt lat="49.7976416" lon="9.8959312">
                <ele>171.0</ele>
                <time>2020-08-28T09:01:23.000Z</time>
                <name>Trackpoint 466</name>
            </trkpt>
            <trkpt lat="49.797568" lon="9.895828">
                <ele>171.0</ele>
                <time>2020-08-28T09:01:25.000Z</time>
                <name>Trackpoint 467</name>
            </trkpt>
            <trkpt lat="49.797504" lon="9.8957192">
                <ele>171.0</ele>
                <time>2020-08-28T09:01:27.000Z</time>
                <name>Trackpoint 468</name>
            </trkpt>
            <trkpt lat="49.79744" lon="9.8956032">
                <ele>171.0</ele>
                <time>2020-08-28T09:01:29.000Z</time>
                <name>Trackpoint 469</name>
            </trkpt>
            <trkpt lat="49.797376" lon="9.8954672">
                <ele>171.0</ele>
                <time>2020-08-28T09:01:31.000Z</time>
                <name>Trackpoint 470</name>
            </trkpt>
            <trkpt lat="49.7973056" lon="9.8953312">
                <ele>171.0</ele>
                <time>2020-08-28T09:01:33.000Z</time>
                <name>Trackpoint 471</name>
            </trkpt>
            <trkpt lat="49.7972256" lon="9.8951952">
                <ele>171.0</ele>
                <time>2020-08-28T09:01:35.000Z</time>
                <name>Trackpoint 472</name>
            </trkpt>
            <trkpt lat="49.797152" lon="9.8950592">
                <ele>171.0</ele>
                <time>2020-08-28T09:01:37.000Z</time>
                <name>Trackpoint 473</name>
            </trkpt>
            <trkpt lat="49.7970816" lon="9.8949016">
                <ele>171.0</ele>
                <time>2020-08-28T09:01:39.000Z</time>
                <name>Trackpoint 474</name>
            </trkpt>
            <trkpt lat="49.7970208" lon="9.8947384">
                <ele>171.0</ele>
                <time>2020-08-28T09:01:41.000Z</time>
                <name>Trackpoint 475</name>
            </trkpt>
            <trkpt lat="49.79696" lon="9.8945712">
                <ele>171.0</ele>
                <time>2020-08-28T09:01:43.000Z</time>
                <name>Trackpoint 476</name>
            </trkpt>
            <trkpt lat="49.7969056" lon="9.8944032">
                <ele>171.0</ele>
                <time>2020-08-28T09:01:45.000Z</time>
                <name>Trackpoint 477</name>
            </trkpt>
            <trkpt lat="49.79688" lon="9.8943128">
                <ele>171.0</ele>
                <time>2020-08-28T09:01:46.000Z</time>
                <name>Trackpoint 478</name>
            </trkpt>
            <trkpt lat="49.7968288" lon="9.8941432">
                <ele>171.0</ele>
                <time>2020-08-28T09:01:48.000Z</time>
                <name>Trackpoint 479</name>
            </trkpt>
            <trkpt lat="49.7967648" lon="9.8939752">
                <ele>171.0</ele>
                <time>2020-08-28T09:01:50.000Z</time>
                <name>Trackpoint 480</name>
            </trkpt>
            <trkpt lat="49.7967104" lon="9.8938032">
                <ele>170.0</ele>
                <time>2020-08-28T09:01:52.000Z</time>
                <name>Trackpoint 481</name>
            </trkpt>
            <trkpt lat="49.7966496" lon="9.8936256">
                <ele>170.0</ele>
                <time>2020-08-28T09:01:54.000Z</time>
                <name>Trackpoint 482</name>
            </trkpt>
            <trkpt lat="49.7966144" lon="9.8935344">
                <ele>170.0</ele>
                <time>2020-08-28T09:01:55.000Z</time>
                <name>Trackpoint 483</name>
            </trkpt>
            <trkpt lat="49.7965856" lon="9.8934384">
                <ele>170.0</ele>
                <time>2020-08-28T09:01:56.000Z</time>
                <name>Trackpoint 484</name>
            </trkpt>
            <trkpt lat="49.7965568" lon="9.8933512">
                <ele>170.0</ele>
                <time>2020-08-28T09:01:57.000Z</time>
                <name>Trackpoint 485</name>
            </trkpt>
            <trkpt lat="49.796528" lon="9.8932648">
                <ele>170.0</ele>
                <time>2020-08-28T09:01:58.000Z</time>
                <name>Trackpoint 486</name>
            </trkpt>
            <trkpt lat="49.7964672" lon="9.893108">
                <ele>170.0</ele>
                <time>2020-08-28T09:02:00.000Z</time>
                <name>Trackpoint 487</name>
            </trkpt>
            <trkpt lat="49.7964096" lon="9.8929552">
                <ele>170.0</ele>
                <time>2020-08-28T09:02:02.000Z</time>
                <name>Trackpoint 488</name>
            </trkpt>
            <trkpt lat="49.796384" lon="9.8928616">
                <ele>170.0</ele>
                <time>2020-08-28T09:02:03.000Z</time>
                <name>Trackpoint 489</name>
            </trkpt>
            <trkpt lat="49.796352" lon="9.8927744">
                <ele>170.0</ele>
                <time>2020-08-28T09:02:04.000Z</time>
                <name>Trackpoint 490</name>
            </trkpt>
            <trkpt lat="49.796304" lon="9.8926064">
                <ele>169.0</ele>
                <time>2020-08-28T09:02:06.000Z</time>
                <name>Trackpoint 491</name>
            </trkpt>
            <trkpt lat="49.7962784" lon="9.89252">
                <ele>169.0</ele>
                <time>2020-08-28T09:02:07.000Z</time>
                <name>Trackpoint 492</name>
            </trkpt>
            <trkpt lat="49.7962528" lon="9.8924328">
                <ele>169.0</ele>
                <time>2020-08-28T09:02:08.000Z</time>
                <name>Trackpoint 493</name>
            </trkpt>
            <trkpt lat="49.7961984" lon="9.8922656">
                <ele>169.0</ele>
                <time>2020-08-28T09:02:10.000Z</time>
                <name>Trackpoint 494</name>
            </trkpt>
            <trkpt lat="49.7961504" lon="9.8921032">
                <ele>169.0</ele>
                <time>2020-08-28T09:02:12.000Z</time>
                <name>Trackpoint 495</name>
            </trkpt>
            <trkpt lat="49.7961056" lon="9.8919424">
                <ele>169.0</ele>
                <time>2020-08-28T09:02:14.000Z</time>
                <name>Trackpoint 496</name>
            </trkpt>
            <trkpt lat="49.7960544" lon="9.891784">
                <ele>169.0</ele>
                <time>2020-08-28T09:02:16.000Z</time>
                <name>Trackpoint 497</name>
            </trkpt>
            <trkpt lat="49.7960096" lon="9.8916184">
                <ele>169.0</ele>
                <time>2020-08-28T09:02:18.000Z</time>
                <name>Trackpoint 498</name>
            </trkpt>
            <trkpt lat="49.7959648" lon="9.891468">
                <ele>169.0</ele>
                <time>2020-08-28T09:02:20.000Z</time>
                <name>Trackpoint 499</name>
            </trkpt>
            <trkpt lat="49.7959168" lon="9.8913096">
                <ele>169.0</ele>
                <time>2020-08-28T09:02:22.000Z</time>
                <name>Trackpoint 500</name>
            </trkpt>
            <trkpt lat="49.7958752" lon="9.8911368">
                <ele>169.0</ele>
                <time>2020-08-28T09:02:24.000Z</time>
                <name>Trackpoint 501</name>
            </trkpt>
            <trkpt lat="49.7958304" lon="9.89098">
                <ele>169.0</ele>
                <time>2020-08-28T09:02:26.000Z</time>
                <name>Trackpoint 502</name>
            </trkpt>
            <trkpt lat="49.7958016" lon="9.8908216">
                <ele>169.0</ele>
                <time>2020-08-28T09:02:28.000Z</time>
                <name>Trackpoint 503</name>
            </trkpt>
            <trkpt lat="49.7957824" lon="9.8906344">
                <ele>169.0</ele>
                <time>2020-08-28T09:02:30.000Z</time>
                <name>Trackpoint 504</name>
            </trkpt>
            <trkpt lat="49.795792" lon="9.8904368">
                <ele>169.0</ele>
                <time>2020-08-28T09:02:32.000Z</time>
                <name>Trackpoint 505</name>
            </trkpt>
            <trkpt lat="49.7957888" lon="9.890324">
                <ele>169.0</ele>
                <time>2020-08-28T09:02:33.000Z</time>
                <name>Trackpoint 506</name>
            </trkpt>
            <trkpt lat="49.795776" lon="9.8902056">
                <ele>169.0</ele>
                <time>2020-08-28T09:02:34.000Z</time>
                <name>Trackpoint 507</name>
            </trkpt>
            <trkpt lat="49.79576" lon="9.8900816">
                <ele>169.0</ele>
                <time>2020-08-28T09:02:35.000Z</time>
                <name>Trackpoint 508</name>
            </trkpt>
            <trkpt lat="49.7957504" lon="9.8899584">
                <ele>169.0</ele>
                <time>2020-08-28T09:02:36.000Z</time>
                <name>Trackpoint 509</name>
            </trkpt>
            <trkpt lat="49.7957344" lon="9.8898336">
                <ele>169.0</ele>
                <time>2020-08-28T09:02:37.000Z</time>
                <name>Trackpoint 510</name>
            </trkpt>
            <trkpt lat="49.795712" lon="9.8897136">
                <ele>169.0</ele>
                <time>2020-08-28T09:02:38.000Z</time>
                <name>Trackpoint 511</name>
            </trkpt>
            <trkpt lat="49.795696" lon="9.889588">
                <ele>169.0</ele>
                <time>2020-08-28T09:02:39.000Z</time>
                <name>Trackpoint 512</name>
            </trkpt>
            <trkpt lat="49.7956768" lon="9.8894632">
                <ele>169.0</ele>
                <time>2020-08-28T09:02:40.000Z</time>
                <name>Trackpoint 513</name>
            </trkpt>
            <trkpt lat="49.7956608" lon="9.8893368">
                <ele>169.0</ele>
                <time>2020-08-28T09:02:41.000Z</time>
                <name>Trackpoint 514</name>
            </trkpt>
            <trkpt lat="49.7956512" lon="9.8892096">
                <ele>169.0</ele>
                <time>2020-08-28T09:02:42.000Z</time>
                <name>Trackpoint 515</name>
            </trkpt>
            <trkpt lat="49.7956352" lon="9.8890896">
                <ele>169.0</ele>
                <time>2020-08-28T09:02:43.000Z</time>
                <name>Trackpoint 516</name>
            </trkpt>
            <trkpt lat="49.7956224" lon="9.8889784">
                <ele>169.0</ele>
                <time>2020-08-28T09:02:44.000Z</time>
                <name>Trackpoint 517</name>
            </trkpt>
            <trkpt lat="49.795616" lon="9.8888752">
                <ele>169.0</ele>
                <time>2020-08-28T09:02:45.000Z</time>
                <name>Trackpoint 518</name>
            </trkpt>
            <trkpt lat="49.7956096" lon="9.8887728">
                <ele>169.0</ele>
                <time>2020-08-28T09:02:46.000Z</time>
                <name>Trackpoint 519</name>
            </trkpt>
            <trkpt lat="49.7956032" lon="9.8886768">
                <ele>169.0</ele>
                <time>2020-08-28T09:02:47.000Z</time>
                <name>Trackpoint 520</name>
            </trkpt>
            <trkpt lat="49.7956" lon="9.8885832">
                <ele>169.0</ele>
                <time>2020-08-28T09:02:48.000Z</time>
                <name>Trackpoint 521</name>
            </trkpt>
            <trkpt lat="49.7956128" lon="9.8884048">
                <ele>169.0</ele>
                <time>2020-08-28T09:02:50.000Z</time>
                <name>Trackpoint 522</name>
            </trkpt>
            <trkpt lat="49.7956288" lon="9.8882984">
                <ele>169.0</ele>
                <time>2020-08-28T09:02:51.000Z</time>
                <name>Trackpoint 523</name>
            </trkpt>
            <trkpt lat="49.7956416" lon="9.8881968">
                <ele>170.0</ele>
                <time>2020-08-28T09:02:52.000Z</time>
                <name>Trackpoint 524</name>
            </trkpt>
            <trkpt lat="49.795648" lon="9.8881064">
                <ele>170.0</ele>
                <time>2020-08-28T09:02:53.000Z</time>
                <name>Trackpoint 525</name>
            </trkpt>
            <trkpt lat="49.7956544" lon="9.8880128">
                <ele>170.0</ele>
                <time>2020-08-28T09:02:54.000Z</time>
                <name>Trackpoint 526</name>
            </trkpt>
            <trkpt lat="49.7956672" lon="9.8879168">
                <ele>170.0</ele>
                <time>2020-08-28T09:02:55.000Z</time>
                <name>Trackpoint 527</name>
            </trkpt>
            <trkpt lat="49.7956896" lon="9.88782">
                <ele>170.0</ele>
                <time>2020-08-28T09:02:56.000Z</time>
                <name>Trackpoint 528</name>
            </trkpt>
            <trkpt lat="49.795728" lon="9.88772">
                <ele>170.0</ele>
                <time>2020-08-28T09:02:57.000Z</time>
                <name>Trackpoint 529</name>
            </trkpt>
            <trkpt lat="49.7957728" lon="9.8876304">
                <ele>170.0</ele>
                <time>2020-08-28T09:02:58.000Z</time>
                <name>Trackpoint 530</name>
            </trkpt>
            <trkpt lat="49.7958112" lon="9.8875488">
                <ele>170.0</ele>
                <time>2020-08-28T09:02:59.000Z</time>
                <name>Trackpoint 531</name>
            </trkpt>
            <trkpt lat="49.7958752" lon="9.8874104">
                <ele>170.0</ele>
                <time>2020-08-28T09:03:01.000Z</time>
                <name>Trackpoint 532</name>
            </trkpt>
            <trkpt lat="49.7959456" lon="9.8872496">
                <ele>170.0</ele>
                <time>2020-08-28T09:03:03.000Z</time>
                <name>Trackpoint 533</name>
            </trkpt>
            <trkpt lat="49.796" lon="9.8870848">
                <ele>170.0</ele>
                <time>2020-08-28T09:03:05.000Z</time>
                <name>Trackpoint 534</name>
            </trkpt>
            <trkpt lat="49.796032" lon="9.886996">
                <ele>170.0</ele>
                <time>2020-08-28T09:03:06.000Z</time>
                <name>Trackpoint 535</name>
            </trkpt>
            <trkpt lat="49.796064" lon="9.8869064">
                <ele>170.0</ele>
                <time>2020-08-28T09:03:07.000Z</time>
                <name>Trackpoint 536</name>
            </trkpt>
            <trkpt lat="49.7961248" lon="9.886748">
                <ele>170.0</ele>
                <time>2020-08-28T09:03:09.000Z</time>
                <name>Trackpoint 537</name>
            </trkpt>
            <trkpt lat="49.7961728" lon="9.8865928">
                <ele>170.0</ele>
                <time>2020-08-28T09:03:11.000Z</time>
                <name>Trackpoint 538</name>
            </trkpt>
            <trkpt lat="49.796192" lon="9.8864968">
                <ele>170.0</ele>
                <time>2020-08-28T09:03:12.000Z</time>
                <name>Trackpoint 539</name>
            </trkpt>
            <trkpt lat="49.796208" lon="9.8863952">
                <ele>170.0</ele>
                <time>2020-08-28T09:03:13.000Z</time>
                <name>Trackpoint 540</name>
            </trkpt>
            <trkpt lat="49.7962272" lon="9.88628">
                <ele>170.0</ele>
                <time>2020-08-28T09:03:14.000Z</time>
                <name>Trackpoint 541</name>
            </trkpt>
            <trkpt lat="49.7962528" lon="9.8861848">
                <ele>170.0</ele>
                <time>2020-08-28T09:03:15.000Z</time>
                <name>Trackpoint 542</name>
            </trkpt>
            <trkpt lat="49.7962784" lon="9.8860952">
                <ele>170.0</ele>
                <time>2020-08-28T09:03:16.000Z</time>
                <name>Trackpoint 543</name>
            </trkpt>
            <trkpt lat="49.796304" lon="9.885952">
                <ele>170.0</ele>
                <time>2020-08-28T09:03:18.000Z</time>
                <name>Trackpoint 544</name>
            </trkpt>
            <trkpt lat="49.7963424" lon="9.8858616">
                <ele>170.0</ele>
                <time>2020-08-28T09:03:19.000Z</time>
                <name>Trackpoint 545</name>
            </trkpt>
            <trkpt lat="49.7963904" lon="9.8857768">
                <ele>170.0</ele>
                <time>2020-08-28T09:03:20.000Z</time>
                <name>Trackpoint 546</name>
            </trkpt>
            <trkpt lat="49.7964256" lon="9.8856936">
                <ele>170.0</ele>
                <time>2020-08-28T09:03:21.000Z</time>
                <name>Trackpoint 547</name>
            </trkpt>
            <trkpt lat="49.7964928" lon="9.8855488">
                <ele>171.0</ele>
                <time>2020-08-28T09:03:23.000Z</time>
                <name>Trackpoint 548</name>
            </trkpt>
            <trkpt lat="49.7965696" lon="9.8853928">
                <ele>171.0</ele>
                <time>2020-08-28T09:03:25.000Z</time>
                <name>Trackpoint 549</name>
            </trkpt>
            <trkpt lat="49.7966496" lon="9.8852384">
                <ele>171.0</ele>
                <time>2020-08-28T09:03:27.000Z</time>
                <name>Trackpoint 550</name>
            </trkpt>
            <trkpt lat="49.7966848" lon="9.885148">
                <ele>171.0</ele>
                <time>2020-08-28T09:03:28.000Z</time>
                <name>Trackpoint 551</name>
            </trkpt>
            <trkpt lat="49.7967424" lon="9.88498">
                <ele>171.0</ele>
                <time>2020-08-28T09:03:30.000Z</time>
                <name>Trackpoint 552</name>
            </trkpt>
            <trkpt lat="49.7967744" lon="9.8848952">
                <ele>171.0</ele>
                <time>2020-08-28T09:03:31.000Z</time>
                <name>Trackpoint 553</name>
            </trkpt>
            <trkpt lat="49.7968064" lon="9.8848048">
                <ele>171.0</ele>
                <time>2020-08-28T09:03:32.000Z</time>
                <name>Trackpoint 554</name>
            </trkpt>
            <trkpt lat="49.7968384" lon="9.8847176">
                <ele>171.0</ele>
                <time>2020-08-28T09:03:33.000Z</time>
                <name>Trackpoint 555</name>
            </trkpt>
            <trkpt lat="49.7968672" lon="9.884632">
                <ele>171.0</ele>
                <time>2020-08-28T09:03:34.000Z</time>
                <name>Trackpoint 556</name>
            </trkpt>
            <trkpt lat="49.7968992" lon="9.8845432">
                <ele>171.0</ele>
                <time>2020-08-28T09:03:35.000Z</time>
                <name>Trackpoint 557</name>
            </trkpt>
            <trkpt lat="49.7969312" lon="9.8844536">
                <ele>171.0</ele>
                <time>2020-08-28T09:03:36.000Z</time>
                <name>Trackpoint 558</name>
            </trkpt>
            <trkpt lat="49.7970272" lon="9.8843">
                <ele>171.0</ele>
                <time>2020-08-28T09:03:38.000Z</time>
                <name>Trackpoint 559</name>
            </trkpt>
            <trkpt lat="49.7971392" lon="9.8841712">
                <ele>171.0</ele>
                <time>2020-08-28T09:03:40.000Z</time>
                <name>Trackpoint 560</name>
            </trkpt>
            <trkpt lat="49.797248" lon="9.8840512">
                <ele>171.0</ele>
                <time>2020-08-28T09:03:42.000Z</time>
                <name>Trackpoint 561</name>
            </trkpt>
            <trkpt lat="49.7973472" lon="9.8839016">
                <ele>171.0</ele>
                <time>2020-08-28T09:03:44.000Z</time>
                <name>Trackpoint 562</name>
            </trkpt>
            <trkpt lat="49.7974432" lon="9.8837616">
                <ele>171.0</ele>
                <time>2020-08-28T09:03:46.000Z</time>
                <name>Trackpoint 563</name>
            </trkpt>
            <trkpt lat="49.7975264" lon="9.8836184">
                <ele>172.0</ele>
                <time>2020-08-28T09:03:48.000Z</time>
                <name>Trackpoint 564</name>
            </trkpt>
            <trkpt lat="49.7976032" lon="9.8834632">
                <ele>171.0</ele>
                <time>2020-08-28T09:03:50.000Z</time>
                <name>Trackpoint 565</name>
            </trkpt>
            <trkpt lat="49.7976736" lon="9.8833016">
                <ele>171.0</ele>
                <time>2020-08-28T09:03:52.000Z</time>
                <name>Trackpoint 566</name>
            </trkpt>
            <trkpt lat="49.7977472" lon="9.883148">
                <ele>171.0</ele>
                <time>2020-08-28T09:03:54.000Z</time>
                <name>Trackpoint 567</name>
            </trkpt>
            <trkpt lat="49.7978144" lon="9.882988">
                <ele>171.0</ele>
                <time>2020-08-28T09:03:56.000Z</time>
                <name>Trackpoint 568</name>
            </trkpt>
            <trkpt lat="49.7978528" lon="9.8829048">
                <ele>171.0</ele>
                <time>2020-08-28T09:03:57.000Z</time>
                <name>Trackpoint 569</name>
            </trkpt>
            <trkpt lat="49.7979136" lon="9.88276">
                <ele>171.0</ele>
                <time>2020-08-28T09:03:59.000Z</time>
                <name>Trackpoint 570</name>
            </trkpt>
            <trkpt lat="49.797984" lon="9.8826552">
                <ele>171.0</ele>
                <time>2020-08-28T09:04:01.000Z</time>
                <name>Trackpoint 571</name>
            </trkpt>
            <trkpt lat="49.7980448" lon="9.8825616">
                <ele>171.0</ele>
                <time>2020-08-28T09:04:03.000Z</time>
                <name>Trackpoint 572</name>
            </trkpt>
            <trkpt lat="49.7981344" lon="9.8824416">
                <ele>171.0</ele>
                <time>2020-08-28T09:04:06.000Z</time>
                <name>Trackpoint 573</name>
            </trkpt>
            <trkpt lat="49.7982208" lon="9.8823496">
                <ele>171.0</ele>
                <time>2020-08-28T09:04:08.000Z</time>
                <name>Trackpoint 574</name>
            </trkpt>
            <trkpt lat="49.7983232" lon="9.8822272">
                <ele>171.0</ele>
                <time>2020-08-28T09:04:10.000Z</time>
                <name>Trackpoint 575</name>
            </trkpt>
            <trkpt lat="49.7984096" lon="9.8821336">
                <ele>171.0</ele>
                <time>2020-08-28T09:04:12.000Z</time>
                <name>Trackpoint 576</name>
            </trkpt>
            <trkpt lat="49.7985408" lon="9.8820048">
                <ele>171.0</ele>
                <time>2020-08-28T09:04:14.000Z</time>
                <name>Trackpoint 577</name>
            </trkpt>
            <trkpt lat="49.7986336" lon="9.8818752">
                <ele>171.0</ele>
                <time>2020-08-28T09:04:16.000Z</time>
                <name>Trackpoint 578</name>
            </trkpt>
            <trkpt lat="49.79872" lon="9.8817616">
                <ele>171.0</ele>
                <time>2020-08-28T09:04:18.000Z</time>
                <name>Trackpoint 579</name>
            </trkpt>
            <trkpt lat="49.7988064" lon="9.8816656">
                <ele>171.0</ele>
                <time>2020-08-28T09:04:20.000Z</time>
                <name>Trackpoint 580</name>
            </trkpt>
            <trkpt lat="49.7988736" lon="9.8815536">
                <ele>171.0</ele>
                <time>2020-08-28T09:04:22.000Z</time>
                <name>Trackpoint 581</name>
            </trkpt>
            <trkpt lat="49.798944" lon="9.8814384">
                <ele>171.0</ele>
                <time>2020-08-28T09:04:24.000Z</time>
                <name>Trackpoint 582</name>
            </trkpt>
            <trkpt lat="49.7990368" lon="9.8813384">
                <ele>171.0</ele>
                <time>2020-08-28T09:04:26.000Z</time>
                <name>Trackpoint 583</name>
            </trkpt>
            <trkpt lat="49.7991328" lon="9.8812304">
                <ele>171.0</ele>
                <time>2020-08-28T09:04:28.000Z</time>
                <name>Trackpoint 584</name>
            </trkpt>
            <trkpt lat="49.7992352" lon="9.8811352">
                <ele>171.0</ele>
                <time>2020-08-28T09:04:30.000Z</time>
                <name>Trackpoint 585</name>
            </trkpt>
            <trkpt lat="49.799344" lon="9.8810328">
                <ele>171.0</ele>
                <time>2020-08-28T09:04:32.000Z</time>
                <name>Trackpoint 586</name>
            </trkpt>
            <trkpt lat="49.7994624" lon="9.8809344">
                <ele>171.0</ele>
                <time>2020-08-28T09:04:34.000Z</time>
                <name>Trackpoint 587</name>
            </trkpt>
            <trkpt lat="49.7995392" lon="9.8808832">
                <ele>171.0</ele>
                <time>2020-08-28T09:04:35.000Z</time>
                <name>Trackpoint 588</name>
            </trkpt>
            <trkpt lat="49.7996384" lon="9.8807752">
                <ele>171.0</ele>
                <time>2020-08-28T09:04:37.000Z</time>
                <name>Trackpoint 589</name>
            </trkpt>
            <trkpt lat="49.7997312" lon="9.8806688">
                <ele>171.0</ele>
                <time>2020-08-28T09:04:39.000Z</time>
                <name>Trackpoint 590</name>
            </trkpt>
            <trkpt lat="49.7998048" lon="9.8806168">
                <ele>172.0</ele>
                <time>2020-08-28T09:04:40.000Z</time>
                <name>Trackpoint 591</name>
            </trkpt>
            <trkpt lat="49.7999072" lon="9.8805064">
                <ele>172.0</ele>
                <time>2020-08-28T09:04:42.000Z</time>
                <name>Trackpoint 592</name>
            </trkpt>
            <trkpt lat="49.8" lon="9.8804056">
                <ele>172.0</ele>
                <time>2020-08-28T09:04:44.000Z</time>
                <name>Trackpoint 593</name>
            </trkpt>
            <trkpt lat="49.8000896" lon="9.8803304">
                <ele>172.0</ele>
                <time>2020-08-28T09:04:46.000Z</time>
                <name>Trackpoint 594</name>
            </trkpt>
            <trkpt lat="49.8001888" lon="9.8802856">
                <ele>172.0</ele>
                <time>2020-08-28T09:04:48.000Z</time>
                <name>Trackpoint 595</name>
            </trkpt>
            <trkpt lat="49.8002976" lon="9.8802368">
                <ele>172.0</ele>
                <time>2020-08-28T09:04:50.000Z</time>
                <name>Trackpoint 596</name>
            </trkpt>
            <trkpt lat="49.800384" lon="9.880168">
                <ele>172.0</ele>
                <time>2020-08-28T09:04:52.000Z</time>
                <name>Trackpoint 597</name>
            </trkpt>
            <trkpt lat="49.8005024" lon="9.8801816">
                <ele>172.0</ele>
                <time>2020-08-28T09:04:54.000Z</time>
                <name>Trackpoint 598</name>
            </trkpt>
            <trkpt lat="49.800656" lon="9.88012">
                <ele>172.0</ele>
                <time>2020-08-28T09:04:57.000Z</time>
                <name>Trackpoint 599</name>
            </trkpt>
            <trkpt lat="49.8007168" lon="9.8800432">
                <ele>172.0</ele>
                <time>2020-08-28T09:05:00.000Z</time>
                <name>Trackpoint 600</name>
            </trkpt>
            <trkpt lat="49.8007936" lon="9.8799648">
                <ele>172.0</ele>
                <time>2020-08-28T09:05:02.000Z</time>
                <name>Trackpoint 601</name>
            </trkpt>
            <trkpt lat="49.8009184" lon="9.8799152">
                <ele>172.0</ele>
                <time>2020-08-28T09:05:04.000Z</time>
                <name>Trackpoint 602</name>
            </trkpt>
            <trkpt lat="49.80104" lon="9.879884">
                <ele>172.0</ele>
                <time>2020-08-28T09:05:06.000Z</time>
                <name>Trackpoint 603</name>
            </trkpt>
            <trkpt lat="49.8011616" lon="9.879864">
                <ele>172.0</ele>
                <time>2020-08-28T09:05:08.000Z</time>
                <name>Trackpoint 604</name>
            </trkpt>
            <trkpt lat="49.8012736" lon="9.8798304">
                <ele>172.0</ele>
                <time>2020-08-28T09:05:10.000Z</time>
                <name>Trackpoint 605</name>
            </trkpt>
            <trkpt lat="49.801376" lon="9.879768">
                <ele>172.0</ele>
                <time>2020-08-28T09:05:12.000Z</time>
                <name>Trackpoint 606</name>
            </trkpt>
            <trkpt lat="49.8015104" lon="9.8797256">
                <ele>173.0</ele>
                <time>2020-08-28T09:05:14.000Z</time>
                <name>Trackpoint 607</name>
            </trkpt>
            <trkpt lat="49.8016512" lon="9.8797016">
                <ele>173.0</ele>
                <time>2020-08-28T09:05:16.000Z</time>
                <name>Trackpoint 608</name>
            </trkpt>
            <trkpt lat="49.8017952" lon="9.8796464">
                <ele>173.0</ele>
                <time>2020-08-28T09:05:18.000Z</time>
                <name>Trackpoint 609</name>
            </trkpt>
            <trkpt lat="49.8018688" lon="9.8795832">
                <ele>173.0</ele>
                <time>2020-08-28T09:05:19.000Z</time>
                <name>Trackpoint 610</name>
            </trkpt>
            <trkpt lat="49.802048" lon="9.8795096">
                <ele>173.0</ele>
                <time>2020-08-28T09:05:21.000Z</time>
                <name>Trackpoint 611</name>
            </trkpt>
            <trkpt lat="49.802144" lon="9.8794896">
                <ele>174.0</ele>
                <time>2020-08-28T09:05:22.000Z</time>
                <name>Trackpoint 612</name>
            </trkpt>
            <trkpt lat="49.8022752" lon="9.8794472">
                <ele>174.0</ele>
                <time>2020-08-28T09:05:24.000Z</time>
                <name>Trackpoint 613</name>
            </trkpt>
            <trkpt lat="49.8024288" lon="9.8793824">
                <ele>174.0</ele>
                <time>2020-08-28T09:05:26.000Z</time>
                <name>Trackpoint 614</name>
            </trkpt>
            <trkpt lat="49.8025472" lon="9.8793152">
                <ele>175.0</ele>
                <time>2020-08-28T09:05:28.000Z</time>
                <name>Trackpoint 615</name>
            </trkpt>
            <trkpt lat="49.8026592" lon="9.8792312">
                <ele>175.0</ele>
                <time>2020-08-28T09:05:30.000Z</time>
                <name>Trackpoint 616</name>
            </trkpt>
            <trkpt lat="49.8027648" lon="9.8791536">
                <ele>175.0</ele>
                <time>2020-08-28T09:05:32.000Z</time>
                <name>Trackpoint 617</name>
            </trkpt>
            <trkpt lat="49.8028832" lon="9.8790728">
                <ele>176.0</ele>
                <time>2020-08-28T09:05:34.000Z</time>
                <name>Trackpoint 618</name>
            </trkpt>
            <trkpt lat="49.8029952" lon="9.8789904">
                <ele>176.0</ele>
                <time>2020-08-28T09:05:36.000Z</time>
                <name>Trackpoint 619</name>
            </trkpt>
            <trkpt lat="49.803104" lon="9.8788992">
                <ele>176.0</ele>
                <time>2020-08-28T09:05:38.000Z</time>
                <name>Trackpoint 620</name>
            </trkpt>
            <trkpt lat="49.803216" lon="9.8788136">
                <ele>176.0</ele>
                <time>2020-08-28T09:05:40.000Z</time>
                <name>Trackpoint 621</name>
            </trkpt>
            <trkpt lat="49.8033152" lon="9.8787136">
                <ele>176.0</ele>
                <time>2020-08-28T09:05:42.000Z</time>
                <name>Trackpoint 622</name>
            </trkpt>
            <trkpt lat="49.803424" lon="9.8786032">
                <ele>176.0</ele>
                <time>2020-08-28T09:05:44.000Z</time>
                <name>Trackpoint 623</name>
            </trkpt>
            <trkpt lat="49.8035232" lon="9.878484">
                <ele>176.0</ele>
                <time>2020-08-28T09:05:46.000Z</time>
                <name>Trackpoint 624</name>
            </trkpt>
            <trkpt lat="49.803616" lon="9.8783648">
                <ele>175.0</ele>
                <time>2020-08-28T09:05:48.000Z</time>
                <name>Trackpoint 625</name>
            </trkpt>
            <trkpt lat="49.803712" lon="9.8782464">
                <ele>175.0</ele>
                <time>2020-08-28T09:05:50.000Z</time>
                <name>Trackpoint 626</name>
            </trkpt>
            <trkpt lat="49.8038176" lon="9.8781344">
                <ele>175.0</ele>
                <time>2020-08-28T09:05:52.000Z</time>
                <name>Trackpoint 627</name>
            </trkpt>
            <trkpt lat="49.803904" lon="9.87802">
                <ele>175.0</ele>
                <time>2020-08-28T09:05:54.000Z</time>
                <name>Trackpoint 628</name>
            </trkpt>
            <trkpt lat="49.8039904" lon="9.8779024">
                <ele>175.0</ele>
                <time>2020-08-28T09:05:56.000Z</time>
                <name>Trackpoint 629</name>
            </trkpt>
            <trkpt lat="49.8040576" lon="9.8777704">
                <ele>175.0</ele>
                <time>2020-08-28T09:05:58.000Z</time>
                <name>Trackpoint 630</name>
            </trkpt>
            <trkpt lat="49.8040704" lon="9.8776752">
                <ele>175.0</ele>
                <time>2020-08-28T09:05:59.000Z</time>
                <name>Trackpoint 631</name>
            </trkpt>
            <trkpt lat="49.8041792" lon="9.8775504">
                <ele>175.0</ele>
                <time>2020-08-28T09:06:01.000Z</time>
                <name>Trackpoint 632</name>
            </trkpt>
            <trkpt lat="49.8043072" lon="9.8774584">
                <ele>175.0</ele>
                <time>2020-08-28T09:06:03.000Z</time>
                <name>Trackpoint 633</name>
            </trkpt>
            <trkpt lat="49.8044128" lon="9.8773696">
                <ele>175.0</ele>
                <time>2020-08-28T09:06:05.000Z</time>
                <name>Trackpoint 634</name>
            </trkpt>
            <trkpt lat="49.8045088" lon="9.87726">
                <ele>174.0</ele>
                <time>2020-08-28T09:06:07.000Z</time>
                <name>Trackpoint 635</name>
            </trkpt>
            <trkpt lat="49.8046048" lon="9.8771552">
                <ele>174.0</ele>
                <time>2020-08-28T09:06:09.000Z</time>
                <name>Trackpoint 636</name>
            </trkpt>
            <trkpt lat="49.804704" lon="9.8770368">
                <ele>174.0</ele>
                <time>2020-08-28T09:06:11.000Z</time>
                <name>Trackpoint 637</name>
            </trkpt>
            <trkpt lat="49.8048032" lon="9.8769256">
                <ele>174.0</ele>
                <time>2020-08-28T09:06:13.000Z</time>
                <name>Trackpoint 638</name>
            </trkpt>
            <trkpt lat="49.804896" lon="9.8768128">
                <ele>174.0</ele>
                <time>2020-08-28T09:06:15.000Z</time>
                <name>Trackpoint 639</name>
            </trkpt>
            <trkpt lat="49.8049952" lon="9.8767032">
                <ele>174.0</ele>
                <time>2020-08-28T09:06:17.000Z</time>
                <name>Trackpoint 640</name>
            </trkpt>
            <trkpt lat="49.8050848" lon="9.8765848">
                <ele>173.0</ele>
                <time>2020-08-28T09:06:19.000Z</time>
                <name>Trackpoint 641</name>
            </trkpt>
            <trkpt lat="49.8051808" lon="9.8764832">
                <ele>173.0</ele>
                <time>2020-08-28T09:06:21.000Z</time>
                <name>Trackpoint 642</name>
            </trkpt>
            <trkpt lat="49.8052672" lon="9.8763736">
                <ele>173.0</ele>
                <time>2020-08-28T09:06:23.000Z</time>
                <name>Trackpoint 643</name>
            </trkpt>
            <trkpt lat="49.8053504" lon="9.8762512">
                <ele>173.0</ele>
                <time>2020-08-28T09:06:25.000Z</time>
                <name>Trackpoint 644</name>
            </trkpt>
            <trkpt lat="49.8054304" lon="9.8761432">
                <ele>173.0</ele>
                <time>2020-08-28T09:06:27.000Z</time>
                <name>Trackpoint 645</name>
            </trkpt>
            <trkpt lat="49.8055232" lon="9.876052">
                <ele>173.0</ele>
                <time>2020-08-28T09:06:29.000Z</time>
                <name>Trackpoint 646</name>
            </trkpt>
            <trkpt lat="49.805632" lon="9.8759584">
                <ele>173.0</ele>
                <time>2020-08-28T09:06:31.000Z</time>
                <name>Trackpoint 647</name>
            </trkpt>
            <trkpt lat="49.805728" lon="9.8758672">
                <ele>173.0</ele>
                <time>2020-08-28T09:06:33.000Z</time>
                <name>Trackpoint 648</name>
            </trkpt>
            <trkpt lat="49.8058368" lon="9.8757824">
                <ele>173.0</ele>
                <time>2020-08-28T09:06:35.000Z</time>
                <name>Trackpoint 649</name>
            </trkpt>
            <trkpt lat="49.8059392" lon="9.8757088">
                <ele>173.0</ele>
                <time>2020-08-28T09:06:37.000Z</time>
                <name>Trackpoint 650</name>
            </trkpt>
            <trkpt lat="49.8060448" lon="9.87564">
                <ele>173.0</ele>
                <time>2020-08-28T09:06:39.000Z</time>
                <name>Trackpoint 651</name>
            </trkpt>
            <trkpt lat="49.8061472" lon="9.87558">
                <ele>172.0</ele>
                <time>2020-08-28T09:06:41.000Z</time>
                <name>Trackpoint 652</name>
            </trkpt>
            <trkpt lat="49.80624" lon="9.8755264">
                <ele>172.0</ele>
                <time>2020-08-28T09:06:43.000Z</time>
                <name>Trackpoint 653</name>
            </trkpt>
            <trkpt lat="49.8063328" lon="9.875472">
                <ele>172.0</ele>
                <time>2020-08-28T09:06:45.000Z</time>
                <name>Trackpoint 654</name>
            </trkpt>
            <trkpt lat="49.8064128" lon="9.8754104">
                <ele>171.0</ele>
                <time>2020-08-28T09:06:47.000Z</time>
                <name>Trackpoint 655</name>
            </trkpt>
            <trkpt lat="49.8064928" lon="9.8753584">
                <ele>171.0</ele>
                <time>2020-08-28T09:06:49.000Z</time>
                <name>Trackpoint 656</name>
            </trkpt>
            <trkpt lat="49.8065696" lon="9.8753096">
                <ele>170.0</ele>
                <time>2020-08-28T09:06:51.000Z</time>
                <name>Trackpoint 657</name>
            </trkpt>
            <trkpt lat="49.8066752" lon="9.8752384">
                <ele>170.0</ele>
                <time>2020-08-28T09:06:54.000Z</time>
                <name>Trackpoint 658</name>
            </trkpt>
            <trkpt lat="49.8067808" lon="9.8751632">
                <ele>169.0</ele>
                <time>2020-08-28T09:06:57.000Z</time>
                <name>Trackpoint 659</name>
            </trkpt>
            <trkpt lat="49.8068672" lon="9.8751152">
                <ele>169.0</ele>
                <time>2020-08-28T09:06:59.000Z</time>
                <name>Trackpoint 660</name>
            </trkpt>
            <trkpt lat="49.8069504" lon="9.8750688">
                <ele>169.0</ele>
                <time>2020-08-28T09:07:01.000Z</time>
                <name>Trackpoint 661</name>
            </trkpt>
            <trkpt lat="49.8070272" lon="9.8750184">
                <ele>169.0</ele>
                <time>2020-08-28T09:07:03.000Z</time>
                <name>Trackpoint 662</name>
            </trkpt>
            <trkpt lat="49.807136" lon="9.8749384">
                <ele>169.0</ele>
                <time>2020-08-28T09:07:06.000Z</time>
                <name>Trackpoint 663</name>
            </trkpt>
            <trkpt lat="49.807216" lon="9.8748904">
                <ele>169.0</ele>
                <time>2020-08-28T09:07:08.000Z</time>
                <name>Trackpoint 664</name>
            </trkpt>
            <trkpt lat="49.807296" lon="9.8748376">
                <ele>169.0</ele>
                <time>2020-08-28T09:07:10.000Z</time>
                <name>Trackpoint 665</name>
            </trkpt>
            <trkpt lat="49.8073728" lon="9.874788">
                <ele>169.0</ele>
                <time>2020-08-28T09:07:12.000Z</time>
                <name>Trackpoint 666</name>
            </trkpt>
            <trkpt lat="49.8074528" lon="9.87474">
                <ele>169.0</ele>
                <time>2020-08-28T09:07:14.000Z</time>
                <name>Trackpoint 667</name>
            </trkpt>
            <trkpt lat="49.807568" lon="9.874672">
                <ele>169.0</ele>
                <time>2020-08-28T09:07:17.000Z</time>
                <name>Trackpoint 668</name>
            </trkpt>
            <trkpt lat="49.8076544" lon="9.8746384">
                <ele>169.0</ele>
                <time>2020-08-28T09:07:19.000Z</time>
                <name>Trackpoint 669</name>
            </trkpt>
            <trkpt lat="49.807776" lon="9.8745736">
                <ele>169.0</ele>
                <time>2020-08-28T09:07:22.000Z</time>
                <name>Trackpoint 670</name>
            </trkpt>
            <trkpt lat="49.807872" lon="9.8745296">
                <ele>169.0</ele>
                <time>2020-08-28T09:07:24.000Z</time>
                <name>Trackpoint 671</name>
            </trkpt>
            <trkpt lat="49.8079712" lon="9.8744744">
                <ele>169.0</ele>
                <time>2020-08-28T09:07:26.000Z</time>
                <name>Trackpoint 672</name>
            </trkpt>
            <trkpt lat="49.8080736" lon="9.874416">
                <ele>169.0</ele>
                <time>2020-08-28T09:07:28.000Z</time>
                <name>Trackpoint 673</name>
            </trkpt>
            <trkpt lat="49.8081792" lon="9.8743688">
                <ele>168.0</ele>
                <time>2020-08-28T09:07:30.000Z</time>
                <name>Trackpoint 674</name>
            </trkpt>
            <trkpt lat="49.8082688" lon="9.8743112">
                <ele>168.0</ele>
                <time>2020-08-28T09:07:32.000Z</time>
                <name>Trackpoint 675</name>
            </trkpt>
            <trkpt lat="49.8083648" lon="9.8742584">
                <ele>168.0</ele>
                <time>2020-08-28T09:07:34.000Z</time>
                <name>Trackpoint 676</name>
            </trkpt>
            <trkpt lat="49.8084864" lon="9.87422">
                <ele>169.0</ele>
                <time>2020-08-28T09:07:36.000Z</time>
                <name>Trackpoint 677</name>
            </trkpt>
            <trkpt lat="49.8085888" lon="9.874168">
                <ele>169.0</ele>
                <time>2020-08-28T09:07:38.000Z</time>
                <name>Trackpoint 678</name>
            </trkpt>
            <trkpt lat="49.8086976" lon="9.8741248">
                <ele>169.0</ele>
                <time>2020-08-28T09:07:40.000Z</time>
                <name>Trackpoint 679</name>
            </trkpt>
            <trkpt lat="49.8088" lon="9.8740728">
                <ele>169.0</ele>
                <time>2020-08-28T09:07:42.000Z</time>
                <name>Trackpoint 680</name>
            </trkpt>
            <trkpt lat="49.8089056" lon="9.87404">
                <ele>169.0</ele>
                <time>2020-08-28T09:07:44.000Z</time>
                <name>Trackpoint 681</name>
            </trkpt>
            <trkpt lat="49.8090144" lon="9.87402">
                <ele>169.0</ele>
                <time>2020-08-28T09:07:46.000Z</time>
                <name>Trackpoint 682</name>
            </trkpt>
            <trkpt lat="49.8091168" lon="9.8739928">
                <ele>169.0</ele>
                <time>2020-08-28T09:07:48.000Z</time>
                <name>Trackpoint 683</name>
            </trkpt>
            <trkpt lat="49.809232" lon="9.8739544">
                <ele>169.0</ele>
                <time>2020-08-28T09:07:50.000Z</time>
                <name>Trackpoint 684</name>
            </trkpt>
            <trkpt lat="49.809344" lon="9.8739072">
                <ele>169.0</ele>
                <time>2020-08-28T09:07:52.000Z</time>
                <name>Trackpoint 685</name>
            </trkpt>
            <trkpt lat="49.8094624" lon="9.8738768">
                <ele>169.0</ele>
                <time>2020-08-28T09:07:54.000Z</time>
                <name>Trackpoint 686</name>
            </trkpt>
            <trkpt lat="49.8095808" lon="9.8738336">
                <ele>169.0</ele>
                <time>2020-08-28T09:07:56.000Z</time>
                <name>Trackpoint 687</name>
            </trkpt>
            <trkpt lat="49.8096832" lon="9.8737984">
                <ele>169.0</ele>
                <time>2020-08-28T09:07:58.000Z</time>
                <name>Trackpoint 688</name>
            </trkpt>
            <trkpt lat="49.8097824" lon="9.8737552">
                <ele>169.0</ele>
                <time>2020-08-28T09:08:00.000Z</time>
                <name>Trackpoint 689</name>
            </trkpt>
            <trkpt lat="49.8098976" lon="9.8736984">
                <ele>169.0</ele>
                <time>2020-08-28T09:08:02.000Z</time>
                <name>Trackpoint 690</name>
            </trkpt>
            <trkpt lat="49.8100128" lon="9.8736384">
                <ele>169.0</ele>
                <time>2020-08-28T09:08:04.000Z</time>
                <name>Trackpoint 691</name>
            </trkpt>
            <trkpt lat="49.810128" lon="9.8735984">
                <ele>169.0</ele>
                <time>2020-08-28T09:08:06.000Z</time>
                <name>Trackpoint 692</name>
            </trkpt>
            <trkpt lat="49.8102432" lon="9.8735584">
                <ele>169.0</ele>
                <time>2020-08-28T09:08:08.000Z</time>
                <name>Trackpoint 693</name>
            </trkpt>
            <trkpt lat="49.8103424" lon="9.8735088">
                <ele>169.0</ele>
                <time>2020-08-28T09:08:10.000Z</time>
                <name>Trackpoint 694</name>
            </trkpt>
            <trkpt lat="49.8104512" lon="9.8734512">
                <ele>169.0</ele>
                <time>2020-08-28T09:08:12.000Z</time>
                <name>Trackpoint 695</name>
            </trkpt>
            <trkpt lat="49.8105568" lon="9.87342">
                <ele>169.0</ele>
                <time>2020-08-28T09:08:14.000Z</time>
                <name>Trackpoint 696</name>
            </trkpt>
            <trkpt lat="49.8106624" lon="9.8733856">
                <ele>170.0</ele>
                <time>2020-08-28T09:08:16.000Z</time>
                <name>Trackpoint 697</name>
            </trkpt>
            <trkpt lat="49.810784" lon="9.8733528">
                <ele>169.0</ele>
                <time>2020-08-28T09:08:18.000Z</time>
                <name>Trackpoint 698</name>
            </trkpt>
            <trkpt lat="49.8108992" lon="9.8733104">
                <ele>169.0</ele>
                <time>2020-08-28T09:08:20.000Z</time>
                <name>Trackpoint 699</name>
            </trkpt>
            <trkpt lat="49.8109824" lon="9.8732752">
                <ele>170.0</ele>
                <time>2020-08-28T09:08:22.000Z</time>
                <name>Trackpoint 700</name>
            </trkpt>
            <trkpt lat="49.811088" lon="9.8732296">
                <ele>170.0</ele>
                <time>2020-08-28T09:08:24.000Z</time>
                <name>Trackpoint 701</name>
            </trkpt>
            <trkpt lat="49.8111872" lon="9.8732016">
                <ele>170.0</ele>
                <time>2020-08-28T09:08:27.000Z</time>
                <name>Trackpoint 702</name>
            </trkpt>
            <trkpt lat="49.8114272" lon="9.8731848">
                <ele>170.0</ele>
                <time>2020-08-28T09:10:41.000Z</time>
                <name>Trackpoint 718</name>
            </trkpt>
            <trkpt lat="49.811536" lon="9.873152">
                <ele>170.0</ele>
                <time>2020-08-28T09:11:00.000Z</time>
                <name>Trackpoint 719</name>
            </trkpt>
            <trkpt lat="49.811648" lon="9.873108">
                <ele>170.0</ele>
                <time>2020-08-28T09:11:04.000Z</time>
                <name>Trackpoint 720</name>
            </trkpt>
            <trkpt lat="49.81176" lon="9.87306">
                <ele>170.0</ele>
                <time>2020-08-28T09:11:07.000Z</time>
                <name>Trackpoint 721</name>
            </trkpt>
            <trkpt lat="49.811856" lon="9.8730112">
                <ele>170.0</ele>
                <time>2020-08-28T09:11:10.000Z</time>
                <name>Trackpoint 722</name>
            </trkpt>
            <trkpt lat="49.8119648" lon="9.8729864">
                <ele>170.0</ele>
                <time>2020-08-28T09:11:13.000Z</time>
                <name>Trackpoint 723</name>
            </trkpt>
            <trkpt lat="49.8120832" lon="9.8729488">
                <ele>170.0</ele>
                <time>2020-08-28T09:11:16.000Z</time>
                <name>Trackpoint 724</name>
            </trkpt>
            <trkpt lat="49.812176" lon="9.8729048">
                <ele>170.0</ele>
                <time>2020-08-28T09:11:18.000Z</time>
                <name>Trackpoint 725</name>
            </trkpt>
            <trkpt lat="49.8122624" lon="9.8728752">
                <ele>170.0</ele>
                <time>2020-08-28T09:11:20.000Z</time>
                <name>Trackpoint 726</name>
            </trkpt>
            <trkpt lat="49.812368" lon="9.8728536">
                <ele>170.0</ele>
                <time>2020-08-28T09:11:22.000Z</time>
                <name>Trackpoint 727</name>
            </trkpt>
            <trkpt lat="49.8124576" lon="9.8728304">
                <ele>170.0</ele>
                <time>2020-08-28T09:11:24.000Z</time>
                <name>Trackpoint 728</name>
            </trkpt>
            <trkpt lat="49.8125504" lon="9.872804">
                <ele>170.0</ele>
                <time>2020-08-28T09:11:26.000Z</time>
                <name>Trackpoint 729</name>
            </trkpt>
            <trkpt lat="49.8126528" lon="9.8727752">
                <ele>170.0</ele>
                <time>2020-08-28T09:11:28.000Z</time>
                <name>Trackpoint 730</name>
            </trkpt>
            <trkpt lat="49.8127584" lon="9.87274">
                <ele>170.0</ele>
                <time>2020-08-28T09:11:30.000Z</time>
                <name>Trackpoint 731</name>
            </trkpt>
            <trkpt lat="49.8128672" lon="9.8726952">
                <ele>170.0</ele>
                <time>2020-08-28T09:11:32.000Z</time>
                <name>Trackpoint 732</name>
            </trkpt>
            <trkpt lat="49.8129696" lon="9.872628">
                <ele>170.0</ele>
                <time>2020-08-28T09:11:34.000Z</time>
                <name>Trackpoint 733</name>
            </trkpt>
            <trkpt lat="49.8130784" lon="9.8725856">
                <ele>170.0</ele>
                <time>2020-08-28T09:11:36.000Z</time>
                <name>Trackpoint 734</name>
            </trkpt>
            <trkpt lat="49.8132128" lon="9.8725544">
                <ele>170.0</ele>
                <time>2020-08-28T09:11:38.000Z</time>
                <name>Trackpoint 735</name>
            </trkpt>
            <trkpt lat="49.8133152" lon="9.8725096">
                <ele>170.0</ele>
                <time>2020-08-28T09:11:40.000Z</time>
                <name>Trackpoint 736</name>
            </trkpt>
            <trkpt lat="49.8134464" lon="9.8724672">
                <ele>170.0</ele>
                <time>2020-08-28T09:11:42.000Z</time>
                <name>Trackpoint 737</name>
            </trkpt>
            <trkpt lat="49.8135456" lon="9.8724336">
                <ele>170.0</ele>
                <time>2020-08-28T09:11:44.000Z</time>
                <name>Trackpoint 738</name>
            </trkpt>
            <trkpt lat="49.8136544" lon="9.8724144">
                <ele>170.0</ele>
                <time>2020-08-28T09:11:46.000Z</time>
                <name>Trackpoint 739</name>
            </trkpt>
            <trkpt lat="49.8137664" lon="9.87238">
                <ele>170.0</ele>
                <time>2020-08-28T09:11:48.000Z</time>
                <name>Trackpoint 740</name>
            </trkpt>
            <trkpt lat="49.8138784" lon="9.8723648">
                <ele>169.0</ele>
                <time>2020-08-28T09:11:50.000Z</time>
                <name>Trackpoint 741</name>
            </trkpt>
            <trkpt lat="49.8140032" lon="9.872352">
                <ele>170.0</ele>
                <time>2020-08-28T09:11:52.000Z</time>
                <name>Trackpoint 742</name>
            </trkpt>
            <trkpt lat="49.8141056" lon="9.872336">
                <ele>169.0</ele>
                <time>2020-08-28T09:11:54.000Z</time>
                <name>Trackpoint 743</name>
            </trkpt>
            <trkpt lat="49.8142208" lon="9.8723152">
                <ele>169.0</ele>
                <time>2020-08-28T09:11:56.000Z</time>
                <name>Trackpoint 744</name>
            </trkpt>
            <trkpt lat="49.814336" lon="9.8722888">
                <ele>169.0</ele>
                <time>2020-08-28T09:11:58.000Z</time>
                <name>Trackpoint 745</name>
            </trkpt>
            <trkpt lat="49.8144576" lon="9.872256">
                <ele>169.0</ele>
                <time>2020-08-28T09:12:00.000Z</time>
                <name>Trackpoint 746</name>
            </trkpt>
            <trkpt lat="49.8145792" lon="9.8722248">
                <ele>169.0</ele>
                <time>2020-08-28T09:12:02.000Z</time>
                <name>Trackpoint 747</name>
            </trkpt>
            <trkpt lat="49.8147008" lon="9.8722">
                <ele>169.0</ele>
                <time>2020-08-28T09:12:04.000Z</time>
                <name>Trackpoint 748</name>
            </trkpt>
            <trkpt lat="49.8148064" lon="9.872184">
                <ele>169.0</ele>
                <time>2020-08-28T09:12:06.000Z</time>
                <name>Trackpoint 749</name>
            </trkpt>
            <trkpt lat="49.8149152" lon="9.8721504">
                <ele>169.0</ele>
                <time>2020-08-28T09:12:08.000Z</time>
                <name>Trackpoint 750</name>
            </trkpt>
            <trkpt lat="49.8150368" lon="9.8721152">
                <ele>169.0</ele>
                <time>2020-08-28T09:12:10.000Z</time>
                <name>Trackpoint 751</name>
            </trkpt>
            <trkpt lat="49.8151552" lon="9.8720912">
                <ele>169.0</ele>
                <time>2020-08-28T09:12:12.000Z</time>
                <name>Trackpoint 752</name>
            </trkpt>
            <trkpt lat="49.8152736" lon="9.872048">
                <ele>169.0</ele>
                <time>2020-08-28T09:12:14.000Z</time>
                <name>Trackpoint 753</name>
            </trkpt>
            <trkpt lat="49.8153824" lon="9.8720128">
                <ele>169.0</ele>
                <time>2020-08-28T09:12:16.000Z</time>
                <name>Trackpoint 754</name>
            </trkpt>
            <trkpt lat="49.815488" lon="9.871972">
                <ele>169.0</ele>
                <time>2020-08-28T09:12:18.000Z</time>
                <name>Trackpoint 755</name>
            </trkpt>
            <trkpt lat="49.8155968" lon="9.871952">
                <ele>169.0</ele>
                <time>2020-08-28T09:12:20.000Z</time>
                <name>Trackpoint 756</name>
            </trkpt>
            <trkpt lat="49.8156896" lon="9.8719368">
                <ele>169.0</ele>
                <time>2020-08-28T09:12:22.000Z</time>
                <name>Trackpoint 757</name>
            </trkpt>
            <trkpt lat="49.8158272" lon="9.8719016">
                <ele>169.0</ele>
                <time>2020-08-28T09:12:25.000Z</time>
                <name>Trackpoint 758</name>
            </trkpt>
            <trkpt lat="49.8159328" lon="9.8718568">
                <ele>169.0</ele>
                <time>2020-08-28T09:12:27.000Z</time>
                <name>Trackpoint 759</name>
            </trkpt>
            <trkpt lat="49.8160416" lon="9.871828">
                <ele>169.0</ele>
                <time>2020-08-28T09:12:29.000Z</time>
                <name>Trackpoint 760</name>
            </trkpt>
            <trkpt lat="49.8161408" lon="9.8718072">
                <ele>169.0</ele>
                <time>2020-08-28T09:12:31.000Z</time>
                <name>Trackpoint 761</name>
            </trkpt>
            <trkpt lat="49.8162624" lon="9.8717672">
                <ele>169.0</ele>
                <time>2020-08-28T09:12:34.000Z</time>
                <name>Trackpoint 762</name>
            </trkpt>
            <trkpt lat="49.8163552" lon="9.8717232">
                <ele>169.0</ele>
                <time>2020-08-28T09:12:37.000Z</time>
                <name>Trackpoint 763</name>
            </trkpt>
            <trkpt lat="49.8164672" lon="9.871728">
                <ele>169.0</ele>
                <time>2020-08-28T09:12:39.000Z</time>
                <name>Trackpoint 764</name>
            </trkpt>
            <trkpt lat="49.8165216" lon="9.8716496">
                <ele>169.0</ele>
                <time>2020-08-28T09:12:43.000Z</time>
                <name>Trackpoint 765</name>
            </trkpt>
            <trkpt lat="49.8167264" lon="9.8716488">
                <ele>169.0</ele>
                <time>2020-08-28T09:12:47.000Z</time>
                <name>Trackpoint 766</name>
            </trkpt>
            <trkpt lat="49.8168416" lon="9.8716496">
                <ele>169.0</ele>
                <time>2020-08-28T09:12:49.000Z</time>
                <name>Trackpoint 767</name>
            </trkpt>
            <trkpt lat="49.8170176" lon="9.8716352">
                <ele>170.0</ele>
                <time>2020-08-28T09:12:51.000Z</time>
                <name>Trackpoint 768</name>
            </trkpt>
            <trkpt lat="49.81712" lon="9.8716224">
                <ele>170.0</ele>
                <time>2020-08-28T09:12:52.000Z</time>
                <name>Trackpoint 769</name>
            </trkpt>
            <trkpt lat="49.8172096" lon="9.8716">
                <ele>170.0</ele>
                <time>2020-08-28T09:12:53.000Z</time>
                <name>Trackpoint 770</name>
            </trkpt>
            <trkpt lat="49.8173088" lon="9.8715752">
                <ele>170.0</ele>
                <time>2020-08-28T09:12:54.000Z</time>
                <name>Trackpoint 771</name>
            </trkpt>
            <trkpt lat="49.8174016" lon="9.8715584">
                <ele>170.0</ele>
                <time>2020-08-28T09:12:55.000Z</time>
                <name>Trackpoint 772</name>
            </trkpt>
            <trkpt lat="49.8175904" lon="9.8715416">
                <ele>170.0</ele>
                <time>2020-08-28T09:12:56.000Z</time>
                <name>Trackpoint 773</name>
            </trkpt>
            <trkpt lat="49.8177024" lon="9.8715264">
                <ele>171.0</ele>
                <time>2020-08-28T09:12:57.000Z</time>
                <name>Trackpoint 774</name>
            </trkpt>
            <trkpt lat="49.8178368" lon="9.8715264">
                <ele>171.0</ele>
                <time>2020-08-28T09:12:58.000Z</time>
                <name>Trackpoint 775</name>
            </trkpt>
            <trkpt lat="49.8180096" lon="9.8715032">
                <ele>171.0</ele>
                <time>2020-08-28T09:13:00.000Z</time>
                <name>Trackpoint 776</name>
            </trkpt>
            <trkpt lat="49.8181152" lon="9.8715">
                <ele>171.0</ele>
                <time>2020-08-28T09:13:01.000Z</time>
                <name>Trackpoint 777</name>
            </trkpt>
            <trkpt lat="49.8182496" lon="9.8714864">
                <ele>172.0</ele>
                <time>2020-08-28T09:13:03.000Z</time>
                <name>Trackpoint 778</name>
            </trkpt>
            <trkpt lat="49.818368" lon="9.8714664">
                <ele>172.0</ele>
                <time>2020-08-28T09:13:05.000Z</time>
                <name>Trackpoint 779</name>
            </trkpt>
            <trkpt lat="49.818496" lon="9.871464">
                <ele>172.0</ele>
                <time>2020-08-28T09:13:07.000Z</time>
                <name>Trackpoint 780</name>
            </trkpt>
            <trkpt lat="49.8186432" lon="9.8714568">
                <ele>172.0</ele>
                <time>2020-08-28T09:13:09.000Z</time>
                <name>Trackpoint 781</name>
            </trkpt>
            <trkpt lat="49.8187648" lon="9.8714368">
                <ele>172.0</ele>
                <time>2020-08-28T09:13:11.000Z</time>
                <name>Trackpoint 782</name>
            </trkpt>
            <trkpt lat="49.8189024" lon="9.8714368">
                <ele>171.0</ele>
                <time>2020-08-28T09:13:13.000Z</time>
                <name>Trackpoint 783</name>
            </trkpt>
            <trkpt lat="49.8190272" lon="9.871424">
                <ele>171.0</ele>
                <time>2020-08-28T09:13:15.000Z</time>
                <name>Trackpoint 784</name>
            </trkpt>
            <trkpt lat="49.8191648" lon="9.8714136">
                <ele>171.0</ele>
                <time>2020-08-28T09:13:17.000Z</time>
                <name>Trackpoint 785</name>
            </trkpt>
            <trkpt lat="49.8192896" lon="9.8713904">
                <ele>170.0</ele>
                <time>2020-08-28T09:13:19.000Z</time>
                <name>Trackpoint 786</name>
            </trkpt>
            <trkpt lat="49.819424" lon="9.8713752">
                <ele>169.0</ele>
                <time>2020-08-28T09:13:21.000Z</time>
                <name>Trackpoint 787</name>
            </trkpt>
            <trkpt lat="49.8195488" lon="9.871348">
                <ele>169.0</ele>
                <time>2020-08-28T09:13:23.000Z</time>
                <name>Trackpoint 788</name>
            </trkpt>
            <trkpt lat="49.81968" lon="9.8713232">
                <ele>169.0</ele>
                <time>2020-08-28T09:13:25.000Z</time>
                <name>Trackpoint 789</name>
            </trkpt>
            <trkpt lat="49.8197984" lon="9.8712856">
                <ele>169.0</ele>
                <time>2020-08-28T09:13:27.000Z</time>
                <name>Trackpoint 790</name>
            </trkpt>
            <trkpt lat="49.81992" lon="9.8712464">
                <ele>169.0</ele>
                <time>2020-08-28T09:13:29.000Z</time>
                <name>Trackpoint 791</name>
            </trkpt>
            <trkpt lat="49.8200416" lon="9.8712104">
                <ele>169.0</ele>
                <time>2020-08-28T09:13:31.000Z</time>
                <name>Trackpoint 792</name>
            </trkpt>
            <trkpt lat="49.82016" lon="9.8711664">
                <ele>169.0</ele>
                <time>2020-08-28T09:13:33.000Z</time>
                <name>Trackpoint 793</name>
            </trkpt>
            <trkpt lat="49.8202816" lon="9.8711256">
                <ele>169.0</ele>
                <time>2020-08-28T09:13:35.000Z</time>
                <name>Trackpoint 794</name>
            </trkpt>
            <trkpt lat="49.8203968" lon="9.871088">
                <ele>168.0</ele>
                <time>2020-08-28T09:13:37.000Z</time>
                <name>Trackpoint 795</name>
            </trkpt>
            <trkpt lat="49.8205056" lon="9.8710384">
                <ele>168.0</ele>
                <time>2020-08-28T09:13:39.000Z</time>
                <name>Trackpoint 796</name>
            </trkpt>
            <trkpt lat="49.820624" lon="9.8709872">
                <ele>168.0</ele>
                <time>2020-08-28T09:13:41.000Z</time>
                <name>Trackpoint 797</name>
            </trkpt>
            <trkpt lat="49.8207488" lon="9.8709424">
                <ele>168.0</ele>
                <time>2020-08-28T09:13:43.000Z</time>
                <name>Trackpoint 798</name>
            </trkpt>
            <trkpt lat="49.8208736" lon="9.8708984">
                <ele>168.0</ele>
                <time>2020-08-28T09:13:45.000Z</time>
                <name>Trackpoint 799</name>
            </trkpt>
            <trkpt lat="49.8209888" lon="9.87084">
                <ele>167.0</ele>
                <time>2020-08-28T09:13:47.000Z</time>
                <name>Trackpoint 800</name>
            </trkpt>
            <trkpt lat="49.8210912" lon="9.870784">
                <ele>167.0</ele>
                <time>2020-08-28T09:13:49.000Z</time>
                <name>Trackpoint 801</name>
            </trkpt>
            <trkpt lat="49.8212064" lon="9.8707336">
                <ele>167.0</ele>
                <time>2020-08-28T09:13:51.000Z</time>
                <name>Trackpoint 802</name>
            </trkpt>
            <trkpt lat="49.8213152" lon="9.8706768">
                <ele>167.0</ele>
                <time>2020-08-28T09:13:53.000Z</time>
                <name>Trackpoint 803</name>
            </trkpt>
            <trkpt lat="49.8214464" lon="9.8706232">
                <ele>167.0</ele>
                <time>2020-08-28T09:13:55.000Z</time>
                <name>Trackpoint 804</name>
            </trkpt>
            <trkpt lat="49.821568" lon="9.8705664">
                <ele>167.0</ele>
                <time>2020-08-28T09:13:57.000Z</time>
                <name>Trackpoint 805</name>
            </trkpt>
            <trkpt lat="49.8216928" lon="9.8705128">
                <ele>167.0</ele>
                <time>2020-08-28T09:13:59.000Z</time>
                <name>Trackpoint 806</name>
            </trkpt>
            <trkpt lat="49.821808" lon="9.8704528">
                <ele>167.0</ele>
                <time>2020-08-28T09:14:01.000Z</time>
                <name>Trackpoint 807</name>
            </trkpt>
            <trkpt lat="49.8219296" lon="9.870388">
                <ele>167.0</ele>
                <time>2020-08-28T09:14:03.000Z</time>
                <name>Trackpoint 808</name>
            </trkpt>
            <trkpt lat="49.8220448" lon="9.8703216">
                <ele>167.0</ele>
                <time>2020-08-28T09:14:05.000Z</time>
                <name>Trackpoint 809</name>
            </trkpt>
            <trkpt lat="49.8221632" lon="9.8702584">
                <ele>167.0</ele>
                <time>2020-08-28T09:14:07.000Z</time>
                <name>Trackpoint 810</name>
            </trkpt>
            <trkpt lat="49.822272" lon="9.8701888">
                <ele>167.0</ele>
                <time>2020-08-28T09:14:09.000Z</time>
                <name>Trackpoint 811</name>
            </trkpt>
            <trkpt lat="49.8223904" lon="9.8701216">
                <ele>167.0</ele>
                <time>2020-08-28T09:14:11.000Z</time>
                <name>Trackpoint 812</name>
            </trkpt>
            <trkpt lat="49.8225024" lon="9.8700536">
                <ele>167.0</ele>
                <time>2020-08-28T09:14:13.000Z</time>
                <name>Trackpoint 813</name>
            </trkpt>
            <trkpt lat="49.8226304" lon="9.86998">
                <ele>167.0</ele>
                <time>2020-08-28T09:14:15.000Z</time>
                <name>Trackpoint 814</name>
            </trkpt>
            <trkpt lat="49.822736" lon="9.8698968">
                <ele>167.0</ele>
                <time>2020-08-28T09:14:17.000Z</time>
                <name>Trackpoint 815</name>
            </trkpt>
            <trkpt lat="49.822848" lon="9.869832">
                <ele>167.0</ele>
                <time>2020-08-28T09:14:19.000Z</time>
                <name>Trackpoint 816</name>
            </trkpt>
            <trkpt lat="49.8229632" lon="9.8697616">
                <ele>167.0</ele>
                <time>2020-08-28T09:14:21.000Z</time>
                <name>Trackpoint 817</name>
            </trkpt>
            <trkpt lat="49.8230944" lon="9.8697008">
                <ele>166.0</ele>
                <time>2020-08-28T09:14:23.000Z</time>
                <name>Trackpoint 818</name>
            </trkpt>
            <trkpt lat="49.8232128" lon="9.8696336">
                <ele>166.0</ele>
                <time>2020-08-28T09:14:25.000Z</time>
                <name>Trackpoint 819</name>
            </trkpt>
            <trkpt lat="49.8233312" lon="9.8695648">
                <ele>166.0</ele>
                <time>2020-08-28T09:14:27.000Z</time>
                <name>Trackpoint 820</name>
            </trkpt>
            <trkpt lat="49.8234496" lon="9.8694984">
                <ele>167.0</ele>
                <time>2020-08-28T09:14:29.000Z</time>
                <name>Trackpoint 821</name>
            </trkpt>
            <trkpt lat="49.8235584" lon="9.8694352">
                <ele>167.0</ele>
                <time>2020-08-28T09:14:31.000Z</time>
                <name>Trackpoint 822</name>
            </trkpt>
            <trkpt lat="49.8236736" lon="9.8693648">
                <ele>167.0</ele>
                <time>2020-08-28T09:14:33.000Z</time>
                <name>Trackpoint 823</name>
            </trkpt>
            <trkpt lat="49.8237792" lon="9.86928">
                <ele>167.0</ele>
                <time>2020-08-28T09:14:35.000Z</time>
                <name>Trackpoint 824</name>
            </trkpt>
            <trkpt lat="49.8238784" lon="9.8692112">
                <ele>167.0</ele>
                <time>2020-08-28T09:14:37.000Z</time>
                <name>Trackpoint 825</name>
            </trkpt>
            <trkpt lat="49.8240128" lon="9.86914">
                <ele>167.0</ele>
                <time>2020-08-28T09:14:39.000Z</time>
                <name>Trackpoint 826</name>
            </trkpt>
            <trkpt lat="49.824128" lon="9.8690632">
                <ele>167.0</ele>
                <time>2020-08-28T09:14:41.000Z</time>
                <name>Trackpoint 827</name>
            </trkpt>
            <trkpt lat="49.8242464" lon="9.869012">
                <ele>167.0</ele>
                <time>2020-08-28T09:14:43.000Z</time>
                <name>Trackpoint 828</name>
            </trkpt>
            <trkpt lat="49.8243584" lon="9.8689416">
                <ele>167.0</ele>
                <time>2020-08-28T09:14:45.000Z</time>
                <name>Trackpoint 829</name>
            </trkpt>
            <trkpt lat="49.8244896" lon="9.8688784">
                <ele>168.0</ele>
                <time>2020-08-28T09:14:47.000Z</time>
                <name>Trackpoint 830</name>
            </trkpt>
            <trkpt lat="49.8245952" lon="9.8688088">
                <ele>167.0</ele>
                <time>2020-08-28T09:14:49.000Z</time>
                <name>Trackpoint 831</name>
            </trkpt>
            <trkpt lat="49.8247072" lon="9.8687352">
                <ele>168.0</ele>
                <time>2020-08-28T09:14:51.000Z</time>
                <name>Trackpoint 832</name>
            </trkpt>
            <trkpt lat="49.8248096" lon="9.868664">
                <ele>168.0</ele>
                <time>2020-08-28T09:14:53.000Z</time>
                <name>Trackpoint 833</name>
            </trkpt>
            <trkpt lat="49.824912" lon="9.8685912">
                <ele>168.0</ele>
                <time>2020-08-28T09:14:55.000Z</time>
                <name>Trackpoint 834</name>
            </trkpt>
            <trkpt lat="49.8250176" lon="9.8685264">
                <ele>168.0</ele>
                <time>2020-08-28T09:14:57.000Z</time>
                <name>Trackpoint 835</name>
            </trkpt>
            <trkpt lat="49.8251296" lon="9.8684632">
                <ele>168.0</ele>
                <time>2020-08-28T09:14:59.000Z</time>
                <name>Trackpoint 836</name>
            </trkpt>
            <trkpt lat="49.825232" lon="9.8683752">
                <ele>168.0</ele>
                <time>2020-08-28T09:15:01.000Z</time>
                <name>Trackpoint 837</name>
            </trkpt>
            <trkpt lat="49.8253408" lon="9.8682896">
                <ele>168.0</ele>
                <time>2020-08-28T09:15:03.000Z</time>
                <name>Trackpoint 838</name>
            </trkpt>
            <trkpt lat="49.825456" lon="9.8682184">
                <ele>169.0</ele>
                <time>2020-08-28T09:15:05.000Z</time>
                <name>Trackpoint 839</name>
            </trkpt>
            <trkpt lat="49.8255552" lon="9.8681496">
                <ele>169.0</ele>
                <time>2020-08-28T09:15:07.000Z</time>
                <name>Trackpoint 840</name>
            </trkpt>
            <trkpt lat="49.8256576" lon="9.8680632">
                <ele>169.0</ele>
                <time>2020-08-28T09:15:09.000Z</time>
                <name>Trackpoint 841</name>
            </trkpt>
            <trkpt lat="49.8257472" lon="9.8679936">
                <ele>169.0</ele>
                <time>2020-08-28T09:15:11.000Z</time>
                <name>Trackpoint 842</name>
            </trkpt>
            <trkpt lat="49.825856" lon="9.8679152">
                <ele>169.0</ele>
                <time>2020-08-28T09:15:13.000Z</time>
                <name>Trackpoint 843</name>
            </trkpt>
            <trkpt lat="49.8259744" lon="9.8678616">
                <ele>170.0</ele>
                <time>2020-08-28T09:15:15.000Z</time>
                <name>Trackpoint 844</name>
            </trkpt>
            <trkpt lat="49.8260832" lon="9.8678304">
                <ele>170.0</ele>
                <time>2020-08-28T09:15:17.000Z</time>
                <name>Trackpoint 845</name>
            </trkpt>
            <trkpt lat="49.8261824" lon="9.8677584">
                <ele>170.0</ele>
                <time>2020-08-28T09:15:19.000Z</time>
                <name>Trackpoint 846</name>
            </trkpt>
            <trkpt lat="49.8262848" lon="9.8676864">
                <ele>170.0</ele>
                <time>2020-08-28T09:15:21.000Z</time>
                <name>Trackpoint 847</name>
            </trkpt>
            <trkpt lat="49.826432" lon="9.8676328">
                <ele>170.0</ele>
                <time>2020-08-28T09:15:23.000Z</time>
                <name>Trackpoint 848</name>
            </trkpt>
            <trkpt lat="49.8265376" lon="9.867568">
                <ele>170.0</ele>
                <time>2020-08-28T09:15:25.000Z</time>
                <name>Trackpoint 849</name>
            </trkpt>
            <trkpt lat="49.8266496" lon="9.8675032">
                <ele>170.0</ele>
                <time>2020-08-28T09:15:27.000Z</time>
                <name>Trackpoint 850</name>
            </trkpt>
            <trkpt lat="49.8267552" lon="9.86744">
                <ele>170.0</ele>
                <time>2020-08-28T09:15:29.000Z</time>
                <name>Trackpoint 851</name>
            </trkpt>
            <trkpt lat="49.8268608" lon="9.8673696">
                <ele>170.0</ele>
                <time>2020-08-28T09:15:31.000Z</time>
                <name>Trackpoint 852</name>
            </trkpt>
            <trkpt lat="49.82696" lon="9.8672952">
                <ele>170.0</ele>
                <time>2020-08-28T09:15:33.000Z</time>
                <name>Trackpoint 853</name>
            </trkpt>
            <trkpt lat="49.8270848" lon="9.8672352">
                <ele>170.0</ele>
                <time>2020-08-28T09:15:35.000Z</time>
                <name>Trackpoint 854</name>
            </trkpt>
            <trkpt lat="49.8272032" lon="9.8671616">
                <ele>170.0</ele>
                <time>2020-08-28T09:15:37.000Z</time>
                <name>Trackpoint 855</name>
            </trkpt>
            <trkpt lat="49.8273056" lon="9.8670904">
                <ele>170.0</ele>
                <time>2020-08-28T09:15:39.000Z</time>
                <name>Trackpoint 856</name>
            </trkpt>
            <trkpt lat="49.8274112" lon="9.86702">
                <ele>171.0</ele>
                <time>2020-08-28T09:15:41.000Z</time>
                <name>Trackpoint 857</name>
            </trkpt>
            <trkpt lat="49.8275296" lon="9.866988">
                <ele>170.0</ele>
                <time>2020-08-28T09:15:43.000Z</time>
                <name>Trackpoint 858</name>
            </trkpt>
            <trkpt lat="49.8276352" lon="9.8669768">
                <ele>169.0</ele>
                <time>2020-08-28T09:15:45.000Z</time>
                <name>Trackpoint 859</name>
            </trkpt>
            <trkpt lat="49.8277632" lon="9.8669368">
                <ele>169.0</ele>
                <time>2020-08-28T09:15:48.000Z</time>
                <name>Trackpoint 860</name>
            </trkpt>
            <trkpt lat="49.8278336" lon="9.8668648">
                <ele>169.0</ele>
                <time>2020-08-28T09:15:50.000Z</time>
                <name>Trackpoint 861</name>
            </trkpt>
            <trkpt lat="49.8279136" lon="9.8668072">
                <ele>169.0</ele>
                <time>2020-08-28T09:15:54.000Z</time>
                <name>Trackpoint 862</name>
            </trkpt>
            <trkpt lat="49.8279328" lon="9.8667088">
                <ele>169.0</ele>
                <time>2020-08-28T09:16:19.000Z</time>
                <name>Trackpoint 863</name>
            </trkpt>
            <trkpt lat="49.8279712" lon="9.8666112">
                <ele>169.0</ele>
                <time>2020-08-28T09:16:22.000Z</time>
                <name>Trackpoint 864</name>
            </trkpt>
            <trkpt lat="49.8280512" lon="9.8665648">
                <ele>169.0</ele>
                <time>2020-08-28T09:16:25.000Z</time>
                <name>Trackpoint 865</name>
            </trkpt>
            <trkpt lat="49.8281664" lon="9.866544">
                <ele>169.0</ele>
                <time>2020-08-28T09:16:28.000Z</time>
                <name>Trackpoint 866</name>
            </trkpt>
            <trkpt lat="49.8282464" lon="9.8664912">
                <ele>169.0</ele>
                <time>2020-08-28T09:16:31.000Z</time>
                <name>Trackpoint 867</name>
            </trkpt>
            <trkpt lat="49.8283616" lon="9.8664888">
                <ele>168.0</ele>
                <time>2020-08-28T09:16:48.000Z</time>
                <name>Trackpoint 868</name>
            </trkpt>
            <trkpt lat="49.8284544" lon="9.8664816">
                <ele>168.0</ele>
                <time>2020-08-28T09:16:51.000Z</time>
                <name>Trackpoint 869</name>
            </trkpt>
            <trkpt lat="49.828576" lon="9.8664552">
                <ele>168.0</ele>
                <time>2020-08-28T09:16:54.000Z</time>
                <name>Trackpoint 870</name>
            </trkpt>
            <trkpt lat="49.828688" lon="9.86644">
                <ele>168.0</ele>
                <time>2020-08-28T09:16:57.000Z</time>
                <name>Trackpoint 871</name>
            </trkpt>
            <trkpt lat="49.8288128" lon="9.8664048">
                <ele>168.0</ele>
                <time>2020-08-28T09:17:00.000Z</time>
                <name>Trackpoint 872</name>
            </trkpt>
            <trkpt lat="49.8289024" lon="9.8663704">
                <ele>168.0</ele>
                <time>2020-08-28T09:17:02.000Z</time>
                <name>Trackpoint 873</name>
            </trkpt>
            <trkpt lat="49.8290048" lon="9.8663464">
                <ele>168.0</ele>
                <time>2020-08-28T09:17:04.000Z</time>
                <name>Trackpoint 874</name>
            </trkpt>
            <trkpt lat="49.8291136" lon="9.8663168">
                <ele>168.0</ele>
                <time>2020-08-28T09:17:06.000Z</time>
                <name>Trackpoint 875</name>
            </trkpt>
            <trkpt lat="49.8292096" lon="9.8662768">
                <ele>168.0</ele>
                <time>2020-08-28T09:17:08.000Z</time>
                <name>Trackpoint 876</name>
            </trkpt>
            <trkpt lat="49.8293088" lon="9.8662392">
                <ele>168.0</ele>
                <time>2020-08-28T09:17:10.000Z</time>
                <name>Trackpoint 877</name>
            </trkpt>
            <trkpt lat="49.8294112" lon="9.8662144">
                <ele>168.0</ele>
                <time>2020-08-28T09:17:12.000Z</time>
                <name>Trackpoint 878</name>
            </trkpt>
            <trkpt lat="49.82952" lon="9.8661968">
                <ele>168.0</ele>
                <time>2020-08-28T09:17:14.000Z</time>
                <name>Trackpoint 879</name>
            </trkpt>
            <trkpt lat="49.8296544" lon="9.8661872">
                <ele>168.0</ele>
                <time>2020-08-28T09:17:17.000Z</time>
                <name>Trackpoint 880</name>
            </trkpt>
            <trkpt lat="49.8297472" lon="9.8661784">
                <ele>168.0</ele>
                <time>2020-08-28T09:17:19.000Z</time>
                <name>Trackpoint 881</name>
            </trkpt>
            <trkpt lat="49.8298464" lon="9.8661544">
                <ele>169.0</ele>
                <time>2020-08-28T09:17:22.000Z</time>
                <name>Trackpoint 882</name>
            </trkpt>
            <trkpt lat="49.8299584" lon="9.8661248">
                <ele>168.0</ele>
                <time>2020-08-28T09:17:26.000Z</time>
                <name>Trackpoint 883</name>
            </trkpt>
            <trkpt lat="49.8300544" lon="9.866072">
                <ele>168.0</ele>
                <time>2020-08-28T09:17:28.000Z</time>
                <name>Trackpoint 884</name>
            </trkpt>
            <trkpt lat="49.8301376" lon="9.866016">
                <ele>169.0</ele>
                <time>2020-08-28T09:17:30.000Z</time>
                <name>Trackpoint 885</name>
            </trkpt>
            <trkpt lat="49.8302368" lon="9.8659824">
                <ele>169.0</ele>
                <time>2020-08-28T09:17:32.000Z</time>
                <name>Trackpoint 886</name>
            </trkpt>
            <trkpt lat="49.8303328" lon="9.8659432">
                <ele>169.0</ele>
                <time>2020-08-28T09:17:34.000Z</time>
                <name>Trackpoint 887</name>
            </trkpt>
            <trkpt lat="49.8304544" lon="9.8659064">
                <ele>169.0</ele>
                <time>2020-08-28T09:17:36.000Z</time>
                <name>Trackpoint 888</name>
            </trkpt>
            <trkpt lat="49.8305664" lon="9.8658752">
                <ele>169.0</ele>
                <time>2020-08-28T09:17:38.000Z</time>
                <name>Trackpoint 889</name>
            </trkpt>
            <trkpt lat="49.830672" lon="9.86584">
                <ele>170.0</ele>
                <time>2020-08-28T09:17:41.000Z</time>
                <name>Trackpoint 890</name>
            </trkpt>
            <trkpt lat="49.8308" lon="9.8658416">
                <ele>170.0</ele>
                <time>2020-08-28T09:17:44.000Z</time>
                <name>Trackpoint 891</name>
            </trkpt>
            <trkpt lat="49.83088" lon="9.8659696">
                <ele>170.0</ele>
                <time>2020-08-28T09:17:47.000Z</time>
                <name>Trackpoint 892</name>
            </trkpt>
            <trkpt lat="49.8309248" lon="9.8661168">
                <ele>170.0</ele>
                <time>2020-08-28T09:17:49.000Z</time>
                <name>Trackpoint 893</name>
            </trkpt>
            <trkpt lat="49.8309664" lon="9.8662856">
                <ele>170.0</ele>
                <time>2020-08-28T09:17:51.000Z</time>
                <name>Trackpoint 894</name>
            </trkpt>
            <trkpt lat="49.8309984" lon="9.86646">
                <ele>170.0</ele>
                <time>2020-08-28T09:17:53.000Z</time>
                <name>Trackpoint 895</name>
            </trkpt>
            <trkpt lat="49.8310208" lon="9.86662">
                <ele>170.0</ele>
                <time>2020-08-28T09:17:55.000Z</time>
                <name>Trackpoint 896</name>
            </trkpt>
            <trkpt lat="49.8310432" lon="9.8667696">
                <ele>170.0</ele>
                <time>2020-08-28T09:17:57.000Z</time>
                <name>Trackpoint 897</name>
            </trkpt>
            <trkpt lat="49.8310688" lon="9.8669056">
                <ele>170.0</ele>
                <time>2020-08-28T09:17:59.000Z</time>
                <name>Trackpoint 898</name>
            </trkpt>
            <trkpt lat="49.8310944" lon="9.867028">
                <ele>170.0</ele>
                <time>2020-08-28T09:18:01.000Z</time>
                <name>Trackpoint 899</name>
            </trkpt>
            <trkpt lat="49.8311296" lon="9.8671328">
                <ele>170.0</ele>
                <time>2020-08-28T09:18:03.000Z</time>
                <name>Trackpoint 900</name>
            </trkpt>
            <trkpt lat="49.831216" lon="9.8671936">
                <ele>170.0</ele>
                <time>2020-08-28T09:18:06.000Z</time>
                <name>Trackpoint 901</name>
            </trkpt>
            <trkpt lat="49.8313088" lon="9.8672088">
                <ele>170.0</ele>
                <time>2020-08-28T09:18:08.000Z</time>
                <name>Trackpoint 902</name>
            </trkpt>
            <trkpt lat="49.8314144" lon="9.8672216">
                <ele>170.0</ele>
                <time>2020-08-28T09:18:10.000Z</time>
                <name>Trackpoint 903</name>
            </trkpt>
            <trkpt lat="49.83152" lon="9.8672104">
                <ele>170.0</ele>
                <time>2020-08-28T09:18:12.000Z</time>
                <name>Trackpoint 904</name>
            </trkpt>
            <trkpt lat="49.831616" lon="9.8671968">
                <ele>169.0</ele>
                <time>2020-08-28T09:18:14.000Z</time>
                <name>Trackpoint 905</name>
            </trkpt>
            <trkpt lat="49.8317056" lon="9.8671688">
                <ele>169.0</ele>
                <time>2020-08-28T09:18:16.000Z</time>
                <name>Trackpoint 906</name>
            </trkpt>
            <trkpt lat="49.8318016" lon="9.8671568">
                <ele>169.0</ele>
                <time>2020-08-28T09:18:18.000Z</time>
                <name>Trackpoint 907</name>
            </trkpt>
            <trkpt lat="49.8318944" lon="9.8671312">
                <ele>169.0</ele>
                <time>2020-08-28T09:18:20.000Z</time>
                <name>Trackpoint 908</name>
            </trkpt>
            <trkpt lat="49.8320288" lon="9.8670952">
                <ele>169.0</ele>
                <time>2020-08-28T09:18:23.000Z</time>
                <name>Trackpoint 909</name>
            </trkpt>
            <trkpt lat="49.832128" lon="9.8670552">
                <ele>169.0</ele>
                <time>2020-08-28T09:18:25.000Z</time>
                <name>Trackpoint 910</name>
            </trkpt>
            <trkpt lat="49.8322496" lon="9.8670216">
                <ele>169.0</ele>
                <time>2020-08-28T09:18:27.000Z</time>
                <name>Trackpoint 911</name>
            </trkpt>
            <trkpt lat="49.8323744" lon="9.8669952">
                <ele>169.0</ele>
                <time>2020-08-28T09:18:29.000Z</time>
                <name>Trackpoint 912</name>
            </trkpt>
            <trkpt lat="49.8324896" lon="9.8669728">
                <ele>169.0</ele>
                <time>2020-08-28T09:18:31.000Z</time>
                <name>Trackpoint 913</name>
            </trkpt>
            <trkpt lat="49.8326048" lon="9.8669464">
                <ele>169.0</ele>
                <time>2020-08-28T09:18:33.000Z</time>
                <name>Trackpoint 914</name>
            </trkpt>
            <trkpt lat="49.8327296" lon="9.8669256">
                <ele>169.0</ele>
                <time>2020-08-28T09:18:35.000Z</time>
                <name>Trackpoint 915</name>
            </trkpt>
            <trkpt lat="49.8328544" lon="9.8669016">
                <ele>169.0</ele>
                <time>2020-08-28T09:18:37.000Z</time>
                <name>Trackpoint 916</name>
            </trkpt>
            <trkpt lat="49.832976" lon="9.8668784">
                <ele>169.0</ele>
                <time>2020-08-28T09:18:39.000Z</time>
                <name>Trackpoint 917</name>
            </trkpt>
            <trkpt lat="49.8330944" lon="9.8668584">
                <ele>168.0</ele>
                <time>2020-08-28T09:18:41.000Z</time>
                <name>Trackpoint 918</name>
            </trkpt>
            <trkpt lat="49.8332192" lon="9.8668544">
                <ele>168.0</ele>
                <time>2020-08-28T09:18:43.000Z</time>
                <name>Trackpoint 919</name>
            </trkpt>
            <trkpt lat="49.833328" lon="9.8668568">
                <ele>168.0</ele>
                <time>2020-08-28T09:18:45.000Z</time>
                <name>Trackpoint 920</name>
            </trkpt>
            <trkpt lat="49.8334432" lon="9.8668448">
                <ele>168.0</ele>
                <time>2020-08-28T09:18:47.000Z</time>
                <name>Trackpoint 921</name>
            </trkpt>
            <trkpt lat="49.8335488" lon="9.8668416">
                <ele>168.0</ele>
                <time>2020-08-28T09:18:49.000Z</time>
                <name>Trackpoint 922</name>
            </trkpt>
            <trkpt lat="49.8336512" lon="9.86684">
                <ele>168.0</ele>
                <time>2020-08-28T09:18:51.000Z</time>
                <name>Trackpoint 923</name>
            </trkpt>
            <trkpt lat="49.83376" lon="9.8668216">
                <ele>168.0</ele>
                <time>2020-08-28T09:18:53.000Z</time>
                <name>Trackpoint 924</name>
            </trkpt>
            <trkpt lat="49.8338592" lon="9.866808">
                <ele>168.0</ele>
                <time>2020-08-28T09:18:55.000Z</time>
                <name>Trackpoint 925</name>
            </trkpt>
            <trkpt lat="49.8339648" lon="9.8667832">
                <ele>168.0</ele>
                <time>2020-08-28T09:18:57.000Z</time>
                <name>Trackpoint 926</name>
            </trkpt>
            <trkpt lat="49.8340576" lon="9.8667616">
                <ele>168.0</ele>
                <time>2020-08-28T09:18:59.000Z</time>
                <name>Trackpoint 927</name>
            </trkpt>
            <trkpt lat="49.8341792" lon="9.8667488">
                <ele>168.0</ele>
                <time>2020-08-28T09:19:01.000Z</time>
                <name>Trackpoint 928</name>
            </trkpt>
            <trkpt lat="49.8342976" lon="9.866732">
                <ele>168.0</ele>
                <time>2020-08-28T09:19:03.000Z</time>
                <name>Trackpoint 929</name>
            </trkpt>
            <trkpt lat="49.8344224" lon="9.8667352">
                <ele>168.0</ele>
                <time>2020-08-28T09:19:06.000Z</time>
                <name>Trackpoint 930</name>
            </trkpt>
            <trkpt lat="49.8345376" lon="9.8667448">
                <ele>168.0</ele>
                <time>2020-08-28T09:19:08.000Z</time>
                <name>Trackpoint 931</name>
            </trkpt>
            <trkpt lat="49.834656" lon="9.8667432">
                <ele>168.0</ele>
                <time>2020-08-28T09:19:10.000Z</time>
                <name>Trackpoint 932</name>
            </trkpt>
            <trkpt lat="49.8347488" lon="9.8667472">
                <ele>168.0</ele>
                <time>2020-08-28T09:19:11.000Z</time>
                <name>Trackpoint 933</name>
            </trkpt>
            <trkpt lat="49.834848" lon="9.8667296">
                <ele>168.0</ele>
                <time>2020-08-28T09:19:12.000Z</time>
                <name>Trackpoint 934</name>
            </trkpt>
            <trkpt lat="49.8349728" lon="9.8667232">
                <ele>168.0</ele>
                <time>2020-08-28T09:19:14.000Z</time>
                <name>Trackpoint 935</name>
            </trkpt>
            <trkpt lat="49.835088" lon="9.8667248">
                <ele>167.0</ele>
                <time>2020-08-28T09:19:16.000Z</time>
                <name>Trackpoint 936</name>
            </trkpt>
            <trkpt lat="49.8351936" lon="9.8667384">
                <ele>167.0</ele>
                <time>2020-08-28T09:19:18.000Z</time>
                <name>Trackpoint 937</name>
            </trkpt>
            <trkpt lat="49.8352896" lon="9.8667472">
                <ele>167.0</ele>
                <time>2020-08-28T09:19:20.000Z</time>
                <name>Trackpoint 938</name>
            </trkpt>
            <trkpt lat="49.8354176" lon="9.8667496">
                <ele>167.0</ele>
                <time>2020-08-28T09:19:23.000Z</time>
                <name>Trackpoint 939</name>
            </trkpt>
            <trkpt lat="49.8355392" lon="9.8667536">
                <ele>167.0</ele>
                <time>2020-08-28T09:19:26.000Z</time>
                <name>Trackpoint 940</name>
            </trkpt>
            <trkpt lat="49.8356288" lon="9.8667384">
                <ele>166.0</ele>
                <time>2020-08-28T09:19:28.000Z</time>
                <name>Trackpoint 941</name>
            </trkpt>
            <trkpt lat="49.8357248" lon="9.8667184">
                <ele>166.0</ele>
                <time>2020-08-28T09:19:30.000Z</time>
                <name>Trackpoint 942</name>
            </trkpt>
            <trkpt lat="49.8358144" lon="9.8667032">
                <ele>166.0</ele>
                <time>2020-08-28T09:19:32.000Z</time>
                <name>Trackpoint 943</name>
            </trkpt>
            <trkpt lat="49.8359072" lon="9.8666584">
                <ele>165.0</ele>
                <time>2020-08-28T09:19:34.000Z</time>
                <name>Trackpoint 944</name>
            </trkpt>
            <trkpt lat="49.836" lon="9.8666216">
                <ele>165.0</ele>
                <time>2020-08-28T09:19:36.000Z</time>
                <name>Trackpoint 945</name>
            </trkpt>
            <trkpt lat="49.8361152" lon="9.8665896">
                <ele>166.0</ele>
                <time>2020-08-28T09:19:39.000Z</time>
                <name>Trackpoint 946</name>
            </trkpt>
            <trkpt lat="49.8362048" lon="9.8665616">
                <ele>166.0</ele>
                <time>2020-08-28T09:19:41.000Z</time>
                <name>Trackpoint 947</name>
            </trkpt>
            <trkpt lat="49.8362912" lon="9.8665336">
                <ele>166.0</ele>
                <time>2020-08-28T09:19:43.000Z</time>
                <name>Trackpoint 948</name>
            </trkpt>
            <trkpt lat="49.8364064" lon="9.8665064">
                <ele>166.0</ele>
                <time>2020-08-28T09:19:46.000Z</time>
                <name>Trackpoint 949</name>
            </trkpt>
            <trkpt lat="49.8365312" lon="9.8665216">
                <ele>167.0</ele>
                <time>2020-08-28T09:19:49.000Z</time>
                <name>Trackpoint 950</name>
            </trkpt>
            <trkpt lat="49.83664" lon="9.8665248">
                <ele>167.0</ele>
                <time>2020-08-28T09:19:52.000Z</time>
                <name>Trackpoint 951</name>
            </trkpt>
            <trkpt lat="49.8366848" lon="9.8666064">
                <ele>167.0</ele>
                <time>2020-08-28T09:19:58.000Z</time>
                <name>Trackpoint 952</name>
            </trkpt>
            <trkpt lat="49.8366784" lon="9.8667032">
                <ele>167.0</ele>
                <time>2020-08-28T09:20:05.000Z</time>
                <name>Trackpoint 953</name>
            </trkpt>
            <trkpt lat="49.836768" lon="9.8667248">
                <ele>167.0</ele>
                <time>2020-08-28T09:20:13.000Z</time>
                <name>Trackpoint 954</name>
            </trkpt>
            <trkpt lat="49.83688" lon="9.8667272">
                <ele>167.0</ele>
                <time>2020-08-28T09:20:18.000Z</time>
                <name>Trackpoint 955</name>
            </trkpt>
            <trkpt lat="49.836976" lon="9.8667032">
                <ele>167.0</ele>
                <time>2020-08-28T09:20:34.000Z</time>
                <name>Trackpoint 956</name>
            </trkpt>
            <trkpt lat="49.8370752" lon="9.8667488">
                <ele>167.0</ele>
                <time>2020-08-28T09:20:39.000Z</time>
                <name>Trackpoint 957</name>
            </trkpt>
            <trkpt lat="49.8371616" lon="9.8667872">
                <ele>167.0</ele>
                <time>2020-08-28T09:20:42.000Z</time>
                <name>Trackpoint 958</name>
            </trkpt>
            <trkpt lat="49.8372512" lon="9.8668072">
                <ele>167.0</ele>
                <time>2020-08-28T09:20:45.000Z</time>
                <name>Trackpoint 959</name>
            </trkpt>
            <trkpt lat="49.8373504" lon="9.8668368">
                <ele>167.0</ele>
                <time>2020-08-28T09:20:48.000Z</time>
                <name>Trackpoint 960</name>
            </trkpt>
            <trkpt lat="49.8374528" lon="9.8668672">
                <ele>167.0</ele>
                <time>2020-08-28T09:20:51.000Z</time>
                <name>Trackpoint 961</name>
            </trkpt>
            <trkpt lat="49.837552" lon="9.8668968">
                <ele>167.0</ele>
                <time>2020-08-28T09:20:54.000Z</time>
                <name>Trackpoint 962</name>
            </trkpt>
            <trkpt lat="49.8376416" lon="9.866908">
                <ele>167.0</ele>
                <time>2020-08-28T09:20:56.000Z</time>
                <name>Trackpoint 963</name>
            </trkpt>
            <trkpt lat="49.8377472" lon="9.8669168">
                <ele>167.0</ele>
                <time>2020-08-28T09:20:58.000Z</time>
                <name>Trackpoint 964</name>
            </trkpt>
            <trkpt lat="49.8378464" lon="9.8669344">
                <ele>167.0</ele>
                <time>2020-08-28T09:21:00.000Z</time>
                <name>Trackpoint 965</name>
            </trkpt>
            <trkpt lat="49.8379488" lon="9.8669504">
                <ele>167.0</ele>
                <time>2020-08-28T09:21:02.000Z</time>
                <name>Trackpoint 966</name>
            </trkpt>
            <trkpt lat="49.8380544" lon="9.866972">
                <ele>167.0</ele>
                <time>2020-08-28T09:21:04.000Z</time>
                <name>Trackpoint 967</name>
            </trkpt>
            <trkpt lat="49.8381504" lon="9.8669704">
                <ele>167.0</ele>
                <time>2020-08-28T09:21:06.000Z</time>
                <name>Trackpoint 968</name>
            </trkpt>
            <trkpt lat="49.838256" lon="9.8669552">
                <ele>167.0</ele>
                <time>2020-08-28T09:21:08.000Z</time>
                <name>Trackpoint 969</name>
            </trkpt>
            <trkpt lat="49.8383584" lon="9.866952">
                <ele>167.0</ele>
                <time>2020-08-28T09:21:10.000Z</time>
                <name>Trackpoint 970</name>
            </trkpt>
            <trkpt lat="49.8384576" lon="9.8669584">
                <ele>167.0</ele>
                <time>2020-08-28T09:21:12.000Z</time>
                <name>Trackpoint 971</name>
            </trkpt>
            <trkpt lat="49.8385536" lon="9.8669664">
                <ele>167.0</ele>
                <time>2020-08-28T09:21:14.000Z</time>
                <name>Trackpoint 972</name>
            </trkpt>
            <trkpt lat="49.8386464" lon="9.8669768">
                <ele>167.0</ele>
                <time>2020-08-28T09:21:16.000Z</time>
                <name>Trackpoint 973</name>
            </trkpt>
            <trkpt lat="49.8387712" lon="9.866972">
                <ele>167.0</ele>
                <time>2020-08-28T09:21:19.000Z</time>
                <name>Trackpoint 974</name>
            </trkpt>
            <trkpt lat="49.8388864" lon="9.8669568">
                <ele>167.0</ele>
                <time>2020-08-28T09:21:21.000Z</time>
                <name>Trackpoint 975</name>
            </trkpt>
            <trkpt lat="49.839008" lon="9.8669504">
                <ele>167.0</ele>
                <time>2020-08-28T09:21:23.000Z</time>
                <name>Trackpoint 976</name>
            </trkpt>
            <trkpt lat="49.8391104" lon="9.8669584">
                <ele>167.0</ele>
                <time>2020-08-28T09:21:25.000Z</time>
                <name>Trackpoint 977</name>
            </trkpt>
            <trkpt lat="49.8392192" lon="9.8669616">
                <ele>167.0</ele>
                <time>2020-08-28T09:21:27.000Z</time>
                <name>Trackpoint 978</name>
            </trkpt>
            <trkpt lat="49.8393184" lon="9.8669616">
                <ele>167.0</ele>
                <time>2020-08-28T09:21:29.000Z</time>
                <name>Trackpoint 979</name>
            </trkpt>
            <trkpt lat="49.839424" lon="9.8669528">
                <ele>167.0</ele>
                <time>2020-08-28T09:21:31.000Z</time>
                <name>Trackpoint 980</name>
            </trkpt>
            <trkpt lat="49.8395488" lon="9.8669568">
                <ele>167.0</ele>
                <time>2020-08-28T09:21:33.000Z</time>
                <name>Trackpoint 981</name>
            </trkpt>
            <trkpt lat="49.8396608" lon="9.8669632">
                <ele>167.0</ele>
                <time>2020-08-28T09:21:35.000Z</time>
                <name>Trackpoint 982</name>
            </trkpt>
            <trkpt lat="49.839776" lon="9.8669592">
                <ele>167.0</ele>
                <time>2020-08-28T09:21:37.000Z</time>
                <name>Trackpoint 983</name>
            </trkpt>
            <trkpt lat="49.8398944" lon="9.8669504">
                <ele>167.0</ele>
                <time>2020-08-28T09:21:39.000Z</time>
                <name>Trackpoint 984</name>
            </trkpt>
            <trkpt lat="49.840016" lon="9.8669384">
                <ele>167.0</ele>
                <time>2020-08-28T09:21:41.000Z</time>
                <name>Trackpoint 985</name>
            </trkpt>
            <trkpt lat="49.8401344" lon="9.8669344">
                <ele>167.0</ele>
                <time>2020-08-28T09:21:43.000Z</time>
                <name>Trackpoint 986</name>
            </trkpt>
            <trkpt lat="49.8402624" lon="9.8669528">
                <ele>167.0</ele>
                <time>2020-08-28T09:21:45.000Z</time>
                <name>Trackpoint 987</name>
            </trkpt>
            <trkpt lat="49.8403904" lon="9.8669584">
                <ele>167.0</ele>
                <time>2020-08-28T09:21:47.000Z</time>
                <name>Trackpoint 988</name>
            </trkpt>
            <trkpt lat="49.840512" lon="9.8669568">
                <ele>167.0</ele>
                <time>2020-08-28T09:21:49.000Z</time>
                <name>Trackpoint 989</name>
            </trkpt>
            <trkpt lat="49.8406368" lon="9.8669664">
                <ele>167.0</ele>
                <time>2020-08-28T09:21:51.000Z</time>
                <name>Trackpoint 990</name>
            </trkpt>
            <trkpt lat="49.840768" lon="9.866972">
                <ele>167.0</ele>
                <time>2020-08-28T09:21:53.000Z</time>
                <name>Trackpoint 991</name>
            </trkpt>
            <trkpt lat="49.8408768" lon="9.8669704">
                <ele>167.0</ele>
                <time>2020-08-28T09:21:55.000Z</time>
                <name>Trackpoint 992</name>
            </trkpt>
            <trkpt lat="49.8409792" lon="9.8669584">
                <ele>168.0</ele>
                <time>2020-08-28T09:21:57.000Z</time>
                <name>Trackpoint 993</name>
            </trkpt>
            <trkpt lat="49.8410944" lon="9.8669392">
                <ele>168.0</ele>
                <time>2020-08-28T09:21:59.000Z</time>
                <name>Trackpoint 994</name>
            </trkpt>
            <trkpt lat="49.8412096" lon="9.866932">
                <ele>168.0</ele>
                <time>2020-08-28T09:22:01.000Z</time>
                <name>Trackpoint 995</name>
            </trkpt>
            <trkpt lat="49.841328" lon="9.8669304">
                <ele>168.0</ele>
                <time>2020-08-28T09:22:03.000Z</time>
                <name>Trackpoint 996</name>
            </trkpt>
            <trkpt lat="49.8414496" lon="9.8669216">
                <ele>168.0</ele>
                <time>2020-08-28T09:22:05.000Z</time>
                <name>Trackpoint 997</name>
            </trkpt>
            <trkpt lat="49.8415648" lon="9.866912">
                <ele>168.0</ele>
                <time>2020-08-28T09:22:07.000Z</time>
                <name>Trackpoint 998</name>
            </trkpt>
            <trkpt lat="49.8416864" lon="9.8669056">
                <ele>168.0</ele>
                <time>2020-08-28T09:22:09.000Z</time>
                <name>Trackpoint 999</name>
            </trkpt>
            <trkpt lat="49.841808" lon="9.8669096">
                <ele>168.0</ele>
                <time>2020-08-28T09:22:11.000Z</time>
                <name>Trackpoint 1000</name>
            </trkpt>
            <trkpt lat="49.8419328" lon="9.8669008">
                <ele>168.0</ele>
                <time>2020-08-28T09:22:13.000Z</time>
                <name>Trackpoint 1001</name>
            </trkpt>
            <trkpt lat="49.8420608" lon="9.8668808">
                <ele>168.0</ele>
                <time>2020-08-28T09:22:15.000Z</time>
                <name>Trackpoint 1002</name>
            </trkpt>
            <trkpt lat="49.8421792" lon="9.86684">
                <ele>168.0</ele>
                <time>2020-08-28T09:22:17.000Z</time>
                <name>Trackpoint 1003</name>
            </trkpt>
            <trkpt lat="49.8422976" lon="9.8667944">
                <ele>168.0</ele>
                <time>2020-08-28T09:22:19.000Z</time>
                <name>Trackpoint 1004</name>
            </trkpt>
            <trkpt lat="49.842416" lon="9.8667544">
                <ele>168.0</ele>
                <time>2020-08-28T09:22:21.000Z</time>
                <name>Trackpoint 1005</name>
            </trkpt>
            <trkpt lat="49.8425376" lon="9.8667">
                <ele>168.0</ele>
                <time>2020-08-28T09:22:23.000Z</time>
                <name>Trackpoint 1006</name>
            </trkpt>
            <trkpt lat="49.8426592" lon="9.8666448">
                <ele>168.0</ele>
                <time>2020-08-28T09:22:25.000Z</time>
                <name>Trackpoint 1007</name>
            </trkpt>
            <trkpt lat="49.842784" lon="9.8665912">
                <ele>168.0</ele>
                <time>2020-08-28T09:22:27.000Z</time>
                <name>Trackpoint 1008</name>
            </trkpt>
            <trkpt lat="49.8429216" lon="9.8665304">
                <ele>168.0</ele>
                <time>2020-08-28T09:22:29.000Z</time>
                <name>Trackpoint 1009</name>
            </trkpt>
            <trkpt lat="49.8430624" lon="9.8664776">
                <ele>168.0</ele>
                <time>2020-08-28T09:22:31.000Z</time>
                <name>Trackpoint 1010</name>
            </trkpt>
            <trkpt lat="49.8432032" lon="9.8664176">
                <ele>168.0</ele>
                <time>2020-08-28T09:22:33.000Z</time>
                <name>Trackpoint 1011</name>
            </trkpt>
            <trkpt lat="49.8433408" lon="9.86636">
                <ele>168.0</ele>
                <time>2020-08-28T09:22:35.000Z</time>
                <name>Trackpoint 1012</name>
            </trkpt>
            <trkpt lat="49.8434816" lon="9.8663">
                <ele>168.0</ele>
                <time>2020-08-28T09:22:37.000Z</time>
                <name>Trackpoint 1013</name>
            </trkpt>
            <trkpt lat="49.843616" lon="9.866232">
                <ele>168.0</ele>
                <time>2020-08-28T09:22:39.000Z</time>
                <name>Trackpoint 1014</name>
            </trkpt>
            <trkpt lat="49.8437504" lon="9.8661848">
                <ele>168.0</ele>
                <time>2020-08-28T09:22:41.000Z</time>
                <name>Trackpoint 1015</name>
            </trkpt>
            <trkpt lat="49.8438912" lon="9.8661168">
                <ele>168.0</ele>
                <time>2020-08-28T09:22:43.000Z</time>
                <name>Trackpoint 1016</name>
            </trkpt>
            <trkpt lat="49.8440224" lon="9.8660496">
                <ele>168.0</ele>
                <time>2020-08-28T09:22:45.000Z</time>
                <name>Trackpoint 1017</name>
            </trkpt>
            <trkpt lat="49.844144" lon="9.8659736">
                <ele>168.0</ele>
                <time>2020-08-28T09:22:47.000Z</time>
                <name>Trackpoint 1018</name>
            </trkpt>
            <trkpt lat="49.8442624" lon="9.8658816">
                <ele>168.0</ele>
                <time>2020-08-28T09:22:49.000Z</time>
                <name>Trackpoint 1019</name>
            </trkpt>
            <trkpt lat="49.8443936" lon="9.8657952">
                <ele>168.0</ele>
                <time>2020-08-28T09:22:51.000Z</time>
                <name>Trackpoint 1020</name>
            </trkpt>
            <trkpt lat="49.8445248" lon="9.8657168">
                <ele>168.0</ele>
                <time>2020-08-28T09:22:53.000Z</time>
                <name>Trackpoint 1021</name>
            </trkpt>
            <trkpt lat="49.8446496" lon="9.8656568">
                <ele>168.0</ele>
                <time>2020-08-28T09:22:55.000Z</time>
                <name>Trackpoint 1022</name>
            </trkpt>
            <trkpt lat="49.8447808" lon="9.8655768">
                <ele>168.0</ele>
                <time>2020-08-28T09:22:57.000Z</time>
                <name>Trackpoint 1023</name>
            </trkpt>
            <trkpt lat="49.8449056" lon="9.8654968">
                <ele>168.0</ele>
                <time>2020-08-28T09:22:59.000Z</time>
                <name>Trackpoint 1024</name>
            </trkpt>
            <trkpt lat="49.8450432" lon="9.865412">
                <ele>167.0</ele>
                <time>2020-08-28T09:23:01.000Z</time>
                <name>Trackpoint 1025</name>
            </trkpt>
            <trkpt lat="49.84512" lon="9.8653616">
                <ele>168.0</ele>
                <time>2020-08-28T09:23:02.000Z</time>
                <name>Trackpoint 1026</name>
            </trkpt>
            <trkpt lat="49.8452544" lon="9.8652664">
                <ele>168.0</ele>
                <time>2020-08-28T09:23:04.000Z</time>
                <name>Trackpoint 1027</name>
            </trkpt>
            <trkpt lat="49.845376" lon="9.8651664">
                <ele>168.0</ele>
                <time>2020-08-28T09:23:06.000Z</time>
                <name>Trackpoint 1028</name>
            </trkpt>
            <trkpt lat="49.8455008" lon="9.8650664">
                <ele>168.0</ele>
                <time>2020-08-28T09:23:08.000Z</time>
                <name>Trackpoint 1029</name>
            </trkpt>
            <trkpt lat="49.8456256" lon="9.8649584">
                <ele>168.0</ele>
                <time>2020-08-28T09:23:10.000Z</time>
                <name>Trackpoint 1030</name>
            </trkpt>
            <trkpt lat="49.845744" lon="9.8648504">
                <ele>168.0</ele>
                <time>2020-08-28T09:23:12.000Z</time>
                <name>Trackpoint 1031</name>
            </trkpt>
            <trkpt lat="49.8458848" lon="9.8647632">
                <ele>168.0</ele>
                <time>2020-08-28T09:23:14.000Z</time>
                <name>Trackpoint 1032</name>
            </trkpt>
            <trkpt lat="49.8459936" lon="9.8646648">
                <ele>168.0</ele>
                <time>2020-08-28T09:23:16.000Z</time>
                <name>Trackpoint 1033</name>
            </trkpt>
            <trkpt lat="49.846112" lon="9.864556">
                <ele>168.0</ele>
                <time>2020-08-28T09:23:18.000Z</time>
                <name>Trackpoint 1034</name>
            </trkpt>
            <trkpt lat="49.846192" lon="9.8645112">
                <ele>168.0</ele>
                <time>2020-08-28T09:23:19.000Z</time>
                <name>Trackpoint 1035</name>
            </trkpt>
            <trkpt lat="49.8463168" lon="9.8644048">
                <ele>168.0</ele>
                <time>2020-08-28T09:23:21.000Z</time>
                <name>Trackpoint 1036</name>
            </trkpt>
            <trkpt lat="49.8464416" lon="9.8643016">
                <ele>168.0</ele>
                <time>2020-08-28T09:23:23.000Z</time>
                <name>Trackpoint 1037</name>
            </trkpt>
            <trkpt lat="49.8465664" lon="9.8642064">
                <ele>168.0</ele>
                <time>2020-08-28T09:23:25.000Z</time>
                <name>Trackpoint 1038</name>
            </trkpt>
            <trkpt lat="49.8467168" lon="9.864108">
                <ele>168.0</ele>
                <time>2020-08-28T09:23:27.000Z</time>
                <name>Trackpoint 1039</name>
            </trkpt>
            <trkpt lat="49.8468512" lon="9.8640072">
                <ele>168.0</ele>
                <time>2020-08-28T09:23:29.000Z</time>
                <name>Trackpoint 1040</name>
            </trkpt>
            <trkpt lat="49.8469856" lon="9.8639136">
                <ele>168.0</ele>
                <time>2020-08-28T09:23:31.000Z</time>
                <name>Trackpoint 1041</name>
            </trkpt>
            <trkpt lat="49.8471232" lon="9.86382">
                <ele>168.0</ele>
                <time>2020-08-28T09:23:33.000Z</time>
                <name>Trackpoint 1042</name>
            </trkpt>
            <trkpt lat="49.847248" lon="9.8637336">
                <ele>168.0</ele>
                <time>2020-08-28T09:23:35.000Z</time>
                <name>Trackpoint 1043</name>
            </trkpt>
            <trkpt lat="49.8473792" lon="9.8636376">
                <ele>168.0</ele>
                <time>2020-08-28T09:23:37.000Z</time>
                <name>Trackpoint 1044</name>
            </trkpt>
            <trkpt lat="49.8475104" lon="9.863548">
                <ele>168.0</ele>
                <time>2020-08-28T09:23:39.000Z</time>
                <name>Trackpoint 1045</name>
            </trkpt>
            <trkpt lat="49.847632" lon="9.8634368">
                <ele>168.0</ele>
                <time>2020-08-28T09:23:41.000Z</time>
                <name>Trackpoint 1046</name>
            </trkpt>
            <trkpt lat="49.847712" lon="9.8633816">
                <ele>168.0</ele>
                <time>2020-08-28T09:23:42.000Z</time>
                <name>Trackpoint 1047</name>
            </trkpt>
            <trkpt lat="49.8478304" lon="9.8632536">
                <ele>168.0</ele>
                <time>2020-08-28T09:23:44.000Z</time>
                <name>Trackpoint 1048</name>
            </trkpt>
            <trkpt lat="49.8479488" lon="9.8631352">
                <ele>168.0</ele>
                <time>2020-08-28T09:23:46.000Z</time>
                <name>Trackpoint 1049</name>
            </trkpt>
            <trkpt lat="49.8480576" lon="9.8630088">
                <ele>168.0</ele>
                <time>2020-08-28T09:23:48.000Z</time>
                <name>Trackpoint 1050</name>
            </trkpt>
            <trkpt lat="49.84816" lon="9.8628784">
                <ele>168.0</ele>
                <time>2020-08-28T09:23:50.000Z</time>
                <name>Trackpoint 1051</name>
            </trkpt>
            <trkpt lat="49.8482624" lon="9.8627464">
                <ele>168.0</ele>
                <time>2020-08-28T09:23:52.000Z</time>
                <name>Trackpoint 1052</name>
            </trkpt>
            <trkpt lat="49.8483616" lon="9.8626144">
                <ele>168.0</ele>
                <time>2020-08-28T09:23:54.000Z</time>
                <name>Trackpoint 1053</name>
            </trkpt>
            <trkpt lat="49.848464" lon="9.8624832">
                <ele>169.0</ele>
                <time>2020-08-28T09:23:56.000Z</time>
                <name>Trackpoint 1054</name>
            </trkpt>
            <trkpt lat="49.8485728" lon="9.8623448">
                <ele>169.0</ele>
                <time>2020-08-28T09:23:58.000Z</time>
                <name>Trackpoint 1055</name>
            </trkpt>
            <trkpt lat="49.8486656" lon="9.8622">
                <ele>169.0</ele>
                <time>2020-08-28T09:24:00.000Z</time>
                <name>Trackpoint 1056</name>
            </trkpt>
            <trkpt lat="49.8487808" lon="9.8620816">
                <ele>169.0</ele>
                <time>2020-08-28T09:24:02.000Z</time>
                <name>Trackpoint 1057</name>
            </trkpt>
            <trkpt lat="49.8488768" lon="9.8619472">
                <ele>169.0</ele>
                <time>2020-08-28T09:24:04.000Z</time>
                <name>Trackpoint 1058</name>
            </trkpt>
            <trkpt lat="49.8489792" lon="9.861812">
                <ele>169.0</ele>
                <time>2020-08-28T09:24:06.000Z</time>
                <name>Trackpoint 1059</name>
            </trkpt>
            <trkpt lat="49.849088" lon="9.86168">
                <ele>169.0</ele>
                <time>2020-08-28T09:24:08.000Z</time>
                <name>Trackpoint 1060</name>
            </trkpt>
            <trkpt lat="49.8491904" lon="9.8615512">
                <ele>169.0</ele>
                <time>2020-08-28T09:24:10.000Z</time>
                <name>Trackpoint 1061</name>
            </trkpt>
            <trkpt lat="49.8492896" lon="9.8614384">
                <ele>169.0</ele>
                <time>2020-08-28T09:24:12.000Z</time>
                <name>Trackpoint 1062</name>
            </trkpt>
            <trkpt lat="49.8494048" lon="9.8613216">
                <ele>169.0</ele>
                <time>2020-08-28T09:24:14.000Z</time>
                <name>Trackpoint 1063</name>
            </trkpt>
            <trkpt lat="49.8494944" lon="9.8612136">
                <ele>169.0</ele>
                <time>2020-08-28T09:24:16.000Z</time>
                <name>Trackpoint 1064</name>
            </trkpt>
            <trkpt lat="49.8495744" lon="9.86112">
                <ele>169.0</ele>
                <time>2020-08-28T09:24:18.000Z</time>
                <name>Trackpoint 1065</name>
            </trkpt>
            <trkpt lat="49.8496544" lon="9.8610448">
                <ele>169.0</ele>
                <time>2020-08-28T09:24:20.000Z</time>
                <name>Trackpoint 1066</name>
            </trkpt>
            <trkpt lat="49.849728" lon="9.8609488">
                <ele>169.0</ele>
                <time>2020-08-28T09:24:22.000Z</time>
                <name>Trackpoint 1067</name>
            </trkpt>
            <trkpt lat="49.8497952" lon="9.8608648">
                <ele>169.0</ele>
                <time>2020-08-28T09:24:24.000Z</time>
                <name>Trackpoint 1068</name>
            </trkpt>
            <trkpt lat="49.8498624" lon="9.8607768">
                <ele>169.0</ele>
                <time>2020-08-28T09:24:26.000Z</time>
                <name>Trackpoint 1069</name>
            </trkpt>
            <trkpt lat="49.8499296" lon="9.8607032">
                <ele>169.0</ele>
                <time>2020-08-28T09:24:28.000Z</time>
                <name>Trackpoint 1070</name>
            </trkpt>
            <trkpt lat="49.8500096" lon="9.860628">
                <ele>169.0</ele>
                <time>2020-08-28T09:24:30.000Z</time>
                <name>Trackpoint 1071</name>
            </trkpt>
            <trkpt lat="49.8500896" lon="9.8605368">
                <ele>169.0</ele>
                <time>2020-08-28T09:24:32.000Z</time>
                <name>Trackpoint 1072</name>
            </trkpt>
            <trkpt lat="49.8501696" lon="9.860448">
                <ele>169.0</ele>
                <time>2020-08-28T09:24:34.000Z</time>
                <name>Trackpoint 1073</name>
            </trkpt>
            <trkpt lat="49.8502464" lon="9.860376">
                <ele>169.0</ele>
                <time>2020-08-28T09:24:36.000Z</time>
                <name>Trackpoint 1074</name>
            </trkpt>
            <trkpt lat="49.8503232" lon="9.8603096">
                <ele>169.0</ele>
                <time>2020-08-28T09:24:38.000Z</time>
                <name>Trackpoint 1075</name>
            </trkpt>
            <trkpt lat="49.8504064" lon="9.8602352">
                <ele>169.0</ele>
                <time>2020-08-28T09:24:40.000Z</time>
                <name>Trackpoint 1076</name>
            </trkpt>
            <trkpt lat="49.8504832" lon="9.8601448">
                <ele>169.0</ele>
                <time>2020-08-28T09:24:42.000Z</time>
                <name>Trackpoint 1077</name>
            </trkpt>
            <trkpt lat="49.8505696" lon="9.86006">
                <ele>169.0</ele>
                <time>2020-08-28T09:24:44.000Z</time>
                <name>Trackpoint 1078</name>
            </trkpt>
            <trkpt lat="49.8506592" lon="9.859972">
                <ele>169.0</ele>
                <time>2020-08-28T09:24:46.000Z</time>
                <name>Trackpoint 1079</name>
            </trkpt>
            <trkpt lat="49.8507264" lon="9.8599016">
                <ele>169.0</ele>
                <time>2020-08-28T09:24:48.000Z</time>
                <name>Trackpoint 1080</name>
            </trkpt>
            <trkpt lat="49.850816" lon="9.8598048">
                <ele>169.0</ele>
                <time>2020-08-28T09:24:51.000Z</time>
                <name>Trackpoint 1081</name>
            </trkpt>
            <trkpt lat="49.850896" lon="9.8597248">
                <ele>169.0</ele>
                <time>2020-08-28T09:24:53.000Z</time>
                <name>Trackpoint 1082</name>
            </trkpt>
            <trkpt lat="49.8509792" lon="9.8596136">
                <ele>169.0</ele>
                <time>2020-08-28T09:24:55.000Z</time>
                <name>Trackpoint 1083</name>
            </trkpt>
            <trkpt lat="49.851072" lon="9.8594968">
                <ele>169.0</ele>
                <time>2020-08-28T09:24:57.000Z</time>
                <name>Trackpoint 1084</name>
            </trkpt>
            <trkpt lat="49.851184" lon="9.8593816">
                <ele>169.0</ele>
                <time>2020-08-28T09:24:59.000Z</time>
                <name>Trackpoint 1085</name>
            </trkpt>
            <trkpt lat="49.8512832" lon="9.8592528">
                <ele>169.0</ele>
                <time>2020-08-28T09:25:01.000Z</time>
                <name>Trackpoint 1086</name>
            </trkpt>
            <trkpt lat="49.851392" lon="9.8591368">
                <ele>169.0</ele>
                <time>2020-08-28T09:25:03.000Z</time>
                <name>Trackpoint 1087</name>
            </trkpt>
            <trkpt lat="49.8514912" lon="9.8590072">
                <ele>169.0</ele>
                <time>2020-08-28T09:25:05.000Z</time>
                <name>Trackpoint 1088</name>
            </trkpt>
            <trkpt lat="49.8515808" lon="9.858876">
                <ele>169.0</ele>
                <time>2020-08-28T09:25:07.000Z</time>
                <name>Trackpoint 1089</name>
            </trkpt>
            <trkpt lat="49.851664" lon="9.8587312">
                <ele>169.0</ele>
                <time>2020-08-28T09:25:09.000Z</time>
                <name>Trackpoint 1090</name>
            </trkpt>
            <trkpt lat="49.8517632" lon="9.8585952">
                <ele>169.0</ele>
                <time>2020-08-28T09:25:11.000Z</time>
                <name>Trackpoint 1091</name>
            </trkpt>
            <trkpt lat="49.851856" lon="9.8584544">
                <ele>169.0</ele>
                <time>2020-08-28T09:25:13.000Z</time>
                <name>Trackpoint 1092</name>
            </trkpt>
            <trkpt lat="49.851952" lon="9.8583168">
                <ele>169.0</ele>
                <time>2020-08-28T09:25:15.000Z</time>
                <name>Trackpoint 1093</name>
            </trkpt>
            <trkpt lat="49.8520544" lon="9.8581864">
                <ele>170.0</ele>
                <time>2020-08-28T09:25:17.000Z</time>
                <name>Trackpoint 1094</name>
            </trkpt>
            <trkpt lat="49.8521504" lon="9.8580552">
                <ele>170.0</ele>
                <time>2020-08-28T09:25:19.000Z</time>
                <name>Trackpoint 1095</name>
            </trkpt>
            <trkpt lat="49.8522464" lon="9.8579168">
                <ele>170.0</ele>
                <time>2020-08-28T09:25:21.000Z</time>
                <name>Trackpoint 1096</name>
            </trkpt>
            <trkpt lat="49.8523104" lon="9.857832">
                <ele>170.0</ele>
                <time>2020-08-28T09:25:22.000Z</time>
                <name>Trackpoint 1097</name>
            </trkpt>
            <trkpt lat="49.8523552" lon="9.8577496">
                <ele>170.0</ele>
                <time>2020-08-28T09:25:23.000Z</time>
                <name>Trackpoint 1098</name>
            </trkpt>
            <trkpt lat="49.8524032" lon="9.8576696">
                <ele>170.0</ele>
                <time>2020-08-28T09:25:24.000Z</time>
                <name>Trackpoint 1099</name>
            </trkpt>
            <trkpt lat="49.852496" lon="9.8575264">
                <ele>170.0</ele>
                <time>2020-08-28T09:25:26.000Z</time>
                <name>Trackpoint 1100</name>
            </trkpt>
            <trkpt lat="49.8525472" lon="9.8574496">
                <ele>170.0</ele>
                <time>2020-08-28T09:25:27.000Z</time>
                <name>Trackpoint 1101</name>
            </trkpt>
            <trkpt lat="49.8526432" lon="9.8573104">
                <ele>170.0</ele>
                <time>2020-08-28T09:25:29.000Z</time>
                <name>Trackpoint 1102</name>
            </trkpt>
            <trkpt lat="49.8527456" lon="9.8571752">
                <ele>170.0</ele>
                <time>2020-08-28T09:25:31.000Z</time>
                <name>Trackpoint 1103</name>
            </trkpt>
            <trkpt lat="49.852848" lon="9.8570368">
                <ele>170.0</ele>
                <time>2020-08-28T09:25:33.000Z</time>
                <name>Trackpoint 1104</name>
            </trkpt>
            <trkpt lat="49.852944" lon="9.8568896">
                <ele>170.0</ele>
                <time>2020-08-28T09:25:35.000Z</time>
                <name>Trackpoint 1105</name>
            </trkpt>
            <trkpt lat="49.85304" lon="9.8567416">
                <ele>170.0</ele>
                <time>2020-08-28T09:25:37.000Z</time>
                <name>Trackpoint 1106</name>
            </trkpt>
            <trkpt lat="49.8531392" lon="9.8565952">
                <ele>170.0</ele>
                <time>2020-08-28T09:25:39.000Z</time>
                <name>Trackpoint 1107</name>
            </trkpt>
            <trkpt lat="49.8532224" lon="9.8564528">
                <ele>170.0</ele>
                <time>2020-08-28T09:25:41.000Z</time>
                <name>Trackpoint 1108</name>
            </trkpt>
            <trkpt lat="49.853312" lon="9.8563248">
                <ele>169.0</ele>
                <time>2020-08-28T09:25:43.000Z</time>
                <name>Trackpoint 1109</name>
            </trkpt>
            <trkpt lat="49.853392" lon="9.8562024">
                <ele>170.0</ele>
                <time>2020-08-28T09:25:45.000Z</time>
                <name>Trackpoint 1110</name>
            </trkpt>
            <trkpt lat="49.8534912" lon="9.8560688">
                <ele>170.0</ele>
                <time>2020-08-28T09:25:47.000Z</time>
                <name>Trackpoint 1111</name>
            </trkpt>
            <trkpt lat="49.8535808" lon="9.8559376">
                <ele>170.0</ele>
                <time>2020-08-28T09:25:49.000Z</time>
                <name>Trackpoint 1112</name>
            </trkpt>
            <trkpt lat="49.8536736" lon="9.8558016">
                <ele>170.0</ele>
                <time>2020-08-28T09:25:51.000Z</time>
                <name>Trackpoint 1113</name>
            </trkpt>
            <trkpt lat="49.85376" lon="9.8556544">
                <ele>170.0</ele>
                <time>2020-08-28T09:25:53.000Z</time>
                <name>Trackpoint 1114</name>
            </trkpt>
            <trkpt lat="49.8538528" lon="9.8555096">
                <ele>170.0</ele>
                <time>2020-08-28T09:25:55.000Z</time>
                <name>Trackpoint 1115</name>
            </trkpt>
            <trkpt lat="49.8539424" lon="9.8553736">
                <ele>170.0</ele>
                <time>2020-08-28T09:25:57.000Z</time>
                <name>Trackpoint 1116</name>
            </trkpt>
            <trkpt lat="49.854032" lon="9.8552312">
                <ele>170.0</ele>
                <time>2020-08-28T09:25:59.000Z</time>
                <name>Trackpoint 1117</name>
            </trkpt>
            <trkpt lat="49.8541152" lon="9.855092">
                <ele>170.0</ele>
                <time>2020-08-28T09:26:01.000Z</time>
                <name>Trackpoint 1118</name>
            </trkpt>
            <trkpt lat="49.8542048" lon="9.8549472">
                <ele>170.0</ele>
                <time>2020-08-28T09:26:03.000Z</time>
                <name>Trackpoint 1119</name>
            </trkpt>
            <trkpt lat="49.8542944" lon="9.8548184">
                <ele>169.0</ele>
                <time>2020-08-28T09:26:05.000Z</time>
                <name>Trackpoint 1120</name>
            </trkpt>
            <trkpt lat="49.8543744" lon="9.8546816">
                <ele>169.0</ele>
                <time>2020-08-28T09:26:07.000Z</time>
                <name>Trackpoint 1121</name>
            </trkpt>
            <trkpt lat="49.8544352" lon="9.8545328">
                <ele>169.0</ele>
                <time>2020-08-28T09:26:09.000Z</time>
                <name>Trackpoint 1122</name>
            </trkpt>
            <trkpt lat="49.8544608" lon="9.8544456">
                <ele>169.0</ele>
                <time>2020-08-28T09:26:10.000Z</time>
                <name>Trackpoint 1123</name>
            </trkpt>
            <trkpt lat="49.8544896" lon="9.85436">
                <ele>169.0</ele>
                <time>2020-08-28T09:26:11.000Z</time>
                <name>Trackpoint 1124</name>
            </trkpt>
            <trkpt lat="49.8545504" lon="9.8541936">
                <ele>169.0</ele>
                <time>2020-08-28T09:26:13.000Z</time>
                <name>Trackpoint 1125</name>
            </trkpt>
            <trkpt lat="49.8545792" lon="9.8541072">
                <ele>169.0</ele>
                <time>2020-08-28T09:26:14.000Z</time>
                <name>Trackpoint 1126</name>
            </trkpt>
            <trkpt lat="49.8546112" lon="9.854016">
                <ele>169.0</ele>
                <time>2020-08-28T09:26:15.000Z</time>
                <name>Trackpoint 1127</name>
            </trkpt>
            <trkpt lat="49.85464" lon="9.8539288">
                <ele>169.0</ele>
                <time>2020-08-28T09:26:16.000Z</time>
                <name>Trackpoint 1128</name>
            </trkpt>
            <trkpt lat="49.854672" lon="9.8538376">
                <ele>169.0</ele>
                <time>2020-08-28T09:26:17.000Z</time>
                <name>Trackpoint 1129</name>
            </trkpt>
            <trkpt lat="49.8547328" lon="9.8536784">
                <ele>169.0</ele>
                <time>2020-08-28T09:26:19.000Z</time>
                <name>Trackpoint 1130</name>
            </trkpt>
            <trkpt lat="49.8548" lon="9.85352">
                <ele>168.0</ele>
                <time>2020-08-28T09:26:21.000Z</time>
                <name>Trackpoint 1131</name>
            </trkpt>
            <trkpt lat="49.8548416" lon="9.8534296">
                <ele>168.0</ele>
                <time>2020-08-28T09:26:22.000Z</time>
                <name>Trackpoint 1132</name>
            </trkpt>
            <trkpt lat="49.8548736" lon="9.8533424">
                <ele>168.0</ele>
                <time>2020-08-28T09:26:23.000Z</time>
                <name>Trackpoint 1133</name>
            </trkpt>
            <trkpt lat="49.854912" lon="9.8532536">
                <ele>168.0</ele>
                <time>2020-08-28T09:26:24.000Z</time>
                <name>Trackpoint 1134</name>
            </trkpt>
            <trkpt lat="49.8549504" lon="9.8531664">
                <ele>168.0</ele>
                <time>2020-08-28T09:26:25.000Z</time>
                <name>Trackpoint 1135</name>
            </trkpt>
            <trkpt lat="49.8550144" lon="9.853008">
                <ele>168.0</ele>
                <time>2020-08-28T09:26:27.000Z</time>
                <name>Trackpoint 1136</name>
            </trkpt>
            <trkpt lat="49.8550912" lon="9.8528608">
                <ele>168.0</ele>
                <time>2020-08-28T09:26:29.000Z</time>
                <name>Trackpoint 1137</name>
            </trkpt>
            <trkpt lat="49.8551552" lon="9.8527048">
                <ele>168.0</ele>
                <time>2020-08-28T09:26:31.000Z</time>
                <name>Trackpoint 1138</name>
            </trkpt>
            <trkpt lat="49.8552288" lon="9.8525632">
                <ele>168.0</ele>
                <time>2020-08-28T09:26:33.000Z</time>
                <name>Trackpoint 1139</name>
            </trkpt>
            <trkpt lat="49.855296" lon="9.8524288">
                <ele>168.0</ele>
                <time>2020-08-28T09:26:35.000Z</time>
                <name>Trackpoint 1140</name>
            </trkpt>
            <trkpt lat="49.8553728" lon="9.8523328">
                <ele>168.0</ele>
                <time>2020-08-28T09:26:37.000Z</time>
                <name>Trackpoint 1141</name>
            </trkpt>
            <trkpt lat="49.8554272" lon="9.8522568">
                <ele>168.0</ele>
                <time>2020-08-28T09:26:41.000Z</time>
                <name>Trackpoint 1142</name>
            </trkpt>
            <trkpt lat="49.8554432" lon="9.8523456">
                <ele>168.0</ele>
                <time>2020-08-28T09:27:23.000Z</time>
                <name>Trackpoint 1143</name>
            </trkpt>
            <trkpt lat="49.855488" lon="9.8524688">
                <ele>167.0</ele>
                <time>2020-08-28T09:27:26.000Z</time>
                <name>Trackpoint 1144</name>
            </trkpt>
            <trkpt lat="49.8555424" lon="9.8525448">
                <ele>167.0</ele>
                <time>2020-08-28T09:27:29.000Z</time>
                <name>Trackpoint 1145</name>
            </trkpt>
            <trkpt lat="49.8556448" lon="9.852524">
                <ele>168.0</ele>
                <time>2020-08-28T09:27:32.000Z</time>
                <name>Trackpoint 1146</name>
            </trkpt>
            <trkpt lat="49.8557472" lon="9.8524552">
                <ele>168.0</ele>
                <time>2020-08-28T09:27:34.000Z</time>
                <name>Trackpoint 1147</name>
            </trkpt>
            <trkpt lat="49.8558496" lon="9.8523968">
                <ele>168.0</ele>
                <time>2020-08-28T09:27:36.000Z</time>
                <name>Trackpoint 1148</name>
            </trkpt>
            <trkpt lat="49.855968" lon="9.8523016">
                <ele>168.0</ele>
                <time>2020-08-28T09:27:38.000Z</time>
                <name>Trackpoint 1149</name>
            </trkpt>
            <trkpt lat="49.8560928" lon="9.8521992">
                <ele>168.0</ele>
                <time>2020-08-28T09:27:40.000Z</time>
                <name>Trackpoint 1150</name>
            </trkpt>
            <trkpt lat="49.8562176" lon="9.8520896">
                <ele>168.0</ele>
                <time>2020-08-28T09:27:42.000Z</time>
                <name>Trackpoint 1151</name>
            </trkpt>
            <trkpt lat="49.8563392" lon="9.8519784">
                <ele>168.0</ele>
                <time>2020-08-28T09:27:44.000Z</time>
                <name>Trackpoint 1152</name>
            </trkpt>
            <trkpt lat="49.856448" lon="9.8518416">
                <ele>168.0</ele>
                <time>2020-08-28T09:27:46.000Z</time>
                <name>Trackpoint 1153</name>
            </trkpt>
            <trkpt lat="49.856544" lon="9.8516912">
                <ele>168.0</ele>
                <time>2020-08-28T09:27:48.000Z</time>
                <name>Trackpoint 1154</name>
            </trkpt>
            <trkpt lat="49.85664" lon="9.851552">
                <ele>168.0</ele>
                <time>2020-08-28T09:27:50.000Z</time>
                <name>Trackpoint 1155</name>
            </trkpt>
            <trkpt lat="49.8566976" lon="9.8514784">
                <ele>168.0</ele>
                <time>2020-08-28T09:27:51.000Z</time>
                <name>Trackpoint 1156</name>
            </trkpt>
            <trkpt lat="49.856784" lon="9.8513344">
                <ele>168.0</ele>
                <time>2020-08-28T09:27:53.000Z</time>
                <name>Trackpoint 1157</name>
            </trkpt>
            <trkpt lat="49.8568672" lon="9.8511816">
                <ele>168.0</ele>
                <time>2020-08-28T09:27:55.000Z</time>
                <name>Trackpoint 1158</name>
            </trkpt>
            <trkpt lat="49.8569376" lon="9.851024">
                <ele>168.0</ele>
                <time>2020-08-28T09:27:57.000Z</time>
                <name>Trackpoint 1159</name>
            </trkpt>
            <trkpt lat="49.8570144" lon="9.8508768">
                <ele>168.0</ele>
                <time>2020-08-28T09:27:59.000Z</time>
                <name>Trackpoint 1160</name>
            </trkpt>
            <trkpt lat="49.8570784" lon="9.8507144">
                <ele>168.0</ele>
                <time>2020-08-28T09:28:01.000Z</time>
                <name>Trackpoint 1161</name>
            </trkpt>
            <trkpt lat="49.8571424" lon="9.850556">
                <ele>168.0</ele>
                <time>2020-08-28T09:28:03.000Z</time>
                <name>Trackpoint 1162</name>
            </trkpt>
            <trkpt lat="49.8572224" lon="9.8503984">
                <ele>168.0</ele>
                <time>2020-08-28T09:28:05.000Z</time>
                <name>Trackpoint 1163</name>
            </trkpt>
            <trkpt lat="49.8572992" lon="9.8502504">
                <ele>168.0</ele>
                <time>2020-08-28T09:28:07.000Z</time>
                <name>Trackpoint 1164</name>
            </trkpt>
            <trkpt lat="49.857344" lon="9.8501664">
                <ele>168.0</ele>
                <time>2020-08-28T09:28:08.000Z</time>
                <name>Trackpoint 1165</name>
            </trkpt>
            <trkpt lat="49.8574208" lon="9.8500136">
                <ele>168.0</ele>
                <time>2020-08-28T09:28:10.000Z</time>
                <name>Trackpoint 1166</name>
            </trkpt>
            <trkpt lat="49.857488" lon="9.8498488">
                <ele>168.0</ele>
                <time>2020-08-28T09:28:12.000Z</time>
                <name>Trackpoint 1167</name>
            </trkpt>
            <trkpt lat="49.8575712" lon="9.8496864">
                <ele>168.0</ele>
                <time>2020-08-28T09:28:14.000Z</time>
                <name>Trackpoint 1168</name>
            </trkpt>
            <trkpt lat="49.8576416" lon="9.8495232">
                <ele>168.0</ele>
                <time>2020-08-28T09:28:16.000Z</time>
                <name>Trackpoint 1169</name>
            </trkpt>
            <trkpt lat="49.857712" lon="9.8493656">
                <ele>168.0</ele>
                <time>2020-08-28T09:28:18.000Z</time>
                <name>Trackpoint 1170</name>
            </trkpt>
            <trkpt lat="49.8577856" lon="9.8492072">
                <ele>168.0</ele>
                <time>2020-08-28T09:28:20.000Z</time>
                <name>Trackpoint 1171</name>
            </trkpt>
            <trkpt lat="49.8578496" lon="9.8490488">
                <ele>168.0</ele>
                <time>2020-08-28T09:28:22.000Z</time>
                <name>Trackpoint 1172</name>
            </trkpt>
            <trkpt lat="49.8579168" lon="9.8488968">
                <ele>168.0</ele>
                <time>2020-08-28T09:28:24.000Z</time>
                <name>Trackpoint 1173</name>
            </trkpt>
            <trkpt lat="49.857984" lon="9.8487432">
                <ele>168.0</ele>
                <time>2020-08-28T09:28:26.000Z</time>
                <name>Trackpoint 1174</name>
            </trkpt>
            <trkpt lat="49.8580576" lon="9.848592">
                <ele>168.0</ele>
                <time>2020-08-28T09:28:28.000Z</time>
                <name>Trackpoint 1175</name>
            </trkpt>
            <trkpt lat="49.8581344" lon="9.8484312">
                <ele>168.0</ele>
                <time>2020-08-28T09:28:30.000Z</time>
                <name>Trackpoint 1176</name>
            </trkpt>
            <trkpt lat="49.8582144" lon="9.8482664">
                <ele>168.0</ele>
                <time>2020-08-28T09:28:32.000Z</time>
                <name>Trackpoint 1177</name>
            </trkpt>
            <trkpt lat="49.858288" lon="9.8481232">
                <ele>168.0</ele>
                <time>2020-08-28T09:28:34.000Z</time>
                <name>Trackpoint 1178</name>
            </trkpt>
            <trkpt lat="49.858368" lon="9.8479728">
                <ele>168.0</ele>
                <time>2020-08-28T09:28:36.000Z</time>
                <name>Trackpoint 1179</name>
            </trkpt>
            <trkpt lat="49.8584448" lon="9.8478344">
                <ele>168.0</ele>
                <time>2020-08-28T09:28:38.000Z</time>
                <name>Trackpoint 1180</name>
            </trkpt>
            <trkpt lat="49.8585056" lon="9.8476952">
                <ele>168.0</ele>
                <time>2020-08-28T09:28:40.000Z</time>
                <name>Trackpoint 1181</name>
            </trkpt>
            <trkpt lat="49.8585344" lon="9.8475984">
                <ele>167.0</ele>
                <time>2020-08-28T09:28:42.000Z</time>
                <name>Trackpoint 1182</name>
            </trkpt>
            <trkpt lat="49.8586048" lon="9.8475128">
                <ele>167.0</ele>
                <time>2020-08-28T09:29:13.000Z</time>
                <name>Trackpoint 1183</name>
            </trkpt>
            <trkpt lat="49.8586592" lon="9.84744">
                <ele>167.0</ele>
                <time>2020-08-28T09:29:15.000Z</time>
                <name>Trackpoint 1184</name>
            </trkpt>
            <trkpt lat="49.8587296" lon="9.8473528">
                <ele>167.0</ele>
                <time>2020-08-28T09:29:17.000Z</time>
                <name>Trackpoint 1185</name>
            </trkpt>
            <trkpt lat="49.8588064" lon="9.8472496">
                <ele>167.0</ele>
                <time>2020-08-28T09:29:19.000Z</time>
                <name>Trackpoint 1186</name>
            </trkpt>
            <trkpt lat="49.8588832" lon="9.8471448">
                <ele>167.0</ele>
                <time>2020-08-28T09:29:21.000Z</time>
                <name>Trackpoint 1187</name>
            </trkpt>
            <trkpt lat="49.8589696" lon="9.8470352">
                <ele>167.0</ele>
                <time>2020-08-28T09:29:23.000Z</time>
                <name>Trackpoint 1188</name>
            </trkpt>
            <trkpt lat="49.8590592" lon="9.8469152">
                <ele>167.0</ele>
                <time>2020-08-28T09:29:25.000Z</time>
                <name>Trackpoint 1189</name>
            </trkpt>
            <trkpt lat="49.8591456" lon="9.8467888">
                <ele>167.0</ele>
                <time>2020-08-28T09:29:27.000Z</time>
                <name>Trackpoint 1190</name>
            </trkpt>
            <trkpt lat="49.8592224" lon="9.8466656">
                <ele>167.0</ele>
                <time>2020-08-28T09:29:29.000Z</time>
                <name>Trackpoint 1191</name>
            </trkpt>
            <trkpt lat="49.8593024" lon="9.846548">
                <ele>167.0</ele>
                <time>2020-08-28T09:29:31.000Z</time>
                <name>Trackpoint 1192</name>
            </trkpt>
            <trkpt lat="49.859376" lon="9.846432">
                <ele>167.0</ele>
                <time>2020-08-28T09:29:33.000Z</time>
                <name>Trackpoint 1193</name>
            </trkpt>
            <trkpt lat="49.859456" lon="9.846316">
                <ele>167.0</ele>
                <time>2020-08-28T09:29:35.000Z</time>
                <name>Trackpoint 1194</name>
            </trkpt>
            <trkpt lat="49.8595264" lon="9.8462064">
                <ele>167.0</ele>
                <time>2020-08-28T09:29:37.000Z</time>
                <name>Trackpoint 1195</name>
            </trkpt>
            <trkpt lat="49.8595968" lon="9.8460904">
                <ele>167.0</ele>
                <time>2020-08-28T09:29:39.000Z</time>
                <name>Trackpoint 1196</name>
            </trkpt>
            <trkpt lat="49.8596672" lon="9.8459752">
                <ele>167.0</ele>
                <time>2020-08-28T09:29:41.000Z</time>
                <name>Trackpoint 1197</name>
            </trkpt>
            <trkpt lat="49.8597408" lon="9.845872">
                <ele>167.0</ele>
                <time>2020-08-28T09:29:43.000Z</time>
                <name>Trackpoint 1198</name>
            </trkpt>
            <trkpt lat="49.8598112" lon="9.8457568">
                <ele>167.0</ele>
                <time>2020-08-28T09:29:45.000Z</time>
                <name>Trackpoint 1199</name>
            </trkpt>
            <trkpt lat="49.8598912" lon="9.8456432">
                <ele>167.0</ele>
                <time>2020-08-28T09:29:47.000Z</time>
                <name>Trackpoint 1200</name>
            </trkpt>
            <trkpt lat="49.859952" lon="9.8455288">
                <ele>167.0</ele>
                <time>2020-08-28T09:29:49.000Z</time>
                <name>Trackpoint 1201</name>
            </trkpt>
            <trkpt lat="49.8600192" lon="9.8454264">
                <ele>167.0</ele>
                <time>2020-08-28T09:29:51.000Z</time>
                <name>Trackpoint 1202</name>
            </trkpt>
            <trkpt lat="49.8600768" lon="9.84532">
                <ele>167.0</ele>
                <time>2020-08-28T09:29:53.000Z</time>
                <name>Trackpoint 1203</name>
            </trkpt>
            <trkpt lat="49.8601408" lon="9.845228">
                <ele>168.0</ele>
                <time>2020-08-28T09:29:55.000Z</time>
                <name>Trackpoint 1204</name>
            </trkpt>
            <trkpt lat="49.8601888" lon="9.8451416">
                <ele>167.0</ele>
                <time>2020-08-28T09:29:57.000Z</time>
                <name>Trackpoint 1205</name>
            </trkpt>
            <trkpt lat="49.8602432" lon="9.8450616">
                <ele>167.0</ele>
                <time>2020-08-28T09:29:59.000Z</time>
                <name>Trackpoint 1206</name>
            </trkpt>
            <trkpt lat="49.8602816" lon="9.844936">
                <ele>165.0</ele>
                <time>2020-08-28T09:30:16.000Z</time>
                <name>Trackpoint 1207</name>
            </trkpt>
            <trkpt lat="49.8603424" lon="9.8448232">
                <ele>165.0</ele>
                <time>2020-08-28T09:30:21.000Z</time>
                <name>Trackpoint 1208</name>
            </trkpt>
            <trkpt lat="49.8603936" lon="9.8447464">
                <ele>165.0</ele>
                <time>2020-08-28T09:30:23.000Z</time>
                <name>Trackpoint 1209</name>
            </trkpt>
            <trkpt lat="49.8604576" lon="9.8446576">
                <ele>165.0</ele>
                <time>2020-08-28T09:30:25.000Z</time>
                <name>Trackpoint 1210</name>
            </trkpt>
            <trkpt lat="49.860528" lon="9.8445568">
                <ele>165.0</ele>
                <time>2020-08-28T09:30:27.000Z</time>
                <name>Trackpoint 1211</name>
            </trkpt>
            <trkpt lat="49.8605952" lon="9.844448">
                <ele>165.0</ele>
                <time>2020-08-28T09:30:29.000Z</time>
                <name>Trackpoint 1212</name>
            </trkpt>
            <trkpt lat="49.8606688" lon="9.8443384">
                <ele>165.0</ele>
                <time>2020-08-28T09:30:31.000Z</time>
                <name>Trackpoint 1213</name>
            </trkpt>
            <trkpt lat="49.860736" lon="9.8442248">
                <ele>165.0</ele>
                <time>2020-08-28T09:30:33.000Z</time>
                <name>Trackpoint 1214</name>
            </trkpt>
            <trkpt lat="49.8608128" lon="9.8441248">
                <ele>165.0</ele>
                <time>2020-08-28T09:30:35.000Z</time>
                <name>Trackpoint 1215</name>
            </trkpt>
            <trkpt lat="49.8608832" lon="9.8440088">
                <ele>165.0</ele>
                <time>2020-08-28T09:30:37.000Z</time>
                <name>Trackpoint 1216</name>
            </trkpt>
            <trkpt lat="49.8609568" lon="9.8438904">
                <ele>166.0</ele>
                <time>2020-08-28T09:30:39.000Z</time>
                <name>Trackpoint 1217</name>
            </trkpt>
            <trkpt lat="49.8610368" lon="9.8437728">
                <ele>166.0</ele>
                <time>2020-08-28T09:30:41.000Z</time>
                <name>Trackpoint 1218</name>
            </trkpt>
            <trkpt lat="49.8611232" lon="9.84366">
                <ele>166.0</ele>
                <time>2020-08-28T09:30:43.000Z</time>
                <name>Trackpoint 1219</name>
            </trkpt>
            <trkpt lat="49.8612096" lon="9.84354">
                <ele>165.0</ele>
                <time>2020-08-28T09:30:45.000Z</time>
                <name>Trackpoint 1220</name>
            </trkpt>
            <trkpt lat="49.8613088" lon="9.84342">
                <ele>165.0</ele>
                <time>2020-08-28T09:30:47.000Z</time>
                <name>Trackpoint 1221</name>
            </trkpt>
            <trkpt lat="49.8613952" lon="9.843304">
                <ele>165.0</ele>
                <time>2020-08-28T09:30:49.000Z</time>
                <name>Trackpoint 1222</name>
            </trkpt>
            <trkpt lat="49.8614816" lon="9.8431752">
                <ele>165.0</ele>
                <time>2020-08-28T09:30:51.000Z</time>
                <name>Trackpoint 1223</name>
            </trkpt>
            <trkpt lat="49.8615712" lon="9.843068">
                <ele>165.0</ele>
                <time>2020-08-28T09:30:53.000Z</time>
                <name>Trackpoint 1224</name>
            </trkpt>
            <trkpt lat="49.8616608" lon="9.8429416">
                <ele>165.0</ele>
                <time>2020-08-28T09:30:55.000Z</time>
                <name>Trackpoint 1225</name>
            </trkpt>
            <trkpt lat="49.8617504" lon="9.8428272">
                <ele>165.0</ele>
                <time>2020-08-28T09:30:57.000Z</time>
                <name>Trackpoint 1226</name>
            </trkpt>
            <trkpt lat="49.8618464" lon="9.8427152">
                <ele>166.0</ele>
                <time>2020-08-28T09:30:59.000Z</time>
                <name>Trackpoint 1227</name>
            </trkpt>
            <trkpt lat="49.8619392" lon="9.84262">
                <ele>166.0</ele>
                <time>2020-08-28T09:31:01.000Z</time>
                <name>Trackpoint 1228</name>
            </trkpt>
            <trkpt lat="49.8620352" lon="9.84252">
                <ele>166.0</ele>
                <time>2020-08-28T09:31:03.000Z</time>
                <name>Trackpoint 1229</name>
            </trkpt>
            <trkpt lat="49.862128" lon="9.842412">
                <ele>166.0</ele>
                <time>2020-08-28T09:31:05.000Z</time>
                <name>Trackpoint 1230</name>
            </trkpt>
            <trkpt lat="49.862224" lon="9.8423432">
                <ele>166.0</ele>
                <time>2020-08-28T09:31:07.000Z</time>
                <name>Trackpoint 1231</name>
            </trkpt>
            <trkpt lat="49.8623264" lon="9.8422496">
                <ele>166.0</ele>
                <time>2020-08-28T09:31:09.000Z</time>
                <name>Trackpoint 1232</name>
            </trkpt>
            <trkpt lat="49.8624256" lon="9.8421552">
                <ele>166.0</ele>
                <time>2020-08-28T09:31:11.000Z</time>
                <name>Trackpoint 1233</name>
            </trkpt>
            <trkpt lat="49.8625216" lon="9.8420688">
                <ele>166.0</ele>
                <time>2020-08-28T09:31:13.000Z</time>
                <name>Trackpoint 1234</name>
            </trkpt>
            <trkpt lat="49.8626304" lon="9.8419816">
                <ele>166.0</ele>
                <time>2020-08-28T09:31:15.000Z</time>
                <name>Trackpoint 1235</name>
            </trkpt>
            <trkpt lat="49.8627328" lon="9.8418976">
                <ele>166.0</ele>
                <time>2020-08-28T09:31:17.000Z</time>
                <name>Trackpoint 1236</name>
            </trkpt>
            <trkpt lat="49.8628288" lon="9.841812">
                <ele>166.0</ele>
                <time>2020-08-28T09:31:19.000Z</time>
                <name>Trackpoint 1237</name>
            </trkpt>
            <trkpt lat="49.8629312" lon="9.8417256">
                <ele>166.0</ele>
                <time>2020-08-28T09:31:21.000Z</time>
                <name>Trackpoint 1238</name>
            </trkpt>
            <trkpt lat="49.8630304" lon="9.8416432">
                <ele>166.0</ele>
                <time>2020-08-28T09:31:23.000Z</time>
                <name>Trackpoint 1239</name>
            </trkpt>
            <trkpt lat="49.8631328" lon="9.841568">
                <ele>166.0</ele>
                <time>2020-08-28T09:31:25.000Z</time>
                <name>Trackpoint 1240</name>
            </trkpt>
            <trkpt lat="49.8632416" lon="9.8414968">
                <ele>166.0</ele>
                <time>2020-08-28T09:31:27.000Z</time>
                <name>Trackpoint 1241</name>
            </trkpt>
            <trkpt lat="49.8633472" lon="9.8414272">
                <ele>166.0</ele>
                <time>2020-08-28T09:31:29.000Z</time>
                <name>Trackpoint 1242</name>
            </trkpt>
            <trkpt lat="49.8634528" lon="9.841356">
                <ele>166.0</ele>
                <time>2020-08-28T09:31:31.000Z</time>
                <name>Trackpoint 1243</name>
            </trkpt>
            <trkpt lat="49.8635552" lon="9.8412768">
                <ele>166.0</ele>
                <time>2020-08-28T09:31:33.000Z</time>
                <name>Trackpoint 1244</name>
            </trkpt>
            <trkpt lat="49.8636576" lon="9.8412088">
                <ele>166.0</ele>
                <time>2020-08-28T09:31:35.000Z</time>
                <name>Trackpoint 1245</name>
            </trkpt>
            <trkpt lat="49.8637664" lon="9.8411376">
                <ele>166.0</ele>
                <time>2020-08-28T09:31:37.000Z</time>
                <name>Trackpoint 1246</name>
            </trkpt>
            <trkpt lat="49.8638752" lon="9.8411016">
                <ele>166.0</ele>
                <time>2020-08-28T09:31:39.000Z</time>
                <name>Trackpoint 1247</name>
            </trkpt>
            <trkpt lat="49.863984" lon="9.8410832">
                <ele>166.0</ele>
                <time>2020-08-28T09:31:41.000Z</time>
                <name>Trackpoint 1248</name>
            </trkpt>
            <trkpt lat="49.8640864" lon="9.8410752">
                <ele>166.0</ele>
                <time>2020-08-28T09:31:43.000Z</time>
                <name>Trackpoint 1249</name>
            </trkpt>
            <trkpt lat="49.8642016" lon="9.841052">
                <ele>166.0</ele>
                <time>2020-08-28T09:31:45.000Z</time>
                <name>Trackpoint 1250</name>
            </trkpt>
            <trkpt lat="49.8643136" lon="9.8410352">
                <ele>165.0</ele>
                <time>2020-08-28T09:31:47.000Z</time>
                <name>Trackpoint 1251</name>
            </trkpt>
            <trkpt lat="49.864448" lon="9.8410184">
                <ele>165.0</ele>
                <time>2020-08-28T09:31:49.000Z</time>
                <name>Trackpoint 1252</name>
            </trkpt>
            <trkpt lat="49.8645856" lon="9.840992">
                <ele>165.0</ele>
                <time>2020-08-28T09:31:51.000Z</time>
                <name>Trackpoint 1253</name>
            </trkpt>
            <trkpt lat="49.8647264" lon="9.840968">
                <ele>165.0</ele>
                <time>2020-08-28T09:31:53.000Z</time>
                <name>Trackpoint 1254</name>
            </trkpt>
            <trkpt lat="49.8648672" lon="9.8409456">
                <ele>165.0</ele>
                <time>2020-08-28T09:31:55.000Z</time>
                <name>Trackpoint 1255</name>
            </trkpt>
            <trkpt lat="49.8650144" lon="9.8409216">
                <ele>164.0</ele>
                <time>2020-08-28T09:31:57.000Z</time>
                <name>Trackpoint 1256</name>
            </trkpt>
            <trkpt lat="49.8651456" lon="9.8408944">
                <ele>164.0</ele>
                <time>2020-08-28T09:31:59.000Z</time>
                <name>Trackpoint 1257</name>
            </trkpt>
            <trkpt lat="49.8652672" lon="9.8408568">
                <ele>164.0</ele>
                <time>2020-08-28T09:32:01.000Z</time>
                <name>Trackpoint 1258</name>
            </trkpt>
            <trkpt lat="49.8653952" lon="9.8408232">
                <ele>164.0</ele>
                <time>2020-08-28T09:32:03.000Z</time>
                <name>Trackpoint 1259</name>
            </trkpt>
            <trkpt lat="49.8655456" lon="9.8407984">
                <ele>164.0</ele>
                <time>2020-08-28T09:32:05.000Z</time>
                <name>Trackpoint 1260</name>
            </trkpt>
            <trkpt lat="49.8656896" lon="9.840768">
                <ele>164.0</ele>
                <time>2020-08-28T09:32:07.000Z</time>
                <name>Trackpoint 1261</name>
            </trkpt>
            <trkpt lat="49.8658336" lon="9.840736">
                <ele>164.0</ele>
                <time>2020-08-28T09:32:09.000Z</time>
                <name>Trackpoint 1262</name>
            </trkpt>
            <trkpt lat="49.8659712" lon="9.8407088">
                <ele>164.0</ele>
                <time>2020-08-28T09:32:11.000Z</time>
                <name>Trackpoint 1263</name>
            </trkpt>
            <trkpt lat="49.8661088" lon="9.8406736">
                <ele>164.0</ele>
                <time>2020-08-28T09:32:13.000Z</time>
                <name>Trackpoint 1264</name>
            </trkpt>
            <trkpt lat="49.86624" lon="9.84064">
                <ele>164.0</ele>
                <time>2020-08-28T09:32:15.000Z</time>
                <name>Trackpoint 1265</name>
            </trkpt>
            <trkpt lat="49.866384" lon="9.8406096">
                <ele>163.0</ele>
                <time>2020-08-28T09:32:17.000Z</time>
                <name>Trackpoint 1266</name>
            </trkpt>
            <trkpt lat="49.8665248" lon="9.8405816">
                <ele>163.0</ele>
                <time>2020-08-28T09:32:19.000Z</time>
                <name>Trackpoint 1267</name>
            </trkpt>
            <trkpt lat="49.8666656" lon="9.8405896">
                <ele>163.0</ele>
                <time>2020-08-28T09:32:21.000Z</time>
                <name>Trackpoint 1268</name>
            </trkpt>
            <trkpt lat="49.8668" lon="9.8405816">
                <ele>163.0</ele>
                <time>2020-08-28T09:32:23.000Z</time>
                <name>Trackpoint 1269</name>
            </trkpt>
            <trkpt lat="49.8669248" lon="9.8405616">
                <ele>163.0</ele>
                <time>2020-08-28T09:32:25.000Z</time>
                <name>Trackpoint 1270</name>
            </trkpt>
            <trkpt lat="49.8670624" lon="9.8405336">
                <ele>163.0</ele>
                <time>2020-08-28T09:32:27.000Z</time>
                <name>Trackpoint 1271</name>
            </trkpt>
            <trkpt lat="49.8671936" lon="9.8405104">
                <ele>163.0</ele>
                <time>2020-08-28T09:32:29.000Z</time>
                <name>Trackpoint 1272</name>
            </trkpt>
            <trkpt lat="49.8673248" lon="9.8404888">
                <ele>163.0</ele>
                <time>2020-08-28T09:32:31.000Z</time>
                <name>Trackpoint 1273</name>
            </trkpt>
            <trkpt lat="49.8674624" lon="9.8404512">
                <ele>162.0</ele>
                <time>2020-08-28T09:32:33.000Z</time>
                <name>Trackpoint 1274</name>
            </trkpt>
            <trkpt lat="49.8675904" lon="9.840408">
                <ele>162.0</ele>
                <time>2020-08-28T09:32:35.000Z</time>
                <name>Trackpoint 1275</name>
            </trkpt>
            <trkpt lat="49.8677184" lon="9.84036">
                <ele>162.0</ele>
                <time>2020-08-28T09:32:37.000Z</time>
                <name>Trackpoint 1276</name>
            </trkpt>
            <trkpt lat="49.86784" lon="9.8403064">
                <ele>162.0</ele>
                <time>2020-08-28T09:32:39.000Z</time>
                <name>Trackpoint 1277</name>
            </trkpt>
            <trkpt lat="49.8679552" lon="9.840232">
                <ele>163.0</ele>
                <time>2020-08-28T09:32:41.000Z</time>
                <name>Trackpoint 1278</name>
            </trkpt>
            <trkpt lat="49.8680768" lon="9.8401768">
                <ele>162.0</ele>
                <time>2020-08-28T09:32:43.000Z</time>
                <name>Trackpoint 1279</name>
            </trkpt>
            <trkpt lat="49.8681984" lon="9.840112">
                <ele>162.0</ele>
                <time>2020-08-28T09:32:45.000Z</time>
                <name>Trackpoint 1280</name>
            </trkpt>
            <trkpt lat="49.8683168" lon="9.8400584">
                <ele>162.0</ele>
                <time>2020-08-28T09:32:47.000Z</time>
                <name>Trackpoint 1281</name>
            </trkpt>
            <trkpt lat="49.8684384" lon="9.8400136">
                <ele>162.0</ele>
                <time>2020-08-28T09:32:49.000Z</time>
                <name>Trackpoint 1282</name>
            </trkpt>
            <trkpt lat="49.8685696" lon="9.8399896">
                <ele>162.0</ele>
                <time>2020-08-28T09:32:51.000Z</time>
                <name>Trackpoint 1283</name>
            </trkpt>
            <trkpt lat="49.8686944" lon="9.8399448">
                <ele>162.0</ele>
                <time>2020-08-28T09:32:53.000Z</time>
                <name>Trackpoint 1284</name>
            </trkpt>
            <trkpt lat="49.8688128" lon="9.8398952">
                <ele>162.0</ele>
                <time>2020-08-28T09:32:55.000Z</time>
                <name>Trackpoint 1285</name>
            </trkpt>
            <trkpt lat="49.8689376" lon="9.8398384">
                <ele>162.0</ele>
                <time>2020-08-28T09:32:57.000Z</time>
                <name>Trackpoint 1286</name>
            </trkpt>
            <trkpt lat="49.8690592" lon="9.8397816">
                <ele>162.0</ele>
                <time>2020-08-28T09:32:59.000Z</time>
                <name>Trackpoint 1287</name>
            </trkpt>
            <trkpt lat="49.869184" lon="9.83972">
                <ele>162.0</ele>
                <time>2020-08-28T09:33:01.000Z</time>
                <name>Trackpoint 1288</name>
            </trkpt>
            <trkpt lat="49.8693024" lon="9.8396568">
                <ele>162.0</ele>
                <time>2020-08-28T09:33:03.000Z</time>
                <name>Trackpoint 1289</name>
            </trkpt>
            <trkpt lat="49.8694176" lon="9.8396064">
                <ele>162.0</ele>
                <time>2020-08-28T09:33:05.000Z</time>
                <name>Trackpoint 1290</name>
            </trkpt>
            <trkpt lat="49.869552" lon="9.8395632">
                <ele>162.0</ele>
                <time>2020-08-28T09:33:07.000Z</time>
                <name>Trackpoint 1291</name>
            </trkpt>
            <trkpt lat="49.8696864" lon="9.8395072">
                <ele>162.0</ele>
                <time>2020-08-28T09:33:09.000Z</time>
                <name>Trackpoint 1292</name>
            </trkpt>
            <trkpt lat="49.869808" lon="9.8394584">
                <ele>161.0</ele>
                <time>2020-08-28T09:33:11.000Z</time>
                <name>Trackpoint 1293</name>
            </trkpt>
            <trkpt lat="49.8699264" lon="9.8394416">
                <ele>161.0</ele>
                <time>2020-08-28T09:33:13.000Z</time>
                <name>Trackpoint 1294</name>
            </trkpt>
            <trkpt lat="49.8700576" lon="9.83938">
                <ele>161.0</ele>
                <time>2020-08-28T09:33:15.000Z</time>
                <name>Trackpoint 1295</name>
            </trkpt>
            <trkpt lat="49.8701792" lon="9.839332">
                <ele>161.0</ele>
                <time>2020-08-28T09:33:17.000Z</time>
                <name>Trackpoint 1296</name>
            </trkpt>
            <trkpt lat="49.870304" lon="9.8392688">
                <ele>161.0</ele>
                <time>2020-08-28T09:33:19.000Z</time>
                <name>Trackpoint 1297</name>
            </trkpt>
            <trkpt lat="49.8704256" lon="9.8392096">
                <ele>161.0</ele>
                <time>2020-08-28T09:33:21.000Z</time>
                <name>Trackpoint 1298</name>
            </trkpt>
            <trkpt lat="49.8705536" lon="9.8391448">
                <ele>161.0</ele>
                <time>2020-08-28T09:33:23.000Z</time>
                <name>Trackpoint 1299</name>
            </trkpt>
            <trkpt lat="49.8706752" lon="9.83906">
                <ele>161.0</ele>
                <time>2020-08-28T09:33:25.000Z</time>
                <name>Trackpoint 1300</name>
            </trkpt>
            <trkpt lat="49.8708032" lon="9.8390248">
                <ele>161.0</ele>
                <time>2020-08-28T09:33:27.000Z</time>
                <name>Trackpoint 1301</name>
            </trkpt>
            <trkpt lat="49.8709312" lon="9.8389456">
                <ele>161.0</ele>
                <time>2020-08-28T09:33:29.000Z</time>
                <name>Trackpoint 1302</name>
            </trkpt>
            <trkpt lat="49.8710592" lon="9.8388632">
                <ele>161.0</ele>
                <time>2020-08-28T09:33:31.000Z</time>
                <name>Trackpoint 1303</name>
            </trkpt>
            <trkpt lat="49.8711904" lon="9.838828">
                <ele>161.0</ele>
                <time>2020-08-28T09:33:33.000Z</time>
                <name>Trackpoint 1304</name>
            </trkpt>
            <trkpt lat="49.8713152" lon="9.8387768">
                <ele>161.0</ele>
                <time>2020-08-28T09:33:35.000Z</time>
                <name>Trackpoint 1305</name>
            </trkpt>
            <trkpt lat="49.8714336" lon="9.8387096">
                <ele>161.0</ele>
                <time>2020-08-28T09:33:37.000Z</time>
                <name>Trackpoint 1306</name>
            </trkpt>
            <trkpt lat="49.8715552" lon="9.8386384">
                <ele>161.0</ele>
                <time>2020-08-28T09:33:39.000Z</time>
                <name>Trackpoint 1307</name>
            </trkpt>
            <trkpt lat="49.8716736" lon="9.8385832">
                <ele>161.0</ele>
                <time>2020-08-28T09:33:41.000Z</time>
                <name>Trackpoint 1308</name>
            </trkpt>
            <trkpt lat="49.8718112" lon="9.83854">
                <ele>161.0</ele>
                <time>2020-08-28T09:33:43.000Z</time>
                <name>Trackpoint 1309</name>
            </trkpt>
            <trkpt lat="49.871936" lon="9.83852">
                <ele>161.0</ele>
                <time>2020-08-28T09:33:45.000Z</time>
                <name>Trackpoint 1310</name>
            </trkpt>
            <trkpt lat="49.8720672" lon="9.8385032">
                <ele>161.0</ele>
                <time>2020-08-28T09:33:47.000Z</time>
                <name>Trackpoint 1311</name>
            </trkpt>
            <trkpt lat="49.8721952" lon="9.8384784">
                <ele>161.0</ele>
                <time>2020-08-28T09:33:49.000Z</time>
                <name>Trackpoint 1312</name>
            </trkpt>
            <trkpt lat="49.8723264" lon="9.8384104">
                <ele>161.0</ele>
                <time>2020-08-28T09:33:51.000Z</time>
                <name>Trackpoint 1313</name>
            </trkpt>
            <trkpt lat="49.8724544" lon="9.8383616">
                <ele>161.0</ele>
                <time>2020-08-28T09:33:53.000Z</time>
                <name>Trackpoint 1314</name>
            </trkpt>
            <trkpt lat="49.8725856" lon="9.8383264">
                <ele>161.0</ele>
                <time>2020-08-28T09:33:55.000Z</time>
                <name>Trackpoint 1315</name>
            </trkpt>
            <trkpt lat="49.8727136" lon="9.8382984">
                <ele>161.0</ele>
                <time>2020-08-28T09:33:57.000Z</time>
                <name>Trackpoint 1316</name>
            </trkpt>
            <trkpt lat="49.8728448" lon="9.8382656">
                <ele>161.0</ele>
                <time>2020-08-28T09:33:59.000Z</time>
                <name>Trackpoint 1317</name>
            </trkpt>
            <trkpt lat="49.8729664" lon="9.838228">
                <ele>161.0</ele>
                <time>2020-08-28T09:34:01.000Z</time>
                <name>Trackpoint 1318</name>
            </trkpt>
            <trkpt lat="49.8730912" lon="9.8382016">
                <ele>160.0</ele>
                <time>2020-08-28T09:34:03.000Z</time>
                <name>Trackpoint 1319</name>
            </trkpt>
            <trkpt lat="49.873216" lon="9.8381656">
                <ele>160.0</ele>
                <time>2020-08-28T09:34:05.000Z</time>
                <name>Trackpoint 1320</name>
            </trkpt>
            <trkpt lat="49.8733344" lon="9.8381144">
                <ele>160.0</ele>
                <time>2020-08-28T09:34:07.000Z</time>
                <name>Trackpoint 1321</name>
            </trkpt>
            <trkpt lat="49.873456" lon="9.8380736">
                <ele>160.0</ele>
                <time>2020-08-28T09:34:09.000Z</time>
                <name>Trackpoint 1322</name>
            </trkpt>
            <trkpt lat="49.8735744" lon="9.838032">
                <ele>160.0</ele>
                <time>2020-08-28T09:34:11.000Z</time>
                <name>Trackpoint 1323</name>
            </trkpt>
            <trkpt lat="49.8736928" lon="9.837988">
                <ele>160.0</ele>
                <time>2020-08-28T09:34:13.000Z</time>
                <name>Trackpoint 1324</name>
            </trkpt>
            <trkpt lat="49.8738112" lon="9.8379496">
                <ele>160.0</ele>
                <time>2020-08-28T09:34:15.000Z</time>
                <name>Trackpoint 1325</name>
            </trkpt>
            <trkpt lat="49.87392" lon="9.8379088">
                <ele>159.0</ele>
                <time>2020-08-28T09:34:17.000Z</time>
                <name>Trackpoint 1326</name>
            </trkpt>
            <trkpt lat="49.8740352" lon="9.8378696">
                <ele>159.0</ele>
                <time>2020-08-28T09:34:19.000Z</time>
                <name>Trackpoint 1327</name>
            </trkpt>
            <trkpt lat="49.8741504" lon="9.8378216">
                <ele>159.0</ele>
                <time>2020-08-28T09:34:21.000Z</time>
                <name>Trackpoint 1328</name>
            </trkpt>
            <trkpt lat="49.8742592" lon="9.8377704">
                <ele>159.0</ele>
                <time>2020-08-28T09:34:23.000Z</time>
                <name>Trackpoint 1329</name>
            </trkpt>
            <trkpt lat="49.8743776" lon="9.8377112">
                <ele>159.0</ele>
                <time>2020-08-28T09:34:25.000Z</time>
                <name>Trackpoint 1330</name>
            </trkpt>
            <trkpt lat="49.874496" lon="9.837664">
                <ele>160.0</ele>
                <time>2020-08-28T09:34:27.000Z</time>
                <name>Trackpoint 1331</name>
            </trkpt>
            <trkpt lat="49.8746144" lon="9.8376056">
                <ele>160.0</ele>
                <time>2020-08-28T09:34:29.000Z</time>
                <name>Trackpoint 1332</name>
            </trkpt>
            <trkpt lat="49.8747296" lon="9.8375504">
                <ele>160.0</ele>
                <time>2020-08-28T09:34:31.000Z</time>
                <name>Trackpoint 1333</name>
            </trkpt>
            <trkpt lat="49.8748448" lon="9.8374952">
                <ele>160.0</ele>
                <time>2020-08-28T09:34:33.000Z</time>
                <name>Trackpoint 1334</name>
            </trkpt>
            <trkpt lat="49.8749632" lon="9.8374304">
                <ele>159.0</ele>
                <time>2020-08-28T09:34:35.000Z</time>
                <name>Trackpoint 1335</name>
            </trkpt>
            <trkpt lat="49.8750752" lon="9.8373872">
                <ele>159.0</ele>
                <time>2020-08-28T09:34:37.000Z</time>
                <name>Trackpoint 1336</name>
            </trkpt>
            <trkpt lat="49.8751904" lon="9.8373496">
                <ele>159.0</ele>
                <time>2020-08-28T09:34:39.000Z</time>
                <name>Trackpoint 1337</name>
            </trkpt>
            <trkpt lat="49.8753056" lon="9.837288">
                <ele>159.0</ele>
                <time>2020-08-28T09:34:41.000Z</time>
                <name>Trackpoint 1338</name>
            </trkpt>
            <trkpt lat="49.875424" lon="9.8372584">
                <ele>159.0</ele>
                <time>2020-08-28T09:34:43.000Z</time>
                <name>Trackpoint 1339</name>
            </trkpt>
            <trkpt lat="49.8755424" lon="9.8372336">
                <ele>159.0</ele>
                <time>2020-08-28T09:34:45.000Z</time>
                <name>Trackpoint 1340</name>
            </trkpt>
            <trkpt lat="49.8756608" lon="9.8372096">
                <ele>159.0</ele>
                <time>2020-08-28T09:34:47.000Z</time>
                <name>Trackpoint 1341</name>
            </trkpt>
            <trkpt lat="49.8757792" lon="9.8372032">
                <ele>159.0</ele>
                <time>2020-08-28T09:34:49.000Z</time>
                <name>Trackpoint 1342</name>
            </trkpt>
            <trkpt lat="49.8758912" lon="9.837196">
                <ele>159.0</ele>
                <time>2020-08-28T09:34:51.000Z</time>
                <name>Trackpoint 1343</name>
            </trkpt>
            <trkpt lat="49.8759904" lon="9.8372224">
                <ele>159.0</ele>
                <time>2020-08-28T09:34:53.000Z</time>
                <name>Trackpoint 1344</name>
            </trkpt>
            <trkpt lat="49.8760864" lon="9.8373216">
                <ele>159.0</ele>
                <time>2020-08-28T09:34:55.000Z</time>
                <name>Trackpoint 1345</name>
            </trkpt>
            <trkpt lat="49.8761856" lon="9.8373536">
                <ele>159.0</ele>
                <time>2020-08-28T09:34:57.000Z</time>
                <name>Trackpoint 1346</name>
            </trkpt>
            <trkpt lat="49.8763008" lon="9.8373">
                <ele>160.0</ele>
                <time>2020-08-28T09:35:00.000Z</time>
                <name>Trackpoint 1347</name>
            </trkpt>
            <trkpt lat="49.8764" lon="9.8372248">
                <ele>161.0</ele>
                <time>2020-08-28T09:35:02.000Z</time>
                <name>Trackpoint 1348</name>
            </trkpt>
            <trkpt lat="49.8764928" lon="9.837136">
                <ele>161.0</ele>
                <time>2020-08-28T09:35:04.000Z</time>
                <name>Trackpoint 1349</name>
            </trkpt>
            <trkpt lat="49.8766048" lon="9.8370416">
                <ele>161.0</ele>
                <time>2020-08-28T09:35:06.000Z</time>
                <name>Trackpoint 1350</name>
            </trkpt>
            <trkpt lat="49.8767104" lon="9.8369512">
                <ele>161.0</ele>
                <time>2020-08-28T09:35:08.000Z</time>
                <name>Trackpoint 1351</name>
            </trkpt>
            <trkpt lat="49.8768192" lon="9.836888">
                <ele>161.0</ele>
                <time>2020-08-28T09:35:10.000Z</time>
                <name>Trackpoint 1352</name>
            </trkpt>
            <trkpt lat="49.876928" lon="9.8368216">
                <ele>162.0</ele>
                <time>2020-08-28T09:35:12.000Z</time>
                <name>Trackpoint 1353</name>
            </trkpt>
            <trkpt lat="49.8770144" lon="9.836728">
                <ele>162.0</ele>
                <time>2020-08-28T09:35:14.000Z</time>
                <name>Trackpoint 1354</name>
            </trkpt>
            <trkpt lat="49.8771008" lon="9.83662">
                <ele>162.0</ele>
                <time>2020-08-28T09:35:16.000Z</time>
                <name>Trackpoint 1355</name>
            </trkpt>
            <trkpt lat="49.8771936" lon="9.8365184">
                <ele>162.0</ele>
                <time>2020-08-28T09:35:18.000Z</time>
                <name>Trackpoint 1356</name>
            </trkpt>
            <trkpt lat="49.8772864" lon="9.8364152">
                <ele>162.0</ele>
                <time>2020-08-28T09:35:20.000Z</time>
                <name>Trackpoint 1357</name>
            </trkpt>
            <trkpt lat="49.87736" lon="9.8363064">
                <ele>163.0</ele>
                <time>2020-08-28T09:35:22.000Z</time>
                <name>Trackpoint 1358</name>
            </trkpt>
            <trkpt lat="49.8774336" lon="9.8361864">
                <ele>163.0</ele>
                <time>2020-08-28T09:35:24.000Z</time>
                <name>Trackpoint 1359</name>
            </trkpt>
            <trkpt lat="49.8775072" lon="9.8360704">
                <ele>163.0</ele>
                <time>2020-08-28T09:35:26.000Z</time>
                <name>Trackpoint 1360</name>
            </trkpt>
            <trkpt lat="49.8775744" lon="9.8359648">
                <ele>163.0</ele>
                <time>2020-08-28T09:35:28.000Z</time>
                <name>Trackpoint 1361</name>
            </trkpt>
            <trkpt lat="49.877648" lon="9.8358696">
                <ele>164.0</ele>
                <time>2020-08-28T09:35:30.000Z</time>
                <name>Trackpoint 1362</name>
            </trkpt>
            <trkpt lat="49.877728" lon="9.8357624">
                <ele>164.0</ele>
                <time>2020-08-28T09:35:32.000Z</time>
                <name>Trackpoint 1363</name>
            </trkpt>
            <trkpt lat="49.8778176" lon="9.835664">
                <ele>164.0</ele>
                <time>2020-08-28T09:35:34.000Z</time>
                <name>Trackpoint 1364</name>
            </trkpt>
            <trkpt lat="49.8779072" lon="9.8355568">
                <ele>164.0</ele>
                <time>2020-08-28T09:35:36.000Z</time>
                <name>Trackpoint 1365</name>
            </trkpt>
            <trkpt lat="49.8779968" lon="9.8354568">
                <ele>164.0</ele>
                <time>2020-08-28T09:35:38.000Z</time>
                <name>Trackpoint 1366</name>
            </trkpt>
            <trkpt lat="49.8780864" lon="9.8353528">
                <ele>164.0</ele>
                <time>2020-08-28T09:35:40.000Z</time>
                <name>Trackpoint 1367</name>
            </trkpt>
            <trkpt lat="49.8781728" lon="9.8352432">
                <ele>164.0</ele>
                <time>2020-08-28T09:35:42.000Z</time>
                <name>Trackpoint 1368</name>
            </trkpt>
            <trkpt lat="49.878272" lon="9.8351384">
                <ele>164.0</ele>
                <time>2020-08-28T09:35:44.000Z</time>
                <name>Trackpoint 1369</name>
            </trkpt>
            <trkpt lat="49.878384" lon="9.835056">
                <ele>165.0</ele>
                <time>2020-08-28T09:35:46.000Z</time>
                <name>Trackpoint 1370</name>
            </trkpt>
            <trkpt lat="49.8784864" lon="9.8349832">
                <ele>165.0</ele>
                <time>2020-08-28T09:35:48.000Z</time>
                <name>Trackpoint 1371</name>
            </trkpt>
            <trkpt lat="49.878592" lon="9.8349104">
                <ele>164.0</ele>
                <time>2020-08-28T09:35:50.000Z</time>
                <name>Trackpoint 1372</name>
            </trkpt>
            <trkpt lat="49.8787072" lon="9.8348688">
                <ele>164.0</ele>
                <time>2020-08-28T09:35:52.000Z</time>
                <name>Trackpoint 1373</name>
            </trkpt>
            <trkpt lat="49.8788256" lon="9.8348728">
                <ele>164.0</ele>
                <time>2020-08-28T09:35:54.000Z</time>
                <name>Trackpoint 1374</name>
            </trkpt>
            <trkpt lat="49.8789344" lon="9.8348032">
                <ele>164.0</ele>
                <time>2020-08-28T09:35:56.000Z</time>
                <name>Trackpoint 1375</name>
            </trkpt>
            <trkpt lat="49.879056" lon="9.83476">
                <ele>164.0</ele>
                <time>2020-08-28T09:35:58.000Z</time>
                <name>Trackpoint 1376</name>
            </trkpt>
            <trkpt lat="49.8791808" lon="9.8347152">
                <ele>164.0</ele>
                <time>2020-08-28T09:36:00.000Z</time>
                <name>Trackpoint 1377</name>
            </trkpt>
            <trkpt lat="49.8792992" lon="9.8346728">
                <ele>164.0</ele>
                <time>2020-08-28T09:36:02.000Z</time>
                <name>Trackpoint 1378</name>
            </trkpt>
            <trkpt lat="49.8794016" lon="9.8346096">
                <ele>164.0</ele>
                <time>2020-08-28T09:36:04.000Z</time>
                <name>Trackpoint 1379</name>
            </trkpt>
            <trkpt lat="49.8795168" lon="9.8345472">
                <ele>164.0</ele>
                <time>2020-08-28T09:36:06.000Z</time>
                <name>Trackpoint 1380</name>
            </trkpt>
            <trkpt lat="49.8796448" lon="9.8345144">
                <ele>164.0</ele>
                <time>2020-08-28T09:36:08.000Z</time>
                <name>Trackpoint 1381</name>
            </trkpt>
            <trkpt lat="49.8797632" lon="9.8344872">
                <ele>164.0</ele>
                <time>2020-08-28T09:36:10.000Z</time>
                <name>Trackpoint 1382</name>
            </trkpt>
            <trkpt lat="49.8798752" lon="9.8344288">
                <ele>164.0</ele>
                <time>2020-08-28T09:36:12.000Z</time>
                <name>Trackpoint 1383</name>
            </trkpt>
            <trkpt lat="49.8799936" lon="9.8343536">
                <ele>164.0</ele>
                <time>2020-08-28T09:36:14.000Z</time>
                <name>Trackpoint 1384</name>
            </trkpt>
            <trkpt lat="49.8801376" lon="9.8342984">
                <ele>164.0</ele>
                <time>2020-08-28T09:36:16.000Z</time>
                <name>Trackpoint 1385</name>
            </trkpt>
            <trkpt lat="49.8802464" lon="9.8342536">
                <ele>164.0</ele>
                <time>2020-08-28T09:36:18.000Z</time>
                <name>Trackpoint 1386</name>
            </trkpt>
            <trkpt lat="49.8803488" lon="9.834204">
                <ele>164.0</ele>
                <time>2020-08-28T09:36:20.000Z</time>
                <name>Trackpoint 1387</name>
            </trkpt>
            <trkpt lat="49.8804512" lon="9.834184">
                <ele>165.0</ele>
                <time>2020-08-28T09:36:22.000Z</time>
                <name>Trackpoint 1388</name>
            </trkpt>
            <trkpt lat="49.8805568" lon="9.8341512">
                <ele>164.0</ele>
                <time>2020-08-28T09:36:24.000Z</time>
                <name>Trackpoint 1389</name>
            </trkpt>
            <trkpt lat="49.880656" lon="9.8341048">
                <ele>164.0</ele>
                <time>2020-08-28T09:36:26.000Z</time>
                <name>Trackpoint 1390</name>
            </trkpt>
            <trkpt lat="49.8807648" lon="9.83408">
                <ele>164.0</ele>
                <time>2020-08-28T09:36:28.000Z</time>
                <name>Trackpoint 1391</name>
            </trkpt>
            <trkpt lat="49.8808832" lon="9.834052">
                <ele>164.0</ele>
                <time>2020-08-28T09:36:30.000Z</time>
                <name>Trackpoint 1392</name>
            </trkpt>
            <trkpt lat="49.880992" lon="9.8339968">
                <ele>164.0</ele>
                <time>2020-08-28T09:36:32.000Z</time>
                <name>Trackpoint 1393</name>
            </trkpt>
            <trkpt lat="49.8811232" lon="9.8339416">
                <ele>164.0</ele>
                <time>2020-08-28T09:36:34.000Z</time>
                <name>Trackpoint 1394</name>
            </trkpt>
            <trkpt lat="49.881248" lon="9.8338816">
                <ele>164.0</ele>
                <time>2020-08-28T09:36:36.000Z</time>
                <name>Trackpoint 1395</name>
            </trkpt>
            <trkpt lat="49.8813792" lon="9.8338536">
                <ele>164.0</ele>
                <time>2020-08-28T09:36:38.000Z</time>
                <name>Trackpoint 1396</name>
            </trkpt>
            <trkpt lat="49.881504" lon="9.8338048">
                <ele>164.0</ele>
                <time>2020-08-28T09:36:40.000Z</time>
                <name>Trackpoint 1397</name>
            </trkpt>
            <trkpt lat="49.8816288" lon="9.8337832">
                <ele>164.0</ele>
                <time>2020-08-28T09:36:42.000Z</time>
                <name>Trackpoint 1398</name>
            </trkpt>
            <trkpt lat="49.8817632" lon="9.8337616">
                <ele>163.0</ele>
                <time>2020-08-28T09:36:44.000Z</time>
                <name>Trackpoint 1399</name>
            </trkpt>
            <trkpt lat="49.881888" lon="9.8337368">
                <ele>163.0</ele>
                <time>2020-08-28T09:36:46.000Z</time>
                <name>Trackpoint 1400</name>
            </trkpt>
            <trkpt lat="49.8820064" lon="9.8336936">
                <ele>163.0</ele>
                <time>2020-08-28T09:36:48.000Z</time>
                <name>Trackpoint 1401</name>
            </trkpt>
            <trkpt lat="49.8821184" lon="9.833636">
                <ele>163.0</ele>
                <time>2020-08-28T09:36:50.000Z</time>
                <name>Trackpoint 1402</name>
            </trkpt>
            <trkpt lat="49.8822144" lon="9.83358">
                <ele>163.0</ele>
                <time>2020-08-28T09:36:52.000Z</time>
                <name>Trackpoint 1403</name>
            </trkpt>
            <trkpt lat="49.8823296" lon="9.8335536">
                <ele>163.0</ele>
                <time>2020-08-28T09:36:54.000Z</time>
                <name>Trackpoint 1404</name>
            </trkpt>
            <trkpt lat="49.882432" lon="9.8335488">
                <ele>163.0</ele>
                <time>2020-08-28T09:36:56.000Z</time>
                <name>Trackpoint 1405</name>
            </trkpt>
            <trkpt lat="49.8825344" lon="9.833544">
                <ele>162.0</ele>
                <time>2020-08-28T09:36:58.000Z</time>
                <name>Trackpoint 1406</name>
            </trkpt>
            <trkpt lat="49.8826528" lon="9.83352">
                <ele>162.0</ele>
                <time>2020-08-28T09:37:00.000Z</time>
                <name>Trackpoint 1407</name>
            </trkpt>
            <trkpt lat="49.8827776" lon="9.8335136">
                <ele>162.0</ele>
                <time>2020-08-28T09:37:02.000Z</time>
                <name>Trackpoint 1408</name>
            </trkpt>
            <trkpt lat="49.8828736" lon="9.8334816">
                <ele>162.0</ele>
                <time>2020-08-28T09:37:04.000Z</time>
                <name>Trackpoint 1409</name>
            </trkpt>
            <trkpt lat="49.8829856" lon="9.8334512">
                <ele>162.0</ele>
                <time>2020-08-28T09:37:06.000Z</time>
                <name>Trackpoint 1410</name>
            </trkpt>
            <trkpt lat="49.8831104" lon="9.8334216">
                <ele>162.0</ele>
                <time>2020-08-28T09:37:08.000Z</time>
                <name>Trackpoint 1411</name>
            </trkpt>
            <trkpt lat="49.8832" lon="9.8334128">
                <ele>162.0</ele>
                <time>2020-08-28T09:37:09.000Z</time>
                <name>Trackpoint 1412</name>
            </trkpt>
            <trkpt lat="49.8833088" lon="9.8333856">
                <ele>162.0</ele>
                <time>2020-08-28T09:37:11.000Z</time>
                <name>Trackpoint 1413</name>
            </trkpt>
            <trkpt lat="49.8834144" lon="9.8333568">
                <ele>161.0</ele>
                <time>2020-08-28T09:37:13.000Z</time>
                <name>Trackpoint 1414</name>
            </trkpt>
            <trkpt lat="49.8835424" lon="9.83332">
                <ele>161.0</ele>
                <time>2020-08-28T09:37:15.000Z</time>
                <name>Trackpoint 1415</name>
            </trkpt>
            <trkpt lat="49.8836832" lon="9.83328">
                <ele>161.0</ele>
                <time>2020-08-28T09:37:17.000Z</time>
                <name>Trackpoint 1416</name>
            </trkpt>
            <trkpt lat="49.883824" lon="9.8332328">
                <ele>161.0</ele>
                <time>2020-08-28T09:37:19.000Z</time>
                <name>Trackpoint 1417</name>
            </trkpt>
            <trkpt lat="49.8839424" lon="9.8331896">
                <ele>161.0</ele>
                <time>2020-08-28T09:37:21.000Z</time>
                <name>Trackpoint 1418</name>
            </trkpt>
            <trkpt lat="49.8840672" lon="9.8331672">
                <ele>161.0</ele>
                <time>2020-08-28T09:37:23.000Z</time>
                <name>Trackpoint 1419</name>
            </trkpt>
            <trkpt lat="49.8841824" lon="9.833128">
                <ele>161.0</ele>
                <time>2020-08-28T09:37:25.000Z</time>
                <name>Trackpoint 1420</name>
            </trkpt>
            <trkpt lat="49.8842848" lon="9.8330672">
                <ele>161.0</ele>
                <time>2020-08-28T09:37:27.000Z</time>
                <name>Trackpoint 1421</name>
            </trkpt>
            <trkpt lat="49.8843968" lon="9.8330024">
                <ele>161.0</ele>
                <time>2020-08-28T09:37:29.000Z</time>
                <name>Trackpoint 1422</name>
            </trkpt>
            <trkpt lat="49.8845056" lon="9.8329552">
                <ele>161.0</ele>
                <time>2020-08-28T09:37:31.000Z</time>
                <name>Trackpoint 1423</name>
            </trkpt>
            <trkpt lat="49.8846208" lon="9.832896">
                <ele>161.0</ele>
                <time>2020-08-28T09:37:33.000Z</time>
                <name>Trackpoint 1424</name>
            </trkpt>
            <trkpt lat="49.884736" lon="9.8328336">
                <ele>161.0</ele>
                <time>2020-08-28T09:37:35.000Z</time>
                <name>Trackpoint 1425</name>
            </trkpt>
            <trkpt lat="49.8848608" lon="9.8327688">
                <ele>161.0</ele>
                <time>2020-08-28T09:37:37.000Z</time>
                <name>Trackpoint 1426</name>
            </trkpt>
            <trkpt lat="49.8849984" lon="9.8326928">
                <ele>162.0</ele>
                <time>2020-08-28T09:37:39.000Z</time>
                <name>Trackpoint 1427</name>
            </trkpt>
            <trkpt lat="49.8851232" lon="9.8326552">
                <ele>162.0</ele>
                <time>2020-08-28T09:37:41.000Z</time>
                <name>Trackpoint 1428</name>
            </trkpt>
            <trkpt lat="49.8852384" lon="9.832592">
                <ele>162.0</ele>
                <time>2020-08-28T09:37:43.000Z</time>
                <name>Trackpoint 1429</name>
            </trkpt>
            <trkpt lat="49.8853568" lon="9.832548">
                <ele>162.0</ele>
                <time>2020-08-28T09:37:45.000Z</time>
                <name>Trackpoint 1430</name>
            </trkpt>
            <trkpt lat="49.8854816" lon="9.832468">
                <ele>162.0</ele>
                <time>2020-08-28T09:37:47.000Z</time>
                <name>Trackpoint 1431</name>
            </trkpt>
            <trkpt lat="49.885568" lon="9.8324272">
                <ele>162.0</ele>
                <time>2020-08-28T09:37:48.000Z</time>
                <name>Trackpoint 1432</name>
            </trkpt>
            <trkpt lat="49.8856864" lon="9.8323432">
                <ele>162.0</ele>
                <time>2020-08-28T09:37:50.000Z</time>
                <name>Trackpoint 1433</name>
            </trkpt>
            <trkpt lat="49.8858144" lon="9.83226">
                <ele>162.0</ele>
                <time>2020-08-28T09:37:52.000Z</time>
                <name>Trackpoint 1434</name>
            </trkpt>
            <trkpt lat="49.885936" lon="9.8321848">
                <ele>162.0</ele>
                <time>2020-08-28T09:37:54.000Z</time>
                <name>Trackpoint 1435</name>
            </trkpt>
            <trkpt lat="49.8860736" lon="9.8321184">
                <ele>162.0</ele>
                <time>2020-08-28T09:37:56.000Z</time>
                <name>Trackpoint 1436</name>
            </trkpt>
            <trkpt lat="49.8861952" lon="9.8320312">
                <ele>162.0</ele>
                <time>2020-08-28T09:37:58.000Z</time>
                <name>Trackpoint 1437</name>
            </trkpt>
            <trkpt lat="49.8863232" lon="9.8319416">
                <ele>162.0</ele>
                <time>2020-08-28T09:38:00.000Z</time>
                <name>Trackpoint 1438</name>
            </trkpt>
            <trkpt lat="49.8864352" lon="9.8318704">
                <ele>162.0</ele>
                <time>2020-08-28T09:38:02.000Z</time>
                <name>Trackpoint 1439</name>
            </trkpt>
            <trkpt lat="49.8865664" lon="9.8317744">
                <ele>162.0</ele>
                <time>2020-08-28T09:38:04.000Z</time>
                <name>Trackpoint 1440</name>
            </trkpt>
            <trkpt lat="49.8866912" lon="9.8316744">
                <ele>162.0</ele>
                <time>2020-08-28T09:38:06.000Z</time>
                <name>Trackpoint 1441</name>
            </trkpt>
            <trkpt lat="49.8868128" lon="9.8315872">
                <ele>162.0</ele>
                <time>2020-08-28T09:38:08.000Z</time>
                <name>Trackpoint 1442</name>
            </trkpt>
            <trkpt lat="49.8869568" lon="9.8315032">
                <ele>162.0</ele>
                <time>2020-08-28T09:38:10.000Z</time>
                <name>Trackpoint 1443</name>
            </trkpt>
            <trkpt lat="49.8871008" lon="9.8314184">
                <ele>162.0</ele>
                <time>2020-08-28T09:38:12.000Z</time>
                <name>Trackpoint 1444</name>
            </trkpt>
            <trkpt lat="49.8872352" lon="9.8313368">
                <ele>162.0</ele>
                <time>2020-08-28T09:38:14.000Z</time>
                <name>Trackpoint 1445</name>
            </trkpt>
            <trkpt lat="49.8873504" lon="9.8312552">
                <ele>162.0</ele>
                <time>2020-08-28T09:38:16.000Z</time>
                <name>Trackpoint 1446</name>
            </trkpt>
            <trkpt lat="49.8874688" lon="9.8311704">
                <ele>162.0</ele>
                <time>2020-08-28T09:38:18.000Z</time>
                <name>Trackpoint 1447</name>
            </trkpt>
            <trkpt lat="49.887584" lon="9.831148">
                <ele>162.0</ele>
                <time>2020-08-28T09:38:20.000Z</time>
                <name>Trackpoint 1448</name>
            </trkpt>
            <trkpt lat="49.8876928" lon="9.8310968">
                <ele>162.0</ele>
                <time>2020-08-28T09:38:22.000Z</time>
                <name>Trackpoint 1449</name>
            </trkpt>
            <trkpt lat="49.8877984" lon="9.8310568">
                <ele>162.0</ele>
                <time>2020-08-28T09:38:24.000Z</time>
                <name>Trackpoint 1450</name>
            </trkpt>
            <trkpt lat="49.8878976" lon="9.8310216">
                <ele>162.0</ele>
                <time>2020-08-28T09:38:26.000Z</time>
                <name>Trackpoint 1451</name>
            </trkpt>
            <trkpt lat="49.888" lon="9.8309784">
                <ele>162.0</ele>
                <time>2020-08-28T09:38:28.000Z</time>
                <name>Trackpoint 1452</name>
            </trkpt>
            <trkpt lat="49.8881088" lon="9.8309472">
                <ele>162.0</ele>
                <time>2020-08-28T09:38:30.000Z</time>
                <name>Trackpoint 1453</name>
            </trkpt>
            <trkpt lat="49.88824" lon="9.8309088">
                <ele>162.0</ele>
                <time>2020-08-28T09:38:32.000Z</time>
                <name>Trackpoint 1454</name>
            </trkpt>
            <trkpt lat="49.8883616" lon="9.8308712">
                <ele>162.0</ele>
                <time>2020-08-28T09:38:34.000Z</time>
                <name>Trackpoint 1455</name>
            </trkpt>
            <trkpt lat="49.8884576" lon="9.8308424">
                <ele>162.0</ele>
                <time>2020-08-28T09:38:36.000Z</time>
                <name>Trackpoint 1456</name>
            </trkpt>
            <trkpt lat="49.8885568" lon="9.8308032">
                <ele>162.0</ele>
                <time>2020-08-28T09:38:38.000Z</time>
                <name>Trackpoint 1457</name>
            </trkpt>
            <trkpt lat="49.8886496" lon="9.8307616">
                <ele>162.0</ele>
                <time>2020-08-28T09:38:40.000Z</time>
                <name>Trackpoint 1458</name>
            </trkpt>
            <trkpt lat="49.8887456" lon="9.8307112">
                <ele>162.0</ele>
                <time>2020-08-28T09:38:42.000Z</time>
                <name>Trackpoint 1459</name>
            </trkpt>
            <trkpt lat="49.8888384" lon="9.830664">
                <ele>162.0</ele>
                <time>2020-08-28T09:38:44.000Z</time>
                <name>Trackpoint 1460</name>
            </trkpt>
            <trkpt lat="49.8889472" lon="9.8306168">
                <ele>162.0</ele>
                <time>2020-08-28T09:38:46.000Z</time>
                <name>Trackpoint 1461</name>
            </trkpt>
            <trkpt lat="49.8890496" lon="9.8305848">
                <ele>162.0</ele>
                <time>2020-08-28T09:38:48.000Z</time>
                <name>Trackpoint 1462</name>
            </trkpt>
            <trkpt lat="49.8891328" lon="9.8305152">
                <ele>162.0</ele>
                <time>2020-08-28T09:38:50.000Z</time>
                <name>Trackpoint 1463</name>
            </trkpt>
            <trkpt lat="49.889168" lon="9.8303968">
                <ele>162.0</ele>
                <time>2020-08-28T09:38:52.000Z</time>
                <name>Trackpoint 1464</name>
            </trkpt>
            <trkpt lat="49.8892032" lon="9.8302568">
                <ele>162.0</ele>
                <time>2020-08-28T09:38:54.000Z</time>
                <name>Trackpoint 1465</name>
            </trkpt>
            <trkpt lat="49.889264" lon="9.8301624">
                <ele>162.0</ele>
                <time>2020-08-28T09:38:56.000Z</time>
                <name>Trackpoint 1466</name>
            </trkpt>
            <trkpt lat="49.8893504" lon="9.8301016">
                <ele>162.0</ele>
                <time>2020-08-28T09:38:58.000Z</time>
                <name>Trackpoint 1467</name>
            </trkpt>
            <trkpt lat="49.8894464" lon="9.8300352">
                <ele>163.0</ele>
                <time>2020-08-28T09:39:00.000Z</time>
                <name>Trackpoint 1468</name>
            </trkpt>
            <trkpt lat="49.8895456" lon="9.8299688">
                <ele>163.0</ele>
                <time>2020-08-28T09:39:02.000Z</time>
                <name>Trackpoint 1469</name>
            </trkpt>
            <trkpt lat="49.8896448" lon="9.8298904">
                <ele>163.0</ele>
                <time>2020-08-28T09:39:04.000Z</time>
                <name>Trackpoint 1470</name>
            </trkpt>
            <trkpt lat="49.8897568" lon="9.8298">
                <ele>163.0</ele>
                <time>2020-08-28T09:39:06.000Z</time>
                <name>Trackpoint 1471</name>
            </trkpt>
            <trkpt lat="49.8898624" lon="9.8297192">
                <ele>163.0</ele>
                <time>2020-08-28T09:39:08.000Z</time>
                <name>Trackpoint 1472</name>
            </trkpt>
            <trkpt lat="49.8899392" lon="9.8296696">
                <ele>163.0</ele>
                <time>2020-08-28T09:39:09.000Z</time>
                <name>Trackpoint 1473</name>
            </trkpt>
            <trkpt lat="49.8900352" lon="9.8295984">
                <ele>163.0</ele>
                <time>2020-08-28T09:39:11.000Z</time>
                <name>Trackpoint 1474</name>
            </trkpt>
            <trkpt lat="49.890128" lon="9.8294952">
                <ele>163.0</ele>
                <time>2020-08-28T09:39:13.000Z</time>
                <name>Trackpoint 1475</name>
            </trkpt>
            <trkpt lat="49.8902208" lon="9.8294064">
                <ele>163.0</ele>
                <time>2020-08-28T09:39:15.000Z</time>
                <name>Trackpoint 1476</name>
            </trkpt>
            <trkpt lat="49.8903168" lon="9.8293248">
                <ele>163.0</ele>
                <time>2020-08-28T09:39:17.000Z</time>
                <name>Trackpoint 1477</name>
            </trkpt>
            <trkpt lat="49.8904224" lon="9.8292312">
                <ele>163.0</ele>
                <time>2020-08-28T09:39:19.000Z</time>
                <name>Trackpoint 1478</name>
            </trkpt>
            <trkpt lat="49.890496" lon="9.8291616">
                <ele>163.0</ele>
                <time>2020-08-28T09:39:21.000Z</time>
                <name>Trackpoint 1479</name>
            </trkpt>
            <trkpt lat="49.890576" lon="9.8290832">
                <ele>163.0</ele>
                <time>2020-08-28T09:39:23.000Z</time>
                <name>Trackpoint 1480</name>
            </trkpt>
            <trkpt lat="49.8906592" lon="9.8289936">
                <ele>164.0</ele>
                <time>2020-08-28T09:39:25.000Z</time>
                <name>Trackpoint 1481</name>
            </trkpt>
            <trkpt lat="49.8907584" lon="9.8289248">
                <ele>164.0</ele>
                <time>2020-08-28T09:39:27.000Z</time>
                <name>Trackpoint 1482</name>
            </trkpt>
            <trkpt lat="49.8908352" lon="9.8288632">
                <ele>164.0</ele>
                <time>2020-08-28T09:39:29.000Z</time>
                <name>Trackpoint 1483</name>
            </trkpt>
            <trkpt lat="49.8909184" lon="9.8288224">
                <ele>164.0</ele>
                <time>2020-08-28T09:39:31.000Z</time>
                <name>Trackpoint 1484</name>
            </trkpt>
            <trkpt lat="49.8910144" lon="9.8287496">
                <ele>164.0</ele>
                <time>2020-08-28T09:39:34.000Z</time>
                <name>Trackpoint 1485</name>
            </trkpt>
            <trkpt lat="49.8911168" lon="9.828656">
                <ele>164.0</ele>
                <time>2020-08-28T09:39:38.000Z</time>
                <name>Trackpoint 1486</name>
            </trkpt>
            <trkpt lat="49.8912192" lon="9.8285568">
                <ele>164.0</ele>
                <time>2020-08-28T09:39:40.000Z</time>
                <name>Trackpoint 1487</name>
            </trkpt>
            <trkpt lat="49.8913472" lon="9.82844">
                <ele>164.0</ele>
                <time>2020-08-28T09:39:42.000Z</time>
                <name>Trackpoint 1488</name>
            </trkpt>
            <trkpt lat="49.89144" lon="9.828312">
                <ele>164.0</ele>
                <time>2020-08-28T09:39:44.000Z</time>
                <name>Trackpoint 1489</name>
            </trkpt>
            <trkpt lat="49.8915072" lon="9.8282232">
                <ele>164.0</ele>
                <time>2020-08-28T09:39:45.000Z</time>
                <name>Trackpoint 1490</name>
            </trkpt>
            <trkpt lat="49.8915648" lon="9.8281496">
                <ele>164.0</ele>
                <time>2020-08-28T09:39:46.000Z</time>
                <name>Trackpoint 1491</name>
            </trkpt>
            <trkpt lat="49.8916928" lon="9.8280584">
                <ele>165.0</ele>
                <time>2020-08-28T09:39:48.000Z</time>
                <name>Trackpoint 1492</name>
            </trkpt>
            <trkpt lat="49.8917696" lon="9.8279848">
                <ele>165.0</ele>
                <time>2020-08-28T09:39:50.000Z</time>
                <name>Trackpoint 1493</name>
            </trkpt>
            <trkpt lat="49.8918656" lon="9.8278888">
                <ele>165.0</ele>
                <time>2020-08-28T09:39:53.000Z</time>
                <name>Trackpoint 1494</name>
            </trkpt>
            <trkpt lat="49.8919488" lon="9.8278112">
                <ele>165.0</ele>
                <time>2020-08-28T09:39:55.000Z</time>
                <name>Trackpoint 1495</name>
            </trkpt>
            <trkpt lat="49.8920864" lon="9.827728">
                <ele>166.0</ele>
                <time>2020-08-28T09:39:57.000Z</time>
                <name>Trackpoint 1496</name>
            </trkpt>
            <trkpt lat="49.892176" lon="9.827692">
                <ele>166.0</ele>
                <time>2020-08-28T09:39:58.000Z</time>
                <name>Trackpoint 1497</name>
            </trkpt>
            <trkpt lat="49.8922688" lon="9.8276064">
                <ele>166.0</ele>
                <time>2020-08-28T09:40:00.000Z</time>
                <name>Trackpoint 1498</name>
            </trkpt>
            <trkpt lat="49.8923744" lon="9.8275248">
                <ele>166.0</ele>
                <time>2020-08-28T09:40:02.000Z</time>
                <name>Trackpoint 1499</name>
            </trkpt>
            <trkpt lat="49.8924736" lon="9.827448">
                <ele>167.0</ele>
                <time>2020-08-28T09:40:04.000Z</time>
                <name>Trackpoint 1500</name>
            </trkpt>
            <trkpt lat="49.8925728" lon="9.8273696">
                <ele>167.0</ele>
                <time>2020-08-28T09:40:06.000Z</time>
                <name>Trackpoint 1501</name>
            </trkpt>
            <trkpt lat="49.892672" lon="9.8273224">
                <ele>167.0</ele>
                <time>2020-08-28T09:40:08.000Z</time>
                <name>Trackpoint 1502</name>
            </trkpt>
            <trkpt lat="49.8927552" lon="9.8272688">
                <ele>167.0</ele>
                <time>2020-08-28T09:40:10.000Z</time>
                <name>Trackpoint 1503</name>
            </trkpt>
            <trkpt lat="49.8928576" lon="9.8271816">
                <ele>167.0</ele>
                <time>2020-08-28T09:40:12.000Z</time>
                <name>Trackpoint 1504</name>
            </trkpt>
            <trkpt lat="49.8929568" lon="9.8271176">
                <ele>167.0</ele>
                <time>2020-08-28T09:40:14.000Z</time>
                <name>Trackpoint 1505</name>
            </trkpt>
            <trkpt lat="49.8930336" lon="9.8270656">
                <ele>167.0</ele>
                <time>2020-08-28T09:40:16.000Z</time>
                <name>Trackpoint 1506</name>
            </trkpt>
            <trkpt lat="49.8931456" lon="9.8269656">
                <ele>167.0</ele>
                <time>2020-08-28T09:40:18.000Z</time>
                <name>Trackpoint 1507</name>
            </trkpt>
            <trkpt lat="49.8932032" lon="9.8268936">
                <ele>167.0</ele>
                <time>2020-08-28T09:40:19.000Z</time>
                <name>Trackpoint 1508</name>
            </trkpt>
            <trkpt lat="49.8933056" lon="9.826768">
                <ele>167.0</ele>
                <time>2020-08-28T09:40:21.000Z</time>
                <name>Trackpoint 1509</name>
            </trkpt>
            <trkpt lat="49.8934144" lon="9.82664">
                <ele>167.0</ele>
                <time>2020-08-28T09:40:23.000Z</time>
                <name>Trackpoint 1510</name>
            </trkpt>
            <trkpt lat="49.8935168" lon="9.8265152">
                <ele>167.0</ele>
                <time>2020-08-28T09:40:25.000Z</time>
                <name>Trackpoint 1511</name>
            </trkpt>
            <trkpt lat="49.8936128" lon="9.8263904">
                <ele>167.0</ele>
                <time>2020-08-28T09:40:27.000Z</time>
                <name>Trackpoint 1512</name>
            </trkpt>
            <trkpt lat="49.8937024" lon="9.8262664">
                <ele>167.0</ele>
                <time>2020-08-28T09:40:29.000Z</time>
                <name>Trackpoint 1513</name>
            </trkpt>
            <trkpt lat="49.8938112" lon="9.8261336">
                <ele>167.0</ele>
                <time>2020-08-28T09:40:31.000Z</time>
                <name>Trackpoint 1514</name>
            </trkpt>
            <trkpt lat="49.8938976" lon="9.8260072">
                <ele>167.0</ele>
                <time>2020-08-28T09:40:33.000Z</time>
                <name>Trackpoint 1515</name>
            </trkpt>
            <trkpt lat="49.8939808" lon="9.8258912">
                <ele>167.0</ele>
                <time>2020-08-28T09:40:35.000Z</time>
                <name>Trackpoint 1516</name>
            </trkpt>
            <trkpt lat="49.8940544" lon="9.8258088">
                <ele>167.0</ele>
                <time>2020-08-28T09:40:37.000Z</time>
                <name>Trackpoint 1517</name>
            </trkpt>
            <trkpt lat="49.8941312" lon="9.8257176">
                <ele>167.0</ele>
                <time>2020-08-28T09:40:39.000Z</time>
                <name>Trackpoint 1518</name>
            </trkpt>
            <trkpt lat="49.8942016" lon="9.8256064">
                <ele>167.0</ele>
                <time>2020-08-28T09:40:41.000Z</time>
                <name>Trackpoint 1519</name>
            </trkpt>
            <trkpt lat="49.8942752" lon="9.8255032">
                <ele>168.0</ele>
                <time>2020-08-28T09:40:43.000Z</time>
                <name>Trackpoint 1520</name>
            </trkpt>
            <trkpt lat="49.894368" lon="9.825412">
                <ele>167.0</ele>
                <time>2020-08-28T09:40:45.000Z</time>
                <name>Trackpoint 1521</name>
            </trkpt>
            <trkpt lat="49.8944576" lon="9.8253984">
                <ele>167.0</ele>
                <time>2020-08-28T09:40:47.000Z</time>
                <name>Trackpoint 1522</name>
            </trkpt>
            <trkpt lat="49.8945184" lon="9.825472">
                <ele>167.0</ele>
                <time>2020-08-28T09:40:49.000Z</time>
                <name>Trackpoint 1523</name>
            </trkpt>
            <trkpt lat="49.8945664" lon="9.8255632">
                <ele>167.0</ele>
                <time>2020-08-28T09:40:51.000Z</time>
                <name>Trackpoint 1524</name>
            </trkpt>
            <trkpt lat="49.894656" lon="9.8256728">
                <ele>167.0</ele>
                <time>2020-08-28T09:40:54.000Z</time>
                <name>Trackpoint 1525</name>
            </trkpt>
            <trkpt lat="49.8947168" lon="9.8257568">
                <ele>167.0</ele>
                <time>2020-08-28T09:40:56.000Z</time>
                <name>Trackpoint 1526</name>
            </trkpt>
            <trkpt lat="49.8947808" lon="9.8258368">
                <ele>167.0</ele>
                <time>2020-08-28T09:40:58.000Z</time>
                <name>Trackpoint 1527</name>
            </trkpt>
            <trkpt lat="49.8948544" lon="9.8259472">
                <ele>167.0</ele>
                <time>2020-08-28T09:40:59.000Z</time>
                <name>Trackpoint 1528</name>
            </trkpt>
            <trkpt lat="49.894912" lon="9.8260416">
                <ele>167.0</ele>
                <time>2020-08-28T09:41:01.000Z</time>
                <name>Trackpoint 1529</name>
            </trkpt>
            <trkpt lat="49.8949888" lon="9.8261232">
                <ele>168.0</ele>
                <time>2020-08-28T09:41:03.000Z</time>
                <name>Trackpoint 1530</name>
            </trkpt>
            <trkpt lat="49.8950464" lon="9.8261992">
                <ele>168.0</ele>
                <time>2020-08-28T09:41:05.000Z</time>
                <name>Trackpoint 1531</name>
            </trkpt>
            <trkpt lat="49.8951296" lon="9.8262392">
                <ele>168.0</ele>
                <time>2020-08-28T09:41:07.000Z</time>
                <name>Trackpoint 1532</name>
            </trkpt>
            <trkpt lat="49.8952192" lon="9.8261992">
                <ele>168.0</ele>
                <time>2020-08-28T09:41:09.000Z</time>
                <name>Trackpoint 1533</name>
            </trkpt>
            <trkpt lat="49.8952928" lon="9.826132">
                <ele>167.0</ele>
                <time>2020-08-28T09:41:11.000Z</time>
                <name>Trackpoint 1534</name>
            </trkpt>
            <trkpt lat="49.89536" lon="9.8260536">
                <ele>167.0</ele>
                <time>2020-08-28T09:41:13.000Z</time>
                <name>Trackpoint 1535</name>
            </trkpt>
            <trkpt lat="49.895424" lon="9.825972">
                <ele>167.0</ele>
                <time>2020-08-28T09:41:15.000Z</time>
                <name>Trackpoint 1536</name>
            </trkpt>
            <trkpt lat="49.8954912" lon="9.82588">
                <ele>167.0</ele>
                <time>2020-08-28T09:41:17.000Z</time>
                <name>Trackpoint 1537</name>
            </trkpt>
            <trkpt lat="49.895568" lon="9.8257864">
                <ele>167.0</ele>
                <time>2020-08-28T09:41:19.000Z</time>
                <name>Trackpoint 1538</name>
            </trkpt>
            <trkpt lat="49.8956448" lon="9.8256976">
                <ele>167.0</ele>
                <time>2020-08-28T09:41:21.000Z</time>
                <name>Trackpoint 1539</name>
            </trkpt>
            <trkpt lat="49.8957216" lon="9.825612">
                <ele>167.0</ele>
                <time>2020-08-28T09:41:23.000Z</time>
                <name>Trackpoint 1540</name>
            </trkpt>
            <trkpt lat="49.8957984" lon="9.8255192">
                <ele>167.0</ele>
                <time>2020-08-28T09:41:25.000Z</time>
                <name>Trackpoint 1541</name>
            </trkpt>
            <trkpt lat="49.8958656" lon="9.8254272">
                <ele>167.0</ele>
                <time>2020-08-28T09:41:27.000Z</time>
                <name>Trackpoint 1542</name>
            </trkpt>
            <trkpt lat="49.8959392" lon="9.825332">
                <ele>167.0</ele>
                <time>2020-08-28T09:41:29.000Z</time>
                <name>Trackpoint 1543</name>
            </trkpt>
            <trkpt lat="49.8960128" lon="9.8252472">
                <ele>167.0</ele>
                <time>2020-08-28T09:41:31.000Z</time>
                <name>Trackpoint 1544</name>
            </trkpt>
            <trkpt lat="49.896096" lon="9.8251464">
                <ele>168.0</ele>
                <time>2020-08-28T09:41:33.000Z</time>
                <name>Trackpoint 1545</name>
            </trkpt>
            <trkpt lat="49.8961632" lon="9.8250504">
                <ele>168.0</ele>
                <time>2020-08-28T09:41:35.000Z</time>
                <name>Trackpoint 1546</name>
            </trkpt>
            <trkpt lat="49.8962272" lon="9.8249648">
                <ele>168.0</ele>
                <time>2020-08-28T09:41:37.000Z</time>
                <name>Trackpoint 1547</name>
            </trkpt>
            <trkpt lat="49.8962944" lon="9.8248856">
                <ele>168.0</ele>
                <time>2020-08-28T09:41:39.000Z</time>
                <name>Trackpoint 1548</name>
            </trkpt>
            <trkpt lat="49.8963904" lon="9.8249848">
                <ele>168.0</ele>
                <time>2020-08-28T09:41:42.000Z</time>
                <name>Trackpoint 1549</name>
            </trkpt>
            <trkpt lat="49.8964544" lon="9.8250984">
                <ele>168.0</ele>
                <time>2020-08-28T09:41:44.000Z</time>
                <name>Trackpoint 1550</name>
            </trkpt>
            <trkpt lat="49.8965088" lon="9.8251832">
                <ele>168.0</ele>
                <time>2020-08-28T09:41:46.000Z</time>
                <name>Trackpoint 1551</name>
            </trkpt>
            <trkpt lat="49.8965792" lon="9.8253">
                <ele>168.0</ele>
                <time>2020-08-28T09:41:48.000Z</time>
                <name>Trackpoint 1552</name>
            </trkpt>
            <trkpt lat="49.8966688" lon="9.8254272">
                <ele>168.0</ele>
                <time>2020-08-28T09:41:50.000Z</time>
                <name>Trackpoint 1553</name>
            </trkpt>
            <trkpt lat="49.8967552" lon="9.8255504">
                <ele>168.0</ele>
                <time>2020-08-28T09:41:52.000Z</time>
                <name>Trackpoint 1554</name>
            </trkpt>
            <trkpt lat="49.8968192" lon="9.8256664">
                <ele>168.0</ele>
                <time>2020-08-28T09:41:54.000Z</time>
                <name>Trackpoint 1555</name>
            </trkpt>
            <trkpt lat="49.8968736" lon="9.82574">
                <ele>168.0</ele>
                <time>2020-08-28T09:41:56.000Z</time>
                <name>Trackpoint 1556</name>
            </trkpt>
            <trkpt lat="49.8969216" lon="9.8258312">
                <ele>168.0</ele>
                <time>2020-08-28T09:41:59.000Z</time>
                <name>Trackpoint 1557</name>
            </trkpt>
            <trkpt lat="49.8970304" lon="9.8257864">
                <ele>168.0</ele>
                <time>2020-08-28T09:42:22.000Z</time>
                <name>Trackpoint 1558</name>
            </trkpt>
            <trkpt lat="49.8970848" lon="9.825708">
                <ele>168.0</ele>
                <time>2020-08-28T09:42:24.000Z</time>
                <name>Trackpoint 1559</name>
            </trkpt>
            <trkpt lat="49.8971392" lon="9.8256216">
                <ele>168.0</ele>
                <time>2020-08-28T09:42:26.000Z</time>
                <name>Trackpoint 1560</name>
            </trkpt>
            <trkpt lat="49.8972" lon="9.8255184">
                <ele>168.0</ele>
                <time>2020-08-28T09:42:28.000Z</time>
                <name>Trackpoint 1561</name>
            </trkpt>
            <trkpt lat="49.8972736" lon="9.825412">
                <ele>168.0</ele>
                <time>2020-08-28T09:42:30.000Z</time>
                <name>Trackpoint 1562</name>
            </trkpt>
            <trkpt lat="49.8973376" lon="9.8253024">
                <ele>168.0</ele>
                <time>2020-08-28T09:42:32.000Z</time>
                <name>Trackpoint 1563</name>
            </trkpt>
            <trkpt lat="49.897408" lon="9.8252048">
                <ele>168.0</ele>
                <time>2020-08-28T09:42:34.000Z</time>
                <name>Trackpoint 1564</name>
            </trkpt>
            <trkpt lat="49.8974656" lon="9.8251216">
                <ele>168.0</ele>
                <time>2020-08-28T09:42:36.000Z</time>
                <name>Trackpoint 1565</name>
            </trkpt>
            <trkpt lat="49.8975168" lon="9.8250368">
                <ele>168.0</ele>
                <time>2020-08-28T09:42:38.000Z</time>
                <name>Trackpoint 1566</name>
            </trkpt>
            <trkpt lat="49.8975776" lon="9.8249464">
                <ele>168.0</ele>
                <time>2020-08-28T09:42:40.000Z</time>
                <name>Trackpoint 1567</name>
            </trkpt>
            <trkpt lat="49.8976608" lon="9.8248384">
                <ele>168.0</ele>
                <time>2020-08-28T09:42:42.000Z</time>
                <name>Trackpoint 1568</name>
            </trkpt>
            <trkpt lat="49.8977408" lon="9.8247368">
                <ele>168.0</ele>
                <time>2020-08-28T09:42:44.000Z</time>
                <name>Trackpoint 1569</name>
            </trkpt>
            <trkpt lat="49.897824" lon="9.824632">
                <ele>168.0</ele>
                <time>2020-08-28T09:42:46.000Z</time>
                <name>Trackpoint 1570</name>
            </trkpt>
            <trkpt lat="49.8979296" lon="9.8245184">
                <ele>168.0</ele>
                <time>2020-08-28T09:42:48.000Z</time>
                <name>Trackpoint 1571</name>
            </trkpt>
            <trkpt lat="49.8980224" lon="9.8243912">
                <ele>168.0</ele>
                <time>2020-08-28T09:42:50.000Z</time>
                <name>Trackpoint 1572</name>
            </trkpt>
            <trkpt lat="49.8981184" lon="9.8242752">
                <ele>168.0</ele>
                <time>2020-08-28T09:42:52.000Z</time>
                <name>Trackpoint 1573</name>
            </trkpt>
            <trkpt lat="49.8981888" lon="9.824168">
                <ele>168.0</ele>
                <time>2020-08-28T09:42:54.000Z</time>
                <name>Trackpoint 1574</name>
            </trkpt>
            <trkpt lat="49.8982656" lon="9.8240832">
                <ele>168.0</ele>
                <time>2020-08-28T09:42:56.000Z</time>
                <name>Trackpoint 1575</name>
            </trkpt>
            <trkpt lat="49.8983488" lon="9.8240072">
                <ele>168.0</ele>
                <time>2020-08-28T09:42:58.000Z</time>
                <name>Trackpoint 1576</name>
            </trkpt>
            <trkpt lat="49.8984192" lon="9.8239248">
                <ele>168.0</ele>
                <time>2020-08-28T09:43:00.000Z</time>
                <name>Trackpoint 1577</name>
            </trkpt>
            <trkpt lat="49.8984704" lon="9.823836">
                <ele>168.0</ele>
                <time>2020-08-28T09:43:02.000Z</time>
                <name>Trackpoint 1578</name>
            </trkpt>
            <trkpt lat="49.8985216" lon="9.8237552">
                <ele>168.0</ele>
                <time>2020-08-28T09:43:04.000Z</time>
                <name>Trackpoint 1579</name>
            </trkpt>
            <trkpt lat="49.8985952" lon="9.8236936">
                <ele>168.0</ele>
                <time>2020-08-28T09:43:07.000Z</time>
                <name>Trackpoint 1580</name>
            </trkpt>
            <trkpt lat="49.89872" lon="9.8236504">
                <ele>167.0</ele>
                <time>2020-08-28T09:43:35.000Z</time>
                <name>Trackpoint 1581</name>
            </trkpt>
            <trkpt lat="49.8987872" lon="9.82356">
                <ele>167.0</ele>
                <time>2020-08-28T09:43:38.000Z</time>
                <name>Trackpoint 1582</name>
            </trkpt>
            <trkpt lat="49.8988256" lon="9.8234504">
                <ele>167.0</ele>
                <time>2020-08-28T09:43:40.000Z</time>
                <name>Trackpoint 1583</name>
            </trkpt>
            <trkpt lat="49.8988608" lon="9.8233344">
                <ele>167.0</ele>
                <time>2020-08-28T09:43:42.000Z</time>
                <name>Trackpoint 1584</name>
            </trkpt>
            <trkpt lat="49.8988992" lon="9.8232336">
                <ele>167.0</ele>
                <time>2020-08-28T09:43:44.000Z</time>
                <name>Trackpoint 1585</name>
            </trkpt>
            <trkpt lat="49.8989472" lon="9.8231296">
                <ele>167.0</ele>
                <time>2020-08-28T09:43:46.000Z</time>
                <name>Trackpoint 1586</name>
            </trkpt>
            <trkpt lat="49.8989952" lon="9.8230352">
                <ele>167.0</ele>
                <time>2020-08-28T09:43:48.000Z</time>
                <name>Trackpoint 1587</name>
            </trkpt>
            <trkpt lat="49.8990432" lon="9.822924">
                <ele>167.0</ele>
                <time>2020-08-28T09:43:50.000Z</time>
                <name>Trackpoint 1588</name>
            </trkpt>
            <trkpt lat="49.8991104" lon="9.8228104">
                <ele>167.0</ele>
                <time>2020-08-28T09:43:52.000Z</time>
                <name>Trackpoint 1589</name>
            </trkpt>
            <trkpt lat="49.8991712" lon="9.8227192">
                <ele>167.0</ele>
                <time>2020-08-28T09:43:54.000Z</time>
                <name>Trackpoint 1590</name>
            </trkpt>
            <trkpt lat="49.8992352" lon="9.8226">
                <ele>167.0</ele>
                <time>2020-08-28T09:43:56.000Z</time>
                <name>Trackpoint 1591</name>
            </trkpt>
            <trkpt lat="49.8993024" lon="9.8224784">
                <ele>167.0</ele>
                <time>2020-08-28T09:43:58.000Z</time>
                <name>Trackpoint 1592</name>
            </trkpt>
            <trkpt lat="49.8993824" lon="9.8223336">
                <ele>166.0</ele>
                <time>2020-08-28T09:44:00.000Z</time>
                <name>Trackpoint 1593</name>
            </trkpt>
            <trkpt lat="49.8994432" lon="9.8222248">
                <ele>166.0</ele>
                <time>2020-08-28T09:44:02.000Z</time>
                <name>Trackpoint 1594</name>
            </trkpt>
            <trkpt lat="49.8995008" lon="9.822108">
                <ele>166.0</ele>
                <time>2020-08-28T09:44:04.000Z</time>
                <name>Trackpoint 1595</name>
            </trkpt>
            <trkpt lat="49.899552" lon="9.8220032">
                <ele>166.0</ele>
                <time>2020-08-28T09:44:06.000Z</time>
                <name>Trackpoint 1596</name>
            </trkpt>
            <trkpt lat="49.8996128" lon="9.8219232">
                <ele>166.0</ele>
                <time>2020-08-28T09:44:08.000Z</time>
                <name>Trackpoint 1597</name>
            </trkpt>
            <trkpt lat="49.8996576" lon="9.8218384">
                <ele>166.0</ele>
                <time>2020-08-28T09:44:10.000Z</time>
                <name>Trackpoint 1598</name>
            </trkpt>
            <trkpt lat="49.899712" lon="9.8217384">
                <ele>166.0</ele>
                <time>2020-08-28T09:44:12.000Z</time>
                <name>Trackpoint 1599</name>
            </trkpt>
            <trkpt lat="49.8997792" lon="9.8216288">
                <ele>166.0</ele>
                <time>2020-08-28T09:44:14.000Z</time>
                <name>Trackpoint 1600</name>
            </trkpt>
            <trkpt lat="49.8998496" lon="9.8214848">
                <ele>166.0</ele>
                <time>2020-08-28T09:44:16.000Z</time>
                <name>Trackpoint 1601</name>
            </trkpt>
            <trkpt lat="49.8998912" lon="9.8213856">
                <ele>166.0</ele>
                <time>2020-08-28T09:44:17.000Z</time>
                <name>Trackpoint 1602</name>
            </trkpt>
            <trkpt lat="49.899936" lon="9.821288">
                <ele>166.0</ele>
                <time>2020-08-28T09:44:18.000Z</time>
                <name>Trackpoint 1603</name>
            </trkpt>
            <trkpt lat="49.8999776" lon="9.8212048">
                <ele>166.0</ele>
                <time>2020-08-28T09:44:19.000Z</time>
                <name>Trackpoint 1604</name>
            </trkpt>
            <trkpt lat="49.9000192" lon="9.82112">
                <ele>166.0</ele>
                <time>2020-08-28T09:44:20.000Z</time>
                <name>Trackpoint 1605</name>
            </trkpt>
            <trkpt lat="49.9000704" lon="9.8210136">
                <ele>166.0</ele>
                <time>2020-08-28T09:44:21.000Z</time>
                <name>Trackpoint 1606</name>
            </trkpt>
            <trkpt lat="49.900112" lon="9.8209104">
                <ele>166.0</ele>
                <time>2020-08-28T09:44:22.000Z</time>
                <name>Trackpoint 1607</name>
            </trkpt>
            <trkpt lat="49.9001696" lon="9.8207416">
                <ele>166.0</ele>
                <time>2020-08-28T09:44:24.000Z</time>
                <name>Trackpoint 1608</name>
            </trkpt>
            <trkpt lat="49.9002048" lon="9.8206552">
                <ele>166.0</ele>
                <time>2020-08-28T09:44:25.000Z</time>
                <name>Trackpoint 1609</name>
            </trkpt>
            <trkpt lat="49.9002432" lon="9.8205568">
                <ele>166.0</ele>
                <time>2020-08-28T09:44:26.000Z</time>
                <name>Trackpoint 1610</name>
            </trkpt>
            <trkpt lat="49.900288" lon="9.8204072">
                <ele>166.0</ele>
                <time>2020-08-28T09:44:28.000Z</time>
                <name>Trackpoint 1611</name>
            </trkpt>
            <trkpt lat="49.9003328" lon="9.82026">
                <ele>166.0</ele>
                <time>2020-08-28T09:44:30.000Z</time>
                <name>Trackpoint 1612</name>
            </trkpt>
            <trkpt lat="49.9003776" lon="9.8201216">
                <ele>165.0</ele>
                <time>2020-08-28T09:44:32.000Z</time>
                <name>Trackpoint 1613</name>
            </trkpt>
            <trkpt lat="49.9004448" lon="9.81998">
                <ele>165.0</ele>
                <time>2020-08-28T09:44:34.000Z</time>
                <name>Trackpoint 1614</name>
            </trkpt>
            <trkpt lat="49.9004704" lon="9.8198368">
                <ele>165.0</ele>
                <time>2020-08-28T09:44:36.000Z</time>
                <name>Trackpoint 1615</name>
            </trkpt>
            <trkpt lat="49.900512" lon="9.8197048">
                <ele>165.0</ele>
                <time>2020-08-28T09:44:38.000Z</time>
                <name>Trackpoint 1616</name>
            </trkpt>
            <trkpt lat="49.900544" lon="9.8195512">
                <ele>165.0</ele>
                <time>2020-08-28T09:44:40.000Z</time>
                <name>Trackpoint 1617</name>
            </trkpt>
            <trkpt lat="49.9005696" lon="9.8194648">
                <ele>165.0</ele>
                <time>2020-08-28T09:44:41.000Z</time>
                <name>Trackpoint 1618</name>
            </trkpt>
            <trkpt lat="49.9005952" lon="9.819308">
                <ele>165.0</ele>
                <time>2020-08-28T09:44:43.000Z</time>
                <name>Trackpoint 1619</name>
            </trkpt>
            <trkpt lat="49.9006336" lon="9.8191456">
                <ele>165.0</ele>
                <time>2020-08-28T09:44:45.000Z</time>
                <name>Trackpoint 1620</name>
            </trkpt>
            <trkpt lat="49.9006624" lon="9.8189832">
                <ele>165.0</ele>
                <time>2020-08-28T09:44:47.000Z</time>
                <name>Trackpoint 1621</name>
            </trkpt>
            <trkpt lat="49.9007072" lon="9.81884">
                <ele>165.0</ele>
                <time>2020-08-28T09:44:49.000Z</time>
                <name>Trackpoint 1622</name>
            </trkpt>
            <trkpt lat="49.9007648" lon="9.8186968">
                <ele>164.0</ele>
                <time>2020-08-28T09:44:51.000Z</time>
                <name>Trackpoint 1623</name>
            </trkpt>
            <trkpt lat="49.9008224" lon="9.8185632">
                <ele>164.0</ele>
                <time>2020-08-28T09:44:53.000Z</time>
                <name>Trackpoint 1624</name>
            </trkpt>
            <trkpt lat="49.900864" lon="9.8184184">
                <ele>164.0</ele>
                <time>2020-08-28T09:44:55.000Z</time>
                <name>Trackpoint 1625</name>
            </trkpt>
            <trkpt lat="49.9008992" lon="9.8182632">
                <ele>164.0</ele>
                <time>2020-08-28T09:44:57.000Z</time>
                <name>Trackpoint 1626</name>
            </trkpt>
            <trkpt lat="49.900928" lon="9.818104">
                <ele>164.0</ele>
                <time>2020-08-28T09:44:59.000Z</time>
                <name>Trackpoint 1627</name>
            </trkpt>
            <trkpt lat="49.9009504" lon="9.81794">
                <ele>164.0</ele>
                <time>2020-08-28T09:45:01.000Z</time>
                <name>Trackpoint 1628</name>
            </trkpt>
            <trkpt lat="49.9009824" lon="9.8177728">
                <ele>164.0</ele>
                <time>2020-08-28T09:45:03.000Z</time>
                <name>Trackpoint 1629</name>
            </trkpt>
            <trkpt lat="49.901008" lon="9.8176096">
                <ele>164.0</ele>
                <time>2020-08-28T09:45:05.000Z</time>
                <name>Trackpoint 1630</name>
            </trkpt>
            <trkpt lat="49.9010304" lon="9.81744">
                <ele>164.0</ele>
                <time>2020-08-28T09:45:07.000Z</time>
                <name>Trackpoint 1631</name>
            </trkpt>
            <trkpt lat="49.9010656" lon="9.8172864">
                <ele>164.0</ele>
                <time>2020-08-28T09:45:09.000Z</time>
                <name>Trackpoint 1632</name>
            </trkpt>
            <trkpt lat="49.9010848" lon="9.8171184">
                <ele>164.0</ele>
                <time>2020-08-28T09:45:11.000Z</time>
                <name>Trackpoint 1633</name>
            </trkpt>
            <trkpt lat="49.9011104" lon="9.81696">
                <ele>164.0</ele>
                <time>2020-08-28T09:45:13.000Z</time>
                <name>Trackpoint 1634</name>
            </trkpt>
            <trkpt lat="49.9011296" lon="9.8168088">
                <ele>164.0</ele>
                <time>2020-08-28T09:45:15.000Z</time>
                <name>Trackpoint 1635</name>
            </trkpt>
            <trkpt lat="49.901168" lon="9.8166848">
                <ele>164.0</ele>
                <time>2020-08-28T09:45:17.000Z</time>
                <name>Trackpoint 1636</name>
            </trkpt>
            <trkpt lat="49.9012416" lon="9.816624">
                <ele>164.0</ele>
                <time>2020-08-28T09:45:20.000Z</time>
                <name>Trackpoint 1637</name>
            </trkpt>
            <trkpt lat="49.9013408" lon="9.8165264">
                <ele>164.0</ele>
                <time>2020-08-28T09:45:22.000Z</time>
                <name>Trackpoint 1638</name>
            </trkpt>
            <trkpt lat="49.9014016" lon="9.8164128">
                <ele>164.0</ele>
                <time>2020-08-28T09:45:24.000Z</time>
                <name>Trackpoint 1639</name>
            </trkpt>
            <trkpt lat="49.901456" lon="9.8162936">
                <ele>164.0</ele>
                <time>2020-08-28T09:45:26.000Z</time>
                <name>Trackpoint 1640</name>
            </trkpt>
            <trkpt lat="49.9015008" lon="9.8161424">
                <ele>164.0</ele>
                <time>2020-08-28T09:45:28.000Z</time>
                <name>Trackpoint 1641</name>
            </trkpt>
            <trkpt lat="49.9015552" lon="9.816004">
                <ele>164.0</ele>
                <time>2020-08-28T09:45:30.000Z</time>
                <name>Trackpoint 1642</name>
            </trkpt>
            <trkpt lat="49.9016064" lon="9.8158464">
                <ele>164.0</ele>
                <time>2020-08-28T09:45:32.000Z</time>
                <name>Trackpoint 1643</name>
            </trkpt>
            <trkpt lat="49.901664" lon="9.8156904">
                <ele>164.0</ele>
                <time>2020-08-28T09:45:34.000Z</time>
                <name>Trackpoint 1644</name>
            </trkpt>
            <trkpt lat="49.9017152" lon="9.8155416">
                <ele>163.0</ele>
                <time>2020-08-28T09:45:36.000Z</time>
                <name>Trackpoint 1645</name>
            </trkpt>
            <trkpt lat="49.9017728" lon="9.8153848">
                <ele>163.0</ele>
                <time>2020-08-28T09:45:38.000Z</time>
                <name>Trackpoint 1646</name>
            </trkpt>
            <trkpt lat="49.9018112" lon="9.815244">
                <ele>162.0</ele>
                <time>2020-08-28T09:45:40.000Z</time>
                <name>Trackpoint 1647</name>
            </trkpt>
            <trkpt lat="49.9018464" lon="9.8151032">
                <ele>162.0</ele>
                <time>2020-08-28T09:45:42.000Z</time>
                <name>Trackpoint 1648</name>
            </trkpt>
            <trkpt lat="49.9018912" lon="9.8149664">
                <ele>162.0</ele>
                <time>2020-08-28T09:45:44.000Z</time>
                <name>Trackpoint 1649</name>
            </trkpt>
            <trkpt lat="49.901936" lon="9.8148168">
                <ele>161.0</ele>
                <time>2020-08-28T09:45:46.000Z</time>
                <name>Trackpoint 1650</name>
            </trkpt>
            <trkpt lat="49.9019616" lon="9.8146984">
                <ele>162.0</ele>
                <time>2020-08-28T09:45:48.000Z</time>
                <name>Trackpoint 1651</name>
            </trkpt>
            <trkpt lat="49.9019968" lon="9.8145664">
                <ele>162.0</ele>
                <time>2020-08-28T09:45:50.000Z</time>
                <name>Trackpoint 1652</name>
            </trkpt>
            <trkpt lat="49.9020192" lon="9.8144752">
                <ele>161.0</ele>
                <time>2020-08-28T09:45:51.000Z</time>
                <name>Trackpoint 1653</name>
            </trkpt>
            <trkpt lat="49.902064" lon="9.814312">
                <ele>161.0</ele>
                <time>2020-08-28T09:45:53.000Z</time>
                <name>Trackpoint 1654</name>
            </trkpt>
            <trkpt lat="49.9021152" lon="9.8141568">
                <ele>161.0</ele>
                <time>2020-08-28T09:45:55.000Z</time>
                <name>Trackpoint 1655</name>
            </trkpt>
            <trkpt lat="49.902144" lon="9.8140048">
                <ele>161.0</ele>
                <time>2020-08-28T09:45:57.000Z</time>
                <name>Trackpoint 1656</name>
            </trkpt>
            <trkpt lat="49.9021824" lon="9.81386">
                <ele>161.0</ele>
                <time>2020-08-28T09:45:59.000Z</time>
                <name>Trackpoint 1657</name>
            </trkpt>
            <trkpt lat="49.9022208" lon="9.8137064">
                <ele>160.0</ele>
                <time>2020-08-28T09:46:01.000Z</time>
                <name>Trackpoint 1658</name>
            </trkpt>
            <trkpt lat="49.9022496" lon="9.8135992">
                <ele>160.0</ele>
                <time>2020-08-28T09:46:02.000Z</time>
                <name>Trackpoint 1659</name>
            </trkpt>
            <trkpt lat="49.9022912" lon="9.8134416">
                <ele>160.0</ele>
                <time>2020-08-28T09:46:04.000Z</time>
                <name>Trackpoint 1660</name>
            </trkpt>
            <trkpt lat="49.9023328" lon="9.81328">
                <ele>160.0</ele>
                <time>2020-08-28T09:46:06.000Z</time>
                <name>Trackpoint 1661</name>
            </trkpt>
            <trkpt lat="49.9023552" lon="9.8131384">
                <ele>160.0</ele>
                <time>2020-08-28T09:46:08.000Z</time>
                <name>Trackpoint 1662</name>
            </trkpt>
            <trkpt lat="49.9024" lon="9.8129768">
                <ele>160.0</ele>
                <time>2020-08-28T09:46:10.000Z</time>
                <name>Trackpoint 1663</name>
            </trkpt>
            <trkpt lat="49.9024512" lon="9.8128216">
                <ele>159.0</ele>
                <time>2020-08-28T09:46:12.000Z</time>
                <name>Trackpoint 1664</name>
            </trkpt>
            <trkpt lat="49.9024768" lon="9.8126872">
                <ele>159.0</ele>
                <time>2020-08-28T09:46:14.000Z</time>
                <name>Trackpoint 1665</name>
            </trkpt>
            <trkpt lat="49.9025088" lon="9.8125312">
                <ele>159.0</ele>
                <time>2020-08-28T09:46:16.000Z</time>
                <name>Trackpoint 1666</name>
            </trkpt>
            <trkpt lat="49.9025216" lon="9.8124384">
                <ele>159.0</ele>
                <time>2020-08-28T09:46:17.000Z</time>
                <name>Trackpoint 1667</name>
            </trkpt>
            <trkpt lat="49.9025472" lon="9.8123448">
                <ele>159.0</ele>
                <time>2020-08-28T09:46:18.000Z</time>
                <name>Trackpoint 1668</name>
            </trkpt>
            <trkpt lat="49.9025728" lon="9.8122328">
                <ele>159.0</ele>
                <time>2020-08-28T09:46:19.000Z</time>
                <name>Trackpoint 1669</name>
            </trkpt>
            <trkpt lat="49.9025984" lon="9.8121184">
                <ele>158.0</ele>
                <time>2020-08-28T09:46:21.000Z</time>
                <name>Trackpoint 1670</name>
            </trkpt>
            <trkpt lat="49.9026144" lon="9.8120232">
                <ele>159.0</ele>
                <time>2020-08-28T09:46:55.000Z</time>
                <name>Trackpoint 1671</name>
            </trkpt>
            <trkpt lat="49.9026368" lon="9.8119184">
                <ele>159.0</ele>
                <time>2020-08-28T09:46:58.000Z</time>
                <name>Trackpoint 1672</name>
            </trkpt>
            <trkpt lat="49.9026656" lon="9.8118088">
                <ele>159.0</ele>
                <time>2020-08-28T09:47:00.000Z</time>
                <name>Trackpoint 1673</name>
            </trkpt>
            <trkpt lat="49.902688" lon="9.811704">
                <ele>159.0</ele>
                <time>2020-08-28T09:47:02.000Z</time>
                <name>Trackpoint 1674</name>
            </trkpt>
            <trkpt lat="49.9027008" lon="9.811608">
                <ele>159.0</ele>
                <time>2020-08-28T09:47:04.000Z</time>
                <name>Trackpoint 1675</name>
            </trkpt>
            <trkpt lat="49.90272" lon="9.811488">
                <ele>159.0</ele>
                <time>2020-08-28T09:47:06.000Z</time>
                <name>Trackpoint 1676</name>
            </trkpt>
            <trkpt lat="49.9027648" lon="9.8113448">
                <ele>159.0</ele>
                <time>2020-08-28T09:47:08.000Z</time>
                <name>Trackpoint 1677</name>
            </trkpt>
            <trkpt lat="49.9027936" lon="9.8112072">
                <ele>159.0</ele>
                <time>2020-08-28T09:47:10.000Z</time>
                <name>Trackpoint 1678</name>
            </trkpt>
            <trkpt lat="49.9028128" lon="9.8110648">
                <ele>159.0</ele>
                <time>2020-08-28T09:47:12.000Z</time>
                <name>Trackpoint 1679</name>
            </trkpt>
            <trkpt lat="49.9028352" lon="9.8109128">
                <ele>159.0</ele>
                <time>2020-08-28T09:47:14.000Z</time>
                <name>Trackpoint 1680</name>
            </trkpt>
            <trkpt lat="49.902848" lon="9.8107664">
                <ele>159.0</ele>
                <time>2020-08-28T09:47:16.000Z</time>
                <name>Trackpoint 1681</name>
            </trkpt>
            <trkpt lat="49.902848" lon="9.8106616">
                <ele>159.0</ele>
                <time>2020-08-28T09:47:18.000Z</time>
                <name>Trackpoint 1682</name>
            </trkpt>
            <trkpt lat="49.9028864" lon="9.8105248">
                <ele>159.0</ele>
                <time>2020-08-28T09:47:20.000Z</time>
                <name>Trackpoint 1683</name>
            </trkpt>
            <trkpt lat="49.9029696" lon="9.8103704">
                <ele>159.0</ele>
                <time>2020-08-28T09:47:22.000Z</time>
                <name>Trackpoint 1684</name>
            </trkpt>
            <trkpt lat="49.9030272" lon="9.8102376">
                <ele>159.0</ele>
                <time>2020-08-28T09:47:24.000Z</time>
                <name>Trackpoint 1685</name>
            </trkpt>
            <trkpt lat="49.9030784" lon="9.8100968">
                <ele>159.0</ele>
                <time>2020-08-28T09:47:26.000Z</time>
                <name>Trackpoint 1686</name>
            </trkpt>
            <trkpt lat="49.9031104" lon="9.8100072">
                <ele>159.0</ele>
                <time>2020-08-28T09:47:27.000Z</time>
                <name>Trackpoint 1687</name>
            </trkpt>
            <trkpt lat="49.9031616" lon="9.8098536">
                <ele>159.0</ele>
                <time>2020-08-28T09:47:29.000Z</time>
                <name>Trackpoint 1688</name>
            </trkpt>
            <trkpt lat="49.9031968" lon="9.8097048">
                <ele>159.0</ele>
                <time>2020-08-28T09:47:31.000Z</time>
                <name>Trackpoint 1689</name>
            </trkpt>
            <trkpt lat="49.9032512" lon="9.8095504">
                <ele>159.0</ele>
                <time>2020-08-28T09:47:33.000Z</time>
                <name>Trackpoint 1690</name>
            </trkpt>
            <trkpt lat="49.9033024" lon="9.8094056">
                <ele>159.0</ele>
                <time>2020-08-28T09:47:35.000Z</time>
                <name>Trackpoint 1691</name>
            </trkpt>
            <trkpt lat="49.903328" lon="9.8093184">
                <ele>159.0</ele>
                <time>2020-08-28T09:47:36.000Z</time>
                <name>Trackpoint 1692</name>
            </trkpt>
            <trkpt lat="49.903376" lon="9.8091784">
                <ele>158.0</ele>
                <time>2020-08-28T09:47:38.000Z</time>
                <name>Trackpoint 1693</name>
            </trkpt>
            <trkpt lat="49.903408" lon="9.80904">
                <ele>158.0</ele>
                <time>2020-08-28T09:47:40.000Z</time>
                <name>Trackpoint 1694</name>
            </trkpt>
            <trkpt lat="49.90344" lon="9.8088904">
                <ele>158.0</ele>
                <time>2020-08-28T09:47:42.000Z</time>
                <name>Trackpoint 1695</name>
            </trkpt>
            <trkpt lat="49.9034624" lon="9.8087864">
                <ele>158.0</ele>
                <time>2020-08-28T09:47:44.000Z</time>
                <name>Trackpoint 1696</name>
            </trkpt>
            <trkpt lat="49.9035232" lon="9.8087168">
                <ele>159.0</ele>
                <time>2020-08-28T09:47:46.000Z</time>
                <name>Trackpoint 1697</name>
            </trkpt>
            <trkpt lat="49.903584" lon="9.8086368">
                <ele>159.0</ele>
                <time>2020-08-28T09:47:48.000Z</time>
                <name>Trackpoint 1698</name>
            </trkpt>
            <trkpt lat="49.9036448" lon="9.8085136">
                <ele>159.0</ele>
                <time>2020-08-28T09:47:50.000Z</time>
                <name>Trackpoint 1699</name>
            </trkpt>
            <trkpt lat="49.9036928" lon="9.8083888">
                <ele>159.0</ele>
                <time>2020-08-28T09:47:52.000Z</time>
                <name>Trackpoint 1700</name>
            </trkpt>
            <trkpt lat="49.903744" lon="9.8082784">
                <ele>159.0</ele>
                <time>2020-08-28T09:47:54.000Z</time>
                <name>Trackpoint 1701</name>
            </trkpt>
            <trkpt lat="49.903792" lon="9.8081728">
                <ele>159.0</ele>
                <time>2020-08-28T09:47:56.000Z</time>
                <name>Trackpoint 1702</name>
            </trkpt>
            <trkpt lat="49.9038528" lon="9.8080664">
                <ele>159.0</ele>
                <time>2020-08-28T09:47:58.000Z</time>
                <name>Trackpoint 1703</name>
            </trkpt>
            <trkpt lat="49.9039072" lon="9.8079584">
                <ele>159.0</ele>
                <time>2020-08-28T09:48:00.000Z</time>
                <name>Trackpoint 1704</name>
            </trkpt>
            <trkpt lat="49.9039648" lon="9.8078448">
                <ele>159.0</ele>
                <time>2020-08-28T09:48:02.000Z</time>
                <name>Trackpoint 1705</name>
            </trkpt>
            <trkpt lat="49.9040224" lon="9.8077352">
                <ele>159.0</ele>
                <time>2020-08-28T09:48:04.000Z</time>
                <name>Trackpoint 1706</name>
            </trkpt>
            <trkpt lat="49.9040704" lon="9.8076184">
                <ele>159.0</ele>
                <time>2020-08-28T09:48:06.000Z</time>
                <name>Trackpoint 1707</name>
            </trkpt>
            <trkpt lat="49.9041184" lon="9.8075016">
                <ele>159.0</ele>
                <time>2020-08-28T09:48:08.000Z</time>
                <name>Trackpoint 1708</name>
            </trkpt>
            <trkpt lat="49.9041824" lon="9.807392">
                <ele>159.0</ele>
                <time>2020-08-28T09:48:10.000Z</time>
                <name>Trackpoint 1709</name>
            </trkpt>
            <trkpt lat="49.90424" lon="9.807272">
                <ele>159.0</ele>
                <time>2020-08-28T09:48:12.000Z</time>
                <name>Trackpoint 1710</name>
            </trkpt>
            <trkpt lat="49.9042848" lon="9.8071808">
                <ele>159.0</ele>
                <time>2020-08-28T09:48:14.000Z</time>
                <name>Trackpoint 1711</name>
            </trkpt>
            <trkpt lat="49.904336" lon="9.8070936">
                <ele>159.0</ele>
                <time>2020-08-28T09:48:16.000Z</time>
                <name>Trackpoint 1712</name>
            </trkpt>
            <trkpt lat="49.9043776" lon="9.8069848">
                <ele>160.0</ele>
                <time>2020-08-28T09:48:18.000Z</time>
                <name>Trackpoint 1713</name>
            </trkpt>
            <trkpt lat="49.9044256" lon="9.8068736">
                <ele>160.0</ele>
                <time>2020-08-28T09:48:20.000Z</time>
                <name>Trackpoint 1714</name>
            </trkpt>
            <trkpt lat="49.9044992" lon="9.8067328">
                <ele>160.0</ele>
                <time>2020-08-28T09:48:22.000Z</time>
                <name>Trackpoint 1715</name>
            </trkpt>
            <trkpt lat="49.90456" lon="9.806592">
                <ele>160.0</ele>
                <time>2020-08-28T09:48:24.000Z</time>
                <name>Trackpoint 1716</name>
            </trkpt>
            <trkpt lat="49.9046176" lon="9.806472">
                <ele>159.0</ele>
                <time>2020-08-28T09:48:26.000Z</time>
                <name>Trackpoint 1717</name>
            </trkpt>
            <trkpt lat="49.9046816" lon="9.80634">
                <ele>159.0</ele>
                <time>2020-08-28T09:48:28.000Z</time>
                <name>Trackpoint 1718</name>
            </trkpt>
            <trkpt lat="49.9047328" lon="9.8062632">
                <ele>159.0</ele>
                <time>2020-08-28T09:48:29.000Z</time>
                <name>Trackpoint 1719</name>
            </trkpt>
            <trkpt lat="49.9047904" lon="9.8061464">
                <ele>159.0</ele>
                <time>2020-08-28T09:48:31.000Z</time>
                <name>Trackpoint 1720</name>
            </trkpt>
            <trkpt lat="49.9048384" lon="9.8060376">
                <ele>160.0</ele>
                <time>2020-08-28T09:48:33.000Z</time>
                <name>Trackpoint 1721</name>
            </trkpt>
            <trkpt lat="49.9049024" lon="9.8059032">
                <ele>160.0</ele>
                <time>2020-08-28T09:48:35.000Z</time>
                <name>Trackpoint 1722</name>
            </trkpt>
            <trkpt lat="49.9049504" lon="9.8058008">
                <ele>160.0</ele>
                <time>2020-08-28T09:48:37.000Z</time>
                <name>Trackpoint 1723</name>
            </trkpt>
            <trkpt lat="49.905024" lon="9.8056568">
                <ele>160.0</ele>
                <time>2020-08-28T09:48:39.000Z</time>
                <name>Trackpoint 1724</name>
            </trkpt>
            <trkpt lat="49.9050688" lon="9.8055696">
                <ele>160.0</ele>
                <time>2020-08-28T09:48:40.000Z</time>
                <name>Trackpoint 1725</name>
            </trkpt>
            <trkpt lat="49.9051296" lon="9.8054448">
                <ele>160.0</ele>
                <time>2020-08-28T09:48:42.000Z</time>
                <name>Trackpoint 1726</name>
            </trkpt>
            <trkpt lat="49.9051936" lon="9.805308">
                <ele>160.0</ele>
                <time>2020-08-28T09:48:44.000Z</time>
                <name>Trackpoint 1727</name>
            </trkpt>
            <trkpt lat="49.9052576" lon="9.8051832">
                <ele>160.0</ele>
                <time>2020-08-28T09:48:46.000Z</time>
                <name>Trackpoint 1728</name>
            </trkpt>
            <trkpt lat="49.9053088" lon="9.8050544">
                <ele>160.0</ele>
                <time>2020-08-28T09:48:48.000Z</time>
                <name>Trackpoint 1729</name>
            </trkpt>
            <trkpt lat="49.9053856" lon="9.8049096">
                <ele>160.0</ele>
                <time>2020-08-28T09:48:50.000Z</time>
                <name>Trackpoint 1730</name>
            </trkpt>
            <trkpt lat="49.9054272" lon="9.8048288">
                <ele>160.0</ele>
                <time>2020-08-28T09:48:51.000Z</time>
                <name>Trackpoint 1731</name>
            </trkpt>
            <trkpt lat="49.9054976" lon="9.8046912">
                <ele>160.0</ele>
                <time>2020-08-28T09:48:53.000Z</time>
                <name>Trackpoint 1732</name>
            </trkpt>
            <trkpt lat="49.9055648" lon="9.80456">
                <ele>160.0</ele>
                <time>2020-08-28T09:48:55.000Z</time>
                <name>Trackpoint 1733</name>
            </trkpt>
            <trkpt lat="49.9056256" lon="9.8044416">
                <ele>160.0</ele>
                <time>2020-08-28T09:48:57.000Z</time>
                <name>Trackpoint 1734</name>
            </trkpt>
            <trkpt lat="49.9056896" lon="9.8043248">
                <ele>160.0</ele>
                <time>2020-08-28T09:48:59.000Z</time>
                <name>Trackpoint 1735</name>
            </trkpt>
            <trkpt lat="49.9057536" lon="9.804212">
                <ele>160.0</ele>
                <time>2020-08-28T09:49:01.000Z</time>
                <name>Trackpoint 1736</name>
            </trkpt>
            <trkpt lat="49.905824" lon="9.8040888">
                <ele>160.0</ele>
                <time>2020-08-28T09:49:03.000Z</time>
                <name>Trackpoint 1737</name>
            </trkpt>
            <trkpt lat="49.9058912" lon="9.803964">
                <ele>160.0</ele>
                <time>2020-08-28T09:49:05.000Z</time>
                <name>Trackpoint 1738</name>
            </trkpt>
            <trkpt lat="49.9059648" lon="9.8038432">
                <ele>161.0</ele>
                <time>2020-08-28T09:49:07.000Z</time>
                <name>Trackpoint 1739</name>
            </trkpt>
            <trkpt lat="49.906032" lon="9.8037232">
                <ele>160.0</ele>
                <time>2020-08-28T09:49:09.000Z</time>
                <name>Trackpoint 1740</name>
            </trkpt>
            <trkpt lat="49.906112" lon="9.8036016">
                <ele>161.0</ele>
                <time>2020-08-28T09:49:11.000Z</time>
                <name>Trackpoint 1741</name>
            </trkpt>
            <trkpt lat="49.9061888" lon="9.8034848">
                <ele>161.0</ele>
                <time>2020-08-28T09:49:13.000Z</time>
                <name>Trackpoint 1742</name>
            </trkpt>
            <trkpt lat="49.9062624" lon="9.8033752">
                <ele>160.0</ele>
                <time>2020-08-28T09:49:15.000Z</time>
                <name>Trackpoint 1743</name>
            </trkpt>
            <trkpt lat="49.9063328" lon="9.8032528">
                <ele>160.0</ele>
                <time>2020-08-28T09:49:17.000Z</time>
                <name>Trackpoint 1744</name>
            </trkpt>
            <trkpt lat="49.9064224" lon="9.8031384">
                <ele>161.0</ele>
                <time>2020-08-28T09:49:19.000Z</time>
                <name>Trackpoint 1745</name>
            </trkpt>
            <trkpt lat="49.9065024" lon="9.8030032">
                <ele>161.0</ele>
                <time>2020-08-28T09:49:21.000Z</time>
                <name>Trackpoint 1746</name>
            </trkpt>
            <trkpt lat="49.9065824" lon="9.8028968">
                <ele>161.0</ele>
                <time>2020-08-28T09:49:23.000Z</time>
                <name>Trackpoint 1747</name>
            </trkpt>
            <trkpt lat="49.906672" lon="9.8027824">
                <ele>161.0</ele>
                <time>2020-08-28T09:49:25.000Z</time>
                <name>Trackpoint 1748</name>
            </trkpt>
            <trkpt lat="49.9067584" lon="9.8026648">
                <ele>161.0</ele>
                <time>2020-08-28T09:49:27.000Z</time>
                <name>Trackpoint 1749</name>
            </trkpt>
            <trkpt lat="49.9068608" lon="9.8025552">
                <ele>162.0</ele>
                <time>2020-08-28T09:49:29.000Z</time>
                <name>Trackpoint 1750</name>
            </trkpt>
            <trkpt lat="49.9069504" lon="9.8024464">
                <ele>162.0</ele>
                <time>2020-08-28T09:49:31.000Z</time>
                <name>Trackpoint 1751</name>
            </trkpt>
            <trkpt lat="49.90704" lon="9.8023416">
                <ele>162.0</ele>
                <time>2020-08-28T09:49:33.000Z</time>
                <name>Trackpoint 1752</name>
            </trkpt>
            <trkpt lat="49.9071232" lon="9.8022344">
                <ele>162.0</ele>
                <time>2020-08-28T09:49:35.000Z</time>
                <name>Trackpoint 1753</name>
            </trkpt>
            <trkpt lat="49.9072064" lon="9.8021368">
                <ele>162.0</ele>
                <time>2020-08-28T09:49:37.000Z</time>
                <name>Trackpoint 1754</name>
            </trkpt>
            <trkpt lat="49.9072928" lon="9.8020464">
                <ele>162.0</ele>
                <time>2020-08-28T09:49:39.000Z</time>
                <name>Trackpoint 1755</name>
            </trkpt>
            <trkpt lat="49.9073824" lon="9.8019464">
                <ele>162.0</ele>
                <time>2020-08-28T09:49:41.000Z</time>
                <name>Trackpoint 1756</name>
            </trkpt>
            <trkpt lat="49.9074816" lon="9.8018368">
                <ele>163.0</ele>
                <time>2020-08-28T09:49:43.000Z</time>
                <name>Trackpoint 1757</name>
            </trkpt>
            <trkpt lat="49.9075808" lon="9.8017232">
                <ele>163.0</ele>
                <time>2020-08-28T09:49:45.000Z</time>
                <name>Trackpoint 1758</name>
            </trkpt>
            <trkpt lat="49.9076704" lon="9.8016184">
                <ele>163.0</ele>
                <time>2020-08-28T09:49:47.000Z</time>
                <name>Trackpoint 1759</name>
            </trkpt>
            <trkpt lat="49.9077568" lon="9.801512">
                <ele>163.0</ele>
                <time>2020-08-28T09:49:49.000Z</time>
                <name>Trackpoint 1760</name>
            </trkpt>
            <trkpt lat="49.90784" lon="9.80142">
                <ele>163.0</ele>
                <time>2020-08-28T09:49:51.000Z</time>
                <name>Trackpoint 1761</name>
            </trkpt>
            <trkpt lat="49.907936" lon="9.8013216">
                <ele>163.0</ele>
                <time>2020-08-28T09:49:53.000Z</time>
                <name>Trackpoint 1762</name>
            </trkpt>
            <trkpt lat="49.9080192" lon="9.8012616">
                <ele>163.0</ele>
                <time>2020-08-28T09:49:55.000Z</time>
                <name>Trackpoint 1763</name>
            </trkpt>
            <trkpt lat="49.908112" lon="9.8011912">
                <ele>163.0</ele>
                <time>2020-08-28T09:49:57.000Z</time>
                <name>Trackpoint 1764</name>
            </trkpt>
            <trkpt lat="49.9082112" lon="9.8011312">
                <ele>163.0</ele>
                <time>2020-08-28T09:49:59.000Z</time>
                <name>Trackpoint 1765</name>
            </trkpt>
            <trkpt lat="49.9083104" lon="9.8010952">
                <ele>163.0</ele>
                <time>2020-08-28T09:50:01.000Z</time>
                <name>Trackpoint 1766</name>
            </trkpt>
            <trkpt lat="49.9084288" lon="9.8010104">
                <ele>163.0</ele>
                <time>2020-08-28T09:50:03.000Z</time>
                <name>Trackpoint 1767</name>
            </trkpt>
            <trkpt lat="49.9085184" lon="9.8009184">
                <ele>163.0</ele>
                <time>2020-08-28T09:50:05.000Z</time>
                <name>Trackpoint 1768</name>
            </trkpt>
            <trkpt lat="49.9086112" lon="9.80084">
                <ele>163.0</ele>
                <time>2020-08-28T09:50:07.000Z</time>
                <name>Trackpoint 1769</name>
            </trkpt>
            <trkpt lat="49.9087232" lon="9.8007584">
                <ele>163.0</ele>
                <time>2020-08-28T09:50:09.000Z</time>
                <name>Trackpoint 1770</name>
            </trkpt>
            <trkpt lat="49.9088256" lon="9.80072">
                <ele>163.0</ele>
                <time>2020-08-28T09:50:11.000Z</time>
                <name>Trackpoint 1771</name>
            </trkpt>
            <trkpt lat="49.9089408" lon="9.8006384">
                <ele>163.0</ele>
                <time>2020-08-28T09:50:13.000Z</time>
                <name>Trackpoint 1772</name>
            </trkpt>
            <trkpt lat="49.9090816" lon="9.8005752">
                <ele>164.0</ele>
                <time>2020-08-28T09:50:15.000Z</time>
                <name>Trackpoint 1773</name>
            </trkpt>
            <trkpt lat="49.909184" lon="9.8005248">
                <ele>164.0</ele>
                <time>2020-08-28T09:50:17.000Z</time>
                <name>Trackpoint 1774</name>
            </trkpt>
            <trkpt lat="49.9092864" lon="9.80048">
                <ele>164.0</ele>
                <time>2020-08-28T09:50:19.000Z</time>
                <name>Trackpoint 1775</name>
            </trkpt>
            <trkpt lat="49.9093856" lon="9.8004352">
                <ele>164.0</ele>
                <time>2020-08-28T09:50:21.000Z</time>
                <name>Trackpoint 1776</name>
            </trkpt>
            <trkpt lat="49.9094816" lon="9.80038">
                <ele>164.0</ele>
                <time>2020-08-28T09:50:23.000Z</time>
                <name>Trackpoint 1777</name>
            </trkpt>
            <trkpt lat="49.9095808" lon="9.8003328">
                <ele>164.0</ele>
                <time>2020-08-28T09:50:25.000Z</time>
                <name>Trackpoint 1778</name>
            </trkpt>
            <trkpt lat="49.9096992" lon="9.8003">
                <ele>164.0</ele>
                <time>2020-08-28T09:50:27.000Z</time>
                <name>Trackpoint 1779</name>
            </trkpt>
            <trkpt lat="49.9098048" lon="9.8002752">
                <ele>163.0</ele>
                <time>2020-08-28T09:50:29.000Z</time>
                <name>Trackpoint 1780</name>
            </trkpt>
            <trkpt lat="49.9099296" lon="9.800232">
                <ele>163.0</ele>
                <time>2020-08-28T09:50:31.000Z</time>
                <name>Trackpoint 1781</name>
            </trkpt>
            <trkpt lat="49.9100672" lon="9.8001544">
                <ele>163.0</ele>
                <time>2020-08-28T09:50:33.000Z</time>
                <name>Trackpoint 1782</name>
            </trkpt>
            <trkpt lat="49.9101856" lon="9.8000984">
                <ele>162.0</ele>
                <time>2020-08-28T09:50:35.000Z</time>
                <name>Trackpoint 1783</name>
            </trkpt>
            <trkpt lat="49.9103456" lon="9.8000536">
                <ele>163.0</ele>
                <time>2020-08-28T09:50:37.000Z</time>
                <name>Trackpoint 1784</name>
            </trkpt>
            <trkpt lat="49.91048" lon="9.8000272">
                <ele>163.0</ele>
                <time>2020-08-28T09:50:39.000Z</time>
                <name>Trackpoint 1785</name>
            </trkpt>
            <trkpt lat="49.9105952" lon="9.7999936">
                <ele>163.0</ele>
                <time>2020-08-28T09:50:41.000Z</time>
                <name>Trackpoint 1786</name>
            </trkpt>
            <trkpt lat="49.9107136" lon="9.7999672">
                <ele>163.0</ele>
                <time>2020-08-28T09:50:43.000Z</time>
                <name>Trackpoint 1787</name>
            </trkpt>
            <trkpt lat="49.9108416" lon="9.79994">
                <ele>163.0</ele>
                <time>2020-08-28T09:50:45.000Z</time>
                <name>Trackpoint 1788</name>
            </trkpt>
            <trkpt lat="49.9109664" lon="9.7999112">
                <ele>164.0</ele>
                <time>2020-08-28T09:50:47.000Z</time>
                <name>Trackpoint 1789</name>
            </trkpt>
            <trkpt lat="49.9110848" lon="9.7998864">
                <ele>164.0</ele>
                <time>2020-08-28T09:50:49.000Z</time>
                <name>Trackpoint 1790</name>
            </trkpt>
            <trkpt lat="49.9112" lon="9.79986">
                <ele>164.0</ele>
                <time>2020-08-28T09:50:51.000Z</time>
                <name>Trackpoint 1791</name>
            </trkpt>
            <trkpt lat="49.9113248" lon="9.79984">
                <ele>165.0</ele>
                <time>2020-08-28T09:50:53.000Z</time>
                <name>Trackpoint 1792</name>
            </trkpt>
            <trkpt lat="49.9114432" lon="9.79982">
                <ele>165.0</ele>
                <time>2020-08-28T09:50:55.000Z</time>
                <name>Trackpoint 1793</name>
            </trkpt>
            <trkpt lat="49.9115616" lon="9.7998016">
                <ele>166.0</ele>
                <time>2020-08-28T09:50:57.000Z</time>
                <name>Trackpoint 1794</name>
            </trkpt>
            <trkpt lat="49.9116736" lon="9.79978">
                <ele>166.0</ele>
                <time>2020-08-28T09:50:59.000Z</time>
                <name>Trackpoint 1795</name>
            </trkpt>
            <trkpt lat="49.9117952" lon="9.7997664">
                <ele>165.0</ele>
                <time>2020-08-28T09:51:01.000Z</time>
                <name>Trackpoint 1796</name>
            </trkpt>
            <trkpt lat="49.9119136" lon="9.7997512">
                <ele>165.0</ele>
                <time>2020-08-28T09:51:03.000Z</time>
                <name>Trackpoint 1797</name>
            </trkpt>
            <trkpt lat="49.912032" lon="9.7997376">
                <ele>165.0</ele>
                <time>2020-08-28T09:51:05.000Z</time>
                <name>Trackpoint 1798</name>
            </trkpt>
            <trkpt lat="49.9121504" lon="9.7997168">
                <ele>165.0</ele>
                <time>2020-08-28T09:51:07.000Z</time>
                <name>Trackpoint 1799</name>
            </trkpt>
            <trkpt lat="49.9122688" lon="9.7997032">
                <ele>164.0</ele>
                <time>2020-08-28T09:51:09.000Z</time>
                <name>Trackpoint 1800</name>
            </trkpt>
            <trkpt lat="49.9123968" lon="9.7997016">
                <ele>163.0</ele>
                <time>2020-08-28T09:51:11.000Z</time>
                <name>Trackpoint 1801</name>
            </trkpt>
            <trkpt lat="49.9125088" lon="9.7996816">
                <ele>163.0</ele>
                <time>2020-08-28T09:51:13.000Z</time>
                <name>Trackpoint 1802</name>
            </trkpt>
            <trkpt lat="49.9126176" lon="9.7996632">
                <ele>163.0</ele>
                <time>2020-08-28T09:51:15.000Z</time>
                <name>Trackpoint 1803</name>
            </trkpt>
            <trkpt lat="49.91272" lon="9.7996552">
                <ele>163.0</ele>
                <time>2020-08-28T09:51:17.000Z</time>
                <name>Trackpoint 1804</name>
            </trkpt>
            <trkpt lat="49.912816" lon="9.7996368">
                <ele>163.0</ele>
                <time>2020-08-28T09:51:19.000Z</time>
                <name>Trackpoint 1805</name>
            </trkpt>
            <trkpt lat="49.9129152" lon="9.7995504">
                <ele>163.0</ele>
                <time>2020-08-28T09:51:22.000Z</time>
                <name>Trackpoint 1806</name>
            </trkpt>
            <trkpt lat="49.9130112" lon="9.7994816">
                <ele>164.0</ele>
                <time>2020-08-28T09:51:25.000Z</time>
                <name>Trackpoint 1807</name>
            </trkpt>
            <trkpt lat="49.9131232" lon="9.7994968">
                <ele>163.0</ele>
                <time>2020-08-28T09:51:28.000Z</time>
                <name>Trackpoint 1808</name>
            </trkpt>
            <trkpt lat="49.9132608" lon="9.7994968">
                <ele>162.0</ele>
                <time>2020-08-28T09:51:30.000Z</time>
                <name>Trackpoint 1809</name>
            </trkpt>
            <trkpt lat="49.9133792" lon="9.7994784">
                <ele>162.0</ele>
                <time>2020-08-28T09:51:32.000Z</time>
                <name>Trackpoint 1810</name>
            </trkpt>
            <trkpt lat="49.9135136" lon="9.7994584">
                <ele>163.0</ele>
                <time>2020-08-28T09:51:34.000Z</time>
                <name>Trackpoint 1811</name>
            </trkpt>
            <trkpt lat="49.9136288" lon="9.7994416">
                <ele>163.0</ele>
                <time>2020-08-28T09:51:36.000Z</time>
                <name>Trackpoint 1812</name>
            </trkpt>
            <trkpt lat="49.913776" lon="9.799448">
                <ele>163.0</ele>
                <time>2020-08-28T09:51:38.000Z</time>
                <name>Trackpoint 1813</name>
            </trkpt>
            <trkpt lat="49.9138944" lon="9.7994344">
                <ele>163.0</ele>
                <time>2020-08-28T09:51:40.000Z</time>
                <name>Trackpoint 1814</name>
            </trkpt>
            <trkpt lat="49.9140096" lon="9.799428">
                <ele>163.0</ele>
                <time>2020-08-28T09:51:42.000Z</time>
                <name>Trackpoint 1815</name>
            </trkpt>
            <trkpt lat="49.9141248" lon="9.7994144">
                <ele>163.0</ele>
                <time>2020-08-28T09:51:44.000Z</time>
                <name>Trackpoint 1816</name>
            </trkpt>
            <trkpt lat="49.9142304" lon="9.799412">
                <ele>163.0</ele>
                <time>2020-08-28T09:51:46.000Z</time>
                <name>Trackpoint 1817</name>
            </trkpt>
            <trkpt lat="49.914336" lon="9.7993984">
                <ele>163.0</ele>
                <time>2020-08-28T09:51:48.000Z</time>
                <name>Trackpoint 1818</name>
            </trkpt>
            <trkpt lat="49.9144448" lon="9.7993896">
                <ele>163.0</ele>
                <time>2020-08-28T09:51:50.000Z</time>
                <name>Trackpoint 1819</name>
            </trkpt>
            <trkpt lat="49.91456" lon="9.7993848">
                <ele>162.0</ele>
                <time>2020-08-28T09:51:52.000Z</time>
                <name>Trackpoint 1820</name>
            </trkpt>
            <trkpt lat="49.914672" lon="9.7993832">
                <ele>163.0</ele>
                <time>2020-08-28T09:51:54.000Z</time>
                <name>Trackpoint 1821</name>
            </trkpt>
            <trkpt lat="49.9147904" lon="9.7993768">
                <ele>162.0</ele>
                <time>2020-08-28T09:51:56.000Z</time>
                <name>Trackpoint 1822</name>
            </trkpt>
            <trkpt lat="49.9149024" lon="9.7993632">
                <ele>162.0</ele>
                <time>2020-08-28T09:51:58.000Z</time>
                <name>Trackpoint 1823</name>
            </trkpt>
            <trkpt lat="49.915008" lon="9.7993416">
                <ele>163.0</ele>
                <time>2020-08-28T09:52:00.000Z</time>
                <name>Trackpoint 1824</name>
            </trkpt>
            <trkpt lat="49.9151072" lon="9.7993232">
                <ele>162.0</ele>
                <time>2020-08-28T09:52:02.000Z</time>
                <name>Trackpoint 1825</name>
            </trkpt>
            <trkpt lat="49.915216" lon="9.7992984">
                <ele>162.0</ele>
                <time>2020-08-28T09:52:04.000Z</time>
                <name>Trackpoint 1826</name>
            </trkpt>
            <trkpt lat="49.9153248" lon="9.799292">
                <ele>162.0</ele>
                <time>2020-08-28T09:52:06.000Z</time>
                <name>Trackpoint 1827</name>
            </trkpt>
            <trkpt lat="49.91544" lon="9.7992824">
                <ele>162.0</ele>
                <time>2020-08-28T09:52:08.000Z</time>
                <name>Trackpoint 1828</name>
            </trkpt>
            <trkpt lat="49.9155616" lon="9.7992848">
                <ele>162.0</ele>
                <time>2020-08-28T09:52:10.000Z</time>
                <name>Trackpoint 1829</name>
            </trkpt>
            <trkpt lat="49.9156672" lon="9.7992752">
                <ele>162.0</ele>
                <time>2020-08-28T09:52:12.000Z</time>
                <name>Trackpoint 1830</name>
            </trkpt>
            <trkpt lat="49.9157728" lon="9.7992672">
                <ele>161.0</ele>
                <time>2020-08-28T09:52:14.000Z</time>
                <name>Trackpoint 1831</name>
            </trkpt>
            <trkpt lat="49.9158912" lon="9.7992648">
                <ele>161.0</ele>
                <time>2020-08-28T09:52:17.000Z</time>
                <name>Trackpoint 1832</name>
            </trkpt>
            <trkpt lat="49.9159808" lon="9.7992832">
                <ele>161.0</ele>
                <time>2020-08-28T09:53:05.000Z</time>
                <name>Trackpoint 1833</name>
            </trkpt>
            <trkpt lat="49.9160928" lon="9.7992712">
                <ele>161.0</ele>
                <time>2020-08-28T09:53:09.000Z</time>
                <name>Trackpoint 1834</name>
            </trkpt>
            <trkpt lat="49.9162048" lon="9.7992512">
                <ele>161.0</ele>
                <time>2020-08-28T09:53:13.000Z</time>
                <name>Trackpoint 1835</name>
            </trkpt>
            <trkpt lat="49.9163104" lon="9.7992096">
                <ele>161.0</ele>
                <time>2020-08-28T09:53:17.000Z</time>
                <name>Trackpoint 1836</name>
            </trkpt>
            <trkpt lat="49.9164032" lon="9.7992016">
                <ele>161.0</ele>
                <time>2020-08-28T09:53:22.000Z</time>
                <name>Trackpoint 1837</name>
            </trkpt>
            <trkpt lat="49.916496" lon="9.7992288">
                <ele>159.0</ele>
                <time>2020-08-28T09:55:00.000Z</time>
                <name>Trackpoint 1838</name>
            </trkpt>
            <trkpt lat="49.9166016" lon="9.7992424">
                <ele>160.0</ele>
                <time>2020-08-28T09:55:04.000Z</time>
                <name>Trackpoint 1839</name>
            </trkpt>
            <trkpt lat="49.9167104" lon="9.7992688">
                <ele>160.0</ele>
                <time>2020-08-28T09:55:07.000Z</time>
                <name>Trackpoint 1840</name>
            </trkpt>
            <trkpt lat="49.9168288" lon="9.7992936">
                <ele>160.0</ele>
                <time>2020-08-28T09:55:10.000Z</time>
                <name>Trackpoint 1841</name>
            </trkpt>
            <trkpt lat="49.9169632" lon="9.7993168">
                <ele>160.0</ele>
                <time>2020-08-28T09:55:13.000Z</time>
                <name>Trackpoint 1842</name>
            </trkpt>
            <trkpt lat="49.9170528" lon="9.7993296">
                <ele>160.0</ele>
                <time>2020-08-28T09:55:15.000Z</time>
                <name>Trackpoint 1843</name>
            </trkpt>
            <trkpt lat="49.9171488" lon="9.7993432">
                <ele>160.0</ele>
                <time>2020-08-28T09:55:17.000Z</time>
                <name>Trackpoint 1844</name>
            </trkpt>
            <trkpt lat="49.917248" lon="9.7993616">
                <ele>161.0</ele>
                <time>2020-08-28T09:55:19.000Z</time>
                <name>Trackpoint 1845</name>
            </trkpt>
            <trkpt lat="49.9173504" lon="9.79938">
                <ele>161.0</ele>
                <time>2020-08-28T09:55:21.000Z</time>
                <name>Trackpoint 1846</name>
            </trkpt>
            <trkpt lat="49.9174528" lon="9.7994">
                <ele>161.0</ele>
                <time>2020-08-28T09:55:23.000Z</time>
                <name>Trackpoint 1847</name>
            </trkpt>
            <trkpt lat="49.9175552" lon="9.7994248">
                <ele>161.0</ele>
                <time>2020-08-28T09:55:25.000Z</time>
                <name>Trackpoint 1848</name>
            </trkpt>
            <trkpt lat="49.917664" lon="9.7994584">
                <ele>161.0</ele>
                <time>2020-08-28T09:55:27.000Z</time>
                <name>Trackpoint 1849</name>
            </trkpt>
            <trkpt lat="49.9177664" lon="9.7994896">
                <ele>161.0</ele>
                <time>2020-08-28T09:55:29.000Z</time>
                <name>Trackpoint 1850</name>
            </trkpt>
            <trkpt lat="49.917872" lon="9.7995072">
                <ele>162.0</ele>
                <time>2020-08-28T09:55:31.000Z</time>
                <name>Trackpoint 1851</name>
            </trkpt>
            <trkpt lat="49.917984" lon="9.7995328">
                <ele>162.0</ele>
                <time>2020-08-28T09:55:33.000Z</time>
                <name>Trackpoint 1852</name>
            </trkpt>
            <trkpt lat="49.9180832" lon="9.799568">
                <ele>162.0</ele>
                <time>2020-08-28T09:55:35.000Z</time>
                <name>Trackpoint 1853</name>
            </trkpt>
            <trkpt lat="49.9181696" lon="9.7996016">
                <ele>163.0</ele>
                <time>2020-08-28T09:55:37.000Z</time>
                <name>Trackpoint 1854</name>
            </trkpt>
            <trkpt lat="49.918256" lon="9.7996384">
                <ele>163.0</ele>
                <time>2020-08-28T09:55:41.000Z</time>
                <name>Trackpoint 1855</name>
            </trkpt>
            <trkpt lat="49.9183776" lon="9.799648">
                <ele>164.0</ele>
                <time>2020-08-28T09:56:17.000Z</time>
                <name>Trackpoint 1856</name>
            </trkpt>
            <trkpt lat="49.9184864" lon="9.7996952">
                <ele>164.0</ele>
                <time>2020-08-28T09:56:20.000Z</time>
                <name>Trackpoint 1857</name>
            </trkpt>
            <trkpt lat="49.9186176" lon="9.7997328">
                <ele>164.0</ele>
                <time>2020-08-28T09:56:23.000Z</time>
                <name>Trackpoint 1858</name>
            </trkpt>
            <trkpt lat="49.9187168" lon="9.7997576">
                <ele>164.0</ele>
                <time>2020-08-28T09:56:25.000Z</time>
                <name>Trackpoint 1859</name>
            </trkpt>
            <trkpt lat="49.9188064" lon="9.7997816">
                <ele>164.0</ele>
                <time>2020-08-28T09:56:27.000Z</time>
                <name>Trackpoint 1860</name>
            </trkpt>
            <trkpt lat="49.918912" lon="9.7998088">
                <ele>165.0</ele>
                <time>2020-08-28T09:56:29.000Z</time>
                <name>Trackpoint 1861</name>
            </trkpt>
            <trkpt lat="49.9190144" lon="9.79984">
                <ele>165.0</ele>
                <time>2020-08-28T09:56:31.000Z</time>
                <name>Trackpoint 1862</name>
            </trkpt>
            <trkpt lat="49.9191136" lon="9.7998616">
                <ele>165.0</ele>
                <time>2020-08-28T09:56:33.000Z</time>
                <name>Trackpoint 1863</name>
            </trkpt>
            <trkpt lat="49.9192096" lon="9.7998848">
                <ele>165.0</ele>
                <time>2020-08-28T09:56:35.000Z</time>
                <name>Trackpoint 1864</name>
            </trkpt>
            <trkpt lat="49.919312" lon="9.7999152">
                <ele>165.0</ele>
                <time>2020-08-28T09:56:37.000Z</time>
                <name>Trackpoint 1865</name>
            </trkpt>
            <trkpt lat="49.9194208" lon="9.7999464">
                <ele>165.0</ele>
                <time>2020-08-28T09:56:39.000Z</time>
                <name>Trackpoint 1866</name>
            </trkpt>
            <trkpt lat="49.919536" lon="9.7999688">
                <ele>165.0</ele>
                <time>2020-08-28T09:56:41.000Z</time>
                <name>Trackpoint 1867</name>
            </trkpt>
            <trkpt lat="49.9196448" lon="9.7999952">
                <ele>165.0</ele>
                <time>2020-08-28T09:56:43.000Z</time>
                <name>Trackpoint 1868</name>
            </trkpt>
            <trkpt lat="49.9197536" lon="9.8000232">
                <ele>165.0</ele>
                <time>2020-08-28T09:56:45.000Z</time>
                <name>Trackpoint 1869</name>
            </trkpt>
            <trkpt lat="49.9198656" lon="9.800048">
                <ele>165.0</ele>
                <time>2020-08-28T09:56:47.000Z</time>
                <name>Trackpoint 1870</name>
            </trkpt>
            <trkpt lat="49.9199744" lon="9.8000744">
                <ele>165.0</ele>
                <time>2020-08-28T09:56:49.000Z</time>
                <name>Trackpoint 1871</name>
            </trkpt>
            <trkpt lat="49.9200896" lon="9.8001">
                <ele>164.0</ele>
                <time>2020-08-28T09:56:51.000Z</time>
                <name>Trackpoint 1872</name>
            </trkpt>
            <trkpt lat="49.9201952" lon="9.8001232">
                <ele>164.0</ele>
                <time>2020-08-28T09:56:53.000Z</time>
                <name>Trackpoint 1873</name>
            </trkpt>
            <trkpt lat="49.9203104" lon="9.8001432">
                <ele>165.0</ele>
                <time>2020-08-28T09:56:55.000Z</time>
                <name>Trackpoint 1874</name>
            </trkpt>
            <trkpt lat="49.9204192" lon="9.8001536">
                <ele>165.0</ele>
                <time>2020-08-28T09:56:57.000Z</time>
                <name>Trackpoint 1875</name>
            </trkpt>
            <trkpt lat="49.9205184" lon="9.800172">
                <ele>165.0</ele>
                <time>2020-08-28T09:56:59.000Z</time>
                <name>Trackpoint 1876</name>
            </trkpt>
            <trkpt lat="49.9206112" lon="9.8001696">
                <ele>165.0</ele>
                <time>2020-08-28T09:57:01.000Z</time>
                <name>Trackpoint 1877</name>
            </trkpt>
            <trkpt lat="49.9207072" lon="9.8001744">
                <ele>165.0</ele>
                <time>2020-08-28T09:57:03.000Z</time>
                <name>Trackpoint 1878</name>
            </trkpt>
            <trkpt lat="49.9208288" lon="9.8002072">
                <ele>165.0</ele>
                <time>2020-08-28T09:57:06.000Z</time>
                <name>Trackpoint 1879</name>
            </trkpt>
            <trkpt lat="49.9208896" lon="9.8002784">
                <ele>165.0</ele>
                <time>2020-08-28T09:57:08.000Z</time>
                <name>Trackpoint 1880</name>
            </trkpt>
            <trkpt lat="49.9209408" lon="9.8003632">
                <ele>164.0</ele>
                <time>2020-08-28T09:57:10.000Z</time>
                <name>Trackpoint 1881</name>
            </trkpt>
            <trkpt lat="49.9210432" lon="9.8004464">
                <ele>164.0</ele>
                <time>2020-08-28T09:57:13.000Z</time>
                <name>Trackpoint 1882</name>
            </trkpt>
            <trkpt lat="49.9211552" lon="9.8004952">
                <ele>164.0</ele>
                <time>2020-08-28T09:57:15.000Z</time>
                <name>Trackpoint 1883</name>
            </trkpt>
            <trkpt lat="49.9212544" lon="9.8005216">
                <ele>164.0</ele>
                <time>2020-08-28T09:57:17.000Z</time>
                <name>Trackpoint 1884</name>
            </trkpt>
            <trkpt lat="49.9213728" lon="9.8005504">
                <ele>163.0</ele>
                <time>2020-08-28T09:57:19.000Z</time>
                <name>Trackpoint 1885</name>
            </trkpt>
            <trkpt lat="49.9214784" lon="9.800596">
                <ele>163.0</ele>
                <time>2020-08-28T09:57:21.000Z</time>
                <name>Trackpoint 1886</name>
            </trkpt>
            <trkpt lat="49.9215968" lon="9.8006552">
                <ele>163.0</ele>
                <time>2020-08-28T09:57:23.000Z</time>
                <name>Trackpoint 1887</name>
            </trkpt>
            <trkpt lat="49.9217152" lon="9.8007272">
                <ele>163.0</ele>
                <time>2020-08-28T09:57:25.000Z</time>
                <name>Trackpoint 1888</name>
            </trkpt>
            <trkpt lat="49.9218368" lon="9.8007568">
                <ele>163.0</ele>
                <time>2020-08-28T09:57:27.000Z</time>
                <name>Trackpoint 1889</name>
            </trkpt>
            <trkpt lat="49.921968" lon="9.8007896">
                <ele>162.0</ele>
                <time>2020-08-28T09:57:29.000Z</time>
                <name>Trackpoint 1890</name>
            </trkpt>
            <trkpt lat="49.9220864" lon="9.800828">
                <ele>162.0</ele>
                <time>2020-08-28T09:57:31.000Z</time>
                <name>Trackpoint 1891</name>
            </trkpt>
            <trkpt lat="49.922208" lon="9.8008872">
                <ele>163.0</ele>
                <time>2020-08-28T09:57:33.000Z</time>
                <name>Trackpoint 1892</name>
            </trkpt>
            <trkpt lat="49.92232" lon="9.8009384">
                <ele>162.0</ele>
                <time>2020-08-28T09:57:35.000Z</time>
                <name>Trackpoint 1893</name>
            </trkpt>
            <trkpt lat="49.9224352" lon="9.8009968">
                <ele>162.0</ele>
                <time>2020-08-28T09:57:37.000Z</time>
                <name>Trackpoint 1894</name>
            </trkpt>
            <trkpt lat="49.9225248" lon="9.8010368">
                <ele>162.0</ele>
                <time>2020-08-28T09:57:39.000Z</time>
                <name>Trackpoint 1895</name>
            </trkpt>
            <trkpt lat="49.9226272" lon="9.8010912">
                <ele>162.0</ele>
                <time>2020-08-28T09:57:41.000Z</time>
                <name>Trackpoint 1896</name>
            </trkpt>
            <trkpt lat="49.9227232" lon="9.8011248">
                <ele>162.0</ele>
                <time>2020-08-28T09:57:43.000Z</time>
                <name>Trackpoint 1897</name>
            </trkpt>
            <trkpt lat="49.9228448" lon="9.8011648">
                <ele>162.0</ele>
                <time>2020-08-28T09:57:46.000Z</time>
                <name>Trackpoint 1898</name>
            </trkpt>
            <trkpt lat="49.9229344" lon="9.8011912">
                <ele>162.0</ele>
                <time>2020-08-28T09:57:48.000Z</time>
                <name>Trackpoint 1899</name>
            </trkpt>
            <trkpt lat="49.923024" lon="9.8012336">
                <ele>162.0</ele>
                <time>2020-08-28T09:57:50.000Z</time>
                <name>Trackpoint 1900</name>
            </trkpt>
            <trkpt lat="49.92312" lon="9.8012712">
                <ele>162.0</ele>
                <time>2020-08-28T09:57:52.000Z</time>
                <name>Trackpoint 1901</name>
            </trkpt>
            <trkpt lat="49.9232224" lon="9.8013088">
                <ele>162.0</ele>
                <time>2020-08-28T09:57:54.000Z</time>
                <name>Trackpoint 1902</name>
            </trkpt>
            <trkpt lat="49.9233088" lon="9.8013464">
                <ele>163.0</ele>
                <time>2020-08-28T09:57:57.000Z</time>
                <name>Trackpoint 1903</name>
            </trkpt>
            <trkpt lat="49.9234048" lon="9.8014544">
                <ele>160.0</ele>
                <time>2020-08-28T09:59:22.000Z</time>
                <name>Trackpoint 1907</name>
            </trkpt>
            <trkpt lat="49.9234656" lon="9.8015496">
                <ele>160.0</ele>
                <time>2020-08-28T09:59:25.000Z</time>
                <name>Trackpoint 1908</name>
            </trkpt>
            <trkpt lat="49.9235616" lon="9.8016032">
                <ele>160.0</ele>
                <time>2020-08-28T09:59:28.000Z</time>
                <name>Trackpoint 1909</name>
            </trkpt>
            <trkpt lat="49.9236448" lon="9.8016592">
                <ele>161.0</ele>
                <time>2020-08-28T09:59:31.000Z</time>
                <name>Trackpoint 1910</name>
            </trkpt>
            <trkpt lat="49.9237216" lon="9.8017568">
                <ele>161.0</ele>
                <time>2020-08-28T09:59:34.000Z</time>
                <name>Trackpoint 1911</name>
            </trkpt>
            <trkpt lat="49.9237568" lon="9.8018528">
                <ele>162.0</ele>
                <time>2020-08-28T09:59:36.000Z</time>
                <name>Trackpoint 1912</name>
            </trkpt>
            <trkpt lat="49.923824" lon="9.8019304">
                <ele>162.0</ele>
                <time>2020-08-28T09:59:39.000Z</time>
                <name>Trackpoint 1913</name>
            </trkpt>
            <trkpt lat="49.9239392" lon="9.8019136">
                <ele>162.0</ele>
                <time>2020-08-28T09:59:43.000Z</time>
                <name>Trackpoint 1914</name>
            </trkpt>
            <trkpt lat="49.924048" lon="9.8018888">
                <ele>163.0</ele>
                <time>2020-08-28T09:59:48.000Z</time>
                <name>Trackpoint 1915</name>
            </trkpt>
            <trkpt lat="49.9241376" lon="9.8018448">
                <ele>164.0</ele>
                <time>2020-08-28T10:00:26.000Z</time>
                <name>Trackpoint 1916</name>
            </trkpt>
            <trkpt lat="49.9242208" lon="9.801788">
                <ele>164.0</ele>
                <time>2020-08-28T10:00:30.000Z</time>
                <name>Trackpoint 1917</name>
            </trkpt>
            <trkpt lat="49.92432" lon="9.8017912">
                <ele>164.0</ele>
                <time>2020-08-28T10:00:33.000Z</time>
                <name>Trackpoint 1918</name>
            </trkpt>
            <trkpt lat="49.9244416" lon="9.8018328">
                <ele>164.0</ele>
                <time>2020-08-28T10:00:36.000Z</time>
                <name>Trackpoint 1919</name>
            </trkpt>
            <trkpt lat="49.9245312" lon="9.8018648">
                <ele>164.0</ele>
                <time>2020-08-28T10:00:38.000Z</time>
                <name>Trackpoint 1920</name>
            </trkpt>
            <trkpt lat="49.9246528" lon="9.8019104">
                <ele>164.0</ele>
                <time>2020-08-28T10:00:41.000Z</time>
                <name>Trackpoint 1921</name>
            </trkpt>
            <trkpt lat="49.924768" lon="9.8019416">
                <ele>164.0</ele>
                <time>2020-08-28T10:00:44.000Z</time>
                <name>Trackpoint 1922</name>
            </trkpt>
            <trkpt lat="49.9248672" lon="9.8019304">
                <ele>164.0</ele>
                <time>2020-08-28T10:00:47.000Z</time>
                <name>Trackpoint 1923</name>
            </trkpt>
            <trkpt lat="49.9249536" lon="9.8018712">
                <ele>163.0</ele>
                <time>2020-08-28T10:00:54.000Z</time>
                <name>Trackpoint 1924</name>
            </trkpt>
            <trkpt lat="49.9250368" lon="9.8018176">
                <ele>165.0</ele>
                <time>2020-08-28T10:01:08.000Z</time>
                <name>Trackpoint 1925</name>
            </trkpt>
            <trkpt lat="49.925056" lon="9.8019168">
                <ele>164.0</ele>
                <time>2020-08-28T10:01:32.000Z</time>
                <name>Trackpoint 1926</name>
            </trkpt>
            <trkpt lat="49.925088" lon="9.8020264">
                <ele>164.0</ele>
                <time>2020-08-28T10:01:36.000Z</time>
                <name>Trackpoint 1927</name>
            </trkpt>
            <trkpt lat="49.9251104" lon="9.8021152">
                <ele>164.0</ele>
                <time>2020-08-28T10:01:38.000Z</time>
                <name>Trackpoint 1928</name>
            </trkpt>
            <trkpt lat="49.9251744" lon="9.8021872">
                <ele>164.0</ele>
                <time>2020-08-28T10:01:40.000Z</time>
                <name>Trackpoint 1929</name>
            </trkpt>
            <trkpt lat="49.92528" lon="9.8022472">
                <ele>164.0</ele>
                <time>2020-08-28T10:01:43.000Z</time>
                <name>Trackpoint 1930</name>
            </trkpt>
            <trkpt lat="49.9253952" lon="9.8023016">
                <ele>164.0</ele>
                <time>2020-08-28T10:01:46.000Z</time>
                <name>Trackpoint 1931</name>
            </trkpt>
            <trkpt lat="49.925488" lon="9.8023368">
                <ele>164.0</ele>
                <time>2020-08-28T10:01:48.000Z</time>
                <name>Trackpoint 1932</name>
            </trkpt>
            <trkpt lat="49.9255776" lon="9.8023728">
                <ele>163.0</ele>
                <time>2020-08-28T10:01:50.000Z</time>
                <name>Trackpoint 1933</name>
            </trkpt>
            <trkpt lat="49.9256704" lon="9.8023928">
                <ele>163.0</ele>
                <time>2020-08-28T10:01:52.000Z</time>
                <name>Trackpoint 1934</name>
            </trkpt>
            <trkpt lat="49.9257568" lon="9.8023584">
                <ele>164.0</ele>
                <time>2020-08-28T10:01:54.000Z</time>
                <name>Trackpoint 1935</name>
            </trkpt>
            <trkpt lat="49.9258496" lon="9.8022944">
                <ele>164.0</ele>
                <time>2020-08-28T10:01:57.000Z</time>
                <name>Trackpoint 1936</name>
            </trkpt>
            <trkpt lat="49.9259328" lon="9.8022368">
                <ele>164.0</ele>
                <time>2020-08-28T10:02:21.000Z</time>
                <name>Trackpoint 1937</name>
            </trkpt>
            <trkpt lat="49.9260416" lon="9.8022936">
                <ele>164.0</ele>
                <time>2020-08-28T10:02:25.000Z</time>
                <name>Trackpoint 1938</name>
            </trkpt>
            <trkpt lat="49.926128" lon="9.8023592">
                <ele>164.0</ele>
                <time>2020-08-28T10:02:28.000Z</time>
                <name>Trackpoint 1939</name>
            </trkpt>
            <trkpt lat="49.926224" lon="9.802412">
                <ele>164.0</ele>
                <time>2020-08-28T10:02:31.000Z</time>
                <name>Trackpoint 1940</name>
            </trkpt>
            <trkpt lat="49.9263296" lon="9.8023904">
                <ele>164.0</ele>
                <time>2020-08-28T10:02:34.000Z</time>
                <name>Trackpoint 1941</name>
            </trkpt>
            <trkpt lat="49.9264416" lon="9.8023216">
                <ele>164.0</ele>
                <time>2020-08-28T10:02:37.000Z</time>
                <name>Trackpoint 1942</name>
            </trkpt>
            <trkpt lat="49.9265312" lon="9.8023368">
                <ele>164.0</ele>
                <time>2020-08-28T10:02:39.000Z</time>
                <name>Trackpoint 1943</name>
            </trkpt>
            <trkpt lat="49.926608" lon="9.802428">
                <ele>164.0</ele>
                <time>2020-08-28T10:02:41.000Z</time>
                <name>Trackpoint 1944</name>
            </trkpt>
            <trkpt lat="49.9266944" lon="9.8025312">
                <ele>164.0</ele>
                <time>2020-08-28T10:02:43.000Z</time>
                <name>Trackpoint 1945</name>
            </trkpt>
            <trkpt lat="49.9267872" lon="9.8026248">
                <ele>164.0</ele>
                <time>2020-08-28T10:02:45.000Z</time>
                <name>Trackpoint 1946</name>
            </trkpt>
            <trkpt lat="49.92688" lon="9.8027232">
                <ele>164.0</ele>
                <time>2020-08-28T10:02:47.000Z</time>
                <name>Trackpoint 1947</name>
            </trkpt>
            <trkpt lat="49.926992" lon="9.8027784">
                <ele>164.0</ele>
                <time>2020-08-28T10:02:49.000Z</time>
                <name>Trackpoint 1948</name>
            </trkpt>
            <trkpt lat="49.9270976" lon="9.8028384">
                <ele>164.0</ele>
                <time>2020-08-28T10:02:51.000Z</time>
                <name>Trackpoint 1949</name>
            </trkpt>
            <trkpt lat="49.9272" lon="9.802908">
                <ele>164.0</ele>
                <time>2020-08-28T10:02:53.000Z</time>
                <name>Trackpoint 1950</name>
            </trkpt>
            <trkpt lat="49.9272928" lon="9.802992">
                <ele>164.0</ele>
                <time>2020-08-28T10:02:55.000Z</time>
                <name>Trackpoint 1951</name>
            </trkpt>
            <trkpt lat="49.9273824" lon="9.8030928">
                <ele>164.0</ele>
                <time>2020-08-28T10:02:57.000Z</time>
                <name>Trackpoint 1952</name>
            </trkpt>
            <trkpt lat="49.9274752" lon="9.8031816">
                <ele>164.0</ele>
                <time>2020-08-28T10:02:59.000Z</time>
                <name>Trackpoint 1953</name>
            </trkpt>
            <trkpt lat="49.9275936" lon="9.8032448">
                <ele>164.0</ele>
                <time>2020-08-28T10:03:01.000Z</time>
                <name>Trackpoint 1954</name>
            </trkpt>
            <trkpt lat="49.9277024" lon="9.8032648">
                <ele>164.0</ele>
                <time>2020-08-28T10:03:03.000Z</time>
                <name>Trackpoint 1955</name>
            </trkpt>
            <trkpt lat="49.9278144" lon="9.8032888">
                <ele>164.0</ele>
                <time>2020-08-28T10:03:05.000Z</time>
                <name>Trackpoint 1956</name>
            </trkpt>
            <trkpt lat="49.9279168" lon="9.8033264">
                <ele>164.0</ele>
                <time>2020-08-28T10:03:07.000Z</time>
                <name>Trackpoint 1957</name>
            </trkpt>
            <trkpt lat="49.928032" lon="9.8033552">
                <ele>164.0</ele>
                <time>2020-08-28T10:03:09.000Z</time>
                <name>Trackpoint 1958</name>
            </trkpt>
            <trkpt lat="49.9281504" lon="9.8033848">
                <ele>164.0</ele>
                <time>2020-08-28T10:03:11.000Z</time>
                <name>Trackpoint 1959</name>
            </trkpt>
            <trkpt lat="49.928256" lon="9.8034096">
                <ele>164.0</ele>
                <time>2020-08-28T10:03:13.000Z</time>
                <name>Trackpoint 1960</name>
            </trkpt>
            <trkpt lat="49.9283584" lon="9.8034312">
                <ele>164.0</ele>
                <time>2020-08-28T10:03:15.000Z</time>
                <name>Trackpoint 1961</name>
            </trkpt>
            <trkpt lat="49.9284672" lon="9.803436">
                <ele>164.0</ele>
                <time>2020-08-28T10:03:17.000Z</time>
                <name>Trackpoint 1962</name>
            </trkpt>
            <trkpt lat="49.9285696" lon="9.8034112">
                <ele>164.0</ele>
                <time>2020-08-28T10:03:19.000Z</time>
                <name>Trackpoint 1963</name>
            </trkpt>
            <trkpt lat="49.9286688" lon="9.803376">
                <ele>164.0</ele>
                <time>2020-08-28T10:03:21.000Z</time>
                <name>Trackpoint 1964</name>
            </trkpt>
            <trkpt lat="49.9287648" lon="9.8033136">
                <ele>165.0</ele>
                <time>2020-08-28T10:03:23.000Z</time>
                <name>Trackpoint 1965</name>
            </trkpt>
            <trkpt lat="49.928848" lon="9.8032448">
                <ele>165.0</ele>
                <time>2020-08-28T10:03:25.000Z</time>
                <name>Trackpoint 1966</name>
            </trkpt>
            <trkpt lat="49.9289408" lon="9.8032352">
                <ele>164.0</ele>
                <time>2020-08-28T10:03:27.000Z</time>
                <name>Trackpoint 1967</name>
            </trkpt>
            <trkpt lat="49.9290176" lon="9.8032888">
                <ele>164.0</ele>
                <time>2020-08-28T10:03:29.000Z</time>
                <name>Trackpoint 1968</name>
            </trkpt>
            <trkpt lat="49.9291008" lon="9.8033752">
                <ele>164.0</ele>
                <time>2020-08-28T10:03:31.000Z</time>
                <name>Trackpoint 1969</name>
            </trkpt>
            <trkpt lat="49.9291872" lon="9.8034552">
                <ele>164.0</ele>
                <time>2020-08-28T10:03:33.000Z</time>
                <name>Trackpoint 1970</name>
            </trkpt>
            <trkpt lat="49.9292832" lon="9.803532">
                <ele>165.0</ele>
                <time>2020-08-28T10:03:35.000Z</time>
                <name>Trackpoint 1971</name>
            </trkpt>
            <trkpt lat="49.9293792" lon="9.803612">
                <ele>165.0</ele>
                <time>2020-08-28T10:03:37.000Z</time>
                <name>Trackpoint 1972</name>
            </trkpt>
            <trkpt lat="49.9294784" lon="9.803692">
                <ele>165.0</ele>
                <time>2020-08-28T10:03:39.000Z</time>
                <name>Trackpoint 1973</name>
            </trkpt>
            <trkpt lat="49.9295808" lon="9.803772">
                <ele>165.0</ele>
                <time>2020-08-28T10:03:41.000Z</time>
                <name>Trackpoint 1974</name>
            </trkpt>
            <trkpt lat="49.9296864" lon="9.8038432">
                <ele>165.0</ele>
                <time>2020-08-28T10:03:43.000Z</time>
                <name>Trackpoint 1975</name>
            </trkpt>
            <trkpt lat="49.9297984" lon="9.8039104">
                <ele>165.0</ele>
                <time>2020-08-28T10:03:45.000Z</time>
                <name>Trackpoint 1976</name>
            </trkpt>
            <trkpt lat="49.9299008" lon="9.8039704">
                <ele>165.0</ele>
                <time>2020-08-28T10:03:47.000Z</time>
                <name>Trackpoint 1977</name>
            </trkpt>
            <trkpt lat="49.9300032" lon="9.8040304">
                <ele>165.0</ele>
                <time>2020-08-28T10:03:49.000Z</time>
                <name>Trackpoint 1978</name>
            </trkpt>
            <trkpt lat="49.9301024" lon="9.8040784">
                <ele>165.0</ele>
                <time>2020-08-28T10:03:51.000Z</time>
                <name>Trackpoint 1979</name>
            </trkpt>
            <trkpt lat="49.9301952" lon="9.8041216">
                <ele>165.0</ele>
                <time>2020-08-28T10:03:53.000Z</time>
                <name>Trackpoint 1980</name>
            </trkpt>
            <trkpt lat="49.930288" lon="9.8041664">
                <ele>165.0</ele>
                <time>2020-08-28T10:03:55.000Z</time>
                <name>Trackpoint 1981</name>
            </trkpt>
            <trkpt lat="49.9303712" lon="9.804212">
                <ele>165.0</ele>
                <time>2020-08-28T10:03:57.000Z</time>
                <name>Trackpoint 1982</name>
            </trkpt>
            <trkpt lat="49.9304576" lon="9.80426">
                <ele>165.0</ele>
                <time>2020-08-28T10:03:59.000Z</time>
                <name>Trackpoint 1983</name>
            </trkpt>
            <trkpt lat="49.9305536" lon="9.804308">
                <ele>165.0</ele>
                <time>2020-08-28T10:04:01.000Z</time>
                <name>Trackpoint 1984</name>
            </trkpt>
            <trkpt lat="49.9306528" lon="9.8043536">
                <ele>165.0</ele>
                <time>2020-08-28T10:04:03.000Z</time>
                <name>Trackpoint 1985</name>
            </trkpt>
            <trkpt lat="49.9307712" lon="9.804392">
                <ele>165.0</ele>
                <time>2020-08-28T10:04:05.000Z</time>
                <name>Trackpoint 1986</name>
            </trkpt>
            <trkpt lat="49.9308864" lon="9.8044392">
                <ele>165.0</ele>
                <time>2020-08-28T10:04:07.000Z</time>
                <name>Trackpoint 1987</name>
            </trkpt>
            <trkpt lat="49.931008" lon="9.8044784">
                <ele>165.0</ele>
                <time>2020-08-28T10:04:09.000Z</time>
                <name>Trackpoint 1988</name>
            </trkpt>
            <trkpt lat="49.9311296" lon="9.8045152">
                <ele>165.0</ele>
                <time>2020-08-28T10:04:11.000Z</time>
                <name>Trackpoint 1989</name>
            </trkpt>
            <trkpt lat="49.931248" lon="9.8045504">
                <ele>165.0</ele>
                <time>2020-08-28T10:04:13.000Z</time>
                <name>Trackpoint 1990</name>
            </trkpt>
            <trkpt lat="49.9313632" lon="9.8045816">
                <ele>165.0</ele>
                <time>2020-08-28T10:04:15.000Z</time>
                <name>Trackpoint 1991</name>
            </trkpt>
            <trkpt lat="49.9314816" lon="9.8046112">
                <ele>165.0</ele>
                <time>2020-08-28T10:04:17.000Z</time>
                <name>Trackpoint 1992</name>
            </trkpt>
            <trkpt lat="49.9316" lon="9.8046328">
                <ele>165.0</ele>
                <time>2020-08-28T10:04:19.000Z</time>
                <name>Trackpoint 1993</name>
            </trkpt>
            <trkpt lat="49.9317184" lon="9.8046416">
                <ele>165.0</ele>
                <time>2020-08-28T10:04:21.000Z</time>
                <name>Trackpoint 1994</name>
            </trkpt>
            <trkpt lat="49.93184" lon="9.804648">
                <ele>165.0</ele>
                <time>2020-08-28T10:04:23.000Z</time>
                <name>Trackpoint 1995</name>
            </trkpt>
            <trkpt lat="49.9319584" lon="9.8046568">
                <ele>165.0</ele>
                <time>2020-08-28T10:04:25.000Z</time>
                <name>Trackpoint 1996</name>
            </trkpt>
            <trkpt lat="49.9320672" lon="9.8046568">
                <ele>165.0</ele>
                <time>2020-08-28T10:04:27.000Z</time>
                <name>Trackpoint 1997</name>
            </trkpt>
            <trkpt lat="49.9321696" lon="9.8046752">
                <ele>165.0</ele>
                <time>2020-08-28T10:04:29.000Z</time>
                <name>Trackpoint 1998</name>
            </trkpt>
            <trkpt lat="49.9322752" lon="9.8046776">
                <ele>165.0</ele>
                <time>2020-08-28T10:04:31.000Z</time>
                <name>Trackpoint 1999</name>
            </trkpt>
            <trkpt lat="49.9323808" lon="9.8046768">
                <ele>165.0</ele>
                <time>2020-08-28T10:04:33.000Z</time>
                <name>Trackpoint 2000</name>
            </trkpt>
            <trkpt lat="49.9324928" lon="9.8046704">
                <ele>165.0</ele>
                <time>2020-08-28T10:04:35.000Z</time>
                <name>Trackpoint 2001</name>
            </trkpt>
            <trkpt lat="49.9325952" lon="9.8046528">
                <ele>165.0</ele>
                <time>2020-08-28T10:04:37.000Z</time>
                <name>Trackpoint 2002</name>
            </trkpt>
            <trkpt lat="49.9326976" lon="9.8046368">
                <ele>165.0</ele>
                <time>2020-08-28T10:04:39.000Z</time>
                <name>Trackpoint 2003</name>
            </trkpt>
            <trkpt lat="49.9327936" lon="9.8046176">
                <ele>165.0</ele>
                <time>2020-08-28T10:04:40.000Z</time>
                <name>Trackpoint 2004</name>
            </trkpt>
            <trkpt lat="49.9329024" lon="9.8045816">
                <ele>166.0</ele>
                <time>2020-08-28T10:04:42.000Z</time>
                <name>Trackpoint 2005</name>
            </trkpt>
            <trkpt lat="49.9330144" lon="9.8045552">
                <ele>166.0</ele>
                <time>2020-08-28T10:04:44.000Z</time>
                <name>Trackpoint 2006</name>
            </trkpt>
            <trkpt lat="49.9331136" lon="9.8045328">
                <ele>166.0</ele>
                <time>2020-08-28T10:04:46.000Z</time>
                <name>Trackpoint 2007</name>
            </trkpt>
            <trkpt lat="49.933216" lon="9.8045168">
                <ele>166.0</ele>
                <time>2020-08-28T10:04:48.000Z</time>
                <name>Trackpoint 2008</name>
            </trkpt>
            <trkpt lat="49.9333216" lon="9.8044816">
                <ele>166.0</ele>
                <time>2020-08-28T10:04:50.000Z</time>
                <name>Trackpoint 2009</name>
            </trkpt>
            <trkpt lat="49.9334272" lon="9.804452">
                <ele>166.0</ele>
                <time>2020-08-28T10:04:52.000Z</time>
                <name>Trackpoint 2010</name>
            </trkpt>
            <trkpt lat="49.9335328" lon="9.8044264">
                <ele>167.0</ele>
                <time>2020-08-28T10:04:54.000Z</time>
                <name>Trackpoint 2011</name>
            </trkpt>
            <trkpt lat="49.9336352" lon="9.804408">
                <ele>168.0</ele>
                <time>2020-08-28T10:04:56.000Z</time>
                <name>Trackpoint 2012</name>
            </trkpt>
            <trkpt lat="49.9337344" lon="9.8043544">
                <ele>169.0</ele>
                <time>2020-08-28T10:04:58.000Z</time>
                <name>Trackpoint 2013</name>
            </trkpt>
            <trkpt lat="49.933856" lon="9.8043416">
                <ele>166.0</ele>
                <time>2020-08-28T10:05:00.000Z</time>
                <name>Trackpoint 2014</name>
            </trkpt>
            <trkpt lat="49.9339584" lon="9.8043232">
                <ele>166.0</ele>
                <time>2020-08-28T10:05:02.000Z</time>
                <name>Trackpoint 2015</name>
            </trkpt>
            <trkpt lat="49.9340672" lon="9.8043184">
                <ele>167.0</ele>
                <time>2020-08-28T10:05:04.000Z</time>
                <name>Trackpoint 2016</name>
            </trkpt>
            <trkpt lat="49.934176" lon="9.8043096">
                <ele>167.0</ele>
                <time>2020-08-28T10:05:06.000Z</time>
                <name>Trackpoint 2017</name>
            </trkpt>
            <trkpt lat="49.9342912" lon="9.8043144">
                <ele>167.0</ele>
                <time>2020-08-28T10:05:08.000Z</time>
                <name>Trackpoint 2018</name>
            </trkpt>
            <trkpt lat="49.9344032" lon="9.8043096">
                <ele>167.0</ele>
                <time>2020-08-28T10:05:10.000Z</time>
                <name>Trackpoint 2019</name>
            </trkpt>
            <trkpt lat="49.9345184" lon="9.8043048">
                <ele>167.0</ele>
                <time>2020-08-28T10:05:12.000Z</time>
                <name>Trackpoint 2020</name>
            </trkpt>
            <trkpt lat="49.9346272" lon="9.8043048">
                <ele>167.0</ele>
                <time>2020-08-28T10:05:14.000Z</time>
                <name>Trackpoint 2021</name>
            </trkpt>
            <trkpt lat="49.9347424" lon="9.804292">
                <ele>168.0</ele>
                <time>2020-08-28T10:05:16.000Z</time>
                <name>Trackpoint 2022</name>
            </trkpt>
            <trkpt lat="49.9348576" lon="9.8042584">
                <ele>168.0</ele>
                <time>2020-08-28T10:05:18.000Z</time>
                <name>Trackpoint 2023</name>
            </trkpt>
            <trkpt lat="49.9349664" lon="9.8042096">
                <ele>167.0</ele>
                <time>2020-08-28T10:05:20.000Z</time>
                <name>Trackpoint 2024</name>
            </trkpt>
            <trkpt lat="49.9350752" lon="9.8041624">
                <ele>167.0</ele>
                <time>2020-08-28T10:05:22.000Z</time>
                <name>Trackpoint 2025</name>
            </trkpt>
            <trkpt lat="49.935184" lon="9.8041232">
                <ele>167.0</ele>
                <time>2020-08-28T10:05:24.000Z</time>
                <name>Trackpoint 2026</name>
            </trkpt>
            <trkpt lat="49.9352928" lon="9.8040888">
                <ele>167.0</ele>
                <time>2020-08-28T10:05:26.000Z</time>
                <name>Trackpoint 2027</name>
            </trkpt>
            <trkpt lat="49.9354016" lon="9.8040616">
                <ele>167.0</ele>
                <time>2020-08-28T10:05:28.000Z</time>
                <name>Trackpoint 2028</name>
            </trkpt>
            <trkpt lat="49.9355136" lon="9.80404">
                <ele>167.0</ele>
                <time>2020-08-28T10:05:30.000Z</time>
                <name>Trackpoint 2029</name>
            </trkpt>
            <trkpt lat="49.9356256" lon="9.8040136">
                <ele>167.0</ele>
                <time>2020-08-28T10:05:32.000Z</time>
                <name>Trackpoint 2030</name>
            </trkpt>
            <trkpt lat="49.9357376" lon="9.804">
                <ele>167.0</ele>
                <time>2020-08-28T10:05:34.000Z</time>
                <name>Trackpoint 2031</name>
            </trkpt>
            <trkpt lat="49.9358528" lon="9.803984">
                <ele>166.0</ele>
                <time>2020-08-28T10:05:36.000Z</time>
                <name>Trackpoint 2032</name>
            </trkpt>
            <trkpt lat="49.935968" lon="9.8039512">
                <ele>166.0</ele>
                <time>2020-08-28T10:05:38.000Z</time>
                <name>Trackpoint 2033</name>
            </trkpt>
            <trkpt lat="49.93608" lon="9.803924">
                <ele>166.0</ele>
                <time>2020-08-28T10:05:40.000Z</time>
                <name>Trackpoint 2034</name>
            </trkpt>
            <trkpt lat="49.9361952" lon="9.8038728">
                <ele>166.0</ele>
                <time>2020-08-28T10:05:42.000Z</time>
                <name>Trackpoint 2035</name>
            </trkpt>
            <trkpt lat="49.9363104" lon="9.8038152">
                <ele>166.0</ele>
                <time>2020-08-28T10:05:44.000Z</time>
                <name>Trackpoint 2036</name>
            </trkpt>
            <trkpt lat="49.936416" lon="9.8037568">
                <ele>167.0</ele>
                <time>2020-08-28T10:05:46.000Z</time>
                <name>Trackpoint 2037</name>
            </trkpt>
            <trkpt lat="49.9365312" lon="9.8036984">
                <ele>167.0</ele>
                <time>2020-08-28T10:05:48.000Z</time>
                <name>Trackpoint 2038</name>
            </trkpt>
            <trkpt lat="49.9366432" lon="9.803648">
                <ele>167.0</ele>
                <time>2020-08-28T10:05:50.000Z</time>
                <name>Trackpoint 2039</name>
            </trkpt>
            <trkpt lat="49.9367584" lon="9.8036168">
                <ele>167.0</ele>
                <time>2020-08-28T10:05:52.000Z</time>
                <name>Trackpoint 2040</name>
            </trkpt>
            <trkpt lat="49.9368832" lon="9.80358">
                <ele>167.0</ele>
                <time>2020-08-28T10:05:54.000Z</time>
                <name>Trackpoint 2041</name>
            </trkpt>
            <trkpt lat="49.9370048" lon="9.8035432">
                <ele>167.0</ele>
                <time>2020-08-28T10:05:56.000Z</time>
                <name>Trackpoint 2042</name>
            </trkpt>
            <trkpt lat="49.9371296" lon="9.8035072">
                <ele>167.0</ele>
                <time>2020-08-28T10:05:58.000Z</time>
                <name>Trackpoint 2043</name>
            </trkpt>
            <trkpt lat="49.9372544" lon="9.80346">
                <ele>166.0</ele>
                <time>2020-08-28T10:06:00.000Z</time>
                <name>Trackpoint 2044</name>
            </trkpt>
            <trkpt lat="49.9373888" lon="9.8034136">
                <ele>166.0</ele>
                <time>2020-08-28T10:06:02.000Z</time>
                <name>Trackpoint 2045</name>
            </trkpt>
            <trkpt lat="49.9375264" lon="9.8033584">
                <ele>167.0</ele>
                <time>2020-08-28T10:06:04.000Z</time>
                <name>Trackpoint 2046</name>
            </trkpt>
            <trkpt lat="49.9376608" lon="9.8033016">
                <ele>167.0</ele>
                <time>2020-08-28T10:06:06.000Z</time>
                <name>Trackpoint 2047</name>
            </trkpt>
            <trkpt lat="49.9377984" lon="9.803244">
                <ele>167.0</ele>
                <time>2020-08-28T10:06:08.000Z</time>
                <name>Trackpoint 2048</name>
            </trkpt>
            <trkpt lat="49.9379296" lon="9.8031856">
                <ele>167.0</ele>
                <time>2020-08-28T10:06:10.000Z</time>
                <name>Trackpoint 2049</name>
            </trkpt>
            <trkpt lat="49.938064" lon="9.8031232">
                <ele>168.0</ele>
                <time>2020-08-28T10:06:12.000Z</time>
                <name>Trackpoint 2050</name>
            </trkpt>
            <trkpt lat="49.9381952" lon="9.8030456">
                <ele>167.0</ele>
                <time>2020-08-28T10:06:14.000Z</time>
                <name>Trackpoint 2051</name>
            </trkpt>
            <trkpt lat="49.9383136" lon="9.8029496">
                <ele>167.0</ele>
                <time>2020-08-28T10:06:16.000Z</time>
                <name>Trackpoint 2052</name>
            </trkpt>
            <trkpt lat="49.9384224" lon="9.8028336">
                <ele>167.0</ele>
                <time>2020-08-28T10:06:18.000Z</time>
                <name>Trackpoint 2053</name>
            </trkpt>
            <trkpt lat="49.9385312" lon="9.8027136">
                <ele>167.0</ele>
                <time>2020-08-28T10:06:20.000Z</time>
                <name>Trackpoint 2054</name>
            </trkpt>
            <trkpt lat="49.9386336" lon="9.8025912">
                <ele>166.0</ele>
                <time>2020-08-28T10:06:22.000Z</time>
                <name>Trackpoint 2055</name>
            </trkpt>
            <trkpt lat="49.9387296" lon="9.802468">
                <ele>166.0</ele>
                <time>2020-08-28T10:06:24.000Z</time>
                <name>Trackpoint 2056</name>
            </trkpt>
            <trkpt lat="49.9388288" lon="9.8023528">
                <ele>166.0</ele>
                <time>2020-08-28T10:06:26.000Z</time>
                <name>Trackpoint 2057</name>
            </trkpt>
            <trkpt lat="49.938928" lon="9.8022416">
                <ele>166.0</ele>
                <time>2020-08-28T10:06:28.000Z</time>
                <name>Trackpoint 2058</name>
            </trkpt>
            <trkpt lat="49.9390208" lon="9.8021288">
                <ele>165.0</ele>
                <time>2020-08-28T10:06:30.000Z</time>
                <name>Trackpoint 2059</name>
            </trkpt>
            <trkpt lat="49.9391264" lon="9.8020184">
                <ele>165.0</ele>
                <time>2020-08-28T10:06:32.000Z</time>
                <name>Trackpoint 2060</name>
            </trkpt>
            <trkpt lat="49.9392256" lon="9.8019104">
                <ele>165.0</ele>
                <time>2020-08-28T10:06:34.000Z</time>
                <name>Trackpoint 2061</name>
            </trkpt>
            <trkpt lat="49.9393248" lon="9.8017928">
                <ele>165.0</ele>
                <time>2020-08-28T10:06:36.000Z</time>
                <name>Trackpoint 2062</name>
            </trkpt>
            <trkpt lat="49.9394176" lon="9.8016784">
                <ele>164.0</ele>
                <time>2020-08-28T10:06:38.000Z</time>
                <name>Trackpoint 2063</name>
            </trkpt>
            <trkpt lat="49.9395232" lon="9.8015648">
                <ele>164.0</ele>
                <time>2020-08-28T10:06:40.000Z</time>
                <name>Trackpoint 2064</name>
            </trkpt>
            <trkpt lat="49.9396128" lon="9.801448">
                <ele>164.0</ele>
                <time>2020-08-28T10:06:42.000Z</time>
                <name>Trackpoint 2065</name>
            </trkpt>
            <trkpt lat="49.9397056" lon="9.8013336">
                <ele>164.0</ele>
                <time>2020-08-28T10:06:44.000Z</time>
                <name>Trackpoint 2066</name>
            </trkpt>
            <trkpt lat="49.9397952" lon="9.8012152">
                <ele>163.0</ele>
                <time>2020-08-28T10:06:46.000Z</time>
                <name>Trackpoint 2067</name>
            </trkpt>
            <trkpt lat="49.939888" lon="9.8010976">
                <ele>163.0</ele>
                <time>2020-08-28T10:06:48.000Z</time>
                <name>Trackpoint 2068</name>
            </trkpt>
            <trkpt lat="49.9399808" lon="9.800972">
                <ele>163.0</ele>
                <time>2020-08-28T10:06:50.000Z</time>
                <name>Trackpoint 2069</name>
            </trkpt>
            <trkpt lat="49.94008" lon="9.8008416">
                <ele>162.0</ele>
                <time>2020-08-28T10:06:52.000Z</time>
                <name>Trackpoint 2070</name>
            </trkpt>
            <trkpt lat="49.9401792" lon="9.8007032">
                <ele>161.0</ele>
                <time>2020-08-28T10:06:54.000Z</time>
                <name>Trackpoint 2071</name>
            </trkpt>
            <trkpt lat="49.940272" lon="9.80056">
                <ele>160.0</ele>
                <time>2020-08-28T10:06:56.000Z</time>
                <name>Trackpoint 2072</name>
            </trkpt>
            <trkpt lat="49.940368" lon="9.8004176">
                <ele>159.0</ele>
                <time>2020-08-28T10:06:58.000Z</time>
                <name>Trackpoint 2073</name>
            </trkpt>
            <trkpt lat="49.9404672" lon="9.8002784">
                <ele>159.0</ele>
                <time>2020-08-28T10:07:00.000Z</time>
                <name>Trackpoint 2074</name>
            </trkpt>
            <trkpt lat="49.9405504" lon="9.80012">
                <ele>159.0</ele>
                <time>2020-08-28T10:07:02.000Z</time>
                <name>Trackpoint 2075</name>
            </trkpt>
            <trkpt lat="49.9406432" lon="9.7999696">
                <ele>159.0</ele>
                <time>2020-08-28T10:07:04.000Z</time>
                <name>Trackpoint 2076</name>
            </trkpt>
            <trkpt lat="49.9407264" lon="9.7998136">
                <ele>160.0</ele>
                <time>2020-08-28T10:07:06.000Z</time>
                <name>Trackpoint 2077</name>
            </trkpt>
            <trkpt lat="49.9408096" lon="9.7996632">
                <ele>161.0</ele>
                <time>2020-08-28T10:07:08.000Z</time>
                <name>Trackpoint 2078</name>
            </trkpt>
            <trkpt lat="49.9408992" lon="9.7995232">
                <ele>160.0</ele>
                <time>2020-08-28T10:07:10.000Z</time>
                <name>Trackpoint 2079</name>
            </trkpt>
            <trkpt lat="49.9409824" lon="9.799372">
                <ele>161.0</ele>
                <time>2020-08-28T10:07:12.000Z</time>
                <name>Trackpoint 2080</name>
            </trkpt>
            <trkpt lat="49.9410624" lon="9.7992232">
                <ele>161.0</ele>
                <time>2020-08-28T10:07:14.000Z</time>
                <name>Trackpoint 2081</name>
            </trkpt>
            <trkpt lat="49.9411392" lon="9.7990648">
                <ele>161.0</ele>
                <time>2020-08-28T10:07:16.000Z</time>
                <name>Trackpoint 2082</name>
            </trkpt>
            <trkpt lat="49.9411776" lon="9.7989832">
                <ele>162.0</ele>
                <time>2020-08-28T10:07:17.000Z</time>
                <name>Trackpoint 2083</name>
            </trkpt>
            <trkpt lat="49.9412512" lon="9.7988216">
                <ele>162.0</ele>
                <time>2020-08-28T10:07:19.000Z</time>
                <name>Trackpoint 2084</name>
            </trkpt>
            <trkpt lat="49.941312" lon="9.7986568">
                <ele>162.0</ele>
                <time>2020-08-28T10:07:21.000Z</time>
                <name>Trackpoint 2085</name>
            </trkpt>
            <trkpt lat="49.9413728" lon="9.7984936">
                <ele>163.0</ele>
                <time>2020-08-28T10:07:23.000Z</time>
                <name>Trackpoint 2086</name>
            </trkpt>
            <trkpt lat="49.9414368" lon="9.7983352">
                <ele>163.0</ele>
                <time>2020-08-28T10:07:25.000Z</time>
                <name>Trackpoint 2087</name>
            </trkpt>
            <trkpt lat="49.9414976" lon="9.7981768">
                <ele>163.0</ele>
                <time>2020-08-28T10:07:27.000Z</time>
                <name>Trackpoint 2088</name>
            </trkpt>
            <trkpt lat="49.9415584" lon="9.7980232">
                <ele>163.0</ele>
                <time>2020-08-28T10:07:29.000Z</time>
                <name>Trackpoint 2089</name>
            </trkpt>
            <trkpt lat="49.9416192" lon="9.7978688">
                <ele>163.0</ele>
                <time>2020-08-28T10:07:31.000Z</time>
                <name>Trackpoint 2090</name>
            </trkpt>
            <trkpt lat="49.9416768" lon="9.7977104">
                <ele>163.0</ele>
                <time>2020-08-28T10:07:33.000Z</time>
                <name>Trackpoint 2091</name>
            </trkpt>
            <trkpt lat="49.9417376" lon="9.797552">
                <ele>163.0</ele>
                <time>2020-08-28T10:07:35.000Z</time>
                <name>Trackpoint 2092</name>
            </trkpt>
            <trkpt lat="49.9417888" lon="9.797388">
                <ele>163.0</ele>
                <time>2020-08-28T10:07:37.000Z</time>
                <name>Trackpoint 2093</name>
            </trkpt>
            <trkpt lat="49.9418368" lon="9.7972232">
                <ele>163.0</ele>
                <time>2020-08-28T10:07:39.000Z</time>
                <name>Trackpoint 2094</name>
            </trkpt>
            <trkpt lat="49.9418816" lon="9.7970536">
                <ele>163.0</ele>
                <time>2020-08-28T10:07:41.000Z</time>
                <name>Trackpoint 2095</name>
            </trkpt>
            <trkpt lat="49.9419264" lon="9.7968864">
                <ele>163.0</ele>
                <time>2020-08-28T10:07:43.000Z</time>
                <name>Trackpoint 2096</name>
            </trkpt>
            <trkpt lat="49.9419744" lon="9.7967232">
                <ele>164.0</ele>
                <time>2020-08-28T10:07:45.000Z</time>
                <name>Trackpoint 2097</name>
            </trkpt>
            <trkpt lat="49.9420256" lon="9.7965632">
                <ele>164.0</ele>
                <time>2020-08-28T10:07:47.000Z</time>
                <name>Trackpoint 2098</name>
            </trkpt>
            <trkpt lat="49.942048" lon="9.796476">
                <ele>164.0</ele>
                <time>2020-08-28T10:07:48.000Z</time>
                <name>Trackpoint 2099</name>
            </trkpt>
            <trkpt lat="49.942096" lon="9.7963048">
                <ele>163.0</ele>
                <time>2020-08-28T10:07:50.000Z</time>
                <name>Trackpoint 2100</name>
            </trkpt>
            <trkpt lat="49.9421184" lon="9.7962152">
                <ele>163.0</ele>
                <time>2020-08-28T10:07:51.000Z</time>
                <name>Trackpoint 2101</name>
            </trkpt>
            <trkpt lat="49.942144" lon="9.796128">
                <ele>163.0</ele>
                <time>2020-08-28T10:07:52.000Z</time>
                <name>Trackpoint 2102</name>
            </trkpt>
            <trkpt lat="49.9421568" lon="9.7960384">
                <ele>164.0</ele>
                <time>2020-08-28T10:07:53.000Z</time>
                <name>Trackpoint 2103</name>
            </trkpt>
            <trkpt lat="49.942176" lon="9.7959496">
                <ele>164.0</ele>
                <time>2020-08-28T10:07:54.000Z</time>
                <name>Trackpoint 2104</name>
            </trkpt>
            <trkpt lat="49.9421984" lon="9.7957832">
                <ele>165.0</ele>
                <time>2020-08-28T10:07:56.000Z</time>
                <name>Trackpoint 2105</name>
            </trkpt>
            <trkpt lat="49.9422176" lon="9.795624">
                <ele>165.0</ele>
                <time>2020-08-28T10:07:58.000Z</time>
                <name>Trackpoint 2106</name>
            </trkpt>
            <trkpt lat="49.9422464" lon="9.79546">
                <ele>164.0</ele>
                <time>2020-08-28T10:08:00.000Z</time>
                <name>Trackpoint 2107</name>
            </trkpt>
            <trkpt lat="49.9422752" lon="9.7952936">
                <ele>164.0</ele>
                <time>2020-08-28T10:08:02.000Z</time>
                <name>Trackpoint 2108</name>
            </trkpt>
            <trkpt lat="49.942304" lon="9.7951272">
                <ele>164.0</ele>
                <time>2020-08-28T10:08:04.000Z</time>
                <name>Trackpoint 2109</name>
            </trkpt>
            <trkpt lat="49.9423296" lon="9.7949584">
                <ele>164.0</ele>
                <time>2020-08-28T10:08:06.000Z</time>
                <name>Trackpoint 2110</name>
            </trkpt>
            <trkpt lat="49.942352" lon="9.7947776">
                <ele>164.0</ele>
                <time>2020-08-28T10:08:08.000Z</time>
                <name>Trackpoint 2111</name>
            </trkpt>
            <trkpt lat="49.9423872" lon="9.7946064">
                <ele>164.0</ele>
                <time>2020-08-28T10:08:10.000Z</time>
                <name>Trackpoint 2112</name>
            </trkpt>
            <trkpt lat="49.942416" lon="9.7944384">
                <ele>164.0</ele>
                <time>2020-08-28T10:08:12.000Z</time>
                <name>Trackpoint 2113</name>
            </trkpt>
            <trkpt lat="49.9424512" lon="9.7942712">
                <ele>164.0</ele>
                <time>2020-08-28T10:08:14.000Z</time>
                <name>Trackpoint 2114</name>
            </trkpt>
            <trkpt lat="49.9424864" lon="9.7941064">
                <ele>164.0</ele>
                <time>2020-08-28T10:08:16.000Z</time>
                <name>Trackpoint 2115</name>
            </trkpt>
            <trkpt lat="49.9425216" lon="9.7939368">
                <ele>164.0</ele>
                <time>2020-08-28T10:08:18.000Z</time>
                <name>Trackpoint 2116</name>
            </trkpt>
            <trkpt lat="49.9425664" lon="9.793772">
                <ele>163.0</ele>
                <time>2020-08-28T10:08:20.000Z</time>
                <name>Trackpoint 2117</name>
            </trkpt>
            <trkpt lat="49.9426016" lon="9.7936032">
                <ele>163.0</ele>
                <time>2020-08-28T10:08:22.000Z</time>
                <name>Trackpoint 2118</name>
            </trkpt>
            <trkpt lat="49.9426208" lon="9.7935136">
                <ele>163.0</ele>
                <time>2020-08-28T10:08:23.000Z</time>
                <name>Trackpoint 2119</name>
            </trkpt>
            <trkpt lat="49.9426688" lon="9.7933504">
                <ele>162.0</ele>
                <time>2020-08-28T10:08:25.000Z</time>
                <name>Trackpoint 2120</name>
            </trkpt>
            <trkpt lat="49.9427104" lon="9.7931832">
                <ele>162.0</ele>
                <time>2020-08-28T10:08:27.000Z</time>
                <name>Trackpoint 2121</name>
            </trkpt>
            <trkpt lat="49.9427616" lon="9.7930216">
                <ele>162.0</ele>
                <time>2020-08-28T10:08:29.000Z</time>
                <name>Trackpoint 2122</name>
            </trkpt>
            <trkpt lat="49.942768" lon="9.79286">
                <ele>162.0</ele>
                <time>2020-08-28T10:08:31.000Z</time>
                <name>Trackpoint 2123</name>
            </trkpt>
            <trkpt lat="49.9427104" lon="9.7927264">
                <ele>162.0</ele>
                <time>2020-08-28T10:08:33.000Z</time>
                <name>Trackpoint 2124</name>
            </trkpt>
            <trkpt lat="49.942656" lon="9.7926232">
                <ele>163.0</ele>
                <time>2020-08-28T10:08:35.000Z</time>
                <name>Trackpoint 2125</name>
            </trkpt>
            <trkpt lat="49.9426368" lon="9.7924984">
                <ele>164.0</ele>
                <time>2020-08-28T10:08:37.000Z</time>
                <name>Trackpoint 2126</name>
            </trkpt>
            <trkpt lat="49.9426496" lon="9.7923696">
                <ele>164.0</ele>
                <time>2020-08-28T10:08:39.000Z</time>
                <name>Trackpoint 2127</name>
            </trkpt>
            <trkpt lat="49.9426816" lon="9.7922384">
                <ele>164.0</ele>
                <time>2020-08-28T10:08:41.000Z</time>
                <name>Trackpoint 2128</name>
            </trkpt>
            <trkpt lat="49.94272" lon="9.7921016">
                <ele>164.0</ele>
                <time>2020-08-28T10:08:43.000Z</time>
                <name>Trackpoint 2129</name>
            </trkpt>
            <trkpt lat="49.9427552" lon="9.7919664">
                <ele>164.0</ele>
                <time>2020-08-28T10:08:45.000Z</time>
                <name>Trackpoint 2130</name>
            </trkpt>
            <trkpt lat="49.9427936" lon="9.7918232">
                <ele>164.0</ele>
                <time>2020-08-28T10:08:47.000Z</time>
                <name>Trackpoint 2131</name>
            </trkpt>
            <trkpt lat="49.9428352" lon="9.7916784">
                <ele>165.0</ele>
                <time>2020-08-28T10:08:49.000Z</time>
                <name>Trackpoint 2132</name>
            </trkpt>
            <trkpt lat="49.9428704" lon="9.7915296">
                <ele>165.0</ele>
                <time>2020-08-28T10:08:51.000Z</time>
                <name>Trackpoint 2133</name>
            </trkpt>
            <trkpt lat="49.9429184" lon="9.7913864">
                <ele>164.0</ele>
                <time>2020-08-28T10:08:53.000Z</time>
                <name>Trackpoint 2134</name>
            </trkpt>
            <trkpt lat="49.9429536" lon="9.7912352">
                <ele>164.0</ele>
                <time>2020-08-28T10:08:55.000Z</time>
                <name>Trackpoint 2135</name>
            </trkpt>
            <trkpt lat="49.942992" lon="9.7910864">
                <ele>164.0</ele>
                <time>2020-08-28T10:08:57.000Z</time>
                <name>Trackpoint 2136</name>
            </trkpt>
            <trkpt lat="49.9430336" lon="9.7909384">
                <ele>164.0</ele>
                <time>2020-08-28T10:08:59.000Z</time>
                <name>Trackpoint 2137</name>
            </trkpt>
            <trkpt lat="49.943072" lon="9.7907888">
                <ele>164.0</ele>
                <time>2020-08-28T10:09:01.000Z</time>
                <name>Trackpoint 2138</name>
            </trkpt>
            <trkpt lat="49.9431104" lon="9.7906376">
                <ele>164.0</ele>
                <time>2020-08-28T10:09:03.000Z</time>
                <name>Trackpoint 2139</name>
            </trkpt>
            <trkpt lat="49.943152" lon="9.7904904">
                <ele>164.0</ele>
                <time>2020-08-28T10:09:05.000Z</time>
                <name>Trackpoint 2140</name>
            </trkpt>
            <trkpt lat="49.9431904" lon="9.7903344">
                <ele>164.0</ele>
                <time>2020-08-28T10:09:07.000Z</time>
                <name>Trackpoint 2141</name>
            </trkpt>
            <trkpt lat="49.943232" lon="9.7901824">
                <ele>165.0</ele>
                <time>2020-08-28T10:09:09.000Z</time>
                <name>Trackpoint 2142</name>
            </trkpt>
            <trkpt lat="49.9432704" lon="9.7900248">
                <ele>165.0</ele>
                <time>2020-08-28T10:09:11.000Z</time>
                <name>Trackpoint 2143</name>
            </trkpt>
            <trkpt lat="49.943312" lon="9.7898632">
                <ele>164.0</ele>
                <time>2020-08-28T10:09:13.000Z</time>
                <name>Trackpoint 2144</name>
            </trkpt>
            <trkpt lat="49.9433504" lon="9.7896992">
                <ele>165.0</ele>
                <time>2020-08-28T10:09:15.000Z</time>
                <name>Trackpoint 2145</name>
            </trkpt>
            <trkpt lat="49.9433952" lon="9.7895336">
                <ele>164.0</ele>
                <time>2020-08-28T10:09:17.000Z</time>
                <name>Trackpoint 2146</name>
            </trkpt>
            <trkpt lat="49.9434304" lon="9.7893584">
                <ele>164.0</ele>
                <time>2020-08-28T10:09:19.000Z</time>
                <name>Trackpoint 2147</name>
            </trkpt>
            <trkpt lat="49.943456" lon="9.7892712">
                <ele>164.0</ele>
                <time>2020-08-28T10:09:20.000Z</time>
                <name>Trackpoint 2148</name>
            </trkpt>
            <trkpt lat="49.9434784" lon="9.7891816">
                <ele>164.0</ele>
                <time>2020-08-28T10:09:21.000Z</time>
                <name>Trackpoint 2149</name>
            </trkpt>
            <trkpt lat="49.9435008" lon="9.789092">
                <ele>164.0</ele>
                <time>2020-08-28T10:09:22.000Z</time>
                <name>Trackpoint 2150</name>
            </trkpt>
            <trkpt lat="49.94352" lon="9.7890016">
                <ele>165.0</ele>
                <time>2020-08-28T10:09:23.000Z</time>
                <name>Trackpoint 2151</name>
            </trkpt>
            <trkpt lat="49.9435584" lon="9.7888344">
                <ele>165.0</ele>
                <time>2020-08-28T10:09:25.000Z</time>
                <name>Trackpoint 2152</name>
            </trkpt>
            <trkpt lat="49.9435936" lon="9.7886864">
                <ele>165.0</ele>
                <time>2020-08-28T10:09:27.000Z</time>
                <name>Trackpoint 2153</name>
            </trkpt>
            <trkpt lat="49.9436224" lon="9.7885416">
                <ele>165.0</ele>
                <time>2020-08-28T10:09:29.000Z</time>
                <name>Trackpoint 2154</name>
            </trkpt>
            <trkpt lat="49.943664" lon="9.7883832">
                <ele>165.0</ele>
                <time>2020-08-28T10:09:31.000Z</time>
                <name>Trackpoint 2155</name>
            </trkpt>
            <trkpt lat="49.9436992" lon="9.7882144">
                <ele>165.0</ele>
                <time>2020-08-28T10:09:33.000Z</time>
                <name>Trackpoint 2156</name>
            </trkpt>
            <trkpt lat="49.9437376" lon="9.7880536">
                <ele>166.0</ele>
                <time>2020-08-28T10:09:35.000Z</time>
                <name>Trackpoint 2157</name>
            </trkpt>
            <trkpt lat="49.943776" lon="9.7878864">
                <ele>166.0</ele>
                <time>2020-08-28T10:09:37.000Z</time>
                <name>Trackpoint 2158</name>
            </trkpt>
            <trkpt lat="49.9438144" lon="9.787712">
                <ele>166.0</ele>
                <time>2020-08-28T10:09:39.000Z</time>
                <name>Trackpoint 2159</name>
            </trkpt>
            <trkpt lat="49.9438336" lon="9.7876232">
                <ele>166.0</ele>
                <time>2020-08-28T10:09:40.000Z</time>
                <name>Trackpoint 2160</name>
            </trkpt>
            <trkpt lat="49.9438528" lon="9.787532">
                <ele>166.0</ele>
                <time>2020-08-28T10:09:41.000Z</time>
                <name>Trackpoint 2161</name>
            </trkpt>
            <trkpt lat="49.943872" lon="9.7874384">
                <ele>166.0</ele>
                <time>2020-08-28T10:09:42.000Z</time>
                <name>Trackpoint 2162</name>
            </trkpt>
            <trkpt lat="49.9438912" lon="9.7873472">
                <ele>166.0</ele>
                <time>2020-08-28T10:09:43.000Z</time>
                <name>Trackpoint 2163</name>
            </trkpt>
            <trkpt lat="49.9439136" lon="9.787256">
                <ele>166.0</ele>
                <time>2020-08-28T10:09:44.000Z</time>
                <name>Trackpoint 2164</name>
            </trkpt>
            <trkpt lat="49.9439328" lon="9.7871664">
                <ele>166.0</ele>
                <time>2020-08-28T10:09:45.000Z</time>
                <name>Trackpoint 2165</name>
            </trkpt>
            <trkpt lat="49.943952" lon="9.7870752">
                <ele>166.0</ele>
                <time>2020-08-28T10:09:46.000Z</time>
                <name>Trackpoint 2166</name>
            </trkpt>
            <trkpt lat="49.9439744" lon="9.7869856">
                <ele>166.0</ele>
                <time>2020-08-28T10:09:47.000Z</time>
                <name>Trackpoint 2167</name>
            </trkpt>
            <trkpt lat="49.9439936" lon="9.7868944">
                <ele>166.0</ele>
                <time>2020-08-28T10:09:48.000Z</time>
                <name>Trackpoint 2168</name>
            </trkpt>
            <trkpt lat="49.9440128" lon="9.7868048">
                <ele>165.0</ele>
                <time>2020-08-28T10:09:49.000Z</time>
                <name>Trackpoint 2169</name>
            </trkpt>
            <trkpt lat="49.9440352" lon="9.7867136">
                <ele>165.0</ele>
                <time>2020-08-28T10:09:50.000Z</time>
                <name>Trackpoint 2170</name>
            </trkpt>
            <trkpt lat="49.9440512" lon="9.7866184">
                <ele>165.0</ele>
                <time>2020-08-28T10:09:51.000Z</time>
                <name>Trackpoint 2171</name>
            </trkpt>
            <trkpt lat="49.9440736" lon="9.7865232">
                <ele>165.0</ele>
                <time>2020-08-28T10:09:52.000Z</time>
                <name>Trackpoint 2172</name>
            </trkpt>
            <trkpt lat="49.9440864" lon="9.7864288">
                <ele>165.0</ele>
                <time>2020-08-28T10:09:53.000Z</time>
                <name>Trackpoint 2173</name>
            </trkpt>
            <trkpt lat="49.9441024" lon="9.786332">
                <ele>165.0</ele>
                <time>2020-08-28T10:09:54.000Z</time>
                <name>Trackpoint 2174</name>
            </trkpt>
            <trkpt lat="49.9441216" lon="9.7862368">
                <ele>165.0</ele>
                <time>2020-08-28T10:09:55.000Z</time>
                <name>Trackpoint 2175</name>
            </trkpt>
            <trkpt lat="49.9441376" lon="9.7861408">
                <ele>165.0</ele>
                <time>2020-08-28T10:09:56.000Z</time>
                <name>Trackpoint 2176</name>
            </trkpt>
            <trkpt lat="49.9441568" lon="9.7860448">
                <ele>165.0</ele>
                <time>2020-08-28T10:09:57.000Z</time>
                <name>Trackpoint 2177</name>
            </trkpt>
            <trkpt lat="49.944176" lon="9.7859496">
                <ele>164.0</ele>
                <time>2020-08-28T10:09:58.000Z</time>
                <name>Trackpoint 2178</name>
            </trkpt>
            <trkpt lat="49.944192" lon="9.7858552">
                <ele>164.0</ele>
                <time>2020-08-28T10:09:59.000Z</time>
                <name>Trackpoint 2179</name>
            </trkpt>
            <trkpt lat="49.9442112" lon="9.7857616">
                <ele>164.0</ele>
                <time>2020-08-28T10:10:00.000Z</time>
                <name>Trackpoint 2180</name>
            </trkpt>
            <trkpt lat="49.9442304" lon="9.785668">
                <ele>164.0</ele>
                <time>2020-08-28T10:10:01.000Z</time>
                <name>Trackpoint 2181</name>
            </trkpt>
            <trkpt lat="49.9442432" lon="9.7855784">
                <ele>164.0</ele>
                <time>2020-08-28T10:10:02.000Z</time>
                <name>Trackpoint 2182</name>
            </trkpt>
            <trkpt lat="49.9442752" lon="9.785408">
                <ele>164.0</ele>
                <time>2020-08-28T10:10:04.000Z</time>
                <name>Trackpoint 2183</name>
            </trkpt>
            <trkpt lat="49.9443104" lon="9.78524">
                <ele>164.0</ele>
                <time>2020-08-28T10:10:06.000Z</time>
                <name>Trackpoint 2184</name>
            </trkpt>
            <trkpt lat="49.9443424" lon="9.7850616">
                <ele>163.0</ele>
                <time>2020-08-28T10:10:08.000Z</time>
                <name>Trackpoint 2185</name>
            </trkpt>
            <trkpt lat="49.9443552" lon="9.7849704">
                <ele>163.0</ele>
                <time>2020-08-28T10:10:09.000Z</time>
                <name>Trackpoint 2186</name>
            </trkpt>
            <trkpt lat="49.944368" lon="9.7848728">
                <ele>163.0</ele>
                <time>2020-08-28T10:10:10.000Z</time>
                <name>Trackpoint 2187</name>
            </trkpt>
            <trkpt lat="49.9443776" lon="9.7847728">
                <ele>163.0</ele>
                <time>2020-08-28T10:10:11.000Z</time>
                <name>Trackpoint 2188</name>
            </trkpt>
            <trkpt lat="49.9443936" lon="9.7846696">
                <ele>163.0</ele>
                <time>2020-08-28T10:10:12.000Z</time>
                <name>Trackpoint 2189</name>
            </trkpt>
            <trkpt lat="49.9444096" lon="9.7845648">
                <ele>163.0</ele>
                <time>2020-08-28T10:10:13.000Z</time>
                <name>Trackpoint 2190</name>
            </trkpt>
            <trkpt lat="49.9444288" lon="9.7844584">
                <ele>163.0</ele>
                <time>2020-08-28T10:10:14.000Z</time>
                <name>Trackpoint 2191</name>
            </trkpt>
            <trkpt lat="49.944448" lon="9.7843512">
                <ele>163.0</ele>
                <time>2020-08-28T10:10:15.000Z</time>
                <name>Trackpoint 2192</name>
            </trkpt>
            <trkpt lat="49.9444736" lon="9.7842448">
                <ele>163.0</ele>
                <time>2020-08-28T10:10:16.000Z</time>
                <name>Trackpoint 2193</name>
            </trkpt>
            <trkpt lat="49.9444992" lon="9.7841384">
                <ele>163.0</ele>
                <time>2020-08-28T10:10:17.000Z</time>
                <name>Trackpoint 2194</name>
            </trkpt>
            <trkpt lat="49.9445216" lon="9.7840336">
                <ele>163.0</ele>
                <time>2020-08-28T10:10:18.000Z</time>
                <name>Trackpoint 2195</name>
            </trkpt>
            <trkpt lat="49.9445408" lon="9.7839248">
                <ele>163.0</ele>
                <time>2020-08-28T10:10:19.000Z</time>
                <name>Trackpoint 2196</name>
            </trkpt>
            <trkpt lat="49.94456" lon="9.783816">
                <ele>163.0</ele>
                <time>2020-08-28T10:10:20.000Z</time>
                <name>Trackpoint 2197</name>
            </trkpt>
            <trkpt lat="49.9445792" lon="9.7837048">
                <ele>163.0</ele>
                <time>2020-08-28T10:10:21.000Z</time>
                <name>Trackpoint 2198</name>
            </trkpt>
            <trkpt lat="49.944592" lon="9.7835952">
                <ele>163.0</ele>
                <time>2020-08-28T10:10:22.000Z</time>
                <name>Trackpoint 2199</name>
            </trkpt>
            <trkpt lat="49.9446016" lon="9.7834856">
                <ele>163.0</ele>
                <time>2020-08-28T10:10:23.000Z</time>
                <name>Trackpoint 2200</name>
            </trkpt>
            <trkpt lat="49.9446144" lon="9.7833744">
                <ele>163.0</ele>
                <time>2020-08-28T10:10:24.000Z</time>
                <name>Trackpoint 2201</name>
            </trkpt>
            <trkpt lat="49.9446208" lon="9.7832648">
                <ele>163.0</ele>
                <time>2020-08-28T10:10:25.000Z</time>
                <name>Trackpoint 2202</name>
            </trkpt>
            <trkpt lat="49.9446336" lon="9.7831584">
                <ele>164.0</ele>
                <time>2020-08-28T10:10:26.000Z</time>
                <name>Trackpoint 2203</name>
            </trkpt>
            <trkpt lat="49.9446464" lon="9.7830536">
                <ele>164.0</ele>
                <time>2020-08-28T10:10:27.000Z</time>
                <name>Trackpoint 2204</name>
            </trkpt>
            <trkpt lat="49.9446592" lon="9.7829552">
                <ele>163.0</ele>
                <time>2020-08-28T10:10:28.000Z</time>
                <name>Trackpoint 2205</name>
            </trkpt>
            <trkpt lat="49.9446816" lon="9.7828552">
                <ele>163.0</ele>
                <time>2020-08-28T10:10:29.000Z</time>
                <name>Trackpoint 2206</name>
            </trkpt>
            <trkpt lat="49.9446944" lon="9.7827528">
                <ele>163.0</ele>
                <time>2020-08-28T10:10:30.000Z</time>
                <name>Trackpoint 2207</name>
            </trkpt>
            <trkpt lat="49.9447104" lon="9.7826568">
                <ele>163.0</ele>
                <time>2020-08-28T10:10:31.000Z</time>
                <name>Trackpoint 2208</name>
            </trkpt>
            <trkpt lat="49.9447328" lon="9.7825584">
                <ele>163.0</ele>
                <time>2020-08-28T10:10:32.000Z</time>
                <name>Trackpoint 2209</name>
            </trkpt>
            <trkpt lat="49.944752" lon="9.7824624">
                <ele>163.0</ele>
                <time>2020-08-28T10:10:33.000Z</time>
                <name>Trackpoint 2210</name>
            </trkpt>
            <trkpt lat="49.9447712" lon="9.7823632">
                <ele>163.0</ele>
                <time>2020-08-28T10:10:34.000Z</time>
                <name>Trackpoint 2211</name>
            </trkpt>
            <trkpt lat="49.9447904" lon="9.782264">
                <ele>163.0</ele>
                <time>2020-08-28T10:10:35.000Z</time>
                <name>Trackpoint 2212</name>
            </trkpt>
            <trkpt lat="49.9448128" lon="9.7821704">
                <ele>163.0</ele>
                <time>2020-08-28T10:10:36.000Z</time>
                <name>Trackpoint 2213</name>
            </trkpt>
            <trkpt lat="49.944832" lon="9.78208">
                <ele>163.0</ele>
                <time>2020-08-28T10:10:37.000Z</time>
                <name>Trackpoint 2214</name>
            </trkpt>
            <trkpt lat="49.9448704" lon="9.7819072">
                <ele>163.0</ele>
                <time>2020-08-28T10:10:39.000Z</time>
                <name>Trackpoint 2215</name>
            </trkpt>
            <trkpt lat="49.944896" lon="9.7817088">
                <ele>164.0</ele>
                <time>2020-08-28T10:10:41.000Z</time>
                <name>Trackpoint 2216</name>
            </trkpt>
            <trkpt lat="49.9449184" lon="9.78162">
                <ele>164.0</ele>
                <time>2020-08-28T10:10:42.000Z</time>
                <name>Trackpoint 2217</name>
            </trkpt>
            <trkpt lat="49.9449376" lon="9.7815112">
                <ele>164.0</ele>
                <time>2020-08-28T10:10:43.000Z</time>
                <name>Trackpoint 2218</name>
            </trkpt>
            <trkpt lat="49.94496" lon="9.781412">
                <ele>164.0</ele>
                <time>2020-08-28T10:10:44.000Z</time>
                <name>Trackpoint 2219</name>
            </trkpt>
            <trkpt lat="49.9449792" lon="9.7813128">
                <ele>164.0</ele>
                <time>2020-08-28T10:10:45.000Z</time>
                <name>Trackpoint 2220</name>
            </trkpt>
            <trkpt lat="49.9450048" lon="9.7812168">
                <ele>163.0</ele>
                <time>2020-08-28T10:10:46.000Z</time>
                <name>Trackpoint 2221</name>
            </trkpt>
            <trkpt lat="49.945024" lon="9.7811144">
                <ele>163.0</ele>
                <time>2020-08-28T10:10:47.000Z</time>
                <name>Trackpoint 2222</name>
            </trkpt>
            <trkpt lat="49.9450432" lon="9.7810184">
                <ele>163.0</ele>
                <time>2020-08-28T10:10:48.000Z</time>
                <name>Trackpoint 2223</name>
            </trkpt>
            <trkpt lat="49.9450592" lon="9.7809216">
                <ele>163.0</ele>
                <time>2020-08-28T10:10:49.000Z</time>
                <name>Trackpoint 2224</name>
            </trkpt>
            <trkpt lat="49.9450784" lon="9.7808288">
                <ele>163.0</ele>
                <time>2020-08-28T10:10:50.000Z</time>
                <name>Trackpoint 2225</name>
            </trkpt>
            <trkpt lat="49.9450976" lon="9.7807312">
                <ele>164.0</ele>
                <time>2020-08-28T10:10:51.000Z</time>
                <name>Trackpoint 2226</name>
            </trkpt>
            <trkpt lat="49.9451232" lon="9.7806384">
                <ele>163.0</ele>
                <time>2020-08-28T10:10:52.000Z</time>
                <name>Trackpoint 2227</name>
            </trkpt>
            <trkpt lat="49.9451424" lon="9.7805456">
                <ele>163.0</ele>
                <time>2020-08-28T10:10:53.000Z</time>
                <name>Trackpoint 2228</name>
            </trkpt>
            <trkpt lat="49.9451584" lon="9.780452">
                <ele>163.0</ele>
                <time>2020-08-28T10:10:54.000Z</time>
                <name>Trackpoint 2229</name>
            </trkpt>
            <trkpt lat="49.945184" lon="9.7803632">
                <ele>163.0</ele>
                <time>2020-08-28T10:10:55.000Z</time>
                <name>Trackpoint 2230</name>
            </trkpt>
            <trkpt lat="49.9452064" lon="9.7802752">
                <ele>163.0</ele>
                <time>2020-08-28T10:10:56.000Z</time>
                <name>Trackpoint 2231</name>
            </trkpt>
            <trkpt lat="49.9452448" lon="9.7800968">
                <ele>163.0</ele>
                <time>2020-08-28T10:10:58.000Z</time>
                <name>Trackpoint 2232</name>
            </trkpt>
            <trkpt lat="49.945264" lon="9.7800016">
                <ele>162.0</ele>
                <time>2020-08-28T10:10:59.000Z</time>
                <name>Trackpoint 2233</name>
            </trkpt>
            <trkpt lat="49.9452832" lon="9.7799064">
                <ele>163.0</ele>
                <time>2020-08-28T10:11:00.000Z</time>
                <name>Trackpoint 2234</name>
            </trkpt>
            <trkpt lat="49.9453216" lon="9.7797296">
                <ele>162.0</ele>
                <time>2020-08-28T10:11:02.000Z</time>
                <name>Trackpoint 2235</name>
            </trkpt>
            <trkpt lat="49.9453408" lon="9.7796352">
                <ele>162.0</ele>
                <time>2020-08-28T10:11:03.000Z</time>
                <name>Trackpoint 2236</name>
            </trkpt>
            <trkpt lat="49.9453536" lon="9.7795336">
                <ele>162.0</ele>
                <time>2020-08-28T10:11:04.000Z</time>
                <name>Trackpoint 2237</name>
            </trkpt>
            <trkpt lat="49.9453728" lon="9.779444">
                <ele>162.0</ele>
                <time>2020-08-28T10:11:05.000Z</time>
                <name>Trackpoint 2238</name>
            </trkpt>
            <trkpt lat="49.9453856" lon="9.7793504">
                <ele>162.0</ele>
                <time>2020-08-28T10:11:06.000Z</time>
                <name>Trackpoint 2239</name>
            </trkpt>
            <trkpt lat="49.945408" lon="9.7792584">
                <ele>162.0</ele>
                <time>2020-08-28T10:11:07.000Z</time>
                <name>Trackpoint 2240</name>
            </trkpt>
            <trkpt lat="49.945424" lon="9.7791664">
                <ele>162.0</ele>
                <time>2020-08-28T10:11:08.000Z</time>
                <name>Trackpoint 2241</name>
            </trkpt>
            <trkpt lat="49.9454368" lon="9.779068">
                <ele>162.0</ele>
                <time>2020-08-28T10:11:09.000Z</time>
                <name>Trackpoint 2242</name>
            </trkpt>
            <trkpt lat="49.9454496" lon="9.7789568">
                <ele>162.0</ele>
                <time>2020-08-28T10:11:10.000Z</time>
                <name>Trackpoint 2243</name>
            </trkpt>
            <trkpt lat="49.9454624" lon="9.7788648">
                <ele>162.0</ele>
                <time>2020-08-28T10:11:11.000Z</time>
                <name>Trackpoint 2244</name>
            </trkpt>
            <trkpt lat="49.9454752" lon="9.7787712">
                <ele>162.0</ele>
                <time>2020-08-28T10:11:12.000Z</time>
                <name>Trackpoint 2245</name>
            </trkpt>
            <trkpt lat="49.9454912" lon="9.7786776">
                <ele>162.0</ele>
                <time>2020-08-28T10:11:13.000Z</time>
                <name>Trackpoint 2246</name>
            </trkpt>
            <trkpt lat="49.945504" lon="9.7785752">
                <ele>162.0</ele>
                <time>2020-08-28T10:11:14.000Z</time>
                <name>Trackpoint 2247</name>
            </trkpt>
            <trkpt lat="49.9455136" lon="9.7784768">
                <ele>162.0</ele>
                <time>2020-08-28T10:11:15.000Z</time>
                <name>Trackpoint 2248</name>
            </trkpt>
            <trkpt lat="49.9455296" lon="9.7783784">
                <ele>162.0</ele>
                <time>2020-08-28T10:11:16.000Z</time>
                <name>Trackpoint 2249</name>
            </trkpt>
            <trkpt lat="49.9455456" lon="9.778272">
                <ele>163.0</ele>
                <time>2020-08-28T10:11:17.000Z</time>
                <name>Trackpoint 2250</name>
            </trkpt>
            <trkpt lat="49.9455552" lon="9.7781696">
                <ele>163.0</ele>
                <time>2020-08-28T10:11:18.000Z</time>
                <name>Trackpoint 2251</name>
            </trkpt>
            <trkpt lat="49.9455712" lon="9.7780648">
                <ele>163.0</ele>
                <time>2020-08-28T10:11:19.000Z</time>
                <name>Trackpoint 2252</name>
            </trkpt>
            <trkpt lat="49.945584" lon="9.7779648">
                <ele>164.0</ele>
                <time>2020-08-28T10:11:20.000Z</time>
                <name>Trackpoint 2253</name>
            </trkpt>
            <trkpt lat="49.9455936" lon="9.7778632">
                <ele>164.0</ele>
                <time>2020-08-28T10:11:21.000Z</time>
                <name>Trackpoint 2254</name>
            </trkpt>
            <trkpt lat="49.9456096" lon="9.7777616">
                <ele>164.0</ele>
                <time>2020-08-28T10:11:22.000Z</time>
                <name>Trackpoint 2255</name>
            </trkpt>
            <trkpt lat="49.9456224" lon="9.77766">
                <ele>164.0</ele>
                <time>2020-08-28T10:11:23.000Z</time>
                <name>Trackpoint 2256</name>
            </trkpt>
            <trkpt lat="49.9456448" lon="9.7775584">
                <ele>164.0</ele>
                <time>2020-08-28T10:11:24.000Z</time>
                <name>Trackpoint 2257</name>
            </trkpt>
            <trkpt lat="49.9456544" lon="9.7774584">
                <ele>164.0</ele>
                <time>2020-08-28T10:11:25.000Z</time>
                <name>Trackpoint 2258</name>
            </trkpt>
            <trkpt lat="49.9456704" lon="9.7773584">
                <ele>164.0</ele>
                <time>2020-08-28T10:11:26.000Z</time>
                <name>Trackpoint 2259</name>
            </trkpt>
            <trkpt lat="49.9456832" lon="9.77726">
                <ele>165.0</ele>
                <time>2020-08-28T10:11:27.000Z</time>
                <name>Trackpoint 2260</name>
            </trkpt>
            <trkpt lat="49.9456928" lon="9.7771616">
                <ele>165.0</ele>
                <time>2020-08-28T10:11:28.000Z</time>
                <name>Trackpoint 2261</name>
            </trkpt>
            <trkpt lat="49.945712" lon="9.7770656">
                <ele>165.0</ele>
                <time>2020-08-28T10:11:29.000Z</time>
                <name>Trackpoint 2262</name>
            </trkpt>
            <trkpt lat="49.945728" lon="9.7769696">
                <ele>165.0</ele>
                <time>2020-08-28T10:11:30.000Z</time>
                <name>Trackpoint 2263</name>
            </trkpt>
            <trkpt lat="49.9457472" lon="9.7768744">
                <ele>164.0</ele>
                <time>2020-08-28T10:11:31.000Z</time>
                <name>Trackpoint 2264</name>
            </trkpt>
            <trkpt lat="49.9457632" lon="9.7767832">
                <ele>164.0</ele>
                <time>2020-08-28T10:11:32.000Z</time>
                <name>Trackpoint 2265</name>
            </trkpt>
            <trkpt lat="49.9457792" lon="9.7766912">
                <ele>164.0</ele>
                <time>2020-08-28T10:11:33.000Z</time>
                <name>Trackpoint 2266</name>
            </trkpt>
            <trkpt lat="49.9457888" lon="9.7766016">
                <ele>164.0</ele>
                <time>2020-08-28T10:11:34.000Z</time>
                <name>Trackpoint 2267</name>
            </trkpt>
            <trkpt lat="49.945808" lon="9.7765128">
                <ele>164.0</ele>
                <time>2020-08-28T10:11:35.000Z</time>
                <name>Trackpoint 2268</name>
            </trkpt>
            <trkpt lat="49.9458336" lon="9.7763336">
                <ele>164.0</ele>
                <time>2020-08-28T10:11:37.000Z</time>
                <name>Trackpoint 2269</name>
            </trkpt>
            <trkpt lat="49.9458592" lon="9.7761552">
                <ele>165.0</ele>
                <time>2020-08-28T10:11:39.000Z</time>
                <name>Trackpoint 2270</name>
            </trkpt>
            <trkpt lat="49.9458784" lon="9.7759816">
                <ele>165.0</ele>
                <time>2020-08-28T10:11:41.000Z</time>
                <name>Trackpoint 2271</name>
            </trkpt>
            <trkpt lat="49.9459104" lon="9.7758112">
                <ele>164.0</ele>
                <time>2020-08-28T10:11:43.000Z</time>
                <name>Trackpoint 2272</name>
            </trkpt>
            <trkpt lat="49.9459392" lon="9.7756416">
                <ele>164.0</ele>
                <time>2020-08-28T10:11:45.000Z</time>
                <name>Trackpoint 2273</name>
            </trkpt>
            <trkpt lat="49.9459584" lon="9.7754672">
                <ele>164.0</ele>
                <time>2020-08-28T10:11:47.000Z</time>
                <name>Trackpoint 2274</name>
            </trkpt>
            <trkpt lat="49.945968" lon="9.7753752">
                <ele>164.0</ele>
                <time>2020-08-28T10:11:48.000Z</time>
                <name>Trackpoint 2275</name>
            </trkpt>
            <trkpt lat="49.9459872" lon="9.7752064">
                <ele>165.0</ele>
                <time>2020-08-28T10:11:50.000Z</time>
                <name>Trackpoint 2276</name>
            </trkpt>
            <trkpt lat="49.9460096" lon="9.7750368">
                <ele>164.0</ele>
                <time>2020-08-28T10:11:52.000Z</time>
                <name>Trackpoint 2277</name>
            </trkpt>
            <trkpt lat="49.9460384" lon="9.7748736">
                <ele>165.0</ele>
                <time>2020-08-28T10:11:54.000Z</time>
                <name>Trackpoint 2278</name>
            </trkpt>
            <trkpt lat="49.9460608" lon="9.774712">
                <ele>164.0</ele>
                <time>2020-08-28T10:11:56.000Z</time>
                <name>Trackpoint 2279</name>
            </trkpt>
            <trkpt lat="49.9460864" lon="9.7745568">
                <ele>164.0</ele>
                <time>2020-08-28T10:11:58.000Z</time>
                <name>Trackpoint 2280</name>
            </trkpt>
            <trkpt lat="49.9461024" lon="9.7744112">
                <ele>164.0</ele>
                <time>2020-08-28T10:12:00.000Z</time>
                <name>Trackpoint 2281</name>
            </trkpt>
            <trkpt lat="49.946112" lon="9.7742664">
                <ele>164.0</ele>
                <time>2020-08-28T10:12:02.000Z</time>
                <name>Trackpoint 2282</name>
            </trkpt>
            <trkpt lat="49.9461216" lon="9.7741216">
                <ele>164.0</ele>
                <time>2020-08-28T10:12:04.000Z</time>
                <name>Trackpoint 2283</name>
            </trkpt>
            <trkpt lat="49.9461504" lon="9.7739736">
                <ele>165.0</ele>
                <time>2020-08-28T10:12:06.000Z</time>
                <name>Trackpoint 2284</name>
            </trkpt>
            <trkpt lat="49.9462176" lon="9.7738448">
                <ele>164.0</ele>
                <time>2020-08-28T10:12:08.000Z</time>
                <name>Trackpoint 2285</name>
            </trkpt>
            <trkpt lat="49.9462976" lon="9.7737176">
                <ele>164.0</ele>
                <time>2020-08-28T10:12:10.000Z</time>
                <name>Trackpoint 2286</name>
            </trkpt>
            <trkpt lat="49.9463776" lon="9.7735768">
                <ele>164.0</ele>
                <time>2020-08-28T10:12:12.000Z</time>
                <name>Trackpoint 2287</name>
            </trkpt>
            <trkpt lat="49.9464448" lon="9.773428">
                <ele>165.0</ele>
                <time>2020-08-28T10:12:14.000Z</time>
                <name>Trackpoint 2288</name>
            </trkpt>
            <trkpt lat="49.9465184" lon="9.7732848">
                <ele>165.0</ele>
                <time>2020-08-28T10:12:16.000Z</time>
                <name>Trackpoint 2289</name>
            </trkpt>
            <trkpt lat="49.946592" lon="9.7731368">
                <ele>165.0</ele>
                <time>2020-08-28T10:12:18.000Z</time>
                <name>Trackpoint 2290</name>
            </trkpt>
            <trkpt lat="49.946624" lon="9.7730512">
                <ele>165.0</ele>
                <time>2020-08-28T10:12:19.000Z</time>
                <name>Trackpoint 2291</name>
            </trkpt>
            <trkpt lat="49.9466784" lon="9.7728864">
                <ele>165.0</ele>
                <time>2020-08-28T10:12:21.000Z</time>
                <name>Trackpoint 2292</name>
            </trkpt>
            <trkpt lat="49.94672" lon="9.7727144">
                <ele>165.0</ele>
                <time>2020-08-28T10:12:23.000Z</time>
                <name>Trackpoint 2293</name>
            </trkpt>
            <trkpt lat="49.9467648" lon="9.7725488">
                <ele>165.0</ele>
                <time>2020-08-28T10:12:25.000Z</time>
                <name>Trackpoint 2294</name>
            </trkpt>
            <trkpt lat="49.946816" lon="9.7724016">
                <ele>165.0</ele>
                <time>2020-08-28T10:12:27.000Z</time>
                <name>Trackpoint 2295</name>
            </trkpt>
            <trkpt lat="49.9468576" lon="9.7722568">
                <ele>165.0</ele>
                <time>2020-08-28T10:12:29.000Z</time>
                <name>Trackpoint 2296</name>
            </trkpt>
            <trkpt lat="49.9469024" lon="9.7721096">
                <ele>165.0</ele>
                <time>2020-08-28T10:12:31.000Z</time>
                <name>Trackpoint 2297</name>
            </trkpt>
            <trkpt lat="49.946944" lon="9.7719672">
                <ele>165.0</ele>
                <time>2020-08-28T10:12:33.000Z</time>
                <name>Trackpoint 2298</name>
            </trkpt>
            <trkpt lat="49.9469856" lon="9.7718336">
                <ele>165.0</ele>
                <time>2020-08-28T10:12:35.000Z</time>
                <name>Trackpoint 2299</name>
            </trkpt>
            <trkpt lat="49.9470336" lon="9.7717064">
                <ele>165.0</ele>
                <time>2020-08-28T10:12:37.000Z</time>
                <name>Trackpoint 2300</name>
            </trkpt>
            <trkpt lat="49.947072" lon="9.7715664">
                <ele>164.0</ele>
                <time>2020-08-28T10:12:39.000Z</time>
                <name>Trackpoint 2301</name>
            </trkpt>
            <trkpt lat="49.947104" lon="9.771432">
                <ele>164.0</ele>
                <time>2020-08-28T10:12:41.000Z</time>
                <name>Trackpoint 2302</name>
            </trkpt>
            <trkpt lat="49.9471296" lon="9.7712936">
                <ele>164.0</ele>
                <time>2020-08-28T10:12:43.000Z</time>
                <name>Trackpoint 2303</name>
            </trkpt>
            <trkpt lat="49.947136" lon="9.7711648">
                <ele>164.0</ele>
                <time>2020-08-28T10:12:45.000Z</time>
                <name>Trackpoint 2304</name>
            </trkpt>
            <trkpt lat="49.9471392" lon="9.771044">
                <ele>164.0</ele>
                <time>2020-08-28T10:12:47.000Z</time>
                <name>Trackpoint 2305</name>
            </trkpt>
            <trkpt lat="49.947136" lon="9.7709328">
                <ele>164.0</ele>
                <time>2020-08-28T10:12:49.000Z</time>
                <name>Trackpoint 2306</name>
            </trkpt>
            <trkpt lat="49.9471328" lon="9.7708264">
                <ele>163.0</ele>
                <time>2020-08-28T10:12:51.000Z</time>
                <name>Trackpoint 2307</name>
            </trkpt>
            <trkpt lat="49.9471296" lon="9.7706984">
                <ele>163.0</ele>
                <time>2020-08-28T10:12:54.000Z</time>
                <name>Trackpoint 2308</name>
            </trkpt>
            <trkpt lat="49.9471488" lon="9.770572">
                <ele>163.0</ele>
                <time>2020-08-28T10:12:57.000Z</time>
                <name>Trackpoint 2309</name>
            </trkpt>
            <trkpt lat="49.9471712" lon="9.7704672">
                <ele>163.0</ele>
                <time>2020-08-28T10:12:59.000Z</time>
                <name>Trackpoint 2310</name>
            </trkpt>
            <trkpt lat="49.9471968" lon="9.7703664">
                <ele>163.0</ele>
                <time>2020-08-28T10:13:01.000Z</time>
                <name>Trackpoint 2311</name>
            </trkpt>
            <trkpt lat="49.9472192" lon="9.77024">
                <ele>163.0</ele>
                <time>2020-08-28T10:13:03.000Z</time>
                <name>Trackpoint 2312</name>
            </trkpt>
            <trkpt lat="49.9472352" lon="9.7701064">
                <ele>163.0</ele>
                <time>2020-08-28T10:13:05.000Z</time>
                <name>Trackpoint 2313</name>
            </trkpt>
            <trkpt lat="49.9472512" lon="9.7699784">
                <ele>163.0</ele>
                <time>2020-08-28T10:13:07.000Z</time>
                <name>Trackpoint 2314</name>
            </trkpt>
            <trkpt lat="49.947248" lon="9.76986">
                <ele>163.0</ele>
                <time>2020-08-28T10:13:09.000Z</time>
                <name>Trackpoint 2315</name>
            </trkpt>
            <trkpt lat="49.9472608" lon="9.7697584">
                <ele>163.0</ele>
                <time>2020-08-28T10:13:12.000Z</time>
                <name>Trackpoint 2316</name>
            </trkpt>
            <trkpt lat="49.9472928" lon="9.7696616">
                <ele>164.0</ele>
                <time>2020-08-28T10:13:16.000Z</time>
                <name>Trackpoint 2317</name>
            </trkpt>
            <trkpt lat="49.9473152" lon="9.7695448">
                <ele>165.0</ele>
                <time>2020-08-28T10:13:41.000Z</time>
                <name>Trackpoint 2318</name>
            </trkpt>
            <trkpt lat="49.9473728" lon="9.769412">
                <ele>165.0</ele>
                <time>2020-08-28T10:13:44.000Z</time>
                <name>Trackpoint 2319</name>
            </trkpt>
            <trkpt lat="49.9474208" lon="9.7693008">
                <ele>165.0</ele>
                <time>2020-08-28T10:13:46.000Z</time>
                <name>Trackpoint 2320</name>
            </trkpt>
            <trkpt lat="49.9474784" lon="9.7691936">
                <ele>165.0</ele>
                <time>2020-08-28T10:13:48.000Z</time>
                <name>Trackpoint 2321</name>
            </trkpt>
            <trkpt lat="49.94752" lon="9.7690632">
                <ele>165.0</ele>
                <time>2020-08-28T10:13:50.000Z</time>
                <name>Trackpoint 2322</name>
            </trkpt>
            <trkpt lat="49.9475552" lon="9.7689288">
                <ele>165.0</ele>
                <time>2020-08-28T10:13:52.000Z</time>
                <name>Trackpoint 2323</name>
            </trkpt>
            <trkpt lat="49.9476064" lon="9.7687816">
                <ele>165.0</ele>
                <time>2020-08-28T10:13:54.000Z</time>
                <name>Trackpoint 2324</name>
            </trkpt>
            <trkpt lat="49.9476704" lon="9.7686328">
                <ele>165.0</ele>
                <time>2020-08-28T10:13:56.000Z</time>
                <name>Trackpoint 2325</name>
            </trkpt>
            <trkpt lat="49.9477152" lon="9.7684672">
                <ele>165.0</ele>
                <time>2020-08-28T10:13:58.000Z</time>
                <name>Trackpoint 2326</name>
            </trkpt>
            <trkpt lat="49.9477696" lon="9.7683016">
                <ele>165.0</ele>
                <time>2020-08-28T10:14:00.000Z</time>
                <name>Trackpoint 2327</name>
            </trkpt>
            <trkpt lat="49.9478176" lon="9.7681312">
                <ele>165.0</ele>
                <time>2020-08-28T10:14:02.000Z</time>
                <name>Trackpoint 2328</name>
            </trkpt>
            <trkpt lat="49.9478656" lon="9.7679752">
                <ele>165.0</ele>
                <time>2020-08-28T10:14:04.000Z</time>
                <name>Trackpoint 2329</name>
            </trkpt>
            <trkpt lat="49.9479072" lon="9.7678368">
                <ele>165.0</ele>
                <time>2020-08-28T10:14:06.000Z</time>
                <name>Trackpoint 2330</name>
            </trkpt>
            <trkpt lat="49.9479776" lon="9.7677696">
                <ele>165.0</ele>
                <time>2020-08-28T10:14:08.000Z</time>
                <name>Trackpoint 2331</name>
            </trkpt>
            <trkpt lat="49.9480512" lon="9.767692">
                <ele>165.0</ele>
                <time>2020-08-28T10:14:10.000Z</time>
                <name>Trackpoint 2332</name>
            </trkpt>
            <trkpt lat="49.9481056" lon="9.7675664">
                <ele>165.0</ele>
                <time>2020-08-28T10:14:12.000Z</time>
                <name>Trackpoint 2333</name>
            </trkpt>
            <trkpt lat="49.9481696" lon="9.7674176">
                <ele>165.0</ele>
                <time>2020-08-28T10:14:14.000Z</time>
                <name>Trackpoint 2334</name>
            </trkpt>
            <trkpt lat="49.9482368" lon="9.7672728">
                <ele>165.0</ele>
                <time>2020-08-28T10:14:16.000Z</time>
                <name>Trackpoint 2335</name>
            </trkpt>
            <trkpt lat="49.94832" lon="9.7671248">
                <ele>165.0</ele>
                <time>2020-08-28T10:14:18.000Z</time>
                <name>Trackpoint 2336</name>
            </trkpt>
            <trkpt lat="49.9483488" lon="9.7670384">
                <ele>165.0</ele>
                <time>2020-08-28T10:14:19.000Z</time>
                <name>Trackpoint 2337</name>
            </trkpt>
            <trkpt lat="49.9484096" lon="9.76688">
                <ele>165.0</ele>
                <time>2020-08-28T10:14:21.000Z</time>
                <name>Trackpoint 2338</name>
            </trkpt>
            <trkpt lat="49.9484736" lon="9.7667216">
                <ele>165.0</ele>
                <time>2020-08-28T10:14:23.000Z</time>
                <name>Trackpoint 2339</name>
            </trkpt>
            <trkpt lat="49.948544" lon="9.766568">
                <ele>165.0</ele>
                <time>2020-08-28T10:14:25.000Z</time>
                <name>Trackpoint 2340</name>
            </trkpt>
            <trkpt lat="49.948608" lon="9.766408">
                <ele>165.0</ele>
                <time>2020-08-28T10:14:27.000Z</time>
                <name>Trackpoint 2341</name>
            </trkpt>
            <trkpt lat="49.9487008" lon="9.7662632">
                <ele>165.0</ele>
                <time>2020-08-28T10:14:29.000Z</time>
                <name>Trackpoint 2342</name>
            </trkpt>
            <trkpt lat="49.948784" lon="9.7661248">
                <ele>165.0</ele>
                <time>2020-08-28T10:14:31.000Z</time>
                <name>Trackpoint 2343</name>
            </trkpt>
            <trkpt lat="49.9488576" lon="9.7659864">
                <ele>165.0</ele>
                <time>2020-08-28T10:14:33.000Z</time>
                <name>Trackpoint 2344</name>
            </trkpt>
            <trkpt lat="49.9489216" lon="9.7658528">
                <ele>165.0</ele>
                <time>2020-08-28T10:14:35.000Z</time>
                <name>Trackpoint 2345</name>
            </trkpt>
            <trkpt lat="49.9489792" lon="9.7657384">
                <ele>165.0</ele>
                <time>2020-08-28T10:14:37.000Z</time>
                <name>Trackpoint 2346</name>
            </trkpt>
            <trkpt lat="49.9490592" lon="9.7656232">
                <ele>165.0</ele>
                <time>2020-08-28T10:14:39.000Z</time>
                <name>Trackpoint 2347</name>
            </trkpt>
            <trkpt lat="49.949136" lon="9.7655112">
                <ele>165.0</ele>
                <time>2020-08-28T10:14:41.000Z</time>
                <name>Trackpoint 2348</name>
            </trkpt>
            <trkpt lat="49.9492064" lon="9.7653912">
                <ele>165.0</ele>
                <time>2020-08-28T10:14:43.000Z</time>
                <name>Trackpoint 2349</name>
            </trkpt>
            <trkpt lat="49.9493152" lon="9.7652584">
                <ele>165.0</ele>
                <time>2020-08-28T10:14:45.000Z</time>
                <name>Trackpoint 2350</name>
            </trkpt>
            <trkpt lat="49.9494144" lon="9.7651184">
                <ele>165.0</ele>
                <time>2020-08-28T10:14:47.000Z</time>
                <name>Trackpoint 2351</name>
            </trkpt>
            <trkpt lat="49.9495264" lon="9.7649936">
                <ele>165.0</ele>
                <time>2020-08-28T10:14:49.000Z</time>
                <name>Trackpoint 2352</name>
            </trkpt>
            <trkpt lat="49.9496192" lon="9.7648624">
                <ele>165.0</ele>
                <time>2020-08-28T10:14:51.000Z</time>
                <name>Trackpoint 2353</name>
            </trkpt>
            <trkpt lat="49.949712" lon="9.7647264">
                <ele>164.0</ele>
                <time>2020-08-28T10:14:53.000Z</time>
                <name>Trackpoint 2354</name>
            </trkpt>
            <trkpt lat="49.9498016" lon="9.7645976">
                <ele>164.0</ele>
                <time>2020-08-28T10:14:55.000Z</time>
                <name>Trackpoint 2355</name>
            </trkpt>
            <trkpt lat="49.9498976" lon="9.7644656">
                <ele>164.0</ele>
                <time>2020-08-28T10:14:57.000Z</time>
                <name>Trackpoint 2356</name>
            </trkpt>
            <trkpt lat="49.949984" lon="9.7643384">
                <ele>164.0</ele>
                <time>2020-08-28T10:14:59.000Z</time>
                <name>Trackpoint 2357</name>
            </trkpt>
            <trkpt lat="49.9500736" lon="9.7642096">
                <ele>164.0</ele>
                <time>2020-08-28T10:15:01.000Z</time>
                <name>Trackpoint 2358</name>
            </trkpt>
            <trkpt lat="49.950176" lon="9.7640952">
                <ele>164.0</ele>
                <time>2020-08-28T10:15:03.000Z</time>
                <name>Trackpoint 2359</name>
            </trkpt>
            <trkpt lat="49.950288" lon="9.764">
                <ele>164.0</ele>
                <time>2020-08-28T10:15:05.000Z</time>
                <name>Trackpoint 2360</name>
            </trkpt>
            <trkpt lat="49.9503936" lon="9.7639">
                <ele>164.0</ele>
                <time>2020-08-28T10:15:07.000Z</time>
                <name>Trackpoint 2361</name>
            </trkpt>
            <trkpt lat="49.95048" lon="9.7637832">
                <ele>164.0</ele>
                <time>2020-08-28T10:15:09.000Z</time>
                <name>Trackpoint 2362</name>
            </trkpt>
            <trkpt lat="49.9505472" lon="9.7636768">
                <ele>164.0</ele>
                <time>2020-08-28T10:15:11.000Z</time>
                <name>Trackpoint 2363</name>
            </trkpt>
            <trkpt lat="49.9506272" lon="9.7635736">
                <ele>164.0</ele>
                <time>2020-08-28T10:15:13.000Z</time>
                <name>Trackpoint 2364</name>
            </trkpt>
            <trkpt lat="49.950704" lon="9.7634936">
                <ele>164.0</ele>
                <time>2020-08-28T10:15:15.000Z</time>
                <name>Trackpoint 2365</name>
            </trkpt>
            <trkpt lat="49.9507872" lon="9.7634296">
                <ele>164.0</ele>
                <time>2020-08-28T10:15:17.000Z</time>
                <name>Trackpoint 2366</name>
            </trkpt>
            <trkpt lat="49.9509056" lon="9.7635136">
                <ele>164.0</ele>
                <time>2020-08-28T10:15:20.000Z</time>
                <name>Trackpoint 2367</name>
            </trkpt>
            <trkpt lat="49.9510048" lon="9.7636272">
                <ele>164.0</ele>
                <time>2020-08-28T10:15:22.000Z</time>
                <name>Trackpoint 2368</name>
            </trkpt>
            <trkpt lat="49.951088" lon="9.7637392">
                <ele>164.0</ele>
                <time>2020-08-28T10:15:24.000Z</time>
                <name>Trackpoint 2369</name>
            </trkpt>
            <trkpt lat="49.9511648" lon="9.7637928">
                <ele>163.0</ele>
                <time>2020-08-28T10:15:26.000Z</time>
                <name>Trackpoint 2370</name>
            </trkpt>
            <trkpt lat="49.951264" lon="9.76378">
                <ele>163.0</ele>
                <time>2020-08-28T10:15:35.000Z</time>
                <name>Trackpoint 2371</name>
            </trkpt>
            <trkpt lat="49.9513792" lon="9.76378">
                <ele>163.0</ele>
                <time>2020-08-28T10:15:39.000Z</time>
                <name>Trackpoint 2372</name>
            </trkpt>
            <trkpt lat="49.9514848" lon="9.763712">
                <ele>163.0</ele>
                <time>2020-08-28T10:15:42.000Z</time>
                <name>Trackpoint 2373</name>
            </trkpt>
            <trkpt lat="49.9515488" lon="9.7636408">
                <ele>163.0</ele>
                <time>2020-08-28T10:15:44.000Z</time>
                <name>Trackpoint 2374</name>
            </trkpt>
            <trkpt lat="49.9516128" lon="9.763532">
                <ele>163.0</ele>
                <time>2020-08-28T10:15:47.000Z</time>
                <name>Trackpoint 2375</name>
            </trkpt>
            <trkpt lat="49.951632" lon="9.7634264">
                <ele>163.0</ele>
                <time>2020-08-28T10:15:49.000Z</time>
                <name>Trackpoint 2376</name>
            </trkpt>
            <trkpt lat="49.9516288" lon="9.7633264">
                <ele>163.0</ele>
                <time>2020-08-28T10:15:51.000Z</time>
                <name>Trackpoint 2377</name>
            </trkpt>
            <trkpt lat="49.9516128" lon="9.7632304">
                <ele>163.0</ele>
                <time>2020-08-28T10:15:53.000Z</time>
                <name>Trackpoint 2378</name>
            </trkpt>
            <trkpt lat="49.9516032" lon="9.7631128">
                <ele>162.0</ele>
                <time>2020-08-28T10:15:55.000Z</time>
                <name>Trackpoint 2379</name>
            </trkpt>
            <trkpt lat="49.951584" lon="9.7630032">
                <ele>163.0</ele>
                <time>2020-08-28T10:15:57.000Z</time>
                <name>Trackpoint 2380</name>
            </trkpt>
            <trkpt lat="49.9515616" lon="9.7628944">
                <ele>162.0</ele>
                <time>2020-08-28T10:15:59.000Z</time>
                <name>Trackpoint 2381</name>
            </trkpt>
            <trkpt lat="49.9515456" lon="9.7627848">
                <ele>163.0</ele>
                <time>2020-08-28T10:16:01.000Z</time>
                <name>Trackpoint 2382</name>
            </trkpt>
            <trkpt lat="49.9515712" lon="9.7626984">
                <ele>162.0</ele>
                <time>2020-08-28T10:16:03.000Z</time>
                <name>Trackpoint 2383</name>
            </trkpt>
            <trkpt lat="49.95168" lon="9.7626368">
                <ele>163.0</ele>
                <time>2020-08-28T10:16:06.000Z</time>
                <name>Trackpoint 2384</name>
            </trkpt>
            <trkpt lat="49.9517632" lon="9.7625904">
                <ele>163.0</ele>
                <time>2020-08-28T10:16:08.000Z</time>
                <name>Trackpoint 2385</name>
            </trkpt>
            <trkpt lat="49.9518496" lon="9.7625312">
                <ele>163.0</ele>
                <time>2020-08-28T10:16:10.000Z</time>
                <name>Trackpoint 2386</name>
            </trkpt>
            <trkpt lat="49.9519456" lon="9.7624848">
                <ele>163.0</ele>
                <time>2020-08-28T10:16:12.000Z</time>
                <name>Trackpoint 2387</name>
            </trkpt>
            <trkpt lat="49.9520448" lon="9.7624456">
                <ele>164.0</ele>
                <time>2020-08-28T10:16:14.000Z</time>
                <name>Trackpoint 2388</name>
            </trkpt>
            <trkpt lat="49.9521376" lon="9.7623904">
                <ele>164.0</ele>
                <time>2020-08-28T10:16:16.000Z</time>
                <name>Trackpoint 2389</name>
            </trkpt>
            <trkpt lat="49.9522336" lon="9.762328">
                <ele>164.0</ele>
                <time>2020-08-28T10:16:18.000Z</time>
                <name>Trackpoint 2390</name>
            </trkpt>
            <trkpt lat="49.952336" lon="9.7622336">
                <ele>164.0</ele>
                <time>2020-08-28T10:16:20.000Z</time>
                <name>Trackpoint 2391</name>
            </trkpt>
            <trkpt lat="49.9524352" lon="9.7621648">
                <ele>164.0</ele>
                <time>2020-08-28T10:16:22.000Z</time>
                <name>Trackpoint 2392</name>
            </trkpt>
            <trkpt lat="49.9525248" lon="9.7621024">
                <ele>163.0</ele>
                <time>2020-08-28T10:16:24.000Z</time>
                <name>Trackpoint 2393</name>
            </trkpt>
            <trkpt lat="49.9526208" lon="9.7620384">
                <ele>163.0</ele>
                <time>2020-08-28T10:16:26.000Z</time>
                <name>Trackpoint 2394</name>
            </trkpt>
            <trkpt lat="49.9527296" lon="9.7619736">
                <ele>163.0</ele>
                <time>2020-08-28T10:16:28.000Z</time>
                <name>Trackpoint 2395</name>
            </trkpt>
            <trkpt lat="49.9528512" lon="9.7619088">
                <ele>162.0</ele>
                <time>2020-08-28T10:16:30.000Z</time>
                <name>Trackpoint 2396</name>
            </trkpt>
            <trkpt lat="49.9529792" lon="9.7618288">
                <ele>162.0</ele>
                <time>2020-08-28T10:16:32.000Z</time>
                <name>Trackpoint 2397</name>
            </trkpt>
            <trkpt lat="49.9530976" lon="9.7617728">
                <ele>162.0</ele>
                <time>2020-08-28T10:16:34.000Z</time>
                <name>Trackpoint 2398</name>
            </trkpt>
            <trkpt lat="49.9532288" lon="9.7617128">
                <ele>162.0</ele>
                <time>2020-08-28T10:16:36.000Z</time>
                <name>Trackpoint 2399</name>
            </trkpt>
            <trkpt lat="49.9533344" lon="9.7616416">
                <ele>162.0</ele>
                <time>2020-08-28T10:16:38.000Z</time>
                <name>Trackpoint 2400</name>
            </trkpt>
            <trkpt lat="49.9534496" lon="9.7615768">
                <ele>162.0</ele>
                <time>2020-08-28T10:16:40.000Z</time>
                <name>Trackpoint 2401</name>
            </trkpt>
            <trkpt lat="49.9535648" lon="9.7615144">
                <ele>162.0</ele>
                <time>2020-08-28T10:16:42.000Z</time>
                <name>Trackpoint 2402</name>
            </trkpt>
            <trkpt lat="49.9536736" lon="9.7614536">
                <ele>162.0</ele>
                <time>2020-08-28T10:16:44.000Z</time>
                <name>Trackpoint 2403</name>
            </trkpt>
            <trkpt lat="49.9537824" lon="9.7613952">
                <ele>162.0</ele>
                <time>2020-08-28T10:16:46.000Z</time>
                <name>Trackpoint 2404</name>
            </trkpt>
            <trkpt lat="49.9538912" lon="9.7613352">
                <ele>161.0</ele>
                <time>2020-08-28T10:16:48.000Z</time>
                <name>Trackpoint 2405</name>
            </trkpt>
            <trkpt lat="49.9540224" lon="9.7612688">
                <ele>161.0</ele>
                <time>2020-08-28T10:16:50.000Z</time>
                <name>Trackpoint 2406</name>
            </trkpt>
            <trkpt lat="49.9541312" lon="9.7612168">
                <ele>161.0</ele>
                <time>2020-08-28T10:16:52.000Z</time>
                <name>Trackpoint 2407</name>
            </trkpt>
            <trkpt lat="49.9542592" lon="9.761164">
                <ele>161.0</ele>
                <time>2020-08-28T10:16:54.000Z</time>
                <name>Trackpoint 2408</name>
            </trkpt>
            <trkpt lat="49.9543648" lon="9.7610976">
                <ele>161.0</ele>
                <time>2020-08-28T10:16:56.000Z</time>
                <name>Trackpoint 2409</name>
            </trkpt>
            <trkpt lat="49.9544896" lon="9.7610592">
                <ele>161.0</ele>
                <time>2020-08-28T10:16:58.000Z</time>
                <name>Trackpoint 2410</name>
            </trkpt>
            <trkpt lat="49.9546016" lon="9.7610168">
                <ele>161.0</ele>
                <time>2020-08-28T10:17:00.000Z</time>
                <name>Trackpoint 2411</name>
            </trkpt>
            <trkpt lat="49.9547232" lon="9.7609728">
                <ele>161.0</ele>
                <time>2020-08-28T10:17:02.000Z</time>
                <name>Trackpoint 2412</name>
            </trkpt>
            <trkpt lat="49.9548224" lon="9.7609056">
                <ele>161.0</ele>
                <time>2020-08-28T10:17:04.000Z</time>
                <name>Trackpoint 2413</name>
            </trkpt>
            <trkpt lat="49.95496" lon="9.760828">
                <ele>161.0</ele>
                <time>2020-08-28T10:17:06.000Z</time>
                <name>Trackpoint 2414</name>
            </trkpt>
            <trkpt lat="49.955056" lon="9.7607384">
                <ele>161.0</ele>
                <time>2020-08-28T10:17:08.000Z</time>
                <name>Trackpoint 2415</name>
            </trkpt>
            <trkpt lat="49.9551584" lon="9.760676">
                <ele>161.0</ele>
                <time>2020-08-28T10:17:10.000Z</time>
                <name>Trackpoint 2416</name>
            </trkpt>
            <trkpt lat="49.9552736" lon="9.7606152">
                <ele>161.0</ele>
                <time>2020-08-28T10:17:12.000Z</time>
                <name>Trackpoint 2417</name>
            </trkpt>
            <trkpt lat="49.9553984" lon="9.7605696">
                <ele>161.0</ele>
                <time>2020-08-28T10:17:14.000Z</time>
                <name>Trackpoint 2418</name>
            </trkpt>
            <trkpt lat="49.9555104" lon="9.7605264">
                <ele>161.0</ele>
                <time>2020-08-28T10:17:16.000Z</time>
                <name>Trackpoint 2419</name>
            </trkpt>
            <trkpt lat="49.9556384" lon="9.7604904">
                <ele>161.0</ele>
                <time>2020-08-28T10:17:18.000Z</time>
                <name>Trackpoint 2420</name>
            </trkpt>
            <trkpt lat="49.9557536" lon="9.7604488">
                <ele>161.0</ele>
                <time>2020-08-28T10:17:20.000Z</time>
                <name>Trackpoint 2421</name>
            </trkpt>
            <trkpt lat="49.9558752" lon="9.7603912">
                <ele>162.0</ele>
                <time>2020-08-28T10:17:22.000Z</time>
                <name>Trackpoint 2422</name>
            </trkpt>
            <trkpt lat="49.9559872" lon="9.7603504">
                <ele>162.0</ele>
                <time>2020-08-28T10:17:24.000Z</time>
                <name>Trackpoint 2423</name>
            </trkpt>
            <trkpt lat="49.9560992" lon="9.76032">
                <ele>162.0</ele>
                <time>2020-08-28T10:17:26.000Z</time>
                <name>Trackpoint 2424</name>
            </trkpt>
            <trkpt lat="49.9562048" lon="9.760308">
                <ele>162.0</ele>
                <time>2020-08-28T10:17:28.000Z</time>
                <name>Trackpoint 2425</name>
            </trkpt>
            <trkpt lat="49.956304" lon="9.7602832">
                <ele>162.0</ele>
                <time>2020-08-28T10:17:30.000Z</time>
                <name>Trackpoint 2426</name>
            </trkpt>
            <trkpt lat="49.956416" lon="9.76028">
                <ele>162.0</ele>
                <time>2020-08-28T10:17:32.000Z</time>
                <name>Trackpoint 2427</name>
            </trkpt>
            <trkpt lat="49.9565312" lon="9.7602768">
                <ele>161.0</ele>
                <time>2020-08-28T10:17:34.000Z</time>
                <name>Trackpoint 2428</name>
            </trkpt>
            <trkpt lat="49.9566528" lon="9.7602768">
                <ele>161.0</ele>
                <time>2020-08-28T10:17:36.000Z</time>
                <name>Trackpoint 2429</name>
            </trkpt>
            <trkpt lat="49.9567744" lon="9.7602864">
                <ele>161.0</ele>
                <time>2020-08-28T10:17:38.000Z</time>
                <name>Trackpoint 2430</name>
            </trkpt>
            <trkpt lat="49.9568992" lon="9.760292">
                <ele>162.0</ele>
                <time>2020-08-28T10:17:40.000Z</time>
                <name>Trackpoint 2431</name>
            </trkpt>
            <trkpt lat="49.956992" lon="9.760312">
                <ele>162.0</ele>
                <time>2020-08-28T10:17:42.000Z</time>
                <name>Trackpoint 2432</name>
            </trkpt>
            <trkpt lat="49.9570976" lon="9.760328">
                <ele>162.0</ele>
                <time>2020-08-28T10:17:44.000Z</time>
                <name>Trackpoint 2433</name>
            </trkpt>
            <trkpt lat="49.9572" lon="9.7603432">
                <ele>162.0</ele>
                <time>2020-08-28T10:17:46.000Z</time>
                <name>Trackpoint 2434</name>
            </trkpt>
            <trkpt lat="49.9572992" lon="9.76036">
                <ele>162.0</ele>
                <time>2020-08-28T10:17:48.000Z</time>
                <name>Trackpoint 2435</name>
            </trkpt>
            <trkpt lat="49.9574048" lon="9.7603704">
                <ele>161.0</ele>
                <time>2020-08-28T10:17:50.000Z</time>
                <name>Trackpoint 2436</name>
            </trkpt>
            <trkpt lat="49.9575168" lon="9.7603912">
                <ele>161.0</ele>
                <time>2020-08-28T10:17:52.000Z</time>
                <name>Trackpoint 2437</name>
            </trkpt>
            <trkpt lat="49.9576352" lon="9.7604048">
                <ele>161.0</ele>
                <time>2020-08-28T10:17:54.000Z</time>
                <name>Trackpoint 2438</name>
            </trkpt>
            <trkpt lat="49.957728" lon="9.760424">
                <ele>161.0</ele>
                <time>2020-08-28T10:17:56.000Z</time>
                <name>Trackpoint 2439</name>
            </trkpt>
            <trkpt lat="49.9578272" lon="9.7604504">
                <ele>161.0</ele>
                <time>2020-08-28T10:17:58.000Z</time>
                <name>Trackpoint 2440</name>
            </trkpt>
            <trkpt lat="49.9579264" lon="9.760384">
                <ele>161.0</ele>
                <time>2020-08-28T10:18:01.000Z</time>
                <name>Trackpoint 2441</name>
            </trkpt>
            <trkpt lat="49.9579456" lon="9.7602832">
                <ele>161.0</ele>
                <time>2020-08-28T10:18:03.000Z</time>
                <name>Trackpoint 2442</name>
            </trkpt>
            <trkpt lat="49.957984" lon="9.7602016">
                <ele>162.0</ele>
                <time>2020-08-28T10:18:05.000Z</time>
                <name>Trackpoint 2443</name>
            </trkpt>
            <trkpt lat="49.9580544" lon="9.7601344">
                <ele>163.0</ele>
                <time>2020-08-28T10:18:09.000Z</time>
                <name>Trackpoint 2444</name>
            </trkpt>
            <trkpt lat="49.9581376" lon="9.7600784">
                <ele>164.0</ele>
                <time>2020-08-28T10:18:45.000Z</time>
                <name>Trackpoint 2445</name>
            </trkpt>
            <trkpt lat="49.9581408" lon="9.7599512">
                <ele>163.0</ele>
                <time>2020-08-28T10:18:49.000Z</time>
                <name>Trackpoint 2446</name>
            </trkpt>
            <trkpt lat="49.9581376" lon="9.7598416">
                <ele>163.0</ele>
                <time>2020-08-28T10:18:52.000Z</time>
                <name>Trackpoint 2447</name>
            </trkpt>
            <trkpt lat="49.9581376" lon="9.7597312">
                <ele>163.0</ele>
                <time>2020-08-28T10:18:55.000Z</time>
                <name>Trackpoint 2448</name>
            </trkpt>
            <trkpt lat="49.9581184" lon="9.759592">
                <ele>163.0</ele>
                <time>2020-08-28T10:18:58.000Z</time>
                <name>Trackpoint 2449</name>
            </trkpt>
            <trkpt lat="49.9581056" lon="9.7594904">
                <ele>163.0</ele>
                <time>2020-08-28T10:19:00.000Z</time>
                <name>Trackpoint 2450</name>
            </trkpt>
            <trkpt lat="49.9580768" lon="9.7593416">
                <ele>163.0</ele>
                <time>2020-08-28T10:19:03.000Z</time>
                <name>Trackpoint 2451</name>
            </trkpt>
            <trkpt lat="49.9580768" lon="9.7592224">
                <ele>163.0</ele>
                <time>2020-08-28T10:19:06.000Z</time>
                <name>Trackpoint 2452</name>
            </trkpt>
            <trkpt lat="49.9580736" lon="9.7591248">
                <ele>163.0</ele>
                <time>2020-08-28T10:19:10.000Z</time>
                <name>Trackpoint 2453</name>
            </trkpt>
            <trkpt lat="49.9580768" lon="9.759236">
                <ele>163.0</ele>
                <time>2020-08-28T10:19:31.000Z</time>
                <name>Trackpoint 2454</name>
            </trkpt>
            <trkpt lat="49.9580384" lon="9.7591384">
                <ele>163.0</ele>
                <time>2020-08-28T10:20:03.000Z</time>
                <name>Trackpoint 2455</name>
            </trkpt>
            <trkpt lat="49.958096" lon="9.7590488">
                <ele>164.0</ele>
                <time>2020-08-28T10:20:09.000Z</time>
                <name>Trackpoint 2456</name>
            </trkpt>
            <trkpt lat="49.9581792" lon="9.7589928">
                <ele>164.0</ele>
                <time>2020-08-28T10:20:13.000Z</time>
                <name>Trackpoint 2457</name>
            </trkpt>
            <trkpt lat="49.9582784" lon="9.7589904">
                <ele>164.0</ele>
                <time>2020-08-28T10:20:15.000Z</time>
                <name>Trackpoint 2458</name>
            </trkpt>
            <trkpt lat="49.9583744" lon="9.7589504">
                <ele>164.0</ele>
                <time>2020-08-28T10:20:19.000Z</time>
                <name>Trackpoint 2459</name>
            </trkpt>
            <trkpt lat="49.9584608" lon="9.7589184">
                <ele>164.0</ele>
                <time>2020-08-28T10:20:22.000Z</time>
                <name>Trackpoint 2460</name>
            </trkpt>
            <trkpt lat="49.9585504" lon="9.7588784">
                <ele>164.0</ele>
                <time>2020-08-28T10:20:24.000Z</time>
                <name>Trackpoint 2461</name>
            </trkpt>
            <trkpt lat="49.9586496" lon="9.7588664">
                <ele>164.0</ele>
                <time>2020-08-28T10:20:26.000Z</time>
                <name>Trackpoint 2462</name>
            </trkpt>
            <trkpt lat="49.9587392" lon="9.7588464">
                <ele>164.0</ele>
                <time>2020-08-28T10:20:28.000Z</time>
                <name>Trackpoint 2463</name>
            </trkpt>
            <trkpt lat="49.9588576" lon="9.7587944">
                <ele>164.0</ele>
                <time>2020-08-28T10:20:31.000Z</time>
                <name>Trackpoint 2464</name>
            </trkpt>
            <trkpt lat="49.9589504" lon="9.7587768">
                <ele>164.0</ele>
                <time>2020-08-28T10:20:33.000Z</time>
                <name>Trackpoint 2465</name>
            </trkpt>
            <trkpt lat="49.95904" lon="9.7587368">
                <ele>164.0</ele>
                <time>2020-08-28T10:20:36.000Z</time>
                <name>Trackpoint 2466</name>
            </trkpt>
            <trkpt lat="49.9591552" lon="9.758728">
                <ele>164.0</ele>
                <time>2020-08-28T10:20:39.000Z</time>
                <name>Trackpoint 2467</name>
            </trkpt>
            <trkpt lat="49.9592768" lon="9.7587632">
                <ele>164.0</ele>
                <time>2020-08-28T10:20:41.000Z</time>
                <name>Trackpoint 2468</name>
            </trkpt>
            <trkpt lat="49.9594016" lon="9.7588928">
                <ele>165.0</ele>
                <time>2020-08-28T10:20:43.000Z</time>
                <name>Trackpoint 2469</name>
            </trkpt>
            <trkpt lat="49.9594336" lon="9.7589952">
                <ele>165.0</ele>
                <time>2020-08-28T10:20:45.000Z</time>
                <name>Trackpoint 2470</name>
            </trkpt>
            <trkpt lat="49.9594496" lon="9.7590936">
                <ele>165.0</ele>
                <time>2020-08-28T10:20:47.000Z</time>
                <name>Trackpoint 2471</name>
            </trkpt>
            <trkpt lat="49.9594304" lon="9.7592">
                <ele>165.0</ele>
                <time>2020-08-28T10:20:49.000Z</time>
                <name>Trackpoint 2472</name>
            </trkpt>
            <trkpt lat="49.959424" lon="9.7593296">
                <ele>165.0</ele>
                <time>2020-08-28T10:20:51.000Z</time>
                <name>Trackpoint 2473</name>
            </trkpt>
            <trkpt lat="49.9594112" lon="9.759452">
                <ele>165.0</ele>
                <time>2020-08-28T10:20:53.000Z</time>
                <name>Trackpoint 2474</name>
            </trkpt>
            <trkpt lat="49.9594112" lon="9.7595784">
                <ele>165.0</ele>
                <time>2020-08-28T10:20:55.000Z</time>
                <name>Trackpoint 2475</name>
            </trkpt>
            <trkpt lat="49.9594112" lon="9.7597064">
                <ele>165.0</ele>
                <time>2020-08-28T10:20:57.000Z</time>
                <name>Trackpoint 2476</name>
            </trkpt>
            <trkpt lat="49.9594112" lon="9.7598088">
                <ele>166.0</ele>
                <time>2020-08-28T10:20:59.000Z</time>
                <name>Trackpoint 2477</name>
            </trkpt>
            <trkpt lat="49.9594208" lon="9.7599136">
                <ele>166.0</ele>
                <time>2020-08-28T10:21:01.000Z</time>
                <name>Trackpoint 2478</name>
            </trkpt>
            <trkpt lat="49.9594272" lon="9.7600168">
                <ele>166.0</ele>
                <time>2020-08-28T10:21:03.000Z</time>
                <name>Trackpoint 2479</name>
            </trkpt>
            <trkpt lat="49.9594272" lon="9.7601272">
                <ele>166.0</ele>
                <time>2020-08-28T10:21:05.000Z</time>
                <name>Trackpoint 2480</name>
            </trkpt>
            <trkpt lat="49.9594304" lon="9.7602352">
                <ele>166.0</ele>
                <time>2020-08-28T10:21:07.000Z</time>
                <name>Trackpoint 2481</name>
            </trkpt>
            <trkpt lat="49.9594336" lon="9.7603384">
                <ele>166.0</ele>
                <time>2020-08-28T10:21:09.000Z</time>
                <name>Trackpoint 2482</name>
            </trkpt>
            <trkpt lat="49.9594432" lon="9.7604376">
                <ele>166.0</ele>
                <time>2020-08-28T10:21:11.000Z</time>
                <name>Trackpoint 2483</name>
            </trkpt>
            <trkpt lat="49.9594432" lon="9.7605416">
                <ele>166.0</ele>
                <time>2020-08-28T10:21:13.000Z</time>
                <name>Trackpoint 2484</name>
            </trkpt>
            <trkpt lat="49.9594464" lon="9.760636">
                <ele>167.0</ele>
                <time>2020-08-28T10:21:15.000Z</time>
                <name>Trackpoint 2485</name>
            </trkpt>
            <trkpt lat="49.9594496" lon="9.760748">
                <ele>167.0</ele>
                <time>2020-08-28T10:21:17.000Z</time>
                <name>Trackpoint 2486</name>
            </trkpt>
            <trkpt lat="49.9594496" lon="9.7608568">
                <ele>167.0</ele>
                <time>2020-08-28T10:21:19.000Z</time>
                <name>Trackpoint 2487</name>
            </trkpt>
            <trkpt lat="49.9594464" lon="9.76096">
                <ele>167.0</ele>
                <time>2020-08-28T10:21:21.000Z</time>
                <name>Trackpoint 2488</name>
            </trkpt>
            <trkpt lat="49.9594496" lon="9.76106">
                <ele>167.0</ele>
                <time>2020-08-28T10:21:23.000Z</time>
                <name>Trackpoint 2489</name>
            </trkpt>
            <trkpt lat="49.9594528" lon="9.7611552">
                <ele>167.0</ele>
                <time>2020-08-28T10:21:25.000Z</time>
                <name>Trackpoint 2490</name>
            </trkpt>
            <trkpt lat="49.9594624" lon="9.7612616">
                <ele>168.0</ele>
                <time>2020-08-28T10:21:27.000Z</time>
                <name>Trackpoint 2491</name>
            </trkpt>
            <trkpt lat="49.9594688" lon="9.761392">
                <ele>168.0</ele>
                <time>2020-08-28T10:21:30.000Z</time>
                <name>Trackpoint 2492</name>
            </trkpt>
            <trkpt lat="49.9594624" lon="9.7614896">
                <ele>169.0</ele>
                <time>2020-08-28T10:21:49.000Z</time>
                <name>Trackpoint 2493</name>
            </trkpt>
            <trkpt lat="49.9594912" lon="9.7615832">
                <ele>169.0</ele>
                <time>2020-08-28T10:23:49.000Z</time>
                <name>Trackpoint 2494</name>
            </trkpt>
            <trkpt lat="49.9594944" lon="9.7616768">
                <ele>169.0</ele>
                <time>2020-08-28T10:23:52.000Z</time>
                <name>Trackpoint 2495</name>
            </trkpt>
            <trkpt lat="49.9594944" lon="9.7617832">
                <ele>169.0</ele>
                <time>2020-08-28T10:23:54.000Z</time>
                <name>Trackpoint 2496</name>
            </trkpt>
            <trkpt lat="49.9594944" lon="9.7619168">
                <ele>169.0</ele>
                <time>2020-08-28T10:23:56.000Z</time>
                <name>Trackpoint 2497</name>
            </trkpt>
            <trkpt lat="49.9594944" lon="9.7620584">
                <ele>169.0</ele>
                <time>2020-08-28T10:23:58.000Z</time>
                <name>Trackpoint 2498</name>
            </trkpt>
            <trkpt lat="49.959504" lon="9.7622096">
                <ele>169.0</ele>
                <time>2020-08-28T10:24:00.000Z</time>
                <name>Trackpoint 2499</name>
            </trkpt>
            <trkpt lat="49.9595072" lon="9.7623656">
                <ele>169.0</ele>
                <time>2020-08-28T10:24:02.000Z</time>
                <name>Trackpoint 2500</name>
            </trkpt>
            <trkpt lat="49.9595072" lon="9.7625312">
                <ele>169.0</ele>
                <time>2020-08-28T10:24:04.000Z</time>
                <name>Trackpoint 2501</name>
            </trkpt>
            <trkpt lat="49.9595136" lon="9.7626984">
                <ele>169.0</ele>
                <time>2020-08-28T10:24:06.000Z</time>
                <name>Trackpoint 2502</name>
            </trkpt>
            <trkpt lat="49.95952" lon="9.7628648">
                <ele>169.0</ele>
                <time>2020-08-28T10:24:08.000Z</time>
                <name>Trackpoint 2503</name>
            </trkpt>
            <trkpt lat="49.9595232" lon="9.7630384">
                <ele>169.0</ele>
                <time>2020-08-28T10:24:10.000Z</time>
                <name>Trackpoint 2504</name>
            </trkpt>
            <trkpt lat="49.9595264" lon="9.763132">
                <ele>169.0</ele>
                <time>2020-08-28T10:24:11.000Z</time>
                <name>Trackpoint 2505</name>
            </trkpt>
            <trkpt lat="49.9595296" lon="9.763224">
                <ele>169.0</ele>
                <time>2020-08-28T10:24:12.000Z</time>
                <name>Trackpoint 2506</name>
            </trkpt>
            <trkpt lat="49.9595296" lon="9.7634016">
                <ele>169.0</ele>
                <time>2020-08-28T10:24:14.000Z</time>
                <name>Trackpoint 2507</name>
            </trkpt>
            <trkpt lat="49.9595456" lon="9.7635768">
                <ele>169.0</ele>
                <time>2020-08-28T10:24:16.000Z</time>
                <name>Trackpoint 2508</name>
            </trkpt>
            <trkpt lat="49.959552" lon="9.763752">
                <ele>168.0</ele>
                <time>2020-08-28T10:24:18.000Z</time>
                <name>Trackpoint 2509</name>
            </trkpt>
            <trkpt lat="49.9595552" lon="9.7639264">
                <ele>168.0</ele>
                <time>2020-08-28T10:24:20.000Z</time>
                <name>Trackpoint 2510</name>
            </trkpt>
            <trkpt lat="49.959568" lon="9.764096">
                <ele>168.0</ele>
                <time>2020-08-28T10:24:22.000Z</time>
                <name>Trackpoint 2511</name>
            </trkpt>
            <trkpt lat="49.9595808" lon="9.7642496">
                <ele>168.0</ele>
                <time>2020-08-28T10:24:24.000Z</time>
                <name>Trackpoint 2512</name>
            </trkpt>
            <trkpt lat="49.9595872" lon="9.7644032">
                <ele>168.0</ele>
                <time>2020-08-28T10:24:26.000Z</time>
                <name>Trackpoint 2513</name>
            </trkpt>
            <trkpt lat="49.9595904" lon="9.76456">
                <ele>168.0</ele>
                <time>2020-08-28T10:24:28.000Z</time>
                <name>Trackpoint 2514</name>
            </trkpt>
            <trkpt lat="49.9595744" lon="9.7647152">
                <ele>168.0</ele>
                <time>2020-08-28T10:24:30.000Z</time>
                <name>Trackpoint 2515</name>
            </trkpt>
            <trkpt lat="49.95952" lon="9.7648688">
                <ele>168.0</ele>
                <time>2020-08-28T10:24:32.000Z</time>
                <name>Trackpoint 2516</name>
            </trkpt>
            <trkpt lat="49.9594432" lon="9.7649848">
                <ele>167.0</ele>
                <time>2020-08-28T10:24:34.000Z</time>
                <name>Trackpoint 2517</name>
            </trkpt>
            <trkpt lat="49.9593696" lon="9.7651056">
                <ele>167.0</ele>
                <time>2020-08-28T10:24:36.000Z</time>
                <name>Trackpoint 2518</name>
            </trkpt>
            <trkpt lat="49.9593024" lon="9.7651752">
                <ele>167.0</ele>
                <time>2020-08-28T10:24:38.000Z</time>
                <name>Trackpoint 2519</name>
            </trkpt>
            <trkpt lat="49.9592384" lon="9.7650984">
                <ele>166.0</ele>
                <time>2020-08-28T10:24:41.000Z</time>
                <name>Trackpoint 2520</name>
            </trkpt>
            <trkpt lat="49.9592512" lon="9.7649784">
                <ele>166.0</ele>
                <time>2020-08-28T10:24:43.000Z</time>
                <name>Trackpoint 2521</name>
            </trkpt>
            <trkpt lat="49.9592384" lon="9.7648336">
                <ele>166.0</ele>
                <time>2020-08-28T10:24:45.000Z</time>
                <name>Trackpoint 2522</name>
            </trkpt>
            <trkpt lat="49.9592256" lon="9.7646752">
                <ele>166.0</ele>
                <time>2020-08-28T10:24:47.000Z</time>
                <name>Trackpoint 2523</name>
            </trkpt>
            <trkpt lat="49.9592064" lon="9.764508">
                <ele>166.0</ele>
                <time>2020-08-28T10:24:49.000Z</time>
                <name>Trackpoint 2524</name>
            </trkpt>
            <trkpt lat="49.9591904" lon="9.7643432">
                <ele>166.0</ele>
                <time>2020-08-28T10:24:51.000Z</time>
                <name>Trackpoint 2525</name>
            </trkpt>
            <trkpt lat="49.9591744" lon="9.764172">
                <ele>166.0</ele>
                <time>2020-08-28T10:24:53.000Z</time>
                <name>Trackpoint 2526</name>
            </trkpt>
            <trkpt lat="49.9591584" lon="9.7639984">
                <ele>165.0</ele>
                <time>2020-08-28T10:24:55.000Z</time>
                <name>Trackpoint 2527</name>
            </trkpt>
            <trkpt lat="49.959136" lon="9.7638184">
                <ele>165.0</ele>
                <time>2020-08-28T10:24:57.000Z</time>
                <name>Trackpoint 2528</name>
            </trkpt>
            <trkpt lat="49.9591296" lon="9.7637264">
                <ele>165.0</ele>
                <time>2020-08-28T10:24:58.000Z</time>
                <name>Trackpoint 2529</name>
            </trkpt>
            <trkpt lat="49.9591168" lon="9.7636344">
                <ele>165.0</ele>
                <time>2020-08-28T10:24:59.000Z</time>
                <name>Trackpoint 2530</name>
            </trkpt>
            <trkpt lat="49.9591072" lon="9.7635432">
                <ele>165.0</ele>
                <time>2020-08-28T10:25:00.000Z</time>
                <name>Trackpoint 2531</name>
            </trkpt>
            <trkpt lat="49.9590976" lon="9.7634488">
                <ele>165.0</ele>
                <time>2020-08-28T10:25:01.000Z</time>
                <name>Trackpoint 2532</name>
            </trkpt>
            <trkpt lat="49.959088" lon="9.7633552">
                <ele>165.0</ele>
                <time>2020-08-28T10:25:02.000Z</time>
                <name>Trackpoint 2533</name>
            </trkpt>
            <trkpt lat="49.9590784" lon="9.763264">
                <ele>165.0</ele>
                <time>2020-08-28T10:25:03.000Z</time>
                <name>Trackpoint 2534</name>
            </trkpt>
            <trkpt lat="49.9590688" lon="9.7631728">
                <ele>165.0</ele>
                <time>2020-08-28T10:25:04.000Z</time>
                <name>Trackpoint 2535</name>
            </trkpt>
            <trkpt lat="49.9590496" lon="9.7630064">
                <ele>165.0</ele>
                <time>2020-08-28T10:25:06.000Z</time>
                <name>Trackpoint 2536</name>
            </trkpt>
            <trkpt lat="49.9590368" lon="9.7628832">
                <ele>164.0</ele>
                <time>2020-08-28T10:25:08.000Z</time>
                <name>Trackpoint 2537</name>
            </trkpt>
            <trkpt lat="49.9590336" lon="9.762776">
                <ele>164.0</ele>
                <time>2020-08-28T10:25:11.000Z</time>
                <name>Trackpoint 2538</name>
            </trkpt>
            <trkpt lat="49.95904" lon="9.76268">
                <ele>164.0</ele>
                <time>2020-08-28T10:25:17.000Z</time>
                <name>Trackpoint 2539</name>
            </trkpt>
            <trkpt lat="49.9590176" lon="9.762776">
                <ele>164.0</ele>
                <time>2020-08-28T10:25:21.000Z</time>
                <name>Trackpoint 2540</name>
            </trkpt>
            <trkpt lat="49.9591168" lon="9.7627184">
                <ele>164.0</ele>
                <time>2020-08-28T10:25:25.000Z</time>
                <name>Trackpoint 2541</name>
            </trkpt>
            <trkpt lat="49.9592096" lon="9.7626632">
                <ele>164.0</ele>
                <time>2020-08-28T10:25:28.000Z</time>
                <name>Trackpoint 2542</name>
            </trkpt>
            <trkpt lat="49.9593248" lon="9.7626384">
                <ele>164.0</ele>
                <time>2020-08-28T10:25:31.000Z</time>
                <name>Trackpoint 2543</name>
            </trkpt>
            <trkpt lat="49.9594208" lon="9.7626048">
                <ele>164.0</ele>
                <time>2020-08-28T10:25:33.000Z</time>
                <name>Trackpoint 2544</name>
            </trkpt>
            <trkpt lat="49.9595424" lon="9.7625568">
                <ele>164.0</ele>
                <time>2020-08-28T10:25:36.000Z</time>
                <name>Trackpoint 2545</name>
            </trkpt>
            <trkpt lat="49.9596544" lon="9.76252">
                <ele>164.0</ele>
                <time>2020-08-28T10:25:39.000Z</time>
                <name>Trackpoint 2546</name>
            </trkpt>
            <trkpt lat="49.9597344" lon="9.7624728">
                <ele>164.0</ele>
                <time>2020-08-28T10:25:42.000Z</time>
                <name>Trackpoint 2547</name>
            </trkpt>
            <trkpt lat="49.9598304" lon="9.7624616">
                <ele>164.0</ele>
                <time>2020-08-28T10:26:27.000Z</time>
                <name>Trackpoint 2548</name>
            </trkpt>
            <trkpt lat="49.9599232" lon="9.7624848">
                <ele>164.0</ele>
                <time>2020-08-28T10:26:30.000Z</time>
                <name>Trackpoint 2549</name>
            </trkpt>
            <trkpt lat="49.9600576" lon="9.7624776">
                <ele>164.0</ele>
                <time>2020-08-28T10:26:33.000Z</time>
                <name>Trackpoint 2550</name>
            </trkpt>
            <trkpt lat="49.9601888" lon="9.76246">
                <ele>164.0</ele>
                <time>2020-08-28T10:26:36.000Z</time>
                <name>Trackpoint 2551</name>
            </trkpt>
            <trkpt lat="49.9602848" lon="9.7624432">
                <ele>164.0</ele>
                <time>2020-08-28T10:26:38.000Z</time>
                <name>Trackpoint 2552</name>
            </trkpt>
            <trkpt lat="49.960384" lon="9.7624216">
                <ele>164.0</ele>
                <time>2020-08-28T10:26:40.000Z</time>
                <name>Trackpoint 2553</name>
            </trkpt>
            <trkpt lat="49.9605056" lon="9.7624056">
                <ele>164.0</ele>
                <time>2020-08-28T10:26:43.000Z</time>
                <name>Trackpoint 2554</name>
            </trkpt>
            <trkpt lat="49.9606336" lon="9.762392">
                <ele>164.0</ele>
                <time>2020-08-28T10:26:46.000Z</time>
                <name>Trackpoint 2555</name>
            </trkpt>
            <trkpt lat="49.9607264" lon="9.7624064">
                <ele>164.0</ele>
                <time>2020-08-28T10:26:48.000Z</time>
                <name>Trackpoint 2556</name>
            </trkpt>
            <trkpt lat="49.9608192" lon="9.7624184">
                <ele>164.0</ele>
                <time>2020-08-28T10:26:50.000Z</time>
                <name>Trackpoint 2557</name>
            </trkpt>
            <trkpt lat="49.9609152" lon="9.76242">
                <ele>164.0</ele>
                <time>2020-08-28T10:26:52.000Z</time>
                <name>Trackpoint 2558</name>
            </trkpt>
            <trkpt lat="49.9610048" lon="9.7624432">
                <ele>164.0</ele>
                <time>2020-08-28T10:26:54.000Z</time>
                <name>Trackpoint 2559</name>
            </trkpt>
            <trkpt lat="49.9611168" lon="9.762452">
                <ele>164.0</ele>
                <time>2020-08-28T10:26:57.000Z</time>
                <name>Trackpoint 2560</name>
            </trkpt>
            <trkpt lat="49.9612128" lon="9.7624304">
                <ele>164.0</ele>
                <time>2020-08-28T10:27:00.000Z</time>
                <name>Trackpoint 2561</name>
            </trkpt>
            <trkpt lat="49.9613088" lon="9.7624056">
                <ele>164.0</ele>
                <time>2020-08-28T10:27:03.000Z</time>
                <name>Trackpoint 2562</name>
            </trkpt>
            <trkpt lat="49.9613792" lon="9.7624632">
                <ele>164.0</ele>
                <time>2020-08-28T10:27:09.000Z</time>
                <name>Trackpoint 2563</name>
            </trkpt>
            <trkpt lat="49.9613888" lon="9.7625736">
                <ele>164.0</ele>
                <time>2020-08-28T10:27:13.000Z</time>
                <name>Trackpoint 2564</name>
            </trkpt>
            <trkpt lat="49.961408" lon="9.7626736">
                <ele>164.0</ele>
                <time>2020-08-28T10:27:17.000Z</time>
                <name>Trackpoint 2565</name>
            </trkpt>
            <trkpt lat="49.961408" lon="9.7627648">
                <ele>164.0</ele>
                <time>2020-08-28T10:27:20.000Z</time>
                <name>Trackpoint 2566</name>
            </trkpt>
            <trkpt lat="49.9614144" lon="9.7628816">
                <ele>164.0</ele>
                <time>2020-08-28T10:27:23.000Z</time>
                <name>Trackpoint 2567</name>
            </trkpt>
            <trkpt lat="49.9614208" lon="9.7630144">
                <ele>164.0</ele>
                <time>2020-08-28T10:27:26.000Z</time>
                <name>Trackpoint 2568</name>
            </trkpt>
            <trkpt lat="49.9614144" lon="9.7631128">
                <ele>164.0</ele>
                <time>2020-08-28T10:27:28.000Z</time>
                <name>Trackpoint 2569</name>
            </trkpt>
            <trkpt lat="49.9614016" lon="9.7632512">
                <ele>164.0</ele>
                <time>2020-08-28T10:27:31.000Z</time>
                <name>Trackpoint 2570</name>
            </trkpt>
            <trkpt lat="49.9614112" lon="9.7633448">
                <ele>164.0</ele>
                <time>2020-08-28T10:27:33.000Z</time>
                <name>Trackpoint 2571</name>
            </trkpt>
            <trkpt lat="49.9614304" lon="9.763436">
                <ele>164.0</ele>
                <time>2020-08-28T10:27:35.000Z</time>
                <name>Trackpoint 2572</name>
            </trkpt>
            <trkpt lat="49.9614592" lon="9.7635232">
                <ele>164.0</ele>
                <time>2020-08-28T10:27:37.000Z</time>
                <name>Trackpoint 2573</name>
            </trkpt>
            <trkpt lat="49.9614368" lon="9.7636408">
                <ele>164.0</ele>
                <time>2020-08-28T10:27:40.000Z</time>
                <name>Trackpoint 2574</name>
            </trkpt>
            <trkpt lat="49.9614112" lon="9.763732">
                <ele>164.0</ele>
                <time>2020-08-28T10:27:42.000Z</time>
                <name>Trackpoint 2575</name>
            </trkpt>
            <trkpt lat="49.961408" lon="9.7638328">
                <ele>164.0</ele>
                <time>2020-08-28T10:27:45.000Z</time>
                <name>Trackpoint 2576</name>
            </trkpt>
            <trkpt lat="49.9614377" lon="9.7640555">
                <ele>164.0</ele>
                <time>2020-08-28T10:28:27.000Z</time>
                <name>Trackpoint 2578</name>
            </trkpt>
            <trkpt lat="49.9614995" lon="9.7641693">
                <ele>165.0</ele>
                <time>2020-08-28T10:29:02.000Z</time>
                <name>Trackpoint 2579</name>
            </trkpt>
            <trkpt lat="49.9615675" lon="9.7642601">
                <ele>218.0</ele>
                <time>2020-08-28T10:55:26.000Z</time>
                <name>Trackpoint 2590</name>
            </trkpt>
            <trkpt lat="49.9616512" lon="9.76428">
                <ele>213.0</ele>
                <time>2020-08-28T10:55:32.000Z</time>
                <name>Trackpoint 2591</name>
            </trkpt>
            <trkpt lat="49.9617504" lon="9.76428">
                <ele>211.0</ele>
                <time>2020-08-28T10:55:38.000Z</time>
                <name>Trackpoint 2592</name>
            </trkpt>
            <trkpt lat="49.9618496" lon="9.7642432">
                <ele>210.0</ele>
                <time>2020-08-28T10:55:43.000Z</time>
                <name>Trackpoint 2593</name>
            </trkpt>
            <trkpt lat="49.9619488" lon="9.7642368">
                <ele>209.0</ele>
                <time>2020-08-28T10:55:47.000Z</time>
                <name>Trackpoint 2594</name>
            </trkpt>
            <trkpt lat="49.9620704" lon="9.7642648">
                <ele>209.0</ele>
                <time>2020-08-28T10:55:51.000Z</time>
                <name>Trackpoint 2595</name>
            </trkpt>
            <trkpt lat="49.9621856" lon="9.7642472">
                <ele>208.0</ele>
                <time>2020-08-28T10:55:55.000Z</time>
                <name>Trackpoint 2596</name>
            </trkpt>
            <trkpt lat="49.9622944" lon="9.764228">
                <ele>208.0</ele>
                <time>2020-08-28T10:55:59.000Z</time>
                <name>Trackpoint 2597</name>
            </trkpt>
            <trkpt lat="49.9624128" lon="9.7642448">
                <ele>207.0</ele>
                <time>2020-08-28T10:56:02.000Z</time>
                <name>Trackpoint 2598</name>
            </trkpt>
            <trkpt lat="49.9625152" lon="9.76426">
                <ele>207.0</ele>
                <time>2020-08-28T10:56:04.000Z</time>
                <name>Trackpoint 2599</name>
            </trkpt>
            <trkpt lat="49.9626336" lon="9.764272">
                <ele>206.0</ele>
                <time>2020-08-28T10:56:08.000Z</time>
                <name>Trackpoint 2600</name>
            </trkpt>
            <trkpt lat="49.9627264" lon="9.7642648">
                <ele>206.0</ele>
                <time>2020-08-28T10:56:12.000Z</time>
                <name>Trackpoint 2601</name>
            </trkpt>
            <trkpt lat="49.9628384" lon="9.7642496">
                <ele>205.0</ele>
                <time>2020-08-28T10:56:15.000Z</time>
                <name>Trackpoint 2602</name>
            </trkpt>
            <trkpt lat="49.962928" lon="9.7643">
                <ele>204.0</ele>
                <time>2020-08-28T10:56:19.000Z</time>
                <name>Trackpoint 2603</name>
            </trkpt>
            <trkpt lat="49.9630368" lon="9.7642936">
                <ele>204.0</ele>
                <time>2020-08-28T10:56:23.000Z</time>
                <name>Trackpoint 2604</name>
            </trkpt>
            <trkpt lat="49.9631296" lon="9.7642632">
                <ele>203.0</ele>
                <time>2020-08-28T10:56:26.000Z</time>
                <name>Trackpoint 2605</name>
            </trkpt>
            <trkpt lat="49.9632576" lon="9.7643144">
                <ele>203.0</ele>
                <time>2020-08-28T10:56:27.000Z</time>
                <name>Trackpoint 2606</name>
            </trkpt>
            <trkpt lat="49.9633568" lon="9.7643584">
                <ele>201.0</ele>
                <time>2020-08-28T10:56:31.000Z</time>
                <name>Trackpoint 2607</name>
            </trkpt>
            <trkpt lat="49.9634528" lon="9.7643616">
                <ele>199.0</ele>
                <time>2020-08-28T10:56:34.000Z</time>
                <name>Trackpoint 2608</name>
            </trkpt>
            <trkpt lat="49.9635584" lon="9.7643368">
                <ele>197.0</ele>
                <time>2020-08-28T10:56:38.000Z</time>
                <name>Trackpoint 2609</name>
            </trkpt>
            <trkpt lat="49.9636768" lon="9.764352">
                <ele>196.0</ele>
                <time>2020-08-28T10:56:41.000Z</time>
                <name>Trackpoint 2610</name>
            </trkpt>
            <trkpt lat="49.9637824" lon="9.7643584">
                <ele>194.0</ele>
                <time>2020-08-28T10:56:43.000Z</time>
                <name>Trackpoint 2611</name>
            </trkpt>
            <trkpt lat="49.9639168" lon="9.7643944">
                <ele>192.0</ele>
                <time>2020-08-28T10:56:45.000Z</time>
                <name>Trackpoint 2612</name>
            </trkpt>
            <trkpt lat="49.9640096" lon="9.7643896">
                <ele>191.0</ele>
                <time>2020-08-28T10:56:48.000Z</time>
                <name>Trackpoint 2613</name>
            </trkpt>
            <trkpt lat="49.964016" lon="9.7642536">
                <ele>188.0</ele>
                <time>2020-08-28T10:56:51.000Z</time>
                <name>Trackpoint 2614</name>
            </trkpt>
            <trkpt lat="49.9640096" lon="9.7641264">
                <ele>186.0</ele>
                <time>2020-08-28T10:56:53.000Z</time>
                <name>Trackpoint 2615</name>
            </trkpt>
            <trkpt lat="49.964" lon="9.7640088">
                <ele>185.0</ele>
                <time>2020-08-28T10:56:55.000Z</time>
                <name>Trackpoint 2616</name>
            </trkpt>
            <trkpt lat="49.9640096" lon="9.7638768">
                <ele>184.0</ele>
                <time>2020-08-28T10:56:57.000Z</time>
                <name>Trackpoint 2617</name>
            </trkpt>
            <trkpt lat="49.9640192" lon="9.7637416">
                <ele>183.0</ele>
                <time>2020-08-28T10:56:59.000Z</time>
                <name>Trackpoint 2618</name>
            </trkpt>
            <trkpt lat="49.9640192" lon="9.7635872">
                <ele>181.0</ele>
                <time>2020-08-28T10:57:01.000Z</time>
                <name>Trackpoint 2619</name>
            </trkpt>
            <trkpt lat="49.964032" lon="9.7634448">
                <ele>179.0</ele>
                <time>2020-08-28T10:57:03.000Z</time>
                <name>Trackpoint 2620</name>
            </trkpt>
            <trkpt lat="49.9640416" lon="9.7633136">
                <ele>177.0</ele>
                <time>2020-08-28T10:57:05.000Z</time>
                <name>Trackpoint 2621</name>
            </trkpt>
            <trkpt lat="49.9640576" lon="9.7632">
                <ele>176.0</ele>
                <time>2020-08-28T10:57:07.000Z</time>
                <name>Trackpoint 2622</name>
            </trkpt>
            <trkpt lat="49.964096" lon="9.7631056">
                <ele>175.0</ele>
                <time>2020-08-28T10:57:10.000Z</time>
                <name>Trackpoint 2623</name>
            </trkpt>
            <trkpt lat="49.9641984" lon="9.7631056">
                <ele>168.0</ele>
                <time>2020-08-28T10:58:56.000Z</time>
                <name>Trackpoint 2624</name>
            </trkpt>
            <trkpt lat="49.9642976" lon="9.7631064">
                <ele>166.0</ele>
                <time>2020-08-28T10:59:07.000Z</time>
                <name>Trackpoint 2625</name>
            </trkpt>
            <trkpt lat="49.9643968" lon="9.7631152">
                <ele>166.0</ele>
                <time>2020-08-28T10:59:14.000Z</time>
                <name>Trackpoint 2626</name>
            </trkpt>
            <trkpt lat="49.9644704" lon="9.7632">
                <ele>165.0</ele>
                <time>2020-08-28T10:59:17.000Z</time>
                <name>Trackpoint 2627</name>
            </trkpt>
            <trkpt lat="49.96456" lon="9.76324">
                <ele>165.0</ele>
                <time>2020-08-28T10:59:31.000Z</time>
                <name>Trackpoint 2628</name>
            </trkpt>
            <trkpt lat="49.964656" lon="9.7632568">
                <ele>165.0</ele>
                <time>2020-08-28T10:59:35.000Z</time>
                <name>Trackpoint 2629</name>
            </trkpt>
            <trkpt lat="49.9647584" lon="9.7632816">
                <ele>164.0</ele>
                <time>2020-08-28T10:59:38.000Z</time>
                <name>Trackpoint 2630</name>
            </trkpt>
            <trkpt lat="49.964864" lon="9.7633168">
                <ele>164.0</ele>
                <time>2020-08-28T10:59:41.000Z</time>
                <name>Trackpoint 2631</name>
            </trkpt>
            <trkpt lat="49.964976" lon="9.7633648">
                <ele>164.0</ele>
                <time>2020-08-28T10:59:44.000Z</time>
                <name>Trackpoint 2632</name>
            </trkpt>
            <trkpt lat="49.9650656" lon="9.7633936">
                <ele>164.0</ele>
                <time>2020-08-28T10:59:46.000Z</time>
                <name>Trackpoint 2633</name>
            </trkpt>
            <trkpt lat="49.9651552" lon="9.7634112">
                <ele>163.0</ele>
                <time>2020-08-28T11:00:03.000Z</time>
                <name>Trackpoint 2634</name>
            </trkpt>
            <trkpt lat="49.9652704" lon="9.7634552">
                <ele>163.0</ele>
                <time>2020-08-28T11:00:08.000Z</time>
                <name>Trackpoint 2635</name>
            </trkpt>
            <trkpt lat="49.9653824" lon="9.763496">
                <ele>163.0</ele>
                <time>2020-08-28T11:00:11.000Z</time>
                <name>Trackpoint 2636</name>
            </trkpt>
            <trkpt lat="49.9655008" lon="9.7635432">
                <ele>163.0</ele>
                <time>2020-08-28T11:00:14.000Z</time>
                <name>Trackpoint 2637</name>
            </trkpt>
            <trkpt lat="49.9655904" lon="9.7635784">
                <ele>163.0</ele>
                <time>2020-08-28T11:00:16.000Z</time>
                <name>Trackpoint 2638</name>
            </trkpt>
            <trkpt lat="49.965696" lon="9.763612">
                <ele>163.0</ele>
                <time>2020-08-28T11:00:18.000Z</time>
                <name>Trackpoint 2639</name>
            </trkpt>
            <trkpt lat="49.9658048" lon="9.7636432">
                <ele>163.0</ele>
                <time>2020-08-28T11:00:20.000Z</time>
                <name>Trackpoint 2640</name>
            </trkpt>
            <trkpt lat="49.9659104" lon="9.7636648">
                <ele>163.0</ele>
                <time>2020-08-28T11:00:22.000Z</time>
                <name>Trackpoint 2641</name>
            </trkpt>
            <trkpt lat="49.9660192" lon="9.7636808">
                <ele>163.0</ele>
                <time>2020-08-28T11:00:24.000Z</time>
                <name>Trackpoint 2642</name>
            </trkpt>
            <trkpt lat="49.9661248" lon="9.7636944">
                <ele>163.0</ele>
                <time>2020-08-28T11:00:26.000Z</time>
                <name>Trackpoint 2643</name>
            </trkpt>
            <trkpt lat="49.9662528" lon="9.763712">
                <ele>163.0</ele>
                <time>2020-08-28T11:00:28.000Z</time>
                <name>Trackpoint 2644</name>
            </trkpt>
            <trkpt lat="49.9663744" lon="9.7637384">
                <ele>163.0</ele>
                <time>2020-08-28T11:00:30.000Z</time>
                <name>Trackpoint 2645</name>
            </trkpt>
            <trkpt lat="49.9664832" lon="9.763748">
                <ele>163.0</ele>
                <time>2020-08-28T11:00:32.000Z</time>
                <name>Trackpoint 2646</name>
            </trkpt>
            <trkpt lat="49.9666112" lon="9.7637432">
                <ele>162.0</ele>
                <time>2020-08-28T11:00:34.000Z</time>
                <name>Trackpoint 2647</name>
            </trkpt>
            <trkpt lat="49.966752" lon="9.7637504">
                <ele>162.0</ele>
                <time>2020-08-28T11:00:36.000Z</time>
                <name>Trackpoint 2648</name>
            </trkpt>
            <trkpt lat="49.96688" lon="9.7637752">
                <ele>162.0</ele>
                <time>2020-08-28T11:00:38.000Z</time>
                <name>Trackpoint 2649</name>
            </trkpt>
            <trkpt lat="49.9669984" lon="9.7638064">
                <ele>162.0</ele>
                <time>2020-08-28T11:00:40.000Z</time>
                <name>Trackpoint 2650</name>
            </trkpt>
            <trkpt lat="49.96712" lon="9.7638456">
                <ele>162.0</ele>
                <time>2020-08-28T11:00:42.000Z</time>
                <name>Trackpoint 2651</name>
            </trkpt>
            <trkpt lat="49.9672544" lon="9.7638728">
                <ele>162.0</ele>
                <time>2020-08-28T11:00:44.000Z</time>
                <name>Trackpoint 2652</name>
            </trkpt>
            <trkpt lat="49.9673856" lon="9.7638952">
                <ele>162.0</ele>
                <time>2020-08-28T11:00:46.000Z</time>
                <name>Trackpoint 2653</name>
            </trkpt>
            <trkpt lat="49.9675104" lon="9.7639152">
                <ele>161.0</ele>
                <time>2020-08-28T11:00:48.000Z</time>
                <name>Trackpoint 2654</name>
            </trkpt>
            <trkpt lat="49.967632" lon="9.7639376">
                <ele>161.0</ele>
                <time>2020-08-28T11:00:50.000Z</time>
                <name>Trackpoint 2655</name>
            </trkpt>
            <trkpt lat="49.9677568" lon="9.7639616">
                <ele>161.0</ele>
                <time>2020-08-28T11:00:52.000Z</time>
                <name>Trackpoint 2656</name>
            </trkpt>
            <trkpt lat="49.967888" lon="9.7639848">
                <ele>160.0</ele>
                <time>2020-08-28T11:00:54.000Z</time>
                <name>Trackpoint 2657</name>
            </trkpt>
            <trkpt lat="49.9680096" lon="9.7640088">
                <ele>160.0</ele>
                <time>2020-08-28T11:00:56.000Z</time>
                <name>Trackpoint 2658</name>
            </trkpt>
            <trkpt lat="49.9681312" lon="9.7640312">
                <ele>160.0</ele>
                <time>2020-08-28T11:00:58.000Z</time>
                <name>Trackpoint 2659</name>
            </trkpt>
            <trkpt lat="49.9682624" lon="9.7640552">
                <ele>160.0</ele>
                <time>2020-08-28T11:01:00.000Z</time>
                <name>Trackpoint 2660</name>
            </trkpt>
            <trkpt lat="49.968384" lon="9.764076">
                <ele>160.0</ele>
                <time>2020-08-28T11:01:02.000Z</time>
                <name>Trackpoint 2661</name>
            </trkpt>
            <trkpt lat="49.968512" lon="9.7641">
                <ele>160.0</ele>
                <time>2020-08-28T11:01:04.000Z</time>
                <name>Trackpoint 2662</name>
            </trkpt>
            <trkpt lat="49.96864" lon="9.76412">
                <ele>160.0</ele>
                <time>2020-08-28T11:01:06.000Z</time>
                <name>Trackpoint 2663</name>
            </trkpt>
            <trkpt lat="49.9687744" lon="9.7641472">
                <ele>160.0</ele>
                <time>2020-08-28T11:01:08.000Z</time>
                <name>Trackpoint 2664</name>
            </trkpt>
            <trkpt lat="49.968896" lon="9.7641688">
                <ele>160.0</ele>
                <time>2020-08-28T11:01:10.000Z</time>
                <name>Trackpoint 2665</name>
            </trkpt>
            <trkpt lat="49.9690176" lon="9.7641824">
                <ele>160.0</ele>
                <time>2020-08-28T11:01:12.000Z</time>
                <name>Trackpoint 2666</name>
            </trkpt>
            <trkpt lat="49.9691424" lon="9.7641936">
                <ele>159.0</ele>
                <time>2020-08-28T11:01:14.000Z</time>
                <name>Trackpoint 2667</name>
            </trkpt>
            <trkpt lat="49.9692736" lon="9.7642072">
                <ele>159.0</ele>
                <time>2020-08-28T11:01:16.000Z</time>
                <name>Trackpoint 2668</name>
            </trkpt>
            <trkpt lat="49.9693952" lon="9.7642272">
                <ele>159.0</ele>
                <time>2020-08-28T11:01:18.000Z</time>
                <name>Trackpoint 2669</name>
            </trkpt>
            <trkpt lat="49.9695168" lon="9.7642384">
                <ele>159.0</ele>
                <time>2020-08-28T11:01:20.000Z</time>
                <name>Trackpoint 2670</name>
            </trkpt>
            <trkpt lat="49.969648" lon="9.7642496">
                <ele>159.0</ele>
                <time>2020-08-28T11:01:22.000Z</time>
                <name>Trackpoint 2671</name>
            </trkpt>
            <trkpt lat="49.9697568" lon="9.7642568">
                <ele>159.0</ele>
                <time>2020-08-28T11:01:24.000Z</time>
                <name>Trackpoint 2672</name>
            </trkpt>
            <trkpt lat="49.9698624" lon="9.76428">
                <ele>159.0</ele>
                <time>2020-08-28T11:01:26.000Z</time>
                <name>Trackpoint 2673</name>
            </trkpt>
            <trkpt lat="49.9699744" lon="9.7642872">
                <ele>158.0</ele>
                <time>2020-08-28T11:01:28.000Z</time>
                <name>Trackpoint 2674</name>
            </trkpt>
            <trkpt lat="49.9700896" lon="9.7643136">
                <ele>158.0</ele>
                <time>2020-08-28T11:01:30.000Z</time>
                <name>Trackpoint 2675</name>
            </trkpt>
            <trkpt lat="49.970224" lon="9.7643608">
                <ele>158.0</ele>
                <time>2020-08-28T11:01:32.000Z</time>
                <name>Trackpoint 2676</name>
            </trkpt>
            <trkpt lat="49.9703584" lon="9.7643832">
                <ele>157.0</ele>
                <time>2020-08-28T11:01:34.000Z</time>
                <name>Trackpoint 2677</name>
            </trkpt>
            <trkpt lat="49.9704832" lon="9.7644016">
                <ele>157.0</ele>
                <time>2020-08-28T11:01:36.000Z</time>
                <name>Trackpoint 2678</name>
            </trkpt>
            <trkpt lat="49.9705888" lon="9.7644232">
                <ele>157.0</ele>
                <time>2020-08-28T11:01:38.000Z</time>
                <name>Trackpoint 2679</name>
            </trkpt>
            <trkpt lat="49.970704" lon="9.7644568">
                <ele>157.0</ele>
                <time>2020-08-28T11:01:40.000Z</time>
                <name>Trackpoint 2680</name>
            </trkpt>
            <trkpt lat="49.9708256" lon="9.7644752">
                <ele>157.0</ele>
                <time>2020-08-28T11:01:42.000Z</time>
                <name>Trackpoint 2681</name>
            </trkpt>
            <trkpt lat="49.970928" lon="9.7644968">
                <ele>158.0</ele>
                <time>2020-08-28T11:01:44.000Z</time>
                <name>Trackpoint 2682</name>
            </trkpt>
            <trkpt lat="49.9710336" lon="9.76452">
                <ele>158.0</ele>
                <time>2020-08-28T11:01:46.000Z</time>
                <name>Trackpoint 2683</name>
            </trkpt>
            <trkpt lat="49.9711264" lon="9.7645728">
                <ele>158.0</ele>
                <time>2020-08-28T11:01:48.000Z</time>
                <name>Trackpoint 2684</name>
            </trkpt>
            <trkpt lat="49.9711456" lon="9.7646952">
                <ele>158.0</ele>
                <time>2020-08-28T11:01:50.000Z</time>
                <name>Trackpoint 2685</name>
            </trkpt>
            <trkpt lat="49.971152" lon="9.764856">
                <ele>158.0</ele>
                <time>2020-08-28T11:01:52.000Z</time>
                <name>Trackpoint 2686</name>
            </trkpt>
            <trkpt lat="49.9711584" lon="9.7649832">
                <ele>158.0</ele>
                <time>2020-08-28T11:01:54.000Z</time>
                <name>Trackpoint 2687</name>
            </trkpt>
            <trkpt lat="49.9711712" lon="9.765112">
                <ele>157.0</ele>
                <time>2020-08-28T11:01:56.000Z</time>
                <name>Trackpoint 2688</name>
            </trkpt>
            <trkpt lat="49.9712512" lon="9.7651856">
                <ele>159.0</ele>
                <time>2020-08-28T11:01:58.000Z</time>
                <name>Trackpoint 2689</name>
            </trkpt>
            <trkpt lat="49.9713856" lon="9.7651752">
                <ele>158.0</ele>
                <time>2020-08-28T11:02:01.000Z</time>
                <name>Trackpoint 2690</name>
            </trkpt>
            <trkpt lat="49.9714816" lon="9.7651528">
                <ele>158.0</ele>
                <time>2020-08-28T11:02:03.000Z</time>
                <name>Trackpoint 2691</name>
            </trkpt>
            <trkpt lat="49.971584" lon="9.7651368">
                <ele>158.0</ele>
                <time>2020-08-28T11:02:05.000Z</time>
                <name>Trackpoint 2692</name>
            </trkpt>
            <trkpt lat="49.971696" lon="9.7651144">
                <ele>158.0</ele>
                <time>2020-08-28T11:02:07.000Z</time>
                <name>Trackpoint 2693</name>
            </trkpt>
            <trkpt lat="49.9718016" lon="9.765092">
                <ele>158.0</ele>
                <time>2020-08-28T11:02:09.000Z</time>
                <name>Trackpoint 2694</name>
            </trkpt>
            <trkpt lat="49.9719136" lon="9.7650736">
                <ele>158.0</ele>
                <time>2020-08-28T11:02:11.000Z</time>
                <name>Trackpoint 2695</name>
            </trkpt>
            <trkpt lat="49.9720224" lon="9.7650536">
                <ele>157.0</ele>
                <time>2020-08-28T11:02:13.000Z</time>
                <name>Trackpoint 2696</name>
            </trkpt>
            <trkpt lat="49.9721344" lon="9.7650272">
                <ele>157.0</ele>
                <time>2020-08-28T11:02:15.000Z</time>
                <name>Trackpoint 2697</name>
            </trkpt>
            <trkpt lat="49.9722496" lon="9.7650072">
                <ele>158.0</ele>
                <time>2020-08-28T11:02:17.000Z</time>
                <name>Trackpoint 2698</name>
            </trkpt>
            <trkpt lat="49.9723616" lon="9.764988">
                <ele>157.0</ele>
                <time>2020-08-28T11:02:19.000Z</time>
                <name>Trackpoint 2699</name>
            </trkpt>
            <trkpt lat="49.9724768" lon="9.7649648">
                <ele>158.0</ele>
                <time>2020-08-28T11:02:21.000Z</time>
                <name>Trackpoint 2700</name>
            </trkpt>
            <trkpt lat="49.9725952" lon="9.7649432">
                <ele>157.0</ele>
                <time>2020-08-28T11:02:23.000Z</time>
                <name>Trackpoint 2701</name>
            </trkpt>
            <trkpt lat="49.9727072" lon="9.7649272">
                <ele>157.0</ele>
                <time>2020-08-28T11:02:25.000Z</time>
                <name>Trackpoint 2702</name>
            </trkpt>
            <trkpt lat="49.9728256" lon="9.7649136">
                <ele>157.0</ele>
                <time>2020-08-28T11:02:27.000Z</time>
                <name>Trackpoint 2703</name>
            </trkpt>
            <trkpt lat="49.9729344" lon="9.76492">
                <ele>158.0</ele>
                <time>2020-08-28T11:02:29.000Z</time>
                <name>Trackpoint 2704</name>
            </trkpt>
            <trkpt lat="49.9730336" lon="9.764928">
                <ele>158.0</ele>
                <time>2020-08-28T11:02:31.000Z</time>
                <name>Trackpoint 2705</name>
            </trkpt>
            <trkpt lat="49.9731456" lon="9.764948">
                <ele>158.0</ele>
                <time>2020-08-28T11:02:33.000Z</time>
                <name>Trackpoint 2706</name>
            </trkpt>
            <trkpt lat="49.9732704" lon="9.7649768">
                <ele>159.0</ele>
                <time>2020-08-28T11:02:35.000Z</time>
                <name>Trackpoint 2707</name>
            </trkpt>
            <trkpt lat="49.9733856" lon="9.7650144">
                <ele>159.0</ele>
                <time>2020-08-28T11:02:37.000Z</time>
                <name>Trackpoint 2708</name>
            </trkpt>
            <trkpt lat="49.9734912" lon="9.7650568">
                <ele>159.0</ele>
                <time>2020-08-28T11:02:39.000Z</time>
                <name>Trackpoint 2709</name>
            </trkpt>
            <trkpt lat="49.9736064" lon="9.765092">
                <ele>159.0</ele>
                <time>2020-08-28T11:02:41.000Z</time>
                <name>Trackpoint 2710</name>
            </trkpt>
            <trkpt lat="49.9737088" lon="9.7651168">
                <ele>159.0</ele>
                <time>2020-08-28T11:02:43.000Z</time>
                <name>Trackpoint 2711</name>
            </trkpt>
            <trkpt lat="49.9738112" lon="9.7651384">
                <ele>159.0</ele>
                <time>2020-08-28T11:02:45.000Z</time>
                <name>Trackpoint 2712</name>
            </trkpt>
            <trkpt lat="49.9739232" lon="9.76516">
                <ele>159.0</ele>
                <time>2020-08-28T11:02:47.000Z</time>
                <name>Trackpoint 2713</name>
            </trkpt>
            <trkpt lat="49.974064" lon="9.7651704">
                <ele>159.0</ele>
                <time>2020-08-28T11:02:49.000Z</time>
                <name>Trackpoint 2714</name>
            </trkpt>
            <trkpt lat="49.9742048" lon="9.7651832">
                <ele>159.0</ele>
                <time>2020-08-28T11:02:51.000Z</time>
                <name>Trackpoint 2715</name>
            </trkpt>
            <trkpt lat="49.9743392" lon="9.7651952">
                <ele>158.0</ele>
                <time>2020-08-28T11:02:53.000Z</time>
                <name>Trackpoint 2716</name>
            </trkpt>
            <trkpt lat="49.9744768" lon="9.7651928">
                <ele>158.0</ele>
                <time>2020-08-28T11:02:55.000Z</time>
                <name>Trackpoint 2717</name>
            </trkpt>
            <trkpt lat="49.9746016" lon="9.7652064">
                <ele>158.0</ele>
                <time>2020-08-28T11:02:57.000Z</time>
                <name>Trackpoint 2718</name>
            </trkpt>
            <trkpt lat="49.9747328" lon="9.7652168">
                <ele>158.0</ele>
                <time>2020-08-28T11:02:59.000Z</time>
                <name>Trackpoint 2719</name>
            </trkpt>
            <trkpt lat="49.974864" lon="9.7652152">
                <ele>158.0</ele>
                <time>2020-08-28T11:03:01.000Z</time>
                <name>Trackpoint 2720</name>
            </trkpt>
            <trkpt lat="49.9749824" lon="9.76522">
                <ele>158.0</ele>
                <time>2020-08-28T11:03:03.000Z</time>
                <name>Trackpoint 2721</name>
            </trkpt>
            <trkpt lat="49.9751104" lon="9.7652216">
                <ele>158.0</ele>
                <time>2020-08-28T11:03:05.000Z</time>
                <name>Trackpoint 2722</name>
            </trkpt>
            <trkpt lat="49.9752352" lon="9.765228">
                <ele>157.0</ele>
                <time>2020-08-28T11:03:07.000Z</time>
                <name>Trackpoint 2723</name>
            </trkpt>
            <trkpt lat="49.97536" lon="9.7652328">
                <ele>157.0</ele>
                <time>2020-08-28T11:03:09.000Z</time>
                <name>Trackpoint 2724</name>
            </trkpt>
            <trkpt lat="49.9754912" lon="9.7652384">
                <ele>157.0</ele>
                <time>2020-08-28T11:03:11.000Z</time>
                <name>Trackpoint 2725</name>
            </trkpt>
            <trkpt lat="49.975616" lon="9.7652416">
                <ele>157.0</ele>
                <time>2020-08-28T11:03:13.000Z</time>
                <name>Trackpoint 2726</name>
            </trkpt>
            <trkpt lat="49.9757504" lon="9.7652432">
                <ele>157.0</ele>
                <time>2020-08-28T11:03:15.000Z</time>
                <name>Trackpoint 2727</name>
            </trkpt>
            <trkpt lat="49.9758848" lon="9.7652568">
                <ele>156.0</ele>
                <time>2020-08-28T11:03:17.000Z</time>
                <name>Trackpoint 2728</name>
            </trkpt>
            <trkpt lat="49.9760064" lon="9.7652832">
                <ele>156.0</ele>
                <time>2020-08-28T11:03:19.000Z</time>
                <name>Trackpoint 2729</name>
            </trkpt>
            <trkpt lat="49.976144" lon="9.7652904">
                <ele>157.0</ele>
                <time>2020-08-28T11:03:21.000Z</time>
                <name>Trackpoint 2730</name>
            </trkpt>
            <trkpt lat="49.9762816" lon="9.7653">
                <ele>157.0</ele>
                <time>2020-08-28T11:03:23.000Z</time>
                <name>Trackpoint 2731</name>
            </trkpt>
            <trkpt lat="49.9764128" lon="9.7653152">
                <ele>158.0</ele>
                <time>2020-08-28T11:03:25.000Z</time>
                <name>Trackpoint 2732</name>
            </trkpt>
            <trkpt lat="49.976544" lon="9.765324">
                <ele>157.0</ele>
                <time>2020-08-28T11:03:27.000Z</time>
                <name>Trackpoint 2733</name>
            </trkpt>
            <trkpt lat="49.9766688" lon="9.76532">
                <ele>158.0</ele>
                <time>2020-08-28T11:03:29.000Z</time>
                <name>Trackpoint 2734</name>
            </trkpt>
            <trkpt lat="49.9767936" lon="9.7653176">
                <ele>158.0</ele>
                <time>2020-08-28T11:03:31.000Z</time>
                <name>Trackpoint 2735</name>
            </trkpt>
            <trkpt lat="49.9769056" lon="9.7653152">
                <ele>158.0</ele>
                <time>2020-08-28T11:03:33.000Z</time>
                <name>Trackpoint 2736</name>
            </trkpt>
            <trkpt lat="49.9770176" lon="9.7653152">
                <ele>159.0</ele>
                <time>2020-08-28T11:03:35.000Z</time>
                <name>Trackpoint 2737</name>
            </trkpt>
            <trkpt lat="49.9771264" lon="9.7653128">
                <ele>159.0</ele>
                <time>2020-08-28T11:03:37.000Z</time>
                <name>Trackpoint 2738</name>
            </trkpt>
            <trkpt lat="49.977248" lon="9.7653112">
                <ele>159.0</ele>
                <time>2020-08-28T11:03:39.000Z</time>
                <name>Trackpoint 2739</name>
            </trkpt>
            <trkpt lat="49.9773728" lon="9.7653176">
                <ele>159.0</ele>
                <time>2020-08-28T11:03:41.000Z</time>
                <name>Trackpoint 2740</name>
            </trkpt>
            <trkpt lat="49.9774944" lon="9.7653304">
                <ele>159.0</ele>
                <time>2020-08-28T11:03:43.000Z</time>
                <name>Trackpoint 2741</name>
            </trkpt>
            <trkpt lat="49.977616" lon="9.76534">
                <ele>159.0</ele>
                <time>2020-08-28T11:03:45.000Z</time>
                <name>Trackpoint 2742</name>
            </trkpt>
            <trkpt lat="49.9777408" lon="9.7653448">
                <ele>159.0</ele>
                <time>2020-08-28T11:03:47.000Z</time>
                <name>Trackpoint 2743</name>
            </trkpt>
            <trkpt lat="49.9778656" lon="9.7653488">
                <ele>159.0</ele>
                <time>2020-08-28T11:03:49.000Z</time>
                <name>Trackpoint 2744</name>
            </trkpt>
            <trkpt lat="49.9779968" lon="9.7653464">
                <ele>160.0</ele>
                <time>2020-08-28T11:03:51.000Z</time>
                <name>Trackpoint 2745</name>
            </trkpt>
            <trkpt lat="49.9781184" lon="9.7653488">
                <ele>160.0</ele>
                <time>2020-08-28T11:03:53.000Z</time>
                <name>Trackpoint 2746</name>
            </trkpt>
            <trkpt lat="49.9782432" lon="9.7653464">
                <ele>160.0</ele>
                <time>2020-08-28T11:03:55.000Z</time>
                <name>Trackpoint 2747</name>
            </trkpt>
            <trkpt lat="49.9783744" lon="9.7653512">
                <ele>160.0</ele>
                <time>2020-08-28T11:03:57.000Z</time>
                <name>Trackpoint 2748</name>
            </trkpt>
            <trkpt lat="49.9785088" lon="9.7653576">
                <ele>160.0</ele>
                <time>2020-08-28T11:03:59.000Z</time>
                <name>Trackpoint 2749</name>
            </trkpt>
            <trkpt lat="49.97864" lon="9.76536">
                <ele>160.0</ele>
                <time>2020-08-28T11:04:01.000Z</time>
                <name>Trackpoint 2750</name>
            </trkpt>
            <trkpt lat="49.9787744" lon="9.7653616">
                <ele>160.0</ele>
                <time>2020-08-28T11:04:03.000Z</time>
                <name>Trackpoint 2751</name>
            </trkpt>
            <trkpt lat="49.9789088" lon="9.7653568">
                <ele>160.0</ele>
                <time>2020-08-28T11:04:05.000Z</time>
                <name>Trackpoint 2752</name>
            </trkpt>
            <trkpt lat="49.979008" lon="9.765344">
                <ele>160.0</ele>
                <time>2020-08-28T11:04:07.000Z</time>
                <name>Trackpoint 2753</name>
            </trkpt>
            <trkpt lat="49.9791104" lon="9.765344">
                <ele>160.0</ele>
                <time>2020-08-28T11:04:09.000Z</time>
                <name>Trackpoint 2754</name>
            </trkpt>
            <trkpt lat="49.979248" lon="9.7653328">
                <ele>160.0</ele>
                <time>2020-08-28T11:04:11.000Z</time>
                <name>Trackpoint 2755</name>
            </trkpt>
            <trkpt lat="49.9793888" lon="9.7653248">
                <ele>159.0</ele>
                <time>2020-08-28T11:04:13.000Z</time>
                <name>Trackpoint 2756</name>
            </trkpt>
            <trkpt lat="49.9795264" lon="9.765324">
                <ele>159.0</ele>
                <time>2020-08-28T11:04:15.000Z</time>
                <name>Trackpoint 2757</name>
            </trkpt>
            <trkpt lat="49.9796608" lon="9.7653176">
                <ele>159.0</ele>
                <time>2020-08-28T11:04:17.000Z</time>
                <name>Trackpoint 2758</name>
            </trkpt>
            <trkpt lat="49.9798048" lon="9.7653248">
                <ele>159.0</ele>
                <time>2020-08-28T11:04:19.000Z</time>
                <name>Trackpoint 2759</name>
            </trkpt>
            <trkpt lat="49.9799392" lon="9.7653328">
                <ele>160.0</ele>
                <time>2020-08-28T11:04:21.000Z</time>
                <name>Trackpoint 2760</name>
            </trkpt>
            <trkpt lat="49.9800768" lon="9.7653416">
                <ele>160.0</ele>
                <time>2020-08-28T11:04:23.000Z</time>
                <name>Trackpoint 2761</name>
            </trkpt>
            <trkpt lat="49.9802016" lon="9.7653464">
                <ele>160.0</ele>
                <time>2020-08-28T11:04:25.000Z</time>
                <name>Trackpoint 2762</name>
            </trkpt>
            <trkpt lat="49.98032" lon="9.76534">
                <ele>160.0</ele>
                <time>2020-08-28T11:04:27.000Z</time>
                <name>Trackpoint 2763</name>
            </trkpt>
            <trkpt lat="49.9804416" lon="9.7653248">
                <ele>160.0</ele>
                <time>2020-08-28T11:04:29.000Z</time>
                <name>Trackpoint 2764</name>
            </trkpt>
            <trkpt lat="49.980592" lon="9.7653248">
                <ele>159.0</ele>
                <time>2020-08-28T11:04:31.000Z</time>
                <name>Trackpoint 2765</name>
            </trkpt>
            <trkpt lat="49.9807328" lon="9.7653248">
                <ele>159.0</ele>
                <time>2020-08-28T11:04:33.000Z</time>
                <name>Trackpoint 2766</name>
            </trkpt>
            <trkpt lat="49.980864" lon="9.7653168">
                <ele>159.0</ele>
                <time>2020-08-28T11:04:35.000Z</time>
                <name>Trackpoint 2767</name>
            </trkpt>
            <trkpt lat="49.9809952" lon="9.7653248">
                <ele>159.0</ele>
                <time>2020-08-28T11:04:37.000Z</time>
                <name>Trackpoint 2768</name>
            </trkpt>
            <trkpt lat="49.9810944" lon="9.7652528">
                <ele>159.0</ele>
                <time>2020-08-28T11:04:39.000Z</time>
                <name>Trackpoint 2769</name>
            </trkpt>
            <trkpt lat="49.9811264" lon="9.7650832">
                <ele>158.0</ele>
                <time>2020-08-28T11:04:41.000Z</time>
                <name>Trackpoint 2770</name>
            </trkpt>
            <trkpt lat="49.98112" lon="9.7649848">
                <ele>158.0</ele>
                <time>2020-08-28T11:04:42.000Z</time>
                <name>Trackpoint 2771</name>
            </trkpt>
            <trkpt lat="49.9811136" lon="9.7648872">
                <ele>158.0</ele>
                <time>2020-08-28T11:04:43.000Z</time>
                <name>Trackpoint 2772</name>
            </trkpt>
            <trkpt lat="49.9811104" lon="9.7647848">
                <ele>158.0</ele>
                <time>2020-08-28T11:04:44.000Z</time>
                <name>Trackpoint 2773</name>
            </trkpt>
            <trkpt lat="49.9810976" lon="9.7646848">
                <ele>158.0</ele>
                <time>2020-08-28T11:04:45.000Z</time>
                <name>Trackpoint 2774</name>
            </trkpt>
            <trkpt lat="49.981088" lon="9.7645864">
                <ele>158.0</ele>
                <time>2020-08-28T11:04:46.000Z</time>
                <name>Trackpoint 2775</name>
            </trkpt>
            <trkpt lat="49.9810784" lon="9.7644928">
                <ele>157.0</ele>
                <time>2020-08-28T11:04:47.000Z</time>
                <name>Trackpoint 2776</name>
            </trkpt>
            <trkpt lat="49.9810752" lon="9.7644016">
                <ele>158.0</ele>
                <time>2020-08-28T11:04:48.000Z</time>
                <name>Trackpoint 2777</name>
            </trkpt>
            <trkpt lat="49.9811104" lon="9.7642544">
                <ele>158.0</ele>
                <time>2020-08-28T11:04:50.000Z</time>
                <name>Trackpoint 2778</name>
            </trkpt>
            <trkpt lat="49.9812" lon="9.764176">
                <ele>158.0</ele>
                <time>2020-08-28T11:04:52.000Z</time>
                <name>Trackpoint 2779</name>
            </trkpt>
            <trkpt lat="49.981312" lon="9.764156">
                <ele>158.0</ele>
                <time>2020-08-28T11:04:54.000Z</time>
                <name>Trackpoint 2780</name>
            </trkpt>
            <trkpt lat="49.9814144" lon="9.7641688">
                <ele>159.0</ele>
                <time>2020-08-28T11:04:56.000Z</time>
                <name>Trackpoint 2781</name>
            </trkpt>
            <trkpt lat="49.9815232" lon="9.7641752">
                <ele>159.0</ele>
                <time>2020-08-28T11:04:58.000Z</time>
                <name>Trackpoint 2782</name>
            </trkpt>
            <trkpt lat="49.9816288" lon="9.7641672">
                <ele>159.0</ele>
                <time>2020-08-28T11:05:00.000Z</time>
                <name>Trackpoint 2783</name>
            </trkpt>
            <trkpt lat="49.9817312" lon="9.7641448">
                <ele>159.0</ele>
                <time>2020-08-28T11:05:02.000Z</time>
                <name>Trackpoint 2784</name>
            </trkpt>
            <trkpt lat="49.9818464" lon="9.7641152">
                <ele>159.0</ele>
                <time>2020-08-28T11:05:04.000Z</time>
                <name>Trackpoint 2785</name>
            </trkpt>
            <trkpt lat="49.981968" lon="9.764076">
                <ele>159.0</ele>
                <time>2020-08-28T11:05:06.000Z</time>
                <name>Trackpoint 2786</name>
            </trkpt>
            <trkpt lat="49.9820864" lon="9.76406">
                <ele>159.0</ele>
                <time>2020-08-28T11:05:08.000Z</time>
                <name>Trackpoint 2787</name>
            </trkpt>
            <trkpt lat="49.982224" lon="9.7640336">
                <ele>159.0</ele>
                <time>2020-08-28T11:05:10.000Z</time>
                <name>Trackpoint 2788</name>
            </trkpt>
            <trkpt lat="49.9823424" lon="9.764">
                <ele>159.0</ele>
                <time>2020-08-28T11:05:12.000Z</time>
                <name>Trackpoint 2789</name>
            </trkpt>
            <trkpt lat="49.9824608" lon="9.763964">
                <ele>159.0</ele>
                <time>2020-08-28T11:05:14.000Z</time>
                <name>Trackpoint 2790</name>
            </trkpt>
            <trkpt lat="49.982576" lon="9.76394">
                <ele>158.0</ele>
                <time>2020-08-28T11:05:16.000Z</time>
                <name>Trackpoint 2791</name>
            </trkpt>
            <trkpt lat="49.9826976" lon="9.7639288">
                <ele>159.0</ele>
                <time>2020-08-28T11:05:18.000Z</time>
                <name>Trackpoint 2792</name>
            </trkpt>
            <trkpt lat="49.9828192" lon="9.7639104">
                <ele>159.0</ele>
                <time>2020-08-28T11:05:20.000Z</time>
                <name>Trackpoint 2793</name>
            </trkpt>
            <trkpt lat="49.982944" lon="9.7638712">
                <ele>159.0</ele>
                <time>2020-08-28T11:05:22.000Z</time>
                <name>Trackpoint 2794</name>
            </trkpt>
            <trkpt lat="49.9830688" lon="9.763848">
                <ele>159.0</ele>
                <time>2020-08-28T11:05:24.000Z</time>
                <name>Trackpoint 2795</name>
            </trkpt>
            <trkpt lat="49.9831968" lon="9.763832">
                <ele>158.0</ele>
                <time>2020-08-28T11:05:26.000Z</time>
                <name>Trackpoint 2796</name>
            </trkpt>
            <trkpt lat="49.983312" lon="9.7638032">
                <ele>158.0</ele>
                <time>2020-08-28T11:05:28.000Z</time>
                <name>Trackpoint 2797</name>
            </trkpt>
            <trkpt lat="49.9834208" lon="9.7637656">
                <ele>158.0</ele>
                <time>2020-08-28T11:05:30.000Z</time>
                <name>Trackpoint 2798</name>
            </trkpt>
            <trkpt lat="49.983536" lon="9.763728">
                <ele>158.0</ele>
                <time>2020-08-28T11:05:32.000Z</time>
                <name>Trackpoint 2799</name>
            </trkpt>
            <trkpt lat="49.9836608" lon="9.7636872">
                <ele>158.0</ele>
                <time>2020-08-28T11:05:34.000Z</time>
                <name>Trackpoint 2800</name>
            </trkpt>
            <trkpt lat="49.9837792" lon="9.7636536">
                <ele>158.0</ele>
                <time>2020-08-28T11:05:36.000Z</time>
                <name>Trackpoint 2801</name>
            </trkpt>
            <trkpt lat="49.9838944" lon="9.7636048">
                <ele>158.0</ele>
                <time>2020-08-28T11:05:38.000Z</time>
                <name>Trackpoint 2802</name>
            </trkpt>
            <trkpt lat="49.9840064" lon="9.763568">
                <ele>158.0</ele>
                <time>2020-08-28T11:05:40.000Z</time>
                <name>Trackpoint 2803</name>
            </trkpt>
            <trkpt lat="49.9841248" lon="9.76352">
                <ele>158.0</ele>
                <time>2020-08-28T11:05:42.000Z</time>
                <name>Trackpoint 2804</name>
            </trkpt>
            <trkpt lat="49.9842496" lon="9.7634936">
                <ele>158.0</ele>
                <time>2020-08-28T11:05:44.000Z</time>
                <name>Trackpoint 2805</name>
            </trkpt>
            <trkpt lat="49.984368" lon="9.763456">
                <ele>158.0</ele>
                <time>2020-08-28T11:05:46.000Z</time>
                <name>Trackpoint 2806</name>
            </trkpt>
            <trkpt lat="49.9844704" lon="9.763416">
                <ele>158.0</ele>
                <time>2020-08-28T11:05:48.000Z</time>
                <name>Trackpoint 2807</name>
            </trkpt>
            <trkpt lat="49.984576" lon="9.763376">
                <ele>158.0</ele>
                <time>2020-08-28T11:05:50.000Z</time>
                <name>Trackpoint 2808</name>
            </trkpt>
            <trkpt lat="49.984688" lon="9.76334">
                <ele>158.0</ele>
                <time>2020-08-28T11:05:52.000Z</time>
                <name>Trackpoint 2809</name>
            </trkpt>
            <trkpt lat="49.9848064" lon="9.7632984">
                <ele>158.0</ele>
                <time>2020-08-28T11:05:54.000Z</time>
                <name>Trackpoint 2810</name>
            </trkpt>
            <trkpt lat="49.9849152" lon="9.7632368">
                <ele>157.0</ele>
                <time>2020-08-28T11:05:56.000Z</time>
                <name>Trackpoint 2811</name>
            </trkpt>
            <trkpt lat="49.985024" lon="9.7631704">
                <ele>158.0</ele>
                <time>2020-08-28T11:05:58.000Z</time>
                <name>Trackpoint 2812</name>
            </trkpt>
            <trkpt lat="49.9851296" lon="9.7631056">
                <ele>159.0</ele>
                <time>2020-08-28T11:06:00.000Z</time>
                <name>Trackpoint 2813</name>
            </trkpt>
            <trkpt lat="49.9852384" lon="9.763048">
                <ele>159.0</ele>
                <time>2020-08-28T11:06:02.000Z</time>
                <name>Trackpoint 2814</name>
            </trkpt>
            <trkpt lat="49.9853408" lon="9.7629928">
                <ele>159.0</ele>
                <time>2020-08-28T11:06:04.000Z</time>
                <name>Trackpoint 2815</name>
            </trkpt>
            <trkpt lat="49.9854464" lon="9.7629344">
                <ele>158.0</ele>
                <time>2020-08-28T11:06:06.000Z</time>
                <name>Trackpoint 2816</name>
            </trkpt>
            <trkpt lat="49.9855616" lon="9.7628784">
                <ele>157.0</ele>
                <time>2020-08-28T11:06:08.000Z</time>
                <name>Trackpoint 2817</name>
            </trkpt>
            <trkpt lat="49.9856768" lon="9.7628168">
                <ele>158.0</ele>
                <time>2020-08-28T11:06:10.000Z</time>
                <name>Trackpoint 2818</name>
            </trkpt>
            <trkpt lat="49.9857888" lon="9.762756">
                <ele>158.0</ele>
                <time>2020-08-28T11:06:12.000Z</time>
                <name>Trackpoint 2819</name>
            </trkpt>
            <trkpt lat="49.9859008" lon="9.7627016">
                <ele>158.0</ele>
                <time>2020-08-28T11:06:14.000Z</time>
                <name>Trackpoint 2820</name>
            </trkpt>
            <trkpt lat="49.9860128" lon="9.7626448">
                <ele>158.0</ele>
                <time>2020-08-28T11:06:16.000Z</time>
                <name>Trackpoint 2821</name>
            </trkpt>
            <trkpt lat="49.9861248" lon="9.7625768">
                <ele>157.0</ele>
                <time>2020-08-28T11:06:18.000Z</time>
                <name>Trackpoint 2822</name>
            </trkpt>
            <trkpt lat="49.9862304" lon="9.7625128">
                <ele>157.0</ele>
                <time>2020-08-28T11:06:20.000Z</time>
                <name>Trackpoint 2823</name>
            </trkpt>
            <trkpt lat="49.986336" lon="9.7624568">
                <ele>157.0</ele>
                <time>2020-08-28T11:06:22.000Z</time>
                <name>Trackpoint 2824</name>
            </trkpt>
            <trkpt lat="49.9864512" lon="9.7624">
                <ele>157.0</ele>
                <time>2020-08-28T11:06:24.000Z</time>
                <name>Trackpoint 2825</name>
            </trkpt>
            <trkpt lat="49.98656" lon="9.762348">
                <ele>157.0</ele>
                <time>2020-08-28T11:06:26.000Z</time>
                <name>Trackpoint 2826</name>
            </trkpt>
            <trkpt lat="49.9866752" lon="9.762288">
                <ele>157.0</ele>
                <time>2020-08-28T11:06:28.000Z</time>
                <name>Trackpoint 2827</name>
            </trkpt>
            <trkpt lat="49.9867872" lon="9.7622136">
                <ele>156.0</ele>
                <time>2020-08-28T11:06:30.000Z</time>
                <name>Trackpoint 2828</name>
            </trkpt>
            <trkpt lat="49.986896" lon="9.7621336">
                <ele>157.0</ele>
                <time>2020-08-28T11:06:32.000Z</time>
                <name>Trackpoint 2829</name>
            </trkpt>
            <trkpt lat="49.987008" lon="9.7620536">
                <ele>157.0</ele>
                <time>2020-08-28T11:06:34.000Z</time>
                <name>Trackpoint 2830</name>
            </trkpt>
            <trkpt lat="49.9871168" lon="9.7619784">
                <ele>157.0</ele>
                <time>2020-08-28T11:06:36.000Z</time>
                <name>Trackpoint 2831</name>
            </trkpt>
            <trkpt lat="49.9872288" lon="9.7618864">
                <ele>157.0</ele>
                <time>2020-08-28T11:06:38.000Z</time>
                <name>Trackpoint 2832</name>
            </trkpt>
            <trkpt lat="49.9873344" lon="9.7617976">
                <ele>157.0</ele>
                <time>2020-08-28T11:06:40.000Z</time>
                <name>Trackpoint 2833</name>
            </trkpt>
            <trkpt lat="49.9874464" lon="9.761708">
                <ele>157.0</ele>
                <time>2020-08-28T11:06:42.000Z</time>
                <name>Trackpoint 2834</name>
            </trkpt>
            <trkpt lat="49.9875552" lon="9.7616232">
                <ele>157.0</ele>
                <time>2020-08-28T11:06:44.000Z</time>
                <name>Trackpoint 2835</name>
            </trkpt>
            <trkpt lat="49.9876608" lon="9.7615384">
                <ele>157.0</ele>
                <time>2020-08-28T11:06:46.000Z</time>
                <name>Trackpoint 2836</name>
            </trkpt>
            <trkpt lat="49.98776" lon="9.7614544">
                <ele>158.0</ele>
                <time>2020-08-28T11:06:48.000Z</time>
                <name>Trackpoint 2837</name>
            </trkpt>
            <trkpt lat="49.9878592" lon="9.761376">
                <ele>158.0</ele>
                <time>2020-08-28T11:06:50.000Z</time>
                <name>Trackpoint 2838</name>
            </trkpt>
            <trkpt lat="49.9879616" lon="9.7612848">
                <ele>158.0</ele>
                <time>2020-08-28T11:06:52.000Z</time>
                <name>Trackpoint 2839</name>
            </trkpt>
            <trkpt lat="49.988064" lon="9.7612088">
                <ele>158.0</ele>
                <time>2020-08-28T11:06:54.000Z</time>
                <name>Trackpoint 2840</name>
            </trkpt>
            <trkpt lat="49.9881696" lon="9.7611328">
                <ele>158.0</ele>
                <time>2020-08-28T11:06:56.000Z</time>
                <name>Trackpoint 2841</name>
            </trkpt>
            <trkpt lat="49.9882656" lon="9.7610528">
                <ele>159.0</ele>
                <time>2020-08-28T11:06:58.000Z</time>
                <name>Trackpoint 2842</name>
            </trkpt>
            <trkpt lat="49.988368" lon="9.76098">
                <ele>160.0</ele>
                <time>2020-08-28T11:07:00.000Z</time>
                <name>Trackpoint 2843</name>
            </trkpt>
            <trkpt lat="49.9884704" lon="9.7608992">
                <ele>161.0</ele>
                <time>2020-08-28T11:07:02.000Z</time>
                <name>Trackpoint 2844</name>
            </trkpt>
            <trkpt lat="49.9885664" lon="9.76082">
                <ele>163.0</ele>
                <time>2020-08-28T11:07:04.000Z</time>
                <name>Trackpoint 2845</name>
            </trkpt>
            <trkpt lat="49.9886656" lon="9.76072">
                <ele>161.0</ele>
                <time>2020-08-28T11:07:06.000Z</time>
                <name>Trackpoint 2846</name>
            </trkpt>
            <trkpt lat="49.9887648" lon="9.7606264">
                <ele>160.0</ele>
                <time>2020-08-28T11:07:08.000Z</time>
                <name>Trackpoint 2847</name>
            </trkpt>
            <trkpt lat="49.9888608" lon="9.7605448">
                <ele>160.0</ele>
                <time>2020-08-28T11:07:10.000Z</time>
                <name>Trackpoint 2848</name>
            </trkpt>
            <trkpt lat="49.9889632" lon="9.7604904">
                <ele>160.0</ele>
                <time>2020-08-28T11:07:12.000Z</time>
                <name>Trackpoint 2849</name>
            </trkpt>
            <trkpt lat="49.9890624" lon="9.7605352">
                <ele>159.0</ele>
                <time>2020-08-28T11:07:14.000Z</time>
                <name>Trackpoint 2850</name>
            </trkpt>
            <trkpt lat="49.9891648" lon="9.7605432">
                <ele>159.0</ele>
                <time>2020-08-28T11:07:16.000Z</time>
                <name>Trackpoint 2851</name>
            </trkpt>
            <trkpt lat="49.9892608" lon="9.7604576">
                <ele>158.0</ele>
                <time>2020-08-28T11:07:18.000Z</time>
                <name>Trackpoint 2852</name>
            </trkpt>
            <trkpt lat="49.9893536" lon="9.7603384">
                <ele>158.0</ele>
                <time>2020-08-28T11:07:20.000Z</time>
                <name>Trackpoint 2853</name>
            </trkpt>
            <trkpt lat="49.9894336" lon="9.7602264">
                <ele>158.0</ele>
                <time>2020-08-28T11:07:22.000Z</time>
                <name>Trackpoint 2854</name>
            </trkpt>
            <trkpt lat="49.9895264" lon="9.7601248">
                <ele>158.0</ele>
                <time>2020-08-28T11:07:24.000Z</time>
                <name>Trackpoint 2855</name>
            </trkpt>
            <trkpt lat="49.9896064" lon="9.7600168">
                <ele>158.0</ele>
                <time>2020-08-28T11:07:26.000Z</time>
                <name>Trackpoint 2856</name>
            </trkpt>
            <trkpt lat="49.9897056" lon="9.759916">
                <ele>158.0</ele>
                <time>2020-08-28T11:07:28.000Z</time>
                <name>Trackpoint 2857</name>
            </trkpt>
            <trkpt lat="49.9897856" lon="9.7597984">
                <ele>158.0</ele>
                <time>2020-08-28T11:07:30.000Z</time>
                <name>Trackpoint 2858</name>
            </trkpt>
            <trkpt lat="49.9898688" lon="9.7596816">
                <ele>158.0</ele>
                <time>2020-08-28T11:07:32.000Z</time>
                <name>Trackpoint 2859</name>
            </trkpt>
            <trkpt lat="49.9899648" lon="9.759572">
                <ele>158.0</ele>
                <time>2020-08-28T11:07:34.000Z</time>
                <name>Trackpoint 2860</name>
            </trkpt>
            <trkpt lat="49.9900512" lon="9.7594584">
                <ele>158.0</ele>
                <time>2020-08-28T11:07:36.000Z</time>
                <name>Trackpoint 2861</name>
            </trkpt>
            <trkpt lat="49.9901664" lon="9.7593568">
                <ele>158.0</ele>
                <time>2020-08-28T11:07:38.000Z</time>
                <name>Trackpoint 2862</name>
            </trkpt>
            <trkpt lat="49.990272" lon="9.7592472">
                <ele>157.0</ele>
                <time>2020-08-28T11:07:40.000Z</time>
                <name>Trackpoint 2863</name>
            </trkpt>
            <trkpt lat="49.9903712" lon="9.7591312">
                <ele>157.0</ele>
                <time>2020-08-28T11:07:42.000Z</time>
                <name>Trackpoint 2864</name>
            </trkpt>
            <trkpt lat="49.9904704" lon="9.7590152">
                <ele>157.0</ele>
                <time>2020-08-28T11:07:44.000Z</time>
                <name>Trackpoint 2865</name>
            </trkpt>
            <trkpt lat="49.9905664" lon="9.7588928">
                <ele>157.0</ele>
                <time>2020-08-28T11:07:46.000Z</time>
                <name>Trackpoint 2866</name>
            </trkpt>
            <trkpt lat="49.9906624" lon="9.7587784">
                <ele>157.0</ele>
                <time>2020-08-28T11:07:48.000Z</time>
                <name>Trackpoint 2867</name>
            </trkpt>
            <trkpt lat="49.9907584" lon="9.7586648">
                <ele>157.0</ele>
                <time>2020-08-28T11:07:50.000Z</time>
                <name>Trackpoint 2868</name>
            </trkpt>
            <trkpt lat="49.990848" lon="9.7585488">
                <ele>157.0</ele>
                <time>2020-08-28T11:07:52.000Z</time>
                <name>Trackpoint 2869</name>
            </trkpt>
            <trkpt lat="49.9909408" lon="9.758436">
                <ele>157.0</ele>
                <time>2020-08-28T11:07:54.000Z</time>
                <name>Trackpoint 2870</name>
            </trkpt>
            <trkpt lat="49.9910272" lon="9.7583176">
                <ele>156.0</ele>
                <time>2020-08-28T11:07:56.000Z</time>
                <name>Trackpoint 2871</name>
            </trkpt>
            <trkpt lat="49.9911168" lon="9.7582056">
                <ele>156.0</ele>
                <time>2020-08-28T11:07:58.000Z</time>
                <name>Trackpoint 2872</name>
            </trkpt>
            <trkpt lat="49.9912032" lon="9.7580864">
                <ele>157.0</ele>
                <time>2020-08-28T11:08:00.000Z</time>
                <name>Trackpoint 2873</name>
            </trkpt>
            <trkpt lat="49.9912864" lon="9.7579736">
                <ele>156.0</ele>
                <time>2020-08-28T11:08:02.000Z</time>
                <name>Trackpoint 2874</name>
            </trkpt>
            <trkpt lat="49.9913536" lon="9.75788">
                <ele>156.0</ele>
                <time>2020-08-28T11:08:04.000Z</time>
                <name>Trackpoint 2875</name>
            </trkpt>
            <trkpt lat="49.9913856" lon="9.7577912">
                <ele>157.0</ele>
                <time>2020-08-28T11:10:40.000Z</time>
                <name>Trackpoint 2876</name>
            </trkpt>
            <trkpt lat="49.991456" lon="9.7577216">
                <ele>156.0</ele>
                <time>2020-08-28T11:10:45.000Z</time>
                <name>Trackpoint 2877</name>
            </trkpt>
            <trkpt lat="49.9915232" lon="9.7576248">
                <ele>156.0</ele>
                <time>2020-08-28T11:10:48.000Z</time>
                <name>Trackpoint 2878</name>
            </trkpt>
            <trkpt lat="49.9915744" lon="9.7575432">
                <ele>156.0</ele>
                <time>2020-08-28T11:10:50.000Z</time>
                <name>Trackpoint 2879</name>
            </trkpt>
            <trkpt lat="49.9916352" lon="9.7574616">
                <ele>156.0</ele>
                <time>2020-08-28T11:10:52.000Z</time>
                <name>Trackpoint 2880</name>
            </trkpt>
            <trkpt lat="49.9916992" lon="9.7573632">
                <ele>156.0</ele>
                <time>2020-08-28T11:10:54.000Z</time>
                <name>Trackpoint 2881</name>
            </trkpt>
            <trkpt lat="49.9917728" lon="9.7572648">
                <ele>156.0</ele>
                <time>2020-08-28T11:10:56.000Z</time>
                <name>Trackpoint 2882</name>
            </trkpt>
            <trkpt lat="49.9918528" lon="9.7571624">
                <ele>156.0</ele>
                <time>2020-08-28T11:10:58.000Z</time>
                <name>Trackpoint 2883</name>
            </trkpt>
            <trkpt lat="49.99192" lon="9.7570336">
                <ele>156.0</ele>
                <time>2020-08-28T11:11:00.000Z</time>
                <name>Trackpoint 2884</name>
            </trkpt>
            <trkpt lat="49.9919968" lon="9.75692">
                <ele>156.0</ele>
                <time>2020-08-28T11:11:02.000Z</time>
                <name>Trackpoint 2885</name>
            </trkpt>
            <trkpt lat="49.9920704" lon="9.7567968">
                <ele>156.0</ele>
                <time>2020-08-28T11:11:04.000Z</time>
                <name>Trackpoint 2886</name>
            </trkpt>
            <trkpt lat="49.9921504" lon="9.7566744">
                <ele>156.0</ele>
                <time>2020-08-28T11:11:06.000Z</time>
                <name>Trackpoint 2887</name>
            </trkpt>
            <trkpt lat="49.9922272" lon="9.7565472">
                <ele>157.0</ele>
                <time>2020-08-28T11:11:08.000Z</time>
                <name>Trackpoint 2888</name>
            </trkpt>
            <trkpt lat="49.9922976" lon="9.75642">
                <ele>157.0</ele>
                <time>2020-08-28T11:11:10.000Z</time>
                <name>Trackpoint 2889</name>
            </trkpt>
            <trkpt lat="49.9923744" lon="9.7562984">
                <ele>157.0</ele>
                <time>2020-08-28T11:11:12.000Z</time>
                <name>Trackpoint 2890</name>
            </trkpt>
            <trkpt lat="49.9924512" lon="9.7561776">
                <ele>157.0</ele>
                <time>2020-08-28T11:11:14.000Z</time>
                <name>Trackpoint 2891</name>
            </trkpt>
            <trkpt lat="49.9925216" lon="9.7560552">
                <ele>156.0</ele>
                <time>2020-08-28T11:11:16.000Z</time>
                <name>Trackpoint 2892</name>
            </trkpt>
            <trkpt lat="49.992592" lon="9.7559184">
                <ele>156.0</ele>
                <time>2020-08-28T11:11:18.000Z</time>
                <name>Trackpoint 2893</name>
            </trkpt>
            <trkpt lat="49.9926688" lon="9.7557968">
                <ele>156.0</ele>
                <time>2020-08-28T11:11:20.000Z</time>
                <name>Trackpoint 2894</name>
            </trkpt>
            <trkpt lat="49.992736" lon="9.7556584">
                <ele>156.0</ele>
                <time>2020-08-28T11:11:22.000Z</time>
                <name>Trackpoint 2895</name>
            </trkpt>
            <trkpt lat="49.9928064" lon="9.7555264">
                <ele>156.0</ele>
                <time>2020-08-28T11:11:24.000Z</time>
                <name>Trackpoint 2896</name>
            </trkpt>
            <trkpt lat="49.9928704" lon="9.7553832">
                <ele>156.0</ele>
                <time>2020-08-28T11:11:26.000Z</time>
                <name>Trackpoint 2897</name>
            </trkpt>
            <trkpt lat="49.9929504" lon="9.7552584">
                <ele>156.0</ele>
                <time>2020-08-28T11:11:28.000Z</time>
                <name>Trackpoint 2898</name>
            </trkpt>
            <trkpt lat="49.993024" lon="9.755128">
                <ele>156.0</ele>
                <time>2020-08-28T11:11:30.000Z</time>
                <name>Trackpoint 2899</name>
            </trkpt>
            <trkpt lat="49.9930912" lon="9.7549984">
                <ele>156.0</ele>
                <time>2020-08-28T11:11:32.000Z</time>
                <name>Trackpoint 2900</name>
            </trkpt>
            <trkpt lat="49.9931616" lon="9.7548688">
                <ele>156.0</ele>
                <time>2020-08-28T11:11:34.000Z</time>
                <name>Trackpoint 2901</name>
            </trkpt>
            <trkpt lat="49.9932256" lon="9.7547392">
                <ele>156.0</ele>
                <time>2020-08-28T11:11:36.000Z</time>
                <name>Trackpoint 2902</name>
            </trkpt>
            <trkpt lat="49.9932928" lon="9.7546032">
                <ele>156.0</ele>
                <time>2020-08-28T11:11:38.000Z</time>
                <name>Trackpoint 2903</name>
            </trkpt>
            <trkpt lat="49.9933536" lon="9.7544536">
                <ele>156.0</ele>
                <time>2020-08-28T11:11:40.000Z</time>
                <name>Trackpoint 2904</name>
            </trkpt>
            <trkpt lat="49.9934112" lon="9.75432">
                <ele>156.0</ele>
                <time>2020-08-28T11:11:42.000Z</time>
                <name>Trackpoint 2905</name>
            </trkpt>
            <trkpt lat="49.9934784" lon="9.7541888">
                <ele>156.0</ele>
                <time>2020-08-28T11:11:44.000Z</time>
                <name>Trackpoint 2906</name>
            </trkpt>
            <trkpt lat="49.9935488" lon="9.7540616">
                <ele>156.0</ele>
                <time>2020-08-28T11:11:46.000Z</time>
                <name>Trackpoint 2907</name>
            </trkpt>
            <trkpt lat="49.9936096" lon="9.7539304">
                <ele>156.0</ele>
                <time>2020-08-28T11:11:48.000Z</time>
                <name>Trackpoint 2908</name>
            </trkpt>
            <trkpt lat="49.99368" lon="9.7538">
                <ele>156.0</ele>
                <time>2020-08-28T11:11:50.000Z</time>
                <name>Trackpoint 2909</name>
            </trkpt>
            <trkpt lat="49.9937408" lon="9.7536624">
                <ele>156.0</ele>
                <time>2020-08-28T11:11:52.000Z</time>
                <name>Trackpoint 2910</name>
            </trkpt>
            <trkpt lat="49.9937984" lon="9.7535296">
                <ele>156.0</ele>
                <time>2020-08-28T11:11:54.000Z</time>
                <name>Trackpoint 2911</name>
            </trkpt>
            <trkpt lat="49.9938624" lon="9.7533848">
                <ele>156.0</ele>
                <time>2020-08-28T11:11:56.000Z</time>
                <name>Trackpoint 2912</name>
            </trkpt>
            <trkpt lat="49.9939264" lon="9.7532552">
                <ele>156.0</ele>
                <time>2020-08-28T11:11:58.000Z</time>
                <name>Trackpoint 2913</name>
            </trkpt>
            <trkpt lat="49.9939904" lon="9.7531216">
                <ele>157.0</ele>
                <time>2020-08-28T11:12:00.000Z</time>
                <name>Trackpoint 2914</name>
            </trkpt>
            <trkpt lat="49.9940416" lon="9.7530096">
                <ele>160.0</ele>
                <time>2020-08-28T11:12:02.000Z</time>
                <name>Trackpoint 2915</name>
            </trkpt>
            <trkpt lat="49.9940896" lon="9.7529096">
                <ele>161.0</ele>
                <time>2020-08-28T11:12:04.000Z</time>
                <name>Trackpoint 2916</name>
            </trkpt>
            <trkpt lat="49.9941376" lon="9.7528">
                <ele>161.0</ele>
                <time>2020-08-28T11:12:06.000Z</time>
                <name>Trackpoint 2917</name>
            </trkpt>
            <trkpt lat="49.9941824" lon="9.752684">
                <ele>161.0</ele>
                <time>2020-08-28T11:12:08.000Z</time>
                <name>Trackpoint 2918</name>
            </trkpt>
            <trkpt lat="49.9942272" lon="9.75256">
                <ele>162.0</ele>
                <time>2020-08-28T11:12:10.000Z</time>
                <name>Trackpoint 2919</name>
            </trkpt>
            <trkpt lat="49.9942784" lon="9.7524336">
                <ele>162.0</ele>
                <time>2020-08-28T11:12:12.000Z</time>
                <name>Trackpoint 2920</name>
            </trkpt>
            <trkpt lat="49.9943264" lon="9.7523016">
                <ele>162.0</ele>
                <time>2020-08-28T11:12:14.000Z</time>
                <name>Trackpoint 2921</name>
            </trkpt>
            <trkpt lat="49.9943776" lon="9.7521664">
                <ele>162.0</ele>
                <time>2020-08-28T11:12:16.000Z</time>
                <name>Trackpoint 2922</name>
            </trkpt>
            <trkpt lat="49.9944224" lon="9.7520336">
                <ele>162.0</ele>
                <time>2020-08-28T11:12:18.000Z</time>
                <name>Trackpoint 2923</name>
            </trkpt>
            <trkpt lat="49.9944672" lon="9.7519016">
                <ele>162.0</ele>
                <time>2020-08-28T11:12:20.000Z</time>
                <name>Trackpoint 2924</name>
            </trkpt>
            <trkpt lat="49.9944864" lon="9.7518128">
                <ele>162.0</ele>
                <time>2020-08-28T11:12:21.000Z</time>
                <name>Trackpoint 2925</name>
            </trkpt>
            <trkpt lat="49.9945312" lon="9.751648">
                <ele>162.0</ele>
                <time>2020-08-28T11:12:23.000Z</time>
                <name>Trackpoint 2926</name>
            </trkpt>
            <trkpt lat="49.9945792" lon="9.7515024">
                <ele>162.0</ele>
                <time>2020-08-28T11:12:25.000Z</time>
                <name>Trackpoint 2927</name>
            </trkpt>
            <trkpt lat="49.9946304" lon="9.7513552">
                <ele>162.0</ele>
                <time>2020-08-28T11:12:27.000Z</time>
                <name>Trackpoint 2928</name>
            </trkpt>
            <trkpt lat="49.9946816" lon="9.7512256">
                <ele>162.0</ele>
                <time>2020-08-28T11:12:29.000Z</time>
                <name>Trackpoint 2929</name>
            </trkpt>
            <trkpt lat="49.9946976" lon="9.7511368">
                <ele>162.0</ele>
                <time>2020-08-28T11:12:30.000Z</time>
                <name>Trackpoint 2930</name>
            </trkpt>
            <trkpt lat="49.9947424" lon="9.7510016">
                <ele>162.0</ele>
                <time>2020-08-28T11:12:32.000Z</time>
                <name>Trackpoint 2931</name>
            </trkpt>
            <trkpt lat="49.9947712" lon="9.7509144">
                <ele>162.0</ele>
                <time>2020-08-28T11:12:33.000Z</time>
                <name>Trackpoint 2932</name>
            </trkpt>
            <trkpt lat="49.9948032" lon="9.75076">
                <ele>163.0</ele>
                <time>2020-08-28T11:12:35.000Z</time>
                <name>Trackpoint 2933</name>
            </trkpt>
            <trkpt lat="49.9948448" lon="9.7506064">
                <ele>162.0</ele>
                <time>2020-08-28T11:12:37.000Z</time>
                <name>Trackpoint 2934</name>
            </trkpt>
            <trkpt lat="49.9948832" lon="9.7504552">
                <ele>163.0</ele>
                <time>2020-08-28T11:12:39.000Z</time>
                <name>Trackpoint 2935</name>
            </trkpt>
            <trkpt lat="49.9949216" lon="9.7503032">
                <ele>164.0</ele>
                <time>2020-08-28T11:12:41.000Z</time>
                <name>Trackpoint 2936</name>
            </trkpt>
            <trkpt lat="49.9949696" lon="9.7501496">
                <ele>165.0</ele>
                <time>2020-08-28T11:12:43.000Z</time>
                <name>Trackpoint 2937</name>
            </trkpt>
            <trkpt lat="49.9950144" lon="9.7499864">
                <ele>164.0</ele>
                <time>2020-08-28T11:12:45.000Z</time>
                <name>Trackpoint 2938</name>
            </trkpt>
            <trkpt lat="49.9950688" lon="9.7498216">
                <ele>163.0</ele>
                <time>2020-08-28T11:12:47.000Z</time>
                <name>Trackpoint 2939</name>
            </trkpt>
            <trkpt lat="49.9951136" lon="9.7496704">
                <ele>164.0</ele>
                <time>2020-08-28T11:12:49.000Z</time>
                <name>Trackpoint 2940</name>
            </trkpt>
            <trkpt lat="49.995168" lon="9.7495136">
                <ele>165.0</ele>
                <time>2020-08-28T11:12:51.000Z</time>
                <name>Trackpoint 2941</name>
            </trkpt>
            <trkpt lat="49.9952288" lon="9.7493464">
                <ele>164.0</ele>
                <time>2020-08-28T11:12:53.000Z</time>
                <name>Trackpoint 2942</name>
            </trkpt>
            <trkpt lat="49.9952736" lon="9.7491816">
                <ele>163.0</ele>
                <time>2020-08-28T11:12:55.000Z</time>
                <name>Trackpoint 2943</name>
            </trkpt>
            <trkpt lat="49.995328" lon="9.7490104">
                <ele>162.0</ele>
                <time>2020-08-28T11:12:57.000Z</time>
                <name>Trackpoint 2944</name>
            </trkpt>
            <trkpt lat="49.9953536" lon="9.7489208">
                <ele>161.0</ele>
                <time>2020-08-28T11:12:58.000Z</time>
                <name>Trackpoint 2945</name>
            </trkpt>
            <trkpt lat="49.995376" lon="9.7488248">
                <ele>160.0</ele>
                <time>2020-08-28T11:12:59.000Z</time>
                <name>Trackpoint 2946</name>
            </trkpt>
            <trkpt lat="49.995408" lon="9.7487296">
                <ele>160.0</ele>
                <time>2020-08-28T11:13:00.000Z</time>
                <name>Trackpoint 2947</name>
            </trkpt>
            <trkpt lat="49.9954336" lon="9.7486384">
                <ele>160.0</ele>
                <time>2020-08-28T11:13:01.000Z</time>
                <name>Trackpoint 2948</name>
            </trkpt>
            <trkpt lat="49.9954592" lon="9.7485448">
                <ele>160.0</ele>
                <time>2020-08-28T11:13:02.000Z</time>
                <name>Trackpoint 2949</name>
            </trkpt>
            <trkpt lat="49.9954848" lon="9.7484528">
                <ele>160.0</ele>
                <time>2020-08-28T11:13:03.000Z</time>
                <name>Trackpoint 2950</name>
            </trkpt>
            <trkpt lat="49.9955264" lon="9.7482792">
                <ele>161.0</ele>
                <time>2020-08-28T11:13:05.000Z</time>
                <name>Trackpoint 2951</name>
            </trkpt>
            <trkpt lat="49.9955584" lon="9.748108">
                <ele>159.0</ele>
                <time>2020-08-28T11:13:07.000Z</time>
                <name>Trackpoint 2952</name>
            </trkpt>
            <trkpt lat="49.9955968" lon="9.7479488">
                <ele>159.0</ele>
                <time>2020-08-28T11:13:09.000Z</time>
                <name>Trackpoint 2953</name>
            </trkpt>
            <trkpt lat="49.995632" lon="9.7477912">
                <ele>159.0</ele>
                <time>2020-08-28T11:13:11.000Z</time>
                <name>Trackpoint 2954</name>
            </trkpt>
            <trkpt lat="49.9956672" lon="9.7476304">
                <ele>159.0</ele>
                <time>2020-08-28T11:13:13.000Z</time>
                <name>Trackpoint 2955</name>
            </trkpt>
            <trkpt lat="49.9957056" lon="9.7474672">
                <ele>159.0</ele>
                <time>2020-08-28T11:13:15.000Z</time>
                <name>Trackpoint 2956</name>
            </trkpt>
            <trkpt lat="49.995744" lon="9.7473032">
                <ele>160.0</ele>
                <time>2020-08-28T11:13:17.000Z</time>
                <name>Trackpoint 2957</name>
            </trkpt>
            <trkpt lat="49.9957728" lon="9.747144">
                <ele>160.0</ele>
                <time>2020-08-28T11:13:19.000Z</time>
                <name>Trackpoint 2958</name>
            </trkpt>
            <trkpt lat="49.9958016" lon="9.7469816">
                <ele>160.0</ele>
                <time>2020-08-28T11:13:21.000Z</time>
                <name>Trackpoint 2959</name>
            </trkpt>
            <trkpt lat="49.9958336" lon="9.7468168">
                <ele>159.0</ele>
                <time>2020-08-28T11:13:23.000Z</time>
                <name>Trackpoint 2960</name>
            </trkpt>
            <trkpt lat="49.9958656" lon="9.746652">
                <ele>159.0</ele>
                <time>2020-08-28T11:13:25.000Z</time>
                <name>Trackpoint 2961</name>
            </trkpt>
            <trkpt lat="49.9958912" lon="9.7464864">
                <ele>160.0</ele>
                <time>2020-08-28T11:13:27.000Z</time>
                <name>Trackpoint 2962</name>
            </trkpt>
            <trkpt lat="49.9959168" lon="9.74632">
                <ele>160.0</ele>
                <time>2020-08-28T11:13:29.000Z</time>
                <name>Trackpoint 2963</name>
            </trkpt>
            <trkpt lat="49.995952" lon="9.746152">
                <ele>160.0</ele>
                <time>2020-08-28T11:13:31.000Z</time>
                <name>Trackpoint 2964</name>
            </trkpt>
            <trkpt lat="49.9959712" lon="9.7459848">
                <ele>159.0</ele>
                <time>2020-08-28T11:13:33.000Z</time>
                <name>Trackpoint 2965</name>
            </trkpt>
            <trkpt lat="49.9959872" lon="9.7458136">
                <ele>159.0</ele>
                <time>2020-08-28T11:13:35.000Z</time>
                <name>Trackpoint 2966</name>
            </trkpt>
            <trkpt lat="49.9960096" lon="9.7456552">
                <ele>159.0</ele>
                <time>2020-08-28T11:13:37.000Z</time>
                <name>Trackpoint 2967</name>
            </trkpt>
            <trkpt lat="49.9960352" lon="9.7454928">
                <ele>160.0</ele>
                <time>2020-08-28T11:13:39.000Z</time>
                <name>Trackpoint 2968</name>
            </trkpt>
            <trkpt lat="49.9960704" lon="9.7453336">
                <ele>160.0</ele>
                <time>2020-08-28T11:13:41.000Z</time>
                <name>Trackpoint 2969</name>
            </trkpt>
            <trkpt lat="49.9961056" lon="9.745176">
                <ele>160.0</ele>
                <time>2020-08-28T11:13:43.000Z</time>
                <name>Trackpoint 2970</name>
            </trkpt>
            <trkpt lat="49.9961344" lon="9.7450184">
                <ele>160.0</ele>
                <time>2020-08-28T11:13:45.000Z</time>
                <name>Trackpoint 2971</name>
            </trkpt>
            <trkpt lat="49.99616" lon="9.7448528">
                <ele>160.0</ele>
                <time>2020-08-28T11:13:47.000Z</time>
                <name>Trackpoint 2972</name>
            </trkpt>
            <trkpt lat="49.9961824" lon="9.7446832">
                <ele>160.0</ele>
                <time>2020-08-28T11:13:49.000Z</time>
                <name>Trackpoint 2973</name>
            </trkpt>
            <trkpt lat="49.9962016" lon="9.7445152">
                <ele>160.0</ele>
                <time>2020-08-28T11:13:51.000Z</time>
                <name>Trackpoint 2974</name>
            </trkpt>
            <trkpt lat="49.996224" lon="9.7443464">
                <ele>160.0</ele>
                <time>2020-08-28T11:13:53.000Z</time>
                <name>Trackpoint 2975</name>
            </trkpt>
            <trkpt lat="49.9962464" lon="9.7441784">
                <ele>159.0</ele>
                <time>2020-08-28T11:13:55.000Z</time>
                <name>Trackpoint 2976</name>
            </trkpt>
            <trkpt lat="49.9962624" lon="9.744008">
                <ele>159.0</ele>
                <time>2020-08-28T11:13:57.000Z</time>
                <name>Trackpoint 2977</name>
            </trkpt>
            <trkpt lat="49.9962848" lon="9.7438384">
                <ele>159.0</ele>
                <time>2020-08-28T11:13:59.000Z</time>
                <name>Trackpoint 2978</name>
            </trkpt>
            <trkpt lat="49.9963104" lon="9.7436704">
                <ele>158.0</ele>
                <time>2020-08-28T11:14:01.000Z</time>
                <name>Trackpoint 2979</name>
            </trkpt>
            <trkpt lat="49.9963328" lon="9.7435032">
                <ele>158.0</ele>
                <time>2020-08-28T11:14:03.000Z</time>
                <name>Trackpoint 2980</name>
            </trkpt>
            <trkpt lat="49.9963488" lon="9.7433344">
                <ele>158.0</ele>
                <time>2020-08-28T11:14:05.000Z</time>
                <name>Trackpoint 2981</name>
            </trkpt>
            <trkpt lat="49.9963712" lon="9.7431832">
                <ele>158.0</ele>
                <time>2020-08-28T11:14:07.000Z</time>
                <name>Trackpoint 2982</name>
            </trkpt>
            <trkpt lat="49.9963872" lon="9.7430936">
                <ele>158.0</ele>
                <time>2020-08-28T11:14:09.000Z</time>
                <name>Trackpoint 2983</name>
            </trkpt>
            <trkpt lat="49.9963904" lon="9.743036">
                <ele>159.0</ele>
                <time>2020-08-28T11:15:37.000Z</time>
                <name>Trackpoint 2984</name>
            </trkpt>
            <trkpt lat="49.9964" lon="9.7429416">
                <ele>159.0</ele>
                <time>2020-08-28T11:15:45.000Z</time>
                <name>Trackpoint 2985</name>
            </trkpt>
            <trkpt lat="49.9964128" lon="9.7428216">
                <ele>159.0</ele>
                <time>2020-08-28T11:15:48.000Z</time>
                <name>Trackpoint 2986</name>
            </trkpt>
            <trkpt lat="49.9964288" lon="9.7427152">
                <ele>159.0</ele>
                <time>2020-08-28T11:15:50.000Z</time>
                <name>Trackpoint 2987</name>
            </trkpt>
            <trkpt lat="49.9964448" lon="9.742592">
                <ele>159.0</ele>
                <time>2020-08-28T11:15:52.000Z</time>
                <name>Trackpoint 2988</name>
            </trkpt>
            <trkpt lat="49.9964608" lon="9.7424584">
                <ele>159.0</ele>
                <time>2020-08-28T11:15:54.000Z</time>
                <name>Trackpoint 2989</name>
            </trkpt>
            <trkpt lat="49.99648" lon="9.7423248">
                <ele>159.0</ele>
                <time>2020-08-28T11:15:56.000Z</time>
                <name>Trackpoint 2990</name>
            </trkpt>
            <trkpt lat="49.9964896" lon="9.7421904">
                <ele>159.0</ele>
                <time>2020-08-28T11:15:58.000Z</time>
                <name>Trackpoint 2991</name>
            </trkpt>
            <trkpt lat="49.996512" lon="9.74206">
                <ele>159.0</ele>
                <time>2020-08-28T11:16:00.000Z</time>
                <name>Trackpoint 2992</name>
            </trkpt>
            <trkpt lat="49.996528" lon="9.741932">
                <ele>159.0</ele>
                <time>2020-08-28T11:16:02.000Z</time>
                <name>Trackpoint 2993</name>
            </trkpt>
            <trkpt lat="49.996544" lon="9.741808">
                <ele>159.0</ele>
                <time>2020-08-28T11:16:04.000Z</time>
                <name>Trackpoint 2994</name>
            </trkpt>
            <trkpt lat="49.99656" lon="9.7416912">
                <ele>159.0</ele>
                <time>2020-08-28T11:16:06.000Z</time>
                <name>Trackpoint 2995</name>
            </trkpt>
            <trkpt lat="49.996576" lon="9.741564">
                <ele>159.0</ele>
                <time>2020-08-28T11:16:08.000Z</time>
                <name>Trackpoint 2996</name>
            </trkpt>
            <trkpt lat="49.9965888" lon="9.7414248">
                <ele>159.0</ele>
                <time>2020-08-28T11:16:10.000Z</time>
                <name>Trackpoint 2997</name>
            </trkpt>
            <trkpt lat="49.9966016" lon="9.741288">
                <ele>159.0</ele>
                <time>2020-08-28T11:16:12.000Z</time>
                <name>Trackpoint 2998</name>
            </trkpt>
            <trkpt lat="49.996624" lon="9.7411416">
                <ele>159.0</ele>
                <time>2020-08-28T11:16:14.000Z</time>
                <name>Trackpoint 2999</name>
            </trkpt>
            <trkpt lat="49.9966496" lon="9.7409912">
                <ele>159.0</ele>
                <time>2020-08-28T11:16:16.000Z</time>
                <name>Trackpoint 3000</name>
            </trkpt>
            <trkpt lat="49.9966656" lon="9.7408304">
                <ele>159.0</ele>
                <time>2020-08-28T11:16:18.000Z</time>
                <name>Trackpoint 3001</name>
            </trkpt>
            <trkpt lat="49.996688" lon="9.7406704">
                <ele>159.0</ele>
                <time>2020-08-28T11:16:20.000Z</time>
                <name>Trackpoint 3002</name>
            </trkpt>
            <trkpt lat="49.99672" lon="9.740512">
                <ele>160.0</ele>
                <time>2020-08-28T11:16:22.000Z</time>
                <name>Trackpoint 3003</name>
            </trkpt>
            <trkpt lat="49.9967424" lon="9.7403744">
                <ele>160.0</ele>
                <time>2020-08-28T11:16:24.000Z</time>
                <name>Trackpoint 3004</name>
            </trkpt>
            <trkpt lat="49.9967648" lon="9.7402664">
                <ele>160.0</ele>
                <time>2020-08-28T11:16:26.000Z</time>
                <name>Trackpoint 3005</name>
            </trkpt>
            <trkpt lat="49.9967872" lon="9.7401664">
                <ele>160.0</ele>
                <time>2020-08-28T11:16:28.000Z</time>
                <name>Trackpoint 3006</name>
            </trkpt>
            <trkpt lat="49.9968032" lon="9.7400512">
                <ele>160.0</ele>
                <time>2020-08-28T11:16:30.000Z</time>
                <name>Trackpoint 3007</name>
            </trkpt>
            <trkpt lat="49.9968192" lon="9.7399416">
                <ele>160.0</ele>
                <time>2020-08-28T11:16:32.000Z</time>
                <name>Trackpoint 3008</name>
            </trkpt>
            <trkpt lat="49.9968288" lon="9.7398144">
                <ele>160.0</ele>
                <time>2020-08-28T11:16:34.000Z</time>
                <name>Trackpoint 3009</name>
            </trkpt>
            <trkpt lat="49.9968256" lon="9.7396544">
                <ele>159.0</ele>
                <time>2020-08-28T11:16:36.000Z</time>
                <name>Trackpoint 3010</name>
            </trkpt>
            <trkpt lat="49.9968384" lon="9.7394888">
                <ele>159.0</ele>
                <time>2020-08-28T11:16:38.000Z</time>
                <name>Trackpoint 3011</name>
            </trkpt>
            <trkpt lat="49.9968672" lon="9.73932">
                <ele>158.0</ele>
                <time>2020-08-28T11:16:40.000Z</time>
                <name>Trackpoint 3012</name>
            </trkpt>
            <trkpt lat="49.9968992" lon="9.7391552">
                <ele>157.0</ele>
                <time>2020-08-28T11:16:42.000Z</time>
                <name>Trackpoint 3013</name>
            </trkpt>
            <trkpt lat="49.9969248" lon="9.7389896">
                <ele>157.0</ele>
                <time>2020-08-28T11:16:44.000Z</time>
                <name>Trackpoint 3014</name>
            </trkpt>
            <trkpt lat="49.9969408" lon="9.7388248">
                <ele>156.0</ele>
                <time>2020-08-28T11:16:46.000Z</time>
                <name>Trackpoint 3015</name>
            </trkpt>
            <trkpt lat="49.9969632" lon="9.7386648">
                <ele>156.0</ele>
                <time>2020-08-28T11:16:48.000Z</time>
                <name>Trackpoint 3016</name>
            </trkpt>
            <trkpt lat="49.9969824" lon="9.738508">
                <ele>156.0</ele>
                <time>2020-08-28T11:16:50.000Z</time>
                <name>Trackpoint 3017</name>
            </trkpt>
            <trkpt lat="49.9970016" lon="9.7383632">
                <ele>156.0</ele>
                <time>2020-08-28T11:16:52.000Z</time>
                <name>Trackpoint 3018</name>
            </trkpt>
            <trkpt lat="49.9970208" lon="9.7382224">
                <ele>156.0</ele>
                <time>2020-08-28T11:16:54.000Z</time>
                <name>Trackpoint 3019</name>
            </trkpt>
            <trkpt lat="49.9970368" lon="9.7380816">
                <ele>156.0</ele>
                <time>2020-08-28T11:16:56.000Z</time>
                <name>Trackpoint 3020</name>
            </trkpt>
            <trkpt lat="49.997056" lon="9.7379312">
                <ele>156.0</ele>
                <time>2020-08-28T11:16:58.000Z</time>
                <name>Trackpoint 3021</name>
            </trkpt>
            <trkpt lat="49.9970784" lon="9.7377768">
                <ele>155.0</ele>
                <time>2020-08-28T11:17:00.000Z</time>
                <name>Trackpoint 3022</name>
            </trkpt>
            <trkpt lat="49.9971008" lon="9.73762">
                <ele>155.0</ele>
                <time>2020-08-28T11:17:02.000Z</time>
                <name>Trackpoint 3023</name>
            </trkpt>
            <trkpt lat="49.99712" lon="9.7374632">
                <ele>155.0</ele>
                <time>2020-08-28T11:17:04.000Z</time>
                <name>Trackpoint 3024</name>
            </trkpt>
            <trkpt lat="49.997136" lon="9.7373016">
                <ele>155.0</ele>
                <time>2020-08-28T11:17:06.000Z</time>
                <name>Trackpoint 3025</name>
            </trkpt>
            <trkpt lat="49.9971584" lon="9.7371384">
                <ele>156.0</ele>
                <time>2020-08-28T11:17:08.000Z</time>
                <name>Trackpoint 3026</name>
            </trkpt>
            <trkpt lat="49.9971808" lon="9.7369768">
                <ele>156.0</ele>
                <time>2020-08-28T11:17:10.000Z</time>
                <name>Trackpoint 3027</name>
            </trkpt>
            <trkpt lat="49.9972" lon="9.7368136">
                <ele>156.0</ele>
                <time>2020-08-28T11:17:12.000Z</time>
                <name>Trackpoint 3028</name>
            </trkpt>
            <trkpt lat="49.997216" lon="9.736644">
                <ele>156.0</ele>
                <time>2020-08-28T11:17:14.000Z</time>
                <name>Trackpoint 3029</name>
            </trkpt>
            <trkpt lat="49.9972352" lon="9.7364752">
                <ele>157.0</ele>
                <time>2020-08-28T11:17:16.000Z</time>
                <name>Trackpoint 3030</name>
            </trkpt>
            <trkpt lat="49.9972544" lon="9.7363064">
                <ele>157.0</ele>
                <time>2020-08-28T11:17:18.000Z</time>
                <name>Trackpoint 3031</name>
            </trkpt>
            <trkpt lat="49.9972736" lon="9.7361384">
                <ele>158.0</ele>
                <time>2020-08-28T11:17:20.000Z</time>
                <name>Trackpoint 3032</name>
            </trkpt>
            <trkpt lat="49.9972928" lon="9.7359712">
                <ele>158.0</ele>
                <time>2020-08-28T11:17:22.000Z</time>
                <name>Trackpoint 3033</name>
            </trkpt>
            <trkpt lat="49.997312" lon="9.7358104">
                <ele>158.0</ele>
                <time>2020-08-28T11:17:24.000Z</time>
                <name>Trackpoint 3034</name>
            </trkpt>
            <trkpt lat="49.9973312" lon="9.735648">
                <ele>158.0</ele>
                <time>2020-08-28T11:17:26.000Z</time>
                <name>Trackpoint 3035</name>
            </trkpt>
            <trkpt lat="49.9973536" lon="9.7354872">
                <ele>158.0</ele>
                <time>2020-08-28T11:17:28.000Z</time>
                <name>Trackpoint 3036</name>
            </trkpt>
            <trkpt lat="49.9973728" lon="9.7353248">
                <ele>158.0</ele>
                <time>2020-08-28T11:17:30.000Z</time>
                <name>Trackpoint 3037</name>
            </trkpt>
            <trkpt lat="49.9973952" lon="9.7351568">
                <ele>158.0</ele>
                <time>2020-08-28T11:17:32.000Z</time>
                <name>Trackpoint 3038</name>
            </trkpt>
            <trkpt lat="49.9974144" lon="9.7349784">
                <ele>157.0</ele>
                <time>2020-08-28T11:17:34.000Z</time>
                <name>Trackpoint 3039</name>
            </trkpt>
            <trkpt lat="49.9974368" lon="9.7348096">
                <ele>157.0</ele>
                <time>2020-08-28T11:17:36.000Z</time>
                <name>Trackpoint 3040</name>
            </trkpt>
            <trkpt lat="49.9974592" lon="9.7346432">
                <ele>157.0</ele>
                <time>2020-08-28T11:17:38.000Z</time>
                <name>Trackpoint 3041</name>
            </trkpt>
            <trkpt lat="49.9974784" lon="9.7344688">
                <ele>157.0</ele>
                <time>2020-08-28T11:17:40.000Z</time>
                <name>Trackpoint 3042</name>
            </trkpt>
            <trkpt lat="49.9975008" lon="9.734292">
                <ele>156.0</ele>
                <time>2020-08-28T11:17:42.000Z</time>
                <name>Trackpoint 3043</name>
            </trkpt>
            <trkpt lat="49.9975168" lon="9.7342016">
                <ele>156.0</ele>
                <time>2020-08-28T11:17:43.000Z</time>
                <name>Trackpoint 3044</name>
            </trkpt>
            <trkpt lat="49.997536" lon="9.7340272">
                <ele>156.0</ele>
                <time>2020-08-28T11:17:45.000Z</time>
                <name>Trackpoint 3045</name>
            </trkpt>
            <trkpt lat="49.9975552" lon="9.7338552">
                <ele>156.0</ele>
                <time>2020-08-28T11:17:47.000Z</time>
                <name>Trackpoint 3046</name>
            </trkpt>
            <trkpt lat="49.9975808" lon="9.7336904">
                <ele>156.0</ele>
                <time>2020-08-28T11:17:49.000Z</time>
                <name>Trackpoint 3047</name>
            </trkpt>
            <trkpt lat="49.9976032" lon="9.7335256">
                <ele>156.0</ele>
                <time>2020-08-28T11:17:51.000Z</time>
                <name>Trackpoint 3048</name>
            </trkpt>
            <trkpt lat="49.9976224" lon="9.7333616">
                <ele>156.0</ele>
                <time>2020-08-28T11:17:53.000Z</time>
                <name>Trackpoint 3049</name>
            </trkpt>
            <trkpt lat="49.9976416" lon="9.7331936">
                <ele>156.0</ele>
                <time>2020-08-28T11:17:55.000Z</time>
                <name>Trackpoint 3050</name>
            </trkpt>
            <trkpt lat="49.9976576" lon="9.7330264">
                <ele>157.0</ele>
                <time>2020-08-28T11:17:57.000Z</time>
                <name>Trackpoint 3051</name>
            </trkpt>
            <trkpt lat="49.9976768" lon="9.7328552">
                <ele>157.0</ele>
                <time>2020-08-28T11:17:59.000Z</time>
                <name>Trackpoint 3052</name>
            </trkpt>
            <trkpt lat="49.99768" lon="9.7326848">
                <ele>157.0</ele>
                <time>2020-08-28T11:18:01.000Z</time>
                <name>Trackpoint 3053</name>
            </trkpt>
            <trkpt lat="49.9976896" lon="9.7325136">
                <ele>157.0</ele>
                <time>2020-08-28T11:18:03.000Z</time>
                <name>Trackpoint 3054</name>
            </trkpt>
            <trkpt lat="49.9976928" lon="9.7323416">
                <ele>157.0</ele>
                <time>2020-08-28T11:18:05.000Z</time>
                <name>Trackpoint 3055</name>
            </trkpt>
            <trkpt lat="49.9976928" lon="9.732172">
                <ele>157.0</ele>
                <time>2020-08-28T11:18:07.000Z</time>
                <name>Trackpoint 3056</name>
            </trkpt>
            <trkpt lat="49.997696" lon="9.7319984">
                <ele>157.0</ele>
                <time>2020-08-28T11:18:09.000Z</time>
                <name>Trackpoint 3057</name>
            </trkpt>
            <trkpt lat="49.9976992" lon="9.7318264">
                <ele>157.0</ele>
                <time>2020-08-28T11:18:11.000Z</time>
                <name>Trackpoint 3058</name>
            </trkpt>
            <trkpt lat="49.9976992" lon="9.7316512">
                <ele>157.0</ele>
                <time>2020-08-28T11:18:13.000Z</time>
                <name>Trackpoint 3059</name>
            </trkpt>
            <trkpt lat="49.997712" lon="9.73148">
                <ele>157.0</ele>
                <time>2020-08-28T11:18:15.000Z</time>
                <name>Trackpoint 3060</name>
            </trkpt>
            <trkpt lat="49.997728" lon="9.7313048">
                <ele>156.0</ele>
                <time>2020-08-28T11:18:17.000Z</time>
                <name>Trackpoint 3061</name>
            </trkpt>
            <trkpt lat="49.997744" lon="9.731136">
                <ele>156.0</ele>
                <time>2020-08-28T11:18:19.000Z</time>
                <name>Trackpoint 3062</name>
            </trkpt>
            <trkpt lat="49.99776" lon="9.7309688">
                <ele>156.0</ele>
                <time>2020-08-28T11:18:21.000Z</time>
                <name>Trackpoint 3063</name>
            </trkpt>
            <trkpt lat="49.9977792" lon="9.7308056">
                <ele>156.0</ele>
                <time>2020-08-28T11:18:23.000Z</time>
                <name>Trackpoint 3064</name>
            </trkpt>
            <trkpt lat="49.9978016" lon="9.7306344">
                <ele>156.0</ele>
                <time>2020-08-28T11:18:25.000Z</time>
                <name>Trackpoint 3065</name>
            </trkpt>
            <trkpt lat="49.9978208" lon="9.7304632">
                <ele>156.0</ele>
                <time>2020-08-28T11:18:27.000Z</time>
                <name>Trackpoint 3066</name>
            </trkpt>
            <trkpt lat="49.9978336" lon="9.7302888">
                <ele>156.0</ele>
                <time>2020-08-28T11:18:29.000Z</time>
                <name>Trackpoint 3067</name>
            </trkpt>
            <trkpt lat="49.9978528" lon="9.730112">
                <ele>156.0</ele>
                <time>2020-08-28T11:18:31.000Z</time>
                <name>Trackpoint 3068</name>
            </trkpt>
            <trkpt lat="49.9978592" lon="9.7300216">
                <ele>156.0</ele>
                <time>2020-08-28T11:18:32.000Z</time>
                <name>Trackpoint 3069</name>
            </trkpt>
            <trkpt lat="49.9978688" lon="9.729932">
                <ele>156.0</ele>
                <time>2020-08-28T11:18:33.000Z</time>
                <name>Trackpoint 3070</name>
            </trkpt>
            <trkpt lat="49.9978752" lon="9.7298416">
                <ele>156.0</ele>
                <time>2020-08-28T11:18:34.000Z</time>
                <name>Trackpoint 3071</name>
            </trkpt>
            <trkpt lat="49.9978816" lon="9.7297512">
                <ele>156.0</ele>
                <time>2020-08-28T11:18:35.000Z</time>
                <name>Trackpoint 3072</name>
            </trkpt>
            <trkpt lat="49.9978976" lon="9.7295768">
                <ele>156.0</ele>
                <time>2020-08-28T11:18:37.000Z</time>
                <name>Trackpoint 3073</name>
            </trkpt>
            <trkpt lat="49.9979168" lon="9.7294104">
                <ele>156.0</ele>
                <time>2020-08-28T11:18:39.000Z</time>
                <name>Trackpoint 3074</name>
            </trkpt>
            <trkpt lat="49.997936" lon="9.7292384">
                <ele>156.0</ele>
                <time>2020-08-28T11:18:41.000Z</time>
                <name>Trackpoint 3075</name>
            </trkpt>
            <trkpt lat="49.997952" lon="9.7290696">
                <ele>156.0</ele>
                <time>2020-08-28T11:18:43.000Z</time>
                <name>Trackpoint 3076</name>
            </trkpt>
            <trkpt lat="49.9979712" lon="9.7288984">
                <ele>156.0</ele>
                <time>2020-08-28T11:18:45.000Z</time>
                <name>Trackpoint 3077</name>
            </trkpt>
            <trkpt lat="49.9979872" lon="9.728752">
                <ele>156.0</ele>
                <time>2020-08-28T11:18:47.000Z</time>
                <name>Trackpoint 3078</name>
            </trkpt>
            <trkpt lat="49.998016" lon="9.7285808">
                <ele>156.0</ele>
                <time>2020-08-28T11:18:49.000Z</time>
                <name>Trackpoint 3079</name>
            </trkpt>
            <trkpt lat="49.9980288" lon="9.7284896">
                <ele>156.0</ele>
                <time>2020-08-28T11:18:50.000Z</time>
                <name>Trackpoint 3080</name>
            </trkpt>
            <trkpt lat="49.9980512" lon="9.728316">
                <ele>156.0</ele>
                <time>2020-08-28T11:18:52.000Z</time>
                <name>Trackpoint 3081</name>
            </trkpt>
            <trkpt lat="49.9980736" lon="9.728144">
                <ele>157.0</ele>
                <time>2020-08-28T11:18:54.000Z</time>
                <name>Trackpoint 3082</name>
            </trkpt>
            <trkpt lat="49.9980992" lon="9.727968">
                <ele>156.0</ele>
                <time>2020-08-28T11:18:56.000Z</time>
                <name>Trackpoint 3083</name>
            </trkpt>
            <trkpt lat="49.9981152" lon="9.7278784">
                <ele>156.0</ele>
                <time>2020-08-28T11:18:57.000Z</time>
                <name>Trackpoint 3084</name>
            </trkpt>
            <trkpt lat="49.9981376" lon="9.7277">
                <ele>156.0</ele>
                <time>2020-08-28T11:18:59.000Z</time>
                <name>Trackpoint 3085</name>
            </trkpt>
            <trkpt lat="49.9981536" lon="9.7276088">
                <ele>156.0</ele>
                <time>2020-08-28T11:19:00.000Z</time>
                <name>Trackpoint 3086</name>
            </trkpt>
            <trkpt lat="49.998176" lon="9.7274312">
                <ele>156.0</ele>
                <time>2020-08-28T11:19:02.000Z</time>
                <name>Trackpoint 3087</name>
            </trkpt>
            <trkpt lat="49.998208" lon="9.727252">
                <ele>156.0</ele>
                <time>2020-08-28T11:19:04.000Z</time>
                <name>Trackpoint 3088</name>
            </trkpt>
            <trkpt lat="49.9982208" lon="9.7271608">
                <ele>157.0</ele>
                <time>2020-08-28T11:19:05.000Z</time>
                <name>Trackpoint 3089</name>
            </trkpt>
            <trkpt lat="49.9982368" lon="9.7270696">
                <ele>157.0</ele>
                <time>2020-08-28T11:19:06.000Z</time>
                <name>Trackpoint 3090</name>
            </trkpt>
            <trkpt lat="49.998256" lon="9.7269784">
                <ele>157.0</ele>
                <time>2020-08-28T11:19:07.000Z</time>
                <name>Trackpoint 3091</name>
            </trkpt>
            <trkpt lat="49.9982688" lon="9.7268832">
                <ele>157.0</ele>
                <time>2020-08-28T11:19:08.000Z</time>
                <name>Trackpoint 3092</name>
            </trkpt>
            <trkpt lat="49.9982848" lon="9.7267912">
                <ele>157.0</ele>
                <time>2020-08-28T11:19:09.000Z</time>
                <name>Trackpoint 3093</name>
            </trkpt>
            <trkpt lat="49.998304" lon="9.7267016">
                <ele>157.0</ele>
                <time>2020-08-28T11:19:10.000Z</time>
                <name>Trackpoint 3094</name>
            </trkpt>
            <trkpt lat="49.99832" lon="9.726612">
                <ele>157.0</ele>
                <time>2020-08-28T11:19:11.000Z</time>
                <name>Trackpoint 3095</name>
            </trkpt>
            <trkpt lat="49.998336" lon="9.7265216">
                <ele>157.0</ele>
                <time>2020-08-28T11:19:12.000Z</time>
                <name>Trackpoint 3096</name>
            </trkpt>
            <trkpt lat="49.9983552" lon="9.726432">
                <ele>157.0</ele>
                <time>2020-08-28T11:19:13.000Z</time>
                <name>Trackpoint 3097</name>
            </trkpt>
            <trkpt lat="49.9983744" lon="9.7263432">
                <ele>156.0</ele>
                <time>2020-08-28T11:19:14.000Z</time>
                <name>Trackpoint 3098</name>
            </trkpt>
            <trkpt lat="49.9983936" lon="9.7262536">
                <ele>156.0</ele>
                <time>2020-08-28T11:19:15.000Z</time>
                <name>Trackpoint 3099</name>
            </trkpt>
            <trkpt lat="49.9984128" lon="9.7261648">
                <ele>156.0</ele>
                <time>2020-08-28T11:19:16.000Z</time>
                <name>Trackpoint 3100</name>
            </trkpt>
            <trkpt lat="49.9984352" lon="9.7260768">
                <ele>156.0</ele>
                <time>2020-08-28T11:19:17.000Z</time>
                <name>Trackpoint 3101</name>
            </trkpt>
            <trkpt lat="49.9984768" lon="9.7259032">
                <ele>156.0</ele>
                <time>2020-08-28T11:19:19.000Z</time>
                <name>Trackpoint 3102</name>
            </trkpt>
            <trkpt lat="49.998496" lon="9.7258152">
                <ele>156.0</ele>
                <time>2020-08-28T11:19:20.000Z</time>
                <name>Trackpoint 3103</name>
            </trkpt>
            <trkpt lat="49.998544" lon="9.7256496">
                <ele>156.0</ele>
                <time>2020-08-28T11:19:22.000Z</time>
                <name>Trackpoint 3104</name>
            </trkpt>
            <trkpt lat="49.998592" lon="9.7254848">
                <ele>156.0</ele>
                <time>2020-08-28T11:19:24.000Z</time>
                <name>Trackpoint 3105</name>
            </trkpt>
            <trkpt lat="49.9986144" lon="9.7253968">
                <ele>156.0</ele>
                <time>2020-08-28T11:19:25.000Z</time>
                <name>Trackpoint 3106</name>
            </trkpt>
            <trkpt lat="49.9986656" lon="9.7252256">
                <ele>156.0</ele>
                <time>2020-08-28T11:19:27.000Z</time>
                <name>Trackpoint 3107</name>
            </trkpt>
            <trkpt lat="49.9987104" lon="9.7250568">
                <ele>156.0</ele>
                <time>2020-08-28T11:19:29.000Z</time>
                <name>Trackpoint 3108</name>
            </trkpt>
            <trkpt lat="49.9987616" lon="9.7248888">
                <ele>156.0</ele>
                <time>2020-08-28T11:19:31.000Z</time>
                <name>Trackpoint 3109</name>
            </trkpt>
            <trkpt lat="49.9988128" lon="9.7247288">
                <ele>156.0</ele>
                <time>2020-08-28T11:19:33.000Z</time>
                <name>Trackpoint 3110</name>
            </trkpt>
            <trkpt lat="49.9988672" lon="9.7245664">
                <ele>156.0</ele>
                <time>2020-08-28T11:19:35.000Z</time>
                <name>Trackpoint 3111</name>
            </trkpt>
            <trkpt lat="49.9989152" lon="9.7243984">
                <ele>156.0</ele>
                <time>2020-08-28T11:19:37.000Z</time>
                <name>Trackpoint 3112</name>
            </trkpt>
            <trkpt lat="49.9989696" lon="9.724232">
                <ele>156.0</ele>
                <time>2020-08-28T11:19:39.000Z</time>
                <name>Trackpoint 3113</name>
            </trkpt>
            <trkpt lat="49.9990208" lon="9.7240736">
                <ele>156.0</ele>
                <time>2020-08-28T11:19:41.000Z</time>
                <name>Trackpoint 3114</name>
            </trkpt>
            <trkpt lat="49.9990688" lon="9.7239152">
                <ele>156.0</ele>
                <time>2020-08-28T11:19:43.000Z</time>
                <name>Trackpoint 3115</name>
            </trkpt>
            <trkpt lat="49.99912" lon="9.72376">
                <ele>156.0</ele>
                <time>2020-08-28T11:19:45.000Z</time>
                <name>Trackpoint 3116</name>
            </trkpt>
            <trkpt lat="49.9991648" lon="9.7236072">
                <ele>156.0</ele>
                <time>2020-08-28T11:19:47.000Z</time>
                <name>Trackpoint 3117</name>
            </trkpt>
            <trkpt lat="49.9992128" lon="9.7234552">
                <ele>156.0</ele>
                <time>2020-08-28T11:19:49.000Z</time>
                <name>Trackpoint 3118</name>
            </trkpt>
            <trkpt lat="49.999264" lon="9.7233048">
                <ele>156.0</ele>
                <time>2020-08-28T11:19:51.000Z</time>
                <name>Trackpoint 3119</name>
            </trkpt>
            <trkpt lat="49.9993088" lon="9.7231448">
                <ele>156.0</ele>
                <time>2020-08-28T11:19:53.000Z</time>
                <name>Trackpoint 3120</name>
            </trkpt>
            <trkpt lat="49.9993504" lon="9.7229856">
                <ele>156.0</ele>
                <time>2020-08-28T11:19:55.000Z</time>
                <name>Trackpoint 3121</name>
            </trkpt>
            <trkpt lat="49.9994016" lon="9.7228296">
                <ele>156.0</ele>
                <time>2020-08-28T11:19:57.000Z</time>
                <name>Trackpoint 3122</name>
            </trkpt>
            <trkpt lat="49.9994432" lon="9.7226816">
                <ele>156.0</ele>
                <time>2020-08-28T11:19:59.000Z</time>
                <name>Trackpoint 3123</name>
            </trkpt>
            <trkpt lat="49.9994848" lon="9.7225376">
                <ele>156.0</ele>
                <time>2020-08-28T11:20:01.000Z</time>
                <name>Trackpoint 3124</name>
            </trkpt>
            <trkpt lat="49.9995264" lon="9.7224056">
                <ele>156.0</ele>
                <time>2020-08-28T11:20:03.000Z</time>
                <name>Trackpoint 3125</name>
            </trkpt>
            <trkpt lat="49.9995712" lon="9.7222928">
                <ele>156.0</ele>
                <time>2020-08-28T11:20:05.000Z</time>
                <name>Trackpoint 3126</name>
            </trkpt>
            <trkpt lat="49.9996064" lon="9.72218">
                <ele>156.0</ele>
                <time>2020-08-28T11:20:07.000Z</time>
                <name>Trackpoint 3127</name>
            </trkpt>
            <trkpt lat="49.9996384" lon="9.7220632">
                <ele>156.0</ele>
                <time>2020-08-28T11:20:09.000Z</time>
                <name>Trackpoint 3128</name>
            </trkpt>
            <trkpt lat="49.9996768" lon="9.7219416">
                <ele>156.0</ele>
                <time>2020-08-28T11:20:11.000Z</time>
                <name>Trackpoint 3129</name>
            </trkpt>
            <trkpt lat="49.9997152" lon="9.7218216">
                <ele>156.0</ele>
                <time>2020-08-28T11:20:13.000Z</time>
                <name>Trackpoint 3130</name>
            </trkpt>
            <trkpt lat="49.9997536" lon="9.721708">
                <ele>156.0</ele>
                <time>2020-08-28T11:20:15.000Z</time>
                <name>Trackpoint 3131</name>
            </trkpt>
            <trkpt lat="49.9997856" lon="9.7215984">
                <ele>156.0</ele>
                <time>2020-08-28T11:20:17.000Z</time>
                <name>Trackpoint 3132</name>
            </trkpt>
            <trkpt lat="49.9998208" lon="9.721488">
                <ele>156.0</ele>
                <time>2020-08-28T11:20:19.000Z</time>
                <name>Trackpoint 3133</name>
            </trkpt>
            <trkpt lat="49.9998592" lon="9.7213672">
                <ele>156.0</ele>
                <time>2020-08-28T11:20:21.000Z</time>
                <name>Trackpoint 3134</name>
            </trkpt>
            <trkpt lat="49.9998976" lon="9.7212432">
                <ele>156.0</ele>
                <time>2020-08-28T11:20:23.000Z</time>
                <name>Trackpoint 3135</name>
            </trkpt>
            <trkpt lat="49.9999328" lon="9.7211216">
                <ele>156.0</ele>
                <time>2020-08-28T11:20:25.000Z</time>
                <name>Trackpoint 3136</name>
            </trkpt>
            <trkpt lat="49.999968" lon="9.7209952">
                <ele>156.0</ele>
                <time>2020-08-28T11:20:27.000Z</time>
                <name>Trackpoint 3137</name>
            </trkpt>
            <trkpt lat="50.0000128" lon="9.720868">
                <ele>156.0</ele>
                <time>2020-08-28T11:20:29.000Z</time>
                <name>Trackpoint 3138</name>
            </trkpt>
            <trkpt lat="50.0000576" lon="9.7207272">
                <ele>156.0</ele>
                <time>2020-08-28T11:20:31.000Z</time>
                <name>Trackpoint 3139</name>
            </trkpt>
            <trkpt lat="50.0000992" lon="9.7205736">
                <ele>156.0</ele>
                <time>2020-08-28T11:20:33.000Z</time>
                <name>Trackpoint 3140</name>
            </trkpt>
            <trkpt lat="50.0001536" lon="9.720424">
                <ele>156.0</ele>
                <time>2020-08-28T11:20:35.000Z</time>
                <name>Trackpoint 3141</name>
            </trkpt>
            <trkpt lat="50.0002144" lon="9.7202768">
                <ele>156.0</ele>
                <time>2020-08-28T11:20:37.000Z</time>
                <name>Trackpoint 3142</name>
            </trkpt>
            <trkpt lat="50.0002784" lon="9.7201384">
                <ele>156.0</ele>
                <time>2020-08-28T11:20:39.000Z</time>
                <name>Trackpoint 3143</name>
            </trkpt>
            <trkpt lat="50.0003648" lon="9.72002">
                <ele>156.0</ele>
                <time>2020-08-28T11:20:41.000Z</time>
                <name>Trackpoint 3144</name>
            </trkpt>
            <trkpt lat="50.0004576" lon="9.7199136">
                <ele>156.0</ele>
                <time>2020-08-28T11:20:43.000Z</time>
                <name>Trackpoint 3145</name>
            </trkpt>
            <trkpt lat="50.0005408" lon="9.7197912">
                <ele>156.0</ele>
                <time>2020-08-28T11:20:45.000Z</time>
                <name>Trackpoint 3146</name>
            </trkpt>
            <trkpt lat="50.0006336" lon="9.719704">
                <ele>156.0</ele>
                <time>2020-08-28T11:20:47.000Z</time>
                <name>Trackpoint 3147</name>
            </trkpt>
            <trkpt lat="50.0007232" lon="9.7196184">
                <ele>156.0</ele>
                <time>2020-08-28T11:20:49.000Z</time>
                <name>Trackpoint 3148</name>
            </trkpt>
            <trkpt lat="50.0008" lon="9.719532">
                <ele>157.0</ele>
                <time>2020-08-28T11:20:51.000Z</time>
                <name>Trackpoint 3149</name>
            </trkpt>
            <trkpt lat="50.0008704" lon="9.719452">
                <ele>157.0</ele>
                <time>2020-08-28T11:20:53.000Z</time>
                <name>Trackpoint 3150</name>
            </trkpt>
            <trkpt lat="50.000928" lon="9.7193568">
                <ele>157.0</ele>
                <time>2020-08-28T11:20:55.000Z</time>
                <name>Trackpoint 3151</name>
            </trkpt>
            <trkpt lat="50.0009568" lon="9.7192672">
                <ele>157.0</ele>
                <time>2020-08-28T11:20:57.000Z</time>
                <name>Trackpoint 3152</name>
            </trkpt>
            <trkpt lat="50.000992" lon="9.7191784">
                <ele>157.0</ele>
                <time>2020-08-28T11:21:48.000Z</time>
                <name>Trackpoint 3153</name>
            </trkpt>
            <trkpt lat="50.001056" lon="9.7190768">
                <ele>158.0</ele>
                <time>2020-08-28T11:21:54.000Z</time>
                <name>Trackpoint 3154</name>
            </trkpt>
            <trkpt lat="50.00112" lon="9.7189712">
                <ele>158.0</ele>
                <time>2020-08-28T11:21:57.000Z</time>
                <name>Trackpoint 3155</name>
            </trkpt>
            <trkpt lat="50.0011744" lon="9.7188752">
                <ele>157.0</ele>
                <time>2020-08-28T11:21:59.000Z</time>
                <name>Trackpoint 3156</name>
            </trkpt>
            <trkpt lat="50.001232" lon="9.718772">
                <ele>157.0</ele>
                <time>2020-08-28T11:22:01.000Z</time>
                <name>Trackpoint 3157</name>
            </trkpt>
            <trkpt lat="50.0012928" lon="9.7186584">
                <ele>157.0</ele>
                <time>2020-08-28T11:22:03.000Z</time>
                <name>Trackpoint 3158</name>
            </trkpt>
            <trkpt lat="50.0013472" lon="9.7185248">
                <ele>157.0</ele>
                <time>2020-08-28T11:22:05.000Z</time>
                <name>Trackpoint 3159</name>
            </trkpt>
            <trkpt lat="50.0014048" lon="9.7183888">
                <ele>157.0</ele>
                <time>2020-08-28T11:22:07.000Z</time>
                <name>Trackpoint 3160</name>
            </trkpt>
            <trkpt lat="50.0014656" lon="9.7182432">
                <ele>157.0</ele>
                <time>2020-08-28T11:22:09.000Z</time>
                <name>Trackpoint 3161</name>
            </trkpt>
            <trkpt lat="50.0015168" lon="9.718088">
                <ele>157.0</ele>
                <time>2020-08-28T11:22:11.000Z</time>
                <name>Trackpoint 3162</name>
            </trkpt>
            <trkpt lat="50.0015552" lon="9.7179216">
                <ele>156.0</ele>
                <time>2020-08-28T11:22:13.000Z</time>
                <name>Trackpoint 3163</name>
            </trkpt>
            <trkpt lat="50.0015904" lon="9.7177488">
                <ele>156.0</ele>
                <time>2020-08-28T11:22:15.000Z</time>
                <name>Trackpoint 3164</name>
            </trkpt>
            <trkpt lat="50.0016032" lon="9.7176552">
                <ele>156.0</ele>
                <time>2020-08-28T11:22:16.000Z</time>
                <name>Trackpoint 3165</name>
            </trkpt>
            <trkpt lat="50.0016096" lon="9.7175576">
                <ele>155.0</ele>
                <time>2020-08-28T11:22:17.000Z</time>
                <name>Trackpoint 3166</name>
            </trkpt>
            <trkpt lat="50.0016224" lon="9.7174584">
                <ele>155.0</ele>
                <time>2020-08-28T11:22:18.000Z</time>
                <name>Trackpoint 3167</name>
            </trkpt>
            <trkpt lat="50.0016288" lon="9.7173568">
                <ele>155.0</ele>
                <time>2020-08-28T11:22:19.000Z</time>
                <name>Trackpoint 3168</name>
            </trkpt>
            <trkpt lat="50.0016352" lon="9.7172536">
                <ele>155.0</ele>
                <time>2020-08-28T11:22:20.000Z</time>
                <name>Trackpoint 3169</name>
            </trkpt>
            <trkpt lat="50.0016448" lon="9.7171472">
                <ele>155.0</ele>
                <time>2020-08-28T11:22:21.000Z</time>
                <name>Trackpoint 3170</name>
            </trkpt>
            <trkpt lat="50.0016512" lon="9.7170384">
                <ele>154.0</ele>
                <time>2020-08-28T11:22:22.000Z</time>
                <name>Trackpoint 3171</name>
            </trkpt>
            <trkpt lat="50.0016608" lon="9.7169336">
                <ele>154.0</ele>
                <time>2020-08-28T11:22:23.000Z</time>
                <name>Trackpoint 3172</name>
            </trkpt>
            <trkpt lat="50.0016672" lon="9.716828">
                <ele>154.0</ele>
                <time>2020-08-28T11:22:24.000Z</time>
                <name>Trackpoint 3173</name>
            </trkpt>
            <trkpt lat="50.00168" lon="9.716728">
                <ele>154.0</ele>
                <time>2020-08-28T11:22:25.000Z</time>
                <name>Trackpoint 3174</name>
            </trkpt>
            <trkpt lat="50.0016864" lon="9.716628">
                <ele>154.0</ele>
                <time>2020-08-28T11:22:26.000Z</time>
                <name>Trackpoint 3175</name>
            </trkpt>
            <trkpt lat="50.001696" lon="9.716532">
                <ele>154.0</ele>
                <time>2020-08-28T11:22:27.000Z</time>
                <name>Trackpoint 3176</name>
            </trkpt>
            <trkpt lat="50.0017088" lon="9.716436">
                <ele>154.0</ele>
                <time>2020-08-28T11:22:28.000Z</time>
                <name>Trackpoint 3177</name>
            </trkpt>
            <trkpt lat="50.0017248" lon="9.7163448">
                <ele>154.0</ele>
                <time>2020-08-28T11:22:29.000Z</time>
                <name>Trackpoint 3178</name>
            </trkpt>
            <trkpt lat="50.0017632" lon="9.7161768">
                <ele>155.0</ele>
                <time>2020-08-28T11:22:31.000Z</time>
                <name>Trackpoint 3179</name>
            </trkpt>
            <trkpt lat="50.0018112" lon="9.7160264">
                <ele>155.0</ele>
                <time>2020-08-28T11:22:33.000Z</time>
                <name>Trackpoint 3180</name>
            </trkpt>
            <trkpt lat="50.0018656" lon="9.7158936">
                <ele>155.0</ele>
                <time>2020-08-28T11:22:35.000Z</time>
                <name>Trackpoint 3181</name>
            </trkpt>
            <trkpt lat="50.0019232" lon="9.7157816">
                <ele>155.0</ele>
                <time>2020-08-28T11:22:37.000Z</time>
                <name>Trackpoint 3182</name>
            </trkpt>
            <trkpt lat="50.0019808" lon="9.7156784">
                <ele>155.0</ele>
                <time>2020-08-28T11:22:39.000Z</time>
                <name>Trackpoint 3183</name>
            </trkpt>
            <trkpt lat="50.002032" lon="9.7155864">
                <ele>155.0</ele>
                <time>2020-08-28T11:22:41.000Z</time>
                <name>Trackpoint 3184</name>
            </trkpt>
            <trkpt lat="50.00208" lon="9.7154904">
                <ele>155.0</ele>
                <time>2020-08-28T11:22:43.000Z</time>
                <name>Trackpoint 3185</name>
            </trkpt>
            <trkpt lat="50.0021312" lon="9.7154">
                <ele>155.0</ele>
                <time>2020-08-28T11:22:45.000Z</time>
                <name>Trackpoint 3186</name>
            </trkpt>
            <trkpt lat="50.0021984" lon="9.7153304">
                <ele>155.0</ele>
                <time>2020-08-28T11:22:47.000Z</time>
                <name>Trackpoint 3187</name>
            </trkpt>
            <trkpt lat="50.0023232" lon="9.7153464">
                <ele>155.0</ele>
                <time>2020-08-28T11:22:50.000Z</time>
                <name>Trackpoint 3188</name>
            </trkpt>
            <trkpt lat="50.0024032" lon="9.7154416">
                <ele>155.0</ele>
                <time>2020-08-28T11:22:52.000Z</time>
                <name>Trackpoint 3189</name>
            </trkpt>
            <trkpt lat="50.0024672" lon="9.7155488">
                <ele>155.0</ele>
                <time>2020-08-28T11:22:54.000Z</time>
                <name>Trackpoint 3190</name>
            </trkpt>
            <trkpt lat="50.0025248" lon="9.7156432">
                <ele>155.0</ele>
                <time>2020-08-28T11:22:56.000Z</time>
                <name>Trackpoint 3191</name>
            </trkpt>
            <trkpt lat="50.0025696" lon="9.7157232">
                <ele>155.0</ele>
                <time>2020-08-28T11:22:58.000Z</time>
                <name>Trackpoint 3192</name>
            </trkpt>
            <trkpt lat="50.0026176" lon="9.7158">
                <ele>155.0</ele>
                <time>2020-08-28T11:23:00.000Z</time>
                <name>Trackpoint 3193</name>
            </trkpt>
            <trkpt lat="50.0026656" lon="9.7158784">
                <ele>156.0</ele>
                <time>2020-08-28T11:23:02.000Z</time>
                <name>Trackpoint 3194</name>
            </trkpt>
            <trkpt lat="50.0027424" lon="9.7159616">
                <ele>158.0</ele>
                <time>2020-08-28T11:23:05.000Z</time>
                <name>Trackpoint 3195</name>
            </trkpt>
            <trkpt lat="50.002816" lon="9.7158968">
                <ele>157.0</ele>
                <time>2020-08-28T11:23:08.000Z</time>
                <name>Trackpoint 3196</name>
            </trkpt>
            <trkpt lat="50.0029216" lon="9.7158168">
                <ele>156.0</ele>
                <time>2020-08-28T11:23:11.000Z</time>
                <name>Trackpoint 3197</name>
            </trkpt>
            <trkpt lat="50.0030208" lon="9.715792">
                <ele>156.0</ele>
                <time>2020-08-28T11:23:13.000Z</time>
                <name>Trackpoint 3198</name>
            </trkpt>
            <trkpt lat="50.0031296" lon="9.7157696">
                <ele>157.0</ele>
                <time>2020-08-28T11:23:15.000Z</time>
                <name>Trackpoint 3199</name>
            </trkpt>
            <trkpt lat="50.0032352" lon="9.7157488">
                <ele>157.0</ele>
                <time>2020-08-28T11:23:17.000Z</time>
                <name>Trackpoint 3200</name>
            </trkpt>
            <trkpt lat="50.0033408" lon="9.7157248">
                <ele>157.0</ele>
                <time>2020-08-28T11:23:19.000Z</time>
                <name>Trackpoint 3201</name>
            </trkpt>
            <trkpt lat="50.0034432" lon="9.7157">
                <ele>158.0</ele>
                <time>2020-08-28T11:23:21.000Z</time>
                <name>Trackpoint 3202</name>
            </trkpt>
            <trkpt lat="50.003552" lon="9.7156752">
                <ele>159.0</ele>
                <time>2020-08-28T11:23:23.000Z</time>
                <name>Trackpoint 3203</name>
            </trkpt>
            <trkpt lat="50.0036576" lon="9.7156512">
                <ele>159.0</ele>
                <time>2020-08-28T11:23:25.000Z</time>
                <name>Trackpoint 3204</name>
            </trkpt>
            <trkpt lat="50.0037664" lon="9.7156264">
                <ele>159.0</ele>
                <time>2020-08-28T11:23:27.000Z</time>
                <name>Trackpoint 3205</name>
            </trkpt>
            <trkpt lat="50.0038688" lon="9.7156">
                <ele>159.0</ele>
                <time>2020-08-28T11:23:29.000Z</time>
                <name>Trackpoint 3206</name>
            </trkpt>
            <trkpt lat="50.0039744" lon="9.7156">
                <ele>159.0</ele>
                <time>2020-08-28T11:23:31.000Z</time>
                <name>Trackpoint 3207</name>
            </trkpt>
            <trkpt lat="50.0040672" lon="9.7156648">
                <ele>160.0</ele>
                <time>2020-08-28T11:23:33.000Z</time>
                <name>Trackpoint 3208</name>
            </trkpt>
            <trkpt lat="50.0041568" lon="9.7157424">
                <ele>161.0</ele>
                <time>2020-08-28T11:23:35.000Z</time>
                <name>Trackpoint 3209</name>
            </trkpt>
            <trkpt lat="50.0042528" lon="9.7157584">
                <ele>161.0</ele>
                <time>2020-08-28T11:23:37.000Z</time>
                <name>Trackpoint 3210</name>
            </trkpt>
            <trkpt lat="50.0043456" lon="9.7157136">
                <ele>161.0</ele>
                <time>2020-08-28T11:23:39.000Z</time>
                <name>Trackpoint 3211</name>
            </trkpt>
            <trkpt lat="50.0044224" lon="9.7156064">
                <ele>161.0</ele>
                <time>2020-08-28T11:23:41.000Z</time>
                <name>Trackpoint 3212</name>
            </trkpt>
            <trkpt lat="50.0045056" lon="9.715504">
                <ele>161.0</ele>
                <time>2020-08-28T11:23:43.000Z</time>
                <name>Trackpoint 3213</name>
            </trkpt>
            <trkpt lat="50.004592" lon="9.7154016">
                <ele>161.0</ele>
                <time>2020-08-28T11:23:45.000Z</time>
                <name>Trackpoint 3214</name>
            </trkpt>
            <trkpt lat="50.0046784" lon="9.7152984">
                <ele>160.0</ele>
                <time>2020-08-28T11:23:47.000Z</time>
                <name>Trackpoint 3215</name>
            </trkpt>
            <trkpt lat="50.0047616" lon="9.7152016">
                <ele>161.0</ele>
                <time>2020-08-28T11:23:49.000Z</time>
                <name>Trackpoint 3216</name>
            </trkpt>
            <trkpt lat="50.0048416" lon="9.7151016">
                <ele>160.0</ele>
                <time>2020-08-28T11:23:51.000Z</time>
                <name>Trackpoint 3217</name>
            </trkpt>
            <trkpt lat="50.0049184" lon="9.7150072">
                <ele>160.0</ele>
                <time>2020-08-28T11:23:53.000Z</time>
                <name>Trackpoint 3218</name>
            </trkpt>
            <trkpt lat="50.004992" lon="9.71492">
                <ele>160.0</ele>
                <time>2020-08-28T11:23:55.000Z</time>
                <name>Trackpoint 3219</name>
            </trkpt>
            <trkpt lat="50.005072" lon="9.7148248">
                <ele>160.0</ele>
                <time>2020-08-28T11:23:57.000Z</time>
                <name>Trackpoint 3220</name>
            </trkpt>
            <trkpt lat="50.0051488" lon="9.7147352">
                <ele>160.0</ele>
                <time>2020-08-28T11:23:59.000Z</time>
                <name>Trackpoint 3221</name>
            </trkpt>
            <trkpt lat="50.0052256" lon="9.7146504">
                <ele>160.0</ele>
                <time>2020-08-28T11:24:01.000Z</time>
                <name>Trackpoint 3222</name>
            </trkpt>
            <trkpt lat="50.0053088" lon="9.7145616">
                <ele>159.0</ele>
                <time>2020-08-28T11:24:03.000Z</time>
                <name>Trackpoint 3223</name>
            </trkpt>
            <trkpt lat="50.0053984" lon="9.714452">
                <ele>159.0</ele>
                <time>2020-08-28T11:24:05.000Z</time>
                <name>Trackpoint 3224</name>
            </trkpt>
            <trkpt lat="50.0054976" lon="9.7143384">
                <ele>159.0</ele>
                <time>2020-08-28T11:24:07.000Z</time>
                <name>Trackpoint 3225</name>
            </trkpt>
            <trkpt lat="50.0056" lon="9.7142264">
                <ele>159.0</ele>
                <time>2020-08-28T11:24:09.000Z</time>
                <name>Trackpoint 3226</name>
            </trkpt>
            <trkpt lat="50.0057056" lon="9.7141152">
                <ele>159.0</ele>
                <time>2020-08-28T11:24:11.000Z</time>
                <name>Trackpoint 3227</name>
            </trkpt>
            <trkpt lat="50.0058112" lon="9.7139952">
                <ele>159.0</ele>
                <time>2020-08-28T11:24:13.000Z</time>
                <name>Trackpoint 3228</name>
            </trkpt>
            <trkpt lat="50.0059168" lon="9.7138784">
                <ele>159.0</ele>
                <time>2020-08-28T11:24:15.000Z</time>
                <name>Trackpoint 3229</name>
            </trkpt>
            <trkpt lat="50.0060224" lon="9.7137632">
                <ele>159.0</ele>
                <time>2020-08-28T11:24:17.000Z</time>
                <name>Trackpoint 3230</name>
            </trkpt>
            <trkpt lat="50.0061312" lon="9.7136488">
                <ele>159.0</ele>
                <time>2020-08-28T11:24:19.000Z</time>
                <name>Trackpoint 3231</name>
            </trkpt>
            <trkpt lat="50.0062368" lon="9.713536">
                <ele>159.0</ele>
                <time>2020-08-28T11:24:21.000Z</time>
                <name>Trackpoint 3232</name>
            </trkpt>
            <trkpt lat="50.0063424" lon="9.713424">
                <ele>159.0</ele>
                <time>2020-08-28T11:24:23.000Z</time>
                <name>Trackpoint 3233</name>
            </trkpt>
            <trkpt lat="50.006448" lon="9.7133056">
                <ele>159.0</ele>
                <time>2020-08-28T11:24:25.000Z</time>
                <name>Trackpoint 3234</name>
            </trkpt>
            <trkpt lat="50.0065536" lon="9.7131952">
                <ele>159.0</ele>
                <time>2020-08-28T11:24:27.000Z</time>
                <name>Trackpoint 3235</name>
            </trkpt>
            <trkpt lat="50.006656" lon="9.7130848">
                <ele>159.0</ele>
                <time>2020-08-28T11:24:29.000Z</time>
                <name>Trackpoint 3236</name>
            </trkpt>
            <trkpt lat="50.0067648" lon="9.7129784">
                <ele>159.0</ele>
                <time>2020-08-28T11:24:31.000Z</time>
                <name>Trackpoint 3237</name>
            </trkpt>
            <trkpt lat="50.0068736" lon="9.712876">
                <ele>159.0</ele>
                <time>2020-08-28T11:24:33.000Z</time>
                <name>Trackpoint 3238</name>
            </trkpt>
            <trkpt lat="50.0069824" lon="9.7127648">
                <ele>159.0</ele>
                <time>2020-08-28T11:24:35.000Z</time>
                <name>Trackpoint 3239</name>
            </trkpt>
            <trkpt lat="50.0070912" lon="9.7126688">
                <ele>159.0</ele>
                <time>2020-08-28T11:24:37.000Z</time>
                <name>Trackpoint 3240</name>
            </trkpt>
            <trkpt lat="50.0072032" lon="9.7125656">
                <ele>159.0</ele>
                <time>2020-08-28T11:24:39.000Z</time>
                <name>Trackpoint 3241</name>
            </trkpt>
            <trkpt lat="50.007312" lon="9.7124664">
                <ele>159.0</ele>
                <time>2020-08-28T11:24:41.000Z</time>
                <name>Trackpoint 3242</name>
            </trkpt>
            <trkpt lat="50.007424" lon="9.7123672">
                <ele>158.0</ele>
                <time>2020-08-28T11:24:43.000Z</time>
                <name>Trackpoint 3243</name>
            </trkpt>
            <trkpt lat="50.0075392" lon="9.7122744">
                <ele>158.0</ele>
                <time>2020-08-28T11:24:45.000Z</time>
                <name>Trackpoint 3244</name>
            </trkpt>
            <trkpt lat="50.0076512" lon="9.7121848">
                <ele>158.0</ele>
                <time>2020-08-28T11:24:47.000Z</time>
                <name>Trackpoint 3245</name>
            </trkpt>
            <trkpt lat="50.0077664" lon="9.7120936">
                <ele>158.0</ele>
                <time>2020-08-28T11:24:49.000Z</time>
                <name>Trackpoint 3246</name>
            </trkpt>
            <trkpt lat="50.0078848" lon="9.7120016">
                <ele>158.0</ele>
                <time>2020-08-28T11:24:51.000Z</time>
                <name>Trackpoint 3247</name>
            </trkpt>
            <trkpt lat="50.0080064" lon="9.711908">
                <ele>158.0</ele>
                <time>2020-08-28T11:24:53.000Z</time>
                <name>Trackpoint 3248</name>
            </trkpt>
            <trkpt lat="50.008128" lon="9.7118128">
                <ele>158.0</ele>
                <time>2020-08-28T11:24:55.000Z</time>
                <name>Trackpoint 3249</name>
            </trkpt>
            <trkpt lat="50.008256" lon="9.7117168">
                <ele>158.0</ele>
                <time>2020-08-28T11:24:57.000Z</time>
                <name>Trackpoint 3250</name>
            </trkpt>
            <trkpt lat="50.0083808" lon="9.7116232">
                <ele>157.0</ele>
                <time>2020-08-28T11:24:59.000Z</time>
                <name>Trackpoint 3251</name>
            </trkpt>
            <trkpt lat="50.008512" lon="9.7115248">
                <ele>157.0</ele>
                <time>2020-08-28T11:25:01.000Z</time>
                <name>Trackpoint 3252</name>
            </trkpt>
            <trkpt lat="50.0086368" lon="9.7114264">
                <ele>157.0</ele>
                <time>2020-08-28T11:25:03.000Z</time>
                <name>Trackpoint 3253</name>
            </trkpt>
            <trkpt lat="50.0087616" lon="9.7113352">
                <ele>157.0</ele>
                <time>2020-08-28T11:25:05.000Z</time>
                <name>Trackpoint 3254</name>
            </trkpt>
            <trkpt lat="50.0088832" lon="9.7112448">
                <ele>157.0</ele>
                <time>2020-08-28T11:25:07.000Z</time>
                <name>Trackpoint 3255</name>
            </trkpt>
            <trkpt lat="50.009008" lon="9.7111704">
                <ele>157.0</ele>
                <time>2020-08-28T11:25:09.000Z</time>
                <name>Trackpoint 3256</name>
            </trkpt>
            <trkpt lat="50.0091328" lon="9.7111">
                <ele>157.0</ele>
                <time>2020-08-28T11:25:11.000Z</time>
                <name>Trackpoint 3257</name>
            </trkpt>
            <trkpt lat="50.0092544" lon="9.7110304">
                <ele>156.0</ele>
                <time>2020-08-28T11:25:13.000Z</time>
                <name>Trackpoint 3258</name>
            </trkpt>
            <trkpt lat="50.009376" lon="9.7109672">
                <ele>156.0</ele>
                <time>2020-08-28T11:25:15.000Z</time>
                <name>Trackpoint 3259</name>
            </trkpt>
            <trkpt lat="50.009504" lon="9.7109048">
                <ele>156.0</ele>
                <time>2020-08-28T11:25:17.000Z</time>
                <name>Trackpoint 3260</name>
            </trkpt>
            <trkpt lat="50.0096288" lon="9.7108424">
                <ele>156.0</ele>
                <time>2020-08-28T11:25:19.000Z</time>
                <name>Trackpoint 3261</name>
            </trkpt>
            <trkpt lat="50.0097536" lon="9.7107848">
                <ele>156.0</ele>
                <time>2020-08-28T11:25:21.000Z</time>
                <name>Trackpoint 3262</name>
            </trkpt>
            <trkpt lat="50.0098816" lon="9.7107312">
                <ele>156.0</ele>
                <time>2020-08-28T11:25:23.000Z</time>
                <name>Trackpoint 3263</name>
            </trkpt>
            <trkpt lat="50.0100096" lon="9.7106888">
                <ele>157.0</ele>
                <time>2020-08-28T11:25:25.000Z</time>
                <name>Trackpoint 3264</name>
            </trkpt>
            <trkpt lat="50.0101312" lon="9.710644">
                <ele>157.0</ele>
                <time>2020-08-28T11:25:27.000Z</time>
                <name>Trackpoint 3265</name>
            </trkpt>
            <trkpt lat="50.0102464" lon="9.7105976">
                <ele>157.0</ele>
                <time>2020-08-28T11:25:29.000Z</time>
                <name>Trackpoint 3266</name>
            </trkpt>
            <trkpt lat="50.0103616" lon="9.7105664">
                <ele>158.0</ele>
                <time>2020-08-28T11:25:31.000Z</time>
                <name>Trackpoint 3267</name>
            </trkpt>
            <trkpt lat="50.010464" lon="9.7105528">
                <ele>159.0</ele>
                <time>2020-08-28T11:25:33.000Z</time>
                <name>Trackpoint 3268</name>
            </trkpt>
            <trkpt lat="50.010592" lon="9.7105128">
                <ele>159.0</ele>
                <time>2020-08-28T11:25:36.000Z</time>
                <name>Trackpoint 3269</name>
            </trkpt>
            <trkpt lat="50.0106848" lon="9.71046">
                <ele>159.0</ele>
                <time>2020-08-28T11:25:38.000Z</time>
                <name>Trackpoint 3270</name>
            </trkpt>
            <trkpt lat="50.010784" lon="9.7104168">
                <ele>159.0</ele>
                <time>2020-08-28T11:25:40.000Z</time>
                <name>Trackpoint 3271</name>
            </trkpt>
            <trkpt lat="50.0108896" lon="9.710368">
                <ele>159.0</ele>
                <time>2020-08-28T11:25:42.000Z</time>
                <name>Trackpoint 3272</name>
            </trkpt>
            <trkpt lat="50.011008" lon="9.7103144">
                <ele>159.0</ele>
                <time>2020-08-28T11:25:44.000Z</time>
                <name>Trackpoint 3273</name>
            </trkpt>
            <trkpt lat="50.0111328" lon="9.7102816">
                <ele>159.0</ele>
                <time>2020-08-28T11:25:46.000Z</time>
                <name>Trackpoint 3274</name>
            </trkpt>
            <trkpt lat="50.011264" lon="9.7102544">
                <ele>159.0</ele>
                <time>2020-08-28T11:25:48.000Z</time>
                <name>Trackpoint 3275</name>
            </trkpt>
            <trkpt lat="50.0114048" lon="9.7102368">
                <ele>158.0</ele>
                <time>2020-08-28T11:25:50.000Z</time>
                <name>Trackpoint 3276</name>
            </trkpt>
            <trkpt lat="50.0115296" lon="9.710192">
                <ele>158.0</ele>
                <time>2020-08-28T11:25:52.000Z</time>
                <name>Trackpoint 3277</name>
            </trkpt>
            <trkpt lat="50.0116096" lon="9.7100488">
                <ele>157.0</ele>
                <time>2020-08-28T11:25:54.000Z</time>
                <name>Trackpoint 3278</name>
            </trkpt>
            <trkpt lat="50.0116224" lon="9.7098768">
                <ele>157.0</ele>
                <time>2020-08-28T11:25:56.000Z</time>
                <name>Trackpoint 3279</name>
            </trkpt>
            <trkpt lat="50.011616" lon="9.7097184">
                <ele>156.0</ele>
                <time>2020-08-28T11:25:58.000Z</time>
                <name>Trackpoint 3280</name>
            </trkpt>
            <trkpt lat="50.0116224" lon="9.7095944">
                <ele>156.0</ele>
                <time>2020-08-28T11:26:00.000Z</time>
                <name>Trackpoint 3281</name>
            </trkpt>
            <trkpt lat="50.0116608" lon="9.7094896">
                <ele>155.0</ele>
                <time>2020-08-28T11:26:03.000Z</time>
                <name>Trackpoint 3282</name>
            </trkpt>
            <trkpt lat="50.0117728" lon="9.709532">
                <ele>155.0</ele>
                <time>2020-08-28T11:26:35.000Z</time>
                <name>Trackpoint 3283</name>
            </trkpt>
            <trkpt lat="50.0118688" lon="9.7095984">
                <ele>155.0</ele>
                <time>2020-08-28T11:26:38.000Z</time>
                <name>Trackpoint 3284</name>
            </trkpt>
            <trkpt lat="50.0119424" lon="9.7096568">
                <ele>155.0</ele>
                <time>2020-08-28T11:26:40.000Z</time>
                <name>Trackpoint 3285</name>
            </trkpt>
            <trkpt lat="50.012032" lon="9.7097104">
                <ele>154.0</ele>
                <time>2020-08-28T11:26:42.000Z</time>
                <name>Trackpoint 3286</name>
            </trkpt>
            <trkpt lat="50.0121216" lon="9.7097656">
                <ele>154.0</ele>
                <time>2020-08-28T11:26:44.000Z</time>
                <name>Trackpoint 3287</name>
            </trkpt>
            <trkpt lat="50.0122176" lon="9.7098248">
                <ele>154.0</ele>
                <time>2020-08-28T11:26:46.000Z</time>
                <name>Trackpoint 3288</name>
            </trkpt>
            <trkpt lat="50.0123136" lon="9.7098816">
                <ele>154.0</ele>
                <time>2020-08-28T11:26:48.000Z</time>
                <name>Trackpoint 3289</name>
            </trkpt>
            <trkpt lat="50.0124128" lon="9.7099368">
                <ele>154.0</ele>
                <time>2020-08-28T11:26:50.000Z</time>
                <name>Trackpoint 3290</name>
            </trkpt>
            <trkpt lat="50.0125152" lon="9.7099888">
                <ele>154.0</ele>
                <time>2020-08-28T11:26:52.000Z</time>
                <name>Trackpoint 3291</name>
            </trkpt>
            <trkpt lat="50.0126176" lon="9.71004">
                <ele>154.0</ele>
                <time>2020-08-28T11:26:54.000Z</time>
                <name>Trackpoint 3292</name>
            </trkpt>
            <trkpt lat="50.0127264" lon="9.7100832">
                <ele>154.0</ele>
                <time>2020-08-28T11:26:56.000Z</time>
                <name>Trackpoint 3293</name>
            </trkpt>
            <trkpt lat="50.012832" lon="9.7101272">
                <ele>154.0</ele>
                <time>2020-08-28T11:26:58.000Z</time>
                <name>Trackpoint 3294</name>
            </trkpt>
            <trkpt lat="50.012944" lon="9.7101648">
                <ele>154.0</ele>
                <time>2020-08-28T11:27:00.000Z</time>
                <name>Trackpoint 3295</name>
            </trkpt>
            <trkpt lat="50.0130528" lon="9.7102">
                <ele>153.0</ele>
                <time>2020-08-28T11:27:02.000Z</time>
                <name>Trackpoint 3296</name>
            </trkpt>
            <trkpt lat="50.0131616" lon="9.7102472">
                <ele>154.0</ele>
                <time>2020-08-28T11:27:04.000Z</time>
                <name>Trackpoint 3297</name>
            </trkpt>
            <trkpt lat="50.0132736" lon="9.7102984">
                <ele>154.0</ele>
                <time>2020-08-28T11:27:06.000Z</time>
                <name>Trackpoint 3298</name>
            </trkpt>
            <trkpt lat="50.0133792" lon="9.7103528">
                <ele>154.0</ele>
                <time>2020-08-28T11:27:08.000Z</time>
                <name>Trackpoint 3299</name>
            </trkpt>
            <trkpt lat="50.0134848" lon="9.7104032">
                <ele>155.0</ele>
                <time>2020-08-28T11:27:10.000Z</time>
                <name>Trackpoint 3300</name>
            </trkpt>
            <trkpt lat="50.0135968" lon="9.7104304">
                <ele>154.0</ele>
                <time>2020-08-28T11:27:12.000Z</time>
                <name>Trackpoint 3301</name>
            </trkpt>
            <trkpt lat="50.0137088" lon="9.7104464">
                <ele>154.0</ele>
                <time>2020-08-28T11:27:14.000Z</time>
                <name>Trackpoint 3302</name>
            </trkpt>
            <trkpt lat="50.0138272" lon="9.7104664">
                <ele>153.0</ele>
                <time>2020-08-28T11:27:16.000Z</time>
                <name>Trackpoint 3303</name>
            </trkpt>
            <trkpt lat="50.0139424" lon="9.7104904">
                <ele>154.0</ele>
                <time>2020-08-28T11:27:18.000Z</time>
                <name>Trackpoint 3304</name>
            </trkpt>
            <trkpt lat="50.0140608" lon="9.7105168">
                <ele>153.0</ele>
                <time>2020-08-28T11:27:20.000Z</time>
                <name>Trackpoint 3305</name>
            </trkpt>
            <trkpt lat="50.0141824" lon="9.7105416">
                <ele>153.0</ele>
                <time>2020-08-28T11:27:22.000Z</time>
                <name>Trackpoint 3306</name>
            </trkpt>
            <trkpt lat="50.0143008" lon="9.7105712">
                <ele>152.0</ele>
                <time>2020-08-28T11:27:24.000Z</time>
                <name>Trackpoint 3307</name>
            </trkpt>
            <trkpt lat="50.014416" lon="9.710604">
                <ele>153.0</ele>
                <time>2020-08-28T11:27:26.000Z</time>
                <name>Trackpoint 3308</name>
            </trkpt>
            <trkpt lat="50.0145312" lon="9.7106384">
                <ele>153.0</ele>
                <time>2020-08-28T11:27:28.000Z</time>
                <name>Trackpoint 3309</name>
            </trkpt>
            <trkpt lat="50.0146432" lon="9.7106704">
                <ele>153.0</ele>
                <time>2020-08-28T11:27:30.000Z</time>
                <name>Trackpoint 3310</name>
            </trkpt>
            <trkpt lat="50.0147616" lon="9.7107096">
                <ele>153.0</ele>
                <time>2020-08-28T11:27:32.000Z</time>
                <name>Trackpoint 3311</name>
            </trkpt>
            <trkpt lat="50.0148768" lon="9.7107624">
                <ele>153.0</ele>
                <time>2020-08-28T11:27:34.000Z</time>
                <name>Trackpoint 3312</name>
            </trkpt>
            <trkpt lat="50.014992" lon="9.7108048">
                <ele>153.0</ele>
                <time>2020-08-28T11:27:36.000Z</time>
                <name>Trackpoint 3313</name>
            </trkpt>
            <trkpt lat="50.0151136" lon="9.7108472">
                <ele>152.0</ele>
                <time>2020-08-28T11:27:38.000Z</time>
                <name>Trackpoint 3314</name>
            </trkpt>
            <trkpt lat="50.0152288" lon="9.7108968">
                <ele>152.0</ele>
                <time>2020-08-28T11:27:40.000Z</time>
                <name>Trackpoint 3315</name>
            </trkpt>
            <trkpt lat="50.0153376" lon="9.7109416">
                <ele>152.0</ele>
                <time>2020-08-28T11:27:42.000Z</time>
                <name>Trackpoint 3316</name>
            </trkpt>
            <trkpt lat="50.0154528" lon="9.7109936">
                <ele>152.0</ele>
                <time>2020-08-28T11:27:44.000Z</time>
                <name>Trackpoint 3317</name>
            </trkpt>
            <trkpt lat="50.0155712" lon="9.7110464">
                <ele>151.0</ele>
                <time>2020-08-28T11:27:46.000Z</time>
                <name>Trackpoint 3318</name>
            </trkpt>
            <trkpt lat="50.0156832" lon="9.7111064">
                <ele>151.0</ele>
                <time>2020-08-28T11:27:48.000Z</time>
                <name>Trackpoint 3319</name>
            </trkpt>
            <trkpt lat="50.0157952" lon="9.7111584">
                <ele>150.0</ele>
                <time>2020-08-28T11:27:50.000Z</time>
                <name>Trackpoint 3320</name>
            </trkpt>
            <trkpt lat="50.0159136" lon="9.7112112">
                <ele>150.0</ele>
                <time>2020-08-28T11:27:52.000Z</time>
                <name>Trackpoint 3321</name>
            </trkpt>
            <trkpt lat="50.016032" lon="9.7112712">
                <ele>150.0</ele>
                <time>2020-08-28T11:27:54.000Z</time>
                <name>Trackpoint 3322</name>
            </trkpt>
            <trkpt lat="50.016144" lon="9.7113288">
                <ele>150.0</ele>
                <time>2020-08-28T11:27:56.000Z</time>
                <name>Trackpoint 3323</name>
            </trkpt>
            <trkpt lat="50.0162592" lon="9.7113816">
                <ele>150.0</ele>
                <time>2020-08-28T11:27:58.000Z</time>
                <name>Trackpoint 3324</name>
            </trkpt>
            <trkpt lat="50.0163712" lon="9.7114432">
                <ele>150.0</ele>
                <time>2020-08-28T11:28:00.000Z</time>
                <name>Trackpoint 3325</name>
            </trkpt>
            <trkpt lat="50.0164832" lon="9.7114952">
                <ele>150.0</ele>
                <time>2020-08-28T11:28:02.000Z</time>
                <name>Trackpoint 3326</name>
            </trkpt>
            <trkpt lat="50.0165888" lon="9.7115488">
                <ele>150.0</ele>
                <time>2020-08-28T11:28:04.000Z</time>
                <name>Trackpoint 3327</name>
            </trkpt>
            <trkpt lat="50.016704" lon="9.711608">
                <ele>150.0</ele>
                <time>2020-08-28T11:28:06.000Z</time>
                <name>Trackpoint 3328</name>
            </trkpt>
            <trkpt lat="50.016816" lon="9.7116584">
                <ele>150.0</ele>
                <time>2020-08-28T11:28:08.000Z</time>
                <name>Trackpoint 3329</name>
            </trkpt>
            <trkpt lat="50.0169248" lon="9.7117208">
                <ele>150.0</ele>
                <time>2020-08-28T11:28:10.000Z</time>
                <name>Trackpoint 3330</name>
            </trkpt>
            <trkpt lat="50.0170336" lon="9.7117792">
                <ele>150.0</ele>
                <time>2020-08-28T11:28:12.000Z</time>
                <name>Trackpoint 3331</name>
            </trkpt>
            <trkpt lat="50.0171424" lon="9.7118464">
                <ele>150.0</ele>
                <time>2020-08-28T11:28:14.000Z</time>
                <name>Trackpoint 3332</name>
            </trkpt>
            <trkpt lat="50.0172512" lon="9.7119248">
                <ele>150.0</ele>
                <time>2020-08-28T11:28:16.000Z</time>
                <name>Trackpoint 3333</name>
            </trkpt>
            <trkpt lat="50.0173568" lon="9.7119952">
                <ele>150.0</ele>
                <time>2020-08-28T11:28:18.000Z</time>
                <name>Trackpoint 3334</name>
            </trkpt>
            <trkpt lat="50.0174688" lon="9.7120648">
                <ele>150.0</ele>
                <time>2020-08-28T11:28:20.000Z</time>
                <name>Trackpoint 3335</name>
            </trkpt>
            <trkpt lat="50.0175808" lon="9.7121312">
                <ele>150.0</ele>
                <time>2020-08-28T11:28:22.000Z</time>
                <name>Trackpoint 3336</name>
            </trkpt>
            <trkpt lat="50.0176928" lon="9.7122088">
                <ele>150.0</ele>
                <time>2020-08-28T11:28:24.000Z</time>
                <name>Trackpoint 3337</name>
            </trkpt>
            <trkpt lat="50.017792" lon="9.7122816">
                <ele>150.0</ele>
                <time>2020-08-28T11:28:26.000Z</time>
                <name>Trackpoint 3338</name>
            </trkpt>
            <trkpt lat="50.0179008" lon="9.7123616">
                <ele>151.0</ele>
                <time>2020-08-28T11:28:28.000Z</time>
                <name>Trackpoint 3339</name>
            </trkpt>
            <trkpt lat="50.0179936" lon="9.7124392">
                <ele>151.0</ele>
                <time>2020-08-28T11:28:30.000Z</time>
                <name>Trackpoint 3340</name>
            </trkpt>
            <trkpt lat="50.0180928" lon="9.7125232">
                <ele>151.0</ele>
                <time>2020-08-28T11:28:32.000Z</time>
                <name>Trackpoint 3341</name>
            </trkpt>
            <trkpt lat="50.0181984" lon="9.7126368">
                <ele>151.0</ele>
                <time>2020-08-28T11:28:34.000Z</time>
                <name>Trackpoint 3342</name>
            </trkpt>
            <trkpt lat="50.0183072" lon="9.712724">
                <ele>152.0</ele>
                <time>2020-08-28T11:28:36.000Z</time>
                <name>Trackpoint 3343</name>
            </trkpt>
            <trkpt lat="50.0183968" lon="9.7128152">
                <ele>153.0</ele>
                <time>2020-08-28T11:28:38.000Z</time>
                <name>Trackpoint 3344</name>
            </trkpt>
            <trkpt lat="50.0184896" lon="9.7129088">
                <ele>153.0</ele>
                <time>2020-08-28T11:28:40.000Z</time>
                <name>Trackpoint 3345</name>
            </trkpt>
            <trkpt lat="50.0185888" lon="9.7129968">
                <ele>153.0</ele>
                <time>2020-08-28T11:28:42.000Z</time>
                <name>Trackpoint 3346</name>
            </trkpt>
            <trkpt lat="50.0186848" lon="9.7130936">
                <ele>153.0</ele>
                <time>2020-08-28T11:28:44.000Z</time>
                <name>Trackpoint 3347</name>
            </trkpt>
            <trkpt lat="50.0187744" lon="9.7131856">
                <ele>153.0</ele>
                <time>2020-08-28T11:28:46.000Z</time>
                <name>Trackpoint 3348</name>
            </trkpt>
            <trkpt lat="50.0188672" lon="9.7132856">
                <ele>154.0</ele>
                <time>2020-08-28T11:28:48.000Z</time>
                <name>Trackpoint 3349</name>
            </trkpt>
            <trkpt lat="50.01896" lon="9.7133864">
                <ele>154.0</ele>
                <time>2020-08-28T11:28:50.000Z</time>
                <name>Trackpoint 3350</name>
            </trkpt>
            <trkpt lat="50.0190496" lon="9.7134912">
                <ele>154.0</ele>
                <time>2020-08-28T11:28:52.000Z</time>
                <name>Trackpoint 3351</name>
            </trkpt>
            <trkpt lat="50.0191456" lon="9.7135984">
                <ele>155.0</ele>
                <time>2020-08-28T11:28:54.000Z</time>
                <name>Trackpoint 3352</name>
            </trkpt>
            <trkpt lat="50.0192352" lon="9.713708">
                <ele>155.0</ele>
                <time>2020-08-28T11:28:56.000Z</time>
                <name>Trackpoint 3353</name>
            </trkpt>
            <trkpt lat="50.0193216" lon="9.7138216">
                <ele>155.0</ele>
                <time>2020-08-28T11:28:58.000Z</time>
                <name>Trackpoint 3354</name>
            </trkpt>
            <trkpt lat="50.0194176" lon="9.7139328">
                <ele>155.0</ele>
                <time>2020-08-28T11:29:00.000Z</time>
                <name>Trackpoint 3355</name>
            </trkpt>
            <trkpt lat="50.0195072" lon="9.714048">
                <ele>155.0</ele>
                <time>2020-08-28T11:29:02.000Z</time>
                <name>Trackpoint 3356</name>
            </trkpt>
            <trkpt lat="50.0196" lon="9.7141688">
                <ele>155.0</ele>
                <time>2020-08-28T11:29:04.000Z</time>
                <name>Trackpoint 3357</name>
            </trkpt>
            <trkpt lat="50.0196832" lon="9.7142936">
                <ele>155.0</ele>
                <time>2020-08-28T11:29:06.000Z</time>
                <name>Trackpoint 3358</name>
            </trkpt>
            <trkpt lat="50.0197728" lon="9.71442">
                <ele>155.0</ele>
                <time>2020-08-28T11:29:08.000Z</time>
                <name>Trackpoint 3359</name>
            </trkpt>
            <trkpt lat="50.019856" lon="9.714548">
                <ele>155.0</ele>
                <time>2020-08-28T11:29:10.000Z</time>
                <name>Trackpoint 3360</name>
            </trkpt>
            <trkpt lat="50.0199392" lon="9.7146784">
                <ele>155.0</ele>
                <time>2020-08-28T11:29:12.000Z</time>
                <name>Trackpoint 3361</name>
            </trkpt>
            <trkpt lat="50.0200256" lon="9.7148016">
                <ele>155.0</ele>
                <time>2020-08-28T11:29:14.000Z</time>
                <name>Trackpoint 3362</name>
            </trkpt>
            <trkpt lat="50.020112" lon="9.7149312">
                <ele>155.0</ele>
                <time>2020-08-28T11:29:16.000Z</time>
                <name>Trackpoint 3363</name>
            </trkpt>
            <trkpt lat="50.0201952" lon="9.715068">
                <ele>155.0</ele>
                <time>2020-08-28T11:29:18.000Z</time>
                <name>Trackpoint 3364</name>
            </trkpt>
            <trkpt lat="50.0202752" lon="9.7152072">
                <ele>155.0</ele>
                <time>2020-08-28T11:29:20.000Z</time>
                <name>Trackpoint 3365</name>
            </trkpt>
            <trkpt lat="50.0203552" lon="9.7153464">
                <ele>155.0</ele>
                <time>2020-08-28T11:29:22.000Z</time>
                <name>Trackpoint 3366</name>
            </trkpt>
            <trkpt lat="50.0204384" lon="9.7154888">
                <ele>155.0</ele>
                <time>2020-08-28T11:29:24.000Z</time>
                <name>Trackpoint 3367</name>
            </trkpt>
            <trkpt lat="50.0205184" lon="9.7156264">
                <ele>155.0</ele>
                <time>2020-08-28T11:29:26.000Z</time>
                <name>Trackpoint 3368</name>
            </trkpt>
            <trkpt lat="50.0205984" lon="9.7157648">
                <ele>155.0</ele>
                <time>2020-08-28T11:29:28.000Z</time>
                <name>Trackpoint 3369</name>
            </trkpt>
            <trkpt lat="50.0206848" lon="9.7159072">
                <ele>155.0</ele>
                <time>2020-08-28T11:29:30.000Z</time>
                <name>Trackpoint 3370</name>
            </trkpt>
            <trkpt lat="50.0207712" lon="9.716048">
                <ele>154.0</ele>
                <time>2020-08-28T11:29:32.000Z</time>
                <name>Trackpoint 3371</name>
            </trkpt>
            <trkpt lat="50.0208544" lon="9.7161952">
                <ele>154.0</ele>
                <time>2020-08-28T11:29:34.000Z</time>
                <name>Trackpoint 3372</name>
            </trkpt>
            <trkpt lat="50.020944" lon="9.7163448">
                <ele>154.0</ele>
                <time>2020-08-28T11:29:36.000Z</time>
                <name>Trackpoint 3373</name>
            </trkpt>
            <trkpt lat="50.0210336" lon="9.716492">
                <ele>154.0</ele>
                <time>2020-08-28T11:29:38.000Z</time>
                <name>Trackpoint 3374</name>
            </trkpt>
            <trkpt lat="50.0211232" lon="9.7166456">
                <ele>154.0</ele>
                <time>2020-08-28T11:29:40.000Z</time>
                <name>Trackpoint 3375</name>
            </trkpt>
            <trkpt lat="50.0212128" lon="9.7168016">
                <ele>154.0</ele>
                <time>2020-08-28T11:29:42.000Z</time>
                <name>Trackpoint 3376</name>
            </trkpt>
            <trkpt lat="50.0213024" lon="9.71696">
                <ele>153.0</ele>
                <time>2020-08-28T11:29:44.000Z</time>
                <name>Trackpoint 3377</name>
            </trkpt>
            <trkpt lat="50.0213472" lon="9.7170384">
                <ele>153.0</ele>
                <time>2020-08-28T11:29:45.000Z</time>
                <name>Trackpoint 3378</name>
            </trkpt>
            <trkpt lat="50.0213952" lon="9.71712">
                <ele>153.0</ele>
                <time>2020-08-28T11:29:46.000Z</time>
                <name>Trackpoint 3379</name>
            </trkpt>
            <trkpt lat="50.02144" lon="9.7172072">
                <ele>153.0</ele>
                <time>2020-08-28T11:29:47.000Z</time>
                <name>Trackpoint 3380</name>
            </trkpt>
            <trkpt lat="50.0214816" lon="9.7172936">
                <ele>153.0</ele>
                <time>2020-08-28T11:29:48.000Z</time>
                <name>Trackpoint 3381</name>
            </trkpt>
            <trkpt lat="50.0215264" lon="9.7173768">
                <ele>153.0</ele>
                <time>2020-08-28T11:29:49.000Z</time>
                <name>Trackpoint 3382</name>
            </trkpt>
            <trkpt lat="50.0215744" lon="9.7174568">
                <ele>153.0</ele>
                <time>2020-08-28T11:29:50.000Z</time>
                <name>Trackpoint 3383</name>
            </trkpt>
            <trkpt lat="50.0216224" lon="9.7175368">
                <ele>153.0</ele>
                <time>2020-08-28T11:29:51.000Z</time>
                <name>Trackpoint 3384</name>
            </trkpt>
            <trkpt lat="50.021664" lon="9.7176168">
                <ele>153.0</ele>
                <time>2020-08-28T11:29:52.000Z</time>
                <name>Trackpoint 3385</name>
            </trkpt>
            <trkpt lat="50.021712" lon="9.717696">
                <ele>153.0</ele>
                <time>2020-08-28T11:29:53.000Z</time>
                <name>Trackpoint 3386</name>
            </trkpt>
            <trkpt lat="50.0217632" lon="9.7177752">
                <ele>153.0</ele>
                <time>2020-08-28T11:29:54.000Z</time>
                <name>Trackpoint 3387</name>
            </trkpt>
            <trkpt lat="50.021808" lon="9.7178552">
                <ele>153.0</ele>
                <time>2020-08-28T11:29:55.000Z</time>
                <name>Trackpoint 3388</name>
            </trkpt>
            <trkpt lat="50.021856" lon="9.7179344">
                <ele>153.0</ele>
                <time>2020-08-28T11:29:56.000Z</time>
                <name>Trackpoint 3389</name>
            </trkpt>
            <trkpt lat="50.0219008" lon="9.7180136">
                <ele>153.0</ele>
                <time>2020-08-28T11:29:57.000Z</time>
                <name>Trackpoint 3390</name>
            </trkpt>
            <trkpt lat="50.0219808" lon="9.7181568">
                <ele>153.0</ele>
                <time>2020-08-28T11:29:59.000Z</time>
                <name>Trackpoint 3391</name>
            </trkpt>
            <trkpt lat="50.0220672" lon="9.7182976">
                <ele>153.0</ele>
                <time>2020-08-28T11:30:01.000Z</time>
                <name>Trackpoint 3392</name>
            </trkpt>
            <trkpt lat="50.0221504" lon="9.71844">
                <ele>153.0</ele>
                <time>2020-08-28T11:30:03.000Z</time>
                <name>Trackpoint 3393</name>
            </trkpt>
            <trkpt lat="50.0222368" lon="9.7185896">
                <ele>153.0</ele>
                <time>2020-08-28T11:30:05.000Z</time>
                <name>Trackpoint 3394</name>
            </trkpt>
            <trkpt lat="50.02232" lon="9.7187368">
                <ele>153.0</ele>
                <time>2020-08-28T11:30:07.000Z</time>
                <name>Trackpoint 3395</name>
            </trkpt>
            <trkpt lat="50.0223968" lon="9.7188904">
                <ele>153.0</ele>
                <time>2020-08-28T11:30:09.000Z</time>
                <name>Trackpoint 3396</name>
            </trkpt>
            <trkpt lat="50.02248" lon="9.7190336">
                <ele>153.0</ele>
                <time>2020-08-28T11:30:11.000Z</time>
                <name>Trackpoint 3397</name>
            </trkpt>
            <trkpt lat="50.0225376" lon="9.7191088">
                <ele>153.0</ele>
                <time>2020-08-28T11:30:12.000Z</time>
                <name>Trackpoint 3398</name>
            </trkpt>
            <trkpt lat="50.022624" lon="9.7192624">
                <ele>153.0</ele>
                <time>2020-08-28T11:30:14.000Z</time>
                <name>Trackpoint 3399</name>
            </trkpt>
            <trkpt lat="50.022656" lon="9.719352">
                <ele>153.0</ele>
                <time>2020-08-28T11:30:15.000Z</time>
                <name>Trackpoint 3400</name>
            </trkpt>
            <trkpt lat="50.0227424" lon="9.7194952">
                <ele>153.0</ele>
                <time>2020-08-28T11:30:17.000Z</time>
                <name>Trackpoint 3401</name>
            </trkpt>
            <trkpt lat="50.0228256" lon="9.7196304">
                <ele>153.0</ele>
                <time>2020-08-28T11:30:19.000Z</time>
                <name>Trackpoint 3402</name>
            </trkpt>
            <trkpt lat="50.0228832" lon="9.719704">
                <ele>153.0</ele>
                <time>2020-08-28T11:30:20.000Z</time>
                <name>Trackpoint 3403</name>
            </trkpt>
            <trkpt lat="50.0229824" lon="9.7198232">
                <ele>154.0</ele>
                <time>2020-08-28T11:30:22.000Z</time>
                <name>Trackpoint 3404</name>
            </trkpt>
            <trkpt lat="50.0230816" lon="9.7199784">
                <ele>154.0</ele>
                <time>2020-08-28T11:30:24.000Z</time>
                <name>Trackpoint 3405</name>
            </trkpt>
            <trkpt lat="50.0231232" lon="9.720068">
                <ele>154.0</ele>
                <time>2020-08-28T11:30:25.000Z</time>
                <name>Trackpoint 3406</name>
            </trkpt>
            <trkpt lat="50.023168" lon="9.7201536">
                <ele>154.0</ele>
                <time>2020-08-28T11:30:26.000Z</time>
                <name>Trackpoint 3407</name>
            </trkpt>
            <trkpt lat="50.0232" lon="9.72024">
                <ele>154.0</ele>
                <time>2020-08-28T11:30:27.000Z</time>
                <name>Trackpoint 3408</name>
            </trkpt>
            <trkpt lat="50.0232384" lon="9.7203256">
                <ele>154.0</ele>
                <time>2020-08-28T11:30:28.000Z</time>
                <name>Trackpoint 3409</name>
            </trkpt>
            <trkpt lat="50.0233408" lon="9.7204768">
                <ele>153.0</ele>
                <time>2020-08-28T11:30:30.000Z</time>
                <name>Trackpoint 3410</name>
            </trkpt>
            <trkpt lat="50.023392" lon="9.720556">
                <ele>153.0</ele>
                <time>2020-08-28T11:30:31.000Z</time>
                <name>Trackpoint 3411</name>
            </trkpt>
            <trkpt lat="50.023488" lon="9.7207032">
                <ele>153.0</ele>
                <time>2020-08-28T11:30:33.000Z</time>
                <name>Trackpoint 3412</name>
            </trkpt>
            <trkpt lat="50.0235904" lon="9.7208432">
                <ele>153.0</ele>
                <time>2020-08-28T11:30:35.000Z</time>
                <name>Trackpoint 3413</name>
            </trkpt>
            <trkpt lat="50.0236736" lon="9.7209928">
                <ele>153.0</ele>
                <time>2020-08-28T11:30:37.000Z</time>
                <name>Trackpoint 3414</name>
            </trkpt>
            <trkpt lat="50.0237568" lon="9.72114">
                <ele>153.0</ele>
                <time>2020-08-28T11:30:39.000Z</time>
                <name>Trackpoint 3415</name>
            </trkpt>
            <trkpt lat="50.0238432" lon="9.7212888">
                <ele>153.0</ele>
                <time>2020-08-28T11:30:41.000Z</time>
                <name>Trackpoint 3416</name>
            </trkpt>
            <trkpt lat="50.0239264" lon="9.7214344">
                <ele>153.0</ele>
                <time>2020-08-28T11:30:43.000Z</time>
                <name>Trackpoint 3417</name>
            </trkpt>
            <trkpt lat="50.0240064" lon="9.7215784">
                <ele>153.0</ele>
                <time>2020-08-28T11:30:45.000Z</time>
                <name>Trackpoint 3418</name>
            </trkpt>
            <trkpt lat="50.0240896" lon="9.7217264">
                <ele>153.0</ele>
                <time>2020-08-28T11:30:47.000Z</time>
                <name>Trackpoint 3419</name>
            </trkpt>
            <trkpt lat="50.0241824" lon="9.7218664">
                <ele>153.0</ele>
                <time>2020-08-28T11:30:49.000Z</time>
                <name>Trackpoint 3420</name>
            </trkpt>
            <trkpt lat="50.0242656" lon="9.7220136">
                <ele>153.0</ele>
                <time>2020-08-28T11:30:51.000Z</time>
                <name>Trackpoint 3421</name>
            </trkpt>
            <trkpt lat="50.0243488" lon="9.7221616">
                <ele>153.0</ele>
                <time>2020-08-28T11:30:53.000Z</time>
                <name>Trackpoint 3422</name>
            </trkpt>
            <trkpt lat="50.024432" lon="9.7223056">
                <ele>153.0</ele>
                <time>2020-08-28T11:30:55.000Z</time>
                <name>Trackpoint 3423</name>
            </trkpt>
            <trkpt lat="50.024512" lon="9.72244">
                <ele>153.0</ele>
                <time>2020-08-28T11:30:57.000Z</time>
                <name>Trackpoint 3424</name>
            </trkpt>
            <trkpt lat="50.024592" lon="9.7225784">
                <ele>153.0</ele>
                <time>2020-08-28T11:30:59.000Z</time>
                <name>Trackpoint 3425</name>
            </trkpt>
            <trkpt lat="50.024672" lon="9.722716">
                <ele>153.0</ele>
                <time>2020-08-28T11:31:01.000Z</time>
                <name>Trackpoint 3426</name>
            </trkpt>
            <trkpt lat="50.024752" lon="9.7228544">
                <ele>152.0</ele>
                <time>2020-08-28T11:31:03.000Z</time>
                <name>Trackpoint 3427</name>
            </trkpt>
            <trkpt lat="50.0248352" lon="9.7229928">
                <ele>152.0</ele>
                <time>2020-08-28T11:31:05.000Z</time>
                <name>Trackpoint 3428</name>
            </trkpt>
            <trkpt lat="50.0249088" lon="9.7231232">
                <ele>153.0</ele>
                <time>2020-08-28T11:31:07.000Z</time>
                <name>Trackpoint 3429</name>
            </trkpt>
            <trkpt lat="50.0249856" lon="9.7232416">
                <ele>153.0</ele>
                <time>2020-08-28T11:31:09.000Z</time>
                <name>Trackpoint 3430</name>
            </trkpt>
            <trkpt lat="50.0250496" lon="9.7233552">
                <ele>153.0</ele>
                <time>2020-08-28T11:31:11.000Z</time>
                <name>Trackpoint 3431</name>
            </trkpt>
            <trkpt lat="50.02512" lon="9.7234648">
                <ele>153.0</ele>
                <time>2020-08-28T11:31:13.000Z</time>
                <name>Trackpoint 3432</name>
            </trkpt>
            <trkpt lat="50.0251968" lon="9.7235632">
                <ele>153.0</ele>
                <time>2020-08-28T11:31:15.000Z</time>
                <name>Trackpoint 3433</name>
            </trkpt>
            <trkpt lat="50.0252672" lon="9.723652">
                <ele>153.0</ele>
                <time>2020-08-28T11:31:17.000Z</time>
                <name>Trackpoint 3434</name>
            </trkpt>
            <trkpt lat="50.025344" lon="9.7237384">
                <ele>154.0</ele>
                <time>2020-08-28T11:31:19.000Z</time>
                <name>Trackpoint 3435</name>
            </trkpt>
            <trkpt lat="50.0254144" lon="9.7238528">
                <ele>154.0</ele>
                <time>2020-08-28T11:31:21.000Z</time>
                <name>Trackpoint 3436</name>
            </trkpt>
            <trkpt lat="50.0254816" lon="9.7239688">
                <ele>154.0</ele>
                <time>2020-08-28T11:31:23.000Z</time>
                <name>Trackpoint 3437</name>
            </trkpt>
            <trkpt lat="50.025552" lon="9.7240896">
                <ele>153.0</ele>
                <time>2020-08-28T11:31:25.000Z</time>
                <name>Trackpoint 3438</name>
            </trkpt>
            <trkpt lat="50.0256224" lon="9.7242144">
                <ele>153.0</ele>
                <time>2020-08-28T11:31:27.000Z</time>
                <name>Trackpoint 3439</name>
            </trkpt>
            <trkpt lat="50.0256832" lon="9.7243232">
                <ele>153.0</ele>
                <time>2020-08-28T11:31:29.000Z</time>
                <name>Trackpoint 3440</name>
            </trkpt>
            <trkpt lat="50.0257536" lon="9.7244304">
                <ele>153.0</ele>
                <time>2020-08-28T11:31:31.000Z</time>
                <name>Trackpoint 3441</name>
            </trkpt>
            <trkpt lat="50.0258176" lon="9.7245552">
                <ele>153.0</ele>
                <time>2020-08-28T11:31:33.000Z</time>
                <name>Trackpoint 3442</name>
            </trkpt>
            <trkpt lat="50.025872" lon="9.724664">
                <ele>154.0</ele>
                <time>2020-08-28T11:31:35.000Z</time>
                <name>Trackpoint 3443</name>
            </trkpt>
            <trkpt lat="50.0259232" lon="9.72476">
                <ele>154.0</ele>
                <time>2020-08-28T11:31:38.000Z</time>
                <name>Trackpoint 3444</name>
            </trkpt>
            <trkpt lat="50.025968" lon="9.7248472">
                <ele>154.0</ele>
                <time>2020-08-28T11:32:01.000Z</time>
                <name>Trackpoint 3445</name>
            </trkpt>
            <trkpt lat="50.0260352" lon="9.7249496">
                <ele>155.0</ele>
                <time>2020-08-28T11:32:04.000Z</time>
                <name>Trackpoint 3446</name>
            </trkpt>
            <trkpt lat="50.0260768" lon="9.725052">
                <ele>155.0</ele>
                <time>2020-08-28T11:32:06.000Z</time>
                <name>Trackpoint 3447</name>
            </trkpt>
            <trkpt lat="50.0261088" lon="9.7251568">
                <ele>155.0</ele>
                <time>2020-08-28T11:32:08.000Z</time>
                <name>Trackpoint 3448</name>
            </trkpt>
            <trkpt lat="50.0261536" lon="9.7252552">
                <ele>155.0</ele>
                <time>2020-08-28T11:32:10.000Z</time>
                <name>Trackpoint 3449</name>
            </trkpt>
            <trkpt lat="50.0262176" lon="9.7253568">
                <ele>155.0</ele>
                <time>2020-08-28T11:32:12.000Z</time>
                <name>Trackpoint 3450</name>
            </trkpt>
            <trkpt lat="50.0262848" lon="9.725456">
                <ele>155.0</ele>
                <time>2020-08-28T11:32:14.000Z</time>
                <name>Trackpoint 3451</name>
            </trkpt>
            <trkpt lat="50.0263392" lon="9.7255552">
                <ele>155.0</ele>
                <time>2020-08-28T11:32:16.000Z</time>
                <name>Trackpoint 3452</name>
            </trkpt>
            <trkpt lat="50.0264" lon="9.7256496">
                <ele>155.0</ele>
                <time>2020-08-28T11:32:18.000Z</time>
                <name>Trackpoint 3453</name>
            </trkpt>
            <trkpt lat="50.0264736" lon="9.725748">
                <ele>155.0</ele>
                <time>2020-08-28T11:32:20.000Z</time>
                <name>Trackpoint 3454</name>
            </trkpt>
            <trkpt lat="50.0265472" lon="9.7258552">
                <ele>155.0</ele>
                <time>2020-08-28T11:32:22.000Z</time>
                <name>Trackpoint 3455</name>
            </trkpt>
            <trkpt lat="50.0266336" lon="9.7259632">
                <ele>155.0</ele>
                <time>2020-08-28T11:32:24.000Z</time>
                <name>Trackpoint 3456</name>
            </trkpt>
            <trkpt lat="50.0267264" lon="9.7260984">
                <ele>154.0</ele>
                <time>2020-08-28T11:32:26.000Z</time>
                <name>Trackpoint 3457</name>
            </trkpt>
            <trkpt lat="50.0268256" lon="9.7262">
                <ele>154.0</ele>
                <time>2020-08-28T11:32:28.000Z</time>
                <name>Trackpoint 3458</name>
            </trkpt>
            <trkpt lat="50.0269248" lon="9.7263032">
                <ele>154.0</ele>
                <time>2020-08-28T11:32:30.000Z</time>
                <name>Trackpoint 3459</name>
            </trkpt>
            <trkpt lat="50.0270272" lon="9.7263872">
                <ele>154.0</ele>
                <time>2020-08-28T11:32:32.000Z</time>
                <name>Trackpoint 3460</name>
            </trkpt>
            <trkpt lat="50.0271264" lon="9.7264632">
                <ele>154.0</ele>
                <time>2020-08-28T11:32:34.000Z</time>
                <name>Trackpoint 3461</name>
            </trkpt>
            <trkpt lat="50.0272192" lon="9.7265352">
                <ele>154.0</ele>
                <time>2020-08-28T11:32:36.000Z</time>
                <name>Trackpoint 3462</name>
            </trkpt>
            <trkpt lat="50.0273024" lon="9.7265984">
                <ele>154.0</ele>
                <time>2020-08-28T11:32:38.000Z</time>
                <name>Trackpoint 3463</name>
            </trkpt>
            <trkpt lat="50.0273728" lon="9.7266712">
                <ele>154.0</ele>
                <time>2020-08-28T11:32:40.000Z</time>
                <name>Trackpoint 3464</name>
            </trkpt>
            <trkpt lat="50.02744" lon="9.7267376">
                <ele>153.0</ele>
                <time>2020-08-28T11:32:42.000Z</time>
                <name>Trackpoint 3465</name>
            </trkpt>
            <trkpt lat="50.0274912" lon="9.7268184">
                <ele>153.0</ele>
                <time>2020-08-28T11:32:44.000Z</time>
                <name>Trackpoint 3466</name>
            </trkpt>
            <trkpt lat="50.0275424" lon="9.7268984">
                <ele>153.0</ele>
                <time>2020-08-28T11:32:47.000Z</time>
                <name>Trackpoint 3467</name>
            </trkpt>
            <trkpt lat="50.0276096" lon="9.72696">
                <ele>155.0</ele>
                <time>2020-08-28T11:33:33.000Z</time>
                <name>Trackpoint 3468</name>
            </trkpt>
            <trkpt lat="50.0276608" lon="9.7270344">
                <ele>155.0</ele>
                <time>2020-08-28T11:33:36.000Z</time>
                <name>Trackpoint 3469</name>
            </trkpt>
            <trkpt lat="50.0276768" lon="9.7271296">
                <ele>154.0</ele>
                <time>2020-08-28T11:34:44.000Z</time>
                <name>Trackpoint 3470</name>
            </trkpt>
            <trkpt lat="50.0277184" lon="9.7272192">
                <ele>154.0</ele>
                <time>2020-08-28T11:37:15.000Z</time>
                <name>Trackpoint 3471</name>
            </trkpt>
            <trkpt lat="50.0277472" lon="9.727312">
                <ele>154.0</ele>
                <time>2020-08-28T11:37:19.000Z</time>
                <name>Trackpoint 3472</name>
            </trkpt>
            <trkpt lat="50.0277088" lon="9.7273952">
                <ele>154.0</ele>
                <time>2020-08-28T11:37:22.000Z</time>
                <name>Trackpoint 3473</name>
            </trkpt>
            <trkpt lat="50.0276448" lon="9.7274648">
                <ele>154.0</ele>
                <time>2020-08-28T11:37:26.000Z</time>
                <name>Trackpoint 3474</name>
            </trkpt>
            <trkpt lat="50.0276" lon="9.7275488">
                <ele>154.0</ele>
                <time>2020-08-28T11:38:24.000Z</time>
                <name>Trackpoint 3475</name>
            </trkpt>
            <trkpt lat="50.0276192" lon="9.7276552">
                <ele>154.0</ele>
                <time>2020-08-28T11:38:27.000Z</time>
                <name>Trackpoint 3476</name>
            </trkpt>
            <trkpt lat="50.0276704" lon="9.7277872">
                <ele>154.0</ele>
                <time>2020-08-28T11:38:30.000Z</time>
                <name>Trackpoint 3477</name>
            </trkpt>
            <trkpt lat="50.027728" lon="9.7278784">
                <ele>154.0</ele>
                <time>2020-08-28T11:38:32.000Z</time>
                <name>Trackpoint 3478</name>
            </trkpt>
            <trkpt lat="50.0277856" lon="9.7279584">
                <ele>154.0</ele>
                <time>2020-08-28T11:38:34.000Z</time>
                <name>Trackpoint 3479</name>
            </trkpt>
            <trkpt lat="50.02784" lon="9.7280304">
                <ele>154.0</ele>
                <time>2020-08-28T11:38:36.000Z</time>
                <name>Trackpoint 3480</name>
            </trkpt>
            <trkpt lat="50.0279136" lon="9.7281">
                <ele>154.0</ele>
                <time>2020-08-28T11:38:38.000Z</time>
                <name>Trackpoint 3481</name>
            </trkpt>
            <trkpt lat="50.0279872" lon="9.728184">
                <ele>154.0</ele>
                <time>2020-08-28T11:38:40.000Z</time>
                <name>Trackpoint 3482</name>
            </trkpt>
            <trkpt lat="50.0280672" lon="9.7282696">
                <ele>154.0</ele>
                <time>2020-08-28T11:38:42.000Z</time>
                <name>Trackpoint 3483</name>
            </trkpt>
            <trkpt lat="50.0281632" lon="9.7283632">
                <ele>154.0</ele>
                <time>2020-08-28T11:38:44.000Z</time>
                <name>Trackpoint 3484</name>
            </trkpt>
            <trkpt lat="50.028256" lon="9.7284472">
                <ele>154.0</ele>
                <time>2020-08-28T11:38:46.000Z</time>
                <name>Trackpoint 3485</name>
            </trkpt>
            <trkpt lat="50.0283584" lon="9.7285248">
                <ele>154.0</ele>
                <time>2020-08-28T11:38:48.000Z</time>
                <name>Trackpoint 3486</name>
            </trkpt>
            <trkpt lat="50.0284512" lon="9.7286128">
                <ele>154.0</ele>
                <time>2020-08-28T11:38:50.000Z</time>
                <name>Trackpoint 3487</name>
            </trkpt>
            <trkpt lat="50.0285376" lon="9.7287032">
                <ele>154.0</ele>
                <time>2020-08-28T11:38:52.000Z</time>
                <name>Trackpoint 3488</name>
            </trkpt>
            <trkpt lat="50.0286336" lon="9.7287864">
                <ele>154.0</ele>
                <time>2020-08-28T11:38:54.000Z</time>
                <name>Trackpoint 3489</name>
            </trkpt>
            <trkpt lat="50.0287296" lon="9.72886">
                <ele>154.0</ele>
                <time>2020-08-28T11:38:56.000Z</time>
                <name>Trackpoint 3490</name>
            </trkpt>
            <trkpt lat="50.0288224" lon="9.7289216">
                <ele>154.0</ele>
                <time>2020-08-28T11:38:58.000Z</time>
                <name>Trackpoint 3491</name>
            </trkpt>
            <trkpt lat="50.0289216" lon="9.7289816">
                <ele>154.0</ele>
                <time>2020-08-28T11:39:00.000Z</time>
                <name>Trackpoint 3492</name>
            </trkpt>
            <trkpt lat="50.0290304" lon="9.7290352">
                <ele>154.0</ele>
                <time>2020-08-28T11:39:02.000Z</time>
                <name>Trackpoint 3493</name>
            </trkpt>
            <trkpt lat="50.0291328" lon="9.7290848">
                <ele>155.0</ele>
                <time>2020-08-28T11:39:04.000Z</time>
                <name>Trackpoint 3494</name>
            </trkpt>
            <trkpt lat="50.0292448" lon="9.7291216">
                <ele>155.0</ele>
                <time>2020-08-28T11:39:06.000Z</time>
                <name>Trackpoint 3495</name>
            </trkpt>
            <trkpt lat="50.0293504" lon="9.7291336">
                <ele>155.0</ele>
                <time>2020-08-28T11:39:08.000Z</time>
                <name>Trackpoint 3496</name>
            </trkpt>
            <trkpt lat="50.0294464" lon="9.7291584">
                <ele>155.0</ele>
                <time>2020-08-28T11:39:10.000Z</time>
                <name>Trackpoint 3497</name>
            </trkpt>
            <trkpt lat="50.0295424" lon="9.72916">
                <ele>155.0</ele>
                <time>2020-08-28T11:39:12.000Z</time>
                <name>Trackpoint 3498</name>
            </trkpt>
            <trkpt lat="50.0296704" lon="9.7291632">
                <ele>155.0</ele>
                <time>2020-08-28T11:39:15.000Z</time>
                <name>Trackpoint 3499</name>
            </trkpt>
            <trkpt lat="50.0298016" lon="9.7291744">
                <ele>155.0</ele>
                <time>2020-08-28T11:39:18.000Z</time>
                <name>Trackpoint 3500</name>
            </trkpt>
            <trkpt lat="50.0299072" lon="9.7291736">
                <ele>155.0</ele>
                <time>2020-08-28T11:39:20.000Z</time>
                <name>Trackpoint 3501</name>
            </trkpt>
            <trkpt lat="50.0300224" lon="9.729168">
                <ele>155.0</ele>
                <time>2020-08-28T11:39:22.000Z</time>
                <name>Trackpoint 3502</name>
            </trkpt>
            <trkpt lat="50.030144" lon="9.7291648">
                <ele>155.0</ele>
                <time>2020-08-28T11:39:24.000Z</time>
                <name>Trackpoint 3503</name>
            </trkpt>
            <trkpt lat="50.0302784" lon="9.729152">
                <ele>155.0</ele>
                <time>2020-08-28T11:39:26.000Z</time>
                <name>Trackpoint 3504</name>
            </trkpt>
            <trkpt lat="50.0304" lon="9.729132">
                <ele>155.0</ele>
                <time>2020-08-28T11:39:28.000Z</time>
                <name>Trackpoint 3505</name>
            </trkpt>
            <trkpt lat="50.0305088" lon="9.7291024">
                <ele>155.0</ele>
                <time>2020-08-28T11:39:30.000Z</time>
                <name>Trackpoint 3506</name>
            </trkpt>
            <trkpt lat="50.0306272" lon="9.7290784">
                <ele>155.0</ele>
                <time>2020-08-28T11:39:32.000Z</time>
                <name>Trackpoint 3507</name>
            </trkpt>
            <trkpt lat="50.0307424" lon="9.7290584">
                <ele>155.0</ele>
                <time>2020-08-28T11:39:34.000Z</time>
                <name>Trackpoint 3508</name>
            </trkpt>
            <trkpt lat="50.0308576" lon="9.7290184">
                <ele>155.0</ele>
                <time>2020-08-28T11:39:36.000Z</time>
                <name>Trackpoint 3509</name>
            </trkpt>
            <trkpt lat="50.0309792" lon="9.72898">
                <ele>155.0</ele>
                <time>2020-08-28T11:39:38.000Z</time>
                <name>Trackpoint 3510</name>
            </trkpt>
            <trkpt lat="50.031104" lon="9.7289448">
                <ele>156.0</ele>
                <time>2020-08-28T11:39:40.000Z</time>
                <name>Trackpoint 3511</name>
            </trkpt>
            <trkpt lat="50.0312256" lon="9.7289088">
                <ele>156.0</ele>
                <time>2020-08-28T11:39:42.000Z</time>
                <name>Trackpoint 3512</name>
            </trkpt>
            <trkpt lat="50.0313536" lon="9.7288736">
                <ele>156.0</ele>
                <time>2020-08-28T11:39:44.000Z</time>
                <name>Trackpoint 3513</name>
            </trkpt>
            <trkpt lat="50.0314752" lon="9.7288464">
                <ele>156.0</ele>
                <time>2020-08-28T11:39:46.000Z</time>
                <name>Trackpoint 3514</name>
            </trkpt>
            <trkpt lat="50.0315968" lon="9.7288176">
                <ele>156.0</ele>
                <time>2020-08-28T11:39:48.000Z</time>
                <name>Trackpoint 3515</name>
            </trkpt>
            <trkpt lat="50.0317216" lon="9.7287928">
                <ele>156.0</ele>
                <time>2020-08-28T11:39:50.000Z</time>
                <name>Trackpoint 3516</name>
            </trkpt>
            <trkpt lat="50.0318464" lon="9.7287712">
                <ele>156.0</ele>
                <time>2020-08-28T11:39:52.000Z</time>
                <name>Trackpoint 3517</name>
            </trkpt>
            <trkpt lat="50.0319648" lon="9.7287464">
                <ele>156.0</ele>
                <time>2020-08-28T11:39:54.000Z</time>
                <name>Trackpoint 3518</name>
            </trkpt>
            <trkpt lat="50.0320832" lon="9.7287184">
                <ele>156.0</ele>
                <time>2020-08-28T11:39:56.000Z</time>
                <name>Trackpoint 3519</name>
            </trkpt>
            <trkpt lat="50.032192" lon="9.7286816">
                <ele>156.0</ele>
                <time>2020-08-28T11:39:58.000Z</time>
                <name>Trackpoint 3520</name>
            </trkpt>
            <trkpt lat="50.0323072" lon="9.728632">
                <ele>156.0</ele>
                <time>2020-08-28T11:40:00.000Z</time>
                <name>Trackpoint 3521</name>
            </trkpt>
            <trkpt lat="50.0324096" lon="9.7285832">
                <ele>156.0</ele>
                <time>2020-08-28T11:40:02.000Z</time>
                <name>Trackpoint 3522</name>
            </trkpt>
            <trkpt lat="50.0325152" lon="9.728548">
                <ele>156.0</ele>
                <time>2020-08-28T11:40:04.000Z</time>
                <name>Trackpoint 3523</name>
            </trkpt>
            <trkpt lat="50.0326208" lon="9.728492">
                <ele>156.0</ele>
                <time>2020-08-28T11:40:06.000Z</time>
                <name>Trackpoint 3524</name>
            </trkpt>
            <trkpt lat="50.0327232" lon="9.7284232">
                <ele>156.0</ele>
                <time>2020-08-28T11:40:08.000Z</time>
                <name>Trackpoint 3525</name>
            </trkpt>
            <trkpt lat="50.032832" lon="9.7283648">
                <ele>156.0</ele>
                <time>2020-08-28T11:40:10.000Z</time>
                <name>Trackpoint 3526</name>
            </trkpt>
            <trkpt lat="50.0329536" lon="9.72834">
                <ele>156.0</ele>
                <time>2020-08-28T11:40:12.000Z</time>
                <name>Trackpoint 3527</name>
            </trkpt>
            <trkpt lat="50.033088" lon="9.7283432">
                <ele>156.0</ele>
                <time>2020-08-28T11:40:14.000Z</time>
                <name>Trackpoint 3528</name>
            </trkpt>
            <trkpt lat="50.0332096" lon="9.7283312">
                <ele>156.0</ele>
                <time>2020-08-28T11:40:16.000Z</time>
                <name>Trackpoint 3529</name>
            </trkpt>
            <trkpt lat="50.0333376" lon="9.7283184">
                <ele>156.0</ele>
                <time>2020-08-28T11:40:18.000Z</time>
                <name>Trackpoint 3530</name>
            </trkpt>
            <trkpt lat="50.033456" lon="9.7282984">
                <ele>156.0</ele>
                <time>2020-08-28T11:40:20.000Z</time>
                <name>Trackpoint 3531</name>
            </trkpt>
            <trkpt lat="50.0335744" lon="9.7282512">
                <ele>157.0</ele>
                <time>2020-08-28T11:40:22.000Z</time>
                <name>Trackpoint 3532</name>
            </trkpt>
            <trkpt lat="50.0336864" lon="9.7281936">
                <ele>157.0</ele>
                <time>2020-08-28T11:40:24.000Z</time>
                <name>Trackpoint 3533</name>
            </trkpt>
            <trkpt lat="50.0338048" lon="9.7281152">
                <ele>157.0</ele>
                <time>2020-08-28T11:40:26.000Z</time>
                <name>Trackpoint 3534</name>
            </trkpt>
            <trkpt lat="50.0339232" lon="9.7280232">
                <ele>157.0</ele>
                <time>2020-08-28T11:40:28.000Z</time>
                <name>Trackpoint 3535</name>
            </trkpt>
            <trkpt lat="50.0340384" lon="9.727932">
                <ele>157.0</ele>
                <time>2020-08-28T11:40:30.000Z</time>
                <name>Trackpoint 3536</name>
            </trkpt>
            <trkpt lat="50.034144" lon="9.7278136">
                <ele>157.0</ele>
                <time>2020-08-28T11:40:32.000Z</time>
                <name>Trackpoint 3537</name>
            </trkpt>
            <trkpt lat="50.03424" lon="9.7277">
                <ele>157.0</ele>
                <time>2020-08-28T11:40:34.000Z</time>
                <name>Trackpoint 3538</name>
            </trkpt>
            <trkpt lat="50.0343328" lon="9.7275816">
                <ele>157.0</ele>
                <time>2020-08-28T11:40:36.000Z</time>
                <name>Trackpoint 3539</name>
            </trkpt>
            <trkpt lat="50.0344288" lon="9.727464">
                <ele>157.0</ele>
                <time>2020-08-28T11:40:38.000Z</time>
                <name>Trackpoint 3540</name>
            </trkpt>
            <trkpt lat="50.034512" lon="9.727352">
                <ele>157.0</ele>
                <time>2020-08-28T11:40:40.000Z</time>
                <name>Trackpoint 3541</name>
            </trkpt>
            <trkpt lat="50.0345952" lon="9.7272568">
                <ele>157.0</ele>
                <time>2020-08-28T11:40:42.000Z</time>
                <name>Trackpoint 3542</name>
            </trkpt>
            <trkpt lat="50.0346752" lon="9.7271616">
                <ele>157.0</ele>
                <time>2020-08-28T11:40:44.000Z</time>
                <name>Trackpoint 3543</name>
            </trkpt>
            <trkpt lat="50.0347552" lon="9.727072">
                <ele>157.0</ele>
                <time>2020-08-28T11:40:46.000Z</time>
                <name>Trackpoint 3544</name>
            </trkpt>
            <trkpt lat="50.034832" lon="9.7269696">
                <ele>157.0</ele>
                <time>2020-08-28T11:40:48.000Z</time>
                <name>Trackpoint 3545</name>
            </trkpt>
            <trkpt lat="50.0348896" lon="9.7268848">
                <ele>157.0</ele>
                <time>2020-08-28T11:40:50.000Z</time>
                <name>Trackpoint 3546</name>
            </trkpt>
            <trkpt lat="50.0349472" lon="9.7267968">
                <ele>157.0</ele>
                <time>2020-08-28T11:40:52.000Z</time>
                <name>Trackpoint 3547</name>
            </trkpt>
            <trkpt lat="50.035008" lon="9.7267112">
                <ele>157.0</ele>
                <time>2020-08-28T11:40:54.000Z</time>
                <name>Trackpoint 3548</name>
            </trkpt>
            <trkpt lat="50.035072" lon="9.7266152">
                <ele>157.0</ele>
                <time>2020-08-28T11:40:56.000Z</time>
                <name>Trackpoint 3549</name>
            </trkpt>
            <trkpt lat="50.035136" lon="9.7265064">
                <ele>157.0</ele>
                <time>2020-08-28T11:40:58.000Z</time>
                <name>Trackpoint 3550</name>
            </trkpt>
            <trkpt lat="50.0351936" lon="9.7263896">
                <ele>157.0</ele>
                <time>2020-08-28T11:41:00.000Z</time>
                <name>Trackpoint 3551</name>
            </trkpt>
            <trkpt lat="50.0352608" lon="9.7262952">
                <ele>157.0</ele>
                <time>2020-08-28T11:41:02.000Z</time>
                <name>Trackpoint 3552</name>
            </trkpt>
            <trkpt lat="50.035328" lon="9.7261936">
                <ele>157.0</ele>
                <time>2020-08-28T11:41:04.000Z</time>
                <name>Trackpoint 3553</name>
            </trkpt>
            <trkpt lat="50.035392" lon="9.72608">
                <ele>157.0</ele>
                <time>2020-08-28T11:41:06.000Z</time>
                <name>Trackpoint 3554</name>
            </trkpt>
            <trkpt lat="50.0354688" lon="9.7259384">
                <ele>157.0</ele>
                <time>2020-08-28T11:41:08.000Z</time>
                <name>Trackpoint 3555</name>
            </trkpt>
            <trkpt lat="50.0355456" lon="9.7257944">
                <ele>157.0</ele>
                <time>2020-08-28T11:41:10.000Z</time>
                <name>Trackpoint 3556</name>
            </trkpt>
            <trkpt lat="50.035632" lon="9.7256584">
                <ele>157.0</ele>
                <time>2020-08-28T11:41:12.000Z</time>
                <name>Trackpoint 3557</name>
            </trkpt>
            <trkpt lat="50.0357088" lon="9.7255184">
                <ele>157.0</ele>
                <time>2020-08-28T11:41:14.000Z</time>
                <name>Trackpoint 3558</name>
            </trkpt>
            <trkpt lat="50.035792" lon="9.7253736">
                <ele>157.0</ele>
                <time>2020-08-28T11:41:16.000Z</time>
                <name>Trackpoint 3559</name>
            </trkpt>
            <trkpt lat="50.035872" lon="9.7252168">
                <ele>157.0</ele>
                <time>2020-08-28T11:41:18.000Z</time>
                <name>Trackpoint 3560</name>
            </trkpt>
            <trkpt lat="50.0359264" lon="9.7250696">
                <ele>157.0</ele>
                <time>2020-08-28T11:41:20.000Z</time>
                <name>Trackpoint 3561</name>
            </trkpt>
            <trkpt lat="50.035984" lon="9.7249296">
                <ele>157.0</ele>
                <time>2020-08-28T11:41:22.000Z</time>
                <name>Trackpoint 3562</name>
            </trkpt>
            <trkpt lat="50.0360416" lon="9.7247912">
                <ele>157.0</ele>
                <time>2020-08-28T11:41:24.000Z</time>
                <name>Trackpoint 3563</name>
            </trkpt>
            <trkpt lat="50.0361088" lon="9.7246616">
                <ele>157.0</ele>
                <time>2020-08-28T11:41:26.000Z</time>
                <name>Trackpoint 3564</name>
            </trkpt>
            <trkpt lat="50.0361664" lon="9.7245304">
                <ele>157.0</ele>
                <time>2020-08-28T11:41:28.000Z</time>
                <name>Trackpoint 3565</name>
            </trkpt>
            <trkpt lat="50.0362176" lon="9.7243992">
                <ele>157.0</ele>
                <time>2020-08-28T11:41:30.000Z</time>
                <name>Trackpoint 3566</name>
            </trkpt>
            <trkpt lat="50.0362752" lon="9.7242936">
                <ele>157.0</ele>
                <time>2020-08-28T11:41:32.000Z</time>
                <name>Trackpoint 3567</name>
            </trkpt>
            <trkpt lat="50.03632" lon="9.724172">
                <ele>157.0</ele>
                <time>2020-08-28T11:41:34.000Z</time>
                <name>Trackpoint 3568</name>
            </trkpt>
            <trkpt lat="50.0363648" lon="9.7240384">
                <ele>157.0</ele>
                <time>2020-08-28T11:41:36.000Z</time>
                <name>Trackpoint 3569</name>
            </trkpt>
            <trkpt lat="50.036416" lon="9.7239112">
                <ele>157.0</ele>
                <time>2020-08-28T11:41:38.000Z</time>
                <name>Trackpoint 3570</name>
            </trkpt>
            <trkpt lat="50.0364672" lon="9.7237952">
                <ele>157.0</ele>
                <time>2020-08-28T11:41:40.000Z</time>
                <name>Trackpoint 3571</name>
            </trkpt>
            <trkpt lat="50.0365152" lon="9.7236656">
                <ele>157.0</ele>
                <time>2020-08-28T11:41:42.000Z</time>
                <name>Trackpoint 3572</name>
            </trkpt>
            <trkpt lat="50.0365664" lon="9.723528">
                <ele>157.0</ele>
                <time>2020-08-28T11:41:44.000Z</time>
                <name>Trackpoint 3573</name>
            </trkpt>
            <trkpt lat="50.036624" lon="9.7233752">
                <ele>157.0</ele>
                <time>2020-08-28T11:41:46.000Z</time>
                <name>Trackpoint 3574</name>
            </trkpt>
            <trkpt lat="50.0366816" lon="9.7232176">
                <ele>157.0</ele>
                <time>2020-08-28T11:41:48.000Z</time>
                <name>Trackpoint 3575</name>
            </trkpt>
            <trkpt lat="50.036704" lon="9.723128">
                <ele>157.0</ele>
                <time>2020-08-28T11:41:49.000Z</time>
                <name>Trackpoint 3576</name>
            </trkpt>
            <trkpt lat="50.0367648" lon="9.722972">
                <ele>157.0</ele>
                <time>2020-08-28T11:41:51.000Z</time>
                <name>Trackpoint 3577</name>
            </trkpt>
            <trkpt lat="50.0368192" lon="9.7228136">
                <ele>157.0</ele>
                <time>2020-08-28T11:41:53.000Z</time>
                <name>Trackpoint 3578</name>
            </trkpt>
            <trkpt lat="50.0368704" lon="9.7226648">
                <ele>157.0</ele>
                <time>2020-08-28T11:41:55.000Z</time>
                <name>Trackpoint 3579</name>
            </trkpt>
            <trkpt lat="50.0369216" lon="9.722524">
                <ele>157.0</ele>
                <time>2020-08-28T11:41:57.000Z</time>
                <name>Trackpoint 3580</name>
            </trkpt>
            <trkpt lat="50.0369792" lon="9.722372">
                <ele>157.0</ele>
                <time>2020-08-28T11:41:59.000Z</time>
                <name>Trackpoint 3581</name>
            </trkpt>
            <trkpt lat="50.0370368" lon="9.7222144">
                <ele>156.0</ele>
                <time>2020-08-28T11:42:01.000Z</time>
                <name>Trackpoint 3582</name>
            </trkpt>
            <trkpt lat="50.0370912" lon="9.7220696">
                <ele>156.0</ele>
                <time>2020-08-28T11:42:03.000Z</time>
                <name>Trackpoint 3583</name>
            </trkpt>
            <trkpt lat="50.037152" lon="9.7219112">
                <ele>156.0</ele>
                <time>2020-08-28T11:42:05.000Z</time>
                <name>Trackpoint 3584</name>
            </trkpt>
            <trkpt lat="50.0372128" lon="9.7217864">
                <ele>156.0</ele>
                <time>2020-08-28T11:42:07.000Z</time>
                <name>Trackpoint 3585</name>
            </trkpt>
            <trkpt lat="50.0372768" lon="9.7216752">
                <ele>156.0</ele>
                <time>2020-08-28T11:42:09.000Z</time>
                <name>Trackpoint 3586</name>
            </trkpt>
            <trkpt lat="50.0373376" lon="9.721532">
                <ele>156.0</ele>
                <time>2020-08-28T11:42:11.000Z</time>
                <name>Trackpoint 3587</name>
            </trkpt>
            <trkpt lat="50.0373664" lon="9.7214336">
                <ele>156.0</ele>
                <time>2020-08-28T11:42:12.000Z</time>
                <name>Trackpoint 3588</name>
            </trkpt>
            <trkpt lat="50.037392" lon="9.7213352">
                <ele>156.0</ele>
                <time>2020-08-28T11:42:13.000Z</time>
                <name>Trackpoint 3589</name>
            </trkpt>
            <trkpt lat="50.0374208" lon="9.72124">
                <ele>156.0</ele>
                <time>2020-08-28T11:42:14.000Z</time>
                <name>Trackpoint 3590</name>
            </trkpt>
            <trkpt lat="50.0374496" lon="9.7211504">
                <ele>156.0</ele>
                <time>2020-08-28T11:42:15.000Z</time>
                <name>Trackpoint 3591</name>
            </trkpt>
            <trkpt lat="50.0374752" lon="9.7210528">
                <ele>156.0</ele>
                <time>2020-08-28T11:42:16.000Z</time>
                <name>Trackpoint 3592</name>
            </trkpt>
            <trkpt lat="50.0375072" lon="9.7209632">
                <ele>156.0</ele>
                <time>2020-08-28T11:42:17.000Z</time>
                <name>Trackpoint 3593</name>
            </trkpt>
            <trkpt lat="50.0375328" lon="9.720868">
                <ele>156.0</ele>
                <time>2020-08-28T11:42:18.000Z</time>
                <name>Trackpoint 3594</name>
            </trkpt>
            <trkpt lat="50.0375584" lon="9.7207744">
                <ele>156.0</ele>
                <time>2020-08-28T11:42:19.000Z</time>
                <name>Trackpoint 3595</name>
            </trkpt>
            <trkpt lat="50.0375808" lon="9.7206832">
                <ele>156.0</ele>
                <time>2020-08-28T11:42:20.000Z</time>
                <name>Trackpoint 3596</name>
            </trkpt>
            <trkpt lat="50.0376064" lon="9.7205896">
                <ele>156.0</ele>
                <time>2020-08-28T11:42:21.000Z</time>
                <name>Trackpoint 3597</name>
            </trkpt>
            <trkpt lat="50.037632" lon="9.7205016">
                <ele>156.0</ele>
                <time>2020-08-28T11:42:22.000Z</time>
                <name>Trackpoint 3598</name>
            </trkpt>
            <trkpt lat="50.0376576" lon="9.7204104">
                <ele>156.0</ele>
                <time>2020-08-28T11:42:23.000Z</time>
                <name>Trackpoint 3599</name>
            </trkpt>
            <trkpt lat="50.0377184" lon="9.7202456">
                <ele>156.0</ele>
                <time>2020-08-28T11:42:25.000Z</time>
                <name>Trackpoint 3600</name>
            </trkpt>
            <trkpt lat="50.0377696" lon="9.720088">
                <ele>156.0</ele>
                <time>2020-08-28T11:42:27.000Z</time>
                <name>Trackpoint 3601</name>
            </trkpt>
            <trkpt lat="50.0378176" lon="9.7199272">
                <ele>156.0</ele>
                <time>2020-08-28T11:42:29.000Z</time>
                <name>Trackpoint 3602</name>
            </trkpt>
            <trkpt lat="50.0378784" lon="9.7197768">
                <ele>156.0</ele>
                <time>2020-08-28T11:42:31.000Z</time>
                <name>Trackpoint 3603</name>
            </trkpt>
            <trkpt lat="50.0379488" lon="9.7196256">
                <ele>156.0</ele>
                <time>2020-08-28T11:42:33.000Z</time>
                <name>Trackpoint 3604</name>
            </trkpt>
            <trkpt lat="50.0380128" lon="9.719472">
                <ele>156.0</ele>
                <time>2020-08-28T11:42:35.000Z</time>
                <name>Trackpoint 3605</name>
            </trkpt>
            <trkpt lat="50.0380864" lon="9.7193296">
                <ele>155.0</ele>
                <time>2020-08-28T11:42:37.000Z</time>
                <name>Trackpoint 3606</name>
            </trkpt>
            <trkpt lat="50.0381632" lon="9.7191664">
                <ele>155.0</ele>
                <time>2020-08-28T11:42:39.000Z</time>
                <name>Trackpoint 3607</name>
            </trkpt>
            <trkpt lat="50.038224" lon="9.7190048">
                <ele>155.0</ele>
                <time>2020-08-28T11:42:41.000Z</time>
                <name>Trackpoint 3608</name>
            </trkpt>
            <trkpt lat="50.0382848" lon="9.718848">
                <ele>155.0</ele>
                <time>2020-08-28T11:42:43.000Z</time>
                <name>Trackpoint 3609</name>
            </trkpt>
            <trkpt lat="50.0383232" lon="9.7187664">
                <ele>155.0</ele>
                <time>2020-08-28T11:42:44.000Z</time>
                <name>Trackpoint 3610</name>
            </trkpt>
            <trkpt lat="50.0383936" lon="9.7185968">
                <ele>155.0</ele>
                <time>2020-08-28T11:42:46.000Z</time>
                <name>Trackpoint 3611</name>
            </trkpt>
            <trkpt lat="50.0384384" lon="9.7185088">
                <ele>155.0</ele>
                <time>2020-08-28T11:42:47.000Z</time>
                <name>Trackpoint 3612</name>
            </trkpt>
            <trkpt lat="50.0385056" lon="9.71834">
                <ele>155.0</ele>
                <time>2020-08-28T11:42:49.000Z</time>
                <name>Trackpoint 3613</name>
            </trkpt>
            <trkpt lat="50.0385376" lon="9.7182512">
                <ele>155.0</ele>
                <time>2020-08-28T11:42:50.000Z</time>
                <name>Trackpoint 3614</name>
            </trkpt>
            <trkpt lat="50.0386048" lon="9.718088">
                <ele>155.0</ele>
                <time>2020-08-28T11:42:52.000Z</time>
                <name>Trackpoint 3615</name>
            </trkpt>
            <trkpt lat="50.038672" lon="9.7179384">
                <ele>154.0</ele>
                <time>2020-08-28T11:42:54.000Z</time>
                <name>Trackpoint 3616</name>
            </trkpt>
            <trkpt lat="50.0387456" lon="9.7177696">
                <ele>154.0</ele>
                <time>2020-08-28T11:42:56.000Z</time>
                <name>Trackpoint 3617</name>
            </trkpt>
            <trkpt lat="50.038784" lon="9.717684">
                <ele>154.0</ele>
                <time>2020-08-28T11:42:57.000Z</time>
                <name>Trackpoint 3618</name>
            </trkpt>
            <trkpt lat="50.0388224" lon="9.7176">
                <ele>154.0</ele>
                <time>2020-08-28T11:42:58.000Z</time>
                <name>Trackpoint 3619</name>
            </trkpt>
            <trkpt lat="50.0388992" lon="9.7174456">
                <ele>154.0</ele>
                <time>2020-08-28T11:43:00.000Z</time>
                <name>Trackpoint 3620</name>
            </trkpt>
            <trkpt lat="50.0389664" lon="9.7172944">
                <ele>154.0</ele>
                <time>2020-08-28T11:43:02.000Z</time>
                <name>Trackpoint 3621</name>
            </trkpt>
            <trkpt lat="50.0390144" lon="9.7171472">
                <ele>154.0</ele>
                <time>2020-08-28T11:43:04.000Z</time>
                <name>Trackpoint 3622</name>
            </trkpt>
            <trkpt lat="50.0390272" lon="9.71698">
                <ele>154.0</ele>
                <time>2020-08-28T11:43:06.000Z</time>
                <name>Trackpoint 3623</name>
            </trkpt>
            <trkpt lat="50.0390368" lon="9.7168816">
                <ele>154.0</ele>
                <time>2020-08-28T11:43:07.000Z</time>
                <name>Trackpoint 3624</name>
            </trkpt>
            <trkpt lat="50.0390432" lon="9.7167856">
                <ele>154.0</ele>
                <time>2020-08-28T11:43:08.000Z</time>
                <name>Trackpoint 3625</name>
            </trkpt>
            <trkpt lat="50.0390592" lon="9.7166816">
                <ele>154.0</ele>
                <time>2020-08-28T11:43:09.000Z</time>
                <name>Trackpoint 3626</name>
            </trkpt>
            <trkpt lat="50.0390752" lon="9.7165816">
                <ele>154.0</ele>
                <time>2020-08-28T11:43:10.000Z</time>
                <name>Trackpoint 3627</name>
            </trkpt>
            <trkpt lat="50.039088" lon="9.7164816">
                <ele>154.0</ele>
                <time>2020-08-28T11:43:11.000Z</time>
                <name>Trackpoint 3628</name>
            </trkpt>
            <trkpt lat="50.039104" lon="9.7163824">
                <ele>154.0</ele>
                <time>2020-08-28T11:43:12.000Z</time>
                <name>Trackpoint 3629</name>
            </trkpt>
            <trkpt lat="50.0391232" lon="9.71628">
                <ele>154.0</ele>
                <time>2020-08-28T11:43:13.000Z</time>
                <name>Trackpoint 3630</name>
            </trkpt>
            <trkpt lat="50.0391424" lon="9.7161864">
                <ele>154.0</ele>
                <time>2020-08-28T11:43:14.000Z</time>
                <name>Trackpoint 3631</name>
            </trkpt>
            <trkpt lat="50.0391648" lon="9.7160928">
                <ele>154.0</ele>
                <time>2020-08-28T11:43:15.000Z</time>
                <name>Trackpoint 3632</name>
            </trkpt>
            <trkpt lat="50.0391936" lon="9.7160056">
                <ele>154.0</ele>
                <time>2020-08-28T11:43:16.000Z</time>
                <name>Trackpoint 3633</name>
            </trkpt>
            <trkpt lat="50.039216" lon="9.7159168">
                <ele>154.0</ele>
                <time>2020-08-28T11:43:17.000Z</time>
                <name>Trackpoint 3634</name>
            </trkpt>
            <trkpt lat="50.0392544" lon="9.7157352">
                <ele>154.0</ele>
                <time>2020-08-28T11:43:19.000Z</time>
                <name>Trackpoint 3635</name>
            </trkpt>
            <trkpt lat="50.0392768" lon="9.7155568">
                <ele>154.0</ele>
                <time>2020-08-28T11:43:21.000Z</time>
                <name>Trackpoint 3636</name>
            </trkpt>
            <trkpt lat="50.0393024" lon="9.71538">
                <ele>154.0</ele>
                <time>2020-08-28T11:43:23.000Z</time>
                <name>Trackpoint 3637</name>
            </trkpt>
            <trkpt lat="50.0393216" lon="9.7152864">
                <ele>154.0</ele>
                <time>2020-08-28T11:43:24.000Z</time>
                <name>Trackpoint 3638</name>
            </trkpt>
            <trkpt lat="50.039344" lon="9.7151184">
                <ele>154.0</ele>
                <time>2020-08-28T11:43:26.000Z</time>
                <name>Trackpoint 3639</name>
            </trkpt>
            <trkpt lat="50.0393664" lon="9.71494">
                <ele>154.0</ele>
                <time>2020-08-28T11:43:28.000Z</time>
                <name>Trackpoint 3640</name>
            </trkpt>
            <trkpt lat="50.0393984" lon="9.7147648">
                <ele>153.0</ele>
                <time>2020-08-28T11:43:30.000Z</time>
                <name>Trackpoint 3641</name>
            </trkpt>
            <trkpt lat="50.0394144" lon="9.714672">
                <ele>153.0</ele>
                <time>2020-08-28T11:43:31.000Z</time>
                <name>Trackpoint 3642</name>
            </trkpt>
            <trkpt lat="50.039424" lon="9.7145784">
                <ele>153.0</ele>
                <time>2020-08-28T11:43:32.000Z</time>
                <name>Trackpoint 3643</name>
            </trkpt>
            <trkpt lat="50.03944" lon="9.7144848">
                <ele>153.0</ele>
                <time>2020-08-28T11:43:33.000Z</time>
                <name>Trackpoint 3644</name>
            </trkpt>
            <trkpt lat="50.0394656" lon="9.7143096">
                <ele>152.0</ele>
                <time>2020-08-28T11:43:35.000Z</time>
                <name>Trackpoint 3645</name>
            </trkpt>
            <trkpt lat="50.0394944" lon="9.7141368">
                <ele>152.0</ele>
                <time>2020-08-28T11:43:37.000Z</time>
                <name>Trackpoint 3646</name>
            </trkpt>
            <trkpt lat="50.03952" lon="9.7139632">
                <ele>153.0</ele>
                <time>2020-08-28T11:43:39.000Z</time>
                <name>Trackpoint 3647</name>
            </trkpt>
            <trkpt lat="50.039552" lon="9.713792">
                <ele>153.0</ele>
                <time>2020-08-28T11:43:41.000Z</time>
                <name>Trackpoint 3648</name>
            </trkpt>
            <trkpt lat="50.0395904" lon="9.71362">
                <ele>153.0</ele>
                <time>2020-08-28T11:43:43.000Z</time>
                <name>Trackpoint 3649</name>
            </trkpt>
            <trkpt lat="50.0396352" lon="9.7134512">
                <ele>153.0</ele>
                <time>2020-08-28T11:43:45.000Z</time>
                <name>Trackpoint 3650</name>
            </trkpt>
            <trkpt lat="50.0396896" lon="9.7132928">
                <ele>153.0</ele>
                <time>2020-08-28T11:43:47.000Z</time>
                <name>Trackpoint 3651</name>
            </trkpt>
            <trkpt lat="50.039744" lon="9.7131328">
                <ele>153.0</ele>
                <time>2020-08-28T11:43:49.000Z</time>
                <name>Trackpoint 3652</name>
            </trkpt>
            <trkpt lat="50.0397984" lon="9.7129696">
                <ele>153.0</ele>
                <time>2020-08-28T11:43:51.000Z</time>
                <name>Trackpoint 3653</name>
            </trkpt>
            <trkpt lat="50.039856" lon="9.7128112">
                <ele>153.0</ele>
                <time>2020-08-28T11:43:53.000Z</time>
                <name>Trackpoint 3654</name>
            </trkpt>
            <trkpt lat="50.0399136" lon="9.7126512">
                <ele>153.0</ele>
                <time>2020-08-28T11:43:55.000Z</time>
                <name>Trackpoint 3655</name>
            </trkpt>
            <trkpt lat="50.0399712" lon="9.7124904">
                <ele>153.0</ele>
                <time>2020-08-28T11:43:57.000Z</time>
                <name>Trackpoint 3656</name>
            </trkpt>
            <trkpt lat="50.0400288" lon="9.7123344">
                <ele>153.0</ele>
                <time>2020-08-28T11:43:59.000Z</time>
                <name>Trackpoint 3657</name>
            </trkpt>
            <trkpt lat="50.0400864" lon="9.712176">
                <ele>153.0</ele>
                <time>2020-08-28T11:44:01.000Z</time>
                <name>Trackpoint 3658</name>
            </trkpt>
            <trkpt lat="50.0401472" lon="9.7120152">
                <ele>153.0</ele>
                <time>2020-08-28T11:44:03.000Z</time>
                <name>Trackpoint 3659</name>
            </trkpt>
            <trkpt lat="50.0401952" lon="9.7118432">
                <ele>153.0</ele>
                <time>2020-08-28T11:44:05.000Z</time>
                <name>Trackpoint 3660</name>
            </trkpt>
            <trkpt lat="50.0402208" lon="9.7117544">
                <ele>153.0</ele>
                <time>2020-08-28T11:44:06.000Z</time>
                <name>Trackpoint 3661</name>
            </trkpt>
            <trkpt lat="50.0402464" lon="9.711668">
                <ele>153.0</ele>
                <time>2020-08-28T11:44:07.000Z</time>
                <name>Trackpoint 3662</name>
            </trkpt>
            <trkpt lat="50.040272" lon="9.7115784">
                <ele>153.0</ele>
                <time>2020-08-28T11:44:08.000Z</time>
                <name>Trackpoint 3663</name>
            </trkpt>
            <trkpt lat="50.0402976" lon="9.7114896">
                <ele>153.0</ele>
                <time>2020-08-28T11:44:09.000Z</time>
                <name>Trackpoint 3664</name>
            </trkpt>
            <trkpt lat="50.0403296" lon="9.7114">
                <ele>153.0</ele>
                <time>2020-08-28T11:44:10.000Z</time>
                <name>Trackpoint 3665</name>
            </trkpt>
            <trkpt lat="50.0403584" lon="9.7113104">
                <ele>153.0</ele>
                <time>2020-08-28T11:44:11.000Z</time>
                <name>Trackpoint 3666</name>
            </trkpt>
            <trkpt lat="50.0403904" lon="9.711224">
                <ele>153.0</ele>
                <time>2020-08-28T11:44:12.000Z</time>
                <name>Trackpoint 3667</name>
            </trkpt>
            <trkpt lat="50.0404256" lon="9.7111384">
                <ele>153.0</ele>
                <time>2020-08-28T11:44:13.000Z</time>
                <name>Trackpoint 3668</name>
            </trkpt>
            <trkpt lat="50.040496" lon="9.7109736">
                <ele>153.0</ele>
                <time>2020-08-28T11:44:15.000Z</time>
                <name>Trackpoint 3669</name>
            </trkpt>
            <trkpt lat="50.0405664" lon="9.7108096">
                <ele>153.0</ele>
                <time>2020-08-28T11:44:17.000Z</time>
                <name>Trackpoint 3670</name>
            </trkpt>
            <trkpt lat="50.0405984" lon="9.7107248">
                <ele>153.0</ele>
                <time>2020-08-28T11:44:18.000Z</time>
                <name>Trackpoint 3671</name>
            </trkpt>
            <trkpt lat="50.0406176" lon="9.7106352">
                <ele>153.0</ele>
                <time>2020-08-28T11:44:19.000Z</time>
                <name>Trackpoint 3672</name>
            </trkpt>
            <trkpt lat="50.0406272" lon="9.71054">
                <ele>153.0</ele>
                <time>2020-08-28T11:44:20.000Z</time>
                <name>Trackpoint 3673</name>
            </trkpt>
            <trkpt lat="50.0406272" lon="9.7104464">
                <ele>153.0</ele>
                <time>2020-08-28T11:44:21.000Z</time>
                <name>Trackpoint 3674</name>
            </trkpt>
            <trkpt lat="50.0406176" lon="9.7103464">
                <ele>153.0</ele>
                <time>2020-08-28T11:44:22.000Z</time>
                <name>Trackpoint 3675</name>
            </trkpt>
            <trkpt lat="50.040624" lon="9.7102496">
                <ele>153.0</ele>
                <time>2020-08-28T11:44:23.000Z</time>
                <name>Trackpoint 3676</name>
            </trkpt>
            <trkpt lat="50.0406368" lon="9.7101544">
                <ele>153.0</ele>
                <time>2020-08-28T11:44:24.000Z</time>
                <name>Trackpoint 3677</name>
            </trkpt>
            <trkpt lat="50.0406688" lon="9.7100688">
                <ele>154.0</ele>
                <time>2020-08-28T11:44:25.000Z</time>
                <name>Trackpoint 3678</name>
            </trkpt>
            <trkpt lat="50.040704" lon="9.7099848">
                <ele>154.0</ele>
                <time>2020-08-28T11:44:26.000Z</time>
                <name>Trackpoint 3679</name>
            </trkpt>
            <trkpt lat="50.0407776" lon="9.7098312">
                <ele>153.0</ele>
                <time>2020-08-28T11:44:28.000Z</time>
                <name>Trackpoint 3680</name>
            </trkpt>
            <trkpt lat="50.0408608" lon="9.7096784">
                <ele>154.0</ele>
                <time>2020-08-28T11:44:30.000Z</time>
                <name>Trackpoint 3681</name>
            </trkpt>
            <trkpt lat="50.0409024" lon="9.709592">
                <ele>154.0</ele>
                <time>2020-08-28T11:44:31.000Z</time>
                <name>Trackpoint 3682</name>
            </trkpt>
            <trkpt lat="50.040944" lon="9.7095096">
                <ele>154.0</ele>
                <time>2020-08-28T11:44:32.000Z</time>
                <name>Trackpoint 3683</name>
            </trkpt>
            <trkpt lat="50.0409856" lon="9.7094288">
                <ele>153.0</ele>
                <time>2020-08-28T11:44:33.000Z</time>
                <name>Trackpoint 3684</name>
            </trkpt>
            <trkpt lat="50.0410304" lon="9.7093488">
                <ele>153.0</ele>
                <time>2020-08-28T11:44:34.000Z</time>
                <name>Trackpoint 3685</name>
            </trkpt>
            <trkpt lat="50.041072" lon="9.7092648">
                <ele>153.0</ele>
                <time>2020-08-28T11:44:35.000Z</time>
                <name>Trackpoint 3686</name>
            </trkpt>
            <trkpt lat="50.04112" lon="9.7091864">
                <ele>153.0</ele>
                <time>2020-08-28T11:44:36.000Z</time>
                <name>Trackpoint 3687</name>
            </trkpt>
            <trkpt lat="50.0412096" lon="9.7090352">
                <ele>153.0</ele>
                <time>2020-08-28T11:44:38.000Z</time>
                <name>Trackpoint 3688</name>
            </trkpt>
            <trkpt lat="50.0413024" lon="9.7088896">
                <ele>153.0</ele>
                <time>2020-08-28T11:44:40.000Z</time>
                <name>Trackpoint 3689</name>
            </trkpt>
            <trkpt lat="50.0414016" lon="9.70876">
                <ele>154.0</ele>
                <time>2020-08-28T11:44:42.000Z</time>
                <name>Trackpoint 3690</name>
            </trkpt>
            <trkpt lat="50.0415008" lon="9.70862">
                <ele>154.0</ele>
                <time>2020-08-28T11:44:44.000Z</time>
                <name>Trackpoint 3691</name>
            </trkpt>
            <trkpt lat="50.0416" lon="9.708484">
                <ele>154.0</ele>
                <time>2020-08-28T11:44:46.000Z</time>
                <name>Trackpoint 3692</name>
            </trkpt>
            <trkpt lat="50.041696" lon="9.7083528">
                <ele>154.0</ele>
                <time>2020-08-28T11:44:48.000Z</time>
                <name>Trackpoint 3693</name>
            </trkpt>
            <trkpt lat="50.0417856" lon="9.7082256">
                <ele>155.0</ele>
                <time>2020-08-28T11:44:50.000Z</time>
                <name>Trackpoint 3694</name>
            </trkpt>
            <trkpt lat="50.0418816" lon="9.7080968">
                <ele>155.0</ele>
                <time>2020-08-28T11:44:52.000Z</time>
                <name>Trackpoint 3695</name>
            </trkpt>
            <trkpt lat="50.0419616" lon="9.7079896">
                <ele>156.0</ele>
                <time>2020-08-28T11:44:54.000Z</time>
                <name>Trackpoint 3696</name>
            </trkpt>
            <trkpt lat="50.042064" lon="9.7079112">
                <ele>157.0</ele>
                <time>2020-08-28T11:44:56.000Z</time>
                <name>Trackpoint 3697</name>
            </trkpt>
            <trkpt lat="50.0421536" lon="9.7078136">
                <ele>157.0</ele>
                <time>2020-08-28T11:44:58.000Z</time>
                <name>Trackpoint 3698</name>
            </trkpt>
            <trkpt lat="50.0422368" lon="9.707708">
                <ele>158.0</ele>
                <time>2020-08-28T11:45:00.000Z</time>
                <name>Trackpoint 3699</name>
            </trkpt>
            <trkpt lat="50.04232" lon="9.7075984">
                <ele>158.0</ele>
                <time>2020-08-28T11:45:02.000Z</time>
                <name>Trackpoint 3700</name>
            </trkpt>
            <trkpt lat="50.0424032" lon="9.7074744">
                <ele>158.0</ele>
                <time>2020-08-28T11:45:04.000Z</time>
                <name>Trackpoint 3701</name>
            </trkpt>
            <trkpt lat="50.0424896" lon="9.7073616">
                <ele>158.0</ele>
                <time>2020-08-28T11:45:06.000Z</time>
                <name>Trackpoint 3702</name>
            </trkpt>
            <trkpt lat="50.042576" lon="9.70726">
                <ele>159.0</ele>
                <time>2020-08-28T11:45:08.000Z</time>
                <name>Trackpoint 3703</name>
            </trkpt>
            <trkpt lat="50.042656" lon="9.70714">
                <ele>158.0</ele>
                <time>2020-08-28T11:45:10.000Z</time>
                <name>Trackpoint 3704</name>
            </trkpt>
            <trkpt lat="50.0427392" lon="9.7070216">
                <ele>159.0</ele>
                <time>2020-08-28T11:45:12.000Z</time>
                <name>Trackpoint 3705</name>
            </trkpt>
            <trkpt lat="50.0428192" lon="9.7069056">
                <ele>159.0</ele>
                <time>2020-08-28T11:45:14.000Z</time>
                <name>Trackpoint 3706</name>
            </trkpt>
            <trkpt lat="50.0429088" lon="9.7067896">
                <ele>159.0</ele>
                <time>2020-08-28T11:45:16.000Z</time>
                <name>Trackpoint 3707</name>
            </trkpt>
            <trkpt lat="50.0429952" lon="9.7066784">
                <ele>159.0</ele>
                <time>2020-08-28T11:45:18.000Z</time>
                <name>Trackpoint 3708</name>
            </trkpt>
            <trkpt lat="50.0430784" lon="9.7065632">
                <ele>159.0</ele>
                <time>2020-08-28T11:45:20.000Z</time>
                <name>Trackpoint 3709</name>
            </trkpt>
            <trkpt lat="50.0431648" lon="9.7064448">
                <ele>159.0</ele>
                <time>2020-08-28T11:45:22.000Z</time>
                <name>Trackpoint 3710</name>
            </trkpt>
            <trkpt lat="50.0432544" lon="9.7063312">
                <ele>158.0</ele>
                <time>2020-08-28T11:45:24.000Z</time>
                <name>Trackpoint 3711</name>
            </trkpt>
            <trkpt lat="50.0433504" lon="9.7062168">
                <ele>158.0</ele>
                <time>2020-08-28T11:45:26.000Z</time>
                <name>Trackpoint 3712</name>
            </trkpt>
            <trkpt lat="50.0434432" lon="9.7061032">
                <ele>158.0</ele>
                <time>2020-08-28T11:45:28.000Z</time>
                <name>Trackpoint 3713</name>
            </trkpt>
            <trkpt lat="50.0435328" lon="9.7059784">
                <ele>159.0</ele>
                <time>2020-08-28T11:45:30.000Z</time>
                <name>Trackpoint 3714</name>
            </trkpt>
            <trkpt lat="50.0436256" lon="9.7058464">
                <ele>159.0</ele>
                <time>2020-08-28T11:45:32.000Z</time>
                <name>Trackpoint 3715</name>
            </trkpt>
            <trkpt lat="50.0437216" lon="9.7057312">
                <ele>158.0</ele>
                <time>2020-08-28T11:45:34.000Z</time>
                <name>Trackpoint 3716</name>
            </trkpt>
            <trkpt lat="50.043824" lon="9.7056448">
                <ele>159.0</ele>
                <time>2020-08-28T11:45:36.000Z</time>
                <name>Trackpoint 3717</name>
            </trkpt>
            <trkpt lat="50.0439296" lon="9.7056016">
                <ele>159.0</ele>
                <time>2020-08-28T11:45:38.000Z</time>
                <name>Trackpoint 3718</name>
            </trkpt>
            <trkpt lat="50.0440384" lon="9.7055792">
                <ele>159.0</ele>
                <time>2020-08-28T11:45:40.000Z</time>
                <name>Trackpoint 3719</name>
            </trkpt>
            <trkpt lat="50.044144" lon="9.70558">
                <ele>159.0</ele>
                <time>2020-08-28T11:45:42.000Z</time>
                <name>Trackpoint 3720</name>
            </trkpt>
            <trkpt lat="50.0442464" lon="9.7055568">
                <ele>159.0</ele>
                <time>2020-08-28T11:45:44.000Z</time>
                <name>Trackpoint 3721</name>
            </trkpt>
            <trkpt lat="50.0443488" lon="9.7055032">
                <ele>159.0</ele>
                <time>2020-08-28T11:45:46.000Z</time>
                <name>Trackpoint 3722</name>
            </trkpt>
            <trkpt lat="50.0444384" lon="9.7054168">
                <ele>159.0</ele>
                <time>2020-08-28T11:45:48.000Z</time>
                <name>Trackpoint 3723</name>
            </trkpt>
            <trkpt lat="50.0445184" lon="9.7053144">
                <ele>159.0</ele>
                <time>2020-08-28T11:45:50.000Z</time>
                <name>Trackpoint 3724</name>
            </trkpt>
            <trkpt lat="50.0446016" lon="9.705212">
                <ele>159.0</ele>
                <time>2020-08-28T11:45:52.000Z</time>
                <name>Trackpoint 3725</name>
            </trkpt>
            <trkpt lat="50.0446848" lon="9.705116">
                <ele>159.0</ele>
                <time>2020-08-28T11:45:54.000Z</time>
                <name>Trackpoint 3726</name>
            </trkpt>
            <trkpt lat="50.0447744" lon="9.7050248">
                <ele>159.0</ele>
                <time>2020-08-28T11:45:56.000Z</time>
                <name>Trackpoint 3727</name>
            </trkpt>
            <trkpt lat="50.0448576" lon="9.7049376">
                <ele>159.0</ele>
                <time>2020-08-28T11:45:58.000Z</time>
                <name>Trackpoint 3728</name>
            </trkpt>
            <trkpt lat="50.0449376" lon="9.7048384">
                <ele>159.0</ele>
                <time>2020-08-28T11:46:00.000Z</time>
                <name>Trackpoint 3729</name>
            </trkpt>
            <trkpt lat="50.0450208" lon="9.7047384">
                <ele>159.0</ele>
                <time>2020-08-28T11:46:02.000Z</time>
                <name>Trackpoint 3730</name>
            </trkpt>
            <trkpt lat="50.0451136" lon="9.7046472">
                <ele>159.0</ele>
                <time>2020-08-28T11:46:04.000Z</time>
                <name>Trackpoint 3731</name>
            </trkpt>
            <trkpt lat="50.0451968" lon="9.7045768">
                <ele>159.0</ele>
                <time>2020-08-28T11:46:06.000Z</time>
                <name>Trackpoint 3732</name>
            </trkpt>
            <trkpt lat="50.045264" lon="9.7045032">
                <ele>159.0</ele>
                <time>2020-08-28T11:46:08.000Z</time>
                <name>Trackpoint 3733</name>
            </trkpt>
            <trkpt lat="50.0453568" lon="9.704416">
                <ele>159.0</ele>
                <time>2020-08-28T11:46:10.000Z</time>
                <name>Trackpoint 3734</name>
            </trkpt>
            <trkpt lat="50.0454496" lon="9.7043248">
                <ele>159.0</ele>
                <time>2020-08-28T11:46:12.000Z</time>
                <name>Trackpoint 3735</name>
            </trkpt>
            <trkpt lat="50.0455616" lon="9.7042248">
                <ele>159.0</ele>
                <time>2020-08-28T11:46:14.000Z</time>
                <name>Trackpoint 3736</name>
            </trkpt>
            <trkpt lat="50.0456512" lon="9.7041328">
                <ele>159.0</ele>
                <time>2020-08-28T11:46:16.000Z</time>
                <name>Trackpoint 3737</name>
            </trkpt>
            <trkpt lat="50.0457472" lon="9.7040464">
                <ele>159.0</ele>
                <time>2020-08-28T11:46:18.000Z</time>
                <name>Trackpoint 3738</name>
            </trkpt>
            <trkpt lat="50.0458112" lon="9.70394">
                <ele>158.0</ele>
                <time>2020-08-28T11:46:20.000Z</time>
                <name>Trackpoint 3739</name>
            </trkpt>
            <trkpt lat="50.045888" lon="9.7038336">
                <ele>158.0</ele>
                <time>2020-08-28T11:46:22.000Z</time>
                <name>Trackpoint 3740</name>
            </trkpt>
            <trkpt lat="50.0459584" lon="9.7037264">
                <ele>158.0</ele>
                <time>2020-08-28T11:46:24.000Z</time>
                <name>Trackpoint 3741</name>
            </trkpt>
            <trkpt lat="50.0460544" lon="9.7035904">
                <ele>157.0</ele>
                <time>2020-08-28T11:46:26.000Z</time>
                <name>Trackpoint 3742</name>
            </trkpt>
            <trkpt lat="50.0461472" lon="9.7034816">
                <ele>157.0</ele>
                <time>2020-08-28T11:46:28.000Z</time>
                <name>Trackpoint 3743</name>
            </trkpt>
            <trkpt lat="50.046224" lon="9.703372">
                <ele>157.0</ele>
                <time>2020-08-28T11:46:30.000Z</time>
                <name>Trackpoint 3744</name>
            </trkpt>
            <trkpt lat="50.0462912" lon="9.703272">
                <ele>157.0</ele>
                <time>2020-08-28T11:46:32.000Z</time>
                <name>Trackpoint 3745</name>
            </trkpt>
            <trkpt lat="50.0463616" lon="9.7031736">
                <ele>157.0</ele>
                <time>2020-08-28T11:46:34.000Z</time>
                <name>Trackpoint 3746</name>
            </trkpt>
            <trkpt lat="50.0464256" lon="9.7030696">
                <ele>157.0</ele>
                <time>2020-08-28T11:46:36.000Z</time>
                <name>Trackpoint 3747</name>
            </trkpt>
            <trkpt lat="50.0464864" lon="9.7029752">
                <ele>157.0</ele>
                <time>2020-08-28T11:46:38.000Z</time>
                <name>Trackpoint 3748</name>
            </trkpt>
            <trkpt lat="50.0465472" lon="9.7028776">
                <ele>157.0</ele>
                <time>2020-08-28T11:46:40.000Z</time>
                <name>Trackpoint 3749</name>
            </trkpt>
            <trkpt lat="50.0466208" lon="9.7027704">
                <ele>157.0</ele>
                <time>2020-08-28T11:46:42.000Z</time>
                <name>Trackpoint 3750</name>
            </trkpt>
            <trkpt lat="50.0466944" lon="9.7026632">
                <ele>158.0</ele>
                <time>2020-08-28T11:46:44.000Z</time>
                <name>Trackpoint 3751</name>
            </trkpt>
            <trkpt lat="50.0467712" lon="9.702552">
                <ele>158.0</ele>
                <time>2020-08-28T11:46:46.000Z</time>
                <name>Trackpoint 3752</name>
            </trkpt>
            <trkpt lat="50.0468448" lon="9.7024448">
                <ele>157.0</ele>
                <time>2020-08-28T11:46:48.000Z</time>
                <name>Trackpoint 3753</name>
            </trkpt>
            <trkpt lat="50.046912" lon="9.7023352">
                <ele>157.0</ele>
                <time>2020-08-28T11:46:50.000Z</time>
                <name>Trackpoint 3754</name>
            </trkpt>
            <trkpt lat="50.0469696" lon="9.7022312">
                <ele>157.0</ele>
                <time>2020-08-28T11:46:52.000Z</time>
                <name>Trackpoint 3755</name>
            </trkpt>
            <trkpt lat="50.0470368" lon="9.7021488">
                <ele>157.0</ele>
                <time>2020-08-28T11:46:54.000Z</time>
                <name>Trackpoint 3756</name>
            </trkpt>
            <trkpt lat="50.0471008" lon="9.7020504">
                <ele>158.0</ele>
                <time>2020-08-28T11:46:57.000Z</time>
                <name>Trackpoint 3757</name>
            </trkpt>
            <trkpt lat="50.0471328" lon="9.7020768">
                <ele>158.0</ele>
                <time>2020-08-28T11:47:49.000Z</time>
                <name>Trackpoint 3758</name>
            </trkpt>
            <trkpt lat="50.0472" lon="9.7019728">
                <ele>158.0</ele>
                <time>2020-08-28T11:47:54.000Z</time>
                <name>Trackpoint 3759</name>
            </trkpt>
            <trkpt lat="50.04728" lon="9.7018648">
                <ele>158.0</ele>
                <time>2020-08-28T11:47:57.000Z</time>
                <name>Trackpoint 3760</name>
            </trkpt>
            <trkpt lat="50.0473376" lon="9.701772">
                <ele>157.0</ele>
                <time>2020-08-28T11:47:59.000Z</time>
                <name>Trackpoint 3761</name>
            </trkpt>
            <trkpt lat="50.0474048" lon="9.7016752">
                <ele>157.0</ele>
                <time>2020-08-28T11:48:01.000Z</time>
                <name>Trackpoint 3762</name>
            </trkpt>
            <trkpt lat="50.0474752" lon="9.7015736">
                <ele>157.0</ele>
                <time>2020-08-28T11:48:03.000Z</time>
                <name>Trackpoint 3763</name>
            </trkpt>
            <trkpt lat="50.0475456" lon="9.7014648">
                <ele>156.0</ele>
                <time>2020-08-28T11:48:05.000Z</time>
                <name>Trackpoint 3764</name>
            </trkpt>
            <trkpt lat="50.0476224" lon="9.7013528">
                <ele>156.0</ele>
                <time>2020-08-28T11:48:07.000Z</time>
                <name>Trackpoint 3765</name>
            </trkpt>
            <trkpt lat="50.0477056" lon="9.7012456">
                <ele>156.0</ele>
                <time>2020-08-28T11:48:09.000Z</time>
                <name>Trackpoint 3766</name>
            </trkpt>
            <trkpt lat="50.0477984" lon="9.7011368">
                <ele>157.0</ele>
                <time>2020-08-28T11:48:11.000Z</time>
                <name>Trackpoint 3767</name>
            </trkpt>
            <trkpt lat="50.0478816" lon="9.70102">
                <ele>156.0</ele>
                <time>2020-08-28T11:48:13.000Z</time>
                <name>Trackpoint 3768</name>
            </trkpt>
            <trkpt lat="50.0479744" lon="9.7008896">
                <ele>156.0</ele>
                <time>2020-08-28T11:48:15.000Z</time>
                <name>Trackpoint 3769</name>
            </trkpt>
            <trkpt lat="50.0480608" lon="9.7007664">
                <ele>157.0</ele>
                <time>2020-08-28T11:48:17.000Z</time>
                <name>Trackpoint 3770</name>
            </trkpt>
            <trkpt lat="50.0481408" lon="9.700652">
                <ele>157.0</ele>
                <time>2020-08-28T11:48:19.000Z</time>
                <name>Trackpoint 3771</name>
            </trkpt>
            <trkpt lat="50.0482304" lon="9.7005456">
                <ele>157.0</ele>
                <time>2020-08-28T11:48:21.000Z</time>
                <name>Trackpoint 3772</name>
            </trkpt>
            <trkpt lat="50.0483296" lon="9.7004344">
                <ele>157.0</ele>
                <time>2020-08-28T11:48:23.000Z</time>
                <name>Trackpoint 3773</name>
            </trkpt>
            <trkpt lat="50.048432" lon="9.7003184">
                <ele>156.0</ele>
                <time>2020-08-28T11:48:25.000Z</time>
                <name>Trackpoint 3774</name>
            </trkpt>
            <trkpt lat="50.048528" lon="9.700196">
                <ele>156.0</ele>
                <time>2020-08-28T11:48:27.000Z</time>
                <name>Trackpoint 3775</name>
            </trkpt>
            <trkpt lat="50.0486272" lon="9.7000864">
                <ele>156.0</ele>
                <time>2020-08-28T11:48:29.000Z</time>
                <name>Trackpoint 3776</name>
            </trkpt>
            <trkpt lat="50.04872" lon="9.6999768">
                <ele>157.0</ele>
                <time>2020-08-28T11:48:31.000Z</time>
                <name>Trackpoint 3777</name>
            </trkpt>
            <trkpt lat="50.048816" lon="9.6998616">
                <ele>157.0</ele>
                <time>2020-08-28T11:48:33.000Z</time>
                <name>Trackpoint 3778</name>
            </trkpt>
            <trkpt lat="50.0489088" lon="9.6997368">
                <ele>157.0</ele>
                <time>2020-08-28T11:48:35.000Z</time>
                <name>Trackpoint 3779</name>
            </trkpt>
            <trkpt lat="50.0489952" lon="9.699612">
                <ele>157.0</ele>
                <time>2020-08-28T11:48:37.000Z</time>
                <name>Trackpoint 3780</name>
            </trkpt>
            <trkpt lat="50.0490848" lon="9.6994984">
                <ele>158.0</ele>
                <time>2020-08-28T11:48:39.000Z</time>
                <name>Trackpoint 3781</name>
            </trkpt>
            <trkpt lat="50.0491712" lon="9.6993816">
                <ele>159.0</ele>
                <time>2020-08-28T11:48:41.000Z</time>
                <name>Trackpoint 3782</name>
            </trkpt>
            <trkpt lat="50.0492576" lon="9.6992632">
                <ele>158.0</ele>
                <time>2020-08-28T11:48:43.000Z</time>
                <name>Trackpoint 3783</name>
            </trkpt>
            <trkpt lat="50.049344" lon="9.6991432">
                <ele>157.0</ele>
                <time>2020-08-28T11:48:45.000Z</time>
                <name>Trackpoint 3784</name>
            </trkpt>
            <trkpt lat="50.049424" lon="9.6990336">
                <ele>157.0</ele>
                <time>2020-08-28T11:48:47.000Z</time>
                <name>Trackpoint 3785</name>
            </trkpt>
            <trkpt lat="50.0495072" lon="9.6989184">
                <ele>157.0</ele>
                <time>2020-08-28T11:48:49.000Z</time>
                <name>Trackpoint 3786</name>
            </trkpt>
            <trkpt lat="50.0495904" lon="9.6988112">
                <ele>157.0</ele>
                <time>2020-08-28T11:48:51.000Z</time>
                <name>Trackpoint 3787</name>
            </trkpt>
            <trkpt lat="50.0496736" lon="9.6986888">
                <ele>157.0</ele>
                <time>2020-08-28T11:48:53.000Z</time>
                <name>Trackpoint 3788</name>
            </trkpt>
            <trkpt lat="50.0497664" lon="9.6985752">
                <ele>157.0</ele>
                <time>2020-08-28T11:48:55.000Z</time>
                <name>Trackpoint 3789</name>
            </trkpt>
            <trkpt lat="50.0498528" lon="9.6984616">
                <ele>157.0</ele>
                <time>2020-08-28T11:48:57.000Z</time>
                <name>Trackpoint 3790</name>
            </trkpt>
            <trkpt lat="50.0499424" lon="9.698348">
                <ele>157.0</ele>
                <time>2020-08-28T11:48:59.000Z</time>
                <name>Trackpoint 3791</name>
            </trkpt>
            <trkpt lat="50.0500384" lon="9.6982336">
                <ele>157.0</ele>
                <time>2020-08-28T11:49:01.000Z</time>
                <name>Trackpoint 3792</name>
            </trkpt>
            <trkpt lat="50.0501248" lon="9.69812">
                <ele>158.0</ele>
                <time>2020-08-28T11:49:03.000Z</time>
                <name>Trackpoint 3793</name>
            </trkpt>
            <trkpt lat="50.0502144" lon="9.6980016">
                <ele>157.0</ele>
                <time>2020-08-28T11:49:05.000Z</time>
                <name>Trackpoint 3794</name>
            </trkpt>
            <trkpt lat="50.0502976" lon="9.69788">
                <ele>157.0</ele>
                <time>2020-08-28T11:49:07.000Z</time>
                <name>Trackpoint 3795</name>
            </trkpt>
            <trkpt lat="50.0503808" lon="9.6977664">
                <ele>157.0</ele>
                <time>2020-08-28T11:49:09.000Z</time>
                <name>Trackpoint 3796</name>
            </trkpt>
            <trkpt lat="50.0504672" lon="9.6976472">
                <ele>158.0</ele>
                <time>2020-08-28T11:49:11.000Z</time>
                <name>Trackpoint 3797</name>
            </trkpt>
            <trkpt lat="50.05056" lon="9.6975368">
                <ele>158.0</ele>
                <time>2020-08-28T11:49:13.000Z</time>
                <name>Trackpoint 3798</name>
            </trkpt>
            <trkpt lat="50.0506432" lon="9.69742">
                <ele>158.0</ele>
                <time>2020-08-28T11:49:15.000Z</time>
                <name>Trackpoint 3799</name>
            </trkpt>
            <trkpt lat="50.0507328" lon="9.6973048">
                <ele>158.0</ele>
                <time>2020-08-28T11:49:17.000Z</time>
                <name>Trackpoint 3800</name>
            </trkpt>
            <trkpt lat="50.0508256" lon="9.6971968">
                <ele>159.0</ele>
                <time>2020-08-28T11:49:19.000Z</time>
                <name>Trackpoint 3801</name>
            </trkpt>
            <trkpt lat="50.0509152" lon="9.6970856">
                <ele>158.0</ele>
                <time>2020-08-28T11:49:21.000Z</time>
                <name>Trackpoint 3802</name>
            </trkpt>
            <trkpt lat="50.0510112" lon="9.6969632">
                <ele>157.0</ele>
                <time>2020-08-28T11:49:23.000Z</time>
                <name>Trackpoint 3803</name>
            </trkpt>
            <trkpt lat="50.0511104" lon="9.6968296">
                <ele>157.0</ele>
                <time>2020-08-28T11:49:25.000Z</time>
                <name>Trackpoint 3804</name>
            </trkpt>
            <trkpt lat="50.0512128" lon="9.6966952">
                <ele>156.0</ele>
                <time>2020-08-28T11:49:27.000Z</time>
                <name>Trackpoint 3805</name>
            </trkpt>
            <trkpt lat="50.051312" lon="9.6965688">
                <ele>156.0</ele>
                <time>2020-08-28T11:49:29.000Z</time>
                <name>Trackpoint 3806</name>
            </trkpt>
            <trkpt lat="50.0514112" lon="9.6964416">
                <ele>156.0</ele>
                <time>2020-08-28T11:49:31.000Z</time>
                <name>Trackpoint 3807</name>
            </trkpt>
            <trkpt lat="50.0515072" lon="9.6963184">
                <ele>157.0</ele>
                <time>2020-08-28T11:49:33.000Z</time>
                <name>Trackpoint 3808</name>
            </trkpt>
            <trkpt lat="50.0516064" lon="9.6961944">
                <ele>156.0</ele>
                <time>2020-08-28T11:49:35.000Z</time>
                <name>Trackpoint 3809</name>
            </trkpt>
            <trkpt lat="50.051696" lon="9.6960736">
                <ele>156.0</ele>
                <time>2020-08-28T11:49:37.000Z</time>
                <name>Trackpoint 3810</name>
            </trkpt>
            <trkpt lat="50.0517888" lon="9.6959512">
                <ele>156.0</ele>
                <time>2020-08-28T11:49:39.000Z</time>
                <name>Trackpoint 3811</name>
            </trkpt>
            <trkpt lat="50.0518784" lon="9.69582">
                <ele>156.0</ele>
                <time>2020-08-28T11:49:41.000Z</time>
                <name>Trackpoint 3812</name>
            </trkpt>
            <trkpt lat="50.0519776" lon="9.6957056">
                <ele>157.0</ele>
                <time>2020-08-28T11:49:43.000Z</time>
                <name>Trackpoint 3813</name>
            </trkpt>
            <trkpt lat="50.0520704" lon="9.6955832">
                <ele>156.0</ele>
                <time>2020-08-28T11:49:45.000Z</time>
                <name>Trackpoint 3814</name>
            </trkpt>
            <trkpt lat="50.0521664" lon="9.6954648">
                <ele>157.0</ele>
                <time>2020-08-28T11:49:47.000Z</time>
                <name>Trackpoint 3815</name>
            </trkpt>
            <trkpt lat="50.0522528" lon="9.6953432">
                <ele>157.0</ele>
                <time>2020-08-28T11:49:49.000Z</time>
                <name>Trackpoint 3816</name>
            </trkpt>
            <trkpt lat="50.0523456" lon="9.6952296">
                <ele>157.0</ele>
                <time>2020-08-28T11:49:51.000Z</time>
                <name>Trackpoint 3817</name>
            </trkpt>
            <trkpt lat="50.0524384" lon="9.6951064">
                <ele>157.0</ele>
                <time>2020-08-28T11:49:53.000Z</time>
                <name>Trackpoint 3818</name>
            </trkpt>
            <trkpt lat="50.052528" lon="9.6949856">
                <ele>157.0</ele>
                <time>2020-08-28T11:49:55.000Z</time>
                <name>Trackpoint 3819</name>
            </trkpt>
            <trkpt lat="50.0526208" lon="9.6948544">
                <ele>157.0</ele>
                <time>2020-08-28T11:49:57.000Z</time>
                <name>Trackpoint 3820</name>
            </trkpt>
            <trkpt lat="50.0527072" lon="9.6947232">
                <ele>157.0</ele>
                <time>2020-08-28T11:49:59.000Z</time>
                <name>Trackpoint 3821</name>
            </trkpt>
            <trkpt lat="50.052784" lon="9.6946">
                <ele>157.0</ele>
                <time>2020-08-28T11:50:01.000Z</time>
                <name>Trackpoint 3822</name>
            </trkpt>
            <trkpt lat="50.0528704" lon="9.69446">
                <ele>157.0</ele>
                <time>2020-08-28T11:50:03.000Z</time>
                <name>Trackpoint 3823</name>
            </trkpt>
            <trkpt lat="50.0529504" lon="9.6943168">
                <ele>157.0</ele>
                <time>2020-08-28T11:50:05.000Z</time>
                <name>Trackpoint 3824</name>
            </trkpt>
            <trkpt lat="50.0530304" lon="9.6941656">
                <ele>157.0</ele>
                <time>2020-08-28T11:50:07.000Z</time>
                <name>Trackpoint 3825</name>
            </trkpt>
            <trkpt lat="50.0531168" lon="9.6940248">
                <ele>157.0</ele>
                <time>2020-08-28T11:50:09.000Z</time>
                <name>Trackpoint 3826</name>
            </trkpt>
            <trkpt lat="50.0531872" lon="9.693876">
                <ele>157.0</ele>
                <time>2020-08-28T11:50:11.000Z</time>
                <name>Trackpoint 3827</name>
            </trkpt>
            <trkpt lat="50.0532608" lon="9.6937352">
                <ele>157.0</ele>
                <time>2020-08-28T11:50:13.000Z</time>
                <name>Trackpoint 3828</name>
            </trkpt>
            <trkpt lat="50.0533376" lon="9.6935832">
                <ele>157.0</ele>
                <time>2020-08-28T11:50:15.000Z</time>
                <name>Trackpoint 3829</name>
            </trkpt>
            <trkpt lat="50.053424" lon="9.6934344">
                <ele>157.0</ele>
                <time>2020-08-28T11:50:17.000Z</time>
                <name>Trackpoint 3830</name>
            </trkpt>
            <trkpt lat="50.053504" lon="9.6932888">
                <ele>157.0</ele>
                <time>2020-08-28T11:50:19.000Z</time>
                <name>Trackpoint 3831</name>
            </trkpt>
            <trkpt lat="50.053584" lon="9.69314">
                <ele>158.0</ele>
                <time>2020-08-28T11:50:21.000Z</time>
                <name>Trackpoint 3832</name>
            </trkpt>
            <trkpt lat="50.0536544" lon="9.692984">
                <ele>158.0</ele>
                <time>2020-08-28T11:50:23.000Z</time>
                <name>Trackpoint 3833</name>
            </trkpt>
            <trkpt lat="50.0536992" lon="9.6929056">
                <ele>157.0</ele>
                <time>2020-08-28T11:50:24.000Z</time>
                <name>Trackpoint 3834</name>
            </trkpt>
            <trkpt lat="50.0537696" lon="9.6927632">
                <ele>157.0</ele>
                <time>2020-08-28T11:50:26.000Z</time>
                <name>Trackpoint 3835</name>
            </trkpt>
            <trkpt lat="50.05384" lon="9.692632">
                <ele>157.0</ele>
                <time>2020-08-28T11:50:28.000Z</time>
                <name>Trackpoint 3836</name>
            </trkpt>
            <trkpt lat="50.0539008" lon="9.6924912">
                <ele>157.0</ele>
                <time>2020-08-28T11:50:30.000Z</time>
                <name>Trackpoint 3837</name>
            </trkpt>
            <trkpt lat="50.0539744" lon="9.6923584">
                <ele>157.0</ele>
                <time>2020-08-28T11:50:32.000Z</time>
                <name>Trackpoint 3838</name>
            </trkpt>
            <trkpt lat="50.054048" lon="9.6922328">
                <ele>157.0</ele>
                <time>2020-08-28T11:50:34.000Z</time>
                <name>Trackpoint 3839</name>
            </trkpt>
            <trkpt lat="50.0541152" lon="9.692092">
                <ele>157.0</ele>
                <time>2020-08-28T11:50:36.000Z</time>
                <name>Trackpoint 3840</name>
            </trkpt>
            <trkpt lat="50.0541824" lon="9.691952">
                <ele>157.0</ele>
                <time>2020-08-28T11:50:38.000Z</time>
                <name>Trackpoint 3841</name>
            </trkpt>
            <trkpt lat="50.0542528" lon="9.6918136">
                <ele>157.0</ele>
                <time>2020-08-28T11:50:40.000Z</time>
                <name>Trackpoint 3842</name>
            </trkpt>
            <trkpt lat="50.0543136" lon="9.691684">
                <ele>158.0</ele>
                <time>2020-08-28T11:50:42.000Z</time>
                <name>Trackpoint 3843</name>
            </trkpt>
            <trkpt lat="50.054368" lon="9.6915464">
                <ele>158.0</ele>
                <time>2020-08-28T11:50:44.000Z</time>
                <name>Trackpoint 3844</name>
            </trkpt>
            <trkpt lat="50.0544064" lon="9.6914056">
                <ele>158.0</ele>
                <time>2020-08-28T11:50:46.000Z</time>
                <name>Trackpoint 3845</name>
            </trkpt>
            <trkpt lat="50.0544352" lon="9.6912584">
                <ele>158.0</ele>
                <time>2020-08-28T11:50:48.000Z</time>
                <name>Trackpoint 3846</name>
            </trkpt>
            <trkpt lat="50.0544768" lon="9.6911336">
                <ele>157.0</ele>
                <time>2020-08-28T11:50:50.000Z</time>
                <name>Trackpoint 3847</name>
            </trkpt>
            <trkpt lat="50.054528" lon="9.6910312">
                <ele>157.0</ele>
                <time>2020-08-28T11:50:52.000Z</time>
                <name>Trackpoint 3848</name>
            </trkpt>
            <trkpt lat="50.054576" lon="9.6909064">
                <ele>157.0</ele>
                <time>2020-08-28T11:50:54.000Z</time>
                <name>Trackpoint 3849</name>
            </trkpt>
            <trkpt lat="50.0546176" lon="9.6907704">
                <ele>157.0</ele>
                <time>2020-08-28T11:50:56.000Z</time>
                <name>Trackpoint 3850</name>
            </trkpt>
            <trkpt lat="50.0546752" lon="9.6906272">
                <ele>157.0</ele>
                <time>2020-08-28T11:50:58.000Z</time>
                <name>Trackpoint 3851</name>
            </trkpt>
            <trkpt lat="50.0547328" lon="9.6905032">
                <ele>157.0</ele>
                <time>2020-08-28T11:51:00.000Z</time>
                <name>Trackpoint 3852</name>
            </trkpt>
            <trkpt lat="50.054784" lon="9.6903832">
                <ele>157.0</ele>
                <time>2020-08-28T11:51:02.000Z</time>
                <name>Trackpoint 3853</name>
            </trkpt>
            <trkpt lat="50.054816" lon="9.6902648">
                <ele>157.0</ele>
                <time>2020-08-28T11:51:04.000Z</time>
                <name>Trackpoint 3854</name>
            </trkpt>
            <trkpt lat="50.054848" lon="9.6901776">
                <ele>157.0</ele>
                <time>2020-08-28T11:51:06.000Z</time>
                <name>Trackpoint 3855</name>
            </trkpt>
            <trkpt lat="50.054928" lon="9.6901304">
                <ele>157.0</ele>
                <time>2020-08-28T11:52:08.000Z</time>
                <name>Trackpoint 3856</name>
            </trkpt>
            <trkpt lat="50.0549856" lon="9.6902112">
                <ele>157.0</ele>
                <time>2020-08-28T11:52:15.000Z</time>
                <name>Trackpoint 3857</name>
            </trkpt>
            <trkpt lat="50.0550144" lon="9.6903288">
                <ele>157.0</ele>
                <time>2020-08-28T11:52:19.000Z</time>
                <name>Trackpoint 3858</name>
            </trkpt>
            <trkpt lat="50.0550528" lon="9.6904312">
                <ele>157.0</ele>
                <time>2020-08-28T11:52:22.000Z</time>
                <name>Trackpoint 3859</name>
            </trkpt>
            <trkpt lat="50.0551392" lon="9.6904032">
                <ele>157.0</ele>
                <time>2020-08-28T11:52:25.000Z</time>
                <name>Trackpoint 3860</name>
            </trkpt>
            <trkpt lat="50.0552224" lon="9.6904488">
                <ele>156.0</ele>
                <time>2020-08-28T11:52:48.000Z</time>
                <name>Trackpoint 3861</name>
            </trkpt>
            <trkpt lat="50.0552832" lon="9.690376">
                <ele>156.0</ele>
                <time>2020-08-28T11:52:52.000Z</time>
                <name>Trackpoint 3862</name>
            </trkpt>
            <trkpt lat="50.0552928" lon="9.6904688">
                <ele>156.0</ele>
                <time>2020-08-28T11:52:58.000Z</time>
                <name>Trackpoint 3863</name>
            </trkpt>
            <trkpt lat="50.0553408" lon="9.6905472">
                <ele>156.0</ele>
                <time>2020-08-28T11:53:04.000Z</time>
                <name>Trackpoint 3864</name>
            </trkpt>
            <trkpt lat="50.0553888" lon="9.6906336">
                <ele>156.0</ele>
                <time>2020-08-28T11:53:08.000Z</time>
                <name>Trackpoint 3865</name>
            </trkpt>
            <trkpt lat="50.0554464" lon="9.6907104">
                <ele>156.0</ele>
                <time>2020-08-28T11:53:12.000Z</time>
                <name>Trackpoint 3866</name>
            </trkpt>
            <trkpt lat="50.0555392" lon="9.6906984">
                <ele>156.0</ele>
                <time>2020-08-28T11:53:19.000Z</time>
                <name>Trackpoint 3867</name>
            </trkpt>
            <trkpt lat="50.0555968" lon="9.6906096">
                <ele>156.0</ele>
                <time>2020-08-28T11:53:23.000Z</time>
                <name>Trackpoint 3868</name>
            </trkpt>
            <trkpt lat="50.0556608" lon="9.6905336">
                <ele>156.0</ele>
                <time>2020-08-28T11:53:27.000Z</time>
                <name>Trackpoint 3869</name>
            </trkpt>
            <trkpt lat="50.0557248" lon="9.69046">
                <ele>156.0</ele>
                <time>2020-08-28T11:53:30.000Z</time>
                <name>Trackpoint 3870</name>
            </trkpt>
            <trkpt lat="50.0558048" lon="9.6904088">
                <ele>156.0</ele>
                <time>2020-08-28T11:53:34.000Z</time>
                <name>Trackpoint 3871</name>
            </trkpt>
            <trkpt lat="50.0558496" lon="9.6903296">
                <ele>157.0</ele>
                <time>2020-08-28T11:53:38.000Z</time>
                <name>Trackpoint 3872</name>
            </trkpt>
            <trkpt lat="50.0559168" lon="9.6902584">
                <ele>157.0</ele>
                <time>2020-08-28T11:54:14.000Z</time>
                <name>Trackpoint 3873</name>
            </trkpt>
            <trkpt lat="50.0559936" lon="9.6901952">
                <ele>157.0</ele>
                <time>2020-08-28T11:54:21.000Z</time>
                <name>Trackpoint 3874</name>
            </trkpt>
            <trkpt lat="50.0560416" lon="9.6900664">
                <ele>157.0</ele>
                <time>2020-08-28T11:54:23.000Z</time>
                <name>Trackpoint 3875</name>
            </trkpt>
            <trkpt lat="50.0561056" lon="9.6899864">
                <ele>158.0</ele>
                <time>2020-08-28T11:54:25.000Z</time>
                <name>Trackpoint 3876</name>
            </trkpt>
            <trkpt lat="50.056208" lon="9.6899272">
                <ele>158.0</ele>
                <time>2020-08-28T11:54:29.000Z</time>
                <name>Trackpoint 3877</name>
            </trkpt>
            <trkpt lat="50.0562816" lon="9.6898496">
                <ele>158.0</ele>
                <time>2020-08-28T11:54:31.000Z</time>
                <name>Trackpoint 3878</name>
            </trkpt>
            <trkpt lat="50.0564032" lon="9.689832">
                <ele>158.0</ele>
                <time>2020-08-28T11:54:40.000Z</time>
                <name>Trackpoint 3879</name>
            </trkpt>
            <trkpt lat="50.0564608" lon="9.6899216">
                <ele>158.0</ele>
                <time>2020-08-28T11:55:28.000Z</time>
                <name>Trackpoint 3880</name>
            </trkpt>
            <trkpt lat="50.056544" lon="9.6899832">
                <ele>158.0</ele>
                <time>2020-08-28T11:55:33.000Z</time>
                <name>Trackpoint 3881</name>
            </trkpt>
            <trkpt lat="50.0566528" lon="9.6899768">
                <ele>159.0</ele>
                <time>2020-08-28T11:55:39.000Z</time>
                <name>Trackpoint 3882</name>
            </trkpt>
            <trkpt lat="50.0566624" lon="9.6899744">
                <ele>160.0</ele>
                <time>2020-08-28T11:56:42.000Z</time>
                <name>Trackpoint 3886</name>
            </trkpt>
            <trkpt lat="50.0567552" lon="9.6900304">
                <ele>159.0</ele>
                <time>2020-08-28T11:56:49.000Z</time>
                <name>Trackpoint 3887</name>
            </trkpt>
            <trkpt lat="50.0568384" lon="9.689992">
                <ele>159.0</ele>
                <time>2020-08-28T11:56:53.000Z</time>
                <name>Trackpoint 3888</name>
            </trkpt>
            <trkpt lat="50.0568736" lon="9.689908">
                <ele>159.0</ele>
                <time>2020-08-28T11:56:55.000Z</time>
                <name>Trackpoint 3889</name>
            </trkpt>
            <trkpt lat="50.0569184" lon="9.6898296">
                <ele>159.0</ele>
                <time>2020-08-28T11:56:57.000Z</time>
                <name>Trackpoint 3890</name>
            </trkpt>
            <trkpt lat="50.0569952" lon="9.6897336">
                <ele>159.0</ele>
                <time>2020-08-28T11:57:00.000Z</time>
                <name>Trackpoint 3891</name>
            </trkpt>
            <trkpt lat="50.0570464" lon="9.6896536">
                <ele>159.0</ele>
                <time>2020-08-28T11:57:02.000Z</time>
                <name>Trackpoint 3892</name>
            </trkpt>
            <trkpt lat="50.0570976" lon="9.6895704">
                <ele>159.0</ele>
                <time>2020-08-28T11:57:04.000Z</time>
                <name>Trackpoint 3893</name>
            </trkpt>
            <trkpt lat="50.0571584" lon="9.6894752">
                <ele>159.0</ele>
                <time>2020-08-28T11:57:06.000Z</time>
                <name>Trackpoint 3894</name>
            </trkpt>
            <trkpt lat="50.057216" lon="9.6893816">
                <ele>159.0</ele>
                <time>2020-08-28T11:57:08.000Z</time>
                <name>Trackpoint 3895</name>
            </trkpt>
            <trkpt lat="50.0572704" lon="9.6892928">
                <ele>159.0</ele>
                <time>2020-08-28T11:57:10.000Z</time>
                <name>Trackpoint 3896</name>
            </trkpt>
            <trkpt lat="50.0573344" lon="9.6892032">
                <ele>159.0</ele>
                <time>2020-08-28T11:57:12.000Z</time>
                <name>Trackpoint 3897</name>
            </trkpt>
            <trkpt lat="50.0573952" lon="9.68912">
                <ele>159.0</ele>
                <time>2020-08-28T11:57:14.000Z</time>
                <name>Trackpoint 3898</name>
            </trkpt>
            <trkpt lat="50.057488" lon="9.6890112">
                <ele>159.0</ele>
                <time>2020-08-28T11:57:17.000Z</time>
                <name>Trackpoint 3899</name>
            </trkpt>
            <trkpt lat="50.057552" lon="9.688904">
                <ele>159.0</ele>
                <time>2020-08-28T11:57:19.000Z</time>
                <name>Trackpoint 3900</name>
            </trkpt>
            <trkpt lat="50.057616" lon="9.6888088">
                <ele>159.0</ele>
                <time>2020-08-28T11:57:21.000Z</time>
                <name>Trackpoint 3901</name>
            </trkpt>
            <trkpt lat="50.0576832" lon="9.6887128">
                <ele>159.0</ele>
                <time>2020-08-28T11:57:23.000Z</time>
                <name>Trackpoint 3902</name>
            </trkpt>
            <trkpt lat="50.0577472" lon="9.6886032">
                <ele>159.0</ele>
                <time>2020-08-28T11:57:25.000Z</time>
                <name>Trackpoint 3903</name>
            </trkpt>
            <trkpt lat="50.0578048" lon="9.6885032">
                <ele>159.0</ele>
                <time>2020-08-28T11:57:27.000Z</time>
                <name>Trackpoint 3904</name>
            </trkpt>
            <trkpt lat="50.0578624" lon="9.6883984">
                <ele>159.0</ele>
                <time>2020-08-28T11:57:29.000Z</time>
                <name>Trackpoint 3905</name>
            </trkpt>
            <trkpt lat="50.0579104" lon="9.6882912">
                <ele>160.0</ele>
                <time>2020-08-28T11:57:31.000Z</time>
                <name>Trackpoint 3906</name>
            </trkpt>
            <trkpt lat="50.0579648" lon="9.6881904">
                <ele>160.0</ele>
                <time>2020-08-28T11:57:33.000Z</time>
                <name>Trackpoint 3907</name>
            </trkpt>
            <trkpt lat="50.0580224" lon="9.6881016">
                <ele>160.0</ele>
                <time>2020-08-28T11:57:36.000Z</time>
                <name>Trackpoint 3908</name>
            </trkpt>
            <trkpt lat="50.0580896" lon="9.6880304">
                <ele>160.0</ele>
                <time>2020-08-28T11:58:37.000Z</time>
                <name>Trackpoint 3909</name>
            </trkpt>
            <trkpt lat="50.0581472" lon="9.6879216">
                <ele>160.0</ele>
                <time>2020-08-28T11:58:40.000Z</time>
                <name>Trackpoint 3910</name>
            </trkpt>
            <trkpt lat="50.0582016" lon="9.6878184">
                <ele>160.0</ele>
                <time>2020-08-28T11:58:42.000Z</time>
                <name>Trackpoint 3911</name>
            </trkpt>
            <trkpt lat="50.0582496" lon="9.687708">
                <ele>160.0</ele>
                <time>2020-08-28T11:58:44.000Z</time>
                <name>Trackpoint 3912</name>
            </trkpt>
            <trkpt lat="50.0583296" lon="9.6876152">
                <ele>159.0</ele>
                <time>2020-08-28T11:58:46.000Z</time>
                <name>Trackpoint 3913</name>
            </trkpt>
            <trkpt lat="50.058416" lon="9.6875264">
                <ele>159.0</ele>
                <time>2020-08-28T11:58:48.000Z</time>
                <name>Trackpoint 3914</name>
            </trkpt>
            <trkpt lat="50.0584608" lon="9.6874088">
                <ele>159.0</ele>
                <time>2020-08-28T11:58:50.000Z</time>
                <name>Trackpoint 3915</name>
            </trkpt>
            <trkpt lat="50.058368" lon="9.6873232">
                <ele>160.0</ele>
                <time>2020-08-28T11:58:53.000Z</time>
                <name>Trackpoint 3916</name>
            </trkpt>
            <trkpt lat="50.0582592" lon="9.6872832">
                <ele>160.0</ele>
                <time>2020-08-28T11:58:56.000Z</time>
                <name>Trackpoint 3917</name>
            </trkpt>
            <trkpt lat="50.0581728" lon="9.687232">
                <ele>159.0</ele>
                <time>2020-08-28T11:59:33.000Z</time>
                <name>Trackpoint 3918</name>
            </trkpt>
            <trkpt lat="50.0581184" lon="9.6871568">
                <ele>159.0</ele>
                <time>2020-08-28T11:59:35.000Z</time>
                <name>Trackpoint 3919</name>
            </trkpt>
            <trkpt lat="50.058064" lon="9.6870472">
                <ele>159.0</ele>
                <time>2020-08-28T11:59:37.000Z</time>
                <name>Trackpoint 3920</name>
            </trkpt>
            <trkpt lat="50.0580192" lon="9.686916">
                <ele>159.0</ele>
                <time>2020-08-28T11:59:39.000Z</time>
                <name>Trackpoint 3921</name>
            </trkpt>
            <trkpt lat="50.0579744" lon="9.6867664">
                <ele>159.0</ele>
                <time>2020-08-28T11:59:41.000Z</time>
                <name>Trackpoint 3922</name>
            </trkpt>
            <trkpt lat="50.057952" lon="9.6866104">
                <ele>159.0</ele>
                <time>2020-08-28T11:59:43.000Z</time>
                <name>Trackpoint 3923</name>
            </trkpt>
            <trkpt lat="50.0579744" lon="9.6864752">
                <ele>159.0</ele>
                <time>2020-08-28T11:59:45.000Z</time>
                <name>Trackpoint 3924</name>
            </trkpt>
            <trkpt lat="50.0579648" lon="9.686328">
                <ele>159.0</ele>
                <time>2020-08-28T11:59:47.000Z</time>
                <name>Trackpoint 3925</name>
            </trkpt>
            <trkpt lat="50.0579328" lon="9.68616">
                <ele>159.0</ele>
                <time>2020-08-28T11:59:49.000Z</time>
                <name>Trackpoint 3926</name>
            </trkpt>
            <trkpt lat="50.057904" lon="9.6859928">
                <ele>159.0</ele>
                <time>2020-08-28T11:59:51.000Z</time>
                <name>Trackpoint 3927</name>
            </trkpt>
            <trkpt lat="50.0578688" lon="9.6858456">
                <ele>159.0</ele>
                <time>2020-08-28T11:59:53.000Z</time>
                <name>Trackpoint 3928</name>
            </trkpt>
            <trkpt lat="50.0578144" lon="9.6857072">
                <ele>159.0</ele>
                <time>2020-08-28T11:59:55.000Z</time>
                <name>Trackpoint 3929</name>
            </trkpt>
            <trkpt lat="50.0577696" lon="9.68556">
                <ele>159.0</ele>
                <time>2020-08-28T11:59:57.000Z</time>
                <name>Trackpoint 3930</name>
            </trkpt>
            <trkpt lat="50.0577248" lon="9.6854184">
                <ele>159.0</ele>
                <time>2020-08-28T11:59:59.000Z</time>
                <name>Trackpoint 3931</name>
            </trkpt>
            <trkpt lat="50.0577216" lon="9.6853016">
                <ele>159.0</ele>
                <time>2020-08-28T12:00:01.000Z</time>
                <name>Trackpoint 3932</name>
            </trkpt>
            <trkpt lat="50.0577408" lon="9.6852032">
                <ele>159.0</ele>
                <time>2020-08-28T12:00:03.000Z</time>
                <name>Trackpoint 3933</name>
            </trkpt>
            <trkpt lat="50.0577504" lon="9.6850856">
                <ele>159.0</ele>
                <time>2020-08-28T12:00:05.000Z</time>
                <name>Trackpoint 3934</name>
            </trkpt>
            <trkpt lat="50.0577888" lon="9.684968">
                <ele>159.0</ele>
                <time>2020-08-28T12:00:07.000Z</time>
                <name>Trackpoint 3935</name>
            </trkpt>
            <trkpt lat="50.057856" lon="9.684868">
                <ele>159.0</ele>
                <time>2020-08-28T12:00:09.000Z</time>
                <name>Trackpoint 3936</name>
            </trkpt>
            <trkpt lat="50.0579424" lon="9.6847912">
                <ele>159.0</ele>
                <time>2020-08-28T12:00:11.000Z</time>
                <name>Trackpoint 3937</name>
            </trkpt>
            <trkpt lat="50.0580384" lon="9.6847736">
                <ele>159.0</ele>
                <time>2020-08-28T12:00:13.000Z</time>
                <name>Trackpoint 3938</name>
            </trkpt>
            <trkpt lat="50.0580928" lon="9.68486">
                <ele>159.0</ele>
                <time>2020-08-28T12:00:15.000Z</time>
                <name>Trackpoint 3939</name>
            </trkpt>
            <trkpt lat="50.0581344" lon="9.6849696">
                <ele>159.0</ele>
                <time>2020-08-28T12:00:17.000Z</time>
                <name>Trackpoint 3940</name>
            </trkpt>
            <trkpt lat="50.0581408" lon="9.6850952">
                <ele>159.0</ele>
                <time>2020-08-28T12:00:19.000Z</time>
                <name>Trackpoint 3941</name>
            </trkpt>
            <trkpt lat="50.058112" lon="9.6852056">
                <ele>159.0</ele>
                <time>2020-08-28T12:00:21.000Z</time>
                <name>Trackpoint 3942</name>
            </trkpt>
            <trkpt lat="50.0580704" lon="9.6853104">
                <ele>159.0</ele>
                <time>2020-08-28T12:00:23.000Z</time>
                <name>Trackpoint 3943</name>
            </trkpt>
            <trkpt lat="50.0580256" lon="9.6854032">
                <ele>159.0</ele>
                <time>2020-08-28T12:00:25.000Z</time>
                <name>Trackpoint 3944</name>
            </trkpt>
            <trkpt lat="50.057984" lon="9.6854936">
                <ele>159.0</ele>
                <time>2020-08-28T12:00:28.000Z</time>
                <name>Trackpoint 3945</name>
            </trkpt>
            <trkpt lat="50.0579104" lon="9.6855688">
                <ele>160.0</ele>
                <time>2020-08-28T12:00:49.000Z</time>
                <name>Trackpoint 3946</name>
            </trkpt>
            <trkpt lat="50.0578432" lon="9.6856416">
                <ele>160.0</ele>
                <time>2020-08-28T12:00:52.000Z</time>
                <name>Trackpoint 3947</name>
            </trkpt>
            <trkpt lat="50.0577568" lon="9.6857136">
                <ele>160.0</ele>
                <time>2020-08-28T12:00:55.000Z</time>
                <name>Trackpoint 3948</name>
            </trkpt>
            <trkpt lat="50.0576768" lon="9.6857832">
                <ele>161.0</ele>
                <time>2020-08-28T12:00:58.000Z</time>
                <name>Trackpoint 3949</name>
            </trkpt>
            <trkpt lat="50.0575936" lon="9.6858416">
                <ele>161.0</ele>
                <time>2020-08-28T12:01:01.000Z</time>
                <name>Trackpoint 3950</name>
            </trkpt>
            <trkpt lat="50.0574976" lon="9.6858832">
                <ele>161.0</ele>
                <time>2020-08-28T12:01:04.000Z</time>
                <name>Trackpoint 3951</name>
            </trkpt>
            <trkpt lat="50.0573952" lon="9.6859032">
                <ele>162.0</ele>
                <time>2020-08-28T12:01:07.000Z</time>
                <name>Trackpoint 3952</name>
            </trkpt>
            <trkpt lat="50.05728" lon="9.6859216">
                <ele>162.0</ele>
                <time>2020-08-28T12:01:10.000Z</time>
                <name>Trackpoint 3953</name>
            </trkpt>
            <trkpt lat="50.0571712" lon="9.68592">
                <ele>162.0</ele>
                <time>2020-08-28T12:01:13.000Z</time>
                <name>Trackpoint 3954</name>
            </trkpt>
            <trkpt lat="50.0570688" lon="9.6858984">
                <ele>163.0</ele>
                <time>2020-08-28T12:01:16.000Z</time>
                <name>Trackpoint 3955</name>
            </trkpt>
            <trkpt lat="50.0569696" lon="9.685852">
                <ele>164.0</ele>
                <time>2020-08-28T12:01:19.000Z</time>
                <name>Trackpoint 3956</name>
            </trkpt>
            <trkpt lat="50.0568736" lon="9.6857832">
                <ele>164.0</ele>
                <time>2020-08-28T12:01:22.000Z</time>
                <name>Trackpoint 3957</name>
            </trkpt>
            <trkpt lat="50.0567744" lon="9.6857184">
                <ele>164.0</ele>
                <time>2020-08-28T12:01:25.000Z</time>
                <name>Trackpoint 3958</name>
            </trkpt>
            <trkpt lat="50.0566752" lon="9.6856432">
                <ele>164.0</ele>
                <time>2020-08-28T12:01:28.000Z</time>
                <name>Trackpoint 3959</name>
            </trkpt>
            <trkpt lat="50.0566048" lon="9.6855768">
                <ele>165.0</ele>
                <time>2020-08-28T12:01:30.000Z</time>
                <name>Trackpoint 3960</name>
            </trkpt>
            <trkpt lat="50.0565408" lon="9.6855112">
                <ele>165.0</ele>
                <time>2020-08-28T12:01:32.000Z</time>
                <name>Trackpoint 3961</name>
            </trkpt>
            <trkpt lat="50.0564736" lon="9.6854496">
                <ele>165.0</ele>
                <time>2020-08-28T12:01:34.000Z</time>
                <name>Trackpoint 3962</name>
            </trkpt>
            <trkpt lat="50.0563968" lon="9.685396">
                <ele>165.0</ele>
                <time>2020-08-28T12:01:36.000Z</time>
                <name>Trackpoint 3963</name>
            </trkpt>
            <trkpt lat="50.0563264" lon="9.6853368">
                <ele>165.0</ele>
                <time>2020-08-28T12:01:38.000Z</time>
                <name>Trackpoint 3964</name>
            </trkpt>
            <trkpt lat="50.0562592" lon="9.6852712">
                <ele>166.0</ele>
                <time>2020-08-28T12:01:40.000Z</time>
                <name>Trackpoint 3965</name>
            </trkpt>
            <trkpt lat="50.0561632" lon="9.6851968">
                <ele>166.0</ele>
                <time>2020-08-28T12:01:43.000Z</time>
                <name>Trackpoint 3966</name>
            </trkpt>
            <trkpt lat="50.05608" lon="9.6851216">
                <ele>166.0</ele>
                <time>2020-08-28T12:01:46.000Z</time>
                <name>Trackpoint 3967</name>
            </trkpt>
            <trkpt lat="50.055984" lon="9.6850656">
                <ele>166.0</ele>
                <time>2020-08-28T12:01:50.000Z</time>
                <name>Trackpoint 3968</name>
            </trkpt>
            <trkpt lat="50.055888" lon="9.685012">
                <ele>167.0</ele>
                <time>2020-08-28T12:02:24.000Z</time>
                <name>Trackpoint 3969</name>
            </trkpt>
            <trkpt lat="50.0557952" lon="9.68496">
                <ele>167.0</ele>
                <time>2020-08-28T12:02:27.000Z</time>
                <name>Trackpoint 3970</name>
            </trkpt>
            <trkpt lat="50.0557056" lon="9.6849032">
                <ele>167.0</ele>
                <time>2020-08-28T12:02:30.000Z</time>
                <name>Trackpoint 3971</name>
            </trkpt>
            <trkpt lat="50.0555904" lon="9.6848448">
                <ele>167.0</ele>
                <time>2020-08-28T12:02:33.000Z</time>
                <name>Trackpoint 3972</name>
            </trkpt>
            <trkpt lat="50.0555104" lon="9.6848">
                <ele>167.0</ele>
                <time>2020-08-28T12:02:35.000Z</time>
                <name>Trackpoint 3973</name>
            </trkpt>
            <trkpt lat="50.0554208" lon="9.6847536">
                <ele>167.0</ele>
                <time>2020-08-28T12:02:37.000Z</time>
                <name>Trackpoint 3974</name>
            </trkpt>
            <trkpt lat="50.055328" lon="9.6847136">
                <ele>167.0</ele>
                <time>2020-08-28T12:02:39.000Z</time>
                <name>Trackpoint 3975</name>
            </trkpt>
            <trkpt lat="50.0552448" lon="9.6846768">
                <ele>167.0</ele>
                <time>2020-08-28T12:02:41.000Z</time>
                <name>Trackpoint 3976</name>
            </trkpt>
            <trkpt lat="50.0551456" lon="9.6846312">
                <ele>167.0</ele>
                <time>2020-08-28T12:03:00.000Z</time>
                <name>Trackpoint 3977</name>
            </trkpt>
            <trkpt lat="50.05504" lon="9.6846064">
                <ele>167.0</ele>
                <time>2020-08-28T12:03:03.000Z</time>
                <name>Trackpoint 3978</name>
            </trkpt>
            <trkpt lat="50.0549472" lon="9.6845768">
                <ele>167.0</ele>
                <time>2020-08-28T12:03:05.000Z</time>
                <name>Trackpoint 3979</name>
            </trkpt>
            <trkpt lat="50.054848" lon="9.684548">
                <ele>167.0</ele>
                <time>2020-08-28T12:03:07.000Z</time>
                <name>Trackpoint 3980</name>
            </trkpt>
            <trkpt lat="50.054736" lon="9.6845152">
                <ele>167.0</ele>
                <time>2020-08-28T12:03:09.000Z</time>
                <name>Trackpoint 3981</name>
            </trkpt>
            <trkpt lat="50.0546176" lon="9.6844904">
                <ele>167.0</ele>
                <time>2020-08-28T12:03:11.000Z</time>
                <name>Trackpoint 3982</name>
            </trkpt>
            <trkpt lat="50.054496" lon="9.68446">
                <ele>167.0</ele>
                <time>2020-08-28T12:03:13.000Z</time>
                <name>Trackpoint 3983</name>
            </trkpt>
            <trkpt lat="50.0543744" lon="9.6844384">
                <ele>167.0</ele>
                <time>2020-08-28T12:03:15.000Z</time>
                <name>Trackpoint 3984</name>
            </trkpt>
            <trkpt lat="50.0542464" lon="9.6844168">
                <ele>167.0</ele>
                <time>2020-08-28T12:03:17.000Z</time>
                <name>Trackpoint 3985</name>
            </trkpt>
            <trkpt lat="50.054112" lon="9.6843792">
                <ele>167.0</ele>
                <time>2020-08-28T12:03:19.000Z</time>
                <name>Trackpoint 3986</name>
            </trkpt>
            <trkpt lat="50.0539744" lon="9.684352">
                <ele>167.0</ele>
                <time>2020-08-28T12:03:21.000Z</time>
                <name>Trackpoint 3987</name>
            </trkpt>
            <trkpt lat="50.0538368" lon="9.6843384">
                <ele>167.0</ele>
                <time>2020-08-28T12:03:23.000Z</time>
                <name>Trackpoint 3988</name>
            </trkpt>
            <trkpt lat="50.053696" lon="9.6843336">
                <ele>166.0</ele>
                <time>2020-08-28T12:03:25.000Z</time>
                <name>Trackpoint 3989</name>
            </trkpt>
            <trkpt lat="50.0535552" lon="9.6843232">
                <ele>166.0</ele>
                <time>2020-08-28T12:03:27.000Z</time>
                <name>Trackpoint 3990</name>
            </trkpt>
            <trkpt lat="50.0534048" lon="9.684308">
                <ele>165.0</ele>
                <time>2020-08-28T12:03:29.000Z</time>
                <name>Trackpoint 3991</name>
            </trkpt>
            <trkpt lat="50.0532608" lon="9.6842816">
                <ele>164.0</ele>
                <time>2020-08-28T12:03:31.000Z</time>
                <name>Trackpoint 3992</name>
            </trkpt>
            <trkpt lat="50.053136" lon="9.6842568">
                <ele>164.0</ele>
                <time>2020-08-28T12:03:33.000Z</time>
                <name>Trackpoint 3993</name>
            </trkpt>
            <trkpt lat="50.0530368" lon="9.684228">
                <ele>163.0</ele>
                <time>2020-08-28T12:03:35.000Z</time>
                <name>Trackpoint 3994</name>
            </trkpt>
            <trkpt lat="50.0529856" lon="9.68412">
                <ele>164.0</ele>
                <time>2020-08-28T12:03:37.000Z</time>
                <name>Trackpoint 3995</name>
            </trkpt>
            <trkpt lat="50.053024" lon="9.6839816">
                <ele>163.0</ele>
                <time>2020-08-28T12:03:39.000Z</time>
                <name>Trackpoint 3996</name>
            </trkpt>
            <trkpt lat="50.0531456" lon="9.6839464">
                <ele>162.0</ele>
                <time>2020-08-28T12:03:41.000Z</time>
                <name>Trackpoint 3997</name>
            </trkpt>
            <trkpt lat="50.053296" lon="9.6839848">
                <ele>161.0</ele>
                <time>2020-08-28T12:03:43.000Z</time>
                <name>Trackpoint 3998</name>
            </trkpt>
            <trkpt lat="50.053424" lon="9.684036">
                <ele>161.0</ele>
                <time>2020-08-28T12:03:45.000Z</time>
                <name>Trackpoint 3999</name>
            </trkpt>
            <trkpt lat="50.0535584" lon="9.6840784">
                <ele>161.0</ele>
                <time>2020-08-28T12:03:47.000Z</time>
                <name>Trackpoint 4000</name>
            </trkpt>
            <trkpt lat="50.0536896" lon="9.6841296">
                <ele>161.0</ele>
                <time>2020-08-28T12:03:49.000Z</time>
                <name>Trackpoint 4001</name>
            </trkpt>
            <trkpt lat="50.0538208" lon="9.6841832">
                <ele>161.0</ele>
                <time>2020-08-28T12:03:51.000Z</time>
                <name>Trackpoint 4002</name>
            </trkpt>
            <trkpt lat="50.053952" lon="9.6842584">
                <ele>161.0</ele>
                <time>2020-08-28T12:03:53.000Z</time>
                <name>Trackpoint 4003</name>
            </trkpt>
            <trkpt lat="50.0540224" lon="9.6843232">
                <ele>161.0</ele>
                <time>2020-08-28T12:03:54.000Z</time>
                <name>Trackpoint 4004</name>
            </trkpt>
            <trkpt lat="50.0541088" lon="9.684368">
                <ele>160.0</ele>
                <time>2020-08-28T12:03:55.000Z</time>
                <name>Trackpoint 4005</name>
            </trkpt>
            <trkpt lat="50.0542496" lon="9.6844184">
                <ele>160.0</ele>
                <time>2020-08-28T12:03:57.000Z</time>
                <name>Trackpoint 4006</name>
            </trkpt>
            <trkpt lat="50.0543872" lon="9.6844328">
                <ele>160.0</ele>
                <time>2020-08-28T12:03:59.000Z</time>
                <name>Trackpoint 4007</name>
            </trkpt>
            <trkpt lat="50.0545248" lon="9.6844552">
                <ele>160.0</ele>
                <time>2020-08-28T12:04:01.000Z</time>
                <name>Trackpoint 4008</name>
            </trkpt>
            <trkpt lat="50.0546496" lon="9.684472">
                <ele>160.0</ele>
                <time>2020-08-28T12:04:03.000Z</time>
                <name>Trackpoint 4009</name>
            </trkpt>
            <trkpt lat="50.0547488" lon="9.6844864">
                <ele>160.0</ele>
                <time>2020-08-28T12:04:05.000Z</time>
                <name>Trackpoint 4010</name>
            </trkpt>
            <trkpt lat="50.0548128" lon="9.6843952">
                <ele>158.0</ele>
                <time>2020-08-28T12:04:11.000Z</time>
                <name>Trackpoint 4011</name>
            </trkpt>
            <trkpt lat="50.0548576" lon="9.6843144">
                <ele>159.0</ele>
                <time>2020-08-28T12:04:22.000Z</time>
                <name>Trackpoint 4012</name>
            </trkpt>
            <trkpt lat="50.0548448" lon="9.6841984">
                <ele>158.0</ele>
                <time>2020-08-28T12:04:37.000Z</time>
                <name>Trackpoint 4013</name>
            </trkpt>
            <trkpt lat="50.0548512" lon="9.6840712">
                <ele>158.0</ele>
                <time>2020-08-28T12:04:39.000Z</time>
                <name>Trackpoint 4014</name>
            </trkpt>
            <trkpt lat="50.0548672" lon="9.6839488">
                <ele>158.0</ele>
                <time>2020-08-28T12:04:41.000Z</time>
                <name>Trackpoint 4015</name>
            </trkpt>
            <trkpt lat="50.0548864" lon="9.6838232">
                <ele>158.0</ele>
                <time>2020-08-28T12:04:43.000Z</time>
                <name>Trackpoint 4016</name>
            </trkpt>
            <trkpt lat="50.0549024" lon="9.6837">
                <ele>159.0</ele>
                <time>2020-08-28T12:04:45.000Z</time>
                <name>Trackpoint 4017</name>
            </trkpt>
            <trkpt lat="50.0549248" lon="9.6835584">
                <ele>159.0</ele>
                <time>2020-08-28T12:04:47.000Z</time>
                <name>Trackpoint 4018</name>
            </trkpt>
            <trkpt lat="50.0549504" lon="9.6834088">
                <ele>159.0</ele>
                <time>2020-08-28T12:04:49.000Z</time>
                <name>Trackpoint 4019</name>
            </trkpt>
            <trkpt lat="50.0549696" lon="9.6832712">
                <ele>159.0</ele>
                <time>2020-08-28T12:04:51.000Z</time>
                <name>Trackpoint 4020</name>
            </trkpt>
            <trkpt lat="50.0549952" lon="9.6831512">
                <ele>159.0</ele>
                <time>2020-08-28T12:04:53.000Z</time>
                <name>Trackpoint 4021</name>
            </trkpt>
            <trkpt lat="50.055024" lon="9.6830384">
                <ele>159.0</ele>
                <time>2020-08-28T12:04:55.000Z</time>
                <name>Trackpoint 4022</name>
            </trkpt>
            <trkpt lat="50.0550464" lon="9.682892">
                <ele>158.0</ele>
                <time>2020-08-28T12:04:57.000Z</time>
                <name>Trackpoint 4023</name>
            </trkpt>
            <trkpt lat="50.0550688" lon="9.6827296">
                <ele>158.0</ele>
                <time>2020-08-28T12:04:59.000Z</time>
                <name>Trackpoint 4024</name>
            </trkpt>
            <trkpt lat="50.055104" lon="9.6825552">
                <ele>158.0</ele>
                <time>2020-08-28T12:05:01.000Z</time>
                <name>Trackpoint 4025</name>
            </trkpt>
            <trkpt lat="50.0551424" lon="9.6823832">
                <ele>158.0</ele>
                <time>2020-08-28T12:05:03.000Z</time>
                <name>Trackpoint 4026</name>
            </trkpt>
            <trkpt lat="50.0551712" lon="9.6822096">
                <ele>158.0</ele>
                <time>2020-08-28T12:05:05.000Z</time>
                <name>Trackpoint 4027</name>
            </trkpt>
            <trkpt lat="50.0551872" lon="9.68212">
                <ele>158.0</ele>
                <time>2020-08-28T12:05:06.000Z</time>
                <name>Trackpoint 4028</name>
            </trkpt>
            <trkpt lat="50.0552064" lon="9.6820288">
                <ele>158.0</ele>
                <time>2020-08-28T12:05:07.000Z</time>
                <name>Trackpoint 4029</name>
            </trkpt>
            <trkpt lat="50.0552256" lon="9.6819352">
                <ele>158.0</ele>
                <time>2020-08-28T12:05:08.000Z</time>
                <name>Trackpoint 4030</name>
            </trkpt>
            <trkpt lat="50.0552448" lon="9.6818448">
                <ele>158.0</ele>
                <time>2020-08-28T12:05:09.000Z</time>
                <name>Trackpoint 4031</name>
            </trkpt>
            <trkpt lat="50.0552832" lon="9.6816704">
                <ele>158.0</ele>
                <time>2020-08-28T12:05:11.000Z</time>
                <name>Trackpoint 4032</name>
            </trkpt>
            <trkpt lat="50.0552992" lon="9.6815784">
                <ele>158.0</ele>
                <time>2020-08-28T12:05:12.000Z</time>
                <name>Trackpoint 4033</name>
            </trkpt>
            <trkpt lat="50.0553088" lon="9.681488">
                <ele>158.0</ele>
                <time>2020-08-28T12:05:13.000Z</time>
                <name>Trackpoint 4034</name>
            </trkpt>
            <trkpt lat="50.0553248" lon="9.6813968">
                <ele>158.0</ele>
                <time>2020-08-28T12:05:14.000Z</time>
                <name>Trackpoint 4035</name>
            </trkpt>
            <trkpt lat="50.0553408" lon="9.6813032">
                <ele>158.0</ele>
                <time>2020-08-28T12:05:15.000Z</time>
                <name>Trackpoint 4036</name>
            </trkpt>
            <trkpt lat="50.0553536" lon="9.6812136">
                <ele>158.0</ele>
                <time>2020-08-28T12:05:16.000Z</time>
                <name>Trackpoint 4037</name>
            </trkpt>
            <trkpt lat="50.0553728" lon="9.6811216">
                <ele>158.0</ele>
                <time>2020-08-28T12:05:17.000Z</time>
                <name>Trackpoint 4038</name>
            </trkpt>
            <trkpt lat="50.0553888" lon="9.6810312">
                <ele>158.0</ele>
                <time>2020-08-28T12:05:18.000Z</time>
                <name>Trackpoint 4039</name>
            </trkpt>
            <trkpt lat="50.055408" lon="9.6809432">
                <ele>158.0</ele>
                <time>2020-08-28T12:05:19.000Z</time>
                <name>Trackpoint 4040</name>
            </trkpt>
            <trkpt lat="50.055424" lon="9.680848">
                <ele>158.0</ele>
                <time>2020-08-28T12:05:20.000Z</time>
                <name>Trackpoint 4041</name>
            </trkpt>
            <trkpt lat="50.0554432" lon="9.6807568">
                <ele>158.0</ele>
                <time>2020-08-28T12:05:21.000Z</time>
                <name>Trackpoint 4042</name>
            </trkpt>
            <trkpt lat="50.0554592" lon="9.6806672">
                <ele>158.0</ele>
                <time>2020-08-28T12:05:22.000Z</time>
                <name>Trackpoint 4043</name>
            </trkpt>
            <trkpt lat="50.055472" lon="9.680576">
                <ele>158.0</ele>
                <time>2020-08-28T12:05:23.000Z</time>
                <name>Trackpoint 4044</name>
            </trkpt>
            <trkpt lat="50.055504" lon="9.6803976">
                <ele>157.0</ele>
                <time>2020-08-28T12:05:25.000Z</time>
                <name>Trackpoint 4045</name>
            </trkpt>
            <trkpt lat="50.05552" lon="9.6803032">
                <ele>157.0</ele>
                <time>2020-08-28T12:05:26.000Z</time>
                <name>Trackpoint 4046</name>
            </trkpt>
            <trkpt lat="50.0555296" lon="9.680208">
                <ele>157.0</ele>
                <time>2020-08-28T12:05:27.000Z</time>
                <name>Trackpoint 4047</name>
            </trkpt>
            <trkpt lat="50.0555424" lon="9.6801136">
                <ele>157.0</ele>
                <time>2020-08-28T12:05:28.000Z</time>
                <name>Trackpoint 4048</name>
            </trkpt>
            <trkpt lat="50.055552" lon="9.6800184">
                <ele>157.0</ele>
                <time>2020-08-28T12:05:29.000Z</time>
                <name>Trackpoint 4049</name>
            </trkpt>
            <trkpt lat="50.0555616" lon="9.6799248">
                <ele>157.0</ele>
                <time>2020-08-28T12:05:30.000Z</time>
                <name>Trackpoint 4050</name>
            </trkpt>
            <trkpt lat="50.0555648" lon="9.6797464">
                <ele>157.0</ele>
                <time>2020-08-28T12:05:32.000Z</time>
                <name>Trackpoint 4051</name>
            </trkpt>
            <trkpt lat="50.0555616" lon="9.6795816">
                <ele>158.0</ele>
                <time>2020-08-28T12:05:34.000Z</time>
                <name>Trackpoint 4052</name>
            </trkpt>
            <trkpt lat="50.0555584" lon="9.6794344">
                <ele>158.0</ele>
                <time>2020-08-28T12:05:36.000Z</time>
                <name>Trackpoint 4053</name>
            </trkpt>
            <trkpt lat="50.055552" lon="9.6792984">
                <ele>158.0</ele>
                <time>2020-08-28T12:05:38.000Z</time>
                <name>Trackpoint 4054</name>
            </trkpt>
            <trkpt lat="50.055552" lon="9.6791664">
                <ele>158.0</ele>
                <time>2020-08-28T12:05:40.000Z</time>
                <name>Trackpoint 4055</name>
            </trkpt>
            <trkpt lat="50.0555456" lon="9.6790416">
                <ele>158.0</ele>
                <time>2020-08-28T12:05:42.000Z</time>
                <name>Trackpoint 4056</name>
            </trkpt>
            <trkpt lat="50.0555456" lon="9.6789112">
                <ele>158.0</ele>
                <time>2020-08-28T12:05:44.000Z</time>
                <name>Trackpoint 4057</name>
            </trkpt>
            <trkpt lat="50.0555424" lon="9.678772">
                <ele>158.0</ele>
                <time>2020-08-28T12:05:46.000Z</time>
                <name>Trackpoint 4058</name>
            </trkpt>
            <trkpt lat="50.0555328" lon="9.6786232">
                <ele>158.0</ele>
                <time>2020-08-28T12:05:48.000Z</time>
                <name>Trackpoint 4059</name>
            </trkpt>
            <trkpt lat="50.0555296" lon="9.6784664">
                <ele>158.0</ele>
                <time>2020-08-28T12:05:50.000Z</time>
                <name>Trackpoint 4060</name>
            </trkpt>
            <trkpt lat="50.0555328" lon="9.6783">
                <ele>158.0</ele>
                <time>2020-08-28T12:05:52.000Z</time>
                <name>Trackpoint 4061</name>
            </trkpt>
            <trkpt lat="50.0555296" lon="9.6781256">
                <ele>159.0</ele>
                <time>2020-08-28T12:05:54.000Z</time>
                <name>Trackpoint 4062</name>
            </trkpt>
            <trkpt lat="50.0555264" lon="9.6779448">
                <ele>159.0</ele>
                <time>2020-08-28T12:05:56.000Z</time>
                <name>Trackpoint 4063</name>
            </trkpt>
            <trkpt lat="50.0555264" lon="9.677852">
                <ele>159.0</ele>
                <time>2020-08-28T12:05:57.000Z</time>
                <name>Trackpoint 4064</name>
            </trkpt>
            <trkpt lat="50.0555264" lon="9.6777552">
                <ele>158.0</ele>
                <time>2020-08-28T12:05:58.000Z</time>
                <name>Trackpoint 4065</name>
            </trkpt>
            <trkpt lat="50.0555264" lon="9.67766">
                <ele>159.0</ele>
                <time>2020-08-28T12:05:59.000Z</time>
                <name>Trackpoint 4066</name>
            </trkpt>
            <trkpt lat="50.0555264" lon="9.677564">
                <ele>159.0</ele>
                <time>2020-08-28T12:06:00.000Z</time>
                <name>Trackpoint 4067</name>
            </trkpt>
            <trkpt lat="50.0555232" lon="9.6774664">
                <ele>158.0</ele>
                <time>2020-08-28T12:06:01.000Z</time>
                <name>Trackpoint 4068</name>
            </trkpt>
            <trkpt lat="50.05552" lon="9.677368">
                <ele>159.0</ele>
                <time>2020-08-28T12:06:02.000Z</time>
                <name>Trackpoint 4069</name>
            </trkpt>
            <trkpt lat="50.0555104" lon="9.677268">
                <ele>159.0</ele>
                <time>2020-08-28T12:06:03.000Z</time>
                <name>Trackpoint 4070</name>
            </trkpt>
            <trkpt lat="50.0555072" lon="9.6771696">
                <ele>159.0</ele>
                <time>2020-08-28T12:06:04.000Z</time>
                <name>Trackpoint 4071</name>
            </trkpt>
            <trkpt lat="50.0555008" lon="9.6770696">
                <ele>159.0</ele>
                <time>2020-08-28T12:06:05.000Z</time>
                <name>Trackpoint 4072</name>
            </trkpt>
            <trkpt lat="50.0554976" lon="9.6769752">
                <ele>159.0</ele>
                <time>2020-08-28T12:06:06.000Z</time>
                <name>Trackpoint 4073</name>
            </trkpt>
            <trkpt lat="50.055488" lon="9.6768776">
                <ele>159.0</ele>
                <time>2020-08-28T12:06:07.000Z</time>
                <name>Trackpoint 4074</name>
            </trkpt>
            <trkpt lat="50.0554816" lon="9.6767856">
                <ele>159.0</ele>
                <time>2020-08-28T12:06:08.000Z</time>
                <name>Trackpoint 4075</name>
            </trkpt>
            <trkpt lat="50.055472" lon="9.676692">
                <ele>159.0</ele>
                <time>2020-08-28T12:06:09.000Z</time>
                <name>Trackpoint 4076</name>
            </trkpt>
            <trkpt lat="50.0554688" lon="9.6765968">
                <ele>159.0</ele>
                <time>2020-08-28T12:06:10.000Z</time>
                <name>Trackpoint 4077</name>
            </trkpt>
            <trkpt lat="50.0554656" lon="9.6765">
                <ele>159.0</ele>
                <time>2020-08-28T12:06:11.000Z</time>
                <name>Trackpoint 4078</name>
            </trkpt>
            <trkpt lat="50.0554624" lon="9.6764024">
                <ele>159.0</ele>
                <time>2020-08-28T12:06:12.000Z</time>
                <name>Trackpoint 4079</name>
            </trkpt>
            <trkpt lat="50.0554592" lon="9.6763016">
                <ele>159.0</ele>
                <time>2020-08-28T12:06:13.000Z</time>
                <name>Trackpoint 4080</name>
            </trkpt>
            <trkpt lat="50.0554528" lon="9.6762016">
                <ele>159.0</ele>
                <time>2020-08-28T12:06:14.000Z</time>
                <name>Trackpoint 4081</name>
            </trkpt>
            <trkpt lat="50.0554592" lon="9.6761016">
                <ele>159.0</ele>
                <time>2020-08-28T12:06:15.000Z</time>
                <name>Trackpoint 4082</name>
            </trkpt>
            <trkpt lat="50.0554624" lon="9.6760016">
                <ele>159.0</ele>
                <time>2020-08-28T12:06:16.000Z</time>
                <name>Trackpoint 4083</name>
            </trkpt>
            <trkpt lat="50.0554688" lon="9.6758984">
                <ele>159.0</ele>
                <time>2020-08-28T12:06:17.000Z</time>
                <name>Trackpoint 4084</name>
            </trkpt>
            <trkpt lat="50.055472" lon="9.675792">
                <ele>159.0</ele>
                <time>2020-08-28T12:06:18.000Z</time>
                <name>Trackpoint 4085</name>
            </trkpt>
            <trkpt lat="50.055472" lon="9.6756872">
                <ele>159.0</ele>
                <time>2020-08-28T12:06:19.000Z</time>
                <name>Trackpoint 4086</name>
            </trkpt>
            <trkpt lat="50.055472" lon="9.6755784">
                <ele>159.0</ele>
                <time>2020-08-28T12:06:20.000Z</time>
                <name>Trackpoint 4087</name>
            </trkpt>
            <trkpt lat="50.0554688" lon="9.6754704">
                <ele>159.0</ele>
                <time>2020-08-28T12:06:21.000Z</time>
                <name>Trackpoint 4088</name>
            </trkpt>
            <trkpt lat="50.0554624" lon="9.6753552">
                <ele>159.0</ele>
                <time>2020-08-28T12:06:22.000Z</time>
                <name>Trackpoint 4089</name>
            </trkpt>
            <trkpt lat="50.0554592" lon="9.6752504">
                <ele>159.0</ele>
                <time>2020-08-28T12:06:23.000Z</time>
                <name>Trackpoint 4090</name>
            </trkpt>
            <trkpt lat="50.0554592" lon="9.6751368">
                <ele>159.0</ele>
                <time>2020-08-28T12:06:24.000Z</time>
                <name>Trackpoint 4091</name>
            </trkpt>
            <trkpt lat="50.0554528" lon="9.6750272">
                <ele>158.0</ele>
                <time>2020-08-28T12:06:25.000Z</time>
                <name>Trackpoint 4092</name>
            </trkpt>
            <trkpt lat="50.0554496" lon="9.67492">
                <ele>158.0</ele>
                <time>2020-08-28T12:06:26.000Z</time>
                <name>Trackpoint 4093</name>
            </trkpt>
            <trkpt lat="50.0554464" lon="9.6748136">
                <ele>158.0</ele>
                <time>2020-08-28T12:06:27.000Z</time>
                <name>Trackpoint 4094</name>
            </trkpt>
            <trkpt lat="50.0554336" lon="9.6747128">
                <ele>158.0</ele>
                <time>2020-08-28T12:06:28.000Z</time>
                <name>Trackpoint 4095</name>
            </trkpt>
            <trkpt lat="50.055424" lon="9.6746056">
                <ele>158.0</ele>
                <time>2020-08-28T12:06:29.000Z</time>
                <name>Trackpoint 4096</name>
            </trkpt>
            <trkpt lat="50.0554208" lon="9.6745032">
                <ele>159.0</ele>
                <time>2020-08-28T12:06:30.000Z</time>
                <name>Trackpoint 4097</name>
            </trkpt>
            <trkpt lat="50.0554208" lon="9.6744016">
                <ele>159.0</ele>
                <time>2020-08-28T12:06:31.000Z</time>
                <name>Trackpoint 4098</name>
            </trkpt>
            <trkpt lat="50.0554272" lon="9.6743">
                <ele>159.0</ele>
                <time>2020-08-28T12:06:32.000Z</time>
                <name>Trackpoint 4099</name>
            </trkpt>
            <trkpt lat="50.05544" lon="9.6741912">
                <ele>158.0</ele>
                <time>2020-08-28T12:06:33.000Z</time>
                <name>Trackpoint 4100</name>
            </trkpt>
            <trkpt lat="50.0554464" lon="9.6740848">
                <ele>158.0</ele>
                <time>2020-08-28T12:06:34.000Z</time>
                <name>Trackpoint 4101</name>
            </trkpt>
            <trkpt lat="50.0554528" lon="9.673972">
                <ele>158.0</ele>
                <time>2020-08-28T12:06:35.000Z</time>
                <name>Trackpoint 4102</name>
            </trkpt>
            <trkpt lat="50.0554592" lon="9.6738592">
                <ele>158.0</ele>
                <time>2020-08-28T12:06:36.000Z</time>
                <name>Trackpoint 4103</name>
            </trkpt>
            <trkpt lat="50.0554624" lon="9.6737496">
                <ele>158.0</ele>
                <time>2020-08-28T12:06:37.000Z</time>
                <name>Trackpoint 4104</name>
            </trkpt>
            <trkpt lat="50.0554656" lon="9.67364">
                <ele>158.0</ele>
                <time>2020-08-28T12:06:38.000Z</time>
                <name>Trackpoint 4105</name>
            </trkpt>
            <trkpt lat="50.0554624" lon="9.673536">
                <ele>157.0</ele>
                <time>2020-08-28T12:06:39.000Z</time>
                <name>Trackpoint 4106</name>
            </trkpt>
            <trkpt lat="50.0554656" lon="9.6734368">
                <ele>157.0</ele>
                <time>2020-08-28T12:06:40.000Z</time>
                <name>Trackpoint 4107</name>
            </trkpt>
            <trkpt lat="50.0554624" lon="9.6733352">
                <ele>157.0</ele>
                <time>2020-08-28T12:06:41.000Z</time>
                <name>Trackpoint 4108</name>
            </trkpt>
            <trkpt lat="50.0554624" lon="9.6732368">
                <ele>157.0</ele>
                <time>2020-08-28T12:06:42.000Z</time>
                <name>Trackpoint 4109</name>
            </trkpt>
            <trkpt lat="50.0554624" lon="9.673132">
                <ele>157.0</ele>
                <time>2020-08-28T12:06:43.000Z</time>
                <name>Trackpoint 4110</name>
            </trkpt>
            <trkpt lat="50.0554624" lon="9.6730296">
                <ele>157.0</ele>
                <time>2020-08-28T12:06:44.000Z</time>
                <name>Trackpoint 4111</name>
            </trkpt>
            <trkpt lat="50.0554624" lon="9.6729368">
                <ele>157.0</ele>
                <time>2020-08-28T12:06:45.000Z</time>
                <name>Trackpoint 4112</name>
            </trkpt>
            <trkpt lat="50.0554656" lon="9.6728384">
                <ele>157.0</ele>
                <time>2020-08-28T12:06:46.000Z</time>
                <name>Trackpoint 4113</name>
            </trkpt>
            <trkpt lat="50.0554688" lon="9.67274">
                <ele>157.0</ele>
                <time>2020-08-28T12:06:47.000Z</time>
                <name>Trackpoint 4114</name>
            </trkpt>
            <trkpt lat="50.055472" lon="9.6726448">
                <ele>157.0</ele>
                <time>2020-08-28T12:06:48.000Z</time>
                <name>Trackpoint 4115</name>
            </trkpt>
            <trkpt lat="50.055472" lon="9.672548">
                <ele>157.0</ele>
                <time>2020-08-28T12:06:49.000Z</time>
                <name>Trackpoint 4116</name>
            </trkpt>
            <trkpt lat="50.0554784" lon="9.672452">
                <ele>157.0</ele>
                <time>2020-08-28T12:06:50.000Z</time>
                <name>Trackpoint 4117</name>
            </trkpt>
            <trkpt lat="50.0554816" lon="9.672352">
                <ele>157.0</ele>
                <time>2020-08-28T12:06:51.000Z</time>
                <name>Trackpoint 4118</name>
            </trkpt>
            <trkpt lat="50.0554912" lon="9.6722568">
                <ele>157.0</ele>
                <time>2020-08-28T12:06:52.000Z</time>
                <name>Trackpoint 4119</name>
            </trkpt>
            <trkpt lat="50.0554976" lon="9.6721632">
                <ele>157.0</ele>
                <time>2020-08-28T12:06:53.000Z</time>
                <name>Trackpoint 4120</name>
            </trkpt>
            <trkpt lat="50.055504" lon="9.6720696">
                <ele>157.0</ele>
                <time>2020-08-28T12:06:54.000Z</time>
                <name>Trackpoint 4121</name>
            </trkpt>
            <trkpt lat="50.05552" lon="9.6719768">
                <ele>157.0</ele>
                <time>2020-08-28T12:06:55.000Z</time>
                <name>Trackpoint 4122</name>
            </trkpt>
            <trkpt lat="50.0555264" lon="9.6718816">
                <ele>157.0</ele>
                <time>2020-08-28T12:06:56.000Z</time>
                <name>Trackpoint 4123</name>
            </trkpt>
            <trkpt lat="50.0555392" lon="9.6717904">
                <ele>157.0</ele>
                <time>2020-08-28T12:06:57.000Z</time>
                <name>Trackpoint 4124</name>
            </trkpt>
            <trkpt lat="50.055552" lon="9.6716992">
                <ele>157.0</ele>
                <time>2020-08-28T12:06:58.000Z</time>
                <name>Trackpoint 4125</name>
            </trkpt>
            <trkpt lat="50.0555616" lon="9.6716048">
                <ele>157.0</ele>
                <time>2020-08-28T12:06:59.000Z</time>
                <name>Trackpoint 4126</name>
            </trkpt>
            <trkpt lat="50.0555712" lon="9.6715136">
                <ele>157.0</ele>
                <time>2020-08-28T12:07:00.000Z</time>
                <name>Trackpoint 4127</name>
            </trkpt>
            <trkpt lat="50.0556032" lon="9.67134">
                <ele>157.0</ele>
                <time>2020-08-28T12:07:02.000Z</time>
                <name>Trackpoint 4128</name>
            </trkpt>
            <trkpt lat="50.055616" lon="9.6711632">
                <ele>157.0</ele>
                <time>2020-08-28T12:07:04.000Z</time>
                <name>Trackpoint 4129</name>
            </trkpt>
            <trkpt lat="50.0556224" lon="9.670988">
                <ele>157.0</ele>
                <time>2020-08-28T12:07:06.000Z</time>
                <name>Trackpoint 4130</name>
            </trkpt>
            <trkpt lat="50.055632" lon="9.6708048">
                <ele>157.0</ele>
                <time>2020-08-28T12:07:08.000Z</time>
                <name>Trackpoint 4131</name>
            </trkpt>
            <trkpt lat="50.0556448" lon="9.6707152">
                <ele>157.0</ele>
                <time>2020-08-28T12:07:09.000Z</time>
                <name>Trackpoint 4132</name>
            </trkpt>
            <trkpt lat="50.0556512" lon="9.6706248">
                <ele>157.0</ele>
                <time>2020-08-28T12:07:10.000Z</time>
                <name>Trackpoint 4133</name>
            </trkpt>
            <trkpt lat="50.0556608" lon="9.6705352">
                <ele>157.0</ele>
                <time>2020-08-28T12:07:11.000Z</time>
                <name>Trackpoint 4134</name>
            </trkpt>
            <trkpt lat="50.0556704" lon="9.6704456">
                <ele>157.0</ele>
                <time>2020-08-28T12:07:12.000Z</time>
                <name>Trackpoint 4135</name>
            </trkpt>
            <trkpt lat="50.0556864" lon="9.6703384">
                <ele>156.0</ele>
                <time>2020-08-28T12:07:13.000Z</time>
                <name>Trackpoint 4136</name>
            </trkpt>
            <trkpt lat="50.0556992" lon="9.6702448">
                <ele>156.0</ele>
                <time>2020-08-28T12:07:14.000Z</time>
                <name>Trackpoint 4137</name>
            </trkpt>
            <trkpt lat="50.0557184" lon="9.6700688">
                <ele>157.0</ele>
                <time>2020-08-28T12:07:16.000Z</time>
                <name>Trackpoint 4138</name>
            </trkpt>
            <trkpt lat="50.0557216" lon="9.6698848">
                <ele>156.0</ele>
                <time>2020-08-28T12:07:18.000Z</time>
                <name>Trackpoint 4139</name>
            </trkpt>
            <trkpt lat="50.055728" lon="9.6697928">
                <ele>156.0</ele>
                <time>2020-08-28T12:07:19.000Z</time>
                <name>Trackpoint 4140</name>
            </trkpt>
            <trkpt lat="50.0557408" lon="9.6696968">
                <ele>156.0</ele>
                <time>2020-08-28T12:07:20.000Z</time>
                <name>Trackpoint 4141</name>
            </trkpt>
            <trkpt lat="50.0557504" lon="9.6696064">
                <ele>156.0</ele>
                <time>2020-08-28T12:07:21.000Z</time>
                <name>Trackpoint 4142</name>
            </trkpt>
            <trkpt lat="50.0557632" lon="9.6695144">
                <ele>156.0</ele>
                <time>2020-08-28T12:07:22.000Z</time>
                <name>Trackpoint 4143</name>
            </trkpt>
            <trkpt lat="50.0557792" lon="9.6693312">
                <ele>155.0</ele>
                <time>2020-08-28T12:07:24.000Z</time>
                <name>Trackpoint 4144</name>
            </trkpt>
            <trkpt lat="50.0557888" lon="9.66924">
                <ele>155.0</ele>
                <time>2020-08-28T12:07:25.000Z</time>
                <name>Trackpoint 4145</name>
            </trkpt>
            <trkpt lat="50.0557984" lon="9.6691464">
                <ele>155.0</ele>
                <time>2020-08-28T12:07:26.000Z</time>
                <name>Trackpoint 4146</name>
            </trkpt>
            <trkpt lat="50.0558048" lon="9.6690552">
                <ele>155.0</ele>
                <time>2020-08-28T12:07:27.000Z</time>
                <name>Trackpoint 4147</name>
            </trkpt>
            <trkpt lat="50.0558144" lon="9.6689656">
                <ele>155.0</ele>
                <time>2020-08-28T12:07:28.000Z</time>
                <name>Trackpoint 4148</name>
            </trkpt>
            <trkpt lat="50.0558208" lon="9.6688736">
                <ele>155.0</ele>
                <time>2020-08-28T12:07:29.000Z</time>
                <name>Trackpoint 4149</name>
            </trkpt>
            <trkpt lat="50.0558272" lon="9.6687784">
                <ele>154.0</ele>
                <time>2020-08-28T12:07:30.000Z</time>
                <name>Trackpoint 4150</name>
            </trkpt>
            <trkpt lat="50.05584" lon="9.6686888">
                <ele>154.0</ele>
                <time>2020-08-28T12:07:31.000Z</time>
                <name>Trackpoint 4151</name>
            </trkpt>
            <trkpt lat="50.0558432" lon="9.6685952">
                <ele>154.0</ele>
                <time>2020-08-28T12:07:32.000Z</time>
                <name>Trackpoint 4152</name>
            </trkpt>
            <trkpt lat="50.0558496" lon="9.6685048">
                <ele>154.0</ele>
                <time>2020-08-28T12:07:33.000Z</time>
                <name>Trackpoint 4153</name>
            </trkpt>
            <trkpt lat="50.0558592" lon="9.6684128">
                <ele>153.0</ele>
                <time>2020-08-28T12:07:34.000Z</time>
                <name>Trackpoint 4154</name>
            </trkpt>
            <trkpt lat="50.0558688" lon="9.6683232">
                <ele>152.0</ele>
                <time>2020-08-28T12:07:35.000Z</time>
                <name>Trackpoint 4155</name>
            </trkpt>
            <trkpt lat="50.0558752" lon="9.668228">
                <ele>152.0</ele>
                <time>2020-08-28T12:07:36.000Z</time>
                <name>Trackpoint 4156</name>
            </trkpt>
            <trkpt lat="50.055888" lon="9.668052">
                <ele>151.0</ele>
                <time>2020-08-28T12:07:38.000Z</time>
                <name>Trackpoint 4157</name>
            </trkpt>
            <trkpt lat="50.0559072" lon="9.6678752">
                <ele>151.0</ele>
                <time>2020-08-28T12:07:40.000Z</time>
                <name>Trackpoint 4158</name>
            </trkpt>
            <trkpt lat="50.0559232" lon="9.6677864">
                <ele>151.0</ele>
                <time>2020-08-28T12:07:41.000Z</time>
                <name>Trackpoint 4159</name>
            </trkpt>
            <trkpt lat="50.0559488" lon="9.6676168">
                <ele>151.0</ele>
                <time>2020-08-28T12:07:43.000Z</time>
                <name>Trackpoint 4160</name>
            </trkpt>
            <trkpt lat="50.0559776" lon="9.667452">
                <ele>151.0</ele>
                <time>2020-08-28T12:07:45.000Z</time>
                <name>Trackpoint 4161</name>
            </trkpt>
            <trkpt lat="50.0560032" lon="9.6672784">
                <ele>151.0</ele>
                <time>2020-08-28T12:07:47.000Z</time>
                <name>Trackpoint 4162</name>
            </trkpt>
            <trkpt lat="50.0560256" lon="9.6671112">
                <ele>151.0</ele>
                <time>2020-08-28T12:07:49.000Z</time>
                <name>Trackpoint 4163</name>
            </trkpt>
            <trkpt lat="50.0560448" lon="9.6670152">
                <ele>151.0</ele>
                <time>2020-08-28T12:07:50.000Z</time>
                <name>Trackpoint 4164</name>
            </trkpt>
            <trkpt lat="50.0560672" lon="9.6669216">
                <ele>151.0</ele>
                <time>2020-08-28T12:07:51.000Z</time>
                <name>Trackpoint 4165</name>
            </trkpt>
            <trkpt lat="50.0561216" lon="9.6667496">
                <ele>151.0</ele>
                <time>2020-08-28T12:07:53.000Z</time>
                <name>Trackpoint 4166</name>
            </trkpt>
            <trkpt lat="50.056144" lon="9.6666536">
                <ele>151.0</ele>
                <time>2020-08-28T12:07:54.000Z</time>
                <name>Trackpoint 4167</name>
            </trkpt>
            <trkpt lat="50.056176" lon="9.6664848">
                <ele>151.0</ele>
                <time>2020-08-28T12:07:56.000Z</time>
                <name>Trackpoint 4168</name>
            </trkpt>
            <trkpt lat="50.056192" lon="9.6663952">
                <ele>151.0</ele>
                <time>2020-08-28T12:07:57.000Z</time>
                <name>Trackpoint 4169</name>
            </trkpt>
            <trkpt lat="50.0562208" lon="9.6662232">
                <ele>151.0</ele>
                <time>2020-08-28T12:07:59.000Z</time>
                <name>Trackpoint 4170</name>
            </trkpt>
            <trkpt lat="50.0562944" lon="9.6660672">
                <ele>150.0</ele>
                <time>2020-08-28T12:08:01.000Z</time>
                <name>Trackpoint 4171</name>
            </trkpt>
            <trkpt lat="50.0563328" lon="9.6659024">
                <ele>150.0</ele>
                <time>2020-08-28T12:08:03.000Z</time>
                <name>Trackpoint 4172</name>
            </trkpt>
            <trkpt lat="50.056336" lon="9.6658112">
                <ele>150.0</ele>
                <time>2020-08-28T12:08:04.000Z</time>
                <name>Trackpoint 4173</name>
            </trkpt>
            <trkpt lat="50.0563808" lon="9.665644">
                <ele>150.0</ele>
                <time>2020-08-28T12:08:06.000Z</time>
                <name>Trackpoint 4174</name>
            </trkpt>
            <trkpt lat="50.0564224" lon="9.6654768">
                <ele>150.0</ele>
                <time>2020-08-28T12:08:08.000Z</time>
                <name>Trackpoint 4175</name>
            </trkpt>
            <trkpt lat="50.0564448" lon="9.6653048">
                <ele>150.0</ele>
                <time>2020-08-28T12:08:10.000Z</time>
                <name>Trackpoint 4176</name>
            </trkpt>
            <trkpt lat="50.05648" lon="9.6651472">
                <ele>150.0</ele>
                <time>2020-08-28T12:08:12.000Z</time>
                <name>Trackpoint 4177</name>
            </trkpt>
            <trkpt lat="50.056512" lon="9.6649864">
                <ele>150.0</ele>
                <time>2020-08-28T12:08:14.000Z</time>
                <name>Trackpoint 4178</name>
            </trkpt>
            <trkpt lat="50.0565568" lon="9.6648368">
                <ele>150.0</ele>
                <time>2020-08-28T12:08:16.000Z</time>
                <name>Trackpoint 4179</name>
            </trkpt>
            <trkpt lat="50.0565984" lon="9.6646864">
                <ele>150.0</ele>
                <time>2020-08-28T12:08:18.000Z</time>
                <name>Trackpoint 4180</name>
            </trkpt>
            <trkpt lat="50.0566368" lon="9.6645344">
                <ele>151.0</ele>
                <time>2020-08-28T12:08:20.000Z</time>
                <name>Trackpoint 4181</name>
            </trkpt>
            <trkpt lat="50.0566976" lon="9.6644032">
                <ele>151.0</ele>
                <time>2020-08-28T12:08:22.000Z</time>
                <name>Trackpoint 4182</name>
            </trkpt>
            <trkpt lat="50.0567424" lon="9.6642504">
                <ele>151.0</ele>
                <time>2020-08-28T12:08:24.000Z</time>
                <name>Trackpoint 4183</name>
            </trkpt>
            <trkpt lat="50.0567712" lon="9.6640904">
                <ele>151.0</ele>
                <time>2020-08-28T12:08:26.000Z</time>
                <name>Trackpoint 4184</name>
            </trkpt>
            <trkpt lat="50.0568032" lon="9.6639368">
                <ele>151.0</ele>
                <time>2020-08-28T12:08:28.000Z</time>
                <name>Trackpoint 4185</name>
            </trkpt>
            <trkpt lat="50.0568192" lon="9.6637952">
                <ele>151.0</ele>
                <time>2020-08-28T12:08:30.000Z</time>
                <name>Trackpoint 4186</name>
            </trkpt>
            <trkpt lat="50.0568384" lon="9.6636352">
                <ele>150.0</ele>
                <time>2020-08-28T12:08:32.000Z</time>
                <name>Trackpoint 4187</name>
            </trkpt>
            <trkpt lat="50.0568576" lon="9.6635464">
                <ele>150.0</ele>
                <time>2020-08-28T12:08:33.000Z</time>
                <name>Trackpoint 4188</name>
            </trkpt>
            <trkpt lat="50.0569024" lon="9.6633832">
                <ele>150.0</ele>
                <time>2020-08-28T12:08:35.000Z</time>
                <name>Trackpoint 4189</name>
            </trkpt>
            <trkpt lat="50.0569536" lon="9.6632216">
                <ele>149.0</ele>
                <time>2020-08-28T12:08:37.000Z</time>
                <name>Trackpoint 4190</name>
            </trkpt>
            <trkpt lat="50.0569824" lon="9.6630688">
                <ele>150.0</ele>
                <time>2020-08-28T12:08:39.000Z</time>
                <name>Trackpoint 4191</name>
            </trkpt>
            <trkpt lat="50.0570016" lon="9.6629184">
                <ele>150.0</ele>
                <time>2020-08-28T12:08:41.000Z</time>
                <name>Trackpoint 4192</name>
            </trkpt>
            <trkpt lat="50.0570144" lon="9.6627816">
                <ele>150.0</ele>
                <time>2020-08-28T12:08:43.000Z</time>
                <name>Trackpoint 4193</name>
            </trkpt>
            <trkpt lat="50.0570528" lon="9.6626704">
                <ele>151.0</ele>
                <time>2020-08-28T12:08:45.000Z</time>
                <name>Trackpoint 4194</name>
            </trkpt>
            <trkpt lat="50.0570816" lon="9.6625672">
                <ele>151.0</ele>
                <time>2020-08-28T12:08:47.000Z</time>
                <name>Trackpoint 4195</name>
            </trkpt>
            <trkpt lat="50.05712" lon="9.6624496">
                <ele>150.0</ele>
                <time>2020-08-28T12:08:49.000Z</time>
                <name>Trackpoint 4196</name>
            </trkpt>
            <trkpt lat="50.0571648" lon="9.6623496">
                <ele>150.0</ele>
                <time>2020-08-28T12:08:51.000Z</time>
                <name>Trackpoint 4197</name>
            </trkpt>
            <trkpt lat="50.0571872" lon="9.6622312">
                <ele>150.0</ele>
                <time>2020-08-28T12:08:53.000Z</time>
                <name>Trackpoint 4198</name>
            </trkpt>
            <trkpt lat="50.0572384" lon="9.6621304">
                <ele>151.0</ele>
                <time>2020-08-28T12:08:55.000Z</time>
                <name>Trackpoint 4199</name>
            </trkpt>
            <trkpt lat="50.0572704" lon="9.6620184">
                <ele>150.0</ele>
                <time>2020-08-28T12:08:57.000Z</time>
                <name>Trackpoint 4200</name>
            </trkpt>
            <trkpt lat="50.0573184" lon="9.6618728">
                <ele>150.0</ele>
                <time>2020-08-28T12:08:59.000Z</time>
                <name>Trackpoint 4201</name>
            </trkpt>
            <trkpt lat="50.0573696" lon="9.6617336">
                <ele>150.0</ele>
                <time>2020-08-28T12:09:01.000Z</time>
                <name>Trackpoint 4202</name>
            </trkpt>
            <trkpt lat="50.057424" lon="9.6615848">
                <ele>150.0</ele>
                <time>2020-08-28T12:09:03.000Z</time>
                <name>Trackpoint 4203</name>
            </trkpt>
            <trkpt lat="50.0574688" lon="9.6614288">
                <ele>149.0</ele>
                <time>2020-08-28T12:09:05.000Z</time>
                <name>Trackpoint 4204</name>
            </trkpt>
            <trkpt lat="50.0575136" lon="9.6612616">
                <ele>149.0</ele>
                <time>2020-08-28T12:09:07.000Z</time>
                <name>Trackpoint 4205</name>
            </trkpt>
            <trkpt lat="50.057568" lon="9.6611">
                <ele>150.0</ele>
                <time>2020-08-28T12:09:09.000Z</time>
                <name>Trackpoint 4206</name>
            </trkpt>
            <trkpt lat="50.057632" lon="9.6609552">
                <ele>151.0</ele>
                <time>2020-08-28T12:09:11.000Z</time>
                <name>Trackpoint 4207</name>
            </trkpt>
            <trkpt lat="50.0576896" lon="9.660804">
                <ele>151.0</ele>
                <time>2020-08-28T12:09:13.000Z</time>
                <name>Trackpoint 4208</name>
            </trkpt>
            <trkpt lat="50.0577312" lon="9.6606432">
                <ele>151.0</ele>
                <time>2020-08-28T12:09:15.000Z</time>
                <name>Trackpoint 4209</name>
            </trkpt>
            <trkpt lat="50.0577824" lon="9.6604856">
                <ele>151.0</ele>
                <time>2020-08-28T12:09:17.000Z</time>
                <name>Trackpoint 4210</name>
            </trkpt>
            <trkpt lat="50.05784" lon="9.6603384">
                <ele>151.0</ele>
                <time>2020-08-28T12:09:19.000Z</time>
                <name>Trackpoint 4211</name>
            </trkpt>
            <trkpt lat="50.057888" lon="9.660196">
                <ele>152.0</ele>
                <time>2020-08-28T12:09:21.000Z</time>
                <name>Trackpoint 4212</name>
            </trkpt>
            <trkpt lat="50.0579392" lon="9.6600616">
                <ele>151.0</ele>
                <time>2020-08-28T12:09:23.000Z</time>
                <name>Trackpoint 4213</name>
            </trkpt>
            <trkpt lat="50.0579936" lon="9.659932">
                <ele>152.0</ele>
                <time>2020-08-28T12:09:25.000Z</time>
                <name>Trackpoint 4214</name>
            </trkpt>
            <trkpt lat="50.058048" lon="9.6598016">
                <ele>152.0</ele>
                <time>2020-08-28T12:09:27.000Z</time>
                <name>Trackpoint 4215</name>
            </trkpt>
            <trkpt lat="50.0580992" lon="9.6596816">
                <ele>152.0</ele>
                <time>2020-08-28T12:09:29.000Z</time>
                <name>Trackpoint 4216</name>
            </trkpt>
            <trkpt lat="50.0581472" lon="9.6595784">
                <ele>152.0</ele>
                <time>2020-08-28T12:09:31.000Z</time>
                <name>Trackpoint 4217</name>
            </trkpt>
            <trkpt lat="50.0581856" lon="9.6594464">
                <ele>152.0</ele>
                <time>2020-08-28T12:09:33.000Z</time>
                <name>Trackpoint 4218</name>
            </trkpt>
            <trkpt lat="50.058224" lon="9.6593048">
                <ele>152.0</ele>
                <time>2020-08-28T12:09:35.000Z</time>
                <name>Trackpoint 4219</name>
            </trkpt>
            <trkpt lat="50.0582624" lon="9.659168">
                <ele>152.0</ele>
                <time>2020-08-28T12:09:37.000Z</time>
                <name>Trackpoint 4220</name>
            </trkpt>
            <trkpt lat="50.0583008" lon="9.6590248">
                <ele>152.0</ele>
                <time>2020-08-28T12:09:39.000Z</time>
                <name>Trackpoint 4221</name>
            </trkpt>
            <trkpt lat="50.0583392" lon="9.6588824">
                <ele>152.0</ele>
                <time>2020-08-28T12:09:41.000Z</time>
                <name>Trackpoint 4222</name>
            </trkpt>
            <trkpt lat="50.0583712" lon="9.658736">
                <ele>152.0</ele>
                <time>2020-08-28T12:09:43.000Z</time>
                <name>Trackpoint 4223</name>
            </trkpt>
            <trkpt lat="50.0583904" lon="9.65858">
                <ele>152.0</ele>
                <time>2020-08-28T12:09:45.000Z</time>
                <name>Trackpoint 4224</name>
            </trkpt>
            <trkpt lat="50.0583776" lon="9.6584304">
                <ele>152.0</ele>
                <time>2020-08-28T12:09:47.000Z</time>
                <name>Trackpoint 4225</name>
            </trkpt>
            <trkpt lat="50.0583392" lon="9.6582984">
                <ele>152.0</ele>
                <time>2020-08-28T12:09:49.000Z</time>
                <name>Trackpoint 4226</name>
            </trkpt>
            <trkpt lat="50.058288" lon="9.6582016">
                <ele>152.0</ele>
                <time>2020-08-28T12:09:51.000Z</time>
                <name>Trackpoint 4227</name>
            </trkpt>
            <trkpt lat="50.05824" lon="9.6581136">
                <ele>153.0</ele>
                <time>2020-08-28T12:09:53.000Z</time>
                <name>Trackpoint 4228</name>
            </trkpt>
            <trkpt lat="50.0581856" lon="9.6580264">
                <ele>153.0</ele>
                <time>2020-08-28T12:09:55.000Z</time>
                <name>Trackpoint 4229</name>
            </trkpt>
            <trkpt lat="50.0581312" lon="9.6579488">
                <ele>153.0</ele>
                <time>2020-08-28T12:09:57.000Z</time>
                <name>Trackpoint 4230</name>
            </trkpt>
            <trkpt lat="50.0580416" lon="9.65788">
                <ele>153.0</ele>
                <time>2020-08-28T12:10:00.000Z</time>
                <name>Trackpoint 4231</name>
            </trkpt>
            <trkpt lat="50.0579424" lon="9.6578368">
                <ele>153.0</ele>
                <time>2020-08-28T12:10:03.000Z</time>
                <name>Trackpoint 4232</name>
            </trkpt>
            <trkpt lat="50.0578464" lon="9.6578152">
                <ele>154.0</ele>
                <time>2020-08-28T12:10:06.000Z</time>
                <name>Trackpoint 4233</name>
            </trkpt>
            <trkpt lat="50.0577408" lon="9.6577952">
                <ele>154.0</ele>
                <time>2020-08-28T12:10:09.000Z</time>
                <name>Trackpoint 4234</name>
            </trkpt>
            <trkpt lat="50.0576288" lon="9.6577968">
                <ele>154.0</ele>
                <time>2020-08-28T12:10:12.000Z</time>
                <name>Trackpoint 4235</name>
            </trkpt>
            <trkpt lat="50.0575264" lon="9.6577768">
                <ele>155.0</ele>
                <time>2020-08-28T12:10:15.000Z</time>
                <name>Trackpoint 4236</name>
            </trkpt>
            <trkpt lat="50.0574144" lon="9.6577816">
                <ele>155.0</ele>
                <time>2020-08-28T12:10:19.000Z</time>
                <name>Trackpoint 4237</name>
            </trkpt>
            <trkpt lat="50.057392" lon="9.6576544">
                <ele>156.0</ele>
                <time>2020-08-28T12:10:22.000Z</time>
                <name>Trackpoint 4238</name>
            </trkpt>
            <trkpt lat="50.0573632" lon="9.6575544">
                <ele>157.0</ele>
                <time>2020-08-28T12:10:25.000Z</time>
                <name>Trackpoint 4239</name>
            </trkpt>
            <trkpt lat="50.0574144" lon="9.65748">
                <ele>159.0</ele>
                <time>2020-08-28T12:10:35.000Z</time>
                <name>Trackpoint 4240</name>
            </trkpt>
            <trkpt lat="50.0573664" lon="9.6573752">
                <ele>160.0</ele>
                <time>2020-08-28T12:10:52.000Z</time>
                <name>Trackpoint 4241</name>
            </trkpt>
            <trkpt lat="50.0573344" lon="9.6572536">
                <ele>160.0</ele>
                <time>2020-08-28T12:10:56.000Z</time>
                <name>Trackpoint 4242</name>
            </trkpt>
            <trkpt lat="50.057296" lon="9.6571512">
                <ele>160.0</ele>
                <time>2020-08-28T12:10:59.000Z</time>
                <name>Trackpoint 4243</name>
            </trkpt>
            <trkpt lat="50.0572256" lon="9.6570864">
                <ele>161.0</ele>
                <time>2020-08-28T12:11:03.000Z</time>
                <name>Trackpoint 4244</name>
            </trkpt>
            <trkpt lat="50.057136" lon="9.6570384">
                <ele>161.0</ele>
                <time>2020-08-28T12:11:06.000Z</time>
                <name>Trackpoint 4245</name>
            </trkpt>
            <trkpt lat="50.0570464" lon="9.6569792">
                <ele>161.0</ele>
                <time>2020-08-28T12:11:10.000Z</time>
                <name>Trackpoint 4246</name>
            </trkpt>
            <trkpt lat="50.0569728" lon="9.6569184">
                <ele>161.0</ele>
                <time>2020-08-28T12:11:13.000Z</time>
                <name>Trackpoint 4247</name>
            </trkpt>
            <trkpt lat="50.0569408" lon="9.6568248">
                <ele>161.0</ele>
                <time>2020-08-28T12:11:16.000Z</time>
                <name>Trackpoint 4248</name>
            </trkpt>
            <trkpt lat="50.0568992" lon="9.65674">
                <ele>161.0</ele>
                <time>2020-08-28T12:11:20.000Z</time>
                <name>Trackpoint 4249</name>
            </trkpt>
            <trkpt lat="50.0568" lon="9.6566888">
                <ele>162.0</ele>
                <time>2020-08-28T12:11:25.000Z</time>
                <name>Trackpoint 4250</name>
            </trkpt>
            <trkpt lat="50.0567232" lon="9.6566064">
                <ele>163.0</ele>
                <time>2020-08-28T12:11:29.000Z</time>
                <name>Trackpoint 4251</name>
            </trkpt>
            <trkpt lat="50.0566784" lon="9.6565048">
                <ele>163.0</ele>
                <time>2020-08-28T12:11:32.000Z</time>
                <name>Trackpoint 4252</name>
            </trkpt>
            <trkpt lat="50.0566496" lon="9.6563816">
                <ele>163.0</ele>
                <time>2020-08-28T12:11:35.000Z</time>
                <name>Trackpoint 4253</name>
            </trkpt>
            <trkpt lat="50.0566304" lon="9.656292">
                <ele>163.0</ele>
                <time>2020-08-28T12:11:37.000Z</time>
                <name>Trackpoint 4254</name>
            </trkpt>
            <trkpt lat="50.0566112" lon="9.6561872">
                <ele>164.0</ele>
                <time>2020-08-28T12:11:39.000Z</time>
                <name>Trackpoint 4255</name>
            </trkpt>
            <trkpt lat="50.0566112" lon="9.6560896">
                <ele>164.0</ele>
                <time>2020-08-28T12:11:41.000Z</time>
                <name>Trackpoint 4256</name>
            </trkpt>
            <trkpt lat="50.0565952" lon="9.6559688">
                <ele>165.0</ele>
                <time>2020-08-28T12:11:44.000Z</time>
                <name>Trackpoint 4257</name>
            </trkpt>
            <trkpt lat="50.0565728" lon="9.6558248">
                <ele>165.0</ele>
                <time>2020-08-28T12:11:46.000Z</time>
                <name>Trackpoint 4258</name>
            </trkpt>
            <trkpt lat="50.0565632" lon="9.6557352">
                <ele>165.0</ele>
                <time>2020-08-28T12:11:47.000Z</time>
                <name>Trackpoint 4259</name>
            </trkpt>
            <trkpt lat="50.0565504" lon="9.6555768">
                <ele>166.0</ele>
                <time>2020-08-28T12:11:49.000Z</time>
                <name>Trackpoint 4260</name>
            </trkpt>
            <trkpt lat="50.0565344" lon="9.6554144">
                <ele>166.0</ele>
                <time>2020-08-28T12:11:51.000Z</time>
                <name>Trackpoint 4261</name>
            </trkpt>
            <trkpt lat="50.0565248" lon="9.6553024">
                <ele>166.0</ele>
                <time>2020-08-28T12:11:52.000Z</time>
                <name>Trackpoint 4262</name>
            </trkpt>
            <trkpt lat="50.0565216" lon="9.6552088">
                <ele>166.0</ele>
                <time>2020-08-28T12:11:53.000Z</time>
                <name>Trackpoint 4263</name>
            </trkpt>
            <trkpt lat="50.0565152" lon="9.6551088">
                <ele>166.0</ele>
                <time>2020-08-28T12:11:54.000Z</time>
                <name>Trackpoint 4264</name>
            </trkpt>
            <trkpt lat="50.0565056" lon="9.6549968">
                <ele>166.0</ele>
                <time>2020-08-28T12:11:55.000Z</time>
                <name>Trackpoint 4265</name>
            </trkpt>
            <trkpt lat="50.0565024" lon="9.654892">
                <ele>167.0</ele>
                <time>2020-08-28T12:11:56.000Z</time>
                <name>Trackpoint 4266</name>
            </trkpt>
            <trkpt lat="50.056496" lon="9.6547768">
                <ele>167.0</ele>
                <time>2020-08-28T12:11:57.000Z</time>
                <name>Trackpoint 4267</name>
            </trkpt>
            <trkpt lat="50.0564928" lon="9.6546672">
                <ele>167.0</ele>
                <time>2020-08-28T12:11:58.000Z</time>
                <name>Trackpoint 4268</name>
            </trkpt>
            <trkpt lat="50.056496" lon="9.6545448">
                <ele>167.0</ele>
                <time>2020-08-28T12:11:59.000Z</time>
                <name>Trackpoint 4269</name>
            </trkpt>
            <trkpt lat="50.0564896" lon="9.65442">
                <ele>167.0</ele>
                <time>2020-08-28T12:12:00.000Z</time>
                <name>Trackpoint 4270</name>
            </trkpt>
            <trkpt lat="50.0564896" lon="9.6543">
                <ele>167.0</ele>
                <time>2020-08-28T12:12:01.000Z</time>
                <name>Trackpoint 4271</name>
            </trkpt>
            <trkpt lat="50.05648" lon="9.6541768">
                <ele>167.0</ele>
                <time>2020-08-28T12:12:02.000Z</time>
                <name>Trackpoint 4272</name>
            </trkpt>
            <trkpt lat="50.0564768" lon="9.6540544">
                <ele>167.0</ele>
                <time>2020-08-28T12:12:03.000Z</time>
                <name>Trackpoint 4273</name>
            </trkpt>
            <trkpt lat="50.056464" lon="9.653932">
                <ele>167.0</ele>
                <time>2020-08-28T12:12:04.000Z</time>
                <name>Trackpoint 4274</name>
            </trkpt>
            <trkpt lat="50.0564576" lon="9.6538064">
                <ele>167.0</ele>
                <time>2020-08-28T12:12:05.000Z</time>
                <name>Trackpoint 4275</name>
            </trkpt>
            <trkpt lat="50.0564512" lon="9.6536864">
                <ele>167.0</ele>
                <time>2020-08-28T12:12:06.000Z</time>
                <name>Trackpoint 4276</name>
            </trkpt>
            <trkpt lat="50.0564448" lon="9.653572">
                <ele>167.0</ele>
                <time>2020-08-28T12:12:07.000Z</time>
                <name>Trackpoint 4277</name>
            </trkpt>
            <trkpt lat="50.0564384" lon="9.6534584">
                <ele>167.0</ele>
                <time>2020-08-28T12:12:08.000Z</time>
                <name>Trackpoint 4278</name>
            </trkpt>
            <trkpt lat="50.056432" lon="9.65334">
                <ele>167.0</ele>
                <time>2020-08-28T12:12:09.000Z</time>
                <name>Trackpoint 4279</name>
            </trkpt>
            <trkpt lat="50.0564192" lon="9.6532272">
                <ele>167.0</ele>
                <time>2020-08-28T12:12:10.000Z</time>
                <name>Trackpoint 4280</name>
            </trkpt>
            <trkpt lat="50.0564032" lon="9.6531184">
                <ele>167.0</ele>
                <time>2020-08-28T12:12:11.000Z</time>
                <name>Trackpoint 4281</name>
            </trkpt>
            <trkpt lat="50.056384" lon="9.6530112">
                <ele>167.0</ele>
                <time>2020-08-28T12:12:12.000Z</time>
                <name>Trackpoint 4282</name>
            </trkpt>
            <trkpt lat="50.0563712" lon="9.6529056">
                <ele>167.0</ele>
                <time>2020-08-28T12:12:13.000Z</time>
                <name>Trackpoint 4283</name>
            </trkpt>
            <trkpt lat="50.056352" lon="9.6528">
                <ele>167.0</ele>
                <time>2020-08-28T12:12:14.000Z</time>
                <name>Trackpoint 4284</name>
            </trkpt>
            <trkpt lat="50.056336" lon="9.6526944">
                <ele>167.0</ele>
                <time>2020-08-28T12:12:15.000Z</time>
                <name>Trackpoint 4285</name>
            </trkpt>
            <trkpt lat="50.0563168" lon="9.652592">
                <ele>167.0</ele>
                <time>2020-08-28T12:12:16.000Z</time>
                <name>Trackpoint 4286</name>
            </trkpt>
            <trkpt lat="50.0562944" lon="9.6524896">
                <ele>167.0</ele>
                <time>2020-08-28T12:12:17.000Z</time>
                <name>Trackpoint 4287</name>
            </trkpt>
            <trkpt lat="50.0562656" lon="9.6523912">
                <ele>167.0</ele>
                <time>2020-08-28T12:12:18.000Z</time>
                <name>Trackpoint 4288</name>
            </trkpt>
            <trkpt lat="50.0562208" lon="9.6522312">
                <ele>167.0</ele>
                <time>2020-08-28T12:12:20.000Z</time>
                <name>Trackpoint 4289</name>
            </trkpt>
            <trkpt lat="50.056192" lon="9.6521256">
                <ele>167.0</ele>
                <time>2020-08-28T12:12:22.000Z</time>
                <name>Trackpoint 4290</name>
            </trkpt>
            <trkpt lat="50.0562272" lon="9.652228">
                <ele>167.0</ele>
                <time>2020-08-28T12:12:28.000Z</time>
                <name>Trackpoint 4291</name>
            </trkpt>
            <trkpt lat="50.0562656" lon="9.6523336">
                <ele>167.0</ele>
                <time>2020-08-28T12:12:31.000Z</time>
                <name>Trackpoint 4292</name>
            </trkpt>
            <trkpt lat="50.05632" lon="9.6524088">
                <ele>166.0</ele>
                <time>2020-08-28T12:12:44.000Z</time>
                <name>Trackpoint 4293</name>
            </trkpt>
            <trkpt lat="50.056272" lon="9.6523">
                <ele>166.0</ele>
                <time>2020-08-28T12:13:44.000Z</time>
                <name>Trackpoint 4294</name>
            </trkpt>
            <trkpt lat="50.0562272" lon="9.6521664">
                <ele>166.0</ele>
                <time>2020-08-28T12:13:47.000Z</time>
                <name>Trackpoint 4295</name>
            </trkpt>
            <trkpt lat="50.056192" lon="9.6520544">
                <ele>166.0</ele>
                <time>2020-08-28T12:13:49.000Z</time>
                <name>Trackpoint 4296</name>
            </trkpt>
            <trkpt lat="50.056144" lon="9.65194">
                <ele>166.0</ele>
                <time>2020-08-28T12:13:51.000Z</time>
                <name>Trackpoint 4297</name>
            </trkpt>
            <trkpt lat="50.0560992" lon="9.6518136">
                <ele>166.0</ele>
                <time>2020-08-28T12:13:53.000Z</time>
                <name>Trackpoint 4298</name>
            </trkpt>
            <trkpt lat="50.0560544" lon="9.6516936">
                <ele>166.0</ele>
                <time>2020-08-28T12:13:55.000Z</time>
                <name>Trackpoint 4299</name>
            </trkpt>
            <trkpt lat="50.0560064" lon="9.65158">
                <ele>166.0</ele>
                <time>2020-08-28T12:13:57.000Z</time>
                <name>Trackpoint 4300</name>
            </trkpt>
            <trkpt lat="50.0559616" lon="9.6514728">
                <ele>166.0</ele>
                <time>2020-08-28T12:13:59.000Z</time>
                <name>Trackpoint 4301</name>
            </trkpt>
            <trkpt lat="50.0559232" lon="9.6513832">
                <ele>166.0</ele>
                <time>2020-08-28T12:14:01.000Z</time>
                <name>Trackpoint 4302</name>
            </trkpt>
            <trkpt lat="50.05592" lon="9.651292">
                <ele>166.0</ele>
                <time>2020-08-28T12:14:22.000Z</time>
                <name>Trackpoint 4303</name>
            </trkpt>
            <trkpt lat="50.055888" lon="9.6511984">
                <ele>166.0</ele>
                <time>2020-08-28T12:14:26.000Z</time>
                <name>Trackpoint 4304</name>
            </trkpt>
            <trkpt lat="50.0558368" lon="9.6510736">
                <ele>166.0</ele>
                <time>2020-08-28T12:14:29.000Z</time>
                <name>Trackpoint 4305</name>
            </trkpt>
            <trkpt lat="50.0557888" lon="9.6509552">
                <ele>166.0</ele>
                <time>2020-08-28T12:14:31.000Z</time>
                <name>Trackpoint 4306</name>
            </trkpt>
            <trkpt lat="50.0557376" lon="9.6508368">
                <ele>165.0</ele>
                <time>2020-08-28T12:14:33.000Z</time>
                <name>Trackpoint 4307</name>
            </trkpt>
            <trkpt lat="50.05568" lon="9.6507032">
                <ele>165.0</ele>
                <time>2020-08-28T12:14:35.000Z</time>
                <name>Trackpoint 4308</name>
            </trkpt>
            <trkpt lat="50.0556096" lon="9.6505648">
                <ele>165.0</ele>
                <time>2020-08-28T12:14:37.000Z</time>
                <name>Trackpoint 4309</name>
            </trkpt>
            <trkpt lat="50.055552" lon="9.6504272">
                <ele>164.0</ele>
                <time>2020-08-28T12:14:39.000Z</time>
                <name>Trackpoint 4310</name>
            </trkpt>
            <trkpt lat="50.055488" lon="9.6502952">
                <ele>164.0</ele>
                <time>2020-08-28T12:14:41.000Z</time>
                <name>Trackpoint 4311</name>
            </trkpt>
            <trkpt lat="50.0554208" lon="9.6501616">
                <ele>163.0</ele>
                <time>2020-08-28T12:14:43.000Z</time>
                <name>Trackpoint 4312</name>
            </trkpt>
            <trkpt lat="50.0553408" lon="9.6500352">
                <ele>163.0</ele>
                <time>2020-08-28T12:14:45.000Z</time>
                <name>Trackpoint 4313</name>
            </trkpt>
            <trkpt lat="50.0552512" lon="9.6499304">
                <ele>163.0</ele>
                <time>2020-08-28T12:14:47.000Z</time>
                <name>Trackpoint 4314</name>
            </trkpt>
            <trkpt lat="50.0551616" lon="9.64982">
                <ele>163.0</ele>
                <time>2020-08-28T12:14:49.000Z</time>
                <name>Trackpoint 4315</name>
            </trkpt>
            <trkpt lat="50.0550656" lon="9.6497152">
                <ele>163.0</ele>
                <time>2020-08-28T12:14:51.000Z</time>
                <name>Trackpoint 4316</name>
            </trkpt>
            <trkpt lat="50.0549728" lon="9.6495984">
                <ele>162.0</ele>
                <time>2020-08-28T12:14:53.000Z</time>
                <name>Trackpoint 4317</name>
            </trkpt>
            <trkpt lat="50.0548896" lon="9.649464">
                <ele>162.0</ele>
                <time>2020-08-28T12:14:55.000Z</time>
                <name>Trackpoint 4318</name>
            </trkpt>
            <trkpt lat="50.0548096" lon="9.6493256">
                <ele>161.0</ele>
                <time>2020-08-28T12:14:57.000Z</time>
                <name>Trackpoint 4319</name>
            </trkpt>
            <trkpt lat="50.0547232" lon="9.6491816">
                <ele>161.0</ele>
                <time>2020-08-28T12:14:59.000Z</time>
                <name>Trackpoint 4320</name>
            </trkpt>
            <trkpt lat="50.0546336" lon="9.6490432">
                <ele>160.0</ele>
                <time>2020-08-28T12:15:01.000Z</time>
                <name>Trackpoint 4321</name>
            </trkpt>
            <trkpt lat="50.0545344" lon="9.648916">
                <ele>160.0</ele>
                <time>2020-08-28T12:15:03.000Z</time>
                <name>Trackpoint 4322</name>
            </trkpt>
            <trkpt lat="50.0544448" lon="9.6487952">
                <ele>160.0</ele>
                <time>2020-08-28T12:15:05.000Z</time>
                <name>Trackpoint 4323</name>
            </trkpt>
            <trkpt lat="50.0543456" lon="9.648668">
                <ele>159.0</ele>
                <time>2020-08-28T12:15:07.000Z</time>
                <name>Trackpoint 4324</name>
            </trkpt>
            <trkpt lat="50.0542464" lon="9.6485328">
                <ele>158.0</ele>
                <time>2020-08-28T12:15:09.000Z</time>
                <name>Trackpoint 4325</name>
            </trkpt>
            <trkpt lat="50.0541536" lon="9.6483944">
                <ele>158.0</ele>
                <time>2020-08-28T12:15:11.000Z</time>
                <name>Trackpoint 4326</name>
            </trkpt>
            <trkpt lat="50.0540576" lon="9.6482536">
                <ele>158.0</ele>
                <time>2020-08-28T12:15:13.000Z</time>
                <name>Trackpoint 4327</name>
            </trkpt>
            <trkpt lat="50.053968" lon="9.6481088">
                <ele>158.0</ele>
                <time>2020-08-28T12:15:15.000Z</time>
                <name>Trackpoint 4328</name>
            </trkpt>
            <trkpt lat="50.0538784" lon="9.6479584">
                <ele>158.0</ele>
                <time>2020-08-28T12:15:17.000Z</time>
                <name>Trackpoint 4329</name>
            </trkpt>
            <trkpt lat="50.0537824" lon="9.6478144">
                <ele>158.0</ele>
                <time>2020-08-28T12:15:19.000Z</time>
                <name>Trackpoint 4330</name>
            </trkpt>
            <trkpt lat="50.0536896" lon="9.6476944">
                <ele>157.0</ele>
                <time>2020-08-28T12:15:21.000Z</time>
                <name>Trackpoint 4331</name>
            </trkpt>
            <trkpt lat="50.0535744" lon="9.6476048">
                <ele>157.0</ele>
                <time>2020-08-28T12:15:23.000Z</time>
                <name>Trackpoint 4332</name>
            </trkpt>
            <trkpt lat="50.053456" lon="9.6475336">
                <ele>157.0</ele>
                <time>2020-08-28T12:15:25.000Z</time>
                <name>Trackpoint 4333</name>
            </trkpt>
            <trkpt lat="50.0533344" lon="9.6474704">
                <ele>157.0</ele>
                <time>2020-08-28T12:15:27.000Z</time>
                <name>Trackpoint 4334</name>
            </trkpt>
            <trkpt lat="50.053216" lon="9.6473976">
                <ele>157.0</ele>
                <time>2020-08-28T12:15:29.000Z</time>
                <name>Trackpoint 4335</name>
            </trkpt>
            <trkpt lat="50.0530976" lon="9.6473312">
                <ele>157.0</ele>
                <time>2020-08-28T12:15:31.000Z</time>
                <name>Trackpoint 4336</name>
            </trkpt>
            <trkpt lat="50.0529824" lon="9.6472832">
                <ele>157.0</ele>
                <time>2020-08-28T12:15:33.000Z</time>
                <name>Trackpoint 4337</name>
            </trkpt>
            <trkpt lat="50.0528608" lon="9.64724">
                <ele>156.0</ele>
                <time>2020-08-28T12:15:35.000Z</time>
                <name>Trackpoint 4338</name>
            </trkpt>
            <trkpt lat="50.0527392" lon="9.647192">
                <ele>157.0</ele>
                <time>2020-08-28T12:15:37.000Z</time>
                <name>Trackpoint 4339</name>
            </trkpt>
            <trkpt lat="50.052624" lon="9.647152">
                <ele>156.0</ele>
                <time>2020-08-28T12:15:39.000Z</time>
                <name>Trackpoint 4340</name>
            </trkpt>
            <trkpt lat="50.0525056" lon="9.6471168">
                <ele>157.0</ele>
                <time>2020-08-28T12:15:41.000Z</time>
                <name>Trackpoint 4341</name>
            </trkpt>
            <trkpt lat="50.0523936" lon="9.6470936">
                <ele>157.0</ele>
                <time>2020-08-28T12:15:43.000Z</time>
                <name>Trackpoint 4342</name>
            </trkpt>
            <trkpt lat="50.0522912" lon="9.6470896">
                <ele>158.0</ele>
                <time>2020-08-28T12:15:45.000Z</time>
                <name>Trackpoint 4343</name>
            </trkpt>
            <trkpt lat="50.0521856" lon="9.647112">
                <ele>158.0</ele>
                <time>2020-08-28T12:15:47.000Z</time>
                <name>Trackpoint 4344</name>
            </trkpt>
            <trkpt lat="50.0520768" lon="9.6471344">
                <ele>158.0</ele>
                <time>2020-08-28T12:15:49.000Z</time>
                <name>Trackpoint 4345</name>
            </trkpt>
            <trkpt lat="50.0519776" lon="9.6471752">
                <ele>158.0</ele>
                <time>2020-08-28T12:15:51.000Z</time>
                <name>Trackpoint 4346</name>
            </trkpt>
            <trkpt lat="50.0518752" lon="9.6472104">
                <ele>158.0</ele>
                <time>2020-08-28T12:15:53.000Z</time>
                <name>Trackpoint 4347</name>
            </trkpt>
            <trkpt lat="50.0517696" lon="9.6472504">
                <ele>158.0</ele>
                <time>2020-08-28T12:15:55.000Z</time>
                <name>Trackpoint 4348</name>
            </trkpt>
            <trkpt lat="50.0516672" lon="9.6472968">
                <ele>158.0</ele>
                <time>2020-08-28T12:15:57.000Z</time>
                <name>Trackpoint 4349</name>
            </trkpt>
            <trkpt lat="50.0515648" lon="9.6473312">
                <ele>158.0</ele>
                <time>2020-08-28T12:15:59.000Z</time>
                <name>Trackpoint 4350</name>
            </trkpt>
            <trkpt lat="50.051456" lon="9.6473664">
                <ele>158.0</ele>
                <time>2020-08-28T12:16:01.000Z</time>
                <name>Trackpoint 4351</name>
            </trkpt>
            <trkpt lat="50.0513568" lon="9.6473976">
                <ele>158.0</ele>
                <time>2020-08-28T12:16:03.000Z</time>
                <name>Trackpoint 4352</name>
            </trkpt>
            <trkpt lat="50.0512544" lon="9.64742">
                <ele>158.0</ele>
                <time>2020-08-28T12:16:05.000Z</time>
                <name>Trackpoint 4353</name>
            </trkpt>
            <trkpt lat="50.0511552" lon="9.6474504">
                <ele>158.0</ele>
                <time>2020-08-28T12:16:07.000Z</time>
                <name>Trackpoint 4354</name>
            </trkpt>
            <trkpt lat="50.0510592" lon="9.64748">
                <ele>158.0</ele>
                <time>2020-08-28T12:16:09.000Z</time>
                <name>Trackpoint 4355</name>
            </trkpt>
            <trkpt lat="50.0509568" lon="9.6475096">
                <ele>158.0</ele>
                <time>2020-08-28T12:16:11.000Z</time>
                <name>Trackpoint 4356</name>
            </trkpt>
            <trkpt lat="50.0508512" lon="9.64754">
                <ele>158.0</ele>
                <time>2020-08-28T12:16:13.000Z</time>
                <name>Trackpoint 4357</name>
            </trkpt>
            <trkpt lat="50.0507456" lon="9.647576">
                <ele>158.0</ele>
                <time>2020-08-28T12:16:15.000Z</time>
                <name>Trackpoint 4358</name>
            </trkpt>
            <trkpt lat="50.0506432" lon="9.6476088">
                <ele>158.0</ele>
                <time>2020-08-28T12:16:17.000Z</time>
                <name>Trackpoint 4359</name>
            </trkpt>
            <trkpt lat="50.0505408" lon="9.6476424">
                <ele>158.0</ele>
                <time>2020-08-28T12:16:19.000Z</time>
                <name>Trackpoint 4360</name>
            </trkpt>
            <trkpt lat="50.0504352" lon="9.6476784">
                <ele>157.0</ele>
                <time>2020-08-28T12:16:21.000Z</time>
                <name>Trackpoint 4361</name>
            </trkpt>
            <trkpt lat="50.0503232" lon="9.6477144">
                <ele>158.0</ele>
                <time>2020-08-28T12:16:23.000Z</time>
                <name>Trackpoint 4362</name>
            </trkpt>
            <trkpt lat="50.0502176" lon="9.6477672">
                <ele>157.0</ele>
                <time>2020-08-28T12:16:25.000Z</time>
                <name>Trackpoint 4363</name>
            </trkpt>
            <trkpt lat="50.0501152" lon="9.6478232">
                <ele>157.0</ele>
                <time>2020-08-28T12:16:27.000Z</time>
                <name>Trackpoint 4364</name>
            </trkpt>
            <trkpt lat="50.0500064" lon="9.6478768">
                <ele>157.0</ele>
                <time>2020-08-28T12:16:29.000Z</time>
                <name>Trackpoint 4365</name>
            </trkpt>
            <trkpt lat="50.0499008" lon="9.6479368">
                <ele>157.0</ele>
                <time>2020-08-28T12:16:31.000Z</time>
                <name>Trackpoint 4366</name>
            </trkpt>
            <trkpt lat="50.049792" lon="9.6479968">
                <ele>156.0</ele>
                <time>2020-08-28T12:16:33.000Z</time>
                <name>Trackpoint 4367</name>
            </trkpt>
            <trkpt lat="50.0496864" lon="9.6480552">
                <ele>156.0</ele>
                <time>2020-08-28T12:16:35.000Z</time>
                <name>Trackpoint 4368</name>
            </trkpt>
            <trkpt lat="50.049584" lon="9.6481168">
                <ele>157.0</ele>
                <time>2020-08-28T12:16:37.000Z</time>
                <name>Trackpoint 4369</name>
            </trkpt>
            <trkpt lat="50.0494848" lon="9.6481816">
                <ele>157.0</ele>
                <time>2020-08-28T12:16:39.000Z</time>
                <name>Trackpoint 4370</name>
            </trkpt>
            <trkpt lat="50.0493824" lon="9.6482488">
                <ele>157.0</ele>
                <time>2020-08-28T12:16:41.000Z</time>
                <name>Trackpoint 4371</name>
            </trkpt>
            <trkpt lat="50.0492768" lon="9.6483184">
                <ele>157.0</ele>
                <time>2020-08-28T12:16:43.000Z</time>
                <name>Trackpoint 4372</name>
            </trkpt>
            <trkpt lat="50.0491712" lon="9.6483896">
                <ele>157.0</ele>
                <time>2020-08-28T12:16:45.000Z</time>
                <name>Trackpoint 4373</name>
            </trkpt>
            <trkpt lat="50.0490656" lon="9.6484632">
                <ele>157.0</ele>
                <time>2020-08-28T12:16:47.000Z</time>
                <name>Trackpoint 4374</name>
            </trkpt>
            <trkpt lat="50.0489568" lon="9.6485368">
                <ele>157.0</ele>
                <time>2020-08-28T12:16:49.000Z</time>
                <name>Trackpoint 4375</name>
            </trkpt>
            <trkpt lat="50.0488512" lon="9.6486104">
                <ele>157.0</ele>
                <time>2020-08-28T12:16:51.000Z</time>
                <name>Trackpoint 4376</name>
            </trkpt>
            <trkpt lat="50.0487456" lon="9.6486864">
                <ele>157.0</ele>
                <time>2020-08-28T12:16:53.000Z</time>
                <name>Trackpoint 4377</name>
            </trkpt>
            <trkpt lat="50.0486368" lon="9.6487616">
                <ele>157.0</ele>
                <time>2020-08-28T12:16:55.000Z</time>
                <name>Trackpoint 4378</name>
            </trkpt>
            <trkpt lat="50.048528" lon="9.6488304">
                <ele>156.0</ele>
                <time>2020-08-28T12:16:57.000Z</time>
                <name>Trackpoint 4379</name>
            </trkpt>
            <trkpt lat="50.0484192" lon="9.6489032">
                <ele>157.0</ele>
                <time>2020-08-28T12:16:59.000Z</time>
                <name>Trackpoint 4380</name>
            </trkpt>
            <trkpt lat="50.0483136" lon="9.6489752">
                <ele>157.0</ele>
                <time>2020-08-28T12:17:01.000Z</time>
                <name>Trackpoint 4381</name>
            </trkpt>
            <trkpt lat="50.0482112" lon="9.6490488">
                <ele>157.0</ele>
                <time>2020-08-28T12:17:03.000Z</time>
                <name>Trackpoint 4382</name>
            </trkpt>
            <trkpt lat="50.0481024" lon="9.649112">
                <ele>157.0</ele>
                <time>2020-08-28T12:17:05.000Z</time>
                <name>Trackpoint 4383</name>
            </trkpt>
            <trkpt lat="50.048" lon="9.6491816">
                <ele>157.0</ele>
                <time>2020-08-28T12:17:07.000Z</time>
                <name>Trackpoint 4384</name>
            </trkpt>
            <trkpt lat="50.0478944" lon="9.6492544">
                <ele>157.0</ele>
                <time>2020-08-28T12:17:09.000Z</time>
                <name>Trackpoint 4385</name>
            </trkpt>
            <trkpt lat="50.0477856" lon="9.6493256">
                <ele>157.0</ele>
                <time>2020-08-28T12:17:11.000Z</time>
                <name>Trackpoint 4386</name>
            </trkpt>
            <trkpt lat="50.04768" lon="9.6493952">
                <ele>157.0</ele>
                <time>2020-08-28T12:17:13.000Z</time>
                <name>Trackpoint 4387</name>
            </trkpt>
            <trkpt lat="50.0475744" lon="9.6494688">
                <ele>157.0</ele>
                <time>2020-08-28T12:17:15.000Z</time>
                <name>Trackpoint 4388</name>
            </trkpt>
            <trkpt lat="50.0474656" lon="9.6495384">
                <ele>157.0</ele>
                <time>2020-08-28T12:17:17.000Z</time>
                <name>Trackpoint 4389</name>
            </trkpt>
            <trkpt lat="50.04736" lon="9.6496088">
                <ele>157.0</ele>
                <time>2020-08-28T12:17:19.000Z</time>
                <name>Trackpoint 4390</name>
            </trkpt>
            <trkpt lat="50.0472576" lon="9.6496696">
                <ele>157.0</ele>
                <time>2020-08-28T12:17:21.000Z</time>
                <name>Trackpoint 4391</name>
            </trkpt>
            <trkpt lat="50.047152" lon="9.6497296">
                <ele>157.0</ele>
                <time>2020-08-28T12:17:23.000Z</time>
                <name>Trackpoint 4392</name>
            </trkpt>
            <trkpt lat="50.0470464" lon="9.649788">
                <ele>157.0</ele>
                <time>2020-08-28T12:17:25.000Z</time>
                <name>Trackpoint 4393</name>
            </trkpt>
            <trkpt lat="50.0469408" lon="9.6498496">
                <ele>157.0</ele>
                <time>2020-08-28T12:17:27.000Z</time>
                <name>Trackpoint 4394</name>
            </trkpt>
            <trkpt lat="50.046832" lon="9.6499144">
                <ele>157.0</ele>
                <time>2020-08-28T12:17:29.000Z</time>
                <name>Trackpoint 4395</name>
            </trkpt>
            <trkpt lat="50.0467296" lon="9.6499816">
                <ele>157.0</ele>
                <time>2020-08-28T12:17:31.000Z</time>
                <name>Trackpoint 4396</name>
            </trkpt>
            <trkpt lat="50.046624" lon="9.6500432">
                <ele>157.0</ele>
                <time>2020-08-28T12:17:33.000Z</time>
                <name>Trackpoint 4397</name>
            </trkpt>
            <trkpt lat="50.0465152" lon="9.650108">
                <ele>157.0</ele>
                <time>2020-08-28T12:17:35.000Z</time>
                <name>Trackpoint 4398</name>
            </trkpt>
            <trkpt lat="50.0464096" lon="9.6501728">
                <ele>157.0</ele>
                <time>2020-08-28T12:17:37.000Z</time>
                <name>Trackpoint 4399</name>
            </trkpt>
            <trkpt lat="50.046304" lon="9.6502416">
                <ele>157.0</ele>
                <time>2020-08-28T12:17:39.000Z</time>
                <name>Trackpoint 4400</name>
            </trkpt>
            <trkpt lat="50.0461984" lon="9.6503096">
                <ele>156.0</ele>
                <time>2020-08-28T12:17:41.000Z</time>
                <name>Trackpoint 4401</name>
            </trkpt>
            <trkpt lat="50.0460896" lon="9.6503736">
                <ele>156.0</ele>
                <time>2020-08-28T12:17:43.000Z</time>
                <name>Trackpoint 4402</name>
            </trkpt>
            <trkpt lat="50.0459808" lon="9.6504384">
                <ele>156.0</ele>
                <time>2020-08-28T12:17:45.000Z</time>
                <name>Trackpoint 4403</name>
            </trkpt>
            <trkpt lat="50.0458784" lon="9.6505072">
                <ele>156.0</ele>
                <time>2020-08-28T12:17:47.000Z</time>
                <name>Trackpoint 4404</name>
            </trkpt>
            <trkpt lat="50.0457728" lon="9.6505696">
                <ele>156.0</ele>
                <time>2020-08-28T12:17:49.000Z</time>
                <name>Trackpoint 4405</name>
            </trkpt>
            <trkpt lat="50.0456576" lon="9.6506144">
                <ele>156.0</ele>
                <time>2020-08-28T12:17:51.000Z</time>
                <name>Trackpoint 4406</name>
            </trkpt>
            <trkpt lat="50.0455488" lon="9.6506656">
                <ele>156.0</ele>
                <time>2020-08-28T12:17:53.000Z</time>
                <name>Trackpoint 4407</name>
            </trkpt>
            <trkpt lat="50.0454368" lon="9.6507264">
                <ele>156.0</ele>
                <time>2020-08-28T12:17:55.000Z</time>
                <name>Trackpoint 4408</name>
            </trkpt>
            <trkpt lat="50.0453248" lon="9.650792">
                <ele>155.0</ele>
                <time>2020-08-28T12:17:57.000Z</time>
                <name>Trackpoint 4409</name>
            </trkpt>
            <trkpt lat="50.045216" lon="9.6508568">
                <ele>155.0</ele>
                <time>2020-08-28T12:17:59.000Z</time>
                <name>Trackpoint 4410</name>
            </trkpt>
            <trkpt lat="50.0451072" lon="9.65092">
                <ele>156.0</ele>
                <time>2020-08-28T12:18:01.000Z</time>
                <name>Trackpoint 4411</name>
            </trkpt>
            <trkpt lat="50.0450112" lon="9.6509832">
                <ele>156.0</ele>
                <time>2020-08-28T12:18:03.000Z</time>
                <name>Trackpoint 4412</name>
            </trkpt>
            <trkpt lat="50.0449024" lon="9.6510336">
                <ele>155.0</ele>
                <time>2020-08-28T12:18:05.000Z</time>
                <name>Trackpoint 4413</name>
            </trkpt>
            <trkpt lat="50.0447968" lon="9.6510872">
                <ele>155.0</ele>
                <time>2020-08-28T12:18:07.000Z</time>
                <name>Trackpoint 4414</name>
            </trkpt>
            <trkpt lat="50.044688" lon="9.6511472">
                <ele>155.0</ele>
                <time>2020-08-28T12:18:09.000Z</time>
                <name>Trackpoint 4415</name>
            </trkpt>
            <trkpt lat="50.0445824" lon="9.6512072">
                <ele>155.0</ele>
                <time>2020-08-28T12:18:11.000Z</time>
                <name>Trackpoint 4416</name>
            </trkpt>
            <trkpt lat="50.04448" lon="9.6512672">
                <ele>155.0</ele>
                <time>2020-08-28T12:18:13.000Z</time>
                <name>Trackpoint 4417</name>
            </trkpt>
            <trkpt lat="50.0443712" lon="9.651328">
                <ele>155.0</ele>
                <time>2020-08-28T12:18:15.000Z</time>
                <name>Trackpoint 4418</name>
            </trkpt>
            <trkpt lat="50.0442688" lon="9.6513904">
                <ele>155.0</ele>
                <time>2020-08-28T12:18:17.000Z</time>
                <name>Trackpoint 4419</name>
            </trkpt>
            <trkpt lat="50.0441664" lon="9.6514464">
                <ele>155.0</ele>
                <time>2020-08-28T12:18:19.000Z</time>
                <name>Trackpoint 4420</name>
            </trkpt>
            <trkpt lat="50.044064" lon="9.6515032">
                <ele>155.0</ele>
                <time>2020-08-28T12:18:21.000Z</time>
                <name>Trackpoint 4421</name>
            </trkpt>
            <trkpt lat="50.043952" lon="9.6515648">
                <ele>154.0</ele>
                <time>2020-08-28T12:18:23.000Z</time>
                <name>Trackpoint 4422</name>
            </trkpt>
            <trkpt lat="50.0438464" lon="9.6516248">
                <ele>154.0</ele>
                <time>2020-08-28T12:18:25.000Z</time>
                <name>Trackpoint 4423</name>
            </trkpt>
            <trkpt lat="50.0437344" lon="9.6516784">
                <ele>154.0</ele>
                <time>2020-08-28T12:18:27.000Z</time>
                <name>Trackpoint 4424</name>
            </trkpt>
            <trkpt lat="50.0436256" lon="9.65174">
                <ele>154.0</ele>
                <time>2020-08-28T12:18:29.000Z</time>
                <name>Trackpoint 4425</name>
            </trkpt>
            <trkpt lat="50.0435168" lon="9.6517952">
                <ele>154.0</ele>
                <time>2020-08-28T12:18:31.000Z</time>
                <name>Trackpoint 4426</name>
            </trkpt>
            <trkpt lat="50.043408" lon="9.6518488">
                <ele>154.0</ele>
                <time>2020-08-28T12:18:33.000Z</time>
                <name>Trackpoint 4427</name>
            </trkpt>
            <trkpt lat="50.0432992" lon="9.6519072">
                <ele>154.0</ele>
                <time>2020-08-28T12:18:35.000Z</time>
                <name>Trackpoint 4428</name>
            </trkpt>
            <trkpt lat="50.0431936" lon="9.6519616">
                <ele>154.0</ele>
                <time>2020-08-28T12:18:37.000Z</time>
                <name>Trackpoint 4429</name>
            </trkpt>
            <trkpt lat="50.0430816" lon="9.6520216">
                <ele>154.0</ele>
                <time>2020-08-28T12:18:39.000Z</time>
                <name>Trackpoint 4430</name>
            </trkpt>
            <trkpt lat="50.042976" lon="9.6520904">
                <ele>153.0</ele>
                <time>2020-08-28T12:18:41.000Z</time>
                <name>Trackpoint 4431</name>
            </trkpt>
            <trkpt lat="50.0428672" lon="9.6521584">
                <ele>153.0</ele>
                <time>2020-08-28T12:18:43.000Z</time>
                <name>Trackpoint 4432</name>
            </trkpt>
            <trkpt lat="50.0427616" lon="9.6522264">
                <ele>153.0</ele>
                <time>2020-08-28T12:18:45.000Z</time>
                <name>Trackpoint 4433</name>
            </trkpt>
            <trkpt lat="50.0426688" lon="9.6522968">
                <ele>153.0</ele>
                <time>2020-08-28T12:18:47.000Z</time>
                <name>Trackpoint 4434</name>
            </trkpt>
            <trkpt lat="50.0425824" lon="9.6523688">
                <ele>153.0</ele>
                <time>2020-08-28T12:18:49.000Z</time>
                <name>Trackpoint 4435</name>
            </trkpt>
            <trkpt lat="50.04248" lon="9.6524488">
                <ele>153.0</ele>
                <time>2020-08-28T12:18:51.000Z</time>
                <name>Trackpoint 4436</name>
            </trkpt>
            <trkpt lat="50.042384" lon="9.6525248">
                <ele>153.0</ele>
                <time>2020-08-28T12:18:53.000Z</time>
                <name>Trackpoint 4437</name>
            </trkpt>
            <trkpt lat="50.0422816" lon="9.6526">
                <ele>153.0</ele>
                <time>2020-08-28T12:18:55.000Z</time>
                <name>Trackpoint 4438</name>
            </trkpt>
            <trkpt lat="50.0421824" lon="9.6526744">
                <ele>153.0</ele>
                <time>2020-08-28T12:18:57.000Z</time>
                <name>Trackpoint 4439</name>
            </trkpt>
            <trkpt lat="50.0420832" lon="9.6527616">
                <ele>154.0</ele>
                <time>2020-08-28T12:18:59.000Z</time>
                <name>Trackpoint 4440</name>
            </trkpt>
            <trkpt lat="50.0419808" lon="9.6528568">
                <ele>153.0</ele>
                <time>2020-08-28T12:19:01.000Z</time>
                <name>Trackpoint 4441</name>
            </trkpt>
            <trkpt lat="50.0418816" lon="9.6529368">
                <ele>153.0</ele>
                <time>2020-08-28T12:19:03.000Z</time>
                <name>Trackpoint 4442</name>
            </trkpt>
            <trkpt lat="50.0418176" lon="9.6530504">
                <ele>153.0</ele>
                <time>2020-08-28T12:19:05.000Z</time>
                <name>Trackpoint 4443</name>
            </trkpt>
            <trkpt lat="50.0418048" lon="9.6531896">
                <ele>153.0</ele>
                <time>2020-08-28T12:19:07.000Z</time>
                <name>Trackpoint 4444</name>
            </trkpt>
            <trkpt lat="50.0418208" lon="9.6533232">
                <ele>153.0</ele>
                <time>2020-08-28T12:19:09.000Z</time>
                <name>Trackpoint 4445</name>
            </trkpt>
            <trkpt lat="50.0417888" lon="9.653428">
                <ele>153.0</ele>
                <time>2020-08-28T12:19:11.000Z</time>
                <name>Trackpoint 4446</name>
            </trkpt>
            <trkpt lat="50.0417184" lon="9.6534968">
                <ele>153.0</ele>
                <time>2020-08-28T12:19:13.000Z</time>
                <name>Trackpoint 4447</name>
            </trkpt>
            <trkpt lat="50.041616" lon="9.6535616">
                <ele>153.0</ele>
                <time>2020-08-28T12:19:16.000Z</time>
                <name>Trackpoint 4448</name>
            </trkpt>
            <trkpt lat="50.0415168" lon="9.6536216">
                <ele>153.0</ele>
                <time>2020-08-28T12:19:19.000Z</time>
                <name>Trackpoint 4449</name>
            </trkpt>
            <trkpt lat="50.0414272" lon="9.6536616">
                <ele>154.0</ele>
                <time>2020-08-28T12:19:22.000Z</time>
                <name>Trackpoint 4450</name>
            </trkpt>
            <trkpt lat="50.0413408" lon="9.6537152">
                <ele>154.0</ele>
                <time>2020-08-28T12:19:25.000Z</time>
                <name>Trackpoint 4451</name>
            </trkpt>
            <trkpt lat="50.0412384" lon="9.6537648">
                <ele>156.0</ele>
                <time>2020-08-28T12:19:28.000Z</time>
                <name>Trackpoint 4452</name>
            </trkpt>
            <trkpt lat="50.0411296" lon="9.6538336">
                <ele>155.0</ele>
                <time>2020-08-28T12:19:31.000Z</time>
                <name>Trackpoint 4453</name>
            </trkpt>
            <trkpt lat="50.0410464" lon="9.6538864">
                <ele>155.0</ele>
                <time>2020-08-28T12:19:33.000Z</time>
                <name>Trackpoint 4454</name>
            </trkpt>
            <trkpt lat="50.0409536" lon="9.6539448">
                <ele>156.0</ele>
                <time>2020-08-28T12:19:35.000Z</time>
                <name>Trackpoint 4455</name>
            </trkpt>
            <trkpt lat="50.0408672" lon="9.654">
                <ele>156.0</ele>
                <time>2020-08-28T12:19:37.000Z</time>
                <name>Trackpoint 4456</name>
            </trkpt>
            <trkpt lat="50.0407776" lon="9.65406">
                <ele>156.0</ele>
                <time>2020-08-28T12:19:39.000Z</time>
                <name>Trackpoint 4457</name>
            </trkpt>
            <trkpt lat="50.0406912" lon="9.6541232">
                <ele>157.0</ele>
                <time>2020-08-28T12:19:41.000Z</time>
                <name>Trackpoint 4458</name>
            </trkpt>
            <trkpt lat="50.0405856" lon="9.6541864">
                <ele>156.0</ele>
                <time>2020-08-28T12:19:44.000Z</time>
                <name>Trackpoint 4459</name>
            </trkpt>
            <trkpt lat="50.0404928" lon="9.6542216">
                <ele>156.0</ele>
                <time>2020-08-28T12:19:46.000Z</time>
                <name>Trackpoint 4460</name>
            </trkpt>
            <trkpt lat="50.0403968" lon="9.6542656">
                <ele>157.0</ele>
                <time>2020-08-28T12:19:48.000Z</time>
                <name>Trackpoint 4461</name>
            </trkpt>
            <trkpt lat="50.0402944" lon="9.6543064">
                <ele>157.0</ele>
                <time>2020-08-28T12:19:50.000Z</time>
                <name>Trackpoint 4462</name>
            </trkpt>
            <trkpt lat="50.040192" lon="9.6543464">
                <ele>157.0</ele>
                <time>2020-08-28T12:19:52.000Z</time>
                <name>Trackpoint 4463</name>
            </trkpt>
            <trkpt lat="50.0400928" lon="9.6543952">
                <ele>157.0</ele>
                <time>2020-08-28T12:19:54.000Z</time>
                <name>Trackpoint 4464</name>
            </trkpt>
            <trkpt lat="50.0399936" lon="9.6544504">
                <ele>157.0</ele>
                <time>2020-08-28T12:19:56.000Z</time>
                <name>Trackpoint 4465</name>
            </trkpt>
            <trkpt lat="50.0399008" lon="9.6544936">
                <ele>157.0</ele>
                <time>2020-08-28T12:19:58.000Z</time>
                <name>Trackpoint 4466</name>
            </trkpt>
            <trkpt lat="50.0398144" lon="9.6545448">
                <ele>157.0</ele>
                <time>2020-08-28T12:20:00.000Z</time>
                <name>Trackpoint 4467</name>
            </trkpt>
            <trkpt lat="50.0397152" lon="9.6545864">
                <ele>157.0</ele>
                <time>2020-08-28T12:20:02.000Z</time>
                <name>Trackpoint 4468</name>
            </trkpt>
            <trkpt lat="50.039616" lon="9.654632">
                <ele>157.0</ele>
                <time>2020-08-28T12:20:04.000Z</time>
                <name>Trackpoint 4469</name>
            </trkpt>
            <trkpt lat="50.0395168" lon="9.6546672">
                <ele>158.0</ele>
                <time>2020-08-28T12:20:06.000Z</time>
                <name>Trackpoint 4470</name>
            </trkpt>
            <trkpt lat="50.0394208" lon="9.654712">
                <ele>158.0</ele>
                <time>2020-08-28T12:20:08.000Z</time>
                <name>Trackpoint 4471</name>
            </trkpt>
            <trkpt lat="50.0393248" lon="9.6547544">
                <ele>158.0</ele>
                <time>2020-08-28T12:20:10.000Z</time>
                <name>Trackpoint 4472</name>
            </trkpt>
            <trkpt lat="50.0392256" lon="9.6547936">
                <ele>158.0</ele>
                <time>2020-08-28T12:20:12.000Z</time>
                <name>Trackpoint 4473</name>
            </trkpt>
            <trkpt lat="50.0391264" lon="9.6548272">
                <ele>158.0</ele>
                <time>2020-08-28T12:20:14.000Z</time>
                <name>Trackpoint 4474</name>
            </trkpt>
            <trkpt lat="50.0390304" lon="9.6548616">
                <ele>157.0</ele>
                <time>2020-08-28T12:20:16.000Z</time>
                <name>Trackpoint 4475</name>
            </trkpt>
            <trkpt lat="50.0389344" lon="9.654888">
                <ele>157.0</ele>
                <time>2020-08-28T12:20:18.000Z</time>
                <name>Trackpoint 4476</name>
            </trkpt>
            <trkpt lat="50.0388384" lon="9.65492">
                <ele>156.0</ele>
                <time>2020-08-28T12:20:20.000Z</time>
                <name>Trackpoint 4477</name>
            </trkpt>
            <trkpt lat="50.0387392" lon="9.6549528">
                <ele>156.0</ele>
                <time>2020-08-28T12:20:22.000Z</time>
                <name>Trackpoint 4478</name>
            </trkpt>
            <trkpt lat="50.0386464" lon="9.6549864">
                <ele>156.0</ele>
                <time>2020-08-28T12:20:24.000Z</time>
                <name>Trackpoint 4479</name>
            </trkpt>
            <trkpt lat="50.0385408" lon="9.6550128">
                <ele>155.0</ele>
                <time>2020-08-28T12:20:26.000Z</time>
                <name>Trackpoint 4480</name>
            </trkpt>
            <trkpt lat="50.038448" lon="9.65504">
                <ele>156.0</ele>
                <time>2020-08-28T12:20:28.000Z</time>
                <name>Trackpoint 4481</name>
            </trkpt>
            <trkpt lat="50.0383232" lon="9.6550816">
                <ele>156.0</ele>
                <time>2020-08-28T12:20:31.000Z</time>
                <name>Trackpoint 4482</name>
            </trkpt>
            <trkpt lat="50.038224" lon="9.6551016">
                <ele>156.0</ele>
                <time>2020-08-28T12:20:33.000Z</time>
                <name>Trackpoint 4483</name>
            </trkpt>
            <trkpt lat="50.0381312" lon="9.6551264">
                <ele>156.0</ele>
                <time>2020-08-28T12:20:35.000Z</time>
                <name>Trackpoint 4484</name>
            </trkpt>
            <trkpt lat="50.0380288" lon="9.6551552">
                <ele>156.0</ele>
                <time>2020-08-28T12:20:37.000Z</time>
                <name>Trackpoint 4485</name>
            </trkpt>
            <trkpt lat="50.0379328" lon="9.6551768">
                <ele>156.0</ele>
                <time>2020-08-28T12:20:39.000Z</time>
                <name>Trackpoint 4486</name>
            </trkpt>
            <trkpt lat="50.0378336" lon="9.6551912">
                <ele>156.0</ele>
                <time>2020-08-28T12:20:41.000Z</time>
                <name>Trackpoint 4487</name>
            </trkpt>
            <trkpt lat="50.0377344" lon="9.6552136">
                <ele>155.0</ele>
                <time>2020-08-28T12:20:43.000Z</time>
                <name>Trackpoint 4488</name>
            </trkpt>
            <trkpt lat="50.0376288" lon="9.6552216">
                <ele>156.0</ele>
                <time>2020-08-28T12:20:45.000Z</time>
                <name>Trackpoint 4489</name>
            </trkpt>
            <trkpt lat="50.037536" lon="9.6552448">
                <ele>156.0</ele>
                <time>2020-08-28T12:20:47.000Z</time>
                <name>Trackpoint 4490</name>
            </trkpt>
            <trkpt lat="50.0374464" lon="9.6552584">
                <ele>156.0</ele>
                <time>2020-08-28T12:20:49.000Z</time>
                <name>Trackpoint 4491</name>
            </trkpt>
            <trkpt lat="50.0373504" lon="9.6552752">
                <ele>156.0</ele>
                <time>2020-08-28T12:20:51.000Z</time>
                <name>Trackpoint 4492</name>
            </trkpt>
            <trkpt lat="50.0372544" lon="9.6552912">
                <ele>156.0</ele>
                <time>2020-08-28T12:20:53.000Z</time>
                <name>Trackpoint 4493</name>
            </trkpt>
            <trkpt lat="50.0371584" lon="9.6553088">
                <ele>156.0</ele>
                <time>2020-08-28T12:20:55.000Z</time>
                <name>Trackpoint 4494</name>
            </trkpt>
            <trkpt lat="50.0370592" lon="9.6553288">
                <ele>155.0</ele>
                <time>2020-08-28T12:20:57.000Z</time>
                <name>Trackpoint 4495</name>
            </trkpt>
            <trkpt lat="50.0369696" lon="9.6553536">
                <ele>156.0</ele>
                <time>2020-08-28T12:20:59.000Z</time>
                <name>Trackpoint 4496</name>
            </trkpt>
            <trkpt lat="50.03688" lon="9.6553784">
                <ele>156.0</ele>
                <time>2020-08-28T12:21:01.000Z</time>
                <name>Trackpoint 4497</name>
            </trkpt>
            <trkpt lat="50.0367456" lon="9.6553968">
                <ele>156.0</ele>
                <time>2020-08-28T12:21:04.000Z</time>
                <name>Trackpoint 4498</name>
            </trkpt>
            <trkpt lat="50.036656" lon="9.6554184">
                <ele>156.0</ele>
                <time>2020-08-28T12:21:06.000Z</time>
                <name>Trackpoint 4499</name>
            </trkpt>
            <trkpt lat="50.0365568" lon="9.65544">
                <ele>155.0</ele>
                <time>2020-08-28T12:21:08.000Z</time>
                <name>Trackpoint 4500</name>
            </trkpt>
            <trkpt lat="50.0364288" lon="9.6554896">
                <ele>155.0</ele>
                <time>2020-08-28T12:21:11.000Z</time>
                <name>Trackpoint 4501</name>
            </trkpt>
            <trkpt lat="50.0363392" lon="9.6555008">
                <ele>155.0</ele>
                <time>2020-08-28T12:21:13.000Z</time>
                <name>Trackpoint 4502</name>
            </trkpt>
            <trkpt lat="50.0362272" lon="9.6554896">
                <ele>156.0</ele>
                <time>2020-08-28T12:21:15.000Z</time>
                <name>Trackpoint 4503</name>
            </trkpt>
            <trkpt lat="50.0361248" lon="9.6555032">
                <ele>156.0</ele>
                <time>2020-08-28T12:21:17.000Z</time>
                <name>Trackpoint 4504</name>
            </trkpt>
            <trkpt lat="50.0360256" lon="9.655528">
                <ele>156.0</ele>
                <time>2020-08-28T12:21:19.000Z</time>
                <name>Trackpoint 4505</name>
            </trkpt>
            <trkpt lat="50.035936" lon="9.655548">
                <ele>156.0</ele>
                <time>2020-08-28T12:21:21.000Z</time>
                <name>Trackpoint 4506</name>
            </trkpt>
            <trkpt lat="50.0358496" lon="9.6555784">
                <ele>156.0</ele>
                <time>2020-08-28T12:21:23.000Z</time>
                <name>Trackpoint 4507</name>
            </trkpt>
            <trkpt lat="50.0357088" lon="9.6555768">
                <ele>156.0</ele>
                <time>2020-08-28T12:21:26.000Z</time>
                <name>Trackpoint 4508</name>
            </trkpt>
            <trkpt lat="50.0355712" lon="9.6555904">
                <ele>156.0</ele>
                <time>2020-08-28T12:21:29.000Z</time>
                <name>Trackpoint 4509</name>
            </trkpt>
            <trkpt lat="50.035472" lon="9.6555992">
                <ele>156.0</ele>
                <time>2020-08-28T12:21:31.000Z</time>
                <name>Trackpoint 4510</name>
            </trkpt>
            <trkpt lat="50.0353696" lon="9.6556056">
                <ele>156.0</ele>
                <time>2020-08-28T12:21:33.000Z</time>
                <name>Trackpoint 4511</name>
            </trkpt>
            <trkpt lat="50.0352672" lon="9.6556152">
                <ele>156.0</ele>
                <time>2020-08-28T12:21:35.000Z</time>
                <name>Trackpoint 4512</name>
            </trkpt>
            <trkpt lat="50.0351616" lon="9.6556128">
                <ele>156.0</ele>
                <time>2020-08-28T12:21:37.000Z</time>
                <name>Trackpoint 4513</name>
            </trkpt>
            <trkpt lat="50.0350528" lon="9.655608">
                <ele>156.0</ele>
                <time>2020-08-28T12:21:39.000Z</time>
                <name>Trackpoint 4514</name>
            </trkpt>
            <trkpt lat="50.0349248" lon="9.655568">
                <ele>156.0</ele>
                <time>2020-08-28T12:21:41.000Z</time>
                <name>Trackpoint 4515</name>
            </trkpt>
            <trkpt lat="50.0348256" lon="9.655552">
                <ele>156.0</ele>
                <time>2020-08-28T12:21:43.000Z</time>
                <name>Trackpoint 4516</name>
            </trkpt>
            <trkpt lat="50.0347264" lon="9.6555432">
                <ele>156.0</ele>
                <time>2020-08-28T12:21:45.000Z</time>
                <name>Trackpoint 4517</name>
            </trkpt>
            <trkpt lat="50.0346112" lon="9.6555272">
                <ele>156.0</ele>
                <time>2020-08-28T12:21:47.000Z</time>
                <name>Trackpoint 4518</name>
            </trkpt>
            <trkpt lat="50.0345088" lon="9.6555144">
                <ele>156.0</ele>
                <time>2020-08-28T12:21:49.000Z</time>
                <name>Trackpoint 4519</name>
            </trkpt>
            <trkpt lat="50.0344096" lon="9.6555016">
                <ele>156.0</ele>
                <time>2020-08-28T12:21:51.000Z</time>
                <name>Trackpoint 4520</name>
            </trkpt>
            <trkpt lat="50.034304" lon="9.6554832">
                <ele>156.0</ele>
                <time>2020-08-28T12:21:53.000Z</time>
                <name>Trackpoint 4521</name>
            </trkpt>
            <trkpt lat="50.0342016" lon="9.655468">
                <ele>156.0</ele>
                <time>2020-08-28T12:21:55.000Z</time>
                <name>Trackpoint 4522</name>
            </trkpt>
            <trkpt lat="50.0341024" lon="9.6554432">
                <ele>156.0</ele>
                <time>2020-08-28T12:21:57.000Z</time>
                <name>Trackpoint 4523</name>
            </trkpt>
            <trkpt lat="50.0339968" lon="9.6554232">
                <ele>156.0</ele>
                <time>2020-08-28T12:21:59.000Z</time>
                <name>Trackpoint 4524</name>
            </trkpt>
            <trkpt lat="50.0338912" lon="9.6554072">
                <ele>156.0</ele>
                <time>2020-08-28T12:22:01.000Z</time>
                <name>Trackpoint 4525</name>
            </trkpt>
            <trkpt lat="50.0337856" lon="9.65538">
                <ele>156.0</ele>
                <time>2020-08-28T12:22:03.000Z</time>
                <name>Trackpoint 4526</name>
            </trkpt>
            <trkpt lat="50.0336864" lon="9.6553552">
                <ele>156.0</ele>
                <time>2020-08-28T12:22:05.000Z</time>
                <name>Trackpoint 4527</name>
            </trkpt>
            <trkpt lat="50.0335872" lon="9.65534">
                <ele>155.0</ele>
                <time>2020-08-28T12:22:07.000Z</time>
                <name>Trackpoint 4528</name>
            </trkpt>
            <trkpt lat="50.033488" lon="9.6553088">
                <ele>155.0</ele>
                <time>2020-08-28T12:22:09.000Z</time>
                <name>Trackpoint 4529</name>
            </trkpt>
            <trkpt lat="50.0333888" lon="9.6552848">
                <ele>155.0</ele>
                <time>2020-08-28T12:22:11.000Z</time>
                <name>Trackpoint 4530</name>
            </trkpt>
            <trkpt lat="50.0332896" lon="9.6552464">
                <ele>155.0</ele>
                <time>2020-08-28T12:22:13.000Z</time>
                <name>Trackpoint 4531</name>
            </trkpt>
            <trkpt lat="50.0331872" lon="9.6552048">
                <ele>155.0</ele>
                <time>2020-08-28T12:22:15.000Z</time>
                <name>Trackpoint 4532</name>
            </trkpt>
            <trkpt lat="50.0330848" lon="9.6551664">
                <ele>155.0</ele>
                <time>2020-08-28T12:22:17.000Z</time>
                <name>Trackpoint 4533</name>
            </trkpt>
            <trkpt lat="50.03296" lon="9.6551368">
                <ele>154.0</ele>
                <time>2020-08-28T12:22:20.000Z</time>
                <name>Trackpoint 4534</name>
            </trkpt>
            <trkpt lat="50.0328736" lon="9.6550912">
                <ele>154.0</ele>
                <time>2020-08-28T12:22:22.000Z</time>
                <name>Trackpoint 4535</name>
            </trkpt>
            <trkpt lat="50.0327456" lon="9.6550464">
                <ele>154.0</ele>
                <time>2020-08-28T12:22:25.000Z</time>
                <name>Trackpoint 4536</name>
            </trkpt>
            <trkpt lat="50.0326496" lon="9.6550232">
                <ele>154.0</ele>
                <time>2020-08-28T12:22:27.000Z</time>
                <name>Trackpoint 4537</name>
            </trkpt>
            <trkpt lat="50.032544" lon="9.6549904">
                <ele>154.0</ele>
                <time>2020-08-28T12:22:29.000Z</time>
                <name>Trackpoint 4538</name>
            </trkpt>
            <trkpt lat="50.032432" lon="9.654932">
                <ele>154.0</ele>
                <time>2020-08-28T12:22:31.000Z</time>
                <name>Trackpoint 4539</name>
            </trkpt>
            <trkpt lat="50.0323328" lon="9.654888">
                <ele>154.0</ele>
                <time>2020-08-28T12:22:33.000Z</time>
                <name>Trackpoint 4540</name>
            </trkpt>
            <trkpt lat="50.0322272" lon="9.654848">
                <ele>154.0</ele>
                <time>2020-08-28T12:22:35.000Z</time>
                <name>Trackpoint 4541</name>
            </trkpt>
            <trkpt lat="50.0321344" lon="9.654812">
                <ele>154.0</ele>
                <time>2020-08-28T12:22:37.000Z</time>
                <name>Trackpoint 4542</name>
            </trkpt>
            <trkpt lat="50.0320384" lon="9.6547768">
                <ele>154.0</ele>
                <time>2020-08-28T12:22:39.000Z</time>
                <name>Trackpoint 4543</name>
            </trkpt>
            <trkpt lat="50.0319392" lon="9.6547384">
                <ele>154.0</ele>
                <time>2020-08-28T12:22:41.000Z</time>
                <name>Trackpoint 4544</name>
            </trkpt>
            <trkpt lat="50.0318368" lon="9.6547032">
                <ele>154.0</ele>
                <time>2020-08-28T12:22:43.000Z</time>
                <name>Trackpoint 4545</name>
            </trkpt>
            <trkpt lat="50.0317376" lon="9.654672">
                <ele>153.0</ele>
                <time>2020-08-28T12:22:45.000Z</time>
                <name>Trackpoint 4546</name>
            </trkpt>
            <trkpt lat="50.0316416" lon="9.6546424">
                <ele>153.0</ele>
                <time>2020-08-28T12:22:47.000Z</time>
                <name>Trackpoint 4547</name>
            </trkpt>
            <trkpt lat="50.0315168" lon="9.654616">
                <ele>153.0</ele>
                <time>2020-08-28T12:22:50.000Z</time>
                <name>Trackpoint 4548</name>
            </trkpt>
            <trkpt lat="50.0314208" lon="9.6545584">
                <ele>153.0</ele>
                <time>2020-08-28T12:22:53.000Z</time>
                <name>Trackpoint 4549</name>
            </trkpt>
            <trkpt lat="50.0313312" lon="9.6544848">
                <ele>152.0</ele>
                <time>2020-08-28T12:22:56.000Z</time>
                <name>Trackpoint 4550</name>
            </trkpt>
            <trkpt lat="50.0312512" lon="9.6544384">
                <ele>153.0</ele>
                <time>2020-08-28T12:22:58.000Z</time>
                <name>Trackpoint 4551</name>
            </trkpt>
            <trkpt lat="50.0311456" lon="9.654344">
                <ele>153.0</ele>
                <time>2020-08-28T12:23:01.000Z</time>
                <name>Trackpoint 4552</name>
            </trkpt>
            <trkpt lat="50.031056" lon="9.6542432">
                <ele>153.0</ele>
                <time>2020-08-28T12:23:03.000Z</time>
                <name>Trackpoint 4553</name>
            </trkpt>
            <trkpt lat="50.0309824" lon="9.654152">
                <ele>153.0</ele>
                <time>2020-08-28T12:23:05.000Z</time>
                <name>Trackpoint 4554</name>
            </trkpt>
            <trkpt lat="50.0308864" lon="9.6540336">
                <ele>153.0</ele>
                <time>2020-08-28T12:23:07.000Z</time>
                <name>Trackpoint 4555</name>
            </trkpt>
            <trkpt lat="50.0308064" lon="9.6539584">
                <ele>153.0</ele>
                <time>2020-08-28T12:23:09.000Z</time>
                <name>Trackpoint 4556</name>
            </trkpt>
            <trkpt lat="50.0307264" lon="9.6538952">
                <ele>153.0</ele>
                <time>2020-08-28T12:23:12.000Z</time>
                <name>Trackpoint 4557</name>
            </trkpt>
            <trkpt lat="50.0306208" lon="9.6538616">
                <ele>153.0</ele>
                <time>2020-08-28T12:23:48.000Z</time>
                <name>Trackpoint 4558</name>
            </trkpt>
            <trkpt lat="50.0305248" lon="9.6538136">
                <ele>153.0</ele>
                <time>2020-08-28T12:23:51.000Z</time>
                <name>Trackpoint 4559</name>
            </trkpt>
            <trkpt lat="50.0304288" lon="9.6537504">
                <ele>153.0</ele>
                <time>2020-08-28T12:23:54.000Z</time>
                <name>Trackpoint 4560</name>
            </trkpt>
            <trkpt lat="50.0303392" lon="9.6537152">
                <ele>153.0</ele>
                <time>2020-08-28T12:23:56.000Z</time>
                <name>Trackpoint 4561</name>
            </trkpt>
            <trkpt lat="50.0302464" lon="9.6536928">
                <ele>153.0</ele>
                <time>2020-08-28T12:23:58.000Z</time>
                <name>Trackpoint 4562</name>
            </trkpt>
            <trkpt lat="50.0301536" lon="9.6536776">
                <ele>153.0</ele>
                <time>2020-08-28T12:24:00.000Z</time>
                <name>Trackpoint 4563</name>
            </trkpt>
            <trkpt lat="50.0300512" lon="9.6536152">
                <ele>154.0</ele>
                <time>2020-08-28T12:24:02.000Z</time>
                <name>Trackpoint 4564</name>
            </trkpt>
            <trkpt lat="50.0299584" lon="9.6535568">
                <ele>154.0</ele>
                <time>2020-08-28T12:24:04.000Z</time>
                <name>Trackpoint 4565</name>
            </trkpt>
            <trkpt lat="50.029872" lon="9.6535064">
                <ele>154.0</ele>
                <time>2020-08-28T12:24:06.000Z</time>
                <name>Trackpoint 4566</name>
            </trkpt>
            <trkpt lat="50.02976" lon="9.6534832">
                <ele>154.0</ele>
                <time>2020-08-28T12:24:09.000Z</time>
                <name>Trackpoint 4567</name>
            </trkpt>
            <trkpt lat="50.0296608" lon="9.653412">
                <ele>154.0</ele>
                <time>2020-08-28T12:24:12.000Z</time>
                <name>Trackpoint 4568</name>
            </trkpt>
            <trkpt lat="50.0295776" lon="9.6533744">
                <ele>154.0</ele>
                <time>2020-08-28T12:24:15.000Z</time>
                <name>Trackpoint 4569</name>
            </trkpt>
            <trkpt lat="50.0295072" lon="9.6532944">
                <ele>155.0</ele>
                <time>2020-08-28T12:24:18.000Z</time>
                <name>Trackpoint 4570</name>
            </trkpt>
            <trkpt lat="50.0294304" lon="9.6532352">
                <ele>155.0</ele>
                <time>2020-08-28T12:24:20.000Z</time>
                <name>Trackpoint 4571</name>
            </trkpt>
            <trkpt lat="50.0293536" lon="9.6531832">
                <ele>155.0</ele>
                <time>2020-08-28T12:24:22.000Z</time>
                <name>Trackpoint 4572</name>
            </trkpt>
            <trkpt lat="50.029296" lon="9.6531088">
                <ele>155.0</ele>
                <time>2020-08-28T12:24:24.000Z</time>
                <name>Trackpoint 4573</name>
            </trkpt>
            <trkpt lat="50.029216" lon="9.6530064">
                <ele>156.0</ele>
                <time>2020-08-28T12:24:27.000Z</time>
                <name>Trackpoint 4574</name>
            </trkpt>
            <trkpt lat="50.0291488" lon="9.6529368">
                <ele>157.0</ele>
                <time>2020-08-28T12:24:36.000Z</time>
                <name>Trackpoint 4575</name>
            </trkpt>
            <trkpt lat="50.029088" lon="9.652848">
                <ele>157.0</ele>
                <time>2020-08-28T12:25:28.000Z</time>
                <name>Trackpoint 4576</name>
            </trkpt>
            <trkpt lat="50.0290368" lon="9.6527528">
                <ele>157.0</ele>
                <time>2020-08-28T12:25:30.000Z</time>
                <name>Trackpoint 4577</name>
            </trkpt>
            <trkpt lat="50.02896" lon="9.6526048">
                <ele>157.0</ele>
                <time>2020-08-28T12:25:32.000Z</time>
                <name>Trackpoint 4578</name>
            </trkpt>
            <trkpt lat="50.0288768" lon="9.6524824">
                <ele>157.0</ele>
                <time>2020-08-28T12:25:34.000Z</time>
                <name>Trackpoint 4579</name>
            </trkpt>
            <trkpt lat="50.0288032" lon="9.6524136">
                <ele>157.0</ele>
                <time>2020-08-28T12:25:35.000Z</time>
                <name>Trackpoint 4580</name>
            </trkpt>
            <trkpt lat="50.02872" lon="9.6522912">
                <ele>157.0</ele>
                <time>2020-08-28T12:25:37.000Z</time>
                <name>Trackpoint 4581</name>
            </trkpt>
            <trkpt lat="50.0286688" lon="9.6521664">
                <ele>157.0</ele>
                <time>2020-08-28T12:25:39.000Z</time>
                <name>Trackpoint 4582</name>
            </trkpt>
            <trkpt lat="50.0285952" lon="9.652048">
                <ele>157.0</ele>
                <time>2020-08-28T12:25:41.000Z</time>
                <name>Trackpoint 4583</name>
            </trkpt>
            <trkpt lat="50.0285184" lon="9.6519296">
                <ele>156.0</ele>
                <time>2020-08-28T12:25:43.000Z</time>
                <name>Trackpoint 4584</name>
            </trkpt>
            <trkpt lat="50.0284416" lon="9.6518136">
                <ele>156.0</ele>
                <time>2020-08-28T12:25:45.000Z</time>
                <name>Trackpoint 4585</name>
            </trkpt>
            <trkpt lat="50.0283712" lon="9.6516912">
                <ele>157.0</ele>
                <time>2020-08-28T12:25:47.000Z</time>
                <name>Trackpoint 4586</name>
            </trkpt>
            <trkpt lat="50.0282976" lon="9.6515752">
                <ele>156.0</ele>
                <time>2020-08-28T12:25:49.000Z</time>
                <name>Trackpoint 4587</name>
            </trkpt>
            <trkpt lat="50.028224" lon="9.6514584">
                <ele>156.0</ele>
                <time>2020-08-28T12:25:51.000Z</time>
                <name>Trackpoint 4588</name>
            </trkpt>
            <trkpt lat="50.028144" lon="9.6513416">
                <ele>156.0</ele>
                <time>2020-08-28T12:25:53.000Z</time>
                <name>Trackpoint 4589</name>
            </trkpt>
            <trkpt lat="50.0280672" lon="9.651232">
                <ele>156.0</ele>
                <time>2020-08-28T12:25:55.000Z</time>
                <name>Trackpoint 4590</name>
            </trkpt>
            <trkpt lat="50.0279872" lon="9.6511136">
                <ele>156.0</ele>
                <time>2020-08-28T12:25:57.000Z</time>
                <name>Trackpoint 4591</name>
            </trkpt>
            <trkpt lat="50.0279072" lon="9.6509936">
                <ele>156.0</ele>
                <time>2020-08-28T12:25:59.000Z</time>
                <name>Trackpoint 4592</name>
            </trkpt>
            <trkpt lat="50.0278272" lon="9.6508776">
                <ele>156.0</ele>
                <time>2020-08-28T12:26:01.000Z</time>
                <name>Trackpoint 4593</name>
            </trkpt>
            <trkpt lat="50.0277472" lon="9.6507632">
                <ele>156.0</ele>
                <time>2020-08-28T12:26:03.000Z</time>
                <name>Trackpoint 4594</name>
            </trkpt>
            <trkpt lat="50.0276832" lon="9.6506216">
                <ele>156.0</ele>
                <time>2020-08-28T12:26:05.000Z</time>
                <name>Trackpoint 4595</name>
            </trkpt>
            <trkpt lat="50.0276512" lon="9.6504448">
                <ele>156.0</ele>
                <time>2020-08-28T12:26:07.000Z</time>
                <name>Trackpoint 4596</name>
            </trkpt>
            <trkpt lat="50.0276064" lon="9.6502936">
                <ele>156.0</ele>
                <time>2020-08-28T12:26:09.000Z</time>
                <name>Trackpoint 4597</name>
            </trkpt>
            <trkpt lat="50.0275392" lon="9.6501528">
                <ele>156.0</ele>
                <time>2020-08-28T12:26:11.000Z</time>
                <name>Trackpoint 4598</name>
            </trkpt>
            <trkpt lat="50.0274624" lon="9.6500264">
                <ele>156.0</ele>
                <time>2020-08-28T12:26:13.000Z</time>
                <name>Trackpoint 4599</name>
            </trkpt>
            <trkpt lat="50.0273856" lon="9.6498968">
                <ele>156.0</ele>
                <time>2020-08-28T12:26:15.000Z</time>
                <name>Trackpoint 4600</name>
            </trkpt>
            <trkpt lat="50.0273088" lon="9.649768">
                <ele>156.0</ele>
                <time>2020-08-28T12:26:17.000Z</time>
                <name>Trackpoint 4601</name>
            </trkpt>
            <trkpt lat="50.0272288" lon="9.6496336">
                <ele>156.0</ele>
                <time>2020-08-28T12:26:19.000Z</time>
                <name>Trackpoint 4602</name>
            </trkpt>
            <trkpt lat="50.0271648" lon="9.6494864">
                <ele>156.0</ele>
                <time>2020-08-28T12:26:21.000Z</time>
                <name>Trackpoint 4603</name>
            </trkpt>
            <trkpt lat="50.0270912" lon="9.6493568">
                <ele>156.0</ele>
                <time>2020-08-28T12:26:23.000Z</time>
                <name>Trackpoint 4604</name>
            </trkpt>
            <trkpt lat="50.027008" lon="9.649228">
                <ele>156.0</ele>
                <time>2020-08-28T12:26:25.000Z</time>
                <name>Trackpoint 4605</name>
            </trkpt>
            <trkpt lat="50.0269312" lon="9.6490896">
                <ele>156.0</ele>
                <time>2020-08-28T12:26:27.000Z</time>
                <name>Trackpoint 4606</name>
            </trkpt>
            <trkpt lat="50.0268864" lon="9.6489352">
                <ele>156.0</ele>
                <time>2020-08-28T12:26:29.000Z</time>
                <name>Trackpoint 4607</name>
            </trkpt>
            <trkpt lat="50.026848" lon="9.64878">
                <ele>156.0</ele>
                <time>2020-08-28T12:26:31.000Z</time>
                <name>Trackpoint 4608</name>
            </trkpt>
            <trkpt lat="50.026816" lon="9.6486352">
                <ele>156.0</ele>
                <time>2020-08-28T12:26:33.000Z</time>
                <name>Trackpoint 4609</name>
            </trkpt>
            <trkpt lat="50.0267872" lon="9.6485056">
                <ele>156.0</ele>
                <time>2020-08-28T12:26:35.000Z</time>
                <name>Trackpoint 4610</name>
            </trkpt>
            <trkpt lat="50.0267424" lon="9.648408">
                <ele>156.0</ele>
                <time>2020-08-28T12:26:37.000Z</time>
                <name>Trackpoint 4611</name>
            </trkpt>
            <trkpt lat="50.0266976" lon="9.64826">
                <ele>156.0</ele>
                <time>2020-08-28T12:26:39.000Z</time>
                <name>Trackpoint 4612</name>
            </trkpt>
            <trkpt lat="50.0266784" lon="9.6480728">
                <ele>156.0</ele>
                <time>2020-08-28T12:26:41.000Z</time>
                <name>Trackpoint 4613</name>
            </trkpt>
            <trkpt lat="50.0266752" lon="9.6479416">
                <ele>156.0</ele>
                <time>2020-08-28T12:26:42.000Z</time>
                <name>Trackpoint 4614</name>
            </trkpt>
            <trkpt lat="50.0266656" lon="9.6478504">
                <ele>156.0</ele>
                <time>2020-08-28T12:26:43.000Z</time>
                <name>Trackpoint 4615</name>
            </trkpt>
            <trkpt lat="50.026656" lon="9.6477232">
                <ele>157.0</ele>
                <time>2020-08-28T12:26:45.000Z</time>
                <name>Trackpoint 4616</name>
            </trkpt>
            <trkpt lat="50.0266144" lon="9.6476424">
                <ele>157.0</ele>
                <time>2020-08-28T12:26:47.000Z</time>
                <name>Trackpoint 4617</name>
            </trkpt>
            <trkpt lat="50.0265344" lon="9.6475632">
                <ele>156.0</ele>
                <time>2020-08-28T12:26:50.000Z</time>
                <name>Trackpoint 4618</name>
            </trkpt>
            <trkpt lat="50.0264512" lon="9.6474448">
                <ele>156.0</ele>
                <time>2020-08-28T12:26:52.000Z</time>
                <name>Trackpoint 4619</name>
            </trkpt>
            <trkpt lat="50.0263904" lon="9.64732">
                <ele>156.0</ele>
                <time>2020-08-28T12:26:54.000Z</time>
                <name>Trackpoint 4620</name>
            </trkpt>
            <trkpt lat="50.026336" lon="9.6471784">
                <ele>156.0</ele>
                <time>2020-08-28T12:26:56.000Z</time>
                <name>Trackpoint 4621</name>
            </trkpt>
            <trkpt lat="50.0263264" lon="9.647088">
                <ele>156.0</ele>
                <time>2020-08-28T12:26:57.000Z</time>
                <name>Trackpoint 4622</name>
            </trkpt>
            <trkpt lat="50.0262752" lon="9.6469616">
                <ele>155.0</ele>
                <time>2020-08-28T12:26:59.000Z</time>
                <name>Trackpoint 4623</name>
            </trkpt>
            <trkpt lat="50.0262368" lon="9.6468048">
                <ele>155.0</ele>
                <time>2020-08-28T12:27:01.000Z</time>
                <name>Trackpoint 4624</name>
            </trkpt>
            <trkpt lat="50.0261888" lon="9.64666">
                <ele>155.0</ele>
                <time>2020-08-28T12:27:03.000Z</time>
                <name>Trackpoint 4625</name>
            </trkpt>
            <trkpt lat="50.0261408" lon="9.646508">
                <ele>154.0</ele>
                <time>2020-08-28T12:27:05.000Z</time>
                <name>Trackpoint 4626</name>
            </trkpt>
            <trkpt lat="50.0261088" lon="9.646372">
                <ele>154.0</ele>
                <time>2020-08-28T12:27:07.000Z</time>
                <name>Trackpoint 4627</name>
            </trkpt>
            <trkpt lat="50.0260864" lon="9.6462032">
                <ele>155.0</ele>
                <time>2020-08-28T12:27:09.000Z</time>
                <name>Trackpoint 4628</name>
            </trkpt>
            <trkpt lat="50.0260416" lon="9.6460504">
                <ele>155.0</ele>
                <time>2020-08-28T12:27:11.000Z</time>
                <name>Trackpoint 4629</name>
            </trkpt>
            <trkpt lat="50.0260128" lon="9.645888">
                <ele>154.0</ele>
                <time>2020-08-28T12:27:13.000Z</time>
                <name>Trackpoint 4630</name>
            </trkpt>
            <trkpt lat="50.0259872" lon="9.6457392">
                <ele>154.0</ele>
                <time>2020-08-28T12:27:15.000Z</time>
                <name>Trackpoint 4631</name>
            </trkpt>
            <trkpt lat="50.0259552" lon="9.6455968">
                <ele>154.0</ele>
                <time>2020-08-28T12:27:17.000Z</time>
                <name>Trackpoint 4632</name>
            </trkpt>
            <trkpt lat="50.0259296" lon="9.6454432">
                <ele>154.0</ele>
                <time>2020-08-28T12:27:19.000Z</time>
                <name>Trackpoint 4633</name>
            </trkpt>
            <trkpt lat="50.0259008" lon="9.6453">
                <ele>154.0</ele>
                <time>2020-08-28T12:27:21.000Z</time>
                <name>Trackpoint 4634</name>
            </trkpt>
            <trkpt lat="50.025872" lon="9.6451504">
                <ele>154.0</ele>
                <time>2020-08-28T12:27:23.000Z</time>
                <name>Trackpoint 4635</name>
            </trkpt>
            <trkpt lat="50.0258432" lon="9.6449944">
                <ele>154.0</ele>
                <time>2020-08-28T12:27:25.000Z</time>
                <name>Trackpoint 4636</name>
            </trkpt>
            <trkpt lat="50.0258304" lon="9.6448296">
                <ele>154.0</ele>
                <time>2020-08-28T12:27:27.000Z</time>
                <name>Trackpoint 4637</name>
            </trkpt>
            <trkpt lat="50.0258112" lon="9.6446736">
                <ele>154.0</ele>
                <time>2020-08-28T12:27:29.000Z</time>
                <name>Trackpoint 4638</name>
            </trkpt>
            <trkpt lat="50.025808" lon="9.6444864">
                <ele>154.0</ele>
                <time>2020-08-28T12:27:31.000Z</time>
                <name>Trackpoint 4639</name>
            </trkpt>
            <trkpt lat="50.025776" lon="9.644332">
                <ele>154.0</ele>
                <time>2020-08-28T12:27:33.000Z</time>
                <name>Trackpoint 4640</name>
            </trkpt>
            <trkpt lat="50.02576" lon="9.6442368">
                <ele>154.0</ele>
                <time>2020-08-28T12:27:34.000Z</time>
                <name>Trackpoint 4641</name>
            </trkpt>
            <trkpt lat="50.0257248" lon="9.6440888">
                <ele>154.0</ele>
                <time>2020-08-28T12:27:36.000Z</time>
                <name>Trackpoint 4642</name>
            </trkpt>
            <trkpt lat="50.0256992" lon="9.6439288">
                <ele>154.0</ele>
                <time>2020-08-28T12:27:38.000Z</time>
                <name>Trackpoint 4643</name>
            </trkpt>
            <trkpt lat="50.0257024" lon="9.6438248">
                <ele>154.0</ele>
                <time>2020-08-28T12:27:39.000Z</time>
                <name>Trackpoint 4644</name>
            </trkpt>
            <trkpt lat="50.025664" lon="9.643668">
                <ele>154.0</ele>
                <time>2020-08-28T12:27:41.000Z</time>
                <name>Trackpoint 4645</name>
            </trkpt>
            <trkpt lat="50.0256384" lon="9.6435136">
                <ele>154.0</ele>
                <time>2020-08-28T12:27:43.000Z</time>
                <name>Trackpoint 4646</name>
            </trkpt>
            <trkpt lat="50.0256128" lon="9.6433336">
                <ele>154.0</ele>
                <time>2020-08-28T12:27:45.000Z</time>
                <name>Trackpoint 4647</name>
            </trkpt>
            <trkpt lat="50.0255904" lon="9.643164">
                <ele>154.0</ele>
                <time>2020-08-28T12:27:47.000Z</time>
                <name>Trackpoint 4648</name>
            </trkpt>
            <trkpt lat="50.0256096" lon="9.6430664">
                <ele>153.0</ele>
                <time>2020-08-28T12:27:48.000Z</time>
                <name>Trackpoint 4649</name>
            </trkpt>
            <trkpt lat="50.0255648" lon="9.6429104">
                <ele>153.0</ele>
                <time>2020-08-28T12:27:50.000Z</time>
                <name>Trackpoint 4650</name>
            </trkpt>
            <trkpt lat="50.0254912" lon="9.64278">
                <ele>153.0</ele>
                <time>2020-08-28T12:27:52.000Z</time>
                <name>Trackpoint 4651</name>
            </trkpt>
            <trkpt lat="50.0254912" lon="9.6426736">
                <ele>152.0</ele>
                <time>2020-08-28T12:27:53.000Z</time>
                <name>Trackpoint 4652</name>
            </trkpt>
            <trkpt lat="50.0255008" lon="9.6425648">
                <ele>153.0</ele>
                <time>2020-08-28T12:27:54.000Z</time>
                <name>Trackpoint 4653</name>
            </trkpt>
            <trkpt lat="50.025504" lon="9.6423728">
                <ele>153.0</ele>
                <time>2020-08-28T12:27:56.000Z</time>
                <name>Trackpoint 4654</name>
            </trkpt>
            <trkpt lat="50.0254848" lon="9.6422216">
                <ele>153.0</ele>
                <time>2020-08-28T12:27:58.000Z</time>
                <name>Trackpoint 4655</name>
            </trkpt>
            <trkpt lat="50.0254464" lon="9.6420632">
                <ele>153.0</ele>
                <time>2020-08-28T12:28:00.000Z</time>
                <name>Trackpoint 4656</name>
            </trkpt>
            <trkpt lat="50.0254336" lon="9.6418936">
                <ele>154.0</ele>
                <time>2020-08-28T12:28:02.000Z</time>
                <name>Trackpoint 4657</name>
            </trkpt>
            <trkpt lat="50.0254112" lon="9.6417288">
                <ele>153.0</ele>
                <time>2020-08-28T12:28:04.000Z</time>
                <name>Trackpoint 4658</name>
            </trkpt>
            <trkpt lat="50.0253632" lon="9.64158">
                <ele>153.0</ele>
                <time>2020-08-28T12:28:06.000Z</time>
                <name>Trackpoint 4659</name>
            </trkpt>
            <trkpt lat="50.0253248" lon="9.6414496">
                <ele>153.0</ele>
                <time>2020-08-28T12:28:08.000Z</time>
                <name>Trackpoint 4660</name>
            </trkpt>
            <trkpt lat="50.0252768" lon="9.6413048">
                <ele>153.0</ele>
                <time>2020-08-28T12:28:10.000Z</time>
                <name>Trackpoint 4661</name>
            </trkpt>
            <trkpt lat="50.0252416" lon="9.6412184">
                <ele>153.0</ele>
                <time>2020-08-28T12:28:11.000Z</time>
                <name>Trackpoint 4662</name>
            </trkpt>
            <trkpt lat="50.0252192" lon="9.6410416">
                <ele>154.0</ele>
                <time>2020-08-28T12:28:13.000Z</time>
                <name>Trackpoint 4663</name>
            </trkpt>
            <trkpt lat="50.0251872" lon="9.6408616">
                <ele>154.0</ele>
                <time>2020-08-28T12:28:15.000Z</time>
                <name>Trackpoint 4664</name>
            </trkpt>
            <trkpt lat="50.0251456" lon="9.6407096">
                <ele>154.0</ele>
                <time>2020-08-28T12:28:17.000Z</time>
                <name>Trackpoint 4665</name>
            </trkpt>
            <trkpt lat="50.0251648" lon="9.6405712">
                <ele>154.0</ele>
                <time>2020-08-28T12:28:18.000Z</time>
                <name>Trackpoint 4666</name>
            </trkpt>
            <trkpt lat="50.0251392" lon="9.6404048">
                <ele>154.0</ele>
                <time>2020-08-28T12:28:20.000Z</time>
                <name>Trackpoint 4667</name>
            </trkpt>
            <trkpt lat="50.0251072" lon="9.6402432">
                <ele>154.0</ele>
                <time>2020-08-28T12:28:22.000Z</time>
                <name>Trackpoint 4668</name>
            </trkpt>
            <trkpt lat="50.0250464" lon="9.6400896">
                <ele>154.0</ele>
                <time>2020-08-28T12:28:24.000Z</time>
                <name>Trackpoint 4669</name>
            </trkpt>
            <trkpt lat="50.0249952" lon="9.6399384">
                <ele>154.0</ele>
                <time>2020-08-28T12:28:26.000Z</time>
                <name>Trackpoint 4670</name>
            </trkpt>
            <trkpt lat="50.0249792" lon="9.6398336">
                <ele>154.0</ele>
                <time>2020-08-28T12:28:27.000Z</time>
                <name>Trackpoint 4671</name>
            </trkpt>
            <trkpt lat="50.0249792" lon="9.6397136">
                <ele>154.0</ele>
                <time>2020-08-28T12:28:28.000Z</time>
                <name>Trackpoint 4672</name>
            </trkpt>
            <trkpt lat="50.0249632" lon="9.6396112">
                <ele>154.0</ele>
                <time>2020-08-28T12:28:29.000Z</time>
                <name>Trackpoint 4673</name>
            </trkpt>
            <trkpt lat="50.0249344" lon="9.6394752">
                <ele>154.0</ele>
                <time>2020-08-28T12:28:31.000Z</time>
                <name>Trackpoint 4674</name>
            </trkpt>
            <trkpt lat="50.0248704" lon="9.6393336">
                <ele>154.0</ele>
                <time>2020-08-28T12:28:33.000Z</time>
                <name>Trackpoint 4675</name>
            </trkpt>
            <trkpt lat="50.0248704" lon="9.6392296">
                <ele>154.0</ele>
                <time>2020-08-28T12:28:34.000Z</time>
                <name>Trackpoint 4676</name>
            </trkpt>
            <trkpt lat="50.0248096" lon="9.6391112">
                <ele>154.0</ele>
                <time>2020-08-28T12:28:36.000Z</time>
                <name>Trackpoint 4677</name>
            </trkpt>
            <trkpt lat="50.024816" lon="9.6390048">
                <ele>154.0</ele>
                <time>2020-08-28T12:28:37.000Z</time>
                <name>Trackpoint 4678</name>
            </trkpt>
            <trkpt lat="50.0247904" lon="9.6389168">
                <ele>154.0</ele>
                <time>2020-08-28T12:28:38.000Z</time>
                <name>Trackpoint 4679</name>
            </trkpt>
            <trkpt lat="50.0247232" lon="9.6387832">
                <ele>154.0</ele>
                <time>2020-08-28T12:28:40.000Z</time>
                <name>Trackpoint 4680</name>
            </trkpt>
            <trkpt lat="50.0246688" lon="9.6386568">
                <ele>154.0</ele>
                <time>2020-08-28T12:28:42.000Z</time>
                <name>Trackpoint 4681</name>
            </trkpt>
            <trkpt lat="50.0246528" lon="9.6384632">
                <ele>154.0</ele>
                <time>2020-08-28T12:28:44.000Z</time>
                <name>Trackpoint 4682</name>
            </trkpt>
            <trkpt lat="50.0246208" lon="9.6383248">
                <ele>154.0</ele>
                <time>2020-08-28T12:28:46.000Z</time>
                <name>Trackpoint 4683</name>
            </trkpt>
            <trkpt lat="50.0245888" lon="9.638188">
                <ele>154.0</ele>
                <time>2020-08-28T12:28:48.000Z</time>
                <name>Trackpoint 4684</name>
            </trkpt>
            <trkpt lat="50.0245824" lon="9.6380928">
                <ele>154.0</ele>
                <time>2020-08-28T12:28:49.000Z</time>
                <name>Trackpoint 4685</name>
            </trkpt>
            <trkpt lat="50.0245376" lon="9.6379432">
                <ele>154.0</ele>
                <time>2020-08-28T12:28:51.000Z</time>
                <name>Trackpoint 4686</name>
            </trkpt>
            <trkpt lat="50.0244672" lon="9.6378168">
                <ele>154.0</ele>
                <time>2020-08-28T12:28:53.000Z</time>
                <name>Trackpoint 4687</name>
            </trkpt>
            <trkpt lat="50.0244224" lon="9.6376712">
                <ele>154.0</ele>
                <time>2020-08-28T12:28:55.000Z</time>
                <name>Trackpoint 4688</name>
            </trkpt>
            <trkpt lat="50.0243808" lon="9.6375304">
                <ele>154.0</ele>
                <time>2020-08-28T12:28:57.000Z</time>
                <name>Trackpoint 4689</name>
            </trkpt>
            <trkpt lat="50.0243744" lon="9.6373584">
                <ele>154.0</ele>
                <time>2020-08-28T12:28:59.000Z</time>
                <name>Trackpoint 4690</name>
            </trkpt>
            <trkpt lat="50.0243936" lon="9.6372416">
                <ele>154.0</ele>
                <time>2020-08-28T12:29:00.000Z</time>
                <name>Trackpoint 4691</name>
            </trkpt>
            <trkpt lat="50.0243584" lon="9.6370896">
                <ele>154.0</ele>
                <time>2020-08-28T12:29:02.000Z</time>
                <name>Trackpoint 4692</name>
            </trkpt>
            <trkpt lat="50.0243008" lon="9.6369368">
                <ele>154.0</ele>
                <time>2020-08-28T12:29:04.000Z</time>
                <name>Trackpoint 4693</name>
            </trkpt>
            <trkpt lat="50.0242592" lon="9.6367848">
                <ele>153.0</ele>
                <time>2020-08-28T12:29:06.000Z</time>
                <name>Trackpoint 4694</name>
            </trkpt>
            <trkpt lat="50.0241952" lon="9.6366416">
                <ele>153.0</ele>
                <time>2020-08-28T12:29:08.000Z</time>
                <name>Trackpoint 4695</name>
            </trkpt>
            <trkpt lat="50.0241536" lon="9.6365184">
                <ele>153.0</ele>
                <time>2020-08-28T12:29:10.000Z</time>
                <name>Trackpoint 4696</name>
            </trkpt>
            <trkpt lat="50.0241024" lon="9.6363752">
                <ele>152.0</ele>
                <time>2020-08-28T12:29:12.000Z</time>
                <name>Trackpoint 4697</name>
            </trkpt>
            <trkpt lat="50.0240416" lon="9.6362216">
                <ele>152.0</ele>
                <time>2020-08-28T12:29:14.000Z</time>
                <name>Trackpoint 4698</name>
            </trkpt>
            <trkpt lat="50.0240032" lon="9.6360704">
                <ele>152.0</ele>
                <time>2020-08-28T12:29:16.000Z</time>
                <name>Trackpoint 4699</name>
            </trkpt>
            <trkpt lat="50.023968" lon="9.6359152">
                <ele>152.0</ele>
                <time>2020-08-28T12:29:18.000Z</time>
                <name>Trackpoint 4700</name>
            </trkpt>
            <trkpt lat="50.0239552" lon="9.6358248">
                <ele>152.0</ele>
                <time>2020-08-28T12:29:19.000Z</time>
                <name>Trackpoint 4701</name>
            </trkpt>
            <trkpt lat="50.0239296" lon="9.6356624">
                <ele>151.0</ele>
                <time>2020-08-28T12:29:21.000Z</time>
                <name>Trackpoint 4702</name>
            </trkpt>
            <trkpt lat="50.0238848" lon="9.6355264">
                <ele>151.0</ele>
                <time>2020-08-28T12:29:23.000Z</time>
                <name>Trackpoint 4703</name>
            </trkpt>
            <trkpt lat="50.0238336" lon="9.63538">
                <ele>151.0</ele>
                <time>2020-08-28T12:29:25.000Z</time>
                <name>Trackpoint 4704</name>
            </trkpt>
            <trkpt lat="50.023776" lon="9.6352432">
                <ele>151.0</ele>
                <time>2020-08-28T12:29:27.000Z</time>
                <name>Trackpoint 4705</name>
            </trkpt>
            <trkpt lat="50.0237248" lon="9.6350896">
                <ele>151.0</ele>
                <time>2020-08-28T12:29:29.000Z</time>
                <name>Trackpoint 4706</name>
            </trkpt>
            <trkpt lat="50.0236736" lon="9.6349432">
                <ele>151.0</ele>
                <time>2020-08-28T12:29:31.000Z</time>
                <name>Trackpoint 4707</name>
            </trkpt>
            <trkpt lat="50.023616" lon="9.6348112">
                <ele>151.0</ele>
                <time>2020-08-28T12:29:33.000Z</time>
                <name>Trackpoint 4708</name>
            </trkpt>
            <trkpt lat="50.0235296" lon="9.6346952">
                <ele>151.0</ele>
                <time>2020-08-28T12:29:35.000Z</time>
                <name>Trackpoint 4709</name>
            </trkpt>
            <trkpt lat="50.0235072" lon="9.6345152">
                <ele>151.0</ele>
                <time>2020-08-28T12:29:37.000Z</time>
                <name>Trackpoint 4710</name>
            </trkpt>
            <trkpt lat="50.0234496" lon="9.6343816">
                <ele>151.0</ele>
                <time>2020-08-28T12:29:39.000Z</time>
                <name>Trackpoint 4711</name>
            </trkpt>
            <trkpt lat="50.0234144" lon="9.6342096">
                <ele>151.0</ele>
                <time>2020-08-28T12:29:41.000Z</time>
                <name>Trackpoint 4712</name>
            </trkpt>
            <trkpt lat="50.02336" lon="9.6340616">
                <ele>151.0</ele>
                <time>2020-08-28T12:29:43.000Z</time>
                <name>Trackpoint 4713</name>
            </trkpt>
            <trkpt lat="50.023328" lon="9.6339104">
                <ele>151.0</ele>
                <time>2020-08-28T12:29:45.000Z</time>
                <name>Trackpoint 4714</name>
            </trkpt>
            <trkpt lat="50.0232896" lon="9.6337584">
                <ele>151.0</ele>
                <time>2020-08-28T12:29:47.000Z</time>
                <name>Trackpoint 4715</name>
            </trkpt>
            <trkpt lat="50.0232672" lon="9.6335896">
                <ele>151.0</ele>
                <time>2020-08-28T12:29:49.000Z</time>
                <name>Trackpoint 4716</name>
            </trkpt>
            <trkpt lat="50.0232672" lon="9.6334352">
                <ele>151.0</ele>
                <time>2020-08-28T12:29:51.000Z</time>
                <name>Trackpoint 4717</name>
            </trkpt>
            <trkpt lat="50.0232576" lon="9.6332704">
                <ele>150.0</ele>
                <time>2020-08-28T12:29:53.000Z</time>
                <name>Trackpoint 4718</name>
            </trkpt>
            <trkpt lat="50.0232224" lon="9.6331168">
                <ele>150.0</ele>
                <time>2020-08-28T12:29:55.000Z</time>
                <name>Trackpoint 4719</name>
            </trkpt>
            <trkpt lat="50.0231872" lon="9.6329632">
                <ele>150.0</ele>
                <time>2020-08-28T12:29:57.000Z</time>
                <name>Trackpoint 4720</name>
            </trkpt>
            <trkpt lat="50.0231424" lon="9.6328136">
                <ele>150.0</ele>
                <time>2020-08-28T12:29:59.000Z</time>
                <name>Trackpoint 4721</name>
            </trkpt>
            <trkpt lat="50.0230912" lon="9.6326664">
                <ele>150.0</ele>
                <time>2020-08-28T12:30:01.000Z</time>
                <name>Trackpoint 4722</name>
            </trkpt>
            <trkpt lat="50.02304" lon="9.632512">
                <ele>150.0</ele>
                <time>2020-08-28T12:30:03.000Z</time>
                <name>Trackpoint 4723</name>
            </trkpt>
            <trkpt lat="50.0229888" lon="9.6323544">
                <ele>149.0</ele>
                <time>2020-08-28T12:30:05.000Z</time>
                <name>Trackpoint 4724</name>
            </trkpt>
            <trkpt lat="50.0229312" lon="9.6322048">
                <ele>149.0</ele>
                <time>2020-08-28T12:30:07.000Z</time>
                <name>Trackpoint 4725</name>
            </trkpt>
            <trkpt lat="50.0228768" lon="9.6320632">
                <ele>149.0</ele>
                <time>2020-08-28T12:30:09.000Z</time>
                <name>Trackpoint 4726</name>
            </trkpt>
            <trkpt lat="50.0228128" lon="9.6319312">
                <ele>149.0</ele>
                <time>2020-08-28T12:30:11.000Z</time>
                <name>Trackpoint 4727</name>
            </trkpt>
            <trkpt lat="50.0227584" lon="9.631812">
                <ele>149.0</ele>
                <time>2020-08-28T12:30:13.000Z</time>
                <name>Trackpoint 4728</name>
            </trkpt>
            <trkpt lat="50.022704" lon="9.6316928">
                <ele>149.0</ele>
                <time>2020-08-28T12:30:15.000Z</time>
                <name>Trackpoint 4729</name>
            </trkpt>
            <trkpt lat="50.022656" lon="9.63158">
                <ele>150.0</ele>
                <time>2020-08-28T12:30:17.000Z</time>
                <name>Trackpoint 4730</name>
            </trkpt>
            <trkpt lat="50.0226016" lon="9.6314752">
                <ele>151.0</ele>
                <time>2020-08-28T12:30:19.000Z</time>
                <name>Trackpoint 4731</name>
            </trkpt>
            <trkpt lat="50.0225536" lon="9.6313616">
                <ele>151.0</ele>
                <time>2020-08-28T12:30:21.000Z</time>
                <name>Trackpoint 4732</name>
            </trkpt>
            <trkpt lat="50.0224992" lon="9.6312536">
                <ele>151.0</ele>
                <time>2020-08-28T12:30:23.000Z</time>
                <name>Trackpoint 4733</name>
            </trkpt>
            <trkpt lat="50.0224384" lon="9.6311528">
                <ele>151.0</ele>
                <time>2020-08-28T12:30:25.000Z</time>
                <name>Trackpoint 4734</name>
            </trkpt>
            <trkpt lat="50.0223808" lon="9.6310568">
                <ele>151.0</ele>
                <time>2020-08-28T12:30:27.000Z</time>
                <name>Trackpoint 4735</name>
            </trkpt>
            <trkpt lat="50.02232" lon="9.6309568">
                <ele>151.0</ele>
                <time>2020-08-28T12:30:29.000Z</time>
                <name>Trackpoint 4736</name>
            </trkpt>
            <trkpt lat="50.0222432" lon="9.6308696">
                <ele>150.0</ele>
                <time>2020-08-28T12:30:31.000Z</time>
                <name>Trackpoint 4737</name>
            </trkpt>
            <trkpt lat="50.0221888" lon="9.6307688">
                <ele>150.0</ele>
                <time>2020-08-28T12:30:33.000Z</time>
                <name>Trackpoint 4738</name>
            </trkpt>
            <trkpt lat="50.022128" lon="9.6306688">
                <ele>149.0</ele>
                <time>2020-08-28T12:30:35.000Z</time>
                <name>Trackpoint 4739</name>
            </trkpt>
            <trkpt lat="50.0220672" lon="9.6305664">
                <ele>150.0</ele>
                <time>2020-08-28T12:30:37.000Z</time>
                <name>Trackpoint 4740</name>
            </trkpt>
            <trkpt lat="50.0220064" lon="9.63046">
                <ele>151.0</ele>
                <time>2020-08-28T12:30:39.000Z</time>
                <name>Trackpoint 4741</name>
            </trkpt>
            <trkpt lat="50.0219488" lon="9.6303552">
                <ele>151.0</ele>
                <time>2020-08-28T12:30:41.000Z</time>
                <name>Trackpoint 4742</name>
            </trkpt>
            <trkpt lat="50.0218912" lon="9.6302568">
                <ele>152.0</ele>
                <time>2020-08-28T12:30:43.000Z</time>
                <name>Trackpoint 4743</name>
            </trkpt>
            <trkpt lat="50.02184" lon="9.6301632">
                <ele>152.0</ele>
                <time>2020-08-28T12:30:45.000Z</time>
                <name>Trackpoint 4744</name>
            </trkpt>
            <trkpt lat="50.0217856" lon="9.6300552">
                <ele>152.0</ele>
                <time>2020-08-28T12:30:47.000Z</time>
                <name>Trackpoint 4745</name>
            </trkpt>
            <trkpt lat="50.0217408" lon="9.6299432">
                <ele>153.0</ele>
                <time>2020-08-28T12:30:49.000Z</time>
                <name>Trackpoint 4746</name>
            </trkpt>
            <trkpt lat="50.0216896" lon="9.6298336">
                <ele>154.0</ele>
                <time>2020-08-28T12:30:51.000Z</time>
                <name>Trackpoint 4747</name>
            </trkpt>
            <trkpt lat="50.0216384" lon="9.6297216">
                <ele>154.0</ele>
                <time>2020-08-28T12:30:53.000Z</time>
                <name>Trackpoint 4748</name>
            </trkpt>
            <trkpt lat="50.0215936" lon="9.629612">
                <ele>155.0</ele>
                <time>2020-08-28T12:30:55.000Z</time>
                <name>Trackpoint 4749</name>
            </trkpt>
            <trkpt lat="50.021552" lon="9.6294968">
                <ele>155.0</ele>
                <time>2020-08-28T12:30:57.000Z</time>
                <name>Trackpoint 4750</name>
            </trkpt>
            <trkpt lat="50.02152" lon="9.6293872">
                <ele>156.0</ele>
                <time>2020-08-28T12:30:59.000Z</time>
                <name>Trackpoint 4751</name>
            </trkpt>
            <trkpt lat="50.021488" lon="9.629276">
                <ele>157.0</ele>
                <time>2020-08-28T12:31:01.000Z</time>
                <name>Trackpoint 4752</name>
            </trkpt>
            <trkpt lat="50.0214624" lon="9.6291712">
                <ele>157.0</ele>
                <time>2020-08-28T12:31:03.000Z</time>
                <name>Trackpoint 4753</name>
            </trkpt>
            <trkpt lat="50.0214336" lon="9.6290752">
                <ele>158.0</ele>
                <time>2020-08-28T12:31:05.000Z</time>
                <name>Trackpoint 4754</name>
            </trkpt>
            <trkpt lat="50.0214112" lon="9.62898">
                <ele>158.0</ele>
                <time>2020-08-28T12:31:07.000Z</time>
                <name>Trackpoint 4755</name>
            </trkpt>
            <trkpt lat="50.0213856" lon="9.6288856">
                <ele>158.0</ele>
                <time>2020-08-28T12:31:09.000Z</time>
                <name>Trackpoint 4756</name>
            </trkpt>
            <trkpt lat="50.02136" lon="9.6287896">
                <ele>158.0</ele>
                <time>2020-08-28T12:31:11.000Z</time>
                <name>Trackpoint 4757</name>
            </trkpt>
            <trkpt lat="50.021328" lon="9.6287032">
                <ele>158.0</ele>
                <time>2020-08-28T12:31:13.000Z</time>
                <name>Trackpoint 4758</name>
            </trkpt>
            <trkpt lat="50.0213024" lon="9.6286112">
                <ele>159.0</ele>
                <time>2020-08-28T12:31:15.000Z</time>
                <name>Trackpoint 4759</name>
            </trkpt>
            <trkpt lat="50.0212768" lon="9.6284848">
                <ele>159.0</ele>
                <time>2020-08-28T12:31:18.000Z</time>
                <name>Trackpoint 4760</name>
            </trkpt>
            <trkpt lat="50.0212416" lon="9.628368">
                <ele>159.0</ele>
                <time>2020-08-28T12:31:21.000Z</time>
                <name>Trackpoint 4761</name>
            </trkpt>
            <trkpt lat="50.0212128" lon="9.6282704">
                <ele>159.0</ele>
                <time>2020-08-28T12:31:23.000Z</time>
                <name>Trackpoint 4762</name>
            </trkpt>
            <trkpt lat="50.0211776" lon="9.6281544">
                <ele>159.0</ele>
                <time>2020-08-28T12:31:25.000Z</time>
                <name>Trackpoint 4763</name>
            </trkpt>
            <trkpt lat="50.0211456" lon="9.6280344">
                <ele>159.0</ele>
                <time>2020-08-28T12:31:27.000Z</time>
                <name>Trackpoint 4764</name>
            </trkpt>
            <trkpt lat="50.0211136" lon="9.6279136">
                <ele>158.0</ele>
                <time>2020-08-28T12:31:29.000Z</time>
                <name>Trackpoint 4765</name>
            </trkpt>
            <trkpt lat="50.0210816" lon="9.6277912">
                <ele>158.0</ele>
                <time>2020-08-28T12:31:31.000Z</time>
                <name>Trackpoint 4766</name>
            </trkpt>
            <trkpt lat="50.0210368" lon="9.6276664">
                <ele>157.0</ele>
                <time>2020-08-28T12:31:33.000Z</time>
                <name>Trackpoint 4767</name>
            </trkpt>
            <trkpt lat="50.0209984" lon="9.6275368">
                <ele>157.0</ele>
                <time>2020-08-28T12:31:35.000Z</time>
                <name>Trackpoint 4768</name>
            </trkpt>
            <trkpt lat="50.0209632" lon="9.6274048">
                <ele>157.0</ele>
                <time>2020-08-28T12:31:37.000Z</time>
                <name>Trackpoint 4769</name>
            </trkpt>
            <trkpt lat="50.0209184" lon="9.6272736">
                <ele>157.0</ele>
                <time>2020-08-28T12:31:39.000Z</time>
                <name>Trackpoint 4770</name>
            </trkpt>
            <trkpt lat="50.0208832" lon="9.6271536">
                <ele>156.0</ele>
                <time>2020-08-28T12:31:41.000Z</time>
                <name>Trackpoint 4771</name>
            </trkpt>
            <trkpt lat="50.0208384" lon="9.6270288">
                <ele>157.0</ele>
                <time>2020-08-28T12:31:43.000Z</time>
                <name>Trackpoint 4772</name>
            </trkpt>
            <trkpt lat="50.0207936" lon="9.6268952">
                <ele>157.0</ele>
                <time>2020-08-28T12:31:45.000Z</time>
                <name>Trackpoint 4773</name>
            </trkpt>
            <trkpt lat="50.0207488" lon="9.6267656">
                <ele>158.0</ele>
                <time>2020-08-28T12:31:47.000Z</time>
                <name>Trackpoint 4774</name>
            </trkpt>
            <trkpt lat="50.0207104" lon="9.6266472">
                <ele>160.0</ele>
                <time>2020-08-28T12:31:49.000Z</time>
                <name>Trackpoint 4775</name>
            </trkpt>
            <trkpt lat="50.0206656" lon="9.6265288">
                <ele>158.0</ele>
                <time>2020-08-28T12:31:51.000Z</time>
                <name>Trackpoint 4776</name>
            </trkpt>
            <trkpt lat="50.0206176" lon="9.6264048">
                <ele>157.0</ele>
                <time>2020-08-28T12:31:53.000Z</time>
                <name>Trackpoint 4777</name>
            </trkpt>
            <trkpt lat="50.0205696" lon="9.6262712">
                <ele>158.0</ele>
                <time>2020-08-28T12:31:55.000Z</time>
                <name>Trackpoint 4778</name>
            </trkpt>
            <trkpt lat="50.0205216" lon="9.6261456">
                <ele>158.0</ele>
                <time>2020-08-28T12:31:57.000Z</time>
                <name>Trackpoint 4779</name>
            </trkpt>
            <trkpt lat="50.0204704" lon="9.626008">
                <ele>157.0</ele>
                <time>2020-08-28T12:31:59.000Z</time>
                <name>Trackpoint 4780</name>
            </trkpt>
            <trkpt lat="50.0204128" lon="9.6258736">
                <ele>158.0</ele>
                <time>2020-08-28T12:32:01.000Z</time>
                <name>Trackpoint 4781</name>
            </trkpt>
            <trkpt lat="50.0203616" lon="9.6257384">
                <ele>157.0</ele>
                <time>2020-08-28T12:32:03.000Z</time>
                <name>Trackpoint 4782</name>
            </trkpt>
            <trkpt lat="50.0203072" lon="9.6256064">
                <ele>157.0</ele>
                <time>2020-08-28T12:32:05.000Z</time>
                <name>Trackpoint 4783</name>
            </trkpt>
            <trkpt lat="50.0202496" lon="9.6254928">
                <ele>157.0</ele>
                <time>2020-08-28T12:32:07.000Z</time>
                <name>Trackpoint 4784</name>
            </trkpt>
            <trkpt lat="50.0201792" lon="9.625392">
                <ele>157.0</ele>
                <time>2020-08-28T12:32:09.000Z</time>
                <name>Trackpoint 4785</name>
            </trkpt>
            <trkpt lat="50.020112" lon="9.6252584">
                <ele>158.0</ele>
                <time>2020-08-28T12:32:11.000Z</time>
                <name>Trackpoint 4786</name>
            </trkpt>
            <trkpt lat="50.0200608" lon="9.6251096">
                <ele>158.0</ele>
                <time>2020-08-28T12:32:13.000Z</time>
                <name>Trackpoint 4787</name>
            </trkpt>
            <trkpt lat="50.0200128" lon="9.624964">
                <ele>157.0</ele>
                <time>2020-08-28T12:32:15.000Z</time>
                <name>Trackpoint 4788</name>
            </trkpt>
            <trkpt lat="50.0199616" lon="9.624812">
                <ele>157.0</ele>
                <time>2020-08-28T12:32:17.000Z</time>
                <name>Trackpoint 4789</name>
            </trkpt>
            <trkpt lat="50.0199232" lon="9.624648">
                <ele>155.0</ele>
                <time>2020-08-28T12:32:19.000Z</time>
                <name>Trackpoint 4790</name>
            </trkpt>
            <trkpt lat="50.0199008" lon="9.62448">
                <ele>154.0</ele>
                <time>2020-08-28T12:32:21.000Z</time>
                <name>Trackpoint 4791</name>
            </trkpt>
            <trkpt lat="50.0198784" lon="9.6243112">
                <ele>154.0</ele>
                <time>2020-08-28T12:32:23.000Z</time>
                <name>Trackpoint 4792</name>
            </trkpt>
            <trkpt lat="50.0198656" lon="9.6241448">
                <ele>155.0</ele>
                <time>2020-08-28T12:32:25.000Z</time>
                <name>Trackpoint 4793</name>
            </trkpt>
            <trkpt lat="50.019904" lon="9.6239664">
                <ele>157.0</ele>
                <time>2020-08-28T12:32:27.000Z</time>
                <name>Trackpoint 4794</name>
            </trkpt>
            <trkpt lat="50.0200096" lon="9.623828">
                <ele>157.0</ele>
                <time>2020-08-28T12:32:29.000Z</time>
                <name>Trackpoint 4795</name>
            </trkpt>
            <trkpt lat="50.0200576" lon="9.6237496">
                <ele>157.0</ele>
                <time>2020-08-28T12:32:30.000Z</time>
                <name>Trackpoint 4796</name>
            </trkpt>
            <trkpt lat="50.0201024" lon="9.6236696">
                <ele>156.0</ele>
                <time>2020-08-28T12:32:31.000Z</time>
                <name>Trackpoint 4797</name>
            </trkpt>
            <trkpt lat="50.0201568" lon="9.6235888">
                <ele>156.0</ele>
                <time>2020-08-28T12:32:32.000Z</time>
                <name>Trackpoint 4798</name>
            </trkpt>
            <trkpt lat="50.0202016" lon="9.6235064">
                <ele>156.0</ele>
                <time>2020-08-28T12:32:33.000Z</time>
                <name>Trackpoint 4799</name>
            </trkpt>
            <trkpt lat="50.0202976" lon="9.6233464">
                <ele>155.0</ele>
                <time>2020-08-28T12:32:35.000Z</time>
                <name>Trackpoint 4800</name>
            </trkpt>
            <trkpt lat="50.0203488" lon="9.6232632">
                <ele>155.0</ele>
                <time>2020-08-28T12:32:36.000Z</time>
                <name>Trackpoint 4801</name>
            </trkpt>
            <trkpt lat="50.0204416" lon="9.623108">
                <ele>154.0</ele>
                <time>2020-08-28T12:32:38.000Z</time>
                <name>Trackpoint 4802</name>
            </trkpt>
            <trkpt lat="50.0205344" lon="9.622956">
                <ele>154.0</ele>
                <time>2020-08-28T12:32:40.000Z</time>
                <name>Trackpoint 4803</name>
            </trkpt>
            <trkpt lat="50.0206208" lon="9.6228112">
                <ele>154.0</ele>
                <time>2020-08-28T12:32:42.000Z</time>
                <name>Trackpoint 4804</name>
            </trkpt>
            <trkpt lat="50.0206848" lon="9.6226656">
                <ele>154.0</ele>
                <time>2020-08-28T12:32:44.000Z</time>
                <name>Trackpoint 4805</name>
            </trkpt>
            <trkpt lat="50.0206688" lon="9.6225136">
                <ele>154.0</ele>
                <time>2020-08-28T12:32:46.000Z</time>
                <name>Trackpoint 4806</name>
            </trkpt>
            <trkpt lat="50.020608" lon="9.6223736">
                <ele>154.0</ele>
                <time>2020-08-28T12:32:48.000Z</time>
                <name>Trackpoint 4807</name>
            </trkpt>
            <trkpt lat="50.0205376" lon="9.6222232">
                <ele>154.0</ele>
                <time>2020-08-28T12:32:50.000Z</time>
                <name>Trackpoint 4808</name>
            </trkpt>
            <trkpt lat="50.0204672" lon="9.6220768">
                <ele>154.0</ele>
                <time>2020-08-28T12:32:52.000Z</time>
                <name>Trackpoint 4809</name>
            </trkpt>
            <trkpt lat="50.0203872" lon="9.6219368">
                <ele>154.0</ele>
                <time>2020-08-28T12:32:54.000Z</time>
                <name>Trackpoint 4810</name>
            </trkpt>
            <trkpt lat="50.0202976" lon="9.6217968">
                <ele>154.0</ele>
                <time>2020-08-28T12:32:56.000Z</time>
                <name>Trackpoint 4811</name>
            </trkpt>
            <trkpt lat="50.020208" lon="9.6216744">
                <ele>154.0</ele>
                <time>2020-08-28T12:32:58.000Z</time>
                <name>Trackpoint 4812</name>
            </trkpt>
            <trkpt lat="50.0201216" lon="9.6215552">
                <ele>154.0</ele>
                <time>2020-08-28T12:33:00.000Z</time>
                <name>Trackpoint 4813</name>
            </trkpt>
            <trkpt lat="50.0200768" lon="9.6214016">
                <ele>154.0</ele>
                <time>2020-08-28T12:33:02.000Z</time>
                <name>Trackpoint 4814</name>
            </trkpt>
            <trkpt lat="50.0200224" lon="9.621248">
                <ele>154.0</ele>
                <time>2020-08-28T12:33:04.000Z</time>
                <name>Trackpoint 4815</name>
            </trkpt>
            <trkpt lat="50.0199584" lon="9.621108">
                <ele>154.0</ele>
                <time>2020-08-28T12:33:06.000Z</time>
                <name>Trackpoint 4816</name>
            </trkpt>
            <trkpt lat="50.0198848" lon="9.6209632">
                <ele>154.0</ele>
                <time>2020-08-28T12:33:08.000Z</time>
                <name>Trackpoint 4817</name>
            </trkpt>
            <trkpt lat="50.0198144" lon="9.6208232">
                <ele>154.0</ele>
                <time>2020-08-28T12:33:10.000Z</time>
                <name>Trackpoint 4818</name>
            </trkpt>
            <trkpt lat="50.019744" lon="9.6206752">
                <ele>154.0</ele>
                <time>2020-08-28T12:33:12.000Z</time>
                <name>Trackpoint 4819</name>
            </trkpt>
            <trkpt lat="50.01968" lon="9.620532">
                <ele>154.0</ele>
                <time>2020-08-28T12:33:14.000Z</time>
                <name>Trackpoint 4820</name>
            </trkpt>
            <trkpt lat="50.0196128" lon="9.6203944">
                <ele>154.0</ele>
                <time>2020-08-28T12:33:16.000Z</time>
                <name>Trackpoint 4821</name>
            </trkpt>
            <trkpt lat="50.0195424" lon="9.6202552">
                <ele>154.0</ele>
                <time>2020-08-28T12:33:18.000Z</time>
                <name>Trackpoint 4822</name>
            </trkpt>
            <trkpt lat="50.0194688" lon="9.62012">
                <ele>154.0</ele>
                <time>2020-08-28T12:33:20.000Z</time>
                <name>Trackpoint 4823</name>
            </trkpt>
            <trkpt lat="50.0194016" lon="9.6199776">
                <ele>154.0</ele>
                <time>2020-08-28T12:33:22.000Z</time>
                <name>Trackpoint 4824</name>
            </trkpt>
            <trkpt lat="50.0193376" lon="9.6198352">
                <ele>154.0</ele>
                <time>2020-08-28T12:33:24.000Z</time>
                <name>Trackpoint 4825</name>
            </trkpt>
            <trkpt lat="50.0192704" lon="9.6197032">
                <ele>154.0</ele>
                <time>2020-08-28T12:33:26.000Z</time>
                <name>Trackpoint 4826</name>
            </trkpt>
            <trkpt lat="50.0192" lon="9.6195736">
                <ele>154.0</ele>
                <time>2020-08-28T12:33:28.000Z</time>
                <name>Trackpoint 4827</name>
            </trkpt>
            <trkpt lat="50.0191264" lon="9.6194464">
                <ele>154.0</ele>
                <time>2020-08-28T12:33:30.000Z</time>
                <name>Trackpoint 4828</name>
            </trkpt>
            <trkpt lat="50.019056" lon="9.61932">
                <ele>154.0</ele>
                <time>2020-08-28T12:33:32.000Z</time>
                <name>Trackpoint 4829</name>
            </trkpt>
            <trkpt lat="50.0189792" lon="9.619192">
                <ele>154.0</ele>
                <time>2020-08-28T12:33:34.000Z</time>
                <name>Trackpoint 4830</name>
            </trkpt>
            <trkpt lat="50.0189088" lon="9.6190544">
                <ele>154.0</ele>
                <time>2020-08-28T12:33:36.000Z</time>
                <name>Trackpoint 4831</name>
            </trkpt>
            <trkpt lat="50.0188448" lon="9.618932">
                <ele>154.0</ele>
                <time>2020-08-28T12:33:38.000Z</time>
                <name>Trackpoint 4832</name>
            </trkpt>
            <trkpt lat="50.0187808" lon="9.6188232">
                <ele>153.0</ele>
                <time>2020-08-28T12:33:40.000Z</time>
                <name>Trackpoint 4833</name>
            </trkpt>
            <trkpt lat="50.0187072" lon="9.6187096">
                <ele>153.0</ele>
                <time>2020-08-28T12:33:42.000Z</time>
                <name>Trackpoint 4834</name>
            </trkpt>
            <trkpt lat="50.0186304" lon="9.6185888">
                <ele>153.0</ele>
                <time>2020-08-28T12:33:44.000Z</time>
                <name>Trackpoint 4835</name>
            </trkpt>
            <trkpt lat="50.01856" lon="9.6184528">
                <ele>153.0</ele>
                <time>2020-08-28T12:33:46.000Z</time>
                <name>Trackpoint 4836</name>
            </trkpt>
            <trkpt lat="50.0184768" lon="9.6183416">
                <ele>153.0</ele>
                <time>2020-08-28T12:33:48.000Z</time>
                <name>Trackpoint 4837</name>
            </trkpt>
            <trkpt lat="50.0184096" lon="9.618208">
                <ele>153.0</ele>
                <time>2020-08-28T12:33:50.000Z</time>
                <name>Trackpoint 4838</name>
            </trkpt>
            <trkpt lat="50.0183456" lon="9.6180848">
                <ele>153.0</ele>
                <time>2020-08-28T12:33:52.000Z</time>
                <name>Trackpoint 4839</name>
            </trkpt>
            <trkpt lat="50.0182656" lon="9.617964">
                <ele>153.0</ele>
                <time>2020-08-28T12:33:54.000Z</time>
                <name>Trackpoint 4840</name>
            </trkpt>
            <trkpt lat="50.018192" lon="9.617844">
                <ele>153.0</ele>
                <time>2020-08-28T12:33:56.000Z</time>
                <name>Trackpoint 4841</name>
            </trkpt>
            <trkpt lat="50.0181184" lon="9.6177168">
                <ele>153.0</ele>
                <time>2020-08-28T12:33:58.000Z</time>
                <name>Trackpoint 4842</name>
            </trkpt>
            <trkpt lat="50.0180448" lon="9.6176032">
                <ele>153.0</ele>
                <time>2020-08-28T12:34:00.000Z</time>
                <name>Trackpoint 4843</name>
            </trkpt>
            <trkpt lat="50.017968" lon="9.6174768">
                <ele>153.0</ele>
                <time>2020-08-28T12:34:02.000Z</time>
                <name>Trackpoint 4844</name>
            </trkpt>
            <trkpt lat="50.0178976" lon="9.6173552">
                <ele>153.0</ele>
                <time>2020-08-28T12:34:04.000Z</time>
                <name>Trackpoint 4845</name>
            </trkpt>
            <trkpt lat="50.0178176" lon="9.6172216">
                <ele>153.0</ele>
                <time>2020-08-28T12:34:06.000Z</time>
                <name>Trackpoint 4846</name>
            </trkpt>
            <trkpt lat="50.0177472" lon="9.6170784">
                <ele>153.0</ele>
                <time>2020-08-28T12:34:08.000Z</time>
                <name>Trackpoint 4847</name>
            </trkpt>
            <trkpt lat="50.0176672" lon="9.6169256">
                <ele>153.0</ele>
                <time>2020-08-28T12:34:10.000Z</time>
                <name>Trackpoint 4848</name>
            </trkpt>
            <trkpt lat="50.0175872" lon="9.61678">
                <ele>153.0</ele>
                <time>2020-08-28T12:34:12.000Z</time>
                <name>Trackpoint 4849</name>
            </trkpt>
            <trkpt lat="50.0175008" lon="9.6166384">
                <ele>153.0</ele>
                <time>2020-08-28T12:34:14.000Z</time>
                <name>Trackpoint 4850</name>
            </trkpt>
            <trkpt lat="50.0174208" lon="9.6164952">
                <ele>153.0</ele>
                <time>2020-08-28T12:34:16.000Z</time>
                <name>Trackpoint 4851</name>
            </trkpt>
            <trkpt lat="50.0173408" lon="9.6163568">
                <ele>153.0</ele>
                <time>2020-08-28T12:34:18.000Z</time>
                <name>Trackpoint 4852</name>
            </trkpt>
            <trkpt lat="50.017296" lon="9.6162784">
                <ele>153.0</ele>
                <time>2020-08-28T12:34:19.000Z</time>
                <name>Trackpoint 4853</name>
            </trkpt>
            <trkpt lat="50.0172096" lon="9.6161336">
                <ele>153.0</ele>
                <time>2020-08-28T12:34:21.000Z</time>
                <name>Trackpoint 4854</name>
            </trkpt>
            <trkpt lat="50.0171264" lon="9.6159832">
                <ele>153.0</ele>
                <time>2020-08-28T12:34:23.000Z</time>
                <name>Trackpoint 4855</name>
            </trkpt>
            <trkpt lat="50.01704" lon="9.6158416">
                <ele>153.0</ele>
                <time>2020-08-28T12:34:25.000Z</time>
                <name>Trackpoint 4856</name>
            </trkpt>
            <trkpt lat="50.0169472" lon="9.6156928">
                <ele>153.0</ele>
                <time>2020-08-28T12:34:27.000Z</time>
                <name>Trackpoint 4857</name>
            </trkpt>
            <trkpt lat="50.016864" lon="9.6155456">
                <ele>153.0</ele>
                <time>2020-08-28T12:34:29.000Z</time>
                <name>Trackpoint 4858</name>
            </trkpt>
            <trkpt lat="50.016784" lon="9.6153944">
                <ele>153.0</ele>
                <time>2020-08-28T12:34:31.000Z</time>
                <name>Trackpoint 4859</name>
            </trkpt>
            <trkpt lat="50.0167008" lon="9.6152424">
                <ele>153.0</ele>
                <time>2020-08-28T12:34:33.000Z</time>
                <name>Trackpoint 4860</name>
            </trkpt>
            <trkpt lat="50.0166208" lon="9.6151088">
                <ele>153.0</ele>
                <time>2020-08-28T12:34:35.000Z</time>
                <name>Trackpoint 4861</name>
            </trkpt>
            <trkpt lat="50.0165472" lon="9.6149632">
                <ele>153.0</ele>
                <time>2020-08-28T12:34:37.000Z</time>
                <name>Trackpoint 4862</name>
            </trkpt>
            <trkpt lat="50.0164704" lon="9.6148264">
                <ele>153.0</ele>
                <time>2020-08-28T12:34:39.000Z</time>
                <name>Trackpoint 4863</name>
            </trkpt>
            <trkpt lat="50.0164032" lon="9.6147016">
                <ele>153.0</ele>
                <time>2020-08-28T12:34:41.000Z</time>
                <name>Trackpoint 4864</name>
            </trkpt>
            <trkpt lat="50.0163392" lon="9.6145848">
                <ele>153.0</ele>
                <time>2020-08-28T12:34:43.000Z</time>
                <name>Trackpoint 4865</name>
            </trkpt>
            <trkpt lat="50.0162784" lon="9.6144816">
                <ele>153.0</ele>
                <time>2020-08-28T12:34:45.000Z</time>
                <name>Trackpoint 4866</name>
            </trkpt>
            <trkpt lat="50.0162368" lon="9.6143704">
                <ele>152.0</ele>
                <time>2020-08-28T12:34:47.000Z</time>
                <name>Trackpoint 4867</name>
            </trkpt>
            <trkpt lat="50.0161728" lon="9.6142616">
                <ele>152.0</ele>
                <time>2020-08-28T12:34:49.000Z</time>
                <name>Trackpoint 4868</name>
            </trkpt>
            <trkpt lat="50.0161184" lon="9.6141752">
                <ele>152.0</ele>
                <time>2020-08-28T12:34:51.000Z</time>
                <name>Trackpoint 4869</name>
            </trkpt>
            <trkpt lat="50.016048" lon="9.6140672">
                <ele>152.0</ele>
                <time>2020-08-28T12:34:53.000Z</time>
                <name>Trackpoint 4870</name>
            </trkpt>
            <trkpt lat="50.0159872" lon="9.6139736">
                <ele>152.0</ele>
                <time>2020-08-28T12:34:55.000Z</time>
                <name>Trackpoint 4871</name>
            </trkpt>
            <trkpt lat="50.0159296" lon="9.6138824">
                <ele>152.0</ele>
                <time>2020-08-28T12:34:57.000Z</time>
                <name>Trackpoint 4872</name>
            </trkpt>
            <trkpt lat="50.0158752" lon="9.6138096">
                <ele>153.0</ele>
                <time>2020-08-28T12:34:59.000Z</time>
                <name>Trackpoint 4873</name>
            </trkpt>
            <trkpt lat="50.015824" lon="9.6137288">
                <ele>153.0</ele>
                <time>2020-08-28T12:35:01.000Z</time>
                <name>Trackpoint 4874</name>
            </trkpt>
            <trkpt lat="50.01576" lon="9.6136488">
                <ele>153.0</ele>
                <time>2020-08-28T12:35:03.000Z</time>
                <name>Trackpoint 4875</name>
            </trkpt>
            <trkpt lat="50.0156896" lon="9.6135552">
                <ele>152.0</ele>
                <time>2020-08-28T12:35:05.000Z</time>
                <name>Trackpoint 4876</name>
            </trkpt>
            <trkpt lat="50.0156096" lon="9.6134392">
                <ele>153.0</ele>
                <time>2020-08-28T12:35:07.000Z</time>
                <name>Trackpoint 4877</name>
            </trkpt>
            <trkpt lat="50.0155232" lon="9.613352">
                <ele>153.0</ele>
                <time>2020-08-28T12:35:09.000Z</time>
                <name>Trackpoint 4878</name>
            </trkpt>
            <trkpt lat="50.0154528" lon="9.6132472">
                <ele>153.0</ele>
                <time>2020-08-28T12:35:11.000Z</time>
                <name>Trackpoint 4879</name>
            </trkpt>
            <trkpt lat="50.015392" lon="9.6131496">
                <ele>153.0</ele>
                <time>2020-08-28T12:35:13.000Z</time>
                <name>Trackpoint 4880</name>
            </trkpt>
            <trkpt lat="50.0152928" lon="9.6130448">
                <ele>153.0</ele>
                <time>2020-08-28T12:35:15.000Z</time>
                <name>Trackpoint 4881</name>
            </trkpt>
            <trkpt lat="50.0151872" lon="9.6129112">
                <ele>153.0</ele>
                <time>2020-08-28T12:35:17.000Z</time>
                <name>Trackpoint 4882</name>
            </trkpt>
            <trkpt lat="50.0150976" lon="9.6127816">
                <ele>153.0</ele>
                <time>2020-08-28T12:35:19.000Z</time>
                <name>Trackpoint 4883</name>
            </trkpt>
            <trkpt lat="50.0149984" lon="9.6126432">
                <ele>152.0</ele>
                <time>2020-08-28T12:35:21.000Z</time>
                <name>Trackpoint 4884</name>
            </trkpt>
            <trkpt lat="50.0148992" lon="9.6125152">
                <ele>152.0</ele>
                <time>2020-08-28T12:35:23.000Z</time>
                <name>Trackpoint 4885</name>
            </trkpt>
            <trkpt lat="50.0148064" lon="9.6123864">
                <ele>152.0</ele>
                <time>2020-08-28T12:35:25.000Z</time>
                <name>Trackpoint 4886</name>
            </trkpt>
            <trkpt lat="50.0147136" lon="9.612244">
                <ele>152.0</ele>
                <time>2020-08-28T12:35:27.000Z</time>
                <name>Trackpoint 4887</name>
            </trkpt>
            <trkpt lat="50.0146176" lon="9.6121152">
                <ele>152.0</ele>
                <time>2020-08-28T12:35:29.000Z</time>
                <name>Trackpoint 4888</name>
            </trkpt>
            <trkpt lat="50.0145312" lon="9.6119832">
                <ele>152.0</ele>
                <time>2020-08-28T12:35:31.000Z</time>
                <name>Trackpoint 4889</name>
            </trkpt>
            <trkpt lat="50.0144352" lon="9.6118536">
                <ele>152.0</ele>
                <time>2020-08-28T12:35:33.000Z</time>
                <name>Trackpoint 4890</name>
            </trkpt>
            <trkpt lat="50.0143424" lon="9.6117232">
                <ele>152.0</ele>
                <time>2020-08-28T12:35:35.000Z</time>
                <name>Trackpoint 4891</name>
            </trkpt>
            <trkpt lat="50.014256" lon="9.6116016">
                <ele>152.0</ele>
                <time>2020-08-28T12:35:37.000Z</time>
                <name>Trackpoint 4892</name>
            </trkpt>
            <trkpt lat="50.0141632" lon="9.6114768">
                <ele>152.0</ele>
                <time>2020-08-28T12:35:39.000Z</time>
                <name>Trackpoint 4893</name>
            </trkpt>
            <trkpt lat="50.0140672" lon="9.6113504">
                <ele>152.0</ele>
                <time>2020-08-28T12:35:41.000Z</time>
                <name>Trackpoint 4894</name>
            </trkpt>
            <trkpt lat="50.0139808" lon="9.6112272">
                <ele>152.0</ele>
                <time>2020-08-28T12:35:43.000Z</time>
                <name>Trackpoint 4895</name>
            </trkpt>
            <trkpt lat="50.0138944" lon="9.6111072">
                <ele>152.0</ele>
                <time>2020-08-28T12:35:45.000Z</time>
                <name>Trackpoint 4896</name>
            </trkpt>
            <trkpt lat="50.0138016" lon="9.6109864">
                <ele>152.0</ele>
                <time>2020-08-28T12:35:47.000Z</time>
                <name>Trackpoint 4897</name>
            </trkpt>
            <trkpt lat="50.0137088" lon="9.6108664">
                <ele>152.0</ele>
                <time>2020-08-28T12:35:49.000Z</time>
                <name>Trackpoint 4898</name>
            </trkpt>
            <trkpt lat="50.0136192" lon="9.6107456">
                <ele>152.0</ele>
                <time>2020-08-28T12:35:51.000Z</time>
                <name>Trackpoint 4899</name>
            </trkpt>
            <trkpt lat="50.0135392" lon="9.6106232">
                <ele>152.0</ele>
                <time>2020-08-28T12:35:53.000Z</time>
                <name>Trackpoint 4900</name>
            </trkpt>
            <trkpt lat="50.0134464" lon="9.6105032">
                <ele>152.0</ele>
                <time>2020-08-28T12:35:55.000Z</time>
                <name>Trackpoint 4901</name>
            </trkpt>
            <trkpt lat="50.0133632" lon="9.6103848">
                <ele>152.0</ele>
                <time>2020-08-28T12:35:57.000Z</time>
                <name>Trackpoint 4902</name>
            </trkpt>
            <trkpt lat="50.01328" lon="9.6102696">
                <ele>152.0</ele>
                <time>2020-08-28T12:35:59.000Z</time>
                <name>Trackpoint 4903</name>
            </trkpt>
            <trkpt lat="50.0132064" lon="9.6101648">
                <ele>152.0</ele>
                <time>2020-08-28T12:36:01.000Z</time>
                <name>Trackpoint 4904</name>
            </trkpt>
            <trkpt lat="50.0131264" lon="9.6100504">
                <ele>152.0</ele>
                <time>2020-08-28T12:36:03.000Z</time>
                <name>Trackpoint 4905</name>
            </trkpt>
            <trkpt lat="50.0130496" lon="9.609928">
                <ele>152.0</ele>
                <time>2020-08-28T12:36:05.000Z</time>
                <name>Trackpoint 4906</name>
            </trkpt>
            <trkpt lat="50.0129696" lon="9.6098096">
                <ele>152.0</ele>
                <time>2020-08-28T12:36:07.000Z</time>
                <name>Trackpoint 4907</name>
            </trkpt>
            <trkpt lat="50.0128896" lon="9.6097024">
                <ele>152.0</ele>
                <time>2020-08-28T12:36:09.000Z</time>
                <name>Trackpoint 4908</name>
            </trkpt>
            <trkpt lat="50.0128032" lon="9.6095896">
                <ele>152.0</ele>
                <time>2020-08-28T12:36:11.000Z</time>
                <name>Trackpoint 4909</name>
            </trkpt>
            <trkpt lat="50.0127264" lon="9.609464">
                <ele>152.0</ele>
                <time>2020-08-28T12:36:13.000Z</time>
                <name>Trackpoint 4910</name>
            </trkpt>
            <trkpt lat="50.0126432" lon="9.6093464">
                <ele>152.0</ele>
                <time>2020-08-28T12:36:15.000Z</time>
                <name>Trackpoint 4911</name>
            </trkpt>
            <trkpt lat="50.0125504" lon="9.6092256">
                <ele>152.0</ele>
                <time>2020-08-28T12:36:17.000Z</time>
                <name>Trackpoint 4912</name>
            </trkpt>
            <trkpt lat="50.0124704" lon="9.6090944">
                <ele>152.0</ele>
                <time>2020-08-28T12:36:19.000Z</time>
                <name>Trackpoint 4913</name>
            </trkpt>
            <trkpt lat="50.0123904" lon="9.6089696">
                <ele>152.0</ele>
                <time>2020-08-28T12:36:21.000Z</time>
                <name>Trackpoint 4914</name>
            </trkpt>
            <trkpt lat="50.0122976" lon="9.60884">
                <ele>152.0</ele>
                <time>2020-08-28T12:36:23.000Z</time>
                <name>Trackpoint 4915</name>
            </trkpt>
            <trkpt lat="50.0122112" lon="9.6087168">
                <ele>152.0</ele>
                <time>2020-08-28T12:36:25.000Z</time>
                <name>Trackpoint 4916</name>
            </trkpt>
            <trkpt lat="50.0121088" lon="9.6085816">
                <ele>152.0</ele>
                <time>2020-08-28T12:36:27.000Z</time>
                <name>Trackpoint 4917</name>
            </trkpt>
            <trkpt lat="50.0120096" lon="9.6084472">
                <ele>152.0</ele>
                <time>2020-08-28T12:36:29.000Z</time>
                <name>Trackpoint 4918</name>
            </trkpt>
            <trkpt lat="50.0119136" lon="9.6083168">
                <ele>152.0</ele>
                <time>2020-08-28T12:36:31.000Z</time>
                <name>Trackpoint 4919</name>
            </trkpt>
            <trkpt lat="50.0118176" lon="9.6081848">
                <ele>152.0</ele>
                <time>2020-08-28T12:36:33.000Z</time>
                <name>Trackpoint 4920</name>
            </trkpt>
            <trkpt lat="50.0117248" lon="9.6080576">
                <ele>152.0</ele>
                <time>2020-08-28T12:36:35.000Z</time>
                <name>Trackpoint 4921</name>
            </trkpt>
            <trkpt lat="50.0116352" lon="9.607952">
                <ele>152.0</ele>
                <time>2020-08-28T12:36:37.000Z</time>
                <name>Trackpoint 4922</name>
            </trkpt>
            <trkpt lat="50.0115456" lon="9.6078568">
                <ele>152.0</ele>
                <time>2020-08-28T12:36:39.000Z</time>
                <name>Trackpoint 4923</name>
            </trkpt>
            <trkpt lat="50.0114624" lon="9.6077896">
                <ele>152.0</ele>
                <time>2020-08-28T12:36:41.000Z</time>
                <name>Trackpoint 4924</name>
            </trkpt>
            <trkpt lat="50.0113728" lon="9.6077672">
                <ele>152.0</ele>
                <time>2020-08-28T12:36:44.000Z</time>
                <name>Trackpoint 4925</name>
            </trkpt>
            <trkpt lat="50.0113248" lon="9.607688">
                <ele>152.0</ele>
                <time>2020-08-28T12:38:48.000Z</time>
                <name>Trackpoint 4926</name>
            </trkpt>
            <trkpt lat="50.01128" lon="9.6075696">
                <ele>152.0</ele>
                <time>2020-08-28T12:38:52.000Z</time>
                <name>Trackpoint 4927</name>
            </trkpt>
            <trkpt lat="50.011232" lon="9.6074896">
                <ele>152.0</ele>
                <time>2020-08-28T12:38:54.000Z</time>
                <name>Trackpoint 4928</name>
            </trkpt>
            <trkpt lat="50.011168" lon="9.6073968">
                <ele>151.0</ele>
                <time>2020-08-28T12:38:56.000Z</time>
                <name>Trackpoint 4929</name>
            </trkpt>
            <trkpt lat="50.011104" lon="9.607304">
                <ele>151.0</ele>
                <time>2020-08-28T12:38:58.000Z</time>
                <name>Trackpoint 4930</name>
            </trkpt>
            <trkpt lat="50.0110368" lon="9.6072064">
                <ele>151.0</ele>
                <time>2020-08-28T12:39:00.000Z</time>
                <name>Trackpoint 4931</name>
            </trkpt>
            <trkpt lat="50.0109792" lon="9.6071168">
                <ele>151.0</ele>
                <time>2020-08-28T12:39:02.000Z</time>
                <name>Trackpoint 4932</name>
            </trkpt>
            <trkpt lat="50.0109088" lon="9.6070144">
                <ele>152.0</ele>
                <time>2020-08-28T12:39:04.000Z</time>
                <name>Trackpoint 4933</name>
            </trkpt>
            <trkpt lat="50.0108288" lon="9.6069152">
                <ele>151.0</ele>
                <time>2020-08-28T12:39:06.000Z</time>
                <name>Trackpoint 4934</name>
            </trkpt>
            <trkpt lat="50.0107648" lon="9.6068152">
                <ele>151.0</ele>
                <time>2020-08-28T12:39:08.000Z</time>
                <name>Trackpoint 4935</name>
            </trkpt>
            <trkpt lat="50.0106976" lon="9.6067184">
                <ele>151.0</ele>
                <time>2020-08-28T12:39:10.000Z</time>
                <name>Trackpoint 4936</name>
            </trkpt>
            <trkpt lat="50.0106272" lon="9.6066176">
                <ele>151.0</ele>
                <time>2020-08-28T12:39:12.000Z</time>
                <name>Trackpoint 4937</name>
            </trkpt>
            <trkpt lat="50.010544" lon="9.6065128">
                <ele>152.0</ele>
                <time>2020-08-28T12:39:14.000Z</time>
                <name>Trackpoint 4938</name>
            </trkpt>
            <trkpt lat="50.010464" lon="9.6064056">
                <ele>151.0</ele>
                <time>2020-08-28T12:39:16.000Z</time>
                <name>Trackpoint 4939</name>
            </trkpt>
            <trkpt lat="50.0104" lon="9.6062936">
                <ele>151.0</ele>
                <time>2020-08-28T12:39:18.000Z</time>
                <name>Trackpoint 4940</name>
            </trkpt>
            <trkpt lat="50.0103392" lon="9.6061872">
                <ele>151.0</ele>
                <time>2020-08-28T12:39:20.000Z</time>
                <name>Trackpoint 4941</name>
            </trkpt>
            <trkpt lat="50.0102656" lon="9.60608">
                <ele>151.0</ele>
                <time>2020-08-28T12:39:22.000Z</time>
                <name>Trackpoint 4942</name>
            </trkpt>
            <trkpt lat="50.0101952" lon="9.6059688">
                <ele>151.0</ele>
                <time>2020-08-28T12:39:24.000Z</time>
                <name>Trackpoint 4943</name>
            </trkpt>
            <trkpt lat="50.0101152" lon="9.6058616">
                <ele>150.0</ele>
                <time>2020-08-28T12:39:26.000Z</time>
                <name>Trackpoint 4944</name>
            </trkpt>
            <trkpt lat="50.010048" lon="9.6057528">
                <ele>151.0</ele>
                <time>2020-08-28T12:39:28.000Z</time>
                <name>Trackpoint 4945</name>
            </trkpt>
            <trkpt lat="50.009984" lon="9.6056544">
                <ele>150.0</ele>
                <time>2020-08-28T12:39:30.000Z</time>
                <name>Trackpoint 4946</name>
            </trkpt>
            <trkpt lat="50.0099232" lon="9.6055496">
                <ele>151.0</ele>
                <time>2020-08-28T12:39:32.000Z</time>
                <name>Trackpoint 4947</name>
            </trkpt>
            <trkpt lat="50.0098656" lon="9.6054448">
                <ele>151.0</ele>
                <time>2020-08-28T12:39:34.000Z</time>
                <name>Trackpoint 4948</name>
            </trkpt>
            <trkpt lat="50.0097888" lon="9.6053248">
                <ele>150.0</ele>
                <time>2020-08-28T12:39:36.000Z</time>
                <name>Trackpoint 4949</name>
            </trkpt>
            <trkpt lat="50.0097088" lon="9.6052016">
                <ele>150.0</ele>
                <time>2020-08-28T12:39:38.000Z</time>
                <name>Trackpoint 4950</name>
            </trkpt>
            <trkpt lat="50.0096288" lon="9.6050784">
                <ele>150.0</ele>
                <time>2020-08-28T12:39:40.000Z</time>
                <name>Trackpoint 4951</name>
            </trkpt>
            <trkpt lat="50.0095488" lon="9.6049632">
                <ele>150.0</ele>
                <time>2020-08-28T12:39:42.000Z</time>
                <name>Trackpoint 4952</name>
            </trkpt>
            <trkpt lat="50.009472" lon="9.604848">
                <ele>150.0</ele>
                <time>2020-08-28T12:39:44.000Z</time>
                <name>Trackpoint 4953</name>
            </trkpt>
            <trkpt lat="50.0094048" lon="9.6047336">
                <ele>150.0</ele>
                <time>2020-08-28T12:39:46.000Z</time>
                <name>Trackpoint 4954</name>
            </trkpt>
            <trkpt lat="50.0093376" lon="9.6046264">
                <ele>150.0</ele>
                <time>2020-08-28T12:39:48.000Z</time>
                <name>Trackpoint 4955</name>
            </trkpt>
            <trkpt lat="50.0092576" lon="9.6045128">
                <ele>150.0</ele>
                <time>2020-08-28T12:39:50.000Z</time>
                <name>Trackpoint 4956</name>
            </trkpt>
            <trkpt lat="50.0091712" lon="9.6043904">
                <ele>150.0</ele>
                <time>2020-08-28T12:39:52.000Z</time>
                <name>Trackpoint 4957</name>
            </trkpt>
            <trkpt lat="50.009088" lon="9.6043104">
                <ele>150.0</ele>
                <time>2020-08-28T12:39:54.000Z</time>
                <name>Trackpoint 4958</name>
            </trkpt>
            <trkpt lat="50.0089952" lon="9.6042616">
                <ele>150.0</ele>
                <time>2020-08-28T12:39:56.000Z</time>
                <name>Trackpoint 4959</name>
            </trkpt>
            <trkpt lat="50.00888" lon="9.6043016">
                <ele>150.0</ele>
                <time>2020-08-28T12:39:59.000Z</time>
                <name>Trackpoint 4960</name>
            </trkpt>
            <trkpt lat="50.0088352" lon="9.604408">
                <ele>151.0</ele>
                <time>2020-08-28T12:40:01.000Z</time>
                <name>Trackpoint 4961</name>
            </trkpt>
            <trkpt lat="50.0087712" lon="9.6045168">
                <ele>151.0</ele>
                <time>2020-08-28T12:40:03.000Z</time>
                <name>Trackpoint 4962</name>
            </trkpt>
            <trkpt lat="50.0086944" lon="9.6045768">
                <ele>151.0</ele>
                <time>2020-08-28T12:40:05.000Z</time>
                <name>Trackpoint 4963</name>
            </trkpt>
            <trkpt lat="50.0086176" lon="9.60452">
                <ele>152.0</ele>
                <time>2020-08-28T12:40:07.000Z</time>
                <name>Trackpoint 4964</name>
            </trkpt>
            <trkpt lat="50.0085216" lon="9.6045216">
                <ele>152.0</ele>
                <time>2020-08-28T12:40:09.000Z</time>
                <name>Trackpoint 4965</name>
            </trkpt>
            <trkpt lat="50.0083936" lon="9.6044968">
                <ele>152.0</ele>
                <time>2020-08-28T12:40:12.000Z</time>
                <name>Trackpoint 4966</name>
            </trkpt>
            <trkpt lat="50.0083232" lon="9.6043952">
                <ele>153.0</ele>
                <time>2020-08-28T12:40:14.000Z</time>
                <name>Trackpoint 4967</name>
            </trkpt>
            <trkpt lat="50.0082592" lon="9.6042992">
                <ele>152.0</ele>
                <time>2020-08-28T12:40:16.000Z</time>
                <name>Trackpoint 4968</name>
            </trkpt>
            <trkpt lat="50.0081984" lon="9.6042">
                <ele>152.0</ele>
                <time>2020-08-28T12:40:18.000Z</time>
                <name>Trackpoint 4969</name>
            </trkpt>
            <trkpt lat="50.0081408" lon="9.6041072">
                <ele>152.0</ele>
                <time>2020-08-28T12:40:20.000Z</time>
                <name>Trackpoint 4970</name>
            </trkpt>
            <trkpt lat="50.0080864" lon="9.6040184">
                <ele>152.0</ele>
                <time>2020-08-28T12:40:22.000Z</time>
                <name>Trackpoint 4971</name>
            </trkpt>
            <trkpt lat="50.0080384" lon="9.6039384">
                <ele>152.0</ele>
                <time>2020-08-28T12:40:24.000Z</time>
                <name>Trackpoint 4972</name>
            </trkpt>
            <trkpt lat="50.0079904" lon="9.6038616">
                <ele>152.0</ele>
                <time>2020-08-28T12:40:26.000Z</time>
                <name>Trackpoint 4973</name>
            </trkpt>
            <trkpt lat="50.0079232" lon="9.6037504">
                <ele>151.0</ele>
                <time>2020-08-28T12:40:29.000Z</time>
                <name>Trackpoint 4974</name>
            </trkpt>
            <trkpt lat="50.0078592" lon="9.6036568">
                <ele>151.0</ele>
                <time>2020-08-28T12:40:32.000Z</time>
                <name>Trackpoint 4975</name>
            </trkpt>
            <trkpt lat="50.0078176" lon="9.6035768">
                <ele>151.0</ele>
                <time>2020-08-28T12:40:35.000Z</time>
                <name>Trackpoint 4976</name>
            </trkpt>
            <trkpt lat="50.0077632" lon="9.6035048">
                <ele>151.0</ele>
                <time>2020-08-28T12:40:39.000Z</time>
                <name>Trackpoint 4977</name>
            </trkpt>
            <trkpt lat="50.0076896" lon="9.6034248">
                <ele>151.0</ele>
                <time>2020-08-28T12:40:42.000Z</time>
                <name>Trackpoint 4978</name>
            </trkpt>
            <trkpt lat="50.0075744" lon="9.6034832">
                <ele>151.0</ele>
                <time>2020-08-28T12:40:45.000Z</time>
                <name>Trackpoint 4979</name>
            </trkpt>
            <trkpt lat="50.007488" lon="9.6035744">
                <ele>151.0</ele>
                <time>2020-08-28T12:40:47.000Z</time>
                <name>Trackpoint 4980</name>
            </trkpt>
            <trkpt lat="50.0074272" lon="9.6036952">
                <ele>151.0</ele>
                <time>2020-08-28T12:40:49.000Z</time>
                <name>Trackpoint 4981</name>
            </trkpt>
            <trkpt lat="50.0073696" lon="9.6038168">
                <ele>151.0</ele>
                <time>2020-08-28T12:40:51.000Z</time>
                <name>Trackpoint 4982</name>
            </trkpt>
            <trkpt lat="50.0073088" lon="9.6039312">
                <ele>151.0</ele>
                <time>2020-08-28T12:40:53.000Z</time>
                <name>Trackpoint 4983</name>
            </trkpt>
            <trkpt lat="50.007248" lon="9.6040432">
                <ele>151.0</ele>
                <time>2020-08-28T12:40:55.000Z</time>
                <name>Trackpoint 4984</name>
            </trkpt>
            <trkpt lat="50.0071872" lon="9.604152">
                <ele>152.0</ele>
                <time>2020-08-28T12:40:57.000Z</time>
                <name>Trackpoint 4985</name>
            </trkpt>
            <trkpt lat="50.0071328" lon="9.6042568">
                <ele>151.0</ele>
                <time>2020-08-28T12:40:59.000Z</time>
                <name>Trackpoint 4986</name>
            </trkpt>
            <trkpt lat="50.0070816" lon="9.6043432">
                <ele>152.0</ele>
                <time>2020-08-28T12:41:01.000Z</time>
                <name>Trackpoint 4987</name>
            </trkpt>
            <trkpt lat="50.006992" lon="9.604352">
                <ele>152.0</ele>
                <time>2020-08-28T12:41:04.000Z</time>
                <name>Trackpoint 4988</name>
            </trkpt>
            <trkpt lat="50.0069504" lon="9.6042616">
                <ele>153.0</ele>
                <time>2020-08-28T12:41:06.000Z</time>
                <name>Trackpoint 4989</name>
            </trkpt>
            <trkpt lat="50.0068928" lon="9.6041448">
                <ele>153.0</ele>
                <time>2020-08-28T12:41:08.000Z</time>
                <name>Trackpoint 4990</name>
            </trkpt>
            <trkpt lat="50.0068352" lon="9.6040264">
                <ele>153.0</ele>
                <time>2020-08-28T12:41:10.000Z</time>
                <name>Trackpoint 4991</name>
            </trkpt>
            <trkpt lat="50.0067744" lon="9.60388">
                <ele>154.0</ele>
                <time>2020-08-28T12:41:12.000Z</time>
                <name>Trackpoint 4992</name>
            </trkpt>
            <trkpt lat="50.00672" lon="9.6037648">
                <ele>154.0</ele>
                <time>2020-08-28T12:41:14.000Z</time>
                <name>Trackpoint 4993</name>
            </trkpt>
            <trkpt lat="50.006672" lon="9.6036432">
                <ele>153.0</ele>
                <time>2020-08-28T12:41:16.000Z</time>
                <name>Trackpoint 4994</name>
            </trkpt>
            <trkpt lat="50.0066144" lon="9.6035248">
                <ele>154.0</ele>
                <time>2020-08-28T12:41:18.000Z</time>
                <name>Trackpoint 4995</name>
            </trkpt>
            <trkpt lat="50.0065728" lon="9.6034048">
                <ele>155.0</ele>
                <time>2020-08-28T12:41:20.000Z</time>
                <name>Trackpoint 4996</name>
            </trkpt>
            <trkpt lat="50.0065216" lon="9.60328">
                <ele>154.0</ele>
                <time>2020-08-28T12:41:22.000Z</time>
                <name>Trackpoint 4997</name>
            </trkpt>
            <trkpt lat="50.0064768" lon="9.6031664">
                <ele>154.0</ele>
                <time>2020-08-28T12:41:24.000Z</time>
                <name>Trackpoint 4998</name>
            </trkpt>
            <trkpt lat="50.006432" lon="9.6030528">
                <ele>155.0</ele>
                <time>2020-08-28T12:41:26.000Z</time>
                <name>Trackpoint 4999</name>
            </trkpt>
            <trkpt lat="50.0063872" lon="9.6029416">
                <ele>155.0</ele>
                <time>2020-08-28T12:41:28.000Z</time>
                <name>Trackpoint 5000</name>
            </trkpt>
            <trkpt lat="50.0063392" lon="9.602832">
                <ele>155.0</ele>
                <time>2020-08-28T12:41:30.000Z</time>
                <name>Trackpoint 5001</name>
            </trkpt>
            <trkpt lat="50.006288" lon="9.6027216">
                <ele>155.0</ele>
                <time>2020-08-28T12:41:32.000Z</time>
                <name>Trackpoint 5002</name>
            </trkpt>
            <trkpt lat="50.0062336" lon="9.6026184">
                <ele>155.0</ele>
                <time>2020-08-28T12:41:34.000Z</time>
                <name>Trackpoint 5003</name>
            </trkpt>
            <trkpt lat="50.0061824" lon="9.6025168">
                <ele>155.0</ele>
                <time>2020-08-28T12:41:36.000Z</time>
                <name>Trackpoint 5004</name>
            </trkpt>
            <trkpt lat="50.0061312" lon="9.6024128">
                <ele>155.0</ele>
                <time>2020-08-28T12:41:38.000Z</time>
                <name>Trackpoint 5005</name>
            </trkpt>
            <trkpt lat="50.0060768" lon="9.602312">
                <ele>155.0</ele>
                <time>2020-08-28T12:41:40.000Z</time>
                <name>Trackpoint 5006</name>
            </trkpt>
            <trkpt lat="50.0060192" lon="9.6022104">
                <ele>155.0</ele>
                <time>2020-08-28T12:41:42.000Z</time>
                <name>Trackpoint 5007</name>
            </trkpt>
            <trkpt lat="50.0059648" lon="9.602108">
                <ele>155.0</ele>
                <time>2020-08-28T12:41:44.000Z</time>
                <name>Trackpoint 5008</name>
            </trkpt>
            <trkpt lat="50.0059104" lon="9.6020008">
                <ele>155.0</ele>
                <time>2020-08-28T12:41:46.000Z</time>
                <name>Trackpoint 5009</name>
            </trkpt>
            <trkpt lat="50.0058528" lon="9.6019024">
                <ele>155.0</ele>
                <time>2020-08-28T12:41:48.000Z</time>
                <name>Trackpoint 5010</name>
            </trkpt>
            <trkpt lat="50.005792" lon="9.6018016">
                <ele>155.0</ele>
                <time>2020-08-28T12:41:50.000Z</time>
                <name>Trackpoint 5011</name>
            </trkpt>
            <trkpt lat="50.0057312" lon="9.601704">
                <ele>155.0</ele>
                <time>2020-08-28T12:41:52.000Z</time>
                <name>Trackpoint 5012</name>
            </trkpt>
            <trkpt lat="50.005664" lon="9.601608">
                <ele>155.0</ele>
                <time>2020-08-28T12:41:54.000Z</time>
                <name>Trackpoint 5013</name>
            </trkpt>
            <trkpt lat="50.0055968" lon="9.6015032">
                <ele>155.0</ele>
                <time>2020-08-28T12:41:56.000Z</time>
                <name>Trackpoint 5014</name>
            </trkpt>
            <trkpt lat="50.00552" lon="9.6013896">
                <ele>155.0</ele>
                <time>2020-08-28T12:41:58.000Z</time>
                <name>Trackpoint 5015</name>
            </trkpt>
            <trkpt lat="50.0054528" lon="9.6012872">
                <ele>155.0</ele>
                <time>2020-08-28T12:42:00.000Z</time>
                <name>Trackpoint 5016</name>
            </trkpt>
            <trkpt lat="50.0053856" lon="9.6011712">
                <ele>155.0</ele>
                <time>2020-08-28T12:42:02.000Z</time>
                <name>Trackpoint 5017</name>
            </trkpt>
            <trkpt lat="50.0053216" lon="9.6010512">
                <ele>156.0</ele>
                <time>2020-08-28T12:42:04.000Z</time>
                <name>Trackpoint 5018</name>
            </trkpt>
            <trkpt lat="50.0052416" lon="9.6009264">
                <ele>156.0</ele>
                <time>2020-08-28T12:42:06.000Z</time>
                <name>Trackpoint 5019</name>
            </trkpt>
            <trkpt lat="50.005184" lon="9.6008184">
                <ele>156.0</ele>
                <time>2020-08-28T12:42:08.000Z</time>
                <name>Trackpoint 5020</name>
            </trkpt>
            <trkpt lat="50.0051232" lon="9.6007248">
                <ele>156.0</ele>
                <time>2020-08-28T12:42:10.000Z</time>
                <name>Trackpoint 5021</name>
            </trkpt>
            <trkpt lat="50.005072" lon="9.60062">
                <ele>156.0</ele>
                <time>2020-08-28T12:42:12.000Z</time>
                <name>Trackpoint 5022</name>
            </trkpt>
            <trkpt lat="50.0050208" lon="9.6005048">
                <ele>156.0</ele>
                <time>2020-08-28T12:42:14.000Z</time>
                <name>Trackpoint 5023</name>
            </trkpt>
            <trkpt lat="50.0049664" lon="9.6003848">
                <ele>156.0</ele>
                <time>2020-08-28T12:42:16.000Z</time>
                <name>Trackpoint 5024</name>
            </trkpt>
            <trkpt lat="50.0048992" lon="9.6002848">
                <ele>155.0</ele>
                <time>2020-08-28T12:42:18.000Z</time>
                <name>Trackpoint 5025</name>
            </trkpt>
            <trkpt lat="50.0048096" lon="9.6001904">
                <ele>155.0</ele>
                <time>2020-08-28T12:42:20.000Z</time>
                <name>Trackpoint 5026</name>
            </trkpt>
            <trkpt lat="50.0047296" lon="9.6000968">
                <ele>155.0</ele>
                <time>2020-08-28T12:42:22.000Z</time>
                <name>Trackpoint 5027</name>
            </trkpt>
            <trkpt lat="50.0046624" lon="9.5999816">
                <ele>155.0</ele>
                <time>2020-08-28T12:42:24.000Z</time>
                <name>Trackpoint 5028</name>
            </trkpt>
            <trkpt lat="50.0045952" lon="9.599872">
                <ele>155.0</ele>
                <time>2020-08-28T12:42:26.000Z</time>
                <name>Trackpoint 5029</name>
            </trkpt>
            <trkpt lat="50.0045312" lon="9.5997696">
                <ele>155.0</ele>
                <time>2020-08-28T12:42:28.000Z</time>
                <name>Trackpoint 5030</name>
            </trkpt>
            <trkpt lat="50.00448" lon="9.59968">
                <ele>155.0</ele>
                <time>2020-08-28T12:42:31.000Z</time>
                <name>Trackpoint 5031</name>
            </trkpt>
            <trkpt lat="50.0044352" lon="9.5995968">
                <ele>155.0</ele>
                <time>2020-08-28T12:43:18.000Z</time>
                <name>Trackpoint 5032</name>
            </trkpt>
            <trkpt lat="50.0043904" lon="9.5995184">
                <ele>155.0</ele>
                <time>2020-08-28T12:43:21.000Z</time>
                <name>Trackpoint 5033</name>
            </trkpt>
            <trkpt lat="50.0043296" lon="9.5994264">
                <ele>155.0</ele>
                <time>2020-08-28T12:43:25.000Z</time>
                <name>Trackpoint 5034</name>
            </trkpt>
            <trkpt lat="50.0042656" lon="9.599312">
                <ele>155.0</ele>
                <time>2020-08-28T12:43:29.000Z</time>
                <name>Trackpoint 5035</name>
            </trkpt>
            <trkpt lat="50.0042144" lon="9.5992296">
                <ele>155.0</ele>
                <time>2020-08-28T12:43:31.000Z</time>
                <name>Trackpoint 5036</name>
            </trkpt>
            <trkpt lat="50.0041504" lon="9.5991272">
                <ele>154.0</ele>
                <time>2020-08-28T12:43:33.000Z</time>
                <name>Trackpoint 5037</name>
            </trkpt>
            <trkpt lat="50.0040832" lon="9.5990088">
                <ele>154.0</ele>
                <time>2020-08-28T12:43:35.000Z</time>
                <name>Trackpoint 5038</name>
            </trkpt>
            <trkpt lat="50.0040064" lon="9.5988768">
                <ele>154.0</ele>
                <time>2020-08-28T12:43:37.000Z</time>
                <name>Trackpoint 5039</name>
            </trkpt>
            <trkpt lat="50.0039488" lon="9.5988056">
                <ele>154.0</ele>
                <time>2020-08-28T12:43:38.000Z</time>
                <name>Trackpoint 5040</name>
            </trkpt>
            <trkpt lat="50.0038688" lon="9.5986616">
                <ele>154.0</ele>
                <time>2020-08-28T12:43:40.000Z</time>
                <name>Trackpoint 5041</name>
            </trkpt>
            <trkpt lat="50.0038304" lon="9.59858">
                <ele>154.0</ele>
                <time>2020-08-28T12:43:41.000Z</time>
                <name>Trackpoint 5042</name>
            </trkpt>
            <trkpt lat="50.0037856" lon="9.5984984">
                <ele>154.0</ele>
                <time>2020-08-28T12:43:42.000Z</time>
                <name>Trackpoint 5043</name>
            </trkpt>
            <trkpt lat="50.0037504" lon="9.5984152">
                <ele>154.0</ele>
                <time>2020-08-28T12:43:43.000Z</time>
                <name>Trackpoint 5044</name>
            </trkpt>
            <trkpt lat="50.003712" lon="9.5983296">
                <ele>154.0</ele>
                <time>2020-08-28T12:43:44.000Z</time>
                <name>Trackpoint 5045</name>
            </trkpt>
            <trkpt lat="50.0036768" lon="9.598244">
                <ele>154.0</ele>
                <time>2020-08-28T12:43:45.000Z</time>
                <name>Trackpoint 5046</name>
            </trkpt>
            <trkpt lat="50.003648" lon="9.5981568">
                <ele>154.0</ele>
                <time>2020-08-28T12:43:46.000Z</time>
                <name>Trackpoint 5047</name>
            </trkpt>
            <trkpt lat="50.0036128" lon="9.5980656">
                <ele>154.0</ele>
                <time>2020-08-28T12:43:47.000Z</time>
                <name>Trackpoint 5048</name>
            </trkpt>
            <trkpt lat="50.0035776" lon="9.5979768">
                <ele>153.0</ele>
                <time>2020-08-28T12:43:48.000Z</time>
                <name>Trackpoint 5049</name>
            </trkpt>
            <trkpt lat="50.0035392" lon="9.5978896">
                <ele>153.0</ele>
                <time>2020-08-28T12:43:49.000Z</time>
                <name>Trackpoint 5050</name>
            </trkpt>
            <trkpt lat="50.0035008" lon="9.5978016">
                <ele>154.0</ele>
                <time>2020-08-28T12:43:50.000Z</time>
                <name>Trackpoint 5051</name>
            </trkpt>
            <trkpt lat="50.0034624" lon="9.597716">
                <ele>153.0</ele>
                <time>2020-08-28T12:43:51.000Z</time>
                <name>Trackpoint 5052</name>
            </trkpt>
            <trkpt lat="50.0034304" lon="9.5976248">
                <ele>154.0</ele>
                <time>2020-08-28T12:43:52.000Z</time>
                <name>Trackpoint 5053</name>
            </trkpt>
            <trkpt lat="50.0033952" lon="9.5975312">
                <ele>154.0</ele>
                <time>2020-08-28T12:43:53.000Z</time>
                <name>Trackpoint 5054</name>
            </trkpt>
            <trkpt lat="50.00336" lon="9.5974368">
                <ele>154.0</ele>
                <time>2020-08-28T12:43:54.000Z</time>
                <name>Trackpoint 5055</name>
            </trkpt>
            <trkpt lat="50.003328" lon="9.5973464">
                <ele>154.0</ele>
                <time>2020-08-28T12:43:55.000Z</time>
                <name>Trackpoint 5056</name>
            </trkpt>
            <trkpt lat="50.0032928" lon="9.5972536">
                <ele>154.0</ele>
                <time>2020-08-28T12:43:56.000Z</time>
                <name>Trackpoint 5057</name>
            </trkpt>
            <trkpt lat="50.0032608" lon="9.5971632">
                <ele>154.0</ele>
                <time>2020-08-28T12:43:57.000Z</time>
                <name>Trackpoint 5058</name>
            </trkpt>
            <trkpt lat="50.0032224" lon="9.5970752">
                <ele>154.0</ele>
                <time>2020-08-28T12:43:58.000Z</time>
                <name>Trackpoint 5059</name>
            </trkpt>
            <trkpt lat="50.0031936" lon="9.59698">
                <ele>154.0</ele>
                <time>2020-08-28T12:43:59.000Z</time>
                <name>Trackpoint 5060</name>
            </trkpt>
            <trkpt lat="50.0031584" lon="9.5968952">
                <ele>154.0</ele>
                <time>2020-08-28T12:44:00.000Z</time>
                <name>Trackpoint 5061</name>
            </trkpt>
            <trkpt lat="50.0031232" lon="9.5968064">
                <ele>154.0</ele>
                <time>2020-08-28T12:44:01.000Z</time>
                <name>Trackpoint 5062</name>
            </trkpt>
            <trkpt lat="50.0030912" lon="9.5967128">
                <ele>154.0</ele>
                <time>2020-08-28T12:44:02.000Z</time>
                <name>Trackpoint 5063</name>
            </trkpt>
            <trkpt lat="50.0030592" lon="9.5966216">
                <ele>154.0</ele>
                <time>2020-08-28T12:44:03.000Z</time>
                <name>Trackpoint 5064</name>
            </trkpt>
            <trkpt lat="50.0030304" lon="9.5965336">
                <ele>153.0</ele>
                <time>2020-08-28T12:44:04.000Z</time>
                <name>Trackpoint 5065</name>
            </trkpt>
            <trkpt lat="50.0029952" lon="9.596448">
                <ele>153.0</ele>
                <time>2020-08-28T12:44:05.000Z</time>
                <name>Trackpoint 5066</name>
            </trkpt>
            <trkpt lat="50.00296" lon="9.5963632">
                <ele>153.0</ele>
                <time>2020-08-28T12:44:06.000Z</time>
                <name>Trackpoint 5067</name>
            </trkpt>
            <trkpt lat="50.0029248" lon="9.5962752">
                <ele>153.0</ele>
                <time>2020-08-28T12:44:07.000Z</time>
                <name>Trackpoint 5068</name>
            </trkpt>
            <trkpt lat="50.0028928" lon="9.5961888">
                <ele>153.0</ele>
                <time>2020-08-28T12:44:08.000Z</time>
                <name>Trackpoint 5069</name>
            </trkpt>
            <trkpt lat="50.0028576" lon="9.5961016">
                <ele>153.0</ele>
                <time>2020-08-28T12:44:09.000Z</time>
                <name>Trackpoint 5070</name>
            </trkpt>
            <trkpt lat="50.0028192" lon="9.5960128">
                <ele>153.0</ele>
                <time>2020-08-28T12:44:10.000Z</time>
                <name>Trackpoint 5071</name>
            </trkpt>
            <trkpt lat="50.002784" lon="9.5959256">
                <ele>153.0</ele>
                <time>2020-08-28T12:44:11.000Z</time>
                <name>Trackpoint 5072</name>
            </trkpt>
            <trkpt lat="50.0027488" lon="9.595832">
                <ele>153.0</ele>
                <time>2020-08-28T12:44:12.000Z</time>
                <name>Trackpoint 5073</name>
            </trkpt>
            <trkpt lat="50.0027168" lon="9.5957432">
                <ele>153.0</ele>
                <time>2020-08-28T12:44:13.000Z</time>
                <name>Trackpoint 5074</name>
            </trkpt>
            <trkpt lat="50.0026816" lon="9.5956552">
                <ele>153.0</ele>
                <time>2020-08-28T12:44:14.000Z</time>
                <name>Trackpoint 5075</name>
            </trkpt>
            <trkpt lat="50.0026464" lon="9.5955648">
                <ele>153.0</ele>
                <time>2020-08-28T12:44:15.000Z</time>
                <name>Trackpoint 5076</name>
            </trkpt>
            <trkpt lat="50.0026144" lon="9.5954752">
                <ele>153.0</ele>
                <time>2020-08-28T12:44:16.000Z</time>
                <name>Trackpoint 5077</name>
            </trkpt>
            <trkpt lat="50.002576" lon="9.5953864">
                <ele>153.0</ele>
                <time>2020-08-28T12:44:17.000Z</time>
                <name>Trackpoint 5078</name>
            </trkpt>
            <trkpt lat="50.0025376" lon="9.5952968">
                <ele>153.0</ele>
                <time>2020-08-28T12:44:18.000Z</time>
                <name>Trackpoint 5079</name>
            </trkpt>
            <trkpt lat="50.0024992" lon="9.5952104">
                <ele>153.0</ele>
                <time>2020-08-28T12:44:19.000Z</time>
                <name>Trackpoint 5080</name>
            </trkpt>
            <trkpt lat="50.002464" lon="9.5951232">
                <ele>153.0</ele>
                <time>2020-08-28T12:44:20.000Z</time>
                <name>Trackpoint 5081</name>
            </trkpt>
            <trkpt lat="50.0024288" lon="9.595032">
                <ele>153.0</ele>
                <time>2020-08-28T12:44:21.000Z</time>
                <name>Trackpoint 5082</name>
            </trkpt>
            <trkpt lat="50.0023968" lon="9.5949448">
                <ele>153.0</ele>
                <time>2020-08-28T12:44:22.000Z</time>
                <name>Trackpoint 5083</name>
            </trkpt>
            <trkpt lat="50.0023584" lon="9.5948552">
                <ele>153.0</ele>
                <time>2020-08-28T12:44:23.000Z</time>
                <name>Trackpoint 5084</name>
            </trkpt>
            <trkpt lat="50.0023264" lon="9.5947664">
                <ele>153.0</ele>
                <time>2020-08-28T12:44:24.000Z</time>
                <name>Trackpoint 5085</name>
            </trkpt>
            <trkpt lat="50.002288" lon="9.59468">
                <ele>153.0</ele>
                <time>2020-08-28T12:44:25.000Z</time>
                <name>Trackpoint 5086</name>
            </trkpt>
            <trkpt lat="50.0022592" lon="9.5945904">
                <ele>153.0</ele>
                <time>2020-08-28T12:44:26.000Z</time>
                <name>Trackpoint 5087</name>
            </trkpt>
            <trkpt lat="50.0022208" lon="9.5945056">
                <ele>153.0</ele>
                <time>2020-08-28T12:44:27.000Z</time>
                <name>Trackpoint 5088</name>
            </trkpt>
            <trkpt lat="50.0021856" lon="9.5944216">
                <ele>153.0</ele>
                <time>2020-08-28T12:44:28.000Z</time>
                <name>Trackpoint 5089</name>
            </trkpt>
            <trkpt lat="50.0021504" lon="9.5943344">
                <ele>153.0</ele>
                <time>2020-08-28T12:44:29.000Z</time>
                <name>Trackpoint 5090</name>
            </trkpt>
            <trkpt lat="50.0020864" lon="9.5941688">
                <ele>153.0</ele>
                <time>2020-08-28T12:44:31.000Z</time>
                <name>Trackpoint 5091</name>
            </trkpt>
            <trkpt lat="50.0020224" lon="9.5940048">
                <ele>153.0</ele>
                <time>2020-08-28T12:44:33.000Z</time>
                <name>Trackpoint 5092</name>
            </trkpt>
            <trkpt lat="50.0019616" lon="9.5938568">
                <ele>152.0</ele>
                <time>2020-08-28T12:44:35.000Z</time>
                <name>Trackpoint 5093</name>
            </trkpt>
            <trkpt lat="50.0019008" lon="9.593712">
                <ele>152.0</ele>
                <time>2020-08-28T12:44:37.000Z</time>
                <name>Trackpoint 5094</name>
            </trkpt>
            <trkpt lat="50.0018784" lon="9.5935648">
                <ele>151.0</ele>
                <time>2020-08-28T12:44:39.000Z</time>
                <name>Trackpoint 5095</name>
            </trkpt>
            <trkpt lat="50.0018912" lon="9.5934712">
                <ele>152.0</ele>
                <time>2020-08-28T12:44:40.000Z</time>
                <name>Trackpoint 5096</name>
            </trkpt>
            <trkpt lat="50.0019232" lon="9.593364">
                <ele>153.0</ele>
                <time>2020-08-28T12:44:41.000Z</time>
                <name>Trackpoint 5097</name>
            </trkpt>
            <trkpt lat="50.0019392" lon="9.593264">
                <ele>153.0</ele>
                <time>2020-08-28T12:44:42.000Z</time>
                <name>Trackpoint 5098</name>
            </trkpt>
            <trkpt lat="50.0019424" lon="9.5931632">
                <ele>153.0</ele>
                <time>2020-08-28T12:44:43.000Z</time>
                <name>Trackpoint 5099</name>
            </trkpt>
            <trkpt lat="50.0019392" lon="9.5930616">
                <ele>153.0</ele>
                <time>2020-08-28T12:44:44.000Z</time>
                <name>Trackpoint 5100</name>
            </trkpt>
            <trkpt lat="50.0019136" lon="9.5929672">
                <ele>153.0</ele>
                <time>2020-08-28T12:44:45.000Z</time>
                <name>Trackpoint 5101</name>
            </trkpt>
            <trkpt lat="50.0018848" lon="9.5928784">
                <ele>153.0</ele>
                <time>2020-08-28T12:44:46.000Z</time>
                <name>Trackpoint 5102</name>
            </trkpt>
            <trkpt lat="50.0018464" lon="9.5927936">
                <ele>152.0</ele>
                <time>2020-08-28T12:44:47.000Z</time>
                <name>Trackpoint 5103</name>
            </trkpt>
            <trkpt lat="50.0017632" lon="9.5926336">
                <ele>152.0</ele>
                <time>2020-08-28T12:44:49.000Z</time>
                <name>Trackpoint 5104</name>
            </trkpt>
            <trkpt lat="50.0017248" lon="9.5925504">
                <ele>152.0</ele>
                <time>2020-08-28T12:44:50.000Z</time>
                <name>Trackpoint 5105</name>
            </trkpt>
            <trkpt lat="50.001648" lon="9.592392">
                <ele>152.0</ele>
                <time>2020-08-28T12:44:52.000Z</time>
                <name>Trackpoint 5106</name>
            </trkpt>
            <trkpt lat="50.0016096" lon="9.5923072">
                <ele>152.0</ele>
                <time>2020-08-28T12:44:53.000Z</time>
                <name>Trackpoint 5107</name>
            </trkpt>
            <trkpt lat="50.0015744" lon="9.5922232">
                <ele>152.0</ele>
                <time>2020-08-28T12:44:54.000Z</time>
                <name>Trackpoint 5108</name>
            </trkpt>
            <trkpt lat="50.0015072" lon="9.5920512">
                <ele>152.0</ele>
                <time>2020-08-28T12:44:56.000Z</time>
                <name>Trackpoint 5109</name>
            </trkpt>
            <trkpt lat="50.0014816" lon="9.5919616">
                <ele>152.0</ele>
                <time>2020-08-28T12:44:57.000Z</time>
                <name>Trackpoint 5110</name>
            </trkpt>
            <trkpt lat="50.0014368" lon="9.5918768">
                <ele>152.0</ele>
                <time>2020-08-28T12:44:58.000Z</time>
                <name>Trackpoint 5111</name>
            </trkpt>
            <trkpt lat="50.0013984" lon="9.5917864">
                <ele>152.0</ele>
                <time>2020-08-28T12:44:59.000Z</time>
                <name>Trackpoint 5112</name>
            </trkpt>
            <trkpt lat="50.0013664" lon="9.5916968">
                <ele>152.0</ele>
                <time>2020-08-28T12:45:00.000Z</time>
                <name>Trackpoint 5113</name>
            </trkpt>
            <trkpt lat="50.0013344" lon="9.591608">
                <ele>152.0</ele>
                <time>2020-08-28T12:45:01.000Z</time>
                <name>Trackpoint 5114</name>
            </trkpt>
            <trkpt lat="50.001296" lon="9.59152">
                <ele>152.0</ele>
                <time>2020-08-28T12:45:02.000Z</time>
                <name>Trackpoint 5115</name>
            </trkpt>
            <trkpt lat="50.0012544" lon="9.5914296">
                <ele>152.0</ele>
                <time>2020-08-28T12:45:03.000Z</time>
                <name>Trackpoint 5116</name>
            </trkpt>
            <trkpt lat="50.001216" lon="9.5913448">
                <ele>152.0</ele>
                <time>2020-08-28T12:45:04.000Z</time>
                <name>Trackpoint 5117</name>
            </trkpt>
            <trkpt lat="50.001136" lon="9.5911928">
                <ele>152.0</ele>
                <time>2020-08-28T12:45:06.000Z</time>
                <name>Trackpoint 5118</name>
            </trkpt>
            <trkpt lat="50.001056" lon="9.5910464">
                <ele>152.0</ele>
                <time>2020-08-28T12:45:08.000Z</time>
                <name>Trackpoint 5119</name>
            </trkpt>
            <trkpt lat="50.0010208" lon="9.5909632">
                <ele>152.0</ele>
                <time>2020-08-28T12:45:09.000Z</time>
                <name>Trackpoint 5120</name>
            </trkpt>
            <trkpt lat="50.0009888" lon="9.5908784">
                <ele>151.0</ele>
                <time>2020-08-28T12:45:10.000Z</time>
                <name>Trackpoint 5121</name>
            </trkpt>
            <trkpt lat="50.0009152" lon="9.5907136">
                <ele>151.0</ele>
                <time>2020-08-28T12:45:12.000Z</time>
                <name>Trackpoint 5122</name>
            </trkpt>
            <trkpt lat="50.0008768" lon="9.5906312">
                <ele>151.0</ele>
                <time>2020-08-28T12:45:13.000Z</time>
                <name>Trackpoint 5123</name>
            </trkpt>
            <trkpt lat="50.0008096" lon="9.5904752">
                <ele>151.0</ele>
                <time>2020-08-28T12:45:15.000Z</time>
                <name>Trackpoint 5124</name>
            </trkpt>
            <trkpt lat="50.000768" lon="9.5903904">
                <ele>151.0</ele>
                <time>2020-08-28T12:45:16.000Z</time>
                <name>Trackpoint 5125</name>
            </trkpt>
            <trkpt lat="50.0006912" lon="9.5902368">
                <ele>151.0</ele>
                <time>2020-08-28T12:45:18.000Z</time>
                <name>Trackpoint 5126</name>
            </trkpt>
            <trkpt lat="50.000608" lon="9.590092">
                <ele>151.0</ele>
                <time>2020-08-28T12:45:20.000Z</time>
                <name>Trackpoint 5127</name>
            </trkpt>
            <trkpt lat="50.0005344" lon="9.5899664">
                <ele>150.0</ele>
                <time>2020-08-28T12:45:22.000Z</time>
                <name>Trackpoint 5128</name>
            </trkpt>
            <trkpt lat="50.0004608" lon="9.5898264">
                <ele>150.0</ele>
                <time>2020-08-28T12:45:24.000Z</time>
                <name>Trackpoint 5129</name>
            </trkpt>
            <trkpt lat="50.0003936" lon="9.5896856">
                <ele>150.0</ele>
                <time>2020-08-28T12:45:26.000Z</time>
                <name>Trackpoint 5130</name>
            </trkpt>
            <trkpt lat="50.0003168" lon="9.5895504">
                <ele>150.0</ele>
                <time>2020-08-28T12:45:28.000Z</time>
                <name>Trackpoint 5131</name>
            </trkpt>
            <trkpt lat="50.0002336" lon="9.5894136">
                <ele>150.0</ele>
                <time>2020-08-28T12:45:30.000Z</time>
                <name>Trackpoint 5132</name>
            </trkpt>
            <trkpt lat="50.0001536" lon="9.5892712">
                <ele>150.0</ele>
                <time>2020-08-28T12:45:32.000Z</time>
                <name>Trackpoint 5133</name>
            </trkpt>
            <trkpt lat="50.0000672" lon="9.5891352">
                <ele>150.0</ele>
                <time>2020-08-28T12:45:34.000Z</time>
                <name>Trackpoint 5134</name>
            </trkpt>
            <trkpt lat="49.9999872" lon="9.5890056">
                <ele>150.0</ele>
                <time>2020-08-28T12:45:36.000Z</time>
                <name>Trackpoint 5135</name>
            </trkpt>
            <trkpt lat="49.9999136" lon="9.5888544">
                <ele>151.0</ele>
                <time>2020-08-28T12:45:38.000Z</time>
                <name>Trackpoint 5136</name>
            </trkpt>
            <trkpt lat="49.999824" lon="9.5887168">
                <ele>151.0</ele>
                <time>2020-08-28T12:45:40.000Z</time>
                <name>Trackpoint 5137</name>
            </trkpt>
            <trkpt lat="49.9997408" lon="9.5885664">
                <ele>151.0</ele>
                <time>2020-08-28T12:45:42.000Z</time>
                <name>Trackpoint 5138</name>
            </trkpt>
            <trkpt lat="49.9996576" lon="9.588424">
                <ele>151.0</ele>
                <time>2020-08-28T12:45:44.000Z</time>
                <name>Trackpoint 5139</name>
            </trkpt>
            <trkpt lat="49.9995808" lon="9.588288">
                <ele>150.0</ele>
                <time>2020-08-28T12:45:46.000Z</time>
                <name>Trackpoint 5140</name>
            </trkpt>
            <trkpt lat="49.9994976" lon="9.588152">
                <ele>150.0</ele>
                <time>2020-08-28T12:45:48.000Z</time>
                <name>Trackpoint 5141</name>
            </trkpt>
            <trkpt lat="49.9994176" lon="9.5880168">
                <ele>150.0</ele>
                <time>2020-08-28T12:45:50.000Z</time>
                <name>Trackpoint 5142</name>
            </trkpt>
            <trkpt lat="49.9993408" lon="9.5878848">
                <ele>150.0</ele>
                <time>2020-08-28T12:45:52.000Z</time>
                <name>Trackpoint 5143</name>
            </trkpt>
            <trkpt lat="49.9992512" lon="9.5877536">
                <ele>150.0</ele>
                <time>2020-08-28T12:45:54.000Z</time>
                <name>Trackpoint 5144</name>
            </trkpt>
            <trkpt lat="49.9991776" lon="9.5876216">
                <ele>150.0</ele>
                <time>2020-08-28T12:45:56.000Z</time>
                <name>Trackpoint 5145</name>
            </trkpt>
            <trkpt lat="49.9990912" lon="9.5874856">
                <ele>150.0</ele>
                <time>2020-08-28T12:45:58.000Z</time>
                <name>Trackpoint 5146</name>
            </trkpt>
            <trkpt lat="49.9990048" lon="9.5873568">
                <ele>150.0</ele>
                <time>2020-08-28T12:46:00.000Z</time>
                <name>Trackpoint 5147</name>
            </trkpt>
            <trkpt lat="49.998928" lon="9.5872232">
                <ele>150.0</ele>
                <time>2020-08-28T12:46:02.000Z</time>
                <name>Trackpoint 5148</name>
            </trkpt>
            <trkpt lat="49.998848" lon="9.5871032">
                <ele>150.0</ele>
                <time>2020-08-28T12:46:04.000Z</time>
                <name>Trackpoint 5149</name>
            </trkpt>
            <trkpt lat="49.9987712" lon="9.5869952">
                <ele>150.0</ele>
                <time>2020-08-28T12:46:06.000Z</time>
                <name>Trackpoint 5150</name>
            </trkpt>
            <trkpt lat="49.998704" lon="9.586872">
                <ele>150.0</ele>
                <time>2020-08-28T12:46:08.000Z</time>
                <name>Trackpoint 5151</name>
            </trkpt>
            <trkpt lat="49.9986336" lon="9.5867544">
                <ele>150.0</ele>
                <time>2020-08-28T12:46:10.000Z</time>
                <name>Trackpoint 5152</name>
            </trkpt>
            <trkpt lat="49.9985568" lon="9.58664">
                <ele>150.0</ele>
                <time>2020-08-28T12:46:12.000Z</time>
                <name>Trackpoint 5153</name>
            </trkpt>
            <trkpt lat="49.9984832" lon="9.5865184">
                <ele>150.0</ele>
                <time>2020-08-28T12:46:14.000Z</time>
                <name>Trackpoint 5154</name>
            </trkpt>
            <trkpt lat="49.9984032" lon="9.5863936">
                <ele>150.0</ele>
                <time>2020-08-28T12:46:16.000Z</time>
                <name>Trackpoint 5155</name>
            </trkpt>
            <trkpt lat="49.9983264" lon="9.5862776">
                <ele>150.0</ele>
                <time>2020-08-28T12:46:18.000Z</time>
                <name>Trackpoint 5156</name>
            </trkpt>
            <trkpt lat="49.9982528" lon="9.58616">
                <ele>150.0</ele>
                <time>2020-08-28T12:46:20.000Z</time>
                <name>Trackpoint 5157</name>
            </trkpt>
            <trkpt lat="49.998176" lon="9.5860392">
                <ele>150.0</ele>
                <time>2020-08-28T12:46:22.000Z</time>
                <name>Trackpoint 5158</name>
            </trkpt>
            <trkpt lat="49.9981056" lon="9.5859216">
                <ele>150.0</ele>
                <time>2020-08-28T12:46:24.000Z</time>
                <name>Trackpoint 5159</name>
            </trkpt>
            <trkpt lat="49.9980224" lon="9.5857912">
                <ele>150.0</ele>
                <time>2020-08-28T12:46:26.000Z</time>
                <name>Trackpoint 5160</name>
            </trkpt>
            <trkpt lat="49.9979392" lon="9.5856688">
                <ele>150.0</ele>
                <time>2020-08-28T12:46:28.000Z</time>
                <name>Trackpoint 5161</name>
            </trkpt>
            <trkpt lat="49.9978592" lon="9.5855488">
                <ele>150.0</ele>
                <time>2020-08-28T12:46:30.000Z</time>
                <name>Trackpoint 5162</name>
            </trkpt>
            <trkpt lat="49.9977792" lon="9.5854384">
                <ele>150.0</ele>
                <time>2020-08-28T12:46:32.000Z</time>
                <name>Trackpoint 5163</name>
            </trkpt>
            <trkpt lat="49.9977088" lon="9.5853232">
                <ele>150.0</ele>
                <time>2020-08-28T12:46:34.000Z</time>
                <name>Trackpoint 5164</name>
            </trkpt>
            <trkpt lat="49.9976352" lon="9.5852272">
                <ele>150.0</ele>
                <time>2020-08-28T12:46:36.000Z</time>
                <name>Trackpoint 5165</name>
            </trkpt>
            <trkpt lat="49.9975968" lon="9.5851384">
                <ele>150.0</ele>
                <time>2020-08-28T12:46:39.000Z</time>
                <name>Trackpoint 5166</name>
            </trkpt>
            <trkpt lat="49.9975392" lon="9.585036">
                <ele>151.0</ele>
                <time>2020-08-28T12:47:10.000Z</time>
                <name>Trackpoint 5167</name>
            </trkpt>
            <trkpt lat="49.9974848" lon="9.584964">
                <ele>151.0</ele>
                <time>2020-08-28T12:47:12.000Z</time>
                <name>Trackpoint 5168</name>
            </trkpt>
            <trkpt lat="49.9974304" lon="9.5848888">
                <ele>151.0</ele>
                <time>2020-08-28T12:47:14.000Z</time>
                <name>Trackpoint 5169</name>
            </trkpt>
            <trkpt lat="49.99736" lon="9.5847968">
                <ele>151.0</ele>
                <time>2020-08-28T12:47:16.000Z</time>
                <name>Trackpoint 5170</name>
            </trkpt>
            <trkpt lat="49.997296" lon="9.5847032">
                <ele>151.0</ele>
                <time>2020-08-28T12:47:18.000Z</time>
                <name>Trackpoint 5171</name>
            </trkpt>
            <trkpt lat="49.9972256" lon="9.5846096">
                <ele>151.0</ele>
                <time>2020-08-28T12:47:20.000Z</time>
                <name>Trackpoint 5172</name>
            </trkpt>
            <trkpt lat="49.9971392" lon="9.584508">
                <ele>151.0</ele>
                <time>2020-08-28T12:47:22.000Z</time>
                <name>Trackpoint 5173</name>
            </trkpt>
            <trkpt lat="49.9970624" lon="9.5844096">
                <ele>151.0</ele>
                <time>2020-08-28T12:47:24.000Z</time>
                <name>Trackpoint 5174</name>
            </trkpt>
            <trkpt lat="49.9969792" lon="9.5843232">
                <ele>151.0</ele>
                <time>2020-08-28T12:47:26.000Z</time>
                <name>Trackpoint 5175</name>
            </trkpt>
            <trkpt lat="49.996896" lon="9.5842384">
                <ele>150.0</ele>
                <time>2020-08-28T12:47:28.000Z</time>
                <name>Trackpoint 5176</name>
            </trkpt>
            <trkpt lat="49.996816" lon="9.5841512">
                <ele>150.0</ele>
                <time>2020-08-28T12:47:30.000Z</time>
                <name>Trackpoint 5177</name>
            </trkpt>
            <trkpt lat="49.9967392" lon="9.5840632">
                <ele>151.0</ele>
                <time>2020-08-28T12:47:32.000Z</time>
                <name>Trackpoint 5178</name>
            </trkpt>
            <trkpt lat="49.99664" lon="9.5839952">
                <ele>151.0</ele>
                <time>2020-08-28T12:47:34.000Z</time>
                <name>Trackpoint 5179</name>
            </trkpt>
            <trkpt lat="49.996544" lon="9.5839144">
                <ele>151.0</ele>
                <time>2020-08-28T12:47:36.000Z</time>
                <name>Trackpoint 5180</name>
            </trkpt>
            <trkpt lat="49.9964608" lon="9.58384">
                <ele>151.0</ele>
                <time>2020-08-28T12:47:38.000Z</time>
                <name>Trackpoint 5181</name>
            </trkpt>
            <trkpt lat="49.9963776" lon="9.5837832">
                <ele>151.0</ele>
                <time>2020-08-28T12:47:40.000Z</time>
                <name>Trackpoint 5182</name>
            </trkpt>
            <trkpt lat="49.996288" lon="9.5837296">
                <ele>151.0</ele>
                <time>2020-08-28T12:47:42.000Z</time>
                <name>Trackpoint 5183</name>
            </trkpt>
            <trkpt lat="49.996208" lon="9.5836736">
                <ele>151.0</ele>
                <time>2020-08-28T12:47:44.000Z</time>
                <name>Trackpoint 5184</name>
            </trkpt>
            <trkpt lat="49.996128" lon="9.5836112">
                <ele>151.0</ele>
                <time>2020-08-28T12:47:46.000Z</time>
                <name>Trackpoint 5185</name>
            </trkpt>
            <trkpt lat="49.996048" lon="9.5835552">
                <ele>151.0</ele>
                <time>2020-08-28T12:47:48.000Z</time>
                <name>Trackpoint 5186</name>
            </trkpt>
            <trkpt lat="49.9959616" lon="9.5835064">
                <ele>151.0</ele>
                <time>2020-08-28T12:47:50.000Z</time>
                <name>Trackpoint 5187</name>
            </trkpt>
            <trkpt lat="49.9958752" lon="9.5834552">
                <ele>151.0</ele>
                <time>2020-08-28T12:47:52.000Z</time>
                <name>Trackpoint 5188</name>
            </trkpt>
            <trkpt lat="49.995792" lon="9.5834112">
                <ele>152.0</ele>
                <time>2020-08-28T12:47:54.000Z</time>
                <name>Trackpoint 5189</name>
            </trkpt>
            <trkpt lat="49.9957056" lon="9.5833584">
                <ele>151.0</ele>
                <time>2020-08-28T12:47:56.000Z</time>
                <name>Trackpoint 5190</name>
            </trkpt>
            <trkpt lat="49.9956128" lon="9.5833128">
                <ele>151.0</ele>
                <time>2020-08-28T12:47:58.000Z</time>
                <name>Trackpoint 5191</name>
            </trkpt>
            <trkpt lat="49.9955264" lon="9.5832568">
                <ele>152.0</ele>
                <time>2020-08-28T12:48:00.000Z</time>
                <name>Trackpoint 5192</name>
            </trkpt>
            <trkpt lat="49.99544" lon="9.5831944">
                <ele>152.0</ele>
                <time>2020-08-28T12:48:02.000Z</time>
                <name>Trackpoint 5193</name>
            </trkpt>
            <trkpt lat="49.9953568" lon="9.5831344">
                <ele>152.0</ele>
                <time>2020-08-28T12:48:04.000Z</time>
                <name>Trackpoint 5194</name>
            </trkpt>
            <trkpt lat="49.9952768" lon="9.5830744">
                <ele>152.0</ele>
                <time>2020-08-28T12:48:06.000Z</time>
                <name>Trackpoint 5195</name>
            </trkpt>
            <trkpt lat="49.9951936" lon="9.5830232">
                <ele>152.0</ele>
                <time>2020-08-28T12:48:08.000Z</time>
                <name>Trackpoint 5196</name>
            </trkpt>
            <trkpt lat="49.9950944" lon="9.5830096">
                <ele>152.0</ele>
                <time>2020-08-28T12:48:10.000Z</time>
                <name>Trackpoint 5197</name>
            </trkpt>
            <trkpt lat="49.9950016" lon="9.5829888">
                <ele>151.0</ele>
                <time>2020-08-28T12:48:12.000Z</time>
                <name>Trackpoint 5198</name>
            </trkpt>
            <trkpt lat="49.9949088" lon="9.58296">
                <ele>151.0</ele>
                <time>2020-08-28T12:48:14.000Z</time>
                <name>Trackpoint 5199</name>
            </trkpt>
            <trkpt lat="49.9948096" lon="9.5829336">
                <ele>151.0</ele>
                <time>2020-08-28T12:48:16.000Z</time>
                <name>Trackpoint 5200</name>
            </trkpt>
            <trkpt lat="49.9947168" lon="9.5829136">
                <ele>151.0</ele>
                <time>2020-08-28T12:48:18.000Z</time>
                <name>Trackpoint 5201</name>
            </trkpt>
            <trkpt lat="49.994592" lon="9.5828712">
                <ele>152.0</ele>
                <time>2020-08-28T12:48:21.000Z</time>
                <name>Trackpoint 5202</name>
            </trkpt>
            <trkpt lat="49.9945056" lon="9.5828448">
                <ele>151.0</ele>
                <time>2020-08-28T12:48:23.000Z</time>
                <name>Trackpoint 5203</name>
            </trkpt>
            <trkpt lat="49.994416" lon="9.5828152">
                <ele>151.0</ele>
                <time>2020-08-28T12:48:25.000Z</time>
                <name>Trackpoint 5204</name>
            </trkpt>
            <trkpt lat="49.994304" lon="9.5827864">
                <ele>151.0</ele>
                <time>2020-08-28T12:48:28.000Z</time>
                <name>Trackpoint 5205</name>
            </trkpt>
            <trkpt lat="49.994208" lon="9.582724">
                <ele>151.0</ele>
                <time>2020-08-28T12:48:48.000Z</time>
                <name>Trackpoint 5206</name>
            </trkpt>
            <trkpt lat="49.9941088" lon="9.5827104">
                <ele>151.0</ele>
                <time>2020-08-28T12:48:52.000Z</time>
                <name>Trackpoint 5207</name>
            </trkpt>
            <trkpt lat="49.9939872" lon="9.5826976">
                <ele>151.0</ele>
                <time>2020-08-28T12:48:55.000Z</time>
                <name>Trackpoint 5208</name>
            </trkpt>
            <trkpt lat="49.9938848" lon="9.5826856">
                <ele>151.0</ele>
                <time>2020-08-28T12:48:57.000Z</time>
                <name>Trackpoint 5209</name>
            </trkpt>
            <trkpt lat="49.9937888" lon="9.5826616">
                <ele>151.0</ele>
                <time>2020-08-28T12:48:59.000Z</time>
                <name>Trackpoint 5210</name>
            </trkpt>
            <trkpt lat="49.9936864" lon="9.58264">
                <ele>150.0</ele>
                <time>2020-08-28T12:49:01.000Z</time>
                <name>Trackpoint 5211</name>
            </trkpt>
            <trkpt lat="49.9935904" lon="9.582632">
                <ele>150.0</ele>
                <time>2020-08-28T12:49:03.000Z</time>
                <name>Trackpoint 5212</name>
            </trkpt>
            <trkpt lat="49.9934912" lon="9.5826184">
                <ele>150.0</ele>
                <time>2020-08-28T12:49:05.000Z</time>
                <name>Trackpoint 5213</name>
            </trkpt>
            <trkpt lat="49.9933952" lon="9.582592">
                <ele>150.0</ele>
                <time>2020-08-28T12:49:07.000Z</time>
                <name>Trackpoint 5214</name>
            </trkpt>
            <trkpt lat="49.993264" lon="9.5825752">
                <ele>150.0</ele>
                <time>2020-08-28T12:49:10.000Z</time>
                <name>Trackpoint 5215</name>
            </trkpt>
            <trkpt lat="49.9931744" lon="9.5825504">
                <ele>150.0</ele>
                <time>2020-08-28T12:49:12.000Z</time>
                <name>Trackpoint 5216</name>
            </trkpt>
            <trkpt lat="49.9930848" lon="9.5825184">
                <ele>150.0</ele>
                <time>2020-08-28T12:49:14.000Z</time>
                <name>Trackpoint 5217</name>
            </trkpt>
            <trkpt lat="49.9930016" lon="9.5824608">
                <ele>150.0</ele>
                <time>2020-08-28T12:49:16.000Z</time>
                <name>Trackpoint 5218</name>
            </trkpt>
            <trkpt lat="49.992928" lon="9.5823896">
                <ele>150.0</ele>
                <time>2020-08-28T12:49:18.000Z</time>
                <name>Trackpoint 5219</name>
            </trkpt>
            <trkpt lat="49.9928672" lon="9.5823">
                <ele>150.0</ele>
                <time>2020-08-28T12:49:20.000Z</time>
                <name>Trackpoint 5220</name>
            </trkpt>
            <trkpt lat="49.9927712" lon="9.5823096">
                <ele>150.0</ele>
                <time>2020-08-28T12:49:22.000Z</time>
                <name>Trackpoint 5221</name>
            </trkpt>
            <trkpt lat="49.9926752" lon="9.5823448">
                <ele>150.0</ele>
                <time>2020-08-28T12:49:24.000Z</time>
                <name>Trackpoint 5222</name>
            </trkpt>
            <trkpt lat="49.9926176" lon="9.5824272">
                <ele>150.0</ele>
                <time>2020-08-28T12:49:27.000Z</time>
                <name>Trackpoint 5223</name>
            </trkpt>
            <trkpt lat="49.9925696" lon="9.5825096">
                <ele>148.0</ele>
                <time>2020-08-28T12:50:20.000Z</time>
                <name>Trackpoint 5224</name>
            </trkpt>
            <trkpt lat="49.9924704" lon="9.5825384">
                <ele>148.0</ele>
                <time>2020-08-28T12:53:15.000Z</time>
                <name>Trackpoint 5225</name>
            </trkpt>
            <trkpt lat="49.9923552" lon="9.5825264">
                <ele>148.0</ele>
                <time>2020-08-28T12:53:19.000Z</time>
                <name>Trackpoint 5226</name>
            </trkpt>
            <trkpt lat="49.9922592" lon="9.5825056">
                <ele>148.0</ele>
                <time>2020-08-28T12:53:22.000Z</time>
                <name>Trackpoint 5227</name>
            </trkpt>
            <trkpt lat="49.9921408" lon="9.5824808">
                <ele>148.0</ele>
                <time>2020-08-28T12:53:25.000Z</time>
                <name>Trackpoint 5228</name>
            </trkpt>
            <trkpt lat="49.9920224" lon="9.5824472">
                <ele>148.0</ele>
                <time>2020-08-28T12:53:28.000Z</time>
                <name>Trackpoint 5229</name>
            </trkpt>
            <trkpt lat="49.9918912" lon="9.5824184">
                <ele>148.0</ele>
                <time>2020-08-28T12:53:31.000Z</time>
                <name>Trackpoint 5230</name>
            </trkpt>
            <trkpt lat="49.991792" lon="9.5824048">
                <ele>149.0</ele>
                <time>2020-08-28T12:53:33.000Z</time>
                <name>Trackpoint 5231</name>
            </trkpt>
            <trkpt lat="49.9916992" lon="9.5824016">
                <ele>149.0</ele>
                <time>2020-08-28T12:53:35.000Z</time>
                <name>Trackpoint 5232</name>
            </trkpt>
            <trkpt lat="49.9916032" lon="9.5823936">
                <ele>149.0</ele>
                <time>2020-08-28T12:53:37.000Z</time>
                <name>Trackpoint 5233</name>
            </trkpt>
            <trkpt lat="49.991504" lon="9.5824032">
                <ele>149.0</ele>
                <time>2020-08-28T12:53:39.000Z</time>
                <name>Trackpoint 5234</name>
            </trkpt>
            <trkpt lat="49.9913632" lon="9.582392">
                <ele>149.0</ele>
                <time>2020-08-28T12:53:42.000Z</time>
                <name>Trackpoint 5235</name>
            </trkpt>
            <trkpt lat="49.9912384" lon="9.5823936">
                <ele>150.0</ele>
                <time>2020-08-28T12:53:45.000Z</time>
                <name>Trackpoint 5236</name>
            </trkpt>
            <trkpt lat="49.9911296" lon="9.5823832">
                <ele>150.0</ele>
                <time>2020-08-28T12:53:48.000Z</time>
                <name>Trackpoint 5237</name>
            </trkpt>
            <trkpt lat="49.9910208" lon="9.5823848">
                <ele>150.0</ele>
                <time>2020-08-28T12:53:52.000Z</time>
                <name>Trackpoint 5238</name>
            </trkpt>
            <trkpt lat="49.990928" lon="9.5823784">
                <ele>150.0</ele>
                <time>2020-08-28T12:53:56.000Z</time>
                <name>Trackpoint 5239</name>
            </trkpt>
            <trkpt lat="49.990832" lon="9.58238">
                <ele>150.0</ele>
                <time>2020-08-28T12:54:01.000Z</time>
                <name>Trackpoint 5240</name>
            </trkpt>
            <trkpt lat="49.9907296" lon="9.5823568">
                <ele>151.0</ele>
                <time>2020-08-28T12:54:06.000Z</time>
                <name>Trackpoint 5241</name>
            </trkpt>
            <trkpt lat="49.990608" lon="9.5823352">
                <ele>151.0</ele>
                <time>2020-08-28T12:54:10.000Z</time>
                <name>Trackpoint 5242</name>
            </trkpt>
            <trkpt lat="49.990512" lon="9.5823296">
                <ele>151.0</ele>
                <time>2020-08-28T12:54:13.000Z</time>
                <name>Trackpoint 5243</name>
            </trkpt>
            <trkpt lat="49.9904128" lon="9.582332">
                <ele>151.0</ele>
                <time>2020-08-28T12:54:16.000Z</time>
                <name>Trackpoint 5244</name>
            </trkpt>
            <trkpt lat="49.990304" lon="9.58234">
                <ele>151.0</ele>
                <time>2020-08-28T12:54:19.000Z</time>
                <name>Trackpoint 5245</name>
            </trkpt>
            <trkpt lat="49.9902048" lon="9.5823536">
                <ele>151.0</ele>
                <time>2020-08-28T12:54:21.000Z</time>
                <name>Trackpoint 5246</name>
            </trkpt>
            <trkpt lat="49.9901056" lon="9.5823632">
                <ele>150.0</ele>
                <time>2020-08-28T12:54:23.000Z</time>
                <name>Trackpoint 5247</name>
            </trkpt>
            <trkpt lat="49.9899776" lon="9.5823816">
                <ele>150.0</ele>
                <time>2020-08-28T12:54:26.000Z</time>
                <name>Trackpoint 5248</name>
            </trkpt>
            <trkpt lat="49.9898656" lon="9.582388">
                <ele>150.0</ele>
                <time>2020-08-28T12:54:29.000Z</time>
                <name>Trackpoint 5249</name>
            </trkpt>
            <trkpt lat="49.9897696" lon="9.5823832">
                <ele>150.0</ele>
                <time>2020-08-28T12:54:31.000Z</time>
                <name>Trackpoint 5250</name>
            </trkpt>
            <trkpt lat="49.9896736" lon="9.58238">
                <ele>150.0</ele>
                <time>2020-08-28T12:54:33.000Z</time>
                <name>Trackpoint 5251</name>
            </trkpt>
            <trkpt lat="49.9895776" lon="9.582368">
                <ele>150.0</ele>
                <time>2020-08-28T12:54:35.000Z</time>
                <name>Trackpoint 5252</name>
            </trkpt>
            <trkpt lat="49.9894752" lon="9.5823584">
                <ele>150.0</ele>
                <time>2020-08-28T12:54:37.000Z</time>
                <name>Trackpoint 5253</name>
            </trkpt>
            <trkpt lat="49.9893728" lon="9.58236">
                <ele>150.0</ele>
                <time>2020-08-28T12:54:39.000Z</time>
                <name>Trackpoint 5254</name>
            </trkpt>
            <trkpt lat="49.9892704" lon="9.582368">
                <ele>150.0</ele>
                <time>2020-08-28T12:54:41.000Z</time>
                <name>Trackpoint 5255</name>
            </trkpt>
            <trkpt lat="49.9891584" lon="9.582372">
                <ele>151.0</ele>
                <time>2020-08-28T12:54:43.000Z</time>
                <name>Trackpoint 5256</name>
            </trkpt>
            <trkpt lat="49.9890528" lon="9.5823736">
                <ele>151.0</ele>
                <time>2020-08-28T12:54:45.000Z</time>
                <name>Trackpoint 5257</name>
            </trkpt>
            <trkpt lat="49.988944" lon="9.582368">
                <ele>150.0</ele>
                <time>2020-08-28T12:54:47.000Z</time>
                <name>Trackpoint 5258</name>
            </trkpt>
            <trkpt lat="49.9888384" lon="9.582368">
                <ele>150.0</ele>
                <time>2020-08-28T12:54:49.000Z</time>
                <name>Trackpoint 5259</name>
            </trkpt>
            <trkpt lat="49.9887328" lon="9.5823536">
                <ele>150.0</ele>
                <time>2020-08-28T12:54:51.000Z</time>
                <name>Trackpoint 5260</name>
            </trkpt>
            <trkpt lat="49.988624" lon="9.582348">
                <ele>150.0</ele>
                <time>2020-08-28T12:54:53.000Z</time>
                <name>Trackpoint 5261</name>
            </trkpt>
            <trkpt lat="49.9885216" lon="9.5823384">
                <ele>150.0</ele>
                <time>2020-08-28T12:54:55.000Z</time>
                <name>Trackpoint 5262</name>
            </trkpt>
            <trkpt lat="49.988416" lon="9.5823224">
                <ele>150.0</ele>
                <time>2020-08-28T12:54:57.000Z</time>
                <name>Trackpoint 5263</name>
            </trkpt>
            <trkpt lat="49.9883104" lon="9.5823136">
                <ele>149.0</ele>
                <time>2020-08-28T12:54:59.000Z</time>
                <name>Trackpoint 5264</name>
            </trkpt>
            <trkpt lat="49.988176" lon="9.5823096">
                <ele>149.0</ele>
                <time>2020-08-28T12:55:02.000Z</time>
                <name>Trackpoint 5265</name>
            </trkpt>
            <trkpt lat="49.9880864" lon="9.5823224">
                <ele>149.0</ele>
                <time>2020-08-28T12:55:04.000Z</time>
                <name>Trackpoint 5266</name>
            </trkpt>
            <trkpt lat="49.9879776" lon="9.582388">
                <ele>150.0</ele>
                <time>2020-08-28T12:55:07.000Z</time>
                <name>Trackpoint 5267</name>
            </trkpt>
            <trkpt lat="49.987904" lon="9.5824832">
                <ele>151.0</ele>
                <time>2020-08-28T12:55:10.000Z</time>
                <name>Trackpoint 5268</name>
            </trkpt>
            <trkpt lat="49.9878272" lon="9.5825584">
                <ele>151.0</ele>
                <time>2020-08-28T12:55:14.000Z</time>
                <name>Trackpoint 5269</name>
            </trkpt>
            <trkpt lat="49.987744" lon="9.5826016">
                <ele>151.0</ele>
                <time>2020-08-28T12:55:53.000Z</time>
                <name>Trackpoint 5270</name>
            </trkpt>
            <trkpt lat="49.9876544" lon="9.582628">
                <ele>151.0</ele>
                <time>2020-08-28T12:55:56.000Z</time>
                <name>Trackpoint 5271</name>
            </trkpt>
            <trkpt lat="49.9875456" lon="9.5826584">
                <ele>151.0</ele>
                <time>2020-08-28T12:55:59.000Z</time>
                <name>Trackpoint 5272</name>
            </trkpt>
            <trkpt lat="49.9874144" lon="9.5826728">
                <ele>151.0</ele>
                <time>2020-08-28T12:56:02.000Z</time>
                <name>Trackpoint 5273</name>
            </trkpt>
            <trkpt lat="49.9873248" lon="9.5826632">
                <ele>151.0</ele>
                <time>2020-08-28T12:56:04.000Z</time>
                <name>Trackpoint 5274</name>
            </trkpt>
            <trkpt lat="49.9872288" lon="9.5826752">
                <ele>151.0</ele>
                <time>2020-08-28T12:56:06.000Z</time>
                <name>Trackpoint 5275</name>
            </trkpt>
            <trkpt lat="49.9871264" lon="9.5826968">
                <ele>151.0</ele>
                <time>2020-08-28T12:56:08.000Z</time>
                <name>Trackpoint 5276</name>
            </trkpt>
            <trkpt lat="49.9870304" lon="9.5827112">
                <ele>151.0</ele>
                <time>2020-08-28T12:56:10.000Z</time>
                <name>Trackpoint 5277</name>
            </trkpt>
            <trkpt lat="49.9869312" lon="9.58272">
                <ele>151.0</ele>
                <time>2020-08-28T12:56:12.000Z</time>
                <name>Trackpoint 5278</name>
            </trkpt>
            <trkpt lat="49.986832" lon="9.5827304">
                <ele>150.0</ele>
                <time>2020-08-28T12:56:14.000Z</time>
                <name>Trackpoint 5279</name>
            </trkpt>
            <trkpt lat="49.986736" lon="9.582744">
                <ele>151.0</ele>
                <time>2020-08-28T12:56:16.000Z</time>
                <name>Trackpoint 5280</name>
            </trkpt>
            <trkpt lat="49.9866432" lon="9.5827576">
                <ele>151.0</ele>
                <time>2020-08-28T12:56:18.000Z</time>
                <name>Trackpoint 5281</name>
            </trkpt>
            <trkpt lat="49.9865536" lon="9.5827736">
                <ele>150.0</ele>
                <time>2020-08-28T12:56:20.000Z</time>
                <name>Trackpoint 5282</name>
            </trkpt>
            <trkpt lat="49.9864576" lon="9.5827848">
                <ele>151.0</ele>
                <time>2020-08-28T12:56:22.000Z</time>
                <name>Trackpoint 5283</name>
            </trkpt>
            <trkpt lat="49.9863648" lon="9.5828">
                <ele>150.0</ele>
                <time>2020-08-28T12:56:24.000Z</time>
                <name>Trackpoint 5284</name>
            </trkpt>
            <trkpt lat="49.9862656" lon="9.5828152">
                <ele>150.0</ele>
                <time>2020-08-28T12:56:26.000Z</time>
                <name>Trackpoint 5285</name>
            </trkpt>
            <trkpt lat="49.9861728" lon="9.5828384">
                <ele>150.0</ele>
                <time>2020-08-28T12:56:28.000Z</time>
                <name>Trackpoint 5286</name>
            </trkpt>
            <trkpt lat="49.9860768" lon="9.5828536">
                <ele>150.0</ele>
                <time>2020-08-28T12:56:30.000Z</time>
                <name>Trackpoint 5287</name>
            </trkpt>
            <trkpt lat="49.9859776" lon="9.5828648">
                <ele>150.0</ele>
                <time>2020-08-28T12:56:32.000Z</time>
                <name>Trackpoint 5288</name>
            </trkpt>
            <trkpt lat="49.9858816" lon="9.5828784">
                <ele>151.0</ele>
                <time>2020-08-28T12:56:34.000Z</time>
                <name>Trackpoint 5289</name>
            </trkpt>
            <trkpt lat="49.9857856" lon="9.5828952">
                <ele>151.0</ele>
                <time>2020-08-28T12:56:36.000Z</time>
                <name>Trackpoint 5290</name>
            </trkpt>
            <trkpt lat="49.985696" lon="9.5829312">
                <ele>151.0</ele>
                <time>2020-08-28T12:56:38.000Z</time>
                <name>Trackpoint 5291</name>
            </trkpt>
            <trkpt lat="49.9856032" lon="9.5829952">
                <ele>151.0</ele>
                <time>2020-08-28T12:56:40.000Z</time>
                <name>Trackpoint 5292</name>
            </trkpt>
            <trkpt lat="49.9855072" lon="9.5830408">
                <ele>151.0</ele>
                <time>2020-08-28T12:56:42.000Z</time>
                <name>Trackpoint 5293</name>
            </trkpt>
            <trkpt lat="49.9854112" lon="9.5830736">
                <ele>151.0</ele>
                <time>2020-08-28T12:56:44.000Z</time>
                <name>Trackpoint 5294</name>
            </trkpt>
            <trkpt lat="49.9853184" lon="9.5830984">
                <ele>151.0</ele>
                <time>2020-08-28T12:56:46.000Z</time>
                <name>Trackpoint 5295</name>
            </trkpt>
            <trkpt lat="49.9852224" lon="9.5831272">
                <ele>151.0</ele>
                <time>2020-08-28T12:56:48.000Z</time>
                <name>Trackpoint 5296</name>
            </trkpt>
            <trkpt lat="49.9851232" lon="9.5831496">
                <ele>151.0</ele>
                <time>2020-08-28T12:56:50.000Z</time>
                <name>Trackpoint 5297</name>
            </trkpt>
            <trkpt lat="49.9850304" lon="9.5831736">
                <ele>151.0</ele>
                <time>2020-08-28T12:56:52.000Z</time>
                <name>Trackpoint 5298</name>
            </trkpt>
            <trkpt lat="49.9848992" lon="9.5832016">
                <ele>151.0</ele>
                <time>2020-08-28T12:56:55.000Z</time>
                <name>Trackpoint 5299</name>
            </trkpt>
            <trkpt lat="49.9848096" lon="9.5832328">
                <ele>151.0</ele>
                <time>2020-08-28T12:56:57.000Z</time>
                <name>Trackpoint 5300</name>
            </trkpt>
            <trkpt lat="49.9847488" lon="9.5833256">
                <ele>151.0</ele>
                <time>2020-08-28T12:56:59.000Z</time>
                <name>Trackpoint 5301</name>
            </trkpt>
            <trkpt lat="49.984736" lon="9.5834576">
                <ele>152.0</ele>
                <time>2020-08-28T12:57:01.000Z</time>
                <name>Trackpoint 5302</name>
            </trkpt>
            <trkpt lat="49.9847552" lon="9.5835912">
                <ele>152.0</ele>
                <time>2020-08-28T12:57:03.000Z</time>
                <name>Trackpoint 5303</name>
            </trkpt>
            <trkpt lat="49.9847872" lon="9.5837296">
                <ele>152.0</ele>
                <time>2020-08-28T12:57:05.000Z</time>
                <name>Trackpoint 5304</name>
            </trkpt>
            <trkpt lat="49.9848096" lon="9.5838736">
                <ele>152.0</ele>
                <time>2020-08-28T12:57:07.000Z</time>
                <name>Trackpoint 5305</name>
            </trkpt>
            <trkpt lat="49.9848256" lon="9.5840128">
                <ele>152.0</ele>
                <time>2020-08-28T12:57:09.000Z</time>
                <name>Trackpoint 5306</name>
            </trkpt>
            <trkpt lat="49.9848416" lon="9.5841552">
                <ele>153.0</ele>
                <time>2020-08-28T12:57:11.000Z</time>
                <name>Trackpoint 5307</name>
            </trkpt>
            <trkpt lat="49.9848544" lon="9.5843048">
                <ele>153.0</ele>
                <time>2020-08-28T12:57:13.000Z</time>
                <name>Trackpoint 5308</name>
            </trkpt>
            <trkpt lat="49.9848672" lon="9.5844536">
                <ele>153.0</ele>
                <time>2020-08-28T12:57:15.000Z</time>
                <name>Trackpoint 5309</name>
            </trkpt>
            <trkpt lat="49.9848832" lon="9.5846008">
                <ele>152.0</ele>
                <time>2020-08-28T12:57:17.000Z</time>
                <name>Trackpoint 5310</name>
            </trkpt>
            <trkpt lat="49.9848992" lon="9.5847504">
                <ele>152.0</ele>
                <time>2020-08-28T12:57:19.000Z</time>
                <name>Trackpoint 5311</name>
            </trkpt>
            <trkpt lat="49.9849088" lon="9.584904">
                <ele>153.0</ele>
                <time>2020-08-28T12:57:21.000Z</time>
                <name>Trackpoint 5312</name>
            </trkpt>
            <trkpt lat="49.984928" lon="9.5850488">
                <ele>153.0</ele>
                <time>2020-08-28T12:57:23.000Z</time>
                <name>Trackpoint 5313</name>
            </trkpt>
            <trkpt lat="49.9849472" lon="9.5852">
                <ele>153.0</ele>
                <time>2020-08-28T12:57:25.000Z</time>
                <name>Trackpoint 5314</name>
            </trkpt>
            <trkpt lat="49.9849664" lon="9.5853416">
                <ele>153.0</ele>
                <time>2020-08-28T12:57:27.000Z</time>
                <name>Trackpoint 5315</name>
            </trkpt>
            <trkpt lat="49.9849856" lon="9.5854856">
                <ele>154.0</ele>
                <time>2020-08-28T12:57:29.000Z</time>
                <name>Trackpoint 5316</name>
            </trkpt>
            <trkpt lat="49.9850048" lon="9.5856104">
                <ele>154.0</ele>
                <time>2020-08-28T12:57:31.000Z</time>
                <name>Trackpoint 5317</name>
            </trkpt>
            <trkpt lat="49.985024" lon="9.5857296">
                <ele>154.0</ele>
                <time>2020-08-28T12:57:33.000Z</time>
                <name>Trackpoint 5318</name>
            </trkpt>
            <trkpt lat="49.9850432" lon="9.585852">
                <ele>154.0</ele>
                <time>2020-08-28T12:57:35.000Z</time>
                <name>Trackpoint 5319</name>
            </trkpt>
            <trkpt lat="49.9850656" lon="9.5859632">
                <ele>154.0</ele>
                <time>2020-08-28T12:57:37.000Z</time>
                <name>Trackpoint 5320</name>
            </trkpt>
            <trkpt lat="49.9850816" lon="9.5860768">
                <ele>155.0</ele>
                <time>2020-08-28T12:57:39.000Z</time>
                <name>Trackpoint 5321</name>
            </trkpt>
            <trkpt lat="49.985104" lon="9.586188">
                <ele>155.0</ele>
                <time>2020-08-28T12:57:41.000Z</time>
                <name>Trackpoint 5322</name>
            </trkpt>
            <trkpt lat="49.9851264" lon="9.5863">
                <ele>155.0</ele>
                <time>2020-08-28T12:57:43.000Z</time>
                <name>Trackpoint 5323</name>
            </trkpt>
            <trkpt lat="49.985152" lon="9.5864096">
                <ele>155.0</ele>
                <time>2020-08-28T12:57:45.000Z</time>
                <name>Trackpoint 5324</name>
            </trkpt>
            <trkpt lat="49.9851712" lon="9.58652">
                <ele>155.0</ele>
                <time>2020-08-28T12:57:47.000Z</time>
                <name>Trackpoint 5325</name>
            </trkpt>
            <trkpt lat="49.9852" lon="9.5866072">
                <ele>155.0</ele>
                <time>2020-08-28T12:57:49.000Z</time>
                <name>Trackpoint 5326</name>
            </trkpt>
            <trkpt lat="49.9852864" lon="9.5866808">
                <ele>155.0</ele>
                <time>2020-08-28T12:57:52.000Z</time>
                <name>Trackpoint 5327</name>
            </trkpt>
            <trkpt lat="49.9853504" lon="9.5867728">
                <ele>155.0</ele>
                <time>2020-08-28T12:57:55.000Z</time>
                <name>Trackpoint 5328</name>
            </trkpt>
            <trkpt lat="49.9853696" lon="9.5868632">
                <ele>155.0</ele>
                <time>2020-08-28T12:57:57.000Z</time>
                <name>Trackpoint 5329</name>
            </trkpt>
            <trkpt lat="49.9853888" lon="9.5869512">
                <ele>155.0</ele>
                <time>2020-08-28T12:57:59.000Z</time>
                <name>Trackpoint 5330</name>
            </trkpt>
            <trkpt lat="49.9854208" lon="9.5870648">
                <ele>156.0</ele>
                <time>2020-08-28T12:58:01.000Z</time>
                <name>Trackpoint 5331</name>
            </trkpt>
            <trkpt lat="49.9854624" lon="9.5871688">
                <ele>156.0</ele>
                <time>2020-08-28T12:58:03.000Z</time>
                <name>Trackpoint 5332</name>
            </trkpt>
            <trkpt lat="49.9854784" lon="9.5872608">
                <ele>156.0</ele>
                <time>2020-08-28T12:58:06.000Z</time>
                <name>Trackpoint 5333</name>
            </trkpt>
            <trkpt lat="49.9854432" lon="9.5873496">
                <ele>156.0</ele>
                <time>2020-08-28T12:58:10.000Z</time>
                <name>Trackpoint 5334</name>
            </trkpt>
            <trkpt lat="49.9853568" lon="9.5874256">
                <ele>156.0</ele>
                <time>2020-08-28T12:58:22.000Z</time>
                <name>Trackpoint 5335</name>
            </trkpt>
            <trkpt lat="49.9852864" lon="9.5875168">
                <ele>156.0</ele>
                <time>2020-08-28T12:58:25.000Z</time>
                <name>Trackpoint 5336</name>
            </trkpt>
            <trkpt lat="49.9852096" lon="9.58758">
                <ele>156.0</ele>
                <time>2020-08-28T12:58:27.000Z</time>
                <name>Trackpoint 5337</name>
            </trkpt>
            <trkpt lat="49.9851392" lon="9.5876448">
                <ele>156.0</ele>
                <time>2020-08-28T12:58:29.000Z</time>
                <name>Trackpoint 5338</name>
            </trkpt>
            <trkpt lat="49.9850656" lon="9.5877136">
                <ele>156.0</ele>
                <time>2020-08-28T12:58:31.000Z</time>
                <name>Trackpoint 5339</name>
            </trkpt>
            <trkpt lat="49.984992" lon="9.5877952">
                <ele>156.0</ele>
                <time>2020-08-28T12:58:33.000Z</time>
                <name>Trackpoint 5340</name>
            </trkpt>
            <trkpt lat="49.9849216" lon="9.5878712">
                <ele>156.0</ele>
                <time>2020-08-28T12:58:35.000Z</time>
                <name>Trackpoint 5341</name>
            </trkpt>
            <trkpt lat="49.9848608" lon="9.5879448">
                <ele>156.0</ele>
                <time>2020-08-28T12:58:37.000Z</time>
                <name>Trackpoint 5342</name>
            </trkpt>
            <trkpt lat="49.9847872" lon="9.588012">
                <ele>156.0</ele>
                <time>2020-08-28T12:58:39.000Z</time>
                <name>Trackpoint 5343</name>
            </trkpt>
            <trkpt lat="49.9847104" lon="9.5880736">
                <ele>156.0</ele>
                <time>2020-08-28T12:58:41.000Z</time>
                <name>Trackpoint 5344</name>
            </trkpt>
            <trkpt lat="49.9846016" lon="9.588172">
                <ele>156.0</ele>
                <time>2020-08-28T12:58:44.000Z</time>
                <name>Trackpoint 5345</name>
            </trkpt>
            <trkpt lat="49.9844832" lon="9.588252">
                <ele>156.0</ele>
                <time>2020-08-28T12:58:47.000Z</time>
                <name>Trackpoint 5346</name>
            </trkpt>
            <trkpt lat="49.9843968" lon="9.5883232">
                <ele>156.0</ele>
                <time>2020-08-28T12:58:49.000Z</time>
                <name>Trackpoint 5347</name>
            </trkpt>
            <trkpt lat="49.984336" lon="9.5883904">
                <ele>156.0</ele>
                <time>2020-08-28T12:58:50.000Z</time>
                <name>Trackpoint 5348</name>
            </trkpt>
            <trkpt lat="49.9842368" lon="9.5884784">
                <ele>156.0</ele>
                <time>2020-08-28T12:58:52.000Z</time>
                <name>Trackpoint 5349</name>
            </trkpt>
            <trkpt lat="49.9841504" lon="9.5885552">
                <ele>156.0</ele>
                <time>2020-08-28T12:58:54.000Z</time>
                <name>Trackpoint 5350</name>
            </trkpt>
            <trkpt lat="49.9840576" lon="9.5886096">
                <ele>156.0</ele>
                <time>2020-08-28T12:58:56.000Z</time>
                <name>Trackpoint 5351</name>
            </trkpt>
            <trkpt lat="49.9839424" lon="9.58868">
                <ele>156.0</ele>
                <time>2020-08-28T12:58:58.000Z</time>
                <name>Trackpoint 5352</name>
            </trkpt>
            <trkpt lat="49.9838272" lon="9.5887696">
                <ele>156.0</ele>
                <time>2020-08-28T12:59:00.000Z</time>
                <name>Trackpoint 5353</name>
            </trkpt>
            <trkpt lat="49.9837344" lon="9.5888464">
                <ele>156.0</ele>
                <time>2020-08-28T12:59:02.000Z</time>
                <name>Trackpoint 5354</name>
            </trkpt>
            <trkpt lat="49.9836288" lon="9.5889056">
                <ele>155.0</ele>
                <time>2020-08-28T12:59:04.000Z</time>
                <name>Trackpoint 5355</name>
            </trkpt>
            <trkpt lat="49.9835392" lon="9.5889656">
                <ele>155.0</ele>
                <time>2020-08-28T12:59:06.000Z</time>
                <name>Trackpoint 5356</name>
            </trkpt>
            <trkpt lat="49.9834336" lon="9.589044">
                <ele>155.0</ele>
                <time>2020-08-28T12:59:08.000Z</time>
                <name>Trackpoint 5357</name>
            </trkpt>
            <trkpt lat="49.9833216" lon="9.58912">
                <ele>154.0</ele>
                <time>2020-08-28T12:59:10.000Z</time>
                <name>Trackpoint 5358</name>
            </trkpt>
            <trkpt lat="49.9832256" lon="9.5892048">
                <ele>154.0</ele>
                <time>2020-08-28T12:59:12.000Z</time>
                <name>Trackpoint 5359</name>
            </trkpt>
            <trkpt lat="49.9831392" lon="9.5892912">
                <ele>155.0</ele>
                <time>2020-08-28T12:59:14.000Z</time>
                <name>Trackpoint 5360</name>
            </trkpt>
            <trkpt lat="49.9830336" lon="9.5893872">
                <ele>155.0</ele>
                <time>2020-08-28T12:59:16.000Z</time>
                <name>Trackpoint 5361</name>
            </trkpt>
            <trkpt lat="49.9829216" lon="9.5894584">
                <ele>155.0</ele>
                <time>2020-08-28T12:59:18.000Z</time>
                <name>Trackpoint 5362</name>
            </trkpt>
            <trkpt lat="49.9828288" lon="9.5895256">
                <ele>155.0</ele>
                <time>2020-08-28T12:59:20.000Z</time>
                <name>Trackpoint 5363</name>
            </trkpt>
            <trkpt lat="49.9827264" lon="9.5895832">
                <ele>155.0</ele>
                <time>2020-08-28T12:59:22.000Z</time>
                <name>Trackpoint 5364</name>
            </trkpt>
            <trkpt lat="49.9826272" lon="9.5896704">
                <ele>154.0</ele>
                <time>2020-08-28T12:59:24.000Z</time>
                <name>Trackpoint 5365</name>
            </trkpt>
            <trkpt lat="49.9825248" lon="9.5897576">
                <ele>154.0</ele>
                <time>2020-08-28T12:59:26.000Z</time>
                <name>Trackpoint 5366</name>
            </trkpt>
            <trkpt lat="49.982432" lon="9.5898504">
                <ele>154.0</ele>
                <time>2020-08-28T12:59:28.000Z</time>
                <name>Trackpoint 5367</name>
            </trkpt>
            <trkpt lat="49.9823392" lon="9.5899416">
                <ele>154.0</ele>
                <time>2020-08-28T12:59:30.000Z</time>
                <name>Trackpoint 5368</name>
            </trkpt>
            <trkpt lat="49.98224" lon="9.5900352">
                <ele>155.0</ele>
                <time>2020-08-28T12:59:32.000Z</time>
                <name>Trackpoint 5369</name>
            </trkpt>
            <trkpt lat="49.982144" lon="9.5901272">
                <ele>155.0</ele>
                <time>2020-08-28T12:59:34.000Z</time>
                <name>Trackpoint 5370</name>
            </trkpt>
            <trkpt lat="49.982064" lon="9.5902216">
                <ele>155.0</ele>
                <time>2020-08-28T12:59:36.000Z</time>
                <name>Trackpoint 5371</name>
            </trkpt>
            <trkpt lat="49.9819808" lon="9.5902984">
                <ele>156.0</ele>
                <time>2020-08-28T12:59:38.000Z</time>
                <name>Trackpoint 5372</name>
            </trkpt>
            <trkpt lat="49.9819104" lon="9.590372">
                <ele>156.0</ele>
                <time>2020-08-28T12:59:40.000Z</time>
                <name>Trackpoint 5373</name>
            </trkpt>
            <trkpt lat="49.981808" lon="9.5904368">
                <ele>156.0</ele>
                <time>2020-08-28T12:59:43.000Z</time>
                <name>Trackpoint 5374</name>
            </trkpt>
            <trkpt lat="49.9817056" lon="9.5904952">
                <ele>156.0</ele>
                <time>2020-08-28T12:59:46.000Z</time>
                <name>Trackpoint 5375</name>
            </trkpt>
            <trkpt lat="49.981616" lon="9.5905864">
                <ele>156.0</ele>
                <time>2020-08-28T12:59:48.000Z</time>
                <name>Trackpoint 5376</name>
            </trkpt>
            <trkpt lat="49.981536" lon="9.5906696">
                <ele>156.0</ele>
                <time>2020-08-28T12:59:50.000Z</time>
                <name>Trackpoint 5377</name>
            </trkpt>
            <trkpt lat="49.9814464" lon="9.5907624">
                <ele>156.0</ele>
                <time>2020-08-28T12:59:52.000Z</time>
                <name>Trackpoint 5378</name>
            </trkpt>
            <trkpt lat="49.9813568" lon="9.5908568">
                <ele>156.0</ele>
                <time>2020-08-28T12:59:54.000Z</time>
                <name>Trackpoint 5379</name>
            </trkpt>
            <trkpt lat="49.9812704" lon="9.590948">
                <ele>156.0</ele>
                <time>2020-08-28T12:59:56.000Z</time>
                <name>Trackpoint 5380</name>
            </trkpt>
            <trkpt lat="49.9811776" lon="9.5910304">
                <ele>156.0</ele>
                <time>2020-08-28T12:59:58.000Z</time>
                <name>Trackpoint 5381</name>
            </trkpt>
            <trkpt lat="49.9810976" lon="9.5911232">
                <ele>156.0</ele>
                <time>2020-08-28T13:00:00.000Z</time>
                <name>Trackpoint 5382</name>
            </trkpt>
            <trkpt lat="49.9810208" lon="9.5912064">
                <ele>157.0</ele>
                <time>2020-08-28T13:00:02.000Z</time>
                <name>Trackpoint 5383</name>
            </trkpt>
            <trkpt lat="49.9809408" lon="9.5913">
                <ele>157.0</ele>
                <time>2020-08-28T13:00:04.000Z</time>
                <name>Trackpoint 5384</name>
            </trkpt>
            <trkpt lat="49.9808544" lon="9.5913784">
                <ele>157.0</ele>
                <time>2020-08-28T13:00:06.000Z</time>
                <name>Trackpoint 5385</name>
            </trkpt>
            <trkpt lat="49.9807712" lon="9.5914552">
                <ele>157.0</ele>
                <time>2020-08-28T13:00:08.000Z</time>
                <name>Trackpoint 5386</name>
            </trkpt>
            <trkpt lat="49.9806848" lon="9.5915344">
                <ele>157.0</ele>
                <time>2020-08-28T13:00:10.000Z</time>
                <name>Trackpoint 5387</name>
            </trkpt>
            <trkpt lat="49.9805984" lon="9.591612">
                <ele>156.0</ele>
                <time>2020-08-28T13:00:12.000Z</time>
                <name>Trackpoint 5388</name>
            </trkpt>
            <trkpt lat="49.9805056" lon="9.5916816">
                <ele>156.0</ele>
                <time>2020-08-28T13:00:14.000Z</time>
                <name>Trackpoint 5389</name>
            </trkpt>
            <trkpt lat="49.980416" lon="9.5917616">
                <ele>156.0</ele>
                <time>2020-08-28T13:00:16.000Z</time>
                <name>Trackpoint 5390</name>
            </trkpt>
            <trkpt lat="49.98032" lon="9.5918464">
                <ele>155.0</ele>
                <time>2020-08-28T13:00:18.000Z</time>
                <name>Trackpoint 5391</name>
            </trkpt>
            <trkpt lat="49.9802272" lon="9.5919312">
                <ele>155.0</ele>
                <time>2020-08-28T13:00:20.000Z</time>
                <name>Trackpoint 5392</name>
            </trkpt>
            <trkpt lat="49.9801408" lon="9.5920088">
                <ele>156.0</ele>
                <time>2020-08-28T13:00:22.000Z</time>
                <name>Trackpoint 5393</name>
            </trkpt>
            <trkpt lat="49.9800672" lon="9.5920784">
                <ele>156.0</ele>
                <time>2020-08-28T13:00:24.000Z</time>
                <name>Trackpoint 5394</name>
            </trkpt>
            <trkpt lat="49.9799776" lon="9.5921632">
                <ele>155.0</ele>
                <time>2020-08-28T13:00:26.000Z</time>
                <name>Trackpoint 5395</name>
            </trkpt>
            <trkpt lat="49.979888" lon="9.5922432">
                <ele>155.0</ele>
                <time>2020-08-28T13:00:28.000Z</time>
                <name>Trackpoint 5396</name>
            </trkpt>
            <trkpt lat="49.9798016" lon="9.5923072">
                <ele>155.0</ele>
                <time>2020-08-28T13:00:30.000Z</time>
                <name>Trackpoint 5397</name>
            </trkpt>
            <trkpt lat="49.9797216" lon="9.5923592">
                <ele>155.0</ele>
                <time>2020-08-28T13:00:32.000Z</time>
                <name>Trackpoint 5398</name>
            </trkpt>
            <trkpt lat="49.9796416" lon="9.592428">
                <ele>155.0</ele>
                <time>2020-08-28T13:00:34.000Z</time>
                <name>Trackpoint 5399</name>
            </trkpt>
            <trkpt lat="49.9795584" lon="9.5924904">
                <ele>155.0</ele>
                <time>2020-08-28T13:00:36.000Z</time>
                <name>Trackpoint 5400</name>
            </trkpt>
            <trkpt lat="49.9794688" lon="9.5925552">
                <ele>155.0</ele>
                <time>2020-08-28T13:00:38.000Z</time>
                <name>Trackpoint 5401</name>
            </trkpt>
            <trkpt lat="49.9793696" lon="9.59262">
                <ele>155.0</ele>
                <time>2020-08-28T13:00:40.000Z</time>
                <name>Trackpoint 5402</name>
            </trkpt>
            <trkpt lat="49.97928" lon="9.5926888">
                <ele>155.0</ele>
                <time>2020-08-28T13:00:42.000Z</time>
                <name>Trackpoint 5403</name>
            </trkpt>
            <trkpt lat="49.9791872" lon="9.5927512">
                <ele>155.0</ele>
                <time>2020-08-28T13:00:44.000Z</time>
                <name>Trackpoint 5404</name>
            </trkpt>
            <trkpt lat="49.979088" lon="9.5928224">
                <ele>155.0</ele>
                <time>2020-08-28T13:00:46.000Z</time>
                <name>Trackpoint 5405</name>
            </trkpt>
            <trkpt lat="49.9790016" lon="9.5929032">
                <ele>155.0</ele>
                <time>2020-08-28T13:00:48.000Z</time>
                <name>Trackpoint 5406</name>
            </trkpt>
            <trkpt lat="49.978896" lon="9.592992">
                <ele>154.0</ele>
                <time>2020-08-28T13:00:50.000Z</time>
                <name>Trackpoint 5407</name>
            </trkpt>
            <trkpt lat="49.978784" lon="9.5930864">
                <ele>155.0</ele>
                <time>2020-08-28T13:00:52.000Z</time>
                <name>Trackpoint 5408</name>
            </trkpt>
            <trkpt lat="49.9786848" lon="9.5931728">
                <ele>155.0</ele>
                <time>2020-08-28T13:00:54.000Z</time>
                <name>Trackpoint 5409</name>
            </trkpt>
            <trkpt lat="49.9785856" lon="9.5932552">
                <ele>155.0</ele>
                <time>2020-08-28T13:00:56.000Z</time>
                <name>Trackpoint 5410</name>
            </trkpt>
            <trkpt lat="49.9785056" lon="9.5933288">
                <ele>155.0</ele>
                <time>2020-08-28T13:00:58.000Z</time>
                <name>Trackpoint 5411</name>
            </trkpt>
            <trkpt lat="49.978416" lon="9.5934184">
                <ele>156.0</ele>
                <time>2020-08-28T13:01:00.000Z</time>
                <name>Trackpoint 5412</name>
            </trkpt>
            <trkpt lat="49.9783424" lon="9.5934984">
                <ele>156.0</ele>
                <time>2020-08-28T13:01:02.000Z</time>
                <name>Trackpoint 5413</name>
            </trkpt>
            <trkpt lat="49.9782432" lon="9.5935808">
                <ele>156.0</ele>
                <time>2020-08-28T13:01:04.000Z</time>
                <name>Trackpoint 5414</name>
            </trkpt>
            <trkpt lat="49.9781408" lon="9.593672">
                <ele>156.0</ele>
                <time>2020-08-28T13:01:06.000Z</time>
                <name>Trackpoint 5415</name>
            </trkpt>
            <trkpt lat="49.978048" lon="9.593772">
                <ele>155.0</ele>
                <time>2020-08-28T13:01:08.000Z</time>
                <name>Trackpoint 5416</name>
            </trkpt>
            <trkpt lat="49.9779424" lon="9.593872">
                <ele>156.0</ele>
                <time>2020-08-28T13:01:10.000Z</time>
                <name>Trackpoint 5417</name>
            </trkpt>
            <trkpt lat="49.9778528" lon="9.59396">
                <ele>156.0</ele>
                <time>2020-08-28T13:01:12.000Z</time>
                <name>Trackpoint 5418</name>
            </trkpt>
            <trkpt lat="49.9777728" lon="9.5940416">
                <ele>156.0</ele>
                <time>2020-08-28T13:01:14.000Z</time>
                <name>Trackpoint 5419</name>
            </trkpt>
            <trkpt lat="49.9776832" lon="9.5941152">
                <ele>156.0</ele>
                <time>2020-08-28T13:01:16.000Z</time>
                <name>Trackpoint 5420</name>
            </trkpt>
            <trkpt lat="49.9776" lon="9.5941984">
                <ele>156.0</ele>
                <time>2020-08-28T13:01:18.000Z</time>
                <name>Trackpoint 5421</name>
            </trkpt>
            <trkpt lat="49.9775168" lon="9.5942688">
                <ele>155.0</ele>
                <time>2020-08-28T13:01:20.000Z</time>
                <name>Trackpoint 5422</name>
            </trkpt>
            <trkpt lat="49.9774144" lon="9.5943136">
                <ele>155.0</ele>
                <time>2020-08-28T13:01:22.000Z</time>
                <name>Trackpoint 5423</name>
            </trkpt>
            <trkpt lat="49.9773024" lon="9.5943544">
                <ele>154.0</ele>
                <time>2020-08-28T13:01:24.000Z</time>
                <name>Trackpoint 5424</name>
            </trkpt>
            <trkpt lat="49.9771808" lon="9.5944072">
                <ele>154.0</ele>
                <time>2020-08-28T13:01:26.000Z</time>
                <name>Trackpoint 5425</name>
            </trkpt>
            <trkpt lat="49.977056" lon="9.5944544">
                <ele>154.0</ele>
                <time>2020-08-28T13:01:28.000Z</time>
                <name>Trackpoint 5426</name>
            </trkpt>
            <trkpt lat="49.9769312" lon="9.5944992">
                <ele>153.0</ele>
                <time>2020-08-28T13:01:30.000Z</time>
                <name>Trackpoint 5427</name>
            </trkpt>
            <trkpt lat="49.9768128" lon="9.5945464">
                <ele>153.0</ele>
                <time>2020-08-28T13:01:32.000Z</time>
                <name>Trackpoint 5428</name>
            </trkpt>
            <trkpt lat="49.9767136" lon="9.5945904">
                <ele>154.0</ele>
                <time>2020-08-28T13:01:34.000Z</time>
                <name>Trackpoint 5429</name>
            </trkpt>
            <trkpt lat="49.9766048" lon="9.594648">
                <ele>153.0</ele>
                <time>2020-08-28T13:01:37.000Z</time>
                <name>Trackpoint 5430</name>
            </trkpt>
            <trkpt lat="49.9765152" lon="9.5947112">
                <ele>153.0</ele>
                <time>2020-08-28T13:02:17.000Z</time>
                <name>Trackpoint 5431</name>
            </trkpt>
            <trkpt lat="49.9764352" lon="9.5947536">
                <ele>152.0</ele>
                <time>2020-08-28T13:02:20.000Z</time>
                <name>Trackpoint 5432</name>
            </trkpt>
            <trkpt lat="49.9763616" lon="9.5948136">
                <ele>152.0</ele>
                <time>2020-08-28T13:02:24.000Z</time>
                <name>Trackpoint 5433</name>
            </trkpt>
            <trkpt lat="49.9762752" lon="9.5948736">
                <ele>152.0</ele>
                <time>2020-08-28T13:02:28.000Z</time>
                <name>Trackpoint 5434</name>
            </trkpt>
            <trkpt lat="49.9761664" lon="9.5949072">
                <ele>152.0</ele>
                <time>2020-08-28T13:02:31.000Z</time>
                <name>Trackpoint 5435</name>
            </trkpt>
            <trkpt lat="49.976064" lon="9.5949488">
                <ele>152.0</ele>
                <time>2020-08-28T13:02:33.000Z</time>
                <name>Trackpoint 5436</name>
            </trkpt>
            <trkpt lat="49.9759488" lon="9.5950016">
                <ele>152.0</ele>
                <time>2020-08-28T13:02:35.000Z</time>
                <name>Trackpoint 5437</name>
            </trkpt>
            <trkpt lat="49.9758304" lon="9.5950416">
                <ele>151.0</ele>
                <time>2020-08-28T13:02:37.000Z</time>
                <name>Trackpoint 5438</name>
            </trkpt>
            <trkpt lat="49.9757248" lon="9.59508">
                <ele>151.0</ele>
                <time>2020-08-28T13:02:39.000Z</time>
                <name>Trackpoint 5439</name>
            </trkpt>
            <trkpt lat="49.975616" lon="9.5951144">
                <ele>152.0</ele>
                <time>2020-08-28T13:02:41.000Z</time>
                <name>Trackpoint 5440</name>
            </trkpt>
            <trkpt lat="49.9755072" lon="9.5951432">
                <ele>152.0</ele>
                <time>2020-08-28T13:02:43.000Z</time>
                <name>Trackpoint 5441</name>
            </trkpt>
            <trkpt lat="49.9753952" lon="9.5951768">
                <ele>151.0</ele>
                <time>2020-08-28T13:02:45.000Z</time>
                <name>Trackpoint 5442</name>
            </trkpt>
            <trkpt lat="49.9752736" lon="9.5951968">
                <ele>151.0</ele>
                <time>2020-08-28T13:02:47.000Z</time>
                <name>Trackpoint 5443</name>
            </trkpt>
            <trkpt lat="49.9751584" lon="9.5952216">
                <ele>151.0</ele>
                <time>2020-08-28T13:02:49.000Z</time>
                <name>Trackpoint 5444</name>
            </trkpt>
            <trkpt lat="49.9750336" lon="9.5952304">
                <ele>153.0</ele>
                <time>2020-08-28T13:02:51.000Z</time>
                <name>Trackpoint 5445</name>
            </trkpt>
            <trkpt lat="49.9749216" lon="9.5952568">
                <ele>152.0</ele>
                <time>2020-08-28T13:02:53.000Z</time>
                <name>Trackpoint 5446</name>
            </trkpt>
            <trkpt lat="49.974816" lon="9.5952864">
                <ele>152.0</ele>
                <time>2020-08-28T13:02:55.000Z</time>
                <name>Trackpoint 5447</name>
            </trkpt>
            <trkpt lat="49.9747072" lon="9.5953152">
                <ele>152.0</ele>
                <time>2020-08-28T13:02:57.000Z</time>
                <name>Trackpoint 5448</name>
            </trkpt>
            <trkpt lat="49.9745952" lon="9.5953504">
                <ele>152.0</ele>
                <time>2020-08-28T13:02:59.000Z</time>
                <name>Trackpoint 5449</name>
            </trkpt>
            <trkpt lat="49.9744896" lon="9.5953928">
                <ele>151.0</ele>
                <time>2020-08-28T13:03:01.000Z</time>
                <name>Trackpoint 5450</name>
            </trkpt>
            <trkpt lat="49.9743776" lon="9.5954312">
                <ele>151.0</ele>
                <time>2020-08-28T13:03:03.000Z</time>
                <name>Trackpoint 5451</name>
            </trkpt>
            <trkpt lat="49.9742752" lon="9.59546">
                <ele>151.0</ele>
                <time>2020-08-28T13:03:05.000Z</time>
                <name>Trackpoint 5452</name>
            </trkpt>
            <trkpt lat="49.9741696" lon="9.595504">
                <ele>151.0</ele>
                <time>2020-08-28T13:03:07.000Z</time>
                <name>Trackpoint 5453</name>
            </trkpt>
            <trkpt lat="49.9740704" lon="9.59554">
                <ele>151.0</ele>
                <time>2020-08-28T13:03:09.000Z</time>
                <name>Trackpoint 5454</name>
            </trkpt>
            <trkpt lat="49.973968" lon="9.5955688">
                <ele>151.0</ele>
                <time>2020-08-28T13:03:11.000Z</time>
                <name>Trackpoint 5455</name>
            </trkpt>
            <trkpt lat="49.9738624" lon="9.5955752">
                <ele>151.0</ele>
                <time>2020-08-28T13:03:13.000Z</time>
                <name>Trackpoint 5456</name>
            </trkpt>
            <trkpt lat="49.9737536" lon="9.5955664">
                <ele>151.0</ele>
                <time>2020-08-28T13:03:15.000Z</time>
                <name>Trackpoint 5457</name>
            </trkpt>
            <trkpt lat="49.9736448" lon="9.595576">
                <ele>151.0</ele>
                <time>2020-08-28T13:03:17.000Z</time>
                <name>Trackpoint 5458</name>
            </trkpt>
            <trkpt lat="49.9735424" lon="9.5955896">
                <ele>151.0</ele>
                <time>2020-08-28T13:03:19.000Z</time>
                <name>Trackpoint 5459</name>
            </trkpt>
            <trkpt lat="49.9734304" lon="9.5955864">
                <ele>151.0</ele>
                <time>2020-08-28T13:03:21.000Z</time>
                <name>Trackpoint 5460</name>
            </trkpt>
            <trkpt lat="49.973312" lon="9.5956048">
                <ele>151.0</ele>
                <time>2020-08-28T13:03:23.000Z</time>
                <name>Trackpoint 5461</name>
            </trkpt>
            <trkpt lat="49.9731712" lon="9.5955952">
                <ele>151.0</ele>
                <time>2020-08-28T13:03:25.000Z</time>
                <name>Trackpoint 5462</name>
            </trkpt>
            <trkpt lat="49.9730464" lon="9.5955952">
                <ele>151.0</ele>
                <time>2020-08-28T13:03:27.000Z</time>
                <name>Trackpoint 5463</name>
            </trkpt>
            <trkpt lat="49.9729344" lon="9.5956184">
                <ele>151.0</ele>
                <time>2020-08-28T13:03:29.000Z</time>
                <name>Trackpoint 5464</name>
            </trkpt>
            <trkpt lat="49.9728096" lon="9.5956384">
                <ele>151.0</ele>
                <time>2020-08-28T13:03:31.000Z</time>
                <name>Trackpoint 5465</name>
            </trkpt>
            <trkpt lat="49.972688" lon="9.5956424">
                <ele>151.0</ele>
                <time>2020-08-28T13:03:33.000Z</time>
                <name>Trackpoint 5466</name>
            </trkpt>
            <trkpt lat="49.9725728" lon="9.5956496">
                <ele>151.0</ele>
                <time>2020-08-28T13:03:35.000Z</time>
                <name>Trackpoint 5467</name>
            </trkpt>
            <trkpt lat="49.9724608" lon="9.5956624">
                <ele>151.0</ele>
                <time>2020-08-28T13:03:37.000Z</time>
                <name>Trackpoint 5468</name>
            </trkpt>
            <trkpt lat="49.9723424" lon="9.5956496">
                <ele>151.0</ele>
                <time>2020-08-28T13:03:39.000Z</time>
                <name>Trackpoint 5469</name>
            </trkpt>
            <trkpt lat="49.9722528" lon="9.5956632">
                <ele>151.0</ele>
                <time>2020-08-28T13:03:41.000Z</time>
                <name>Trackpoint 5470</name>
            </trkpt>
            <trkpt lat="49.9721536" lon="9.5956696">
                <ele>151.0</ele>
                <time>2020-08-28T13:03:43.000Z</time>
                <name>Trackpoint 5471</name>
            </trkpt>
            <trkpt lat="49.9720448" lon="9.5956336">
                <ele>151.0</ele>
                <time>2020-08-28T13:03:45.000Z</time>
                <name>Trackpoint 5472</name>
            </trkpt>
            <trkpt lat="49.9719392" lon="9.5956672">
                <ele>151.0</ele>
                <time>2020-08-28T13:03:47.000Z</time>
                <name>Trackpoint 5473</name>
            </trkpt>
            <trkpt lat="49.971824" lon="9.5956688">
                <ele>151.0</ele>
                <time>2020-08-28T13:03:49.000Z</time>
                <name>Trackpoint 5474</name>
            </trkpt>
            <trkpt lat="49.9717056" lon="9.5956688">
                <ele>152.0</ele>
                <time>2020-08-28T13:03:51.000Z</time>
                <name>Trackpoint 5475</name>
            </trkpt>
            <trkpt lat="49.9716064" lon="9.595672">
                <ele>152.0</ele>
                <time>2020-08-28T13:03:53.000Z</time>
                <name>Trackpoint 5476</name>
            </trkpt>
            <trkpt lat="49.9715008" lon="9.5956944">
                <ele>152.0</ele>
                <time>2020-08-28T13:03:55.000Z</time>
                <name>Trackpoint 5477</name>
            </trkpt>
            <trkpt lat="49.9713888" lon="9.5957216">
                <ele>152.0</ele>
                <time>2020-08-28T13:03:57.000Z</time>
                <name>Trackpoint 5478</name>
            </trkpt>
            <trkpt lat="49.9712832" lon="9.5957384">
                <ele>151.0</ele>
                <time>2020-08-28T13:03:59.000Z</time>
                <name>Trackpoint 5479</name>
            </trkpt>
            <trkpt lat="49.9711776" lon="9.5957744">
                <ele>151.0</ele>
                <time>2020-08-28T13:04:01.000Z</time>
                <name>Trackpoint 5480</name>
            </trkpt>
            <trkpt lat="49.9710784" lon="9.5958248">
                <ele>151.0</ele>
                <time>2020-08-28T13:04:03.000Z</time>
                <name>Trackpoint 5481</name>
            </trkpt>
            <trkpt lat="49.9709696" lon="9.5958408">
                <ele>152.0</ele>
                <time>2020-08-28T13:04:05.000Z</time>
                <name>Trackpoint 5482</name>
            </trkpt>
            <trkpt lat="49.9708704" lon="9.5958704">
                <ele>152.0</ele>
                <time>2020-08-28T13:04:07.000Z</time>
                <name>Trackpoint 5483</name>
            </trkpt>
            <trkpt lat="49.9707648" lon="9.5958904">
                <ele>152.0</ele>
                <time>2020-08-28T13:04:09.000Z</time>
                <name>Trackpoint 5484</name>
            </trkpt>
            <trkpt lat="49.9706624" lon="9.5959232">
                <ele>152.0</ele>
                <time>2020-08-28T13:04:11.000Z</time>
                <name>Trackpoint 5485</name>
            </trkpt>
            <trkpt lat="49.9705536" lon="9.5959432">
                <ele>152.0</ele>
                <time>2020-08-28T13:04:13.000Z</time>
                <name>Trackpoint 5486</name>
            </trkpt>
            <trkpt lat="49.9704512" lon="9.5959664">
                <ele>152.0</ele>
                <time>2020-08-28T13:04:15.000Z</time>
                <name>Trackpoint 5487</name>
            </trkpt>
            <trkpt lat="49.9703392" lon="9.5959752">
                <ele>152.0</ele>
                <time>2020-08-28T13:04:17.000Z</time>
                <name>Trackpoint 5488</name>
            </trkpt>
            <trkpt lat="49.97024" lon="9.5960104">
                <ele>152.0</ele>
                <time>2020-08-28T13:04:19.000Z</time>
                <name>Trackpoint 5489</name>
            </trkpt>
            <trkpt lat="49.9701536" lon="9.5960616">
                <ele>153.0</ele>
                <time>2020-08-28T13:04:21.000Z</time>
                <name>Trackpoint 5490</name>
            </trkpt>
            <trkpt lat="49.9700704" lon="9.5961064">
                <ele>153.0</ele>
                <time>2020-08-28T13:04:23.000Z</time>
                <name>Trackpoint 5491</name>
            </trkpt>
            <trkpt lat="49.9699744" lon="9.5961448">
                <ele>153.0</ele>
                <time>2020-08-28T13:04:26.000Z</time>
                <name>Trackpoint 5492</name>
            </trkpt>
            <trkpt lat="49.969872" lon="9.59616">
                <ele>152.0</ele>
                <time>2020-08-28T13:04:43.000Z</time>
                <name>Trackpoint 5493</name>
            </trkpt>
            <trkpt lat="49.9697824" lon="9.5962112">
                <ele>152.0</ele>
                <time>2020-08-28T13:04:46.000Z</time>
                <name>Trackpoint 5494</name>
            </trkpt>
            <trkpt lat="49.9696768" lon="9.5962696">
                <ele>153.0</ele>
                <time>2020-08-28T13:04:49.000Z</time>
                <name>Trackpoint 5495</name>
            </trkpt>
            <trkpt lat="49.9695552" lon="9.5963312">
                <ele>153.0</ele>
                <time>2020-08-28T13:04:52.000Z</time>
                <name>Trackpoint 5496</name>
            </trkpt>
            <trkpt lat="49.9694752" lon="9.5963848">
                <ele>154.0</ele>
                <time>2020-08-28T13:04:54.000Z</time>
                <name>Trackpoint 5497</name>
            </trkpt>
            <trkpt lat="49.9693856" lon="9.5964344">
                <ele>154.0</ele>
                <time>2020-08-28T13:04:56.000Z</time>
                <name>Trackpoint 5498</name>
            </trkpt>
            <trkpt lat="49.9693024" lon="9.5964936">
                <ele>154.0</ele>
                <time>2020-08-28T13:04:58.000Z</time>
                <name>Trackpoint 5499</name>
            </trkpt>
            <trkpt lat="49.9692192" lon="9.5965536">
                <ele>154.0</ele>
                <time>2020-08-28T13:05:00.000Z</time>
                <name>Trackpoint 5500</name>
            </trkpt>
            <trkpt lat="49.969136" lon="9.5966104">
                <ele>154.0</ele>
                <time>2020-08-28T13:05:02.000Z</time>
                <name>Trackpoint 5501</name>
            </trkpt>
            <trkpt lat="49.9690592" lon="9.5966768">
                <ele>153.0</ele>
                <time>2020-08-28T13:05:04.000Z</time>
                <name>Trackpoint 5502</name>
            </trkpt>
            <trkpt lat="49.9689728" lon="9.596732">
                <ele>153.0</ele>
                <time>2020-08-28T13:05:06.000Z</time>
                <name>Trackpoint 5503</name>
            </trkpt>
            <trkpt lat="49.9688864" lon="9.5967928">
                <ele>153.0</ele>
                <time>2020-08-28T13:05:08.000Z</time>
                <name>Trackpoint 5504</name>
            </trkpt>
            <trkpt lat="49.9688" lon="9.5968552">
                <ele>153.0</ele>
                <time>2020-08-28T13:05:10.000Z</time>
                <name>Trackpoint 5505</name>
            </trkpt>
            <trkpt lat="49.9687104" lon="9.5969184">
                <ele>153.0</ele>
                <time>2020-08-28T13:05:12.000Z</time>
                <name>Trackpoint 5506</name>
            </trkpt>
            <trkpt lat="49.9686272" lon="9.5969824">
                <ele>153.0</ele>
                <time>2020-08-28T13:05:14.000Z</time>
                <name>Trackpoint 5507</name>
            </trkpt>
            <trkpt lat="49.9685408" lon="9.597036">
                <ele>154.0</ele>
                <time>2020-08-28T13:05:16.000Z</time>
                <name>Trackpoint 5508</name>
            </trkpt>
            <trkpt lat="49.968448" lon="9.5971016">
                <ele>154.0</ele>
                <time>2020-08-28T13:05:18.000Z</time>
                <name>Trackpoint 5509</name>
            </trkpt>
            <trkpt lat="49.9683616" lon="9.5971672">
                <ele>153.0</ele>
                <time>2020-08-28T13:05:20.000Z</time>
                <name>Trackpoint 5510</name>
            </trkpt>
            <trkpt lat="49.968272" lon="9.5972336">
                <ele>153.0</ele>
                <time>2020-08-28T13:05:22.000Z</time>
                <name>Trackpoint 5511</name>
            </trkpt>
            <trkpt lat="49.9681824" lon="9.5972952">
                <ele>153.0</ele>
                <time>2020-08-28T13:05:24.000Z</time>
                <name>Trackpoint 5512</name>
            </trkpt>
            <trkpt lat="49.9680928" lon="9.5973568">
                <ele>153.0</ele>
                <time>2020-08-28T13:05:26.000Z</time>
                <name>Trackpoint 5513</name>
            </trkpt>
            <trkpt lat="49.9680064" lon="9.5974216">
                <ele>153.0</ele>
                <time>2020-08-28T13:05:28.000Z</time>
                <name>Trackpoint 5514</name>
            </trkpt>
            <trkpt lat="49.9679168" lon="9.597484">
                <ele>153.0</ele>
                <time>2020-08-28T13:05:30.000Z</time>
                <name>Trackpoint 5515</name>
            </trkpt>
            <trkpt lat="49.9678304" lon="9.5975376">
                <ele>153.0</ele>
                <time>2020-08-28T13:05:32.000Z</time>
                <name>Trackpoint 5516</name>
            </trkpt>
            <trkpt lat="49.9677472" lon="9.5975936">
                <ele>153.0</ele>
                <time>2020-08-28T13:05:34.000Z</time>
                <name>Trackpoint 5517</name>
            </trkpt>
            <trkpt lat="49.9676544" lon="9.5976296">
                <ele>153.0</ele>
                <time>2020-08-28T13:05:36.000Z</time>
                <name>Trackpoint 5518</name>
            </trkpt>
            <trkpt lat="49.9675648" lon="9.5976496">
                <ele>154.0</ele>
                <time>2020-08-28T13:05:38.000Z</time>
                <name>Trackpoint 5519</name>
            </trkpt>
            <trkpt lat="49.9674528" lon="9.5977136">
                <ele>154.0</ele>
                <time>2020-08-28T13:05:41.000Z</time>
                <name>Trackpoint 5520</name>
            </trkpt>
            <trkpt lat="49.9673888" lon="9.5977784">
                <ele>154.0</ele>
                <time>2020-08-28T13:05:43.000Z</time>
                <name>Trackpoint 5521</name>
            </trkpt>
            <trkpt lat="49.9673152" lon="9.5978536">
                <ele>154.0</ele>
                <time>2020-08-28T13:05:45.000Z</time>
                <name>Trackpoint 5522</name>
            </trkpt>
            <trkpt lat="49.9672288" lon="9.597932">
                <ele>154.0</ele>
                <time>2020-08-28T13:05:47.000Z</time>
                <name>Trackpoint 5523</name>
            </trkpt>
            <trkpt lat="49.9671328" lon="9.597988">
                <ele>154.0</ele>
                <time>2020-08-28T13:05:49.000Z</time>
                <name>Trackpoint 5524</name>
            </trkpt>
            <trkpt lat="49.9670336" lon="9.5980232">
                <ele>154.0</ele>
                <time>2020-08-28T13:05:51.000Z</time>
                <name>Trackpoint 5525</name>
            </trkpt>
            <trkpt lat="49.9669408" lon="9.5980664">
                <ele>155.0</ele>
                <time>2020-08-28T13:05:53.000Z</time>
                <name>Trackpoint 5526</name>
            </trkpt>
            <trkpt lat="49.9668544" lon="9.5981104">
                <ele>155.0</ele>
                <time>2020-08-28T13:05:55.000Z</time>
                <name>Trackpoint 5527</name>
            </trkpt>
            <trkpt lat="49.9667616" lon="9.5981648">
                <ele>155.0</ele>
                <time>2020-08-28T13:05:57.000Z</time>
                <name>Trackpoint 5528</name>
            </trkpt>
            <trkpt lat="49.9666656" lon="9.5982104">
                <ele>155.0</ele>
                <time>2020-08-28T13:05:59.000Z</time>
                <name>Trackpoint 5529</name>
            </trkpt>
            <trkpt lat="49.9665792" lon="9.5982648">
                <ele>154.0</ele>
                <time>2020-08-28T13:06:01.000Z</time>
                <name>Trackpoint 5530</name>
            </trkpt>
            <trkpt lat="49.9664928" lon="9.5983288">
                <ele>154.0</ele>
                <time>2020-08-28T13:06:03.000Z</time>
                <name>Trackpoint 5531</name>
            </trkpt>
            <trkpt lat="49.9664064" lon="9.598396">
                <ele>154.0</ele>
                <time>2020-08-28T13:06:05.000Z</time>
                <name>Trackpoint 5532</name>
            </trkpt>
            <trkpt lat="49.96632" lon="9.59846">
                <ele>154.0</ele>
                <time>2020-08-28T13:06:07.000Z</time>
                <name>Trackpoint 5533</name>
            </trkpt>
            <trkpt lat="49.96624" lon="9.5985336">
                <ele>153.0</ele>
                <time>2020-08-28T13:06:09.000Z</time>
                <name>Trackpoint 5534</name>
            </trkpt>
            <trkpt lat="49.9661568" lon="9.598608">
                <ele>153.0</ele>
                <time>2020-08-28T13:06:11.000Z</time>
                <name>Trackpoint 5535</name>
            </trkpt>
            <trkpt lat="49.9660736" lon="9.5986784">
                <ele>153.0</ele>
                <time>2020-08-28T13:06:13.000Z</time>
                <name>Trackpoint 5536</name>
            </trkpt>
            <trkpt lat="49.9659904" lon="9.5987464">
                <ele>153.0</ele>
                <time>2020-08-28T13:06:15.000Z</time>
                <name>Trackpoint 5537</name>
            </trkpt>
            <trkpt lat="49.9659104" lon="9.598812">
                <ele>153.0</ele>
                <time>2020-08-28T13:06:17.000Z</time>
                <name>Trackpoint 5538</name>
            </trkpt>
            <trkpt lat="49.9658304" lon="9.5988616">
                <ele>153.0</ele>
                <time>2020-08-28T13:06:19.000Z</time>
                <name>Trackpoint 5539</name>
            </trkpt>
            <trkpt lat="49.965728" lon="9.5989304">
                <ele>153.0</ele>
                <time>2020-08-28T13:06:22.000Z</time>
                <name>Trackpoint 5540</name>
            </trkpt>
            <trkpt lat="49.9656512" lon="9.5988304">
                <ele>152.0</ele>
                <time>2020-08-28T13:06:25.000Z</time>
                <name>Trackpoint 5541</name>
            </trkpt>
            <trkpt lat="49.9656192" lon="9.5987016">
                <ele>153.0</ele>
                <time>2020-08-28T13:06:27.000Z</time>
                <name>Trackpoint 5542</name>
            </trkpt>
            <trkpt lat="49.9655808" lon="9.5985784">
                <ele>152.0</ele>
                <time>2020-08-28T13:06:29.000Z</time>
                <name>Trackpoint 5543</name>
            </trkpt>
            <trkpt lat="49.9655392" lon="9.5984496">
                <ele>152.0</ele>
                <time>2020-08-28T13:06:31.000Z</time>
                <name>Trackpoint 5544</name>
            </trkpt>
            <trkpt lat="49.9654912" lon="9.5983216">
                <ele>153.0</ele>
                <time>2020-08-28T13:06:33.000Z</time>
                <name>Trackpoint 5545</name>
            </trkpt>
            <trkpt lat="49.9653792" lon="9.59826">
                <ele>153.0</ele>
                <time>2020-08-28T13:06:36.000Z</time>
                <name>Trackpoint 5546</name>
            </trkpt>
            <trkpt lat="49.9652896" lon="9.5983">
                <ele>153.0</ele>
                <time>2020-08-28T13:06:38.000Z</time>
                <name>Trackpoint 5547</name>
            </trkpt>
            <trkpt lat="49.9651936" lon="9.598336">
                <ele>153.0</ele>
                <time>2020-08-28T13:06:40.000Z</time>
                <name>Trackpoint 5548</name>
            </trkpt>
            <trkpt lat="49.9651072" lon="9.5983784">
                <ele>153.0</ele>
                <time>2020-08-28T13:06:42.000Z</time>
                <name>Trackpoint 5549</name>
            </trkpt>
            <trkpt lat="49.9650144" lon="9.598416">
                <ele>153.0</ele>
                <time>2020-08-28T13:06:44.000Z</time>
                <name>Trackpoint 5550</name>
            </trkpt>
            <trkpt lat="49.9649248" lon="9.598456">
                <ele>153.0</ele>
                <time>2020-08-28T13:06:46.000Z</time>
                <name>Trackpoint 5551</name>
            </trkpt>
            <trkpt lat="49.964832" lon="9.5984968">
                <ele>153.0</ele>
                <time>2020-08-28T13:06:48.000Z</time>
                <name>Trackpoint 5552</name>
            </trkpt>
            <trkpt lat="49.9647328" lon="9.598532">
                <ele>153.0</ele>
                <time>2020-08-28T13:06:50.000Z</time>
                <name>Trackpoint 5553</name>
            </trkpt>
            <trkpt lat="49.9646496" lon="9.5985832">
                <ele>153.0</ele>
                <time>2020-08-28T13:06:52.000Z</time>
                <name>Trackpoint 5554</name>
            </trkpt>
            <trkpt lat="49.96456" lon="9.5986216">
                <ele>153.0</ele>
                <time>2020-08-28T13:06:54.000Z</time>
                <name>Trackpoint 5555</name>
            </trkpt>
            <trkpt lat="49.9644704" lon="9.5986616">
                <ele>153.0</ele>
                <time>2020-08-28T13:06:56.000Z</time>
                <name>Trackpoint 5556</name>
            </trkpt>
            <trkpt lat="49.9643776" lon="9.5987056">
                <ele>153.0</ele>
                <time>2020-08-28T13:06:58.000Z</time>
                <name>Trackpoint 5557</name>
            </trkpt>
            <trkpt lat="49.964288" lon="9.5987384">
                <ele>153.0</ele>
                <time>2020-08-28T13:07:00.000Z</time>
                <name>Trackpoint 5558</name>
            </trkpt>
            <trkpt lat="49.9641888" lon="9.5987664">
                <ele>153.0</ele>
                <time>2020-08-28T13:07:02.000Z</time>
                <name>Trackpoint 5559</name>
            </trkpt>
            <trkpt lat="49.9640928" lon="9.5988032">
                <ele>153.0</ele>
                <time>2020-08-28T13:07:04.000Z</time>
                <name>Trackpoint 5560</name>
            </trkpt>
            <trkpt lat="49.964" lon="9.5988416">
                <ele>153.0</ele>
                <time>2020-08-28T13:07:06.000Z</time>
                <name>Trackpoint 5561</name>
            </trkpt>
            <trkpt lat="49.963904" lon="9.598868">
                <ele>153.0</ele>
                <time>2020-08-28T13:07:08.000Z</time>
                <name>Trackpoint 5562</name>
            </trkpt>
            <trkpt lat="49.9638144" lon="9.5989104">
                <ele>153.0</ele>
                <time>2020-08-28T13:07:10.000Z</time>
                <name>Trackpoint 5563</name>
            </trkpt>
            <trkpt lat="49.9637216" lon="9.5989512">
                <ele>153.0</ele>
                <time>2020-08-28T13:07:12.000Z</time>
                <name>Trackpoint 5564</name>
            </trkpt>
            <trkpt lat="49.963632" lon="9.5989888">
                <ele>153.0</ele>
                <time>2020-08-28T13:07:14.000Z</time>
                <name>Trackpoint 5565</name>
            </trkpt>
            <trkpt lat="49.9635392" lon="9.5990264">
                <ele>153.0</ele>
                <time>2020-08-28T13:07:16.000Z</time>
                <name>Trackpoint 5566</name>
            </trkpt>
            <trkpt lat="49.9634464" lon="9.5990664">
                <ele>154.0</ele>
                <time>2020-08-28T13:07:18.000Z</time>
                <name>Trackpoint 5567</name>
            </trkpt>
            <trkpt lat="49.9633568" lon="9.5991048">
                <ele>154.0</ele>
                <time>2020-08-28T13:07:20.000Z</time>
                <name>Trackpoint 5568</name>
            </trkpt>
            <trkpt lat="49.9632608" lon="9.5991352">
                <ele>154.0</ele>
                <time>2020-08-28T13:07:22.000Z</time>
                <name>Trackpoint 5569</name>
            </trkpt>
            <trkpt lat="49.9631648" lon="9.5991632">
                <ele>154.0</ele>
                <time>2020-08-28T13:07:24.000Z</time>
                <name>Trackpoint 5570</name>
            </trkpt>
            <trkpt lat="49.9630688" lon="9.5992048">
                <ele>155.0</ele>
                <time>2020-08-28T13:07:26.000Z</time>
                <name>Trackpoint 5571</name>
            </trkpt>
            <trkpt lat="49.9629856" lon="9.5992416">
                <ele>155.0</ele>
                <time>2020-08-28T13:07:28.000Z</time>
                <name>Trackpoint 5572</name>
            </trkpt>
            <trkpt lat="49.962896" lon="9.5992584">
                <ele>155.0</ele>
                <time>2020-08-28T13:07:31.000Z</time>
                <name>Trackpoint 5573</name>
            </trkpt>
            <trkpt lat="49.9628224" lon="9.5991536">
                <ele>156.0</ele>
                <time>2020-08-28T13:07:35.000Z</time>
                <name>Trackpoint 5574</name>
            </trkpt>
            <trkpt lat="49.9627904" lon="9.5990448">
                <ele>156.0</ele>
                <time>2020-08-28T13:07:38.000Z</time>
                <name>Trackpoint 5575</name>
            </trkpt>
            <trkpt lat="49.9627584" lon="9.5989416">
                <ele>156.0</ele>
                <time>2020-08-28T13:07:41.000Z</time>
                <name>Trackpoint 5576</name>
            </trkpt>
            <trkpt lat="49.96272" lon="9.598848">
                <ele>156.0</ele>
                <time>2020-08-28T13:07:44.000Z</time>
                <name>Trackpoint 5577</name>
            </trkpt>
            <trkpt lat="49.9626496" lon="9.5987864">
                <ele>156.0</ele>
                <time>2020-08-28T13:07:46.000Z</time>
                <name>Trackpoint 5578</name>
            </trkpt>
            <trkpt lat="49.96256" lon="9.5986952">
                <ele>155.0</ele>
                <time>2020-08-28T13:07:49.000Z</time>
                <name>Trackpoint 5579</name>
            </trkpt>
            <trkpt lat="49.9624992" lon="9.5986168">
                <ele>155.0</ele>
                <time>2020-08-28T13:07:51.000Z</time>
                <name>Trackpoint 5580</name>
            </trkpt>
            <trkpt lat="49.9624256" lon="9.598532">
                <ele>155.0</ele>
                <time>2020-08-28T13:07:54.000Z</time>
                <name>Trackpoint 5581</name>
            </trkpt>
            <trkpt lat="49.9623232" lon="9.5985272">
                <ele>155.0</ele>
                <time>2020-08-28T13:07:58.000Z</time>
                <name>Trackpoint 5582</name>
            </trkpt>
            <trkpt lat="49.9622112" lon="9.5985296">
                <ele>155.0</ele>
                <time>2020-08-28T13:08:23.000Z</time>
                <name>Trackpoint 5583</name>
            </trkpt>
            <trkpt lat="49.9621056" lon="9.5984896">
                <ele>155.0</ele>
                <time>2020-08-28T13:08:27.000Z</time>
                <name>Trackpoint 5584</name>
            </trkpt>
            <trkpt lat="49.962016" lon="9.5984752">
                <ele>155.0</ele>
                <time>2020-08-28T13:08:46.000Z</time>
                <name>Trackpoint 5585</name>
            </trkpt>
            <trkpt lat="49.9619648" lon="9.5983936">
                <ele>155.0</ele>
                <time>2020-08-28T13:08:50.000Z</time>
                <name>Trackpoint 5586</name>
            </trkpt>
            <trkpt lat="49.9619072" lon="9.5983104">
                <ele>154.0</ele>
                <time>2020-08-28T13:08:54.000Z</time>
                <name>Trackpoint 5587</name>
            </trkpt>
            <trkpt lat="49.9618752" lon="9.5982248">
                <ele>154.0</ele>
                <time>2020-08-28T13:08:58.000Z</time>
                <name>Trackpoint 5588</name>
            </trkpt>
            <trkpt lat="49.9617952" lon="9.5981776">
                <ele>155.0</ele>
                <time>2020-08-28T13:10:31.000Z</time>
                <name>Trackpoint 5589</name>
            </trkpt>
            <trkpt lat="49.9618048" lon="9.5982768">
                <ele>155.0</ele>
                <time>2020-08-28T13:10:58.000Z</time>
                <name>Trackpoint 5590</name>
            </trkpt>
            <trkpt lat="49.961792" lon="9.5981752">
                <ele>154.0</ele>
                <time>2020-08-28T13:24:00.000Z</time>
                <name>Trackpoint 5591</name>
            </trkpt>
            <trkpt lat="49.9617504" lon="9.5980904">
                <ele>154.0</ele>
                <time>2020-08-28T13:24:10.000Z</time>
                <name>Trackpoint 5592</name>
            </trkpt>
            <trkpt lat="49.9617856" lon="9.5981752">
                <ele>154.0</ele>
                <time>2020-08-28T13:26:49.000Z</time>
                <name>Trackpoint 5593</name>
            </trkpt>
            <trkpt lat="49.96176" lon="9.5982616">
                <ele>153.0</ele>
                <time>2020-08-28T13:37:29.000Z</time>
                <name>Trackpoint 5594</name>
            </trkpt>
            <trkpt lat="49.9617472" lon="9.5983648">
                <ele>153.0</ele>
                <time>2020-08-28T13:38:09.000Z</time>
                <name>Trackpoint 5595</name>
            </trkpt>
            <trkpt lat="49.9616384" lon="9.5983352">
                <ele>153.0</ele>
                <time>2020-08-28T13:38:16.000Z</time>
                <name>Trackpoint 5596</name>
            </trkpt>
            <trkpt lat="49.9615328" lon="9.5983296">
                <ele>153.0</ele>
                <time>2020-08-28T13:38:19.000Z</time>
                <name>Trackpoint 5597</name>
            </trkpt>
            <trkpt lat="49.9614464" lon="9.5983552">
                <ele>153.0</ele>
                <time>2020-08-28T13:38:21.000Z</time>
                <name>Trackpoint 5598</name>
            </trkpt>
            <trkpt lat="49.9613568" lon="9.5984024">
                <ele>153.0</ele>
                <time>2020-08-28T13:38:23.000Z</time>
                <name>Trackpoint 5599</name>
            </trkpt>
            <trkpt lat="49.9612736" lon="9.5984624">
                <ele>153.0</ele>
                <time>2020-08-28T13:38:25.000Z</time>
                <name>Trackpoint 5600</name>
            </trkpt>
            <trkpt lat="49.9611904" lon="9.5985272">
                <ele>153.0</ele>
                <time>2020-08-28T13:38:27.000Z</time>
                <name>Trackpoint 5601</name>
            </trkpt>
            <trkpt lat="49.961104" lon="9.598588">
                <ele>153.0</ele>
                <time>2020-08-28T13:38:29.000Z</time>
                <name>Trackpoint 5602</name>
            </trkpt>
            <trkpt lat="49.961024" lon="9.5986456">
                <ele>153.0</ele>
                <time>2020-08-28T13:38:31.000Z</time>
                <name>Trackpoint 5603</name>
            </trkpt>
            <trkpt lat="49.9609312" lon="9.5987304">
                <ele>153.0</ele>
                <time>2020-08-28T13:38:34.000Z</time>
                <name>Trackpoint 5604</name>
            </trkpt>
            <trkpt lat="49.9608256" lon="9.5988016">
                <ele>153.0</ele>
                <time>2020-08-28T13:38:37.000Z</time>
                <name>Trackpoint 5605</name>
            </trkpt>
            <trkpt lat="49.9607584" lon="9.5988616">
                <ele>153.0</ele>
                <time>2020-08-28T13:38:39.000Z</time>
                <name>Trackpoint 5606</name>
            </trkpt>
            <trkpt lat="49.9606816" lon="9.598924">
                <ele>153.0</ele>
                <time>2020-08-28T13:38:41.000Z</time>
                <name>Trackpoint 5607</name>
            </trkpt>
            <trkpt lat="49.9606016" lon="9.598984">
                <ele>153.0</ele>
                <time>2020-08-28T13:38:43.000Z</time>
                <name>Trackpoint 5608</name>
            </trkpt>
            <trkpt lat="49.9605152" lon="9.5990352">
                <ele>153.0</ele>
                <time>2020-08-28T13:38:45.000Z</time>
                <name>Trackpoint 5609</name>
            </trkpt>
            <trkpt lat="49.9604288" lon="9.5991">
                <ele>153.0</ele>
                <time>2020-08-28T13:38:47.000Z</time>
                <name>Trackpoint 5610</name>
            </trkpt>
            <trkpt lat="49.9603296" lon="9.5991848">
                <ele>153.0</ele>
                <time>2020-08-28T13:38:50.000Z</time>
                <name>Trackpoint 5611</name>
            </trkpt>
            <trkpt lat="49.9602592" lon="9.5992632">
                <ele>153.0</ele>
                <time>2020-08-28T13:38:53.000Z</time>
                <name>Trackpoint 5612</name>
            </trkpt>
            <trkpt lat="49.96016" lon="9.5993544">
                <ele>153.0</ele>
                <time>2020-08-28T13:38:56.000Z</time>
                <name>Trackpoint 5613</name>
            </trkpt>
            <trkpt lat="49.9600448" lon="9.5994264">
                <ele>152.0</ele>
                <time>2020-08-28T13:38:59.000Z</time>
                <name>Trackpoint 5614</name>
            </trkpt>
            <trkpt lat="49.9599616" lon="9.5995">
                <ele>152.0</ele>
                <time>2020-08-28T13:39:01.000Z</time>
                <name>Trackpoint 5615</name>
            </trkpt>
            <trkpt lat="49.9598784" lon="9.59956">
                <ele>152.0</ele>
                <time>2020-08-28T13:39:03.000Z</time>
                <name>Trackpoint 5616</name>
            </trkpt>
            <trkpt lat="49.9597888" lon="9.5996376">
                <ele>152.0</ele>
                <time>2020-08-28T13:39:05.000Z</time>
                <name>Trackpoint 5617</name>
            </trkpt>
            <trkpt lat="49.9597024" lon="9.5997136">
                <ele>152.0</ele>
                <time>2020-08-28T13:39:07.000Z</time>
                <name>Trackpoint 5618</name>
            </trkpt>
            <trkpt lat="49.9595936" lon="9.5997864">
                <ele>152.0</ele>
                <time>2020-08-28T13:39:09.000Z</time>
                <name>Trackpoint 5619</name>
            </trkpt>
            <trkpt lat="49.959472" lon="9.599908">
                <ele>152.0</ele>
                <time>2020-08-28T13:39:11.000Z</time>
                <name>Trackpoint 5620</name>
            </trkpt>
            <trkpt lat="49.9593568" lon="9.5999744">
                <ele>151.0</ele>
                <time>2020-08-28T13:39:13.000Z</time>
                <name>Trackpoint 5621</name>
            </trkpt>
            <trkpt lat="49.9592672" lon="9.6000296">
                <ele>151.0</ele>
                <time>2020-08-28T13:39:15.000Z</time>
                <name>Trackpoint 5622</name>
            </trkpt>
            <trkpt lat="49.9591744" lon="9.600092">
                <ele>151.0</ele>
                <time>2020-08-28T13:39:17.000Z</time>
                <name>Trackpoint 5623</name>
            </trkpt>
            <trkpt lat="49.9590592" lon="9.6001168">
                <ele>151.0</ele>
                <time>2020-08-28T13:39:19.000Z</time>
                <name>Trackpoint 5624</name>
            </trkpt>
            <trkpt lat="49.9589504" lon="9.60016">
                <ele>150.0</ele>
                <time>2020-08-28T13:39:21.000Z</time>
                <name>Trackpoint 5625</name>
            </trkpt>
            <trkpt lat="49.958832" lon="9.6002232">
                <ele>150.0</ele>
                <time>2020-08-28T13:39:23.000Z</time>
                <name>Trackpoint 5626</name>
            </trkpt>
            <trkpt lat="49.9587488" lon="9.6002816">
                <ele>150.0</ele>
                <time>2020-08-28T13:39:25.000Z</time>
                <name>Trackpoint 5627</name>
            </trkpt>
            <trkpt lat="49.9586496" lon="9.6003504">
                <ele>150.0</ele>
                <time>2020-08-28T13:39:27.000Z</time>
                <name>Trackpoint 5628</name>
            </trkpt>
            <trkpt lat="49.9585536" lon="9.6004088">
                <ele>150.0</ele>
                <time>2020-08-28T13:39:29.000Z</time>
                <name>Trackpoint 5629</name>
            </trkpt>
            <trkpt lat="49.958464" lon="9.6004496">
                <ele>149.0</ele>
                <time>2020-08-28T13:39:31.000Z</time>
                <name>Trackpoint 5630</name>
            </trkpt>
            <trkpt lat="49.9583776" lon="9.6004896">
                <ele>148.0</ele>
                <time>2020-08-28T13:39:33.000Z</time>
                <name>Trackpoint 5631</name>
            </trkpt>
            <trkpt lat="49.9582912" lon="9.60052">
                <ele>147.0</ele>
                <time>2020-08-28T13:39:35.000Z</time>
                <name>Trackpoint 5632</name>
            </trkpt>
            <trkpt lat="49.9581632" lon="9.6005648">
                <ele>145.0</ele>
                <time>2020-08-28T13:39:38.000Z</time>
                <name>Trackpoint 5633</name>
            </trkpt>
            <trkpt lat="49.9580384" lon="9.6006008">
                <ele>144.0</ele>
                <time>2020-08-28T13:39:41.000Z</time>
                <name>Trackpoint 5634</name>
            </trkpt>
            <trkpt lat="49.9579136" lon="9.6006296">
                <ele>144.0</ele>
                <time>2020-08-28T13:39:44.000Z</time>
                <name>Trackpoint 5635</name>
            </trkpt>
            <trkpt lat="49.9577984" lon="9.6006432">
                <ele>144.0</ele>
                <time>2020-08-28T13:39:47.000Z</time>
                <name>Trackpoint 5636</name>
            </trkpt>
            <trkpt lat="49.9577024" lon="9.6006784">
                <ele>145.0</ele>
                <time>2020-08-28T13:40:08.000Z</time>
                <name>Trackpoint 5637</name>
            </trkpt>
            <trkpt lat="49.9576096" lon="9.6007208">
                <ele>145.0</ele>
                <time>2020-08-28T13:40:11.000Z</time>
                <name>Trackpoint 5638</name>
            </trkpt>
            <trkpt lat="49.9575072" lon="9.6007384">
                <ele>146.0</ele>
                <time>2020-08-28T13:40:38.000Z</time>
                <name>Trackpoint 5639</name>
            </trkpt>
            <trkpt lat="49.9574048" lon="9.600768">
                <ele>145.0</ele>
                <time>2020-08-28T13:40:41.000Z</time>
                <name>Trackpoint 5640</name>
            </trkpt>
            <trkpt lat="49.9572864" lon="9.6008016">
                <ele>145.0</ele>
                <time>2020-08-28T13:40:44.000Z</time>
                <name>Trackpoint 5641</name>
            </trkpt>
            <trkpt lat="49.9571904" lon="9.6008232">
                <ele>145.0</ele>
                <time>2020-08-28T13:40:46.000Z</time>
                <name>Trackpoint 5642</name>
            </trkpt>
            <trkpt lat="49.9570528" lon="9.6008464">
                <ele>145.0</ele>
                <time>2020-08-28T13:40:49.000Z</time>
                <name>Trackpoint 5643</name>
            </trkpt>
            <trkpt lat="49.9569472" lon="9.6008784">
                <ele>145.0</ele>
                <time>2020-08-28T13:40:51.000Z</time>
                <name>Trackpoint 5644</name>
            </trkpt>
            <trkpt lat="49.9568448" lon="9.6008904">
                <ele>145.0</ele>
                <time>2020-08-28T13:40:53.000Z</time>
                <name>Trackpoint 5645</name>
            </trkpt>
            <trkpt lat="49.9567456" lon="9.600908">
                <ele>145.0</ele>
                <time>2020-08-28T13:40:55.000Z</time>
                <name>Trackpoint 5646</name>
            </trkpt>
            <trkpt lat="49.9566336" lon="9.6009168">
                <ele>146.0</ele>
                <time>2020-08-28T13:40:57.000Z</time>
                <name>Trackpoint 5647</name>
            </trkpt>
            <trkpt lat="49.9565216" lon="9.6009264">
                <ele>146.0</ele>
                <time>2020-08-28T13:40:59.000Z</time>
                <name>Trackpoint 5648</name>
            </trkpt>
            <trkpt lat="49.9564096" lon="9.6009232">
                <ele>146.0</ele>
                <time>2020-08-28T13:41:01.000Z</time>
                <name>Trackpoint 5649</name>
            </trkpt>
            <trkpt lat="49.9562944" lon="9.6009216">
                <ele>146.0</ele>
                <time>2020-08-28T13:41:03.000Z</time>
                <name>Trackpoint 5650</name>
            </trkpt>
            <trkpt lat="49.9561792" lon="9.6009232">
                <ele>146.0</ele>
                <time>2020-08-28T13:41:05.000Z</time>
                <name>Trackpoint 5651</name>
            </trkpt>
            <trkpt lat="49.9560608" lon="9.6009184">
                <ele>147.0</ele>
                <time>2020-08-28T13:41:07.000Z</time>
                <name>Trackpoint 5652</name>
            </trkpt>
            <trkpt lat="49.955952" lon="9.600928">
                <ele>146.0</ele>
                <time>2020-08-28T13:41:09.000Z</time>
                <name>Trackpoint 5653</name>
            </trkpt>
            <trkpt lat="49.9558368" lon="9.6009304">
                <ele>146.0</ele>
                <time>2020-08-28T13:41:11.000Z</time>
                <name>Trackpoint 5654</name>
            </trkpt>
            <trkpt lat="49.955728" lon="9.6009352">
                <ele>146.0</ele>
                <time>2020-08-28T13:41:13.000Z</time>
                <name>Trackpoint 5655</name>
            </trkpt>
            <trkpt lat="49.9556" lon="9.6009264">
                <ele>146.0</ele>
                <time>2020-08-28T13:41:15.000Z</time>
                <name>Trackpoint 5656</name>
            </trkpt>
            <trkpt lat="49.9554912" lon="9.6009216">
                <ele>146.0</ele>
                <time>2020-08-28T13:41:17.000Z</time>
                <name>Trackpoint 5657</name>
            </trkpt>
            <trkpt lat="49.9553728" lon="9.6009104">
                <ele>147.0</ele>
                <time>2020-08-28T13:41:19.000Z</time>
                <name>Trackpoint 5658</name>
            </trkpt>
            <trkpt lat="49.9552576" lon="9.6008968">
                <ele>147.0</ele>
                <time>2020-08-28T13:41:21.000Z</time>
                <name>Trackpoint 5659</name>
            </trkpt>
            <trkpt lat="49.9551392" lon="9.6008832">
                <ele>147.0</ele>
                <time>2020-08-28T13:41:23.000Z</time>
                <name>Trackpoint 5660</name>
            </trkpt>
            <trkpt lat="49.9550272" lon="9.60088">
                <ele>147.0</ele>
                <time>2020-08-28T13:41:25.000Z</time>
                <name>Trackpoint 5661</name>
            </trkpt>
            <trkpt lat="49.9549088" lon="9.6008752">
                <ele>147.0</ele>
                <time>2020-08-28T13:41:27.000Z</time>
                <name>Trackpoint 5662</name>
            </trkpt>
            <trkpt lat="49.9547936" lon="9.600868">
                <ele>147.0</ele>
                <time>2020-08-28T13:41:29.000Z</time>
                <name>Trackpoint 5663</name>
            </trkpt>
            <trkpt lat="49.9546784" lon="9.6008568">
                <ele>147.0</ele>
                <time>2020-08-28T13:41:31.000Z</time>
                <name>Trackpoint 5664</name>
            </trkpt>
            <trkpt lat="49.9545632" lon="9.6008352">
                <ele>147.0</ele>
                <time>2020-08-28T13:41:33.000Z</time>
                <name>Trackpoint 5665</name>
            </trkpt>
            <trkpt lat="49.9544448" lon="9.6008184">
                <ele>147.0</ele>
                <time>2020-08-28T13:41:35.000Z</time>
                <name>Trackpoint 5666</name>
            </trkpt>
            <trkpt lat="49.9543328" lon="9.6008232">
                <ele>147.0</ele>
                <time>2020-08-28T13:41:37.000Z</time>
                <name>Trackpoint 5667</name>
            </trkpt>
            <trkpt lat="49.954224" lon="9.600832">
                <ele>147.0</ele>
                <time>2020-08-28T13:41:39.000Z</time>
                <name>Trackpoint 5668</name>
            </trkpt>
            <trkpt lat="49.9541216" lon="9.6008064">
                <ele>147.0</ele>
                <time>2020-08-28T13:41:41.000Z</time>
                <name>Trackpoint 5669</name>
            </trkpt>
            <trkpt lat="49.9540224" lon="9.6007408">
                <ele>148.0</ele>
                <time>2020-08-28T13:41:43.000Z</time>
                <name>Trackpoint 5670</name>
            </trkpt>
            <trkpt lat="49.953904" lon="9.6007032">
                <ele>148.0</ele>
                <time>2020-08-28T13:41:45.000Z</time>
                <name>Trackpoint 5671</name>
            </trkpt>
            <trkpt lat="49.9537824" lon="9.6007016">
                <ele>147.0</ele>
                <time>2020-08-28T13:41:47.000Z</time>
                <name>Trackpoint 5672</name>
            </trkpt>
            <trkpt lat="49.953664" lon="9.6007">
                <ele>147.0</ele>
                <time>2020-08-28T13:41:49.000Z</time>
                <name>Trackpoint 5673</name>
            </trkpt>
            <trkpt lat="49.953552" lon="9.600688">
                <ele>148.0</ele>
                <time>2020-08-28T13:41:51.000Z</time>
                <name>Trackpoint 5674</name>
            </trkpt>
            <trkpt lat="49.9534432" lon="9.6006784">
                <ele>147.0</ele>
                <time>2020-08-28T13:41:53.000Z</time>
                <name>Trackpoint 5675</name>
            </trkpt>
            <trkpt lat="49.953328" lon="9.6006784">
                <ele>147.0</ele>
                <time>2020-08-28T13:41:55.000Z</time>
                <name>Trackpoint 5676</name>
            </trkpt>
            <trkpt lat="49.9532128" lon="9.6006736">
                <ele>147.0</ele>
                <time>2020-08-28T13:41:57.000Z</time>
                <name>Trackpoint 5677</name>
            </trkpt>
            <trkpt lat="49.9531072" lon="9.6006896">
                <ele>147.0</ele>
                <time>2020-08-28T13:41:59.000Z</time>
                <name>Trackpoint 5678</name>
            </trkpt>
            <trkpt lat="49.953008" lon="9.6007248">
                <ele>147.0</ele>
                <time>2020-08-28T13:42:01.000Z</time>
                <name>Trackpoint 5679</name>
            </trkpt>
            <trkpt lat="49.9529024" lon="9.6007416">
                <ele>147.0</ele>
                <time>2020-08-28T13:42:03.000Z</time>
                <name>Trackpoint 5680</name>
            </trkpt>
            <trkpt lat="49.9527936" lon="9.600728">
                <ele>147.0</ele>
                <time>2020-08-28T13:42:05.000Z</time>
                <name>Trackpoint 5681</name>
            </trkpt>
            <trkpt lat="49.9526816" lon="9.600712">
                <ele>147.0</ele>
                <time>2020-08-28T13:42:07.000Z</time>
                <name>Trackpoint 5682</name>
            </trkpt>
            <trkpt lat="49.952576" lon="9.6006984">
                <ele>147.0</ele>
                <time>2020-08-28T13:42:09.000Z</time>
                <name>Trackpoint 5683</name>
            </trkpt>
            <trkpt lat="49.952464" lon="9.6006768">
                <ele>147.0</ele>
                <time>2020-08-28T13:42:11.000Z</time>
                <name>Trackpoint 5684</name>
            </trkpt>
            <trkpt lat="49.9523616" lon="9.6006544">
                <ele>147.0</ele>
                <time>2020-08-28T13:42:13.000Z</time>
                <name>Trackpoint 5685</name>
            </trkpt>
            <trkpt lat="49.952256" lon="9.6006344">
                <ele>147.0</ele>
                <time>2020-08-28T13:42:15.000Z</time>
                <name>Trackpoint 5686</name>
            </trkpt>
            <trkpt lat="49.9521568" lon="9.6006216">
                <ele>147.0</ele>
                <time>2020-08-28T13:42:17.000Z</time>
                <name>Trackpoint 5687</name>
            </trkpt>
            <trkpt lat="49.9520576" lon="9.60058">
                <ele>147.0</ele>
                <time>2020-08-28T13:42:19.000Z</time>
                <name>Trackpoint 5688</name>
            </trkpt>
            <trkpt lat="49.9519584" lon="9.6005096">
                <ele>147.0</ele>
                <time>2020-08-28T13:42:21.000Z</time>
                <name>Trackpoint 5689</name>
            </trkpt>
            <trkpt lat="49.951856" lon="9.6004336">
                <ele>147.0</ele>
                <time>2020-08-28T13:42:23.000Z</time>
                <name>Trackpoint 5690</name>
            </trkpt>
            <trkpt lat="49.9517504" lon="9.6003648">
                <ele>148.0</ele>
                <time>2020-08-28T13:42:25.000Z</time>
                <name>Trackpoint 5691</name>
            </trkpt>
            <trkpt lat="49.9516448" lon="9.600304">
                <ele>148.0</ele>
                <time>2020-08-28T13:42:27.000Z</time>
                <name>Trackpoint 5692</name>
            </trkpt>
            <trkpt lat="49.9515328" lon="9.6002432">
                <ele>148.0</ele>
                <time>2020-08-28T13:42:29.000Z</time>
                <name>Trackpoint 5693</name>
            </trkpt>
            <trkpt lat="49.9514272" lon="9.60018">
                <ele>148.0</ele>
                <time>2020-08-28T13:42:31.000Z</time>
                <name>Trackpoint 5694</name>
            </trkpt>
            <trkpt lat="49.951328" lon="9.6001192">
                <ele>149.0</ele>
                <time>2020-08-28T13:42:33.000Z</time>
                <name>Trackpoint 5695</name>
            </trkpt>
            <trkpt lat="49.9512224" lon="9.6000608">
                <ele>149.0</ele>
                <time>2020-08-28T13:42:35.000Z</time>
                <name>Trackpoint 5696</name>
            </trkpt>
            <trkpt lat="49.95112" lon="9.6000032">
                <ele>149.0</ele>
                <time>2020-08-28T13:42:37.000Z</time>
                <name>Trackpoint 5697</name>
            </trkpt>
            <trkpt lat="49.9510208" lon="9.5999432">
                <ele>149.0</ele>
                <time>2020-08-28T13:42:39.000Z</time>
                <name>Trackpoint 5698</name>
            </trkpt>
            <trkpt lat="49.9509248" lon="9.5998784">
                <ele>149.0</ele>
                <time>2020-08-28T13:42:41.000Z</time>
                <name>Trackpoint 5699</name>
            </trkpt>
            <trkpt lat="49.9508224" lon="9.5998288">
                <ele>149.0</ele>
                <time>2020-08-28T13:42:43.000Z</time>
                <name>Trackpoint 5700</name>
            </trkpt>
            <trkpt lat="49.9507104" lon="9.599776">
                <ele>149.0</ele>
                <time>2020-08-28T13:42:45.000Z</time>
                <name>Trackpoint 5701</name>
            </trkpt>
            <trkpt lat="49.950624" lon="9.5997336">
                <ele>149.0</ele>
                <time>2020-08-28T13:42:47.000Z</time>
                <name>Trackpoint 5702</name>
            </trkpt>
            <trkpt lat="49.9505376" lon="9.5996752">
                <ele>148.0</ele>
                <time>2020-08-28T13:42:49.000Z</time>
                <name>Trackpoint 5703</name>
            </trkpt>
            <trkpt lat="49.9504576" lon="9.5995976">
                <ele>148.0</ele>
                <time>2020-08-28T13:42:51.000Z</time>
                <name>Trackpoint 5704</name>
            </trkpt>
            <trkpt lat="49.9503776" lon="9.5995064">
                <ele>148.0</ele>
                <time>2020-08-28T13:42:53.000Z</time>
                <name>Trackpoint 5705</name>
            </trkpt>
            <trkpt lat="49.9502912" lon="9.5994016">
                <ele>149.0</ele>
                <time>2020-08-28T13:42:55.000Z</time>
                <name>Trackpoint 5706</name>
            </trkpt>
            <trkpt lat="49.9502016" lon="9.5992936">
                <ele>149.0</ele>
                <time>2020-08-28T13:42:57.000Z</time>
                <name>Trackpoint 5707</name>
            </trkpt>
            <trkpt lat="49.9501152" lon="9.599212">
                <ele>149.0</ele>
                <time>2020-08-28T13:42:59.000Z</time>
                <name>Trackpoint 5708</name>
            </trkpt>
            <trkpt lat="49.9500288" lon="9.59914">
                <ele>149.0</ele>
                <time>2020-08-28T13:43:01.000Z</time>
                <name>Trackpoint 5709</name>
            </trkpt>
            <trkpt lat="49.9499424" lon="9.5990664">
                <ele>149.0</ele>
                <time>2020-08-28T13:43:03.000Z</time>
                <name>Trackpoint 5710</name>
            </trkpt>
            <trkpt lat="49.9498496" lon="9.5990064">
                <ele>149.0</ele>
                <time>2020-08-28T13:43:05.000Z</time>
                <name>Trackpoint 5711</name>
            </trkpt>
            <trkpt lat="49.949744" lon="9.59896">
                <ele>149.0</ele>
                <time>2020-08-28T13:43:07.000Z</time>
                <name>Trackpoint 5712</name>
            </trkpt>
            <trkpt lat="49.9496576" lon="9.598924">
                <ele>150.0</ele>
                <time>2020-08-28T13:43:09.000Z</time>
                <name>Trackpoint 5713</name>
            </trkpt>
            <trkpt lat="49.9495552" lon="9.5988648">
                <ele>150.0</ele>
                <time>2020-08-28T13:43:11.000Z</time>
                <name>Trackpoint 5714</name>
            </trkpt>
            <trkpt lat="49.94944" lon="9.5988392">
                <ele>150.0</ele>
                <time>2020-08-28T13:43:13.000Z</time>
                <name>Trackpoint 5715</name>
            </trkpt>
            <trkpt lat="49.9493472" lon="9.598812">
                <ele>150.0</ele>
                <time>2020-08-28T13:43:15.000Z</time>
                <name>Trackpoint 5716</name>
            </trkpt>
            <trkpt lat="49.9492576" lon="9.598772">
                <ele>150.0</ele>
                <time>2020-08-28T13:43:17.000Z</time>
                <name>Trackpoint 5717</name>
            </trkpt>
            <trkpt lat="49.9491552" lon="9.5987328">
                <ele>150.0</ele>
                <time>2020-08-28T13:43:19.000Z</time>
                <name>Trackpoint 5718</name>
            </trkpt>
            <trkpt lat="49.9490464" lon="9.5987056">
                <ele>150.0</ele>
                <time>2020-08-28T13:43:21.000Z</time>
                <name>Trackpoint 5719</name>
            </trkpt>
            <trkpt lat="49.9489408" lon="9.5986536">
                <ele>150.0</ele>
                <time>2020-08-28T13:43:23.000Z</time>
                <name>Trackpoint 5720</name>
            </trkpt>
            <trkpt lat="49.9488256" lon="9.5986016">
                <ele>150.0</ele>
                <time>2020-08-28T13:43:25.000Z</time>
                <name>Trackpoint 5721</name>
            </trkpt>
            <trkpt lat="49.9487104" lon="9.5985544">
                <ele>150.0</ele>
                <time>2020-08-28T13:43:27.000Z</time>
                <name>Trackpoint 5722</name>
            </trkpt>
            <trkpt lat="49.9486048" lon="9.5985032">
                <ele>150.0</ele>
                <time>2020-08-28T13:43:29.000Z</time>
                <name>Trackpoint 5723</name>
            </trkpt>
            <trkpt lat="49.9485088" lon="9.5984552">
                <ele>150.0</ele>
                <time>2020-08-28T13:43:31.000Z</time>
                <name>Trackpoint 5724</name>
            </trkpt>
            <trkpt lat="49.9484096" lon="9.5984224">
                <ele>150.0</ele>
                <time>2020-08-28T13:43:33.000Z</time>
                <name>Trackpoint 5725</name>
            </trkpt>
            <trkpt lat="49.948304" lon="9.5983848">
                <ele>150.0</ele>
                <time>2020-08-28T13:43:35.000Z</time>
                <name>Trackpoint 5726</name>
            </trkpt>
            <trkpt lat="49.948192" lon="9.5983536">
                <ele>150.0</ele>
                <time>2020-08-28T13:43:37.000Z</time>
                <name>Trackpoint 5727</name>
            </trkpt>
            <trkpt lat="49.948096" lon="9.5983312">
                <ele>150.0</ele>
                <time>2020-08-28T13:43:39.000Z</time>
                <name>Trackpoint 5728</name>
            </trkpt>
            <trkpt lat="49.948016" lon="9.59828">
                <ele>150.0</ele>
                <time>2020-08-28T13:43:41.000Z</time>
                <name>Trackpoint 5729</name>
            </trkpt>
            <trkpt lat="49.947904" lon="9.598204">
                <ele>150.0</ele>
                <time>2020-08-28T13:43:44.000Z</time>
                <name>Trackpoint 5730</name>
            </trkpt>
            <trkpt lat="49.9478144" lon="9.5981304">
                <ele>150.0</ele>
                <time>2020-08-28T13:43:46.000Z</time>
                <name>Trackpoint 5731</name>
            </trkpt>
            <trkpt lat="49.9477344" lon="9.5980656">
                <ele>150.0</ele>
                <time>2020-08-28T13:43:48.000Z</time>
                <name>Trackpoint 5732</name>
            </trkpt>
            <trkpt lat="49.9476608" lon="9.5979952">
                <ele>150.0</ele>
                <time>2020-08-28T13:43:50.000Z</time>
                <name>Trackpoint 5733</name>
            </trkpt>
            <trkpt lat="49.9475936" lon="9.5979248">
                <ele>151.0</ele>
                <time>2020-08-28T13:43:52.000Z</time>
                <name>Trackpoint 5734</name>
            </trkpt>
            <trkpt lat="49.9475296" lon="9.5978568">
                <ele>150.0</ele>
                <time>2020-08-28T13:43:54.000Z</time>
                <name>Trackpoint 5735</name>
            </trkpt>
            <trkpt lat="49.947456" lon="9.5977752">
                <ele>150.0</ele>
                <time>2020-08-28T13:43:56.000Z</time>
                <name>Trackpoint 5736</name>
            </trkpt>
            <trkpt lat="49.9473792" lon="9.5976832">
                <ele>150.0</ele>
                <time>2020-08-28T13:43:58.000Z</time>
                <name>Trackpoint 5737</name>
            </trkpt>
            <trkpt lat="49.9473088" lon="9.5976">
                <ele>150.0</ele>
                <time>2020-08-28T13:44:00.000Z</time>
                <name>Trackpoint 5738</name>
            </trkpt>
            <trkpt lat="49.9472384" lon="9.59752">
                <ele>150.0</ele>
                <time>2020-08-28T13:44:02.000Z</time>
                <name>Trackpoint 5739</name>
            </trkpt>
            <trkpt lat="49.9471776" lon="9.5974328">
                <ele>150.0</ele>
                <time>2020-08-28T13:44:04.000Z</time>
                <name>Trackpoint 5740</name>
            </trkpt>
            <trkpt lat="49.9471168" lon="9.5973384">
                <ele>150.0</ele>
                <time>2020-08-28T13:44:06.000Z</time>
                <name>Trackpoint 5741</name>
            </trkpt>
            <trkpt lat="49.9470624" lon="9.597252">
                <ele>150.0</ele>
                <time>2020-08-28T13:44:08.000Z</time>
                <name>Trackpoint 5742</name>
            </trkpt>
            <trkpt lat="49.9470144" lon="9.5971448">
                <ele>150.0</ele>
                <time>2020-08-28T13:44:10.000Z</time>
                <name>Trackpoint 5743</name>
            </trkpt>
            <trkpt lat="49.9469728" lon="9.5970448">
                <ele>150.0</ele>
                <time>2020-08-28T13:44:12.000Z</time>
                <name>Trackpoint 5744</name>
            </trkpt>
            <trkpt lat="49.9469216" lon="9.5969312">
                <ele>150.0</ele>
                <time>2020-08-28T13:44:14.000Z</time>
                <name>Trackpoint 5745</name>
            </trkpt>
            <trkpt lat="49.9468512" lon="9.59678">
                <ele>150.0</ele>
                <time>2020-08-28T13:44:16.000Z</time>
                <name>Trackpoint 5746</name>
            </trkpt>
            <trkpt lat="49.9467776" lon="9.5966168">
                <ele>150.0</ele>
                <time>2020-08-28T13:44:18.000Z</time>
                <name>Trackpoint 5747</name>
            </trkpt>
            <trkpt lat="49.94672" lon="9.5964896">
                <ele>150.0</ele>
                <time>2020-08-28T13:44:20.000Z</time>
                <name>Trackpoint 5748</name>
            </trkpt>
            <trkpt lat="49.9466592" lon="9.5963552">
                <ele>149.0</ele>
                <time>2020-08-28T13:44:22.000Z</time>
                <name>Trackpoint 5749</name>
            </trkpt>
            <trkpt lat="49.946608" lon="9.5962064">
                <ele>149.0</ele>
                <time>2020-08-28T13:44:24.000Z</time>
                <name>Trackpoint 5750</name>
            </trkpt>
            <trkpt lat="49.9465472" lon="9.5960728">
                <ele>149.0</ele>
                <time>2020-08-28T13:44:26.000Z</time>
                <name>Trackpoint 5751</name>
            </trkpt>
            <trkpt lat="49.9464864" lon="9.5959232">
                <ele>149.0</ele>
                <time>2020-08-28T13:44:28.000Z</time>
                <name>Trackpoint 5752</name>
            </trkpt>
            <trkpt lat="49.9464288" lon="9.59578">
                <ele>149.0</ele>
                <time>2020-08-28T13:44:30.000Z</time>
                <name>Trackpoint 5753</name>
            </trkpt>
            <trkpt lat="49.9463616" lon="9.59562">
                <ele>149.0</ele>
                <time>2020-08-28T13:44:32.000Z</time>
                <name>Trackpoint 5754</name>
            </trkpt>
            <trkpt lat="49.946304" lon="9.5954712">
                <ele>149.0</ele>
                <time>2020-08-28T13:44:34.000Z</time>
                <name>Trackpoint 5755</name>
            </trkpt>
            <trkpt lat="49.9462464" lon="9.5953216">
                <ele>149.0</ele>
                <time>2020-08-28T13:44:36.000Z</time>
                <name>Trackpoint 5756</name>
            </trkpt>
            <trkpt lat="49.9461952" lon="9.5951664">
                <ele>149.0</ele>
                <time>2020-08-28T13:44:38.000Z</time>
                <name>Trackpoint 5757</name>
            </trkpt>
            <trkpt lat="49.9461376" lon="9.5950216">
                <ele>149.0</ele>
                <time>2020-08-28T13:44:40.000Z</time>
                <name>Trackpoint 5758</name>
            </trkpt>
            <trkpt lat="49.9460864" lon="9.5948952">
                <ele>149.0</ele>
                <time>2020-08-28T13:44:42.000Z</time>
                <name>Trackpoint 5759</name>
            </trkpt>
            <trkpt lat="49.9460416" lon="9.5947552">
                <ele>149.0</ele>
                <time>2020-08-28T13:44:44.000Z</time>
                <name>Trackpoint 5760</name>
            </trkpt>
            <trkpt lat="49.9459904" lon="9.594608">
                <ele>149.0</ele>
                <time>2020-08-28T13:44:46.000Z</time>
                <name>Trackpoint 5761</name>
            </trkpt>
            <trkpt lat="49.9459392" lon="9.594468">
                <ele>149.0</ele>
                <time>2020-08-28T13:44:48.000Z</time>
                <name>Trackpoint 5762</name>
            </trkpt>
            <trkpt lat="49.9459008" lon="9.5943416">
                <ele>149.0</ele>
                <time>2020-08-28T13:44:50.000Z</time>
                <name>Trackpoint 5763</name>
            </trkpt>
            <trkpt lat="49.9458528" lon="9.5942072">
                <ele>149.0</ele>
                <time>2020-08-28T13:44:52.000Z</time>
                <name>Trackpoint 5764</name>
            </trkpt>
            <trkpt lat="49.945792" lon="9.5940512">
                <ele>149.0</ele>
                <time>2020-08-28T13:44:54.000Z</time>
                <name>Trackpoint 5765</name>
            </trkpt>
            <trkpt lat="49.9457408" lon="9.5939016">
                <ele>149.0</ele>
                <time>2020-08-28T13:44:56.000Z</time>
                <name>Trackpoint 5766</name>
            </trkpt>
            <trkpt lat="49.9456992" lon="9.5937768">
                <ele>149.0</ele>
                <time>2020-08-28T13:44:58.000Z</time>
                <name>Trackpoint 5767</name>
            </trkpt>
            <trkpt lat="49.9456544" lon="9.59364">
                <ele>149.0</ele>
                <time>2020-08-28T13:45:00.000Z</time>
                <name>Trackpoint 5768</name>
            </trkpt>
            <trkpt lat="49.9455808" lon="9.5934824">
                <ele>149.0</ele>
                <time>2020-08-28T13:45:02.000Z</time>
                <name>Trackpoint 5769</name>
            </trkpt>
            <trkpt lat="49.9455104" lon="9.5933336">
                <ele>149.0</ele>
                <time>2020-08-28T13:45:04.000Z</time>
                <name>Trackpoint 5770</name>
            </trkpt>
            <trkpt lat="49.9454272" lon="9.5931784">
                <ele>149.0</ele>
                <time>2020-08-28T13:45:06.000Z</time>
                <name>Trackpoint 5771</name>
            </trkpt>
            <trkpt lat="49.9453568" lon="9.5930296">
                <ele>149.0</ele>
                <time>2020-08-28T13:45:08.000Z</time>
                <name>Trackpoint 5772</name>
            </trkpt>
            <trkpt lat="49.9452768" lon="9.5929032">
                <ele>149.0</ele>
                <time>2020-08-28T13:45:10.000Z</time>
                <name>Trackpoint 5773</name>
            </trkpt>
            <trkpt lat="49.9452096" lon="9.592776">
                <ele>149.0</ele>
                <time>2020-08-28T13:45:12.000Z</time>
                <name>Trackpoint 5774</name>
            </trkpt>
            <trkpt lat="49.945152" lon="9.5926464">
                <ele>149.0</ele>
                <time>2020-08-28T13:45:14.000Z</time>
                <name>Trackpoint 5775</name>
            </trkpt>
            <trkpt lat="49.945104" lon="9.5925232">
                <ele>149.0</ele>
                <time>2020-08-28T13:45:16.000Z</time>
                <name>Trackpoint 5776</name>
            </trkpt>
            <trkpt lat="49.9450784" lon="9.592388">
                <ele>149.0</ele>
                <time>2020-08-28T13:45:18.000Z</time>
                <name>Trackpoint 5777</name>
            </trkpt>
            <trkpt lat="49.9450464" lon="9.5922568">
                <ele>149.0</ele>
                <time>2020-08-28T13:45:20.000Z</time>
                <name>Trackpoint 5778</name>
            </trkpt>
            <trkpt lat="49.9450144" lon="9.5921112">
                <ele>149.0</ele>
                <time>2020-08-28T13:45:22.000Z</time>
                <name>Trackpoint 5779</name>
            </trkpt>
            <trkpt lat="49.94496" lon="9.5919504">
                <ele>149.0</ele>
                <time>2020-08-28T13:45:24.000Z</time>
                <name>Trackpoint 5780</name>
            </trkpt>
            <trkpt lat="49.9448896" lon="9.5918">
                <ele>149.0</ele>
                <time>2020-08-28T13:45:26.000Z</time>
                <name>Trackpoint 5781</name>
            </trkpt>
            <trkpt lat="49.9448352" lon="9.5916664">
                <ele>150.0</ele>
                <time>2020-08-28T13:45:28.000Z</time>
                <name>Trackpoint 5782</name>
            </trkpt>
            <trkpt lat="49.9447904" lon="9.5915296">
                <ele>150.0</ele>
                <time>2020-08-28T13:45:30.000Z</time>
                <name>Trackpoint 5783</name>
            </trkpt>
            <trkpt lat="49.9447456" lon="9.591396">
                <ele>150.0</ele>
                <time>2020-08-28T13:45:32.000Z</time>
                <name>Trackpoint 5784</name>
            </trkpt>
            <trkpt lat="49.9447104" lon="9.5912736">
                <ele>151.0</ele>
                <time>2020-08-28T13:45:34.000Z</time>
                <name>Trackpoint 5785</name>
            </trkpt>
            <trkpt lat="49.9446528" lon="9.5911416">
                <ele>151.0</ele>
                <time>2020-08-28T13:45:36.000Z</time>
                <name>Trackpoint 5786</name>
            </trkpt>
            <trkpt lat="49.9445792" lon="9.5910016">
                <ele>151.0</ele>
                <time>2020-08-28T13:45:38.000Z</time>
                <name>Trackpoint 5787</name>
            </trkpt>
            <trkpt lat="49.9445152" lon="9.590848">
                <ele>151.0</ele>
                <time>2020-08-28T13:45:40.000Z</time>
                <name>Trackpoint 5788</name>
            </trkpt>
            <trkpt lat="49.94448" lon="9.5907648">
                <ele>151.0</ele>
                <time>2020-08-28T13:45:41.000Z</time>
                <name>Trackpoint 5789</name>
            </trkpt>
            <trkpt lat="49.9444192" lon="9.5906136">
                <ele>151.0</ele>
                <time>2020-08-28T13:45:43.000Z</time>
                <name>Trackpoint 5790</name>
            </trkpt>
            <trkpt lat="49.9443616" lon="9.5904816">
                <ele>151.0</ele>
                <time>2020-08-28T13:45:45.000Z</time>
                <name>Trackpoint 5791</name>
            </trkpt>
            <trkpt lat="49.9443136" lon="9.5903464">
                <ele>151.0</ele>
                <time>2020-08-28T13:45:47.000Z</time>
                <name>Trackpoint 5792</name>
            </trkpt>
            <trkpt lat="49.9442624" lon="9.5902184">
                <ele>150.0</ele>
                <time>2020-08-28T13:45:49.000Z</time>
                <name>Trackpoint 5793</name>
            </trkpt>
            <trkpt lat="49.9442208" lon="9.5900744">
                <ele>150.0</ele>
                <time>2020-08-28T13:45:51.000Z</time>
                <name>Trackpoint 5794</name>
            </trkpt>
            <trkpt lat="49.9441856" lon="9.5899184">
                <ele>150.0</ele>
                <time>2020-08-28T13:45:53.000Z</time>
                <name>Trackpoint 5795</name>
            </trkpt>
            <trkpt lat="49.9441504" lon="9.589764">
                <ele>150.0</ele>
                <time>2020-08-28T13:45:55.000Z</time>
                <name>Trackpoint 5796</name>
            </trkpt>
            <trkpt lat="49.9441344" lon="9.5896728">
                <ele>150.0</ele>
                <time>2020-08-28T13:45:56.000Z</time>
                <name>Trackpoint 5797</name>
            </trkpt>
            <trkpt lat="49.9441152" lon="9.5895272">
                <ele>150.0</ele>
                <time>2020-08-28T13:45:58.000Z</time>
                <name>Trackpoint 5798</name>
            </trkpt>
            <trkpt lat="49.9440768" lon="9.589368">
                <ele>150.0</ele>
                <time>2020-08-28T13:46:00.000Z</time>
                <name>Trackpoint 5799</name>
            </trkpt>
            <trkpt lat="49.9440416" lon="9.5892136">
                <ele>150.0</ele>
                <time>2020-08-28T13:46:02.000Z</time>
                <name>Trackpoint 5800</name>
            </trkpt>
            <trkpt lat="49.944032" lon="9.589124">
                <ele>150.0</ele>
                <time>2020-08-28T13:46:03.000Z</time>
                <name>Trackpoint 5801</name>
            </trkpt>
            <trkpt lat="49.944" lon="9.5889728">
                <ele>150.0</ele>
                <time>2020-08-28T13:46:05.000Z</time>
                <name>Trackpoint 5802</name>
            </trkpt>
            <trkpt lat="49.9439744" lon="9.5888184">
                <ele>150.0</ele>
                <time>2020-08-28T13:46:07.000Z</time>
                <name>Trackpoint 5803</name>
            </trkpt>
            <trkpt lat="49.9439456" lon="9.58866">
                <ele>150.0</ele>
                <time>2020-08-28T13:46:09.000Z</time>
                <name>Trackpoint 5804</name>
            </trkpt>
            <trkpt lat="49.9439136" lon="9.5885048">
                <ele>150.0</ele>
                <time>2020-08-28T13:46:11.000Z</time>
                <name>Trackpoint 5805</name>
            </trkpt>
            <trkpt lat="49.9438752" lon="9.5883712">
                <ele>150.0</ele>
                <time>2020-08-28T13:46:13.000Z</time>
                <name>Trackpoint 5806</name>
            </trkpt>
            <trkpt lat="49.9438368" lon="9.5882328">
                <ele>150.0</ele>
                <time>2020-08-28T13:46:15.000Z</time>
                <name>Trackpoint 5807</name>
            </trkpt>
            <trkpt lat="49.943792" lon="9.5880768">
                <ele>150.0</ele>
                <time>2020-08-28T13:46:17.000Z</time>
                <name>Trackpoint 5808</name>
            </trkpt>
            <trkpt lat="49.9437472" lon="9.5879224">
                <ele>150.0</ele>
                <time>2020-08-28T13:46:19.000Z</time>
                <name>Trackpoint 5809</name>
            </trkpt>
            <trkpt lat="49.9437152" lon="9.5877816">
                <ele>150.0</ele>
                <time>2020-08-28T13:46:21.000Z</time>
                <name>Trackpoint 5810</name>
            </trkpt>
            <trkpt lat="49.9436768" lon="9.58764">
                <ele>150.0</ele>
                <time>2020-08-28T13:46:23.000Z</time>
                <name>Trackpoint 5811</name>
            </trkpt>
            <trkpt lat="49.9436288" lon="9.5874928">
                <ele>150.0</ele>
                <time>2020-08-28T13:46:25.000Z</time>
                <name>Trackpoint 5812</name>
            </trkpt>
            <trkpt lat="49.943584" lon="9.5873584">
                <ele>150.0</ele>
                <time>2020-08-28T13:46:27.000Z</time>
                <name>Trackpoint 5813</name>
            </trkpt>
            <trkpt lat="49.9435392" lon="9.5872248">
                <ele>150.0</ele>
                <time>2020-08-28T13:46:29.000Z</time>
                <name>Trackpoint 5814</name>
            </trkpt>
            <trkpt lat="49.9434976" lon="9.5871112">
                <ele>150.0</ele>
                <time>2020-08-28T13:46:31.000Z</time>
                <name>Trackpoint 5815</name>
            </trkpt>
            <trkpt lat="49.9434496" lon="9.586984">
                <ele>150.0</ele>
                <time>2020-08-28T13:46:33.000Z</time>
                <name>Trackpoint 5816</name>
            </trkpt>
            <trkpt lat="49.9434016" lon="9.5868616">
                <ele>150.0</ele>
                <time>2020-08-28T13:46:35.000Z</time>
                <name>Trackpoint 5817</name>
            </trkpt>
            <trkpt lat="49.9433504" lon="9.5867304">
                <ele>150.0</ele>
                <time>2020-08-28T13:46:37.000Z</time>
                <name>Trackpoint 5818</name>
            </trkpt>
            <trkpt lat="49.9433184" lon="9.5866336">
                <ele>150.0</ele>
                <time>2020-08-28T13:46:39.000Z</time>
                <name>Trackpoint 5819</name>
            </trkpt>
            <trkpt lat="49.9432832" lon="9.5865272">
                <ele>152.0</ele>
                <time>2020-08-28T13:52:41.000Z</time>
                <name>Trackpoint 5820</name>
            </trkpt>
            <trkpt lat="49.9432416" lon="9.58642">
                <ele>152.0</ele>
                <time>2020-08-28T13:52:44.000Z</time>
                <name>Trackpoint 5821</name>
            </trkpt>
            <trkpt lat="49.9432" lon="9.58634">
                <ele>152.0</ele>
                <time>2020-08-28T13:52:46.000Z</time>
                <name>Trackpoint 5822</name>
            </trkpt>
            <trkpt lat="49.9431456" lon="9.5862248">
                <ele>152.0</ele>
                <time>2020-08-28T13:52:49.000Z</time>
                <name>Trackpoint 5823</name>
            </trkpt>
            <trkpt lat="49.9430816" lon="9.586112">
                <ele>152.0</ele>
                <time>2020-08-28T13:52:52.000Z</time>
                <name>Trackpoint 5824</name>
            </trkpt>
            <trkpt lat="49.9430304" lon="9.5860168">
                <ele>152.0</ele>
                <time>2020-08-28T13:52:54.000Z</time>
                <name>Trackpoint 5825</name>
            </trkpt>
            <trkpt lat="49.9429824" lon="9.5859032">
                <ele>152.0</ele>
                <time>2020-08-28T13:52:56.000Z</time>
                <name>Trackpoint 5826</name>
            </trkpt>
            <trkpt lat="49.942912" lon="9.5857848">
                <ele>152.0</ele>
                <time>2020-08-28T13:52:58.000Z</time>
                <name>Trackpoint 5827</name>
            </trkpt>
            <trkpt lat="49.9428448" lon="9.5856712">
                <ele>152.0</ele>
                <time>2020-08-28T13:53:00.000Z</time>
                <name>Trackpoint 5828</name>
            </trkpt>
            <trkpt lat="49.9427712" lon="9.5855576">
                <ele>152.0</ele>
                <time>2020-08-28T13:53:02.000Z</time>
                <name>Trackpoint 5829</name>
            </trkpt>
            <trkpt lat="49.942704" lon="9.5854464">
                <ele>152.0</ele>
                <time>2020-08-28T13:53:04.000Z</time>
                <name>Trackpoint 5830</name>
            </trkpt>
            <trkpt lat="49.9426336" lon="9.5853456">
                <ele>152.0</ele>
                <time>2020-08-28T13:53:06.000Z</time>
                <name>Trackpoint 5831</name>
            </trkpt>
            <trkpt lat="49.9425536" lon="9.5852472">
                <ele>152.0</ele>
                <time>2020-08-28T13:53:08.000Z</time>
                <name>Trackpoint 5832</name>
            </trkpt>
            <trkpt lat="49.9424768" lon="9.5851568">
                <ele>152.0</ele>
                <time>2020-08-28T13:53:10.000Z</time>
                <name>Trackpoint 5833</name>
            </trkpt>
            <trkpt lat="49.9424032" lon="9.5850496">
                <ele>152.0</ele>
                <time>2020-08-28T13:53:12.000Z</time>
                <name>Trackpoint 5834</name>
            </trkpt>
            <trkpt lat="49.9423264" lon="9.5849552">
                <ele>152.0</ele>
                <time>2020-08-28T13:53:14.000Z</time>
                <name>Trackpoint 5835</name>
            </trkpt>
            <trkpt lat="49.9422432" lon="9.5848648">
                <ele>152.0</ele>
                <time>2020-08-28T13:53:16.000Z</time>
                <name>Trackpoint 5836</name>
            </trkpt>
            <trkpt lat="49.9421568" lon="9.5847784">
                <ele>152.0</ele>
                <time>2020-08-28T13:53:18.000Z</time>
                <name>Trackpoint 5837</name>
            </trkpt>
            <trkpt lat="49.9420768" lon="9.5846904">
                <ele>152.0</ele>
                <time>2020-08-28T13:53:20.000Z</time>
                <name>Trackpoint 5838</name>
            </trkpt>
            <trkpt lat="49.9419968" lon="9.5845968">
                <ele>152.0</ele>
                <time>2020-08-28T13:53:22.000Z</time>
                <name>Trackpoint 5839</name>
            </trkpt>
            <trkpt lat="49.9419168" lon="9.584508">
                <ele>152.0</ele>
                <time>2020-08-28T13:53:24.000Z</time>
                <name>Trackpoint 5840</name>
            </trkpt>
            <trkpt lat="49.9418464" lon="9.5844096">
                <ele>151.0</ele>
                <time>2020-08-28T13:53:26.000Z</time>
                <name>Trackpoint 5841</name>
            </trkpt>
            <trkpt lat="49.9417728" lon="9.5843216">
                <ele>151.0</ele>
                <time>2020-08-28T13:53:28.000Z</time>
                <name>Trackpoint 5842</name>
            </trkpt>
            <trkpt lat="49.941696" lon="9.5842336">
                <ele>151.0</ele>
                <time>2020-08-28T13:53:30.000Z</time>
                <name>Trackpoint 5843</name>
            </trkpt>
            <trkpt lat="49.9416192" lon="9.58414">
                <ele>151.0</ele>
                <time>2020-08-28T13:53:32.000Z</time>
                <name>Trackpoint 5844</name>
            </trkpt>
            <trkpt lat="49.941552" lon="9.584048">
                <ele>151.0</ele>
                <time>2020-08-28T13:53:34.000Z</time>
                <name>Trackpoint 5845</name>
            </trkpt>
            <trkpt lat="49.9414752" lon="9.5839528">
                <ele>151.0</ele>
                <time>2020-08-28T13:53:36.000Z</time>
                <name>Trackpoint 5846</name>
            </trkpt>
            <trkpt lat="49.9413984" lon="9.5838544">
                <ele>151.0</ele>
                <time>2020-08-28T13:53:38.000Z</time>
                <name>Trackpoint 5847</name>
            </trkpt>
            <trkpt lat="49.9413312" lon="9.5837672">
                <ele>151.0</ele>
                <time>2020-08-28T13:53:40.000Z</time>
                <name>Trackpoint 5848</name>
            </trkpt>
            <trkpt lat="49.9412576" lon="9.5836848">
                <ele>151.0</ele>
                <time>2020-08-28T13:53:42.000Z</time>
                <name>Trackpoint 5849</name>
            </trkpt>
            <trkpt lat="49.941184" lon="9.5835888">
                <ele>151.0</ele>
                <time>2020-08-28T13:53:44.000Z</time>
                <name>Trackpoint 5850</name>
            </trkpt>
            <trkpt lat="49.9411136" lon="9.5834888">
                <ele>151.0</ele>
                <time>2020-08-28T13:53:46.000Z</time>
                <name>Trackpoint 5851</name>
            </trkpt>
            <trkpt lat="49.9410368" lon="9.5834016">
                <ele>151.0</ele>
                <time>2020-08-28T13:53:48.000Z</time>
                <name>Trackpoint 5852</name>
            </trkpt>
            <trkpt lat="49.9409664" lon="9.5833064">
                <ele>151.0</ele>
                <time>2020-08-28T13:53:50.000Z</time>
                <name>Trackpoint 5853</name>
            </trkpt>
            <trkpt lat="49.940896" lon="9.5832184">
                <ele>151.0</ele>
                <time>2020-08-28T13:53:52.000Z</time>
                <name>Trackpoint 5854</name>
            </trkpt>
            <trkpt lat="49.9408224" lon="9.5831216">
                <ele>151.0</ele>
                <time>2020-08-28T13:53:54.000Z</time>
                <name>Trackpoint 5855</name>
            </trkpt>
            <trkpt lat="49.9407488" lon="9.5830232">
                <ele>151.0</ele>
                <time>2020-08-28T13:53:56.000Z</time>
                <name>Trackpoint 5856</name>
            </trkpt>
            <trkpt lat="49.9406784" lon="9.5829216">
                <ele>151.0</ele>
                <time>2020-08-28T13:53:58.000Z</time>
                <name>Trackpoint 5857</name>
            </trkpt>
            <trkpt lat="49.940608" lon="9.5828152">
                <ele>151.0</ele>
                <time>2020-08-28T13:54:00.000Z</time>
                <name>Trackpoint 5858</name>
            </trkpt>
            <trkpt lat="49.9405376" lon="9.5827176">
                <ele>151.0</ele>
                <time>2020-08-28T13:54:02.000Z</time>
                <name>Trackpoint 5859</name>
            </trkpt>
            <trkpt lat="49.9404608" lon="9.5826168">
                <ele>151.0</ele>
                <time>2020-08-28T13:54:04.000Z</time>
                <name>Trackpoint 5860</name>
            </trkpt>
            <trkpt lat="49.9403872" lon="9.5825136">
                <ele>151.0</ele>
                <time>2020-08-28T13:54:06.000Z</time>
                <name>Trackpoint 5861</name>
            </trkpt>
            <trkpt lat="49.9403104" lon="9.5824048">
                <ele>151.0</ele>
                <time>2020-08-28T13:54:08.000Z</time>
                <name>Trackpoint 5862</name>
            </trkpt>
            <trkpt lat="49.94024" lon="9.5823048">
                <ele>151.0</ele>
                <time>2020-08-28T13:54:10.000Z</time>
                <name>Trackpoint 5863</name>
            </trkpt>
            <trkpt lat="49.9401696" lon="9.5822">
                <ele>151.0</ele>
                <time>2020-08-28T13:54:12.000Z</time>
                <name>Trackpoint 5864</name>
            </trkpt>
            <trkpt lat="49.9400992" lon="9.5820904">
                <ele>150.0</ele>
                <time>2020-08-28T13:54:14.000Z</time>
                <name>Trackpoint 5865</name>
            </trkpt>
            <trkpt lat="49.9400256" lon="9.5819728">
                <ele>150.0</ele>
                <time>2020-08-28T13:54:16.000Z</time>
                <name>Trackpoint 5866</name>
            </trkpt>
            <trkpt lat="49.939952" lon="9.5818528">
                <ele>150.0</ele>
                <time>2020-08-28T13:54:18.000Z</time>
                <name>Trackpoint 5867</name>
            </trkpt>
            <trkpt lat="49.9398752" lon="9.5817384">
                <ele>150.0</ele>
                <time>2020-08-28T13:54:20.000Z</time>
                <name>Trackpoint 5868</name>
            </trkpt>
            <trkpt lat="49.9398048" lon="9.5816248">
                <ele>150.0</ele>
                <time>2020-08-28T13:54:22.000Z</time>
                <name>Trackpoint 5869</name>
            </trkpt>
            <trkpt lat="49.9397312" lon="9.5815216">
                <ele>150.0</ele>
                <time>2020-08-28T13:54:24.000Z</time>
                <name>Trackpoint 5870</name>
            </trkpt>
            <trkpt lat="49.9396576" lon="9.5814136">
                <ele>150.0</ele>
                <time>2020-08-28T13:54:26.000Z</time>
                <name>Trackpoint 5871</name>
            </trkpt>
            <trkpt lat="49.9395904" lon="9.5813">
                <ele>150.0</ele>
                <time>2020-08-28T13:54:28.000Z</time>
                <name>Trackpoint 5872</name>
            </trkpt>
            <trkpt lat="49.9395264" lon="9.5811816">
                <ele>150.0</ele>
                <time>2020-08-28T13:54:30.000Z</time>
                <name>Trackpoint 5873</name>
            </trkpt>
            <trkpt lat="49.9394528" lon="9.5810768">
                <ele>150.0</ele>
                <time>2020-08-28T13:54:32.000Z</time>
                <name>Trackpoint 5874</name>
            </trkpt>
            <trkpt lat="49.9393888" lon="9.5809672">
                <ele>150.0</ele>
                <time>2020-08-28T13:54:34.000Z</time>
                <name>Trackpoint 5875</name>
            </trkpt>
            <trkpt lat="49.9393152" lon="9.58086">
                <ele>150.0</ele>
                <time>2020-08-28T13:54:36.000Z</time>
                <name>Trackpoint 5876</name>
            </trkpt>
            <trkpt lat="49.939248" lon="9.5807552">
                <ele>150.0</ele>
                <time>2020-08-28T13:54:38.000Z</time>
                <name>Trackpoint 5877</name>
            </trkpt>
            <trkpt lat="49.9391744" lon="9.5806528">
                <ele>150.0</ele>
                <time>2020-08-28T13:54:40.000Z</time>
                <name>Trackpoint 5878</name>
            </trkpt>
            <trkpt lat="49.9391008" lon="9.5805528">
                <ele>150.0</ele>
                <time>2020-08-28T13:54:42.000Z</time>
                <name>Trackpoint 5879</name>
            </trkpt>
            <trkpt lat="49.9390272" lon="9.5804656">
                <ele>150.0</ele>
                <time>2020-08-28T13:54:44.000Z</time>
                <name>Trackpoint 5880</name>
            </trkpt>
            <trkpt lat="49.9389536" lon="9.5803672">
                <ele>150.0</ele>
                <time>2020-08-28T13:54:46.000Z</time>
                <name>Trackpoint 5881</name>
            </trkpt>
            <trkpt lat="49.93888" lon="9.5802584">
                <ele>150.0</ele>
                <time>2020-08-28T13:54:48.000Z</time>
                <name>Trackpoint 5882</name>
            </trkpt>
            <trkpt lat="49.9388096" lon="9.5801552">
                <ele>150.0</ele>
                <time>2020-08-28T13:54:50.000Z</time>
                <name>Trackpoint 5883</name>
            </trkpt>
            <trkpt lat="49.938736" lon="9.580056">
                <ele>150.0</ele>
                <time>2020-08-28T13:54:52.000Z</time>
                <name>Trackpoint 5884</name>
            </trkpt>
            <trkpt lat="49.9386752" lon="9.579964">
                <ele>149.0</ele>
                <time>2020-08-28T13:54:54.000Z</time>
                <name>Trackpoint 5885</name>
            </trkpt>
            <trkpt lat="49.9386176" lon="9.5798768">
                <ele>149.0</ele>
                <time>2020-08-28T13:54:56.000Z</time>
                <name>Trackpoint 5886</name>
            </trkpt>
            <trkpt lat="49.93856" lon="9.5798056">
                <ele>149.0</ele>
                <time>2020-08-28T13:54:58.000Z</time>
                <name>Trackpoint 5887</name>
            </trkpt>
            <trkpt lat="49.93848" lon="9.5797016">
                <ele>149.0</ele>
                <time>2020-08-28T13:55:01.000Z</time>
                <name>Trackpoint 5888</name>
            </trkpt>
            <trkpt lat="49.9384192" lon="9.579628">
                <ele>149.0</ele>
                <time>2020-08-28T13:55:03.000Z</time>
                <name>Trackpoint 5889</name>
            </trkpt>
            <trkpt lat="49.9383584" lon="9.579552">
                <ele>149.0</ele>
                <time>2020-08-28T13:55:05.000Z</time>
                <name>Trackpoint 5890</name>
            </trkpt>
            <trkpt lat="49.9382848" lon="9.5794832">
                <ele>149.0</ele>
                <time>2020-08-28T13:55:07.000Z</time>
                <name>Trackpoint 5891</name>
            </trkpt>
            <trkpt lat="49.938224" lon="9.5794048">
                <ele>149.0</ele>
                <time>2020-08-28T13:55:09.000Z</time>
                <name>Trackpoint 5892</name>
            </trkpt>
            <trkpt lat="49.9381568" lon="9.5793264">
                <ele>149.0</ele>
                <time>2020-08-28T13:55:11.000Z</time>
                <name>Trackpoint 5893</name>
            </trkpt>
            <trkpt lat="49.93808" lon="9.5792488">
                <ele>149.0</ele>
                <time>2020-08-28T13:55:13.000Z</time>
                <name>Trackpoint 5894</name>
            </trkpt>
            <trkpt lat="49.9380064" lon="9.5791704">
                <ele>149.0</ele>
                <time>2020-08-28T13:55:15.000Z</time>
                <name>Trackpoint 5895</name>
            </trkpt>
            <trkpt lat="49.937936" lon="9.5790952">
                <ele>149.0</ele>
                <time>2020-08-28T13:55:17.000Z</time>
                <name>Trackpoint 5896</name>
            </trkpt>
            <trkpt lat="49.9378656" lon="9.5790192">
                <ele>148.0</ele>
                <time>2020-08-28T13:55:19.000Z</time>
                <name>Trackpoint 5897</name>
            </trkpt>
            <trkpt lat="49.9377984" lon="9.5789416">
                <ele>148.0</ele>
                <time>2020-08-28T13:55:21.000Z</time>
                <name>Trackpoint 5898</name>
            </trkpt>
            <trkpt lat="49.9377216" lon="9.5788632">
                <ele>148.0</ele>
                <time>2020-08-28T13:55:23.000Z</time>
                <name>Trackpoint 5899</name>
            </trkpt>
            <trkpt lat="49.9376448" lon="9.57878">
                <ele>148.0</ele>
                <time>2020-08-28T13:55:25.000Z</time>
                <name>Trackpoint 5900</name>
            </trkpt>
            <trkpt lat="49.9375648" lon="9.5787">
                <ele>148.0</ele>
                <time>2020-08-28T13:55:27.000Z</time>
                <name>Trackpoint 5901</name>
            </trkpt>
            <trkpt lat="49.9374848" lon="9.5786184">
                <ele>148.0</ele>
                <time>2020-08-28T13:55:29.000Z</time>
                <name>Trackpoint 5902</name>
            </trkpt>
            <trkpt lat="49.9374016" lon="9.5785312">
                <ele>148.0</ele>
                <time>2020-08-28T13:55:31.000Z</time>
                <name>Trackpoint 5903</name>
            </trkpt>
            <trkpt lat="49.9373184" lon="9.5784464">
                <ele>148.0</ele>
                <time>2020-08-28T13:55:33.000Z</time>
                <name>Trackpoint 5904</name>
            </trkpt>
            <trkpt lat="49.9372224" lon="9.5783568">
                <ele>148.0</ele>
                <time>2020-08-28T13:55:35.000Z</time>
                <name>Trackpoint 5905</name>
            </trkpt>
            <trkpt lat="49.93712" lon="9.5782632">
                <ele>148.0</ele>
                <time>2020-08-28T13:55:37.000Z</time>
                <name>Trackpoint 5906</name>
            </trkpt>
            <trkpt lat="49.9370112" lon="9.578172">
                <ele>148.0</ele>
                <time>2020-08-28T13:55:39.000Z</time>
                <name>Trackpoint 5907</name>
            </trkpt>
            <trkpt lat="49.9369056" lon="9.578076">
                <ele>148.0</ele>
                <time>2020-08-28T13:55:41.000Z</time>
                <name>Trackpoint 5908</name>
            </trkpt>
            <trkpt lat="49.9367936" lon="9.5779848">
                <ele>148.0</ele>
                <time>2020-08-28T13:55:43.000Z</time>
                <name>Trackpoint 5909</name>
            </trkpt>
            <trkpt lat="49.936688" lon="9.5778904">
                <ele>148.0</ele>
                <time>2020-08-28T13:55:45.000Z</time>
                <name>Trackpoint 5910</name>
            </trkpt>
            <trkpt lat="49.9365888" lon="9.5777952">
                <ele>148.0</ele>
                <time>2020-08-28T13:55:47.000Z</time>
                <name>Trackpoint 5911</name>
            </trkpt>
            <trkpt lat="49.9364896" lon="9.5777104">
                <ele>148.0</ele>
                <time>2020-08-28T13:55:49.000Z</time>
                <name>Trackpoint 5912</name>
            </trkpt>
            <trkpt lat="49.9363904" lon="9.5776264">
                <ele>148.0</ele>
                <time>2020-08-28T13:55:51.000Z</time>
                <name>Trackpoint 5913</name>
            </trkpt>
            <trkpt lat="49.936288" lon="9.5775448">
                <ele>148.0</ele>
                <time>2020-08-28T13:55:53.000Z</time>
                <name>Trackpoint 5914</name>
            </trkpt>
            <trkpt lat="49.9361824" lon="9.577468">
                <ele>148.0</ele>
                <time>2020-08-28T13:55:55.000Z</time>
                <name>Trackpoint 5915</name>
            </trkpt>
            <trkpt lat="49.9360832" lon="9.5773824">
                <ele>148.0</ele>
                <time>2020-08-28T13:55:57.000Z</time>
                <name>Trackpoint 5916</name>
            </trkpt>
            <trkpt lat="49.9359808" lon="9.577296">
                <ele>149.0</ele>
                <time>2020-08-28T13:55:59.000Z</time>
                <name>Trackpoint 5917</name>
            </trkpt>
            <trkpt lat="49.9358752" lon="9.5772168">
                <ele>149.0</ele>
                <time>2020-08-28T13:56:01.000Z</time>
                <name>Trackpoint 5918</name>
            </trkpt>
            <trkpt lat="49.935776" lon="9.5771288">
                <ele>149.0</ele>
                <time>2020-08-28T13:56:03.000Z</time>
                <name>Trackpoint 5919</name>
            </trkpt>
            <trkpt lat="49.9356736" lon="9.577032">
                <ele>149.0</ele>
                <time>2020-08-28T13:56:05.000Z</time>
                <name>Trackpoint 5920</name>
            </trkpt>
            <trkpt lat="49.9355744" lon="9.5769384">
                <ele>148.0</ele>
                <time>2020-08-28T13:56:07.000Z</time>
                <name>Trackpoint 5921</name>
            </trkpt>
            <trkpt lat="49.935472" lon="9.5768496">
                <ele>148.0</ele>
                <time>2020-08-28T13:56:09.000Z</time>
                <name>Trackpoint 5922</name>
            </trkpt>
            <trkpt lat="49.9353728" lon="9.576752">
                <ele>148.0</ele>
                <time>2020-08-28T13:56:11.000Z</time>
                <name>Trackpoint 5923</name>
            </trkpt>
            <trkpt lat="49.9352736" lon="9.57666">
                <ele>147.0</ele>
                <time>2020-08-28T13:56:13.000Z</time>
                <name>Trackpoint 5924</name>
            </trkpt>
            <trkpt lat="49.9351648" lon="9.5765696">
                <ele>147.0</ele>
                <time>2020-08-28T13:56:15.000Z</time>
                <name>Trackpoint 5925</name>
            </trkpt>
            <trkpt lat="49.9350624" lon="9.5764704">
                <ele>147.0</ele>
                <time>2020-08-28T13:56:17.000Z</time>
                <name>Trackpoint 5926</name>
            </trkpt>
            <trkpt lat="49.93496" lon="9.5763616">
                <ele>147.0</ele>
                <time>2020-08-28T13:56:19.000Z</time>
                <name>Trackpoint 5927</name>
            </trkpt>
            <trkpt lat="49.9348608" lon="9.57626">
                <ele>147.0</ele>
                <time>2020-08-28T13:56:21.000Z</time>
                <name>Trackpoint 5928</name>
            </trkpt>
            <trkpt lat="49.9347648" lon="9.5761496">
                <ele>147.0</ele>
                <time>2020-08-28T13:56:23.000Z</time>
                <name>Trackpoint 5929</name>
            </trkpt>
            <trkpt lat="49.9346688" lon="9.5760496">
                <ele>147.0</ele>
                <time>2020-08-28T13:56:25.000Z</time>
                <name>Trackpoint 5930</name>
            </trkpt>
            <trkpt lat="49.9345696" lon="9.5759496">
                <ele>147.0</ele>
                <time>2020-08-28T13:56:27.000Z</time>
                <name>Trackpoint 5931</name>
            </trkpt>
            <trkpt lat="49.9344704" lon="9.5758536">
                <ele>147.0</ele>
                <time>2020-08-28T13:56:29.000Z</time>
                <name>Trackpoint 5932</name>
            </trkpt>
            <trkpt lat="49.9343744" lon="9.5757536">
                <ele>147.0</ele>
                <time>2020-08-28T13:56:31.000Z</time>
                <name>Trackpoint 5933</name>
            </trkpt>
            <trkpt lat="49.9342752" lon="9.57566">
                <ele>147.0</ele>
                <time>2020-08-28T13:56:33.000Z</time>
                <name>Trackpoint 5934</name>
            </trkpt>
            <trkpt lat="49.9341728" lon="9.5755728">
                <ele>146.0</ele>
                <time>2020-08-28T13:56:35.000Z</time>
                <name>Trackpoint 5935</name>
            </trkpt>
            <trkpt lat="49.9340768" lon="9.5754808">
                <ele>146.0</ele>
                <time>2020-08-28T13:56:37.000Z</time>
                <name>Trackpoint 5936</name>
            </trkpt>
            <trkpt lat="49.9339776" lon="9.5753872">
                <ele>146.0</ele>
                <time>2020-08-28T13:56:39.000Z</time>
                <name>Trackpoint 5937</name>
            </trkpt>
            <trkpt lat="49.9338784" lon="9.5752984">
                <ele>146.0</ele>
                <time>2020-08-28T13:56:41.000Z</time>
                <name>Trackpoint 5938</name>
            </trkpt>
            <trkpt lat="49.9337888" lon="9.5752016">
                <ele>146.0</ele>
                <time>2020-08-28T13:56:43.000Z</time>
                <name>Trackpoint 5939</name>
            </trkpt>
            <trkpt lat="49.9336992" lon="9.5751168">
                <ele>146.0</ele>
                <time>2020-08-28T13:56:45.000Z</time>
                <name>Trackpoint 5940</name>
            </trkpt>
            <trkpt lat="49.933616" lon="9.5750376">
                <ele>146.0</ele>
                <time>2020-08-28T13:56:47.000Z</time>
                <name>Trackpoint 5941</name>
            </trkpt>
            <trkpt lat="49.933536" lon="9.5749704">
                <ele>146.0</ele>
                <time>2020-08-28T13:56:49.000Z</time>
                <name>Trackpoint 5942</name>
            </trkpt>
            <trkpt lat="49.9334592" lon="9.574912">
                <ele>146.0</ele>
                <time>2020-08-28T13:56:51.000Z</time>
                <name>Trackpoint 5943</name>
            </trkpt>
            <trkpt lat="49.93336" lon="9.5748352">
                <ele>146.0</ele>
                <time>2020-08-28T13:56:54.000Z</time>
                <name>Trackpoint 5944</name>
            </trkpt>
            <trkpt lat="49.9332768" lon="9.5747744">
                <ele>146.0</ele>
                <time>2020-08-28T13:56:57.000Z</time>
                <name>Trackpoint 5945</name>
            </trkpt>
            <trkpt lat="49.9331904" lon="9.574712">
                <ele>146.0</ele>
                <time>2020-08-28T13:57:43.000Z</time>
                <name>Trackpoint 5946</name>
            </trkpt>
            <trkpt lat="49.9331008" lon="9.5746432">
                <ele>146.0</ele>
                <time>2020-08-28T13:57:46.000Z</time>
                <name>Trackpoint 5947</name>
            </trkpt>
            <trkpt lat="49.9329952" lon="9.574572">
                <ele>146.0</ele>
                <time>2020-08-28T13:57:49.000Z</time>
                <name>Trackpoint 5948</name>
            </trkpt>
            <trkpt lat="49.9328832" lon="9.5745136">
                <ele>146.0</ele>
                <time>2020-08-28T13:57:52.000Z</time>
                <name>Trackpoint 5949</name>
            </trkpt>
            <trkpt lat="49.9327616" lon="9.57446">
                <ele>146.0</ele>
                <time>2020-08-28T13:57:55.000Z</time>
                <name>Trackpoint 5950</name>
            </trkpt>
            <trkpt lat="49.9326432" lon="9.5744368">
                <ele>146.0</ele>
                <time>2020-08-28T13:57:58.000Z</time>
                <name>Trackpoint 5951</name>
            </trkpt>
            <trkpt lat="49.9325344" lon="9.5744984">
                <ele>146.0</ele>
                <time>2020-08-28T13:58:01.000Z</time>
                <name>Trackpoint 5952</name>
            </trkpt>
            <trkpt lat="49.9324416" lon="9.5744736">
                <ele>146.0</ele>
                <time>2020-08-28T13:58:04.000Z</time>
                <name>Trackpoint 5953</name>
            </trkpt>
            <trkpt lat="49.9323584" lon="9.5744136">
                <ele>146.0</ele>
                <time>2020-08-28T13:58:07.000Z</time>
                <name>Trackpoint 5954</name>
            </trkpt>
            <trkpt lat="49.9322752" lon="9.5743664">
                <ele>146.0</ele>
                <time>2020-08-28T13:58:10.000Z</time>
                <name>Trackpoint 5955</name>
            </trkpt>
            <trkpt lat="49.93224" lon="9.5743416">
                <ele>148.0</ele>
                <time>2020-08-28T13:58:54.000Z</time>
                <name>Trackpoint 5956</name>
            </trkpt>
            <trkpt lat="49.9321568" lon="9.5743048">
                <ele>148.0</ele>
                <time>2020-08-28T13:58:58.000Z</time>
                <name>Trackpoint 5957</name>
            </trkpt>
            <trkpt lat="49.9320608" lon="9.5742528">
                <ele>147.0</ele>
                <time>2020-08-28T13:59:01.000Z</time>
                <name>Trackpoint 5958</name>
            </trkpt>
            <trkpt lat="49.9319648" lon="9.5742104">
                <ele>147.0</ele>
                <time>2020-08-28T13:59:04.000Z</time>
                <name>Trackpoint 5959</name>
            </trkpt>
            <trkpt lat="49.9318624" lon="9.574168">
                <ele>149.0</ele>
                <time>2020-08-28T13:59:37.000Z</time>
                <name>Trackpoint 5960</name>
            </trkpt>
            <trkpt lat="49.9317632" lon="9.5741416">
                <ele>149.0</ele>
                <time>2020-08-28T13:59:40.000Z</time>
                <name>Trackpoint 5961</name>
            </trkpt>
            <trkpt lat="49.9316448" lon="9.5741064">
                <ele>148.0</ele>
                <time>2020-08-28T13:59:43.000Z</time>
                <name>Trackpoint 5962</name>
            </trkpt>
            <trkpt lat="49.9315552" lon="9.5740856">
                <ele>148.0</ele>
                <time>2020-08-28T13:59:45.000Z</time>
                <name>Trackpoint 5963</name>
            </trkpt>
            <trkpt lat="49.9314656" lon="9.5740632">
                <ele>148.0</ele>
                <time>2020-08-28T13:59:47.000Z</time>
                <name>Trackpoint 5964</name>
            </trkpt>
            <trkpt lat="49.9313728" lon="9.5740408">
                <ele>148.0</ele>
                <time>2020-08-28T13:59:49.000Z</time>
                <name>Trackpoint 5965</name>
            </trkpt>
            <trkpt lat="49.9312768" lon="9.57402">
                <ele>148.0</ele>
                <time>2020-08-28T13:59:51.000Z</time>
                <name>Trackpoint 5966</name>
            </trkpt>
            <trkpt lat="49.9311872" lon="9.574">
                <ele>148.0</ele>
                <time>2020-08-28T13:59:53.000Z</time>
                <name>Trackpoint 5967</name>
            </trkpt>
            <trkpt lat="49.931088" lon="9.5739744">
                <ele>148.0</ele>
                <time>2020-08-28T13:59:55.000Z</time>
                <name>Trackpoint 5968</name>
            </trkpt>
            <trkpt lat="49.9309888" lon="9.5739544">
                <ele>148.0</ele>
                <time>2020-08-28T13:59:57.000Z</time>
                <name>Trackpoint 5969</name>
            </trkpt>
            <trkpt lat="49.9308928" lon="9.5739336">
                <ele>148.0</ele>
                <time>2020-08-28T13:59:59.000Z</time>
                <name>Trackpoint 5970</name>
            </trkpt>
            <trkpt lat="49.9307968" lon="9.573912">
                <ele>147.0</ele>
                <time>2020-08-28T14:00:01.000Z</time>
                <name>Trackpoint 5971</name>
            </trkpt>
            <trkpt lat="49.9307008" lon="9.5738952">
                <ele>147.0</ele>
                <time>2020-08-28T14:00:03.000Z</time>
                <name>Trackpoint 5972</name>
            </trkpt>
            <trkpt lat="49.930608" lon="9.5738752">
                <ele>147.0</ele>
                <time>2020-08-28T14:00:05.000Z</time>
                <name>Trackpoint 5973</name>
            </trkpt>
            <trkpt lat="49.9305088" lon="9.5738552">
                <ele>146.0</ele>
                <time>2020-08-28T14:00:07.000Z</time>
                <name>Trackpoint 5974</name>
            </trkpt>
            <trkpt lat="49.9304096" lon="9.5738384">
                <ele>146.0</ele>
                <time>2020-08-28T14:00:09.000Z</time>
                <name>Trackpoint 5975</name>
            </trkpt>
            <trkpt lat="49.9303008" lon="9.5738184">
                <ele>146.0</ele>
                <time>2020-08-28T14:00:11.000Z</time>
                <name>Trackpoint 5976</name>
            </trkpt>
            <trkpt lat="49.9302048" lon="9.5738016">
                <ele>147.0</ele>
                <time>2020-08-28T14:00:13.000Z</time>
                <name>Trackpoint 5977</name>
            </trkpt>
            <trkpt lat="49.9301056" lon="9.57378">
                <ele>147.0</ele>
                <time>2020-08-28T14:00:15.000Z</time>
                <name>Trackpoint 5978</name>
            </trkpt>
            <trkpt lat="49.9300064" lon="9.5737632">
                <ele>146.0</ele>
                <time>2020-08-28T14:00:17.000Z</time>
                <name>Trackpoint 5979</name>
            </trkpt>
            <trkpt lat="49.9299072" lon="9.5737552">
                <ele>146.0</ele>
                <time>2020-08-28T14:00:19.000Z</time>
                <name>Trackpoint 5980</name>
            </trkpt>
            <trkpt lat="49.9298048" lon="9.5737384">
                <ele>146.0</ele>
                <time>2020-08-28T14:00:21.000Z</time>
                <name>Trackpoint 5981</name>
            </trkpt>
            <trkpt lat="49.9297024" lon="9.5737248">
                <ele>147.0</ele>
                <time>2020-08-28T14:00:23.000Z</time>
                <name>Trackpoint 5982</name>
            </trkpt>
            <trkpt lat="49.9295968" lon="9.5737048">
                <ele>147.0</ele>
                <time>2020-08-28T14:00:25.000Z</time>
                <name>Trackpoint 5983</name>
            </trkpt>
            <trkpt lat="49.9294976" lon="9.5736848">
                <ele>146.0</ele>
                <time>2020-08-28T14:00:27.000Z</time>
                <name>Trackpoint 5984</name>
            </trkpt>
            <trkpt lat="49.9294048" lon="9.5736704">
                <ele>146.0</ele>
                <time>2020-08-28T14:01:04.000Z</time>
                <name>Trackpoint 5985</name>
            </trkpt>
            <trkpt lat="49.9292992" lon="9.573664">
                <ele>145.0</ele>
                <time>2020-08-28T14:01:08.000Z</time>
                <name>Trackpoint 5986</name>
            </trkpt>
            <trkpt lat="49.9291968" lon="9.5736536">
                <ele>145.0</ele>
                <time>2020-08-28T14:01:11.000Z</time>
                <name>Trackpoint 5987</name>
            </trkpt>
            <trkpt lat="49.9290656" lon="9.5736368">
                <ele>144.0</ele>
                <time>2020-08-28T14:01:14.000Z</time>
                <name>Trackpoint 5988</name>
            </trkpt>
            <trkpt lat="49.9289312" lon="9.5736128">
                <ele>144.0</ele>
                <time>2020-08-28T14:01:17.000Z</time>
                <name>Trackpoint 5989</name>
            </trkpt>
            <trkpt lat="49.9288416" lon="9.5735976">
                <ele>144.0</ele>
                <time>2020-08-28T14:01:19.000Z</time>
                <name>Trackpoint 5990</name>
            </trkpt>
            <trkpt lat="49.9287456" lon="9.5735952">
                <ele>144.0</ele>
                <time>2020-08-28T14:01:21.000Z</time>
                <name>Trackpoint 5991</name>
            </trkpt>
            <trkpt lat="49.9286464" lon="9.57358">
                <ele>144.0</ele>
                <time>2020-08-28T14:01:23.000Z</time>
                <name>Trackpoint 5992</name>
            </trkpt>
            <trkpt lat="49.9285472" lon="9.5735664">
                <ele>144.0</ele>
                <time>2020-08-28T14:01:25.000Z</time>
                <name>Trackpoint 5993</name>
            </trkpt>
            <trkpt lat="49.9284544" lon="9.5735616">
                <ele>144.0</ele>
                <time>2020-08-28T14:01:27.000Z</time>
                <name>Trackpoint 5994</name>
            </trkpt>
            <trkpt lat="49.9283232" lon="9.573552">
                <ele>144.0</ele>
                <time>2020-08-28T14:01:30.000Z</time>
                <name>Trackpoint 5995</name>
            </trkpt>
            <trkpt lat="49.9282272" lon="9.5735432">
                <ele>144.0</ele>
                <time>2020-08-28T14:01:32.000Z</time>
                <name>Trackpoint 5996</name>
            </trkpt>
            <trkpt lat="49.928128" lon="9.5735368">
                <ele>144.0</ele>
                <time>2020-08-28T14:01:34.000Z</time>
                <name>Trackpoint 5997</name>
            </trkpt>
            <trkpt lat="49.9280288" lon="9.573532">
                <ele>144.0</ele>
                <time>2020-08-28T14:01:36.000Z</time>
                <name>Trackpoint 5998</name>
            </trkpt>
            <trkpt lat="49.9279328" lon="9.5735232">
                <ele>144.0</ele>
                <time>2020-08-28T14:01:38.000Z</time>
                <name>Trackpoint 5999</name>
            </trkpt>
            <trkpt lat="49.9278336" lon="9.5735184">
                <ele>144.0</ele>
                <time>2020-08-28T14:01:40.000Z</time>
                <name>Trackpoint 6000</name>
            </trkpt>
            <trkpt lat="49.9277344" lon="9.5735184">
                <ele>144.0</ele>
                <time>2020-08-28T14:01:42.000Z</time>
                <name>Trackpoint 6001</name>
            </trkpt>
            <trkpt lat="49.9276352" lon="9.5735184">
                <ele>144.0</ele>
                <time>2020-08-28T14:01:44.000Z</time>
                <name>Trackpoint 6002</name>
            </trkpt>
            <trkpt lat="49.9275296" lon="9.57352">
                <ele>144.0</ele>
                <time>2020-08-28T14:01:46.000Z</time>
                <name>Trackpoint 6003</name>
            </trkpt>
            <trkpt lat="49.9274208" lon="9.5735304">
                <ele>144.0</ele>
                <time>2020-08-28T14:01:48.000Z</time>
                <name>Trackpoint 6004</name>
            </trkpt>
            <trkpt lat="49.9273152" lon="9.57356">
                <ele>145.0</ele>
                <time>2020-08-28T14:01:50.000Z</time>
                <name>Trackpoint 6005</name>
            </trkpt>
            <trkpt lat="49.9272128" lon="9.5736168">
                <ele>145.0</ele>
                <time>2020-08-28T14:01:52.000Z</time>
                <name>Trackpoint 6006</name>
            </trkpt>
            <trkpt lat="49.9271264" lon="9.5737064">
                <ele>145.0</ele>
                <time>2020-08-28T14:01:54.000Z</time>
                <name>Trackpoint 6007</name>
            </trkpt>
            <trkpt lat="49.9270752" lon="9.5738288">
                <ele>145.0</ele>
                <time>2020-08-28T14:01:56.000Z</time>
                <name>Trackpoint 6008</name>
            </trkpt>
            <trkpt lat="49.9270432" lon="9.5739672">
                <ele>146.0</ele>
                <time>2020-08-28T14:01:58.000Z</time>
                <name>Trackpoint 6009</name>
            </trkpt>
            <trkpt lat="49.927024" lon="9.5740992">
                <ele>146.0</ele>
                <time>2020-08-28T14:02:00.000Z</time>
                <name>Trackpoint 6010</name>
            </trkpt>
            <trkpt lat="49.9269984" lon="9.574232">
                <ele>146.0</ele>
                <time>2020-08-28T14:02:02.000Z</time>
                <name>Trackpoint 6011</name>
            </trkpt>
            <trkpt lat="49.926976" lon="9.5743616">
                <ele>147.0</ele>
                <time>2020-08-28T14:02:04.000Z</time>
                <name>Trackpoint 6012</name>
            </trkpt>
            <trkpt lat="49.9269376" lon="9.57448">
                <ele>147.0</ele>
                <time>2020-08-28T14:02:06.000Z</time>
                <name>Trackpoint 6013</name>
            </trkpt>
            <trkpt lat="49.9268832" lon="9.5745888">
                <ele>147.0</ele>
                <time>2020-08-28T14:02:08.000Z</time>
                <name>Trackpoint 6014</name>
            </trkpt>
            <trkpt lat="49.926816" lon="9.5746768">
                <ele>147.0</ele>
                <time>2020-08-28T14:02:10.000Z</time>
                <name>Trackpoint 6015</name>
            </trkpt>
            <trkpt lat="49.926736" lon="9.5747408">
                <ele>147.0</ele>
                <time>2020-08-28T14:02:12.000Z</time>
                <name>Trackpoint 6016</name>
            </trkpt>
            <trkpt lat="49.9266496" lon="9.5747992">
                <ele>148.0</ele>
                <time>2020-08-28T14:02:14.000Z</time>
                <name>Trackpoint 6017</name>
            </trkpt>
            <trkpt lat="49.92656" lon="9.5748456">
                <ele>148.0</ele>
                <time>2020-08-28T14:02:16.000Z</time>
                <name>Trackpoint 6018</name>
            </trkpt>
            <trkpt lat="49.9264672" lon="9.574892">
                <ele>148.0</ele>
                <time>2020-08-28T14:02:18.000Z</time>
                <name>Trackpoint 6019</name>
            </trkpt>
            <trkpt lat="49.926384" lon="9.5749552">
                <ele>148.0</ele>
                <time>2020-08-28T14:02:20.000Z</time>
                <name>Trackpoint 6020</name>
            </trkpt>
            <trkpt lat="49.9263008" lon="9.5750128">
                <ele>147.0</ele>
                <time>2020-08-28T14:02:22.000Z</time>
                <name>Trackpoint 6021</name>
            </trkpt>
            <trkpt lat="49.9262208" lon="9.575064">
                <ele>148.0</ele>
                <time>2020-08-28T14:02:24.000Z</time>
                <name>Trackpoint 6022</name>
            </trkpt>
            <trkpt lat="49.9261408" lon="9.5751088">
                <ele>148.0</ele>
                <time>2020-08-28T14:02:26.000Z</time>
                <name>Trackpoint 6023</name>
            </trkpt>
            <trkpt lat="49.9260288" lon="9.5751864">
                <ele>149.0</ele>
                <time>2020-08-28T14:02:29.000Z</time>
                <name>Trackpoint 6024</name>
            </trkpt>
            <trkpt lat="49.925952" lon="9.575236">
                <ele>149.0</ele>
                <time>2020-08-28T14:02:31.000Z</time>
                <name>Trackpoint 6025</name>
            </trkpt>
            <trkpt lat="49.9258432" lon="9.5753168">
                <ele>149.0</ele>
                <time>2020-08-28T14:02:34.000Z</time>
                <name>Trackpoint 6026</name>
            </trkpt>
            <trkpt lat="49.9257664" lon="9.5753648">
                <ele>149.0</ele>
                <time>2020-08-28T14:02:36.000Z</time>
                <name>Trackpoint 6027</name>
            </trkpt>
            <trkpt lat="49.9256896" lon="9.5754216">
                <ele>150.0</ele>
                <time>2020-08-28T14:02:38.000Z</time>
                <name>Trackpoint 6028</name>
            </trkpt>
            <trkpt lat="49.9256128" lon="9.5754768">
                <ele>150.0</ele>
                <time>2020-08-28T14:02:40.000Z</time>
                <name>Trackpoint 6029</name>
            </trkpt>
            <trkpt lat="49.9255328" lon="9.575532">
                <ele>150.0</ele>
                <time>2020-08-28T14:02:42.000Z</time>
                <name>Trackpoint 6030</name>
            </trkpt>
            <trkpt lat="49.925456" lon="9.575592">
                <ele>150.0</ele>
                <time>2020-08-28T14:02:44.000Z</time>
                <name>Trackpoint 6031</name>
            </trkpt>
            <trkpt lat="49.9253856" lon="9.57566">
                <ele>151.0</ele>
                <time>2020-08-28T14:02:46.000Z</time>
                <name>Trackpoint 6032</name>
            </trkpt>
            <trkpt lat="49.9253184" lon="9.5757312">
                <ele>151.0</ele>
                <time>2020-08-28T14:02:48.000Z</time>
                <name>Trackpoint 6033</name>
            </trkpt>
            <trkpt lat="49.9252576" lon="9.5758152">
                <ele>152.0</ele>
                <time>2020-08-28T14:02:50.000Z</time>
                <name>Trackpoint 6034</name>
            </trkpt>
            <trkpt lat="49.9251968" lon="9.5759032">
                <ele>153.0</ele>
                <time>2020-08-28T14:02:52.000Z</time>
                <name>Trackpoint 6035</name>
            </trkpt>
            <trkpt lat="49.9251328" lon="9.5759888">
                <ele>153.0</ele>
                <time>2020-08-28T14:02:54.000Z</time>
                <name>Trackpoint 6036</name>
            </trkpt>
            <trkpt lat="49.9250656" lon="9.5760672">
                <ele>153.0</ele>
                <time>2020-08-28T14:02:56.000Z</time>
                <name>Trackpoint 6037</name>
            </trkpt>
            <trkpt lat="49.9249952" lon="9.5761432">
                <ele>153.0</ele>
                <time>2020-08-28T14:02:58.000Z</time>
                <name>Trackpoint 6038</name>
            </trkpt>
            <trkpt lat="49.9249216" lon="9.5762144">
                <ele>153.0</ele>
                <time>2020-08-28T14:03:00.000Z</time>
                <name>Trackpoint 6039</name>
            </trkpt>
            <trkpt lat="49.924848" lon="9.5762816">
                <ele>153.0</ele>
                <time>2020-08-28T14:03:02.000Z</time>
                <name>Trackpoint 6040</name>
            </trkpt>
            <trkpt lat="49.9247712" lon="9.5763504">
                <ele>153.0</ele>
                <time>2020-08-28T14:03:04.000Z</time>
                <name>Trackpoint 6041</name>
            </trkpt>
            <trkpt lat="49.924688" lon="9.576404">
                <ele>153.0</ele>
                <time>2020-08-28T14:03:06.000Z</time>
                <name>Trackpoint 6042</name>
            </trkpt>
            <trkpt lat="49.9246112" lon="9.5764616">
                <ele>154.0</ele>
                <time>2020-08-28T14:03:08.000Z</time>
                <name>Trackpoint 6043</name>
            </trkpt>
            <trkpt lat="49.9245248" lon="9.5765264">
                <ele>154.0</ele>
                <time>2020-08-28T14:03:10.000Z</time>
                <name>Trackpoint 6044</name>
            </trkpt>
            <trkpt lat="49.9244384" lon="9.5765912">
                <ele>154.0</ele>
                <time>2020-08-28T14:03:12.000Z</time>
                <name>Trackpoint 6045</name>
            </trkpt>
            <trkpt lat="49.9243456" lon="9.5766472">
                <ele>153.0</ele>
                <time>2020-08-28T14:03:14.000Z</time>
                <name>Trackpoint 6046</name>
            </trkpt>
            <trkpt lat="49.9242624" lon="9.5767096">
                <ele>153.0</ele>
                <time>2020-08-28T14:03:16.000Z</time>
                <name>Trackpoint 6047</name>
            </trkpt>
            <trkpt lat="49.9241728" lon="9.5767616">
                <ele>153.0</ele>
                <time>2020-08-28T14:03:18.000Z</time>
                <name>Trackpoint 6048</name>
            </trkpt>
            <trkpt lat="49.9240832" lon="9.5768216">
                <ele>153.0</ele>
                <time>2020-08-28T14:03:20.000Z</time>
                <name>Trackpoint 6049</name>
            </trkpt>
            <trkpt lat="49.924" lon="9.5768816">
                <ele>153.0</ele>
                <time>2020-08-28T14:03:22.000Z</time>
                <name>Trackpoint 6050</name>
            </trkpt>
            <trkpt lat="49.9239136" lon="9.5769464">
                <ele>153.0</ele>
                <time>2020-08-28T14:03:24.000Z</time>
                <name>Trackpoint 6051</name>
            </trkpt>
            <trkpt lat="49.9238208" lon="9.5770128">
                <ele>153.0</ele>
                <time>2020-08-28T14:03:26.000Z</time>
                <name>Trackpoint 6052</name>
            </trkpt>
            <trkpt lat="49.923728" lon="9.57708">
                <ele>153.0</ele>
                <time>2020-08-28T14:03:28.000Z</time>
                <name>Trackpoint 6053</name>
            </trkpt>
            <trkpt lat="49.9236416" lon="9.577144">
                <ele>153.0</ele>
                <time>2020-08-28T14:03:30.000Z</time>
                <name>Trackpoint 6054</name>
            </trkpt>
            <trkpt lat="49.923552" lon="9.577204">
                <ele>152.0</ele>
                <time>2020-08-28T14:03:32.000Z</time>
                <name>Trackpoint 6055</name>
            </trkpt>
            <trkpt lat="49.9234656" lon="9.5772632">
                <ele>152.0</ele>
                <time>2020-08-28T14:03:34.000Z</time>
                <name>Trackpoint 6056</name>
            </trkpt>
            <trkpt lat="49.9233792" lon="9.5773232">
                <ele>152.0</ele>
                <time>2020-08-28T14:03:36.000Z</time>
                <name>Trackpoint 6057</name>
            </trkpt>
            <trkpt lat="49.9232928" lon="9.5773848">
                <ele>152.0</ele>
                <time>2020-08-28T14:03:38.000Z</time>
                <name>Trackpoint 6058</name>
            </trkpt>
            <trkpt lat="49.9232096" lon="9.5774432">
                <ele>152.0</ele>
                <time>2020-08-28T14:03:40.000Z</time>
                <name>Trackpoint 6059</name>
            </trkpt>
            <trkpt lat="49.9231232" lon="9.5775016">
                <ele>152.0</ele>
                <time>2020-08-28T14:03:42.000Z</time>
                <name>Trackpoint 6060</name>
            </trkpt>
            <trkpt lat="49.9230336" lon="9.5775616">
                <ele>152.0</ele>
                <time>2020-08-28T14:03:44.000Z</time>
                <name>Trackpoint 6061</name>
            </trkpt>
            <trkpt lat="49.9229472" lon="9.5776256">
                <ele>152.0</ele>
                <time>2020-08-28T14:03:46.000Z</time>
                <name>Trackpoint 6062</name>
            </trkpt>
            <trkpt lat="49.9228576" lon="9.5776864">
                <ele>151.0</ele>
                <time>2020-08-28T14:03:48.000Z</time>
                <name>Trackpoint 6063</name>
            </trkpt>
            <trkpt lat="49.922768" lon="9.5777384">
                <ele>152.0</ele>
                <time>2020-08-28T14:03:50.000Z</time>
                <name>Trackpoint 6064</name>
            </trkpt>
            <trkpt lat="49.9226784" lon="9.5777928">
                <ele>152.0</ele>
                <time>2020-08-28T14:03:52.000Z</time>
                <name>Trackpoint 6065</name>
            </trkpt>
            <trkpt lat="49.9225856" lon="9.5778536">
                <ele>152.0</ele>
                <time>2020-08-28T14:03:54.000Z</time>
                <name>Trackpoint 6066</name>
            </trkpt>
            <trkpt lat="49.9224928" lon="9.5779136">
                <ele>152.0</ele>
                <time>2020-08-28T14:03:56.000Z</time>
                <name>Trackpoint 6067</name>
            </trkpt>
            <trkpt lat="49.9223968" lon="9.5779752">
                <ele>151.0</ele>
                <time>2020-08-28T14:03:58.000Z</time>
                <name>Trackpoint 6068</name>
            </trkpt>
            <trkpt lat="49.9223008" lon="9.5780424">
                <ele>151.0</ele>
                <time>2020-08-28T14:04:00.000Z</time>
                <name>Trackpoint 6069</name>
            </trkpt>
            <trkpt lat="49.922208" lon="9.5781088">
                <ele>152.0</ele>
                <time>2020-08-28T14:04:02.000Z</time>
                <name>Trackpoint 6070</name>
            </trkpt>
            <trkpt lat="49.9221216" lon="9.5781848">
                <ele>152.0</ele>
                <time>2020-08-28T14:04:04.000Z</time>
                <name>Trackpoint 6071</name>
            </trkpt>
            <trkpt lat="49.922032" lon="9.5782608">
                <ele>151.0</ele>
                <time>2020-08-28T14:04:06.000Z</time>
                <name>Trackpoint 6072</name>
            </trkpt>
            <trkpt lat="49.9219392" lon="9.5783416">
                <ele>151.0</ele>
                <time>2020-08-28T14:04:08.000Z</time>
                <name>Trackpoint 6073</name>
            </trkpt>
            <trkpt lat="49.9218528" lon="9.578428">
                <ele>151.0</ele>
                <time>2020-08-28T14:04:10.000Z</time>
                <name>Trackpoint 6074</name>
            </trkpt>
            <trkpt lat="49.9217632" lon="9.5785104">
                <ele>151.0</ele>
                <time>2020-08-28T14:04:12.000Z</time>
                <name>Trackpoint 6075</name>
            </trkpt>
            <trkpt lat="49.9216736" lon="9.5785936">
                <ele>150.0</ele>
                <time>2020-08-28T14:04:14.000Z</time>
                <name>Trackpoint 6076</name>
            </trkpt>
            <trkpt lat="49.9215808" lon="9.5786816">
                <ele>150.0</ele>
                <time>2020-08-28T14:04:16.000Z</time>
                <name>Trackpoint 6077</name>
            </trkpt>
            <trkpt lat="49.9214816" lon="9.5787632">
                <ele>150.0</ele>
                <time>2020-08-28T14:04:18.000Z</time>
                <name>Trackpoint 6078</name>
            </trkpt>
            <trkpt lat="49.9213824" lon="9.5788448">
                <ele>150.0</ele>
                <time>2020-08-28T14:04:20.000Z</time>
                <name>Trackpoint 6079</name>
            </trkpt>
            <trkpt lat="49.9212832" lon="9.578932">
                <ele>150.0</ele>
                <time>2020-08-28T14:04:22.000Z</time>
                <name>Trackpoint 6080</name>
            </trkpt>
            <trkpt lat="49.921184" lon="9.5790184">
                <ele>150.0</ele>
                <time>2020-08-28T14:04:24.000Z</time>
                <name>Trackpoint 6081</name>
            </trkpt>
            <trkpt lat="49.9210816" lon="9.5791">
                <ele>150.0</ele>
                <time>2020-08-28T14:04:26.000Z</time>
                <name>Trackpoint 6082</name>
            </trkpt>
            <trkpt lat="49.9209792" lon="9.5791816">
                <ele>150.0</ele>
                <time>2020-08-28T14:04:28.000Z</time>
                <name>Trackpoint 6083</name>
            </trkpt>
            <trkpt lat="49.92088" lon="9.5792704">
                <ele>150.0</ele>
                <time>2020-08-28T14:04:30.000Z</time>
                <name>Trackpoint 6084</name>
            </trkpt>
            <trkpt lat="49.920784" lon="9.5793648">
                <ele>149.0</ele>
                <time>2020-08-28T14:04:32.000Z</time>
                <name>Trackpoint 6085</name>
            </trkpt>
            <trkpt lat="49.9206912" lon="9.57946">
                <ele>149.0</ele>
                <time>2020-08-28T14:04:34.000Z</time>
                <name>Trackpoint 6086</name>
            </trkpt>
            <trkpt lat="49.920608" lon="9.5795616">
                <ele>149.0</ele>
                <time>2020-08-28T14:04:36.000Z</time>
                <name>Trackpoint 6087</name>
            </trkpt>
            <trkpt lat="49.9205248" lon="9.5796648">
                <ele>149.0</ele>
                <time>2020-08-28T14:04:38.000Z</time>
                <name>Trackpoint 6088</name>
            </trkpt>
            <trkpt lat="49.9204416" lon="9.579768">
                <ele>148.0</ele>
                <time>2020-08-28T14:04:40.000Z</time>
                <name>Trackpoint 6089</name>
            </trkpt>
            <trkpt lat="49.9203616" lon="9.5798704">
                <ele>149.0</ele>
                <time>2020-08-28T14:04:42.000Z</time>
                <name>Trackpoint 6090</name>
            </trkpt>
            <trkpt lat="49.9202848" lon="9.5799752">
                <ele>149.0</ele>
                <time>2020-08-28T14:04:44.000Z</time>
                <name>Trackpoint 6091</name>
            </trkpt>
            <trkpt lat="49.920208" lon="9.58008">
                <ele>149.0</ele>
                <time>2020-08-28T14:04:46.000Z</time>
                <name>Trackpoint 6092</name>
            </trkpt>
            <trkpt lat="49.9201312" lon="9.5801832">
                <ele>150.0</ele>
                <time>2020-08-28T14:04:48.000Z</time>
                <name>Trackpoint 6093</name>
            </trkpt>
            <trkpt lat="49.9200608" lon="9.580288">
                <ele>150.0</ele>
                <time>2020-08-28T14:04:50.000Z</time>
                <name>Trackpoint 6094</name>
            </trkpt>
            <trkpt lat="49.9199872" lon="9.580388">
                <ele>150.0</ele>
                <time>2020-08-28T14:04:52.000Z</time>
                <name>Trackpoint 6095</name>
            </trkpt>
            <trkpt lat="49.9199104" lon="9.580488">
                <ele>150.0</ele>
                <time>2020-08-28T14:04:54.000Z</time>
                <name>Trackpoint 6096</name>
            </trkpt>
            <trkpt lat="49.9198368" lon="9.5805928">
                <ele>151.0</ele>
                <time>2020-08-28T14:04:56.000Z</time>
                <name>Trackpoint 6097</name>
            </trkpt>
            <trkpt lat="49.9197568" lon="9.5806968">
                <ele>151.0</ele>
                <time>2020-08-28T14:04:58.000Z</time>
                <name>Trackpoint 6098</name>
            </trkpt>
            <trkpt lat="49.9196768" lon="9.5808">
                <ele>152.0</ele>
                <time>2020-08-28T14:05:00.000Z</time>
                <name>Trackpoint 6099</name>
            </trkpt>
            <trkpt lat="49.9196" lon="9.580912">
                <ele>152.0</ele>
                <time>2020-08-28T14:05:02.000Z</time>
                <name>Trackpoint 6100</name>
            </trkpt>
            <trkpt lat="49.9195264" lon="9.58102">
                <ele>152.0</ele>
                <time>2020-08-28T14:05:04.000Z</time>
                <name>Trackpoint 6101</name>
            </trkpt>
            <trkpt lat="49.9194464" lon="9.5811216">
                <ele>152.0</ele>
                <time>2020-08-28T14:05:06.000Z</time>
                <name>Trackpoint 6102</name>
            </trkpt>
            <trkpt lat="49.9193696" lon="9.5812256">
                <ele>153.0</ele>
                <time>2020-08-28T14:05:08.000Z</time>
                <name>Trackpoint 6103</name>
            </trkpt>
            <trkpt lat="49.9192896" lon="9.581328">
                <ele>153.0</ele>
                <time>2020-08-28T14:05:10.000Z</time>
                <name>Trackpoint 6104</name>
            </trkpt>
            <trkpt lat="49.9192096" lon="9.5814352">
                <ele>153.0</ele>
                <time>2020-08-28T14:05:12.000Z</time>
                <name>Trackpoint 6105</name>
            </trkpt>
            <trkpt lat="49.9191296" lon="9.5815384">
                <ele>153.0</ele>
                <time>2020-08-28T14:05:14.000Z</time>
                <name>Trackpoint 6106</name>
            </trkpt>
            <trkpt lat="49.919056" lon="9.581648">
                <ele>154.0</ele>
                <time>2020-08-28T14:05:16.000Z</time>
                <name>Trackpoint 6107</name>
            </trkpt>
            <trkpt lat="49.9189888" lon="9.581752">
                <ele>155.0</ele>
                <time>2020-08-28T14:05:18.000Z</time>
                <name>Trackpoint 6108</name>
            </trkpt>
            <trkpt lat="49.9189248" lon="9.581852">
                <ele>155.0</ele>
                <time>2020-08-28T14:05:20.000Z</time>
                <name>Trackpoint 6109</name>
            </trkpt>
            <trkpt lat="49.9188576" lon="9.581948">
                <ele>156.0</ele>
                <time>2020-08-28T14:05:22.000Z</time>
                <name>Trackpoint 6110</name>
            </trkpt>
            <trkpt lat="49.9187968" lon="9.5820416">
                <ele>156.0</ele>
                <time>2020-08-28T14:05:24.000Z</time>
                <name>Trackpoint 6111</name>
            </trkpt>
            <trkpt lat="49.9187328" lon="9.5821304">
                <ele>156.0</ele>
                <time>2020-08-28T14:05:26.000Z</time>
                <name>Trackpoint 6112</name>
            </trkpt>
            <trkpt lat="49.9186656" lon="9.5822064">
                <ele>156.0</ele>
                <time>2020-08-28T14:05:28.000Z</time>
                <name>Trackpoint 6113</name>
            </trkpt>
            <trkpt lat="49.91856" lon="9.5823152">
                <ele>156.0</ele>
                <time>2020-08-28T14:05:31.000Z</time>
                <name>Trackpoint 6114</name>
            </trkpt>
            <trkpt lat="49.9184672" lon="9.5823984">
                <ele>155.0</ele>
                <time>2020-08-28T14:05:33.000Z</time>
                <name>Trackpoint 6115</name>
            </trkpt>
            <trkpt lat="49.918368" lon="9.5824536">
                <ele>154.0</ele>
                <time>2020-08-28T14:05:35.000Z</time>
                <name>Trackpoint 6116</name>
            </trkpt>
            <trkpt lat="49.9182784" lon="9.582532">
                <ele>154.0</ele>
                <time>2020-08-28T14:05:37.000Z</time>
                <name>Trackpoint 6117</name>
            </trkpt>
            <trkpt lat="49.9181888" lon="9.5825952">
                <ele>154.0</ele>
                <time>2020-08-28T14:05:39.000Z</time>
                <name>Trackpoint 6118</name>
            </trkpt>
            <trkpt lat="49.9181024" lon="9.5826432">
                <ele>153.0</ele>
                <time>2020-08-28T14:05:41.000Z</time>
                <name>Trackpoint 6119</name>
            </trkpt>
            <trkpt lat="49.9180256" lon="9.5827">
                <ele>154.0</ele>
                <time>2020-08-28T14:05:43.000Z</time>
                <name>Trackpoint 6120</name>
            </trkpt>
            <trkpt lat="49.9179456" lon="9.5827552">
                <ele>153.0</ele>
                <time>2020-08-28T14:05:45.000Z</time>
                <name>Trackpoint 6121</name>
            </trkpt>
            <trkpt lat="49.9178496" lon="9.5827952">
                <ele>152.0</ele>
                <time>2020-08-28T14:05:47.000Z</time>
                <name>Trackpoint 6122</name>
            </trkpt>
            <trkpt lat="49.917744" lon="9.5828416">
                <ele>151.0</ele>
                <time>2020-08-28T14:05:49.000Z</time>
                <name>Trackpoint 6123</name>
            </trkpt>
            <trkpt lat="49.9176416" lon="9.5828984">
                <ele>150.0</ele>
                <time>2020-08-28T14:05:51.000Z</time>
                <name>Trackpoint 6124</name>
            </trkpt>
            <trkpt lat="49.9175392" lon="9.582956">
                <ele>150.0</ele>
                <time>2020-08-28T14:05:53.000Z</time>
                <name>Trackpoint 6125</name>
            </trkpt>
            <trkpt lat="49.9174304" lon="9.5830184">
                <ele>150.0</ele>
                <time>2020-08-28T14:05:55.000Z</time>
                <name>Trackpoint 6126</name>
            </trkpt>
            <trkpt lat="49.9173312" lon="9.5830896">
                <ele>150.0</ele>
                <time>2020-08-28T14:05:57.000Z</time>
                <name>Trackpoint 6127</name>
            </trkpt>
            <trkpt lat="49.9172288" lon="9.5831608">
                <ele>150.0</ele>
                <time>2020-08-28T14:05:59.000Z</time>
                <name>Trackpoint 6128</name>
            </trkpt>
            <trkpt lat="49.9171264" lon="9.5832416">
                <ele>149.0</ele>
                <time>2020-08-28T14:06:01.000Z</time>
                <name>Trackpoint 6129</name>
            </trkpt>
            <trkpt lat="49.9170272" lon="9.5833264">
                <ele>149.0</ele>
                <time>2020-08-28T14:06:03.000Z</time>
                <name>Trackpoint 6130</name>
            </trkpt>
            <trkpt lat="49.9169344" lon="9.58342">
                <ele>149.0</ele>
                <time>2020-08-28T14:06:05.000Z</time>
                <name>Trackpoint 6131</name>
            </trkpt>
            <trkpt lat="49.9168448" lon="9.5835104">
                <ele>149.0</ele>
                <time>2020-08-28T14:06:07.000Z</time>
                <name>Trackpoint 6132</name>
            </trkpt>
            <trkpt lat="49.9167552" lon="9.5836048">
                <ele>149.0</ele>
                <time>2020-08-28T14:06:09.000Z</time>
                <name>Trackpoint 6133</name>
            </trkpt>
            <trkpt lat="49.9166688" lon="9.5837">
                <ele>149.0</ele>
                <time>2020-08-28T14:06:11.000Z</time>
                <name>Trackpoint 6134</name>
            </trkpt>
            <trkpt lat="49.9165728" lon="9.5837944">
                <ele>149.0</ele>
                <time>2020-08-28T14:06:13.000Z</time>
                <name>Trackpoint 6135</name>
            </trkpt>
            <trkpt lat="49.9164864" lon="9.5838896">
                <ele>149.0</ele>
                <time>2020-08-28T14:06:15.000Z</time>
                <name>Trackpoint 6136</name>
            </trkpt>
            <trkpt lat="49.9164" lon="9.5839928">
                <ele>149.0</ele>
                <time>2020-08-28T14:06:17.000Z</time>
                <name>Trackpoint 6137</name>
            </trkpt>
            <trkpt lat="49.91632" lon="9.5841016">
                <ele>150.0</ele>
                <time>2020-08-28T14:06:19.000Z</time>
                <name>Trackpoint 6138</name>
            </trkpt>
            <trkpt lat="49.9162496" lon="9.584204">
                <ele>150.0</ele>
                <time>2020-08-28T14:06:21.000Z</time>
                <name>Trackpoint 6139</name>
            </trkpt>
            <trkpt lat="49.9161792" lon="9.5843">
                <ele>150.0</ele>
                <time>2020-08-28T14:06:23.000Z</time>
                <name>Trackpoint 6140</name>
            </trkpt>
            <trkpt lat="49.9161184" lon="9.5844">
                <ele>150.0</ele>
                <time>2020-08-28T14:06:25.000Z</time>
                <name>Trackpoint 6141</name>
            </trkpt>
            <trkpt lat="49.9160544" lon="9.5844936">
                <ele>150.0</ele>
                <time>2020-08-28T14:06:27.000Z</time>
                <name>Trackpoint 6142</name>
            </trkpt>
            <trkpt lat="49.915984" lon="9.5845768">
                <ele>151.0</ele>
                <time>2020-08-28T14:06:29.000Z</time>
                <name>Trackpoint 6143</name>
            </trkpt>
            <trkpt lat="49.9159232" lon="9.5846568">
                <ele>151.0</ele>
                <time>2020-08-28T14:06:31.000Z</time>
                <name>Trackpoint 6144</name>
            </trkpt>
            <trkpt lat="49.9158656" lon="9.58474">
                <ele>151.0</ele>
                <time>2020-08-28T14:06:55.000Z</time>
                <name>Trackpoint 6145</name>
            </trkpt>
            <trkpt lat="49.9158048" lon="9.584828">
                <ele>151.0</ele>
                <time>2020-08-28T14:06:59.000Z</time>
                <name>Trackpoint 6146</name>
            </trkpt>
            <trkpt lat="49.9157344" lon="9.5849216">
                <ele>151.0</ele>
                <time>2020-08-28T14:07:02.000Z</time>
                <name>Trackpoint 6147</name>
            </trkpt>
            <trkpt lat="49.9156768" lon="9.5849984">
                <ele>151.0</ele>
                <time>2020-08-28T14:07:04.000Z</time>
                <name>Trackpoint 6148</name>
            </trkpt>
            <trkpt lat="49.9156128" lon="9.58508">
                <ele>151.0</ele>
                <time>2020-08-28T14:07:06.000Z</time>
                <name>Trackpoint 6149</name>
            </trkpt>
            <trkpt lat="49.9155392" lon="9.5851632">
                <ele>152.0</ele>
                <time>2020-08-28T14:07:08.000Z</time>
                <name>Trackpoint 6150</name>
            </trkpt>
            <trkpt lat="49.9154656" lon="9.585252">
                <ele>151.0</ele>
                <time>2020-08-28T14:07:10.000Z</time>
                <name>Trackpoint 6151</name>
            </trkpt>
            <trkpt lat="49.9154016" lon="9.585352">
                <ele>152.0</ele>
                <time>2020-08-28T14:07:12.000Z</time>
                <name>Trackpoint 6152</name>
            </trkpt>
            <trkpt lat="49.9153184" lon="9.5854504">
                <ele>151.0</ele>
                <time>2020-08-28T14:07:14.000Z</time>
                <name>Trackpoint 6153</name>
            </trkpt>
            <trkpt lat="49.9152288" lon="9.5855464">
                <ele>151.0</ele>
                <time>2020-08-28T14:07:16.000Z</time>
                <name>Trackpoint 6154</name>
            </trkpt>
            <trkpt lat="49.9151296" lon="9.5856352">
                <ele>151.0</ele>
                <time>2020-08-28T14:07:18.000Z</time>
                <name>Trackpoint 6155</name>
            </trkpt>
            <trkpt lat="49.9150368" lon="9.5857384">
                <ele>151.0</ele>
                <time>2020-08-28T14:07:20.000Z</time>
                <name>Trackpoint 6156</name>
            </trkpt>
            <trkpt lat="49.9149376" lon="9.5858352">
                <ele>151.0</ele>
                <time>2020-08-28T14:07:22.000Z</time>
                <name>Trackpoint 6157</name>
            </trkpt>
            <trkpt lat="49.9148384" lon="9.5859344">
                <ele>151.0</ele>
                <time>2020-08-28T14:07:24.000Z</time>
                <name>Trackpoint 6158</name>
            </trkpt>
            <trkpt lat="49.9147424" lon="9.5860368">
                <ele>152.0</ele>
                <time>2020-08-28T14:07:26.000Z</time>
                <name>Trackpoint 6159</name>
            </trkpt>
            <trkpt lat="49.9146432" lon="9.5861384">
                <ele>151.0</ele>
                <time>2020-08-28T14:07:28.000Z</time>
                <name>Trackpoint 6160</name>
            </trkpt>
            <trkpt lat="49.914544" lon="9.5862304">
                <ele>152.0</ele>
                <time>2020-08-28T14:07:30.000Z</time>
                <name>Trackpoint 6161</name>
            </trkpt>
            <trkpt lat="49.9144544" lon="9.5863288">
                <ele>152.0</ele>
                <time>2020-08-28T14:07:32.000Z</time>
                <name>Trackpoint 6162</name>
            </trkpt>
            <trkpt lat="49.9143712" lon="9.58642">
                <ele>152.0</ele>
                <time>2020-08-28T14:07:34.000Z</time>
                <name>Trackpoint 6163</name>
            </trkpt>
            <trkpt lat="49.914304" lon="9.586512">
                <ele>152.0</ele>
                <time>2020-08-28T14:07:36.000Z</time>
                <name>Trackpoint 6164</name>
            </trkpt>
            <trkpt lat="49.9142432" lon="9.58664">
                <ele>151.0</ele>
                <time>2020-08-28T14:07:38.000Z</time>
                <name>Trackpoint 6165</name>
            </trkpt>
            <trkpt lat="49.9141632" lon="9.586732">
                <ele>152.0</ele>
                <time>2020-08-28T14:07:40.000Z</time>
                <name>Trackpoint 6166</name>
            </trkpt>
            <trkpt lat="49.9140864" lon="9.5868128">
                <ele>152.0</ele>
                <time>2020-08-28T14:07:42.000Z</time>
                <name>Trackpoint 6167</name>
            </trkpt>
            <trkpt lat="49.9139936" lon="9.5868704">
                <ele>152.0</ele>
                <time>2020-08-28T14:07:44.000Z</time>
                <name>Trackpoint 6168</name>
            </trkpt>
            <trkpt lat="49.9139104" lon="9.5869512">
                <ele>152.0</ele>
                <time>2020-08-28T14:07:46.000Z</time>
                <name>Trackpoint 6169</name>
            </trkpt>
            <trkpt lat="49.9138464" lon="9.5870248">
                <ele>153.0</ele>
                <time>2020-08-28T14:07:48.000Z</time>
                <name>Trackpoint 6170</name>
            </trkpt>
            <trkpt lat="49.9137664" lon="9.5871248">
                <ele>153.0</ele>
                <time>2020-08-28T14:07:50.000Z</time>
                <name>Trackpoint 6171</name>
            </trkpt>
            <trkpt lat="49.9136768" lon="9.5872152">
                <ele>153.0</ele>
                <time>2020-08-28T14:07:52.000Z</time>
                <name>Trackpoint 6172</name>
            </trkpt>
            <trkpt lat="49.9135872" lon="9.5873016">
                <ele>153.0</ele>
                <time>2020-08-28T14:07:54.000Z</time>
                <name>Trackpoint 6173</name>
            </trkpt>
            <trkpt lat="49.9134752" lon="9.5873768">
                <ele>153.0</ele>
                <time>2020-08-28T14:07:56.000Z</time>
                <name>Trackpoint 6174</name>
            </trkpt>
            <trkpt lat="49.9133792" lon="9.5874584">
                <ele>153.0</ele>
                <time>2020-08-28T14:07:58.000Z</time>
                <name>Trackpoint 6175</name>
            </trkpt>
            <trkpt lat="49.9132768" lon="9.5875632">
                <ele>153.0</ele>
                <time>2020-08-28T14:08:00.000Z</time>
                <name>Trackpoint 6176</name>
            </trkpt>
            <trkpt lat="49.9131616" lon="9.5876312">
                <ele>153.0</ele>
                <time>2020-08-28T14:08:02.000Z</time>
                <name>Trackpoint 6177</name>
            </trkpt>
            <trkpt lat="49.9130624" lon="9.5877112">
                <ele>154.0</ele>
                <time>2020-08-28T14:08:04.000Z</time>
                <name>Trackpoint 6178</name>
            </trkpt>
            <trkpt lat="49.91296" lon="9.5877768">
                <ele>154.0</ele>
                <time>2020-08-28T14:08:06.000Z</time>
                <name>Trackpoint 6179</name>
            </trkpt>
            <trkpt lat="49.9128544" lon="9.5878448">
                <ele>155.0</ele>
                <time>2020-08-28T14:08:08.000Z</time>
                <name>Trackpoint 6180</name>
            </trkpt>
            <trkpt lat="49.9127296" lon="9.5879088">
                <ele>155.0</ele>
                <time>2020-08-28T14:08:10.000Z</time>
                <name>Trackpoint 6181</name>
            </trkpt>
            <trkpt lat="49.912608" lon="9.5879648">
                <ele>155.0</ele>
                <time>2020-08-28T14:08:12.000Z</time>
                <name>Trackpoint 6182</name>
            </trkpt>
            <trkpt lat="49.9125088" lon="9.5880272">
                <ele>155.0</ele>
                <time>2020-08-28T14:08:14.000Z</time>
                <name>Trackpoint 6183</name>
            </trkpt>
            <trkpt lat="49.9124096" lon="9.5880808">
                <ele>154.0</ele>
                <time>2020-08-28T14:08:16.000Z</time>
                <name>Trackpoint 6184</name>
            </trkpt>
            <trkpt lat="49.9123168" lon="9.5881392">
                <ele>154.0</ele>
                <time>2020-08-28T14:08:18.000Z</time>
                <name>Trackpoint 6185</name>
            </trkpt>
            <trkpt lat="49.9122016" lon="9.5881832">
                <ele>154.0</ele>
                <time>2020-08-28T14:08:20.000Z</time>
                <name>Trackpoint 6186</name>
            </trkpt>
            <trkpt lat="49.9121024" lon="9.5882528">
                <ele>154.0</ele>
                <time>2020-08-28T14:08:22.000Z</time>
                <name>Trackpoint 6187</name>
            </trkpt>
            <trkpt lat="49.9120224" lon="9.5883112">
                <ele>154.0</ele>
                <time>2020-08-28T14:08:24.000Z</time>
                <name>Trackpoint 6188</name>
            </trkpt>
            <trkpt lat="49.91192" lon="9.5883552">
                <ele>155.0</ele>
                <time>2020-08-28T14:08:26.000Z</time>
                <name>Trackpoint 6189</name>
            </trkpt>
            <trkpt lat="49.911808" lon="9.5883776">
                <ele>155.0</ele>
                <time>2020-08-28T14:08:28.000Z</time>
                <name>Trackpoint 6190</name>
            </trkpt>
            <trkpt lat="49.9117152" lon="9.5884104">
                <ele>155.0</ele>
                <time>2020-08-28T14:08:30.000Z</time>
                <name>Trackpoint 6191</name>
            </trkpt>
            <trkpt lat="49.9116128" lon="9.5884584">
                <ele>155.0</ele>
                <time>2020-08-28T14:08:32.000Z</time>
                <name>Trackpoint 6192</name>
            </trkpt>
            <trkpt lat="49.911488" lon="9.5885096">
                <ele>155.0</ele>
                <time>2020-08-28T14:08:34.000Z</time>
                <name>Trackpoint 6193</name>
            </trkpt>
            <trkpt lat="49.9113632" lon="9.5885432">
                <ele>155.0</ele>
                <time>2020-08-28T14:08:36.000Z</time>
                <name>Trackpoint 6194</name>
            </trkpt>
            <trkpt lat="49.9112384" lon="9.5885712">
                <ele>155.0</ele>
                <time>2020-08-28T14:08:38.000Z</time>
                <name>Trackpoint 6195</name>
            </trkpt>
            <trkpt lat="49.9111168" lon="9.5885912">
                <ele>155.0</ele>
                <time>2020-08-28T14:08:40.000Z</time>
                <name>Trackpoint 6196</name>
            </trkpt>
            <trkpt lat="49.910976" lon="9.5886072">
                <ele>155.0</ele>
                <time>2020-08-28T14:08:42.000Z</time>
                <name>Trackpoint 6197</name>
            </trkpt>
            <trkpt lat="49.9108576" lon="9.5886336">
                <ele>155.0</ele>
                <time>2020-08-28T14:08:44.000Z</time>
                <name>Trackpoint 6198</name>
            </trkpt>
            <trkpt lat="49.9107584" lon="9.5886536">
                <ele>154.0</ele>
                <time>2020-08-28T14:08:46.000Z</time>
                <name>Trackpoint 6199</name>
            </trkpt>
            <trkpt lat="49.9106592" lon="9.5886936">
                <ele>154.0</ele>
                <time>2020-08-28T14:08:48.000Z</time>
                <name>Trackpoint 6200</name>
            </trkpt>
            <trkpt lat="49.9105696" lon="9.5887368">
                <ele>154.0</ele>
                <time>2020-08-28T14:08:50.000Z</time>
                <name>Trackpoint 6201</name>
            </trkpt>
            <trkpt lat="49.9104832" lon="9.5887936">
                <ele>154.0</ele>
                <time>2020-08-28T14:08:52.000Z</time>
                <name>Trackpoint 6202</name>
            </trkpt>
            <trkpt lat="49.9103808" lon="9.5888232">
                <ele>154.0</ele>
                <time>2020-08-28T14:08:54.000Z</time>
                <name>Trackpoint 6203</name>
            </trkpt>
            <trkpt lat="49.9102944" lon="9.5888544">
                <ele>154.0</ele>
                <time>2020-08-28T14:08:56.000Z</time>
                <name>Trackpoint 6204</name>
            </trkpt>
            <trkpt lat="49.9102048" lon="9.5888832">
                <ele>154.0</ele>
                <time>2020-08-28T14:08:58.000Z</time>
                <name>Trackpoint 6205</name>
            </trkpt>
            <trkpt lat="49.9101024" lon="9.5889032">
                <ele>154.0</ele>
                <time>2020-08-28T14:09:00.000Z</time>
                <name>Trackpoint 6206</name>
            </trkpt>
            <trkpt lat="49.9100032" lon="9.5889152">
                <ele>154.0</ele>
                <time>2020-08-28T14:09:02.000Z</time>
                <name>Trackpoint 6207</name>
            </trkpt>
            <trkpt lat="49.9099072" lon="9.58894">
                <ele>154.0</ele>
                <time>2020-08-28T14:09:04.000Z</time>
                <name>Trackpoint 6208</name>
            </trkpt>
            <trkpt lat="49.909808" lon="9.5889656">
                <ele>155.0</ele>
                <time>2020-08-28T14:09:06.000Z</time>
                <name>Trackpoint 6209</name>
            </trkpt>
            <trkpt lat="49.909696" lon="9.5889704">
                <ele>154.0</ele>
                <time>2020-08-28T14:09:08.000Z</time>
                <name>Trackpoint 6210</name>
            </trkpt>
            <trkpt lat="49.9096064" lon="9.5889904">
                <ele>155.0</ele>
                <time>2020-08-28T14:09:10.000Z</time>
                <name>Trackpoint 6211</name>
            </trkpt>
            <trkpt lat="49.9095008" lon="9.5890128">
                <ele>155.0</ele>
                <time>2020-08-28T14:09:12.000Z</time>
                <name>Trackpoint 6212</name>
            </trkpt>
            <trkpt lat="49.909392" lon="9.5890248">
                <ele>155.0</ele>
                <time>2020-08-28T14:09:14.000Z</time>
                <name>Trackpoint 6213</name>
            </trkpt>
            <trkpt lat="49.9093024" lon="9.589048">
                <ele>155.0</ele>
                <time>2020-08-28T14:09:16.000Z</time>
                <name>Trackpoint 6214</name>
            </trkpt>
            <trkpt lat="49.909184" lon="9.5890712">
                <ele>155.0</ele>
                <time>2020-08-28T14:09:18.000Z</time>
                <name>Trackpoint 6215</name>
            </trkpt>
            <trkpt lat="49.9090624" lon="9.58908">
                <ele>155.0</ele>
                <time>2020-08-28T14:09:20.000Z</time>
                <name>Trackpoint 6216</name>
            </trkpt>
            <trkpt lat="49.90896" lon="9.5890816">
                <ele>155.0</ele>
                <time>2020-08-28T14:09:22.000Z</time>
                <name>Trackpoint 6217</name>
            </trkpt>
            <trkpt lat="49.908832" lon="9.5891">
                <ele>155.0</ele>
                <time>2020-08-28T14:09:24.000Z</time>
                <name>Trackpoint 6218</name>
            </trkpt>
            <trkpt lat="49.9087072" lon="9.5891304">
                <ele>155.0</ele>
                <time>2020-08-28T14:09:26.000Z</time>
                <name>Trackpoint 6219</name>
            </trkpt>
            <trkpt lat="49.9085856" lon="9.5891216">
                <ele>155.0</ele>
                <time>2020-08-28T14:09:28.000Z</time>
                <name>Trackpoint 6220</name>
            </trkpt>
            <trkpt lat="49.9084704" lon="9.5891136">
                <ele>155.0</ele>
                <time>2020-08-28T14:09:30.000Z</time>
                <name>Trackpoint 6221</name>
            </trkpt>
            <trkpt lat="49.908352" lon="9.5891136">
                <ele>155.0</ele>
                <time>2020-08-28T14:09:32.000Z</time>
                <name>Trackpoint 6222</name>
            </trkpt>
            <trkpt lat="49.9082464" lon="9.5891168">
                <ele>155.0</ele>
                <time>2020-08-28T14:09:34.000Z</time>
                <name>Trackpoint 6223</name>
            </trkpt>
            <trkpt lat="49.9081472" lon="9.5891112">
                <ele>155.0</ele>
                <time>2020-08-28T14:09:36.000Z</time>
                <name>Trackpoint 6224</name>
            </trkpt>
            <trkpt lat="49.908016" lon="9.5890936">
                <ele>155.0</ele>
                <time>2020-08-28T14:09:38.000Z</time>
                <name>Trackpoint 6225</name>
            </trkpt>
            <trkpt lat="49.907904" lon="9.589104">
                <ele>155.0</ele>
                <time>2020-08-28T14:09:40.000Z</time>
                <name>Trackpoint 6226</name>
            </trkpt>
            <trkpt lat="49.907792" lon="9.58908">
                <ele>155.0</ele>
                <time>2020-08-28T14:09:42.000Z</time>
                <name>Trackpoint 6227</name>
            </trkpt>
            <trkpt lat="49.9076928" lon="9.5890976">
                <ele>156.0</ele>
                <time>2020-08-28T14:09:44.000Z</time>
                <name>Trackpoint 6228</name>
            </trkpt>
            <trkpt lat="49.9075744" lon="9.5891112">
                <ele>156.0</ele>
                <time>2020-08-28T14:09:46.000Z</time>
                <name>Trackpoint 6229</name>
            </trkpt>
            <trkpt lat="49.9074528" lon="9.5890976">
                <ele>156.0</ele>
                <time>2020-08-28T14:09:48.000Z</time>
                <name>Trackpoint 6230</name>
            </trkpt>
            <trkpt lat="49.9073344" lon="9.5890816">
                <ele>156.0</ele>
                <time>2020-08-28T14:09:50.000Z</time>
                <name>Trackpoint 6231</name>
            </trkpt>
            <trkpt lat="49.9071808" lon="9.5890704">
                <ele>156.0</ele>
                <time>2020-08-28T14:09:52.000Z</time>
                <name>Trackpoint 6232</name>
            </trkpt>
            <trkpt lat="49.9070688" lon="9.5890616">
                <ele>156.0</ele>
                <time>2020-08-28T14:09:54.000Z</time>
                <name>Trackpoint 6233</name>
            </trkpt>
            <trkpt lat="49.9069504" lon="9.5890368">
                <ele>156.0</ele>
                <time>2020-08-28T14:09:56.000Z</time>
                <name>Trackpoint 6234</name>
            </trkpt>
            <trkpt lat="49.9068384" lon="9.5890248">
                <ele>156.0</ele>
                <time>2020-08-28T14:09:58.000Z</time>
                <name>Trackpoint 6235</name>
            </trkpt>
            <trkpt lat="49.9067104" lon="9.5890112">
                <ele>156.0</ele>
                <time>2020-08-28T14:10:00.000Z</time>
                <name>Trackpoint 6236</name>
            </trkpt>
            <trkpt lat="49.9065856" lon="9.5890016">
                <ele>156.0</ele>
                <time>2020-08-28T14:10:02.000Z</time>
                <name>Trackpoint 6237</name>
            </trkpt>
            <trkpt lat="49.9064544" lon="9.5890112">
                <ele>156.0</ele>
                <time>2020-08-28T14:10:04.000Z</time>
                <name>Trackpoint 6238</name>
            </trkpt>
            <trkpt lat="49.9063584" lon="9.5890376">
                <ele>156.0</ele>
                <time>2020-08-28T14:10:06.000Z</time>
                <name>Trackpoint 6239</name>
            </trkpt>
            <trkpt lat="49.9062592" lon="9.5890688">
                <ele>156.0</ele>
                <time>2020-08-28T14:10:08.000Z</time>
                <name>Trackpoint 6240</name>
            </trkpt>
            <trkpt lat="49.906144" lon="9.5890904">
                <ele>156.0</ele>
                <time>2020-08-28T14:10:10.000Z</time>
                <name>Trackpoint 6241</name>
            </trkpt>
            <trkpt lat="49.9060096" lon="9.589084">
                <ele>156.0</ele>
                <time>2020-08-28T14:10:12.000Z</time>
                <name>Trackpoint 6242</name>
            </trkpt>
            <trkpt lat="49.9058944" lon="9.5890904">
                <ele>156.0</ele>
                <time>2020-08-28T14:10:14.000Z</time>
                <name>Trackpoint 6243</name>
            </trkpt>
            <trkpt lat="49.9057632" lon="9.58908">
                <ele>156.0</ele>
                <time>2020-08-28T14:10:16.000Z</time>
                <name>Trackpoint 6244</name>
            </trkpt>
            <trkpt lat="49.9056256" lon="9.5890728">
                <ele>155.0</ele>
                <time>2020-08-28T14:10:18.000Z</time>
                <name>Trackpoint 6245</name>
            </trkpt>
            <trkpt lat="49.9054976" lon="9.589084">
                <ele>155.0</ele>
                <time>2020-08-28T14:10:20.000Z</time>
                <name>Trackpoint 6246</name>
            </trkpt>
            <trkpt lat="49.9053728" lon="9.5890912">
                <ele>154.0</ele>
                <time>2020-08-28T14:10:22.000Z</time>
                <name>Trackpoint 6247</name>
            </trkpt>
            <trkpt lat="49.905248" lon="9.58912">
                <ele>154.0</ele>
                <time>2020-08-28T14:10:24.000Z</time>
                <name>Trackpoint 6248</name>
            </trkpt>
            <trkpt lat="49.9051296" lon="9.589144">
                <ele>154.0</ele>
                <time>2020-08-28T14:10:26.000Z</time>
                <name>Trackpoint 6249</name>
            </trkpt>
            <trkpt lat="49.905008" lon="9.5891648">
                <ele>153.0</ele>
                <time>2020-08-28T14:10:28.000Z</time>
                <name>Trackpoint 6250</name>
            </trkpt>
            <trkpt lat="49.9048992" lon="9.5891912">
                <ele>153.0</ele>
                <time>2020-08-28T14:10:30.000Z</time>
                <name>Trackpoint 6251</name>
            </trkpt>
            <trkpt lat="49.904784" lon="9.589216">
                <ele>153.0</ele>
                <time>2020-08-28T14:10:32.000Z</time>
                <name>Trackpoint 6252</name>
            </trkpt>
            <trkpt lat="49.9046816" lon="9.5892496">
                <ele>153.0</ele>
                <time>2020-08-28T14:10:34.000Z</time>
                <name>Trackpoint 6253</name>
            </trkpt>
            <trkpt lat="49.9045824" lon="9.5893">
                <ele>153.0</ele>
                <time>2020-08-28T14:10:36.000Z</time>
                <name>Trackpoint 6254</name>
            </trkpt>
            <trkpt lat="49.90448" lon="9.5893424">
                <ele>153.0</ele>
                <time>2020-08-28T14:10:38.000Z</time>
                <name>Trackpoint 6255</name>
            </trkpt>
            <trkpt lat="49.904384" lon="9.5893696">
                <ele>153.0</ele>
                <time>2020-08-28T14:10:40.000Z</time>
                <name>Trackpoint 6256</name>
            </trkpt>
            <trkpt lat="49.9042816" lon="9.5893848">
                <ele>152.0</ele>
                <time>2020-08-28T14:10:42.000Z</time>
                <name>Trackpoint 6257</name>
            </trkpt>
            <trkpt lat="49.9041792" lon="9.5894048">
                <ele>152.0</ele>
                <time>2020-08-28T14:10:44.000Z</time>
                <name>Trackpoint 6258</name>
            </trkpt>
            <trkpt lat="49.9040704" lon="9.589448">
                <ele>151.0</ele>
                <time>2020-08-28T14:10:46.000Z</time>
                <name>Trackpoint 6259</name>
            </trkpt>
            <trkpt lat="49.9039776" lon="9.589468">
                <ele>151.0</ele>
                <time>2020-08-28T14:10:48.000Z</time>
                <name>Trackpoint 6260</name>
            </trkpt>
            <trkpt lat="49.9038784" lon="9.5894936">
                <ele>151.0</ele>
                <time>2020-08-28T14:10:50.000Z</time>
                <name>Trackpoint 6261</name>
            </trkpt>
            <trkpt lat="49.9037824" lon="9.589552">
                <ele>151.0</ele>
                <time>2020-08-28T14:10:52.000Z</time>
                <name>Trackpoint 6262</name>
            </trkpt>
            <trkpt lat="49.9036864" lon="9.5895616">
                <ele>151.0</ele>
                <time>2020-08-28T14:10:54.000Z</time>
                <name>Trackpoint 6263</name>
            </trkpt>
            <trkpt lat="49.9035744" lon="9.5895504">
                <ele>151.0</ele>
                <time>2020-08-28T14:10:56.000Z</time>
                <name>Trackpoint 6264</name>
            </trkpt>
            <trkpt lat="49.9034816" lon="9.5895664">
                <ele>151.0</ele>
                <time>2020-08-28T14:10:58.000Z</time>
                <name>Trackpoint 6265</name>
            </trkpt>
            <trkpt lat="49.9033952" lon="9.5895952">
                <ele>152.0</ele>
                <time>2020-08-28T14:11:00.000Z</time>
                <name>Trackpoint 6266</name>
            </trkpt>
            <trkpt lat="49.9033152" lon="9.5896432">
                <ele>152.0</ele>
                <time>2020-08-28T14:11:02.000Z</time>
                <name>Trackpoint 6267</name>
            </trkpt>
            <trkpt lat="49.9032224" lon="9.5896616">
                <ele>152.0</ele>
                <time>2020-08-28T14:11:04.000Z</time>
                <name>Trackpoint 6268</name>
            </trkpt>
            <trkpt lat="49.9031264" lon="9.5896728">
                <ele>152.0</ele>
                <time>2020-08-28T14:11:06.000Z</time>
                <name>Trackpoint 6269</name>
            </trkpt>
            <trkpt lat="49.9030272" lon="9.5896864">
                <ele>152.0</ele>
                <time>2020-08-28T14:11:08.000Z</time>
                <name>Trackpoint 6270</name>
            </trkpt>
            <trkpt lat="49.9029088" lon="9.5897104">
                <ele>152.0</ele>
                <time>2020-08-28T14:11:10.000Z</time>
                <name>Trackpoint 6271</name>
            </trkpt>
            <trkpt lat="49.9028" lon="9.5897464">
                <ele>152.0</ele>
                <time>2020-08-28T14:11:12.000Z</time>
                <name>Trackpoint 6272</name>
            </trkpt>
            <trkpt lat="49.9026976" lon="9.58978">
                <ele>152.0</ele>
                <time>2020-08-28T14:11:14.000Z</time>
                <name>Trackpoint 6273</name>
            </trkpt>
            <trkpt lat="49.9025952" lon="9.5898368">
                <ele>153.0</ele>
                <time>2020-08-28T14:11:16.000Z</time>
                <name>Trackpoint 6274</name>
            </trkpt>
            <trkpt lat="49.90248" lon="9.5898216">
                <ele>153.0</ele>
                <time>2020-08-28T14:11:18.000Z</time>
                <name>Trackpoint 6275</name>
            </trkpt>
            <trkpt lat="49.902352" lon="9.589844">
                <ele>153.0</ele>
                <time>2020-08-28T14:11:21.000Z</time>
                <name>Trackpoint 6276</name>
            </trkpt>
            <trkpt lat="49.9022208" lon="9.5898616">
                <ele>153.0</ele>
                <time>2020-08-28T14:11:24.000Z</time>
                <name>Trackpoint 6277</name>
            </trkpt>
            <trkpt lat="49.9021184" lon="9.5898312">
                <ele>153.0</ele>
                <time>2020-08-28T14:11:26.000Z</time>
                <name>Trackpoint 6278</name>
            </trkpt>
            <trkpt lat="49.902" lon="9.58976">
                <ele>153.0</ele>
                <time>2020-08-28T14:11:28.000Z</time>
                <name>Trackpoint 6279</name>
            </trkpt>
            <trkpt lat="49.9018784" lon="9.5897064">
                <ele>153.0</ele>
                <time>2020-08-28T14:11:30.000Z</time>
                <name>Trackpoint 6280</name>
            </trkpt>
            <trkpt lat="49.9017824" lon="9.58968">
                <ele>153.0</ele>
                <time>2020-08-28T14:11:32.000Z</time>
                <name>Trackpoint 6281</name>
            </trkpt>
            <trkpt lat="49.9016672" lon="9.5896752">
                <ele>154.0</ele>
                <time>2020-08-28T14:11:35.000Z</time>
                <name>Trackpoint 6282</name>
            </trkpt>
            <trkpt lat="49.9015776" lon="9.5896416">
                <ele>152.0</ele>
                <time>2020-08-28T14:12:25.000Z</time>
                <name>Trackpoint 6283</name>
            </trkpt>
            <trkpt lat="49.9014816" lon="9.5896568">
                <ele>153.0</ele>
                <time>2020-08-28T14:12:30.000Z</time>
                <name>Trackpoint 6284</name>
            </trkpt>
            <trkpt lat="49.9013696" lon="9.589668">
                <ele>153.0</ele>
                <time>2020-08-28T14:12:33.000Z</time>
                <name>Trackpoint 6285</name>
            </trkpt>
            <trkpt lat="49.9012512" lon="9.5896768">
                <ele>153.0</ele>
                <time>2020-08-28T14:12:36.000Z</time>
                <name>Trackpoint 6286</name>
            </trkpt>
            <trkpt lat="49.9011296" lon="9.5896768">
                <ele>153.0</ele>
                <time>2020-08-28T14:12:39.000Z</time>
                <name>Trackpoint 6287</name>
            </trkpt>
            <trkpt lat="49.9010432" lon="9.5897328">
                <ele>153.0</ele>
                <time>2020-08-28T14:12:41.000Z</time>
                <name>Trackpoint 6288</name>
            </trkpt>
            <trkpt lat="49.9009568" lon="9.5897752">
                <ele>153.0</ele>
                <time>2020-08-28T14:12:43.000Z</time>
                <name>Trackpoint 6289</name>
            </trkpt>
            <trkpt lat="49.9008672" lon="9.5897936">
                <ele>153.0</ele>
                <time>2020-08-28T14:12:45.000Z</time>
                <name>Trackpoint 6290</name>
            </trkpt>
            <trkpt lat="49.9007712" lon="9.5898136">
                <ele>152.0</ele>
                <time>2020-08-28T14:12:47.000Z</time>
                <name>Trackpoint 6291</name>
            </trkpt>
            <trkpt lat="49.9006816" lon="9.5898352">
                <ele>153.0</ele>
                <time>2020-08-28T14:12:49.000Z</time>
                <name>Trackpoint 6292</name>
            </trkpt>
            <trkpt lat="49.900592" lon="9.5898552">
                <ele>153.0</ele>
                <time>2020-08-28T14:12:51.000Z</time>
                <name>Trackpoint 6293</name>
            </trkpt>
            <trkpt lat="49.9004864" lon="9.5898736">
                <ele>150.0</ele>
                <time>2020-08-28T14:12:53.000Z</time>
                <name>Trackpoint 6294</name>
            </trkpt>
            <trkpt lat="49.9003872" lon="9.5898984">
                <ele>150.0</ele>
                <time>2020-08-28T14:12:55.000Z</time>
                <name>Trackpoint 6295</name>
            </trkpt>
            <trkpt lat="49.9002912" lon="9.5899448">
                <ele>150.0</ele>
                <time>2020-08-28T14:12:57.000Z</time>
                <name>Trackpoint 6296</name>
            </trkpt>
            <trkpt lat="49.900192" lon="9.5899936">
                <ele>150.0</ele>
                <time>2020-08-28T14:12:59.000Z</time>
                <name>Trackpoint 6297</name>
            </trkpt>
            <trkpt lat="49.9000896" lon="9.5900384">
                <ele>150.0</ele>
                <time>2020-08-28T14:13:01.000Z</time>
                <name>Trackpoint 6298</name>
            </trkpt>
            <trkpt lat="49.899984" lon="9.5900936">
                <ele>149.0</ele>
                <time>2020-08-28T14:13:03.000Z</time>
                <name>Trackpoint 6299</name>
            </trkpt>
            <trkpt lat="49.899872" lon="9.5901384">
                <ele>148.0</ele>
                <time>2020-08-28T14:13:05.000Z</time>
                <name>Trackpoint 6300</name>
            </trkpt>
            <trkpt lat="49.8997696" lon="9.59018">
                <ele>148.0</ele>
                <time>2020-08-28T14:13:07.000Z</time>
                <name>Trackpoint 6301</name>
            </trkpt>
            <trkpt lat="49.8996608" lon="9.5902232">
                <ele>148.0</ele>
                <time>2020-08-28T14:13:09.000Z</time>
                <name>Trackpoint 6302</name>
            </trkpt>
            <trkpt lat="49.8995552" lon="9.5902568">
                <ele>148.0</ele>
                <time>2020-08-28T14:13:11.000Z</time>
                <name>Trackpoint 6303</name>
            </trkpt>
            <trkpt lat="49.899456" lon="9.5903056">
                <ele>147.0</ele>
                <time>2020-08-28T14:13:13.000Z</time>
                <name>Trackpoint 6304</name>
            </trkpt>
            <trkpt lat="49.8993536" lon="9.5903432">
                <ele>148.0</ele>
                <time>2020-08-28T14:13:15.000Z</time>
                <name>Trackpoint 6305</name>
            </trkpt>
            <trkpt lat="49.8992544" lon="9.590392">
                <ele>148.0</ele>
                <time>2020-08-28T14:13:17.000Z</time>
                <name>Trackpoint 6306</name>
            </trkpt>
            <trkpt lat="49.8991584" lon="9.5904368">
                <ele>148.0</ele>
                <time>2020-08-28T14:13:19.000Z</time>
                <name>Trackpoint 6307</name>
            </trkpt>
            <trkpt lat="49.8990592" lon="9.5904888">
                <ele>147.0</ele>
                <time>2020-08-28T14:13:21.000Z</time>
                <name>Trackpoint 6308</name>
            </trkpt>
            <trkpt lat="49.89896" lon="9.5905336">
                <ele>147.0</ele>
                <time>2020-08-28T14:13:23.000Z</time>
                <name>Trackpoint 6309</name>
            </trkpt>
            <trkpt lat="49.8988608" lon="9.5905888">
                <ele>147.0</ele>
                <time>2020-08-28T14:13:25.000Z</time>
                <name>Trackpoint 6310</name>
            </trkpt>
            <trkpt lat="49.8987648" lon="9.59064">
                <ele>147.0</ele>
                <time>2020-08-28T14:13:27.000Z</time>
                <name>Trackpoint 6311</name>
            </trkpt>
            <trkpt lat="49.8986656" lon="9.5906936">
                <ele>147.0</ele>
                <time>2020-08-28T14:13:29.000Z</time>
                <name>Trackpoint 6312</name>
            </trkpt>
            <trkpt lat="49.8985632" lon="9.5907424">
                <ele>147.0</ele>
                <time>2020-08-28T14:13:31.000Z</time>
                <name>Trackpoint 6313</name>
            </trkpt>
            <trkpt lat="49.8984608" lon="9.5907944">
                <ele>147.0</ele>
                <time>2020-08-28T14:13:33.000Z</time>
                <name>Trackpoint 6314</name>
            </trkpt>
            <trkpt lat="49.8983648" lon="9.590852">
                <ele>147.0</ele>
                <time>2020-08-28T14:13:35.000Z</time>
                <name>Trackpoint 6315</name>
            </trkpt>
            <trkpt lat="49.8982656" lon="9.590912">
                <ele>146.0</ele>
                <time>2020-08-28T14:13:37.000Z</time>
                <name>Trackpoint 6316</name>
            </trkpt>
            <trkpt lat="49.8981696" lon="9.5909728">
                <ele>146.0</ele>
                <time>2020-08-28T14:13:39.000Z</time>
                <name>Trackpoint 6317</name>
            </trkpt>
            <trkpt lat="49.8980736" lon="9.591028">
                <ele>146.0</ele>
                <time>2020-08-28T14:13:41.000Z</time>
                <name>Trackpoint 6318</name>
            </trkpt>
            <trkpt lat="49.8979616" lon="9.5910664">
                <ele>146.0</ele>
                <time>2020-08-28T14:13:43.000Z</time>
                <name>Trackpoint 6319</name>
            </trkpt>
            <trkpt lat="49.8978656" lon="9.5911264">
                <ele>146.0</ele>
                <time>2020-08-28T14:13:45.000Z</time>
                <name>Trackpoint 6320</name>
            </trkpt>
            <trkpt lat="49.8977664" lon="9.5911816">
                <ele>146.0</ele>
                <time>2020-08-28T14:13:47.000Z</time>
                <name>Trackpoint 6321</name>
            </trkpt>
            <trkpt lat="49.8976672" lon="9.5912288">
                <ele>147.0</ele>
                <time>2020-08-28T14:13:49.000Z</time>
                <name>Trackpoint 6322</name>
            </trkpt>
            <trkpt lat="49.897568" lon="9.59128">
                <ele>147.0</ele>
                <time>2020-08-28T14:13:51.000Z</time>
                <name>Trackpoint 6323</name>
            </trkpt>
            <trkpt lat="49.8974688" lon="9.59134">
                <ele>147.0</ele>
                <time>2020-08-28T14:13:53.000Z</time>
                <name>Trackpoint 6324</name>
            </trkpt>
            <trkpt lat="49.8973664" lon="9.5913936">
                <ele>147.0</ele>
                <time>2020-08-28T14:13:55.000Z</time>
                <name>Trackpoint 6325</name>
            </trkpt>
            <trkpt lat="49.8972704" lon="9.591452">
                <ele>146.0</ele>
                <time>2020-08-28T14:13:57.000Z</time>
                <name>Trackpoint 6326</name>
            </trkpt>
            <trkpt lat="49.8971712" lon="9.5915072">
                <ele>146.0</ele>
                <time>2020-08-28T14:13:59.000Z</time>
                <name>Trackpoint 6327</name>
            </trkpt>
            <trkpt lat="49.897072" lon="9.5915616">
                <ele>147.0</ele>
                <time>2020-08-28T14:14:01.000Z</time>
                <name>Trackpoint 6328</name>
            </trkpt>
            <trkpt lat="49.896976" lon="9.591612">
                <ele>147.0</ele>
                <time>2020-08-28T14:14:03.000Z</time>
                <name>Trackpoint 6329</name>
            </trkpt>
            <trkpt lat="49.8968864" lon="9.5916632">
                <ele>147.0</ele>
                <time>2020-08-28T14:14:05.000Z</time>
                <name>Trackpoint 6330</name>
            </trkpt>
            <trkpt lat="49.8968" lon="9.5917152">
                <ele>147.0</ele>
                <time>2020-08-28T14:14:07.000Z</time>
                <name>Trackpoint 6331</name>
            </trkpt>
            <trkpt lat="49.8967104" lon="9.5917584">
                <ele>147.0</ele>
                <time>2020-08-28T14:14:09.000Z</time>
                <name>Trackpoint 6332</name>
            </trkpt>
            <trkpt lat="49.8966176" lon="9.5917968">
                <ele>147.0</ele>
                <time>2020-08-28T14:14:11.000Z</time>
                <name>Trackpoint 6333</name>
            </trkpt>
            <trkpt lat="49.8965376" lon="9.5918416">
                <ele>147.0</ele>
                <time>2020-08-28T14:14:13.000Z</time>
                <name>Trackpoint 6334</name>
            </trkpt>
            <trkpt lat="49.8964224" lon="9.5919016">
                <ele>146.0</ele>
                <time>2020-08-28T14:14:16.000Z</time>
                <name>Trackpoint 6335</name>
            </trkpt>
            <trkpt lat="49.8963264" lon="9.5919536">
                <ele>147.0</ele>
                <time>2020-08-28T14:14:19.000Z</time>
                <name>Trackpoint 6336</name>
            </trkpt>
            <trkpt lat="49.89624" lon="9.592">
                <ele>147.0</ele>
                <time>2020-08-28T14:14:56.000Z</time>
                <name>Trackpoint 6337</name>
            </trkpt>
            <trkpt lat="49.89616" lon="9.592056">
                <ele>147.0</ele>
                <time>2020-08-28T14:15:00.000Z</time>
                <name>Trackpoint 6338</name>
            </trkpt>
            <trkpt lat="49.8960672" lon="9.5921136">
                <ele>147.0</ele>
                <time>2020-08-28T14:15:03.000Z</time>
                <name>Trackpoint 6339</name>
            </trkpt>
            <trkpt lat="49.8959616" lon="9.5921968">
                <ele>147.0</ele>
                <time>2020-08-28T14:15:06.000Z</time>
                <name>Trackpoint 6340</name>
            </trkpt>
            <trkpt lat="49.8958816" lon="9.5922536">
                <ele>147.0</ele>
                <time>2020-08-28T14:15:08.000Z</time>
                <name>Trackpoint 6341</name>
            </trkpt>
            <trkpt lat="49.8958016" lon="9.5923216">
                <ele>147.0</ele>
                <time>2020-08-28T14:15:10.000Z</time>
                <name>Trackpoint 6342</name>
            </trkpt>
            <trkpt lat="49.8957184" lon="9.592392">
                <ele>147.0</ele>
                <time>2020-08-28T14:15:12.000Z</time>
                <name>Trackpoint 6343</name>
            </trkpt>
            <trkpt lat="49.8956288" lon="9.59246">
                <ele>147.0</ele>
                <time>2020-08-28T14:15:14.000Z</time>
                <name>Trackpoint 6344</name>
            </trkpt>
            <trkpt lat="49.8955456" lon="9.592528">
                <ele>147.0</ele>
                <time>2020-08-28T14:15:16.000Z</time>
                <name>Trackpoint 6345</name>
            </trkpt>
            <trkpt lat="49.8954592" lon="9.5925952">
                <ele>147.0</ele>
                <time>2020-08-28T14:15:18.000Z</time>
                <name>Trackpoint 6346</name>
            </trkpt>
            <trkpt lat="49.8953664" lon="9.5926688">
                <ele>147.0</ele>
                <time>2020-08-28T14:15:20.000Z</time>
                <name>Trackpoint 6347</name>
            </trkpt>
            <trkpt lat="49.8952832" lon="9.5927512">
                <ele>146.0</ele>
                <time>2020-08-28T14:15:22.000Z</time>
                <name>Trackpoint 6348</name>
            </trkpt>
            <trkpt lat="49.8952" lon="9.59284">
                <ele>146.0</ele>
                <time>2020-08-28T14:15:24.000Z</time>
                <name>Trackpoint 6349</name>
            </trkpt>
            <trkpt lat="49.8951136" lon="9.5929216">
                <ele>146.0</ele>
                <time>2020-08-28T14:15:26.000Z</time>
                <name>Trackpoint 6350</name>
            </trkpt>
            <trkpt lat="49.8950336" lon="9.5929944">
                <ele>147.0</ele>
                <time>2020-08-28T14:15:28.000Z</time>
                <name>Trackpoint 6351</name>
            </trkpt>
            <trkpt lat="49.89496" lon="9.5930568">
                <ele>148.0</ele>
                <time>2020-08-28T14:15:30.000Z</time>
                <name>Trackpoint 6352</name>
            </trkpt>
            <trkpt lat="49.8948768" lon="9.5931184">
                <ele>149.0</ele>
                <time>2020-08-28T14:15:32.000Z</time>
                <name>Trackpoint 6353</name>
            </trkpt>
            <trkpt lat="49.8947968" lon="9.5931928">
                <ele>150.0</ele>
                <time>2020-08-28T14:15:34.000Z</time>
                <name>Trackpoint 6354</name>
            </trkpt>
            <trkpt lat="49.8947168" lon="9.5932664">
                <ele>152.0</ele>
                <time>2020-08-28T14:15:36.000Z</time>
                <name>Trackpoint 6355</name>
            </trkpt>
            <trkpt lat="49.8946432" lon="9.59334">
                <ele>152.0</ele>
                <time>2020-08-28T14:15:38.000Z</time>
                <name>Trackpoint 6356</name>
            </trkpt>
            <trkpt lat="49.8945536" lon="9.5934184">
                <ele>150.0</ele>
                <time>2020-08-28T14:15:40.000Z</time>
                <name>Trackpoint 6357</name>
            </trkpt>
            <trkpt lat="49.8944704" lon="9.5934936">
                <ele>149.0</ele>
                <time>2020-08-28T14:15:42.000Z</time>
                <name>Trackpoint 6358</name>
            </trkpt>
            <trkpt lat="49.8943936" lon="9.5935688">
                <ele>149.0</ele>
                <time>2020-08-28T14:15:44.000Z</time>
                <name>Trackpoint 6359</name>
            </trkpt>
            <trkpt lat="49.8943264" lon="9.5936472">
                <ele>149.0</ele>
                <time>2020-08-28T14:15:46.000Z</time>
                <name>Trackpoint 6360</name>
            </trkpt>
            <trkpt lat="49.894256" lon="9.593728">
                <ele>149.0</ele>
                <time>2020-08-28T14:15:48.000Z</time>
                <name>Trackpoint 6361</name>
            </trkpt>
            <trkpt lat="49.8941856" lon="9.5937968">
                <ele>150.0</ele>
                <time>2020-08-28T14:15:50.000Z</time>
                <name>Trackpoint 6362</name>
            </trkpt>
            <trkpt lat="49.8940992" lon="9.5938616">
                <ele>150.0</ele>
                <time>2020-08-28T14:15:52.000Z</time>
                <name>Trackpoint 6363</name>
            </trkpt>
            <trkpt lat="49.894016" lon="9.5939464">
                <ele>150.0</ele>
                <time>2020-08-28T14:15:54.000Z</time>
                <name>Trackpoint 6364</name>
            </trkpt>
            <trkpt lat="49.8939296" lon="9.5940152">
                <ele>150.0</ele>
                <time>2020-08-28T14:15:56.000Z</time>
                <name>Trackpoint 6365</name>
            </trkpt>
            <trkpt lat="49.8938496" lon="9.59408">
                <ele>150.0</ele>
                <time>2020-08-28T14:15:58.000Z</time>
                <name>Trackpoint 6366</name>
            </trkpt>
            <trkpt lat="49.893776" lon="9.5941432">
                <ele>150.0</ele>
                <time>2020-08-28T14:16:00.000Z</time>
                <name>Trackpoint 6367</name>
            </trkpt>
            <trkpt lat="49.8936768" lon="9.5942272">
                <ele>150.0</ele>
                <time>2020-08-28T14:16:03.000Z</time>
                <name>Trackpoint 6368</name>
            </trkpt>
            <trkpt lat="49.8935968" lon="9.5942872">
                <ele>151.0</ele>
                <time>2020-08-28T14:16:06.000Z</time>
                <name>Trackpoint 6369</name>
            </trkpt>
            <trkpt lat="49.8934912" lon="9.59432">
                <ele>151.0</ele>
                <time>2020-08-28T14:16:10.000Z</time>
                <name>Trackpoint 6370</name>
            </trkpt>
            <trkpt lat="49.8934112" lon="9.5942536">
                <ele>150.0</ele>
                <time>2020-08-28T14:16:14.000Z</time>
                <name>Trackpoint 6371</name>
            </trkpt>
            <trkpt lat="49.8933472" lon="9.5943472">
                <ele>151.0</ele>
                <time>2020-08-28T14:17:54.000Z</time>
                <name>Trackpoint 6372</name>
            </trkpt>
            <trkpt lat="49.8932544" lon="9.5942584">
                <ele>151.0</ele>
                <time>2020-08-28T14:17:59.000Z</time>
                <name>Trackpoint 6373</name>
            </trkpt>
            <trkpt lat="49.8932032" lon="9.594136">
                <ele>151.0</ele>
                <time>2020-08-28T14:18:01.000Z</time>
                <name>Trackpoint 6374</name>
            </trkpt>
            <trkpt lat="49.8931456" lon="9.5940248">
                <ele>150.0</ele>
                <time>2020-08-28T14:18:03.000Z</time>
                <name>Trackpoint 6375</name>
            </trkpt>
            <trkpt lat="49.8930816" lon="9.5939528">
                <ele>150.0</ele>
                <time>2020-08-28T14:18:05.000Z</time>
                <name>Trackpoint 6376</name>
            </trkpt>
            <trkpt lat="49.8929696" lon="9.5940168">
                <ele>149.0</ele>
                <time>2020-08-28T14:18:08.000Z</time>
                <name>Trackpoint 6377</name>
            </trkpt>
            <trkpt lat="49.8928896" lon="9.5941096">
                <ele>150.0</ele>
                <time>2020-08-28T14:18:10.000Z</time>
                <name>Trackpoint 6378</name>
            </trkpt>
            <trkpt lat="49.8928096" lon="9.5942">
                <ele>150.0</ele>
                <time>2020-08-28T14:18:12.000Z</time>
                <name>Trackpoint 6379</name>
            </trkpt>
            <trkpt lat="49.8927264" lon="9.5942832">
                <ele>150.0</ele>
                <time>2020-08-28T14:18:14.000Z</time>
                <name>Trackpoint 6380</name>
            </trkpt>
            <trkpt lat="49.8926464" lon="9.594368">
                <ele>150.0</ele>
                <time>2020-08-28T14:18:16.000Z</time>
                <name>Trackpoint 6381</name>
            </trkpt>
            <trkpt lat="49.892544" lon="9.594448">
                <ele>150.0</ele>
                <time>2020-08-28T14:18:18.000Z</time>
                <name>Trackpoint 6382</name>
            </trkpt>
            <trkpt lat="49.8924576" lon="9.5945328">
                <ele>150.0</ele>
                <time>2020-08-28T14:18:20.000Z</time>
                <name>Trackpoint 6383</name>
            </trkpt>
            <trkpt lat="49.892368" lon="9.5946184">
                <ele>150.0</ele>
                <time>2020-08-28T14:18:22.000Z</time>
                <name>Trackpoint 6384</name>
            </trkpt>
            <trkpt lat="49.892288" lon="9.5947104">
                <ele>150.0</ele>
                <time>2020-08-28T14:18:24.000Z</time>
                <name>Trackpoint 6385</name>
            </trkpt>
            <trkpt lat="49.8922016" lon="9.5947912">
                <ele>150.0</ele>
                <time>2020-08-28T14:18:26.000Z</time>
                <name>Trackpoint 6386</name>
            </trkpt>
            <trkpt lat="49.8921152" lon="9.5948752">
                <ele>150.0</ele>
                <time>2020-08-28T14:18:28.000Z</time>
                <name>Trackpoint 6387</name>
            </trkpt>
            <trkpt lat="49.892032" lon="9.5949552">
                <ele>150.0</ele>
                <time>2020-08-28T14:18:30.000Z</time>
                <name>Trackpoint 6388</name>
            </trkpt>
            <trkpt lat="49.8919456" lon="9.595028">
                <ele>150.0</ele>
                <time>2020-08-28T14:18:32.000Z</time>
                <name>Trackpoint 6389</name>
            </trkpt>
            <trkpt lat="49.8918464" lon="9.5950936">
                <ele>150.0</ele>
                <time>2020-08-28T14:18:34.000Z</time>
                <name>Trackpoint 6390</name>
            </trkpt>
            <trkpt lat="49.8917536" lon="9.5951704">
                <ele>149.0</ele>
                <time>2020-08-28T14:18:36.000Z</time>
                <name>Trackpoint 6391</name>
            </trkpt>
            <trkpt lat="49.8916704" lon="9.5952456">
                <ele>149.0</ele>
                <time>2020-08-28T14:18:38.000Z</time>
                <name>Trackpoint 6392</name>
            </trkpt>
            <trkpt lat="49.891584" lon="9.5953104">
                <ele>149.0</ele>
                <time>2020-08-28T14:18:40.000Z</time>
                <name>Trackpoint 6393</name>
            </trkpt>
            <trkpt lat="49.8915072" lon="9.5953648">
                <ele>149.0</ele>
                <time>2020-08-28T14:18:42.000Z</time>
                <name>Trackpoint 6394</name>
            </trkpt>
            <trkpt lat="49.8914208" lon="9.5954168">
                <ele>147.0</ele>
                <time>2020-08-28T14:19:11.000Z</time>
                <name>Trackpoint 6395</name>
            </trkpt>
            <trkpt lat="49.8913408" lon="9.595516">
                <ele>147.0</ele>
                <time>2020-08-28T14:19:16.000Z</time>
                <name>Trackpoint 6396</name>
            </trkpt>
            <trkpt lat="49.8912544" lon="9.5956152">
                <ele>147.0</ele>
                <time>2020-08-28T14:19:19.000Z</time>
                <name>Trackpoint 6397</name>
            </trkpt>
            <trkpt lat="49.8911808" lon="9.59568">
                <ele>147.0</ele>
                <time>2020-08-28T14:19:21.000Z</time>
                <name>Trackpoint 6398</name>
            </trkpt>
            <trkpt lat="49.8911008" lon="9.5957496">
                <ele>147.0</ele>
                <time>2020-08-28T14:19:23.000Z</time>
                <name>Trackpoint 6399</name>
            </trkpt>
            <trkpt lat="49.891024" lon="9.5958168">
                <ele>148.0</ele>
                <time>2020-08-28T14:19:25.000Z</time>
                <name>Trackpoint 6400</name>
            </trkpt>
            <trkpt lat="49.8909408" lon="9.5958784">
                <ele>149.0</ele>
                <time>2020-08-28T14:19:27.000Z</time>
                <name>Trackpoint 6401</name>
            </trkpt>
            <trkpt lat="49.8908608" lon="9.5959416">
                <ele>150.0</ele>
                <time>2020-08-28T14:19:29.000Z</time>
                <name>Trackpoint 6402</name>
            </trkpt>
            <trkpt lat="49.8907744" lon="9.5959856">
                <ele>150.0</ele>
                <time>2020-08-28T14:19:31.000Z</time>
                <name>Trackpoint 6403</name>
            </trkpt>
            <trkpt lat="49.8906752" lon="9.5960232">
                <ele>149.0</ele>
                <time>2020-08-28T14:19:33.000Z</time>
                <name>Trackpoint 6404</name>
            </trkpt>
            <trkpt lat="49.8905664" lon="9.5960752">
                <ele>149.0</ele>
                <time>2020-08-28T14:19:35.000Z</time>
                <name>Trackpoint 6405</name>
            </trkpt>
            <trkpt lat="49.8904576" lon="9.5961464">
                <ele>149.0</ele>
                <time>2020-08-28T14:19:37.000Z</time>
                <name>Trackpoint 6406</name>
            </trkpt>
            <trkpt lat="49.8903488" lon="9.5962312">
                <ele>148.0</ele>
                <time>2020-08-28T14:19:39.000Z</time>
                <name>Trackpoint 6407</name>
            </trkpt>
            <trkpt lat="49.8902464" lon="9.5963232">
                <ele>147.0</ele>
                <time>2020-08-28T14:19:41.000Z</time>
                <name>Trackpoint 6408</name>
            </trkpt>
            <trkpt lat="49.890144" lon="9.5964072">
                <ele>146.0</ele>
                <time>2020-08-28T14:19:43.000Z</time>
                <name>Trackpoint 6409</name>
            </trkpt>
            <trkpt lat="49.8900416" lon="9.59648">
                <ele>145.0</ele>
                <time>2020-08-28T14:19:45.000Z</time>
                <name>Trackpoint 6410</name>
            </trkpt>
            <trkpt lat="49.8899456" lon="9.5965592">
                <ele>144.0</ele>
                <time>2020-08-28T14:19:47.000Z</time>
                <name>Trackpoint 6411</name>
            </trkpt>
            <trkpt lat="49.889856" lon="9.5966264">
                <ele>144.0</ele>
                <time>2020-08-28T14:19:49.000Z</time>
                <name>Trackpoint 6412</name>
            </trkpt>
            <trkpt lat="49.8897568" lon="9.5966704">
                <ele>144.0</ele>
                <time>2020-08-28T14:19:51.000Z</time>
                <name>Trackpoint 6413</name>
            </trkpt>
            <trkpt lat="49.8896608" lon="9.596712">
                <ele>144.0</ele>
                <time>2020-08-28T14:19:53.000Z</time>
                <name>Trackpoint 6414</name>
            </trkpt>
            <trkpt lat="49.889568" lon="9.5967512">
                <ele>144.0</ele>
                <time>2020-08-28T14:19:55.000Z</time>
                <name>Trackpoint 6415</name>
            </trkpt>
            <trkpt lat="49.889472" lon="9.5967904">
                <ele>145.0</ele>
                <time>2020-08-28T14:19:57.000Z</time>
                <name>Trackpoint 6416</name>
            </trkpt>
            <trkpt lat="49.889376" lon="9.5968376">
                <ele>145.0</ele>
                <time>2020-08-28T14:19:59.000Z</time>
                <name>Trackpoint 6417</name>
            </trkpt>
            <trkpt lat="49.88928" lon="9.5969016">
                <ele>145.0</ele>
                <time>2020-08-28T14:20:01.000Z</time>
                <name>Trackpoint 6418</name>
            </trkpt>
            <trkpt lat="49.8891872" lon="9.5969688">
                <ele>145.0</ele>
                <time>2020-08-28T14:20:03.000Z</time>
                <name>Trackpoint 6419</name>
            </trkpt>
            <trkpt lat="49.889088" lon="9.5970352">
                <ele>144.0</ele>
                <time>2020-08-28T14:20:05.000Z</time>
                <name>Trackpoint 6420</name>
            </trkpt>
            <trkpt lat="49.888992" lon="9.5971096">
                <ele>145.0</ele>
                <time>2020-08-28T14:20:07.000Z</time>
                <name>Trackpoint 6421</name>
            </trkpt>
            <trkpt lat="49.888896" lon="9.597192">
                <ele>145.0</ele>
                <time>2020-08-28T14:20:09.000Z</time>
                <name>Trackpoint 6422</name>
            </trkpt>
            <trkpt lat="49.8888064" lon="9.5972856">
                <ele>145.0</ele>
                <time>2020-08-28T14:20:11.000Z</time>
                <name>Trackpoint 6423</name>
            </trkpt>
            <trkpt lat="49.88872" lon="9.59738">
                <ele>145.0</ele>
                <time>2020-08-28T14:20:13.000Z</time>
                <name>Trackpoint 6424</name>
            </trkpt>
            <trkpt lat="49.88864" lon="9.5974752">
                <ele>145.0</ele>
                <time>2020-08-28T14:20:15.000Z</time>
                <name>Trackpoint 6425</name>
            </trkpt>
            <trkpt lat="49.8885568" lon="9.5975704">
                <ele>145.0</ele>
                <time>2020-08-28T14:20:17.000Z</time>
                <name>Trackpoint 6426</name>
            </trkpt>
            <trkpt lat="49.8884768" lon="9.5976648">
                <ele>145.0</ele>
                <time>2020-08-28T14:20:19.000Z</time>
                <name>Trackpoint 6427</name>
            </trkpt>
            <trkpt lat="49.8883936" lon="9.5977584">
                <ele>145.0</ele>
                <time>2020-08-28T14:20:21.000Z</time>
                <name>Trackpoint 6428</name>
            </trkpt>
            <trkpt lat="49.8883072" lon="9.597852">
                <ele>144.0</ele>
                <time>2020-08-28T14:20:23.000Z</time>
                <name>Trackpoint 6429</name>
            </trkpt>
            <trkpt lat="49.8882208" lon="9.5979384">
                <ele>144.0</ele>
                <time>2020-08-28T14:20:25.000Z</time>
                <name>Trackpoint 6430</name>
            </trkpt>
            <trkpt lat="49.8881376" lon="9.5980216">
                <ele>144.0</ele>
                <time>2020-08-28T14:20:27.000Z</time>
                <name>Trackpoint 6431</name>
            </trkpt>
            <trkpt lat="49.8880512" lon="9.5981056">
                <ele>144.0</ele>
                <time>2020-08-28T14:20:29.000Z</time>
                <name>Trackpoint 6432</name>
            </trkpt>
            <trkpt lat="49.8879552" lon="9.5981776">
                <ele>144.0</ele>
                <time>2020-08-28T14:20:31.000Z</time>
                <name>Trackpoint 6433</name>
            </trkpt>
            <trkpt lat="49.8878592" lon="9.5982488">
                <ele>145.0</ele>
                <time>2020-08-28T14:20:33.000Z</time>
                <name>Trackpoint 6434</name>
            </trkpt>
            <trkpt lat="49.8877632" lon="9.5983088">
                <ele>145.0</ele>
                <time>2020-08-28T14:20:35.000Z</time>
                <name>Trackpoint 6435</name>
            </trkpt>
            <trkpt lat="49.8876672" lon="9.5983488">
                <ele>144.0</ele>
                <time>2020-08-28T14:20:37.000Z</time>
                <name>Trackpoint 6436</name>
            </trkpt>
            <trkpt lat="49.887568" lon="9.5983712">
                <ele>144.0</ele>
                <time>2020-08-28T14:20:39.000Z</time>
                <name>Trackpoint 6437</name>
            </trkpt>
            <trkpt lat="49.8874592" lon="9.5983912">
                <ele>144.0</ele>
                <time>2020-08-28T14:20:41.000Z</time>
                <name>Trackpoint 6438</name>
            </trkpt>
            <trkpt lat="49.8873408" lon="9.5984136">
                <ele>143.0</ele>
                <time>2020-08-28T14:20:43.000Z</time>
                <name>Trackpoint 6439</name>
            </trkpt>
            <trkpt lat="49.8872224" lon="9.598452">
                <ele>143.0</ele>
                <time>2020-08-28T14:20:45.000Z</time>
                <name>Trackpoint 6440</name>
            </trkpt>
            <trkpt lat="49.8871104" lon="9.5984936">
                <ele>143.0</ele>
                <time>2020-08-28T14:20:47.000Z</time>
                <name>Trackpoint 6441</name>
            </trkpt>
            <trkpt lat="49.886992" lon="9.5985144">
                <ele>143.0</ele>
                <time>2020-08-28T14:20:49.000Z</time>
                <name>Trackpoint 6442</name>
            </trkpt>
            <trkpt lat="49.8868896" lon="9.5985184">
                <ele>143.0</ele>
                <time>2020-08-28T14:20:51.000Z</time>
                <name>Trackpoint 6443</name>
            </trkpt>
            <trkpt lat="49.8867744" lon="9.598512">
                <ele>143.0</ele>
                <time>2020-08-28T14:20:53.000Z</time>
                <name>Trackpoint 6444</name>
            </trkpt>
            <trkpt lat="49.8866624" lon="9.5985072">
                <ele>143.0</ele>
                <time>2020-08-28T14:20:55.000Z</time>
                <name>Trackpoint 6445</name>
            </trkpt>
            <trkpt lat="49.8865632" lon="9.5985048">
                <ele>143.0</ele>
                <time>2020-08-28T14:20:57.000Z</time>
                <name>Trackpoint 6446</name>
            </trkpt>
            <trkpt lat="49.886464" lon="9.5985">
                <ele>143.0</ele>
                <time>2020-08-28T14:20:59.000Z</time>
                <name>Trackpoint 6447</name>
            </trkpt>
            <trkpt lat="49.886352" lon="9.5984848">
                <ele>143.0</ele>
                <time>2020-08-28T14:21:01.000Z</time>
                <name>Trackpoint 6448</name>
            </trkpt>
            <trkpt lat="49.8862432" lon="9.5984736">
                <ele>143.0</ele>
                <time>2020-08-28T14:21:03.000Z</time>
                <name>Trackpoint 6449</name>
            </trkpt>
            <trkpt lat="49.8861344" lon="9.5984752">
                <ele>143.0</ele>
                <time>2020-08-28T14:21:05.000Z</time>
                <name>Trackpoint 6450</name>
            </trkpt>
            <trkpt lat="49.8860288" lon="9.5984936">
                <ele>143.0</ele>
                <time>2020-08-28T14:21:07.000Z</time>
                <name>Trackpoint 6451</name>
            </trkpt>
            <trkpt lat="49.8859264" lon="9.5985232">
                <ele>144.0</ele>
                <time>2020-08-28T14:21:09.000Z</time>
                <name>Trackpoint 6452</name>
            </trkpt>
            <trkpt lat="49.8858208" lon="9.5985648">
                <ele>144.0</ele>
                <time>2020-08-28T14:21:11.000Z</time>
                <name>Trackpoint 6453</name>
            </trkpt>
            <trkpt lat="49.8857184" lon="9.5986144">
                <ele>143.0</ele>
                <time>2020-08-28T14:21:13.000Z</time>
                <name>Trackpoint 6454</name>
            </trkpt>
            <trkpt lat="49.8856224" lon="9.5986664">
                <ele>143.0</ele>
                <time>2020-08-28T14:21:15.000Z</time>
                <name>Trackpoint 6455</name>
            </trkpt>
            <trkpt lat="49.8855296" lon="9.598728">
                <ele>143.0</ele>
                <time>2020-08-28T14:21:17.000Z</time>
                <name>Trackpoint 6456</name>
            </trkpt>
            <trkpt lat="49.8854528" lon="9.5987752">
                <ele>143.0</ele>
                <time>2020-08-28T14:21:19.000Z</time>
                <name>Trackpoint 6457</name>
            </trkpt>
            <trkpt lat="49.885344" lon="9.598832">
                <ele>143.0</ele>
                <time>2020-08-28T14:21:22.000Z</time>
                <name>Trackpoint 6458</name>
            </trkpt>
            <trkpt lat="49.8852544" lon="9.5988776">
                <ele>143.0</ele>
                <time>2020-08-28T14:21:24.000Z</time>
                <name>Trackpoint 6459</name>
            </trkpt>
            <trkpt lat="49.8851648" lon="9.5989552">
                <ele>143.0</ele>
                <time>2020-08-28T14:21:26.000Z</time>
                <name>Trackpoint 6460</name>
            </trkpt>
            <trkpt lat="49.8851168" lon="9.5990912">
                <ele>143.0</ele>
                <time>2020-08-28T14:21:28.000Z</time>
                <name>Trackpoint 6461</name>
            </trkpt>
            <trkpt lat="49.885136" lon="9.5992448">
                <ele>144.0</ele>
                <time>2020-08-28T14:21:30.000Z</time>
                <name>Trackpoint 6462</name>
            </trkpt>
            <trkpt lat="49.8851648" lon="9.5993656">
                <ele>144.0</ele>
                <time>2020-08-28T14:21:32.000Z</time>
                <name>Trackpoint 6463</name>
            </trkpt>
            <trkpt lat="49.8851936" lon="9.5994656">
                <ele>145.0</ele>
                <time>2020-08-28T14:21:34.000Z</time>
                <name>Trackpoint 6464</name>
            </trkpt>
            <trkpt lat="49.8852192" lon="9.5995704">
                <ele>145.0</ele>
                <time>2020-08-28T14:21:36.000Z</time>
                <name>Trackpoint 6465</name>
            </trkpt>
            <trkpt lat="49.8852352" lon="9.5996848">
                <ele>145.0</ele>
                <time>2020-08-28T14:21:38.000Z</time>
                <name>Trackpoint 6466</name>
            </trkpt>
            <trkpt lat="49.885264" lon="9.5998">
                <ele>146.0</ele>
                <time>2020-08-28T14:21:40.000Z</time>
                <name>Trackpoint 6467</name>
            </trkpt>
            <trkpt lat="49.8852928" lon="9.5999184">
                <ele>146.0</ele>
                <time>2020-08-28T14:21:42.000Z</time>
                <name>Trackpoint 6468</name>
            </trkpt>
            <trkpt lat="49.8853184" lon="9.6000368">
                <ele>146.0</ele>
                <time>2020-08-28T14:21:44.000Z</time>
                <name>Trackpoint 6469</name>
            </trkpt>
            <trkpt lat="49.8853504" lon="9.6001528">
                <ele>146.0</ele>
                <time>2020-08-28T14:21:46.000Z</time>
                <name>Trackpoint 6470</name>
            </trkpt>
            <trkpt lat="49.8853728" lon="9.6002712">
                <ele>145.0</ele>
                <time>2020-08-28T14:21:48.000Z</time>
                <name>Trackpoint 6471</name>
            </trkpt>
            <trkpt lat="49.8853984" lon="9.6003864">
                <ele>146.0</ele>
                <time>2020-08-28T14:21:50.000Z</time>
                <name>Trackpoint 6472</name>
            </trkpt>
            <trkpt lat="49.8854304" lon="9.600496">
                <ele>146.0</ele>
                <time>2020-08-28T14:21:52.000Z</time>
                <name>Trackpoint 6473</name>
            </trkpt>
            <trkpt lat="49.8854432" lon="9.6006048">
                <ele>147.0</ele>
                <time>2020-08-28T14:21:54.000Z</time>
                <name>Trackpoint 6474</name>
            </trkpt>
            <trkpt lat="49.8854336" lon="9.6007072">
                <ele>146.0</ele>
                <time>2020-08-28T14:21:56.000Z</time>
                <name>Trackpoint 6475</name>
            </trkpt>
            <trkpt lat="49.885344" lon="9.6007904">
                <ele>146.0</ele>
                <time>2020-08-28T14:21:59.000Z</time>
                <name>Trackpoint 6476</name>
            </trkpt>
            <trkpt lat="49.8852288" lon="9.6008416">
                <ele>146.0</ele>
                <time>2020-08-28T14:22:02.000Z</time>
                <name>Trackpoint 6477</name>
            </trkpt>
            <trkpt lat="49.8851392" lon="9.6008616">
                <ele>146.0</ele>
                <time>2020-08-28T14:22:04.000Z</time>
                <name>Trackpoint 6478</name>
            </trkpt>
            <trkpt lat="49.8850048" lon="9.6009016">
                <ele>146.0</ele>
                <time>2020-08-28T14:22:07.000Z</time>
                <name>Trackpoint 6479</name>
            </trkpt>
            <trkpt lat="49.8849184" lon="9.600928">
                <ele>145.0</ele>
                <time>2020-08-28T14:22:09.000Z</time>
                <name>Trackpoint 6480</name>
            </trkpt>
            <trkpt lat="49.8848256" lon="9.6009664">
                <ele>145.0</ele>
                <time>2020-08-28T14:22:11.000Z</time>
                <name>Trackpoint 6481</name>
            </trkpt>
            <trkpt lat="49.884736" lon="9.6010088">
                <ele>145.0</ele>
                <time>2020-08-28T14:22:13.000Z</time>
                <name>Trackpoint 6482</name>
            </trkpt>
            <trkpt lat="49.88464" lon="9.6010448">
                <ele>145.0</ele>
                <time>2020-08-28T14:22:15.000Z</time>
                <name>Trackpoint 6483</name>
            </trkpt>
            <trkpt lat="49.8845472" lon="9.6011016">
                <ele>145.0</ele>
                <time>2020-08-28T14:22:17.000Z</time>
                <name>Trackpoint 6484</name>
            </trkpt>
            <trkpt lat="49.8844576" lon="9.601156">
                <ele>145.0</ele>
                <time>2020-08-28T14:22:19.000Z</time>
                <name>Trackpoint 6485</name>
            </trkpt>
            <trkpt lat="49.884368" lon="9.6012088">
                <ele>145.0</ele>
                <time>2020-08-28T14:22:21.000Z</time>
                <name>Trackpoint 6486</name>
            </trkpt>
            <trkpt lat="49.8842784" lon="9.601256">
                <ele>145.0</ele>
                <time>2020-08-28T14:22:23.000Z</time>
                <name>Trackpoint 6487</name>
            </trkpt>
            <trkpt lat="49.8841856" lon="9.6013">
                <ele>145.0</ele>
                <time>2020-08-28T14:22:25.000Z</time>
                <name>Trackpoint 6488</name>
            </trkpt>
            <trkpt lat="49.8840928" lon="9.601332">
                <ele>145.0</ele>
                <time>2020-08-28T14:22:27.000Z</time>
                <name>Trackpoint 6489</name>
            </trkpt>
            <trkpt lat="49.8840064" lon="9.6013736">
                <ele>145.0</ele>
                <time>2020-08-28T14:22:29.000Z</time>
                <name>Trackpoint 6490</name>
            </trkpt>
            <trkpt lat="49.88392" lon="9.6014272">
                <ele>146.0</ele>
                <time>2020-08-28T14:22:31.000Z</time>
                <name>Trackpoint 6491</name>
            </trkpt>
            <trkpt lat="49.88384" lon="9.6014784">
                <ele>146.0</ele>
                <time>2020-08-28T14:22:33.000Z</time>
                <name>Trackpoint 6492</name>
            </trkpt>
            <trkpt lat="49.88376" lon="9.6015352">
                <ele>146.0</ele>
                <time>2020-08-28T14:22:35.000Z</time>
                <name>Trackpoint 6493</name>
            </trkpt>
            <trkpt lat="49.88368" lon="9.6015928">
                <ele>146.0</ele>
                <time>2020-08-28T14:22:37.000Z</time>
                <name>Trackpoint 6494</name>
            </trkpt>
            <trkpt lat="49.8835872" lon="9.6016632">
                <ele>146.0</ele>
                <time>2020-08-28T14:22:39.000Z</time>
                <name>Trackpoint 6495</name>
            </trkpt>
            <trkpt lat="49.8834976" lon="9.601744">
                <ele>146.0</ele>
                <time>2020-08-28T14:22:41.000Z</time>
                <name>Trackpoint 6496</name>
            </trkpt>
            <trkpt lat="49.883408" lon="9.6018312">
                <ele>146.0</ele>
                <time>2020-08-28T14:22:43.000Z</time>
                <name>Trackpoint 6497</name>
            </trkpt>
            <trkpt lat="49.8833152" lon="9.6019112">
                <ele>147.0</ele>
                <time>2020-08-28T14:22:45.000Z</time>
                <name>Trackpoint 6498</name>
            </trkpt>
            <trkpt lat="49.8832192" lon="9.6019832">
                <ele>147.0</ele>
                <time>2020-08-28T14:22:47.000Z</time>
                <name>Trackpoint 6499</name>
            </trkpt>
            <trkpt lat="49.8831264" lon="9.6020448">
                <ele>146.0</ele>
                <time>2020-08-28T14:22:49.000Z</time>
                <name>Trackpoint 6500</name>
            </trkpt>
            <trkpt lat="49.8830304" lon="9.6021072">
                <ele>146.0</ele>
                <time>2020-08-28T14:22:51.000Z</time>
                <name>Trackpoint 6501</name>
            </trkpt>
            <trkpt lat="49.8829312" lon="9.6021696">
                <ele>146.0</ele>
                <time>2020-08-28T14:22:53.000Z</time>
                <name>Trackpoint 6502</name>
            </trkpt>
            <trkpt lat="49.882832" lon="9.602232">
                <ele>146.0</ele>
                <time>2020-08-28T14:22:55.000Z</time>
                <name>Trackpoint 6503</name>
            </trkpt>
            <trkpt lat="49.8827328" lon="9.6022968">
                <ele>146.0</ele>
                <time>2020-08-28T14:22:57.000Z</time>
                <name>Trackpoint 6504</name>
            </trkpt>
            <trkpt lat="49.8826336" lon="9.6023616">
                <ele>146.0</ele>
                <time>2020-08-28T14:22:59.000Z</time>
                <name>Trackpoint 6505</name>
            </trkpt>
            <trkpt lat="49.8825312" lon="9.6024264">
                <ele>147.0</ele>
                <time>2020-08-28T14:23:01.000Z</time>
                <name>Trackpoint 6506</name>
            </trkpt>
            <trkpt lat="49.8824288" lon="9.6024952">
                <ele>146.0</ele>
                <time>2020-08-28T14:23:03.000Z</time>
                <name>Trackpoint 6507</name>
            </trkpt>
            <trkpt lat="49.8823232" lon="9.60256">
                <ele>146.0</ele>
                <time>2020-08-28T14:23:05.000Z</time>
                <name>Trackpoint 6508</name>
            </trkpt>
            <trkpt lat="49.8822176" lon="9.6026272">
                <ele>146.0</ele>
                <time>2020-08-28T14:23:07.000Z</time>
                <name>Trackpoint 6509</name>
            </trkpt>
            <trkpt lat="49.8821152" lon="9.6026896">
                <ele>146.0</ele>
                <time>2020-08-28T14:23:09.000Z</time>
                <name>Trackpoint 6510</name>
            </trkpt>
            <trkpt lat="49.8820128" lon="9.6027616">
                <ele>147.0</ele>
                <time>2020-08-28T14:23:11.000Z</time>
                <name>Trackpoint 6511</name>
            </trkpt>
            <trkpt lat="49.8819072" lon="9.6028296">
                <ele>147.0</ele>
                <time>2020-08-28T14:23:13.000Z</time>
                <name>Trackpoint 6512</name>
            </trkpt>
            <trkpt lat="49.881808" lon="9.6029056">
                <ele>147.0</ele>
                <time>2020-08-28T14:23:15.000Z</time>
                <name>Trackpoint 6513</name>
            </trkpt>
            <trkpt lat="49.8817024" lon="9.602972">
                <ele>147.0</ele>
                <time>2020-08-28T14:23:17.000Z</time>
                <name>Trackpoint 6514</name>
            </trkpt>
            <trkpt lat="49.8815968" lon="9.6030352">
                <ele>147.0</ele>
                <time>2020-08-28T14:23:19.000Z</time>
                <name>Trackpoint 6515</name>
            </trkpt>
            <trkpt lat="49.8814848" lon="9.6031088">
                <ele>145.0</ele>
                <time>2020-08-28T14:23:21.000Z</time>
                <name>Trackpoint 6516</name>
            </trkpt>
            <trkpt lat="49.8813792" lon="9.6031784">
                <ele>145.0</ele>
                <time>2020-08-28T14:23:23.000Z</time>
                <name>Trackpoint 6517</name>
            </trkpt>
            <trkpt lat="49.8812736" lon="9.6032496">
                <ele>144.0</ele>
                <time>2020-08-28T14:23:25.000Z</time>
                <name>Trackpoint 6518</name>
            </trkpt>
            <trkpt lat="49.8811712" lon="9.6033112">
                <ele>144.0</ele>
                <time>2020-08-28T14:23:27.000Z</time>
                <name>Trackpoint 6519</name>
            </trkpt>
            <trkpt lat="49.8810688" lon="9.6033752">
                <ele>144.0</ele>
                <time>2020-08-28T14:23:29.000Z</time>
                <name>Trackpoint 6520</name>
            </trkpt>
            <trkpt lat="49.8809664" lon="9.6034344">
                <ele>143.0</ele>
                <time>2020-08-28T14:23:31.000Z</time>
                <name>Trackpoint 6521</name>
            </trkpt>
            <trkpt lat="49.880864" lon="9.6034984">
                <ele>144.0</ele>
                <time>2020-08-28T14:23:33.000Z</time>
                <name>Trackpoint 6522</name>
            </trkpt>
            <trkpt lat="49.8807616" lon="9.6035608">
                <ele>144.0</ele>
                <time>2020-08-28T14:23:35.000Z</time>
                <name>Trackpoint 6523</name>
            </trkpt>
            <trkpt lat="49.880656" lon="9.6036232">
                <ele>144.0</ele>
                <time>2020-08-28T14:23:37.000Z</time>
                <name>Trackpoint 6524</name>
            </trkpt>
            <trkpt lat="49.8805536" lon="9.6036864">
                <ele>144.0</ele>
                <time>2020-08-28T14:23:39.000Z</time>
                <name>Trackpoint 6525</name>
            </trkpt>
            <trkpt lat="49.8804512" lon="9.6037416">
                <ele>144.0</ele>
                <time>2020-08-28T14:23:41.000Z</time>
                <name>Trackpoint 6526</name>
            </trkpt>
            <trkpt lat="49.8803488" lon="9.6038">
                <ele>144.0</ele>
                <time>2020-08-28T14:23:43.000Z</time>
                <name>Trackpoint 6527</name>
            </trkpt>
            <trkpt lat="49.8802464" lon="9.60386">
                <ele>145.0</ele>
                <time>2020-08-28T14:23:45.000Z</time>
                <name>Trackpoint 6528</name>
            </trkpt>
            <trkpt lat="49.8801376" lon="9.6039216">
                <ele>145.0</ele>
                <time>2020-08-28T14:23:47.000Z</time>
                <name>Trackpoint 6529</name>
            </trkpt>
            <trkpt lat="49.880032" lon="9.6039832">
                <ele>144.0</ele>
                <time>2020-08-28T14:23:49.000Z</time>
                <name>Trackpoint 6530</name>
            </trkpt>
            <trkpt lat="49.8799232" lon="9.604036">
                <ele>144.0</ele>
                <time>2020-08-28T14:23:51.000Z</time>
                <name>Trackpoint 6531</name>
            </trkpt>
            <trkpt lat="49.8798208" lon="9.604092">
                <ele>144.0</ele>
                <time>2020-08-28T14:23:53.000Z</time>
                <name>Trackpoint 6532</name>
            </trkpt>
            <trkpt lat="49.8797184" lon="9.604148">
                <ele>144.0</ele>
                <time>2020-08-28T14:23:55.000Z</time>
                <name>Trackpoint 6533</name>
            </trkpt>
            <trkpt lat="49.8796192" lon="9.6042048">
                <ele>144.0</ele>
                <time>2020-08-28T14:23:57.000Z</time>
                <name>Trackpoint 6534</name>
            </trkpt>
            <trkpt lat="49.8795232" lon="9.6042536">
                <ele>145.0</ele>
                <time>2020-08-28T14:23:59.000Z</time>
                <name>Trackpoint 6535</name>
            </trkpt>
            <trkpt lat="49.8794336" lon="9.6043064">
                <ele>144.0</ele>
                <time>2020-08-28T14:24:01.000Z</time>
                <name>Trackpoint 6536</name>
            </trkpt>
            <trkpt lat="49.8793312" lon="9.6043552">
                <ele>144.0</ele>
                <time>2020-08-28T14:24:03.000Z</time>
                <name>Trackpoint 6537</name>
            </trkpt>
            <trkpt lat="49.8792256" lon="9.6044168">
                <ele>144.0</ele>
                <time>2020-08-28T14:24:05.000Z</time>
                <name>Trackpoint 6538</name>
            </trkpt>
            <trkpt lat="49.8791168" lon="9.6044712">
                <ele>143.0</ele>
                <time>2020-08-28T14:24:07.000Z</time>
                <name>Trackpoint 6539</name>
            </trkpt>
            <trkpt lat="49.879008" lon="9.6045312">
                <ele>143.0</ele>
                <time>2020-08-28T14:24:09.000Z</time>
                <name>Trackpoint 6540</name>
            </trkpt>
            <trkpt lat="49.8788992" lon="9.6045952">
                <ele>143.0</ele>
                <time>2020-08-28T14:24:11.000Z</time>
                <name>Trackpoint 6541</name>
            </trkpt>
            <trkpt lat="49.8787904" lon="9.6046488">
                <ele>144.0</ele>
                <time>2020-08-28T14:24:13.000Z</time>
                <name>Trackpoint 6542</name>
            </trkpt>
            <trkpt lat="49.8786816" lon="9.6046984">
                <ele>143.0</ele>
                <time>2020-08-28T14:24:15.000Z</time>
                <name>Trackpoint 6543</name>
            </trkpt>
            <trkpt lat="49.8785728" lon="9.604756">
                <ele>144.0</ele>
                <time>2020-08-28T14:24:17.000Z</time>
                <name>Trackpoint 6544</name>
            </trkpt>
            <trkpt lat="49.8784672" lon="9.6048168">
                <ele>144.0</ele>
                <time>2020-08-28T14:24:19.000Z</time>
                <name>Trackpoint 6545</name>
            </trkpt>
            <trkpt lat="49.8783616" lon="9.6048672">
                <ele>144.0</ele>
                <time>2020-08-28T14:24:21.000Z</time>
                <name>Trackpoint 6546</name>
            </trkpt>
            <trkpt lat="49.8782528" lon="9.6049248">
                <ele>144.0</ele>
                <time>2020-08-28T14:24:23.000Z</time>
                <name>Trackpoint 6547</name>
            </trkpt>
            <trkpt lat="49.8781504" lon="9.6049832">
                <ele>144.0</ele>
                <time>2020-08-28T14:24:25.000Z</time>
                <name>Trackpoint 6548</name>
            </trkpt>
            <trkpt lat="49.8780448" lon="9.6050352">
                <ele>144.0</ele>
                <time>2020-08-28T14:24:27.000Z</time>
                <name>Trackpoint 6549</name>
            </trkpt>
            <trkpt lat="49.877936" lon="9.605092">
                <ele>144.0</ele>
                <time>2020-08-28T14:24:29.000Z</time>
                <name>Trackpoint 6550</name>
            </trkpt>
            <trkpt lat="49.8778304" lon="9.6051456">
                <ele>145.0</ele>
                <time>2020-08-28T14:24:31.000Z</time>
                <name>Trackpoint 6551</name>
            </trkpt>
            <trkpt lat="49.8777248" lon="9.605204">
                <ele>145.0</ele>
                <time>2020-08-28T14:24:33.000Z</time>
                <name>Trackpoint 6552</name>
            </trkpt>
            <trkpt lat="49.877616" lon="9.6052616">
                <ele>145.0</ele>
                <time>2020-08-28T14:24:35.000Z</time>
                <name>Trackpoint 6553</name>
            </trkpt>
            <trkpt lat="49.8775136" lon="9.60532">
                <ele>145.0</ele>
                <time>2020-08-28T14:24:37.000Z</time>
                <name>Trackpoint 6554</name>
            </trkpt>
            <trkpt lat="49.8774208" lon="9.6053736">
                <ele>145.0</ele>
                <time>2020-08-28T14:24:39.000Z</time>
                <name>Trackpoint 6555</name>
            </trkpt>
            <trkpt lat="49.8773376" lon="9.6054136">
                <ele>146.0</ele>
                <time>2020-08-28T14:24:41.000Z</time>
                <name>Trackpoint 6556</name>
            </trkpt>
            <trkpt lat="49.8772576" lon="9.605456">
                <ele>146.0</ele>
                <time>2020-08-28T14:24:43.000Z</time>
                <name>Trackpoint 6557</name>
            </trkpt>
            <trkpt lat="49.8771424" lon="9.6055168">
                <ele>146.0</ele>
                <time>2020-08-28T14:24:46.000Z</time>
                <name>Trackpoint 6558</name>
            </trkpt>
            <trkpt lat="49.8770592" lon="9.6055568">
                <ele>146.0</ele>
                <time>2020-08-28T14:24:48.000Z</time>
                <name>Trackpoint 6559</name>
            </trkpt>
            <trkpt lat="49.8769728" lon="9.605592">
                <ele>146.0</ele>
                <time>2020-08-28T14:24:50.000Z</time>
                <name>Trackpoint 6560</name>
            </trkpt>
            <trkpt lat="49.8768768" lon="9.6056344">
                <ele>145.0</ele>
                <time>2020-08-28T14:24:52.000Z</time>
                <name>Trackpoint 6561</name>
            </trkpt>
            <trkpt lat="49.876784" lon="9.6056768">
                <ele>145.0</ele>
                <time>2020-08-28T14:24:54.000Z</time>
                <name>Trackpoint 6562</name>
            </trkpt>
            <trkpt lat="49.8766912" lon="9.6057216">
                <ele>145.0</ele>
                <time>2020-08-28T14:24:56.000Z</time>
                <name>Trackpoint 6563</name>
            </trkpt>
            <trkpt lat="49.8766048" lon="9.6057584">
                <ele>145.0</ele>
                <time>2020-08-28T14:24:58.000Z</time>
                <name>Trackpoint 6564</name>
            </trkpt>
            <trkpt lat="49.87648" lon="9.605808">
                <ele>145.0</ele>
                <time>2020-08-28T14:25:01.000Z</time>
                <name>Trackpoint 6565</name>
            </trkpt>
            <trkpt lat="49.8763552" lon="9.605868">
                <ele>145.0</ele>
                <time>2020-08-28T14:25:04.000Z</time>
                <name>Trackpoint 6566</name>
            </trkpt>
            <trkpt lat="49.8762336" lon="9.6059112">
                <ele>145.0</ele>
                <time>2020-08-28T14:25:07.000Z</time>
                <name>Trackpoint 6567</name>
            </trkpt>
            <trkpt lat="49.876144" lon="9.60594">
                <ele>145.0</ele>
                <time>2020-08-28T14:25:09.000Z</time>
                <name>Trackpoint 6568</name>
            </trkpt>
            <trkpt lat="49.8760576" lon="9.6059768">
                <ele>145.0</ele>
                <time>2020-08-28T14:25:11.000Z</time>
                <name>Trackpoint 6569</name>
            </trkpt>
            <trkpt lat="49.8759648" lon="9.6060104">
                <ele>146.0</ele>
                <time>2020-08-28T14:25:13.000Z</time>
                <name>Trackpoint 6570</name>
            </trkpt>
            <trkpt lat="49.875872" lon="9.6060536">
                <ele>145.0</ele>
                <time>2020-08-28T14:25:15.000Z</time>
                <name>Trackpoint 6571</name>
            </trkpt>
            <trkpt lat="49.8757792" lon="9.6060848">
                <ele>146.0</ele>
                <time>2020-08-28T14:25:17.000Z</time>
                <name>Trackpoint 6572</name>
            </trkpt>
            <trkpt lat="49.87568" lon="9.6061088">
                <ele>146.0</ele>
                <time>2020-08-28T14:25:19.000Z</time>
                <name>Trackpoint 6573</name>
            </trkpt>
            <trkpt lat="49.875584" lon="9.6061424">
                <ele>146.0</ele>
                <time>2020-08-28T14:25:21.000Z</time>
                <name>Trackpoint 6574</name>
            </trkpt>
            <trkpt lat="49.875488" lon="9.606176">
                <ele>146.0</ele>
                <time>2020-08-28T14:25:23.000Z</time>
                <name>Trackpoint 6575</name>
            </trkpt>
            <trkpt lat="49.8753952" lon="9.6062136">
                <ele>146.0</ele>
                <time>2020-08-28T14:25:25.000Z</time>
                <name>Trackpoint 6576</name>
            </trkpt>
            <trkpt lat="49.8753024" lon="9.6062536">
                <ele>146.0</ele>
                <time>2020-08-28T14:25:27.000Z</time>
                <name>Trackpoint 6577</name>
            </trkpt>
            <trkpt lat="49.8752032" lon="9.6062784">
                <ele>146.0</ele>
                <time>2020-08-28T14:25:29.000Z</time>
                <name>Trackpoint 6578</name>
            </trkpt>
            <trkpt lat="49.8751072" lon="9.606308">
                <ele>145.0</ele>
                <time>2020-08-28T14:25:31.000Z</time>
                <name>Trackpoint 6579</name>
            </trkpt>
            <trkpt lat="49.8750176" lon="9.6063432">
                <ele>145.0</ele>
                <time>2020-08-28T14:25:33.000Z</time>
                <name>Trackpoint 6580</name>
            </trkpt>
            <trkpt lat="49.8748864" lon="9.6063784">
                <ele>145.0</ele>
                <time>2020-08-28T14:25:36.000Z</time>
                <name>Trackpoint 6581</name>
            </trkpt>
            <trkpt lat="49.8747936" lon="9.6064064">
                <ele>145.0</ele>
                <time>2020-08-28T14:25:38.000Z</time>
                <name>Trackpoint 6582</name>
            </trkpt>
            <trkpt lat="49.8746976" lon="9.6064384">
                <ele>145.0</ele>
                <time>2020-08-28T14:25:40.000Z</time>
                <name>Trackpoint 6583</name>
            </trkpt>
            <trkpt lat="49.8746112" lon="9.6064704">
                <ele>145.0</ele>
                <time>2020-08-28T14:25:42.000Z</time>
                <name>Trackpoint 6584</name>
            </trkpt>
            <trkpt lat="49.8745184" lon="9.6064984">
                <ele>145.0</ele>
                <time>2020-08-28T14:25:44.000Z</time>
                <name>Trackpoint 6585</name>
            </trkpt>
            <trkpt lat="49.874432" lon="9.6065304">
                <ele>145.0</ele>
                <time>2020-08-28T14:25:46.000Z</time>
                <name>Trackpoint 6586</name>
            </trkpt>
            <trkpt lat="49.8743392" lon="9.6065632">
                <ele>145.0</ele>
                <time>2020-08-28T14:25:48.000Z</time>
                <name>Trackpoint 6587</name>
            </trkpt>
            <trkpt lat="49.8742496" lon="9.6065912">
                <ele>146.0</ele>
                <time>2020-08-28T14:25:50.000Z</time>
                <name>Trackpoint 6588</name>
            </trkpt>
            <trkpt lat="49.8741632" lon="9.6066248">
                <ele>146.0</ele>
                <time>2020-08-28T14:25:52.000Z</time>
                <name>Trackpoint 6589</name>
            </trkpt>
            <trkpt lat="49.8740768" lon="9.6066568">
                <ele>146.0</ele>
                <time>2020-08-28T14:25:54.000Z</time>
                <name>Trackpoint 6590</name>
            </trkpt>
            <trkpt lat="49.8739904" lon="9.6066904">
                <ele>147.0</ele>
                <time>2020-08-28T14:25:56.000Z</time>
                <name>Trackpoint 6591</name>
            </trkpt>
            <trkpt lat="49.873904" lon="9.6067184">
                <ele>147.0</ele>
                <time>2020-08-28T14:25:58.000Z</time>
                <name>Trackpoint 6592</name>
            </trkpt>
            <trkpt lat="49.8738176" lon="9.6067496">
                <ele>146.0</ele>
                <time>2020-08-28T14:26:00.000Z</time>
                <name>Trackpoint 6593</name>
            </trkpt>
            <trkpt lat="49.8737312" lon="9.6067896">
                <ele>146.0</ele>
                <time>2020-08-28T14:26:02.000Z</time>
                <name>Trackpoint 6594</name>
            </trkpt>
            <trkpt lat="49.873648" lon="9.6068264">
                <ele>147.0</ele>
                <time>2020-08-28T14:26:04.000Z</time>
                <name>Trackpoint 6595</name>
            </trkpt>
            <trkpt lat="49.873536" lon="9.6068832">
                <ele>147.0</ele>
                <time>2020-08-28T14:26:07.000Z</time>
                <name>Trackpoint 6596</name>
            </trkpt>
            <trkpt lat="49.873456" lon="9.6069296">
                <ele>148.0</ele>
                <time>2020-08-28T14:26:09.000Z</time>
                <name>Trackpoint 6597</name>
            </trkpt>
            <trkpt lat="49.873344" lon="9.6070032">
                <ele>149.0</ele>
                <time>2020-08-28T14:26:12.000Z</time>
                <name>Trackpoint 6598</name>
            </trkpt>
            <trkpt lat="49.8732416" lon="9.6070672">
                <ele>149.0</ele>
                <time>2020-08-28T14:26:15.000Z</time>
                <name>Trackpoint 6599</name>
            </trkpt>
            <trkpt lat="49.8731456" lon="9.607108">
                <ele>149.0</ele>
                <time>2020-08-28T14:26:18.000Z</time>
                <name>Trackpoint 6600</name>
            </trkpt>
            <trkpt lat="49.8730368" lon="9.6071528">
                <ele>149.0</ele>
                <time>2020-08-28T14:26:22.000Z</time>
                <name>Trackpoint 6601</name>
            </trkpt>
            <trkpt lat="49.872944" lon="9.6071728">
                <ele>149.0</ele>
                <time>2020-08-28T14:27:04.000Z</time>
                <name>Trackpoint 6602</name>
            </trkpt>
            <trkpt lat="49.872848" lon="9.607188">
                <ele>149.0</ele>
                <time>2020-08-28T14:27:08.000Z</time>
                <name>Trackpoint 6603</name>
            </trkpt>
            <trkpt lat="49.8727392" lon="9.6072">
                <ele>148.0</ele>
                <time>2020-08-28T14:27:11.000Z</time>
                <name>Trackpoint 6604</name>
            </trkpt>
            <trkpt lat="49.8726016" lon="9.6072064">
                <ele>148.0</ele>
                <time>2020-08-28T14:27:14.000Z</time>
                <name>Trackpoint 6605</name>
            </trkpt>
            <trkpt lat="49.8725024" lon="9.607208">
                <ele>147.0</ele>
                <time>2020-08-28T14:27:16.000Z</time>
                <name>Trackpoint 6606</name>
            </trkpt>
            <trkpt lat="49.8723968" lon="9.6072152">
                <ele>147.0</ele>
                <time>2020-08-28T14:27:18.000Z</time>
                <name>Trackpoint 6607</name>
            </trkpt>
            <trkpt lat="49.8722944" lon="9.6072216">
                <ele>146.0</ele>
                <time>2020-08-28T14:27:20.000Z</time>
                <name>Trackpoint 6608</name>
            </trkpt>
            <trkpt lat="49.8721888" lon="9.6072216">
                <ele>145.0</ele>
                <time>2020-08-28T14:27:22.000Z</time>
                <name>Trackpoint 6609</name>
            </trkpt>
            <trkpt lat="49.8720832" lon="9.6072216">
                <ele>145.0</ele>
                <time>2020-08-28T14:27:24.000Z</time>
                <name>Trackpoint 6610</name>
            </trkpt>
            <trkpt lat="49.8719744" lon="9.6072104">
                <ele>143.0</ele>
                <time>2020-08-28T14:27:26.000Z</time>
                <name>Trackpoint 6611</name>
            </trkpt>
            <trkpt lat="49.8718688" lon="9.607208">
                <ele>143.0</ele>
                <time>2020-08-28T14:27:28.000Z</time>
                <name>Trackpoint 6612</name>
            </trkpt>
            <trkpt lat="49.87176" lon="9.6072104">
                <ele>142.0</ele>
                <time>2020-08-28T14:27:30.000Z</time>
                <name>Trackpoint 6613</name>
            </trkpt>
            <trkpt lat="49.8716512" lon="9.607212">
                <ele>142.0</ele>
                <time>2020-08-28T14:27:32.000Z</time>
                <name>Trackpoint 6614</name>
            </trkpt>
            <trkpt lat="49.8715392" lon="9.607208">
                <ele>142.0</ele>
                <time>2020-08-28T14:27:34.000Z</time>
                <name>Trackpoint 6615</name>
            </trkpt>
            <trkpt lat="49.8714336" lon="9.6072032">
                <ele>141.0</ele>
                <time>2020-08-28T14:27:36.000Z</time>
                <name>Trackpoint 6616</name>
            </trkpt>
            <trkpt lat="49.8713216" lon="9.6072016">
                <ele>140.0</ele>
                <time>2020-08-28T14:27:38.000Z</time>
                <name>Trackpoint 6617</name>
            </trkpt>
            <trkpt lat="49.871216" lon="9.607208">
                <ele>140.0</ele>
                <time>2020-08-28T14:27:40.000Z</time>
                <name>Trackpoint 6618</name>
            </trkpt>
            <trkpt lat="49.8711104" lon="9.607212">
                <ele>140.0</ele>
                <time>2020-08-28T14:27:42.000Z</time>
                <name>Trackpoint 6619</name>
            </trkpt>
            <trkpt lat="49.8709984" lon="9.6072184">
                <ele>140.0</ele>
                <time>2020-08-28T14:27:44.000Z</time>
                <name>Trackpoint 6620</name>
            </trkpt>
            <trkpt lat="49.8708864" lon="9.6072064">
                <ele>140.0</ele>
                <time>2020-08-28T14:27:46.000Z</time>
                <name>Trackpoint 6621</name>
            </trkpt>
            <trkpt lat="49.8707776" lon="9.6072152">
                <ele>140.0</ele>
                <time>2020-08-28T14:27:48.000Z</time>
                <name>Trackpoint 6622</name>
            </trkpt>
            <trkpt lat="49.8706624" lon="9.6072232">
                <ele>139.0</ele>
                <time>2020-08-28T14:27:50.000Z</time>
                <name>Trackpoint 6623</name>
            </trkpt>
            <trkpt lat="49.8705472" lon="9.6072384">
                <ele>140.0</ele>
                <time>2020-08-28T14:27:52.000Z</time>
                <name>Trackpoint 6624</name>
            </trkpt>
            <trkpt lat="49.8704384" lon="9.6072552">
                <ele>139.0</ele>
                <time>2020-08-28T14:27:54.000Z</time>
                <name>Trackpoint 6625</name>
            </trkpt>
            <trkpt lat="49.87032" lon="9.6072712">
                <ele>139.0</ele>
                <time>2020-08-28T14:27:56.000Z</time>
                <name>Trackpoint 6626</name>
            </trkpt>
            <trkpt lat="49.8702048" lon="9.6072928">
                <ele>139.0</ele>
                <time>2020-08-28T14:27:58.000Z</time>
                <name>Trackpoint 6627</name>
            </trkpt>
            <trkpt lat="49.8700896" lon="9.60732">
                <ele>139.0</ele>
                <time>2020-08-28T14:28:00.000Z</time>
                <name>Trackpoint 6628</name>
            </trkpt>
            <trkpt lat="49.8699808" lon="9.6073488">
                <ele>139.0</ele>
                <time>2020-08-28T14:28:02.000Z</time>
                <name>Trackpoint 6629</name>
            </trkpt>
            <trkpt lat="49.8698656" lon="9.6073712">
                <ele>139.0</ele>
                <time>2020-08-28T14:28:04.000Z</time>
                <name>Trackpoint 6630</name>
            </trkpt>
            <trkpt lat="49.8697536" lon="9.6074048">
                <ele>139.0</ele>
                <time>2020-08-28T14:28:06.000Z</time>
                <name>Trackpoint 6631</name>
            </trkpt>
            <trkpt lat="49.869648" lon="9.6074368">
                <ele>140.0</ele>
                <time>2020-08-28T14:28:08.000Z</time>
                <name>Trackpoint 6632</name>
            </trkpt>
            <trkpt lat="49.8695456" lon="9.6074712">
                <ele>140.0</ele>
                <time>2020-08-28T14:28:10.000Z</time>
                <name>Trackpoint 6633</name>
            </trkpt>
            <trkpt lat="49.8694432" lon="9.6075048">
                <ele>141.0</ele>
                <time>2020-08-28T14:28:12.000Z</time>
                <name>Trackpoint 6634</name>
            </trkpt>
            <trkpt lat="49.8693376" lon="9.6075288">
                <ele>141.0</ele>
                <time>2020-08-28T14:28:14.000Z</time>
                <name>Trackpoint 6635</name>
            </trkpt>
            <trkpt lat="49.8692352" lon="9.607536">
                <ele>141.0</ele>
                <time>2020-08-28T14:28:16.000Z</time>
                <name>Trackpoint 6636</name>
            </trkpt>
            <trkpt lat="49.8691392" lon="9.607556">
                <ele>140.0</ele>
                <time>2020-08-28T14:28:18.000Z</time>
                <name>Trackpoint 6637</name>
            </trkpt>
            <trkpt lat="49.8690304" lon="9.607596">
                <ele>140.0</ele>
                <time>2020-08-28T14:28:21.000Z</time>
                <name>Trackpoint 6638</name>
            </trkpt>
            <trkpt lat="49.8689376" lon="9.607628">
                <ele>140.0</ele>
                <time>2020-08-28T14:28:23.000Z</time>
                <name>Trackpoint 6639</name>
            </trkpt>
            <trkpt lat="49.868848" lon="9.6076736">
                <ele>140.0</ele>
                <time>2020-08-28T14:28:25.000Z</time>
                <name>Trackpoint 6640</name>
            </trkpt>
            <trkpt lat="49.8687616" lon="9.6077">
                <ele>140.0</ele>
                <time>2020-08-28T14:28:27.000Z</time>
                <name>Trackpoint 6641</name>
            </trkpt>
            <trkpt lat="49.8686688" lon="9.6077416">
                <ele>140.0</ele>
                <time>2020-08-28T14:28:29.000Z</time>
                <name>Trackpoint 6642</name>
            </trkpt>
            <trkpt lat="49.8685792" lon="9.6077632">
                <ele>140.0</ele>
                <time>2020-08-28T14:28:31.000Z</time>
                <name>Trackpoint 6643</name>
            </trkpt>
            <trkpt lat="49.8684736" lon="9.6077696">
                <ele>140.0</ele>
                <time>2020-08-28T14:28:33.000Z</time>
                <name>Trackpoint 6644</name>
            </trkpt>
            <trkpt lat="49.8683648" lon="9.6077744">
                <ele>139.0</ele>
                <time>2020-08-28T14:28:35.000Z</time>
                <name>Trackpoint 6645</name>
            </trkpt>
            <trkpt lat="49.868224" lon="9.6077896">
                <ele>140.0</ele>
                <time>2020-08-28T14:28:38.000Z</time>
                <name>Trackpoint 6646</name>
            </trkpt>
            <trkpt lat="49.8680864" lon="9.6078104">
                <ele>141.0</ele>
                <time>2020-08-28T14:28:41.000Z</time>
                <name>Trackpoint 6647</name>
            </trkpt>
            <trkpt lat="49.867952" lon="9.6078192">
                <ele>141.0</ele>
                <time>2020-08-28T14:28:44.000Z</time>
                <name>Trackpoint 6648</name>
            </trkpt>
            <trkpt lat="49.8678528" lon="9.6078128">
                <ele>143.0</ele>
                <time>2020-08-28T14:28:46.000Z</time>
                <name>Trackpoint 6649</name>
            </trkpt>
            <trkpt lat="49.8677568" lon="9.6077872">
                <ele>143.0</ele>
                <time>2020-08-28T14:28:48.000Z</time>
                <name>Trackpoint 6650</name>
            </trkpt>
            <trkpt lat="49.8676608" lon="9.6077784">
                <ele>144.0</ele>
                <time>2020-08-28T14:28:50.000Z</time>
                <name>Trackpoint 6651</name>
            </trkpt>
            <trkpt lat="49.8675648" lon="9.6077856">
                <ele>144.0</ele>
                <time>2020-08-28T14:28:52.000Z</time>
                <name>Trackpoint 6652</name>
            </trkpt>
            <trkpt lat="49.8674432" lon="9.6077856">
                <ele>143.0</ele>
                <time>2020-08-28T14:28:54.000Z</time>
                <name>Trackpoint 6653</name>
            </trkpt>
            <trkpt lat="49.8672864" lon="9.6077472">
                <ele>143.0</ele>
                <time>2020-08-28T14:28:56.000Z</time>
                <name>Trackpoint 6654</name>
            </trkpt>
            <trkpt lat="49.867152" lon="9.6077184">
                <ele>144.0</ele>
                <time>2020-08-28T14:28:58.000Z</time>
                <name>Trackpoint 6655</name>
            </trkpt>
            <trkpt lat="49.8670304" lon="9.6076896">
                <ele>144.0</ele>
                <time>2020-08-28T14:29:00.000Z</time>
                <name>Trackpoint 6656</name>
            </trkpt>
            <trkpt lat="49.8669152" lon="9.6076744">
                <ele>144.0</ele>
                <time>2020-08-28T14:29:02.000Z</time>
                <name>Trackpoint 6657</name>
            </trkpt>
            <trkpt lat="49.8668" lon="9.6076536">
                <ele>144.0</ele>
                <time>2020-08-28T14:29:04.000Z</time>
                <name>Trackpoint 6658</name>
            </trkpt>
            <trkpt lat="49.8666752" lon="9.6076184">
                <ele>145.0</ele>
                <time>2020-08-28T14:29:06.000Z</time>
                <name>Trackpoint 6659</name>
            </trkpt>
            <trkpt lat="49.8665568" lon="9.6076024">
                <ele>145.0</ele>
                <time>2020-08-28T14:29:08.000Z</time>
                <name>Trackpoint 6660</name>
            </trkpt>
            <trkpt lat="49.8664384" lon="9.607576">
                <ele>145.0</ele>
                <time>2020-08-28T14:29:10.000Z</time>
                <name>Trackpoint 6661</name>
            </trkpt>
            <trkpt lat="49.86632" lon="9.607536">
                <ele>145.0</ele>
                <time>2020-08-28T14:29:12.000Z</time>
                <name>Trackpoint 6662</name>
            </trkpt>
            <trkpt lat="49.8662048" lon="9.607496">
                <ele>146.0</ele>
                <time>2020-08-28T14:29:14.000Z</time>
                <name>Trackpoint 6663</name>
            </trkpt>
            <trkpt lat="49.8660864" lon="9.6074696">
                <ele>146.0</ele>
                <time>2020-08-28T14:29:16.000Z</time>
                <name>Trackpoint 6664</name>
            </trkpt>
            <trkpt lat="49.8659712" lon="9.6074368">
                <ele>146.0</ele>
                <time>2020-08-28T14:29:18.000Z</time>
                <name>Trackpoint 6665</name>
            </trkpt>
            <trkpt lat="49.8658592" lon="9.6073984">
                <ele>146.0</ele>
                <time>2020-08-28T14:29:20.000Z</time>
                <name>Trackpoint 6666</name>
            </trkpt>
            <trkpt lat="49.865744" lon="9.6073552">
                <ele>147.0</ele>
                <time>2020-08-28T14:29:22.000Z</time>
                <name>Trackpoint 6667</name>
            </trkpt>
            <trkpt lat="49.8656352" lon="9.6073048">
                <ele>147.0</ele>
                <time>2020-08-28T14:29:24.000Z</time>
                <name>Trackpoint 6668</name>
            </trkpt>
            <trkpt lat="49.8655296" lon="9.6072368">
                <ele>147.0</ele>
                <time>2020-08-28T14:29:26.000Z</time>
                <name>Trackpoint 6669</name>
            </trkpt>
            <trkpt lat="49.8654304" lon="9.6071904">
                <ele>147.0</ele>
                <time>2020-08-28T14:29:28.000Z</time>
                <name>Trackpoint 6670</name>
            </trkpt>
            <trkpt lat="49.8653248" lon="9.6071328">
                <ele>148.0</ele>
                <time>2020-08-28T14:29:30.000Z</time>
                <name>Trackpoint 6671</name>
            </trkpt>
            <trkpt lat="49.8652256" lon="9.607072">
                <ele>148.0</ele>
                <time>2020-08-28T14:29:32.000Z</time>
                <name>Trackpoint 6672</name>
            </trkpt>
            <trkpt lat="49.8651328" lon="9.6070072">
                <ele>148.0</ele>
                <time>2020-08-28T14:29:34.000Z</time>
                <name>Trackpoint 6673</name>
            </trkpt>
            <trkpt lat="49.865024" lon="9.606928">
                <ele>149.0</ele>
                <time>2020-08-28T14:29:36.000Z</time>
                <name>Trackpoint 6674</name>
            </trkpt>
            <trkpt lat="49.8649088" lon="9.6068536">
                <ele>149.0</ele>
                <time>2020-08-28T14:29:38.000Z</time>
                <name>Trackpoint 6675</name>
            </trkpt>
            <trkpt lat="49.8648" lon="9.6067688">
                <ele>150.0</ele>
                <time>2020-08-28T14:29:40.000Z</time>
                <name>Trackpoint 6676</name>
            </trkpt>
            <trkpt lat="49.864688" lon="9.6066968">
                <ele>150.0</ele>
                <time>2020-08-28T14:29:42.000Z</time>
                <name>Trackpoint 6677</name>
            </trkpt>
            <trkpt lat="49.864592" lon="9.606624">
                <ele>150.0</ele>
                <time>2020-08-28T14:29:44.000Z</time>
                <name>Trackpoint 6678</name>
            </trkpt>
            <trkpt lat="49.8644864" lon="9.60656">
                <ele>151.0</ele>
                <time>2020-08-28T14:29:46.000Z</time>
                <name>Trackpoint 6679</name>
            </trkpt>
            <trkpt lat="49.8643712" lon="9.6064768">
                <ele>151.0</ele>
                <time>2020-08-28T14:29:48.000Z</time>
                <name>Trackpoint 6680</name>
            </trkpt>
            <trkpt lat="49.86424" lon="9.606332">
                <ele>150.0</ele>
                <time>2020-08-28T14:29:50.000Z</time>
                <name>Trackpoint 6681</name>
            </trkpt>
            <trkpt lat="49.864128" lon="9.6062472">
                <ele>150.0</ele>
                <time>2020-08-28T14:29:52.000Z</time>
                <name>Trackpoint 6682</name>
            </trkpt>
            <trkpt lat="49.8640288" lon="9.6061552">
                <ele>150.0</ele>
                <time>2020-08-28T14:29:54.000Z</time>
                <name>Trackpoint 6683</name>
            </trkpt>
            <trkpt lat="49.8639328" lon="9.6060784">
                <ele>150.0</ele>
                <time>2020-08-28T14:29:56.000Z</time>
                <name>Trackpoint 6684</name>
            </trkpt>
            <trkpt lat="49.8638432" lon="9.6059984">
                <ele>150.0</ele>
                <time>2020-08-28T14:29:58.000Z</time>
                <name>Trackpoint 6685</name>
            </trkpt>
            <trkpt lat="49.8637536" lon="9.6059352">
                <ele>150.0</ele>
                <time>2020-08-28T14:30:00.000Z</time>
                <name>Trackpoint 6686</name>
            </trkpt>
            <trkpt lat="49.8636544" lon="9.6058632">
                <ele>150.0</ele>
                <time>2020-08-28T14:30:02.000Z</time>
                <name>Trackpoint 6687</name>
            </trkpt>
            <trkpt lat="49.8635648" lon="9.6057952">
                <ele>150.0</ele>
                <time>2020-08-28T14:30:04.000Z</time>
                <name>Trackpoint 6688</name>
            </trkpt>
            <trkpt lat="49.8634592" lon="9.6056944">
                <ele>150.0</ele>
                <time>2020-08-28T14:30:06.000Z</time>
                <name>Trackpoint 6689</name>
            </trkpt>
            <trkpt lat="49.8633696" lon="9.6056248">
                <ele>150.0</ele>
                <time>2020-08-28T14:30:08.000Z</time>
                <name>Trackpoint 6690</name>
            </trkpt>
            <trkpt lat="49.86328" lon="9.6055568">
                <ele>150.0</ele>
                <time>2020-08-28T14:30:10.000Z</time>
                <name>Trackpoint 6691</name>
            </trkpt>
            <trkpt lat="49.8632" lon="9.6054648">
                <ele>150.0</ele>
                <time>2020-08-28T14:30:12.000Z</time>
                <name>Trackpoint 6692</name>
            </trkpt>
            <trkpt lat="49.8631072" lon="9.6053832">
                <ele>150.0</ele>
                <time>2020-08-28T14:30:14.000Z</time>
                <name>Trackpoint 6693</name>
            </trkpt>
            <trkpt lat="49.863008" lon="9.6052912">
                <ele>150.0</ele>
                <time>2020-08-28T14:30:16.000Z</time>
                <name>Trackpoint 6694</name>
            </trkpt>
            <trkpt lat="49.8629152" lon="9.6052">
                <ele>150.0</ele>
                <time>2020-08-28T14:30:18.000Z</time>
                <name>Trackpoint 6695</name>
            </trkpt>
            <trkpt lat="49.8628288" lon="9.6051232">
                <ele>150.0</ele>
                <time>2020-08-28T14:30:20.000Z</time>
                <name>Trackpoint 6696</name>
            </trkpt>
            <trkpt lat="49.862736" lon="9.605032">
                <ele>150.0</ele>
                <time>2020-08-28T14:30:22.000Z</time>
                <name>Trackpoint 6697</name>
            </trkpt>
            <trkpt lat="49.8626368" lon="9.6049384">
                <ele>149.0</ele>
                <time>2020-08-28T14:30:24.000Z</time>
                <name>Trackpoint 6698</name>
            </trkpt>
            <trkpt lat="49.8625664" lon="9.6048496">
                <ele>149.0</ele>
                <time>2020-08-28T14:30:26.000Z</time>
                <name>Trackpoint 6699</name>
            </trkpt>
            <trkpt lat="49.8624544" lon="9.6047384">
                <ele>149.0</ele>
                <time>2020-08-28T14:30:28.000Z</time>
                <name>Trackpoint 6700</name>
            </trkpt>
            <trkpt lat="49.8623584" lon="9.6046536">
                <ele>149.0</ele>
                <time>2020-08-28T14:30:30.000Z</time>
                <name>Trackpoint 6701</name>
            </trkpt>
            <trkpt lat="49.8622752" lon="9.6045704">
                <ele>149.0</ele>
                <time>2020-08-28T14:30:32.000Z</time>
                <name>Trackpoint 6702</name>
            </trkpt>
            <trkpt lat="49.8621792" lon="9.6044632">
                <ele>149.0</ele>
                <time>2020-08-28T14:30:34.000Z</time>
                <name>Trackpoint 6703</name>
            </trkpt>
            <trkpt lat="49.8620768" lon="9.6043704">
                <ele>149.0</ele>
                <time>2020-08-28T14:30:36.000Z</time>
                <name>Trackpoint 6704</name>
            </trkpt>
            <trkpt lat="49.861968" lon="9.6042784">
                <ele>149.0</ele>
                <time>2020-08-28T14:30:38.000Z</time>
                <name>Trackpoint 6705</name>
            </trkpt>
            <trkpt lat="49.8618688" lon="9.6041816">
                <ele>149.0</ele>
                <time>2020-08-28T14:30:40.000Z</time>
                <name>Trackpoint 6706</name>
            </trkpt>
            <trkpt lat="49.8617792" lon="9.6040872">
                <ele>149.0</ele>
                <time>2020-08-28T14:30:42.000Z</time>
                <name>Trackpoint 6707</name>
            </trkpt>
            <trkpt lat="49.8616864" lon="9.604">
                <ele>149.0</ele>
                <time>2020-08-28T14:30:44.000Z</time>
                <name>Trackpoint 6708</name>
            </trkpt>
            <trkpt lat="49.8616032" lon="9.6039432">
                <ele>149.0</ele>
                <time>2020-08-28T14:30:46.000Z</time>
                <name>Trackpoint 6709</name>
            </trkpt>
            <trkpt lat="49.861488" lon="9.6038504">
                <ele>149.0</ele>
                <time>2020-08-28T14:30:49.000Z</time>
                <name>Trackpoint 6710</name>
            </trkpt>
            <trkpt lat="49.8614048" lon="9.603788">
                <ele>149.0</ele>
                <time>2020-08-28T14:30:51.000Z</time>
                <name>Trackpoint 6711</name>
            </trkpt>
            <trkpt lat="49.8613152" lon="9.6037104">
                <ele>149.0</ele>
                <time>2020-08-28T14:30:53.000Z</time>
                <name>Trackpoint 6712</name>
            </trkpt>
            <trkpt lat="49.8612256" lon="9.6036352">
                <ele>149.0</ele>
                <time>2020-08-28T14:30:55.000Z</time>
                <name>Trackpoint 6713</name>
            </trkpt>
            <trkpt lat="49.8611456" lon="9.6035856">
                <ele>149.0</ele>
                <time>2020-08-28T14:30:57.000Z</time>
                <name>Trackpoint 6714</name>
            </trkpt>
            <trkpt lat="49.861056" lon="9.603532">
                <ele>149.0</ele>
                <time>2020-08-28T14:30:59.000Z</time>
                <name>Trackpoint 6715</name>
            </trkpt>
            <trkpt lat="49.8609568" lon="9.60346">
                <ele>149.0</ele>
                <time>2020-08-28T14:31:01.000Z</time>
                <name>Trackpoint 6716</name>
            </trkpt>
            <trkpt lat="49.8608576" lon="9.6034072">
                <ele>149.0</ele>
                <time>2020-08-28T14:31:03.000Z</time>
                <name>Trackpoint 6717</name>
            </trkpt>
            <trkpt lat="49.8607744" lon="9.6033624">
                <ele>149.0</ele>
                <time>2020-08-28T14:31:05.000Z</time>
                <name>Trackpoint 6718</name>
            </trkpt>
            <trkpt lat="49.8606848" lon="9.6033112">
                <ele>149.0</ele>
                <time>2020-08-28T14:31:07.000Z</time>
                <name>Trackpoint 6719</name>
            </trkpt>
            <trkpt lat="49.8605856" lon="9.6032648">
                <ele>149.0</ele>
                <time>2020-08-28T14:31:09.000Z</time>
                <name>Trackpoint 6720</name>
            </trkpt>
            <trkpt lat="49.8604864" lon="9.6032">
                <ele>149.0</ele>
                <time>2020-08-28T14:31:11.000Z</time>
                <name>Trackpoint 6721</name>
            </trkpt>
            <trkpt lat="49.8603968" lon="9.6031448">
                <ele>149.0</ele>
                <time>2020-08-28T14:31:13.000Z</time>
                <name>Trackpoint 6722</name>
            </trkpt>
            <trkpt lat="49.8602976" lon="9.6030864">
                <ele>149.0</ele>
                <time>2020-08-28T14:31:15.000Z</time>
                <name>Trackpoint 6723</name>
            </trkpt>
            <trkpt lat="49.860208" lon="9.6030384">
                <ele>149.0</ele>
                <time>2020-08-28T14:31:17.000Z</time>
                <name>Trackpoint 6724</name>
            </trkpt>
            <trkpt lat="49.8601152" lon="9.6029832">
                <ele>149.0</ele>
                <time>2020-08-28T14:31:19.000Z</time>
                <name>Trackpoint 6725</name>
            </trkpt>
            <trkpt lat="49.8600192" lon="9.6029384">
                <ele>149.0</ele>
                <time>2020-08-28T14:31:21.000Z</time>
                <name>Trackpoint 6726</name>
            </trkpt>
            <trkpt lat="49.8599296" lon="9.6028816">
                <ele>149.0</ele>
                <time>2020-08-28T14:31:23.000Z</time>
                <name>Trackpoint 6727</name>
            </trkpt>
            <trkpt lat="49.8598368" lon="9.602848">
                <ele>149.0</ele>
                <time>2020-08-28T14:31:25.000Z</time>
                <name>Trackpoint 6728</name>
            </trkpt>
            <trkpt lat="49.859744" lon="9.6028">
                <ele>149.0</ele>
                <time>2020-08-28T14:31:27.000Z</time>
                <name>Trackpoint 6729</name>
            </trkpt>
            <trkpt lat="49.8596544" lon="9.6027416">
                <ele>149.0</ele>
                <time>2020-08-28T14:31:29.000Z</time>
                <name>Trackpoint 6730</name>
            </trkpt>
            <trkpt lat="49.8595584" lon="9.6026968">
                <ele>149.0</ele>
                <time>2020-08-28T14:31:31.000Z</time>
                <name>Trackpoint 6731</name>
            </trkpt>
            <trkpt lat="49.8594656" lon="9.6026488">
                <ele>149.0</ele>
                <time>2020-08-28T14:31:33.000Z</time>
                <name>Trackpoint 6732</name>
            </trkpt>
            <trkpt lat="49.8593824" lon="9.6025912">
                <ele>149.0</ele>
                <time>2020-08-28T14:31:35.000Z</time>
                <name>Trackpoint 6733</name>
            </trkpt>
            <trkpt lat="49.8592896" lon="9.6025464">
                <ele>149.0</ele>
                <time>2020-08-28T14:31:37.000Z</time>
                <name>Trackpoint 6734</name>
            </trkpt>
            <trkpt lat="49.8591904" lon="9.6025016">
                <ele>149.0</ele>
                <time>2020-08-28T14:31:39.000Z</time>
                <name>Trackpoint 6735</name>
            </trkpt>
            <trkpt lat="49.8591008" lon="9.6024616">
                <ele>149.0</ele>
                <time>2020-08-28T14:31:41.000Z</time>
                <name>Trackpoint 6736</name>
            </trkpt>
            <trkpt lat="49.859008" lon="9.6024128">
                <ele>148.0</ele>
                <time>2020-08-28T14:31:43.000Z</time>
                <name>Trackpoint 6737</name>
            </trkpt>
            <trkpt lat="49.858928" lon="9.6023632">
                <ele>148.0</ele>
                <time>2020-08-28T14:31:45.000Z</time>
                <name>Trackpoint 6738</name>
            </trkpt>
            <trkpt lat="49.8588096" lon="9.602308">
                <ele>148.0</ele>
                <time>2020-08-28T14:31:48.000Z</time>
                <name>Trackpoint 6739</name>
            </trkpt>
            <trkpt lat="49.858704" lon="9.6022528">
                <ele>148.0</ele>
                <time>2020-08-28T14:31:51.000Z</time>
                <name>Trackpoint 6740</name>
            </trkpt>
            <trkpt lat="49.8585984" lon="9.6021992">
                <ele>148.0</ele>
                <time>2020-08-28T14:31:54.000Z</time>
                <name>Trackpoint 6741</name>
            </trkpt>
            <trkpt lat="49.8585024" lon="9.6021448">
                <ele>148.0</ele>
                <time>2020-08-28T14:31:57.000Z</time>
                <name>Trackpoint 6742</name>
            </trkpt>
            <trkpt lat="49.8584128" lon="9.602108">
                <ele>148.0</ele>
                <time>2020-08-28T14:32:00.000Z</time>
                <name>Trackpoint 6743</name>
            </trkpt>
            <trkpt lat="49.8583104" lon="9.602048">
                <ele>146.0</ele>
                <time>2020-08-28T14:32:03.000Z</time>
                <name>Trackpoint 6744</name>
            </trkpt>
            <trkpt lat="49.8582304" lon="9.6019984">
                <ele>145.0</ele>
                <time>2020-08-28T14:32:05.000Z</time>
                <name>Trackpoint 6745</name>
            </trkpt>
            <trkpt lat="49.8581376" lon="9.6019536">
                <ele>146.0</ele>
                <time>2020-08-28T14:32:07.000Z</time>
                <name>Trackpoint 6746</name>
            </trkpt>
            <trkpt lat="49.8580512" lon="9.6019">
                <ele>146.0</ele>
                <time>2020-08-28T14:32:09.000Z</time>
                <name>Trackpoint 6747</name>
            </trkpt>
            <trkpt lat="49.8579584" lon="9.6018496">
                <ele>145.0</ele>
                <time>2020-08-28T14:32:11.000Z</time>
                <name>Trackpoint 6748</name>
            </trkpt>
            <trkpt lat="49.857872" lon="9.601804">
                <ele>145.0</ele>
                <time>2020-08-28T14:32:13.000Z</time>
                <name>Trackpoint 6749</name>
            </trkpt>
            <trkpt lat="49.8577888" lon="9.6017648">
                <ele>145.0</ele>
                <time>2020-08-28T14:32:15.000Z</time>
                <name>Trackpoint 6750</name>
            </trkpt>
            <trkpt lat="49.857696" lon="9.6017216">
                <ele>145.0</ele>
                <time>2020-08-28T14:32:17.000Z</time>
                <name>Trackpoint 6751</name>
            </trkpt>
            <trkpt lat="49.8576064" lon="9.6016752">
                <ele>145.0</ele>
                <time>2020-08-28T14:32:19.000Z</time>
                <name>Trackpoint 6752</name>
            </trkpt>
            <trkpt lat="49.85752" lon="9.601612">
                <ele>146.0</ele>
                <time>2020-08-28T14:32:21.000Z</time>
                <name>Trackpoint 6753</name>
            </trkpt>
            <trkpt lat="49.8574496" lon="9.6015432">
                <ele>147.0</ele>
                <time>2020-08-28T14:32:23.000Z</time>
                <name>Trackpoint 6754</name>
            </trkpt>
            <trkpt lat="49.8573696" lon="9.6014496">
                <ele>147.0</ele>
                <time>2020-08-28T14:32:26.000Z</time>
                <name>Trackpoint 6755</name>
            </trkpt>
            <trkpt lat="49.857312" lon="9.6013632">
                <ele>147.0</ele>
                <time>2020-08-28T14:32:30.000Z</time>
                <name>Trackpoint 6756</name>
            </trkpt>
            <trkpt lat="49.857264" lon="9.6012736">
                <ele>145.0</ele>
                <time>2020-08-28T14:33:02.000Z</time>
                <name>Trackpoint 6757</name>
            </trkpt>
            <trkpt lat="49.8572192" lon="9.6011552">
                <ele>145.0</ele>
                <time>2020-08-28T14:33:06.000Z</time>
                <name>Trackpoint 6758</name>
            </trkpt>
            <trkpt lat="49.8571584" lon="9.6010816">
                <ele>145.0</ele>
                <time>2020-08-28T14:33:08.000Z</time>
                <name>Trackpoint 6759</name>
            </trkpt>
            <trkpt lat="49.8570816" lon="9.6010216">
                <ele>145.0</ele>
                <time>2020-08-28T14:33:10.000Z</time>
                <name>Trackpoint 6760</name>
            </trkpt>
            <trkpt lat="49.8569984" lon="9.6009712">
                <ele>145.0</ele>
                <time>2020-08-28T14:33:12.000Z</time>
                <name>Trackpoint 6761</name>
            </trkpt>
            <trkpt lat="49.8569056" lon="9.6009384">
                <ele>145.0</ele>
                <time>2020-08-28T14:33:14.000Z</time>
                <name>Trackpoint 6762</name>
            </trkpt>
            <trkpt lat="49.8568" lon="9.6009368">
                <ele>145.0</ele>
                <time>2020-08-28T14:33:16.000Z</time>
                <name>Trackpoint 6763</name>
            </trkpt>
            <trkpt lat="49.8567008" lon="9.6009912">
                <ele>145.0</ele>
                <time>2020-08-28T14:33:18.000Z</time>
                <name>Trackpoint 6764</name>
            </trkpt>
            <trkpt lat="49.8566144" lon="9.6010568">
                <ele>145.0</ele>
                <time>2020-08-28T14:33:20.000Z</time>
                <name>Trackpoint 6765</name>
            </trkpt>
            <trkpt lat="49.8565152" lon="9.601104">
                <ele>145.0</ele>
                <time>2020-08-28T14:33:22.000Z</time>
                <name>Trackpoint 6766</name>
            </trkpt>
            <trkpt lat="49.8564224" lon="9.601124">
                <ele>145.0</ele>
                <time>2020-08-28T14:33:24.000Z</time>
                <name>Trackpoint 6767</name>
            </trkpt>
            <trkpt lat="49.8563232" lon="9.6011152">
                <ele>145.0</ele>
                <time>2020-08-28T14:33:26.000Z</time>
                <name>Trackpoint 6768</name>
            </trkpt>
            <trkpt lat="49.856224" lon="9.6010752">
                <ele>145.0</ele>
                <time>2020-08-28T14:33:28.000Z</time>
                <name>Trackpoint 6769</name>
            </trkpt>
            <trkpt lat="49.8561376" lon="9.6010288">
                <ele>145.0</ele>
                <time>2020-08-28T14:33:30.000Z</time>
                <name>Trackpoint 6770</name>
            </trkpt>
            <trkpt lat="49.8560448" lon="9.6009952">
                <ele>145.0</ele>
                <time>2020-08-28T14:33:32.000Z</time>
                <name>Trackpoint 6771</name>
            </trkpt>
            <trkpt lat="49.855952" lon="9.6009576">
                <ele>145.0</ele>
                <time>2020-08-28T14:33:34.000Z</time>
                <name>Trackpoint 6772</name>
            </trkpt>
            <trkpt lat="49.8558624" lon="9.6009256">
                <ele>145.0</ele>
                <time>2020-08-28T14:33:36.000Z</time>
                <name>Trackpoint 6773</name>
            </trkpt>
            <trkpt lat="49.8557728" lon="9.600892">
                <ele>145.0</ele>
                <time>2020-08-28T14:33:38.000Z</time>
                <name>Trackpoint 6774</name>
            </trkpt>
            <trkpt lat="49.8556864" lon="9.6008632">
                <ele>145.0</ele>
                <time>2020-08-28T14:33:40.000Z</time>
                <name>Trackpoint 6775</name>
            </trkpt>
            <trkpt lat="49.8555872" lon="9.600808">
                <ele>145.0</ele>
                <time>2020-08-28T14:33:42.000Z</time>
                <name>Trackpoint 6776</name>
            </trkpt>
            <trkpt lat="49.8554912" lon="9.6007656">
                <ele>145.0</ele>
                <time>2020-08-28T14:33:44.000Z</time>
                <name>Trackpoint 6777</name>
            </trkpt>
            <trkpt lat="49.8554048" lon="9.600732">
                <ele>146.0</ele>
                <time>2020-08-28T14:33:46.000Z</time>
                <name>Trackpoint 6778</name>
            </trkpt>
            <trkpt lat="49.8553152" lon="9.6006944">
                <ele>146.0</ele>
                <time>2020-08-28T14:33:48.000Z</time>
                <name>Trackpoint 6779</name>
            </trkpt>
            <trkpt lat="49.855216" lon="9.6006472">
                <ele>146.0</ele>
                <time>2020-08-28T14:33:50.000Z</time>
                <name>Trackpoint 6780</name>
            </trkpt>
            <trkpt lat="49.8551264" lon="9.6006072">
                <ele>146.0</ele>
                <time>2020-08-28T14:33:52.000Z</time>
                <name>Trackpoint 6781</name>
            </trkpt>
            <trkpt lat="49.8550304" lon="9.6005784">
                <ele>146.0</ele>
                <time>2020-08-28T14:33:54.000Z</time>
                <name>Trackpoint 6782</name>
            </trkpt>
            <trkpt lat="49.854928" lon="9.6005384">
                <ele>146.0</ele>
                <time>2020-08-28T14:33:56.000Z</time>
                <name>Trackpoint 6783</name>
            </trkpt>
            <trkpt lat="49.854832" lon="9.6005048">
                <ele>146.0</ele>
                <time>2020-08-28T14:33:58.000Z</time>
                <name>Trackpoint 6784</name>
            </trkpt>
            <trkpt lat="49.8547424" lon="9.6004896">
                <ele>146.0</ele>
                <time>2020-08-28T14:34:00.000Z</time>
                <name>Trackpoint 6785</name>
            </trkpt>
            <trkpt lat="49.8546272" lon="9.6004552">
                <ele>146.0</ele>
                <time>2020-08-28T14:34:03.000Z</time>
                <name>Trackpoint 6786</name>
            </trkpt>
            <trkpt lat="49.8545344" lon="9.6004016">
                <ele>146.0</ele>
                <time>2020-08-28T14:34:06.000Z</time>
                <name>Trackpoint 6787</name>
            </trkpt>
            <trkpt lat="49.8544832" lon="9.6003216">
                <ele>146.0</ele>
                <time>2020-08-28T14:34:08.000Z</time>
                <name>Trackpoint 6788</name>
            </trkpt>
            <trkpt lat="49.8544608" lon="9.6002232">
                <ele>146.0</ele>
                <time>2020-08-28T14:34:10.000Z</time>
                <name>Trackpoint 6789</name>
            </trkpt>
            <trkpt lat="49.854448" lon="9.6001256">
                <ele>146.0</ele>
                <time>2020-08-28T14:34:12.000Z</time>
                <name>Trackpoint 6790</name>
            </trkpt>
            <trkpt lat="49.854416" lon="9.6000208">
                <ele>146.0</ele>
                <time>2020-08-28T14:34:14.000Z</time>
                <name>Trackpoint 6791</name>
            </trkpt>
            <trkpt lat="49.8543712" lon="9.599892">
                <ele>146.0</ele>
                <time>2020-08-28T14:34:16.000Z</time>
                <name>Trackpoint 6792</name>
            </trkpt>
            <trkpt lat="49.8543136" lon="9.5997616">
                <ele>146.0</ele>
                <time>2020-08-28T14:34:18.000Z</time>
                <name>Trackpoint 6793</name>
            </trkpt>
            <trkpt lat="49.8542496" lon="9.5996768">
                <ele>146.0</ele>
                <time>2020-08-28T14:34:20.000Z</time>
                <name>Trackpoint 6794</name>
            </trkpt>
            <trkpt lat="49.8541792" lon="9.5996176">
                <ele>146.0</ele>
                <time>2020-08-28T14:34:48.000Z</time>
                <name>Trackpoint 6795</name>
            </trkpt>
            <trkpt lat="49.8540832" lon="9.5995576">
                <ele>146.0</ele>
                <time>2020-08-28T14:34:53.000Z</time>
                <name>Trackpoint 6796</name>
            </trkpt>
            <trkpt lat="49.8539648" lon="9.5994984">
                <ele>147.0</ele>
                <time>2020-08-28T14:34:56.000Z</time>
                <name>Trackpoint 6797</name>
            </trkpt>
            <trkpt lat="49.8538624" lon="9.5994656">
                <ele>147.0</ele>
                <time>2020-08-28T14:34:58.000Z</time>
                <name>Trackpoint 6798</name>
            </trkpt>
            <trkpt lat="49.85376" lon="9.5994064">
                <ele>147.0</ele>
                <time>2020-08-28T14:35:00.000Z</time>
                <name>Trackpoint 6799</name>
            </trkpt>
            <trkpt lat="49.8536576" lon="9.5993536">
                <ele>147.0</ele>
                <time>2020-08-28T14:35:02.000Z</time>
                <name>Trackpoint 6800</name>
            </trkpt>
            <trkpt lat="49.8535552" lon="9.5992968">
                <ele>147.0</ele>
                <time>2020-08-28T14:35:04.000Z</time>
                <name>Trackpoint 6801</name>
            </trkpt>
            <trkpt lat="49.853456" lon="9.5992544">
                <ele>147.0</ele>
                <time>2020-08-28T14:35:06.000Z</time>
                <name>Trackpoint 6802</name>
            </trkpt>
            <trkpt lat="49.8533568" lon="9.599212">
                <ele>147.0</ele>
                <time>2020-08-28T14:35:08.000Z</time>
                <name>Trackpoint 6803</name>
            </trkpt>
            <trkpt lat="49.8532768" lon="9.5991688">
                <ele>147.0</ele>
                <time>2020-08-28T14:35:10.000Z</time>
                <name>Trackpoint 6804</name>
            </trkpt>
            <trkpt lat="49.853184" lon="9.5991136">
                <ele>147.0</ele>
                <time>2020-08-28T14:35:12.000Z</time>
                <name>Trackpoint 6805</name>
            </trkpt>
            <trkpt lat="49.853088" lon="9.5990616">
                <ele>147.0</ele>
                <time>2020-08-28T14:35:14.000Z</time>
                <name>Trackpoint 6806</name>
            </trkpt>
            <trkpt lat="49.8529984" lon="9.5990088">
                <ele>147.0</ele>
                <time>2020-08-28T14:35:16.000Z</time>
                <name>Trackpoint 6807</name>
            </trkpt>
            <trkpt lat="49.8529056" lon="9.5989616">
                <ele>147.0</ele>
                <time>2020-08-28T14:35:18.000Z</time>
                <name>Trackpoint 6808</name>
            </trkpt>
            <trkpt lat="49.8528224" lon="9.5989248">
                <ele>147.0</ele>
                <time>2020-08-28T14:35:20.000Z</time>
                <name>Trackpoint 6809</name>
            </trkpt>
            <trkpt lat="49.8527296" lon="9.5988952">
                <ele>147.0</ele>
                <time>2020-08-28T14:35:22.000Z</time>
                <name>Trackpoint 6810</name>
            </trkpt>
            <trkpt lat="49.8526144" lon="9.5988232">
                <ele>147.0</ele>
                <time>2020-08-28T14:35:25.000Z</time>
                <name>Trackpoint 6811</name>
            </trkpt>
            <trkpt lat="49.852528" lon="9.5987856">
                <ele>147.0</ele>
                <time>2020-08-28T14:35:27.000Z</time>
                <name>Trackpoint 6812</name>
            </trkpt>
            <trkpt lat="49.8524384" lon="9.5987352">
                <ele>147.0</ele>
                <time>2020-08-28T14:35:29.000Z</time>
                <name>Trackpoint 6813</name>
            </trkpt>
            <trkpt lat="49.8523584" lon="9.5986816">
                <ele>147.0</ele>
                <time>2020-08-28T14:35:31.000Z</time>
                <name>Trackpoint 6814</name>
            </trkpt>
            <trkpt lat="49.852272" lon="9.598652">
                <ele>147.0</ele>
                <time>2020-08-28T14:35:33.000Z</time>
                <name>Trackpoint 6815</name>
            </trkpt>
            <trkpt lat="49.8521536" lon="9.5986048">
                <ele>147.0</ele>
                <time>2020-08-28T14:35:36.000Z</time>
                <name>Trackpoint 6816</name>
            </trkpt>
            <trkpt lat="49.852032" lon="9.5985448">
                <ele>147.0</ele>
                <time>2020-08-28T14:35:39.000Z</time>
                <name>Trackpoint 6817</name>
            </trkpt>
            <trkpt lat="49.8519104" lon="9.5985032">
                <ele>147.0</ele>
                <time>2020-08-28T14:35:42.000Z</time>
                <name>Trackpoint 6818</name>
            </trkpt>
            <trkpt lat="49.8517792" lon="9.5984672">
                <ele>147.0</ele>
                <time>2020-08-28T14:35:45.000Z</time>
                <name>Trackpoint 6819</name>
            </trkpt>
            <trkpt lat="49.8516832" lon="9.5984424">
                <ele>147.0</ele>
                <time>2020-08-28T14:35:47.000Z</time>
                <name>Trackpoint 6820</name>
            </trkpt>
            <trkpt lat="49.8515936" lon="9.5984064">
                <ele>147.0</ele>
                <time>2020-08-28T14:35:49.000Z</time>
                <name>Trackpoint 6821</name>
            </trkpt>
            <trkpt lat="49.8514944" lon="9.5983784">
                <ele>146.0</ele>
                <time>2020-08-28T14:35:51.000Z</time>
                <name>Trackpoint 6822</name>
            </trkpt>
            <trkpt lat="49.8514048" lon="9.5983688">
                <ele>146.0</ele>
                <time>2020-08-28T14:35:53.000Z</time>
                <name>Trackpoint 6823</name>
            </trkpt>
            <trkpt lat="49.851312" lon="9.5983464">
                <ele>146.0</ele>
                <time>2020-08-28T14:35:55.000Z</time>
                <name>Trackpoint 6824</name>
            </trkpt>
            <trkpt lat="49.851216" lon="9.598316">
                <ele>146.0</ele>
                <time>2020-08-28T14:35:57.000Z</time>
                <name>Trackpoint 6825</name>
            </trkpt>
            <trkpt lat="49.8511232" lon="9.5982968">
                <ele>146.0</ele>
                <time>2020-08-28T14:35:59.000Z</time>
                <name>Trackpoint 6826</name>
            </trkpt>
            <trkpt lat="49.8510336" lon="9.59828">
                <ele>146.0</ele>
                <time>2020-08-28T14:36:01.000Z</time>
                <name>Trackpoint 6827</name>
            </trkpt>
            <trkpt lat="49.8509408" lon="9.5982584">
                <ele>146.0</ele>
                <time>2020-08-28T14:36:03.000Z</time>
                <name>Trackpoint 6828</name>
            </trkpt>
            <trkpt lat="49.850848" lon="9.5982416">
                <ele>146.0</ele>
                <time>2020-08-28T14:36:05.000Z</time>
                <name>Trackpoint 6829</name>
            </trkpt>
            <trkpt lat="49.85072" lon="9.59822">
                <ele>146.0</ele>
                <time>2020-08-28T14:36:08.000Z</time>
                <name>Trackpoint 6830</name>
            </trkpt>
            <trkpt lat="49.8506304" lon="9.5982">
                <ele>146.0</ele>
                <time>2020-08-28T14:36:10.000Z</time>
                <name>Trackpoint 6831</name>
            </trkpt>
            <trkpt lat="49.8505408" lon="9.5981704">
                <ele>146.0</ele>
                <time>2020-08-28T14:36:12.000Z</time>
                <name>Trackpoint 6832</name>
            </trkpt>
            <trkpt lat="49.8504416" lon="9.5981368">
                <ele>146.0</ele>
                <time>2020-08-28T14:36:14.000Z</time>
                <name>Trackpoint 6833</name>
            </trkpt>
            <trkpt lat="49.8503488" lon="9.5981232">
                <ele>147.0</ele>
                <time>2020-08-28T14:36:16.000Z</time>
                <name>Trackpoint 6834</name>
            </trkpt>
            <trkpt lat="49.8502528" lon="9.5981056">
                <ele>146.0</ele>
                <time>2020-08-28T14:36:18.000Z</time>
                <name>Trackpoint 6835</name>
            </trkpt>
            <trkpt lat="49.8501632" lon="9.5980952">
                <ele>146.0</ele>
                <time>2020-08-28T14:36:20.000Z</time>
                <name>Trackpoint 6836</name>
            </trkpt>
            <trkpt lat="49.8500544" lon="9.5980632">
                <ele>146.0</ele>
                <time>2020-08-28T14:36:22.000Z</time>
                <name>Trackpoint 6837</name>
            </trkpt>
            <trkpt lat="49.8499168" lon="9.598032">
                <ele>146.0</ele>
                <time>2020-08-28T14:36:25.000Z</time>
                <name>Trackpoint 6838</name>
            </trkpt>
            <trkpt lat="49.8498272" lon="9.5980192">
                <ele>146.0</ele>
                <time>2020-08-28T14:36:27.000Z</time>
                <name>Trackpoint 6839</name>
            </trkpt>
            <trkpt lat="49.8497344" lon="9.5980328">
                <ele>146.0</ele>
                <time>2020-08-28T14:36:29.000Z</time>
                <name>Trackpoint 6840</name>
            </trkpt>
            <trkpt lat="49.8496128" lon="9.5980632">
                <ele>146.0</ele>
                <time>2020-08-28T14:36:32.000Z</time>
                <name>Trackpoint 6841</name>
            </trkpt>
            <trkpt lat="49.8494912" lon="9.5980752">
                <ele>146.0</ele>
                <time>2020-08-28T14:36:35.000Z</time>
                <name>Trackpoint 6842</name>
            </trkpt>
            <trkpt lat="49.8493664" lon="9.598092">
                <ele>146.0</ele>
                <time>2020-08-28T14:36:38.000Z</time>
                <name>Trackpoint 6843</name>
            </trkpt>
            <trkpt lat="49.849248" lon="9.5981128">
                <ele>146.0</ele>
                <time>2020-08-28T14:36:41.000Z</time>
                <name>Trackpoint 6844</name>
            </trkpt>
            <trkpt lat="49.849136" lon="9.5981232">
                <ele>146.0</ele>
                <time>2020-08-28T14:36:44.000Z</time>
                <name>Trackpoint 6845</name>
            </trkpt>
            <trkpt lat="49.8490336" lon="9.5981392">
                <ele>146.0</ele>
                <time>2020-08-28T14:36:47.000Z</time>
                <name>Trackpoint 6846</name>
            </trkpt>
            <trkpt lat="49.848928" lon="9.5981648">
                <ele>145.0</ele>
                <time>2020-08-28T14:36:50.000Z</time>
                <name>Trackpoint 6847</name>
            </trkpt>
            <trkpt lat="49.848816" lon="9.5981704">
                <ele>145.0</ele>
                <time>2020-08-28T14:36:53.000Z</time>
                <name>Trackpoint 6848</name>
            </trkpt>
            <trkpt lat="49.8487008" lon="9.5981888">
                <ele>145.0</ele>
                <time>2020-08-28T14:36:57.000Z</time>
                <name>Trackpoint 6849</name>
            </trkpt>
            <trkpt lat="49.8485984" lon="9.5981904">
                <ele>145.0</ele>
                <time>2020-08-28T14:37:01.000Z</time>
                <name>Trackpoint 6850</name>
            </trkpt>
            <trkpt lat="49.8484992" lon="9.5981552">
                <ele>145.0</ele>
                <time>2020-08-28T14:37:05.000Z</time>
                <name>Trackpoint 6851</name>
            </trkpt>
            <trkpt lat="49.8484" lon="9.5981752">
                <ele>145.0</ele>
                <time>2020-08-28T14:37:09.000Z</time>
                <name>Trackpoint 6852</name>
            </trkpt>
            <trkpt lat="49.8483008" lon="9.5982176">
                <ele>146.0</ele>
                <time>2020-08-28T14:38:00.000Z</time>
                <name>Trackpoint 6853</name>
            </trkpt>
            <trkpt lat="49.8482272" lon="9.598284">
                <ele>146.0</ele>
                <time>2020-08-28T14:38:03.000Z</time>
                <name>Trackpoint 6854</name>
            </trkpt>
            <trkpt lat="49.8481344" lon="9.5983216">
                <ele>146.0</ele>
                <time>2020-08-28T14:38:06.000Z</time>
                <name>Trackpoint 6855</name>
            </trkpt>
            <trkpt lat="49.8480224" lon="9.598356">
                <ele>146.0</ele>
                <time>2020-08-28T14:38:09.000Z</time>
                <name>Trackpoint 6856</name>
            </trkpt>
            <trkpt lat="49.8479008" lon="9.5983888">
                <ele>146.0</ele>
                <time>2020-08-28T14:38:12.000Z</time>
                <name>Trackpoint 6857</name>
            </trkpt>
            <trkpt lat="49.847808" lon="9.5984032">
                <ele>146.0</ele>
                <time>2020-08-28T14:38:14.000Z</time>
                <name>Trackpoint 6858</name>
            </trkpt>
            <trkpt lat="49.8476704" lon="9.5984096">
                <ele>146.0</ele>
                <time>2020-08-28T14:38:17.000Z</time>
                <name>Trackpoint 6859</name>
            </trkpt>
            <trkpt lat="49.8475808" lon="9.5984272">
                <ele>146.0</ele>
                <time>2020-08-28T14:38:19.000Z</time>
                <name>Trackpoint 6860</name>
            </trkpt>
            <trkpt lat="49.8474912" lon="9.59844">
                <ele>146.0</ele>
                <time>2020-08-28T14:38:21.000Z</time>
                <name>Trackpoint 6861</name>
            </trkpt>
            <trkpt lat="49.8473792" lon="9.5984832">
                <ele>146.0</ele>
                <time>2020-08-28T14:38:24.000Z</time>
                <name>Trackpoint 6862</name>
            </trkpt>
            <trkpt lat="49.8472608" lon="9.5985136">
                <ele>146.0</ele>
                <time>2020-08-28T14:38:27.000Z</time>
                <name>Trackpoint 6863</name>
            </trkpt>
            <trkpt lat="49.8471648" lon="9.5985368">
                <ele>146.0</ele>
                <time>2020-08-28T14:38:29.000Z</time>
                <name>Trackpoint 6864</name>
            </trkpt>
            <trkpt lat="49.8470432" lon="9.5985736">
                <ele>146.0</ele>
                <time>2020-08-28T14:38:32.000Z</time>
                <name>Trackpoint 6865</name>
            </trkpt>
            <trkpt lat="49.8469088" lon="9.5985848">
                <ele>146.0</ele>
                <time>2020-08-28T14:38:35.000Z</time>
                <name>Trackpoint 6866</name>
            </trkpt>
            <trkpt lat="49.8467872" lon="9.5986272">
                <ele>146.0</ele>
                <time>2020-08-28T14:38:38.000Z</time>
                <name>Trackpoint 6867</name>
            </trkpt>
            <trkpt lat="49.8466752" lon="9.5986536">
                <ele>146.0</ele>
                <time>2020-08-28T14:38:41.000Z</time>
                <name>Trackpoint 6868</name>
            </trkpt>
            <trkpt lat="49.8465472" lon="9.5986296">
                <ele>146.0</ele>
                <time>2020-08-28T14:38:44.000Z</time>
                <name>Trackpoint 6869</name>
            </trkpt>
            <trkpt lat="49.8464576" lon="9.5986208">
                <ele>146.0</ele>
                <time>2020-08-28T14:38:47.000Z</time>
                <name>Trackpoint 6870</name>
            </trkpt>
            <trkpt lat="49.8463616" lon="9.5986208">
                <ele>145.0</ele>
                <time>2020-08-28T14:38:55.000Z</time>
                <name>Trackpoint 6871</name>
            </trkpt>
            <trkpt lat="49.8462592" lon="9.5986616">
                <ele>144.0</ele>
                <time>2020-08-28T15:02:11.000Z</time>
                <name>Trackpoint 6872</name>
            </trkpt>
            <trkpt lat="49.8461472" lon="9.5986832">
                <ele>144.0</ele>
                <time>2020-08-28T15:02:16.000Z</time>
                <name>Trackpoint 6873</name>
            </trkpt>
            <trkpt lat="49.846048" lon="9.5987064">
                <ele>144.0</ele>
                <time>2020-08-28T15:02:20.000Z</time>
                <name>Trackpoint 6874</name>
            </trkpt>
            <trkpt lat="49.8459488" lon="9.5987584">
                <ele>144.0</ele>
                <time>2020-08-28T15:02:24.000Z</time>
                <name>Trackpoint 6875</name>
            </trkpt>
            <trkpt lat="49.8458208" lon="9.598788">
                <ele>144.0</ele>
                <time>2020-08-28T15:02:27.000Z</time>
                <name>Trackpoint 6876</name>
            </trkpt>
            <trkpt lat="49.8457344" lon="9.5988216">
                <ele>145.0</ele>
                <time>2020-08-28T15:02:31.000Z</time>
                <name>Trackpoint 6877</name>
            </trkpt>
            <trkpt lat="49.8456416" lon="9.5988328">
                <ele>145.0</ele>
                <time>2020-08-28T15:02:34.000Z</time>
                <name>Trackpoint 6878</name>
            </trkpt>
            <trkpt lat="49.8455424" lon="9.59882">
                <ele>145.0</ele>
                <time>2020-08-28T15:02:37.000Z</time>
                <name>Trackpoint 6879</name>
            </trkpt>
            <trkpt lat="49.8454464" lon="9.5988328">
                <ele>145.0</ele>
                <time>2020-08-28T15:02:40.000Z</time>
                <name>Trackpoint 6880</name>
            </trkpt>
            <trkpt lat="49.8453472" lon="9.5988504">
                <ele>145.0</ele>
                <time>2020-08-28T15:02:43.000Z</time>
                <name>Trackpoint 6881</name>
            </trkpt>
            <trkpt lat="49.8452544" lon="9.5988368">
                <ele>145.0</ele>
                <time>2020-08-28T15:02:46.000Z</time>
                <name>Trackpoint 6882</name>
            </trkpt>
            <trkpt lat="49.8451424" lon="9.59884">
                <ele>145.0</ele>
                <time>2020-08-28T15:02:50.000Z</time>
                <name>Trackpoint 6883</name>
            </trkpt>
            <trkpt lat="49.8450432" lon="9.5988056">
                <ele>145.0</ele>
                <time>2020-08-28T15:02:54.000Z</time>
                <name>Trackpoint 6884</name>
            </trkpt>
            <trkpt lat="49.844928" lon="9.5988216">
                <ele>145.0</ele>
                <time>2020-08-28T15:02:59.000Z</time>
                <name>Trackpoint 6885</name>
            </trkpt>
            <trkpt lat="49.8448288" lon="9.5988152">
                <ele>147.0</ele>
                <time>2020-08-28T15:03:04.000Z</time>
                <name>Trackpoint 6886</name>
            </trkpt>
            <trkpt lat="49.8447264" lon="9.5988304">
                <ele>146.0</ele>
                <time>2020-08-28T15:03:10.000Z</time>
                <name>Trackpoint 6887</name>
            </trkpt>
            <trkpt lat="49.8446272" lon="9.59882">
                <ele>147.0</ele>
                <time>2020-08-28T15:03:44.000Z</time>
                <name>Trackpoint 6888</name>
            </trkpt>
            <trkpt lat="49.8445312" lon="9.5988104">
                <ele>147.0</ele>
                <time>2020-08-28T15:03:49.000Z</time>
                <name>Trackpoint 6889</name>
            </trkpt>
            <trkpt lat="49.8444352" lon="9.598828">
                <ele>147.0</ele>
                <time>2020-08-28T15:03:53.000Z</time>
                <name>Trackpoint 6890</name>
            </trkpt>
            <trkpt lat="49.8443136" lon="9.598808">
                <ele>147.0</ele>
                <time>2020-08-28T15:03:57.000Z</time>
                <name>Trackpoint 6891</name>
            </trkpt>
            <trkpt lat="49.8442272" lon="9.5987632">
                <ele>147.0</ele>
                <time>2020-08-28T15:04:00.000Z</time>
                <name>Trackpoint 6892</name>
            </trkpt>
            <trkpt lat="49.8441824" lon="9.5986656">
                <ele>147.0</ele>
                <time>2020-08-28T15:04:35.000Z</time>
                <name>Trackpoint 6893</name>
            </trkpt>
            <trkpt lat="49.8441536" lon="9.5985784">
                <ele>147.0</ele>
                <time>2020-08-28T15:04:37.000Z</time>
                <name>Trackpoint 6894</name>
            </trkpt>
            <trkpt lat="49.8440928" lon="9.5985032">
                <ele>147.0</ele>
                <time>2020-08-28T15:04:39.000Z</time>
                <name>Trackpoint 6895</name>
            </trkpt>
            <trkpt lat="49.8439712" lon="9.5984624">
                <ele>146.0</ele>
                <time>2020-08-28T15:04:42.000Z</time>
                <name>Trackpoint 6896</name>
            </trkpt>
            <trkpt lat="49.8438784" lon="9.5984312">
                <ele>147.0</ele>
                <time>2020-08-28T15:04:44.000Z</time>
                <name>Trackpoint 6897</name>
            </trkpt>
            <trkpt lat="49.8437888" lon="9.5984024">
                <ele>146.0</ele>
                <time>2020-08-28T15:04:46.000Z</time>
                <name>Trackpoint 6898</name>
            </trkpt>
            <trkpt lat="49.8436928" lon="9.5983816">
                <ele>146.0</ele>
                <time>2020-08-28T15:04:48.000Z</time>
                <name>Trackpoint 6899</name>
            </trkpt>
            <trkpt lat="49.8436" lon="9.5983616">
                <ele>146.0</ele>
                <time>2020-08-28T15:04:50.000Z</time>
                <name>Trackpoint 6900</name>
            </trkpt>
            <trkpt lat="49.8434688" lon="9.5983432">
                <ele>146.0</ele>
                <time>2020-08-28T15:04:53.000Z</time>
                <name>Trackpoint 6901</name>
            </trkpt>
            <trkpt lat="49.843376" lon="9.5983248">
                <ele>146.0</ele>
                <time>2020-08-28T15:04:55.000Z</time>
                <name>Trackpoint 6902</name>
            </trkpt>
            <trkpt lat="49.8432832" lon="9.5982888">
                <ele>146.0</ele>
                <time>2020-08-28T15:04:57.000Z</time>
                <name>Trackpoint 6903</name>
            </trkpt>
            <trkpt lat="49.8431904" lon="9.5982552">
                <ele>146.0</ele>
                <time>2020-08-28T15:04:59.000Z</time>
                <name>Trackpoint 6904</name>
            </trkpt>
            <trkpt lat="49.8430912" lon="9.5982368">
                <ele>146.0</ele>
                <time>2020-08-28T15:05:01.000Z</time>
                <name>Trackpoint 6905</name>
            </trkpt>
            <trkpt lat="49.8430016" lon="9.598224">
                <ele>146.0</ele>
                <time>2020-08-28T15:05:03.000Z</time>
                <name>Trackpoint 6906</name>
            </trkpt>
            <trkpt lat="49.8428864" lon="9.5982216">
                <ele>146.0</ele>
                <time>2020-08-28T15:05:06.000Z</time>
                <name>Trackpoint 6907</name>
            </trkpt>
            <trkpt lat="49.8427744" lon="9.5982336">
                <ele>146.0</ele>
                <time>2020-08-28T15:05:09.000Z</time>
                <name>Trackpoint 6908</name>
            </trkpt>
            <trkpt lat="49.842672" lon="9.5981968">
                <ele>145.0</ele>
                <time>2020-08-28T15:05:12.000Z</time>
                <name>Trackpoint 6909</name>
            </trkpt>
            <trkpt lat="49.8425856" lon="9.5981448">
                <ele>145.0</ele>
                <time>2020-08-28T15:05:15.000Z</time>
                <name>Trackpoint 6910</name>
            </trkpt>
            <trkpt lat="49.8425024" lon="9.5980952">
                <ele>144.0</ele>
                <time>2020-08-28T15:05:20.000Z</time>
                <name>Trackpoint 6911</name>
            </trkpt>
            <trkpt lat="49.8424224" lon="9.598052">
                <ele>145.0</ele>
                <time>2020-08-28T15:05:52.000Z</time>
                <name>Trackpoint 6912</name>
            </trkpt>
            <trkpt lat="49.8423392" lon="9.5980064">
                <ele>145.0</ele>
                <time>2020-08-28T15:05:55.000Z</time>
                <name>Trackpoint 6913</name>
            </trkpt>
            <trkpt lat="49.8422368" lon="9.5979344">
                <ele>145.0</ele>
                <time>2020-08-28T15:05:58.000Z</time>
                <name>Trackpoint 6914</name>
            </trkpt>
            <trkpt lat="49.8421216" lon="9.5978632">
                <ele>145.0</ele>
                <time>2020-08-28T15:06:01.000Z</time>
                <name>Trackpoint 6915</name>
            </trkpt>
            <trkpt lat="49.8420384" lon="9.597808">
                <ele>145.0</ele>
                <time>2020-08-28T15:06:03.000Z</time>
                <name>Trackpoint 6916</name>
            </trkpt>
            <trkpt lat="49.841952" lon="9.5977448">
                <ele>146.0</ele>
                <time>2020-08-28T15:06:05.000Z</time>
                <name>Trackpoint 6917</name>
            </trkpt>
            <trkpt lat="49.8418656" lon="9.5976888">
                <ele>146.0</ele>
                <time>2020-08-28T15:06:07.000Z</time>
                <name>Trackpoint 6918</name>
            </trkpt>
            <trkpt lat="49.8417824" lon="9.5976352">
                <ele>146.0</ele>
                <time>2020-08-28T15:06:09.000Z</time>
                <name>Trackpoint 6919</name>
            </trkpt>
            <trkpt lat="49.8417024" lon="9.5975784">
                <ele>146.0</ele>
                <time>2020-08-28T15:06:11.000Z</time>
                <name>Trackpoint 6920</name>
            </trkpt>
            <trkpt lat="49.8416224" lon="9.5975264">
                <ele>146.0</ele>
                <time>2020-08-28T15:06:13.000Z</time>
                <name>Trackpoint 6921</name>
            </trkpt>
            <trkpt lat="49.841536" lon="9.5974712">
                <ele>146.0</ele>
                <time>2020-08-28T15:06:15.000Z</time>
                <name>Trackpoint 6922</name>
            </trkpt>
            <trkpt lat="49.8414528" lon="9.5974264">
                <ele>146.0</ele>
                <time>2020-08-28T15:06:17.000Z</time>
                <name>Trackpoint 6923</name>
            </trkpt>
            <trkpt lat="49.8413728" lon="9.5973816">
                <ele>145.0</ele>
                <time>2020-08-28T15:06:19.000Z</time>
                <name>Trackpoint 6924</name>
            </trkpt>
            <trkpt lat="49.8412672" lon="9.5973056">
                <ele>145.0</ele>
                <time>2020-08-28T15:06:22.000Z</time>
                <name>Trackpoint 6925</name>
            </trkpt>
            <trkpt lat="49.841184" lon="9.597252">
                <ele>145.0</ele>
                <time>2020-08-28T15:06:24.000Z</time>
                <name>Trackpoint 6926</name>
            </trkpt>
            <trkpt lat="49.8410944" lon="9.5971984">
                <ele>145.0</ele>
                <time>2020-08-28T15:06:26.000Z</time>
                <name>Trackpoint 6927</name>
            </trkpt>
            <trkpt lat="49.8410144" lon="9.5971568">
                <ele>145.0</ele>
                <time>2020-08-28T15:06:28.000Z</time>
                <name>Trackpoint 6928</name>
            </trkpt>
            <trkpt lat="49.8409248" lon="9.5971016">
                <ele>145.0</ele>
                <time>2020-08-28T15:06:30.000Z</time>
                <name>Trackpoint 6929</name>
            </trkpt>
            <trkpt lat="49.8408352" lon="9.5970632">
                <ele>145.0</ele>
                <time>2020-08-28T15:06:32.000Z</time>
                <name>Trackpoint 6930</name>
            </trkpt>
            <trkpt lat="49.8407328" lon="9.5970152">
                <ele>145.0</ele>
                <time>2020-08-28T15:06:34.000Z</time>
                <name>Trackpoint 6931</name>
            </trkpt>
            <trkpt lat="49.8406336" lon="9.5969696">
                <ele>145.0</ele>
                <time>2020-08-28T15:06:36.000Z</time>
                <name>Trackpoint 6932</name>
            </trkpt>
            <trkpt lat="49.8405408" lon="9.5969296">
                <ele>145.0</ele>
                <time>2020-08-28T15:06:38.000Z</time>
                <name>Trackpoint 6933</name>
            </trkpt>
            <trkpt lat="49.8404512" lon="9.5968888">
                <ele>145.0</ele>
                <time>2020-08-28T15:06:40.000Z</time>
                <name>Trackpoint 6934</name>
            </trkpt>
            <trkpt lat="49.8403584" lon="9.5968368">
                <ele>145.0</ele>
                <time>2020-08-28T15:06:42.000Z</time>
                <name>Trackpoint 6935</name>
            </trkpt>
            <trkpt lat="49.8402752" lon="9.5967912">
                <ele>145.0</ele>
                <time>2020-08-28T15:06:44.000Z</time>
                <name>Trackpoint 6936</name>
            </trkpt>
            <trkpt lat="49.840192" lon="9.5967528">
                <ele>145.0</ele>
                <time>2020-08-28T15:06:46.000Z</time>
                <name>Trackpoint 6937</name>
            </trkpt>
            <trkpt lat="49.8401056" lon="9.5967184">
                <ele>145.0</ele>
                <time>2020-08-28T15:06:48.000Z</time>
                <name>Trackpoint 6938</name>
            </trkpt>
            <trkpt lat="49.8400128" lon="9.5966752">
                <ele>145.0</ele>
                <time>2020-08-28T15:06:51.000Z</time>
                <name>Trackpoint 6939</name>
            </trkpt>
            <trkpt lat="49.839904" lon="9.5966216">
                <ele>145.0</ele>
                <time>2020-08-28T15:06:54.000Z</time>
                <name>Trackpoint 6940</name>
            </trkpt>
            <trkpt lat="49.8398144" lon="9.5965856">
                <ele>146.0</ele>
                <time>2020-08-28T15:06:56.000Z</time>
                <name>Trackpoint 6941</name>
            </trkpt>
            <trkpt lat="49.8397184" lon="9.5965384">
                <ele>146.0</ele>
                <time>2020-08-28T15:06:58.000Z</time>
                <name>Trackpoint 6942</name>
            </trkpt>
            <trkpt lat="49.839616" lon="9.5964848">
                <ele>146.0</ele>
                <time>2020-08-28T15:07:00.000Z</time>
                <name>Trackpoint 6943</name>
            </trkpt>
            <trkpt lat="49.8395104" lon="9.5964272">
                <ele>147.0</ele>
                <time>2020-08-28T15:07:02.000Z</time>
                <name>Trackpoint 6944</name>
            </trkpt>
            <trkpt lat="49.8394208" lon="9.59636">
                <ele>147.0</ele>
                <time>2020-08-28T15:07:04.000Z</time>
                <name>Trackpoint 6945</name>
            </trkpt>
            <trkpt lat="49.839328" lon="9.5962896">
                <ele>147.0</ele>
                <time>2020-08-28T15:07:06.000Z</time>
                <name>Trackpoint 6946</name>
            </trkpt>
            <trkpt lat="49.8392384" lon="9.5962152">
                <ele>147.0</ele>
                <time>2020-08-28T15:07:08.000Z</time>
                <name>Trackpoint 6947</name>
            </trkpt>
            <trkpt lat="49.8391488" lon="9.5961368">
                <ele>147.0</ele>
                <time>2020-08-28T15:07:10.000Z</time>
                <name>Trackpoint 6948</name>
            </trkpt>
            <trkpt lat="49.8390656" lon="9.5960616">
                <ele>147.0</ele>
                <time>2020-08-28T15:07:12.000Z</time>
                <name>Trackpoint 6949</name>
            </trkpt>
            <trkpt lat="49.838992" lon="9.595992">
                <ele>148.0</ele>
                <time>2020-08-28T15:07:14.000Z</time>
                <name>Trackpoint 6950</name>
            </trkpt>
            <trkpt lat="49.8389152" lon="9.5959216">
                <ele>148.0</ele>
                <time>2020-08-28T15:07:16.000Z</time>
                <name>Trackpoint 6951</name>
            </trkpt>
            <trkpt lat="49.838848" lon="9.5958472">
                <ele>148.0</ele>
                <time>2020-08-28T15:07:18.000Z</time>
                <name>Trackpoint 6952</name>
            </trkpt>
            <trkpt lat="49.8387808" lon="9.5957744">
                <ele>148.0</ele>
                <time>2020-08-28T15:07:20.000Z</time>
                <name>Trackpoint 6953</name>
            </trkpt>
            <trkpt lat="49.8387136" lon="9.5957072">
                <ele>147.0</ele>
                <time>2020-08-28T15:07:22.000Z</time>
                <name>Trackpoint 6954</name>
            </trkpt>
            <trkpt lat="49.8386272" lon="9.5956024">
                <ele>147.0</ele>
                <time>2020-08-28T15:07:25.000Z</time>
                <name>Trackpoint 6955</name>
            </trkpt>
            <trkpt lat="49.8385504" lon="9.5955096">
                <ele>147.0</ele>
                <time>2020-08-28T15:07:27.000Z</time>
                <name>Trackpoint 6956</name>
            </trkpt>
            <trkpt lat="49.8384704" lon="9.5954176">
                <ele>147.0</ele>
                <time>2020-08-28T15:07:29.000Z</time>
                <name>Trackpoint 6957</name>
            </trkpt>
            <trkpt lat="49.8383968" lon="9.5953416">
                <ele>147.0</ele>
                <time>2020-08-28T15:07:31.000Z</time>
                <name>Trackpoint 6958</name>
            </trkpt>
            <trkpt lat="49.8383264" lon="9.595248">
                <ele>147.0</ele>
                <time>2020-08-28T15:07:33.000Z</time>
                <name>Trackpoint 6959</name>
            </trkpt>
            <trkpt lat="49.8382656" lon="9.595148">
                <ele>147.0</ele>
                <time>2020-08-28T15:07:35.000Z</time>
                <name>Trackpoint 6960</name>
            </trkpt>
            <trkpt lat="49.838208" lon="9.59506">
                <ele>147.0</ele>
                <time>2020-08-28T15:07:37.000Z</time>
                <name>Trackpoint 6961</name>
            </trkpt>
            <trkpt lat="49.8381344" lon="9.594972">
                <ele>147.0</ele>
                <time>2020-08-28T15:07:40.000Z</time>
                <name>Trackpoint 6962</name>
            </trkpt>
            <trkpt lat="49.8380864" lon="9.5948952">
                <ele>147.0</ele>
                <time>2020-08-28T15:07:44.000Z</time>
                <name>Trackpoint 6963</name>
            </trkpt>
            <trkpt lat="49.8380512" lon="9.5947904">
                <ele>147.0</ele>
                <time>2020-08-28T15:07:48.000Z</time>
                <name>Trackpoint 6964</name>
            </trkpt>
            <trkpt lat="49.8380352" lon="9.5946768">
                <ele>148.0</ele>
                <time>2020-08-28T15:08:30.000Z</time>
                <name>Trackpoint 6965</name>
            </trkpt>
            <trkpt lat="49.8379904" lon="9.5945664">
                <ele>148.0</ele>
                <time>2020-08-28T15:08:33.000Z</time>
                <name>Trackpoint 6966</name>
            </trkpt>
            <trkpt lat="49.837952" lon="9.5944704">
                <ele>148.0</ele>
                <time>2020-08-28T15:08:35.000Z</time>
                <name>Trackpoint 6967</name>
            </trkpt>
            <trkpt lat="49.8379104" lon="9.5943584">
                <ele>148.0</ele>
                <time>2020-08-28T15:08:37.000Z</time>
                <name>Trackpoint 6968</name>
            </trkpt>
            <trkpt lat="49.837872" lon="9.5942432">
                <ele>148.0</ele>
                <time>2020-08-28T15:08:39.000Z</time>
                <name>Trackpoint 6969</name>
            </trkpt>
            <trkpt lat="49.83784" lon="9.5941336">
                <ele>147.0</ele>
                <time>2020-08-28T15:08:41.000Z</time>
                <name>Trackpoint 6970</name>
            </trkpt>
            <trkpt lat="49.8377952" lon="9.5940264">
                <ele>146.0</ele>
                <time>2020-08-28T15:08:43.000Z</time>
                <name>Trackpoint 6971</name>
            </trkpt>
            <trkpt lat="49.8377408" lon="9.59392">
                <ele>145.0</ele>
                <time>2020-08-28T15:08:45.000Z</time>
                <name>Trackpoint 6972</name>
            </trkpt>
            <trkpt lat="49.8376928" lon="9.593808">
                <ele>144.0</ele>
                <time>2020-08-28T15:08:47.000Z</time>
                <name>Trackpoint 6973</name>
            </trkpt>
            <trkpt lat="49.8376576" lon="9.5936736">
                <ele>144.0</ele>
                <time>2020-08-28T15:08:49.000Z</time>
                <name>Trackpoint 6974</name>
            </trkpt>
            <trkpt lat="49.837632" lon="9.593536">
                <ele>145.0</ele>
                <time>2020-08-28T15:08:51.000Z</time>
                <name>Trackpoint 6975</name>
            </trkpt>
            <trkpt lat="49.8376032" lon="9.5934096">
                <ele>146.0</ele>
                <time>2020-08-28T15:08:53.000Z</time>
                <name>Trackpoint 6976</name>
            </trkpt>
            <trkpt lat="49.8375744" lon="9.59328">
                <ele>146.0</ele>
                <time>2020-08-28T15:08:55.000Z</time>
                <name>Trackpoint 6977</name>
            </trkpt>
            <trkpt lat="49.8375488" lon="9.5931432">
                <ele>147.0</ele>
                <time>2020-08-28T15:08:57.000Z</time>
                <name>Trackpoint 6978</name>
            </trkpt>
            <trkpt lat="49.8375168" lon="9.5929944">
                <ele>148.0</ele>
                <time>2020-08-28T15:08:59.000Z</time>
                <name>Trackpoint 6979</name>
            </trkpt>
            <trkpt lat="49.8374848" lon="9.5928552">
                <ele>148.0</ele>
                <time>2020-08-28T15:09:01.000Z</time>
                <name>Trackpoint 6980</name>
            </trkpt>
            <trkpt lat="49.8374624" lon="9.5927048">
                <ele>148.0</ele>
                <time>2020-08-28T15:09:03.000Z</time>
                <name>Trackpoint 6981</name>
            </trkpt>
            <trkpt lat="49.83744" lon="9.5925616">
                <ele>148.0</ele>
                <time>2020-08-28T15:09:05.000Z</time>
                <name>Trackpoint 6982</name>
            </trkpt>
            <trkpt lat="49.8374048" lon="9.5924368">
                <ele>148.0</ele>
                <time>2020-08-28T15:09:07.000Z</time>
                <name>Trackpoint 6983</name>
            </trkpt>
            <trkpt lat="49.8373856" lon="9.5923208">
                <ele>148.0</ele>
                <time>2020-08-28T15:09:09.000Z</time>
                <name>Trackpoint 6984</name>
            </trkpt>
            <trkpt lat="49.8373728" lon="9.5922136">
                <ele>147.0</ele>
                <time>2020-08-28T15:09:11.000Z</time>
                <name>Trackpoint 6985</name>
            </trkpt>
            <trkpt lat="49.837344" lon="9.5921112">
                <ele>147.0</ele>
                <time>2020-08-28T15:09:13.000Z</time>
                <name>Trackpoint 6986</name>
            </trkpt>
            <trkpt lat="49.8373216" lon="9.5919984">
                <ele>147.0</ele>
                <time>2020-08-28T15:09:15.000Z</time>
                <name>Trackpoint 6987</name>
            </trkpt>
            <trkpt lat="49.837312" lon="9.5918648">
                <ele>147.0</ele>
                <time>2020-08-28T15:09:17.000Z</time>
                <name>Trackpoint 6988</name>
            </trkpt>
            <trkpt lat="49.8372928" lon="9.5917232">
                <ele>147.0</ele>
                <time>2020-08-28T15:09:19.000Z</time>
                <name>Trackpoint 6989</name>
            </trkpt>
            <trkpt lat="49.837264" lon="9.5915744">
                <ele>147.0</ele>
                <time>2020-08-28T15:09:21.000Z</time>
                <name>Trackpoint 6990</name>
            </trkpt>
            <trkpt lat="49.8372416" lon="9.5914248">
                <ele>147.0</ele>
                <time>2020-08-28T15:09:23.000Z</time>
                <name>Trackpoint 6991</name>
            </trkpt>
            <trkpt lat="49.8372192" lon="9.5912736">
                <ele>147.0</ele>
                <time>2020-08-28T15:09:25.000Z</time>
                <name>Trackpoint 6992</name>
            </trkpt>
            <trkpt lat="49.8371872" lon="9.5911168">
                <ele>147.0</ele>
                <time>2020-08-28T15:09:27.000Z</time>
                <name>Trackpoint 6993</name>
            </trkpt>
            <trkpt lat="49.8371648" lon="9.5909584">
                <ele>146.0</ele>
                <time>2020-08-28T15:09:29.000Z</time>
                <name>Trackpoint 6994</name>
            </trkpt>
            <trkpt lat="49.8371392" lon="9.5908">
                <ele>147.0</ele>
                <time>2020-08-28T15:09:31.000Z</time>
                <name>Trackpoint 6995</name>
            </trkpt>
            <trkpt lat="49.8371168" lon="9.59064">
                <ele>147.0</ele>
                <time>2020-08-28T15:09:33.000Z</time>
                <name>Trackpoint 6996</name>
            </trkpt>
            <trkpt lat="49.837088" lon="9.5904816">
                <ele>146.0</ele>
                <time>2020-08-28T15:09:35.000Z</time>
                <name>Trackpoint 6997</name>
            </trkpt>
            <trkpt lat="49.837056" lon="9.59032">
                <ele>147.0</ele>
                <time>2020-08-28T15:09:37.000Z</time>
                <name>Trackpoint 6998</name>
            </trkpt>
            <trkpt lat="49.8370368" lon="9.5901568">
                <ele>147.0</ele>
                <time>2020-08-28T15:09:39.000Z</time>
                <name>Trackpoint 6999</name>
            </trkpt>
            <trkpt lat="49.8370144" lon="9.5900048">
                <ele>146.0</ele>
                <time>2020-08-28T15:09:41.000Z</time>
                <name>Trackpoint 7000</name>
            </trkpt>
            <trkpt lat="49.8369824" lon="9.5898504">
                <ele>146.0</ele>
                <time>2020-08-28T15:09:43.000Z</time>
                <name>Trackpoint 7001</name>
            </trkpt>
            <trkpt lat="49.8369568" lon="9.589688">
                <ele>146.0</ele>
                <time>2020-08-28T15:09:45.000Z</time>
                <name>Trackpoint 7002</name>
            </trkpt>
            <trkpt lat="49.8369248" lon="9.5895368">
                <ele>146.0</ele>
                <time>2020-08-28T15:09:47.000Z</time>
                <name>Trackpoint 7003</name>
            </trkpt>
            <trkpt lat="49.8368864" lon="9.5893832">
                <ele>146.0</ele>
                <time>2020-08-28T15:09:49.000Z</time>
                <name>Trackpoint 7004</name>
            </trkpt>
            <trkpt lat="49.836864" lon="9.589216">
                <ele>145.0</ele>
                <time>2020-08-28T15:09:51.000Z</time>
                <name>Trackpoint 7005</name>
            </trkpt>
            <trkpt lat="49.8368352" lon="9.5890528">
                <ele>145.0</ele>
                <time>2020-08-28T15:09:53.000Z</time>
                <name>Trackpoint 7006</name>
            </trkpt>
            <trkpt lat="49.8368256" lon="9.5889632">
                <ele>145.0</ele>
                <time>2020-08-28T15:09:54.000Z</time>
                <name>Trackpoint 7007</name>
            </trkpt>
            <trkpt lat="49.8367968" lon="9.5887984">
                <ele>145.0</ele>
                <time>2020-08-28T15:09:56.000Z</time>
                <name>Trackpoint 7008</name>
            </trkpt>
            <trkpt lat="49.8367456" lon="9.5886448">
                <ele>145.0</ele>
                <time>2020-08-28T15:09:58.000Z</time>
                <name>Trackpoint 7009</name>
            </trkpt>
            <trkpt lat="49.8367008" lon="9.588496">
                <ele>145.0</ele>
                <time>2020-08-28T15:10:00.000Z</time>
                <name>Trackpoint 7010</name>
            </trkpt>
            <trkpt lat="49.8366624" lon="9.5883528">
                <ele>145.0</ele>
                <time>2020-08-28T15:10:02.000Z</time>
                <name>Trackpoint 7011</name>
            </trkpt>
            <trkpt lat="49.8366304" lon="9.5882152">
                <ele>145.0</ele>
                <time>2020-08-28T15:10:04.000Z</time>
                <name>Trackpoint 7012</name>
            </trkpt>
            <trkpt lat="49.8366048" lon="9.5880744">
                <ele>144.0</ele>
                <time>2020-08-28T15:10:06.000Z</time>
                <name>Trackpoint 7013</name>
            </trkpt>
            <trkpt lat="49.8365632" lon="9.5879136">
                <ele>145.0</ele>
                <time>2020-08-28T15:10:08.000Z</time>
                <name>Trackpoint 7014</name>
            </trkpt>
            <trkpt lat="49.8365056" lon="9.5877464">
                <ele>144.0</ele>
                <time>2020-08-28T15:10:10.000Z</time>
                <name>Trackpoint 7015</name>
            </trkpt>
            <trkpt lat="49.8364768" lon="9.5876576">
                <ele>144.0</ele>
                <time>2020-08-28T15:10:11.000Z</time>
                <name>Trackpoint 7016</name>
            </trkpt>
            <trkpt lat="49.8364448" lon="9.587568">
                <ele>145.0</ele>
                <time>2020-08-28T15:10:12.000Z</time>
                <name>Trackpoint 7017</name>
            </trkpt>
            <trkpt lat="49.8364096" lon="9.5874816">
                <ele>145.0</ele>
                <time>2020-08-28T15:10:13.000Z</time>
                <name>Trackpoint 7018</name>
            </trkpt>
            <trkpt lat="49.8363392" lon="9.58732">
                <ele>145.0</ele>
                <time>2020-08-28T15:10:15.000Z</time>
                <name>Trackpoint 7019</name>
            </trkpt>
            <trkpt lat="49.8362624" lon="9.5871712">
                <ele>145.0</ele>
                <time>2020-08-28T15:10:17.000Z</time>
                <name>Trackpoint 7020</name>
            </trkpt>
            <trkpt lat="49.836192" lon="9.5870304">
                <ele>145.0</ele>
                <time>2020-08-28T15:10:19.000Z</time>
                <name>Trackpoint 7021</name>
            </trkpt>
            <trkpt lat="49.8361248" lon="9.5868952">
                <ele>145.0</ele>
                <time>2020-08-28T15:10:21.000Z</time>
                <name>Trackpoint 7022</name>
            </trkpt>
            <trkpt lat="49.8360512" lon="9.586752">
                <ele>145.0</ele>
                <time>2020-08-28T15:10:23.000Z</time>
                <name>Trackpoint 7023</name>
            </trkpt>
            <trkpt lat="49.8359808" lon="9.5866144">
                <ele>145.0</ele>
                <time>2020-08-28T15:10:25.000Z</time>
                <name>Trackpoint 7024</name>
            </trkpt>
            <trkpt lat="49.8358944" lon="9.5864872">
                <ele>146.0</ele>
                <time>2020-08-28T15:10:27.000Z</time>
                <name>Trackpoint 7025</name>
            </trkpt>
            <trkpt lat="49.8358144" lon="9.5863688">
                <ele>146.0</ele>
                <time>2020-08-28T15:10:29.000Z</time>
                <name>Trackpoint 7026</name>
            </trkpt>
            <trkpt lat="49.835744" lon="9.5862464">
                <ele>145.0</ele>
                <time>2020-08-28T15:10:31.000Z</time>
                <name>Trackpoint 7027</name>
            </trkpt>
            <trkpt lat="49.8356704" lon="9.5861464">
                <ele>145.0</ele>
                <time>2020-08-28T15:10:33.000Z</time>
                <name>Trackpoint 7028</name>
            </trkpt>
            <trkpt lat="49.8356128" lon="9.5860184">
                <ele>146.0</ele>
                <time>2020-08-28T15:10:35.000Z</time>
                <name>Trackpoint 7029</name>
            </trkpt>
            <trkpt lat="49.8355968" lon="9.5858488">
                <ele>145.0</ele>
                <time>2020-08-28T15:10:37.000Z</time>
                <name>Trackpoint 7030</name>
            </trkpt>
            <trkpt lat="49.8355968" lon="9.5857536">
                <ele>144.0</ele>
                <time>2020-08-28T15:10:38.000Z</time>
                <name>Trackpoint 7031</name>
            </trkpt>
            <trkpt lat="49.8355776" lon="9.5856568">
                <ele>145.0</ele>
                <time>2020-08-28T15:10:39.000Z</time>
                <name>Trackpoint 7032</name>
            </trkpt>
            <trkpt lat="49.8355488" lon="9.5855664">
                <ele>144.0</ele>
                <time>2020-08-28T15:10:40.000Z</time>
                <name>Trackpoint 7033</name>
            </trkpt>
            <trkpt lat="49.835504" lon="9.5854856">
                <ele>145.0</ele>
                <time>2020-08-28T15:10:41.000Z</time>
                <name>Trackpoint 7034</name>
            </trkpt>
            <trkpt lat="49.8353984" lon="9.5853568">
                <ele>145.0</ele>
                <time>2020-08-28T15:10:43.000Z</time>
                <name>Trackpoint 7035</name>
            </trkpt>
            <trkpt lat="49.835296" lon="9.5852368">
                <ele>145.0</ele>
                <time>2020-08-28T15:10:45.000Z</time>
                <name>Trackpoint 7036</name>
            </trkpt>
            <trkpt lat="49.8351968" lon="9.5851184">
                <ele>145.0</ele>
                <time>2020-08-28T15:10:47.000Z</time>
                <name>Trackpoint 7037</name>
            </trkpt>
            <trkpt lat="49.8351008" lon="9.585">
                <ele>146.0</ele>
                <time>2020-08-28T15:10:49.000Z</time>
                <name>Trackpoint 7038</name>
            </trkpt>
            <trkpt lat="49.835008" lon="9.5848904">
                <ele>145.0</ele>
                <time>2020-08-28T15:10:51.000Z</time>
                <name>Trackpoint 7039</name>
            </trkpt>
            <trkpt lat="49.8349152" lon="9.5847728">
                <ele>146.0</ele>
                <time>2020-08-28T15:10:53.000Z</time>
                <name>Trackpoint 7040</name>
            </trkpt>
            <trkpt lat="49.8348224" lon="9.5846664">
                <ele>146.0</ele>
                <time>2020-08-28T15:10:55.000Z</time>
                <name>Trackpoint 7041</name>
            </trkpt>
            <trkpt lat="49.834736" lon="9.584568">
                <ele>146.0</ele>
                <time>2020-08-28T15:10:57.000Z</time>
                <name>Trackpoint 7042</name>
            </trkpt>
            <trkpt lat="49.8346496" lon="9.5844784">
                <ele>146.0</ele>
                <time>2020-08-28T15:10:59.000Z</time>
                <name>Trackpoint 7043</name>
            </trkpt>
            <trkpt lat="49.8345728" lon="9.5843984">
                <ele>147.0</ele>
                <time>2020-08-28T15:11:01.000Z</time>
                <name>Trackpoint 7044</name>
            </trkpt>
            <trkpt lat="49.8344992" lon="9.5843264">
                <ele>147.0</ele>
                <time>2020-08-28T15:11:03.000Z</time>
                <name>Trackpoint 7045</name>
            </trkpt>
            <trkpt lat="49.8344352" lon="9.5842352">
                <ele>147.0</ele>
                <time>2020-08-28T15:11:05.000Z</time>
                <name>Trackpoint 7046</name>
            </trkpt>
            <trkpt lat="49.8343712" lon="9.5841264">
                <ele>146.0</ele>
                <time>2020-08-28T15:11:07.000Z</time>
                <name>Trackpoint 7047</name>
            </trkpt>
            <trkpt lat="49.8342816" lon="9.5840304">
                <ele>146.0</ele>
                <time>2020-08-28T15:11:09.000Z</time>
                <name>Trackpoint 7048</name>
            </trkpt>
            <trkpt lat="49.8341824" lon="9.583948">
                <ele>146.0</ele>
                <time>2020-08-28T15:11:11.000Z</time>
                <name>Trackpoint 7049</name>
            </trkpt>
            <trkpt lat="49.83408" lon="9.5838736">
                <ele>145.0</ele>
                <time>2020-08-28T15:11:13.000Z</time>
                <name>Trackpoint 7050</name>
            </trkpt>
            <trkpt lat="49.8339776" lon="9.5837944">
                <ele>145.0</ele>
                <time>2020-08-28T15:11:15.000Z</time>
                <name>Trackpoint 7051</name>
            </trkpt>
            <trkpt lat="49.8338784" lon="9.5837248">
                <ele>145.0</ele>
                <time>2020-08-28T15:11:17.000Z</time>
                <name>Trackpoint 7052</name>
            </trkpt>
            <trkpt lat="49.8337792" lon="9.583656">
                <ele>145.0</ele>
                <time>2020-08-28T15:11:19.000Z</time>
                <name>Trackpoint 7053</name>
            </trkpt>
            <trkpt lat="49.8336864" lon="9.5835896">
                <ele>144.0</ele>
                <time>2020-08-28T15:11:21.000Z</time>
                <name>Trackpoint 7054</name>
            </trkpt>
            <trkpt lat="49.8335968" lon="9.5835288">
                <ele>144.0</ele>
                <time>2020-08-28T15:11:23.000Z</time>
                <name>Trackpoint 7055</name>
            </trkpt>
            <trkpt lat="49.8335008" lon="9.5834704">
                <ele>144.0</ele>
                <time>2020-08-28T15:11:25.000Z</time>
                <name>Trackpoint 7056</name>
            </trkpt>
            <trkpt lat="49.833408" lon="9.5834048">
                <ele>144.0</ele>
                <time>2020-08-28T15:11:27.000Z</time>
                <name>Trackpoint 7057</name>
            </trkpt>
            <trkpt lat="49.8333184" lon="9.5833352">
                <ele>145.0</ele>
                <time>2020-08-28T15:11:29.000Z</time>
                <name>Trackpoint 7058</name>
            </trkpt>
            <trkpt lat="49.8332224" lon="9.5832664">
                <ele>145.0</ele>
                <time>2020-08-28T15:11:31.000Z</time>
                <name>Trackpoint 7059</name>
            </trkpt>
            <trkpt lat="49.8331232" lon="9.5832032">
                <ele>145.0</ele>
                <time>2020-08-28T15:11:33.000Z</time>
                <name>Trackpoint 7060</name>
            </trkpt>
            <trkpt lat="49.8330272" lon="9.5831296">
                <ele>146.0</ele>
                <time>2020-08-28T15:11:35.000Z</time>
                <name>Trackpoint 7061</name>
            </trkpt>
            <trkpt lat="49.832928" lon="9.5830648">
                <ele>146.0</ele>
                <time>2020-08-28T15:11:37.000Z</time>
                <name>Trackpoint 7062</name>
            </trkpt>
            <trkpt lat="49.832832" lon="9.582996">
                <ele>146.0</ele>
                <time>2020-08-28T15:11:39.000Z</time>
                <name>Trackpoint 7063</name>
            </trkpt>
            <trkpt lat="49.8327328" lon="9.5829288">
                <ele>146.0</ele>
                <time>2020-08-28T15:11:41.000Z</time>
                <name>Trackpoint 7064</name>
            </trkpt>
            <trkpt lat="49.8326304" lon="9.5828648">
                <ele>145.0</ele>
                <time>2020-08-28T15:11:43.000Z</time>
                <name>Trackpoint 7065</name>
            </trkpt>
            <trkpt lat="49.8325312" lon="9.5828">
                <ele>145.0</ele>
                <time>2020-08-28T15:11:45.000Z</time>
                <name>Trackpoint 7066</name>
            </trkpt>
            <trkpt lat="49.8324288" lon="9.5827312">
                <ele>145.0</ele>
                <time>2020-08-28T15:11:47.000Z</time>
                <name>Trackpoint 7067</name>
            </trkpt>
            <trkpt lat="49.8323296" lon="9.5826656">
                <ele>145.0</ele>
                <time>2020-08-28T15:11:49.000Z</time>
                <name>Trackpoint 7068</name>
            </trkpt>
            <trkpt lat="49.8322208" lon="9.5826056">
                <ele>145.0</ele>
                <time>2020-08-28T15:11:51.000Z</time>
                <name>Trackpoint 7069</name>
            </trkpt>
            <trkpt lat="49.8321184" lon="9.582548">
                <ele>145.0</ele>
                <time>2020-08-28T15:11:53.000Z</time>
                <name>Trackpoint 7070</name>
            </trkpt>
            <trkpt lat="49.832016" lon="9.5824896">
                <ele>145.0</ele>
                <time>2020-08-28T15:11:55.000Z</time>
                <name>Trackpoint 7071</name>
            </trkpt>
            <trkpt lat="49.8319168" lon="9.582428">
                <ele>145.0</ele>
                <time>2020-08-28T15:11:57.000Z</time>
                <name>Trackpoint 7072</name>
            </trkpt>
            <trkpt lat="49.8318144" lon="9.5823672">
                <ele>146.0</ele>
                <time>2020-08-28T15:11:59.000Z</time>
                <name>Trackpoint 7073</name>
            </trkpt>
            <trkpt lat="49.8317152" lon="9.5823096">
                <ele>146.0</ele>
                <time>2020-08-28T15:12:01.000Z</time>
                <name>Trackpoint 7074</name>
            </trkpt>
            <trkpt lat="49.831616" lon="9.582256">
                <ele>146.0</ele>
                <time>2020-08-28T15:12:03.000Z</time>
                <name>Trackpoint 7075</name>
            </trkpt>
            <trkpt lat="49.8315168" lon="9.5822016">
                <ele>146.0</ele>
                <time>2020-08-28T15:12:05.000Z</time>
                <name>Trackpoint 7076</name>
            </trkpt>
            <trkpt lat="49.8314144" lon="9.5821536">
                <ele>146.0</ele>
                <time>2020-08-28T15:12:07.000Z</time>
                <name>Trackpoint 7077</name>
            </trkpt>
            <trkpt lat="49.8313152" lon="9.5821216">
                <ele>145.0</ele>
                <time>2020-08-28T15:12:09.000Z</time>
                <name>Trackpoint 7078</name>
            </trkpt>
            <trkpt lat="49.8312096" lon="9.5820984">
                <ele>145.0</ele>
                <time>2020-08-28T15:12:11.000Z</time>
                <name>Trackpoint 7079</name>
            </trkpt>
            <trkpt lat="49.8311168" lon="9.5820752">
                <ele>144.0</ele>
                <time>2020-08-28T15:12:13.000Z</time>
                <name>Trackpoint 7080</name>
            </trkpt>
            <trkpt lat="49.8310208" lon="9.5820552">
                <ele>142.0</ele>
                <time>2020-08-28T15:12:15.000Z</time>
                <name>Trackpoint 7081</name>
            </trkpt>
            <trkpt lat="49.8309248" lon="9.5820328">
                <ele>140.0</ele>
                <time>2020-08-28T15:12:17.000Z</time>
                <name>Trackpoint 7082</name>
            </trkpt>
            <trkpt lat="49.8308288" lon="9.5820104">
                <ele>139.0</ele>
                <time>2020-08-28T15:12:19.000Z</time>
                <name>Trackpoint 7083</name>
            </trkpt>
            <trkpt lat="49.8307328" lon="9.5819952">
                <ele>136.0</ele>
                <time>2020-08-28T15:12:21.000Z</time>
                <name>Trackpoint 7084</name>
            </trkpt>
            <trkpt lat="49.83064" lon="9.5819704">
                <ele>134.0</ele>
                <time>2020-08-28T15:12:23.000Z</time>
                <name>Trackpoint 7085</name>
            </trkpt>
            <trkpt lat="49.830544" lon="9.5819016">
                <ele>139.0</ele>
                <time>2020-08-28T15:12:25.000Z</time>
                <name>Trackpoint 7086</name>
            </trkpt>
            <trkpt lat="49.8304608" lon="9.5818528">
                <ele>140.0</ele>
                <time>2020-08-28T15:12:27.000Z</time>
                <name>Trackpoint 7087</name>
            </trkpt>
            <trkpt lat="49.830368" lon="9.5818096">
                <ele>140.0</ele>
                <time>2020-08-28T15:12:29.000Z</time>
                <name>Trackpoint 7088</name>
            </trkpt>
            <trkpt lat="49.8302688" lon="9.5817816">
                <ele>140.0</ele>
                <time>2020-08-28T15:12:31.000Z</time>
                <name>Trackpoint 7089</name>
            </trkpt>
            <trkpt lat="49.8301856" lon="9.5817472">
                <ele>141.0</ele>
                <time>2020-08-28T15:12:33.000Z</time>
                <name>Trackpoint 7090</name>
            </trkpt>
            <trkpt lat="49.8300928" lon="9.5817032">
                <ele>141.0</ele>
                <time>2020-08-28T15:12:35.000Z</time>
                <name>Trackpoint 7091</name>
            </trkpt>
            <trkpt lat="49.8299968" lon="9.5816432">
                <ele>141.0</ele>
                <time>2020-08-28T15:12:37.000Z</time>
                <name>Trackpoint 7092</name>
            </trkpt>
            <trkpt lat="49.8298976" lon="9.581596">
                <ele>141.0</ele>
                <time>2020-08-28T15:12:39.000Z</time>
                <name>Trackpoint 7093</name>
            </trkpt>
            <trkpt lat="49.829808" lon="9.5815264">
                <ele>142.0</ele>
                <time>2020-08-28T15:12:41.000Z</time>
                <name>Trackpoint 7094</name>
            </trkpt>
            <trkpt lat="49.8297088" lon="9.5814848">
                <ele>143.0</ele>
                <time>2020-08-28T15:12:43.000Z</time>
                <name>Trackpoint 7095</name>
            </trkpt>
            <trkpt lat="49.8296128" lon="9.5814288">
                <ele>143.0</ele>
                <time>2020-08-28T15:12:45.000Z</time>
                <name>Trackpoint 7096</name>
            </trkpt>
            <trkpt lat="49.8295104" lon="9.5813704">
                <ele>143.0</ele>
                <time>2020-08-28T15:12:47.000Z</time>
                <name>Trackpoint 7097</name>
            </trkpt>
            <trkpt lat="49.829408" lon="9.581308">
                <ele>143.0</ele>
                <time>2020-08-28T15:12:49.000Z</time>
                <name>Trackpoint 7098</name>
            </trkpt>
            <trkpt lat="49.8293088" lon="9.5812584">
                <ele>144.0</ele>
                <time>2020-08-28T15:12:51.000Z</time>
                <name>Trackpoint 7099</name>
            </trkpt>
            <trkpt lat="49.8292096" lon="9.5812104">
                <ele>145.0</ele>
                <time>2020-08-28T15:12:53.000Z</time>
                <name>Trackpoint 7100</name>
            </trkpt>
            <trkpt lat="49.8291136" lon="9.5811656">
                <ele>145.0</ele>
                <time>2020-08-28T15:12:55.000Z</time>
                <name>Trackpoint 7101</name>
            </trkpt>
            <trkpt lat="49.8290144" lon="9.5811032">
                <ele>144.0</ele>
                <time>2020-08-28T15:12:57.000Z</time>
                <name>Trackpoint 7102</name>
            </trkpt>
            <trkpt lat="49.828912" lon="9.5810632">
                <ele>144.0</ele>
                <time>2020-08-28T15:12:59.000Z</time>
                <name>Trackpoint 7103</name>
            </trkpt>
            <trkpt lat="49.8288128" lon="9.581032">
                <ele>142.0</ele>
                <time>2020-08-28T15:13:01.000Z</time>
                <name>Trackpoint 7104</name>
            </trkpt>
            <trkpt lat="49.8287136" lon="9.5809968">
                <ele>141.0</ele>
                <time>2020-08-28T15:13:03.000Z</time>
                <name>Trackpoint 7105</name>
            </trkpt>
            <trkpt lat="49.828608" lon="9.58096">
                <ele>142.0</ele>
                <time>2020-08-28T15:13:05.000Z</time>
                <name>Trackpoint 7106</name>
            </trkpt>
            <trkpt lat="49.8285088" lon="9.5809032">
                <ele>142.0</ele>
                <time>2020-08-28T15:13:07.000Z</time>
                <name>Trackpoint 7107</name>
            </trkpt>
            <trkpt lat="49.8284064" lon="9.58084">
                <ele>143.0</ele>
                <time>2020-08-28T15:13:09.000Z</time>
                <name>Trackpoint 7108</name>
            </trkpt>
            <trkpt lat="49.828304" lon="9.5807896">
                <ele>145.0</ele>
                <time>2020-08-28T15:13:11.000Z</time>
                <name>Trackpoint 7109</name>
            </trkpt>
            <trkpt lat="49.8282016" lon="9.58074">
                <ele>145.0</ele>
                <time>2020-08-28T15:13:13.000Z</time>
                <name>Trackpoint 7110</name>
            </trkpt>
            <trkpt lat="49.8281056" lon="9.5807104">
                <ele>145.0</ele>
                <time>2020-08-28T15:13:15.000Z</time>
                <name>Trackpoint 7111</name>
            </trkpt>
            <trkpt lat="49.8280096" lon="9.5806816">
                <ele>145.0</ele>
                <time>2020-08-28T15:13:17.000Z</time>
                <name>Trackpoint 7112</name>
            </trkpt>
            <trkpt lat="49.82792" lon="9.5806488">
                <ele>145.0</ele>
                <time>2020-08-28T15:13:19.000Z</time>
                <name>Trackpoint 7113</name>
            </trkpt>
            <trkpt lat="49.8277984" lon="9.580608">
                <ele>145.0</ele>
                <time>2020-08-28T15:13:22.000Z</time>
                <name>Trackpoint 7114</name>
            </trkpt>
            <trkpt lat="49.8277088" lon="9.5805504">
                <ele>145.0</ele>
                <time>2020-08-28T15:13:24.000Z</time>
                <name>Trackpoint 7115</name>
            </trkpt>
            <trkpt lat="49.8276224" lon="9.5804984">
                <ele>145.0</ele>
                <time>2020-08-28T15:13:26.000Z</time>
                <name>Trackpoint 7116</name>
            </trkpt>
            <trkpt lat="49.8275328" lon="9.580428">
                <ele>146.0</ele>
                <time>2020-08-28T15:13:28.000Z</time>
                <name>Trackpoint 7117</name>
            </trkpt>
            <trkpt lat="49.8274464" lon="9.5803616">
                <ele>146.0</ele>
                <time>2020-08-28T15:13:30.000Z</time>
                <name>Trackpoint 7118</name>
            </trkpt>
            <trkpt lat="49.8273472" lon="9.5803">
                <ele>146.0</ele>
                <time>2020-08-28T15:13:32.000Z</time>
                <name>Trackpoint 7119</name>
            </trkpt>
            <trkpt lat="49.827248" lon="9.5802496">
                <ele>146.0</ele>
                <time>2020-08-28T15:13:34.000Z</time>
                <name>Trackpoint 7120</name>
            </trkpt>
            <trkpt lat="49.8271456" lon="9.5802024">
                <ele>146.0</ele>
                <time>2020-08-28T15:13:36.000Z</time>
                <name>Trackpoint 7121</name>
            </trkpt>
            <trkpt lat="49.8270432" lon="9.5801624">
                <ele>146.0</ele>
                <time>2020-08-28T15:13:38.000Z</time>
                <name>Trackpoint 7122</name>
            </trkpt>
            <trkpt lat="49.826944" lon="9.5801248">
                <ele>146.0</ele>
                <time>2020-08-28T15:13:40.000Z</time>
                <name>Trackpoint 7123</name>
            </trkpt>
            <trkpt lat="49.8268384" lon="9.5800936">
                <ele>146.0</ele>
                <time>2020-08-28T15:13:42.000Z</time>
                <name>Trackpoint 7124</name>
            </trkpt>
            <trkpt lat="49.826736" lon="9.5800696">
                <ele>146.0</ele>
                <time>2020-08-28T15:13:44.000Z</time>
                <name>Trackpoint 7125</name>
            </trkpt>
            <trkpt lat="49.8266464" lon="9.5800384">
                <ele>146.0</ele>
                <time>2020-08-28T15:13:46.000Z</time>
                <name>Trackpoint 7126</name>
            </trkpt>
            <trkpt lat="49.8265408" lon="9.5799888">
                <ele>146.0</ele>
                <time>2020-08-28T15:13:48.000Z</time>
                <name>Trackpoint 7127</name>
            </trkpt>
            <trkpt lat="49.8264352" lon="9.579944">
                <ele>146.0</ele>
                <time>2020-08-28T15:13:50.000Z</time>
                <name>Trackpoint 7128</name>
            </trkpt>
            <trkpt lat="49.82632" lon="9.5799016">
                <ele>146.0</ele>
                <time>2020-08-28T15:13:52.000Z</time>
                <name>Trackpoint 7129</name>
            </trkpt>
            <trkpt lat="49.8262176" lon="9.5798832">
                <ele>146.0</ele>
                <time>2020-08-28T15:13:54.000Z</time>
                <name>Trackpoint 7130</name>
            </trkpt>
            <trkpt lat="49.8261184" lon="9.5798768">
                <ele>146.0</ele>
                <time>2020-08-28T15:13:56.000Z</time>
                <name>Trackpoint 7131</name>
            </trkpt>
            <trkpt lat="49.8260064" lon="9.5798632">
                <ele>146.0</ele>
                <time>2020-08-28T15:13:58.000Z</time>
                <name>Trackpoint 7132</name>
            </trkpt>
            <trkpt lat="49.8258656" lon="9.5798528">
                <ele>146.0</ele>
                <time>2020-08-28T15:14:01.000Z</time>
                <name>Trackpoint 7133</name>
            </trkpt>
            <trkpt lat="49.8257568" lon="9.5798304">
                <ele>146.0</ele>
                <time>2020-08-28T15:14:03.000Z</time>
                <name>Trackpoint 7134</name>
            </trkpt>
            <trkpt lat="49.8256576" lon="9.579808">
                <ele>146.0</ele>
                <time>2020-08-28T15:14:05.000Z</time>
                <name>Trackpoint 7135</name>
            </trkpt>
            <trkpt lat="49.8255616" lon="9.5797928">
                <ele>146.0</ele>
                <time>2020-08-28T15:14:07.000Z</time>
                <name>Trackpoint 7136</name>
            </trkpt>
            <trkpt lat="49.8254592" lon="9.5797704">
                <ele>146.0</ele>
                <time>2020-08-28T15:14:09.000Z</time>
                <name>Trackpoint 7137</name>
            </trkpt>
            <trkpt lat="49.8253504" lon="9.579752">
                <ele>146.0</ele>
                <time>2020-08-28T15:14:11.000Z</time>
                <name>Trackpoint 7138</name>
            </trkpt>
            <trkpt lat="49.8252448" lon="9.5797416">
                <ele>146.0</ele>
                <time>2020-08-28T15:14:13.000Z</time>
                <name>Trackpoint 7139</name>
            </trkpt>
            <trkpt lat="49.8251296" lon="9.5797352">
                <ele>146.0</ele>
                <time>2020-08-28T15:14:15.000Z</time>
                <name>Trackpoint 7140</name>
            </trkpt>
            <trkpt lat="49.8250304" lon="9.5797352">
                <ele>146.0</ele>
                <time>2020-08-28T15:14:17.000Z</time>
                <name>Trackpoint 7141</name>
            </trkpt>
            <trkpt lat="49.8248928" lon="9.5797456">
                <ele>146.0</ele>
                <time>2020-08-28T15:14:20.000Z</time>
                <name>Trackpoint 7142</name>
            </trkpt>
            <trkpt lat="49.8248032" lon="9.5797352">
                <ele>147.0</ele>
                <time>2020-08-28T15:14:22.000Z</time>
                <name>Trackpoint 7143</name>
            </trkpt>
            <trkpt lat="49.8246816" lon="9.5797464">
                <ele>147.0</ele>
                <time>2020-08-28T15:14:25.000Z</time>
                <name>Trackpoint 7144</name>
            </trkpt>
            <trkpt lat="49.8245472" lon="9.5797592">
                <ele>147.0</ele>
                <time>2020-08-28T15:14:28.000Z</time>
                <name>Trackpoint 7145</name>
            </trkpt>
            <trkpt lat="49.8244256" lon="9.5797832">
                <ele>148.0</ele>
                <time>2020-08-28T15:14:31.000Z</time>
                <name>Trackpoint 7146</name>
            </trkpt>
            <trkpt lat="49.8243296" lon="9.5798064">
                <ele>148.0</ele>
                <time>2020-08-28T15:14:33.000Z</time>
                <name>Trackpoint 7147</name>
            </trkpt>
            <trkpt lat="49.8242112" lon="9.5798264">
                <ele>148.0</ele>
                <time>2020-08-28T15:14:35.000Z</time>
                <name>Trackpoint 7148</name>
            </trkpt>
            <trkpt lat="49.8241088" lon="9.579848">
                <ele>148.0</ele>
                <time>2020-08-28T15:14:37.000Z</time>
                <name>Trackpoint 7149</name>
            </trkpt>
            <trkpt lat="49.8240064" lon="9.5798816">
                <ele>149.0</ele>
                <time>2020-08-28T15:14:39.000Z</time>
                <name>Trackpoint 7150</name>
            </trkpt>
            <trkpt lat="49.8239136" lon="9.57992">
                <ele>149.0</ele>
                <time>2020-08-28T15:14:41.000Z</time>
                <name>Trackpoint 7151</name>
            </trkpt>
            <trkpt lat="49.8238176" lon="9.5799448">
                <ele>148.0</ele>
                <time>2020-08-28T15:14:43.000Z</time>
                <name>Trackpoint 7152</name>
            </trkpt>
            <trkpt lat="49.823696" lon="9.5799848">
                <ele>149.0</ele>
                <time>2020-08-28T15:14:46.000Z</time>
                <name>Trackpoint 7153</name>
            </trkpt>
            <trkpt lat="49.8235968" lon="9.5800048">
                <ele>149.0</ele>
                <time>2020-08-28T15:14:48.000Z</time>
                <name>Trackpoint 7154</name>
            </trkpt>
            <trkpt lat="49.8234944" lon="9.5800264">
                <ele>149.0</ele>
                <time>2020-08-28T15:14:50.000Z</time>
                <name>Trackpoint 7155</name>
            </trkpt>
            <trkpt lat="49.8233952" lon="9.5800552">
                <ele>148.0</ele>
                <time>2020-08-28T15:14:52.000Z</time>
                <name>Trackpoint 7156</name>
            </trkpt>
            <trkpt lat="49.823296" lon="9.5800848">
                <ele>148.0</ele>
                <time>2020-08-28T15:14:54.000Z</time>
                <name>Trackpoint 7157</name>
            </trkpt>
            <trkpt lat="49.8232" lon="9.5801288">
                <ele>148.0</ele>
                <time>2020-08-28T15:14:56.000Z</time>
                <name>Trackpoint 7158</name>
            </trkpt>
            <trkpt lat="49.8230752" lon="9.580196">
                <ele>148.0</ele>
                <time>2020-08-28T15:14:59.000Z</time>
                <name>Trackpoint 7159</name>
            </trkpt>
            <trkpt lat="49.822992" lon="9.5802584">
                <ele>149.0</ele>
                <time>2020-08-28T15:15:01.000Z</time>
                <name>Trackpoint 7160</name>
            </trkpt>
            <trkpt lat="49.8229216" lon="9.5803184">
                <ele>149.0</ele>
                <time>2020-08-28T15:15:03.000Z</time>
                <name>Trackpoint 7161</name>
            </trkpt>
            <trkpt lat="49.8228288" lon="9.5803816">
                <ele>149.0</ele>
                <time>2020-08-28T15:15:06.000Z</time>
                <name>Trackpoint 7162</name>
            </trkpt>
            <trkpt lat="49.8227104" lon="9.5804008">
                <ele>149.0</ele>
                <time>2020-08-28T15:15:10.000Z</time>
                <name>Trackpoint 7163</name>
            </trkpt>
            <trkpt lat="49.8226176" lon="9.5804264">
                <ele>149.0</ele>
                <time>2020-08-28T15:15:13.000Z</time>
                <name>Trackpoint 7164</name>
            </trkpt>
            <trkpt lat="49.8225248" lon="9.5804416">
                <ele>149.0</ele>
                <time>2020-08-28T15:21:22.000Z</time>
                <name>Trackpoint 7165</name>
            </trkpt>
            <trkpt lat="49.8224224" lon="9.5804616">
                <ele>149.0</ele>
                <time>2020-08-28T15:21:26.000Z</time>
                <name>Trackpoint 7166</name>
            </trkpt>
            <trkpt lat="49.8223168" lon="9.580468">
                <ele>149.0</ele>
                <time>2020-08-28T15:21:29.000Z</time>
                <name>Trackpoint 7167</name>
            </trkpt>
            <trkpt lat="49.8221984" lon="9.580492">
                <ele>149.0</ele>
                <time>2020-08-28T15:21:32.000Z</time>
                <name>Trackpoint 7168</name>
            </trkpt>
            <trkpt lat="49.8220736" lon="9.5805232">
                <ele>149.0</ele>
                <time>2020-08-28T15:21:35.000Z</time>
                <name>Trackpoint 7169</name>
            </trkpt>
            <trkpt lat="49.8219456" lon="9.5805552">
                <ele>149.0</ele>
                <time>2020-08-28T15:21:38.000Z</time>
                <name>Trackpoint 7170</name>
            </trkpt>
            <trkpt lat="49.8218208" lon="9.5805832">
                <ele>149.0</ele>
                <time>2020-08-28T15:21:41.000Z</time>
                <name>Trackpoint 7171</name>
            </trkpt>
            <trkpt lat="49.821696" lon="9.5806112">
                <ele>149.0</ele>
                <time>2020-08-28T15:21:44.000Z</time>
                <name>Trackpoint 7172</name>
            </trkpt>
            <trkpt lat="49.8215744" lon="9.5806448">
                <ele>149.0</ele>
                <time>2020-08-28T15:21:47.000Z</time>
                <name>Trackpoint 7173</name>
            </trkpt>
            <trkpt lat="49.8214592" lon="9.5806912">
                <ele>149.0</ele>
                <time>2020-08-28T15:21:50.000Z</time>
                <name>Trackpoint 7174</name>
            </trkpt>
            <trkpt lat="49.8213504" lon="9.5807304">
                <ele>149.0</ele>
                <time>2020-08-28T15:21:53.000Z</time>
                <name>Trackpoint 7175</name>
            </trkpt>
            <trkpt lat="49.8212576" lon="9.5807696">
                <ele>149.0</ele>
                <time>2020-08-28T15:21:56.000Z</time>
                <name>Trackpoint 7176</name>
            </trkpt>
            <trkpt lat="49.8211488" lon="9.58082">
                <ele>148.0</ele>
                <time>2020-08-28T15:21:59.000Z</time>
                <name>Trackpoint 7177</name>
            </trkpt>
            <trkpt lat="49.8210624" lon="9.5808464">
                <ele>148.0</ele>
                <time>2020-08-28T15:22:01.000Z</time>
                <name>Trackpoint 7178</name>
            </trkpt>
            <trkpt lat="49.8209792" lon="9.5808848">
                <ele>148.0</ele>
                <time>2020-08-28T15:22:03.000Z</time>
                <name>Trackpoint 7179</name>
            </trkpt>
            <trkpt lat="49.8208896" lon="9.5809272">
                <ele>148.0</ele>
                <time>2020-08-28T15:22:05.000Z</time>
                <name>Trackpoint 7180</name>
            </trkpt>
            <trkpt lat="49.8207936" lon="9.580972">
                <ele>148.0</ele>
                <time>2020-08-28T15:22:07.000Z</time>
                <name>Trackpoint 7181</name>
            </trkpt>
            <trkpt lat="49.820704" lon="9.5810168">
                <ele>148.0</ele>
                <time>2020-08-28T15:22:09.000Z</time>
                <name>Trackpoint 7182</name>
            </trkpt>
            <trkpt lat="49.8206208" lon="9.5810568">
                <ele>147.0</ele>
                <time>2020-08-28T15:22:11.000Z</time>
                <name>Trackpoint 7183</name>
            </trkpt>
            <trkpt lat="49.820544" lon="9.5811072">
                <ele>147.0</ele>
                <time>2020-08-28T15:22:13.000Z</time>
                <name>Trackpoint 7184</name>
            </trkpt>
            <trkpt lat="49.820464" lon="9.5811704">
                <ele>147.0</ele>
                <time>2020-08-28T15:22:15.000Z</time>
                <name>Trackpoint 7185</name>
            </trkpt>
            <trkpt lat="49.8203744" lon="9.5812352">
                <ele>147.0</ele>
                <time>2020-08-28T15:22:17.000Z</time>
                <name>Trackpoint 7186</name>
            </trkpt>
            <trkpt lat="49.8202912" lon="9.5813016">
                <ele>147.0</ele>
                <time>2020-08-28T15:22:19.000Z</time>
                <name>Trackpoint 7187</name>
            </trkpt>
            <trkpt lat="49.8202016" lon="9.5813688">
                <ele>147.0</ele>
                <time>2020-08-28T15:22:21.000Z</time>
                <name>Trackpoint 7188</name>
            </trkpt>
            <trkpt lat="49.8201216" lon="9.5814504">
                <ele>147.0</ele>
                <time>2020-08-28T15:22:23.000Z</time>
                <name>Trackpoint 7189</name>
            </trkpt>
            <trkpt lat="49.820048" lon="9.5815584">
                <ele>147.0</ele>
                <time>2020-08-28T15:22:25.000Z</time>
                <name>Trackpoint 7190</name>
            </trkpt>
            <trkpt lat="49.8199776" lon="9.5816472">
                <ele>147.0</ele>
                <time>2020-08-28T15:22:27.000Z</time>
                <name>Trackpoint 7191</name>
            </trkpt>
            <trkpt lat="49.8199072" lon="9.5817144">
                <ele>147.0</ele>
                <time>2020-08-28T15:22:29.000Z</time>
                <name>Trackpoint 7192</name>
            </trkpt>
            <trkpt lat="49.81984" lon="9.5817816">
                <ele>147.0</ele>
                <time>2020-08-28T15:22:31.000Z</time>
                <name>Trackpoint 7193</name>
            </trkpt>
            <trkpt lat="49.8197632" lon="9.5818416">
                <ele>147.0</ele>
                <time>2020-08-28T15:22:33.000Z</time>
                <name>Trackpoint 7194</name>
            </trkpt>
            <trkpt lat="49.8196864" lon="9.5819032">
                <ele>147.0</ele>
                <time>2020-08-28T15:22:35.000Z</time>
                <name>Trackpoint 7195</name>
            </trkpt>
            <trkpt lat="49.8195904" lon="9.5819632">
                <ele>147.0</ele>
                <time>2020-08-28T15:22:37.000Z</time>
                <name>Trackpoint 7196</name>
            </trkpt>
            <trkpt lat="49.8194976" lon="9.582028">
                <ele>147.0</ele>
                <time>2020-08-28T15:22:39.000Z</time>
                <name>Trackpoint 7197</name>
            </trkpt>
            <trkpt lat="49.8194048" lon="9.5820864">
                <ele>147.0</ele>
                <time>2020-08-28T15:22:41.000Z</time>
                <name>Trackpoint 7198</name>
            </trkpt>
            <trkpt lat="49.819312" lon="9.5821448">
                <ele>147.0</ele>
                <time>2020-08-28T15:22:43.000Z</time>
                <name>Trackpoint 7199</name>
            </trkpt>
            <trkpt lat="49.8191936" lon="9.5822048">
                <ele>147.0</ele>
                <time>2020-08-28T15:22:46.000Z</time>
                <name>Trackpoint 7200</name>
            </trkpt>
            <trkpt lat="49.8190912" lon="9.5822672">
                <ele>147.0</ele>
                <time>2020-08-28T15:22:49.000Z</time>
                <name>Trackpoint 7201</name>
            </trkpt>
            <trkpt lat="49.8189856" lon="9.5823408">
                <ele>147.0</ele>
                <time>2020-08-28T15:22:52.000Z</time>
                <name>Trackpoint 7202</name>
            </trkpt>
            <trkpt lat="49.8189088" lon="9.582388">
                <ele>146.0</ele>
                <time>2020-08-28T15:22:54.000Z</time>
                <name>Trackpoint 7203</name>
            </trkpt>
            <trkpt lat="49.818832" lon="9.5824384">
                <ele>146.0</ele>
                <time>2020-08-28T15:22:56.000Z</time>
                <name>Trackpoint 7204</name>
            </trkpt>
            <trkpt lat="49.8187488" lon="9.5824968">
                <ele>146.0</ele>
                <time>2020-08-28T15:22:58.000Z</time>
                <name>Trackpoint 7205</name>
            </trkpt>
            <trkpt lat="49.8186688" lon="9.582548">
                <ele>146.0</ele>
                <time>2020-08-28T15:23:00.000Z</time>
                <name>Trackpoint 7206</name>
            </trkpt>
            <trkpt lat="49.8185792" lon="9.5826016">
                <ele>147.0</ele>
                <time>2020-08-28T15:23:02.000Z</time>
                <name>Trackpoint 7207</name>
            </trkpt>
            <trkpt lat="49.818496" lon="9.5826656">
                <ele>146.0</ele>
                <time>2020-08-28T15:23:04.000Z</time>
                <name>Trackpoint 7208</name>
            </trkpt>
            <trkpt lat="49.8184128" lon="9.5827304">
                <ele>146.0</ele>
                <time>2020-08-28T15:23:06.000Z</time>
                <name>Trackpoint 7209</name>
            </trkpt>
            <trkpt lat="49.8183264" lon="9.5827984">
                <ele>146.0</ele>
                <time>2020-08-28T15:23:08.000Z</time>
                <name>Trackpoint 7210</name>
            </trkpt>
            <trkpt lat="49.8182336" lon="9.5828648">
                <ele>146.0</ele>
                <time>2020-08-28T15:23:10.000Z</time>
                <name>Trackpoint 7211</name>
            </trkpt>
            <trkpt lat="49.8181472" lon="9.5829352">
                <ele>146.0</ele>
                <time>2020-08-28T15:23:12.000Z</time>
                <name>Trackpoint 7212</name>
            </trkpt>
            <trkpt lat="49.8180576" lon="9.5830072">
                <ele>146.0</ele>
                <time>2020-08-28T15:23:14.000Z</time>
                <name>Trackpoint 7213</name>
            </trkpt>
            <trkpt lat="49.8179712" lon="9.5830784">
                <ele>146.0</ele>
                <time>2020-08-28T15:23:16.000Z</time>
                <name>Trackpoint 7214</name>
            </trkpt>
            <trkpt lat="49.8178848" lon="9.5831448">
                <ele>146.0</ele>
                <time>2020-08-28T15:23:18.000Z</time>
                <name>Trackpoint 7215</name>
            </trkpt>
            <trkpt lat="49.8178112" lon="9.5832136">
                <ele>146.0</ele>
                <time>2020-08-28T15:23:20.000Z</time>
                <name>Trackpoint 7216</name>
            </trkpt>
            <trkpt lat="49.8177312" lon="9.5832704">
                <ele>146.0</ele>
                <time>2020-08-28T15:23:22.000Z</time>
                <name>Trackpoint 7217</name>
            </trkpt>
            <trkpt lat="49.8176544" lon="9.583328">
                <ele>146.0</ele>
                <time>2020-08-28T15:23:24.000Z</time>
                <name>Trackpoint 7218</name>
            </trkpt>
            <trkpt lat="49.8175712" lon="9.5833856">
                <ele>146.0</ele>
                <time>2020-08-28T15:23:26.000Z</time>
                <name>Trackpoint 7219</name>
            </trkpt>
            <trkpt lat="49.8174592" lon="9.583464">
                <ele>146.0</ele>
                <time>2020-08-28T15:23:29.000Z</time>
                <name>Trackpoint 7220</name>
            </trkpt>
            <trkpt lat="49.8173472" lon="9.5835384">
                <ele>145.0</ele>
                <time>2020-08-28T15:23:32.000Z</time>
                <name>Trackpoint 7221</name>
            </trkpt>
            <trkpt lat="49.817248" lon="9.58362">
                <ele>145.0</ele>
                <time>2020-08-28T15:23:35.000Z</time>
                <name>Trackpoint 7222</name>
            </trkpt>
            <trkpt lat="49.817184" lon="9.5836984">
                <ele>145.0</ele>
                <time>2020-08-28T15:23:39.000Z</time>
                <name>Trackpoint 7223</name>
            </trkpt>
            <trkpt lat="49.817104" lon="9.583752">
                <ele>145.0</ele>
                <time>2020-08-28T15:24:30.000Z</time>
                <name>Trackpoint 7224</name>
            </trkpt>
            <trkpt lat="49.817024" lon="9.5838368">
                <ele>145.0</ele>
                <time>2020-08-28T15:24:33.000Z</time>
                <name>Trackpoint 7225</name>
            </trkpt>
            <trkpt lat="49.81696" lon="9.5839072">
                <ele>145.0</ele>
                <time>2020-08-28T15:24:35.000Z</time>
                <name>Trackpoint 7226</name>
            </trkpt>
            <trkpt lat="49.8168864" lon="9.5839816">
                <ele>145.0</ele>
                <time>2020-08-28T15:24:37.000Z</time>
                <name>Trackpoint 7227</name>
            </trkpt>
            <trkpt lat="49.8168192" lon="9.5840584">
                <ele>145.0</ele>
                <time>2020-08-28T15:24:39.000Z</time>
                <name>Trackpoint 7228</name>
            </trkpt>
            <trkpt lat="49.8167584" lon="9.5841352">
                <ele>145.0</ele>
                <time>2020-08-28T15:24:41.000Z</time>
                <name>Trackpoint 7229</name>
            </trkpt>
            <trkpt lat="49.816688" lon="9.5842152">
                <ele>145.0</ele>
                <time>2020-08-28T15:24:43.000Z</time>
                <name>Trackpoint 7230</name>
            </trkpt>
            <trkpt lat="49.8166208" lon="9.5843016">
                <ele>145.0</ele>
                <time>2020-08-28T15:24:45.000Z</time>
                <name>Trackpoint 7231</name>
            </trkpt>
            <trkpt lat="49.8165472" lon="9.5843888">
                <ele>145.0</ele>
                <time>2020-08-28T15:24:47.000Z</time>
                <name>Trackpoint 7232</name>
            </trkpt>
            <trkpt lat="49.81648" lon="9.584488">
                <ele>145.0</ele>
                <time>2020-08-28T15:24:49.000Z</time>
                <name>Trackpoint 7233</name>
            </trkpt>
            <trkpt lat="49.8164096" lon="9.5845848">
                <ele>145.0</ele>
                <time>2020-08-28T15:24:51.000Z</time>
                <name>Trackpoint 7234</name>
            </trkpt>
            <trkpt lat="49.8163424" lon="9.5846816">
                <ele>145.0</ele>
                <time>2020-08-28T15:24:53.000Z</time>
                <name>Trackpoint 7235</name>
            </trkpt>
            <trkpt lat="49.816272" lon="9.5847832">
                <ele>145.0</ele>
                <time>2020-08-28T15:24:55.000Z</time>
                <name>Trackpoint 7236</name>
            </trkpt>
            <trkpt lat="49.8162048" lon="9.5848936">
                <ele>146.0</ele>
                <time>2020-08-28T15:24:57.000Z</time>
                <name>Trackpoint 7237</name>
            </trkpt>
            <trkpt lat="49.8161344" lon="9.5849984">
                <ele>145.0</ele>
                <time>2020-08-28T15:24:59.000Z</time>
                <name>Trackpoint 7238</name>
            </trkpt>
            <trkpt lat="49.8160736" lon="9.5851">
                <ele>145.0</ele>
                <time>2020-08-28T15:25:01.000Z</time>
                <name>Trackpoint 7239</name>
            </trkpt>
            <trkpt lat="49.8160256" lon="9.5851872">
                <ele>146.0</ele>
                <time>2020-08-28T15:25:03.000Z</time>
                <name>Trackpoint 7240</name>
            </trkpt>
            <trkpt lat="49.8159584" lon="9.5852816">
                <ele>146.0</ele>
                <time>2020-08-28T15:25:05.000Z</time>
                <name>Trackpoint 7241</name>
            </trkpt>
            <trkpt lat="49.815888" lon="9.5853856">
                <ele>146.0</ele>
                <time>2020-08-28T15:25:07.000Z</time>
                <name>Trackpoint 7242</name>
            </trkpt>
            <trkpt lat="49.815824" lon="9.5854864">
                <ele>146.0</ele>
                <time>2020-08-28T15:25:09.000Z</time>
                <name>Trackpoint 7243</name>
            </trkpt>
            <trkpt lat="49.8157536" lon="9.5855912">
                <ele>146.0</ele>
                <time>2020-08-28T15:25:11.000Z</time>
                <name>Trackpoint 7244</name>
            </trkpt>
            <trkpt lat="49.8156896" lon="9.5856952">
                <ele>146.0</ele>
                <time>2020-08-28T15:25:13.000Z</time>
                <name>Trackpoint 7245</name>
            </trkpt>
            <trkpt lat="49.8156192" lon="9.5858088">
                <ele>147.0</ele>
                <time>2020-08-28T15:25:15.000Z</time>
                <name>Trackpoint 7246</name>
            </trkpt>
            <trkpt lat="49.8155584" lon="9.5859232">
                <ele>147.0</ele>
                <time>2020-08-28T15:25:17.000Z</time>
                <name>Trackpoint 7247</name>
            </trkpt>
            <trkpt lat="49.8155104" lon="9.5860304">
                <ele>147.0</ele>
                <time>2020-08-28T15:25:19.000Z</time>
                <name>Trackpoint 7248</name>
            </trkpt>
            <trkpt lat="49.8154592" lon="9.5861352">
                <ele>147.0</ele>
                <time>2020-08-28T15:25:21.000Z</time>
                <name>Trackpoint 7249</name>
            </trkpt>
            <trkpt lat="49.8154112" lon="9.586244">
                <ele>148.0</ele>
                <time>2020-08-28T15:25:23.000Z</time>
                <name>Trackpoint 7250</name>
            </trkpt>
            <trkpt lat="49.8153568" lon="9.5863552">
                <ele>148.0</ele>
                <time>2020-08-28T15:25:25.000Z</time>
                <name>Trackpoint 7251</name>
            </trkpt>
            <trkpt lat="49.815312" lon="9.5864696">
                <ele>148.0</ele>
                <time>2020-08-28T15:25:27.000Z</time>
                <name>Trackpoint 7252</name>
            </trkpt>
            <trkpt lat="49.8152672" lon="9.5865872">
                <ele>148.0</ele>
                <time>2020-08-28T15:25:29.000Z</time>
                <name>Trackpoint 7253</name>
            </trkpt>
            <trkpt lat="49.8152224" lon="9.5867072">
                <ele>148.0</ele>
                <time>2020-08-28T15:25:31.000Z</time>
                <name>Trackpoint 7254</name>
            </trkpt>
            <trkpt lat="49.8151808" lon="9.58682">
                <ele>148.0</ele>
                <time>2020-08-28T15:25:33.000Z</time>
                <name>Trackpoint 7255</name>
            </trkpt>
            <trkpt lat="49.8151296" lon="9.5869248">
                <ele>148.0</ele>
                <time>2020-08-28T15:25:35.000Z</time>
                <name>Trackpoint 7256</name>
            </trkpt>
            <trkpt lat="49.815072" lon="9.58702">
                <ele>148.0</ele>
                <time>2020-08-28T15:25:37.000Z</time>
                <name>Trackpoint 7257</name>
            </trkpt>
            <trkpt lat="49.8149952" lon="9.5871152">
                <ele>148.0</ele>
                <time>2020-08-28T15:25:39.000Z</time>
                <name>Trackpoint 7258</name>
            </trkpt>
            <trkpt lat="49.8149216" lon="9.5872224">
                <ele>148.0</ele>
                <time>2020-08-28T15:25:41.000Z</time>
                <name>Trackpoint 7259</name>
            </trkpt>
            <trkpt lat="49.8148576" lon="9.5873368">
                <ele>148.0</ele>
                <time>2020-08-28T15:25:43.000Z</time>
                <name>Trackpoint 7260</name>
            </trkpt>
            <trkpt lat="49.814784" lon="9.587448">
                <ele>149.0</ele>
                <time>2020-08-28T15:25:45.000Z</time>
                <name>Trackpoint 7261</name>
            </trkpt>
            <trkpt lat="49.81472" lon="9.5875568">
                <ele>149.0</ele>
                <time>2020-08-28T15:25:47.000Z</time>
                <name>Trackpoint 7262</name>
            </trkpt>
            <trkpt lat="49.8146528" lon="9.5876664">
                <ele>149.0</ele>
                <time>2020-08-28T15:25:49.000Z</time>
                <name>Trackpoint 7263</name>
            </trkpt>
            <trkpt lat="49.8145952" lon="9.5877832">
                <ele>149.0</ele>
                <time>2020-08-28T15:25:51.000Z</time>
                <name>Trackpoint 7264</name>
            </trkpt>
            <trkpt lat="49.8145344" lon="9.5879096">
                <ele>149.0</ele>
                <time>2020-08-28T15:25:53.000Z</time>
                <name>Trackpoint 7265</name>
            </trkpt>
            <trkpt lat="49.81448" lon="9.5880472">
                <ele>149.0</ele>
                <time>2020-08-28T15:25:55.000Z</time>
                <name>Trackpoint 7266</name>
            </trkpt>
            <trkpt lat="49.8144288" lon="9.5881864">
                <ele>148.0</ele>
                <time>2020-08-28T15:25:57.000Z</time>
                <name>Trackpoint 7267</name>
            </trkpt>
            <trkpt lat="49.814368" lon="9.5883232">
                <ele>149.0</ele>
                <time>2020-08-28T15:25:59.000Z</time>
                <name>Trackpoint 7268</name>
            </trkpt>
            <trkpt lat="49.8143168" lon="9.5884504">
                <ele>149.0</ele>
                <time>2020-08-28T15:26:01.000Z</time>
                <name>Trackpoint 7269</name>
            </trkpt>
            <trkpt lat="49.8142464" lon="9.5885624">
                <ele>149.0</ele>
                <time>2020-08-28T15:26:03.000Z</time>
                <name>Trackpoint 7270</name>
            </trkpt>
            <trkpt lat="49.8141824" lon="9.588672">
                <ele>149.0</ele>
                <time>2020-08-28T15:26:05.000Z</time>
                <name>Trackpoint 7271</name>
            </trkpt>
            <trkpt lat="49.8141216" lon="9.5887968">
                <ele>149.0</ele>
                <time>2020-08-28T15:26:07.000Z</time>
                <name>Trackpoint 7272</name>
            </trkpt>
            <trkpt lat="49.8140704" lon="9.5889352">
                <ele>149.0</ele>
                <time>2020-08-28T15:26:09.000Z</time>
                <name>Trackpoint 7273</name>
            </trkpt>
            <trkpt lat="49.814032" lon="9.5890768">
                <ele>149.0</ele>
                <time>2020-08-28T15:26:11.000Z</time>
                <name>Trackpoint 7274</name>
            </trkpt>
            <trkpt lat="49.814" lon="9.5892248">
                <ele>149.0</ele>
                <time>2020-08-28T15:26:13.000Z</time>
                <name>Trackpoint 7275</name>
            </trkpt>
            <trkpt lat="49.8139648" lon="9.5893784">
                <ele>148.0</ele>
                <time>2020-08-28T15:26:15.000Z</time>
                <name>Trackpoint 7276</name>
            </trkpt>
            <trkpt lat="49.8139264" lon="9.5895272">
                <ele>149.0</ele>
                <time>2020-08-28T15:26:17.000Z</time>
                <name>Trackpoint 7277</name>
            </trkpt>
            <trkpt lat="49.8138912" lon="9.5896752">
                <ele>148.0</ele>
                <time>2020-08-28T15:26:19.000Z</time>
                <name>Trackpoint 7278</name>
            </trkpt>
            <trkpt lat="49.8138592" lon="9.5898152">
                <ele>149.0</ele>
                <time>2020-08-28T15:26:21.000Z</time>
                <name>Trackpoint 7279</name>
            </trkpt>
            <trkpt lat="49.813824" lon="9.5899512">
                <ele>149.0</ele>
                <time>2020-08-28T15:26:23.000Z</time>
                <name>Trackpoint 7280</name>
            </trkpt>
            <trkpt lat="49.8137856" lon="9.5900896">
                <ele>149.0</ele>
                <time>2020-08-28T15:26:25.000Z</time>
                <name>Trackpoint 7281</name>
            </trkpt>
            <trkpt lat="49.8137472" lon="9.590228">
                <ele>149.0</ele>
                <time>2020-08-28T15:26:27.000Z</time>
                <name>Trackpoint 7282</name>
            </trkpt>
            <trkpt lat="49.8137024" lon="9.590368">
                <ele>149.0</ele>
                <time>2020-08-28T15:26:29.000Z</time>
                <name>Trackpoint 7283</name>
            </trkpt>
            <trkpt lat="49.8136544" lon="9.5905088">
                <ele>149.0</ele>
                <time>2020-08-28T15:26:31.000Z</time>
                <name>Trackpoint 7284</name>
            </trkpt>
            <trkpt lat="49.8136064" lon="9.5906448">
                <ele>149.0</ele>
                <time>2020-08-28T15:26:33.000Z</time>
                <name>Trackpoint 7285</name>
            </trkpt>
            <trkpt lat="49.8135616" lon="9.5907816">
                <ele>149.0</ele>
                <time>2020-08-28T15:26:35.000Z</time>
                <name>Trackpoint 7286</name>
            </trkpt>
            <trkpt lat="49.8135264" lon="9.5909144">
                <ele>149.0</ele>
                <time>2020-08-28T15:26:37.000Z</time>
                <name>Trackpoint 7287</name>
            </trkpt>
            <trkpt lat="49.8134848" lon="9.591052">
                <ele>149.0</ele>
                <time>2020-08-28T15:26:39.000Z</time>
                <name>Trackpoint 7288</name>
            </trkpt>
            <trkpt lat="49.81344" lon="9.5911968">
                <ele>149.0</ele>
                <time>2020-08-28T15:26:41.000Z</time>
                <name>Trackpoint 7289</name>
            </trkpt>
            <trkpt lat="49.8133888" lon="9.5913432">
                <ele>148.0</ele>
                <time>2020-08-28T15:26:43.000Z</time>
                <name>Trackpoint 7290</name>
            </trkpt>
            <trkpt lat="49.8133408" lon="9.5914784">
                <ele>148.0</ele>
                <time>2020-08-28T15:26:45.000Z</time>
                <name>Trackpoint 7291</name>
            </trkpt>
            <trkpt lat="49.8132768" lon="9.591612">
                <ele>148.0</ele>
                <time>2020-08-28T15:26:47.000Z</time>
                <name>Trackpoint 7292</name>
            </trkpt>
            <trkpt lat="49.8132128" lon="9.5917584">
                <ele>148.0</ele>
                <time>2020-08-28T15:26:49.000Z</time>
                <name>Trackpoint 7293</name>
            </trkpt>
            <trkpt lat="49.813152" lon="9.591904">
                <ele>148.0</ele>
                <time>2020-08-28T15:26:51.000Z</time>
                <name>Trackpoint 7294</name>
            </trkpt>
            <trkpt lat="49.8130944" lon="9.5920616">
                <ele>148.0</ele>
                <time>2020-08-28T15:26:53.000Z</time>
                <name>Trackpoint 7295</name>
            </trkpt>
            <trkpt lat="49.8130336" lon="9.5922216">
                <ele>148.0</ele>
                <time>2020-08-28T15:26:55.000Z</time>
                <name>Trackpoint 7296</name>
            </trkpt>
            <trkpt lat="49.8129792" lon="9.5923784">
                <ele>148.0</ele>
                <time>2020-08-28T15:26:57.000Z</time>
                <name>Trackpoint 7297</name>
            </trkpt>
            <trkpt lat="49.8129344" lon="9.5925328">
                <ele>148.0</ele>
                <time>2020-08-28T15:26:59.000Z</time>
                <name>Trackpoint 7298</name>
            </trkpt>
            <trkpt lat="49.812896" lon="9.5926936">
                <ele>148.0</ele>
                <time>2020-08-28T15:27:01.000Z</time>
                <name>Trackpoint 7299</name>
            </trkpt>
            <trkpt lat="49.8128544" lon="9.5928536">
                <ele>148.0</ele>
                <time>2020-08-28T15:27:03.000Z</time>
                <name>Trackpoint 7300</name>
            </trkpt>
            <trkpt lat="49.8128" lon="9.5930032">
                <ele>148.0</ele>
                <time>2020-08-28T15:27:05.000Z</time>
                <name>Trackpoint 7301</name>
            </trkpt>
            <trkpt lat="49.8127456" lon="9.5931552">
                <ele>148.0</ele>
                <time>2020-08-28T15:27:07.000Z</time>
                <name>Trackpoint 7302</name>
            </trkpt>
            <trkpt lat="49.8126976" lon="9.5933">
                <ele>148.0</ele>
                <time>2020-08-28T15:27:09.000Z</time>
                <name>Trackpoint 7303</name>
            </trkpt>
            <trkpt lat="49.8126528" lon="9.59344">
                <ele>148.0</ele>
                <time>2020-08-28T15:27:11.000Z</time>
                <name>Trackpoint 7304</name>
            </trkpt>
            <trkpt lat="49.8126176" lon="9.5935768">
                <ele>149.0</ele>
                <time>2020-08-28T15:27:13.000Z</time>
                <name>Trackpoint 7305</name>
            </trkpt>
            <trkpt lat="49.8125888" lon="9.5937144">
                <ele>148.0</ele>
                <time>2020-08-28T15:27:15.000Z</time>
                <name>Trackpoint 7306</name>
            </trkpt>
            <trkpt lat="49.81256" lon="9.5938528">
                <ele>148.0</ele>
                <time>2020-08-28T15:27:17.000Z</time>
                <name>Trackpoint 7307</name>
            </trkpt>
            <trkpt lat="49.812528" lon="9.5939928">
                <ele>148.0</ele>
                <time>2020-08-28T15:27:19.000Z</time>
                <name>Trackpoint 7308</name>
            </trkpt>
            <trkpt lat="49.8124832" lon="9.5941384">
                <ele>148.0</ele>
                <time>2020-08-28T15:27:21.000Z</time>
                <name>Trackpoint 7309</name>
            </trkpt>
            <trkpt lat="49.8124512" lon="9.59428">
                <ele>148.0</ele>
                <time>2020-08-28T15:27:23.000Z</time>
                <name>Trackpoint 7310</name>
            </trkpt>
            <trkpt lat="49.8124096" lon="9.5944216">
                <ele>149.0</ele>
                <time>2020-08-28T15:27:25.000Z</time>
                <name>Trackpoint 7311</name>
            </trkpt>
            <trkpt lat="49.8123808" lon="9.5945632">
                <ele>149.0</ele>
                <time>2020-08-28T15:27:27.000Z</time>
                <name>Trackpoint 7312</name>
            </trkpt>
            <trkpt lat="49.8123616" lon="9.5947016">
                <ele>149.0</ele>
                <time>2020-08-28T15:27:29.000Z</time>
                <name>Trackpoint 7313</name>
            </trkpt>
            <trkpt lat="49.812336" lon="9.59484">
                <ele>149.0</ele>
                <time>2020-08-28T15:27:31.000Z</time>
                <name>Trackpoint 7314</name>
            </trkpt>
            <trkpt lat="49.8123104" lon="9.5949768">
                <ele>149.0</ele>
                <time>2020-08-28T15:27:33.000Z</time>
                <name>Trackpoint 7315</name>
            </trkpt>
            <trkpt lat="49.8122784" lon="9.5951016">
                <ele>149.0</ele>
                <time>2020-08-28T15:27:35.000Z</time>
                <name>Trackpoint 7316</name>
            </trkpt>
            <trkpt lat="49.8122432" lon="9.595208">
                <ele>149.0</ele>
                <time>2020-08-28T15:27:37.000Z</time>
                <name>Trackpoint 7317</name>
            </trkpt>
            <trkpt lat="49.812224" lon="9.595312">
                <ele>150.0</ele>
                <time>2020-08-28T15:27:39.000Z</time>
                <name>Trackpoint 7318</name>
            </trkpt>
            <trkpt lat="49.8122176" lon="9.5954064">
                <ele>150.0</ele>
                <time>2020-08-28T15:27:41.000Z</time>
                <name>Trackpoint 7319</name>
            </trkpt>
            <trkpt lat="49.8121696" lon="9.5955136">
                <ele>150.0</ele>
                <time>2020-08-28T15:27:44.000Z</time>
                <name>Trackpoint 7320</name>
            </trkpt>
            <trkpt lat="49.812064" lon="9.5954584">
                <ele>150.0</ele>
                <time>2020-08-28T15:27:48.000Z</time>
                <name>Trackpoint 7321</name>
            </trkpt>
            <trkpt lat="49.811984" lon="9.5954168">
                <ele>150.0</ele>
                <time>2020-08-28T15:27:50.000Z</time>
                <name>Trackpoint 7322</name>
            </trkpt>
            <trkpt lat="49.811856" lon="9.5953848">
                <ele>150.0</ele>
                <time>2020-08-28T15:27:53.000Z</time>
                <name>Trackpoint 7323</name>
            </trkpt>
            <trkpt lat="49.8117632" lon="9.59536">
                <ele>150.0</ele>
                <time>2020-08-28T15:27:55.000Z</time>
                <name>Trackpoint 7324</name>
            </trkpt>
            <trkpt lat="49.8116832" lon="9.5953152">
                <ele>150.0</ele>
                <time>2020-08-28T15:27:57.000Z</time>
                <name>Trackpoint 7325</name>
            </trkpt>
            <trkpt lat="49.8115968" lon="9.5952784">
                <ele>149.0</ele>
                <time>2020-08-28T15:28:00.000Z</time>
                <name>Trackpoint 7326</name>
            </trkpt>
            <trkpt lat="49.8115104" lon="9.5953128">
                <ele>149.0</ele>
                <time>2020-08-28T15:28:03.000Z</time>
                <name>Trackpoint 7327</name>
            </trkpt>
            <trkpt lat="49.8114656" lon="9.5954136">
                <ele>148.0</ele>
                <time>2020-08-28T15:28:05.000Z</time>
                <name>Trackpoint 7328</name>
            </trkpt>
            <trkpt lat="49.8114272" lon="9.595504">
                <ele>148.0</ele>
                <time>2020-08-28T15:28:07.000Z</time>
                <name>Trackpoint 7329</name>
            </trkpt>
            <trkpt lat="49.8113888" lon="9.5956248">
                <ele>148.0</ele>
                <time>2020-08-28T15:28:10.000Z</time>
                <name>Trackpoint 7330</name>
            </trkpt>
            <trkpt lat="49.8113248" lon="9.595712">
                <ele>146.0</ele>
                <time>2020-08-28T15:28:44.000Z</time>
                <name>Trackpoint 7331</name>
            </trkpt>
            <trkpt lat="49.8112992" lon="9.5958232">
                <ele>146.0</ele>
                <time>2020-08-28T15:28:47.000Z</time>
                <name>Trackpoint 7332</name>
            </trkpt>
            <trkpt lat="49.8112672" lon="9.5959264">
                <ele>146.0</ele>
                <time>2020-08-28T15:28:49.000Z</time>
                <name>Trackpoint 7333</name>
            </trkpt>
            <trkpt lat="49.811232" lon="9.5960448">
                <ele>146.0</ele>
                <time>2020-08-28T15:28:51.000Z</time>
                <name>Trackpoint 7334</name>
            </trkpt>
            <trkpt lat="49.8111968" lon="9.59616">
                <ele>146.0</ele>
                <time>2020-08-28T15:28:53.000Z</time>
                <name>Trackpoint 7335</name>
            </trkpt>
            <trkpt lat="49.811152" lon="9.59628">
                <ele>146.0</ele>
                <time>2020-08-28T15:28:55.000Z</time>
                <name>Trackpoint 7336</name>
            </trkpt>
            <trkpt lat="49.8111104" lon="9.596408">
                <ele>146.0</ele>
                <time>2020-08-28T15:28:57.000Z</time>
                <name>Trackpoint 7337</name>
            </trkpt>
            <trkpt lat="49.8110656" lon="9.5965416">
                <ele>146.0</ele>
                <time>2020-08-28T15:28:59.000Z</time>
                <name>Trackpoint 7338</name>
            </trkpt>
            <trkpt lat="49.8110176" lon="9.596668">
                <ele>146.0</ele>
                <time>2020-08-28T15:29:01.000Z</time>
                <name>Trackpoint 7339</name>
            </trkpt>
            <trkpt lat="49.8109728" lon="9.5967904">
                <ele>146.0</ele>
                <time>2020-08-28T15:29:03.000Z</time>
                <name>Trackpoint 7340</name>
            </trkpt>
            <trkpt lat="49.8109408" lon="9.5969136">
                <ele>146.0</ele>
                <time>2020-08-28T15:29:05.000Z</time>
                <name>Trackpoint 7341</name>
            </trkpt>
            <trkpt lat="49.8108992" lon="9.59704">
                <ele>146.0</ele>
                <time>2020-08-28T15:29:07.000Z</time>
                <name>Trackpoint 7342</name>
            </trkpt>
            <trkpt lat="49.810864" lon="9.5971784">
                <ele>146.0</ele>
                <time>2020-08-28T15:29:09.000Z</time>
                <name>Trackpoint 7343</name>
            </trkpt>
            <trkpt lat="49.8108224" lon="9.5973168">
                <ele>146.0</ele>
                <time>2020-08-28T15:29:11.000Z</time>
                <name>Trackpoint 7344</name>
            </trkpt>
            <trkpt lat="49.810784" lon="9.59746">
                <ele>145.0</ele>
                <time>2020-08-28T15:29:13.000Z</time>
                <name>Trackpoint 7345</name>
            </trkpt>
            <trkpt lat="49.810752" lon="9.5976">
                <ele>145.0</ele>
                <time>2020-08-28T15:29:15.000Z</time>
                <name>Trackpoint 7346</name>
            </trkpt>
            <trkpt lat="49.8107136" lon="9.5977448">
                <ele>145.0</ele>
                <time>2020-08-28T15:29:17.000Z</time>
                <name>Trackpoint 7347</name>
            </trkpt>
            <trkpt lat="49.8106912" lon="9.597888">
                <ele>145.0</ele>
                <time>2020-08-28T15:29:19.000Z</time>
                <name>Trackpoint 7348</name>
            </trkpt>
            <trkpt lat="49.8106528" lon="9.598028">
                <ele>145.0</ele>
                <time>2020-08-28T15:29:21.000Z</time>
                <name>Trackpoint 7349</name>
            </trkpt>
            <trkpt lat="49.810624" lon="9.5981576">
                <ele>144.0</ele>
                <time>2020-08-28T15:29:23.000Z</time>
                <name>Trackpoint 7350</name>
            </trkpt>
            <trkpt lat="49.810592" lon="9.5982816">
                <ele>144.0</ele>
                <time>2020-08-28T15:29:25.000Z</time>
                <name>Trackpoint 7351</name>
            </trkpt>
            <trkpt lat="49.8105632" lon="9.5983952">
                <ele>144.0</ele>
                <time>2020-08-28T15:29:27.000Z</time>
                <name>Trackpoint 7352</name>
            </trkpt>
            <trkpt lat="49.8105312" lon="9.5984968">
                <ele>144.0</ele>
                <time>2020-08-28T15:29:29.000Z</time>
                <name>Trackpoint 7353</name>
            </trkpt>
            <trkpt lat="49.8105088" lon="9.598588">
                <ele>144.0</ele>
                <time>2020-08-28T15:29:52.000Z</time>
                <name>Trackpoint 7354</name>
            </trkpt>
            <trkpt lat="49.8104928" lon="9.5986968">
                <ele>144.0</ele>
                <time>2020-08-28T15:30:10.000Z</time>
                <name>Trackpoint 7355</name>
            </trkpt>
            <trkpt lat="49.8104704" lon="9.5987928">
                <ele>144.0</ele>
                <time>2020-08-28T15:30:12.000Z</time>
                <name>Trackpoint 7356</name>
            </trkpt>
            <trkpt lat="49.8104512" lon="9.5989088">
                <ele>144.0</ele>
                <time>2020-08-28T15:30:14.000Z</time>
                <name>Trackpoint 7357</name>
            </trkpt>
            <trkpt lat="49.8104256" lon="9.5990312">
                <ele>144.0</ele>
                <time>2020-08-28T15:30:16.000Z</time>
                <name>Trackpoint 7358</name>
            </trkpt>
            <trkpt lat="49.8103968" lon="9.5991648">
                <ele>144.0</ele>
                <time>2020-08-28T15:30:18.000Z</time>
                <name>Trackpoint 7359</name>
            </trkpt>
            <trkpt lat="49.8103712" lon="9.5993032">
                <ele>144.0</ele>
                <time>2020-08-28T15:30:20.000Z</time>
                <name>Trackpoint 7360</name>
            </trkpt>
            <trkpt lat="49.8103456" lon="9.5994432">
                <ele>144.0</ele>
                <time>2020-08-28T15:30:22.000Z</time>
                <name>Trackpoint 7361</name>
            </trkpt>
            <trkpt lat="49.8103136" lon="9.599588">
                <ele>144.0</ele>
                <time>2020-08-28T15:30:24.000Z</time>
                <name>Trackpoint 7362</name>
            </trkpt>
            <trkpt lat="49.810288" lon="9.5997352">
                <ele>144.0</ele>
                <time>2020-08-28T15:30:26.000Z</time>
                <name>Trackpoint 7363</name>
            </trkpt>
            <trkpt lat="49.8102592" lon="9.59988">
                <ele>144.0</ele>
                <time>2020-08-28T15:30:28.000Z</time>
                <name>Trackpoint 7364</name>
            </trkpt>
            <trkpt lat="49.8102336" lon="9.6000232">
                <ele>144.0</ele>
                <time>2020-08-28T15:30:30.000Z</time>
                <name>Trackpoint 7365</name>
            </trkpt>
            <trkpt lat="49.8101984" lon="9.6001616">
                <ele>144.0</ele>
                <time>2020-08-28T15:30:32.000Z</time>
                <name>Trackpoint 7366</name>
            </trkpt>
            <trkpt lat="49.8101504" lon="9.6002904">
                <ele>144.0</ele>
                <time>2020-08-28T15:30:34.000Z</time>
                <name>Trackpoint 7367</name>
            </trkpt>
            <trkpt lat="49.8101056" lon="9.6004216">
                <ele>144.0</ele>
                <time>2020-08-28T15:30:36.000Z</time>
                <name>Trackpoint 7368</name>
            </trkpt>
            <trkpt lat="49.8100576" lon="9.600556">
                <ele>144.0</ele>
                <time>2020-08-28T15:30:38.000Z</time>
                <name>Trackpoint 7369</name>
            </trkpt>
            <trkpt lat="49.810016" lon="9.6006896">
                <ele>144.0</ele>
                <time>2020-08-28T15:30:40.000Z</time>
                <name>Trackpoint 7370</name>
            </trkpt>
            <trkpt lat="49.8099744" lon="9.6008232">
                <ele>144.0</ele>
                <time>2020-08-28T15:30:42.000Z</time>
                <name>Trackpoint 7371</name>
            </trkpt>
            <trkpt lat="49.8099296" lon="9.6009552">
                <ele>144.0</ele>
                <time>2020-08-28T15:30:44.000Z</time>
                <name>Trackpoint 7372</name>
            </trkpt>
            <trkpt lat="49.8098912" lon="9.6010784">
                <ele>144.0</ele>
                <time>2020-08-28T15:30:46.000Z</time>
                <name>Trackpoint 7373</name>
            </trkpt>
            <trkpt lat="49.8098528" lon="9.601196">
                <ele>144.0</ele>
                <time>2020-08-28T15:30:48.000Z</time>
                <name>Trackpoint 7374</name>
            </trkpt>
            <trkpt lat="49.8098144" lon="9.6013096">
                <ele>144.0</ele>
                <time>2020-08-28T15:30:50.000Z</time>
                <name>Trackpoint 7375</name>
            </trkpt>
            <trkpt lat="49.809776" lon="9.6014184">
                <ele>144.0</ele>
                <time>2020-08-28T15:30:52.000Z</time>
                <name>Trackpoint 7376</name>
            </trkpt>
            <trkpt lat="49.8097376" lon="9.6015328">
                <ele>144.0</ele>
                <time>2020-08-28T15:30:54.000Z</time>
                <name>Trackpoint 7377</name>
            </trkpt>
            <trkpt lat="49.809712" lon="9.6016432">
                <ele>144.0</ele>
                <time>2020-08-28T15:30:56.000Z</time>
                <name>Trackpoint 7378</name>
            </trkpt>
            <trkpt lat="49.80968" lon="9.60174">
                <ele>144.0</ele>
                <time>2020-08-28T15:30:58.000Z</time>
                <name>Trackpoint 7379</name>
            </trkpt>
            <trkpt lat="49.8096544" lon="9.6018432">
                <ele>144.0</ele>
                <time>2020-08-28T15:31:00.000Z</time>
                <name>Trackpoint 7380</name>
            </trkpt>
            <trkpt lat="49.8096192" lon="9.60196">
                <ele>144.0</ele>
                <time>2020-08-28T15:31:02.000Z</time>
                <name>Trackpoint 7381</name>
            </trkpt>
            <trkpt lat="49.809584" lon="9.6020832">
                <ele>143.0</ele>
                <time>2020-08-28T15:31:04.000Z</time>
                <name>Trackpoint 7382</name>
            </trkpt>
            <trkpt lat="49.809552" lon="9.6022064">
                <ele>143.0</ele>
                <time>2020-08-28T15:31:06.000Z</time>
                <name>Trackpoint 7383</name>
            </trkpt>
            <trkpt lat="49.8095136" lon="9.6023232">
                <ele>144.0</ele>
                <time>2020-08-28T15:31:08.000Z</time>
                <name>Trackpoint 7384</name>
            </trkpt>
            <trkpt lat="49.8094784" lon="9.6024264">
                <ele>144.0</ele>
                <time>2020-08-28T15:31:10.000Z</time>
                <name>Trackpoint 7385</name>
            </trkpt>
            <trkpt lat="49.8094496" lon="9.6025248">
                <ele>144.0</ele>
                <time>2020-08-28T15:31:55.000Z</time>
                <name>Trackpoint 7386</name>
            </trkpt>
            <trkpt lat="49.8094176" lon="9.6026112">
                <ele>144.0</ele>
                <time>2020-08-28T15:31:58.000Z</time>
                <name>Trackpoint 7387</name>
            </trkpt>
            <trkpt lat="49.809392" lon="9.6027024">
                <ele>144.0</ele>
                <time>2020-08-28T15:32:00.000Z</time>
                <name>Trackpoint 7388</name>
            </trkpt>
            <trkpt lat="49.8093632" lon="9.6028168">
                <ele>144.0</ele>
                <time>2020-08-28T15:32:02.000Z</time>
                <name>Trackpoint 7389</name>
            </trkpt>
            <trkpt lat="49.8093312" lon="9.6029456">
                <ele>144.0</ele>
                <time>2020-08-28T15:32:04.000Z</time>
                <name>Trackpoint 7390</name>
            </trkpt>
            <trkpt lat="49.8093024" lon="9.6030816">
                <ele>144.0</ele>
                <time>2020-08-28T15:32:06.000Z</time>
                <name>Trackpoint 7391</name>
            </trkpt>
            <trkpt lat="49.8092768" lon="9.6032248">
                <ele>144.0</ele>
                <time>2020-08-28T15:32:08.000Z</time>
                <name>Trackpoint 7392</name>
            </trkpt>
            <trkpt lat="49.8092512" lon="9.6033736">
                <ele>144.0</ele>
                <time>2020-08-28T15:32:10.000Z</time>
                <name>Trackpoint 7393</name>
            </trkpt>
            <trkpt lat="49.8092224" lon="9.6035216">
                <ele>144.0</ele>
                <time>2020-08-28T15:32:12.000Z</time>
                <name>Trackpoint 7394</name>
            </trkpt>
            <trkpt lat="49.8091968" lon="9.6036664">
                <ele>144.0</ele>
                <time>2020-08-28T15:32:14.000Z</time>
                <name>Trackpoint 7395</name>
            </trkpt>
            <trkpt lat="49.8091584" lon="9.6038064">
                <ele>144.0</ele>
                <time>2020-08-28T15:32:16.000Z</time>
                <name>Trackpoint 7396</name>
            </trkpt>
            <trkpt lat="49.8091456" lon="9.603936">
                <ele>144.0</ele>
                <time>2020-08-28T15:32:18.000Z</time>
                <name>Trackpoint 7397</name>
            </trkpt>
            <trkpt lat="49.8091264" lon="9.6040632">
                <ele>144.0</ele>
                <time>2020-08-28T15:32:20.000Z</time>
                <name>Trackpoint 7398</name>
            </trkpt>
            <trkpt lat="49.809104" lon="9.6041872">
                <ele>144.0</ele>
                <time>2020-08-28T15:32:22.000Z</time>
                <name>Trackpoint 7399</name>
            </trkpt>
            <trkpt lat="49.8090816" lon="9.6043216">
                <ele>144.0</ele>
                <time>2020-08-28T15:32:24.000Z</time>
                <name>Trackpoint 7400</name>
            </trkpt>
            <trkpt lat="49.8090656" lon="9.6044632">
                <ele>144.0</ele>
                <time>2020-08-28T15:32:26.000Z</time>
                <name>Trackpoint 7401</name>
            </trkpt>
            <trkpt lat="49.8090432" lon="9.604604">
                <ele>144.0</ele>
                <time>2020-08-28T15:32:28.000Z</time>
                <name>Trackpoint 7402</name>
            </trkpt>
            <trkpt lat="49.809024" lon="9.6047432">
                <ele>143.0</ele>
                <time>2020-08-28T15:32:30.000Z</time>
                <name>Trackpoint 7403</name>
            </trkpt>
            <trkpt lat="49.8089952" lon="9.6048744">
                <ele>143.0</ele>
                <time>2020-08-28T15:32:32.000Z</time>
                <name>Trackpoint 7404</name>
            </trkpt>
            <trkpt lat="49.8089664" lon="9.6049968">
                <ele>143.0</ele>
                <time>2020-08-28T15:32:34.000Z</time>
                <name>Trackpoint 7405</name>
            </trkpt>
            <trkpt lat="49.8089536" lon="9.6051104">
                <ele>144.0</ele>
                <time>2020-08-28T15:32:36.000Z</time>
                <name>Trackpoint 7406</name>
            </trkpt>
            <trkpt lat="49.8089376" lon="9.6052176">
                <ele>144.0</ele>
                <time>2020-08-28T15:32:38.000Z</time>
                <name>Trackpoint 7407</name>
            </trkpt>
            <trkpt lat="49.8089216" lon="9.6053312">
                <ele>144.0</ele>
                <time>2020-08-28T15:32:40.000Z</time>
                <name>Trackpoint 7408</name>
            </trkpt>
            <trkpt lat="49.808896" lon="9.60544">
                <ele>144.0</ele>
                <time>2020-08-28T15:32:42.000Z</time>
                <name>Trackpoint 7409</name>
            </trkpt>
            <trkpt lat="49.8088672" lon="9.6055336">
                <ele>144.0</ele>
                <time>2020-08-28T15:32:44.000Z</time>
                <name>Trackpoint 7410</name>
            </trkpt>
            <trkpt lat="49.8088224" lon="9.6056432">
                <ele>144.0</ele>
                <time>2020-08-28T15:32:47.000Z</time>
                <name>Trackpoint 7411</name>
            </trkpt>
            <trkpt lat="49.8087232" lon="9.6056616">
                <ele>144.0</ele>
                <time>2020-08-28T15:32:50.000Z</time>
                <name>Trackpoint 7412</name>
            </trkpt>
            <trkpt lat="49.8086144" lon="9.6055936">
                <ele>145.0</ele>
                <time>2020-08-28T15:32:53.000Z</time>
                <name>Trackpoint 7413</name>
            </trkpt>
            <trkpt lat="49.8085312" lon="9.6055368">
                <ele>145.0</ele>
                <time>2020-08-28T15:32:55.000Z</time>
                <name>Trackpoint 7414</name>
            </trkpt>
            <trkpt lat="49.8084576" lon="9.6054736">
                <ele>145.0</ele>
                <time>2020-08-28T15:32:57.000Z</time>
                <name>Trackpoint 7415</name>
            </trkpt>
            <trkpt lat="49.808384" lon="9.6054112">
                <ele>145.0</ele>
                <time>2020-08-28T15:32:59.000Z</time>
                <name>Trackpoint 7416</name>
            </trkpt>
            <trkpt lat="49.8083072" lon="9.6053552">
                <ele>145.0</ele>
                <time>2020-08-28T15:33:01.000Z</time>
                <name>Trackpoint 7417</name>
            </trkpt>
            <trkpt lat="49.8082272" lon="9.6053">
                <ele>145.0</ele>
                <time>2020-08-28T15:33:03.000Z</time>
                <name>Trackpoint 7418</name>
            </trkpt>
            <trkpt lat="49.8081056" lon="9.6053664">
                <ele>145.0</ele>
                <time>2020-08-28T15:33:06.000Z</time>
                <name>Trackpoint 7419</name>
            </trkpt>
            <trkpt lat="49.8080448" lon="9.6055072">
                <ele>144.0</ele>
                <time>2020-08-28T15:33:08.000Z</time>
                <name>Trackpoint 7420</name>
            </trkpt>
            <trkpt lat="49.8080096" lon="9.6056432">
                <ele>144.0</ele>
                <time>2020-08-28T15:33:10.000Z</time>
                <name>Trackpoint 7421</name>
            </trkpt>
            <trkpt lat="49.8079648" lon="9.6057784">
                <ele>144.0</ele>
                <time>2020-08-28T15:33:12.000Z</time>
                <name>Trackpoint 7422</name>
            </trkpt>
            <trkpt lat="49.80792" lon="9.6059168">
                <ele>144.0</ele>
                <time>2020-08-28T15:33:14.000Z</time>
                <name>Trackpoint 7423</name>
            </trkpt>
            <trkpt lat="49.8078688" lon="9.60606">
                <ele>144.0</ele>
                <time>2020-08-28T15:33:16.000Z</time>
                <name>Trackpoint 7424</name>
            </trkpt>
            <trkpt lat="49.807824" lon="9.6062072">
                <ele>143.0</ele>
                <time>2020-08-28T15:33:18.000Z</time>
                <name>Trackpoint 7425</name>
            </trkpt>
            <trkpt lat="49.8077856" lon="9.6063536">
                <ele>143.0</ele>
                <time>2020-08-28T15:33:20.000Z</time>
                <name>Trackpoint 7426</name>
            </trkpt>
            <trkpt lat="49.807744" lon="9.6064952">
                <ele>143.0</ele>
                <time>2020-08-28T15:33:22.000Z</time>
                <name>Trackpoint 7427</name>
            </trkpt>
            <trkpt lat="49.8077056" lon="9.6066368">
                <ele>143.0</ele>
                <time>2020-08-28T15:33:24.000Z</time>
                <name>Trackpoint 7428</name>
            </trkpt>
            <trkpt lat="49.8076704" lon="9.6067848">
                <ele>143.0</ele>
                <time>2020-08-28T15:33:26.000Z</time>
                <name>Trackpoint 7429</name>
            </trkpt>
            <trkpt lat="49.807632" lon="9.6069336">
                <ele>143.0</ele>
                <time>2020-08-28T15:33:28.000Z</time>
                <name>Trackpoint 7430</name>
            </trkpt>
            <trkpt lat="49.8075936" lon="9.6070832">
                <ele>143.0</ele>
                <time>2020-08-28T15:33:30.000Z</time>
                <name>Trackpoint 7431</name>
            </trkpt>
            <trkpt lat="49.8075648" lon="9.6072384">
                <ele>143.0</ele>
                <time>2020-08-28T15:33:32.000Z</time>
                <name>Trackpoint 7432</name>
            </trkpt>
            <trkpt lat="49.8075424" lon="9.6073912">
                <ele>142.0</ele>
                <time>2020-08-28T15:33:34.000Z</time>
                <name>Trackpoint 7433</name>
            </trkpt>
            <trkpt lat="49.8075136" lon="9.6075488">
                <ele>142.0</ele>
                <time>2020-08-28T15:33:36.000Z</time>
                <name>Trackpoint 7434</name>
            </trkpt>
            <trkpt lat="49.8074944" lon="9.6077016">
                <ele>143.0</ele>
                <time>2020-08-28T15:33:38.000Z</time>
                <name>Trackpoint 7435</name>
            </trkpt>
            <trkpt lat="49.8074752" lon="9.6078504">
                <ele>143.0</ele>
                <time>2020-08-28T15:33:40.000Z</time>
                <name>Trackpoint 7436</name>
            </trkpt>
            <trkpt lat="49.807456" lon="9.6079952">
                <ele>143.0</ele>
                <time>2020-08-28T15:33:42.000Z</time>
                <name>Trackpoint 7437</name>
            </trkpt>
            <trkpt lat="49.8074432" lon="9.60814">
                <ele>143.0</ele>
                <time>2020-08-28T15:33:44.000Z</time>
                <name>Trackpoint 7438</name>
            </trkpt>
            <trkpt lat="49.8074272" lon="9.6082848">
                <ele>143.0</ele>
                <time>2020-08-28T15:33:46.000Z</time>
                <name>Trackpoint 7439</name>
            </trkpt>
            <trkpt lat="49.8074048" lon="9.6084296">
                <ele>143.0</ele>
                <time>2020-08-28T15:33:48.000Z</time>
                <name>Trackpoint 7440</name>
            </trkpt>
            <trkpt lat="49.8073792" lon="9.6085752">
                <ele>143.0</ele>
                <time>2020-08-28T15:33:50.000Z</time>
                <name>Trackpoint 7441</name>
            </trkpt>
            <trkpt lat="49.8073504" lon="9.6087168">
                <ele>144.0</ele>
                <time>2020-08-28T15:33:52.000Z</time>
                <name>Trackpoint 7442</name>
            </trkpt>
            <trkpt lat="49.8073152" lon="9.6088584">
                <ele>144.0</ele>
                <time>2020-08-28T15:33:54.000Z</time>
                <name>Trackpoint 7443</name>
            </trkpt>
            <trkpt lat="49.80728" lon="9.6090072">
                <ele>144.0</ele>
                <time>2020-08-28T15:33:56.000Z</time>
                <name>Trackpoint 7444</name>
            </trkpt>
            <trkpt lat="49.8072448" lon="9.6091608">
                <ele>144.0</ele>
                <time>2020-08-28T15:33:58.000Z</time>
                <name>Trackpoint 7445</name>
            </trkpt>
            <trkpt lat="49.807216" lon="9.6093168">
                <ele>143.0</ele>
                <time>2020-08-28T15:34:00.000Z</time>
                <name>Trackpoint 7446</name>
            </trkpt>
            <trkpt lat="49.8071872" lon="9.6094768">
                <ele>143.0</ele>
                <time>2020-08-28T15:34:02.000Z</time>
                <name>Trackpoint 7447</name>
            </trkpt>
            <trkpt lat="49.8071552" lon="9.6096464">
                <ele>143.0</ele>
                <time>2020-08-28T15:34:04.000Z</time>
                <name>Trackpoint 7448</name>
            </trkpt>
            <trkpt lat="49.8071264" lon="9.6098184">
                <ele>143.0</ele>
                <time>2020-08-28T15:34:06.000Z</time>
                <name>Trackpoint 7449</name>
            </trkpt>
            <trkpt lat="49.8070976" lon="9.609992">
                <ele>143.0</ele>
                <time>2020-08-28T15:34:08.000Z</time>
                <name>Trackpoint 7450</name>
            </trkpt>
            <trkpt lat="49.8070816" lon="9.610164">
                <ele>143.0</ele>
                <time>2020-08-28T15:34:10.000Z</time>
                <name>Trackpoint 7451</name>
            </trkpt>
            <trkpt lat="49.8070592" lon="9.6103296">
                <ele>143.0</ele>
                <time>2020-08-28T15:34:12.000Z</time>
                <name>Trackpoint 7452</name>
            </trkpt>
            <trkpt lat="49.8070464" lon="9.6104896">
                <ele>143.0</ele>
                <time>2020-08-28T15:34:14.000Z</time>
                <name>Trackpoint 7453</name>
            </trkpt>
            <trkpt lat="49.8070272" lon="9.6106392">
                <ele>143.0</ele>
                <time>2020-08-28T15:34:16.000Z</time>
                <name>Trackpoint 7454</name>
            </trkpt>
            <trkpt lat="49.8070016" lon="9.6107504">
                <ele>143.0</ele>
                <time>2020-08-28T15:34:18.000Z</time>
                <name>Trackpoint 7455</name>
            </trkpt>
            <trkpt lat="49.8069184" lon="9.6108576">
                <ele>143.0</ele>
                <time>2020-08-28T15:34:21.000Z</time>
                <name>Trackpoint 7456</name>
            </trkpt>
            <trkpt lat="49.8068352" lon="9.6109216">
                <ele>143.0</ele>
                <time>2020-08-28T15:34:23.000Z</time>
                <name>Trackpoint 7457</name>
            </trkpt>
            <trkpt lat="49.806768" lon="9.6110248">
                <ele>143.0</ele>
                <time>2020-08-28T15:34:25.000Z</time>
                <name>Trackpoint 7458</name>
            </trkpt>
            <trkpt lat="49.8067168" lon="9.6111872">
                <ele>143.0</ele>
                <time>2020-08-28T15:34:27.000Z</time>
                <name>Trackpoint 7459</name>
            </trkpt>
            <trkpt lat="49.8066816" lon="9.6113328">
                <ele>143.0</ele>
                <time>2020-08-28T15:34:29.000Z</time>
                <name>Trackpoint 7460</name>
            </trkpt>
            <trkpt lat="49.806656" lon="9.6114256">
                <ele>143.0</ele>
                <time>2020-08-28T15:34:30.000Z</time>
                <name>Trackpoint 7461</name>
            </trkpt>
            <trkpt lat="49.8066016" lon="9.611564">
                <ele>143.0</ele>
                <time>2020-08-28T15:34:32.000Z</time>
                <name>Trackpoint 7462</name>
            </trkpt>
            <trkpt lat="49.8065408" lon="9.6117232">
                <ele>143.0</ele>
                <time>2020-08-28T15:34:34.000Z</time>
                <name>Trackpoint 7463</name>
            </trkpt>
            <trkpt lat="49.8065152" lon="9.6119">
                <ele>142.0</ele>
                <time>2020-08-28T15:34:36.000Z</time>
                <name>Trackpoint 7464</name>
            </trkpt>
            <trkpt lat="49.8065056" lon="9.6120664">
                <ele>142.0</ele>
                <time>2020-08-28T15:34:38.000Z</time>
                <name>Trackpoint 7465</name>
            </trkpt>
            <trkpt lat="49.8064928" lon="9.6122376">
                <ele>142.0</ele>
                <time>2020-08-28T15:34:40.000Z</time>
                <name>Trackpoint 7466</name>
            </trkpt>
            <trkpt lat="49.8064768" lon="9.6123264">
                <ele>142.0</ele>
                <time>2020-08-28T15:34:41.000Z</time>
                <name>Trackpoint 7467</name>
            </trkpt>
            <trkpt lat="49.8064448" lon="9.612492">
                <ele>142.0</ele>
                <time>2020-08-28T15:34:43.000Z</time>
                <name>Trackpoint 7468</name>
            </trkpt>
            <trkpt lat="49.8064352" lon="9.6126632">
                <ele>141.0</ele>
                <time>2020-08-28T15:34:45.000Z</time>
                <name>Trackpoint 7469</name>
            </trkpt>
            <trkpt lat="49.8064544" lon="9.61282">
                <ele>141.0</ele>
                <time>2020-08-28T15:34:47.000Z</time>
                <name>Trackpoint 7470</name>
            </trkpt>
            <trkpt lat="49.8064736" lon="9.6129616">
                <ele>142.0</ele>
                <time>2020-08-28T15:34:49.000Z</time>
                <name>Trackpoint 7471</name>
            </trkpt>
            <trkpt lat="49.8064768" lon="9.6130936">
                <ele>142.0</ele>
                <time>2020-08-28T15:34:51.000Z</time>
                <name>Trackpoint 7472</name>
            </trkpt>
            <trkpt lat="49.8064832" lon="9.6132048">
                <ele>142.0</ele>
                <time>2020-08-28T15:34:53.000Z</time>
                <name>Trackpoint 7473</name>
            </trkpt>
            <trkpt lat="49.8064768" lon="9.613308">
                <ele>142.0</ele>
                <time>2020-08-28T15:34:55.000Z</time>
                <name>Trackpoint 7474</name>
            </trkpt>
            <trkpt lat="49.8064928" lon="9.6134264">
                <ele>142.0</ele>
                <time>2020-08-28T15:34:58.000Z</time>
                <name>Trackpoint 7475</name>
            </trkpt>
            <trkpt lat="49.8064928" lon="9.6135384">
                <ele>142.0</ele>
                <time>2020-08-28T15:35:00.000Z</time>
                <name>Trackpoint 7476</name>
            </trkpt>
            <trkpt lat="49.8064768" lon="9.6136568">
                <ele>142.0</ele>
                <time>2020-08-28T15:35:02.000Z</time>
                <name>Trackpoint 7477</name>
            </trkpt>
            <trkpt lat="49.8064352" lon="9.6137648">
                <ele>142.0</ele>
                <time>2020-08-28T15:35:04.000Z</time>
                <name>Trackpoint 7478</name>
            </trkpt>
            <trkpt lat="49.8063936" lon="9.6138832">
                <ele>142.0</ele>
                <time>2020-08-28T15:35:06.000Z</time>
                <name>Trackpoint 7479</name>
            </trkpt>
            <trkpt lat="49.806352" lon="9.6140096">
                <ele>142.0</ele>
                <time>2020-08-28T15:35:08.000Z</time>
                <name>Trackpoint 7480</name>
            </trkpt>
            <trkpt lat="49.806304" lon="9.6141384">
                <ele>142.0</ele>
                <time>2020-08-28T15:35:10.000Z</time>
                <name>Trackpoint 7481</name>
            </trkpt>
            <trkpt lat="49.8062656" lon="9.6142632">
                <ele>143.0</ele>
                <time>2020-08-28T15:35:12.000Z</time>
                <name>Trackpoint 7482</name>
            </trkpt>
            <trkpt lat="49.806224" lon="9.6143816">
                <ele>143.0</ele>
                <time>2020-08-28T15:35:14.000Z</time>
                <name>Trackpoint 7483</name>
            </trkpt>
            <trkpt lat="49.8061984" lon="9.6144952">
                <ele>143.0</ele>
                <time>2020-08-28T15:35:16.000Z</time>
                <name>Trackpoint 7484</name>
            </trkpt>
            <trkpt lat="49.8061792" lon="9.6146">
                <ele>143.0</ele>
                <time>2020-08-28T15:35:18.000Z</time>
                <name>Trackpoint 7485</name>
            </trkpt>
            <trkpt lat="49.8061632" lon="9.6147">
                <ele>143.0</ele>
                <time>2020-08-28T15:35:20.000Z</time>
                <name>Trackpoint 7486</name>
            </trkpt>
            <trkpt lat="49.806128" lon="9.6147848">
                <ele>144.0</ele>
                <time>2020-08-28T15:35:22.000Z</time>
                <name>Trackpoint 7487</name>
            </trkpt>
            <trkpt lat="49.8060928" lon="9.6148968">
                <ele>144.0</ele>
                <time>2020-08-28T15:35:25.000Z</time>
                <name>Trackpoint 7488</name>
            </trkpt>
            <trkpt lat="49.8060544" lon="9.6150064">
                <ele>144.0</ele>
                <time>2020-08-28T15:35:29.000Z</time>
                <name>Trackpoint 7489</name>
            </trkpt>
            <trkpt lat="49.8060256" lon="9.615104">
                <ele>144.0</ele>
                <time>2020-08-28T15:35:32.000Z</time>
                <name>Trackpoint 7490</name>
            </trkpt>
            <trkpt lat="49.8059936" lon="9.6152112">
                <ele>145.0</ele>
                <time>2020-08-28T15:35:35.000Z</time>
                <name>Trackpoint 7491</name>
            </trkpt>
            <trkpt lat="49.805968" lon="9.6153024">
                <ele>145.0</ele>
                <time>2020-08-28T15:35:37.000Z</time>
                <name>Trackpoint 7492</name>
            </trkpt>
            <trkpt lat="49.805936" lon="9.6153968">
                <ele>144.0</ele>
                <time>2020-08-28T15:35:39.000Z</time>
                <name>Trackpoint 7493</name>
            </trkpt>
            <trkpt lat="49.8059008" lon="9.6155008">
                <ele>145.0</ele>
                <time>2020-08-28T15:35:41.000Z</time>
                <name>Trackpoint 7494</name>
            </trkpt>
            <trkpt lat="49.8058752" lon="9.6156">
                <ele>145.0</ele>
                <time>2020-08-28T15:35:43.000Z</time>
                <name>Trackpoint 7495</name>
            </trkpt>
            <trkpt lat="49.8058368" lon="9.615724">
                <ele>145.0</ele>
                <time>2020-08-28T15:35:46.000Z</time>
                <name>Trackpoint 7496</name>
            </trkpt>
            <trkpt lat="49.8057888" lon="9.615844">
                <ele>145.0</ele>
                <time>2020-08-28T15:35:49.000Z</time>
                <name>Trackpoint 7497</name>
            </trkpt>
            <trkpt lat="49.80576" lon="9.6159336">
                <ele>145.0</ele>
                <time>2020-08-28T15:35:51.000Z</time>
                <name>Trackpoint 7498</name>
            </trkpt>
            <trkpt lat="49.8057376" lon="9.6160232">
                <ele>145.0</ele>
                <time>2020-08-28T15:35:53.000Z</time>
                <name>Trackpoint 7499</name>
            </trkpt>
            <trkpt lat="49.8056992" lon="9.6161072">
                <ele>145.0</ele>
                <time>2020-08-28T15:35:55.000Z</time>
                <name>Trackpoint 7500</name>
            </trkpt>
            <trkpt lat="49.8056576" lon="9.616192">
                <ele>145.0</ele>
                <time>2020-08-28T15:35:57.000Z</time>
                <name>Trackpoint 7501</name>
            </trkpt>
            <trkpt lat="49.805632" lon="9.6162816">
                <ele>145.0</ele>
                <time>2020-08-28T15:35:59.000Z</time>
                <name>Trackpoint 7502</name>
            </trkpt>
            <trkpt lat="49.8056" lon="9.6163832">
                <ele>144.0</ele>
                <time>2020-08-28T15:36:01.000Z</time>
                <name>Trackpoint 7503</name>
            </trkpt>
            <trkpt lat="49.805568" lon="9.6164936">
                <ele>144.0</ele>
                <time>2020-08-28T15:36:03.000Z</time>
                <name>Trackpoint 7504</name>
            </trkpt>
            <trkpt lat="49.8055264" lon="9.6166064">
                <ele>143.0</ele>
                <time>2020-08-28T15:36:05.000Z</time>
                <name>Trackpoint 7505</name>
            </trkpt>
            <trkpt lat="49.8054816" lon="9.6167296">
                <ele>143.0</ele>
                <time>2020-08-28T15:36:07.000Z</time>
                <name>Trackpoint 7506</name>
            </trkpt>
            <trkpt lat="49.8054336" lon="9.6168568">
                <ele>143.0</ele>
                <time>2020-08-28T15:36:09.000Z</time>
                <name>Trackpoint 7507</name>
            </trkpt>
            <trkpt lat="49.805392" lon="9.6169784">
                <ele>143.0</ele>
                <time>2020-08-28T15:36:11.000Z</time>
                <name>Trackpoint 7508</name>
            </trkpt>
            <trkpt lat="49.8053408" lon="9.617108">
                <ele>143.0</ele>
                <time>2020-08-28T15:36:13.000Z</time>
                <name>Trackpoint 7509</name>
            </trkpt>
            <trkpt lat="49.8052992" lon="9.61722">
                <ele>143.0</ele>
                <time>2020-08-28T15:36:15.000Z</time>
                <name>Trackpoint 7510</name>
            </trkpt>
            <trkpt lat="49.805248" lon="9.617356">
                <ele>144.0</ele>
                <time>2020-08-28T15:36:17.000Z</time>
                <name>Trackpoint 7511</name>
            </trkpt>
            <trkpt lat="49.8052" lon="9.6175">
                <ele>144.0</ele>
                <time>2020-08-28T15:36:19.000Z</time>
                <name>Trackpoint 7512</name>
            </trkpt>
            <trkpt lat="49.805152" lon="9.617652">
                <ele>144.0</ele>
                <time>2020-08-28T15:36:21.000Z</time>
                <name>Trackpoint 7513</name>
            </trkpt>
            <trkpt lat="49.8050816" lon="9.6178104">
                <ele>144.0</ele>
                <time>2020-08-28T15:36:23.000Z</time>
                <name>Trackpoint 7514</name>
            </trkpt>
            <trkpt lat="49.805024" lon="9.6179552">
                <ele>144.0</ele>
                <time>2020-08-28T15:36:25.000Z</time>
                <name>Trackpoint 7515</name>
            </trkpt>
            <trkpt lat="49.8049728" lon="9.6181048">
                <ele>144.0</ele>
                <time>2020-08-28T15:36:27.000Z</time>
                <name>Trackpoint 7516</name>
            </trkpt>
            <trkpt lat="49.8049216" lon="9.618252">
                <ele>144.0</ele>
                <time>2020-08-28T15:36:29.000Z</time>
                <name>Trackpoint 7517</name>
            </trkpt>
            <trkpt lat="49.8048672" lon="9.618388">
                <ele>144.0</ele>
                <time>2020-08-28T15:36:31.000Z</time>
                <name>Trackpoint 7518</name>
            </trkpt>
            <trkpt lat="49.8048064" lon="9.6185304">
                <ele>144.0</ele>
                <time>2020-08-28T15:36:33.000Z</time>
                <name>Trackpoint 7519</name>
            </trkpt>
            <trkpt lat="49.804752" lon="9.618664">
                <ele>144.0</ele>
                <time>2020-08-28T15:36:35.000Z</time>
                <name>Trackpoint 7520</name>
            </trkpt>
            <trkpt lat="49.8046944" lon="9.6187872">
                <ele>144.0</ele>
                <time>2020-08-28T15:36:37.000Z</time>
                <name>Trackpoint 7521</name>
            </trkpt>
            <trkpt lat="49.8046176" lon="9.6188896">
                <ele>144.0</ele>
                <time>2020-08-28T15:36:39.000Z</time>
                <name>Trackpoint 7522</name>
            </trkpt>
            <trkpt lat="49.8045312" lon="9.6189616">
                <ele>144.0</ele>
                <time>2020-08-28T15:36:41.000Z</time>
                <name>Trackpoint 7523</name>
            </trkpt>
            <trkpt lat="49.804464" lon="9.6190432">
                <ele>144.0</ele>
                <time>2020-08-28T15:36:43.000Z</time>
                <name>Trackpoint 7524</name>
            </trkpt>
            <trkpt lat="49.8043904" lon="9.6191528">
                <ele>145.0</ele>
                <time>2020-08-28T15:36:45.000Z</time>
                <name>Trackpoint 7525</name>
            </trkpt>
            <trkpt lat="49.8043168" lon="9.619264">
                <ele>145.0</ele>
                <time>2020-08-28T15:36:47.000Z</time>
                <name>Trackpoint 7526</name>
            </trkpt>
            <trkpt lat="49.8042528" lon="9.6193536">
                <ele>144.0</ele>
                <time>2020-08-28T15:36:49.000Z</time>
                <name>Trackpoint 7527</name>
            </trkpt>
            <trkpt lat="49.8041696" lon="9.6194432">
                <ele>144.0</ele>
                <time>2020-08-28T15:37:18.000Z</time>
                <name>Trackpoint 7528</name>
            </trkpt>
            <trkpt lat="49.8040832" lon="9.6195632">
                <ele>144.0</ele>
                <time>2020-08-28T15:37:21.000Z</time>
                <name>Trackpoint 7529</name>
            </trkpt>
            <trkpt lat="49.8040096" lon="9.6196616">
                <ele>144.0</ele>
                <time>2020-08-28T15:37:23.000Z</time>
                <name>Trackpoint 7530</name>
            </trkpt>
            <trkpt lat="49.8039328" lon="9.6197616">
                <ele>144.0</ele>
                <time>2020-08-28T15:37:25.000Z</time>
                <name>Trackpoint 7531</name>
            </trkpt>
            <trkpt lat="49.8038592" lon="9.6198568">
                <ele>144.0</ele>
                <time>2020-08-28T15:37:27.000Z</time>
                <name>Trackpoint 7532</name>
            </trkpt>
            <trkpt lat="49.803776" lon="9.6199552">
                <ele>144.0</ele>
                <time>2020-08-28T15:37:29.000Z</time>
                <name>Trackpoint 7533</name>
            </trkpt>
            <trkpt lat="49.8036896" lon="9.6200552">
                <ele>144.0</ele>
                <time>2020-08-28T15:37:31.000Z</time>
                <name>Trackpoint 7534</name>
            </trkpt>
            <trkpt lat="49.8036064" lon="9.6201464">
                <ele>144.0</ele>
                <time>2020-08-28T15:37:33.000Z</time>
                <name>Trackpoint 7535</name>
            </trkpt>
            <trkpt lat="49.80352" lon="9.620236">
                <ele>144.0</ele>
                <time>2020-08-28T15:37:35.000Z</time>
                <name>Trackpoint 7536</name>
            </trkpt>
            <trkpt lat="49.8034368" lon="9.6203216">
                <ele>144.0</ele>
                <time>2020-08-28T15:37:37.000Z</time>
                <name>Trackpoint 7537</name>
            </trkpt>
            <trkpt lat="49.8033472" lon="9.6204008">
                <ele>144.0</ele>
                <time>2020-08-28T15:37:39.000Z</time>
                <name>Trackpoint 7538</name>
            </trkpt>
            <trkpt lat="49.803264" lon="9.6204752">
                <ele>144.0</ele>
                <time>2020-08-28T15:37:41.000Z</time>
                <name>Trackpoint 7539</name>
            </trkpt>
            <trkpt lat="49.8031808" lon="9.620548">
                <ele>144.0</ele>
                <time>2020-08-28T15:37:43.000Z</time>
                <name>Trackpoint 7540</name>
            </trkpt>
            <trkpt lat="49.8030976" lon="9.6206112">
                <ele>144.0</ele>
                <time>2020-08-28T15:37:45.000Z</time>
                <name>Trackpoint 7541</name>
            </trkpt>
            <trkpt lat="49.8030144" lon="9.6206704">
                <ele>144.0</ele>
                <time>2020-08-28T15:37:47.000Z</time>
                <name>Trackpoint 7542</name>
            </trkpt>
            <trkpt lat="49.8029248" lon="9.6207312">
                <ele>144.0</ele>
                <time>2020-08-28T15:37:49.000Z</time>
                <name>Trackpoint 7543</name>
            </trkpt>
            <trkpt lat="49.8028288" lon="9.6208016">
                <ele>144.0</ele>
                <time>2020-08-28T15:37:51.000Z</time>
                <name>Trackpoint 7544</name>
            </trkpt>
            <trkpt lat="49.8027392" lon="9.6208584">
                <ele>144.0</ele>
                <time>2020-08-28T15:37:53.000Z</time>
                <name>Trackpoint 7545</name>
            </trkpt>
            <trkpt lat="49.8026464" lon="9.6209136">
                <ele>144.0</ele>
                <time>2020-08-28T15:37:55.000Z</time>
                <name>Trackpoint 7546</name>
            </trkpt>
            <trkpt lat="49.8025536" lon="9.6209744">
                <ele>144.0</ele>
                <time>2020-08-28T15:37:57.000Z</time>
                <name>Trackpoint 7547</name>
            </trkpt>
            <trkpt lat="49.8024544" lon="9.6210448">
                <ele>144.0</ele>
                <time>2020-08-28T15:37:59.000Z</time>
                <name>Trackpoint 7548</name>
            </trkpt>
            <trkpt lat="49.8023616" lon="9.6211048">
                <ele>144.0</ele>
                <time>2020-08-28T15:38:01.000Z</time>
                <name>Trackpoint 7549</name>
            </trkpt>
            <trkpt lat="49.8022688" lon="9.6211592">
                <ele>144.0</ele>
                <time>2020-08-28T15:38:03.000Z</time>
                <name>Trackpoint 7550</name>
            </trkpt>
            <trkpt lat="49.8021824" lon="9.6212104">
                <ele>144.0</ele>
                <time>2020-08-28T15:38:05.000Z</time>
                <name>Trackpoint 7551</name>
            </trkpt>
            <trkpt lat="49.8020672" lon="9.621272">
                <ele>144.0</ele>
                <time>2020-08-28T15:38:07.000Z</time>
                <name>Trackpoint 7552</name>
            </trkpt>
            <trkpt lat="49.801984" lon="9.6213152">
                <ele>144.0</ele>
                <time>2020-08-28T15:38:09.000Z</time>
                <name>Trackpoint 7553</name>
            </trkpt>
            <trkpt lat="49.8018752" lon="9.6213664">
                <ele>144.0</ele>
                <time>2020-08-28T15:38:11.000Z</time>
                <name>Trackpoint 7554</name>
            </trkpt>
            <trkpt lat="49.801776" lon="9.6214168">
                <ele>144.0</ele>
                <time>2020-08-28T15:38:14.000Z</time>
                <name>Trackpoint 7555</name>
            </trkpt>
            <trkpt lat="49.801664" lon="9.6214648">
                <ele>144.0</ele>
                <time>2020-08-28T15:38:17.000Z</time>
                <name>Trackpoint 7556</name>
            </trkpt>
            <trkpt lat="49.8015712" lon="9.6214896">
                <ele>144.0</ele>
                <time>2020-08-28T15:38:19.000Z</time>
                <name>Trackpoint 7557</name>
            </trkpt>
            <trkpt lat="49.801456" lon="9.6215048">
                <ele>144.0</ele>
                <time>2020-08-28T15:38:21.000Z</time>
                <name>Trackpoint 7558</name>
            </trkpt>
            <trkpt lat="49.801312" lon="9.6215248">
                <ele>144.0</ele>
                <time>2020-08-28T15:38:23.000Z</time>
                <name>Trackpoint 7559</name>
            </trkpt>
            <trkpt lat="49.8011904" lon="9.6215536">
                <ele>144.0</ele>
                <time>2020-08-28T15:38:25.000Z</time>
                <name>Trackpoint 7560</name>
            </trkpt>
            <trkpt lat="49.8010912" lon="9.621596">
                <ele>144.0</ele>
                <time>2020-08-28T15:38:27.000Z</time>
                <name>Trackpoint 7561</name>
            </trkpt>
            <trkpt lat="49.8009984" lon="9.6216384">
                <ele>144.0</ele>
                <time>2020-08-28T15:38:29.000Z</time>
                <name>Trackpoint 7562</name>
            </trkpt>
            <trkpt lat="49.800896" lon="9.6216696">
                <ele>144.0</ele>
                <time>2020-08-28T15:38:31.000Z</time>
                <name>Trackpoint 7563</name>
            </trkpt>
            <trkpt lat="49.8007776" lon="9.621708">
                <ele>144.0</ele>
                <time>2020-08-28T15:38:33.000Z</time>
                <name>Trackpoint 7564</name>
            </trkpt>
            <trkpt lat="49.8006624" lon="9.6217584">
                <ele>144.0</ele>
                <time>2020-08-28T15:38:35.000Z</time>
                <name>Trackpoint 7565</name>
            </trkpt>
            <trkpt lat="49.80056" lon="9.6217984">
                <ele>144.0</ele>
                <time>2020-08-28T15:38:37.000Z</time>
                <name>Trackpoint 7566</name>
            </trkpt>
            <trkpt lat="49.8004576" lon="9.6218416">
                <ele>144.0</ele>
                <time>2020-08-28T15:38:39.000Z</time>
                <name>Trackpoint 7567</name>
            </trkpt>
            <trkpt lat="49.8003456" lon="9.6218752">
                <ele>144.0</ele>
                <time>2020-08-28T15:38:41.000Z</time>
                <name>Trackpoint 7568</name>
            </trkpt>
            <trkpt lat="49.80024" lon="9.6219184">
                <ele>144.0</ele>
                <time>2020-08-28T15:38:43.000Z</time>
                <name>Trackpoint 7569</name>
            </trkpt>
            <trkpt lat="49.8001472" lon="9.621968">
                <ele>144.0</ele>
                <time>2020-08-28T15:38:45.000Z</time>
                <name>Trackpoint 7570</name>
            </trkpt>
            <trkpt lat="49.8000576" lon="9.6220152">
                <ele>144.0</ele>
                <time>2020-08-28T15:38:47.000Z</time>
                <name>Trackpoint 7571</name>
            </trkpt>
            <trkpt lat="49.799952" lon="9.622044">
                <ele>144.0</ele>
                <time>2020-08-28T15:38:49.000Z</time>
                <name>Trackpoint 7572</name>
            </trkpt>
            <trkpt lat="49.7998496" lon="9.6220704">
                <ele>144.0</ele>
                <time>2020-08-28T15:38:51.000Z</time>
                <name>Trackpoint 7573</name>
            </trkpt>
            <trkpt lat="49.7997536" lon="9.6220752">
                <ele>144.0</ele>
                <time>2020-08-28T15:38:53.000Z</time>
                <name>Trackpoint 7574</name>
            </trkpt>
            <trkpt lat="49.7996512" lon="9.6220768">
                <ele>144.0</ele>
                <time>2020-08-28T15:38:55.000Z</time>
                <name>Trackpoint 7575</name>
            </trkpt>
            <trkpt lat="49.7995136" lon="9.6220848">
                <ele>143.0</ele>
                <time>2020-08-28T15:38:58.000Z</time>
                <name>Trackpoint 7576</name>
            </trkpt>
            <trkpt lat="49.7994208" lon="9.622084">
                <ele>144.0</ele>
                <time>2020-08-28T15:39:00.000Z</time>
                <name>Trackpoint 7577</name>
            </trkpt>
            <trkpt lat="49.7992832" lon="9.6220776">
                <ele>143.0</ele>
                <time>2020-08-28T15:39:03.000Z</time>
                <name>Trackpoint 7578</name>
            </trkpt>
            <trkpt lat="49.799184" lon="9.6220776">
                <ele>143.0</ele>
                <time>2020-08-28T15:39:05.000Z</time>
                <name>Trackpoint 7579</name>
            </trkpt>
            <trkpt lat="49.799088" lon="9.62208">
                <ele>143.0</ele>
                <time>2020-08-28T15:39:07.000Z</time>
                <name>Trackpoint 7580</name>
            </trkpt>
            <trkpt lat="49.7989952" lon="9.62208">
                <ele>142.0</ele>
                <time>2020-08-28T15:39:09.000Z</time>
                <name>Trackpoint 7581</name>
            </trkpt>
            <trkpt lat="49.798864" lon="9.6220752">
                <ele>141.0</ele>
                <time>2020-08-28T15:39:12.000Z</time>
                <name>Trackpoint 7582</name>
            </trkpt>
            <trkpt lat="49.798768" lon="9.6220704">
                <ele>141.0</ele>
                <time>2020-08-28T15:39:14.000Z</time>
                <name>Trackpoint 7583</name>
            </trkpt>
            <trkpt lat="49.7986752" lon="9.6220728">
                <ele>141.0</ele>
                <time>2020-08-28T15:39:16.000Z</time>
                <name>Trackpoint 7584</name>
            </trkpt>
            <trkpt lat="49.7985824" lon="9.6220728">
                <ele>140.0</ele>
                <time>2020-08-28T15:39:18.000Z</time>
                <name>Trackpoint 7585</name>
            </trkpt>
            <trkpt lat="49.7984864" lon="9.6220664">
                <ele>141.0</ele>
                <time>2020-08-28T15:39:20.000Z</time>
                <name>Trackpoint 7586</name>
            </trkpt>
            <trkpt lat="49.7983936" lon="9.6220704">
                <ele>140.0</ele>
                <time>2020-08-28T15:39:22.000Z</time>
                <name>Trackpoint 7587</name>
            </trkpt>
            <trkpt lat="49.7983008" lon="9.6220616">
                <ele>140.0</ele>
                <time>2020-08-28T15:39:24.000Z</time>
                <name>Trackpoint 7588</name>
            </trkpt>
            <trkpt lat="49.7982016" lon="9.622048">
                <ele>140.0</ele>
                <time>2020-08-28T15:39:26.000Z</time>
                <name>Trackpoint 7589</name>
            </trkpt>
            <trkpt lat="49.798112" lon="9.6220304">
                <ele>141.0</ele>
                <time>2020-08-28T15:39:28.000Z</time>
                <name>Trackpoint 7590</name>
            </trkpt>
            <trkpt lat="49.7980224" lon="9.6219968">
                <ele>142.0</ele>
                <time>2020-08-28T15:39:30.000Z</time>
                <name>Trackpoint 7591</name>
            </trkpt>
            <trkpt lat="49.7979392" lon="9.6219368">
                <ele>143.0</ele>
                <time>2020-08-28T15:39:32.000Z</time>
                <name>Trackpoint 7592</name>
            </trkpt>
            <trkpt lat="49.7978464" lon="9.6219016">
                <ele>142.0</ele>
                <time>2020-08-28T15:39:34.000Z</time>
                <name>Trackpoint 7593</name>
            </trkpt>
            <trkpt lat="49.7977152" lon="9.6218728">
                <ele>142.0</ele>
                <time>2020-08-28T15:39:37.000Z</time>
                <name>Trackpoint 7594</name>
            </trkpt>
            <trkpt lat="49.7976224" lon="9.6218656">
                <ele>142.0</ele>
                <time>2020-08-28T15:39:39.000Z</time>
                <name>Trackpoint 7595</name>
            </trkpt>
            <trkpt lat="49.7975232" lon="9.6218464">
                <ele>142.0</ele>
                <time>2020-08-28T15:39:41.000Z</time>
                <name>Trackpoint 7596</name>
            </trkpt>
            <trkpt lat="49.7974208" lon="9.621832">
                <ele>143.0</ele>
                <time>2020-08-28T15:39:43.000Z</time>
                <name>Trackpoint 7597</name>
            </trkpt>
            <trkpt lat="49.7973248" lon="9.6218136">
                <ele>143.0</ele>
                <time>2020-08-28T15:39:45.000Z</time>
                <name>Trackpoint 7598</name>
            </trkpt>
            <trkpt lat="49.7972192" lon="9.6217968">
                <ele>143.0</ele>
                <time>2020-08-28T15:39:47.000Z</time>
                <name>Trackpoint 7599</name>
            </trkpt>
            <trkpt lat="49.7971232" lon="9.6217768">
                <ele>143.0</ele>
                <time>2020-08-28T15:39:49.000Z</time>
                <name>Trackpoint 7600</name>
            </trkpt>
            <trkpt lat="49.797024" lon="9.6217432">
                <ele>142.0</ele>
                <time>2020-08-28T15:39:51.000Z</time>
                <name>Trackpoint 7601</name>
            </trkpt>
            <trkpt lat="49.7969248" lon="9.621712">
                <ele>142.0</ele>
                <time>2020-08-28T15:39:53.000Z</time>
                <name>Trackpoint 7602</name>
            </trkpt>
            <trkpt lat="49.7968224" lon="9.621688">
                <ele>141.0</ele>
                <time>2020-08-28T15:39:55.000Z</time>
                <name>Trackpoint 7603</name>
            </trkpt>
            <trkpt lat="49.7967072" lon="9.6216568">
                <ele>141.0</ele>
                <time>2020-08-28T15:39:57.000Z</time>
                <name>Trackpoint 7604</name>
            </trkpt>
            <trkpt lat="49.796608" lon="9.6216096">
                <ele>141.0</ele>
                <time>2020-08-28T15:39:59.000Z</time>
                <name>Trackpoint 7605</name>
            </trkpt>
            <trkpt lat="49.7965248" lon="9.6215288">
                <ele>142.0</ele>
                <time>2020-08-28T15:40:01.000Z</time>
                <name>Trackpoint 7606</name>
            </trkpt>
            <trkpt lat="49.7964448" lon="9.6214568">
                <ele>142.0</ele>
                <time>2020-08-28T15:40:03.000Z</time>
                <name>Trackpoint 7607</name>
            </trkpt>
            <trkpt lat="49.7963424" lon="9.6214048">
                <ele>142.0</ele>
                <time>2020-08-28T15:40:05.000Z</time>
                <name>Trackpoint 7608</name>
            </trkpt>
            <trkpt lat="49.7962432" lon="9.621424">
                <ele>141.0</ele>
                <time>2020-08-28T15:40:07.000Z</time>
                <name>Trackpoint 7609</name>
            </trkpt>
            <trkpt lat="49.7961472" lon="9.6214088">
                <ele>142.0</ele>
                <time>2020-08-28T15:40:09.000Z</time>
                <name>Trackpoint 7610</name>
            </trkpt>
            <trkpt lat="49.796064" lon="9.621364">
                <ele>142.0</ele>
                <time>2020-08-28T15:40:11.000Z</time>
                <name>Trackpoint 7611</name>
            </trkpt>
            <trkpt lat="49.7959744" lon="9.6213128">
                <ele>142.0</ele>
                <time>2020-08-28T15:40:13.000Z</time>
                <name>Trackpoint 7612</name>
            </trkpt>
            <trkpt lat="49.7958912" lon="9.621268">
                <ele>142.0</ele>
                <time>2020-08-28T15:40:15.000Z</time>
                <name>Trackpoint 7613</name>
            </trkpt>
            <trkpt lat="49.7958112" lon="9.6212104">
                <ele>142.0</ele>
                <time>2020-08-28T15:40:17.000Z</time>
                <name>Trackpoint 7614</name>
            </trkpt>
            <trkpt lat="49.7957504" lon="9.621132">
                <ele>143.0</ele>
                <time>2020-08-28T15:40:19.000Z</time>
                <name>Trackpoint 7615</name>
            </trkpt>
            <trkpt lat="49.7956864" lon="9.62102">
                <ele>143.0</ele>
                <time>2020-08-28T15:40:21.000Z</time>
                <name>Trackpoint 7616</name>
            </trkpt>
            <trkpt lat="49.7956192" lon="9.6209488">
                <ele>143.0</ele>
                <time>2020-08-28T15:40:23.000Z</time>
                <name>Trackpoint 7617</name>
            </trkpt>
            <trkpt lat="49.7955488" lon="9.6208552">
                <ele>143.0</ele>
                <time>2020-08-28T15:40:25.000Z</time>
                <name>Trackpoint 7618</name>
            </trkpt>
            <trkpt lat="49.7954624" lon="9.620784">
                <ele>143.0</ele>
                <time>2020-08-28T15:40:27.000Z</time>
                <name>Trackpoint 7619</name>
            </trkpt>
            <trkpt lat="49.795392" lon="9.6207216">
                <ele>143.0</ele>
                <time>2020-08-28T15:40:29.000Z</time>
                <name>Trackpoint 7620</name>
            </trkpt>
            <trkpt lat="49.7952992" lon="9.6206952">
                <ele>144.0</ele>
                <time>2020-08-28T15:40:31.000Z</time>
                <name>Trackpoint 7621</name>
            </trkpt>
            <trkpt lat="49.7951744" lon="9.6206864">
                <ele>144.0</ele>
                <time>2020-08-28T15:40:34.000Z</time>
                <name>Trackpoint 7622</name>
            </trkpt>
            <trkpt lat="49.7950784" lon="9.6206728">
                <ele>145.0</ele>
                <time>2020-08-28T15:40:37.000Z</time>
                <name>Trackpoint 7623</name>
            </trkpt>
            <trkpt lat="49.7949856" lon="9.6206416">
                <ele>145.0</ele>
                <time>2020-08-28T15:40:41.000Z</time>
                <name>Trackpoint 7624</name>
            </trkpt>
            <trkpt lat="49.7948928" lon="9.6206064">
                <ele>144.0</ele>
                <time>2020-08-28T15:41:58.000Z</time>
                <name>Trackpoint 7625</name>
            </trkpt>
            <trkpt lat="49.7948032" lon="9.6205184">
                <ele>145.0</ele>
                <time>2020-08-28T15:42:02.000Z</time>
                <name>Trackpoint 7626</name>
            </trkpt>
            <trkpt lat="49.7947136" lon="9.620432">
                <ele>145.0</ele>
                <time>2020-08-28T15:42:05.000Z</time>
                <name>Trackpoint 7627</name>
            </trkpt>
            <trkpt lat="49.7946432" lon="9.6203632">
                <ele>145.0</ele>
                <time>2020-08-28T15:42:07.000Z</time>
                <name>Trackpoint 7628</name>
            </trkpt>
            <trkpt lat="49.7945792" lon="9.6202944">
                <ele>145.0</ele>
                <time>2020-08-28T15:42:09.000Z</time>
                <name>Trackpoint 7629</name>
            </trkpt>
            <trkpt lat="49.7945024" lon="9.6202288">
                <ele>145.0</ele>
                <time>2020-08-28T15:42:11.000Z</time>
                <name>Trackpoint 7630</name>
            </trkpt>
            <trkpt lat="49.7944192" lon="9.6201688">
                <ele>145.0</ele>
                <time>2020-08-28T15:42:13.000Z</time>
                <name>Trackpoint 7631</name>
            </trkpt>
            <trkpt lat="49.7943104" lon="9.6200784">
                <ele>145.0</ele>
                <time>2020-08-28T15:42:15.000Z</time>
                <name>Trackpoint 7632</name>
            </trkpt>
            <trkpt lat="49.7942176" lon="9.6199952">
                <ele>145.0</ele>
                <time>2020-08-28T15:42:17.000Z</time>
                <name>Trackpoint 7633</name>
            </trkpt>
            <trkpt lat="49.7941184" lon="9.6199152">
                <ele>145.0</ele>
                <time>2020-08-28T15:42:19.000Z</time>
                <name>Trackpoint 7634</name>
            </trkpt>
            <trkpt lat="49.7940256" lon="9.6198256">
                <ele>145.0</ele>
                <time>2020-08-28T15:42:21.000Z</time>
                <name>Trackpoint 7635</name>
            </trkpt>
            <trkpt lat="49.793952" lon="9.6197456">
                <ele>145.0</ele>
                <time>2020-08-28T15:42:23.000Z</time>
                <name>Trackpoint 7636</name>
            </trkpt>
            <trkpt lat="49.7938496" lon="9.619688">
                <ele>146.0</ele>
                <time>2020-08-28T15:42:26.000Z</time>
                <name>Trackpoint 7637</name>
            </trkpt>
            <trkpt lat="49.7937408" lon="9.6196184">
                <ele>146.0</ele>
                <time>2020-08-28T15:42:29.000Z</time>
                <name>Trackpoint 7638</name>
            </trkpt>
            <trkpt lat="49.7936544" lon="9.6195352">
                <ele>147.0</ele>
                <time>2020-08-28T15:42:31.000Z</time>
                <name>Trackpoint 7639</name>
            </trkpt>
            <trkpt lat="49.7935712" lon="9.6194096">
                <ele>147.0</ele>
                <time>2020-08-28T15:42:33.000Z</time>
                <name>Trackpoint 7640</name>
            </trkpt>
            <trkpt lat="49.7934912" lon="9.6193088">
                <ele>147.0</ele>
                <time>2020-08-28T15:42:35.000Z</time>
                <name>Trackpoint 7641</name>
            </trkpt>
            <trkpt lat="49.793408" lon="9.6192032">
                <ele>147.0</ele>
                <time>2020-08-28T15:42:37.000Z</time>
                <name>Trackpoint 7642</name>
            </trkpt>
            <trkpt lat="49.793312" lon="9.6191104">
                <ele>146.0</ele>
                <time>2020-08-28T15:42:40.000Z</time>
                <name>Trackpoint 7643</name>
            </trkpt>
            <trkpt lat="49.7932256" lon="9.619032">
                <ele>145.0</ele>
                <time>2020-08-28T15:42:43.000Z</time>
                <name>Trackpoint 7644</name>
            </trkpt>
            <trkpt lat="49.7931584" lon="9.6189568">
                <ele>144.0</ele>
                <time>2020-08-28T15:42:47.000Z</time>
                <name>Trackpoint 7645</name>
            </trkpt>
            <trkpt lat="49.7930976" lon="9.6188832">
                <ele>144.0</ele>
                <time>2020-08-28T15:43:24.000Z</time>
                <name>Trackpoint 7646</name>
            </trkpt>
            <trkpt lat="49.792992" lon="9.6189136">
                <ele>144.0</ele>
                <time>2020-08-28T15:43:28.000Z</time>
                <name>Trackpoint 7647</name>
            </trkpt>
            <trkpt lat="49.7929664" lon="9.6190296">
                <ele>144.0</ele>
                <time>2020-08-28T15:43:31.000Z</time>
                <name>Trackpoint 7648</name>
            </trkpt>
            <trkpt lat="49.7928992" lon="9.6190952">
                <ele>144.0</ele>
                <time>2020-08-28T15:43:35.000Z</time>
                <name>Trackpoint 7649</name>
            </trkpt>
            <trkpt lat="49.7928096" lon="9.6190392">
                <ele>144.0</ele>
                <time>2020-08-28T15:43:39.000Z</time>
                <name>Trackpoint 7650</name>
            </trkpt>
            <trkpt lat="49.7927488" lon="9.6189416">
                <ele>144.0</ele>
                <time>2020-08-28T15:43:43.000Z</time>
                <name>Trackpoint 7651</name>
            </trkpt>
            <trkpt lat="49.792688" lon="9.6188568">
                <ele>144.0</ele>
                <time>2020-08-28T15:43:46.000Z</time>
                <name>Trackpoint 7652</name>
            </trkpt>
            <trkpt lat="49.7926208" lon="9.61878">
                <ele>145.0</ele>
                <time>2020-08-28T15:43:49.000Z</time>
                <name>Trackpoint 7653</name>
            </trkpt>
            <trkpt lat="49.7925376" lon="9.6186888">
                <ele>146.0</ele>
                <time>2020-08-28T15:43:52.000Z</time>
                <name>Trackpoint 7654</name>
            </trkpt>
            <trkpt lat="49.7924704" lon="9.6186264">
                <ele>145.0</ele>
                <time>2020-08-28T15:43:54.000Z</time>
                <name>Trackpoint 7655</name>
            </trkpt>
            <trkpt lat="49.7924032" lon="9.618548">
                <ele>146.0</ele>
                <time>2020-08-28T15:43:56.000Z</time>
                <name>Trackpoint 7656</name>
            </trkpt>
            <trkpt lat="49.7923168" lon="9.6184752">
                <ele>147.0</ele>
                <time>2020-08-28T15:43:59.000Z</time>
                <name>Trackpoint 7657</name>
            </trkpt>
            <trkpt lat="49.7922432" lon="9.6184064">
                <ele>147.0</ele>
                <time>2020-08-28T15:44:02.000Z</time>
                <name>Trackpoint 7658</name>
            </trkpt>
            <trkpt lat="49.7921568" lon="9.6183344">
                <ele>150.0</ele>
                <time>2020-08-28T15:44:06.000Z</time>
                <name>Trackpoint 7659</name>
            </trkpt>
            <trkpt lat="49.7920736" lon="9.6182536">
                <ele>148.0</ele>
                <time>2020-08-28T15:44:09.000Z</time>
                <name>Trackpoint 7660</name>
            </trkpt>
            <trkpt lat="49.7919744" lon="9.6181672">
                <ele>148.0</ele>
                <time>2020-08-28T15:44:12.000Z</time>
                <name>Trackpoint 7661</name>
            </trkpt>
            <trkpt lat="49.7918944" lon="9.6182144">
                <ele>147.0</ele>
                <time>2020-08-28T15:44:15.000Z</time>
                <name>Trackpoint 7662</name>
            </trkpt>
            <trkpt lat="49.79184" lon="9.6183416">
                <ele>147.0</ele>
                <time>2020-08-28T15:44:18.000Z</time>
                <name>Trackpoint 7663</name>
            </trkpt>
            <trkpt lat="49.7918048" lon="9.61844">
                <ele>147.0</ele>
                <time>2020-08-28T15:44:20.000Z</time>
                <name>Trackpoint 7664</name>
            </trkpt>
            <trkpt lat="49.7918016" lon="9.6185568">
                <ele>147.0</ele>
                <time>2020-08-28T15:44:23.000Z</time>
                <name>Trackpoint 7665</name>
            </trkpt>
            <trkpt lat="49.7917312" lon="9.6186136">
                <ele>147.0</ele>
                <time>2020-08-28T15:44:25.000Z</time>
                <name>Trackpoint 7666</name>
            </trkpt>
            <trkpt lat="49.7916288" lon="9.6186112">
                <ele>147.0</ele>
                <time>2020-08-28T15:44:28.000Z</time>
                <name>Trackpoint 7667</name>
            </trkpt>
            <trkpt lat="49.791536" lon="9.6185888">
                <ele>147.0</ele>
                <time>2020-08-28T15:44:31.000Z</time>
                <name>Trackpoint 7668</name>
            </trkpt>
            <trkpt lat="49.7914272" lon="9.6185816">
                <ele>147.0</ele>
                <time>2020-08-28T15:44:35.000Z</time>
                <name>Trackpoint 7669</name>
            </trkpt>
            <trkpt lat="49.7913504" lon="9.6185064">
                <ele>148.0</ele>
                <time>2020-08-28T15:44:38.000Z</time>
                <name>Trackpoint 7670</name>
            </trkpt>
            <trkpt lat="49.7913184" lon="9.6184104">
                <ele>148.0</ele>
                <time>2020-08-28T15:44:40.000Z</time>
                <name>Trackpoint 7671</name>
            </trkpt>
            <trkpt lat="49.7912672" lon="9.6182944">
                <ele>148.0</ele>
                <time>2020-08-28T15:44:42.000Z</time>
                <name>Trackpoint 7672</name>
            </trkpt>
            <trkpt lat="49.7912096" lon="9.6182232">
                <ele>148.0</ele>
                <time>2020-08-28T15:44:44.000Z</time>
                <name>Trackpoint 7673</name>
            </trkpt>
            <trkpt lat="49.791152" lon="9.6181224">
                <ele>149.0</ele>
                <time>2020-08-28T15:44:46.000Z</time>
                <name>Trackpoint 7674</name>
            </trkpt>
            <trkpt lat="49.791088" lon="9.6179736">
                <ele>149.0</ele>
                <time>2020-08-28T15:44:48.000Z</time>
                <name>Trackpoint 7675</name>
            </trkpt>
            <trkpt lat="49.7910496" lon="9.6178888">
                <ele>149.0</ele>
                <time>2020-08-28T15:44:49.000Z</time>
                <name>Trackpoint 7676</name>
            </trkpt>
            <trkpt lat="49.7910144" lon="9.6178032">
                <ele>148.0</ele>
                <time>2020-08-28T15:44:50.000Z</time>
                <name>Trackpoint 7677</name>
            </trkpt>
            <trkpt lat="49.7909504" lon="9.6176664">
                <ele>149.0</ele>
                <time>2020-08-28T15:44:52.000Z</time>
                <name>Trackpoint 7678</name>
            </trkpt>
            <trkpt lat="49.7908832" lon="9.617532">
                <ele>149.0</ele>
                <time>2020-08-28T15:44:54.000Z</time>
                <name>Trackpoint 7679</name>
            </trkpt>
            <trkpt lat="49.790816" lon="9.61742">
                <ele>149.0</ele>
                <time>2020-08-28T15:44:56.000Z</time>
                <name>Trackpoint 7680</name>
            </trkpt>
            <trkpt lat="49.790736" lon="9.6172664">
                <ele>149.0</ele>
                <time>2020-08-28T15:44:58.000Z</time>
                <name>Trackpoint 7681</name>
            </trkpt>
            <trkpt lat="49.7906656" lon="9.6171264">
                <ele>149.0</ele>
                <time>2020-08-28T15:45:00.000Z</time>
                <name>Trackpoint 7682</name>
            </trkpt>
            <trkpt lat="49.7905984" lon="9.6169968">
                <ele>149.0</ele>
                <time>2020-08-28T15:45:02.000Z</time>
                <name>Trackpoint 7683</name>
            </trkpt>
            <trkpt lat="49.7905312" lon="9.6168496">
                <ele>149.0</ele>
                <time>2020-08-28T15:45:04.000Z</time>
                <name>Trackpoint 7684</name>
            </trkpt>
            <trkpt lat="49.7904576" lon="9.6167096">
                <ele>149.0</ele>
                <time>2020-08-28T15:45:06.000Z</time>
                <name>Trackpoint 7685</name>
            </trkpt>
            <trkpt lat="49.7903872" lon="9.6165584">
                <ele>149.0</ele>
                <time>2020-08-28T15:45:08.000Z</time>
                <name>Trackpoint 7686</name>
            </trkpt>
            <trkpt lat="49.79032" lon="9.6164048">
                <ele>149.0</ele>
                <time>2020-08-28T15:45:10.000Z</time>
                <name>Trackpoint 7687</name>
            </trkpt>
            <trkpt lat="49.790256" lon="9.6162568">
                <ele>149.0</ele>
                <time>2020-08-28T15:45:12.000Z</time>
                <name>Trackpoint 7688</name>
            </trkpt>
            <trkpt lat="49.7901888" lon="9.61612">
                <ele>149.0</ele>
                <time>2020-08-28T15:45:14.000Z</time>
                <name>Trackpoint 7689</name>
            </trkpt>
            <trkpt lat="49.7901216" lon="9.6159848">
                <ele>149.0</ele>
                <time>2020-08-28T15:45:16.000Z</time>
                <name>Trackpoint 7690</name>
            </trkpt>
            <trkpt lat="49.7900576" lon="9.6158552">
                <ele>149.0</ele>
                <time>2020-08-28T15:45:18.000Z</time>
                <name>Trackpoint 7691</name>
            </trkpt>
            <trkpt lat="49.7899904" lon="9.6157168">
                <ele>149.0</ele>
                <time>2020-08-28T15:45:20.000Z</time>
                <name>Trackpoint 7692</name>
            </trkpt>
            <trkpt lat="49.78992" lon="9.6155832">
                <ele>149.0</ele>
                <time>2020-08-28T15:45:22.000Z</time>
                <name>Trackpoint 7693</name>
            </trkpt>
            <trkpt lat="49.7898528" lon="9.6154432">
                <ele>149.0</ele>
                <time>2020-08-28T15:45:24.000Z</time>
                <name>Trackpoint 7694</name>
            </trkpt>
            <trkpt lat="49.7897824" lon="9.6153072">
                <ele>149.0</ele>
                <time>2020-08-28T15:45:26.000Z</time>
                <name>Trackpoint 7695</name>
            </trkpt>
            <trkpt lat="49.789712" lon="9.6151952">
                <ele>149.0</ele>
                <time>2020-08-28T15:45:28.000Z</time>
                <name>Trackpoint 7696</name>
            </trkpt>
            <trkpt lat="49.7896384" lon="9.6150816">
                <ele>149.0</ele>
                <time>2020-08-28T15:45:30.000Z</time>
                <name>Trackpoint 7697</name>
            </trkpt>
            <trkpt lat="49.7895776" lon="9.61498">
                <ele>149.0</ele>
                <time>2020-08-28T15:45:32.000Z</time>
                <name>Trackpoint 7698</name>
            </trkpt>
            <trkpt lat="49.78952" lon="9.6148832">
                <ele>149.0</ele>
                <time>2020-08-28T15:45:34.000Z</time>
                <name>Trackpoint 7699</name>
            </trkpt>
            <trkpt lat="49.7894592" lon="9.6147648">
                <ele>149.0</ele>
                <time>2020-08-28T15:45:37.000Z</time>
                <name>Trackpoint 7700</name>
            </trkpt>
            <trkpt lat="49.7894752" lon="9.6146672">
                <ele>149.0</ele>
                <time>2020-08-28T15:45:40.000Z</time>
                <name>Trackpoint 7701</name>
            </trkpt>
            <trkpt lat="49.7894848" lon="9.614556">
                <ele>149.0</ele>
                <time>2020-08-28T15:45:43.000Z</time>
                <name>Trackpoint 7702</name>
            </trkpt>
            <trkpt lat="49.7894656" lon="9.6144336">
                <ele>149.0</ele>
                <time>2020-08-28T15:45:46.000Z</time>
                <name>Trackpoint 7703</name>
            </trkpt>
            <trkpt lat="49.7893856" lon="9.6143704">
                <ele>148.0</ele>
                <time>2020-08-28T15:45:49.000Z</time>
                <name>Trackpoint 7704</name>
            </trkpt>
            <trkpt lat="49.7893248" lon="9.614268">
                <ele>148.0</ele>
                <time>2020-08-28T15:45:52.000Z</time>
                <name>Trackpoint 7705</name>
            </trkpt>
            <trkpt lat="49.7892736" lon="9.6141784">
                <ele>149.0</ele>
                <time>2020-08-28T15:45:54.000Z</time>
                <name>Trackpoint 7706</name>
            </trkpt>
            <trkpt lat="49.789216" lon="9.6140808">
                <ele>149.0</ele>
                <time>2020-08-28T15:45:56.000Z</time>
                <name>Trackpoint 7707</name>
            </trkpt>
            <trkpt lat="49.7891584" lon="9.6139896">
                <ele>149.0</ele>
                <time>2020-08-28T15:45:58.000Z</time>
                <name>Trackpoint 7708</name>
            </trkpt>
            <trkpt lat="49.789104" lon="9.6138952">
                <ele>149.0</ele>
                <time>2020-08-28T15:46:00.000Z</time>
                <name>Trackpoint 7709</name>
            </trkpt>
            <trkpt lat="49.7890432" lon="9.6137984">
                <ele>149.0</ele>
                <time>2020-08-28T15:46:02.000Z</time>
                <name>Trackpoint 7710</name>
            </trkpt>
            <trkpt lat="49.7889888" lon="9.61372">
                <ele>149.0</ele>
                <time>2020-08-28T15:46:04.000Z</time>
                <name>Trackpoint 7711</name>
            </trkpt>
            <trkpt lat="49.7889344" lon="9.6136176">
                <ele>149.0</ele>
                <time>2020-08-28T15:46:07.000Z</time>
                <name>Trackpoint 7712</name>
            </trkpt>
            <trkpt lat="49.7888768" lon="9.6135256">
                <ele>149.0</ele>
                <time>2020-08-28T15:46:10.000Z</time>
                <name>Trackpoint 7713</name>
            </trkpt>
            <trkpt lat="49.7888064" lon="9.6134096">
                <ele>149.0</ele>
                <time>2020-08-28T15:46:13.000Z</time>
                <name>Trackpoint 7714</name>
            </trkpt>
            <trkpt lat="49.788752" lon="9.6133248">
                <ele>149.0</ele>
                <time>2020-08-28T15:46:15.000Z</time>
                <name>Trackpoint 7715</name>
            </trkpt>
            <trkpt lat="49.7886976" lon="9.6132384">
                <ele>149.0</ele>
                <time>2020-08-28T15:46:17.000Z</time>
                <name>Trackpoint 7716</name>
            </trkpt>
            <trkpt lat="49.7886432" lon="9.6131632">
                <ele>149.0</ele>
                <time>2020-08-28T15:46:19.000Z</time>
                <name>Trackpoint 7717</name>
            </trkpt>
            <trkpt lat="49.7885888" lon="9.6130848">
                <ele>149.0</ele>
                <time>2020-08-28T15:46:21.000Z</time>
                <name>Trackpoint 7718</name>
            </trkpt>
            <trkpt lat="49.7885088" lon="9.6129664">
                <ele>149.0</ele>
                <time>2020-08-28T15:46:24.000Z</time>
                <name>Trackpoint 7719</name>
            </trkpt>
            <trkpt lat="49.7884544" lon="9.6128832">
                <ele>149.0</ele>
                <time>2020-08-28T15:46:26.000Z</time>
                <name>Trackpoint 7720</name>
            </trkpt>
            <trkpt lat="49.7884" lon="9.6127904">
                <ele>149.0</ele>
                <time>2020-08-28T15:46:28.000Z</time>
                <name>Trackpoint 7721</name>
            </trkpt>
            <trkpt lat="49.7883232" lon="9.6126784">
                <ele>149.0</ele>
                <time>2020-08-28T15:46:31.000Z</time>
                <name>Trackpoint 7722</name>
            </trkpt>
            <trkpt lat="49.7882656" lon="9.6125872">
                <ele>149.0</ele>
                <time>2020-08-28T15:46:33.000Z</time>
                <name>Trackpoint 7723</name>
            </trkpt>
            <trkpt lat="49.7882144" lon="9.612496">
                <ele>150.0</ele>
                <time>2020-08-28T15:46:35.000Z</time>
                <name>Trackpoint 7724</name>
            </trkpt>
            <trkpt lat="49.7881536" lon="9.6123752">
                <ele>150.0</ele>
                <time>2020-08-28T15:46:37.000Z</time>
                <name>Trackpoint 7725</name>
            </trkpt>
            <trkpt lat="49.7880928" lon="9.6122128">
                <ele>150.0</ele>
                <time>2020-08-28T15:46:39.000Z</time>
                <name>Trackpoint 7726</name>
            </trkpt>
            <trkpt lat="49.7880672" lon="9.6121264">
                <ele>150.0</ele>
                <time>2020-08-28T15:46:40.000Z</time>
                <name>Trackpoint 7727</name>
            </trkpt>
            <trkpt lat="49.7880448" lon="9.6120328">
                <ele>150.0</ele>
                <time>2020-08-28T15:46:41.000Z</time>
                <name>Trackpoint 7728</name>
            </trkpt>
            <trkpt lat="49.7880064" lon="9.61194">
                <ele>150.0</ele>
                <time>2020-08-28T15:46:42.000Z</time>
                <name>Trackpoint 7729</name>
            </trkpt>
            <trkpt lat="49.7879744" lon="9.6118416">
                <ele>150.0</ele>
                <time>2020-08-28T15:46:43.000Z</time>
                <name>Trackpoint 7730</name>
            </trkpt>
            <trkpt lat="49.7879456" lon="9.6117288">
                <ele>150.0</ele>
                <time>2020-08-28T15:46:44.000Z</time>
                <name>Trackpoint 7731</name>
            </trkpt>
            <trkpt lat="49.7879168" lon="9.6116168">
                <ele>150.0</ele>
                <time>2020-08-28T15:46:45.000Z</time>
                <name>Trackpoint 7732</name>
            </trkpt>
            <trkpt lat="49.7878784" lon="9.611504">
                <ele>150.0</ele>
                <time>2020-08-28T15:46:46.000Z</time>
                <name>Trackpoint 7733</name>
            </trkpt>
            <trkpt lat="49.7878464" lon="9.6113952">
                <ele>150.0</ele>
                <time>2020-08-28T15:46:47.000Z</time>
                <name>Trackpoint 7734</name>
            </trkpt>
            <trkpt lat="49.787808" lon="9.6112936">
                <ele>150.0</ele>
                <time>2020-08-28T15:46:48.000Z</time>
                <name>Trackpoint 7735</name>
            </trkpt>
            <trkpt lat="49.7877696" lon="9.6111968">
                <ele>150.0</ele>
                <time>2020-08-28T15:46:49.000Z</time>
                <name>Trackpoint 7736</name>
            </trkpt>
            <trkpt lat="49.787728" lon="9.6110984">
                <ele>150.0</ele>
                <time>2020-08-28T15:46:50.000Z</time>
                <name>Trackpoint 7737</name>
            </trkpt>
            <trkpt lat="49.7876896" lon="9.6110088">
                <ele>150.0</ele>
                <time>2020-08-28T15:46:51.000Z</time>
                <name>Trackpoint 7738</name>
            </trkpt>
            <trkpt lat="49.787648" lon="9.6109184">
                <ele>150.0</ele>
                <time>2020-08-28T15:46:52.000Z</time>
                <name>Trackpoint 7739</name>
            </trkpt>
            <trkpt lat="49.7875744" lon="9.610748">
                <ele>150.0</ele>
                <time>2020-08-28T15:46:54.000Z</time>
                <name>Trackpoint 7740</name>
            </trkpt>
            <trkpt lat="49.7875104" lon="9.6106016">
                <ele>150.0</ele>
                <time>2020-08-28T15:46:56.000Z</time>
                <name>Trackpoint 7741</name>
            </trkpt>
            <trkpt lat="49.787472" lon="9.610512">
                <ele>150.0</ele>
                <time>2020-08-28T15:46:57.000Z</time>
                <name>Trackpoint 7742</name>
            </trkpt>
            <trkpt lat="49.7874112" lon="9.6103784">
                <ele>150.0</ele>
                <time>2020-08-28T15:46:59.000Z</time>
                <name>Trackpoint 7743</name>
            </trkpt>
            <trkpt lat="49.7873504" lon="9.6102368">
                <ele>150.0</ele>
                <time>2020-08-28T15:47:01.000Z</time>
                <name>Trackpoint 7744</name>
            </trkpt>
            <trkpt lat="49.7872864" lon="9.6100776">
                <ele>150.0</ele>
                <time>2020-08-28T15:47:03.000Z</time>
                <name>Trackpoint 7745</name>
            </trkpt>
            <trkpt lat="49.7872192" lon="9.609908">
                <ele>150.0</ele>
                <time>2020-08-28T15:47:05.000Z</time>
                <name>Trackpoint 7746</name>
            </trkpt>
            <trkpt lat="49.7871936" lon="9.60982">
                <ele>150.0</ele>
                <time>2020-08-28T15:47:06.000Z</time>
                <name>Trackpoint 7747</name>
            </trkpt>
            <trkpt lat="49.7871616" lon="9.6097336">
                <ele>150.0</ele>
                <time>2020-08-28T15:47:07.000Z</time>
                <name>Trackpoint 7748</name>
            </trkpt>
            <trkpt lat="49.7871392" lon="9.6096448">
                <ele>150.0</ele>
                <time>2020-08-28T15:47:08.000Z</time>
                <name>Trackpoint 7749</name>
            </trkpt>
            <trkpt lat="49.7871136" lon="9.609556">
                <ele>150.0</ele>
                <time>2020-08-28T15:47:09.000Z</time>
                <name>Trackpoint 7750</name>
            </trkpt>
            <trkpt lat="49.7870816" lon="9.6094704">
                <ele>150.0</ele>
                <time>2020-08-28T15:47:10.000Z</time>
                <name>Trackpoint 7751</name>
            </trkpt>
            <trkpt lat="49.7870528" lon="9.6093832">
                <ele>150.0</ele>
                <time>2020-08-28T15:47:11.000Z</time>
                <name>Trackpoint 7752</name>
            </trkpt>
            <trkpt lat="49.7870208" lon="9.6092952">
                <ele>150.0</ele>
                <time>2020-08-28T15:47:12.000Z</time>
                <name>Trackpoint 7753</name>
            </trkpt>
            <trkpt lat="49.78696" lon="9.609132">
                <ele>150.0</ele>
                <time>2020-08-28T15:47:14.000Z</time>
                <name>Trackpoint 7754</name>
            </trkpt>
            <trkpt lat="49.7869056" lon="9.6089688">
                <ele>150.0</ele>
                <time>2020-08-28T15:47:16.000Z</time>
                <name>Trackpoint 7755</name>
            </trkpt>
            <trkpt lat="49.786864" lon="9.6088">
                <ele>150.0</ele>
                <time>2020-08-28T15:47:18.000Z</time>
                <name>Trackpoint 7756</name>
            </trkpt>
            <trkpt lat="49.786816" lon="9.60864">
                <ele>150.0</ele>
                <time>2020-08-28T15:47:20.000Z</time>
                <name>Trackpoint 7757</name>
            </trkpt>
            <trkpt lat="49.7867616" lon="9.6085032">
                <ele>150.0</ele>
                <time>2020-08-28T15:47:22.000Z</time>
                <name>Trackpoint 7758</name>
            </trkpt>
            <trkpt lat="49.7867328" lon="9.6084144">
                <ele>150.0</ele>
                <time>2020-08-28T15:47:23.000Z</time>
                <name>Trackpoint 7759</name>
            </trkpt>
            <trkpt lat="49.7867168" lon="9.608312">
                <ele>150.0</ele>
                <time>2020-08-28T15:47:24.000Z</time>
                <name>Trackpoint 7760</name>
            </trkpt>
            <trkpt lat="49.786704" lon="9.60822">
                <ele>150.0</ele>
                <time>2020-08-28T15:47:25.000Z</time>
                <name>Trackpoint 7761</name>
            </trkpt>
            <trkpt lat="49.7866784" lon="9.6080616">
                <ele>150.0</ele>
                <time>2020-08-28T15:47:27.000Z</time>
                <name>Trackpoint 7762</name>
            </trkpt>
            <trkpt lat="49.7866432" lon="9.6078816">
                <ele>150.0</ele>
                <time>2020-08-28T15:47:29.000Z</time>
                <name>Trackpoint 7763</name>
            </trkpt>
            <trkpt lat="49.7866112" lon="9.6077">
                <ele>150.0</ele>
                <time>2020-08-28T15:47:31.000Z</time>
                <name>Trackpoint 7764</name>
            </trkpt>
            <trkpt lat="49.7865952" lon="9.6076032">
                <ele>150.0</ele>
                <time>2020-08-28T15:47:32.000Z</time>
                <name>Trackpoint 7765</name>
            </trkpt>
            <trkpt lat="49.7865824" lon="9.6075088">
                <ele>150.0</ele>
                <time>2020-08-28T15:47:33.000Z</time>
                <name>Trackpoint 7766</name>
            </trkpt>
            <trkpt lat="49.78656" lon="9.6074088">
                <ele>150.0</ele>
                <time>2020-08-28T15:47:34.000Z</time>
                <name>Trackpoint 7767</name>
            </trkpt>
            <trkpt lat="49.7865408" lon="9.6073112">
                <ele>150.0</ele>
                <time>2020-08-28T15:47:35.000Z</time>
                <name>Trackpoint 7768</name>
            </trkpt>
            <trkpt lat="49.7865248" lon="9.607208">
                <ele>150.0</ele>
                <time>2020-08-28T15:47:36.000Z</time>
                <name>Trackpoint 7769</name>
            </trkpt>
            <trkpt lat="49.7865024" lon="9.6071104">
                <ele>150.0</ele>
                <time>2020-08-28T15:47:37.000Z</time>
                <name>Trackpoint 7770</name>
            </trkpt>
            <trkpt lat="49.78648" lon="9.6070096">
                <ele>150.0</ele>
                <time>2020-08-28T15:47:38.000Z</time>
                <name>Trackpoint 7771</name>
            </trkpt>
            <trkpt lat="49.7864576" lon="9.606912">
                <ele>150.0</ele>
                <time>2020-08-28T15:47:39.000Z</time>
                <name>Trackpoint 7772</name>
            </trkpt>
            <trkpt lat="49.7864416" lon="9.6068136">
                <ele>150.0</ele>
                <time>2020-08-28T15:47:40.000Z</time>
                <name>Trackpoint 7773</name>
            </trkpt>
            <trkpt lat="49.786416" lon="9.6067112">
                <ele>150.0</ele>
                <time>2020-08-28T15:47:41.000Z</time>
                <name>Trackpoint 7774</name>
            </trkpt>
            <trkpt lat="49.7863936" lon="9.60662">
                <ele>150.0</ele>
                <time>2020-08-28T15:47:42.000Z</time>
                <name>Trackpoint 7775</name>
            </trkpt>
            <trkpt lat="49.7863648" lon="9.6065264">
                <ele>150.0</ele>
                <time>2020-08-28T15:47:43.000Z</time>
                <name>Trackpoint 7776</name>
            </trkpt>
            <trkpt lat="49.7863424" lon="9.606432">
                <ele>150.0</ele>
                <time>2020-08-28T15:47:44.000Z</time>
                <name>Trackpoint 7777</name>
            </trkpt>
            <trkpt lat="49.78632" lon="9.6063408">
                <ele>150.0</ele>
                <time>2020-08-28T15:47:45.000Z</time>
                <name>Trackpoint 7778</name>
            </trkpt>
            <trkpt lat="49.7862976" lon="9.606248">
                <ele>150.0</ele>
                <time>2020-08-28T15:47:46.000Z</time>
                <name>Trackpoint 7779</name>
            </trkpt>
            <trkpt lat="49.7862464" lon="9.606076">
                <ele>150.0</ele>
                <time>2020-08-28T15:47:48.000Z</time>
                <name>Trackpoint 7780</name>
            </trkpt>
            <trkpt lat="49.7862016" lon="9.605908">
                <ele>150.0</ele>
                <time>2020-08-28T15:47:50.000Z</time>
                <name>Trackpoint 7781</name>
            </trkpt>
            <trkpt lat="49.7861504" lon="9.6057392">
                <ele>149.0</ele>
                <time>2020-08-28T15:47:52.000Z</time>
                <name>Trackpoint 7782</name>
            </trkpt>
            <trkpt lat="49.7861248" lon="9.605652">
                <ele>149.0</ele>
                <time>2020-08-28T15:47:53.000Z</time>
                <name>Trackpoint 7783</name>
            </trkpt>
            <trkpt lat="49.7860992" lon="9.6055616">
                <ele>149.0</ele>
                <time>2020-08-28T15:47:54.000Z</time>
                <name>Trackpoint 7784</name>
            </trkpt>
            <trkpt lat="49.7860704" lon="9.6054752">
                <ele>149.0</ele>
                <time>2020-08-28T15:47:55.000Z</time>
                <name>Trackpoint 7785</name>
            </trkpt>
            <trkpt lat="49.7860224" lon="9.60532">
                <ele>149.0</ele>
                <time>2020-08-28T15:47:57.000Z</time>
                <name>Trackpoint 7786</name>
            </trkpt>
            <trkpt lat="49.7859808" lon="9.6051648">
                <ele>149.0</ele>
                <time>2020-08-28T15:47:59.000Z</time>
                <name>Trackpoint 7787</name>
            </trkpt>
            <trkpt lat="49.785936" lon="9.6050064">
                <ele>149.0</ele>
                <time>2020-08-28T15:48:01.000Z</time>
                <name>Trackpoint 7788</name>
            </trkpt>
            <trkpt lat="49.785904" lon="9.6049144">
                <ele>149.0</ele>
                <time>2020-08-28T15:48:02.000Z</time>
                <name>Trackpoint 7789</name>
            </trkpt>
            <trkpt lat="49.7858624" lon="9.6047872">
                <ele>149.0</ele>
                <time>2020-08-28T15:48:03.000Z</time>
                <name>Trackpoint 7790</name>
            </trkpt>
            <trkpt lat="49.785824" lon="9.604624">
                <ele>149.0</ele>
                <time>2020-08-28T15:48:05.000Z</time>
                <name>Trackpoint 7791</name>
            </trkpt>
            <trkpt lat="49.7857856" lon="9.6044648">
                <ele>149.0</ele>
                <time>2020-08-28T15:48:07.000Z</time>
                <name>Trackpoint 7792</name>
            </trkpt>
            <trkpt lat="49.7857536" lon="9.604288">
                <ele>149.0</ele>
                <time>2020-08-28T15:48:09.000Z</time>
                <name>Trackpoint 7793</name>
            </trkpt>
            <trkpt lat="49.7857248" lon="9.6041136">
                <ele>149.0</ele>
                <time>2020-08-28T15:48:11.000Z</time>
                <name>Trackpoint 7794</name>
            </trkpt>
            <trkpt lat="49.7856928" lon="9.6039432">
                <ele>149.0</ele>
                <time>2020-08-28T15:48:13.000Z</time>
                <name>Trackpoint 7795</name>
            </trkpt>
            <trkpt lat="49.785664" lon="9.6037776">
                <ele>150.0</ele>
                <time>2020-08-28T15:48:15.000Z</time>
                <name>Trackpoint 7796</name>
            </trkpt>
            <trkpt lat="49.7856256" lon="9.6036032">
                <ele>150.0</ele>
                <time>2020-08-28T15:48:17.000Z</time>
                <name>Trackpoint 7797</name>
            </trkpt>
            <trkpt lat="49.7856" lon="9.6034296">
                <ele>149.0</ele>
                <time>2020-08-28T15:48:19.000Z</time>
                <name>Trackpoint 7798</name>
            </trkpt>
            <trkpt lat="49.785584" lon="9.6032696">
                <ele>147.0</ele>
                <time>2020-08-28T15:48:21.000Z</time>
                <name>Trackpoint 7799</name>
            </trkpt>
            <trkpt lat="49.785552" lon="9.603104">
                <ele>147.0</ele>
                <time>2020-08-28T15:48:23.000Z</time>
                <name>Trackpoint 7800</name>
            </trkpt>
            <trkpt lat="49.78552" lon="9.602932">
                <ele>147.0</ele>
                <time>2020-08-28T15:48:25.000Z</time>
                <name>Trackpoint 7801</name>
            </trkpt>
            <trkpt lat="49.7854848" lon="9.6027648">
                <ele>147.0</ele>
                <time>2020-08-28T15:48:27.000Z</time>
                <name>Trackpoint 7802</name>
            </trkpt>
            <trkpt lat="49.7854496" lon="9.6026184">
                <ele>148.0</ele>
                <time>2020-08-28T15:48:29.000Z</time>
                <name>Trackpoint 7803</name>
            </trkpt>
            <trkpt lat="49.7854112" lon="9.6024912">
                <ele>147.0</ele>
                <time>2020-08-28T15:48:31.000Z</time>
                <name>Trackpoint 7804</name>
            </trkpt>
            <trkpt lat="49.785376" lon="9.6023664">
                <ele>147.0</ele>
                <time>2020-08-28T15:48:33.000Z</time>
                <name>Trackpoint 7805</name>
            </trkpt>
            <trkpt lat="49.7853504" lon="9.6022384">
                <ele>147.0</ele>
                <time>2020-08-28T15:48:35.000Z</time>
                <name>Trackpoint 7806</name>
            </trkpt>
            <trkpt lat="49.7853216" lon="9.6021048">
                <ele>147.0</ele>
                <time>2020-08-28T15:48:37.000Z</time>
                <name>Trackpoint 7807</name>
            </trkpt>
            <trkpt lat="49.785296" lon="9.6019696">
                <ele>147.0</ele>
                <time>2020-08-28T15:48:39.000Z</time>
                <name>Trackpoint 7808</name>
            </trkpt>
            <trkpt lat="49.7852832" lon="9.6018264">
                <ele>147.0</ele>
                <time>2020-08-28T15:48:41.000Z</time>
                <name>Trackpoint 7809</name>
            </trkpt>
            <trkpt lat="49.7852608" lon="9.60168">
                <ele>148.0</ele>
                <time>2020-08-28T15:48:43.000Z</time>
                <name>Trackpoint 7810</name>
            </trkpt>
            <trkpt lat="49.785232" lon="9.6015352">
                <ele>148.0</ele>
                <time>2020-08-28T15:48:45.000Z</time>
                <name>Trackpoint 7811</name>
            </trkpt>
            <trkpt lat="49.7851936" lon="9.6013872">
                <ele>148.0</ele>
                <time>2020-08-28T15:48:47.000Z</time>
                <name>Trackpoint 7812</name>
            </trkpt>
            <trkpt lat="49.7851712" lon="9.6012272">
                <ele>148.0</ele>
                <time>2020-08-28T15:48:49.000Z</time>
                <name>Trackpoint 7813</name>
            </trkpt>
            <trkpt lat="49.7851328" lon="9.6010704">
                <ele>148.0</ele>
                <time>2020-08-28T15:48:51.000Z</time>
                <name>Trackpoint 7814</name>
            </trkpt>
            <trkpt lat="49.785104" lon="9.6009056">
                <ele>148.0</ele>
                <time>2020-08-28T15:48:53.000Z</time>
                <name>Trackpoint 7815</name>
            </trkpt>
            <trkpt lat="49.7850848" lon="9.6007384">
                <ele>148.0</ele>
                <time>2020-08-28T15:48:55.000Z</time>
                <name>Trackpoint 7816</name>
            </trkpt>
            <trkpt lat="49.7850656" lon="9.6005672">
                <ele>149.0</ele>
                <time>2020-08-28T15:48:57.000Z</time>
                <name>Trackpoint 7817</name>
            </trkpt>
            <trkpt lat="49.7850432" lon="9.6004088">
                <ele>149.0</ele>
                <time>2020-08-28T15:48:59.000Z</time>
                <name>Trackpoint 7818</name>
            </trkpt>
            <trkpt lat="49.7850176" lon="9.6002392">
                <ele>149.0</ele>
                <time>2020-08-28T15:49:01.000Z</time>
                <name>Trackpoint 7819</name>
            </trkpt>
            <trkpt lat="49.7849984" lon="9.6000696">
                <ele>149.0</ele>
                <time>2020-08-28T15:49:03.000Z</time>
                <name>Trackpoint 7820</name>
            </trkpt>
            <trkpt lat="49.7849792" lon="9.5999008">
                <ele>148.0</ele>
                <time>2020-08-28T15:49:05.000Z</time>
                <name>Trackpoint 7821</name>
            </trkpt>
            <trkpt lat="49.7849536" lon="9.59974">
                <ele>148.0</ele>
                <time>2020-08-28T15:49:07.000Z</time>
                <name>Trackpoint 7822</name>
            </trkpt>
            <trkpt lat="49.7849312" lon="9.5995904">
                <ele>147.0</ele>
                <time>2020-08-28T15:49:09.000Z</time>
                <name>Trackpoint 7823</name>
            </trkpt>
            <trkpt lat="49.784896" lon="9.5994232">
                <ele>147.0</ele>
                <time>2020-08-28T15:49:11.000Z</time>
                <name>Trackpoint 7824</name>
            </trkpt>
            <trkpt lat="49.784864" lon="9.599272">
                <ele>146.0</ele>
                <time>2020-08-28T15:49:13.000Z</time>
                <name>Trackpoint 7825</name>
            </trkpt>
            <trkpt lat="49.7848256" lon="9.5991624">
                <ele>146.0</ele>
                <time>2020-08-28T15:49:15.000Z</time>
                <name>Trackpoint 7826</name>
            </trkpt>
            <trkpt lat="49.784832" lon="9.5990152">
                <ele>146.0</ele>
                <time>2020-08-28T15:49:17.000Z</time>
                <name>Trackpoint 7827</name>
            </trkpt>
            <trkpt lat="49.7848384" lon="9.5989104">
                <ele>146.0</ele>
                <time>2020-08-28T15:49:18.000Z</time>
                <name>Trackpoint 7828</name>
            </trkpt>
            <trkpt lat="49.7848352" lon="9.598792">
                <ele>146.0</ele>
                <time>2020-08-28T15:49:19.000Z</time>
                <name>Trackpoint 7829</name>
            </trkpt>
            <trkpt lat="49.7848192" lon="9.5986704">
                <ele>146.0</ele>
                <time>2020-08-28T15:49:20.000Z</time>
                <name>Trackpoint 7830</name>
            </trkpt>
            <trkpt lat="49.7848064" lon="9.5985672">
                <ele>146.0</ele>
                <time>2020-08-28T15:49:21.000Z</time>
                <name>Trackpoint 7831</name>
            </trkpt>
            <trkpt lat="49.784784" lon="9.5984552">
                <ele>146.0</ele>
                <time>2020-08-28T15:49:22.000Z</time>
                <name>Trackpoint 7832</name>
            </trkpt>
            <trkpt lat="49.7847648" lon="9.5983536">
                <ele>146.0</ele>
                <time>2020-08-28T15:49:23.000Z</time>
                <name>Trackpoint 7833</name>
            </trkpt>
            <trkpt lat="49.7847456" lon="9.5982504">
                <ele>146.0</ele>
                <time>2020-08-28T15:49:24.000Z</time>
                <name>Trackpoint 7834</name>
            </trkpt>
            <trkpt lat="49.7847296" lon="9.5981504">
                <ele>146.0</ele>
                <time>2020-08-28T15:49:25.000Z</time>
                <name>Trackpoint 7835</name>
            </trkpt>
            <trkpt lat="49.78472" lon="9.5980456">
                <ele>145.0</ele>
                <time>2020-08-28T15:49:26.000Z</time>
                <name>Trackpoint 7836</name>
            </trkpt>
            <trkpt lat="49.7847104" lon="9.597948">
                <ele>146.0</ele>
                <time>2020-08-28T15:49:27.000Z</time>
                <name>Trackpoint 7837</name>
            </trkpt>
            <trkpt lat="49.7846976" lon="9.597852">
                <ele>146.0</ele>
                <time>2020-08-28T15:49:28.000Z</time>
                <name>Trackpoint 7838</name>
            </trkpt>
            <trkpt lat="49.7846848" lon="9.597756">
                <ele>146.0</ele>
                <time>2020-08-28T15:49:29.000Z</time>
                <name>Trackpoint 7839</name>
            </trkpt>
            <trkpt lat="49.784672" lon="9.59766">
                <ele>147.0</ele>
                <time>2020-08-28T15:49:30.000Z</time>
                <name>Trackpoint 7840</name>
            </trkpt>
            <trkpt lat="49.7846528" lon="9.5975704">
                <ele>146.0</ele>
                <time>2020-08-28T15:49:31.000Z</time>
                <name>Trackpoint 7841</name>
            </trkpt>
            <trkpt lat="49.7846304" lon="9.5974752">
                <ele>146.0</ele>
                <time>2020-08-28T15:49:32.000Z</time>
                <name>Trackpoint 7842</name>
            </trkpt>
            <trkpt lat="49.7846144" lon="9.5973856">
                <ele>146.0</ele>
                <time>2020-08-28T15:49:33.000Z</time>
                <name>Trackpoint 7843</name>
            </trkpt>
            <trkpt lat="49.7845984" lon="9.5972968">
                <ele>146.0</ele>
                <time>2020-08-28T15:49:34.000Z</time>
                <name>Trackpoint 7844</name>
            </trkpt>
            <trkpt lat="49.7845888" lon="9.5972072">
                <ele>146.0</ele>
                <time>2020-08-28T15:49:35.000Z</time>
                <name>Trackpoint 7845</name>
            </trkpt>
            <trkpt lat="49.784576" lon="9.5971144">
                <ele>147.0</ele>
                <time>2020-08-28T15:49:36.000Z</time>
                <name>Trackpoint 7846</name>
            </trkpt>
            <trkpt lat="49.7845536" lon="9.5969384">
                <ele>147.0</ele>
                <time>2020-08-28T15:49:38.000Z</time>
                <name>Trackpoint 7847</name>
            </trkpt>
            <trkpt lat="49.7845312" lon="9.5967648">
                <ele>146.0</ele>
                <time>2020-08-28T15:49:40.000Z</time>
                <name>Trackpoint 7848</name>
            </trkpt>
            <trkpt lat="49.7845088" lon="9.596592">
                <ele>147.0</ele>
                <time>2020-08-28T15:49:42.000Z</time>
                <name>Trackpoint 7849</name>
            </trkpt>
            <trkpt lat="49.78448" lon="9.5964232">
                <ele>147.0</ele>
                <time>2020-08-28T15:49:44.000Z</time>
                <name>Trackpoint 7850</name>
            </trkpt>
            <trkpt lat="49.7844576" lon="9.5962688">
                <ele>146.0</ele>
                <time>2020-08-28T15:49:46.000Z</time>
                <name>Trackpoint 7851</name>
            </trkpt>
            <trkpt lat="49.7844384" lon="9.5961136">
                <ele>147.0</ele>
                <time>2020-08-28T15:49:48.000Z</time>
                <name>Trackpoint 7852</name>
            </trkpt>
            <trkpt lat="49.7844128" lon="9.5959656">
                <ele>146.0</ele>
                <time>2020-08-28T15:49:50.000Z</time>
                <name>Trackpoint 7853</name>
            </trkpt>
            <trkpt lat="49.7843904" lon="9.5958144">
                <ele>147.0</ele>
                <time>2020-08-28T15:49:52.000Z</time>
                <name>Trackpoint 7854</name>
            </trkpt>
            <trkpt lat="49.7843616" lon="9.5956624">
                <ele>147.0</ele>
                <time>2020-08-28T15:49:54.000Z</time>
                <name>Trackpoint 7855</name>
            </trkpt>
            <trkpt lat="49.7843328" lon="9.5955048">
                <ele>147.0</ele>
                <time>2020-08-28T15:49:56.000Z</time>
                <name>Trackpoint 7856</name>
            </trkpt>
            <trkpt lat="49.7843136" lon="9.5953528">
                <ele>146.0</ele>
                <time>2020-08-28T15:49:58.000Z</time>
                <name>Trackpoint 7857</name>
            </trkpt>
            <trkpt lat="49.7842816" lon="9.5952056">
                <ele>147.0</ele>
                <time>2020-08-28T15:50:00.000Z</time>
                <name>Trackpoint 7858</name>
            </trkpt>
            <trkpt lat="49.7842528" lon="9.5950632">
                <ele>147.0</ele>
                <time>2020-08-28T15:50:02.000Z</time>
                <name>Trackpoint 7859</name>
            </trkpt>
            <trkpt lat="49.784224" lon="9.5949248">
                <ele>148.0</ele>
                <time>2020-08-28T15:50:04.000Z</time>
                <name>Trackpoint 7860</name>
            </trkpt>
            <trkpt lat="49.7842016" lon="9.5947912">
                <ele>150.0</ele>
                <time>2020-08-28T15:50:06.000Z</time>
                <name>Trackpoint 7861</name>
            </trkpt>
            <trkpt lat="49.7841696" lon="9.594664">
                <ele>148.0</ele>
                <time>2020-08-28T15:50:08.000Z</time>
                <name>Trackpoint 7862</name>
            </trkpt>
            <trkpt lat="49.7841408" lon="9.5945328">
                <ele>148.0</ele>
                <time>2020-08-28T15:50:10.000Z</time>
                <name>Trackpoint 7863</name>
            </trkpt>
            <trkpt lat="49.7841248" lon="9.5944184">
                <ele>148.0</ele>
                <time>2020-08-28T15:50:12.000Z</time>
                <name>Trackpoint 7864</name>
            </trkpt>
            <trkpt lat="49.7840992" lon="9.5942848">
                <ele>148.0</ele>
                <time>2020-08-28T15:50:14.000Z</time>
                <name>Trackpoint 7865</name>
            </trkpt>
            <trkpt lat="49.7840736" lon="9.5941512">
                <ele>148.0</ele>
                <time>2020-08-28T15:50:16.000Z</time>
                <name>Trackpoint 7866</name>
            </trkpt>
            <trkpt lat="49.7840416" lon="9.5940064">
                <ele>149.0</ele>
                <time>2020-08-28T15:50:18.000Z</time>
                <name>Trackpoint 7867</name>
            </trkpt>
            <trkpt lat="49.784016" lon="9.5938784">
                <ele>150.0</ele>
                <time>2020-08-28T15:50:20.000Z</time>
                <name>Trackpoint 7868</name>
            </trkpt>
            <trkpt lat="49.7839904" lon="9.5937544">
                <ele>150.0</ele>
                <time>2020-08-28T15:50:22.000Z</time>
                <name>Trackpoint 7869</name>
            </trkpt>
            <trkpt lat="49.7839584" lon="9.5936248">
                <ele>150.0</ele>
                <time>2020-08-28T15:50:24.000Z</time>
                <name>Trackpoint 7870</name>
            </trkpt>
            <trkpt lat="49.783936" lon="9.5934888">
                <ele>150.0</ele>
                <time>2020-08-28T15:50:26.000Z</time>
                <name>Trackpoint 7871</name>
            </trkpt>
            <trkpt lat="49.7839104" lon="9.593364">
                <ele>151.0</ele>
                <time>2020-08-28T15:50:28.000Z</time>
                <name>Trackpoint 7872</name>
            </trkpt>
            <trkpt lat="49.7838784" lon="9.5932416">
                <ele>151.0</ele>
                <time>2020-08-28T15:50:30.000Z</time>
                <name>Trackpoint 7873</name>
            </trkpt>
            <trkpt lat="49.7838464" lon="9.5931352">
                <ele>151.0</ele>
                <time>2020-08-28T15:50:32.000Z</time>
                <name>Trackpoint 7874</name>
            </trkpt>
            <trkpt lat="49.783824" lon="9.5930272">
                <ele>151.0</ele>
                <time>2020-08-28T15:50:34.000Z</time>
                <name>Trackpoint 7875</name>
            </trkpt>
            <trkpt lat="49.783792" lon="9.5928584">
                <ele>152.0</ele>
                <time>2020-08-28T15:50:36.000Z</time>
                <name>Trackpoint 7876</name>
            </trkpt>
            <trkpt lat="49.78376" lon="9.5927096">
                <ele>152.0</ele>
                <time>2020-08-28T15:50:38.000Z</time>
                <name>Trackpoint 7877</name>
            </trkpt>
            <trkpt lat="49.7837344" lon="9.5925728">
                <ele>151.0</ele>
                <time>2020-08-28T15:50:40.000Z</time>
                <name>Trackpoint 7878</name>
            </trkpt>
            <trkpt lat="49.7837184" lon="9.5924384">
                <ele>151.0</ele>
                <time>2020-08-28T15:50:42.000Z</time>
                <name>Trackpoint 7879</name>
            </trkpt>
            <trkpt lat="49.7836928" lon="9.5923008">
                <ele>151.0</ele>
                <time>2020-08-28T15:50:44.000Z</time>
                <name>Trackpoint 7880</name>
            </trkpt>
            <trkpt lat="49.7836736" lon="9.5921672">
                <ele>152.0</ele>
                <time>2020-08-28T15:50:46.000Z</time>
                <name>Trackpoint 7881</name>
            </trkpt>
            <trkpt lat="49.7836416" lon="9.5920296">
                <ele>152.0</ele>
                <time>2020-08-28T15:50:48.000Z</time>
                <name>Trackpoint 7882</name>
            </trkpt>
            <trkpt lat="49.783616" lon="9.5918912">
                <ele>153.0</ele>
                <time>2020-08-28T15:50:50.000Z</time>
                <name>Trackpoint 7883</name>
            </trkpt>
            <trkpt lat="49.7835936" lon="9.5917504">
                <ele>153.0</ele>
                <time>2020-08-28T15:50:52.000Z</time>
                <name>Trackpoint 7884</name>
            </trkpt>
            <trkpt lat="49.7835744" lon="9.5916016">
                <ele>152.0</ele>
                <time>2020-08-28T15:50:54.000Z</time>
                <name>Trackpoint 7885</name>
            </trkpt>
            <trkpt lat="49.7835552" lon="9.5914432">
                <ele>152.0</ele>
                <time>2020-08-28T15:50:56.000Z</time>
                <name>Trackpoint 7886</name>
            </trkpt>
            <trkpt lat="49.7835392" lon="9.5912752">
                <ele>152.0</ele>
                <time>2020-08-28T15:50:58.000Z</time>
                <name>Trackpoint 7887</name>
            </trkpt>
            <trkpt lat="49.7835232" lon="9.5911864">
                <ele>152.0</ele>
                <time>2020-08-28T15:50:59.000Z</time>
                <name>Trackpoint 7888</name>
            </trkpt>
            <trkpt lat="49.7835136" lon="9.5910968">
                <ele>152.0</ele>
                <time>2020-08-28T15:51:00.000Z</time>
                <name>Trackpoint 7889</name>
            </trkpt>
            <trkpt lat="49.7834976" lon="9.5910064">
                <ele>152.0</ele>
                <time>2020-08-28T15:51:01.000Z</time>
                <name>Trackpoint 7890</name>
            </trkpt>
            <trkpt lat="49.7834656" lon="9.5908368">
                <ele>152.0</ele>
                <time>2020-08-28T15:51:03.000Z</time>
                <name>Trackpoint 7891</name>
            </trkpt>
            <trkpt lat="49.7834336" lon="9.5906832">
                <ele>153.0</ele>
                <time>2020-08-28T15:51:05.000Z</time>
                <name>Trackpoint 7892</name>
            </trkpt>
            <trkpt lat="49.783408" lon="9.5905448">
                <ele>153.0</ele>
                <time>2020-08-28T15:51:07.000Z</time>
                <name>Trackpoint 7893</name>
            </trkpt>
            <trkpt lat="49.7833856" lon="9.5904104">
                <ele>153.0</ele>
                <time>2020-08-28T15:51:09.000Z</time>
                <name>Trackpoint 7894</name>
            </trkpt>
            <trkpt lat="49.7833632" lon="9.5902856">
                <ele>153.0</ele>
                <time>2020-08-28T15:51:11.000Z</time>
                <name>Trackpoint 7895</name>
            </trkpt>
            <trkpt lat="49.783344" lon="9.5901536">
                <ele>154.0</ele>
                <time>2020-08-28T15:51:13.000Z</time>
                <name>Trackpoint 7896</name>
            </trkpt>
            <trkpt lat="49.7833248" lon="9.590016">
                <ele>154.0</ele>
                <time>2020-08-28T15:51:15.000Z</time>
                <name>Trackpoint 7897</name>
            </trkpt>
            <trkpt lat="49.7833056" lon="9.5898768">
                <ele>154.0</ele>
                <time>2020-08-28T15:51:17.000Z</time>
                <name>Trackpoint 7898</name>
            </trkpt>
            <trkpt lat="49.7832832" lon="9.5897352">
                <ele>154.0</ele>
                <time>2020-08-28T15:51:19.000Z</time>
                <name>Trackpoint 7899</name>
            </trkpt>
            <trkpt lat="49.7832608" lon="9.5895904">
                <ele>154.0</ele>
                <time>2020-08-28T15:51:21.000Z</time>
                <name>Trackpoint 7900</name>
            </trkpt>
            <trkpt lat="49.7832384" lon="9.5894384">
                <ele>154.0</ele>
                <time>2020-08-28T15:51:23.000Z</time>
                <name>Trackpoint 7901</name>
            </trkpt>
            <trkpt lat="49.7832192" lon="9.5892936">
                <ele>153.0</ele>
                <time>2020-08-28T15:51:25.000Z</time>
                <name>Trackpoint 7902</name>
            </trkpt>
            <trkpt lat="49.7831968" lon="9.5891464">
                <ele>152.0</ele>
                <time>2020-08-28T15:51:27.000Z</time>
                <name>Trackpoint 7903</name>
            </trkpt>
            <trkpt lat="49.7831776" lon="9.5890056">
                <ele>152.0</ele>
                <time>2020-08-28T15:51:29.000Z</time>
                <name>Trackpoint 7904</name>
            </trkpt>
            <trkpt lat="49.783152" lon="9.5888544">
                <ele>152.0</ele>
                <time>2020-08-28T15:51:31.000Z</time>
                <name>Trackpoint 7905</name>
            </trkpt>
            <trkpt lat="49.783136" lon="9.588708">
                <ele>151.0</ele>
                <time>2020-08-28T15:51:33.000Z</time>
                <name>Trackpoint 7906</name>
            </trkpt>
            <trkpt lat="49.7831104" lon="9.58856">
                <ele>151.0</ele>
                <time>2020-08-28T15:51:35.000Z</time>
                <name>Trackpoint 7907</name>
            </trkpt>
            <trkpt lat="49.783088" lon="9.5884104">
                <ele>151.0</ele>
                <time>2020-08-28T15:51:37.000Z</time>
                <name>Trackpoint 7908</name>
            </trkpt>
            <trkpt lat="49.7830656" lon="9.588248">
                <ele>151.0</ele>
                <time>2020-08-28T15:51:39.000Z</time>
                <name>Trackpoint 7909</name>
            </trkpt>
            <trkpt lat="49.7830432" lon="9.5880736">
                <ele>151.0</ele>
                <time>2020-08-28T15:51:41.000Z</time>
                <name>Trackpoint 7910</name>
            </trkpt>
            <trkpt lat="49.7830272" lon="9.5879816">
                <ele>151.0</ele>
                <time>2020-08-28T15:51:42.000Z</time>
                <name>Trackpoint 7911</name>
            </trkpt>
            <trkpt lat="49.7830176" lon="9.5878912">
                <ele>151.0</ele>
                <time>2020-08-28T15:51:43.000Z</time>
                <name>Trackpoint 7912</name>
            </trkpt>
            <trkpt lat="49.7830048" lon="9.5878">
                <ele>151.0</ele>
                <time>2020-08-28T15:51:44.000Z</time>
                <name>Trackpoint 7913</name>
            </trkpt>
            <trkpt lat="49.7829888" lon="9.5877112">
                <ele>151.0</ele>
                <time>2020-08-28T15:51:45.000Z</time>
                <name>Trackpoint 7914</name>
            </trkpt>
            <trkpt lat="49.7829632" lon="9.5875368">
                <ele>151.0</ele>
                <time>2020-08-28T15:51:47.000Z</time>
                <name>Trackpoint 7915</name>
            </trkpt>
            <trkpt lat="49.7829408" lon="9.587372">
                <ele>151.0</ele>
                <time>2020-08-28T15:51:49.000Z</time>
                <name>Trackpoint 7916</name>
            </trkpt>
            <trkpt lat="49.7829184" lon="9.5872088">
                <ele>151.0</ele>
                <time>2020-08-28T15:51:51.000Z</time>
                <name>Trackpoint 7917</name>
            </trkpt>
            <trkpt lat="49.7828992" lon="9.5870584">
                <ele>151.0</ele>
                <time>2020-08-28T15:51:53.000Z</time>
                <name>Trackpoint 7918</name>
            </trkpt>
            <trkpt lat="49.78288" lon="9.5869216">
                <ele>151.0</ele>
                <time>2020-08-28T15:51:55.000Z</time>
                <name>Trackpoint 7919</name>
            </trkpt>
            <trkpt lat="49.782864" lon="9.5867904">
                <ele>151.0</ele>
                <time>2020-08-28T15:51:57.000Z</time>
                <name>Trackpoint 7920</name>
            </trkpt>
            <trkpt lat="49.7828448" lon="9.58666">
                <ele>151.0</ele>
                <time>2020-08-28T15:51:59.000Z</time>
                <name>Trackpoint 7921</name>
            </trkpt>
            <trkpt lat="49.7828288" lon="9.5865288">
                <ele>151.0</ele>
                <time>2020-08-28T15:52:01.000Z</time>
                <name>Trackpoint 7922</name>
            </trkpt>
            <trkpt lat="49.7828192" lon="9.5864016">
                <ele>151.0</ele>
                <time>2020-08-28T15:52:03.000Z</time>
                <name>Trackpoint 7923</name>
            </trkpt>
            <trkpt lat="49.7828096" lon="9.5862752">
                <ele>150.0</ele>
                <time>2020-08-28T15:52:05.000Z</time>
                <name>Trackpoint 7924</name>
            </trkpt>
            <trkpt lat="49.7827936" lon="9.5861632">
                <ele>150.0</ele>
                <time>2020-08-28T15:52:07.000Z</time>
                <name>Trackpoint 7925</name>
            </trkpt>
            <trkpt lat="49.782784" lon="9.5860528">
                <ele>150.0</ele>
                <time>2020-08-28T15:52:09.000Z</time>
                <name>Trackpoint 7926</name>
            </trkpt>
            <trkpt lat="49.782768" lon="9.5859384">
                <ele>150.0</ele>
                <time>2020-08-28T15:52:11.000Z</time>
                <name>Trackpoint 7927</name>
            </trkpt>
            <trkpt lat="49.7827584" lon="9.5858288">
                <ele>150.0</ele>
                <time>2020-08-28T15:52:13.000Z</time>
                <name>Trackpoint 7928</name>
            </trkpt>
            <trkpt lat="49.7827456" lon="9.5857216">
                <ele>150.0</ele>
                <time>2020-08-28T15:52:15.000Z</time>
                <name>Trackpoint 7929</name>
            </trkpt>
            <trkpt lat="49.7827296" lon="9.5856168">
                <ele>150.0</ele>
                <time>2020-08-28T15:52:17.000Z</time>
                <name>Trackpoint 7930</name>
            </trkpt>
            <trkpt lat="49.7827136" lon="9.5855064">
                <ele>150.0</ele>
                <time>2020-08-28T15:52:19.000Z</time>
                <name>Trackpoint 7931</name>
            </trkpt>
            <trkpt lat="49.782704" lon="9.5854104">
                <ele>150.0</ele>
                <time>2020-08-28T15:52:21.000Z</time>
                <name>Trackpoint 7932</name>
            </trkpt>
            <trkpt lat="49.782704" lon="9.5853168">
                <ele>150.0</ele>
                <time>2020-08-28T15:52:23.000Z</time>
                <name>Trackpoint 7933</name>
            </trkpt>
            <trkpt lat="49.7826912" lon="9.5851896">
                <ele>150.0</ele>
                <time>2020-08-28T15:52:26.000Z</time>
                <name>Trackpoint 7934</name>
            </trkpt>
            <trkpt lat="49.7826816" lon="9.5850888">
                <ele>151.0</ele>
                <time>2020-08-28T15:52:28.000Z</time>
                <name>Trackpoint 7935</name>
            </trkpt>
            <trkpt lat="49.7826752" lon="9.5849688">
                <ele>151.0</ele>
                <time>2020-08-28T15:52:30.000Z</time>
                <name>Trackpoint 7936</name>
            </trkpt>
            <trkpt lat="49.7826688" lon="9.5848488">
                <ele>150.0</ele>
                <time>2020-08-28T15:52:32.000Z</time>
                <name>Trackpoint 7937</name>
            </trkpt>
            <trkpt lat="49.7826624" lon="9.5847328">
                <ele>150.0</ele>
                <time>2020-08-28T15:52:34.000Z</time>
                <name>Trackpoint 7938</name>
            </trkpt>
            <trkpt lat="49.7826496" lon="9.5845968">
                <ele>150.0</ele>
                <time>2020-08-28T15:52:36.000Z</time>
                <name>Trackpoint 7939</name>
            </trkpt>
            <trkpt lat="49.7826464" lon="9.5844496">
                <ele>150.0</ele>
                <time>2020-08-28T15:52:38.000Z</time>
                <name>Trackpoint 7940</name>
            </trkpt>
            <trkpt lat="49.7826336" lon="9.5842936">
                <ele>149.0</ele>
                <time>2020-08-28T15:52:40.000Z</time>
                <name>Trackpoint 7941</name>
            </trkpt>
            <trkpt lat="49.782624" lon="9.5841304">
                <ele>149.0</ele>
                <time>2020-08-28T15:52:42.000Z</time>
                <name>Trackpoint 7942</name>
            </trkpt>
            <trkpt lat="49.7826144" lon="9.5839584">
                <ele>149.0</ele>
                <time>2020-08-28T15:52:44.000Z</time>
                <name>Trackpoint 7943</name>
            </trkpt>
            <trkpt lat="49.7826144" lon="9.583868">
                <ele>149.0</ele>
                <time>2020-08-28T15:52:45.000Z</time>
                <name>Trackpoint 7944</name>
            </trkpt>
            <trkpt lat="49.7826048" lon="9.5836984">
                <ele>149.0</ele>
                <time>2020-08-28T15:52:47.000Z</time>
                <name>Trackpoint 7945</name>
            </trkpt>
            <trkpt lat="49.782592" lon="9.5835288">
                <ele>149.0</ele>
                <time>2020-08-28T15:52:49.000Z</time>
                <name>Trackpoint 7946</name>
            </trkpt>
            <trkpt lat="49.782576" lon="9.5833632">
                <ele>149.0</ele>
                <time>2020-08-28T15:52:51.000Z</time>
                <name>Trackpoint 7947</name>
            </trkpt>
            <trkpt lat="49.7825632" lon="9.5832008">
                <ele>149.0</ele>
                <time>2020-08-28T15:52:53.000Z</time>
                <name>Trackpoint 7948</name>
            </trkpt>
            <trkpt lat="49.7825504" lon="9.58304">
                <ele>149.0</ele>
                <time>2020-08-28T15:52:55.000Z</time>
                <name>Trackpoint 7949</name>
            </trkpt>
            <trkpt lat="49.7825408" lon="9.58288">
                <ele>149.0</ele>
                <time>2020-08-28T15:52:57.000Z</time>
                <name>Trackpoint 7950</name>
            </trkpt>
            <trkpt lat="49.7825248" lon="9.5827176">
                <ele>149.0</ele>
                <time>2020-08-28T15:52:59.000Z</time>
                <name>Trackpoint 7951</name>
            </trkpt>
            <trkpt lat="49.7825088" lon="9.5825528">
                <ele>149.0</ele>
                <time>2020-08-28T15:53:01.000Z</time>
                <name>Trackpoint 7952</name>
            </trkpt>
            <trkpt lat="49.7824928" lon="9.5823848">
                <ele>149.0</ele>
                <time>2020-08-28T15:53:03.000Z</time>
                <name>Trackpoint 7953</name>
            </trkpt>
            <trkpt lat="49.7824832" lon="9.5822184">
                <ele>149.0</ele>
                <time>2020-08-28T15:53:05.000Z</time>
                <name>Trackpoint 7954</name>
            </trkpt>
            <trkpt lat="49.7824672" lon="9.5820488">
                <ele>149.0</ele>
                <time>2020-08-28T15:53:07.000Z</time>
                <name>Trackpoint 7955</name>
            </trkpt>
            <trkpt lat="49.782448" lon="9.58188">
                <ele>149.0</ele>
                <time>2020-08-28T15:53:09.000Z</time>
                <name>Trackpoint 7956</name>
            </trkpt>
            <trkpt lat="49.782432" lon="9.581712">
                <ele>149.0</ele>
                <time>2020-08-28T15:53:11.000Z</time>
                <name>Trackpoint 7957</name>
            </trkpt>
            <trkpt lat="49.7824128" lon="9.5815488">
                <ele>149.0</ele>
                <time>2020-08-28T15:53:13.000Z</time>
                <name>Trackpoint 7958</name>
            </trkpt>
            <trkpt lat="49.7823968" lon="9.5813904">
                <ele>149.0</ele>
                <time>2020-08-28T15:53:15.000Z</time>
                <name>Trackpoint 7959</name>
            </trkpt>
            <trkpt lat="49.782384" lon="9.5812456">
                <ele>149.0</ele>
                <time>2020-08-28T15:53:17.000Z</time>
                <name>Trackpoint 7960</name>
            </trkpt>
            <trkpt lat="49.7823904" lon="9.5811256">
                <ele>149.0</ele>
                <time>2020-08-28T15:53:19.000Z</time>
                <name>Trackpoint 7961</name>
            </trkpt>
            <trkpt lat="49.7824704" lon="9.5810744">
                <ele>150.0</ele>
                <time>2020-08-28T15:53:21.000Z</time>
                <name>Trackpoint 7962</name>
            </trkpt>
            <trkpt lat="49.78256" lon="9.5810248">
                <ele>148.0</ele>
                <time>2020-08-28T15:53:23.000Z</time>
                <name>Trackpoint 7963</name>
            </trkpt>
            <trkpt lat="49.7826464" lon="9.5809784">
                <ele>148.0</ele>
                <time>2020-08-28T15:53:25.000Z</time>
                <name>Trackpoint 7964</name>
            </trkpt>
            <trkpt lat="49.7827264" lon="9.5809368">
                <ele>147.0</ele>
                <time>2020-08-28T15:53:27.000Z</time>
                <name>Trackpoint 7965</name>
            </trkpt>
            <trkpt lat="49.782848" lon="9.58088">
                <ele>147.0</ele>
                <time>2020-08-28T15:53:30.000Z</time>
                <name>Trackpoint 7966</name>
            </trkpt>
            <trkpt lat="49.7829408" lon="9.58084">
                <ele>146.0</ele>
                <time>2020-08-28T15:53:32.000Z</time>
                <name>Trackpoint 7967</name>
            </trkpt>
            <trkpt lat="49.7830464" lon="9.5808016">
                <ele>146.0</ele>
                <time>2020-08-28T15:53:34.000Z</time>
                <name>Trackpoint 7968</name>
            </trkpt>
            <trkpt lat="49.7831648" lon="9.5807536">
                <ele>146.0</ele>
                <time>2020-08-28T15:53:36.000Z</time>
                <name>Trackpoint 7969</name>
            </trkpt>
            <trkpt lat="49.78328" lon="9.5806736">
                <ele>146.0</ele>
                <time>2020-08-28T15:53:38.000Z</time>
                <name>Trackpoint 7970</name>
            </trkpt>
            <trkpt lat="49.7833056" lon="9.5805256">
                <ele>146.0</ele>
                <time>2020-08-28T15:53:40.000Z</time>
                <name>Trackpoint 7971</name>
            </trkpt>
            <trkpt lat="49.7833024" lon="9.5804328">
                <ele>146.0</ele>
                <time>2020-08-28T15:53:41.000Z</time>
                <name>Trackpoint 7972</name>
            </trkpt>
            <trkpt lat="49.7832832" lon="9.5802544">
                <ele>146.0</ele>
                <time>2020-08-28T15:53:43.000Z</time>
                <name>Trackpoint 7973</name>
            </trkpt>
            <trkpt lat="49.783264" lon="9.5800752">
                <ele>146.0</ele>
                <time>2020-08-28T15:53:45.000Z</time>
                <name>Trackpoint 7974</name>
            </trkpt>
            <trkpt lat="49.7832576" lon="9.5799848">
                <ele>146.0</ele>
                <time>2020-08-28T15:53:46.000Z</time>
                <name>Trackpoint 7975</name>
            </trkpt>
            <trkpt lat="49.783248" lon="9.5798104">
                <ele>146.0</ele>
                <time>2020-08-28T15:53:48.000Z</time>
                <name>Trackpoint 7976</name>
            </trkpt>
            <trkpt lat="49.7832384" lon="9.5796344">
                <ele>146.0</ele>
                <time>2020-08-28T15:53:50.000Z</time>
                <name>Trackpoint 7977</name>
            </trkpt>
            <trkpt lat="49.7832288" lon="9.5794584">
                <ele>146.0</ele>
                <time>2020-08-28T15:53:52.000Z</time>
                <name>Trackpoint 7978</name>
            </trkpt>
            <trkpt lat="49.7832192" lon="9.5792848">
                <ele>146.0</ele>
                <time>2020-08-28T15:53:54.000Z</time>
                <name>Trackpoint 7979</name>
            </trkpt>
            <trkpt lat="49.7832032" lon="9.5791104">
                <ele>145.0</ele>
                <time>2020-08-28T15:53:56.000Z</time>
                <name>Trackpoint 7980</name>
            </trkpt>
            <trkpt lat="49.7831872" lon="9.5789384">
                <ele>145.0</ele>
                <time>2020-08-28T15:53:58.000Z</time>
                <name>Trackpoint 7981</name>
            </trkpt>
            <trkpt lat="49.7831712" lon="9.5787688">
                <ele>145.0</ele>
                <time>2020-08-28T15:54:00.000Z</time>
                <name>Trackpoint 7982</name>
            </trkpt>
            <trkpt lat="49.7831616" lon="9.5786016">
                <ele>145.0</ele>
                <time>2020-08-28T15:54:02.000Z</time>
                <name>Trackpoint 7983</name>
            </trkpt>
            <trkpt lat="49.7831488" lon="9.5784368">
                <ele>145.0</ele>
                <time>2020-08-28T15:54:04.000Z</time>
                <name>Trackpoint 7984</name>
            </trkpt>
            <trkpt lat="49.7831392" lon="9.5782696">
                <ele>145.0</ele>
                <time>2020-08-28T15:54:06.000Z</time>
                <name>Trackpoint 7985</name>
            </trkpt>
            <trkpt lat="49.7831264" lon="9.5781072">
                <ele>145.0</ele>
                <time>2020-08-28T15:54:08.000Z</time>
                <name>Trackpoint 7986</name>
            </trkpt>
            <trkpt lat="49.7831168" lon="9.57794">
                <ele>145.0</ele>
                <time>2020-08-28T15:54:10.000Z</time>
                <name>Trackpoint 7987</name>
            </trkpt>
            <trkpt lat="49.7831008" lon="9.5777752">
                <ele>145.0</ele>
                <time>2020-08-28T15:54:12.000Z</time>
                <name>Trackpoint 7988</name>
            </trkpt>
            <trkpt lat="49.783088" lon="9.5776144">
                <ele>145.0</ele>
                <time>2020-08-28T15:54:14.000Z</time>
                <name>Trackpoint 7989</name>
            </trkpt>
            <trkpt lat="49.7830816" lon="9.5774584">
                <ele>145.0</ele>
                <time>2020-08-28T15:54:16.000Z</time>
                <name>Trackpoint 7990</name>
            </trkpt>
            <trkpt lat="49.7830656" lon="9.5773016">
                <ele>145.0</ele>
                <time>2020-08-28T15:54:18.000Z</time>
                <name>Trackpoint 7991</name>
            </trkpt>
            <trkpt lat="49.7830528" lon="9.5771536">
                <ele>145.0</ele>
                <time>2020-08-28T15:54:20.000Z</time>
                <name>Trackpoint 7992</name>
            </trkpt>
            <trkpt lat="49.7830432" lon="9.5770152">
                <ele>145.0</ele>
                <time>2020-08-28T15:54:22.000Z</time>
                <name>Trackpoint 7993</name>
            </trkpt>
            <trkpt lat="49.7830368" lon="9.5768832">
                <ele>144.0</ele>
                <time>2020-08-28T15:54:24.000Z</time>
                <name>Trackpoint 7994</name>
            </trkpt>
            <trkpt lat="49.7830304" lon="9.5767632">
                <ele>144.0</ele>
                <time>2020-08-28T15:54:26.000Z</time>
                <name>Trackpoint 7995</name>
            </trkpt>
            <trkpt lat="49.783024" lon="9.5766584">
                <ele>144.0</ele>
                <time>2020-08-28T15:54:28.000Z</time>
                <name>Trackpoint 7996</name>
            </trkpt>
            <trkpt lat="49.7830208" lon="9.5765632">
                <ele>144.0</ele>
                <time>2020-08-28T15:54:51.000Z</time>
                <name>Trackpoint 7997</name>
            </trkpt>
            <trkpt lat="49.7830112" lon="9.5764664">
                <ele>143.0</ele>
                <time>2020-08-28T15:57:44.000Z</time>
                <name>Trackpoint 7998</name>
            </trkpt>
            <trkpt lat="49.7830048" lon="9.5763712">
                <ele>143.0</ele>
                <time>2020-08-28T15:57:47.000Z</time>
                <name>Trackpoint 7999</name>
            </trkpt>
            <trkpt lat="49.7829984" lon="9.576268">
                <ele>143.0</ele>
                <time>2020-08-28T15:57:49.000Z</time>
                <name>Trackpoint 8000</name>
            </trkpt>
            <trkpt lat="49.7829856" lon="9.576148">
                <ele>143.0</ele>
                <time>2020-08-28T15:57:51.000Z</time>
                <name>Trackpoint 8001</name>
            </trkpt>
            <trkpt lat="49.7829696" lon="9.5760184">
                <ele>144.0</ele>
                <time>2020-08-28T15:57:53.000Z</time>
                <name>Trackpoint 8002</name>
            </trkpt>
            <trkpt lat="49.7829536" lon="9.5758752">
                <ele>144.0</ele>
                <time>2020-08-28T15:57:55.000Z</time>
                <name>Trackpoint 8003</name>
            </trkpt>
            <trkpt lat="49.7829408" lon="9.5757264">
                <ele>144.0</ele>
                <time>2020-08-28T15:57:57.000Z</time>
                <name>Trackpoint 8004</name>
            </trkpt>
            <trkpt lat="49.7829216" lon="9.5755752">
                <ele>144.0</ele>
                <time>2020-08-28T15:57:59.000Z</time>
                <name>Trackpoint 8005</name>
            </trkpt>
            <trkpt lat="49.7829056" lon="9.5754184">
                <ele>144.0</ele>
                <time>2020-08-28T15:58:01.000Z</time>
                <name>Trackpoint 8006</name>
            </trkpt>
            <trkpt lat="49.7828896" lon="9.57526">
                <ele>144.0</ele>
                <time>2020-08-28T15:58:03.000Z</time>
                <name>Trackpoint 8007</name>
            </trkpt>
            <trkpt lat="49.7828736" lon="9.575104">
                <ele>144.0</ele>
                <time>2020-08-28T15:58:05.000Z</time>
                <name>Trackpoint 8008</name>
            </trkpt>
            <trkpt lat="49.7828608" lon="9.5749464">
                <ele>144.0</ele>
                <time>2020-08-28T15:58:07.000Z</time>
                <name>Trackpoint 8009</name>
            </trkpt>
            <trkpt lat="49.7828416" lon="9.5747872">
                <ele>144.0</ele>
                <time>2020-08-28T15:58:09.000Z</time>
                <name>Trackpoint 8010</name>
            </trkpt>
            <trkpt lat="49.7828224" lon="9.5746248">
                <ele>144.0</ele>
                <time>2020-08-28T15:58:11.000Z</time>
                <name>Trackpoint 8011</name>
            </trkpt>
            <trkpt lat="49.7828096" lon="9.5744616">
                <ele>144.0</ele>
                <time>2020-08-28T15:58:13.000Z</time>
                <name>Trackpoint 8012</name>
            </trkpt>
            <trkpt lat="49.7827904" lon="9.5742968">
                <ele>143.0</ele>
                <time>2020-08-28T15:58:15.000Z</time>
                <name>Trackpoint 8013</name>
            </trkpt>
            <trkpt lat="49.7827744" lon="9.5741304">
                <ele>143.0</ele>
                <time>2020-08-28T15:58:17.000Z</time>
                <name>Trackpoint 8014</name>
            </trkpt>
            <trkpt lat="49.7827616" lon="9.5739632">
                <ele>143.0</ele>
                <time>2020-08-28T15:58:19.000Z</time>
                <name>Trackpoint 8015</name>
            </trkpt>
            <trkpt lat="49.7827392" lon="9.5737984">
                <ele>143.0</ele>
                <time>2020-08-28T15:58:21.000Z</time>
                <name>Trackpoint 8016</name>
            </trkpt>
            <trkpt lat="49.7827104" lon="9.5736328">
                <ele>143.0</ele>
                <time>2020-08-28T15:58:23.000Z</time>
                <name>Trackpoint 8017</name>
            </trkpt>
            <trkpt lat="49.7826848" lon="9.5734656">
                <ele>143.0</ele>
                <time>2020-08-28T15:58:25.000Z</time>
                <name>Trackpoint 8018</name>
            </trkpt>
            <trkpt lat="49.7826528" lon="9.5732984">
                <ele>143.0</ele>
                <time>2020-08-28T15:58:27.000Z</time>
                <name>Trackpoint 8019</name>
            </trkpt>
            <trkpt lat="49.782624" lon="9.5731296">
                <ele>143.0</ele>
                <time>2020-08-28T15:58:29.000Z</time>
                <name>Trackpoint 8020</name>
            </trkpt>
            <trkpt lat="49.7825952" lon="9.57296">
                <ele>143.0</ele>
                <time>2020-08-28T15:58:31.000Z</time>
                <name>Trackpoint 8021</name>
            </trkpt>
            <trkpt lat="49.7825664" lon="9.572792">
                <ele>143.0</ele>
                <time>2020-08-28T15:58:33.000Z</time>
                <name>Trackpoint 8022</name>
            </trkpt>
            <trkpt lat="49.7825312" lon="9.5726232">
                <ele>143.0</ele>
                <time>2020-08-28T15:58:35.000Z</time>
                <name>Trackpoint 8023</name>
            </trkpt>
            <trkpt lat="49.782496" lon="9.5724552">
                <ele>143.0</ele>
                <time>2020-08-28T15:58:37.000Z</time>
                <name>Trackpoint 8024</name>
            </trkpt>
            <trkpt lat="49.7824672" lon="9.5722968">
                <ele>143.0</ele>
                <time>2020-08-28T15:58:39.000Z</time>
                <name>Trackpoint 8025</name>
            </trkpt>
            <trkpt lat="49.7824416" lon="9.5721432">
                <ele>143.0</ele>
                <time>2020-08-28T15:58:41.000Z</time>
                <name>Trackpoint 8026</name>
            </trkpt>
            <trkpt lat="49.7824096" lon="9.5719968">
                <ele>143.0</ele>
                <time>2020-08-28T15:58:43.000Z</time>
                <name>Trackpoint 8027</name>
            </trkpt>
            <trkpt lat="49.782384" lon="9.5718736">
                <ele>143.0</ele>
                <time>2020-08-28T15:58:45.000Z</time>
                <name>Trackpoint 8028</name>
            </trkpt>
            <trkpt lat="49.7823488" lon="9.5717472">
                <ele>143.0</ele>
                <time>2020-08-28T15:58:47.000Z</time>
                <name>Trackpoint 8029</name>
            </trkpt>
            <trkpt lat="49.7823296" lon="9.5716152">
                <ele>143.0</ele>
                <time>2020-08-28T15:58:49.000Z</time>
                <name>Trackpoint 8030</name>
            </trkpt>
            <trkpt lat="49.7823104" lon="9.5715016">
                <ele>143.0</ele>
                <time>2020-08-28T15:58:51.000Z</time>
                <name>Trackpoint 8031</name>
            </trkpt>
            <trkpt lat="49.7822944" lon="9.5714128">
                <ele>143.0</ele>
                <time>2020-08-28T15:58:53.000Z</time>
                <name>Trackpoint 8032</name>
            </trkpt>
            <trkpt lat="49.7822784" lon="9.5713184">
                <ele>143.0</ele>
                <time>2020-08-28T15:59:33.000Z</time>
                <name>Trackpoint 8033</name>
            </trkpt>
            <trkpt lat="49.7822688" lon="9.5712272">
                <ele>143.0</ele>
                <time>2020-08-28T15:59:35.000Z</time>
                <name>Trackpoint 8034</name>
            </trkpt>
            <trkpt lat="49.7822464" lon="9.571112">
                <ele>143.0</ele>
                <time>2020-08-28T15:59:37.000Z</time>
                <name>Trackpoint 8035</name>
            </trkpt>
            <trkpt lat="49.7822144" lon="9.5709832">
                <ele>143.0</ele>
                <time>2020-08-28T15:59:39.000Z</time>
                <name>Trackpoint 8036</name>
            </trkpt>
            <trkpt lat="49.7821888" lon="9.570844">
                <ele>143.0</ele>
                <time>2020-08-28T15:59:41.000Z</time>
                <name>Trackpoint 8037</name>
            </trkpt>
            <trkpt lat="49.7821664" lon="9.5706984">
                <ele>143.0</ele>
                <time>2020-08-28T15:59:43.000Z</time>
                <name>Trackpoint 8038</name>
            </trkpt>
            <trkpt lat="49.782144" lon="9.5705472">
                <ele>143.0</ele>
                <time>2020-08-28T15:59:45.000Z</time>
                <name>Trackpoint 8039</name>
            </trkpt>
            <trkpt lat="49.7821184" lon="9.5704">
                <ele>143.0</ele>
                <time>2020-08-28T15:59:47.000Z</time>
                <name>Trackpoint 8040</name>
            </trkpt>
            <trkpt lat="49.7820768" lon="9.5702632">
                <ele>143.0</ele>
                <time>2020-08-28T15:59:49.000Z</time>
                <name>Trackpoint 8041</name>
            </trkpt>
            <trkpt lat="49.7820512" lon="9.570104">
                <ele>143.0</ele>
                <time>2020-08-28T15:59:51.000Z</time>
                <name>Trackpoint 8042</name>
            </trkpt>
            <trkpt lat="49.7820288" lon="9.5699432">
                <ele>143.0</ele>
                <time>2020-08-28T15:59:53.000Z</time>
                <name>Trackpoint 8043</name>
            </trkpt>
            <trkpt lat="49.7820096" lon="9.5697936">
                <ele>143.0</ele>
                <time>2020-08-28T15:59:55.000Z</time>
                <name>Trackpoint 8044</name>
            </trkpt>
            <trkpt lat="49.781984" lon="9.5696552">
                <ele>143.0</ele>
                <time>2020-08-28T15:59:57.000Z</time>
                <name>Trackpoint 8045</name>
            </trkpt>
            <trkpt lat="49.7819584" lon="9.5695152">
                <ele>143.0</ele>
                <time>2020-08-28T15:59:59.000Z</time>
                <name>Trackpoint 8046</name>
            </trkpt>
            <trkpt lat="49.7819456" lon="9.5693848">
                <ele>143.0</ele>
                <time>2020-08-28T16:00:01.000Z</time>
                <name>Trackpoint 8047</name>
            </trkpt>
            <trkpt lat="49.7819264" lon="9.5692568">
                <ele>143.0</ele>
                <time>2020-08-28T16:00:03.000Z</time>
                <name>Trackpoint 8048</name>
            </trkpt>
            <trkpt lat="49.7819072" lon="9.5691432">
                <ele>143.0</ele>
                <time>2020-08-28T16:00:05.000Z</time>
                <name>Trackpoint 8049</name>
            </trkpt>
            <trkpt lat="49.7818848" lon="9.56902">
                <ele>143.0</ele>
                <time>2020-08-28T16:00:07.000Z</time>
                <name>Trackpoint 8050</name>
            </trkpt>
            <trkpt lat="49.7818528" lon="9.5688952">
                <ele>143.0</ele>
                <time>2020-08-28T16:00:09.000Z</time>
                <name>Trackpoint 8051</name>
            </trkpt>
            <trkpt lat="49.7818176" lon="9.5687688">
                <ele>143.0</ele>
                <time>2020-08-28T16:00:11.000Z</time>
                <name>Trackpoint 8052</name>
            </trkpt>
            <trkpt lat="49.7817984" lon="9.5686232">
                <ele>143.0</ele>
                <time>2020-08-28T16:00:13.000Z</time>
                <name>Trackpoint 8053</name>
            </trkpt>
            <trkpt lat="49.781776" lon="9.5684728">
                <ele>143.0</ele>
                <time>2020-08-28T16:00:15.000Z</time>
                <name>Trackpoint 8054</name>
            </trkpt>
            <trkpt lat="49.7817376" lon="9.5683336">
                <ele>143.0</ele>
                <time>2020-08-28T16:00:17.000Z</time>
                <name>Trackpoint 8055</name>
            </trkpt>
            <trkpt lat="49.7817088" lon="9.5681952">
                <ele>143.0</ele>
                <time>2020-08-28T16:00:19.000Z</time>
                <name>Trackpoint 8056</name>
            </trkpt>
            <trkpt lat="49.7816736" lon="9.56806">
                <ele>143.0</ele>
                <time>2020-08-28T16:00:21.000Z</time>
                <name>Trackpoint 8057</name>
            </trkpt>
            <trkpt lat="49.781632" lon="9.56792">
                <ele>143.0</ele>
                <time>2020-08-28T16:00:23.000Z</time>
                <name>Trackpoint 8058</name>
            </trkpt>
            <trkpt lat="49.7815936" lon="9.5677816">
                <ele>143.0</ele>
                <time>2020-08-28T16:00:25.000Z</time>
                <name>Trackpoint 8059</name>
            </trkpt>
            <trkpt lat="49.7815584" lon="9.567648">
                <ele>143.0</ele>
                <time>2020-08-28T16:00:27.000Z</time>
                <name>Trackpoint 8060</name>
            </trkpt>
            <trkpt lat="49.7815232" lon="9.5675112">
                <ele>143.0</ele>
                <time>2020-08-28T16:00:29.000Z</time>
                <name>Trackpoint 8061</name>
            </trkpt>
            <trkpt lat="49.781488" lon="9.5673752">
                <ele>143.0</ele>
                <time>2020-08-28T16:00:31.000Z</time>
                <name>Trackpoint 8062</name>
            </trkpt>
            <trkpt lat="49.7814528" lon="9.56724">
                <ele>143.0</ele>
                <time>2020-08-28T16:00:33.000Z</time>
                <name>Trackpoint 8063</name>
            </trkpt>
            <trkpt lat="49.7814144" lon="9.5671056">
                <ele>143.0</ele>
                <time>2020-08-28T16:00:35.000Z</time>
                <name>Trackpoint 8064</name>
            </trkpt>
            <trkpt lat="49.7813632" lon="9.5669736">
                <ele>143.0</ele>
                <time>2020-08-28T16:00:37.000Z</time>
                <name>Trackpoint 8065</name>
            </trkpt>
            <trkpt lat="49.7813024" lon="9.5668552">
                <ele>143.0</ele>
                <time>2020-08-28T16:00:39.000Z</time>
                <name>Trackpoint 8066</name>
            </trkpt>
            <trkpt lat="49.781232" lon="9.5667536">
                <ele>143.0</ele>
                <time>2020-08-28T16:00:41.000Z</time>
                <name>Trackpoint 8067</name>
            </trkpt>
            <trkpt lat="49.7811616" lon="9.5666376">
                <ele>144.0</ele>
                <time>2020-08-28T16:00:43.000Z</time>
                <name>Trackpoint 8068</name>
            </trkpt>
            <trkpt lat="49.7811008" lon="9.566528">
                <ele>144.0</ele>
                <time>2020-08-28T16:00:45.000Z</time>
                <name>Trackpoint 8069</name>
            </trkpt>
            <trkpt lat="49.7810464" lon="9.5664256">
                <ele>144.0</ele>
                <time>2020-08-28T16:00:47.000Z</time>
                <name>Trackpoint 8070</name>
            </trkpt>
            <trkpt lat="49.7809952" lon="9.5663208">
                <ele>144.0</ele>
                <time>2020-08-28T16:00:49.000Z</time>
                <name>Trackpoint 8071</name>
            </trkpt>
            <trkpt lat="49.7809344" lon="9.5662184">
                <ele>144.0</ele>
                <time>2020-08-28T16:00:51.000Z</time>
                <name>Trackpoint 8072</name>
            </trkpt>
            <trkpt lat="49.7808672" lon="9.5661024">
                <ele>144.0</ele>
                <time>2020-08-28T16:00:53.000Z</time>
                <name>Trackpoint 8073</name>
            </trkpt>
            <trkpt lat="49.7807872" lon="9.5659936">
                <ele>144.0</ele>
                <time>2020-08-28T16:00:55.000Z</time>
                <name>Trackpoint 8074</name>
            </trkpt>
            <trkpt lat="49.7807232" lon="9.5658904">
                <ele>144.0</ele>
                <time>2020-08-28T16:00:57.000Z</time>
                <name>Trackpoint 8075</name>
            </trkpt>
            <trkpt lat="49.7806624" lon="9.5657832">
                <ele>144.0</ele>
                <time>2020-08-28T16:00:59.000Z</time>
                <name>Trackpoint 8076</name>
            </trkpt>
            <trkpt lat="49.7806048" lon="9.5656816">
                <ele>144.0</ele>
                <time>2020-08-28T16:01:01.000Z</time>
                <name>Trackpoint 8077</name>
            </trkpt>
            <trkpt lat="49.780544" lon="9.5655816">
                <ele>144.0</ele>
                <time>2020-08-28T16:01:03.000Z</time>
                <name>Trackpoint 8078</name>
            </trkpt>
            <trkpt lat="49.7804864" lon="9.5654896">
                <ele>145.0</ele>
                <time>2020-08-28T16:01:05.000Z</time>
                <name>Trackpoint 8079</name>
            </trkpt>
            <trkpt lat="49.780416" lon="9.5653864">
                <ele>145.0</ele>
                <time>2020-08-28T16:01:07.000Z</time>
                <name>Trackpoint 8080</name>
            </trkpt>
            <trkpt lat="49.7803648" lon="9.5652936">
                <ele>145.0</ele>
                <time>2020-08-28T16:01:09.000Z</time>
                <name>Trackpoint 8081</name>
            </trkpt>
            <trkpt lat="49.7803168" lon="9.5652">
                <ele>145.0</ele>
                <time>2020-08-28T16:01:11.000Z</time>
                <name>Trackpoint 8082</name>
            </trkpt>
            <trkpt lat="49.7802656" lon="9.5651032">
                <ele>145.0</ele>
                <time>2020-08-28T16:01:13.000Z</time>
                <name>Trackpoint 8083</name>
            </trkpt>
            <trkpt lat="49.7802176" lon="9.565008">
                <ele>145.0</ele>
                <time>2020-08-28T16:01:15.000Z</time>
                <name>Trackpoint 8084</name>
            </trkpt>
            <trkpt lat="49.7801664" lon="9.5649184">
                <ele>145.0</ele>
                <time>2020-08-28T16:01:17.000Z</time>
                <name>Trackpoint 8085</name>
            </trkpt>
            <trkpt lat="49.7801056" lon="9.5648368">
                <ele>145.0</ele>
                <time>2020-08-28T16:01:19.000Z</time>
                <name>Trackpoint 8086</name>
            </trkpt>
            <trkpt lat="49.7800512" lon="9.56474">
                <ele>145.0</ele>
                <time>2020-08-28T16:01:21.000Z</time>
                <name>Trackpoint 8087</name>
            </trkpt>
            <trkpt lat="49.7799904" lon="9.5646416">
                <ele>146.0</ele>
                <time>2020-08-28T16:01:23.000Z</time>
                <name>Trackpoint 8088</name>
            </trkpt>
            <trkpt lat="49.7799232" lon="9.5645384">
                <ele>146.0</ele>
                <time>2020-08-28T16:01:25.000Z</time>
                <name>Trackpoint 8089</name>
            </trkpt>
            <trkpt lat="49.7798592" lon="9.5644368">
                <ele>146.0</ele>
                <time>2020-08-28T16:01:27.000Z</time>
                <name>Trackpoint 8090</name>
            </trkpt>
            <trkpt lat="49.779792" lon="9.5643304">
                <ele>146.0</ele>
                <time>2020-08-28T16:01:29.000Z</time>
                <name>Trackpoint 8091</name>
            </trkpt>
            <trkpt lat="49.779728" lon="9.5642184">
                <ele>146.0</ele>
                <time>2020-08-28T16:01:31.000Z</time>
                <name>Trackpoint 8092</name>
            </trkpt>
            <trkpt lat="49.7796608" lon="9.5641048">
                <ele>146.0</ele>
                <time>2020-08-28T16:01:33.000Z</time>
                <name>Trackpoint 8093</name>
            </trkpt>
            <trkpt lat="49.7795872" lon="9.5639936">
                <ele>147.0</ele>
                <time>2020-08-28T16:01:35.000Z</time>
                <name>Trackpoint 8094</name>
            </trkpt>
            <trkpt lat="49.7795264" lon="9.5638968">
                <ele>147.0</ele>
                <time>2020-08-28T16:01:37.000Z</time>
                <name>Trackpoint 8095</name>
            </trkpt>
            <trkpt lat="49.779472" lon="9.5638088">
                <ele>147.0</ele>
                <time>2020-08-28T16:01:39.000Z</time>
                <name>Trackpoint 8096</name>
            </trkpt>
            <trkpt lat="49.7794112" lon="9.563692">
                <ele>147.0</ele>
                <time>2020-08-28T16:01:42.000Z</time>
                <name>Trackpoint 8097</name>
            </trkpt>
            <trkpt lat="49.7793536" lon="9.563608">
                <ele>148.0</ele>
                <time>2020-08-28T16:01:44.000Z</time>
                <name>Trackpoint 8098</name>
            </trkpt>
            <trkpt lat="49.779296" lon="9.5635232">
                <ele>148.0</ele>
                <time>2020-08-28T16:01:46.000Z</time>
                <name>Trackpoint 8099</name>
            </trkpt>
            <trkpt lat="49.7792384" lon="9.5634248">
                <ele>148.0</ele>
                <time>2020-08-28T16:01:48.000Z</time>
                <name>Trackpoint 8100</name>
            </trkpt>
            <trkpt lat="49.7791776" lon="9.5633288">
                <ele>148.0</ele>
                <time>2020-08-28T16:01:50.000Z</time>
                <name>Trackpoint 8101</name>
            </trkpt>
            <trkpt lat="49.7791104" lon="9.5632336">
                <ele>148.0</ele>
                <time>2020-08-28T16:01:52.000Z</time>
                <name>Trackpoint 8102</name>
            </trkpt>
            <trkpt lat="49.7790336" lon="9.5631512">
                <ele>148.0</ele>
                <time>2020-08-28T16:01:54.000Z</time>
                <name>Trackpoint 8103</name>
            </trkpt>
            <trkpt lat="49.7789664" lon="9.5630528">
                <ele>148.0</ele>
                <time>2020-08-28T16:01:56.000Z</time>
                <name>Trackpoint 8104</name>
            </trkpt>
            <trkpt lat="49.7789024" lon="9.5629456">
                <ele>148.0</ele>
                <time>2020-08-28T16:01:58.000Z</time>
                <name>Trackpoint 8105</name>
            </trkpt>
            <trkpt lat="49.7788416" lon="9.5628216">
                <ele>148.0</ele>
                <time>2020-08-28T16:02:00.000Z</time>
                <name>Trackpoint 8106</name>
            </trkpt>
            <trkpt lat="49.7787808" lon="9.5626896">
                <ele>148.0</ele>
                <time>2020-08-28T16:02:02.000Z</time>
                <name>Trackpoint 8107</name>
            </trkpt>
            <trkpt lat="49.7787168" lon="9.5625632">
                <ele>148.0</ele>
                <time>2020-08-28T16:02:04.000Z</time>
                <name>Trackpoint 8108</name>
            </trkpt>
            <trkpt lat="49.778656" lon="9.56244">
                <ele>148.0</ele>
                <time>2020-08-28T16:02:06.000Z</time>
                <name>Trackpoint 8109</name>
            </trkpt>
            <trkpt lat="49.7785952" lon="9.5623">
                <ele>147.0</ele>
                <time>2020-08-28T16:02:08.000Z</time>
                <name>Trackpoint 8110</name>
            </trkpt>
            <trkpt lat="49.7785376" lon="9.5621528">
                <ele>147.0</ele>
                <time>2020-08-28T16:02:10.000Z</time>
                <name>Trackpoint 8111</name>
            </trkpt>
            <trkpt lat="49.7784768" lon="9.562012">
                <ele>147.0</ele>
                <time>2020-08-28T16:02:12.000Z</time>
                <name>Trackpoint 8112</name>
            </trkpt>
            <trkpt lat="49.778416" lon="9.5618752">
                <ele>147.0</ele>
                <time>2020-08-28T16:02:14.000Z</time>
                <name>Trackpoint 8113</name>
            </trkpt>
            <trkpt lat="49.7783552" lon="9.5617416">
                <ele>147.0</ele>
                <time>2020-08-28T16:02:16.000Z</time>
                <name>Trackpoint 8114</name>
            </trkpt>
            <trkpt lat="49.7782848" lon="9.5616216">
                <ele>147.0</ele>
                <time>2020-08-28T16:02:18.000Z</time>
                <name>Trackpoint 8115</name>
            </trkpt>
            <trkpt lat="49.7782112" lon="9.5615168">
                <ele>147.0</ele>
                <time>2020-08-28T16:02:20.000Z</time>
                <name>Trackpoint 8116</name>
            </trkpt>
            <trkpt lat="49.7781344" lon="9.5614144">
                <ele>147.0</ele>
                <time>2020-08-28T16:02:22.000Z</time>
                <name>Trackpoint 8117</name>
            </trkpt>
            <trkpt lat="49.7780544" lon="9.5613168">
                <ele>147.0</ele>
                <time>2020-08-28T16:02:24.000Z</time>
                <name>Trackpoint 8118</name>
            </trkpt>
            <trkpt lat="49.7779744" lon="9.5612272">
                <ele>147.0</ele>
                <time>2020-08-28T16:02:26.000Z</time>
                <name>Trackpoint 8119</name>
            </trkpt>
            <trkpt lat="49.777888" lon="9.5611384">
                <ele>147.0</ele>
                <time>2020-08-28T16:02:28.000Z</time>
                <name>Trackpoint 8120</name>
            </trkpt>
            <trkpt lat="49.7778048" lon="9.5610536">
                <ele>147.0</ele>
                <time>2020-08-28T16:02:30.000Z</time>
                <name>Trackpoint 8121</name>
            </trkpt>
            <trkpt lat="49.7777216" lon="9.5609752">
                <ele>147.0</ele>
                <time>2020-08-28T16:02:32.000Z</time>
                <name>Trackpoint 8122</name>
            </trkpt>
            <trkpt lat="49.7776384" lon="9.560892">
                <ele>147.0</ele>
                <time>2020-08-28T16:02:34.000Z</time>
                <name>Trackpoint 8123</name>
            </trkpt>
            <trkpt lat="49.777552" lon="9.560812">
                <ele>147.0</ele>
                <time>2020-08-28T16:02:36.000Z</time>
                <name>Trackpoint 8124</name>
            </trkpt>
            <trkpt lat="49.7774688" lon="9.5607368">
                <ele>147.0</ele>
                <time>2020-08-28T16:02:38.000Z</time>
                <name>Trackpoint 8125</name>
            </trkpt>
            <trkpt lat="49.7773824" lon="9.5606672">
                <ele>147.0</ele>
                <time>2020-08-28T16:02:40.000Z</time>
                <name>Trackpoint 8126</name>
            </trkpt>
            <trkpt lat="49.7772928" lon="9.5605936">
                <ele>147.0</ele>
                <time>2020-08-28T16:02:42.000Z</time>
                <name>Trackpoint 8127</name>
            </trkpt>
            <trkpt lat="49.7772064" lon="9.56052">
                <ele>147.0</ele>
                <time>2020-08-28T16:02:44.000Z</time>
                <name>Trackpoint 8128</name>
            </trkpt>
            <trkpt lat="49.77712" lon="9.560456">
                <ele>147.0</ele>
                <time>2020-08-28T16:02:46.000Z</time>
                <name>Trackpoint 8129</name>
            </trkpt>
            <trkpt lat="49.77704" lon="9.5603848">
                <ele>147.0</ele>
                <time>2020-08-28T16:02:48.000Z</time>
                <name>Trackpoint 8130</name>
            </trkpt>
            <trkpt lat="49.7769536" lon="9.5603104">
                <ele>147.0</ele>
                <time>2020-08-28T16:02:50.000Z</time>
                <name>Trackpoint 8131</name>
            </trkpt>
            <trkpt lat="49.7768736" lon="9.5602368">
                <ele>147.0</ele>
                <time>2020-08-28T16:02:52.000Z</time>
                <name>Trackpoint 8132</name>
            </trkpt>
            <trkpt lat="49.7767904" lon="9.5601728">
                <ele>147.0</ele>
                <time>2020-08-28T16:02:54.000Z</time>
                <name>Trackpoint 8133</name>
            </trkpt>
            <trkpt lat="49.776704" lon="9.560088">
                <ele>147.0</ele>
                <time>2020-08-28T16:02:56.000Z</time>
                <name>Trackpoint 8134</name>
            </trkpt>
            <trkpt lat="49.7766112" lon="9.5600136">
                <ele>147.0</ele>
                <time>2020-08-28T16:02:58.000Z</time>
                <name>Trackpoint 8135</name>
            </trkpt>
            <trkpt lat="49.7765248" lon="9.5599416">
                <ele>147.0</ele>
                <time>2020-08-28T16:03:00.000Z</time>
                <name>Trackpoint 8136</name>
            </trkpt>
            <trkpt lat="49.7764352" lon="9.559868">
                <ele>147.0</ele>
                <time>2020-08-28T16:03:02.000Z</time>
                <name>Trackpoint 8137</name>
            </trkpt>
            <trkpt lat="49.7763488" lon="9.5597888">
                <ele>147.0</ele>
                <time>2020-08-28T16:03:04.000Z</time>
                <name>Trackpoint 8138</name>
            </trkpt>
            <trkpt lat="49.776256" lon="9.5597048">
                <ele>147.0</ele>
                <time>2020-08-28T16:03:06.000Z</time>
                <name>Trackpoint 8139</name>
            </trkpt>
            <trkpt lat="49.7761568" lon="9.559624">
                <ele>147.0</ele>
                <time>2020-08-28T16:03:08.000Z</time>
                <name>Trackpoint 8140</name>
            </trkpt>
            <trkpt lat="49.7760544" lon="9.559564">
                <ele>147.0</ele>
                <time>2020-08-28T16:03:10.000Z</time>
                <name>Trackpoint 8141</name>
            </trkpt>
            <trkpt lat="49.775952" lon="9.5595104">
                <ele>147.0</ele>
                <time>2020-08-28T16:03:12.000Z</time>
                <name>Trackpoint 8142</name>
            </trkpt>
            <trkpt lat="49.7758496" lon="9.5594584">
                <ele>147.0</ele>
                <time>2020-08-28T16:03:14.000Z</time>
                <name>Trackpoint 8143</name>
            </trkpt>
            <trkpt lat="49.7757408" lon="9.5594104">
                <ele>147.0</ele>
                <time>2020-08-28T16:03:16.000Z</time>
                <name>Trackpoint 8144</name>
            </trkpt>
            <trkpt lat="49.7756384" lon="9.5593656">
                <ele>147.0</ele>
                <time>2020-08-28T16:03:18.000Z</time>
                <name>Trackpoint 8145</name>
            </trkpt>
            <trkpt lat="49.7755328" lon="9.5593208">
                <ele>147.0</ele>
                <time>2020-08-28T16:03:20.000Z</time>
                <name>Trackpoint 8146</name>
            </trkpt>
            <trkpt lat="49.775424" lon="9.5592784">
                <ele>147.0</ele>
                <time>2020-08-28T16:03:22.000Z</time>
                <name>Trackpoint 8147</name>
            </trkpt>
            <trkpt lat="49.7753216" lon="9.55924">
                <ele>147.0</ele>
                <time>2020-08-28T16:03:24.000Z</time>
                <name>Trackpoint 8148</name>
            </trkpt>
            <trkpt lat="49.7752192" lon="9.559208">
                <ele>147.0</ele>
                <time>2020-08-28T16:03:26.000Z</time>
                <name>Trackpoint 8149</name>
            </trkpt>
            <trkpt lat="49.7751168" lon="9.5591696">
                <ele>146.0</ele>
                <time>2020-08-28T16:03:28.000Z</time>
                <name>Trackpoint 8150</name>
            </trkpt>
            <trkpt lat="49.775008" lon="9.5591384">
                <ele>146.0</ele>
                <time>2020-08-28T16:03:30.000Z</time>
                <name>Trackpoint 8151</name>
            </trkpt>
            <trkpt lat="49.7749024" lon="9.5590984">
                <ele>146.0</ele>
                <time>2020-08-28T16:03:32.000Z</time>
                <name>Trackpoint 8152</name>
            </trkpt>
            <trkpt lat="49.7747968" lon="9.559056">
                <ele>147.0</ele>
                <time>2020-08-28T16:03:34.000Z</time>
                <name>Trackpoint 8153</name>
            </trkpt>
            <trkpt lat="49.774688" lon="9.5590288">
                <ele>147.0</ele>
                <time>2020-08-28T16:03:36.000Z</time>
                <name>Trackpoint 8154</name>
            </trkpt>
            <trkpt lat="49.7745888" lon="9.5590152">
                <ele>147.0</ele>
                <time>2020-08-28T16:03:38.000Z</time>
                <name>Trackpoint 8155</name>
            </trkpt>
            <trkpt lat="49.7744864" lon="9.5589848">
                <ele>147.0</ele>
                <time>2020-08-28T16:03:40.000Z</time>
                <name>Trackpoint 8156</name>
            </trkpt>
            <trkpt lat="49.7743904" lon="9.5589648">
                <ele>147.0</ele>
                <time>2020-08-28T16:03:42.000Z</time>
                <name>Trackpoint 8157</name>
            </trkpt>
            <trkpt lat="49.7742944" lon="9.5589552">
                <ele>147.0</ele>
                <time>2020-08-28T16:03:44.000Z</time>
                <name>Trackpoint 8158</name>
            </trkpt>
            <trkpt lat="49.7742016" lon="9.5589312">
                <ele>148.0</ele>
                <time>2020-08-28T16:03:46.000Z</time>
                <name>Trackpoint 8159</name>
            </trkpt>
            <trkpt lat="49.7741056" lon="9.5589064">
                <ele>148.0</ele>
                <time>2020-08-28T16:03:48.000Z</time>
                <name>Trackpoint 8160</name>
            </trkpt>
            <trkpt lat="49.7740032" lon="9.5588776">
                <ele>148.0</ele>
                <time>2020-08-28T16:03:50.000Z</time>
                <name>Trackpoint 8161</name>
            </trkpt>
            <trkpt lat="49.7739072" lon="9.55886">
                <ele>149.0</ele>
                <time>2020-08-28T16:03:52.000Z</time>
                <name>Trackpoint 8162</name>
            </trkpt>
            <trkpt lat="49.7738112" lon="9.5588528">
                <ele>149.0</ele>
                <time>2020-08-28T16:03:54.000Z</time>
                <name>Trackpoint 8163</name>
            </trkpt>
            <trkpt lat="49.7737152" lon="9.5588464">
                <ele>149.0</ele>
                <time>2020-08-28T16:03:56.000Z</time>
                <name>Trackpoint 8164</name>
            </trkpt>
            <trkpt lat="49.773616" lon="9.558828">
                <ele>149.0</ele>
                <time>2020-08-28T16:03:58.000Z</time>
                <name>Trackpoint 8165</name>
            </trkpt>
            <trkpt lat="49.7734848" lon="9.5588128">
                <ele>149.0</ele>
                <time>2020-08-28T16:04:01.000Z</time>
                <name>Trackpoint 8166</name>
            </trkpt>
            <trkpt lat="49.7733696" lon="9.5588">
                <ele>149.0</ele>
                <time>2020-08-28T16:04:04.000Z</time>
                <name>Trackpoint 8167</name>
            </trkpt>
            <trkpt lat="49.773248" lon="9.5587832">
                <ele>149.0</ele>
                <time>2020-08-28T16:04:07.000Z</time>
                <name>Trackpoint 8168</name>
            </trkpt>
            <trkpt lat="49.7732064" lon="9.5587032">
                <ele>149.0</ele>
                <time>2020-08-28T16:04:09.000Z</time>
                <name>Trackpoint 8169</name>
            </trkpt>
            <trkpt lat="49.7732" lon="9.5585816">
                <ele>150.0</ele>
                <time>2020-08-28T16:04:11.000Z</time>
                <name>Trackpoint 8170</name>
            </trkpt>
            <trkpt lat="49.773216" lon="9.558472">
                <ele>150.0</ele>
                <time>2020-08-28T16:04:13.000Z</time>
                <name>Trackpoint 8171</name>
            </trkpt>
            <trkpt lat="49.7732288" lon="9.5583648">
                <ele>150.0</ele>
                <time>2020-08-28T16:04:15.000Z</time>
                <name>Trackpoint 8172</name>
            </trkpt>
            <trkpt lat="49.7732416" lon="9.5582616">
                <ele>149.0</ele>
                <time>2020-08-28T16:04:17.000Z</time>
                <name>Trackpoint 8173</name>
            </trkpt>
            <trkpt lat="49.7732224" lon="9.5581512">
                <ele>149.0</ele>
                <time>2020-08-28T16:04:19.000Z</time>
                <name>Trackpoint 8174</name>
            </trkpt>
            <trkpt lat="49.773136" lon="9.558052">
                <ele>149.0</ele>
                <time>2020-08-28T16:04:22.000Z</time>
                <name>Trackpoint 8175</name>
            </trkpt>
            <trkpt lat="49.7730496" lon="9.5579984">
                <ele>149.0</ele>
                <time>2020-08-28T16:04:25.000Z</time>
                <name>Trackpoint 8176</name>
            </trkpt>
            <trkpt lat="49.7729536" lon="9.5579784">
                <ele>147.0</ele>
                <time>2020-08-28T16:05:21.000Z</time>
                <name>Trackpoint 8177</name>
            </trkpt>
            <trkpt lat="49.772864" lon="9.557992">
                <ele>147.0</ele>
                <time>2020-08-28T16:05:24.000Z</time>
                <name>Trackpoint 8178</name>
            </trkpt>
            <trkpt lat="49.7727584" lon="9.5580152">
                <ele>147.0</ele>
                <time>2020-08-28T16:05:27.000Z</time>
                <name>Trackpoint 8179</name>
            </trkpt>
            <trkpt lat="49.7726528" lon="9.5580864">
                <ele>147.0</ele>
                <time>2020-08-28T16:05:30.000Z</time>
                <name>Trackpoint 8180</name>
            </trkpt>
            <trkpt lat="49.7725632" lon="9.5581768">
                <ele>147.0</ele>
                <time>2020-08-28T16:05:33.000Z</time>
                <name>Trackpoint 8181</name>
            </trkpt>
            <trkpt lat="49.7724672" lon="9.5582352">
                <ele>147.0</ele>
                <time>2020-08-28T16:05:36.000Z</time>
                <name>Trackpoint 8182</name>
            </trkpt>
            <trkpt lat="49.7723488" lon="9.5581528">
                <ele>147.0</ele>
                <time>2020-08-28T16:05:39.000Z</time>
                <name>Trackpoint 8183</name>
            </trkpt>
            <trkpt lat="49.772256" lon="9.55812">
                <ele>147.0</ele>
                <time>2020-08-28T16:05:41.000Z</time>
                <name>Trackpoint 8184</name>
            </trkpt>
            <trkpt lat="49.7721632" lon="9.5580728">
                <ele>147.0</ele>
                <time>2020-08-28T16:05:43.000Z</time>
                <name>Trackpoint 8185</name>
            </trkpt>
            <trkpt lat="49.772064" lon="9.5580504">
                <ele>147.0</ele>
                <time>2020-08-28T16:06:19.000Z</time>
                <name>Trackpoint 8186</name>
            </trkpt>
            <trkpt lat="49.7719712" lon="9.5580728">
                <ele>147.0</ele>
                <time>2020-08-28T16:06:23.000Z</time>
                <name>Trackpoint 8187</name>
            </trkpt>
            <trkpt lat="49.7718688" lon="9.5581064">
                <ele>147.0</ele>
                <time>2020-08-28T16:06:26.000Z</time>
                <name>Trackpoint 8188</name>
            </trkpt>
            <trkpt lat="49.7717632" lon="9.5581376">
                <ele>147.0</ele>
                <time>2020-08-28T16:06:29.000Z</time>
                <name>Trackpoint 8189</name>
            </trkpt>
            <trkpt lat="49.7716608" lon="9.5581648">
                <ele>147.0</ele>
                <time>2020-08-28T16:06:32.000Z</time>
                <name>Trackpoint 8190</name>
            </trkpt>
            <trkpt lat="49.7715232" lon="9.558164">
                <ele>147.0</ele>
                <time>2020-08-28T16:06:35.000Z</time>
                <name>Trackpoint 8191</name>
            </trkpt>
            <trkpt lat="49.7714304" lon="9.5581752">
                <ele>147.0</ele>
                <time>2020-08-28T16:06:37.000Z</time>
                <name>Trackpoint 8192</name>
            </trkpt>
            <trkpt lat="49.7713312" lon="9.558184">
                <ele>147.0</ele>
                <time>2020-08-28T16:06:39.000Z</time>
                <name>Trackpoint 8193</name>
            </trkpt>
            <trkpt lat="49.7712128" lon="9.558148">
                <ele>147.0</ele>
                <time>2020-08-28T16:06:41.000Z</time>
                <name>Trackpoint 8194</name>
            </trkpt>
            <trkpt lat="49.7711104" lon="9.5581568">
                <ele>147.0</ele>
                <time>2020-08-28T16:06:43.000Z</time>
                <name>Trackpoint 8195</name>
            </trkpt>
            <trkpt lat="49.770976" lon="9.5581568">
                <ele>147.0</ele>
                <time>2020-08-28T16:06:46.000Z</time>
                <name>Trackpoint 8196</name>
            </trkpt>
            <trkpt lat="49.7708704" lon="9.558144">
                <ele>147.0</ele>
                <time>2020-08-28T16:06:48.000Z</time>
                <name>Trackpoint 8197</name>
            </trkpt>
            <trkpt lat="49.770768" lon="9.558128">
                <ele>147.0</ele>
                <time>2020-08-28T16:06:50.000Z</time>
                <name>Trackpoint 8198</name>
            </trkpt>
            <trkpt lat="49.7706592" lon="9.5581216">
                <ele>147.0</ele>
                <time>2020-08-28T16:06:52.000Z</time>
                <name>Trackpoint 8199</name>
            </trkpt>
            <trkpt lat="49.77056" lon="9.5581104">
                <ele>147.0</ele>
                <time>2020-08-28T16:06:54.000Z</time>
                <name>Trackpoint 8200</name>
            </trkpt>
            <trkpt lat="49.770432" lon="9.5581032">
                <ele>147.0</ele>
                <time>2020-08-28T16:06:57.000Z</time>
                <name>Trackpoint 8201</name>
            </trkpt>
            <trkpt lat="49.7703104" lon="9.5580968">
                <ele>147.0</ele>
                <time>2020-08-28T16:07:00.000Z</time>
                <name>Trackpoint 8202</name>
            </trkpt>
            <trkpt lat="49.7701952" lon="9.5581352">
                <ele>147.0</ele>
                <time>2020-08-28T16:07:03.000Z</time>
                <name>Trackpoint 8203</name>
            </trkpt>
            <trkpt lat="49.7701568" lon="9.5582384">
                <ele>147.0</ele>
                <time>2020-08-28T16:07:05.000Z</time>
                <name>Trackpoint 8204</name>
            </trkpt>
            <trkpt lat="49.7701408" lon="9.5583696">
                <ele>147.0</ele>
                <time>2020-08-28T16:07:07.000Z</time>
                <name>Trackpoint 8205</name>
            </trkpt>
            <trkpt lat="49.7701312" lon="9.5585072">
                <ele>147.0</ele>
                <time>2020-08-28T16:07:09.000Z</time>
                <name>Trackpoint 8206</name>
            </trkpt>
            <trkpt lat="49.7701152" lon="9.5586392">
                <ele>147.0</ele>
                <time>2020-08-28T16:07:11.000Z</time>
                <name>Trackpoint 8207</name>
            </trkpt>
            <trkpt lat="49.7700896" lon="9.558772">
                <ele>147.0</ele>
                <time>2020-08-28T16:07:13.000Z</time>
                <name>Trackpoint 8208</name>
            </trkpt>
            <trkpt lat="49.7700896" lon="9.558904">
                <ele>147.0</ele>
                <time>2020-08-28T16:07:15.000Z</time>
                <name>Trackpoint 8209</name>
            </trkpt>
            <trkpt lat="49.7700896" lon="9.55904">
                <ele>147.0</ele>
                <time>2020-08-28T16:07:17.000Z</time>
                <name>Trackpoint 8210</name>
            </trkpt>
            <trkpt lat="49.7700896" lon="9.5591768">
                <ele>147.0</ele>
                <time>2020-08-28T16:07:19.000Z</time>
                <name>Trackpoint 8211</name>
            </trkpt>
            <trkpt lat="49.7700928" lon="9.5593232">
                <ele>147.0</ele>
                <time>2020-08-28T16:07:21.000Z</time>
                <name>Trackpoint 8212</name>
            </trkpt>
            <trkpt lat="49.7701024" lon="9.5594552">
                <ele>147.0</ele>
                <time>2020-08-28T16:07:23.000Z</time>
                <name>Trackpoint 8213</name>
            </trkpt>
            <trkpt lat="49.7701024" lon="9.5595976">
                <ele>147.0</ele>
                <time>2020-08-28T16:07:25.000Z</time>
                <name>Trackpoint 8214</name>
            </trkpt>
            <trkpt lat="49.7701024" lon="9.5597352">
                <ele>147.0</ele>
                <time>2020-08-28T16:07:27.000Z</time>
                <name>Trackpoint 8215</name>
            </trkpt>
            <trkpt lat="49.7700928" lon="9.5598272">
                <ele>147.0</ele>
                <time>2020-08-28T16:07:29.000Z</time>
                <name>Trackpoint 8216</name>
            </trkpt>
            <trkpt lat="49.77" lon="9.559912">
                <ele>147.0</ele>
                <time>2020-08-28T16:07:32.000Z</time>
                <name>Trackpoint 8217</name>
            </trkpt>
            <trkpt lat="49.7699168" lon="9.5599816">
                <ele>147.0</ele>
                <time>2020-08-28T16:07:35.000Z</time>
                <name>Trackpoint 8218</name>
            </trkpt>
            <trkpt lat="49.7698272" lon="9.5600136">
                <ele>147.0</ele>
                <time>2020-08-28T16:07:38.000Z</time>
                <name>Trackpoint 8219</name>
            </trkpt>
            <trkpt lat="49.7696992" lon="9.5600336">
                <ele>148.0</ele>
                <time>2020-08-28T16:07:41.000Z</time>
                <name>Trackpoint 8220</name>
            </trkpt>
            <trkpt lat="49.769568" lon="9.5599872">
                <ele>149.0</ele>
                <time>2020-08-28T16:07:43.000Z</time>
                <name>Trackpoint 8221</name>
            </trkpt>
            <trkpt lat="49.7694656" lon="9.559972">
                <ele>149.0</ele>
                <time>2020-08-28T16:07:45.000Z</time>
                <name>Trackpoint 8222</name>
            </trkpt>
            <trkpt lat="49.7693504" lon="9.5600032">
                <ele>150.0</ele>
                <time>2020-08-28T16:07:47.000Z</time>
                <name>Trackpoint 8223</name>
            </trkpt>
            <trkpt lat="49.7692576" lon="9.5600568">
                <ele>149.0</ele>
                <time>2020-08-28T16:07:49.000Z</time>
                <name>Trackpoint 8224</name>
            </trkpt>
            <trkpt lat="49.7691648" lon="9.5601016">
                <ele>149.0</ele>
                <time>2020-08-28T16:07:51.000Z</time>
                <name>Trackpoint 8225</name>
            </trkpt>
            <trkpt lat="49.769072" lon="9.560152">
                <ele>149.0</ele>
                <time>2020-08-28T16:07:53.000Z</time>
                <name>Trackpoint 8226</name>
            </trkpt>
            <trkpt lat="49.768992" lon="9.5602104">
                <ele>148.0</ele>
                <time>2020-08-28T16:07:55.000Z</time>
                <name>Trackpoint 8227</name>
            </trkpt>
            <trkpt lat="49.7688672" lon="9.5602464">
                <ele>148.0</ele>
                <time>2020-08-28T16:07:58.000Z</time>
                <name>Trackpoint 8228</name>
            </trkpt>
            <trkpt lat="49.7687744" lon="9.5602352">
                <ele>148.0</ele>
                <time>2020-08-28T16:08:00.000Z</time>
                <name>Trackpoint 8229</name>
            </trkpt>
            <trkpt lat="49.768688" lon="9.560208">
                <ele>148.0</ele>
                <time>2020-08-28T16:08:02.000Z</time>
                <name>Trackpoint 8230</name>
            </trkpt>
            <trkpt lat="49.7686016" lon="9.5601616">
                <ele>148.0</ele>
                <time>2020-08-28T16:08:04.000Z</time>
                <name>Trackpoint 8231</name>
            </trkpt>
            <trkpt lat="49.7685088" lon="9.5601016">
                <ele>147.0</ele>
                <time>2020-08-28T16:08:06.000Z</time>
                <name>Trackpoint 8232</name>
            </trkpt>
            <trkpt lat="49.7684096" lon="9.5600568">
                <ele>147.0</ele>
                <time>2020-08-28T16:08:08.000Z</time>
                <name>Trackpoint 8233</name>
            </trkpt>
            <trkpt lat="49.7683072" lon="9.560032">
                <ele>147.0</ele>
                <time>2020-08-28T16:08:10.000Z</time>
                <name>Trackpoint 8234</name>
            </trkpt>
            <trkpt lat="49.7682048" lon="9.5600144">
                <ele>147.0</ele>
                <time>2020-08-28T16:08:12.000Z</time>
                <name>Trackpoint 8235</name>
            </trkpt>
            <trkpt lat="49.7680928" lon="9.5600072">
                <ele>147.0</ele>
                <time>2020-08-28T16:08:14.000Z</time>
                <name>Trackpoint 8236</name>
            </trkpt>
            <trkpt lat="49.7679872" lon="9.5599984">
                <ele>147.0</ele>
                <time>2020-08-28T16:08:16.000Z</time>
                <name>Trackpoint 8237</name>
            </trkpt>
            <trkpt lat="49.7678784" lon="9.5599896">
                <ele>147.0</ele>
                <time>2020-08-28T16:08:18.000Z</time>
                <name>Trackpoint 8238</name>
            </trkpt>
            <trkpt lat="49.7677664" lon="9.5599832">
                <ele>147.0</ele>
                <time>2020-08-28T16:08:20.000Z</time>
                <name>Trackpoint 8239</name>
            </trkpt>
            <trkpt lat="49.7676576" lon="9.5599768">
                <ele>147.0</ele>
                <time>2020-08-28T16:08:22.000Z</time>
                <name>Trackpoint 8240</name>
            </trkpt>
            <trkpt lat="49.767552" lon="9.5599648">
                <ele>147.0</ele>
                <time>2020-08-28T16:08:24.000Z</time>
                <name>Trackpoint 8241</name>
            </trkpt>
            <trkpt lat="49.7674496" lon="9.5599536">
                <ele>147.0</ele>
                <time>2020-08-28T16:08:26.000Z</time>
                <name>Trackpoint 8242</name>
            </trkpt>
            <trkpt lat="49.767344" lon="9.5599432">
                <ele>147.0</ele>
                <time>2020-08-28T16:08:28.000Z</time>
                <name>Trackpoint 8243</name>
            </trkpt>
            <trkpt lat="49.7672448" lon="9.5599296">
                <ele>147.0</ele>
                <time>2020-08-28T16:08:30.000Z</time>
                <name>Trackpoint 8244</name>
            </trkpt>
            <trkpt lat="49.7671456" lon="9.5599168">
                <ele>147.0</ele>
                <time>2020-08-28T16:08:32.000Z</time>
                <name>Trackpoint 8245</name>
            </trkpt>
            <trkpt lat="49.7670432" lon="9.5599032">
                <ele>146.0</ele>
                <time>2020-08-28T16:08:34.000Z</time>
                <name>Trackpoint 8246</name>
            </trkpt>
            <trkpt lat="49.766944" lon="9.559892">
                <ele>146.0</ele>
                <time>2020-08-28T16:08:36.000Z</time>
                <name>Trackpoint 8247</name>
            </trkpt>
            <trkpt lat="49.7668544" lon="9.55988">
                <ele>146.0</ele>
                <time>2020-08-28T16:08:38.000Z</time>
                <name>Trackpoint 8248</name>
            </trkpt>
            <trkpt lat="49.7667584" lon="9.5598696">
                <ele>146.0</ele>
                <time>2020-08-28T16:08:40.000Z</time>
                <name>Trackpoint 8249</name>
            </trkpt>
            <trkpt lat="49.7666624" lon="9.5598632">
                <ele>146.0</ele>
                <time>2020-08-28T16:08:42.000Z</time>
                <name>Trackpoint 8250</name>
            </trkpt>
            <trkpt lat="49.7665664" lon="9.5598768">
                <ele>146.0</ele>
                <time>2020-08-28T16:08:44.000Z</time>
                <name>Trackpoint 8251</name>
            </trkpt>
            <trkpt lat="49.7664768" lon="9.5599048">
                <ele>146.0</ele>
                <time>2020-08-28T16:08:46.000Z</time>
                <name>Trackpoint 8252</name>
            </trkpt>
            <trkpt lat="49.7663904" lon="9.5599384">
                <ele>147.0</ele>
                <time>2020-08-28T16:08:48.000Z</time>
                <name>Trackpoint 8253</name>
            </trkpt>
            <trkpt lat="49.766304" lon="9.5599896">
                <ele>146.0</ele>
                <time>2020-08-28T16:10:00.000Z</time>
                <name>Trackpoint 8254</name>
            </trkpt>
            <trkpt lat="49.7662112" lon="9.560012">
                <ele>146.0</ele>
                <time>2020-08-28T16:10:04.000Z</time>
                <name>Trackpoint 8255</name>
            </trkpt>
            <trkpt lat="49.7661088" lon="9.5600432">
                <ele>146.0</ele>
                <time>2020-08-28T16:10:07.000Z</time>
                <name>Trackpoint 8256</name>
            </trkpt>
            <trkpt lat="49.765984" lon="9.5600752">
                <ele>146.0</ele>
                <time>2020-08-28T16:10:10.000Z</time>
                <name>Trackpoint 8257</name>
            </trkpt>
            <trkpt lat="49.7658944" lon="9.5601016">
                <ele>146.0</ele>
                <time>2020-08-28T16:10:12.000Z</time>
                <name>Trackpoint 8258</name>
            </trkpt>
            <trkpt lat="49.7657696" lon="9.5601464">
                <ele>146.0</ele>
                <time>2020-08-28T16:10:15.000Z</time>
                <name>Trackpoint 8259</name>
            </trkpt>
            <trkpt lat="49.7656352" lon="9.5601816">
                <ele>146.0</ele>
                <time>2020-08-28T16:10:18.000Z</time>
                <name>Trackpoint 8260</name>
            </trkpt>
            <trkpt lat="49.7655488" lon="9.5602128">
                <ele>146.0</ele>
                <time>2020-08-28T16:10:20.000Z</time>
                <name>Trackpoint 8261</name>
            </trkpt>
            <trkpt lat="49.7654176" lon="9.5602504">
                <ele>146.0</ele>
                <time>2020-08-28T16:10:23.000Z</time>
                <name>Trackpoint 8262</name>
            </trkpt>
            <trkpt lat="49.765328" lon="9.5602768">
                <ele>146.0</ele>
                <time>2020-08-28T16:10:25.000Z</time>
                <name>Trackpoint 8263</name>
            </trkpt>
            <trkpt lat="49.7651968" lon="9.5603152">
                <ele>146.0</ele>
                <time>2020-08-28T16:10:28.000Z</time>
                <name>Trackpoint 8264</name>
            </trkpt>
            <trkpt lat="49.7651104" lon="9.5603416">
                <ele>146.0</ele>
                <time>2020-08-28T16:10:30.000Z</time>
                <name>Trackpoint 8265</name>
            </trkpt>
            <trkpt lat="49.7650176" lon="9.560364">
                <ele>146.0</ele>
                <time>2020-08-28T16:10:32.000Z</time>
                <name>Trackpoint 8266</name>
            </trkpt>
            <trkpt lat="49.7649216" lon="9.5603888">
                <ele>146.0</ele>
                <time>2020-08-28T16:10:34.000Z</time>
                <name>Trackpoint 8267</name>
            </trkpt>
            <trkpt lat="49.764832" lon="9.5604088">
                <ele>146.0</ele>
                <time>2020-08-28T16:10:36.000Z</time>
                <name>Trackpoint 8268</name>
            </trkpt>
            <trkpt lat="49.7647392" lon="9.5604312">
                <ele>146.0</ele>
                <time>2020-08-28T16:10:38.000Z</time>
                <name>Trackpoint 8269</name>
            </trkpt>
            <trkpt lat="49.7646432" lon="9.5604512">
                <ele>146.0</ele>
                <time>2020-08-28T16:10:40.000Z</time>
                <name>Trackpoint 8270</name>
            </trkpt>
            <trkpt lat="49.7645504" lon="9.560476">
                <ele>146.0</ele>
                <time>2020-08-28T16:10:42.000Z</time>
                <name>Trackpoint 8271</name>
            </trkpt>
            <trkpt lat="49.7644512" lon="9.5605">
                <ele>146.0</ele>
                <time>2020-08-28T16:10:44.000Z</time>
                <name>Trackpoint 8272</name>
            </trkpt>
            <trkpt lat="49.7643552" lon="9.5605248">
                <ele>146.0</ele>
                <time>2020-08-28T16:10:46.000Z</time>
                <name>Trackpoint 8273</name>
            </trkpt>
            <trkpt lat="49.764256" lon="9.5605488">
                <ele>146.0</ele>
                <time>2020-08-28T16:10:48.000Z</time>
                <name>Trackpoint 8274</name>
            </trkpt>
            <trkpt lat="49.76416" lon="9.5605768">
                <ele>146.0</ele>
                <time>2020-08-28T16:10:50.000Z</time>
                <name>Trackpoint 8275</name>
            </trkpt>
            <trkpt lat="49.7640576" lon="9.5605984">
                <ele>146.0</ele>
                <time>2020-08-28T16:10:52.000Z</time>
                <name>Trackpoint 8276</name>
            </trkpt>
            <trkpt lat="49.7639616" lon="9.5606248">
                <ele>145.0</ele>
                <time>2020-08-28T16:10:54.000Z</time>
                <name>Trackpoint 8277</name>
            </trkpt>
            <trkpt lat="49.7638624" lon="9.5606536">
                <ele>145.0</ele>
                <time>2020-08-28T16:10:56.000Z</time>
                <name>Trackpoint 8278</name>
            </trkpt>
            <trkpt lat="49.7637664" lon="9.5606784">
                <ele>145.0</ele>
                <time>2020-08-28T16:10:58.000Z</time>
                <name>Trackpoint 8279</name>
            </trkpt>
            <trkpt lat="49.7636704" lon="9.5607032">
                <ele>145.0</ele>
                <time>2020-08-28T16:11:00.000Z</time>
                <name>Trackpoint 8280</name>
            </trkpt>
            <trkpt lat="49.7635712" lon="9.560732">
                <ele>145.0</ele>
                <time>2020-08-28T16:11:02.000Z</time>
                <name>Trackpoint 8281</name>
            </trkpt>
            <trkpt lat="49.763472" lon="9.5607544">
                <ele>145.0</ele>
                <time>2020-08-28T16:11:04.000Z</time>
                <name>Trackpoint 8282</name>
            </trkpt>
            <trkpt lat="49.7633728" lon="9.5607832">
                <ele>145.0</ele>
                <time>2020-08-28T16:11:06.000Z</time>
                <name>Trackpoint 8283</name>
            </trkpt>
            <trkpt lat="49.76328" lon="9.5608304">
                <ele>145.0</ele>
                <time>2020-08-28T16:11:08.000Z</time>
                <name>Trackpoint 8284</name>
            </trkpt>
            <trkpt lat="49.763184" lon="9.5608816">
                <ele>145.0</ele>
                <time>2020-08-28T16:11:10.000Z</time>
                <name>Trackpoint 8285</name>
            </trkpt>
            <trkpt lat="49.7630912" lon="9.5609352">
                <ele>145.0</ele>
                <time>2020-08-28T16:11:12.000Z</time>
                <name>Trackpoint 8286</name>
            </trkpt>
            <trkpt lat="49.7630048" lon="9.5609904">
                <ele>145.0</ele>
                <time>2020-08-28T16:11:14.000Z</time>
                <name>Trackpoint 8287</name>
            </trkpt>
            <trkpt lat="49.762912" lon="9.5610416">
                <ele>145.0</ele>
                <time>2020-08-28T16:11:16.000Z</time>
                <name>Trackpoint 8288</name>
            </trkpt>
            <trkpt lat="49.7628224" lon="9.5610952">
                <ele>145.0</ele>
                <time>2020-08-28T16:11:18.000Z</time>
                <name>Trackpoint 8289</name>
            </trkpt>
            <trkpt lat="49.7627328" lon="9.5611488">
                <ele>145.0</ele>
                <time>2020-08-28T16:11:20.000Z</time>
                <name>Trackpoint 8290</name>
            </trkpt>
            <trkpt lat="49.7626432" lon="9.5612088">
                <ele>145.0</ele>
                <time>2020-08-28T16:11:22.000Z</time>
                <name>Trackpoint 8291</name>
            </trkpt>
            <trkpt lat="49.7625472" lon="9.5612648">
                <ele>145.0</ele>
                <time>2020-08-28T16:11:24.000Z</time>
                <name>Trackpoint 8292</name>
            </trkpt>
            <trkpt lat="49.7624544" lon="9.5613232">
                <ele>145.0</ele>
                <time>2020-08-28T16:11:26.000Z</time>
                <name>Trackpoint 8293</name>
            </trkpt>
            <trkpt lat="49.7623648" lon="9.5613768">
                <ele>145.0</ele>
                <time>2020-08-28T16:11:28.000Z</time>
                <name>Trackpoint 8294</name>
            </trkpt>
            <trkpt lat="49.762272" lon="9.5614368">
                <ele>145.0</ele>
                <time>2020-08-28T16:11:30.000Z</time>
                <name>Trackpoint 8295</name>
            </trkpt>
            <trkpt lat="49.762176" lon="9.5614968">
                <ele>145.0</ele>
                <time>2020-08-28T16:11:32.000Z</time>
                <name>Trackpoint 8296</name>
            </trkpt>
            <trkpt lat="49.7620864" lon="9.561568">
                <ele>145.0</ele>
                <time>2020-08-28T16:11:34.000Z</time>
                <name>Trackpoint 8297</name>
            </trkpt>
            <trkpt lat="49.7619936" lon="9.5616352">
                <ele>145.0</ele>
                <time>2020-08-28T16:11:36.000Z</time>
                <name>Trackpoint 8298</name>
            </trkpt>
            <trkpt lat="49.7618976" lon="9.5616952">
                <ele>145.0</ele>
                <time>2020-08-28T16:11:38.000Z</time>
                <name>Trackpoint 8299</name>
            </trkpt>
            <trkpt lat="49.761808" lon="9.5617616">
                <ele>145.0</ele>
                <time>2020-08-28T16:11:40.000Z</time>
                <name>Trackpoint 8300</name>
            </trkpt>
            <trkpt lat="49.7617152" lon="9.5618296">
                <ele>145.0</ele>
                <time>2020-08-28T16:11:42.000Z</time>
                <name>Trackpoint 8301</name>
            </trkpt>
            <trkpt lat="49.7616256" lon="9.5618936">
                <ele>145.0</ele>
                <time>2020-08-28T16:11:44.000Z</time>
                <name>Trackpoint 8302</name>
            </trkpt>
            <trkpt lat="49.7615392" lon="9.5619568">
                <ele>145.0</ele>
                <time>2020-08-28T16:11:46.000Z</time>
                <name>Trackpoint 8303</name>
            </trkpt>
            <trkpt lat="49.7614528" lon="9.5620168">
                <ele>145.0</ele>
                <time>2020-08-28T16:11:48.000Z</time>
                <name>Trackpoint 8304</name>
            </trkpt>
            <trkpt lat="49.7613632" lon="9.5620768">
                <ele>145.0</ele>
                <time>2020-08-28T16:11:50.000Z</time>
                <name>Trackpoint 8305</name>
            </trkpt>
            <trkpt lat="49.7612768" lon="9.5621416">
                <ele>145.0</ele>
                <time>2020-08-28T16:11:52.000Z</time>
                <name>Trackpoint 8306</name>
            </trkpt>
            <trkpt lat="49.761184" lon="9.5622064">
                <ele>145.0</ele>
                <time>2020-08-28T16:11:54.000Z</time>
                <name>Trackpoint 8307</name>
            </trkpt>
            <trkpt lat="49.7610848" lon="9.5622752">
                <ele>144.0</ele>
                <time>2020-08-28T16:11:56.000Z</time>
                <name>Trackpoint 8308</name>
            </trkpt>
            <trkpt lat="49.7609888" lon="9.5623432">
                <ele>144.0</ele>
                <time>2020-08-28T16:11:58.000Z</time>
                <name>Trackpoint 8309</name>
            </trkpt>
            <trkpt lat="49.7608896" lon="9.5624152">
                <ele>144.0</ele>
                <time>2020-08-28T16:12:00.000Z</time>
                <name>Trackpoint 8310</name>
            </trkpt>
            <trkpt lat="49.7607904" lon="9.5624848">
                <ele>144.0</ele>
                <time>2020-08-28T16:12:02.000Z</time>
                <name>Trackpoint 8311</name>
            </trkpt>
            <trkpt lat="49.7607008" lon="9.5625488">
                <ele>144.0</ele>
                <time>2020-08-28T16:12:04.000Z</time>
                <name>Trackpoint 8312</name>
            </trkpt>
            <trkpt lat="49.7606048" lon="9.5626136">
                <ele>144.0</ele>
                <time>2020-08-28T16:12:06.000Z</time>
                <name>Trackpoint 8313</name>
            </trkpt>
            <trkpt lat="49.7605088" lon="9.5626808">
                <ele>144.0</ele>
                <time>2020-08-28T16:12:08.000Z</time>
                <name>Trackpoint 8314</name>
            </trkpt>
            <trkpt lat="49.7604128" lon="9.562752">
                <ele>143.0</ele>
                <time>2020-08-28T16:12:10.000Z</time>
                <name>Trackpoint 8315</name>
            </trkpt>
            <trkpt lat="49.76032" lon="9.5628216">
                <ele>143.0</ele>
                <time>2020-08-28T16:12:12.000Z</time>
                <name>Trackpoint 8316</name>
            </trkpt>
            <trkpt lat="49.760224" lon="9.5628928">
                <ele>143.0</ele>
                <time>2020-08-28T16:12:14.000Z</time>
                <name>Trackpoint 8317</name>
            </trkpt>
            <trkpt lat="49.760128" lon="9.5629656">
                <ele>143.0</ele>
                <time>2020-08-28T16:12:16.000Z</time>
                <name>Trackpoint 8318</name>
            </trkpt>
            <trkpt lat="49.7600288" lon="9.5630352">
                <ele>143.0</ele>
                <time>2020-08-28T16:12:18.000Z</time>
                <name>Trackpoint 8319</name>
            </trkpt>
            <trkpt lat="49.7599328" lon="9.5631064">
                <ele>143.0</ele>
                <time>2020-08-28T16:12:20.000Z</time>
                <name>Trackpoint 8320</name>
            </trkpt>
            <trkpt lat="49.7598368" lon="9.5631848">
                <ele>143.0</ele>
                <time>2020-08-28T16:12:22.000Z</time>
                <name>Trackpoint 8321</name>
            </trkpt>
            <trkpt lat="49.7597472" lon="9.5632752">
                <ele>143.0</ele>
                <time>2020-08-28T16:12:24.000Z</time>
                <name>Trackpoint 8322</name>
            </trkpt>
            <trkpt lat="49.7596576" lon="9.5633688">
                <ele>143.0</ele>
                <time>2020-08-28T16:12:26.000Z</time>
                <name>Trackpoint 8323</name>
            </trkpt>
            <trkpt lat="49.7595712" lon="9.5634568">
                <ele>143.0</ele>
                <time>2020-08-28T16:12:28.000Z</time>
                <name>Trackpoint 8324</name>
            </trkpt>
            <trkpt lat="49.7594848" lon="9.5635496">
                <ele>143.0</ele>
                <time>2020-08-28T16:12:30.000Z</time>
                <name>Trackpoint 8325</name>
            </trkpt>
            <trkpt lat="49.7593952" lon="9.5636352">
                <ele>143.0</ele>
                <time>2020-08-28T16:12:32.000Z</time>
                <name>Trackpoint 8326</name>
            </trkpt>
            <trkpt lat="49.7593088" lon="9.5637256">
                <ele>143.0</ele>
                <time>2020-08-28T16:12:34.000Z</time>
                <name>Trackpoint 8327</name>
            </trkpt>
            <trkpt lat="49.7592192" lon="9.5638152">
                <ele>143.0</ele>
                <time>2020-08-28T16:12:36.000Z</time>
                <name>Trackpoint 8328</name>
            </trkpt>
            <trkpt lat="49.7591328" lon="9.5639048">
                <ele>143.0</ele>
                <time>2020-08-28T16:12:38.000Z</time>
                <name>Trackpoint 8329</name>
            </trkpt>
            <trkpt lat="49.7590432" lon="9.5639984">
                <ele>143.0</ele>
                <time>2020-08-28T16:12:40.000Z</time>
                <name>Trackpoint 8330</name>
            </trkpt>
            <trkpt lat="49.7589536" lon="9.564088">
                <ele>143.0</ele>
                <time>2020-08-28T16:12:42.000Z</time>
                <name>Trackpoint 8331</name>
            </trkpt>
            <trkpt lat="49.758864" lon="9.5641784">
                <ele>143.0</ele>
                <time>2020-08-28T16:12:44.000Z</time>
                <name>Trackpoint 8332</name>
            </trkpt>
            <trkpt lat="49.7587776" lon="9.5642704">
                <ele>143.0</ele>
                <time>2020-08-28T16:12:46.000Z</time>
                <name>Trackpoint 8333</name>
            </trkpt>
            <trkpt lat="49.7586912" lon="9.5643568">
                <ele>143.0</ele>
                <time>2020-08-28T16:12:48.000Z</time>
                <name>Trackpoint 8334</name>
            </trkpt>
            <trkpt lat="49.7586016" lon="9.5644464">
                <ele>143.0</ele>
                <time>2020-08-28T16:12:50.000Z</time>
                <name>Trackpoint 8335</name>
            </trkpt>
            <trkpt lat="49.7585184" lon="9.5645352">
                <ele>143.0</ele>
                <time>2020-08-28T16:12:52.000Z</time>
                <name>Trackpoint 8336</name>
            </trkpt>
            <trkpt lat="49.758432" lon="9.5646184">
                <ele>143.0</ele>
                <time>2020-08-28T16:12:54.000Z</time>
                <name>Trackpoint 8337</name>
            </trkpt>
            <trkpt lat="49.7583456" lon="9.5647048">
                <ele>143.0</ele>
                <time>2020-08-28T16:12:56.000Z</time>
                <name>Trackpoint 8338</name>
            </trkpt>
            <trkpt lat="49.7582624" lon="9.564792">
                <ele>143.0</ele>
                <time>2020-08-28T16:12:58.000Z</time>
                <name>Trackpoint 8339</name>
            </trkpt>
            <trkpt lat="49.7581792" lon="9.5648784">
                <ele>143.0</ele>
                <time>2020-08-28T16:13:00.000Z</time>
                <name>Trackpoint 8340</name>
            </trkpt>
            <trkpt lat="49.758096" lon="9.5649704">
                <ele>143.0</ele>
                <time>2020-08-28T16:13:02.000Z</time>
                <name>Trackpoint 8341</name>
            </trkpt>
            <trkpt lat="49.7580032" lon="9.56506">
                <ele>143.0</ele>
                <time>2020-08-28T16:13:04.000Z</time>
                <name>Trackpoint 8342</name>
            </trkpt>
            <trkpt lat="49.7579168" lon="9.5651464">
                <ele>143.0</ele>
                <time>2020-08-28T16:13:06.000Z</time>
                <name>Trackpoint 8343</name>
            </trkpt>
            <trkpt lat="49.757824" lon="9.5652336">
                <ele>143.0</ele>
                <time>2020-08-28T16:13:08.000Z</time>
                <name>Trackpoint 8344</name>
            </trkpt>
            <trkpt lat="49.7577408" lon="9.56532">
                <ele>143.0</ele>
                <time>2020-08-28T16:13:10.000Z</time>
                <name>Trackpoint 8345</name>
            </trkpt>
            <trkpt lat="49.7576672" lon="9.5654184">
                <ele>142.0</ele>
                <time>2020-08-28T16:13:12.000Z</time>
                <name>Trackpoint 8346</name>
            </trkpt>
            <trkpt lat="49.75768" lon="9.5655448">
                <ele>143.0</ele>
                <time>2020-08-28T16:13:14.000Z</time>
                <name>Trackpoint 8347</name>
            </trkpt>
            <trkpt lat="49.757728" lon="9.5656416">
                <ele>144.0</ele>
                <time>2020-08-28T16:13:16.000Z</time>
                <name>Trackpoint 8348</name>
            </trkpt>
            <trkpt lat="49.7577728" lon="9.5657432">
                <ele>144.0</ele>
                <time>2020-08-28T16:13:18.000Z</time>
                <name>Trackpoint 8349</name>
            </trkpt>
            <trkpt lat="49.7577792" lon="9.5658552">
                <ele>144.0</ele>
                <time>2020-08-28T16:13:20.000Z</time>
                <name>Trackpoint 8350</name>
            </trkpt>
            <trkpt lat="49.7577024" lon="9.5659584">
                <ele>144.0</ele>
                <time>2020-08-28T16:13:23.000Z</time>
                <name>Trackpoint 8351</name>
            </trkpt>
            <trkpt lat="49.757632" lon="9.5660152">
                <ele>145.0</ele>
                <time>2020-08-28T16:13:25.000Z</time>
                <name>Trackpoint 8352</name>
            </trkpt>
            <trkpt lat="49.7575616" lon="9.5660736">
                <ele>144.0</ele>
                <time>2020-08-28T16:13:27.000Z</time>
                <name>Trackpoint 8353</name>
            </trkpt>
            <trkpt lat="49.7574848" lon="9.5661336">
                <ele>145.0</ele>
                <time>2020-08-28T16:13:29.000Z</time>
                <name>Trackpoint 8354</name>
            </trkpt>
            <trkpt lat="49.7574144" lon="9.5662016">
                <ele>145.0</ele>
                <time>2020-08-28T16:13:31.000Z</time>
                <name>Trackpoint 8355</name>
            </trkpt>
            <trkpt lat="49.7573312" lon="9.5662736">
                <ele>145.0</ele>
                <time>2020-08-28T16:13:33.000Z</time>
                <name>Trackpoint 8356</name>
            </trkpt>
            <trkpt lat="49.7572608" lon="9.5663416">
                <ele>146.0</ele>
                <time>2020-08-28T16:13:35.000Z</time>
                <name>Trackpoint 8357</name>
            </trkpt>
            <trkpt lat="49.7571808" lon="9.5664104">
                <ele>146.0</ele>
                <time>2020-08-28T16:13:37.000Z</time>
                <name>Trackpoint 8358</name>
            </trkpt>
            <trkpt lat="49.7570944" lon="9.5664816">
                <ele>146.0</ele>
                <time>2020-08-28T16:13:39.000Z</time>
                <name>Trackpoint 8359</name>
            </trkpt>
            <trkpt lat="49.7570112" lon="9.5665568">
                <ele>147.0</ele>
                <time>2020-08-28T16:13:41.000Z</time>
                <name>Trackpoint 8360</name>
            </trkpt>
            <trkpt lat="49.7569248" lon="9.5666336">
                <ele>147.0</ele>
                <time>2020-08-28T16:13:43.000Z</time>
                <name>Trackpoint 8361</name>
            </trkpt>
            <trkpt lat="49.7568352" lon="9.566716">
                <ele>147.0</ele>
                <time>2020-08-28T16:13:45.000Z</time>
                <name>Trackpoint 8362</name>
            </trkpt>
            <trkpt lat="49.7567488" lon="9.5668048">
                <ele>148.0</ele>
                <time>2020-08-28T16:13:47.000Z</time>
                <name>Trackpoint 8363</name>
            </trkpt>
            <trkpt lat="49.7566688" lon="9.5669032">
                <ele>148.0</ele>
                <time>2020-08-28T16:13:49.000Z</time>
                <name>Trackpoint 8364</name>
            </trkpt>
            <trkpt lat="49.756576" lon="9.5669944">
                <ele>148.0</ele>
                <time>2020-08-28T16:13:51.000Z</time>
                <name>Trackpoint 8365</name>
            </trkpt>
            <trkpt lat="49.7564896" lon="9.5670816">
                <ele>148.0</ele>
                <time>2020-08-28T16:13:54.000Z</time>
                <name>Trackpoint 8366</name>
            </trkpt>
            <trkpt lat="49.7564064" lon="9.567172">
                <ele>147.0</ele>
                <time>2020-08-28T16:13:56.000Z</time>
                <name>Trackpoint 8367</name>
            </trkpt>
            <trkpt lat="49.7563232" lon="9.5672352">
                <ele>147.0</ele>
                <time>2020-08-28T16:13:58.000Z</time>
                <name>Trackpoint 8368</name>
            </trkpt>
            <trkpt lat="49.7562528" lon="9.5673048">
                <ele>147.0</ele>
                <time>2020-08-28T16:14:00.000Z</time>
                <name>Trackpoint 8369</name>
            </trkpt>
            <trkpt lat="49.7561792" lon="9.5673904">
                <ele>146.0</ele>
                <time>2020-08-28T16:14:02.000Z</time>
                <name>Trackpoint 8370</name>
            </trkpt>
            <trkpt lat="49.7561088" lon="9.567476">
                <ele>146.0</ele>
                <time>2020-08-28T16:14:04.000Z</time>
                <name>Trackpoint 8371</name>
            </trkpt>
            <trkpt lat="49.756032" lon="9.567552">
                <ele>146.0</ele>
                <time>2020-08-28T16:14:06.000Z</time>
                <name>Trackpoint 8372</name>
            </trkpt>
            <trkpt lat="49.7559916" lon="9.5675803">
                <ele>146.0</ele>
                <time>2020-08-28T16:14:08.000Z</time>
                <name>Trackpoint 8373</name>
            </trkpt>
            <trkpt lat="49.7558784" lon="9.567692">
                <ele>146.0</ele>
                <time>2020-08-28T16:14:10.000Z</time>
                <name>Trackpoint 8374</name>
            </trkpt>
            <trkpt lat="49.7558048" lon="9.5677616">
                <ele>147.0</ele>
                <time>2020-08-28T16:14:12.000Z</time>
                <name>Trackpoint 8375</name>
            </trkpt>
            <trkpt lat="49.7557152" lon="9.5678328">
                <ele>146.0</ele>
                <time>2020-08-28T16:14:15.000Z</time>
                <name>Trackpoint 8376</name>
            </trkpt>
            <trkpt lat="49.755632" lon="9.5677704">
                <ele>147.0</ele>
                <time>2020-08-28T16:14:18.000Z</time>
                <name>Trackpoint 8377</name>
            </trkpt>
            <trkpt lat="49.7555584" lon="9.5676616">
                <ele>147.0</ele>
                <time>2020-08-28T16:14:20.000Z</time>
                <name>Trackpoint 8378</name>
            </trkpt>
            <trkpt lat="49.7554432" lon="9.5676336">
                <ele>147.0</ele>
                <time>2020-08-28T16:14:22.000Z</time>
                <name>Trackpoint 8379</name>
            </trkpt>
            <trkpt lat="49.7553088" lon="9.567688">
                <ele>147.0</ele>
                <time>2020-08-28T16:14:24.000Z</time>
                <name>Trackpoint 8380</name>
            </trkpt>
            <trkpt lat="49.7552032" lon="9.567792">
                <ele>147.0</ele>
                <time>2020-08-28T16:14:26.000Z</time>
                <name>Trackpoint 8381</name>
            </trkpt>
            <trkpt lat="49.7550912" lon="9.5678768">
                <ele>146.0</ele>
                <time>2020-08-28T16:14:28.000Z</time>
                <name>Trackpoint 8382</name>
            </trkpt>
            <trkpt lat="49.7549856" lon="9.567964">
                <ele>145.0</ele>
                <time>2020-08-28T16:14:30.000Z</time>
                <name>Trackpoint 8383</name>
            </trkpt>
            <trkpt lat="49.75488" lon="9.5680488">
                <ele>145.0</ele>
                <time>2020-08-28T16:14:32.000Z</time>
                <name>Trackpoint 8384</name>
            </trkpt>
            <trkpt lat="49.7547712" lon="9.5681312">
                <ele>145.0</ele>
                <time>2020-08-28T16:14:34.000Z</time>
                <name>Trackpoint 8385</name>
            </trkpt>
            <trkpt lat="49.754672" lon="9.56822">
                <ele>145.0</ele>
                <time>2020-08-28T16:14:36.000Z</time>
                <name>Trackpoint 8386</name>
            </trkpt>
            <trkpt lat="49.7545792" lon="9.5683">
                <ele>144.0</ele>
                <time>2020-08-28T16:14:38.000Z</time>
                <name>Trackpoint 8387</name>
            </trkpt>
            <trkpt lat="49.7544832" lon="9.5683816">
                <ele>144.0</ele>
                <time>2020-08-28T16:14:40.000Z</time>
                <name>Trackpoint 8388</name>
            </trkpt>
            <trkpt lat="49.7543872" lon="9.5684616">
                <ele>144.0</ele>
                <time>2020-08-28T16:14:42.000Z</time>
                <name>Trackpoint 8389</name>
            </trkpt>
            <trkpt lat="49.7542912" lon="9.5685464">
                <ele>144.0</ele>
                <time>2020-08-28T16:14:44.000Z</time>
                <name>Trackpoint 8390</name>
            </trkpt>
            <trkpt lat="49.7541984" lon="9.5686256">
                <ele>144.0</ele>
                <time>2020-08-28T16:14:46.000Z</time>
                <name>Trackpoint 8391</name>
            </trkpt>
            <trkpt lat="49.7541152" lon="9.5686952">
                <ele>144.0</ele>
                <time>2020-08-28T16:14:48.000Z</time>
                <name>Trackpoint 8392</name>
            </trkpt>
            <trkpt lat="49.7540352" lon="9.5687648">
                <ele>144.0</ele>
                <time>2020-08-28T16:14:50.000Z</time>
                <name>Trackpoint 8393</name>
            </trkpt>
            <trkpt lat="49.753952" lon="9.5688336">
                <ele>144.0</ele>
                <time>2020-08-28T16:14:52.000Z</time>
                <name>Trackpoint 8394</name>
            </trkpt>
            <trkpt lat="49.7538688" lon="9.5688984">
                <ele>144.0</ele>
                <time>2020-08-28T16:14:54.000Z</time>
                <name>Trackpoint 8395</name>
            </trkpt>
            <trkpt lat="49.7537888" lon="9.5689688">
                <ele>144.0</ele>
                <time>2020-08-28T16:14:56.000Z</time>
                <name>Trackpoint 8396</name>
            </trkpt>
            <trkpt lat="49.7536992" lon="9.5690368">
                <ele>144.0</ele>
                <time>2020-08-28T16:14:58.000Z</time>
                <name>Trackpoint 8397</name>
            </trkpt>
            <trkpt lat="49.7536128" lon="9.5691048">
                <ele>144.0</ele>
                <time>2020-08-28T16:15:00.000Z</time>
                <name>Trackpoint 8398</name>
            </trkpt>
            <trkpt lat="49.7535168" lon="9.569172">
                <ele>144.0</ele>
                <time>2020-08-28T16:15:02.000Z</time>
                <name>Trackpoint 8399</name>
            </trkpt>
            <trkpt lat="49.7534304" lon="9.5692264">
                <ele>144.0</ele>
                <time>2020-08-28T16:15:04.000Z</time>
                <name>Trackpoint 8400</name>
            </trkpt>
            <trkpt lat="49.7533376" lon="9.5692968">
                <ele>143.0</ele>
                <time>2020-08-28T16:15:06.000Z</time>
                <name>Trackpoint 8401</name>
            </trkpt>
            <trkpt lat="49.7532416" lon="9.569368">
                <ele>143.0</ele>
                <time>2020-08-28T16:15:08.000Z</time>
                <name>Trackpoint 8402</name>
            </trkpt>
            <trkpt lat="49.7531552" lon="9.569444">
                <ele>143.0</ele>
                <time>2020-08-28T16:15:10.000Z</time>
                <name>Trackpoint 8403</name>
            </trkpt>
            <trkpt lat="49.7530592" lon="9.5695136">
                <ele>143.0</ele>
                <time>2020-08-28T16:15:12.000Z</time>
                <name>Trackpoint 8404</name>
            </trkpt>
            <trkpt lat="49.7529632" lon="9.5695896">
                <ele>143.0</ele>
                <time>2020-08-28T16:15:14.000Z</time>
                <name>Trackpoint 8405</name>
            </trkpt>
            <trkpt lat="49.7528736" lon="9.5696584">
                <ele>143.0</ele>
                <time>2020-08-28T16:15:16.000Z</time>
                <name>Trackpoint 8406</name>
            </trkpt>
            <trkpt lat="49.7527776" lon="9.5697248">
                <ele>143.0</ele>
                <time>2020-08-28T16:15:18.000Z</time>
                <name>Trackpoint 8407</name>
            </trkpt>
            <trkpt lat="49.7526816" lon="9.5697896">
                <ele>143.0</ele>
                <time>2020-08-28T16:15:20.000Z</time>
                <name>Trackpoint 8408</name>
            </trkpt>
            <trkpt lat="49.7525888" lon="9.569868">
                <ele>143.0</ele>
                <time>2020-08-28T16:15:22.000Z</time>
                <name>Trackpoint 8409</name>
            </trkpt>
            <trkpt lat="49.7524992" lon="9.5699456">
                <ele>143.0</ele>
                <time>2020-08-28T16:15:24.000Z</time>
                <name>Trackpoint 8410</name>
            </trkpt>
            <trkpt lat="49.7524032" lon="9.57">
                <ele>143.0</ele>
                <time>2020-08-28T16:15:26.000Z</time>
                <name>Trackpoint 8411</name>
            </trkpt>
            <trkpt lat="49.7523104" lon="9.5700648">
                <ele>143.0</ele>
                <time>2020-08-28T16:15:28.000Z</time>
                <name>Trackpoint 8412</name>
            </trkpt>
            <trkpt lat="49.752224" lon="9.5701304">
                <ele>143.0</ele>
                <time>2020-08-28T16:15:30.000Z</time>
                <name>Trackpoint 8413</name>
            </trkpt>
            <trkpt lat="49.7521312" lon="9.570204">
                <ele>144.0</ele>
                <time>2020-08-28T16:15:32.000Z</time>
                <name>Trackpoint 8414</name>
            </trkpt>
            <trkpt lat="49.7520448" lon="9.5702696">
                <ele>144.0</ele>
                <time>2020-08-28T16:15:34.000Z</time>
                <name>Trackpoint 8415</name>
            </trkpt>
            <trkpt lat="49.7519456" lon="9.57032">
                <ele>143.0</ele>
                <time>2020-08-28T16:15:36.000Z</time>
                <name>Trackpoint 8416</name>
            </trkpt>
            <trkpt lat="49.75184" lon="9.5703584">
                <ele>144.0</ele>
                <time>2020-08-28T16:15:38.000Z</time>
                <name>Trackpoint 8417</name>
            </trkpt>
            <trkpt lat="49.7517344" lon="9.570392">
                <ele>144.0</ele>
                <time>2020-08-28T16:15:40.000Z</time>
                <name>Trackpoint 8418</name>
            </trkpt>
            <trkpt lat="49.7516288" lon="9.5704272">
                <ele>144.0</ele>
                <time>2020-08-28T16:15:42.000Z</time>
                <name>Trackpoint 8419</name>
            </trkpt>
            <trkpt lat="49.7515264" lon="9.57046">
                <ele>143.0</ele>
                <time>2020-08-28T16:15:44.000Z</time>
                <name>Trackpoint 8420</name>
            </trkpt>
            <trkpt lat="49.751424" lon="9.570492">
                <ele>143.0</ele>
                <time>2020-08-28T16:15:46.000Z</time>
                <name>Trackpoint 8421</name>
            </trkpt>
            <trkpt lat="49.7513248" lon="9.5705272">
                <ele>143.0</ele>
                <time>2020-08-28T16:15:48.000Z</time>
                <name>Trackpoint 8422</name>
            </trkpt>
            <trkpt lat="49.7512192" lon="9.5705496">
                <ele>144.0</ele>
                <time>2020-08-28T16:15:50.000Z</time>
                <name>Trackpoint 8423</name>
            </trkpt>
            <trkpt lat="49.7511136" lon="9.5705736">
                <ele>144.0</ele>
                <time>2020-08-28T16:15:52.000Z</time>
                <name>Trackpoint 8424</name>
            </trkpt>
            <trkpt lat="49.7510144" lon="9.5706032">
                <ele>144.0</ele>
                <time>2020-08-28T16:15:54.000Z</time>
                <name>Trackpoint 8425</name>
            </trkpt>
            <trkpt lat="49.7509184" lon="9.570632">
                <ele>144.0</ele>
                <time>2020-08-28T16:15:56.000Z</time>
                <name>Trackpoint 8426</name>
            </trkpt>
            <trkpt lat="49.7508192" lon="9.570632">
                <ele>144.0</ele>
                <time>2020-08-28T16:15:58.000Z</time>
                <name>Trackpoint 8427</name>
            </trkpt>
            <trkpt lat="49.7507296" lon="9.5706168">
                <ele>145.0</ele>
                <time>2020-08-28T16:16:42.000Z</time>
                <name>Trackpoint 8428</name>
            </trkpt>
            <trkpt lat="49.7506272" lon="9.570652">
                <ele>146.0</ele>
                <time>2020-08-28T16:16:48.000Z</time>
                <name>Trackpoint 8429</name>
            </trkpt>
            <trkpt lat="49.750512" lon="9.570672">
                <ele>146.0</ele>
                <time>2020-08-28T16:16:51.000Z</time>
                <name>Trackpoint 8430</name>
            </trkpt>
            <trkpt lat="49.7503776" lon="9.5706752">
                <ele>146.0</ele>
                <time>2020-08-28T16:16:54.000Z</time>
                <name>Trackpoint 8431</name>
            </trkpt>
            <trkpt lat="49.7502464" lon="9.570672">
                <ele>146.0</ele>
                <time>2020-08-28T16:16:57.000Z</time>
                <name>Trackpoint 8432</name>
            </trkpt>
            <trkpt lat="49.750144" lon="9.5706768">
                <ele>146.0</ele>
                <time>2020-08-28T16:16:59.000Z</time>
                <name>Trackpoint 8433</name>
            </trkpt>
            <trkpt lat="49.750048" lon="9.5706864">
                <ele>146.0</ele>
                <time>2020-08-28T16:17:01.000Z</time>
                <name>Trackpoint 8434</name>
            </trkpt>
            <trkpt lat="49.7499552" lon="9.5706984">
                <ele>145.0</ele>
                <time>2020-08-28T16:17:03.000Z</time>
                <name>Trackpoint 8435</name>
            </trkpt>
            <trkpt lat="49.7498336" lon="9.5706832">
                <ele>145.0</ele>
                <time>2020-08-28T16:17:06.000Z</time>
                <name>Trackpoint 8436</name>
            </trkpt>
            <trkpt lat="49.7497344" lon="9.57066">
                <ele>145.0</ele>
                <time>2020-08-28T16:17:09.000Z</time>
                <name>Trackpoint 8437</name>
            </trkpt>
            <trkpt lat="49.7496416" lon="9.5705992">
                <ele>145.0</ele>
                <time>2020-08-28T16:17:12.000Z</time>
                <name>Trackpoint 8438</name>
            </trkpt>
            <trkpt lat="49.7495616" lon="9.5705448">
                <ele>145.0</ele>
                <time>2020-08-28T16:17:14.000Z</time>
                <name>Trackpoint 8439</name>
            </trkpt>
            <trkpt lat="49.749472" lon="9.570488">
                <ele>145.0</ele>
                <time>2020-08-28T16:17:16.000Z</time>
                <name>Trackpoint 8440</name>
            </trkpt>
            <trkpt lat="49.7493664" lon="9.570428">
                <ele>145.0</ele>
                <time>2020-08-28T16:17:18.000Z</time>
                <name>Trackpoint 8441</name>
            </trkpt>
            <trkpt lat="49.7492448" lon="9.5704096">
                <ele>145.0</ele>
                <time>2020-08-28T16:17:20.000Z</time>
                <name>Trackpoint 8442</name>
            </trkpt>
            <trkpt lat="49.7491264" lon="9.57038">
                <ele>145.0</ele>
                <time>2020-08-28T16:17:22.000Z</time>
                <name>Trackpoint 8443</name>
            </trkpt>
            <trkpt lat="49.749008" lon="9.5703648">
                <ele>145.0</ele>
                <time>2020-08-28T16:17:24.000Z</time>
                <name>Trackpoint 8444</name>
            </trkpt>
            <trkpt lat="49.7489088" lon="9.5703552">
                <ele>145.0</ele>
                <time>2020-08-28T16:17:26.000Z</time>
                <name>Trackpoint 8445</name>
            </trkpt>
            <trkpt lat="49.7488064" lon="9.5703424">
                <ele>145.0</ele>
                <time>2020-08-28T16:17:28.000Z</time>
                <name>Trackpoint 8446</name>
            </trkpt>
            <trkpt lat="49.748672" lon="9.5703152">
                <ele>145.0</ele>
                <time>2020-08-28T16:17:30.000Z</time>
                <name>Trackpoint 8447</name>
            </trkpt>
            <trkpt lat="49.7485504" lon="9.5702816">
                <ele>145.0</ele>
                <time>2020-08-28T16:17:32.000Z</time>
                <name>Trackpoint 8448</name>
            </trkpt>
            <trkpt lat="49.7484288" lon="9.5702584">
                <ele>145.0</ele>
                <time>2020-08-28T16:17:34.000Z</time>
                <name>Trackpoint 8449</name>
            </trkpt>
            <trkpt lat="49.7483104" lon="9.5702264">
                <ele>145.0</ele>
                <time>2020-08-28T16:17:36.000Z</time>
                <name>Trackpoint 8450</name>
            </trkpt>
            <trkpt lat="49.7481984" lon="9.5702064">
                <ele>145.0</ele>
                <time>2020-08-28T16:17:38.000Z</time>
                <name>Trackpoint 8451</name>
            </trkpt>
            <trkpt lat="49.748096" lon="9.5702104">
                <ele>145.0</ele>
                <time>2020-08-28T16:17:40.000Z</time>
                <name>Trackpoint 8452</name>
            </trkpt>
            <trkpt lat="49.7479808" lon="9.5702784">
                <ele>145.0</ele>
                <time>2020-08-28T16:17:43.000Z</time>
                <name>Trackpoint 8453</name>
            </trkpt>
            <trkpt lat="49.7478752" lon="9.5702832">
                <ele>144.0</ele>
                <time>2020-08-28T16:17:46.000Z</time>
                <name>Trackpoint 8454</name>
            </trkpt>
            <trkpt lat="49.7477568" lon="9.5702152">
                <ele>144.0</ele>
                <time>2020-08-28T16:17:49.000Z</time>
                <name>Trackpoint 8455</name>
            </trkpt>
            <trkpt lat="49.747664" lon="9.5701504">
                <ele>144.0</ele>
                <time>2020-08-28T16:17:51.000Z</time>
                <name>Trackpoint 8456</name>
            </trkpt>
            <trkpt lat="49.7475712" lon="9.5700776">
                <ele>144.0</ele>
                <time>2020-08-28T16:17:53.000Z</time>
                <name>Trackpoint 8457</name>
            </trkpt>
            <trkpt lat="49.747472" lon="9.5700056">
                <ele>144.0</ele>
                <time>2020-08-28T16:17:55.000Z</time>
                <name>Trackpoint 8458</name>
            </trkpt>
            <trkpt lat="49.7473664" lon="9.5699352">
                <ele>144.0</ele>
                <time>2020-08-28T16:17:57.000Z</time>
                <name>Trackpoint 8459</name>
            </trkpt>
            <trkpt lat="49.7472736" lon="9.569872">
                <ele>144.0</ele>
                <time>2020-08-28T16:17:59.000Z</time>
                <name>Trackpoint 8460</name>
            </trkpt>
            <trkpt lat="49.7471936" lon="9.5698032">
                <ele>144.0</ele>
                <time>2020-08-28T16:18:01.000Z</time>
                <name>Trackpoint 8461</name>
            </trkpt>
            <trkpt lat="49.747088" lon="9.5697384">
                <ele>144.0</ele>
                <time>2020-08-28T16:18:04.000Z</time>
                <name>Trackpoint 8462</name>
            </trkpt>
            <trkpt lat="49.7470144" lon="9.5696488">
                <ele>144.0</ele>
                <time>2020-08-28T16:18:08.000Z</time>
                <name>Trackpoint 8463</name>
            </trkpt>
            <trkpt lat="49.7470144" lon="9.5695552">
                <ele>144.0</ele>
                <time>2020-08-28T16:18:12.000Z</time>
                <name>Trackpoint 8464</name>
            </trkpt>
            <trkpt lat="49.7469792" lon="9.5694264">
                <ele>144.0</ele>
                <time>2020-08-28T16:18:36.000Z</time>
                <name>Trackpoint 8465</name>
            </trkpt>
            <trkpt lat="49.74696" lon="9.5693256">
                <ele>144.0</ele>
                <time>2020-08-28T16:18:38.000Z</time>
                <name>Trackpoint 8466</name>
            </trkpt>
            <trkpt lat="49.7469248" lon="9.5692168">
                <ele>144.0</ele>
                <time>2020-08-28T16:18:41.000Z</time>
                <name>Trackpoint 8467</name>
            </trkpt>
            <trkpt lat="49.746864" lon="9.5691408">
                <ele>144.0</ele>
                <time>2020-08-28T16:18:44.000Z</time>
                <name>Trackpoint 8468</name>
            </trkpt>
            <trkpt lat="49.7468192" lon="9.56902">
                <ele>144.0</ele>
                <time>2020-08-28T16:18:46.000Z</time>
                <name>Trackpoint 8469</name>
            </trkpt>
            <trkpt lat="49.7467424" lon="9.5689424">
                <ele>145.0</ele>
                <time>2020-08-28T16:18:48.000Z</time>
                <name>Trackpoint 8470</name>
            </trkpt>
            <trkpt lat="49.746656" lon="9.5688784">
                <ele>145.0</ele>
                <time>2020-08-28T16:18:50.000Z</time>
                <name>Trackpoint 8471</name>
            </trkpt>
            <trkpt lat="49.7465664" lon="9.5688232">
                <ele>145.0</ele>
                <time>2020-08-28T16:18:52.000Z</time>
                <name>Trackpoint 8472</name>
            </trkpt>
            <trkpt lat="49.74648" lon="9.56878">
                <ele>145.0</ele>
                <time>2020-08-28T16:18:54.000Z</time>
                <name>Trackpoint 8473</name>
            </trkpt>
            <trkpt lat="49.7463776" lon="9.5687064">
                <ele>145.0</ele>
                <time>2020-08-28T16:18:56.000Z</time>
                <name>Trackpoint 8474</name>
            </trkpt>
            <trkpt lat="49.7462848" lon="9.5686352">
                <ele>145.0</ele>
                <time>2020-08-28T16:18:58.000Z</time>
                <name>Trackpoint 8475</name>
            </trkpt>
            <trkpt lat="49.7462048" lon="9.5685552">
                <ele>145.0</ele>
                <time>2020-08-28T16:19:00.000Z</time>
                <name>Trackpoint 8476</name>
            </trkpt>
            <trkpt lat="49.7461344" lon="9.568492">
                <ele>145.0</ele>
                <time>2020-08-28T16:19:02.000Z</time>
                <name>Trackpoint 8477</name>
            </trkpt>
            <trkpt lat="49.7460544" lon="9.5684472">
                <ele>145.0</ele>
                <time>2020-08-28T16:19:04.000Z</time>
                <name>Trackpoint 8478</name>
            </trkpt>
            <trkpt lat="49.7459456" lon="9.568388">
                <ele>145.0</ele>
                <time>2020-08-28T16:19:07.000Z</time>
                <name>Trackpoint 8479</name>
            </trkpt>
            <trkpt lat="49.7458432" lon="9.56836">
                <ele>145.0</ele>
                <time>2020-08-28T16:19:09.000Z</time>
                <name>Trackpoint 8480</name>
            </trkpt>
            <trkpt lat="49.745728" lon="9.5683472">
                <ele>145.0</ele>
                <time>2020-08-28T16:19:11.000Z</time>
                <name>Trackpoint 8481</name>
            </trkpt>
            <trkpt lat="49.7456256" lon="9.5683432">
                <ele>145.0</ele>
                <time>2020-08-28T16:19:13.000Z</time>
                <name>Trackpoint 8482</name>
            </trkpt>
            <trkpt lat="49.74552" lon="9.5683048">
                <ele>145.0</ele>
                <time>2020-08-28T16:19:15.000Z</time>
                <name>Trackpoint 8483</name>
            </trkpt>
            <trkpt lat="49.7454272" lon="9.5682296">
                <ele>145.0</ele>
                <time>2020-08-28T16:19:17.000Z</time>
                <name>Trackpoint 8484</name>
            </trkpt>
            <trkpt lat="49.7453408" lon="9.5681352">
                <ele>145.0</ele>
                <time>2020-08-28T16:19:19.000Z</time>
                <name>Trackpoint 8485</name>
            </trkpt>
            <trkpt lat="49.745248" lon="9.5680336">
                <ele>145.0</ele>
                <time>2020-08-28T16:19:21.000Z</time>
                <name>Trackpoint 8486</name>
            </trkpt>
            <trkpt lat="49.745152" lon="9.5679328">
                <ele>145.0</ele>
                <time>2020-08-28T16:19:23.000Z</time>
                <name>Trackpoint 8487</name>
            </trkpt>
            <trkpt lat="49.7450624" lon="9.567832">
                <ele>145.0</ele>
                <time>2020-08-28T16:19:25.000Z</time>
                <name>Trackpoint 8488</name>
            </trkpt>
            <trkpt lat="49.7449696" lon="9.5677384">
                <ele>145.0</ele>
                <time>2020-08-28T16:19:27.000Z</time>
                <name>Trackpoint 8489</name>
            </trkpt>
            <trkpt lat="49.7448704" lon="9.56764">
                <ele>145.0</ele>
                <time>2020-08-28T16:19:29.000Z</time>
                <name>Trackpoint 8490</name>
            </trkpt>
            <trkpt lat="49.7447808" lon="9.5675224">
                <ele>145.0</ele>
                <time>2020-08-28T16:19:31.000Z</time>
                <name>Trackpoint 8491</name>
            </trkpt>
            <trkpt lat="49.7447168" lon="9.5673952">
                <ele>145.0</ele>
                <time>2020-08-28T16:19:33.000Z</time>
                <name>Trackpoint 8492</name>
            </trkpt>
            <trkpt lat="49.7446944" lon="9.5672432">
                <ele>145.0</ele>
                <time>2020-08-28T16:19:35.000Z</time>
                <name>Trackpoint 8493</name>
            </trkpt>
            <trkpt lat="49.7446656" lon="9.567092">
                <ele>145.0</ele>
                <time>2020-08-28T16:19:37.000Z</time>
                <name>Trackpoint 8494</name>
            </trkpt>
            <trkpt lat="49.7446336" lon="9.5669344">
                <ele>145.0</ele>
                <time>2020-08-28T16:19:39.000Z</time>
                <name>Trackpoint 8495</name>
            </trkpt>
            <trkpt lat="49.744576" lon="9.5668432">
                <ele>145.0</ele>
                <time>2020-08-28T16:19:41.000Z</time>
                <name>Trackpoint 8496</name>
            </trkpt>
            <trkpt lat="49.744512" lon="9.5667384">
                <ele>145.0</ele>
                <time>2020-08-28T16:19:43.000Z</time>
                <name>Trackpoint 8497</name>
            </trkpt>
            <trkpt lat="49.7444512" lon="9.5666064">
                <ele>145.0</ele>
                <time>2020-08-28T16:19:45.000Z</time>
                <name>Trackpoint 8498</name>
            </trkpt>
            <trkpt lat="49.7443872" lon="9.5664752">
                <ele>145.0</ele>
                <time>2020-08-28T16:19:47.000Z</time>
                <name>Trackpoint 8499</name>
            </trkpt>
            <trkpt lat="49.7443264" lon="9.5663232">
                <ele>145.0</ele>
                <time>2020-08-28T16:19:49.000Z</time>
                <name>Trackpoint 8500</name>
            </trkpt>
            <trkpt lat="49.7442624" lon="9.5661632">
                <ele>145.0</ele>
                <time>2020-08-28T16:19:51.000Z</time>
                <name>Trackpoint 8501</name>
            </trkpt>
            <trkpt lat="49.7442144" lon="9.5660432">
                <ele>145.0</ele>
                <time>2020-08-28T16:19:54.000Z</time>
                <name>Trackpoint 8502</name>
            </trkpt>
            <trkpt lat="49.7441632" lon="9.5659168">
                <ele>145.0</ele>
                <time>2020-08-28T16:19:56.000Z</time>
                <name>Trackpoint 8503</name>
            </trkpt>
            <trkpt lat="49.7441248" lon="9.5657832">
                <ele>145.0</ele>
                <time>2020-08-28T16:19:58.000Z</time>
                <name>Trackpoint 8504</name>
            </trkpt>
            <trkpt lat="49.7440768" lon="9.5656664">
                <ele>144.0</ele>
                <time>2020-08-28T16:20:00.000Z</time>
                <name>Trackpoint 8505</name>
            </trkpt>
            <trkpt lat="49.7440192" lon="9.5655368">
                <ele>145.0</ele>
                <time>2020-08-28T16:20:02.000Z</time>
                <name>Trackpoint 8506</name>
            </trkpt>
            <trkpt lat="49.7439712" lon="9.5653936">
                <ele>144.0</ele>
                <time>2020-08-28T16:20:04.000Z</time>
                <name>Trackpoint 8507</name>
            </trkpt>
            <trkpt lat="49.7439456" lon="9.5653064">
                <ele>144.0</ele>
                <time>2020-08-28T16:20:05.000Z</time>
                <name>Trackpoint 8508</name>
            </trkpt>
            <trkpt lat="49.7439424" lon="9.5651952">
                <ele>144.0</ele>
                <time>2020-08-28T16:20:06.000Z</time>
                <name>Trackpoint 8509</name>
            </trkpt>
            <trkpt lat="49.7439168" lon="9.5650856">
                <ele>144.0</ele>
                <time>2020-08-28T16:20:07.000Z</time>
                <name>Trackpoint 8510</name>
            </trkpt>
            <trkpt lat="49.743888" lon="9.564952">
                <ele>145.0</ele>
                <time>2020-08-28T16:20:08.000Z</time>
                <name>Trackpoint 8511</name>
            </trkpt>
            <trkpt lat="49.7438592" lon="9.5648272">
                <ele>145.0</ele>
                <time>2020-08-28T16:20:09.000Z</time>
                <name>Trackpoint 8512</name>
            </trkpt>
            <trkpt lat="49.7438496" lon="9.564736">
                <ele>145.0</ele>
                <time>2020-08-28T16:20:10.000Z</time>
                <name>Trackpoint 8513</name>
            </trkpt>
            <trkpt lat="49.743808" lon="9.5646152">
                <ele>144.0</ele>
                <time>2020-08-28T16:20:12.000Z</time>
                <name>Trackpoint 8514</name>
            </trkpt>
            <trkpt lat="49.7437568" lon="9.5644616">
                <ele>144.0</ele>
                <time>2020-08-28T16:20:14.000Z</time>
                <name>Trackpoint 8515</name>
            </trkpt>
            <trkpt lat="49.7436768" lon="9.5643616">
                <ele>144.0</ele>
                <time>2020-08-28T16:20:16.000Z</time>
                <name>Trackpoint 8516</name>
            </trkpt>
            <trkpt lat="49.7436576" lon="9.5642728">
                <ele>144.0</ele>
                <time>2020-08-28T16:20:17.000Z</time>
                <name>Trackpoint 8517</name>
            </trkpt>
            <trkpt lat="49.7436064" lon="9.5641344">
                <ele>143.0</ele>
                <time>2020-08-28T16:20:19.000Z</time>
                <name>Trackpoint 8518</name>
            </trkpt>
            <trkpt lat="49.7436064" lon="9.56404">
                <ele>143.0</ele>
                <time>2020-08-28T16:20:20.000Z</time>
                <name>Trackpoint 8519</name>
            </trkpt>
            <trkpt lat="49.7435712" lon="9.5638952">
                <ele>143.0</ele>
                <time>2020-08-28T16:20:22.000Z</time>
                <name>Trackpoint 8520</name>
            </trkpt>
            <trkpt lat="49.7435424" lon="9.5637464">
                <ele>143.0</ele>
                <time>2020-08-28T16:20:24.000Z</time>
                <name>Trackpoint 8521</name>
            </trkpt>
            <trkpt lat="49.7435616" lon="9.56364">
                <ele>142.0</ele>
                <time>2020-08-28T16:20:25.000Z</time>
                <name>Trackpoint 8522</name>
            </trkpt>
            <trkpt lat="49.7435712" lon="9.5635472">
                <ele>142.0</ele>
                <time>2020-08-28T16:20:26.000Z</time>
                <name>Trackpoint 8523</name>
            </trkpt>
            <trkpt lat="49.7435488" lon="9.5633944">
                <ele>142.0</ele>
                <time>2020-08-28T16:20:28.000Z</time>
                <name>Trackpoint 8524</name>
            </trkpt>
            <trkpt lat="49.743552" lon="9.5633032">
                <ele>142.0</ele>
                <time>2020-08-28T16:20:29.000Z</time>
                <name>Trackpoint 8525</name>
            </trkpt>
            <trkpt lat="49.7435584" lon="9.5631248">
                <ele>141.0</ele>
                <time>2020-08-28T16:20:31.000Z</time>
                <name>Trackpoint 8526</name>
            </trkpt>
            <trkpt lat="49.743552" lon="9.5629552">
                <ele>141.0</ele>
                <time>2020-08-28T16:20:33.000Z</time>
                <name>Trackpoint 8527</name>
            </trkpt>
            <trkpt lat="49.7435424" lon="9.5627984">
                <ele>141.0</ele>
                <time>2020-08-28T16:20:35.000Z</time>
                <name>Trackpoint 8528</name>
            </trkpt>
            <trkpt lat="49.7435264" lon="9.5626448">
                <ele>141.0</ele>
                <time>2020-08-28T16:20:37.000Z</time>
                <name>Trackpoint 8529</name>
            </trkpt>
            <trkpt lat="49.7435232" lon="9.5624912">
                <ele>141.0</ele>
                <time>2020-08-28T16:20:39.000Z</time>
                <name>Trackpoint 8530</name>
            </trkpt>
            <trkpt lat="49.7435392" lon="9.562312">
                <ele>140.0</ele>
                <time>2020-08-28T16:20:41.000Z</time>
                <name>Trackpoint 8531</name>
            </trkpt>
            <trkpt lat="49.7435456" lon="9.5622216">
                <ele>140.0</ele>
                <time>2020-08-28T16:20:42.000Z</time>
                <name>Trackpoint 8532</name>
            </trkpt>
            <trkpt lat="49.7435616" lon="9.5620584">
                <ele>140.0</ele>
                <time>2020-08-28T16:20:44.000Z</time>
                <name>Trackpoint 8533</name>
            </trkpt>
            <trkpt lat="49.743552" lon="9.5619224">
                <ele>140.0</ele>
                <time>2020-08-28T16:20:46.000Z</time>
                <name>Trackpoint 8534</name>
            </trkpt>
            <trkpt lat="49.7435296" lon="9.5617848">
                <ele>140.0</ele>
                <time>2020-08-28T16:20:48.000Z</time>
                <name>Trackpoint 8535</name>
            </trkpt>
            <trkpt lat="49.7435328" lon="9.5616312">
                <ele>140.0</ele>
                <time>2020-08-28T16:20:50.000Z</time>
                <name>Trackpoint 8536</name>
            </trkpt>
            <trkpt lat="49.7435136" lon="9.5614984">
                <ele>140.0</ele>
                <time>2020-08-28T16:20:52.000Z</time>
                <name>Trackpoint 8537</name>
            </trkpt>
            <trkpt lat="49.7435392" lon="9.5613168">
                <ele>139.0</ele>
                <time>2020-08-28T16:20:54.000Z</time>
                <name>Trackpoint 8538</name>
            </trkpt>
            <trkpt lat="49.7435456" lon="9.5611496">
                <ele>139.0</ele>
                <time>2020-08-28T16:20:56.000Z</time>
                <name>Trackpoint 8539</name>
            </trkpt>
            <trkpt lat="49.7435584" lon="9.5610504">
                <ele>139.0</ele>
                <time>2020-08-28T16:20:57.000Z</time>
                <name>Trackpoint 8540</name>
            </trkpt>
            <trkpt lat="49.743568" lon="9.5609576">
                <ele>138.0</ele>
                <time>2020-08-28T16:20:58.000Z</time>
                <name>Trackpoint 8541</name>
            </trkpt>
            <trkpt lat="49.7435456" lon="9.56082">
                <ele>138.0</ele>
                <time>2020-08-28T16:21:00.000Z</time>
                <name>Trackpoint 8542</name>
            </trkpt>
            <trkpt lat="49.7435072" lon="9.5606984">
                <ele>138.0</ele>
                <time>2020-08-28T16:21:02.000Z</time>
                <name>Trackpoint 8543</name>
            </trkpt>
            <trkpt lat="49.7435264" lon="9.5606016">
                <ele>138.0</ele>
                <time>2020-08-28T16:21:03.000Z</time>
                <name>Trackpoint 8544</name>
            </trkpt>
            <trkpt lat="49.7435808" lon="9.5604736">
                <ele>138.0</ele>
                <time>2020-08-28T16:21:04.000Z</time>
                <name>Trackpoint 8545</name>
            </trkpt>
            <trkpt lat="49.743632" lon="9.5603536">
                <ele>138.0</ele>
                <time>2020-08-28T16:21:05.000Z</time>
                <name>Trackpoint 8546</name>
            </trkpt>
            <trkpt lat="49.743648" lon="9.560264">
                <ele>138.0</ele>
                <time>2020-08-28T16:21:06.000Z</time>
                <name>Trackpoint 8547</name>
            </trkpt>
            <trkpt lat="49.7436832" lon="9.5601">
                <ele>139.0</ele>
                <time>2020-08-28T16:21:08.000Z</time>
                <name>Trackpoint 8548</name>
            </trkpt>
            <trkpt lat="49.7437376" lon="9.5599096">
                <ele>139.0</ele>
                <time>2020-08-28T16:21:10.000Z</time>
                <name>Trackpoint 8549</name>
            </trkpt>
            <trkpt lat="49.7437504" lon="9.55982">
                <ele>139.0</ele>
                <time>2020-08-28T16:21:11.000Z</time>
                <name>Trackpoint 8550</name>
            </trkpt>
            <trkpt lat="49.7437504" lon="9.5596888">
                <ele>139.0</ele>
                <time>2020-08-28T16:21:13.000Z</time>
                <name>Trackpoint 8551</name>
            </trkpt>
            <trkpt lat="49.7437664" lon="9.5596">
                <ele>139.0</ele>
                <time>2020-08-28T16:21:14.000Z</time>
                <name>Trackpoint 8552</name>
            </trkpt>
            <trkpt lat="49.7437984" lon="9.5594384">
                <ele>139.0</ele>
                <time>2020-08-28T16:21:16.000Z</time>
                <name>Trackpoint 8553</name>
            </trkpt>
            <trkpt lat="49.7438176" lon="9.5592968">
                <ele>139.0</ele>
                <time>2020-08-28T16:21:18.000Z</time>
                <name>Trackpoint 8554</name>
            </trkpt>
            <trkpt lat="49.7438464" lon="9.5591968">
                <ele>138.0</ele>
                <time>2020-08-28T16:21:19.000Z</time>
                <name>Trackpoint 8555</name>
            </trkpt>
            <trkpt lat="49.7438912" lon="9.5590312">
                <ele>138.0</ele>
                <time>2020-08-28T16:21:21.000Z</time>
                <name>Trackpoint 8556</name>
            </trkpt>
            <trkpt lat="49.74392" lon="9.558944">
                <ele>138.0</ele>
                <time>2020-08-28T16:21:22.000Z</time>
                <name>Trackpoint 8557</name>
            </trkpt>
            <trkpt lat="49.7439424" lon="9.5587968">
                <ele>138.0</ele>
                <time>2020-08-28T16:21:24.000Z</time>
                <name>Trackpoint 8558</name>
            </trkpt>
            <trkpt lat="49.7439616" lon="9.5586584">
                <ele>138.0</ele>
                <time>2020-08-28T16:21:26.000Z</time>
                <name>Trackpoint 8559</name>
            </trkpt>
            <trkpt lat="49.7439904" lon="9.5585048">
                <ele>138.0</ele>
                <time>2020-08-28T16:21:28.000Z</time>
                <name>Trackpoint 8560</name>
            </trkpt>
            <trkpt lat="49.7440224" lon="9.5583488">
                <ele>138.0</ele>
                <time>2020-08-28T16:21:30.000Z</time>
                <name>Trackpoint 8561</name>
            </trkpt>
            <trkpt lat="49.7441344" lon="9.5581352">
                <ele>139.0</ele>
                <time>2020-08-28T16:21:32.000Z</time>
                <name>Trackpoint 8562</name>
            </trkpt>
            <trkpt lat="49.7441664" lon="9.5580504">
                <ele>139.0</ele>
                <time>2020-08-28T16:21:33.000Z</time>
                <name>Trackpoint 8563</name>
            </trkpt>
            <trkpt lat="49.7442048" lon="9.5578896">
                <ele>139.0</ele>
                <time>2020-08-28T16:21:35.000Z</time>
                <name>Trackpoint 8564</name>
            </trkpt>
            <trkpt lat="49.7442432" lon="9.5577288">
                <ele>139.0</ele>
                <time>2020-08-28T16:21:37.000Z</time>
                <name>Trackpoint 8565</name>
            </trkpt>
            <trkpt lat="49.7442944" lon="9.557564">
                <ele>139.0</ele>
                <time>2020-08-28T16:21:39.000Z</time>
                <name>Trackpoint 8566</name>
            </trkpt>
            <trkpt lat="49.7443456" lon="9.5574">
                <ele>139.0</ele>
                <time>2020-08-28T16:21:41.000Z</time>
                <name>Trackpoint 8567</name>
            </trkpt>
            <trkpt lat="49.7444" lon="9.5572592">
                <ele>139.0</ele>
                <time>2020-08-28T16:21:43.000Z</time>
                <name>Trackpoint 8568</name>
            </trkpt>
            <trkpt lat="49.7444736" lon="9.5571248">
                <ele>139.0</ele>
                <time>2020-08-28T16:21:45.000Z</time>
                <name>Trackpoint 8569</name>
            </trkpt>
            <trkpt lat="49.7445344" lon="9.557">
                <ele>139.0</ele>
                <time>2020-08-28T16:21:47.000Z</time>
                <name>Trackpoint 8570</name>
            </trkpt>
            <trkpt lat="49.7446176" lon="9.5568568">
                <ele>139.0</ele>
                <time>2020-08-28T16:21:49.000Z</time>
                <name>Trackpoint 8571</name>
            </trkpt>
            <trkpt lat="49.7446976" lon="9.5567128">
                <ele>139.0</ele>
                <time>2020-08-28T16:21:51.000Z</time>
                <name>Trackpoint 8572</name>
            </trkpt>
            <trkpt lat="49.7447712" lon="9.5565752">
                <ele>139.0</ele>
                <time>2020-08-28T16:21:53.000Z</time>
                <name>Trackpoint 8573</name>
            </trkpt>
            <trkpt lat="49.7448384" lon="9.5564296">
                <ele>139.0</ele>
                <time>2020-08-28T16:21:55.000Z</time>
                <name>Trackpoint 8574</name>
            </trkpt>
            <trkpt lat="49.7448992" lon="9.556296">
                <ele>139.0</ele>
                <time>2020-08-28T16:21:57.000Z</time>
                <name>Trackpoint 8575</name>
            </trkpt>
            <trkpt lat="49.74496" lon="9.5561664">
                <ele>139.0</ele>
                <time>2020-08-28T16:21:59.000Z</time>
                <name>Trackpoint 8576</name>
            </trkpt>
            <trkpt lat="49.7450208" lon="9.5560368">
                <ele>140.0</ele>
                <time>2020-08-28T16:22:01.000Z</time>
                <name>Trackpoint 8577</name>
            </trkpt>
            <trkpt lat="49.7450912" lon="9.5559104">
                <ele>139.0</ele>
                <time>2020-08-28T16:22:03.000Z</time>
                <name>Trackpoint 8578</name>
            </trkpt>
            <trkpt lat="49.7451584" lon="9.5557848">
                <ele>139.0</ele>
                <time>2020-08-28T16:22:05.000Z</time>
                <name>Trackpoint 8579</name>
            </trkpt>
            <trkpt lat="49.745232" lon="9.555668">
                <ele>139.0</ele>
                <time>2020-08-28T16:22:07.000Z</time>
                <name>Trackpoint 8580</name>
            </trkpt>
            <trkpt lat="49.7453056" lon="9.5555512">
                <ele>140.0</ele>
                <time>2020-08-28T16:22:09.000Z</time>
                <name>Trackpoint 8581</name>
            </trkpt>
            <trkpt lat="49.745376" lon="9.5554416">
                <ele>140.0</ele>
                <time>2020-08-28T16:22:11.000Z</time>
                <name>Trackpoint 8582</name>
            </trkpt>
            <trkpt lat="49.7454496" lon="9.5553376">
                <ele>140.0</ele>
                <time>2020-08-28T16:22:13.000Z</time>
                <name>Trackpoint 8583</name>
            </trkpt>
            <trkpt lat="49.74552" lon="9.5552328">
                <ele>140.0</ele>
                <time>2020-08-28T16:22:15.000Z</time>
                <name>Trackpoint 8584</name>
            </trkpt>
            <trkpt lat="49.7456064" lon="9.5551168">
                <ele>140.0</ele>
                <time>2020-08-28T16:22:17.000Z</time>
                <name>Trackpoint 8585</name>
            </trkpt>
            <trkpt lat="49.7456832" lon="9.5550144">
                <ele>140.0</ele>
                <time>2020-08-28T16:22:19.000Z</time>
                <name>Trackpoint 8586</name>
            </trkpt>
            <trkpt lat="49.7457632" lon="9.5549152">
                <ele>141.0</ele>
                <time>2020-08-28T16:22:21.000Z</time>
                <name>Trackpoint 8587</name>
            </trkpt>
            <trkpt lat="49.7458464" lon="9.5548216">
                <ele>140.0</ele>
                <time>2020-08-28T16:22:23.000Z</time>
                <name>Trackpoint 8588</name>
            </trkpt>
            <trkpt lat="49.7459264" lon="9.5547248">
                <ele>141.0</ele>
                <time>2020-08-28T16:22:25.000Z</time>
                <name>Trackpoint 8589</name>
            </trkpt>
            <trkpt lat="49.7460096" lon="9.5546312">
                <ele>141.0</ele>
                <time>2020-08-28T16:22:27.000Z</time>
                <name>Trackpoint 8590</name>
            </trkpt>
            <trkpt lat="49.7460896" lon="9.55454">
                <ele>141.0</ele>
                <time>2020-08-28T16:22:29.000Z</time>
                <name>Trackpoint 8591</name>
            </trkpt>
            <trkpt lat="49.7461728" lon="9.5544528">
                <ele>141.0</ele>
                <time>2020-08-28T16:22:31.000Z</time>
                <name>Trackpoint 8592</name>
            </trkpt>
            <trkpt lat="49.7462592" lon="9.5543744">
                <ele>142.0</ele>
                <time>2020-08-28T16:22:33.000Z</time>
                <name>Trackpoint 8593</name>
            </trkpt>
            <trkpt lat="49.7463264" lon="9.5543136">
                <ele>142.0</ele>
                <time>2020-08-28T16:22:35.000Z</time>
                <name>Trackpoint 8594</name>
            </trkpt>
            <trkpt lat="49.7464096" lon="9.554252">
                <ele>142.0</ele>
                <time>2020-08-28T16:23:50.000Z</time>
                <name>Trackpoint 8595</name>
            </trkpt>
            <trkpt lat="49.7465056" lon="9.5541664">
                <ele>141.0</ele>
                <time>2020-08-28T16:23:54.000Z</time>
                <name>Trackpoint 8596</name>
            </trkpt>
            <trkpt lat="49.7465856" lon="9.5540952">
                <ele>141.0</ele>
                <time>2020-08-28T16:23:57.000Z</time>
                <name>Trackpoint 8597</name>
            </trkpt>
            <trkpt lat="49.746672" lon="9.5540104">
                <ele>141.0</ele>
                <time>2020-08-28T16:24:00.000Z</time>
                <name>Trackpoint 8598</name>
            </trkpt>
            <trkpt lat="49.7467712" lon="9.5539312">
                <ele>141.0</ele>
                <time>2020-08-28T16:24:03.000Z</time>
                <name>Trackpoint 8599</name>
            </trkpt>
            <trkpt lat="49.7468672" lon="9.5538616">
                <ele>141.0</ele>
                <time>2020-08-28T16:24:06.000Z</time>
                <name>Trackpoint 8600</name>
            </trkpt>
            <trkpt lat="49.7469664" lon="9.5537904">
                <ele>141.0</ele>
                <time>2020-08-28T16:24:09.000Z</time>
                <name>Trackpoint 8601</name>
            </trkpt>
            <trkpt lat="49.7470368" lon="9.5537328">
                <ele>141.0</ele>
                <time>2020-08-28T16:24:11.000Z</time>
                <name>Trackpoint 8602</name>
            </trkpt>
            <trkpt lat="49.7471072" lon="9.5536648">
                <ele>141.0</ele>
                <time>2020-08-28T16:24:13.000Z</time>
                <name>Trackpoint 8603</name>
            </trkpt>
            <trkpt lat="49.7471776" lon="9.5536032">
                <ele>141.0</ele>
                <time>2020-08-28T16:24:15.000Z</time>
                <name>Trackpoint 8604</name>
            </trkpt>
            <trkpt lat="49.7472608" lon="9.5535288">
                <ele>141.0</ele>
                <time>2020-08-28T16:24:17.000Z</time>
                <name>Trackpoint 8605</name>
            </trkpt>
            <trkpt lat="49.7473408" lon="9.5534648">
                <ele>141.0</ele>
                <time>2020-08-28T16:24:19.000Z</time>
                <name>Trackpoint 8606</name>
            </trkpt>
            <trkpt lat="49.7474176" lon="9.5534016">
                <ele>141.0</ele>
                <time>2020-08-28T16:24:21.000Z</time>
                <name>Trackpoint 8607</name>
            </trkpt>
            <trkpt lat="49.7474944" lon="9.5533512">
                <ele>141.0</ele>
                <time>2020-08-28T16:24:23.000Z</time>
                <name>Trackpoint 8608</name>
            </trkpt>
            <trkpt lat="49.7475712" lon="9.553304">
                <ele>141.0</ele>
                <time>2020-08-28T16:24:25.000Z</time>
                <name>Trackpoint 8609</name>
            </trkpt>
            <trkpt lat="49.7476512" lon="9.5532376">
                <ele>141.0</ele>
                <time>2020-08-28T16:24:27.000Z</time>
                <name>Trackpoint 8610</name>
            </trkpt>
            <trkpt lat="49.7477568" lon="9.55318">
                <ele>141.0</ele>
                <time>2020-08-28T16:24:29.000Z</time>
                <name>Trackpoint 8611</name>
            </trkpt>
            <trkpt lat="49.747888" lon="9.5531384">
                <ele>141.0</ele>
                <time>2020-08-28T16:24:31.000Z</time>
                <name>Trackpoint 8612</name>
            </trkpt>
            <trkpt lat="49.7479744" lon="9.5530968">
                <ele>140.0</ele>
                <time>2020-08-28T16:24:33.000Z</time>
                <name>Trackpoint 8613</name>
            </trkpt>
            <trkpt lat="49.7480672" lon="9.5530504">
                <ele>140.0</ele>
                <time>2020-08-28T16:24:35.000Z</time>
                <name>Trackpoint 8614</name>
            </trkpt>
            <trkpt lat="49.74816" lon="9.5530056">
                <ele>140.0</ele>
                <time>2020-08-28T16:24:37.000Z</time>
                <name>Trackpoint 8615</name>
            </trkpt>
            <trkpt lat="49.7482592" lon="9.5529544">
                <ele>140.0</ele>
                <time>2020-08-28T16:24:39.000Z</time>
                <name>Trackpoint 8616</name>
            </trkpt>
            <trkpt lat="49.7483648" lon="9.5529">
                <ele>140.0</ele>
                <time>2020-08-28T16:24:41.000Z</time>
                <name>Trackpoint 8617</name>
            </trkpt>
            <trkpt lat="49.7484544" lon="9.5528584">
                <ele>140.0</ele>
                <time>2020-08-28T16:24:43.000Z</time>
                <name>Trackpoint 8618</name>
            </trkpt>
            <trkpt lat="49.7485568" lon="9.5528088">
                <ele>140.0</ele>
                <time>2020-08-28T16:24:46.000Z</time>
                <name>Trackpoint 8619</name>
            </trkpt>
            <trkpt lat="49.7486752" lon="9.5527552">
                <ele>140.0</ele>
                <time>2020-08-28T16:24:49.000Z</time>
                <name>Trackpoint 8620</name>
            </trkpt>
            <trkpt lat="49.7487968" lon="9.5527">
                <ele>140.0</ele>
                <time>2020-08-28T16:24:52.000Z</time>
                <name>Trackpoint 8621</name>
            </trkpt>
            <trkpt lat="49.7489152" lon="9.552664">
                <ele>140.0</ele>
                <time>2020-08-28T16:24:55.000Z</time>
                <name>Trackpoint 8622</name>
            </trkpt>
            <trkpt lat="49.749024" lon="9.552644">
                <ele>140.0</ele>
                <time>2020-08-28T16:24:58.000Z</time>
                <name>Trackpoint 8623</name>
            </trkpt>
            <trkpt lat="49.74912" lon="9.5526368">
                <ele>140.0</ele>
                <time>2020-08-28T16:25:30.000Z</time>
                <name>Trackpoint 8624</name>
            </trkpt>
            <trkpt lat="49.7492096" lon="9.552604">
                <ele>140.0</ele>
                <time>2020-08-28T16:25:47.000Z</time>
                <name>Trackpoint 8625</name>
            </trkpt>
            <trkpt lat="49.7493248" lon="9.5525776">
                <ele>140.0</ele>
                <time>2020-08-28T16:25:52.000Z</time>
                <name>Trackpoint 8626</name>
            </trkpt>
            <trkpt lat="49.7494304" lon="9.5525368">
                <ele>140.0</ele>
                <time>2020-08-28T16:25:55.000Z</time>
                <name>Trackpoint 8627</name>
            </trkpt>
            <trkpt lat="49.7495488" lon="9.5525016">
                <ele>140.0</ele>
                <time>2020-08-28T16:25:58.000Z</time>
                <name>Trackpoint 8628</name>
            </trkpt>
            <trkpt lat="49.7496384" lon="9.5524784">
                <ele>140.0</ele>
                <time>2020-08-28T16:26:00.000Z</time>
                <name>Trackpoint 8629</name>
            </trkpt>
            <trkpt lat="49.7497376" lon="9.552452">
                <ele>140.0</ele>
                <time>2020-08-28T16:26:02.000Z</time>
                <name>Trackpoint 8630</name>
            </trkpt>
            <trkpt lat="49.7498368" lon="9.552428">
                <ele>140.0</ele>
                <time>2020-08-28T16:26:04.000Z</time>
                <name>Trackpoint 8631</name>
            </trkpt>
            <trkpt lat="49.7499328" lon="9.5524064">
                <ele>140.0</ele>
                <time>2020-08-28T16:26:06.000Z</time>
                <name>Trackpoint 8632</name>
            </trkpt>
            <trkpt lat="49.750032" lon="9.552388">
                <ele>140.0</ele>
                <time>2020-08-28T16:26:08.000Z</time>
                <name>Trackpoint 8633</name>
            </trkpt>
            <trkpt lat="49.7501312" lon="9.5523584">
                <ele>140.0</ele>
                <time>2020-08-28T16:26:10.000Z</time>
                <name>Trackpoint 8634</name>
            </trkpt>
            <trkpt lat="49.7502304" lon="9.552328">
                <ele>140.0</ele>
                <time>2020-08-28T16:26:12.000Z</time>
                <name>Trackpoint 8635</name>
            </trkpt>
            <trkpt lat="49.7503328" lon="9.552312">
                <ele>140.0</ele>
                <time>2020-08-28T16:26:14.000Z</time>
                <name>Trackpoint 8636</name>
            </trkpt>
            <trkpt lat="49.7504288" lon="9.5522896">
                <ele>140.0</ele>
                <time>2020-08-28T16:26:16.000Z</time>
                <name>Trackpoint 8637</name>
            </trkpt>
            <trkpt lat="49.7505312" lon="9.552272">
                <ele>140.0</ele>
                <time>2020-08-28T16:26:18.000Z</time>
                <name>Trackpoint 8638</name>
            </trkpt>
            <trkpt lat="49.7506336" lon="9.5522536">
                <ele>140.0</ele>
                <time>2020-08-28T16:26:20.000Z</time>
                <name>Trackpoint 8639</name>
            </trkpt>
            <trkpt lat="49.750736" lon="9.5522432">
                <ele>140.0</ele>
                <time>2020-08-28T16:26:22.000Z</time>
                <name>Trackpoint 8640</name>
            </trkpt>
            <trkpt lat="49.7508416" lon="9.5522296">
                <ele>140.0</ele>
                <time>2020-08-28T16:26:24.000Z</time>
                <name>Trackpoint 8641</name>
            </trkpt>
            <trkpt lat="49.7509408" lon="9.5522072">
                <ele>140.0</ele>
                <time>2020-08-28T16:26:26.000Z</time>
                <name>Trackpoint 8642</name>
            </trkpt>
            <trkpt lat="49.7510464" lon="9.5521848">
                <ele>140.0</ele>
                <time>2020-08-28T16:26:28.000Z</time>
                <name>Trackpoint 8643</name>
            </trkpt>
            <trkpt lat="49.751152" lon="9.55216">
                <ele>140.0</ele>
                <time>2020-08-28T16:26:30.000Z</time>
                <name>Trackpoint 8644</name>
            </trkpt>
            <trkpt lat="49.7512576" lon="9.5521448">
                <ele>140.0</ele>
                <time>2020-08-28T16:26:32.000Z</time>
                <name>Trackpoint 8645</name>
            </trkpt>
            <trkpt lat="49.7513696" lon="9.5521248">
                <ele>140.0</ele>
                <time>2020-08-28T16:26:34.000Z</time>
                <name>Trackpoint 8646</name>
            </trkpt>
            <trkpt lat="49.7514816" lon="9.5521072">
                <ele>140.0</ele>
                <time>2020-08-28T16:26:36.000Z</time>
                <name>Trackpoint 8647</name>
            </trkpt>
            <trkpt lat="49.7515872" lon="9.5520784">
                <ele>140.0</ele>
                <time>2020-08-28T16:26:38.000Z</time>
                <name>Trackpoint 8648</name>
            </trkpt>
            <trkpt lat="49.7516928" lon="9.5520536">
                <ele>140.0</ele>
                <time>2020-08-28T16:26:40.000Z</time>
                <name>Trackpoint 8649</name>
            </trkpt>
            <trkpt lat="49.7518048" lon="9.55202">
                <ele>140.0</ele>
                <time>2020-08-28T16:26:42.000Z</time>
                <name>Trackpoint 8650</name>
            </trkpt>
            <trkpt lat="49.7519104" lon="9.5519936">
                <ele>140.0</ele>
                <time>2020-08-28T16:26:44.000Z</time>
                <name>Trackpoint 8651</name>
            </trkpt>
            <trkpt lat="49.7520128" lon="9.5519568">
                <ele>140.0</ele>
                <time>2020-08-28T16:26:46.000Z</time>
                <name>Trackpoint 8652</name>
            </trkpt>
            <trkpt lat="49.7521184" lon="9.5519304">
                <ele>140.0</ele>
                <time>2020-08-28T16:26:48.000Z</time>
                <name>Trackpoint 8653</name>
            </trkpt>
            <trkpt lat="49.752224" lon="9.5519064">
                <ele>140.0</ele>
                <time>2020-08-28T16:26:50.000Z</time>
                <name>Trackpoint 8654</name>
            </trkpt>
            <trkpt lat="49.7523264" lon="9.551864">
                <ele>140.0</ele>
                <time>2020-08-28T16:26:52.000Z</time>
                <name>Trackpoint 8655</name>
            </trkpt>
            <trkpt lat="49.7524224" lon="9.551828">
                <ele>140.0</ele>
                <time>2020-08-28T16:26:54.000Z</time>
                <name>Trackpoint 8656</name>
            </trkpt>
            <trkpt lat="49.7525216" lon="9.5517912">
                <ele>140.0</ele>
                <time>2020-08-28T16:26:56.000Z</time>
                <name>Trackpoint 8657</name>
            </trkpt>
            <trkpt lat="49.7526176" lon="9.5517504">
                <ele>140.0</ele>
                <time>2020-08-28T16:26:58.000Z</time>
                <name>Trackpoint 8658</name>
            </trkpt>
            <trkpt lat="49.7527072" lon="9.551712">
                <ele>140.0</ele>
                <time>2020-08-28T16:27:00.000Z</time>
                <name>Trackpoint 8659</name>
            </trkpt>
            <trkpt lat="49.7528064" lon="9.5516752">
                <ele>140.0</ele>
                <time>2020-08-28T16:27:02.000Z</time>
                <name>Trackpoint 8660</name>
            </trkpt>
            <trkpt lat="49.752912" lon="9.5516256">
                <ele>140.0</ele>
                <time>2020-08-28T16:27:04.000Z</time>
                <name>Trackpoint 8661</name>
            </trkpt>
            <trkpt lat="49.7530112" lon="9.551592">
                <ele>140.0</ele>
                <time>2020-08-28T16:27:06.000Z</time>
                <name>Trackpoint 8662</name>
            </trkpt>
            <trkpt lat="49.7531136" lon="9.5515608">
                <ele>141.0</ele>
                <time>2020-08-28T16:27:08.000Z</time>
                <name>Trackpoint 8663</name>
            </trkpt>
            <trkpt lat="49.7532192" lon="9.5515296">
                <ele>140.0</ele>
                <time>2020-08-28T16:27:10.000Z</time>
                <name>Trackpoint 8664</name>
            </trkpt>
            <trkpt lat="49.7533184" lon="9.5515168">
                <ele>141.0</ele>
                <time>2020-08-28T16:27:12.000Z</time>
                <name>Trackpoint 8665</name>
            </trkpt>
            <trkpt lat="49.7534304" lon="9.551488">
                <ele>141.0</ele>
                <time>2020-08-28T16:27:14.000Z</time>
                <name>Trackpoint 8666</name>
            </trkpt>
            <trkpt lat="49.7535328" lon="9.551448">
                <ele>141.0</ele>
                <time>2020-08-28T16:27:16.000Z</time>
                <name>Trackpoint 8667</name>
            </trkpt>
            <trkpt lat="49.7536224" lon="9.5513984">
                <ele>140.0</ele>
                <time>2020-08-28T16:27:18.000Z</time>
                <name>Trackpoint 8668</name>
            </trkpt>
            <trkpt lat="49.7537312" lon="9.5513536">
                <ele>141.0</ele>
                <time>2020-08-28T16:27:20.000Z</time>
                <name>Trackpoint 8669</name>
            </trkpt>
            <trkpt lat="49.75384" lon="9.5513112">
                <ele>141.0</ele>
                <time>2020-08-28T16:27:22.000Z</time>
                <name>Trackpoint 8670</name>
            </trkpt>
            <trkpt lat="49.753952" lon="9.5512712">
                <ele>141.0</ele>
                <time>2020-08-28T16:27:24.000Z</time>
                <name>Trackpoint 8671</name>
            </trkpt>
            <trkpt lat="49.754064" lon="9.5512312">
                <ele>141.0</ele>
                <time>2020-08-28T16:27:26.000Z</time>
                <name>Trackpoint 8672</name>
            </trkpt>
            <trkpt lat="49.7541696" lon="9.5511904">
                <ele>141.0</ele>
                <time>2020-08-28T16:27:28.000Z</time>
                <name>Trackpoint 8673</name>
            </trkpt>
            <trkpt lat="49.7542816" lon="9.5511512">
                <ele>141.0</ele>
                <time>2020-08-28T16:27:30.000Z</time>
                <name>Trackpoint 8674</name>
            </trkpt>
            <trkpt lat="49.7543744" lon="9.5511112">
                <ele>141.0</ele>
                <time>2020-08-28T16:27:32.000Z</time>
                <name>Trackpoint 8675</name>
            </trkpt>
            <trkpt lat="49.7544704" lon="9.55108">
                <ele>141.0</ele>
                <time>2020-08-28T16:27:34.000Z</time>
                <name>Trackpoint 8676</name>
            </trkpt>
            <trkpt lat="49.7545696" lon="9.5510752">
                <ele>140.0</ele>
                <time>2020-08-28T16:27:36.000Z</time>
                <name>Trackpoint 8677</name>
            </trkpt>
            <trkpt lat="49.7546848" lon="9.5511168">
                <ele>140.0</ele>
                <time>2020-08-28T16:27:38.000Z</time>
                <name>Trackpoint 8678</name>
            </trkpt>
            <trkpt lat="49.7547904" lon="9.5512152">
                <ele>140.0</ele>
                <time>2020-08-28T16:27:40.000Z</time>
                <name>Trackpoint 8679</name>
            </trkpt>
            <trkpt lat="49.7549024" lon="9.5512688">
                <ele>140.0</ele>
                <time>2020-08-28T16:27:42.000Z</time>
                <name>Trackpoint 8680</name>
            </trkpt>
            <trkpt lat="49.7550176" lon="9.5513096">
                <ele>140.0</ele>
                <time>2020-08-28T16:27:44.000Z</time>
                <name>Trackpoint 8681</name>
            </trkpt>
            <trkpt lat="49.7551264" lon="9.551316">
                <ele>140.0</ele>
                <time>2020-08-28T16:27:46.000Z</time>
                <name>Trackpoint 8682</name>
            </trkpt>
            <trkpt lat="49.7552384" lon="9.5513088">
                <ele>140.0</ele>
                <time>2020-08-28T16:27:48.000Z</time>
                <name>Trackpoint 8683</name>
            </trkpt>
            <trkpt lat="49.7553344" lon="9.5512288">
                <ele>140.0</ele>
                <time>2020-08-28T16:27:50.000Z</time>
                <name>Trackpoint 8684</name>
            </trkpt>
            <trkpt lat="49.7553824" lon="9.5510816">
                <ele>139.0</ele>
                <time>2020-08-28T16:27:52.000Z</time>
                <name>Trackpoint 8685</name>
            </trkpt>
            <trkpt lat="49.7553984" lon="9.5509784">
                <ele>139.0</ele>
                <time>2020-08-28T16:27:54.000Z</time>
                <name>Trackpoint 8686</name>
            </trkpt>
            <trkpt lat="49.7554944" lon="9.5508696">
                <ele>139.0</ele>
                <time>2020-08-28T16:27:57.000Z</time>
                <name>Trackpoint 8687</name>
            </trkpt>
            <trkpt lat="49.7555872" lon="9.5508">
                <ele>139.0</ele>
                <time>2020-08-28T16:27:59.000Z</time>
                <name>Trackpoint 8688</name>
            </trkpt>
            <trkpt lat="49.7556928" lon="9.5507352">
                <ele>139.0</ele>
                <time>2020-08-28T16:28:01.000Z</time>
                <name>Trackpoint 8689</name>
            </trkpt>
            <trkpt lat="49.7557856" lon="9.550692">
                <ele>139.0</ele>
                <time>2020-08-28T16:28:03.000Z</time>
                <name>Trackpoint 8690</name>
            </trkpt>
            <trkpt lat="49.7559104" lon="9.5506432">
                <ele>139.0</ele>
                <time>2020-08-28T16:28:05.000Z</time>
                <name>Trackpoint 8691</name>
            </trkpt>
            <trkpt lat="49.7560352" lon="9.5506112">
                <ele>139.0</ele>
                <time>2020-08-28T16:28:07.000Z</time>
                <name>Trackpoint 8692</name>
            </trkpt>
            <trkpt lat="49.7561568" lon="9.5505752">
                <ele>139.0</ele>
                <time>2020-08-28T16:28:09.000Z</time>
                <name>Trackpoint 8693</name>
            </trkpt>
            <trkpt lat="49.756288" lon="9.5505504">
                <ele>139.0</ele>
                <time>2020-08-28T16:28:11.000Z</time>
                <name>Trackpoint 8694</name>
            </trkpt>
            <trkpt lat="49.7563968" lon="9.5505336">
                <ele>139.0</ele>
                <time>2020-08-28T16:28:13.000Z</time>
                <name>Trackpoint 8695</name>
            </trkpt>
            <trkpt lat="49.7565088" lon="9.5505104">
                <ele>139.0</ele>
                <time>2020-08-28T16:28:15.000Z</time>
                <name>Trackpoint 8696</name>
            </trkpt>
            <trkpt lat="49.7566048" lon="9.5504736">
                <ele>139.0</ele>
                <time>2020-08-28T16:28:17.000Z</time>
                <name>Trackpoint 8697</name>
            </trkpt>
            <trkpt lat="49.7566944" lon="9.5504328">
                <ele>139.0</ele>
                <time>2020-08-28T16:28:19.000Z</time>
                <name>Trackpoint 8698</name>
            </trkpt>
            <trkpt lat="49.756784" lon="9.5504176">
                <ele>138.0</ele>
                <time>2020-08-28T16:28:21.000Z</time>
                <name>Trackpoint 8699</name>
            </trkpt>
            <trkpt lat="49.7569152" lon="9.5503912">
                <ele>138.0</ele>
                <time>2020-08-28T16:28:24.000Z</time>
                <name>Trackpoint 8700</name>
            </trkpt>
            <trkpt lat="49.7570144" lon="9.5503632">
                <ele>138.0</ele>
                <time>2020-08-28T16:28:26.000Z</time>
                <name>Trackpoint 8701</name>
            </trkpt>
            <trkpt lat="49.7571168" lon="9.5503384">
                <ele>139.0</ele>
                <time>2020-08-28T16:28:28.000Z</time>
                <name>Trackpoint 8702</name>
            </trkpt>
            <trkpt lat="49.757216" lon="9.550312">
                <ele>139.0</ele>
                <time>2020-08-28T16:28:30.000Z</time>
                <name>Trackpoint 8703</name>
            </trkpt>
            <trkpt lat="49.7573216" lon="9.550288">
                <ele>139.0</ele>
                <time>2020-08-28T16:28:32.000Z</time>
                <name>Trackpoint 8704</name>
            </trkpt>
            <trkpt lat="49.7574304" lon="9.5502616">
                <ele>140.0</ele>
                <time>2020-08-28T16:28:34.000Z</time>
                <name>Trackpoint 8705</name>
            </trkpt>
            <trkpt lat="49.7575424" lon="9.5502328">
                <ele>140.0</ele>
                <time>2020-08-28T16:28:36.000Z</time>
                <name>Trackpoint 8706</name>
            </trkpt>
            <trkpt lat="49.757648" lon="9.550208">
                <ele>140.0</ele>
                <time>2020-08-28T16:28:38.000Z</time>
                <name>Trackpoint 8707</name>
            </trkpt>
            <trkpt lat="49.7577664" lon="9.5501784">
                <ele>140.0</ele>
                <time>2020-08-28T16:28:40.000Z</time>
                <name>Trackpoint 8708</name>
            </trkpt>
            <trkpt lat="49.7578816" lon="9.5501536">
                <ele>139.0</ele>
                <time>2020-08-28T16:28:42.000Z</time>
                <name>Trackpoint 8709</name>
            </trkpt>
            <trkpt lat="49.7579968" lon="9.550108">
                <ele>138.0</ele>
                <time>2020-08-28T16:28:44.000Z</time>
                <name>Trackpoint 8710</name>
            </trkpt>
            <trkpt lat="49.7581088" lon="9.5500672">
                <ele>139.0</ele>
                <time>2020-08-28T16:28:46.000Z</time>
                <name>Trackpoint 8711</name>
            </trkpt>
            <trkpt lat="49.7582208" lon="9.5500248">
                <ele>138.0</ele>
                <time>2020-08-28T16:28:48.000Z</time>
                <name>Trackpoint 8712</name>
            </trkpt>
            <trkpt lat="49.7583264" lon="9.549976">
                <ele>139.0</ele>
                <time>2020-08-28T16:28:50.000Z</time>
                <name>Trackpoint 8713</name>
            </trkpt>
            <trkpt lat="49.758432" lon="9.5499248">
                <ele>138.0</ele>
                <time>2020-08-28T16:28:52.000Z</time>
                <name>Trackpoint 8714</name>
            </trkpt>
            <trkpt lat="49.7585344" lon="9.5498832">
                <ele>138.0</ele>
                <time>2020-08-28T16:28:54.000Z</time>
                <name>Trackpoint 8715</name>
            </trkpt>
            <trkpt lat="49.7586368" lon="9.5498488">
                <ele>138.0</ele>
                <time>2020-08-28T16:28:56.000Z</time>
                <name>Trackpoint 8716</name>
            </trkpt>
            <trkpt lat="49.7587392" lon="9.5498">
                <ele>139.0</ele>
                <time>2020-08-28T16:28:58.000Z</time>
                <name>Trackpoint 8717</name>
            </trkpt>
            <trkpt lat="49.7588512" lon="9.5497312">
                <ele>139.0</ele>
                <time>2020-08-28T16:29:00.000Z</time>
                <name>Trackpoint 8718</name>
            </trkpt>
            <trkpt lat="49.7589504" lon="9.5496752">
                <ele>139.0</ele>
                <time>2020-08-28T16:29:02.000Z</time>
                <name>Trackpoint 8719</name>
            </trkpt>
            <trkpt lat="49.7590336" lon="9.5496328">
                <ele>140.0</ele>
                <time>2020-08-28T16:29:04.000Z</time>
                <name>Trackpoint 8720</name>
            </trkpt>
            <trkpt lat="49.7591424" lon="9.5496568">
                <ele>140.0</ele>
                <time>2020-08-28T16:29:07.000Z</time>
                <name>Trackpoint 8721</name>
            </trkpt>
            <trkpt lat="49.7592544" lon="9.549632">
                <ele>140.0</ele>
                <time>2020-08-28T16:29:10.000Z</time>
                <name>Trackpoint 8722</name>
            </trkpt>
            <trkpt lat="49.7593312" lon="9.5495216">
                <ele>140.0</ele>
                <time>2020-08-28T16:29:13.000Z</time>
                <name>Trackpoint 8723</name>
            </trkpt>
            <trkpt lat="49.7593664" lon="9.5494336">
                <ele>139.0</ele>
                <time>2020-08-28T16:29:15.000Z</time>
                <name>Trackpoint 8724</name>
            </trkpt>
            <trkpt lat="49.7594208" lon="9.54932">
                <ele>139.0</ele>
                <time>2020-08-28T16:29:17.000Z</time>
                <name>Trackpoint 8725</name>
            </trkpt>
            <trkpt lat="49.7595136" lon="9.54922">
                <ele>139.0</ele>
                <time>2020-08-28T16:29:19.000Z</time>
                <name>Trackpoint 8726</name>
            </trkpt>
            <trkpt lat="49.7596192" lon="9.5491512">
                <ele>139.0</ele>
                <time>2020-08-28T16:29:21.000Z</time>
                <name>Trackpoint 8727</name>
            </trkpt>
            <trkpt lat="49.7597248" lon="9.5490888">
                <ele>139.0</ele>
                <time>2020-08-28T16:29:23.000Z</time>
                <name>Trackpoint 8728</name>
            </trkpt>
            <trkpt lat="49.759824" lon="9.5490168">
                <ele>139.0</ele>
                <time>2020-08-28T16:29:25.000Z</time>
                <name>Trackpoint 8729</name>
            </trkpt>
            <trkpt lat="49.7599168" lon="9.5489368">
                <ele>139.0</ele>
                <time>2020-08-28T16:29:27.000Z</time>
                <name>Trackpoint 8730</name>
            </trkpt>
            <trkpt lat="49.7600032" lon="9.5488384">
                <ele>139.0</ele>
                <time>2020-08-28T16:29:29.000Z</time>
                <name>Trackpoint 8731</name>
            </trkpt>
            <trkpt lat="49.7600736" lon="9.5487432">
                <ele>139.0</ele>
                <time>2020-08-28T16:29:31.000Z</time>
                <name>Trackpoint 8732</name>
            </trkpt>
            <trkpt lat="49.7601472" lon="9.5486568">
                <ele>140.0</ele>
                <time>2020-08-28T16:29:33.000Z</time>
                <name>Trackpoint 8733</name>
            </trkpt>
            <trkpt lat="49.7602336" lon="9.5485784">
                <ele>140.0</ele>
                <time>2020-08-28T16:29:35.000Z</time>
                <name>Trackpoint 8734</name>
            </trkpt>
            <trkpt lat="49.7603296" lon="9.5485064">
                <ele>140.0</ele>
                <time>2020-08-28T16:29:37.000Z</time>
                <name>Trackpoint 8735</name>
            </trkpt>
            <trkpt lat="49.7604224" lon="9.5484336">
                <ele>140.0</ele>
                <time>2020-08-28T16:29:39.000Z</time>
                <name>Trackpoint 8736</name>
            </trkpt>
            <trkpt lat="49.7605088" lon="9.5483552">
                <ele>141.0</ele>
                <time>2020-08-28T16:29:41.000Z</time>
                <name>Trackpoint 8737</name>
            </trkpt>
            <trkpt lat="49.7605984" lon="9.54828">
                <ele>140.0</ele>
                <time>2020-08-28T16:29:43.000Z</time>
                <name>Trackpoint 8738</name>
            </trkpt>
            <trkpt lat="49.760688" lon="9.5482">
                <ele>141.0</ele>
                <time>2020-08-28T16:29:45.000Z</time>
                <name>Trackpoint 8739</name>
            </trkpt>
            <trkpt lat="49.760784" lon="9.5481192">
                <ele>141.0</ele>
                <time>2020-08-28T16:29:47.000Z</time>
                <name>Trackpoint 8740</name>
            </trkpt>
            <trkpt lat="49.7608704" lon="9.54804">
                <ele>142.0</ele>
                <time>2020-08-28T16:29:49.000Z</time>
                <name>Trackpoint 8741</name>
            </trkpt>
            <trkpt lat="49.7609632" lon="9.5479584">
                <ele>143.0</ele>
                <time>2020-08-28T16:29:51.000Z</time>
                <name>Trackpoint 8742</name>
            </trkpt>
            <trkpt lat="49.761056" lon="9.547876">
                <ele>143.0</ele>
                <time>2020-08-28T16:29:53.000Z</time>
                <name>Trackpoint 8743</name>
            </trkpt>
            <trkpt lat="49.7611456" lon="9.5478">
                <ele>143.0</ele>
                <time>2020-08-28T16:29:55.000Z</time>
                <name>Trackpoint 8744</name>
            </trkpt>
            <trkpt lat="49.7612224" lon="9.54772">
                <ele>144.0</ele>
                <time>2020-08-28T16:29:57.000Z</time>
                <name>Trackpoint 8745</name>
            </trkpt>
            <trkpt lat="49.7613152" lon="9.5476368">
                <ele>144.0</ele>
                <time>2020-08-28T16:29:59.000Z</time>
                <name>Trackpoint 8746</name>
            </trkpt>
            <trkpt lat="49.7614016" lon="9.5475568">
                <ele>144.0</ele>
                <time>2020-08-28T16:30:01.000Z</time>
                <name>Trackpoint 8747</name>
            </trkpt>
            <trkpt lat="49.7614976" lon="9.5474784">
                <ele>144.0</ele>
                <time>2020-08-28T16:30:03.000Z</time>
                <name>Trackpoint 8748</name>
            </trkpt>
            <trkpt lat="49.761584" lon="9.5473944">
                <ele>143.0</ele>
                <time>2020-08-28T16:30:05.000Z</time>
                <name>Trackpoint 8749</name>
            </trkpt>
            <trkpt lat="49.7616768" lon="9.5473144">
                <ele>144.0</ele>
                <time>2020-08-28T16:30:07.000Z</time>
                <name>Trackpoint 8750</name>
            </trkpt>
            <trkpt lat="49.7617696" lon="9.547232">
                <ele>144.0</ele>
                <time>2020-08-28T16:30:09.000Z</time>
                <name>Trackpoint 8751</name>
            </trkpt>
            <trkpt lat="49.761856" lon="9.5471512">
                <ele>144.0</ele>
                <time>2020-08-28T16:30:11.000Z</time>
                <name>Trackpoint 8752</name>
            </trkpt>
            <trkpt lat="49.7619424" lon="9.5470736">
                <ele>144.0</ele>
                <time>2020-08-28T16:30:13.000Z</time>
                <name>Trackpoint 8753</name>
            </trkpt>
            <trkpt lat="49.7620288" lon="9.5469912">
                <ele>144.0</ele>
                <time>2020-08-28T16:30:15.000Z</time>
                <name>Trackpoint 8754</name>
            </trkpt>
            <trkpt lat="49.7621056" lon="9.5469248">
                <ele>144.0</ele>
                <time>2020-08-28T16:30:17.000Z</time>
                <name>Trackpoint 8755</name>
            </trkpt>
            <trkpt lat="49.762176" lon="9.5468656">
                <ele>144.0</ele>
                <time>2020-08-28T16:30:19.000Z</time>
                <name>Trackpoint 8756</name>
            </trkpt>
            <trkpt lat="49.7622496" lon="9.5467952">
                <ele>144.0</ele>
                <time>2020-08-28T16:30:21.000Z</time>
                <name>Trackpoint 8757</name>
            </trkpt>
            <trkpt lat="49.7623136" lon="9.546728">
                <ele>144.0</ele>
                <time>2020-08-28T16:30:23.000Z</time>
                <name>Trackpoint 8758</name>
            </trkpt>
            <trkpt lat="49.7624192" lon="9.5466616">
                <ele>144.0</ele>
                <time>2020-08-28T16:30:26.000Z</time>
                <name>Trackpoint 8759</name>
            </trkpt>
            <trkpt lat="49.7625088" lon="9.546628">
                <ele>144.0</ele>
                <time>2020-08-28T16:30:28.000Z</time>
                <name>Trackpoint 8760</name>
            </trkpt>
            <trkpt lat="49.7625952" lon="9.5465896">
                <ele>144.0</ele>
                <time>2020-08-28T16:30:30.000Z</time>
                <name>Trackpoint 8761</name>
            </trkpt>
            <trkpt lat="49.762688" lon="9.5465032">
                <ele>144.0</ele>
                <time>2020-08-28T16:30:32.000Z</time>
                <name>Trackpoint 8762</name>
            </trkpt>
            <trkpt lat="49.7627712" lon="9.546416">
                <ele>144.0</ele>
                <time>2020-08-28T16:30:34.000Z</time>
                <name>Trackpoint 8763</name>
            </trkpt>
            <trkpt lat="49.7628512" lon="9.5463416">
                <ele>144.0</ele>
                <time>2020-08-28T16:30:36.000Z</time>
                <name>Trackpoint 8764</name>
            </trkpt>
            <trkpt lat="49.7629248" lon="9.5462736">
                <ele>144.0</ele>
                <time>2020-08-28T16:30:38.000Z</time>
                <name>Trackpoint 8765</name>
            </trkpt>
            <trkpt lat="49.7630016" lon="9.546204">
                <ele>144.0</ele>
                <time>2020-08-28T16:30:40.000Z</time>
                <name>Trackpoint 8766</name>
            </trkpt>
            <trkpt lat="49.763072" lon="9.54614">
                <ele>144.0</ele>
                <time>2020-08-28T16:30:42.000Z</time>
                <name>Trackpoint 8767</name>
            </trkpt>
            <trkpt lat="49.7631584" lon="9.5460968">
                <ele>144.0</ele>
                <time>2020-08-28T16:30:45.000Z</time>
                <name>Trackpoint 8768</name>
            </trkpt>
            <trkpt lat="49.7632832" lon="9.54606">
                <ele>144.0</ele>
                <time>2020-08-28T16:30:49.000Z</time>
                <name>Trackpoint 8769</name>
            </trkpt>
            <trkpt lat="49.7633376" lon="9.5459872">
                <ele>143.0</ele>
                <time>2020-08-28T16:30:51.000Z</time>
                <name>Trackpoint 8770</name>
            </trkpt>
            <trkpt lat="49.7633664" lon="9.5458272">
                <ele>143.0</ele>
                <time>2020-08-28T16:30:54.000Z</time>
                <name>Trackpoint 8771</name>
            </trkpt>
            <trkpt lat="49.763408" lon="9.5457152">
                <ele>143.0</ele>
                <time>2020-08-28T16:30:56.000Z</time>
                <name>Trackpoint 8772</name>
            </trkpt>
            <trkpt lat="49.7634688" lon="9.5456384">
                <ele>143.0</ele>
                <time>2020-08-28T16:30:58.000Z</time>
                <name>Trackpoint 8773</name>
            </trkpt>
            <trkpt lat="49.7635488" lon="9.5455704">
                <ele>143.0</ele>
                <time>2020-08-28T16:31:00.000Z</time>
                <name>Trackpoint 8774</name>
            </trkpt>
            <trkpt lat="49.7636224" lon="9.5455016">
                <ele>143.0</ele>
                <time>2020-08-28T16:31:02.000Z</time>
                <name>Trackpoint 8775</name>
            </trkpt>
            <trkpt lat="49.7637056" lon="9.5454304">
                <ele>143.0</ele>
                <time>2020-08-28T16:31:04.000Z</time>
                <name>Trackpoint 8776</name>
            </trkpt>
            <trkpt lat="49.7637824" lon="9.545348">
                <ele>143.0</ele>
                <time>2020-08-28T16:31:06.000Z</time>
                <name>Trackpoint 8777</name>
            </trkpt>
            <trkpt lat="49.763856" lon="9.545252">
                <ele>143.0</ele>
                <time>2020-08-28T16:31:08.000Z</time>
                <name>Trackpoint 8778</name>
            </trkpt>
            <trkpt lat="49.763936" lon="9.545168">
                <ele>143.0</ele>
                <time>2020-08-28T16:31:10.000Z</time>
                <name>Trackpoint 8779</name>
            </trkpt>
            <trkpt lat="49.7640064" lon="9.545076">
                <ele>143.0</ele>
                <time>2020-08-28T16:31:12.000Z</time>
                <name>Trackpoint 8780</name>
            </trkpt>
            <trkpt lat="49.76408" lon="9.5449784">
                <ele>143.0</ele>
                <time>2020-08-28T16:31:14.000Z</time>
                <name>Trackpoint 8781</name>
            </trkpt>
            <trkpt lat="49.7641536" lon="9.5448736">
                <ele>143.0</ele>
                <time>2020-08-28T16:31:16.000Z</time>
                <name>Trackpoint 8782</name>
            </trkpt>
            <trkpt lat="49.764224" lon="9.5447632">
                <ele>143.0</ele>
                <time>2020-08-28T16:31:18.000Z</time>
                <name>Trackpoint 8783</name>
            </trkpt>
            <trkpt lat="49.7642976" lon="9.544632">
                <ele>143.0</ele>
                <time>2020-08-28T16:31:20.000Z</time>
                <name>Trackpoint 8784</name>
            </trkpt>
            <trkpt lat="49.7643584" lon="9.5444944">
                <ele>143.0</ele>
                <time>2020-08-28T16:31:22.000Z</time>
                <name>Trackpoint 8785</name>
            </trkpt>
            <trkpt lat="49.7644192" lon="9.5443632">
                <ele>142.0</ele>
                <time>2020-08-28T16:31:24.000Z</time>
                <name>Trackpoint 8786</name>
            </trkpt>
            <trkpt lat="49.7644736" lon="9.5442352">
                <ele>142.0</ele>
                <time>2020-08-28T16:31:26.000Z</time>
                <name>Trackpoint 8787</name>
            </trkpt>
            <trkpt lat="49.7645248" lon="9.5440968">
                <ele>142.0</ele>
                <time>2020-08-28T16:31:28.000Z</time>
                <name>Trackpoint 8788</name>
            </trkpt>
            <trkpt lat="49.7645728" lon="9.5439568">
                <ele>142.0</ele>
                <time>2020-08-28T16:31:30.000Z</time>
                <name>Trackpoint 8789</name>
            </trkpt>
            <trkpt lat="49.7646208" lon="9.543812">
                <ele>142.0</ele>
                <time>2020-08-28T16:31:32.000Z</time>
                <name>Trackpoint 8790</name>
            </trkpt>
            <trkpt lat="49.7646624" lon="9.5436672">
                <ele>142.0</ele>
                <time>2020-08-28T16:31:34.000Z</time>
                <name>Trackpoint 8791</name>
            </trkpt>
            <trkpt lat="49.7647072" lon="9.5435264">
                <ele>141.0</ele>
                <time>2020-08-28T16:31:36.000Z</time>
                <name>Trackpoint 8792</name>
            </trkpt>
            <trkpt lat="49.7647488" lon="9.54338">
                <ele>142.0</ele>
                <time>2020-08-28T16:31:38.000Z</time>
                <name>Trackpoint 8793</name>
            </trkpt>
            <trkpt lat="49.7647872" lon="9.543228">
                <ele>143.0</ele>
                <time>2020-08-28T16:31:40.000Z</time>
                <name>Trackpoint 8794</name>
            </trkpt>
            <trkpt lat="49.7648128" lon="9.5430784">
                <ele>144.0</ele>
                <time>2020-08-28T16:31:42.000Z</time>
                <name>Trackpoint 8795</name>
            </trkpt>
            <trkpt lat="49.764848" lon="9.5429232">
                <ele>143.0</ele>
                <time>2020-08-28T16:31:44.000Z</time>
                <name>Trackpoint 8796</name>
            </trkpt>
            <trkpt lat="49.7648928" lon="9.5427784">
                <ele>143.0</ele>
                <time>2020-08-28T16:31:46.000Z</time>
                <name>Trackpoint 8797</name>
            </trkpt>
            <trkpt lat="49.764928" lon="9.5426264">
                <ele>143.0</ele>
                <time>2020-08-28T16:31:48.000Z</time>
                <name>Trackpoint 8798</name>
            </trkpt>
            <trkpt lat="49.7649664" lon="9.5424784">
                <ele>144.0</ele>
                <time>2020-08-28T16:31:50.000Z</time>
                <name>Trackpoint 8799</name>
            </trkpt>
            <trkpt lat="49.7650208" lon="9.5423472">
                <ele>145.0</ele>
                <time>2020-08-28T16:31:52.000Z</time>
                <name>Trackpoint 8800</name>
            </trkpt>
            <trkpt lat="49.7650848" lon="9.542216">
                <ele>146.0</ele>
                <time>2020-08-28T16:31:54.000Z</time>
                <name>Trackpoint 8801</name>
            </trkpt>
            <trkpt lat="49.7651328" lon="9.5420576">
                <ele>145.0</ele>
                <time>2020-08-28T16:31:56.000Z</time>
                <name>Trackpoint 8802</name>
            </trkpt>
            <trkpt lat="49.7651904" lon="9.541908">
                <ele>145.0</ele>
                <time>2020-08-28T16:31:58.000Z</time>
                <name>Trackpoint 8803</name>
            </trkpt>
            <trkpt lat="49.765248" lon="9.5417584">
                <ele>144.0</ele>
                <time>2020-08-28T16:32:00.000Z</time>
                <name>Trackpoint 8804</name>
            </trkpt>
            <trkpt lat="49.7653056" lon="9.5416168">
                <ele>142.0</ele>
                <time>2020-08-28T16:32:02.000Z</time>
                <name>Trackpoint 8805</name>
            </trkpt>
            <trkpt lat="49.7653536" lon="9.541476">
                <ele>142.0</ele>
                <time>2020-08-28T16:32:04.000Z</time>
                <name>Trackpoint 8806</name>
            </trkpt>
            <trkpt lat="49.7653984" lon="9.5413368">
                <ele>141.0</ele>
                <time>2020-08-28T16:32:06.000Z</time>
                <name>Trackpoint 8807</name>
            </trkpt>
            <trkpt lat="49.7654368" lon="9.5411968">
                <ele>139.0</ele>
                <time>2020-08-28T16:32:08.000Z</time>
                <name>Trackpoint 8808</name>
            </trkpt>
            <trkpt lat="49.7654816" lon="9.5410632">
                <ele>139.0</ele>
                <time>2020-08-28T16:32:10.000Z</time>
                <name>Trackpoint 8809</name>
            </trkpt>
            <trkpt lat="49.7655168" lon="9.5409232">
                <ele>140.0</ele>
                <time>2020-08-28T16:32:12.000Z</time>
                <name>Trackpoint 8810</name>
            </trkpt>
            <trkpt lat="49.7655648" lon="9.5407912">
                <ele>143.0</ele>
                <time>2020-08-28T16:32:14.000Z</time>
                <name>Trackpoint 8811</name>
            </trkpt>
            <trkpt lat="49.7655968" lon="9.5406464">
                <ele>144.0</ele>
                <time>2020-08-28T16:32:16.000Z</time>
                <name>Trackpoint 8812</name>
            </trkpt>
            <trkpt lat="49.7656416" lon="9.5405016">
                <ele>144.0</ele>
                <time>2020-08-28T16:32:18.000Z</time>
                <name>Trackpoint 8813</name>
            </trkpt>
            <trkpt lat="49.76568" lon="9.5403384">
                <ele>144.0</ele>
                <time>2020-08-28T16:32:20.000Z</time>
                <name>Trackpoint 8814</name>
            </trkpt>
            <trkpt lat="49.7657056" lon="9.5401688">
                <ele>144.0</ele>
                <time>2020-08-28T16:32:22.000Z</time>
                <name>Trackpoint 8815</name>
            </trkpt>
            <trkpt lat="49.765728" lon="9.5399968">
                <ele>144.0</ele>
                <time>2020-08-28T16:32:24.000Z</time>
                <name>Trackpoint 8816</name>
            </trkpt>
            <trkpt lat="49.7657536" lon="9.5398304">
                <ele>144.0</ele>
                <time>2020-08-28T16:32:26.000Z</time>
                <name>Trackpoint 8817</name>
            </trkpt>
            <trkpt lat="49.7657728" lon="9.5396672">
                <ele>144.0</ele>
                <time>2020-08-28T16:32:28.000Z</time>
                <name>Trackpoint 8818</name>
            </trkpt>
            <trkpt lat="49.765792" lon="9.5395048">
                <ele>144.0</ele>
                <time>2020-08-28T16:32:30.000Z</time>
                <name>Trackpoint 8819</name>
            </trkpt>
            <trkpt lat="49.7658016" lon="9.5393448">
                <ele>144.0</ele>
                <time>2020-08-28T16:32:32.000Z</time>
                <name>Trackpoint 8820</name>
            </trkpt>
            <trkpt lat="49.7658016" lon="9.5391952">
                <ele>144.0</ele>
                <time>2020-08-28T16:32:34.000Z</time>
                <name>Trackpoint 8821</name>
            </trkpt>
            <trkpt lat="49.765792" lon="9.5390584">
                <ele>143.0</ele>
                <time>2020-08-28T16:32:36.000Z</time>
                <name>Trackpoint 8822</name>
            </trkpt>
            <trkpt lat="49.7657856" lon="9.5389184">
                <ele>143.0</ele>
                <time>2020-08-28T16:32:38.000Z</time>
                <name>Trackpoint 8823</name>
            </trkpt>
            <trkpt lat="49.7657856" lon="9.5387584">
                <ele>143.0</ele>
                <time>2020-08-28T16:32:40.000Z</time>
                <name>Trackpoint 8824</name>
            </trkpt>
            <trkpt lat="49.7657888" lon="9.5386152">
                <ele>143.0</ele>
                <time>2020-08-28T16:32:42.000Z</time>
                <name>Trackpoint 8825</name>
            </trkpt>
            <trkpt lat="49.7657856" lon="9.5384648">
                <ele>143.0</ele>
                <time>2020-08-28T16:32:44.000Z</time>
                <name>Trackpoint 8826</name>
            </trkpt>
            <trkpt lat="49.765776" lon="9.538328">
                <ele>143.0</ele>
                <time>2020-08-28T16:32:46.000Z</time>
                <name>Trackpoint 8827</name>
            </trkpt>
            <trkpt lat="49.7657728" lon="9.538192">
                <ele>143.0</ele>
                <time>2020-08-28T16:32:48.000Z</time>
                <name>Trackpoint 8828</name>
            </trkpt>
            <trkpt lat="49.76576" lon="9.5380472">
                <ele>143.0</ele>
                <time>2020-08-28T16:32:50.000Z</time>
                <name>Trackpoint 8829</name>
            </trkpt>
            <trkpt lat="49.7657408" lon="9.5378952">
                <ele>143.0</ele>
                <time>2020-08-28T16:32:52.000Z</time>
                <name>Trackpoint 8830</name>
            </trkpt>
            <trkpt lat="49.7657248" lon="9.5377512">
                <ele>143.0</ele>
                <time>2020-08-28T16:32:54.000Z</time>
                <name>Trackpoint 8831</name>
            </trkpt>
            <trkpt lat="49.7657056" lon="9.537612">
                <ele>143.0</ele>
                <time>2020-08-28T16:32:56.000Z</time>
                <name>Trackpoint 8832</name>
            </trkpt>
            <trkpt lat="49.76568" lon="9.53748">
                <ele>143.0</ele>
                <time>2020-08-28T16:32:58.000Z</time>
                <name>Trackpoint 8833</name>
            </trkpt>
            <trkpt lat="49.7656544" lon="9.5373448">
                <ele>144.0</ele>
                <time>2020-08-28T16:33:00.000Z</time>
                <name>Trackpoint 8834</name>
            </trkpt>
            <trkpt lat="49.7656288" lon="9.5372064">
                <ele>144.0</ele>
                <time>2020-08-28T16:33:02.000Z</time>
                <name>Trackpoint 8835</name>
            </trkpt>
            <trkpt lat="49.7655968" lon="9.5370648">
                <ele>144.0</ele>
                <time>2020-08-28T16:33:04.000Z</time>
                <name>Trackpoint 8836</name>
            </trkpt>
            <trkpt lat="49.7655616" lon="9.5369128">
                <ele>144.0</ele>
                <time>2020-08-28T16:33:06.000Z</time>
                <name>Trackpoint 8837</name>
            </trkpt>
            <trkpt lat="49.7655264" lon="9.5367696">
                <ele>144.0</ele>
                <time>2020-08-28T16:33:08.000Z</time>
                <name>Trackpoint 8838</name>
            </trkpt>
            <trkpt lat="49.7654816" lon="9.5366424">
                <ele>143.0</ele>
                <time>2020-08-28T16:33:10.000Z</time>
                <name>Trackpoint 8839</name>
            </trkpt>
            <trkpt lat="49.7654528" lon="9.53652">
                <ele>143.0</ele>
                <time>2020-08-28T16:33:12.000Z</time>
                <name>Trackpoint 8840</name>
            </trkpt>
            <trkpt lat="49.7654048" lon="9.5363928">
                <ele>143.0</ele>
                <time>2020-08-28T16:33:14.000Z</time>
                <name>Trackpoint 8841</name>
            </trkpt>
            <trkpt lat="49.7653728" lon="9.5362816">
                <ele>143.0</ele>
                <time>2020-08-28T16:33:16.000Z</time>
                <name>Trackpoint 8842</name>
            </trkpt>
            <trkpt lat="49.765328" lon="9.5361544">
                <ele>143.0</ele>
                <time>2020-08-28T16:33:18.000Z</time>
                <name>Trackpoint 8843</name>
            </trkpt>
            <trkpt lat="49.7652704" lon="9.5360336">
                <ele>144.0</ele>
                <time>2020-08-28T16:33:20.000Z</time>
                <name>Trackpoint 8844</name>
            </trkpt>
            <trkpt lat="49.7652" lon="9.5358984">
                <ele>144.0</ele>
                <time>2020-08-28T16:33:22.000Z</time>
                <name>Trackpoint 8845</name>
            </trkpt>
            <trkpt lat="49.7651488" lon="9.5357552">
                <ele>144.0</ele>
                <time>2020-08-28T16:33:24.000Z</time>
                <name>Trackpoint 8846</name>
            </trkpt>
            <trkpt lat="49.7650912" lon="9.5356168">
                <ele>144.0</ele>
                <time>2020-08-28T16:33:26.000Z</time>
                <name>Trackpoint 8847</name>
            </trkpt>
            <trkpt lat="49.7650336" lon="9.5355016">
                <ele>145.0</ele>
                <time>2020-08-28T16:33:28.000Z</time>
                <name>Trackpoint 8848</name>
            </trkpt>
            <trkpt lat="49.7649696" lon="9.5353872">
                <ele>144.0</ele>
                <time>2020-08-28T16:33:30.000Z</time>
                <name>Trackpoint 8849</name>
            </trkpt>
            <trkpt lat="49.7648992" lon="9.5352752">
                <ele>144.0</ele>
                <time>2020-08-28T16:33:32.000Z</time>
                <name>Trackpoint 8850</name>
            </trkpt>
            <trkpt lat="49.7648224" lon="9.5351416">
                <ele>144.0</ele>
                <time>2020-08-28T16:33:34.000Z</time>
                <name>Trackpoint 8851</name>
            </trkpt>
            <trkpt lat="49.764752" lon="9.5350264">
                <ele>145.0</ele>
                <time>2020-08-28T16:33:36.000Z</time>
                <name>Trackpoint 8852</name>
            </trkpt>
            <trkpt lat="49.764688" lon="9.5349104">
                <ele>145.0</ele>
                <time>2020-08-28T16:33:38.000Z</time>
                <name>Trackpoint 8853</name>
            </trkpt>
            <trkpt lat="49.7646112" lon="9.5347816">
                <ele>145.0</ele>
                <time>2020-08-28T16:33:40.000Z</time>
                <name>Trackpoint 8854</name>
            </trkpt>
            <trkpt lat="49.7645376" lon="9.5346696">
                <ele>145.0</ele>
                <time>2020-08-28T16:33:42.000Z</time>
                <name>Trackpoint 8855</name>
            </trkpt>
            <trkpt lat="49.7644576" lon="9.5345536">
                <ele>145.0</ele>
                <time>2020-08-28T16:33:44.000Z</time>
                <name>Trackpoint 8856</name>
            </trkpt>
            <trkpt lat="49.7643904" lon="9.53446">
                <ele>145.0</ele>
                <time>2020-08-28T16:33:46.000Z</time>
                <name>Trackpoint 8857</name>
            </trkpt>
            <trkpt lat="49.7643232" lon="9.5343552">
                <ele>145.0</ele>
                <time>2020-08-28T16:33:48.000Z</time>
                <name>Trackpoint 8858</name>
            </trkpt>
            <trkpt lat="49.7642624" lon="9.5342864">
                <ele>145.0</ele>
                <time>2020-08-28T16:33:50.000Z</time>
                <name>Trackpoint 8859</name>
            </trkpt>
            <trkpt lat="49.764192" lon="9.534212">
                <ele>145.0</ele>
                <time>2020-08-28T16:33:53.000Z</time>
                <name>Trackpoint 8860</name>
            </trkpt>
            <trkpt lat="49.7641312" lon="9.5341328">
                <ele>144.0</ele>
                <time>2020-08-28T16:33:55.000Z</time>
                <name>Trackpoint 8861</name>
            </trkpt>
            <trkpt lat="49.764048" lon="9.5340232">
                <ele>144.0</ele>
                <time>2020-08-28T16:33:58.000Z</time>
                <name>Trackpoint 8862</name>
            </trkpt>
            <trkpt lat="49.7639872" lon="9.5339432">
                <ele>143.0</ele>
                <time>2020-08-28T16:34:00.000Z</time>
                <name>Trackpoint 8863</name>
            </trkpt>
            <trkpt lat="49.76392" lon="9.5338288">
                <ele>143.0</ele>
                <time>2020-08-28T16:34:02.000Z</time>
                <name>Trackpoint 8864</name>
            </trkpt>
            <trkpt lat="49.7638368" lon="9.5336768">
                <ele>143.0</ele>
                <time>2020-08-28T16:34:04.000Z</time>
                <name>Trackpoint 8865</name>
            </trkpt>
            <trkpt lat="49.7637888" lon="9.5335976">
                <ele>143.0</ele>
                <time>2020-08-28T16:34:05.000Z</time>
                <name>Trackpoint 8866</name>
            </trkpt>
            <trkpt lat="49.7637408" lon="9.5335032">
                <ele>143.0</ele>
                <time>2020-08-28T16:34:06.000Z</time>
                <name>Trackpoint 8867</name>
            </trkpt>
            <trkpt lat="49.763696" lon="9.5334168">
                <ele>143.0</ele>
                <time>2020-08-28T16:34:07.000Z</time>
                <name>Trackpoint 8868</name>
            </trkpt>
            <trkpt lat="49.7636064" lon="9.53326">
                <ele>143.0</ele>
                <time>2020-08-28T16:34:09.000Z</time>
                <name>Trackpoint 8869</name>
            </trkpt>
            <trkpt lat="49.7635232" lon="9.5331088">
                <ele>143.0</ele>
                <time>2020-08-28T16:34:11.000Z</time>
                <name>Trackpoint 8870</name>
            </trkpt>
            <trkpt lat="49.7634656" lon="9.5330136">
                <ele>143.0</ele>
                <time>2020-08-28T16:34:12.000Z</time>
                <name>Trackpoint 8871</name>
            </trkpt>
            <trkpt lat="49.7634048" lon="9.5329304">
                <ele>143.0</ele>
                <time>2020-08-28T16:34:13.000Z</time>
                <name>Trackpoint 8872</name>
            </trkpt>
            <trkpt lat="49.763312" lon="9.5328256">
                <ele>143.0</ele>
                <time>2020-08-28T16:34:15.000Z</time>
                <name>Trackpoint 8873</name>
            </trkpt>
            <trkpt lat="49.7632256" lon="9.5327184">
                <ele>143.0</ele>
                <time>2020-08-28T16:34:17.000Z</time>
                <name>Trackpoint 8874</name>
            </trkpt>
            <trkpt lat="49.7631424" lon="9.5325832">
                <ele>144.0</ele>
                <time>2020-08-28T16:34:19.000Z</time>
                <name>Trackpoint 8875</name>
            </trkpt>
            <trkpt lat="49.7630528" lon="9.5324336">
                <ele>143.0</ele>
                <time>2020-08-28T16:34:21.000Z</time>
                <name>Trackpoint 8876</name>
            </trkpt>
            <trkpt lat="49.7629696" lon="9.5323064">
                <ele>143.0</ele>
                <time>2020-08-28T16:34:23.000Z</time>
                <name>Trackpoint 8877</name>
            </trkpt>
            <trkpt lat="49.7628928" lon="9.5321776">
                <ele>143.0</ele>
                <time>2020-08-28T16:34:25.000Z</time>
                <name>Trackpoint 8878</name>
            </trkpt>
            <trkpt lat="49.762816" lon="9.5320664">
                <ele>143.0</ele>
                <time>2020-08-28T16:34:27.000Z</time>
                <name>Trackpoint 8879</name>
            </trkpt>
            <trkpt lat="49.7627712" lon="9.531988">
                <ele>144.0</ele>
                <time>2020-08-28T16:34:28.000Z</time>
                <name>Trackpoint 8880</name>
            </trkpt>
            <trkpt lat="49.762688" lon="9.5318496">
                <ele>144.0</ele>
                <time>2020-08-28T16:34:30.000Z</time>
                <name>Trackpoint 8881</name>
            </trkpt>
            <trkpt lat="49.7626048" lon="9.531716">
                <ele>144.0</ele>
                <time>2020-08-28T16:34:32.000Z</time>
                <name>Trackpoint 8882</name>
            </trkpt>
            <trkpt lat="49.7625312" lon="9.5315664">
                <ele>144.0</ele>
                <time>2020-08-28T16:34:34.000Z</time>
                <name>Trackpoint 8883</name>
            </trkpt>
            <trkpt lat="49.7624672" lon="9.53146">
                <ele>144.0</ele>
                <time>2020-08-28T16:34:36.000Z</time>
                <name>Trackpoint 8884</name>
            </trkpt>
            <trkpt lat="49.7624" lon="9.531348">
                <ele>144.0</ele>
                <time>2020-08-28T16:34:38.000Z</time>
                <name>Trackpoint 8885</name>
            </trkpt>
            <trkpt lat="49.762336" lon="9.5312296">
                <ele>144.0</ele>
                <time>2020-08-28T16:34:40.000Z</time>
                <name>Trackpoint 8886</name>
            </trkpt>
            <trkpt lat="49.7622752" lon="9.5311048">
                <ele>144.0</ele>
                <time>2020-08-28T16:34:42.000Z</time>
                <name>Trackpoint 8887</name>
            </trkpt>
            <trkpt lat="49.7622112" lon="9.5309696">
                <ele>144.0</ele>
                <time>2020-08-28T16:34:44.000Z</time>
                <name>Trackpoint 8888</name>
            </trkpt>
            <trkpt lat="49.7621504" lon="9.5308264">
                <ele>144.0</ele>
                <time>2020-08-28T16:34:46.000Z</time>
                <name>Trackpoint 8889</name>
            </trkpt>
            <trkpt lat="49.7620992" lon="9.5307168">
                <ele>144.0</ele>
                <time>2020-08-28T16:34:48.000Z</time>
                <name>Trackpoint 8890</name>
            </trkpt>
            <trkpt lat="49.7620288" lon="9.5306056">
                <ele>144.0</ele>
                <time>2020-08-28T16:34:50.000Z</time>
                <name>Trackpoint 8891</name>
            </trkpt>
            <trkpt lat="49.7619616" lon="9.53046">
                <ele>144.0</ele>
                <time>2020-08-28T16:34:52.000Z</time>
                <name>Trackpoint 8892</name>
            </trkpt>
            <trkpt lat="49.7618912" lon="9.5303136">
                <ele>144.0</ele>
                <time>2020-08-28T16:34:54.000Z</time>
                <name>Trackpoint 8893</name>
            </trkpt>
            <trkpt lat="49.7618208" lon="9.5301664">
                <ele>144.0</ele>
                <time>2020-08-28T16:34:56.000Z</time>
                <name>Trackpoint 8894</name>
            </trkpt>
            <trkpt lat="49.7617792" lon="9.53008">
                <ele>144.0</ele>
                <time>2020-08-28T16:34:57.000Z</time>
                <name>Trackpoint 8895</name>
            </trkpt>
            <trkpt lat="49.7617376" lon="9.5299968">
                <ele>144.0</ele>
                <time>2020-08-28T16:34:58.000Z</time>
                <name>Trackpoint 8896</name>
            </trkpt>
            <trkpt lat="49.7617024" lon="9.529912">
                <ele>144.0</ele>
                <time>2020-08-28T16:34:59.000Z</time>
                <name>Trackpoint 8897</name>
            </trkpt>
            <trkpt lat="49.761632" lon="9.5297496">
                <ele>144.0</ele>
                <time>2020-08-28T16:35:01.000Z</time>
                <name>Trackpoint 8898</name>
            </trkpt>
            <trkpt lat="49.7615616" lon="9.529596">
                <ele>144.0</ele>
                <time>2020-08-28T16:35:03.000Z</time>
                <name>Trackpoint 8899</name>
            </trkpt>
            <trkpt lat="49.7615104" lon="9.5294552">
                <ele>143.0</ele>
                <time>2020-08-28T16:35:05.000Z</time>
                <name>Trackpoint 8900</name>
            </trkpt>
            <trkpt lat="49.761456" lon="9.5293016">
                <ele>143.0</ele>
                <time>2020-08-28T16:35:07.000Z</time>
                <name>Trackpoint 8901</name>
            </trkpt>
            <trkpt lat="49.7613984" lon="9.5291592">
                <ele>143.0</ele>
                <time>2020-08-28T16:35:09.000Z</time>
                <name>Trackpoint 8902</name>
            </trkpt>
            <trkpt lat="49.76136" lon="9.52904">
                <ele>143.0</ele>
                <time>2020-08-28T16:35:11.000Z</time>
                <name>Trackpoint 8903</name>
            </trkpt>
            <trkpt lat="49.7613184" lon="9.5289136">
                <ele>143.0</ele>
                <time>2020-08-28T16:35:13.000Z</time>
                <name>Trackpoint 8904</name>
            </trkpt>
            <trkpt lat="49.7613024" lon="9.5288232">
                <ele>143.0</ele>
                <time>2020-08-28T16:35:14.000Z</time>
                <name>Trackpoint 8905</name>
            </trkpt>
            <trkpt lat="49.7613312" lon="9.5286768">
                <ele>142.0</ele>
                <time>2020-08-28T16:35:16.000Z</time>
                <name>Trackpoint 8906</name>
            </trkpt>
            <trkpt lat="49.7614112" lon="9.5285664">
                <ele>142.0</ele>
                <time>2020-08-28T16:35:18.000Z</time>
                <name>Trackpoint 8907</name>
            </trkpt>
            <trkpt lat="49.7614528" lon="9.5284792">
                <ele>141.0</ele>
                <time>2020-08-28T16:35:19.000Z</time>
                <name>Trackpoint 8908</name>
            </trkpt>
            <trkpt lat="49.7614848" lon="9.528392">
                <ele>141.0</ele>
                <time>2020-08-28T16:35:20.000Z</time>
                <name>Trackpoint 8909</name>
            </trkpt>
            <trkpt lat="49.7614944" lon="9.528288">
                <ele>141.0</ele>
                <time>2020-08-28T16:35:21.000Z</time>
                <name>Trackpoint 8910</name>
            </trkpt>
            <trkpt lat="49.7614816" lon="9.5281848">
                <ele>140.0</ele>
                <time>2020-08-28T16:35:22.000Z</time>
                <name>Trackpoint 8911</name>
            </trkpt>
            <trkpt lat="49.7614624" lon="9.5280896">
                <ele>140.0</ele>
                <time>2020-08-28T16:35:23.000Z</time>
                <name>Trackpoint 8912</name>
            </trkpt>
            <trkpt lat="49.761424" lon="9.5280016">
                <ele>140.0</ele>
                <time>2020-08-28T16:35:24.000Z</time>
                <name>Trackpoint 8913</name>
            </trkpt>
            <trkpt lat="49.761392" lon="9.5279152">
                <ele>140.0</ele>
                <time>2020-08-28T16:35:25.000Z</time>
                <name>Trackpoint 8914</name>
            </trkpt>
            <trkpt lat="49.7613216" lon="9.527752">
                <ele>140.0</ele>
                <time>2020-08-28T16:35:27.000Z</time>
                <name>Trackpoint 8915</name>
            </trkpt>
            <trkpt lat="49.7612544" lon="9.5275944">
                <ele>140.0</ele>
                <time>2020-08-28T16:35:29.000Z</time>
                <name>Trackpoint 8916</name>
            </trkpt>
            <trkpt lat="49.7611808" lon="9.5274416">
                <ele>140.0</ele>
                <time>2020-08-28T16:35:31.000Z</time>
                <name>Trackpoint 8917</name>
            </trkpt>
            <trkpt lat="49.7611136" lon="9.52728">
                <ele>140.0</ele>
                <time>2020-08-28T16:35:33.000Z</time>
                <name>Trackpoint 8918</name>
            </trkpt>
            <trkpt lat="49.7610624" lon="9.52712">
                <ele>141.0</ele>
                <time>2020-08-28T16:35:35.000Z</time>
                <name>Trackpoint 8919</name>
            </trkpt>
            <trkpt lat="49.7610048" lon="9.526968">
                <ele>140.0</ele>
                <time>2020-08-28T16:35:37.000Z</time>
                <name>Trackpoint 8920</name>
            </trkpt>
            <trkpt lat="49.7609504" lon="9.526816">
                <ele>140.0</ele>
                <time>2020-08-28T16:35:39.000Z</time>
                <name>Trackpoint 8921</name>
            </trkpt>
            <trkpt lat="49.7608992" lon="9.526664">
                <ele>140.0</ele>
                <time>2020-08-28T16:35:41.000Z</time>
                <name>Trackpoint 8922</name>
            </trkpt>
            <trkpt lat="49.7608448" lon="9.5265064">
                <ele>140.0</ele>
                <time>2020-08-28T16:35:43.000Z</time>
                <name>Trackpoint 8923</name>
            </trkpt>
            <trkpt lat="49.7607904" lon="9.5263504">
                <ele>140.0</ele>
                <time>2020-08-28T16:35:45.000Z</time>
                <name>Trackpoint 8924</name>
            </trkpt>
            <trkpt lat="49.7607392" lon="9.526188">
                <ele>140.0</ele>
                <time>2020-08-28T16:35:47.000Z</time>
                <name>Trackpoint 8925</name>
            </trkpt>
            <trkpt lat="49.7606912" lon="9.5260184">
                <ele>140.0</ele>
                <time>2020-08-28T16:35:49.000Z</time>
                <name>Trackpoint 8926</name>
            </trkpt>
            <trkpt lat="49.7606496" lon="9.5258512">
                <ele>140.0</ele>
                <time>2020-08-28T16:35:51.000Z</time>
                <name>Trackpoint 8927</name>
            </trkpt>
            <trkpt lat="49.7606368" lon="9.5257616">
                <ele>140.0</ele>
                <time>2020-08-28T16:35:52.000Z</time>
                <name>Trackpoint 8928</name>
            </trkpt>
            <trkpt lat="49.7606112" lon="9.5255848">
                <ele>140.0</ele>
                <time>2020-08-28T16:35:54.000Z</time>
                <name>Trackpoint 8929</name>
            </trkpt>
            <trkpt lat="49.760592" lon="9.525412">
                <ele>140.0</ele>
                <time>2020-08-28T16:35:56.000Z</time>
                <name>Trackpoint 8930</name>
            </trkpt>
            <trkpt lat="49.7605792" lon="9.5252416">
                <ele>140.0</ele>
                <time>2020-08-28T16:35:58.000Z</time>
                <name>Trackpoint 8931</name>
            </trkpt>
            <trkpt lat="49.76056" lon="9.525072">
                <ele>139.0</ele>
                <time>2020-08-28T16:36:00.000Z</time>
                <name>Trackpoint 8932</name>
            </trkpt>
            <trkpt lat="49.7605408" lon="9.5249096">
                <ele>140.0</ele>
                <time>2020-08-28T16:36:02.000Z</time>
                <name>Trackpoint 8933</name>
            </trkpt>
            <trkpt lat="49.7605184" lon="9.5247472">
                <ele>139.0</ele>
                <time>2020-08-28T16:36:04.000Z</time>
                <name>Trackpoint 8934</name>
            </trkpt>
            <trkpt lat="49.7605056" lon="9.5245896">
                <ele>140.0</ele>
                <time>2020-08-28T16:36:06.000Z</time>
                <name>Trackpoint 8935</name>
            </trkpt>
            <trkpt lat="49.7604992" lon="9.5244328">
                <ele>142.0</ele>
                <time>2020-08-28T16:36:08.000Z</time>
                <name>Trackpoint 8936</name>
            </trkpt>
            <trkpt lat="49.7604736" lon="9.5243464">
                <ele>138.0</ele>
                <time>2020-08-28T16:36:09.000Z</time>
                <name>Trackpoint 8937</name>
            </trkpt>
            <trkpt lat="49.7604512" lon="9.5241984">
                <ele>139.0</ele>
                <time>2020-08-28T16:36:11.000Z</time>
                <name>Trackpoint 8938</name>
            </trkpt>
            <trkpt lat="49.760432" lon="9.5240488">
                <ele>139.0</ele>
                <time>2020-08-28T16:36:13.000Z</time>
                <name>Trackpoint 8939</name>
            </trkpt>
            <trkpt lat="49.7604256" lon="9.5239032">
                <ele>139.0</ele>
                <time>2020-08-28T16:36:15.000Z</time>
                <name>Trackpoint 8940</name>
            </trkpt>
            <trkpt lat="49.7604192" lon="9.5237648">
                <ele>140.0</ele>
                <time>2020-08-28T16:36:17.000Z</time>
                <name>Trackpoint 8941</name>
            </trkpt>
            <trkpt lat="49.7604032" lon="9.5235968">
                <ele>140.0</ele>
                <time>2020-08-28T16:36:19.000Z</time>
                <name>Trackpoint 8942</name>
            </trkpt>
            <trkpt lat="49.7603904" lon="9.5234232">
                <ele>141.0</ele>
                <time>2020-08-28T16:36:21.000Z</time>
                <name>Trackpoint 8943</name>
            </trkpt>
            <trkpt lat="49.7603808" lon="9.523256">
                <ele>141.0</ele>
                <time>2020-08-28T16:36:23.000Z</time>
                <name>Trackpoint 8944</name>
            </trkpt>
            <trkpt lat="49.7603616" lon="9.5230952">
                <ele>141.0</ele>
                <time>2020-08-28T16:36:25.000Z</time>
                <name>Trackpoint 8945</name>
            </trkpt>
            <trkpt lat="49.7603456" lon="9.5229456">
                <ele>141.0</ele>
                <time>2020-08-28T16:36:27.000Z</time>
                <name>Trackpoint 8946</name>
            </trkpt>
            <trkpt lat="49.7603424" lon="9.5228168">
                <ele>141.0</ele>
                <time>2020-08-28T16:36:29.000Z</time>
                <name>Trackpoint 8947</name>
            </trkpt>
            <trkpt lat="49.7603328" lon="9.5226944">
                <ele>141.0</ele>
                <time>2020-08-28T16:36:31.000Z</time>
                <name>Trackpoint 8948</name>
            </trkpt>
            <trkpt lat="49.7603296" lon="9.5225824">
                <ele>140.0</ele>
                <time>2020-08-28T16:36:33.000Z</time>
                <name>Trackpoint 8949</name>
            </trkpt>
            <trkpt lat="49.76032" lon="9.5224648">
                <ele>140.0</ele>
                <time>2020-08-28T16:36:35.000Z</time>
                <name>Trackpoint 8950</name>
            </trkpt>
            <trkpt lat="49.7603176" lon="9.5223622">
                <ele>139.0</ele>
                <time>2020-08-28T16:36:37.000Z</time>
                <name>Trackpoint 8951</name>
            </trkpt>
            <trkpt lat="49.7603268" lon="9.5222491">
                <ele>139.0</ele>
                <time>2020-08-28T16:36:39.000Z</time>
                <name>Trackpoint 8952</name>
            </trkpt>
            <trkpt lat="49.7603391" lon="9.5221356">
                <ele>139.0</ele>
                <time>2020-08-28T16:36:41.000Z</time>
                <name>Trackpoint 8953</name>
            </trkpt>
            <trkpt lat="49.7603496" lon="9.5220102">
                <ele>139.0</ele>
                <time>2020-08-28T16:36:43.000Z</time>
                <name>Trackpoint 8954</name>
            </trkpt>
            <trkpt lat="49.7603648" lon="9.5219184">
                <ele>139.0</ele>
                <time>2020-08-28T16:36:45.000Z</time>
                <name>Trackpoint 8955</name>
            </trkpt>
            <trkpt lat="49.7603872" lon="9.52182">
                <ele>140.0</ele>
                <time>2020-08-28T16:36:47.000Z</time>
                <name>Trackpoint 8956</name>
            </trkpt>
            <trkpt lat="49.7603905" lon="9.5217366">
                <ele>140.0</ele>
                <time>2020-08-28T16:36:49.000Z</time>
                <name>Trackpoint 8957</name>
            </trkpt>
            <trkpt lat="49.7604096" lon="9.5215991">
                <ele>139.0</ele>
                <time>2020-08-28T16:36:55.000Z</time>
                <name>Trackpoint 8958</name>
            </trkpt>
            <trkpt lat="49.7603679" lon="9.5215462">
                <ele>138.0</ele>
                <time>2020-08-28T16:37:11.000Z</time>
                <name>Trackpoint 8959</name>
            </trkpt>
            <trkpt lat="49.7603507" lon="9.521645">
                <ele>142.0</ele>
                <time>2020-08-29T08:35:46.000Z</time>
                <name>Trackpoint 203</name>
            </trkpt>
            <trkpt lat="49.760308" lon="9.5217891">
                <ele>142.0</ele>
                <time>2020-08-29T08:35:49.000Z</time>
                <name>Trackpoint 204</name>
            </trkpt>
            <trkpt lat="49.7602911" lon="9.5219163">
                <ele>141.0</ele>
                <time>2020-08-29T08:35:51.000Z</time>
                <name>Trackpoint 205</name>
            </trkpt>
            <trkpt lat="49.760288" lon="9.52204">
                <ele>141.0</ele>
                <time>2020-08-29T08:35:53.000Z</time>
                <name>Trackpoint 206</name>
            </trkpt>
            <trkpt lat="49.7602752" lon="9.5221784">
                <ele>141.0</ele>
                <time>2020-08-29T08:35:55.000Z</time>
                <name>Trackpoint 207</name>
            </trkpt>
            <trkpt lat="49.7602528" lon="9.5223352">
                <ele>141.0</ele>
                <time>2020-08-29T08:35:57.000Z</time>
                <name>Trackpoint 208</name>
            </trkpt>
            <trkpt lat="49.7602336" lon="9.5224984">
                <ele>141.0</ele>
                <time>2020-08-29T08:35:59.000Z</time>
                <name>Trackpoint 209</name>
            </trkpt>
            <trkpt lat="49.7602208" lon="9.5226616">
                <ele>141.0</ele>
                <time>2020-08-29T08:36:01.000Z</time>
                <name>Trackpoint 210</name>
            </trkpt>
            <trkpt lat="49.7602048" lon="9.5228216">
                <ele>141.0</ele>
                <time>2020-08-29T08:36:03.000Z</time>
                <name>Trackpoint 211</name>
            </trkpt>
            <trkpt lat="49.7602048" lon="9.5229784">
                <ele>141.0</ele>
                <time>2020-08-29T08:36:05.000Z</time>
                <name>Trackpoint 212</name>
            </trkpt>
            <trkpt lat="49.7602016" lon="9.5231184">
                <ele>141.0</ele>
                <time>2020-08-29T08:36:07.000Z</time>
                <name>Trackpoint 213</name>
            </trkpt>
            <trkpt lat="49.7602048" lon="9.523256">
                <ele>141.0</ele>
                <time>2020-08-29T08:36:09.000Z</time>
                <name>Trackpoint 214</name>
            </trkpt>
            <trkpt lat="49.7602016" lon="9.5233968">
                <ele>141.0</ele>
                <time>2020-08-29T08:36:11.000Z</time>
                <name>Trackpoint 215</name>
            </trkpt>
            <trkpt lat="49.7602048" lon="9.5235456">
                <ele>141.0</ele>
                <time>2020-08-29T08:36:13.000Z</time>
                <name>Trackpoint 216</name>
            </trkpt>
            <trkpt lat="49.7602016" lon="9.5236904">
                <ele>141.0</ele>
                <time>2020-08-29T08:36:15.000Z</time>
                <name>Trackpoint 217</name>
            </trkpt>
            <trkpt lat="49.7601952" lon="9.5238264">
                <ele>141.0</ele>
                <time>2020-08-29T08:36:17.000Z</time>
                <name>Trackpoint 218</name>
            </trkpt>
            <trkpt lat="49.7601952" lon="9.52396">
                <ele>141.0</ele>
                <time>2020-08-29T08:36:19.000Z</time>
                <name>Trackpoint 219</name>
            </trkpt>
            <trkpt lat="49.7602336" lon="9.524072">
                <ele>141.0</ele>
                <time>2020-08-29T08:36:21.000Z</time>
                <name>Trackpoint 220</name>
            </trkpt>
            <trkpt lat="49.7602944" lon="9.524168">
                <ele>141.0</ele>
                <time>2020-08-29T08:36:24.000Z</time>
                <name>Trackpoint 221</name>
            </trkpt>
            <trkpt lat="49.7603744" lon="9.5242136">
                <ele>141.0</ele>
                <time>2020-08-29T08:36:30.000Z</time>
                <name>Trackpoint 222</name>
            </trkpt>
            <trkpt lat="49.7604608" lon="9.5241768">
                <ele>142.0</ele>
                <time>2020-08-29T08:38:18.000Z</time>
                <name>Trackpoint 223</name>
            </trkpt>
            <trkpt lat="49.76056" lon="9.524212">
                <ele>142.0</ele>
                <time>2020-08-29T08:38:22.000Z</time>
                <name>Trackpoint 224</name>
            </trkpt>
            <trkpt lat="49.7606816" lon="9.5242416">
                <ele>143.0</ele>
                <time>2020-08-29T08:38:26.000Z</time>
                <name>Trackpoint 225</name>
            </trkpt>
            <trkpt lat="49.7607712" lon="9.5242664">
                <ele>144.0</ele>
                <time>2020-08-29T08:38:29.000Z</time>
                <name>Trackpoint 226</name>
            </trkpt>
            <trkpt lat="49.7608704" lon="9.5242952">
                <ele>144.0</ele>
                <time>2020-08-29T08:38:32.000Z</time>
                <name>Trackpoint 227</name>
            </trkpt>
            <trkpt lat="49.7609792" lon="9.5243216">
                <ele>144.0</ele>
                <time>2020-08-29T08:38:35.000Z</time>
                <name>Trackpoint 228</name>
            </trkpt>
            <trkpt lat="49.7610944" lon="9.5243656">
                <ele>144.0</ele>
                <time>2020-08-29T08:38:38.000Z</time>
                <name>Trackpoint 229</name>
            </trkpt>
            <trkpt lat="49.7612128" lon="9.5243952">
                <ele>145.0</ele>
                <time>2020-08-29T08:38:41.000Z</time>
                <name>Trackpoint 230</name>
            </trkpt>
            <trkpt lat="49.7613376" lon="9.5244376">
                <ele>145.0</ele>
                <time>2020-08-29T08:38:44.000Z</time>
                <name>Trackpoint 231</name>
            </trkpt>
            <trkpt lat="49.761424" lon="9.5244664">
                <ele>145.0</ele>
                <time>2020-08-29T08:38:46.000Z</time>
                <name>Trackpoint 232</name>
            </trkpt>
            <trkpt lat="49.7615168" lon="9.5244952">
                <ele>145.0</ele>
                <time>2020-08-29T08:38:48.000Z</time>
                <name>Trackpoint 233</name>
            </trkpt>
            <trkpt lat="49.7616096" lon="9.524524">
                <ele>145.0</ele>
                <time>2020-08-29T08:38:50.000Z</time>
                <name>Trackpoint 234</name>
            </trkpt>
            <trkpt lat="49.7617152" lon="9.5245584">
                <ele>145.0</ele>
                <time>2020-08-29T08:38:52.000Z</time>
                <name>Trackpoint 235</name>
            </trkpt>
            <trkpt lat="49.7618176" lon="9.5245888">
                <ele>144.0</ele>
                <time>2020-08-29T08:38:54.000Z</time>
                <name>Trackpoint 236</name>
            </trkpt>
            <trkpt lat="49.7619328" lon="9.5246288">
                <ele>144.0</ele>
                <time>2020-08-29T08:38:56.000Z</time>
                <name>Trackpoint 237</name>
            </trkpt>
            <trkpt lat="49.7620384" lon="9.524656">
                <ele>144.0</ele>
                <time>2020-08-29T08:38:58.000Z</time>
                <name>Trackpoint 238</name>
            </trkpt>
            <trkpt lat="49.7621504" lon="9.5246464">
                <ele>144.0</ele>
                <time>2020-08-29T08:39:00.000Z</time>
                <name>Trackpoint 239</name>
            </trkpt>
            <trkpt lat="49.7622496" lon="9.5246048">
                <ele>144.0</ele>
                <time>2020-08-29T08:39:02.000Z</time>
                <name>Trackpoint 240</name>
            </trkpt>
            <trkpt lat="49.7623328" lon="9.5245064">
                <ele>144.0</ele>
                <time>2020-08-29T08:39:04.000Z</time>
                <name>Trackpoint 241</name>
            </trkpt>
            <trkpt lat="49.7624" lon="9.5243832">
                <ele>144.0</ele>
                <time>2020-08-29T08:39:06.000Z</time>
                <name>Trackpoint 242</name>
            </trkpt>
            <trkpt lat="49.762448" lon="9.524232">
                <ele>144.0</ele>
                <time>2020-08-29T08:39:08.000Z</time>
                <name>Trackpoint 243</name>
            </trkpt>
            <trkpt lat="49.7624544" lon="9.5240632">
                <ele>143.0</ele>
                <time>2020-08-29T08:39:10.000Z</time>
                <name>Trackpoint 244</name>
            </trkpt>
            <trkpt lat="49.7624544" lon="9.523896">
                <ele>143.0</ele>
                <time>2020-08-29T08:39:12.000Z</time>
                <name>Trackpoint 245</name>
            </trkpt>
            <trkpt lat="49.7624512" lon="9.5237264">
                <ele>143.0</ele>
                <time>2020-08-29T08:39:14.000Z</time>
                <name>Trackpoint 246</name>
            </trkpt>
            <trkpt lat="49.7624448" lon="9.523552">
                <ele>144.0</ele>
                <time>2020-08-29T08:39:16.000Z</time>
                <name>Trackpoint 247</name>
            </trkpt>
            <trkpt lat="49.7624352" lon="9.52338">
                <ele>144.0</ele>
                <time>2020-08-29T08:39:18.000Z</time>
                <name>Trackpoint 248</name>
            </trkpt>
            <trkpt lat="49.7624288" lon="9.5232088">
                <ele>144.0</ele>
                <time>2020-08-29T08:39:20.000Z</time>
                <name>Trackpoint 249</name>
            </trkpt>
            <trkpt lat="49.762416" lon="9.523044">
                <ele>144.0</ele>
                <time>2020-08-29T08:39:22.000Z</time>
                <name>Trackpoint 250</name>
            </trkpt>
            <trkpt lat="49.7624128" lon="9.52288">
                <ele>144.0</ele>
                <time>2020-08-29T08:39:24.000Z</time>
                <name>Trackpoint 251</name>
            </trkpt>
            <trkpt lat="49.7624096" lon="9.522708">
                <ele>144.0</ele>
                <time>2020-08-29T08:39:26.000Z</time>
                <name>Trackpoint 252</name>
            </trkpt>
            <trkpt lat="49.7623968" lon="9.5225352">
                <ele>144.0</ele>
                <time>2020-08-29T08:39:28.000Z</time>
                <name>Trackpoint 253</name>
            </trkpt>
            <trkpt lat="49.762384" lon="9.5223568">
                <ele>144.0</ele>
                <time>2020-08-29T08:39:30.000Z</time>
                <name>Trackpoint 254</name>
            </trkpt>
            <trkpt lat="49.7623712" lon="9.5221832">
                <ele>144.0</ele>
                <time>2020-08-29T08:39:32.000Z</time>
                <name>Trackpoint 255</name>
            </trkpt>
            <trkpt lat="49.762368" lon="9.5220216">
                <ele>143.0</ele>
                <time>2020-08-29T08:39:34.000Z</time>
                <name>Trackpoint 256</name>
            </trkpt>
            <trkpt lat="49.7623712" lon="9.5218848">
                <ele>143.0</ele>
                <time>2020-08-29T08:39:36.000Z</time>
                <name>Trackpoint 257</name>
            </trkpt>
            <trkpt lat="49.7623776" lon="9.5217816">
                <ele>143.0</ele>
                <time>2020-08-29T08:39:38.000Z</time>
                <name>Trackpoint 258</name>
            </trkpt>
            <trkpt lat="49.7624" lon="9.52162">
                <ele>144.0</ele>
                <time>2020-08-29T08:40:54.000Z</time>
                <name>Trackpoint 261</name>
            </trkpt>
            <trkpt lat="49.7624192" lon="9.5215128">
                <ele>144.0</ele>
                <time>2020-08-29T08:40:56.000Z</time>
                <name>Trackpoint 262</name>
            </trkpt>
            <trkpt lat="49.762432" lon="9.5213896">
                <ele>144.0</ele>
                <time>2020-08-29T08:40:58.000Z</time>
                <name>Trackpoint 263</name>
            </trkpt>
            <trkpt lat="49.7624672" lon="9.52126">
                <ele>144.0</ele>
                <time>2020-08-29T08:41:00.000Z</time>
                <name>Trackpoint 264</name>
            </trkpt>
            <trkpt lat="49.7625056" lon="9.52112">
                <ele>144.0</ele>
                <time>2020-08-29T08:41:02.000Z</time>
                <name>Trackpoint 265</name>
            </trkpt>
            <trkpt lat="49.762544" lon="9.5209904">
                <ele>145.0</ele>
                <time>2020-08-29T08:41:04.000Z</time>
                <name>Trackpoint 266</name>
            </trkpt>
            <trkpt lat="49.7625856" lon="9.5208664">
                <ele>145.0</ele>
                <time>2020-08-29T08:41:06.000Z</time>
                <name>Trackpoint 267</name>
            </trkpt>
            <trkpt lat="49.7626304" lon="9.5207432">
                <ele>145.0</ele>
                <time>2020-08-29T08:41:08.000Z</time>
                <name>Trackpoint 268</name>
            </trkpt>
            <trkpt lat="49.762672" lon="9.520608">
                <ele>146.0</ele>
                <time>2020-08-29T08:41:10.000Z</time>
                <name>Trackpoint 269</name>
            </trkpt>
            <trkpt lat="49.7627168" lon="9.520476">
                <ele>146.0</ele>
                <time>2020-08-29T08:41:12.000Z</time>
                <name>Trackpoint 270</name>
            </trkpt>
            <trkpt lat="49.7627616" lon="9.5203448">
                <ele>147.0</ele>
                <time>2020-08-29T08:41:14.000Z</time>
                <name>Trackpoint 271</name>
            </trkpt>
            <trkpt lat="49.7628096" lon="9.520224">
                <ele>146.0</ele>
                <time>2020-08-29T08:41:16.000Z</time>
                <name>Trackpoint 272</name>
            </trkpt>
            <trkpt lat="49.7628256" lon="9.5201352">
                <ele>147.0</ele>
                <time>2020-08-29T08:41:17.000Z</time>
                <name>Trackpoint 273</name>
            </trkpt>
            <trkpt lat="49.7628704" lon="9.5199968">
                <ele>147.0</ele>
                <time>2020-08-29T08:41:19.000Z</time>
                <name>Trackpoint 274</name>
            </trkpt>
            <trkpt lat="49.7629152" lon="9.5198632">
                <ele>147.0</ele>
                <time>2020-08-29T08:41:21.000Z</time>
                <name>Trackpoint 275</name>
            </trkpt>
            <trkpt lat="49.7629632" lon="9.5197216">
                <ele>148.0</ele>
                <time>2020-08-29T08:41:23.000Z</time>
                <name>Trackpoint 276</name>
            </trkpt>
            <trkpt lat="49.763008" lon="9.51958">
                <ele>148.0</ele>
                <time>2020-08-29T08:41:25.000Z</time>
                <name>Trackpoint 277</name>
            </trkpt>
            <trkpt lat="49.7630528" lon="9.5194328">
                <ele>148.0</ele>
                <time>2020-08-29T08:41:27.000Z</time>
                <name>Trackpoint 278</name>
            </trkpt>
            <trkpt lat="49.7631008" lon="9.519288">
                <ele>148.0</ele>
                <time>2020-08-29T08:41:29.000Z</time>
                <name>Trackpoint 279</name>
            </trkpt>
            <trkpt lat="49.7631424" lon="9.5191432">
                <ele>148.0</ele>
                <time>2020-08-29T08:41:31.000Z</time>
                <name>Trackpoint 280</name>
            </trkpt>
            <trkpt lat="49.7631808" lon="9.518996">
                <ele>149.0</ele>
                <time>2020-08-29T08:41:33.000Z</time>
                <name>Trackpoint 281</name>
            </trkpt>
            <trkpt lat="49.7632192" lon="9.5188512">
                <ele>149.0</ele>
                <time>2020-08-29T08:41:35.000Z</time>
                <name>Trackpoint 282</name>
            </trkpt>
            <trkpt lat="49.7632608" lon="9.5187128">
                <ele>149.0</ele>
                <time>2020-08-29T08:41:37.000Z</time>
                <name>Trackpoint 283</name>
            </trkpt>
            <trkpt lat="49.7633024" lon="9.518572">
                <ele>150.0</ele>
                <time>2020-08-29T08:41:39.000Z</time>
                <name>Trackpoint 284</name>
            </trkpt>
            <trkpt lat="49.763344" lon="9.518432">
                <ele>150.0</ele>
                <time>2020-08-29T08:41:41.000Z</time>
                <name>Trackpoint 285</name>
            </trkpt>
            <trkpt lat="49.7633888" lon="9.5182952">
                <ele>150.0</ele>
                <time>2020-08-29T08:41:43.000Z</time>
                <name>Trackpoint 286</name>
            </trkpt>
            <trkpt lat="49.7634272" lon="9.5181464">
                <ele>150.0</ele>
                <time>2020-08-29T08:41:45.000Z</time>
                <name>Trackpoint 287</name>
            </trkpt>
            <trkpt lat="49.7634656" lon="9.5179928">
                <ele>152.0</ele>
                <time>2020-08-29T08:41:47.000Z</time>
                <name>Trackpoint 288</name>
            </trkpt>
            <trkpt lat="49.763504" lon="9.517852">
                <ele>152.0</ele>
                <time>2020-08-29T08:41:49.000Z</time>
                <name>Trackpoint 289</name>
            </trkpt>
            <trkpt lat="49.7635424" lon="9.5177072">
                <ele>152.0</ele>
                <time>2020-08-29T08:41:51.000Z</time>
                <name>Trackpoint 290</name>
            </trkpt>
            <trkpt lat="49.7635808" lon="9.5175784">
                <ele>152.0</ele>
                <time>2020-08-29T08:41:53.000Z</time>
                <name>Trackpoint 291</name>
            </trkpt>
            <trkpt lat="49.763616" lon="9.517464">
                <ele>151.0</ele>
                <time>2020-08-29T08:41:55.000Z</time>
                <name>Trackpoint 292</name>
            </trkpt>
            <trkpt lat="49.7636416" lon="9.5173616">
                <ele>151.0</ele>
                <time>2020-08-29T08:41:57.000Z</time>
                <name>Trackpoint 293</name>
            </trkpt>
            <trkpt lat="49.76368" lon="9.5172584">
                <ele>152.0</ele>
                <time>2020-08-29T08:42:00.000Z</time>
                <name>Trackpoint 294</name>
            </trkpt>
            <trkpt lat="49.7636992" lon="9.5171696">
                <ele>150.0</ele>
                <time>2020-08-29T08:43:51.000Z</time>
                <name>Trackpoint 295</name>
            </trkpt>
            <trkpt lat="49.763616" lon="9.5171336">
                <ele>148.0</ele>
                <time>2020-08-29T08:43:57.000Z</time>
                <name>Trackpoint 296</name>
            </trkpt>
            <trkpt lat="49.7635264" lon="9.5170944">
                <ele>146.0</ele>
                <time>2020-08-29T08:44:01.000Z</time>
                <name>Trackpoint 297</name>
            </trkpt>
            <trkpt lat="49.7634368" lon="9.517032">
                <ele>145.0</ele>
                <time>2020-08-29T08:44:05.000Z</time>
                <name>Trackpoint 298</name>
            </trkpt>
            <trkpt lat="49.763344" lon="9.5169632">
                <ele>144.0</ele>
                <time>2020-08-29T08:44:09.000Z</time>
                <name>Trackpoint 299</name>
            </trkpt>
            <trkpt lat="49.7632736" lon="9.516896">
                <ele>143.0</ele>
                <time>2020-08-29T08:44:12.000Z</time>
                <name>Trackpoint 300</name>
            </trkpt>
            <trkpt lat="49.7632064" lon="9.5168264">
                <ele>141.0</ele>
                <time>2020-08-29T08:44:15.000Z</time>
                <name>Trackpoint 301</name>
            </trkpt>
            <trkpt lat="49.7631488" lon="9.5167528">
                <ele>140.0</ele>
                <time>2020-08-29T08:44:18.000Z</time>
                <name>Trackpoint 302</name>
            </trkpt>
            <trkpt lat="49.7630752" lon="9.5166904">
                <ele>137.0</ele>
                <time>2020-08-29T08:44:23.000Z</time>
                <name>Trackpoint 303</name>
            </trkpt>
            <trkpt lat="49.7629952" lon="9.5167504">
                <ele>136.0</ele>
                <time>2020-08-29T08:44:27.000Z</time>
                <name>Trackpoint 304</name>
            </trkpt>
            <trkpt lat="49.7629312" lon="9.5168464">
                <ele>136.0</ele>
                <time>2020-08-29T08:44:30.000Z</time>
                <name>Trackpoint 305</name>
            </trkpt>
            <trkpt lat="49.7628864" lon="9.5169832">
                <ele>136.0</ele>
                <time>2020-08-29T08:44:33.000Z</time>
                <name>Trackpoint 306</name>
            </trkpt>
            <trkpt lat="49.7628608" lon="9.5170768">
                <ele>137.0</ele>
                <time>2020-08-29T08:44:35.000Z</time>
                <name>Trackpoint 307</name>
            </trkpt>
            <trkpt lat="49.7628256" lon="9.5171672">
                <ele>137.0</ele>
                <time>2020-08-29T08:44:38.000Z</time>
                <name>Trackpoint 308</name>
            </trkpt>
            <trkpt lat="49.762736" lon="9.5171936">
                <ele>137.0</ele>
                <time>2020-08-29T08:45:07.000Z</time>
                <name>Trackpoint 309</name>
            </trkpt>
            <trkpt lat="49.7627424" lon="9.5171584">
                <ele>137.0</ele>
                <time>2020-08-29T08:46:55.000Z</time>
                <name>Trackpoint 316</name>
            </trkpt>
            <trkpt lat="49.762768" lon="9.5170472">
                <ele>137.0</ele>
                <time>2020-08-29T08:46:57.000Z</time>
                <name>Trackpoint 317</name>
            </trkpt>
            <trkpt lat="49.7627968" lon="9.5169496">
                <ele>137.0</ele>
                <time>2020-08-29T08:46:59.000Z</time>
                <name>Trackpoint 318</name>
            </trkpt>
            <trkpt lat="49.7628416" lon="9.5168584">
                <ele>137.0</ele>
                <time>2020-08-29T08:47:01.000Z</time>
                <name>Trackpoint 319</name>
            </trkpt>
            <trkpt lat="49.762896" lon="9.5167712">
                <ele>136.0</ele>
                <time>2020-08-29T08:47:03.000Z</time>
                <name>Trackpoint 320</name>
            </trkpt>
            <trkpt lat="49.76296" lon="9.5166904">
                <ele>137.0</ele>
                <time>2020-08-29T08:47:05.000Z</time>
                <name>Trackpoint 321</name>
            </trkpt>
            <trkpt lat="49.763024" lon="9.5166056">
                <ele>137.0</ele>
                <time>2020-08-29T08:47:07.000Z</time>
                <name>Trackpoint 322</name>
            </trkpt>
            <trkpt lat="49.7630752" lon="9.5165032">
                <ele>137.0</ele>
                <time>2020-08-29T08:47:09.000Z</time>
                <name>Trackpoint 323</name>
            </trkpt>
            <trkpt lat="49.7631296" lon="9.516392">
                <ele>136.0</ele>
                <time>2020-08-29T08:47:11.000Z</time>
                <name>Trackpoint 324</name>
            </trkpt>
            <trkpt lat="49.763184" lon="9.5162752">
                <ele>137.0</ele>
                <time>2020-08-29T08:47:13.000Z</time>
                <name>Trackpoint 325</name>
            </trkpt>
            <trkpt lat="49.7632288" lon="9.5161688">
                <ele>137.0</ele>
                <time>2020-08-29T08:47:15.000Z</time>
                <name>Trackpoint 326</name>
            </trkpt>
            <trkpt lat="49.7632736" lon="9.5160576">
                <ele>136.0</ele>
                <time>2020-08-29T08:47:17.000Z</time>
                <name>Trackpoint 327</name>
            </trkpt>
            <trkpt lat="49.7633216" lon="9.5159552">
                <ele>136.0</ele>
                <time>2020-08-29T08:47:19.000Z</time>
                <name>Trackpoint 328</name>
            </trkpt>
            <trkpt lat="49.7633728" lon="9.515852">
                <ele>136.0</ele>
                <time>2020-08-29T08:47:21.000Z</time>
                <name>Trackpoint 329</name>
            </trkpt>
            <trkpt lat="49.7634112" lon="9.5157344">
                <ele>136.0</ele>
                <time>2020-08-29T08:47:23.000Z</time>
                <name>Trackpoint 330</name>
            </trkpt>
            <trkpt lat="49.7634496" lon="9.5156432">
                <ele>137.0</ele>
                <time>2020-08-29T08:47:25.000Z</time>
                <name>Trackpoint 331</name>
            </trkpt>
            <trkpt lat="49.7635424" lon="9.515596">
                <ele>137.0</ele>
                <time>2020-08-29T08:47:29.000Z</time>
                <name>Trackpoint 332</name>
            </trkpt>
            <trkpt lat="49.7636256" lon="9.5155248">
                <ele>136.0</ele>
                <time>2020-08-29T08:47:32.000Z</time>
                <name>Trackpoint 333</name>
            </trkpt>
            <trkpt lat="49.7636672" lon="9.5154416">
                <ele>136.0</ele>
                <time>2020-08-29T08:47:34.000Z</time>
                <name>Trackpoint 334</name>
            </trkpt>
            <trkpt lat="49.7637376" lon="9.5153264">
                <ele>136.0</ele>
                <time>2020-08-29T08:47:37.000Z</time>
                <name>Trackpoint 335</name>
            </trkpt>
            <trkpt lat="49.7637952" lon="9.5152552">
                <ele>137.0</ele>
                <time>2020-08-29T08:47:39.000Z</time>
                <name>Trackpoint 336</name>
            </trkpt>
            <trkpt lat="49.763856" lon="9.515168">
                <ele>137.0</ele>
                <time>2020-08-29T08:47:41.000Z</time>
                <name>Trackpoint 337</name>
            </trkpt>
            <trkpt lat="49.76392" lon="9.5150856">
                <ele>137.0</ele>
                <time>2020-08-29T08:47:43.000Z</time>
                <name>Trackpoint 338</name>
            </trkpt>
            <trkpt lat="49.7639872" lon="9.5150016">
                <ele>138.0</ele>
                <time>2020-08-29T08:47:45.000Z</time>
                <name>Trackpoint 339</name>
            </trkpt>
            <trkpt lat="49.7640608" lon="9.5149168">
                <ele>138.0</ele>
                <time>2020-08-29T08:47:47.000Z</time>
                <name>Trackpoint 340</name>
            </trkpt>
            <trkpt lat="49.7641248" lon="9.51484">
                <ele>138.0</ele>
                <time>2020-08-29T08:47:49.000Z</time>
                <name>Trackpoint 341</name>
            </trkpt>
            <trkpt lat="49.7641984" lon="9.5147632">
                <ele>138.0</ele>
                <time>2020-08-29T08:47:51.000Z</time>
                <name>Trackpoint 342</name>
            </trkpt>
            <trkpt lat="49.7642656" lon="9.5146904">
                <ele>138.0</ele>
                <time>2020-08-29T08:47:53.000Z</time>
                <name>Trackpoint 343</name>
            </trkpt>
            <trkpt lat="49.764384" lon="9.5146368">
                <ele>138.0</ele>
                <time>2020-08-29T08:47:56.000Z</time>
                <name>Trackpoint 344</name>
            </trkpt>
            <trkpt lat="49.7644928" lon="9.5145256">
                <ele>138.0</ele>
                <time>2020-08-29T08:47:59.000Z</time>
                <name>Trackpoint 345</name>
            </trkpt>
            <trkpt lat="49.7645696" lon="9.514432">
                <ele>139.0</ele>
                <time>2020-08-29T08:48:01.000Z</time>
                <name>Trackpoint 346</name>
            </trkpt>
            <trkpt lat="49.7646496" lon="9.514348">
                <ele>139.0</ele>
                <time>2020-08-29T08:48:03.000Z</time>
                <name>Trackpoint 347</name>
            </trkpt>
            <trkpt lat="49.7647296" lon="9.5142784">
                <ele>139.0</ele>
                <time>2020-08-29T08:48:05.000Z</time>
                <name>Trackpoint 348</name>
            </trkpt>
            <trkpt lat="49.764816" lon="9.5141784">
                <ele>139.0</ele>
                <time>2020-08-29T08:48:07.000Z</time>
                <name>Trackpoint 349</name>
            </trkpt>
            <trkpt lat="49.7649056" lon="9.5140864">
                <ele>139.0</ele>
                <time>2020-08-29T08:48:09.000Z</time>
                <name>Trackpoint 350</name>
            </trkpt>
            <trkpt lat="49.764992" lon="9.5139904">
                <ele>139.0</ele>
                <time>2020-08-29T08:48:11.000Z</time>
                <name>Trackpoint 351</name>
            </trkpt>
            <trkpt lat="49.7650912" lon="9.5139">
                <ele>139.0</ele>
                <time>2020-08-29T08:48:13.000Z</time>
                <name>Trackpoint 352</name>
            </trkpt>
            <trkpt lat="49.7651776" lon="9.5138128">
                <ele>139.0</ele>
                <time>2020-08-29T08:48:15.000Z</time>
                <name>Trackpoint 353</name>
            </trkpt>
            <trkpt lat="49.7652576" lon="9.5137192">
                <ele>139.0</ele>
                <time>2020-08-29T08:48:17.000Z</time>
                <name>Trackpoint 354</name>
            </trkpt>
            <trkpt lat="49.7653472" lon="9.513632">
                <ele>139.0</ele>
                <time>2020-08-29T08:48:19.000Z</time>
                <name>Trackpoint 355</name>
            </trkpt>
            <trkpt lat="49.7654368" lon="9.5135536">
                <ele>140.0</ele>
                <time>2020-08-29T08:48:21.000Z</time>
                <name>Trackpoint 356</name>
            </trkpt>
            <trkpt lat="49.7655168" lon="9.5135">
                <ele>140.0</ele>
                <time>2020-08-29T08:48:23.000Z</time>
                <name>Trackpoint 357</name>
            </trkpt>
            <trkpt lat="49.7656032" lon="9.5134448">
                <ele>140.0</ele>
                <time>2020-08-29T08:48:25.000Z</time>
                <name>Trackpoint 358</name>
            </trkpt>
            <trkpt lat="49.7656864" lon="9.5133952">
                <ele>140.0</ele>
                <time>2020-08-29T08:48:27.000Z</time>
                <name>Trackpoint 359</name>
            </trkpt>
            <trkpt lat="49.7657728" lon="9.5133304">
                <ele>140.0</ele>
                <time>2020-08-29T08:48:29.000Z</time>
                <name>Trackpoint 360</name>
            </trkpt>
            <trkpt lat="49.7658496" lon="9.5132376">
                <ele>140.0</ele>
                <time>2020-08-29T08:48:31.000Z</time>
                <name>Trackpoint 361</name>
            </trkpt>
            <trkpt lat="49.7659424" lon="9.513152">
                <ele>140.0</ele>
                <time>2020-08-29T08:48:33.000Z</time>
                <name>Trackpoint 362</name>
            </trkpt>
            <trkpt lat="49.7660192" lon="9.5130656">
                <ele>140.0</ele>
                <time>2020-08-29T08:48:35.000Z</time>
                <name>Trackpoint 363</name>
            </trkpt>
            <trkpt lat="49.7661024" lon="9.5129736">
                <ele>140.0</ele>
                <time>2020-08-29T08:48:37.000Z</time>
                <name>Trackpoint 364</name>
            </trkpt>
            <trkpt lat="49.7661824" lon="9.5128848">
                <ele>140.0</ele>
                <time>2020-08-29T08:48:39.000Z</time>
                <name>Trackpoint 365</name>
            </trkpt>
            <trkpt lat="49.766256" lon="9.5128024">
                <ele>139.0</ele>
                <time>2020-08-29T08:48:41.000Z</time>
                <name>Trackpoint 366</name>
            </trkpt>
            <trkpt lat="49.766336" lon="9.5127336">
                <ele>139.0</ele>
                <time>2020-08-29T08:48:43.000Z</time>
                <name>Trackpoint 367</name>
            </trkpt>
            <trkpt lat="49.766416" lon="9.5126464">
                <ele>139.0</ele>
                <time>2020-08-29T08:48:45.000Z</time>
                <name>Trackpoint 368</name>
            </trkpt>
            <trkpt lat="49.7664992" lon="9.5125552">
                <ele>139.0</ele>
                <time>2020-08-29T08:48:47.000Z</time>
                <name>Trackpoint 369</name>
            </trkpt>
            <trkpt lat="49.7665856" lon="9.5124592">
                <ele>140.0</ele>
                <time>2020-08-29T08:48:49.000Z</time>
                <name>Trackpoint 370</name>
            </trkpt>
            <trkpt lat="49.7666752" lon="9.5123728">
                <ele>140.0</ele>
                <time>2020-08-29T08:48:51.000Z</time>
                <name>Trackpoint 371</name>
            </trkpt>
            <trkpt lat="49.7667584" lon="9.5122928">
                <ele>140.0</ele>
                <time>2020-08-29T08:48:53.000Z</time>
                <name>Trackpoint 372</name>
            </trkpt>
            <trkpt lat="49.7668352" lon="9.5122048">
                <ele>141.0</ele>
                <time>2020-08-29T08:48:55.000Z</time>
                <name>Trackpoint 373</name>
            </trkpt>
            <trkpt lat="49.766912" lon="9.512128">
                <ele>140.0</ele>
                <time>2020-08-29T08:48:57.000Z</time>
                <name>Trackpoint 374</name>
            </trkpt>
            <trkpt lat="49.766992" lon="9.512056">
                <ele>140.0</ele>
                <time>2020-08-29T08:48:59.000Z</time>
                <name>Trackpoint 375</name>
            </trkpt>
            <trkpt lat="49.7670624" lon="9.5119688">
                <ele>139.0</ele>
                <time>2020-08-29T08:49:01.000Z</time>
                <name>Trackpoint 376</name>
            </trkpt>
            <trkpt lat="49.7671168" lon="9.5118376">
                <ele>139.0</ele>
                <time>2020-08-29T08:49:03.000Z</time>
                <name>Trackpoint 377</name>
            </trkpt>
            <trkpt lat="49.7671648" lon="9.511692">
                <ele>138.0</ele>
                <time>2020-08-29T08:49:05.000Z</time>
                <name>Trackpoint 378</name>
            </trkpt>
            <trkpt lat="49.767264" lon="9.5115808">
                <ele>138.0</ele>
                <time>2020-08-29T08:49:07.000Z</time>
                <name>Trackpoint 379</name>
            </trkpt>
            <trkpt lat="49.7673696" lon="9.5114968">
                <ele>137.0</ele>
                <time>2020-08-29T08:49:09.000Z</time>
                <name>Trackpoint 380</name>
            </trkpt>
            <trkpt lat="49.7674688" lon="9.5114136">
                <ele>137.0</ele>
                <time>2020-08-29T08:49:11.000Z</time>
                <name>Trackpoint 381</name>
            </trkpt>
            <trkpt lat="49.7675616" lon="9.511336">
                <ele>136.0</ele>
                <time>2020-08-29T08:49:13.000Z</time>
                <name>Trackpoint 382</name>
            </trkpt>
            <trkpt lat="49.7676704" lon="9.5113184">
                <ele>137.0</ele>
                <time>2020-08-29T08:49:15.000Z</time>
                <name>Trackpoint 383</name>
            </trkpt>
            <trkpt lat="49.7677696" lon="9.5113632">
                <ele>137.0</ele>
                <time>2020-08-29T08:49:17.000Z</time>
                <name>Trackpoint 384</name>
            </trkpt>
            <trkpt lat="49.767856" lon="9.511392">
                <ele>137.0</ele>
                <time>2020-08-29T08:49:19.000Z</time>
                <name>Trackpoint 385</name>
            </trkpt>
            <trkpt lat="49.767952" lon="9.511372">
                <ele>138.0</ele>
                <time>2020-08-29T08:49:21.000Z</time>
                <name>Trackpoint 386</name>
            </trkpt>
            <trkpt lat="49.7680832" lon="9.5113384">
                <ele>138.0</ele>
                <time>2020-08-29T08:49:24.000Z</time>
                <name>Trackpoint 387</name>
            </trkpt>
            <trkpt lat="49.768208" lon="9.5113096">
                <ele>137.0</ele>
                <time>2020-08-29T08:49:27.000Z</time>
                <name>Trackpoint 388</name>
            </trkpt>
            <trkpt lat="49.7683264" lon="9.5112784">
                <ele>137.0</ele>
                <time>2020-08-29T08:49:30.000Z</time>
                <name>Trackpoint 389</name>
            </trkpt>
            <trkpt lat="49.768448" lon="9.5112696">
                <ele>137.0</ele>
                <time>2020-08-29T08:49:33.000Z</time>
                <name>Trackpoint 390</name>
            </trkpt>
            <trkpt lat="49.76856" lon="9.5112536">
                <ele>138.0</ele>
                <time>2020-08-29T08:49:36.000Z</time>
                <name>Trackpoint 391</name>
            </trkpt>
            <trkpt lat="49.768688" lon="9.5112448">
                <ele>137.0</ele>
                <time>2020-08-29T08:49:39.000Z</time>
                <name>Trackpoint 392</name>
            </trkpt>
            <trkpt lat="49.7687808" lon="9.5112336">
                <ele>137.0</ele>
                <time>2020-08-29T08:49:41.000Z</time>
                <name>Trackpoint 393</name>
            </trkpt>
            <trkpt lat="49.768912" lon="9.5112248">
                <ele>138.0</ele>
                <time>2020-08-29T08:49:44.000Z</time>
                <name>Trackpoint 394</name>
            </trkpt>
            <trkpt lat="49.7690272" lon="9.5112304">
                <ele>138.0</ele>
                <time>2020-08-29T08:49:47.000Z</time>
                <name>Trackpoint 395</name>
            </trkpt>
            <trkpt lat="49.7691488" lon="9.511236">
                <ele>139.0</ele>
                <time>2020-08-29T08:49:50.000Z</time>
                <name>Trackpoint 396</name>
            </trkpt>
            <trkpt lat="49.769248" lon="9.5112304">
                <ele>138.0</ele>
                <time>2020-08-29T08:49:53.000Z</time>
                <name>Trackpoint 397</name>
            </trkpt>
            <trkpt lat="49.7693408" lon="9.511236">
                <ele>139.0</ele>
                <time>2020-08-29T08:49:56.000Z</time>
                <name>Trackpoint 398</name>
            </trkpt>
            <trkpt lat="49.7694592" lon="9.511236">
                <ele>139.0</ele>
                <time>2020-08-29T08:49:59.000Z</time>
                <name>Trackpoint 399</name>
            </trkpt>
            <trkpt lat="49.7695936" lon="9.5112464">
                <ele>139.0</ele>
                <time>2020-08-29T08:50:02.000Z</time>
                <name>Trackpoint 400</name>
            </trkpt>
            <trkpt lat="49.7696864" lon="9.5112512">
                <ele>139.0</ele>
                <time>2020-08-29T08:50:04.000Z</time>
                <name>Trackpoint 401</name>
            </trkpt>
            <trkpt lat="49.7697856" lon="9.5112536">
                <ele>139.0</ele>
                <time>2020-08-29T08:50:06.000Z</time>
                <name>Trackpoint 402</name>
            </trkpt>
            <trkpt lat="49.7698912" lon="9.511256">
                <ele>139.0</ele>
                <time>2020-08-29T08:50:08.000Z</time>
                <name>Trackpoint 403</name>
            </trkpt>
            <trkpt lat="49.7700032" lon="9.5112496">
                <ele>139.0</ele>
                <time>2020-08-29T08:50:11.000Z</time>
                <name>Trackpoint 404</name>
            </trkpt>
            <trkpt lat="49.7701216" lon="9.5111752">
                <ele>140.0</ele>
                <time>2020-08-29T08:50:14.000Z</time>
                <name>Trackpoint 405</name>
            </trkpt>
            <trkpt lat="49.770272" lon="9.5111768">
                <ele>140.0</ele>
                <time>2020-08-29T08:50:17.000Z</time>
                <name>Trackpoint 406</name>
            </trkpt>
            <trkpt lat="49.7703936" lon="9.5111936">
                <ele>140.0</ele>
                <time>2020-08-29T08:50:19.000Z</time>
                <name>Trackpoint 407</name>
            </trkpt>
            <trkpt lat="49.7704992" lon="9.5112168">
                <ele>141.0</ele>
                <time>2020-08-29T08:50:21.000Z</time>
                <name>Trackpoint 408</name>
            </trkpt>
            <trkpt lat="49.7706336" lon="9.5112496">
                <ele>141.0</ele>
                <time>2020-08-29T08:50:23.000Z</time>
                <name>Trackpoint 409</name>
            </trkpt>
            <trkpt lat="49.7707744" lon="9.5112696">
                <ele>141.0</ele>
                <time>2020-08-29T08:50:25.000Z</time>
                <name>Trackpoint 410</name>
            </trkpt>
            <trkpt lat="49.770912" lon="9.5112896">
                <ele>141.0</ele>
                <time>2020-08-29T08:50:27.000Z</time>
                <name>Trackpoint 411</name>
            </trkpt>
            <trkpt lat="49.7710304" lon="9.5113136">
                <ele>141.0</ele>
                <time>2020-08-29T08:50:29.000Z</time>
                <name>Trackpoint 412</name>
            </trkpt>
            <trkpt lat="49.7711488" lon="9.5113296">
                <ele>141.0</ele>
                <time>2020-08-29T08:50:31.000Z</time>
                <name>Trackpoint 413</name>
            </trkpt>
            <trkpt lat="49.7712832" lon="9.5113432">
                <ele>142.0</ele>
                <time>2020-08-29T08:50:34.000Z</time>
                <name>Trackpoint 414</name>
            </trkpt>
            <trkpt lat="49.7713952" lon="9.5113832">
                <ele>143.0</ele>
                <time>2020-08-29T08:50:37.000Z</time>
                <name>Trackpoint 415</name>
            </trkpt>
            <trkpt lat="49.7714848" lon="9.5114096">
                <ele>143.0</ele>
                <time>2020-08-29T08:50:39.000Z</time>
                <name>Trackpoint 416</name>
            </trkpt>
            <trkpt lat="49.7715936" lon="9.5113984">
                <ele>143.0</ele>
                <time>2020-08-29T08:50:42.000Z</time>
                <name>Trackpoint 417</name>
            </trkpt>
            <trkpt lat="49.7716928" lon="9.511392">
                <ele>143.0</ele>
                <time>2020-08-29T08:50:44.000Z</time>
                <name>Trackpoint 418</name>
            </trkpt>
            <trkpt lat="49.7718272" lon="9.5114">
                <ele>143.0</ele>
                <time>2020-08-29T08:50:46.000Z</time>
                <name>Trackpoint 419</name>
            </trkpt>
            <trkpt lat="49.7719712" lon="9.5113936">
                <ele>143.0</ele>
                <time>2020-08-29T08:50:48.000Z</time>
                <name>Trackpoint 420</name>
            </trkpt>
            <trkpt lat="49.7721056" lon="9.5113896">
                <ele>144.0</ele>
                <time>2020-08-29T08:50:50.000Z</time>
                <name>Trackpoint 421</name>
            </trkpt>
            <trkpt lat="49.77224" lon="9.5114088">
                <ele>144.0</ele>
                <time>2020-08-29T08:50:52.000Z</time>
                <name>Trackpoint 422</name>
            </trkpt>
            <trkpt lat="49.7723744" lon="9.5114344">
                <ele>144.0</ele>
                <time>2020-08-29T08:50:54.000Z</time>
                <name>Trackpoint 423</name>
            </trkpt>
            <trkpt lat="49.7725024" lon="9.5114736">
                <ele>144.0</ele>
                <time>2020-08-29T08:50:56.000Z</time>
                <name>Trackpoint 424</name>
            </trkpt>
            <trkpt lat="49.7726368" lon="9.51152">
                <ele>144.0</ele>
                <time>2020-08-29T08:50:58.000Z</time>
                <name>Trackpoint 425</name>
            </trkpt>
            <trkpt lat="49.7727616" lon="9.5115584">
                <ele>144.0</ele>
                <time>2020-08-29T08:51:00.000Z</time>
                <name>Trackpoint 426</name>
            </trkpt>
            <trkpt lat="49.7728928" lon="9.5115968">
                <ele>144.0</ele>
                <time>2020-08-29T08:51:02.000Z</time>
                <name>Trackpoint 427</name>
            </trkpt>
            <trkpt lat="49.773024" lon="9.5116264">
                <ele>143.0</ele>
                <time>2020-08-29T08:51:04.000Z</time>
                <name>Trackpoint 428</name>
            </trkpt>
            <trkpt lat="49.7731616" lon="9.5116392">
                <ele>143.0</ele>
                <time>2020-08-29T08:51:06.000Z</time>
                <name>Trackpoint 429</name>
            </trkpt>
            <trkpt lat="49.7732992" lon="9.5116416">
                <ele>143.0</ele>
                <time>2020-08-29T08:51:08.000Z</time>
                <name>Trackpoint 430</name>
            </trkpt>
            <trkpt lat="49.7734336" lon="9.5116432">
                <ele>143.0</ele>
                <time>2020-08-29T08:51:10.000Z</time>
                <name>Trackpoint 431</name>
            </trkpt>
            <trkpt lat="49.7735744" lon="9.5116504">
                <ele>143.0</ele>
                <time>2020-08-29T08:51:12.000Z</time>
                <name>Trackpoint 432</name>
            </trkpt>
            <trkpt lat="49.7737056" lon="9.5116632">
                <ele>143.0</ele>
                <time>2020-08-29T08:51:14.000Z</time>
                <name>Trackpoint 433</name>
            </trkpt>
            <trkpt lat="49.7738304" lon="9.5116752">
                <ele>143.0</ele>
                <time>2020-08-29T08:51:16.000Z</time>
                <name>Trackpoint 434</name>
            </trkpt>
            <trkpt lat="49.7739552" lon="9.5116832">
                <ele>143.0</ele>
                <time>2020-08-29T08:51:18.000Z</time>
                <name>Trackpoint 435</name>
            </trkpt>
            <trkpt lat="49.7740768" lon="9.511692">
                <ele>143.0</ele>
                <time>2020-08-29T08:51:20.000Z</time>
                <name>Trackpoint 436</name>
            </trkpt>
            <trkpt lat="49.7742048" lon="9.511692">
                <ele>143.0</ele>
                <time>2020-08-29T08:51:22.000Z</time>
                <name>Trackpoint 437</name>
            </trkpt>
            <trkpt lat="49.7743296" lon="9.5116984">
                <ele>143.0</ele>
                <time>2020-08-29T08:51:24.000Z</time>
                <name>Trackpoint 438</name>
            </trkpt>
            <trkpt lat="49.774448" lon="9.5117168">
                <ele>143.0</ele>
                <time>2020-08-29T08:51:26.000Z</time>
                <name>Trackpoint 439</name>
            </trkpt>
            <trkpt lat="49.7745696" lon="9.511728">
                <ele>143.0</ele>
                <time>2020-08-29T08:51:28.000Z</time>
                <name>Trackpoint 440</name>
            </trkpt>
            <trkpt lat="49.7746848" lon="9.5117456">
                <ele>143.0</ele>
                <time>2020-08-29T08:51:30.000Z</time>
                <name>Trackpoint 441</name>
            </trkpt>
            <trkpt lat="49.7748032" lon="9.5117648">
                <ele>143.0</ele>
                <time>2020-08-29T08:51:32.000Z</time>
                <name>Trackpoint 442</name>
            </trkpt>
            <trkpt lat="49.7749184" lon="9.5117832">
                <ele>143.0</ele>
                <time>2020-08-29T08:51:34.000Z</time>
                <name>Trackpoint 443</name>
            </trkpt>
            <trkpt lat="49.7750336" lon="9.511804">
                <ele>143.0</ele>
                <time>2020-08-29T08:51:36.000Z</time>
                <name>Trackpoint 444</name>
            </trkpt>
            <trkpt lat="49.7751328" lon="9.51184">
                <ele>143.0</ele>
                <time>2020-08-29T08:51:38.000Z</time>
                <name>Trackpoint 445</name>
            </trkpt>
            <trkpt lat="49.7752384" lon="9.5118576">
                <ele>143.0</ele>
                <time>2020-08-29T08:51:40.000Z</time>
                <name>Trackpoint 446</name>
            </trkpt>
            <trkpt lat="49.7753376" lon="9.511884">
                <ele>143.0</ele>
                <time>2020-08-29T08:51:42.000Z</time>
                <name>Trackpoint 447</name>
            </trkpt>
            <trkpt lat="49.7754368" lon="9.5119016">
                <ele>143.0</ele>
                <time>2020-08-29T08:51:44.000Z</time>
                <name>Trackpoint 448</name>
            </trkpt>
            <trkpt lat="49.7755712" lon="9.5119312">
                <ele>143.0</ele>
                <time>2020-08-29T08:51:47.000Z</time>
                <name>Trackpoint 449</name>
            </trkpt>
            <trkpt lat="49.7756896" lon="9.5119648">
                <ele>143.0</ele>
                <time>2020-08-29T08:51:50.000Z</time>
                <name>Trackpoint 450</name>
            </trkpt>
            <trkpt lat="49.775808" lon="9.5120032">
                <ele>143.0</ele>
                <time>2020-08-29T08:51:53.000Z</time>
                <name>Trackpoint 451</name>
            </trkpt>
            <trkpt lat="49.7759136" lon="9.5120424">
                <ele>143.0</ele>
                <time>2020-08-29T08:51:56.000Z</time>
                <name>Trackpoint 452</name>
            </trkpt>
            <trkpt lat="49.7760192" lon="9.5120832">
                <ele>142.0</ele>
                <time>2020-08-29T08:51:59.000Z</time>
                <name>Trackpoint 453</name>
            </trkpt>
            <trkpt lat="49.7761216" lon="9.5121232">
                <ele>142.0</ele>
                <time>2020-08-29T08:52:02.000Z</time>
                <name>Trackpoint 454</name>
            </trkpt>
            <trkpt lat="49.7762272" lon="9.5121648">
                <ele>142.0</ele>
                <time>2020-08-29T08:52:05.000Z</time>
                <name>Trackpoint 455</name>
            </trkpt>
            <trkpt lat="49.7763264" lon="9.5122072">
                <ele>142.0</ele>
                <time>2020-08-29T08:52:08.000Z</time>
                <name>Trackpoint 456</name>
            </trkpt>
            <trkpt lat="49.7764128" lon="9.5122544">
                <ele>142.0</ele>
                <time>2020-08-29T08:52:12.000Z</time>
                <name>Trackpoint 457</name>
            </trkpt>
            <trkpt lat="49.7765088" lon="9.512288">
                <ele>142.0</ele>
                <time>2020-08-29T08:52:47.000Z</time>
                <name>Trackpoint 458</name>
            </trkpt>
            <trkpt lat="49.7766144" lon="9.5123632">
                <ele>142.0</ele>
                <time>2020-08-29T08:52:51.000Z</time>
                <name>Trackpoint 459</name>
            </trkpt>
            <trkpt lat="49.7766656" lon="9.51246">
                <ele>142.0</ele>
                <time>2020-08-29T08:52:53.000Z</time>
                <name>Trackpoint 460</name>
            </trkpt>
            <trkpt lat="49.7766688" lon="9.51258">
                <ele>142.0</ele>
                <time>2020-08-29T08:52:55.000Z</time>
                <name>Trackpoint 461</name>
            </trkpt>
            <trkpt lat="49.776656" lon="9.5126952">
                <ele>142.0</ele>
                <time>2020-08-29T08:52:57.000Z</time>
                <name>Trackpoint 462</name>
            </trkpt>
            <trkpt lat="49.776688" lon="9.5127936">
                <ele>142.0</ele>
                <time>2020-08-29T08:52:59.000Z</time>
                <name>Trackpoint 463</name>
            </trkpt>
            <trkpt lat="49.7767968" lon="9.5127984">
                <ele>142.0</ele>
                <time>2020-08-29T08:53:02.000Z</time>
                <name>Trackpoint 464</name>
            </trkpt>
            <trkpt lat="49.7768896" lon="9.5127984">
                <ele>142.0</ele>
                <time>2020-08-29T08:53:04.000Z</time>
                <name>Trackpoint 465</name>
            </trkpt>
            <trkpt lat="49.7769856" lon="9.5128152">
                <ele>142.0</ele>
                <time>2020-08-29T08:53:06.000Z</time>
                <name>Trackpoint 466</name>
            </trkpt>
            <trkpt lat="49.7770848" lon="9.51284">
                <ele>142.0</ele>
                <time>2020-08-29T08:53:08.000Z</time>
                <name>Trackpoint 467</name>
            </trkpt>
            <trkpt lat="49.777184" lon="9.51286">
                <ele>142.0</ele>
                <time>2020-08-29T08:53:10.000Z</time>
                <name>Trackpoint 468</name>
            </trkpt>
            <trkpt lat="49.7772864" lon="9.5128832">
                <ele>142.0</ele>
                <time>2020-08-29T08:53:12.000Z</time>
                <name>Trackpoint 469</name>
            </trkpt>
            <trkpt lat="49.7773888" lon="9.5129032">
                <ele>142.0</ele>
                <time>2020-08-29T08:53:14.000Z</time>
                <name>Trackpoint 470</name>
            </trkpt>
            <trkpt lat="49.7774912" lon="9.512928">
                <ele>142.0</ele>
                <time>2020-08-29T08:53:16.000Z</time>
                <name>Trackpoint 471</name>
            </trkpt>
            <trkpt lat="49.7776064" lon="9.5129536">
                <ele>142.0</ele>
                <time>2020-08-29T08:53:18.000Z</time>
                <name>Trackpoint 472</name>
            </trkpt>
            <trkpt lat="49.7777216" lon="9.5129856">
                <ele>142.0</ele>
                <time>2020-08-29T08:53:20.000Z</time>
                <name>Trackpoint 473</name>
            </trkpt>
            <trkpt lat="49.7778272" lon="9.5130264">
                <ele>142.0</ele>
                <time>2020-08-29T08:53:22.000Z</time>
                <name>Trackpoint 474</name>
            </trkpt>
            <trkpt lat="49.777936" lon="9.5130656">
                <ele>142.0</ele>
                <time>2020-08-29T08:53:24.000Z</time>
                <name>Trackpoint 475</name>
            </trkpt>
            <trkpt lat="49.7780416" lon="9.5130952">
                <ele>142.0</ele>
                <time>2020-08-29T08:53:26.000Z</time>
                <name>Trackpoint 476</name>
            </trkpt>
            <trkpt lat="49.7781472" lon="9.5131456">
                <ele>142.0</ele>
                <time>2020-08-29T08:53:28.000Z</time>
                <name>Trackpoint 477</name>
            </trkpt>
            <trkpt lat="49.7782656" lon="9.513188">
                <ele>142.0</ele>
                <time>2020-08-29T08:53:30.000Z</time>
                <name>Trackpoint 478</name>
            </trkpt>
            <trkpt lat="49.7783744" lon="9.5132288">
                <ele>142.0</ele>
                <time>2020-08-29T08:53:32.000Z</time>
                <name>Trackpoint 479</name>
            </trkpt>
            <trkpt lat="49.7784832" lon="9.5132664">
                <ele>142.0</ele>
                <time>2020-08-29T08:53:34.000Z</time>
                <name>Trackpoint 480</name>
            </trkpt>
            <trkpt lat="49.7785952" lon="9.5133104">
                <ele>142.0</ele>
                <time>2020-08-29T08:53:36.000Z</time>
                <name>Trackpoint 481</name>
            </trkpt>
            <trkpt lat="49.7787008" lon="9.5133464">
                <ele>142.0</ele>
                <time>2020-08-29T08:53:38.000Z</time>
                <name>Trackpoint 482</name>
            </trkpt>
            <trkpt lat="49.7788032" lon="9.513396">
                <ele>142.0</ele>
                <time>2020-08-29T08:53:40.000Z</time>
                <name>Trackpoint 483</name>
            </trkpt>
            <trkpt lat="49.7789088" lon="9.5134384">
                <ele>142.0</ele>
                <time>2020-08-29T08:53:42.000Z</time>
                <name>Trackpoint 484</name>
            </trkpt>
            <trkpt lat="49.7790176" lon="9.513476">
                <ele>142.0</ele>
                <time>2020-08-29T08:53:44.000Z</time>
                <name>Trackpoint 485</name>
            </trkpt>
            <trkpt lat="49.7791264" lon="9.5135152">
                <ele>142.0</ele>
                <time>2020-08-29T08:53:46.000Z</time>
                <name>Trackpoint 486</name>
            </trkpt>
            <trkpt lat="49.779232" lon="9.5135536">
                <ele>142.0</ele>
                <time>2020-08-29T08:53:48.000Z</time>
                <name>Trackpoint 487</name>
            </trkpt>
            <trkpt lat="49.7793344" lon="9.5135936">
                <ele>142.0</ele>
                <time>2020-08-29T08:53:50.000Z</time>
                <name>Trackpoint 488</name>
            </trkpt>
            <trkpt lat="49.7794432" lon="9.5136296">
                <ele>142.0</ele>
                <time>2020-08-29T08:53:52.000Z</time>
                <name>Trackpoint 489</name>
            </trkpt>
            <trkpt lat="49.7795456" lon="9.5136672">
                <ele>142.0</ele>
                <time>2020-08-29T08:53:54.000Z</time>
                <name>Trackpoint 490</name>
            </trkpt>
            <trkpt lat="49.7796544" lon="9.5136872">
                <ele>142.0</ele>
                <time>2020-08-29T08:53:56.000Z</time>
                <name>Trackpoint 491</name>
            </trkpt>
            <trkpt lat="49.7797696" lon="9.5137056">
                <ele>142.0</ele>
                <time>2020-08-29T08:53:58.000Z</time>
                <name>Trackpoint 492</name>
            </trkpt>
            <trkpt lat="49.779888" lon="9.5137232">
                <ele>142.0</ele>
                <time>2020-08-29T08:54:00.000Z</time>
                <name>Trackpoint 493</name>
            </trkpt>
            <trkpt lat="49.7799936" lon="9.5137384">
                <ele>142.0</ele>
                <time>2020-08-29T08:54:02.000Z</time>
                <name>Trackpoint 494</name>
            </trkpt>
            <trkpt lat="49.7801088" lon="9.513748">
                <ele>142.0</ele>
                <time>2020-08-29T08:54:04.000Z</time>
                <name>Trackpoint 495</name>
            </trkpt>
            <trkpt lat="49.7802272" lon="9.51376">
                <ele>142.0</ele>
                <time>2020-08-29T08:54:06.000Z</time>
                <name>Trackpoint 496</name>
            </trkpt>
            <trkpt lat="49.7803392" lon="9.513772">
                <ele>142.0</ele>
                <time>2020-08-29T08:54:08.000Z</time>
                <name>Trackpoint 497</name>
            </trkpt>
            <trkpt lat="49.780448" lon="9.5137728">
                <ele>142.0</ele>
                <time>2020-08-29T08:54:10.000Z</time>
                <name>Trackpoint 498</name>
            </trkpt>
            <trkpt lat="49.7805632" lon="9.5137752">
                <ele>142.0</ele>
                <time>2020-08-29T08:54:12.000Z</time>
                <name>Trackpoint 499</name>
            </trkpt>
            <trkpt lat="49.7806688" lon="9.5137704">
                <ele>142.0</ele>
                <time>2020-08-29T08:54:14.000Z</time>
                <name>Trackpoint 500</name>
            </trkpt>
            <trkpt lat="49.7807808" lon="9.51378">
                <ele>142.0</ele>
                <time>2020-08-29T08:54:16.000Z</time>
                <name>Trackpoint 501</name>
            </trkpt>
            <trkpt lat="49.7808928" lon="9.51378">
                <ele>142.0</ele>
                <time>2020-08-29T08:54:18.000Z</time>
                <name>Trackpoint 502</name>
            </trkpt>
            <trkpt lat="49.7810016" lon="9.5137768">
                <ele>142.0</ele>
                <time>2020-08-29T08:54:20.000Z</time>
                <name>Trackpoint 503</name>
            </trkpt>
            <trkpt lat="49.7811168" lon="9.5137632">
                <ele>142.0</ele>
                <time>2020-08-29T08:54:22.000Z</time>
                <name>Trackpoint 504</name>
            </trkpt>
            <trkpt lat="49.7812192" lon="9.5137432">
                <ele>142.0</ele>
                <time>2020-08-29T08:54:24.000Z</time>
                <name>Trackpoint 505</name>
            </trkpt>
            <trkpt lat="49.7813248" lon="9.5137232">
                <ele>142.0</ele>
                <time>2020-08-29T08:54:26.000Z</time>
                <name>Trackpoint 506</name>
            </trkpt>
            <trkpt lat="49.7814432" lon="9.5136968">
                <ele>141.0</ele>
                <time>2020-08-29T08:54:28.000Z</time>
                <name>Trackpoint 507</name>
            </trkpt>
            <trkpt lat="49.7815392" lon="9.5136856">
                <ele>141.0</ele>
                <time>2020-08-29T08:54:30.000Z</time>
                <name>Trackpoint 508</name>
            </trkpt>
            <trkpt lat="49.781632" lon="9.5136696">
                <ele>141.0</ele>
                <time>2020-08-29T08:54:32.000Z</time>
                <name>Trackpoint 509</name>
            </trkpt>
            <trkpt lat="49.7817536" lon="9.5136472">
                <ele>140.0</ele>
                <time>2020-08-29T08:54:35.000Z</time>
                <name>Trackpoint 510</name>
            </trkpt>
            <trkpt lat="49.781872" lon="9.5136136">
                <ele>140.0</ele>
                <time>2020-08-29T08:54:38.000Z</time>
                <name>Trackpoint 511</name>
            </trkpt>
            <trkpt lat="49.7819648" lon="9.5135744">
                <ele>141.0</ele>
                <time>2020-08-29T08:54:40.000Z</time>
                <name>Trackpoint 512</name>
            </trkpt>
            <trkpt lat="49.7820544" lon="9.5135296">
                <ele>140.0</ele>
                <time>2020-08-29T08:54:42.000Z</time>
                <name>Trackpoint 513</name>
            </trkpt>
            <trkpt lat="49.7821472" lon="9.5134824">
                <ele>140.0</ele>
                <time>2020-08-29T08:54:44.000Z</time>
                <name>Trackpoint 514</name>
            </trkpt>
            <trkpt lat="49.7822368" lon="9.5134336">
                <ele>140.0</ele>
                <time>2020-08-29T08:54:46.000Z</time>
                <name>Trackpoint 515</name>
            </trkpt>
            <trkpt lat="49.7823296" lon="9.5133784">
                <ele>140.0</ele>
                <time>2020-08-29T08:54:48.000Z</time>
                <name>Trackpoint 516</name>
            </trkpt>
            <trkpt lat="49.7824128" lon="9.5133248">
                <ele>140.0</ele>
                <time>2020-08-29T08:54:50.000Z</time>
                <name>Trackpoint 517</name>
            </trkpt>
            <trkpt lat="49.782496" lon="9.5132768">
                <ele>140.0</ele>
                <time>2020-08-29T08:54:52.000Z</time>
                <name>Trackpoint 518</name>
            </trkpt>
            <trkpt lat="49.7826016" lon="9.51322">
                <ele>139.0</ele>
                <time>2020-08-29T08:54:55.000Z</time>
                <name>Trackpoint 519</name>
            </trkpt>
            <trkpt lat="49.782688" lon="9.5131664">
                <ele>139.0</ele>
                <time>2020-08-29T08:54:59.000Z</time>
                <name>Trackpoint 520</name>
            </trkpt>
            <trkpt lat="49.7827648" lon="9.5131064">
                <ele>140.0</ele>
                <time>2020-08-29T08:55:46.000Z</time>
                <name>Trackpoint 521</name>
            </trkpt>
            <trkpt lat="49.782848" lon="9.5130584">
                <ele>140.0</ele>
                <time>2020-08-29T08:55:52.000Z</time>
                <name>Trackpoint 522</name>
            </trkpt>
            <trkpt lat="49.7829536" lon="9.5130168">
                <ele>140.0</ele>
                <time>2020-08-29T08:55:55.000Z</time>
                <name>Trackpoint 523</name>
            </trkpt>
            <trkpt lat="49.7830304" lon="9.5129672">
                <ele>140.0</ele>
                <time>2020-08-29T08:55:57.000Z</time>
                <name>Trackpoint 524</name>
            </trkpt>
            <trkpt lat="49.7831072" lon="9.5129096">
                <ele>140.0</ele>
                <time>2020-08-29T08:55:59.000Z</time>
                <name>Trackpoint 525</name>
            </trkpt>
            <trkpt lat="49.7831904" lon="9.51284">
                <ele>140.0</ele>
                <time>2020-08-29T08:56:01.000Z</time>
                <name>Trackpoint 526</name>
            </trkpt>
            <trkpt lat="49.78328" lon="9.5127688">
                <ele>140.0</ele>
                <time>2020-08-29T08:56:03.000Z</time>
                <name>Trackpoint 527</name>
            </trkpt>
            <trkpt lat="49.7833696" lon="9.5127032">
                <ele>140.0</ele>
                <time>2020-08-29T08:56:05.000Z</time>
                <name>Trackpoint 528</name>
            </trkpt>
            <trkpt lat="49.7834624" lon="9.5126336">
                <ele>140.0</ele>
                <time>2020-08-29T08:56:07.000Z</time>
                <name>Trackpoint 529</name>
            </trkpt>
            <trkpt lat="49.7835552" lon="9.5125568">
                <ele>140.0</ele>
                <time>2020-08-29T08:56:09.000Z</time>
                <name>Trackpoint 530</name>
            </trkpt>
            <trkpt lat="49.7836416" lon="9.5124728">
                <ele>140.0</ele>
                <time>2020-08-29T08:56:11.000Z</time>
                <name>Trackpoint 531</name>
            </trkpt>
            <trkpt lat="49.7837344" lon="9.5123928">
                <ele>139.0</ele>
                <time>2020-08-29T08:56:13.000Z</time>
                <name>Trackpoint 532</name>
            </trkpt>
            <trkpt lat="49.783824" lon="9.5123128">
                <ele>140.0</ele>
                <time>2020-08-29T08:56:15.000Z</time>
                <name>Trackpoint 533</name>
            </trkpt>
            <trkpt lat="49.7839136" lon="9.5122344">
                <ele>140.0</ele>
                <time>2020-08-29T08:56:17.000Z</time>
                <name>Trackpoint 534</name>
            </trkpt>
            <trkpt lat="49.7839936" lon="9.512148">
                <ele>139.0</ele>
                <time>2020-08-29T08:56:19.000Z</time>
                <name>Trackpoint 535</name>
            </trkpt>
            <trkpt lat="49.784064" lon="9.5120648">
                <ele>139.0</ele>
                <time>2020-08-29T08:56:21.000Z</time>
                <name>Trackpoint 536</name>
            </trkpt>
            <trkpt lat="49.7841376" lon="9.5119848">
                <ele>139.0</ele>
                <time>2020-08-29T08:56:23.000Z</time>
                <name>Trackpoint 537</name>
            </trkpt>
            <trkpt lat="49.7842112" lon="9.5119104">
                <ele>139.0</ele>
                <time>2020-08-29T08:56:25.000Z</time>
                <name>Trackpoint 538</name>
            </trkpt>
            <trkpt lat="49.7843008" lon="9.5119584">
                <ele>139.0</ele>
                <time>2020-08-29T08:56:28.000Z</time>
                <name>Trackpoint 539</name>
            </trkpt>
            <trkpt lat="49.7843712" lon="9.5120232">
                <ele>139.0</ele>
                <time>2020-08-29T08:56:31.000Z</time>
                <name>Trackpoint 540</name>
            </trkpt>
            <trkpt lat="49.7844768" lon="9.5119368">
                <ele>139.0</ele>
                <time>2020-08-29T08:56:34.000Z</time>
                <name>Trackpoint 541</name>
            </trkpt>
            <trkpt lat="49.7845504" lon="9.511864">
                <ele>139.0</ele>
                <time>2020-08-29T08:56:36.000Z</time>
                <name>Trackpoint 542</name>
            </trkpt>
            <trkpt lat="49.7846208" lon="9.5117864">
                <ele>139.0</ele>
                <time>2020-08-29T08:56:38.000Z</time>
                <name>Trackpoint 543</name>
            </trkpt>
            <trkpt lat="49.7846912" lon="9.5117032">
                <ele>139.0</ele>
                <time>2020-08-29T08:56:40.000Z</time>
                <name>Trackpoint 544</name>
            </trkpt>
            <trkpt lat="49.7847648" lon="9.5116184">
                <ele>139.0</ele>
                <time>2020-08-29T08:56:42.000Z</time>
                <name>Trackpoint 545</name>
            </trkpt>
            <trkpt lat="49.7848448" lon="9.5115336">
                <ele>139.0</ele>
                <time>2020-08-29T08:56:44.000Z</time>
                <name>Trackpoint 546</name>
            </trkpt>
            <trkpt lat="49.784928" lon="9.5114432">
                <ele>139.0</ele>
                <time>2020-08-29T08:56:46.000Z</time>
                <name>Trackpoint 547</name>
            </trkpt>
            <trkpt lat="49.785008" lon="9.511336">
                <ele>139.0</ele>
                <time>2020-08-29T08:56:48.000Z</time>
                <name>Trackpoint 548</name>
            </trkpt>
            <trkpt lat="49.7850784" lon="9.5112216">
                <ele>139.0</ele>
                <time>2020-08-29T08:56:50.000Z</time>
                <name>Trackpoint 549</name>
            </trkpt>
            <trkpt lat="49.7851648" lon="9.511124">
                <ele>139.0</ele>
                <time>2020-08-29T08:56:52.000Z</time>
                <name>Trackpoint 550</name>
            </trkpt>
            <trkpt lat="49.7852512" lon="9.5110184">
                <ele>139.0</ele>
                <time>2020-08-29T08:56:54.000Z</time>
                <name>Trackpoint 551</name>
            </trkpt>
            <trkpt lat="49.7853312" lon="9.510912">
                <ele>139.0</ele>
                <time>2020-08-29T08:56:56.000Z</time>
                <name>Trackpoint 552</name>
            </trkpt>
            <trkpt lat="49.7854112" lon="9.510808">
                <ele>139.0</ele>
                <time>2020-08-29T08:56:58.000Z</time>
                <name>Trackpoint 553</name>
            </trkpt>
            <trkpt lat="49.7854912" lon="9.5106936">
                <ele>139.0</ele>
                <time>2020-08-29T08:57:00.000Z</time>
                <name>Trackpoint 554</name>
            </trkpt>
            <trkpt lat="49.785568" lon="9.5105816">
                <ele>139.0</ele>
                <time>2020-08-29T08:57:02.000Z</time>
                <name>Trackpoint 555</name>
            </trkpt>
            <trkpt lat="49.785648" lon="9.510464">
                <ele>139.0</ele>
                <time>2020-08-29T08:57:04.000Z</time>
                <name>Trackpoint 556</name>
            </trkpt>
            <trkpt lat="49.785728" lon="9.510348">
                <ele>140.0</ele>
                <time>2020-08-29T08:57:06.000Z</time>
                <name>Trackpoint 557</name>
            </trkpt>
            <trkpt lat="49.7858048" lon="9.5102168">
                <ele>140.0</ele>
                <time>2020-08-29T08:57:08.000Z</time>
                <name>Trackpoint 558</name>
            </trkpt>
            <trkpt lat="49.7858848" lon="9.5100848">
                <ele>140.0</ele>
                <time>2020-08-29T08:57:10.000Z</time>
                <name>Trackpoint 559</name>
            </trkpt>
            <trkpt lat="49.7859616" lon="9.509936">
                <ele>140.0</ele>
                <time>2020-08-29T08:57:12.000Z</time>
                <name>Trackpoint 560</name>
            </trkpt>
            <trkpt lat="49.7860352" lon="9.5097912">
                <ele>140.0</ele>
                <time>2020-08-29T08:57:14.000Z</time>
                <name>Trackpoint 561</name>
            </trkpt>
            <trkpt lat="49.7861088" lon="9.5096464">
                <ele>140.0</ele>
                <time>2020-08-29T08:57:16.000Z</time>
                <name>Trackpoint 562</name>
            </trkpt>
            <trkpt lat="49.786176" lon="9.5094992">
                <ele>140.0</ele>
                <time>2020-08-29T08:57:18.000Z</time>
                <name>Trackpoint 563</name>
            </trkpt>
            <trkpt lat="49.7862368" lon="9.5093416">
                <ele>140.0</ele>
                <time>2020-08-29T08:57:20.000Z</time>
                <name>Trackpoint 564</name>
            </trkpt>
            <trkpt lat="49.7862976" lon="9.509176">
                <ele>140.0</ele>
                <time>2020-08-29T08:57:22.000Z</time>
                <name>Trackpoint 565</name>
            </trkpt>
            <trkpt lat="49.7863488" lon="9.5090048">
                <ele>140.0</ele>
                <time>2020-08-29T08:57:24.000Z</time>
                <name>Trackpoint 566</name>
            </trkpt>
            <trkpt lat="49.7864128" lon="9.5088352">
                <ele>140.0</ele>
                <time>2020-08-29T08:57:26.000Z</time>
                <name>Trackpoint 567</name>
            </trkpt>
            <trkpt lat="49.7864384" lon="9.5087472">
                <ele>140.0</ele>
                <time>2020-08-29T08:57:27.000Z</time>
                <name>Trackpoint 568</name>
            </trkpt>
            <trkpt lat="49.7864928" lon="9.5085784">
                <ele>140.0</ele>
                <time>2020-08-29T08:57:29.000Z</time>
                <name>Trackpoint 569</name>
            </trkpt>
            <trkpt lat="49.7865536" lon="9.50844">
                <ele>140.0</ele>
                <time>2020-08-29T08:57:31.000Z</time>
                <name>Trackpoint 570</name>
            </trkpt>
            <trkpt lat="49.7866144" lon="9.5083368">
                <ele>140.0</ele>
                <time>2020-08-29T08:57:33.000Z</time>
                <name>Trackpoint 571</name>
            </trkpt>
            <trkpt lat="49.786672" lon="9.508208">
                <ele>140.0</ele>
                <time>2020-08-29T08:57:35.000Z</time>
                <name>Trackpoint 572</name>
            </trkpt>
            <trkpt lat="49.7867264" lon="9.508068">
                <ele>140.0</ele>
                <time>2020-08-29T08:57:37.000Z</time>
                <name>Trackpoint 573</name>
            </trkpt>
            <trkpt lat="49.786784" lon="9.5079232">
                <ele>140.0</ele>
                <time>2020-08-29T08:57:39.000Z</time>
                <name>Trackpoint 574</name>
            </trkpt>
            <trkpt lat="49.7868512" lon="9.5077752">
                <ele>140.0</ele>
                <time>2020-08-29T08:57:41.000Z</time>
                <name>Trackpoint 575</name>
            </trkpt>
            <trkpt lat="49.7869152" lon="9.5076336">
                <ele>140.0</ele>
                <time>2020-08-29T08:57:43.000Z</time>
                <name>Trackpoint 576</name>
            </trkpt>
            <trkpt lat="49.7869888" lon="9.5074928">
                <ele>140.0</ele>
                <time>2020-08-29T08:57:45.000Z</time>
                <name>Trackpoint 577</name>
            </trkpt>
            <trkpt lat="49.7870688" lon="9.5073768">
                <ele>140.0</ele>
                <time>2020-08-29T08:57:47.000Z</time>
                <name>Trackpoint 578</name>
            </trkpt>
            <trkpt lat="49.7871424" lon="9.5072448">
                <ele>140.0</ele>
                <time>2020-08-29T08:57:49.000Z</time>
                <name>Trackpoint 579</name>
            </trkpt>
            <trkpt lat="49.7872192" lon="9.5071296">
                <ele>140.0</ele>
                <time>2020-08-29T08:57:51.000Z</time>
                <name>Trackpoint 580</name>
            </trkpt>
            <trkpt lat="49.7872736" lon="9.507">
                <ele>141.0</ele>
                <time>2020-08-29T08:57:53.000Z</time>
                <name>Trackpoint 581</name>
            </trkpt>
            <trkpt lat="49.7873344" lon="9.5068616">
                <ele>141.0</ele>
                <time>2020-08-29T08:57:55.000Z</time>
                <name>Trackpoint 582</name>
            </trkpt>
            <trkpt lat="49.7874016" lon="9.5067264">
                <ele>141.0</ele>
                <time>2020-08-29T08:57:57.000Z</time>
                <name>Trackpoint 583</name>
            </trkpt>
            <trkpt lat="49.787472" lon="9.5065872">
                <ele>141.0</ele>
                <time>2020-08-29T08:57:59.000Z</time>
                <name>Trackpoint 584</name>
            </trkpt>
            <trkpt lat="49.7875456" lon="9.5064448">
                <ele>141.0</ele>
                <time>2020-08-29T08:58:01.000Z</time>
                <name>Trackpoint 585</name>
            </trkpt>
            <trkpt lat="49.787616" lon="9.506304">
                <ele>141.0</ele>
                <time>2020-08-29T08:58:03.000Z</time>
                <name>Trackpoint 586</name>
            </trkpt>
            <trkpt lat="49.7876928" lon="9.5061648">
                <ele>141.0</ele>
                <time>2020-08-29T08:58:05.000Z</time>
                <name>Trackpoint 587</name>
            </trkpt>
            <trkpt lat="49.7877696" lon="9.5060352">
                <ele>141.0</ele>
                <time>2020-08-29T08:58:07.000Z</time>
                <name>Trackpoint 588</name>
            </trkpt>
            <trkpt lat="49.7878432" lon="9.5058944">
                <ele>141.0</ele>
                <time>2020-08-29T08:58:09.000Z</time>
                <name>Trackpoint 589</name>
            </trkpt>
            <trkpt lat="49.7879072" lon="9.505752">
                <ele>141.0</ele>
                <time>2020-08-29T08:58:11.000Z</time>
                <name>Trackpoint 590</name>
            </trkpt>
            <trkpt lat="49.7879712" lon="9.5056064">
                <ele>141.0</ele>
                <time>2020-08-29T08:58:13.000Z</time>
                <name>Trackpoint 591</name>
            </trkpt>
            <trkpt lat="49.7880448" lon="9.5054616">
                <ele>141.0</ele>
                <time>2020-08-29T08:58:15.000Z</time>
                <name>Trackpoint 592</name>
            </trkpt>
            <trkpt lat="49.7881248" lon="9.5053232">
                <ele>141.0</ele>
                <time>2020-08-29T08:58:17.000Z</time>
                <name>Trackpoint 593</name>
            </trkpt>
            <trkpt lat="49.788192" lon="9.5051768">
                <ele>141.0</ele>
                <time>2020-08-29T08:58:19.000Z</time>
                <name>Trackpoint 594</name>
            </trkpt>
            <trkpt lat="49.788256" lon="9.5050448">
                <ele>141.0</ele>
                <time>2020-08-29T08:58:21.000Z</time>
                <name>Trackpoint 595</name>
            </trkpt>
            <trkpt lat="49.7883296" lon="9.5049152">
                <ele>141.0</ele>
                <time>2020-08-29T08:58:23.000Z</time>
                <name>Trackpoint 596</name>
            </trkpt>
            <trkpt lat="49.7883936" lon="9.504788">
                <ele>141.0</ele>
                <time>2020-08-29T08:58:25.000Z</time>
                <name>Trackpoint 597</name>
            </trkpt>
            <trkpt lat="49.788464" lon="9.5046616">
                <ele>141.0</ele>
                <time>2020-08-29T08:58:27.000Z</time>
                <name>Trackpoint 598</name>
            </trkpt>
            <trkpt lat="49.788528" lon="9.504532">
                <ele>141.0</ele>
                <time>2020-08-29T08:58:29.000Z</time>
                <name>Trackpoint 599</name>
            </trkpt>
            <trkpt lat="49.7886016" lon="9.5043968">
                <ele>141.0</ele>
                <time>2020-08-29T08:58:31.000Z</time>
                <name>Trackpoint 600</name>
            </trkpt>
            <trkpt lat="49.7886688" lon="9.5042616">
                <ele>140.0</ele>
                <time>2020-08-29T08:58:33.000Z</time>
                <name>Trackpoint 601</name>
            </trkpt>
            <trkpt lat="49.7887264" lon="9.5041216">
                <ele>140.0</ele>
                <time>2020-08-29T08:58:35.000Z</time>
                <name>Trackpoint 602</name>
            </trkpt>
            <trkpt lat="49.7887968" lon="9.5039904">
                <ele>140.0</ele>
                <time>2020-08-29T08:58:37.000Z</time>
                <name>Trackpoint 603</name>
            </trkpt>
            <trkpt lat="49.7888384" lon="9.5038536">
                <ele>140.0</ele>
                <time>2020-08-29T08:58:39.000Z</time>
                <name>Trackpoint 604</name>
            </trkpt>
            <trkpt lat="49.7888832" lon="9.5037384">
                <ele>140.0</ele>
                <time>2020-08-29T08:58:41.000Z</time>
                <name>Trackpoint 605</name>
            </trkpt>
            <trkpt lat="49.7889248" lon="9.5036232">
                <ele>139.0</ele>
                <time>2020-08-29T08:58:43.000Z</time>
                <name>Trackpoint 606</name>
            </trkpt>
            <trkpt lat="49.78896" lon="9.503504">
                <ele>139.0</ele>
                <time>2020-08-29T08:58:45.000Z</time>
                <name>Trackpoint 607</name>
            </trkpt>
            <trkpt lat="49.7889984" lon="9.5034136">
                <ele>139.0</ele>
                <time>2020-08-29T08:58:47.000Z</time>
                <name>Trackpoint 608</name>
            </trkpt>
            <trkpt lat="49.7890368" lon="9.5033056">
                <ele>139.0</ele>
                <time>2020-08-29T08:58:49.000Z</time>
                <name>Trackpoint 609</name>
            </trkpt>
            <trkpt lat="49.7890816" lon="9.503192">
                <ele>138.0</ele>
                <time>2020-08-29T08:58:51.000Z</time>
                <name>Trackpoint 610</name>
            </trkpt>
            <trkpt lat="49.78912" lon="9.5030496">
                <ele>138.0</ele>
                <time>2020-08-29T08:58:53.000Z</time>
                <name>Trackpoint 611</name>
            </trkpt>
            <trkpt lat="49.7891616" lon="9.5029">
                <ele>138.0</ele>
                <time>2020-08-29T08:58:55.000Z</time>
                <name>Trackpoint 612</name>
            </trkpt>
            <trkpt lat="49.789184" lon="9.5027568">
                <ele>138.0</ele>
                <time>2020-08-29T08:58:57.000Z</time>
                <name>Trackpoint 613</name>
            </trkpt>
            <trkpt lat="49.7892224" lon="9.5026184">
                <ele>137.0</ele>
                <time>2020-08-29T08:58:59.000Z</time>
                <name>Trackpoint 614</name>
            </trkpt>
            <trkpt lat="49.7892608" lon="9.5024664">
                <ele>136.0</ele>
                <time>2020-08-29T08:59:01.000Z</time>
                <name>Trackpoint 615</name>
            </trkpt>
            <trkpt lat="49.7892864" lon="9.5023168">
                <ele>135.0</ele>
                <time>2020-08-29T08:59:03.000Z</time>
                <name>Trackpoint 616</name>
            </trkpt>
            <trkpt lat="49.789312" lon="9.5021552">
                <ele>135.0</ele>
                <time>2020-08-29T08:59:05.000Z</time>
                <name>Trackpoint 617</name>
            </trkpt>
            <trkpt lat="49.7893344" lon="9.5019816">
                <ele>134.0</ele>
                <time>2020-08-29T08:59:07.000Z</time>
                <name>Trackpoint 618</name>
            </trkpt>
            <trkpt lat="49.78936" lon="9.50182">
                <ele>134.0</ele>
                <time>2020-08-29T08:59:09.000Z</time>
                <name>Trackpoint 619</name>
            </trkpt>
            <trkpt lat="49.7893952" lon="9.5016744">
                <ele>133.0</ele>
                <time>2020-08-29T08:59:11.000Z</time>
                <name>Trackpoint 620</name>
            </trkpt>
            <trkpt lat="49.7894176" lon="9.5015096">
                <ele>133.0</ele>
                <time>2020-08-29T08:59:13.000Z</time>
                <name>Trackpoint 621</name>
            </trkpt>
            <trkpt lat="49.78944" lon="9.5013448">
                <ele>134.0</ele>
                <time>2020-08-29T08:59:15.000Z</time>
                <name>Trackpoint 622</name>
            </trkpt>
            <trkpt lat="49.7894528" lon="9.5012528">
                <ele>134.0</ele>
                <time>2020-08-29T08:59:16.000Z</time>
                <name>Trackpoint 623</name>
            </trkpt>
            <trkpt lat="49.7894656" lon="9.5010768">
                <ele>134.0</ele>
                <time>2020-08-29T08:59:18.000Z</time>
                <name>Trackpoint 624</name>
            </trkpt>
            <trkpt lat="49.7894848" lon="9.5009048">
                <ele>134.0</ele>
                <time>2020-08-29T08:59:20.000Z</time>
                <name>Trackpoint 625</name>
            </trkpt>
            <trkpt lat="49.7894944" lon="9.5008136">
                <ele>134.0</ele>
                <time>2020-08-29T08:59:21.000Z</time>
                <name>Trackpoint 626</name>
            </trkpt>
            <trkpt lat="49.789504" lon="9.500644">
                <ele>134.0</ele>
                <time>2020-08-29T08:59:23.000Z</time>
                <name>Trackpoint 627</name>
            </trkpt>
            <trkpt lat="49.7895168" lon="9.5004832">
                <ele>135.0</ele>
                <time>2020-08-29T08:59:25.000Z</time>
                <name>Trackpoint 628</name>
            </trkpt>
            <trkpt lat="49.78952" lon="9.5003184">
                <ele>134.0</ele>
                <time>2020-08-29T08:59:27.000Z</time>
                <name>Trackpoint 629</name>
            </trkpt>
            <trkpt lat="49.7895328" lon="9.5001568">
                <ele>134.0</ele>
                <time>2020-08-29T08:59:29.000Z</time>
                <name>Trackpoint 630</name>
            </trkpt>
            <trkpt lat="49.789536" lon="9.4999936">
                <ele>134.0</ele>
                <time>2020-08-29T08:59:31.000Z</time>
                <name>Trackpoint 631</name>
            </trkpt>
            <trkpt lat="49.7895392" lon="9.4998312">
                <ele>134.0</ele>
                <time>2020-08-29T08:59:33.000Z</time>
                <name>Trackpoint 632</name>
            </trkpt>
            <trkpt lat="49.7895424" lon="9.4996656">
                <ele>134.0</ele>
                <time>2020-08-29T08:59:35.000Z</time>
                <name>Trackpoint 633</name>
            </trkpt>
            <trkpt lat="49.7895424" lon="9.4994944">
                <ele>134.0</ele>
                <time>2020-08-29T08:59:37.000Z</time>
                <name>Trackpoint 634</name>
            </trkpt>
            <trkpt lat="49.7895456" lon="9.4993264">
                <ele>134.0</ele>
                <time>2020-08-29T08:59:39.000Z</time>
                <name>Trackpoint 635</name>
            </trkpt>
            <trkpt lat="49.789552" lon="9.49916">
                <ele>134.0</ele>
                <time>2020-08-29T08:59:41.000Z</time>
                <name>Trackpoint 636</name>
            </trkpt>
            <trkpt lat="49.7895552" lon="9.498988">
                <ele>134.0</ele>
                <time>2020-08-29T08:59:43.000Z</time>
                <name>Trackpoint 637</name>
            </trkpt>
            <trkpt lat="49.7895584" lon="9.4988184">
                <ele>135.0</ele>
                <time>2020-08-29T08:59:45.000Z</time>
                <name>Trackpoint 638</name>
            </trkpt>
            <trkpt lat="49.7895616" lon="9.4986496">
                <ele>135.0</ele>
                <time>2020-08-29T08:59:47.000Z</time>
                <name>Trackpoint 639</name>
            </trkpt>
            <trkpt lat="49.7895712" lon="9.4984816">
                <ele>135.0</ele>
                <time>2020-08-29T08:59:49.000Z</time>
                <name>Trackpoint 640</name>
            </trkpt>
            <trkpt lat="49.789584" lon="9.4983128">
                <ele>136.0</ele>
                <time>2020-08-29T08:59:51.000Z</time>
                <name>Trackpoint 641</name>
            </trkpt>
            <trkpt lat="49.7895968" lon="9.4981496">
                <ele>136.0</ele>
                <time>2020-08-29T08:59:53.000Z</time>
                <name>Trackpoint 642</name>
            </trkpt>
            <trkpt lat="49.7896096" lon="9.4980024">
                <ele>136.0</ele>
                <time>2020-08-29T08:59:55.000Z</time>
                <name>Trackpoint 643</name>
            </trkpt>
            <trkpt lat="49.7896192" lon="9.4978952">
                <ele>136.0</ele>
                <time>2020-08-29T08:59:57.000Z</time>
                <name>Trackpoint 644</name>
            </trkpt>
            <trkpt lat="49.7896192" lon="9.4977968">
                <ele>138.0</ele>
                <time>2020-08-29T09:00:39.000Z</time>
                <name>Trackpoint 645</name>
            </trkpt>
            <trkpt lat="49.7896352" lon="9.4976816">
                <ele>138.0</ele>
                <time>2020-08-29T09:00:42.000Z</time>
                <name>Trackpoint 646</name>
            </trkpt>
            <trkpt lat="49.7896448" lon="9.4975728">
                <ele>138.0</ele>
                <time>2020-08-29T09:00:45.000Z</time>
                <name>Trackpoint 647</name>
            </trkpt>
            <trkpt lat="49.7896608" lon="9.4974768">
                <ele>137.0</ele>
                <time>2020-08-29T09:00:48.000Z</time>
                <name>Trackpoint 648</name>
            </trkpt>
            <trkpt lat="49.7896736" lon="9.4973768">
                <ele>137.0</ele>
                <time>2020-08-29T09:00:51.000Z</time>
                <name>Trackpoint 649</name>
            </trkpt>
            <trkpt lat="49.7896896" lon="9.4972352">
                <ele>137.0</ele>
                <time>2020-08-29T09:00:54.000Z</time>
                <name>Trackpoint 650</name>
            </trkpt>
            <trkpt lat="49.789696" lon="9.4971112">
                <ele>137.0</ele>
                <time>2020-08-29T09:00:56.000Z</time>
                <name>Trackpoint 651</name>
            </trkpt>
            <trkpt lat="49.7897056" lon="9.496968">
                <ele>137.0</ele>
                <time>2020-08-29T09:00:58.000Z</time>
                <name>Trackpoint 652</name>
            </trkpt>
            <trkpt lat="49.7897184" lon="9.4968184">
                <ele>137.0</ele>
                <time>2020-08-29T09:01:00.000Z</time>
                <name>Trackpoint 653</name>
            </trkpt>
            <trkpt lat="49.7897312" lon="9.496672">
                <ele>137.0</ele>
                <time>2020-08-29T09:01:02.000Z</time>
                <name>Trackpoint 654</name>
            </trkpt>
            <trkpt lat="49.7897504" lon="9.4965336">
                <ele>137.0</ele>
                <time>2020-08-29T09:01:04.000Z</time>
                <name>Trackpoint 655</name>
            </trkpt>
            <trkpt lat="49.7897632" lon="9.4964016">
                <ele>137.0</ele>
                <time>2020-08-29T09:01:06.000Z</time>
                <name>Trackpoint 656</name>
            </trkpt>
            <trkpt lat="49.789776" lon="9.49628">
                <ele>137.0</ele>
                <time>2020-08-29T09:01:08.000Z</time>
                <name>Trackpoint 657</name>
            </trkpt>
            <trkpt lat="49.7897952" lon="9.4961584">
                <ele>137.0</ele>
                <time>2020-08-29T09:01:10.000Z</time>
                <name>Trackpoint 658</name>
            </trkpt>
            <trkpt lat="49.7898112" lon="9.49602">
                <ele>137.0</ele>
                <time>2020-08-29T09:01:12.000Z</time>
                <name>Trackpoint 659</name>
            </trkpt>
            <trkpt lat="49.7898208" lon="9.4958536">
                <ele>137.0</ele>
                <time>2020-08-29T09:01:14.000Z</time>
                <name>Trackpoint 660</name>
            </trkpt>
            <trkpt lat="49.789824" lon="9.4956768">
                <ele>137.0</ele>
                <time>2020-08-29T09:01:16.000Z</time>
                <name>Trackpoint 661</name>
            </trkpt>
            <trkpt lat="49.7898336" lon="9.4955832">
                <ele>137.0</ele>
                <time>2020-08-29T09:01:17.000Z</time>
                <name>Trackpoint 662</name>
            </trkpt>
            <trkpt lat="49.7898368" lon="9.4954928">
                <ele>137.0</ele>
                <time>2020-08-29T09:01:18.000Z</time>
                <name>Trackpoint 663</name>
            </trkpt>
            <trkpt lat="49.7898368" lon="9.4953168">
                <ele>137.0</ele>
                <time>2020-08-29T09:01:20.000Z</time>
                <name>Trackpoint 664</name>
            </trkpt>
            <trkpt lat="49.7898368" lon="9.4951352">
                <ele>137.0</ele>
                <time>2020-08-29T09:01:22.000Z</time>
                <name>Trackpoint 665</name>
            </trkpt>
            <trkpt lat="49.7898336" lon="9.49504">
                <ele>137.0</ele>
                <time>2020-08-29T09:01:23.000Z</time>
                <name>Trackpoint 666</name>
            </trkpt>
            <trkpt lat="49.789824" lon="9.494944">
                <ele>137.0</ele>
                <time>2020-08-29T09:01:24.000Z</time>
                <name>Trackpoint 667</name>
            </trkpt>
            <trkpt lat="49.7898208" lon="9.494848">
                <ele>137.0</ele>
                <time>2020-08-29T09:01:25.000Z</time>
                <name>Trackpoint 668</name>
            </trkpt>
            <trkpt lat="49.7898208" lon="9.4947544">
                <ele>137.0</ele>
                <time>2020-08-29T09:01:26.000Z</time>
                <name>Trackpoint 669</name>
            </trkpt>
            <trkpt lat="49.7898176" lon="9.4945832">
                <ele>137.0</ele>
                <time>2020-08-29T09:01:28.000Z</time>
                <name>Trackpoint 670</name>
            </trkpt>
            <trkpt lat="49.7898144" lon="9.4944088">
                <ele>137.0</ele>
                <time>2020-08-29T09:01:30.000Z</time>
                <name>Trackpoint 671</name>
            </trkpt>
            <trkpt lat="49.7898144" lon="9.4942416">
                <ele>137.0</ele>
                <time>2020-08-29T09:01:32.000Z</time>
                <name>Trackpoint 672</name>
            </trkpt>
            <trkpt lat="49.7898208" lon="9.4940792">
                <ele>137.0</ele>
                <time>2020-08-29T09:01:34.000Z</time>
                <name>Trackpoint 673</name>
            </trkpt>
            <trkpt lat="49.7898304" lon="9.493912">
                <ele>137.0</ele>
                <time>2020-08-29T09:01:36.000Z</time>
                <name>Trackpoint 674</name>
            </trkpt>
            <trkpt lat="49.7898368" lon="9.4937432">
                <ele>137.0</ele>
                <time>2020-08-29T09:01:38.000Z</time>
                <name>Trackpoint 675</name>
            </trkpt>
            <trkpt lat="49.7898432" lon="9.49358">
                <ele>137.0</ele>
                <time>2020-08-29T09:01:40.000Z</time>
                <name>Trackpoint 676</name>
            </trkpt>
            <trkpt lat="49.7898496" lon="9.4934104">
                <ele>137.0</ele>
                <time>2020-08-29T09:01:42.000Z</time>
                <name>Trackpoint 677</name>
            </trkpt>
            <trkpt lat="49.7898496" lon="9.4932496">
                <ele>137.0</ele>
                <time>2020-08-29T09:01:44.000Z</time>
                <name>Trackpoint 678</name>
            </trkpt>
            <trkpt lat="49.7898528" lon="9.4930952">
                <ele>137.0</ele>
                <time>2020-08-29T09:01:46.000Z</time>
                <name>Trackpoint 679</name>
            </trkpt>
            <trkpt lat="49.7898528" lon="9.49294">
                <ele>137.0</ele>
                <time>2020-08-29T09:01:48.000Z</time>
                <name>Trackpoint 680</name>
            </trkpt>
            <trkpt lat="49.7898528" lon="9.492788">
                <ele>137.0</ele>
                <time>2020-08-29T09:01:50.000Z</time>
                <name>Trackpoint 681</name>
            </trkpt>
            <trkpt lat="49.7898496" lon="9.492632">
                <ele>137.0</ele>
                <time>2020-08-29T09:01:52.000Z</time>
                <name>Trackpoint 682</name>
            </trkpt>
            <trkpt lat="49.7898304" lon="9.4924816">
                <ele>137.0</ele>
                <time>2020-08-29T09:01:54.000Z</time>
                <name>Trackpoint 683</name>
            </trkpt>
            <trkpt lat="49.7898112" lon="9.4923216">
                <ele>137.0</ele>
                <time>2020-08-29T09:01:56.000Z</time>
                <name>Trackpoint 684</name>
            </trkpt>
            <trkpt lat="49.7897888" lon="9.4921712">
                <ele>137.0</ele>
                <time>2020-08-29T09:01:58.000Z</time>
                <name>Trackpoint 685</name>
            </trkpt>
            <trkpt lat="49.7897632" lon="9.492012">
                <ele>137.0</ele>
                <time>2020-08-29T09:02:00.000Z</time>
                <name>Trackpoint 686</name>
            </trkpt>
            <trkpt lat="49.789744" lon="9.4918584">
                <ele>137.0</ele>
                <time>2020-08-29T09:02:02.000Z</time>
                <name>Trackpoint 687</name>
            </trkpt>
            <trkpt lat="49.7897248" lon="9.4917072">
                <ele>137.0</ele>
                <time>2020-08-29T09:02:04.000Z</time>
                <name>Trackpoint 688</name>
            </trkpt>
            <trkpt lat="49.7897024" lon="9.4915504">
                <ele>137.0</ele>
                <time>2020-08-29T09:02:06.000Z</time>
                <name>Trackpoint 689</name>
            </trkpt>
            <trkpt lat="49.7896768" lon="9.4914112">
                <ele>137.0</ele>
                <time>2020-08-29T09:02:08.000Z</time>
                <name>Trackpoint 690</name>
            </trkpt>
            <trkpt lat="49.7896608" lon="9.4912816">
                <ele>137.0</ele>
                <time>2020-08-29T09:02:10.000Z</time>
                <name>Trackpoint 691</name>
            </trkpt>
            <trkpt lat="49.7896512" lon="9.4911448">
                <ele>137.0</ele>
                <time>2020-08-29T09:02:12.000Z</time>
                <name>Trackpoint 692</name>
            </trkpt>
            <trkpt lat="49.7896704" lon="9.49104">
                <ele>137.0</ele>
                <time>2020-08-29T09:02:14.000Z</time>
                <name>Trackpoint 693</name>
            </trkpt>
            <trkpt lat="49.7896896" lon="9.4909496">
                <ele>137.0</ele>
                <time>2020-08-29T09:02:53.000Z</time>
                <name>Trackpoint 694</name>
            </trkpt>
            <trkpt lat="49.7896768" lon="9.4908488">
                <ele>137.0</ele>
                <time>2020-08-29T09:03:03.000Z</time>
                <name>Trackpoint 695</name>
            </trkpt>
            <trkpt lat="49.7896416" lon="9.490764">
                <ele>137.0</ele>
                <time>2020-08-29T09:03:05.000Z</time>
                <name>Trackpoint 696</name>
            </trkpt>
            <trkpt lat="49.7895904" lon="9.4906784">
                <ele>137.0</ele>
                <time>2020-08-29T09:03:07.000Z</time>
                <name>Trackpoint 697</name>
            </trkpt>
            <trkpt lat="49.7895168" lon="9.4905968">
                <ele>137.0</ele>
                <time>2020-08-29T09:03:09.000Z</time>
                <name>Trackpoint 698</name>
            </trkpt>
            <trkpt lat="49.7894656" lon="9.490508">
                <ele>137.0</ele>
                <time>2020-08-29T09:03:11.000Z</time>
                <name>Trackpoint 699</name>
            </trkpt>
            <trkpt lat="49.7894528" lon="9.4904016">
                <ele>137.0</ele>
                <time>2020-08-29T09:03:13.000Z</time>
                <name>Trackpoint 700</name>
            </trkpt>
            <trkpt lat="49.7894592" lon="9.4902624">
                <ele>137.0</ele>
                <time>2020-08-29T09:03:15.000Z</time>
                <name>Trackpoint 701</name>
            </trkpt>
            <trkpt lat="49.789504" lon="9.490144">
                <ele>137.0</ele>
                <time>2020-08-29T09:03:17.000Z</time>
                <name>Trackpoint 702</name>
            </trkpt>
            <trkpt lat="49.7895584" lon="9.490028">
                <ele>137.0</ele>
                <time>2020-08-29T09:03:19.000Z</time>
                <name>Trackpoint 703</name>
            </trkpt>
            <trkpt lat="49.7896256" lon="9.4899216">
                <ele>137.0</ele>
                <time>2020-08-29T09:03:21.000Z</time>
                <name>Trackpoint 704</name>
            </trkpt>
            <trkpt lat="49.7896832" lon="9.4898184">
                <ele>137.0</ele>
                <time>2020-08-29T09:03:23.000Z</time>
                <name>Trackpoint 705</name>
            </trkpt>
            <trkpt lat="49.7897408" lon="9.4897144">
                <ele>137.0</ele>
                <time>2020-08-29T09:03:25.000Z</time>
                <name>Trackpoint 706</name>
            </trkpt>
            <trkpt lat="49.7897984" lon="9.4896096">
                <ele>137.0</ele>
                <time>2020-08-29T09:03:27.000Z</time>
                <name>Trackpoint 707</name>
            </trkpt>
            <trkpt lat="49.7898592" lon="9.4895152">
                <ele>137.0</ele>
                <time>2020-08-29T09:03:29.000Z</time>
                <name>Trackpoint 708</name>
            </trkpt>
            <trkpt lat="49.789904" lon="9.4894264">
                <ele>137.0</ele>
                <time>2020-08-29T09:03:31.000Z</time>
                <name>Trackpoint 709</name>
            </trkpt>
            <trkpt lat="49.7899552" lon="9.489344">
                <ele>137.0</ele>
                <time>2020-08-29T09:03:33.000Z</time>
                <name>Trackpoint 710</name>
            </trkpt>
            <trkpt lat="49.7899968" lon="9.4892616">
                <ele>137.0</ele>
                <time>2020-08-29T09:03:35.000Z</time>
                <name>Trackpoint 711</name>
            </trkpt>
            <trkpt lat="49.7900512" lon="9.4891632">
                <ele>137.0</ele>
                <time>2020-08-29T09:03:37.000Z</time>
                <name>Trackpoint 712</name>
            </trkpt>
            <trkpt lat="49.790096" lon="9.4890536">
                <ele>137.0</ele>
                <time>2020-08-29T09:03:39.000Z</time>
                <name>Trackpoint 713</name>
            </trkpt>
            <trkpt lat="49.7901408" lon="9.4889536">
                <ele>137.0</ele>
                <time>2020-08-29T09:03:41.000Z</time>
                <name>Trackpoint 714</name>
            </trkpt>
            <trkpt lat="49.7901792" lon="9.4888496">
                <ele>137.0</ele>
                <time>2020-08-29T09:03:43.000Z</time>
                <name>Trackpoint 715</name>
            </trkpt>
            <trkpt lat="49.7902272" lon="9.4887464">
                <ele>137.0</ele>
                <time>2020-08-29T09:03:45.000Z</time>
                <name>Trackpoint 716</name>
            </trkpt>
            <trkpt lat="49.7902592" lon="9.4886352">
                <ele>137.0</ele>
                <time>2020-08-29T09:03:47.000Z</time>
                <name>Trackpoint 717</name>
            </trkpt>
            <trkpt lat="49.7902944" lon="9.48852">
                <ele>137.0</ele>
                <time>2020-08-29T09:03:49.000Z</time>
                <name>Trackpoint 718</name>
            </trkpt>
            <trkpt lat="49.7903264" lon="9.4884056">
                <ele>137.0</ele>
                <time>2020-08-29T09:03:51.000Z</time>
                <name>Trackpoint 719</name>
            </trkpt>
            <trkpt lat="49.7903584" lon="9.4882872">
                <ele>137.0</ele>
                <time>2020-08-29T09:03:53.000Z</time>
                <name>Trackpoint 720</name>
            </trkpt>
            <trkpt lat="49.7903904" lon="9.4881696">
                <ele>137.0</ele>
                <time>2020-08-29T09:03:55.000Z</time>
                <name>Trackpoint 721</name>
            </trkpt>
            <trkpt lat="49.7904128" lon="9.4880504">
                <ele>138.0</ele>
                <time>2020-08-29T09:03:57.000Z</time>
                <name>Trackpoint 722</name>
            </trkpt>
            <trkpt lat="49.790432" lon="9.487924">
                <ele>138.0</ele>
                <time>2020-08-29T09:03:59.000Z</time>
                <name>Trackpoint 723</name>
            </trkpt>
            <trkpt lat="49.7904512" lon="9.4877968">
                <ele>138.0</ele>
                <time>2020-08-29T09:04:01.000Z</time>
                <name>Trackpoint 724</name>
            </trkpt>
            <trkpt lat="49.7904672" lon="9.4876736">
                <ele>138.0</ele>
                <time>2020-08-29T09:04:03.000Z</time>
                <name>Trackpoint 725</name>
            </trkpt>
            <trkpt lat="49.7904672" lon="9.4875368">
                <ele>138.0</ele>
                <time>2020-08-29T09:04:05.000Z</time>
                <name>Trackpoint 726</name>
            </trkpt>
            <trkpt lat="49.7904544" lon="9.4874">
                <ele>138.0</ele>
                <time>2020-08-29T09:04:07.000Z</time>
                <name>Trackpoint 727</name>
            </trkpt>
            <trkpt lat="49.790432" lon="9.48726">
                <ele>138.0</ele>
                <time>2020-08-29T09:04:09.000Z</time>
                <name>Trackpoint 728</name>
            </trkpt>
            <trkpt lat="49.7904128" lon="9.48712">
                <ele>138.0</ele>
                <time>2020-08-29T09:04:11.000Z</time>
                <name>Trackpoint 729</name>
            </trkpt>
            <trkpt lat="49.7903968" lon="9.486992">
                <ele>138.0</ele>
                <time>2020-08-29T09:04:13.000Z</time>
                <name>Trackpoint 730</name>
            </trkpt>
            <trkpt lat="49.7903904" lon="9.4868936">
                <ele>138.0</ele>
                <time>2020-08-29T09:04:15.000Z</time>
                <name>Trackpoint 731</name>
            </trkpt>
            <trkpt lat="49.7903808" lon="9.4867752">
                <ele>138.0</ele>
                <time>2020-08-29T09:04:17.000Z</time>
                <name>Trackpoint 732</name>
            </trkpt>
            <trkpt lat="49.7903712" lon="9.4866416">
                <ele>138.0</ele>
                <time>2020-08-29T09:04:19.000Z</time>
                <name>Trackpoint 733</name>
            </trkpt>
            <trkpt lat="49.7903456" lon="9.4865152">
                <ele>138.0</ele>
                <time>2020-08-29T09:04:21.000Z</time>
                <name>Trackpoint 734</name>
            </trkpt>
            <trkpt lat="49.7903168" lon="9.4863704">
                <ele>138.0</ele>
                <time>2020-08-29T09:04:23.000Z</time>
                <name>Trackpoint 735</name>
            </trkpt>
            <trkpt lat="49.7902944" lon="9.4862184">
                <ele>138.0</ele>
                <time>2020-08-29T09:04:25.000Z</time>
                <name>Trackpoint 736</name>
            </trkpt>
            <trkpt lat="49.7902688" lon="9.4860784">
                <ele>138.0</ele>
                <time>2020-08-29T09:04:27.000Z</time>
                <name>Trackpoint 737</name>
            </trkpt>
            <trkpt lat="49.7902496" lon="9.4859304">
                <ele>138.0</ele>
                <time>2020-08-29T09:04:29.000Z</time>
                <name>Trackpoint 738</name>
            </trkpt>
            <trkpt lat="49.7902368" lon="9.4857832">
                <ele>138.0</ele>
                <time>2020-08-29T09:04:31.000Z</time>
                <name>Trackpoint 739</name>
            </trkpt>
            <trkpt lat="49.7902304" lon="9.4856328">
                <ele>138.0</ele>
                <time>2020-08-29T09:04:33.000Z</time>
                <name>Trackpoint 740</name>
            </trkpt>
            <trkpt lat="49.7902336" lon="9.4854832">
                <ele>138.0</ele>
                <time>2020-08-29T09:04:35.000Z</time>
                <name>Trackpoint 741</name>
            </trkpt>
            <trkpt lat="49.7902272" lon="9.4853384">
                <ele>138.0</ele>
                <time>2020-08-29T09:04:37.000Z</time>
                <name>Trackpoint 742</name>
            </trkpt>
            <trkpt lat="49.7902016" lon="9.4851864">
                <ele>138.0</ele>
                <time>2020-08-29T09:04:39.000Z</time>
                <name>Trackpoint 743</name>
            </trkpt>
            <trkpt lat="49.7901696" lon="9.4850504">
                <ele>138.0</ele>
                <time>2020-08-29T09:04:41.000Z</time>
                <name>Trackpoint 744</name>
            </trkpt>
            <trkpt lat="49.7901376" lon="9.484908">
                <ele>138.0</ele>
                <time>2020-08-29T09:04:43.000Z</time>
                <name>Trackpoint 745</name>
            </trkpt>
            <trkpt lat="49.790112" lon="9.4847632">
                <ele>138.0</ele>
                <time>2020-08-29T09:04:45.000Z</time>
                <name>Trackpoint 746</name>
            </trkpt>
            <trkpt lat="49.7900608" lon="9.4845752">
                <ele>138.0</ele>
                <time>2020-08-29T09:04:47.000Z</time>
                <name>Trackpoint 747</name>
            </trkpt>
            <trkpt lat="49.790016" lon="9.4844152">
                <ele>138.0</ele>
                <time>2020-08-29T09:04:49.000Z</time>
                <name>Trackpoint 748</name>
            </trkpt>
            <trkpt lat="49.7899744" lon="9.4842768">
                <ele>138.0</ele>
                <time>2020-08-29T09:04:51.000Z</time>
                <name>Trackpoint 749</name>
            </trkpt>
            <trkpt lat="49.7899392" lon="9.4841448">
                <ele>138.0</ele>
                <time>2020-08-29T09:04:53.000Z</time>
                <name>Trackpoint 750</name>
            </trkpt>
            <trkpt lat="49.7899008" lon="9.4840024">
                <ele>138.0</ele>
                <time>2020-08-29T09:04:55.000Z</time>
                <name>Trackpoint 751</name>
            </trkpt>
            <trkpt lat="49.7898496" lon="9.48386">
                <ele>138.0</ele>
                <time>2020-08-29T09:04:57.000Z</time>
                <name>Trackpoint 752</name>
            </trkpt>
            <trkpt lat="49.7897952" lon="9.4837176">
                <ele>138.0</ele>
                <time>2020-08-29T09:04:59.000Z</time>
                <name>Trackpoint 753</name>
            </trkpt>
            <trkpt lat="49.7897408" lon="9.483592">
                <ele>138.0</ele>
                <time>2020-08-29T09:05:01.000Z</time>
                <name>Trackpoint 754</name>
            </trkpt>
            <trkpt lat="49.7896928" lon="9.483468">
                <ele>138.0</ele>
                <time>2020-08-29T09:05:03.000Z</time>
                <name>Trackpoint 755</name>
            </trkpt>
            <trkpt lat="49.7896416" lon="9.483348">
                <ele>138.0</ele>
                <time>2020-08-29T09:05:05.000Z</time>
                <name>Trackpoint 756</name>
            </trkpt>
            <trkpt lat="49.7896" lon="9.4832312">
                <ele>138.0</ele>
                <time>2020-08-29T09:05:07.000Z</time>
                <name>Trackpoint 757</name>
            </trkpt>
            <trkpt lat="49.789552" lon="9.4831064">
                <ele>138.0</ele>
                <time>2020-08-29T09:05:09.000Z</time>
                <name>Trackpoint 758</name>
            </trkpt>
            <trkpt lat="49.7894944" lon="9.4829728">
                <ele>138.0</ele>
                <time>2020-08-29T09:05:11.000Z</time>
                <name>Trackpoint 759</name>
            </trkpt>
            <trkpt lat="49.78944" lon="9.4828192">
                <ele>138.0</ele>
                <time>2020-08-29T09:05:13.000Z</time>
                <name>Trackpoint 760</name>
            </trkpt>
            <trkpt lat="49.7893952" lon="9.4826816">
                <ele>138.0</ele>
                <time>2020-08-29T09:05:15.000Z</time>
                <name>Trackpoint 761</name>
            </trkpt>
            <trkpt lat="49.789344" lon="9.4825488">
                <ele>137.0</ele>
                <time>2020-08-29T09:05:17.000Z</time>
                <name>Trackpoint 762</name>
            </trkpt>
            <trkpt lat="49.7893024" lon="9.48242">
                <ele>137.0</ele>
                <time>2020-08-29T09:05:19.000Z</time>
                <name>Trackpoint 763</name>
            </trkpt>
            <trkpt lat="49.7892672" lon="9.4823">
                <ele>138.0</ele>
                <time>2020-08-29T09:05:21.000Z</time>
                <name>Trackpoint 764</name>
            </trkpt>
            <trkpt lat="49.7892288" lon="9.482172">
                <ele>138.0</ele>
                <time>2020-08-29T09:05:23.000Z</time>
                <name>Trackpoint 765</name>
            </trkpt>
            <trkpt lat="49.7891936" lon="9.4820568">
                <ele>138.0</ele>
                <time>2020-08-29T09:05:25.000Z</time>
                <name>Trackpoint 766</name>
            </trkpt>
            <trkpt lat="49.7891616" lon="9.4819416">
                <ele>138.0</ele>
                <time>2020-08-29T09:05:27.000Z</time>
                <name>Trackpoint 767</name>
            </trkpt>
            <trkpt lat="49.789136" lon="9.4818296">
                <ele>138.0</ele>
                <time>2020-08-29T09:05:29.000Z</time>
                <name>Trackpoint 768</name>
            </trkpt>
            <trkpt lat="49.7891136" lon="9.4817304">
                <ele>138.0</ele>
                <time>2020-08-29T09:05:31.000Z</time>
                <name>Trackpoint 769</name>
            </trkpt>
            <trkpt lat="49.789104" lon="9.4816816">
                <ele>139.0</ele>
                <time>2020-08-29T09:06:31.000Z</time>
                <name>Trackpoint 770</name>
            </trkpt>
            <trkpt lat="49.7890816" lon="9.4815912">
                <ele>139.0</ele>
                <time>2020-08-29T09:06:35.000Z</time>
                <name>Trackpoint 771</name>
            </trkpt>
            <trkpt lat="49.78904" lon="9.4815056">
                <ele>139.0</ele>
                <time>2020-08-29T09:06:37.000Z</time>
                <name>Trackpoint 772</name>
            </trkpt>
            <trkpt lat="49.7889888" lon="9.4813968">
                <ele>139.0</ele>
                <time>2020-08-29T09:06:39.000Z</time>
                <name>Trackpoint 773</name>
            </trkpt>
            <trkpt lat="49.7889568" lon="9.4812848">
                <ele>139.0</ele>
                <time>2020-08-29T09:06:41.000Z</time>
                <name>Trackpoint 774</name>
            </trkpt>
            <trkpt lat="49.7889216" lon="9.4811672">
                <ele>139.0</ele>
                <time>2020-08-29T09:06:43.000Z</time>
                <name>Trackpoint 775</name>
            </trkpt>
            <trkpt lat="49.78888" lon="9.4810464">
                <ele>139.0</ele>
                <time>2020-08-29T09:06:45.000Z</time>
                <name>Trackpoint 776</name>
            </trkpt>
            <trkpt lat="49.7888384" lon="9.4809288">
                <ele>139.0</ele>
                <time>2020-08-29T09:06:47.000Z</time>
                <name>Trackpoint 777</name>
            </trkpt>
            <trkpt lat="49.7888032" lon="9.4807952">
                <ele>139.0</ele>
                <time>2020-08-29T09:06:49.000Z</time>
                <name>Trackpoint 778</name>
            </trkpt>
            <trkpt lat="49.7887616" lon="9.4806568">
                <ele>139.0</ele>
                <time>2020-08-29T09:06:51.000Z</time>
                <name>Trackpoint 779</name>
            </trkpt>
            <trkpt lat="49.7887168" lon="9.4805088">
                <ele>139.0</ele>
                <time>2020-08-29T09:06:53.000Z</time>
                <name>Trackpoint 780</name>
            </trkpt>
            <trkpt lat="49.7886784" lon="9.480376">
                <ele>139.0</ele>
                <time>2020-08-29T09:06:55.000Z</time>
                <name>Trackpoint 781</name>
            </trkpt>
            <trkpt lat="49.7886304" lon="9.48024">
                <ele>139.0</ele>
                <time>2020-08-29T09:06:57.000Z</time>
                <name>Trackpoint 782</name>
            </trkpt>
            <trkpt lat="49.7885728" lon="9.4800968">
                <ele>139.0</ele>
                <time>2020-08-29T09:06:59.000Z</time>
                <name>Trackpoint 783</name>
            </trkpt>
            <trkpt lat="49.7885312" lon="9.4799568">
                <ele>139.0</ele>
                <time>2020-08-29T09:07:01.000Z</time>
                <name>Trackpoint 784</name>
            </trkpt>
            <trkpt lat="49.7884992" lon="9.4798216">
                <ele>139.0</ele>
                <time>2020-08-29T09:07:03.000Z</time>
                <name>Trackpoint 785</name>
            </trkpt>
            <trkpt lat="49.7884544" lon="9.4796832">
                <ele>139.0</ele>
                <time>2020-08-29T09:07:05.000Z</time>
                <name>Trackpoint 786</name>
            </trkpt>
            <trkpt lat="49.7884064" lon="9.4795416">
                <ele>139.0</ele>
                <time>2020-08-29T09:07:07.000Z</time>
                <name>Trackpoint 787</name>
            </trkpt>
            <trkpt lat="49.7883616" lon="9.4793952">
                <ele>139.0</ele>
                <time>2020-08-29T09:07:09.000Z</time>
                <name>Trackpoint 788</name>
            </trkpt>
            <trkpt lat="49.7883232" lon="9.4792544">
                <ele>139.0</ele>
                <time>2020-08-29T09:07:11.000Z</time>
                <name>Trackpoint 789</name>
            </trkpt>
            <trkpt lat="49.7882752" lon="9.4791032">
                <ele>139.0</ele>
                <time>2020-08-29T09:07:13.000Z</time>
                <name>Trackpoint 790</name>
            </trkpt>
            <trkpt lat="49.7882304" lon="9.47896">
                <ele>139.0</ele>
                <time>2020-08-29T09:07:15.000Z</time>
                <name>Trackpoint 791</name>
            </trkpt>
            <trkpt lat="49.7881888" lon="9.4788104">
                <ele>139.0</ele>
                <time>2020-08-29T09:07:17.000Z</time>
                <name>Trackpoint 792</name>
            </trkpt>
            <trkpt lat="49.788144" lon="9.478652">
                <ele>139.0</ele>
                <time>2020-08-29T09:07:19.000Z</time>
                <name>Trackpoint 793</name>
            </trkpt>
            <trkpt lat="49.7880928" lon="9.4785072">
                <ele>139.0</ele>
                <time>2020-08-29T09:07:21.000Z</time>
                <name>Trackpoint 794</name>
            </trkpt>
            <trkpt lat="49.7880448" lon="9.4783632">
                <ele>139.0</ele>
                <time>2020-08-29T09:07:23.000Z</time>
                <name>Trackpoint 795</name>
            </trkpt>
            <trkpt lat="49.7880032" lon="9.4782152">
                <ele>139.0</ele>
                <time>2020-08-29T09:07:25.000Z</time>
                <name>Trackpoint 796</name>
            </trkpt>
            <trkpt lat="49.787952" lon="9.4780728">
                <ele>139.0</ele>
                <time>2020-08-29T09:07:27.000Z</time>
                <name>Trackpoint 797</name>
            </trkpt>
            <trkpt lat="49.7879104" lon="9.477928">
                <ele>139.0</ele>
                <time>2020-08-29T09:07:29.000Z</time>
                <name>Trackpoint 798</name>
            </trkpt>
            <trkpt lat="49.7878688" lon="9.4777896">
                <ele>140.0</ele>
                <time>2020-08-29T09:07:31.000Z</time>
                <name>Trackpoint 799</name>
            </trkpt>
            <trkpt lat="49.787824" lon="9.4776536">
                <ele>140.0</ele>
                <time>2020-08-29T09:07:33.000Z</time>
                <name>Trackpoint 800</name>
            </trkpt>
            <trkpt lat="49.7877792" lon="9.4775064">
                <ele>140.0</ele>
                <time>2020-08-29T09:07:35.000Z</time>
                <name>Trackpoint 801</name>
            </trkpt>
            <trkpt lat="49.787744" lon="9.47736">
                <ele>140.0</ele>
                <time>2020-08-29T09:07:37.000Z</time>
                <name>Trackpoint 802</name>
            </trkpt>
            <trkpt lat="49.7877056" lon="9.4772216">
                <ele>140.0</ele>
                <time>2020-08-29T09:07:39.000Z</time>
                <name>Trackpoint 803</name>
            </trkpt>
            <trkpt lat="49.787664" lon="9.47708">
                <ele>140.0</ele>
                <time>2020-08-29T09:07:41.000Z</time>
                <name>Trackpoint 804</name>
            </trkpt>
            <trkpt lat="49.7876256" lon="9.4769232">
                <ele>140.0</ele>
                <time>2020-08-29T09:07:43.000Z</time>
                <name>Trackpoint 805</name>
            </trkpt>
            <trkpt lat="49.7875872" lon="9.4767784">
                <ele>140.0</ele>
                <time>2020-08-29T09:07:45.000Z</time>
                <name>Trackpoint 806</name>
            </trkpt>
            <trkpt lat="49.7875456" lon="9.4766504">
                <ele>140.0</ele>
                <time>2020-08-29T09:07:47.000Z</time>
                <name>Trackpoint 807</name>
            </trkpt>
            <trkpt lat="49.7875104" lon="9.4765216">
                <ele>140.0</ele>
                <time>2020-08-29T09:07:49.000Z</time>
                <name>Trackpoint 808</name>
            </trkpt>
            <trkpt lat="49.7874592" lon="9.4764">
                <ele>140.0</ele>
                <time>2020-08-29T09:07:51.000Z</time>
                <name>Trackpoint 809</name>
            </trkpt>
            <trkpt lat="49.7874176" lon="9.47628">
                <ele>139.0</ele>
                <time>2020-08-29T09:07:53.000Z</time>
                <name>Trackpoint 810</name>
            </trkpt>
            <trkpt lat="49.787376" lon="9.4761648">
                <ele>139.0</ele>
                <time>2020-08-29T09:07:55.000Z</time>
                <name>Trackpoint 811</name>
            </trkpt>
            <trkpt lat="49.787328" lon="9.4760504">
                <ele>140.0</ele>
                <time>2020-08-29T09:07:57.000Z</time>
                <name>Trackpoint 812</name>
            </trkpt>
            <trkpt lat="49.78728" lon="9.4759352">
                <ele>139.0</ele>
                <time>2020-08-29T09:07:59.000Z</time>
                <name>Trackpoint 813</name>
            </trkpt>
            <trkpt lat="49.7872352" lon="9.475828">
                <ele>140.0</ele>
                <time>2020-08-29T09:08:01.000Z</time>
                <name>Trackpoint 814</name>
            </trkpt>
            <trkpt lat="49.7871904" lon="9.4757168">
                <ele>140.0</ele>
                <time>2020-08-29T09:08:03.000Z</time>
                <name>Trackpoint 815</name>
            </trkpt>
            <trkpt lat="49.7871392" lon="9.4756096">
                <ele>139.0</ele>
                <time>2020-08-29T09:08:05.000Z</time>
                <name>Trackpoint 816</name>
            </trkpt>
            <trkpt lat="49.7870912" lon="9.4755064">
                <ele>139.0</ele>
                <time>2020-08-29T09:08:07.000Z</time>
                <name>Trackpoint 817</name>
            </trkpt>
            <trkpt lat="49.78704" lon="9.4754064">
                <ele>139.0</ele>
                <time>2020-08-29T09:08:09.000Z</time>
                <name>Trackpoint 818</name>
            </trkpt>
            <trkpt lat="49.7869952" lon="9.4752968">
                <ele>138.0</ele>
                <time>2020-08-29T09:08:11.000Z</time>
                <name>Trackpoint 819</name>
            </trkpt>
            <trkpt lat="49.7869408" lon="9.4751832">
                <ele>139.0</ele>
                <time>2020-08-29T09:08:13.000Z</time>
                <name>Trackpoint 820</name>
            </trkpt>
            <trkpt lat="49.7868928" lon="9.4750816">
                <ele>139.0</ele>
                <time>2020-08-29T09:08:15.000Z</time>
                <name>Trackpoint 821</name>
            </trkpt>
            <trkpt lat="49.7868512" lon="9.474992">
                <ele>139.0</ele>
                <time>2020-08-29T09:08:17.000Z</time>
                <name>Trackpoint 822</name>
            </trkpt>
            <trkpt lat="49.7867808" lon="9.47488">
                <ele>140.0</ele>
                <time>2020-08-29T09:08:20.000Z</time>
                <name>Trackpoint 823</name>
            </trkpt>
            <trkpt lat="49.7867424" lon="9.4747864">
                <ele>140.0</ele>
                <time>2020-08-29T09:08:22.000Z</time>
                <name>Trackpoint 824</name>
            </trkpt>
            <trkpt lat="49.7867008" lon="9.4746904">
                <ele>140.0</ele>
                <time>2020-08-29T09:08:24.000Z</time>
                <name>Trackpoint 825</name>
            </trkpt>
            <trkpt lat="49.7866464" lon="9.4745864">
                <ele>139.0</ele>
                <time>2020-08-29T09:08:26.000Z</time>
                <name>Trackpoint 826</name>
            </trkpt>
            <trkpt lat="49.7865952" lon="9.4744864">
                <ele>139.0</ele>
                <time>2020-08-29T09:08:28.000Z</time>
                <name>Trackpoint 827</name>
            </trkpt>
            <trkpt lat="49.7865344" lon="9.4743944">
                <ele>140.0</ele>
                <time>2020-08-29T09:08:30.000Z</time>
                <name>Trackpoint 828</name>
            </trkpt>
            <trkpt lat="49.7864768" lon="9.4742968">
                <ele>139.0</ele>
                <time>2020-08-29T09:08:32.000Z</time>
                <name>Trackpoint 829</name>
            </trkpt>
            <trkpt lat="49.7864224" lon="9.4742136">
                <ele>139.0</ele>
                <time>2020-08-29T09:08:34.000Z</time>
                <name>Trackpoint 830</name>
            </trkpt>
            <trkpt lat="49.786368" lon="9.4741336">
                <ele>139.0</ele>
                <time>2020-08-29T09:08:36.000Z</time>
                <name>Trackpoint 831</name>
            </trkpt>
            <trkpt lat="49.7863168" lon="9.4740488">
                <ele>139.0</ele>
                <time>2020-08-29T09:08:38.000Z</time>
                <name>Trackpoint 832</name>
            </trkpt>
            <trkpt lat="49.7862496" lon="9.4739512">
                <ele>139.0</ele>
                <time>2020-08-29T09:08:40.000Z</time>
                <name>Trackpoint 833</name>
            </trkpt>
            <trkpt lat="49.786176" lon="9.4738704">
                <ele>139.0</ele>
                <time>2020-08-29T09:08:42.000Z</time>
                <name>Trackpoint 834</name>
            </trkpt>
            <trkpt lat="49.7860896" lon="9.473792">
                <ele>139.0</ele>
                <time>2020-08-29T09:08:44.000Z</time>
                <name>Trackpoint 835</name>
            </trkpt>
            <trkpt lat="49.7860032" lon="9.4737152">
                <ele>139.0</ele>
                <time>2020-08-29T09:08:46.000Z</time>
                <name>Trackpoint 836</name>
            </trkpt>
            <trkpt lat="49.7859232" lon="9.473652">
                <ele>140.0</ele>
                <time>2020-08-29T09:08:48.000Z</time>
                <name>Trackpoint 837</name>
            </trkpt>
            <trkpt lat="49.7858464" lon="9.4735896">
                <ele>140.0</ele>
                <time>2020-08-29T09:08:50.000Z</time>
                <name>Trackpoint 838</name>
            </trkpt>
            <trkpt lat="49.7857696" lon="9.4735336">
                <ele>140.0</ele>
                <time>2020-08-29T09:08:52.000Z</time>
                <name>Trackpoint 839</name>
            </trkpt>
            <trkpt lat="49.7856992" lon="9.47346">
                <ele>140.0</ele>
                <time>2020-08-29T09:08:54.000Z</time>
                <name>Trackpoint 840</name>
            </trkpt>
            <trkpt lat="49.7856256" lon="9.4733912">
                <ele>140.0</ele>
                <time>2020-08-29T09:08:56.000Z</time>
                <name>Trackpoint 841</name>
            </trkpt>
            <trkpt lat="49.7855552" lon="9.4733184">
                <ele>140.0</ele>
                <time>2020-08-29T09:08:58.000Z</time>
                <name>Trackpoint 842</name>
            </trkpt>
            <trkpt lat="49.785488" lon="9.4732336">
                <ele>140.0</ele>
                <time>2020-08-29T09:09:00.000Z</time>
                <name>Trackpoint 843</name>
            </trkpt>
            <trkpt lat="49.7854336" lon="9.4731368">
                <ele>140.0</ele>
                <time>2020-08-29T09:09:02.000Z</time>
                <name>Trackpoint 844</name>
            </trkpt>
            <trkpt lat="49.7853664" lon="9.4730328">
                <ele>140.0</ele>
                <time>2020-08-29T09:09:04.000Z</time>
                <name>Trackpoint 845</name>
            </trkpt>
            <trkpt lat="49.7852896" lon="9.4729368">
                <ele>140.0</ele>
                <time>2020-08-29T09:09:06.000Z</time>
                <name>Trackpoint 846</name>
            </trkpt>
            <trkpt lat="49.7851904" lon="9.4728496">
                <ele>140.0</ele>
                <time>2020-08-29T09:09:08.000Z</time>
                <name>Trackpoint 847</name>
            </trkpt>
            <trkpt lat="49.7850848" lon="9.4727784">
                <ele>140.0</ele>
                <time>2020-08-29T09:09:10.000Z</time>
                <name>Trackpoint 848</name>
            </trkpt>
            <trkpt lat="49.7849888" lon="9.4726936">
                <ele>140.0</ele>
                <time>2020-08-29T09:09:12.000Z</time>
                <name>Trackpoint 849</name>
            </trkpt>
            <trkpt lat="49.7848896" lon="9.4726152">
                <ele>140.0</ele>
                <time>2020-08-29T09:09:14.000Z</time>
                <name>Trackpoint 850</name>
            </trkpt>
            <trkpt lat="49.7847904" lon="9.4725368">
                <ele>140.0</ele>
                <time>2020-08-29T09:09:16.000Z</time>
                <name>Trackpoint 851</name>
            </trkpt>
            <trkpt lat="49.7846912" lon="9.4724576">
                <ele>140.0</ele>
                <time>2020-08-29T09:09:18.000Z</time>
                <name>Trackpoint 852</name>
            </trkpt>
            <trkpt lat="49.7845856" lon="9.4723952">
                <ele>140.0</ele>
                <time>2020-08-29T09:09:20.000Z</time>
                <name>Trackpoint 853</name>
            </trkpt>
            <trkpt lat="49.7844896" lon="9.47232">
                <ele>140.0</ele>
                <time>2020-08-29T09:09:22.000Z</time>
                <name>Trackpoint 854</name>
            </trkpt>
            <trkpt lat="49.7844032" lon="9.4722632">
                <ele>140.0</ele>
                <time>2020-08-29T09:09:24.000Z</time>
                <name>Trackpoint 855</name>
            </trkpt>
            <trkpt lat="49.7843296" lon="9.4721944">
                <ele>140.0</ele>
                <time>2020-08-29T09:09:26.000Z</time>
                <name>Trackpoint 856</name>
            </trkpt>
            <trkpt lat="49.7842592" lon="9.472092">
                <ele>140.0</ele>
                <time>2020-08-29T09:09:28.000Z</time>
                <name>Trackpoint 857</name>
            </trkpt>
            <trkpt lat="49.7841824" lon="9.4720032">
                <ele>140.0</ele>
                <time>2020-08-29T09:09:30.000Z</time>
                <name>Trackpoint 858</name>
            </trkpt>
            <trkpt lat="49.7841024" lon="9.4719264">
                <ele>140.0</ele>
                <time>2020-08-29T09:09:32.000Z</time>
                <name>Trackpoint 859</name>
            </trkpt>
            <trkpt lat="49.7840128" lon="9.4718568">
                <ele>140.0</ele>
                <time>2020-08-29T09:09:34.000Z</time>
                <name>Trackpoint 860</name>
            </trkpt>
            <trkpt lat="49.7839168" lon="9.4717768">
                <ele>140.0</ele>
                <time>2020-08-29T09:09:36.000Z</time>
                <name>Trackpoint 861</name>
            </trkpt>
            <trkpt lat="49.78384" lon="9.4717128">
                <ele>140.0</ele>
                <time>2020-08-29T09:09:38.000Z</time>
                <name>Trackpoint 862</name>
            </trkpt>
            <trkpt lat="49.7837728" lon="9.471652">
                <ele>141.0</ele>
                <time>2020-08-29T09:09:40.000Z</time>
                <name>Trackpoint 863</name>
            </trkpt>
            <trkpt lat="49.7836768" lon="9.4715832">
                <ele>141.0</ele>
                <time>2020-08-29T09:09:43.000Z</time>
                <name>Trackpoint 864</name>
            </trkpt>
            <trkpt lat="49.7836032" lon="9.4715232">
                <ele>140.0</ele>
                <time>2020-08-29T09:09:45.000Z</time>
                <name>Trackpoint 865</name>
            </trkpt>
            <trkpt lat="49.7835296" lon="9.47146">
                <ele>140.0</ele>
                <time>2020-08-29T09:09:47.000Z</time>
                <name>Trackpoint 866</name>
            </trkpt>
            <trkpt lat="49.7834496" lon="9.4714016">
                <ele>140.0</ele>
                <time>2020-08-29T09:09:49.000Z</time>
                <name>Trackpoint 867</name>
            </trkpt>
            <trkpt lat="49.7833472" lon="9.4713136">
                <ele>140.0</ele>
                <time>2020-08-29T09:09:52.000Z</time>
                <name>Trackpoint 868</name>
            </trkpt>
            <trkpt lat="49.7832672" lon="9.4712664">
                <ele>140.0</ele>
                <time>2020-08-29T09:09:54.000Z</time>
                <name>Trackpoint 869</name>
            </trkpt>
            <trkpt lat="49.7831808" lon="9.471216">
                <ele>140.0</ele>
                <time>2020-08-29T09:09:56.000Z</time>
                <name>Trackpoint 870</name>
            </trkpt>
            <trkpt lat="49.7830912" lon="9.4711904">
                <ele>140.0</ele>
                <time>2020-08-29T09:09:58.000Z</time>
                <name>Trackpoint 871</name>
            </trkpt>
            <trkpt lat="49.7829984" lon="9.4711816">
                <ele>140.0</ele>
                <time>2020-08-29T09:10:00.000Z</time>
                <name>Trackpoint 872</name>
            </trkpt>
            <trkpt lat="49.7828736" lon="9.4711784">
                <ele>140.0</ele>
                <time>2020-08-29T09:10:02.000Z</time>
                <name>Trackpoint 873</name>
            </trkpt>
            <trkpt lat="49.7827424" lon="9.471164">
                <ele>140.0</ele>
                <time>2020-08-29T09:10:04.000Z</time>
                <name>Trackpoint 874</name>
            </trkpt>
            <trkpt lat="49.7826304" lon="9.4711248">
                <ele>139.0</ele>
                <time>2020-08-29T09:10:06.000Z</time>
                <name>Trackpoint 875</name>
            </trkpt>
            <trkpt lat="49.7825312" lon="9.471084">
                <ele>139.0</ele>
                <time>2020-08-29T09:10:08.000Z</time>
                <name>Trackpoint 876</name>
            </trkpt>
            <trkpt lat="49.7824512" lon="9.4710216">
                <ele>140.0</ele>
                <time>2020-08-29T09:10:10.000Z</time>
                <name>Trackpoint 877</name>
            </trkpt>
            <trkpt lat="49.7823456" lon="9.4709832">
                <ele>140.0</ele>
                <time>2020-08-29T09:10:12.000Z</time>
                <name>Trackpoint 878</name>
            </trkpt>
            <trkpt lat="49.7822368" lon="9.4709416">
                <ele>140.0</ele>
                <time>2020-08-29T09:10:14.000Z</time>
                <name>Trackpoint 879</name>
            </trkpt>
            <trkpt lat="49.7821472" lon="9.4708704">
                <ele>139.0</ele>
                <time>2020-08-29T09:10:16.000Z</time>
                <name>Trackpoint 880</name>
            </trkpt>
            <trkpt lat="49.7820288" lon="9.4708568">
                <ele>139.0</ele>
                <time>2020-08-29T09:10:18.000Z</time>
                <name>Trackpoint 881</name>
            </trkpt>
            <trkpt lat="49.7819104" lon="9.4708744">
                <ele>139.0</ele>
                <time>2020-08-29T09:10:20.000Z</time>
                <name>Trackpoint 882</name>
            </trkpt>
            <trkpt lat="49.7817888" lon="9.4709152">
                <ele>139.0</ele>
                <time>2020-08-29T09:10:22.000Z</time>
                <name>Trackpoint 883</name>
            </trkpt>
            <trkpt lat="49.7816544" lon="9.47094">
                <ele>139.0</ele>
                <time>2020-08-29T09:10:24.000Z</time>
                <name>Trackpoint 884</name>
            </trkpt>
            <trkpt lat="49.7815392" lon="9.4709416">
                <ele>139.0</ele>
                <time>2020-08-29T09:10:26.000Z</time>
                <name>Trackpoint 885</name>
            </trkpt>
            <trkpt lat="49.7814144" lon="9.4709304">
                <ele>139.0</ele>
                <time>2020-08-29T09:10:28.000Z</time>
                <name>Trackpoint 886</name>
            </trkpt>
            <trkpt lat="49.781296" lon="9.4708704">
                <ele>140.0</ele>
                <time>2020-08-29T09:10:30.000Z</time>
                <name>Trackpoint 887</name>
            </trkpt>
            <trkpt lat="49.7811808" lon="9.4708016">
                <ele>140.0</ele>
                <time>2020-08-29T09:10:32.000Z</time>
                <name>Trackpoint 888</name>
            </trkpt>
            <trkpt lat="49.781056" lon="9.4707568">
                <ele>140.0</ele>
                <time>2020-08-29T09:10:34.000Z</time>
                <name>Trackpoint 889</name>
            </trkpt>
            <trkpt lat="49.7809344" lon="9.4707184">
                <ele>140.0</ele>
                <time>2020-08-29T09:10:36.000Z</time>
                <name>Trackpoint 890</name>
            </trkpt>
            <trkpt lat="49.7808192" lon="9.4706768">
                <ele>140.0</ele>
                <time>2020-08-29T09:10:38.000Z</time>
                <name>Trackpoint 891</name>
            </trkpt>
            <trkpt lat="49.780704" lon="9.4706352">
                <ele>140.0</ele>
                <time>2020-08-29T09:10:40.000Z</time>
                <name>Trackpoint 892</name>
            </trkpt>
            <trkpt lat="49.7806144" lon="9.4705448">
                <ele>140.0</ele>
                <time>2020-08-29T09:10:42.000Z</time>
                <name>Trackpoint 893</name>
            </trkpt>
            <trkpt lat="49.7804896" lon="9.470504">
                <ele>140.0</ele>
                <time>2020-08-29T09:10:44.000Z</time>
                <name>Trackpoint 894</name>
            </trkpt>
            <trkpt lat="49.780384" lon="9.4704416">
                <ele>140.0</ele>
                <time>2020-08-29T09:10:46.000Z</time>
                <name>Trackpoint 895</name>
            </trkpt>
            <trkpt lat="49.7802784" lon="9.470404">
                <ele>139.0</ele>
                <time>2020-08-29T09:10:48.000Z</time>
                <name>Trackpoint 896</name>
            </trkpt>
            <trkpt lat="49.7801632" lon="9.4703568">
                <ele>140.0</ele>
                <time>2020-08-29T09:10:50.000Z</time>
                <name>Trackpoint 897</name>
            </trkpt>
            <trkpt lat="49.7800448" lon="9.4703104">
                <ele>139.0</ele>
                <time>2020-08-29T09:10:52.000Z</time>
                <name>Trackpoint 898</name>
            </trkpt>
            <trkpt lat="49.7799296" lon="9.4702632">
                <ele>139.0</ele>
                <time>2020-08-29T09:10:54.000Z</time>
                <name>Trackpoint 899</name>
            </trkpt>
            <trkpt lat="49.7798112" lon="9.4702384">
                <ele>140.0</ele>
                <time>2020-08-29T09:10:56.000Z</time>
                <name>Trackpoint 900</name>
            </trkpt>
            <trkpt lat="49.779696" lon="9.4701968">
                <ele>140.0</ele>
                <time>2020-08-29T09:10:58.000Z</time>
                <name>Trackpoint 901</name>
            </trkpt>
            <trkpt lat="49.7795872" lon="9.4701592">
                <ele>140.0</ele>
                <time>2020-08-29T09:11:00.000Z</time>
                <name>Trackpoint 902</name>
            </trkpt>
            <trkpt lat="49.7794752" lon="9.470132">
                <ele>139.0</ele>
                <time>2020-08-29T09:11:02.000Z</time>
                <name>Trackpoint 903</name>
            </trkpt>
            <trkpt lat="49.7793632" lon="9.4701048">
                <ele>140.0</ele>
                <time>2020-08-29T09:11:04.000Z</time>
                <name>Trackpoint 904</name>
            </trkpt>
            <trkpt lat="49.779248" lon="9.4700848">
                <ele>139.0</ele>
                <time>2020-08-29T09:11:06.000Z</time>
                <name>Trackpoint 905</name>
            </trkpt>
            <trkpt lat="49.7791552" lon="9.470028">
                <ele>139.0</ele>
                <time>2020-08-29T09:11:08.000Z</time>
                <name>Trackpoint 906</name>
            </trkpt>
            <trkpt lat="49.7790464" lon="9.469988">
                <ele>139.0</ele>
                <time>2020-08-29T09:11:10.000Z</time>
                <name>Trackpoint 907</name>
            </trkpt>
            <trkpt lat="49.7789376" lon="9.4699488">
                <ele>139.0</ele>
                <time>2020-08-29T09:11:12.000Z</time>
                <name>Trackpoint 908</name>
            </trkpt>
            <trkpt lat="49.7788384" lon="9.46992">
                <ele>139.0</ele>
                <time>2020-08-29T09:11:14.000Z</time>
                <name>Trackpoint 909</name>
            </trkpt>
            <trkpt lat="49.7787232" lon="9.4699">
                <ele>139.0</ele>
                <time>2020-08-29T09:11:16.000Z</time>
                <name>Trackpoint 910</name>
            </trkpt>
            <trkpt lat="49.7786144" lon="9.4698648">
                <ele>139.0</ele>
                <time>2020-08-29T09:11:18.000Z</time>
                <name>Trackpoint 911</name>
            </trkpt>
            <trkpt lat="49.778512" lon="9.4698264">
                <ele>139.0</ele>
                <time>2020-08-29T09:11:20.000Z</time>
                <name>Trackpoint 912</name>
            </trkpt>
            <trkpt lat="49.7783968" lon="9.4698">
                <ele>139.0</ele>
                <time>2020-08-29T09:11:22.000Z</time>
                <name>Trackpoint 913</name>
            </trkpt>
            <trkpt lat="49.7782944" lon="9.4697368">
                <ele>139.0</ele>
                <time>2020-08-29T09:11:24.000Z</time>
                <name>Trackpoint 914</name>
            </trkpt>
            <trkpt lat="49.7781824" lon="9.4696976">
                <ele>139.0</ele>
                <time>2020-08-29T09:11:26.000Z</time>
                <name>Trackpoint 915</name>
            </trkpt>
            <trkpt lat="49.7780736" lon="9.4696712">
                <ele>139.0</ele>
                <time>2020-08-29T09:11:28.000Z</time>
                <name>Trackpoint 916</name>
            </trkpt>
            <trkpt lat="49.7779488" lon="9.4696648">
                <ele>139.0</ele>
                <time>2020-08-29T09:11:30.000Z</time>
                <name>Trackpoint 917</name>
            </trkpt>
            <trkpt lat="49.7778336" lon="9.4696312">
                <ele>139.0</ele>
                <time>2020-08-29T09:11:32.000Z</time>
                <name>Trackpoint 918</name>
            </trkpt>
            <trkpt lat="49.7777056" lon="9.4696368">
                <ele>138.0</ele>
                <time>2020-08-29T09:11:34.000Z</time>
                <name>Trackpoint 919</name>
            </trkpt>
            <trkpt lat="49.7776032" lon="9.469608">
                <ele>138.0</ele>
                <time>2020-08-29T09:11:36.000Z</time>
                <name>Trackpoint 920</name>
            </trkpt>
            <trkpt lat="49.777472" lon="9.4695816">
                <ele>138.0</ele>
                <time>2020-08-29T09:11:38.000Z</time>
                <name>Trackpoint 921</name>
            </trkpt>
            <trkpt lat="49.7773664" lon="9.4695128">
                <ele>138.0</ele>
                <time>2020-08-29T09:11:40.000Z</time>
                <name>Trackpoint 922</name>
            </trkpt>
            <trkpt lat="49.7772736" lon="9.4694584">
                <ele>138.0</ele>
                <time>2020-08-29T09:11:42.000Z</time>
                <name>Trackpoint 923</name>
            </trkpt>
            <trkpt lat="49.7771936" lon="9.469412">
                <ele>138.0</ele>
                <time>2020-08-29T09:11:44.000Z</time>
                <name>Trackpoint 924</name>
            </trkpt>
            <trkpt lat="49.7770944" lon="9.4693536">
                <ele>137.0</ele>
                <time>2020-08-29T09:11:46.000Z</time>
                <name>Trackpoint 925</name>
            </trkpt>
            <trkpt lat="49.776992" lon="9.46932">
                <ele>137.0</ele>
                <time>2020-08-29T09:11:48.000Z</time>
                <name>Trackpoint 926</name>
            </trkpt>
            <trkpt lat="49.7768768" lon="9.4692984">
                <ele>137.0</ele>
                <time>2020-08-29T09:11:50.000Z</time>
                <name>Trackpoint 927</name>
            </trkpt>
            <trkpt lat="49.7767616" lon="9.4692632">
                <ele>138.0</ele>
                <time>2020-08-29T09:11:52.000Z</time>
                <name>Trackpoint 928</name>
            </trkpt>
            <trkpt lat="49.7766656" lon="9.4692032">
                <ele>138.0</ele>
                <time>2020-08-29T09:11:54.000Z</time>
                <name>Trackpoint 929</name>
            </trkpt>
            <trkpt lat="49.7765632" lon="9.46916">
                <ele>138.0</ele>
                <time>2020-08-29T09:11:56.000Z</time>
                <name>Trackpoint 930</name>
            </trkpt>
            <trkpt lat="49.7764544" lon="9.4691312">
                <ele>138.0</ele>
                <time>2020-08-29T09:11:58.000Z</time>
                <name>Trackpoint 931</name>
            </trkpt>
            <trkpt lat="49.7763488" lon="9.4690912">
                <ele>138.0</ele>
                <time>2020-08-29T09:12:00.000Z</time>
                <name>Trackpoint 932</name>
            </trkpt>
            <trkpt lat="49.7762464" lon="9.46904">
                <ele>138.0</ele>
                <time>2020-08-29T09:12:02.000Z</time>
                <name>Trackpoint 933</name>
            </trkpt>
            <trkpt lat="49.7761888" lon="9.4689216">
                <ele>138.0</ele>
                <time>2020-08-29T09:12:04.000Z</time>
                <name>Trackpoint 934</name>
            </trkpt>
            <trkpt lat="49.7760992" lon="9.4688432">
                <ele>138.0</ele>
                <time>2020-08-29T09:12:06.000Z</time>
                <name>Trackpoint 935</name>
            </trkpt>
            <trkpt lat="49.776016" lon="9.4687616">
                <ele>138.0</ele>
                <time>2020-08-29T09:12:08.000Z</time>
                <name>Trackpoint 936</name>
            </trkpt>
            <trkpt lat="49.775936" lon="9.4686896">
                <ele>138.0</ele>
                <time>2020-08-29T09:12:10.000Z</time>
                <name>Trackpoint 937</name>
            </trkpt>
            <trkpt lat="49.7758496" lon="9.4686248">
                <ele>138.0</ele>
                <time>2020-08-29T09:12:12.000Z</time>
                <name>Trackpoint 938</name>
            </trkpt>
            <trkpt lat="49.7757568" lon="9.4685568">
                <ele>138.0</ele>
                <time>2020-08-29T09:12:14.000Z</time>
                <name>Trackpoint 939</name>
            </trkpt>
            <trkpt lat="49.775664" lon="9.4684864">
                <ele>138.0</ele>
                <time>2020-08-29T09:12:16.000Z</time>
                <name>Trackpoint 940</name>
            </trkpt>
            <trkpt lat="49.775584" lon="9.4684048">
                <ele>138.0</ele>
                <time>2020-08-29T09:12:18.000Z</time>
                <name>Trackpoint 941</name>
            </trkpt>
            <trkpt lat="49.7754944" lon="9.46834">
                <ele>138.0</ele>
                <time>2020-08-29T09:12:20.000Z</time>
                <name>Trackpoint 942</name>
            </trkpt>
            <trkpt lat="49.7754016" lon="9.468268">
                <ele>138.0</ele>
                <time>2020-08-29T09:12:22.000Z</time>
                <name>Trackpoint 943</name>
            </trkpt>
            <trkpt lat="49.7753216" lon="9.4681928">
                <ele>138.0</ele>
                <time>2020-08-29T09:12:24.000Z</time>
                <name>Trackpoint 944</name>
            </trkpt>
            <trkpt lat="49.7752416" lon="9.4681232">
                <ele>138.0</ele>
                <time>2020-08-29T09:12:26.000Z</time>
                <name>Trackpoint 945</name>
            </trkpt>
            <trkpt lat="49.775168" lon="9.4680336">
                <ele>138.0</ele>
                <time>2020-08-29T09:12:28.000Z</time>
                <name>Trackpoint 946</name>
            </trkpt>
            <trkpt lat="49.7751232" lon="9.4679048">
                <ele>138.0</ele>
                <time>2020-08-29T09:12:30.000Z</time>
                <name>Trackpoint 947</name>
            </trkpt>
            <trkpt lat="49.775088" lon="9.4677888">
                <ele>138.0</ele>
                <time>2020-08-29T09:12:32.000Z</time>
                <name>Trackpoint 948</name>
            </trkpt>
            <trkpt lat="49.7750496" lon="9.4676952">
                <ele>138.0</ele>
                <time>2020-08-29T09:12:34.000Z</time>
                <name>Trackpoint 949</name>
            </trkpt>
            <trkpt lat="49.7750176" lon="9.4675904">
                <ele>138.0</ele>
                <time>2020-08-29T09:12:36.000Z</time>
                <name>Trackpoint 950</name>
            </trkpt>
            <trkpt lat="49.7749664" lon="9.4675">
                <ele>138.0</ele>
                <time>2020-08-29T09:12:38.000Z</time>
                <name>Trackpoint 951</name>
            </trkpt>
            <trkpt lat="49.7749152" lon="9.4674056">
                <ele>138.0</ele>
                <time>2020-08-29T09:12:40.000Z</time>
                <name>Trackpoint 952</name>
            </trkpt>
            <trkpt lat="49.7748576" lon="9.4673216">
                <ele>138.0</ele>
                <time>2020-08-29T09:12:42.000Z</time>
                <name>Trackpoint 953</name>
            </trkpt>
            <trkpt lat="49.774816" lon="9.4672136">
                <ele>138.0</ele>
                <time>2020-08-29T09:12:44.000Z</time>
                <name>Trackpoint 954</name>
            </trkpt>
            <trkpt lat="49.774752" lon="9.4671424">
                <ele>139.0</ele>
                <time>2020-08-29T09:12:46.000Z</time>
                <name>Trackpoint 955</name>
            </trkpt>
            <trkpt lat="49.774688" lon="9.4670736">
                <ele>139.0</ele>
                <time>2020-08-29T09:12:48.000Z</time>
                <name>Trackpoint 956</name>
            </trkpt>
            <trkpt lat="49.7746464" lon="9.4669704">
                <ele>139.0</ele>
                <time>2020-08-29T09:12:50.000Z</time>
                <name>Trackpoint 957</name>
            </trkpt>
            <trkpt lat="49.7745824" lon="9.4668864">
                <ele>139.0</ele>
                <time>2020-08-29T09:12:52.000Z</time>
                <name>Trackpoint 958</name>
            </trkpt>
            <trkpt lat="49.774528" lon="9.4668032">
                <ele>140.0</ele>
                <time>2020-08-29T09:12:54.000Z</time>
                <name>Trackpoint 959</name>
            </trkpt>
            <trkpt lat="49.7744736" lon="9.466712">
                <ele>139.0</ele>
                <time>2020-08-29T09:12:56.000Z</time>
                <name>Trackpoint 960</name>
            </trkpt>
            <trkpt lat="49.7744128" lon="9.4666256">
                <ele>140.0</ele>
                <time>2020-08-29T09:12:58.000Z</time>
                <name>Trackpoint 961</name>
            </trkpt>
            <trkpt lat="49.7743488" lon="9.4665496">
                <ele>140.0</ele>
                <time>2020-08-29T09:13:00.000Z</time>
                <name>Trackpoint 962</name>
            </trkpt>
            <trkpt lat="49.774288" lon="9.4664696">
                <ele>140.0</ele>
                <time>2020-08-29T09:13:02.000Z</time>
                <name>Trackpoint 963</name>
            </trkpt>
            <trkpt lat="49.7742336" lon="9.46638">
                <ele>140.0</ele>
                <time>2020-08-29T09:13:04.000Z</time>
                <name>Trackpoint 964</name>
            </trkpt>
            <trkpt lat="49.7741856" lon="9.4662864">
                <ele>140.0</ele>
                <time>2020-08-29T09:13:06.000Z</time>
                <name>Trackpoint 965</name>
            </trkpt>
            <trkpt lat="49.774128" lon="9.4661968">
                <ele>140.0</ele>
                <time>2020-08-29T09:13:08.000Z</time>
                <name>Trackpoint 966</name>
            </trkpt>
            <trkpt lat="49.774064" lon="9.4661056">
                <ele>140.0</ele>
                <time>2020-08-29T09:13:10.000Z</time>
                <name>Trackpoint 967</name>
            </trkpt>
            <trkpt lat="49.7740064" lon="9.4660184">
                <ele>140.0</ele>
                <time>2020-08-29T09:13:12.000Z</time>
                <name>Trackpoint 968</name>
            </trkpt>
            <trkpt lat="49.773952" lon="9.4659096">
                <ele>140.0</ele>
                <time>2020-08-29T09:13:14.000Z</time>
                <name>Trackpoint 969</name>
            </trkpt>
            <trkpt lat="49.7738944" lon="9.4658016">
                <ele>140.0</ele>
                <time>2020-08-29T09:13:16.000Z</time>
                <name>Trackpoint 970</name>
            </trkpt>
            <trkpt lat="49.7738432" lon="9.4656952">
                <ele>139.0</ele>
                <time>2020-08-29T09:13:18.000Z</time>
                <name>Trackpoint 971</name>
            </trkpt>
            <trkpt lat="49.7737824" lon="9.4655912">
                <ele>139.0</ele>
                <time>2020-08-29T09:13:20.000Z</time>
                <name>Trackpoint 972</name>
            </trkpt>
            <trkpt lat="49.7737184" lon="9.4654904">
                <ele>139.0</ele>
                <time>2020-08-29T09:13:22.000Z</time>
                <name>Trackpoint 973</name>
            </trkpt>
            <trkpt lat="49.7736544" lon="9.465392">
                <ele>139.0</ele>
                <time>2020-08-29T09:13:24.000Z</time>
                <name>Trackpoint 974</name>
            </trkpt>
            <trkpt lat="49.7735936" lon="9.4652904">
                <ele>139.0</ele>
                <time>2020-08-29T09:13:26.000Z</time>
                <name>Trackpoint 975</name>
            </trkpt>
            <trkpt lat="49.7735328" lon="9.4651968">
                <ele>139.0</ele>
                <time>2020-08-29T09:13:28.000Z</time>
                <name>Trackpoint 976</name>
            </trkpt>
            <trkpt lat="49.7734688" lon="9.4650936">
                <ele>139.0</ele>
                <time>2020-08-29T09:13:30.000Z</time>
                <name>Trackpoint 977</name>
            </trkpt>
            <trkpt lat="49.7734016" lon="9.4649952">
                <ele>139.0</ele>
                <time>2020-08-29T09:13:32.000Z</time>
                <name>Trackpoint 978</name>
            </trkpt>
            <trkpt lat="49.7733344" lon="9.464896">
                <ele>139.0</ele>
                <time>2020-08-29T09:13:34.000Z</time>
                <name>Trackpoint 979</name>
            </trkpt>
            <trkpt lat="49.7732672" lon="9.4648064">
                <ele>139.0</ele>
                <time>2020-08-29T09:13:36.000Z</time>
                <name>Trackpoint 980</name>
            </trkpt>
            <trkpt lat="49.7731968" lon="9.4647032">
                <ele>139.0</ele>
                <time>2020-08-29T09:13:38.000Z</time>
                <name>Trackpoint 981</name>
            </trkpt>
            <trkpt lat="49.7731232" lon="9.4646056">
                <ele>139.0</ele>
                <time>2020-08-29T09:13:40.000Z</time>
                <name>Trackpoint 982</name>
            </trkpt>
            <trkpt lat="49.7730528" lon="9.4645048">
                <ele>139.0</ele>
                <time>2020-08-29T09:13:42.000Z</time>
                <name>Trackpoint 983</name>
            </trkpt>
            <trkpt lat="49.772976" lon="9.4644144">
                <ele>139.0</ele>
                <time>2020-08-29T09:13:44.000Z</time>
                <name>Trackpoint 984</name>
            </trkpt>
            <trkpt lat="49.7729024" lon="9.4643136">
                <ele>139.0</ele>
                <time>2020-08-29T09:13:46.000Z</time>
                <name>Trackpoint 985</name>
            </trkpt>
            <trkpt lat="49.7728448" lon="9.4641848">
                <ele>139.0</ele>
                <time>2020-08-29T09:13:48.000Z</time>
                <name>Trackpoint 986</name>
            </trkpt>
            <trkpt lat="49.7728" lon="9.4640416">
                <ele>139.0</ele>
                <time>2020-08-29T09:13:50.000Z</time>
                <name>Trackpoint 987</name>
            </trkpt>
            <trkpt lat="49.7727456" lon="9.4639152">
                <ele>139.0</ele>
                <time>2020-08-29T09:13:52.000Z</time>
                <name>Trackpoint 988</name>
            </trkpt>
            <trkpt lat="49.7727008" lon="9.4637816">
                <ele>140.0</ele>
                <time>2020-08-29T09:13:54.000Z</time>
                <name>Trackpoint 989</name>
            </trkpt>
            <trkpt lat="49.7726464" lon="9.4636488">
                <ele>140.0</ele>
                <time>2020-08-29T09:13:56.000Z</time>
                <name>Trackpoint 990</name>
            </trkpt>
            <trkpt lat="49.7725952" lon="9.4635112">
                <ele>140.0</ele>
                <time>2020-08-29T09:13:58.000Z</time>
                <name>Trackpoint 991</name>
            </trkpt>
            <trkpt lat="49.7725376" lon="9.4633752">
                <ele>139.0</ele>
                <time>2020-08-29T09:14:00.000Z</time>
                <name>Trackpoint 992</name>
            </trkpt>
            <trkpt lat="49.7724768" lon="9.4632464">
                <ele>139.0</ele>
                <time>2020-08-29T09:14:02.000Z</time>
                <name>Trackpoint 993</name>
            </trkpt>
            <trkpt lat="49.772416" lon="9.4631072">
                <ele>138.0</ele>
                <time>2020-08-29T09:14:04.000Z</time>
                <name>Trackpoint 994</name>
            </trkpt>
            <trkpt lat="49.7723488" lon="9.46298">
                <ele>138.0</ele>
                <time>2020-08-29T09:14:06.000Z</time>
                <name>Trackpoint 995</name>
            </trkpt>
            <trkpt lat="49.7722848" lon="9.4628536">
                <ele>138.0</ele>
                <time>2020-08-29T09:14:08.000Z</time>
                <name>Trackpoint 996</name>
            </trkpt>
            <trkpt lat="49.7722272" lon="9.4627016">
                <ele>138.0</ele>
                <time>2020-08-29T09:14:10.000Z</time>
                <name>Trackpoint 997</name>
            </trkpt>
            <trkpt lat="49.7721792" lon="9.46256">
                <ele>138.0</ele>
                <time>2020-08-29T09:14:12.000Z</time>
                <name>Trackpoint 998</name>
            </trkpt>
            <trkpt lat="49.7721184" lon="9.462432">
                <ele>138.0</ele>
                <time>2020-08-29T09:14:14.000Z</time>
                <name>Trackpoint 999</name>
            </trkpt>
            <trkpt lat="49.7720576" lon="9.4623096">
                <ele>138.0</ele>
                <time>2020-08-29T09:14:16.000Z</time>
                <name>Trackpoint 1000</name>
            </trkpt>
            <trkpt lat="49.7719968" lon="9.4621784">
                <ele>138.0</ele>
                <time>2020-08-29T09:14:18.000Z</time>
                <name>Trackpoint 1001</name>
            </trkpt>
            <trkpt lat="49.7719296" lon="9.4620552">
                <ele>138.0</ele>
                <time>2020-08-29T09:14:20.000Z</time>
                <name>Trackpoint 1002</name>
            </trkpt>
            <trkpt lat="49.771872" lon="9.4619304">
                <ele>138.0</ele>
                <time>2020-08-29T09:14:22.000Z</time>
                <name>Trackpoint 1003</name>
            </trkpt>
            <trkpt lat="49.7718464" lon="9.4617568">
                <ele>138.0</ele>
                <time>2020-08-29T09:14:24.000Z</time>
                <name>Trackpoint 1004</name>
            </trkpt>
            <trkpt lat="49.771824" lon="9.4615944">
                <ele>139.0</ele>
                <time>2020-08-29T09:14:26.000Z</time>
                <name>Trackpoint 1005</name>
            </trkpt>
            <trkpt lat="49.7718176" lon="9.4614512">
                <ele>138.0</ele>
                <time>2020-08-29T09:14:28.000Z</time>
                <name>Trackpoint 1006</name>
            </trkpt>
            <trkpt lat="49.7717984" lon="9.4613136">
                <ele>139.0</ele>
                <time>2020-08-29T09:14:30.000Z</time>
                <name>Trackpoint 1007</name>
            </trkpt>
            <trkpt lat="49.7717664" lon="9.4611704">
                <ele>139.0</ele>
                <time>2020-08-29T09:14:32.000Z</time>
                <name>Trackpoint 1008</name>
            </trkpt>
            <trkpt lat="49.7717312" lon="9.4610264">
                <ele>139.0</ele>
                <time>2020-08-29T09:14:34.000Z</time>
                <name>Trackpoint 1009</name>
            </trkpt>
            <trkpt lat="49.7716864" lon="9.4608872">
                <ele>139.0</ele>
                <time>2020-08-29T09:14:36.000Z</time>
                <name>Trackpoint 1010</name>
            </trkpt>
            <trkpt lat="49.7716512" lon="9.4607312">
                <ele>139.0</ele>
                <time>2020-08-29T09:14:38.000Z</time>
                <name>Trackpoint 1011</name>
            </trkpt>
            <trkpt lat="49.7716224" lon="9.4605712">
                <ele>139.0</ele>
                <time>2020-08-29T09:14:40.000Z</time>
                <name>Trackpoint 1012</name>
            </trkpt>
            <trkpt lat="49.7715936" lon="9.4604152">
                <ele>139.0</ele>
                <time>2020-08-29T09:14:42.000Z</time>
                <name>Trackpoint 1013</name>
            </trkpt>
            <trkpt lat="49.7715616" lon="9.460252">
                <ele>140.0</ele>
                <time>2020-08-29T09:14:44.000Z</time>
                <name>Trackpoint 1014</name>
            </trkpt>
            <trkpt lat="49.7715392" lon="9.4600872">
                <ele>140.0</ele>
                <time>2020-08-29T09:14:46.000Z</time>
                <name>Trackpoint 1015</name>
            </trkpt>
            <trkpt lat="49.7715232" lon="9.4599384">
                <ele>140.0</ele>
                <time>2020-08-29T09:14:48.000Z</time>
                <name>Trackpoint 1016</name>
            </trkpt>
            <trkpt lat="49.7715072" lon="9.4597904">
                <ele>140.0</ele>
                <time>2020-08-29T09:14:50.000Z</time>
                <name>Trackpoint 1017</name>
            </trkpt>
            <trkpt lat="49.7714848" lon="9.4596304">
                <ele>141.0</ele>
                <time>2020-08-29T09:14:52.000Z</time>
                <name>Trackpoint 1018</name>
            </trkpt>
            <trkpt lat="49.7714624" lon="9.4594584">
                <ele>141.0</ele>
                <time>2020-08-29T09:14:54.000Z</time>
                <name>Trackpoint 1019</name>
            </trkpt>
            <trkpt lat="49.7714528" lon="9.4593688">
                <ele>141.0</ele>
                <time>2020-08-29T09:14:55.000Z</time>
                <name>Trackpoint 1020</name>
            </trkpt>
            <trkpt lat="49.77144" lon="9.4591952">
                <ele>141.0</ele>
                <time>2020-08-29T09:14:57.000Z</time>
                <name>Trackpoint 1021</name>
            </trkpt>
            <trkpt lat="49.771424" lon="9.4591064">
                <ele>141.0</ele>
                <time>2020-08-29T09:14:58.000Z</time>
                <name>Trackpoint 1022</name>
            </trkpt>
            <trkpt lat="49.7714048" lon="9.4589328">
                <ele>141.0</ele>
                <time>2020-08-29T09:15:00.000Z</time>
                <name>Trackpoint 1023</name>
            </trkpt>
            <trkpt lat="49.7713888" lon="9.45876">
                <ele>141.0</ele>
                <time>2020-08-29T09:15:02.000Z</time>
                <name>Trackpoint 1024</name>
            </trkpt>
            <trkpt lat="49.7713856" lon="9.4585888">
                <ele>141.0</ele>
                <time>2020-08-29T09:15:04.000Z</time>
                <name>Trackpoint 1025</name>
            </trkpt>
            <trkpt lat="49.7713728" lon="9.4584152">
                <ele>141.0</ele>
                <time>2020-08-29T09:15:06.000Z</time>
                <name>Trackpoint 1026</name>
            </trkpt>
            <trkpt lat="49.7713536" lon="9.4582464">
                <ele>141.0</ele>
                <time>2020-08-29T09:15:08.000Z</time>
                <name>Trackpoint 1027</name>
            </trkpt>
            <trkpt lat="49.7713344" lon="9.4580872">
                <ele>141.0</ele>
                <time>2020-08-29T09:15:10.000Z</time>
                <name>Trackpoint 1028</name>
            </trkpt>
            <trkpt lat="49.7713312" lon="9.4579384">
                <ele>141.0</ele>
                <time>2020-08-29T09:15:12.000Z</time>
                <name>Trackpoint 1029</name>
            </trkpt>
            <trkpt lat="49.7713152" lon="9.4577968">
                <ele>141.0</ele>
                <time>2020-08-29T09:15:14.000Z</time>
                <name>Trackpoint 1030</name>
            </trkpt>
            <trkpt lat="49.7713088" lon="9.4576528">
                <ele>141.0</ele>
                <time>2020-08-29T09:15:16.000Z</time>
                <name>Trackpoint 1031</name>
            </trkpt>
            <trkpt lat="49.771312" lon="9.4575032">
                <ele>141.0</ele>
                <time>2020-08-29T09:15:18.000Z</time>
                <name>Trackpoint 1032</name>
            </trkpt>
            <trkpt lat="49.771328" lon="9.45734">
                <ele>141.0</ele>
                <time>2020-08-29T09:15:20.000Z</time>
                <name>Trackpoint 1033</name>
            </trkpt>
            <trkpt lat="49.7713408" lon="9.4572496">
                <ele>141.0</ele>
                <time>2020-08-29T09:15:21.000Z</time>
                <name>Trackpoint 1034</name>
            </trkpt>
            <trkpt lat="49.7713504" lon="9.4570776">
                <ele>140.0</ele>
                <time>2020-08-29T09:15:23.000Z</time>
                <name>Trackpoint 1035</name>
            </trkpt>
            <trkpt lat="49.7713664" lon="9.4568984">
                <ele>140.0</ele>
                <time>2020-08-29T09:15:25.000Z</time>
                <name>Trackpoint 1036</name>
            </trkpt>
            <trkpt lat="49.771376" lon="9.4567216">
                <ele>140.0</ele>
                <time>2020-08-29T09:15:27.000Z</time>
                <name>Trackpoint 1037</name>
            </trkpt>
            <trkpt lat="49.7713888" lon="9.456632">
                <ele>140.0</ele>
                <time>2020-08-29T09:15:28.000Z</time>
                <name>Trackpoint 1038</name>
            </trkpt>
            <trkpt lat="49.771408" lon="9.4564552">
                <ele>140.0</ele>
                <time>2020-08-29T09:15:30.000Z</time>
                <name>Trackpoint 1039</name>
            </trkpt>
            <trkpt lat="49.7714272" lon="9.4562768">
                <ele>140.0</ele>
                <time>2020-08-29T09:15:32.000Z</time>
                <name>Trackpoint 1040</name>
            </trkpt>
            <trkpt lat="49.7714336" lon="9.4561864">
                <ele>140.0</ele>
                <time>2020-08-29T09:15:33.000Z</time>
                <name>Trackpoint 1041</name>
            </trkpt>
            <trkpt lat="49.7714528" lon="9.456012">
                <ele>140.0</ele>
                <time>2020-08-29T09:15:35.000Z</time>
                <name>Trackpoint 1042</name>
            </trkpt>
            <trkpt lat="49.7714816" lon="9.45584">
                <ele>141.0</ele>
                <time>2020-08-29T09:15:37.000Z</time>
                <name>Trackpoint 1043</name>
            </trkpt>
            <trkpt lat="49.771504" lon="9.4556736">
                <ele>142.0</ele>
                <time>2020-08-29T09:15:39.000Z</time>
                <name>Trackpoint 1044</name>
            </trkpt>
            <trkpt lat="49.7715232" lon="9.4555104">
                <ele>142.0</ele>
                <time>2020-08-29T09:15:41.000Z</time>
                <name>Trackpoint 1045</name>
            </trkpt>
            <trkpt lat="49.7715456" lon="9.455352">
                <ele>142.0</ele>
                <time>2020-08-29T09:15:43.000Z</time>
                <name>Trackpoint 1046</name>
            </trkpt>
            <trkpt lat="49.7715712" lon="9.4551936">
                <ele>142.0</ele>
                <time>2020-08-29T09:15:45.000Z</time>
                <name>Trackpoint 1047</name>
            </trkpt>
            <trkpt lat="49.7715904" lon="9.4550352">
                <ele>142.0</ele>
                <time>2020-08-29T09:15:47.000Z</time>
                <name>Trackpoint 1048</name>
            </trkpt>
            <trkpt lat="49.7716096" lon="9.4548792">
                <ele>142.0</ele>
                <time>2020-08-29T09:15:49.000Z</time>
                <name>Trackpoint 1049</name>
            </trkpt>
            <trkpt lat="49.7716288" lon="9.4547184">
                <ele>142.0</ele>
                <time>2020-08-29T09:15:51.000Z</time>
                <name>Trackpoint 1050</name>
            </trkpt>
            <trkpt lat="49.771648" lon="9.4545568">
                <ele>141.0</ele>
                <time>2020-08-29T09:15:53.000Z</time>
                <name>Trackpoint 1051</name>
            </trkpt>
            <trkpt lat="49.7716736" lon="9.4543896">
                <ele>141.0</ele>
                <time>2020-08-29T09:15:55.000Z</time>
                <name>Trackpoint 1052</name>
            </trkpt>
            <trkpt lat="49.7717024" lon="9.4542288">
                <ele>141.0</ele>
                <time>2020-08-29T09:15:57.000Z</time>
                <name>Trackpoint 1053</name>
            </trkpt>
            <trkpt lat="49.7717024" lon="9.4540704">
                <ele>141.0</ele>
                <time>2020-08-29T09:15:59.000Z</time>
                <name>Trackpoint 1054</name>
            </trkpt>
            <trkpt lat="49.7717088" lon="9.453912">
                <ele>141.0</ele>
                <time>2020-08-29T09:16:01.000Z</time>
                <name>Trackpoint 1055</name>
            </trkpt>
            <trkpt lat="49.771728" lon="9.4537536">
                <ele>141.0</ele>
                <time>2020-08-29T09:16:03.000Z</time>
                <name>Trackpoint 1056</name>
            </trkpt>
            <trkpt lat="49.771744" lon="9.453604">
                <ele>141.0</ele>
                <time>2020-08-29T09:16:05.000Z</time>
                <name>Trackpoint 1057</name>
            </trkpt>
            <trkpt lat="49.7717632" lon="9.4534464">
                <ele>141.0</ele>
                <time>2020-08-29T09:16:07.000Z</time>
                <name>Trackpoint 1058</name>
            </trkpt>
            <trkpt lat="49.7717696" lon="9.4533008">
                <ele>141.0</ele>
                <time>2020-08-29T09:16:09.000Z</time>
                <name>Trackpoint 1059</name>
            </trkpt>
            <trkpt lat="49.7717888" lon="9.4531616">
                <ele>141.0</ele>
                <time>2020-08-29T09:16:11.000Z</time>
                <name>Trackpoint 1060</name>
            </trkpt>
            <trkpt lat="49.7718048" lon="9.4530288">
                <ele>141.0</ele>
                <time>2020-08-29T09:16:13.000Z</time>
                <name>Trackpoint 1061</name>
            </trkpt>
            <trkpt lat="49.7718208" lon="9.4529">
                <ele>141.0</ele>
                <time>2020-08-29T09:16:15.000Z</time>
                <name>Trackpoint 1062</name>
            </trkpt>
            <trkpt lat="49.7718368" lon="9.4527664">
                <ele>141.0</ele>
                <time>2020-08-29T09:16:17.000Z</time>
                <name>Trackpoint 1063</name>
            </trkpt>
            <trkpt lat="49.7718464" lon="9.452632">
                <ele>141.0</ele>
                <time>2020-08-29T09:16:19.000Z</time>
                <name>Trackpoint 1064</name>
            </trkpt>
            <trkpt lat="49.7718464" lon="9.4524896">
                <ele>141.0</ele>
                <time>2020-08-29T09:16:21.000Z</time>
                <name>Trackpoint 1065</name>
            </trkpt>
            <trkpt lat="49.7718624" lon="9.4523448">
                <ele>141.0</ele>
                <time>2020-08-29T09:16:23.000Z</time>
                <name>Trackpoint 1066</name>
            </trkpt>
            <trkpt lat="49.7718816" lon="9.4522184">
                <ele>142.0</ele>
                <time>2020-08-29T09:16:25.000Z</time>
                <name>Trackpoint 1067</name>
            </trkpt>
            <trkpt lat="49.771904" lon="9.4520768">
                <ele>142.0</ele>
                <time>2020-08-29T09:16:27.000Z</time>
                <name>Trackpoint 1068</name>
            </trkpt>
            <trkpt lat="49.7719424" lon="9.4519232">
                <ele>141.0</ele>
                <time>2020-08-29T09:16:29.000Z</time>
                <name>Trackpoint 1069</name>
            </trkpt>
            <trkpt lat="49.7719712" lon="9.45178">
                <ele>141.0</ele>
                <time>2020-08-29T09:16:31.000Z</time>
                <name>Trackpoint 1070</name>
            </trkpt>
            <trkpt lat="49.7720064" lon="9.4516248">
                <ele>141.0</ele>
                <time>2020-08-29T09:16:33.000Z</time>
                <name>Trackpoint 1071</name>
            </trkpt>
            <trkpt lat="49.7720416" lon="9.4514736">
                <ele>141.0</ele>
                <time>2020-08-29T09:16:35.000Z</time>
                <name>Trackpoint 1072</name>
            </trkpt>
            <trkpt lat="49.7720992" lon="9.451332">
                <ele>142.0</ele>
                <time>2020-08-29T09:16:37.000Z</time>
                <name>Trackpoint 1073</name>
            </trkpt>
            <trkpt lat="49.7721376" lon="9.4512056">
                <ele>142.0</ele>
                <time>2020-08-29T09:16:39.000Z</time>
                <name>Trackpoint 1074</name>
            </trkpt>
            <trkpt lat="49.77216" lon="9.451048">
                <ele>142.0</ele>
                <time>2020-08-29T09:16:41.000Z</time>
                <name>Trackpoint 1075</name>
            </trkpt>
            <trkpt lat="49.7721824" lon="9.4509088">
                <ele>142.0</ele>
                <time>2020-08-29T09:16:43.000Z</time>
                <name>Trackpoint 1076</name>
            </trkpt>
            <trkpt lat="49.7722048" lon="9.4507816">
                <ele>142.0</ele>
                <time>2020-08-29T09:16:45.000Z</time>
                <name>Trackpoint 1077</name>
            </trkpt>
            <trkpt lat="49.772256" lon="9.4506464">
                <ele>142.0</ele>
                <time>2020-08-29T09:16:47.000Z</time>
                <name>Trackpoint 1078</name>
            </trkpt>
            <trkpt lat="49.7723008" lon="9.4505168">
                <ele>142.0</ele>
                <time>2020-08-29T09:16:49.000Z</time>
                <name>Trackpoint 1079</name>
            </trkpt>
            <trkpt lat="49.7723456" lon="9.4503784">
                <ele>142.0</ele>
                <time>2020-08-29T09:16:51.000Z</time>
                <name>Trackpoint 1080</name>
            </trkpt>
            <trkpt lat="49.7723872" lon="9.4502296">
                <ele>142.0</ele>
                <time>2020-08-29T09:16:53.000Z</time>
                <name>Trackpoint 1081</name>
            </trkpt>
            <trkpt lat="49.7724576" lon="9.4501">
                <ele>142.0</ele>
                <time>2020-08-29T09:16:55.000Z</time>
                <name>Trackpoint 1082</name>
            </trkpt>
            <trkpt lat="49.7725024" lon="9.4499664">
                <ele>142.0</ele>
                <time>2020-08-29T09:16:57.000Z</time>
                <name>Trackpoint 1083</name>
            </trkpt>
            <trkpt lat="49.7725312" lon="9.4498216">
                <ele>142.0</ele>
                <time>2020-08-29T09:16:59.000Z</time>
                <name>Trackpoint 1084</name>
            </trkpt>
            <trkpt lat="49.7725664" lon="9.4496936">
                <ele>142.0</ele>
                <time>2020-08-29T09:17:01.000Z</time>
                <name>Trackpoint 1085</name>
            </trkpt>
            <trkpt lat="49.7726048" lon="9.4495632">
                <ele>142.0</ele>
                <time>2020-08-29T09:17:03.000Z</time>
                <name>Trackpoint 1086</name>
            </trkpt>
            <trkpt lat="49.7726656" lon="9.4494336">
                <ele>142.0</ele>
                <time>2020-08-29T09:17:05.000Z</time>
                <name>Trackpoint 1087</name>
            </trkpt>
            <trkpt lat="49.772736" lon="9.4493016">
                <ele>142.0</ele>
                <time>2020-08-29T09:17:07.000Z</time>
                <name>Trackpoint 1088</name>
            </trkpt>
            <trkpt lat="49.7728" lon="9.4491856">
                <ele>142.0</ele>
                <time>2020-08-29T09:17:09.000Z</time>
                <name>Trackpoint 1089</name>
            </trkpt>
            <trkpt lat="49.7728544" lon="9.4490616">
                <ele>142.0</ele>
                <time>2020-08-29T09:17:11.000Z</time>
                <name>Trackpoint 1090</name>
            </trkpt>
            <trkpt lat="49.7729152" lon="9.4489432">
                <ele>142.0</ele>
                <time>2020-08-29T09:17:13.000Z</time>
                <name>Trackpoint 1091</name>
            </trkpt>
            <trkpt lat="49.7729728" lon="9.4488312">
                <ele>142.0</ele>
                <time>2020-08-29T09:17:15.000Z</time>
                <name>Trackpoint 1092</name>
            </trkpt>
            <trkpt lat="49.7730304" lon="9.4487104">
                <ele>142.0</ele>
                <time>2020-08-29T09:17:17.000Z</time>
                <name>Trackpoint 1093</name>
            </trkpt>
            <trkpt lat="49.7730752" lon="9.4485928">
                <ele>142.0</ele>
                <time>2020-08-29T09:17:19.000Z</time>
                <name>Trackpoint 1094</name>
            </trkpt>
            <trkpt lat="49.7731008" lon="9.4484664">
                <ele>142.0</ele>
                <time>2020-08-29T09:17:21.000Z</time>
                <name>Trackpoint 1095</name>
            </trkpt>
            <trkpt lat="49.77312" lon="9.4483368">
                <ele>142.0</ele>
                <time>2020-08-29T09:17:23.000Z</time>
                <name>Trackpoint 1096</name>
            </trkpt>
            <trkpt lat="49.7731136" lon="9.4482272">
                <ele>142.0</ele>
                <time>2020-08-29T09:17:24.000Z</time>
                <name>Trackpoint 1097</name>
            </trkpt>
            <trkpt lat="49.7731136" lon="9.4480984">
                <ele>141.0</ele>
                <time>2020-08-29T09:17:25.000Z</time>
                <name>Trackpoint 1098</name>
            </trkpt>
            <trkpt lat="49.7731232" lon="9.4479968">
                <ele>141.0</ele>
                <time>2020-08-29T09:17:26.000Z</time>
                <name>Trackpoint 1099</name>
            </trkpt>
            <trkpt lat="49.77312" lon="9.447904">
                <ele>141.0</ele>
                <time>2020-08-29T09:17:27.000Z</time>
                <name>Trackpoint 1100</name>
            </trkpt>
            <trkpt lat="49.773152" lon="9.4478152">
                <ele>141.0</ele>
                <time>2020-08-29T09:17:28.000Z</time>
                <name>Trackpoint 1101</name>
            </trkpt>
            <trkpt lat="49.7731872" lon="9.4477264">
                <ele>141.0</ele>
                <time>2020-08-29T09:17:29.000Z</time>
                <name>Trackpoint 1102</name>
            </trkpt>
            <trkpt lat="49.7732576" lon="9.4475616">
                <ele>141.0</ele>
                <time>2020-08-29T09:17:31.000Z</time>
                <name>Trackpoint 1103</name>
            </trkpt>
            <trkpt lat="49.7733216" lon="9.4474152">
                <ele>142.0</ele>
                <time>2020-08-29T09:17:33.000Z</time>
                <name>Trackpoint 1104</name>
            </trkpt>
            <trkpt lat="49.7733952" lon="9.4472616">
                <ele>142.0</ele>
                <time>2020-08-29T09:17:35.000Z</time>
                <name>Trackpoint 1105</name>
            </trkpt>
            <trkpt lat="49.7734688" lon="9.4471216">
                <ele>142.0</ele>
                <time>2020-08-29T09:17:37.000Z</time>
                <name>Trackpoint 1106</name>
            </trkpt>
            <trkpt lat="49.7735328" lon="9.446992">
                <ele>142.0</ele>
                <time>2020-08-29T09:17:39.000Z</time>
                <name>Trackpoint 1107</name>
            </trkpt>
            <trkpt lat="49.7736064" lon="9.4468648">
                <ele>142.0</ele>
                <time>2020-08-29T09:17:41.000Z</time>
                <name>Trackpoint 1108</name>
            </trkpt>
            <trkpt lat="49.7736928" lon="9.4467488">
                <ele>142.0</ele>
                <time>2020-08-29T09:17:43.000Z</time>
                <name>Trackpoint 1109</name>
            </trkpt>
            <trkpt lat="49.7737824" lon="9.4466384">
                <ele>142.0</ele>
                <time>2020-08-29T09:17:45.000Z</time>
                <name>Trackpoint 1110</name>
            </trkpt>
            <trkpt lat="49.7738656" lon="9.4465312">
                <ele>142.0</ele>
                <time>2020-08-29T09:17:47.000Z</time>
                <name>Trackpoint 1111</name>
            </trkpt>
            <trkpt lat="49.773952" lon="9.446432">
                <ele>142.0</ele>
                <time>2020-08-29T09:17:49.000Z</time>
                <name>Trackpoint 1112</name>
            </trkpt>
            <trkpt lat="49.7740352" lon="9.4463232">
                <ele>142.0</ele>
                <time>2020-08-29T09:17:51.000Z</time>
                <name>Trackpoint 1113</name>
            </trkpt>
            <trkpt lat="49.7741248" lon="9.4462216">
                <ele>142.0</ele>
                <time>2020-08-29T09:17:53.000Z</time>
                <name>Trackpoint 1114</name>
            </trkpt>
            <trkpt lat="49.7742112" lon="9.4461216">
                <ele>142.0</ele>
                <time>2020-08-29T09:17:55.000Z</time>
                <name>Trackpoint 1115</name>
            </trkpt>
            <trkpt lat="49.774304" lon="9.4460288">
                <ele>142.0</ele>
                <time>2020-08-29T09:17:57.000Z</time>
                <name>Trackpoint 1116</name>
            </trkpt>
            <trkpt lat="49.7743872" lon="9.4459312">
                <ele>142.0</ele>
                <time>2020-08-29T09:17:59.000Z</time>
                <name>Trackpoint 1117</name>
            </trkpt>
            <trkpt lat="49.7744608" lon="9.4458376">
                <ele>142.0</ele>
                <time>2020-08-29T09:18:01.000Z</time>
                <name>Trackpoint 1118</name>
            </trkpt>
            <trkpt lat="49.7745408" lon="9.44576">
                <ele>142.0</ele>
                <time>2020-08-29T09:18:03.000Z</time>
                <name>Trackpoint 1119</name>
            </trkpt>
            <trkpt lat="49.7746112" lon="9.4456864">
                <ele>142.0</ele>
                <time>2020-08-29T09:18:05.000Z</time>
                <name>Trackpoint 1120</name>
            </trkpt>
            <trkpt lat="49.774672" lon="9.445608">
                <ele>142.0</ele>
                <time>2020-08-29T09:18:07.000Z</time>
                <name>Trackpoint 1121</name>
            </trkpt>
            <trkpt lat="49.7747648" lon="9.445548">
                <ele>141.0</ele>
                <time>2020-08-29T09:19:12.000Z</time>
                <name>Trackpoint 1122</name>
            </trkpt>
            <trkpt lat="49.7748448" lon="9.4454768">
                <ele>141.0</ele>
                <time>2020-08-29T09:19:16.000Z</time>
                <name>Trackpoint 1123</name>
            </trkpt>
            <trkpt lat="49.7749376" lon="9.4454072">
                <ele>141.0</ele>
                <time>2020-08-29T09:19:19.000Z</time>
                <name>Trackpoint 1124</name>
            </trkpt>
            <trkpt lat="49.7750368" lon="9.445316">
                <ele>141.0</ele>
                <time>2020-08-29T09:19:22.000Z</time>
                <name>Trackpoint 1125</name>
            </trkpt>
            <trkpt lat="49.7751424" lon="9.4452384">
                <ele>141.0</ele>
                <time>2020-08-29T09:19:25.000Z</time>
                <name>Trackpoint 1126</name>
            </trkpt>
            <trkpt lat="49.775216" lon="9.445164">
                <ele>141.0</ele>
                <time>2020-08-29T09:19:27.000Z</time>
                <name>Trackpoint 1127</name>
            </trkpt>
            <trkpt lat="49.7752864" lon="9.4450952">
                <ele>141.0</ele>
                <time>2020-08-29T09:19:29.000Z</time>
                <name>Trackpoint 1128</name>
            </trkpt>
            <trkpt lat="49.77536" lon="9.4450328">
                <ele>141.0</ele>
                <time>2020-08-29T09:19:31.000Z</time>
                <name>Trackpoint 1129</name>
            </trkpt>
            <trkpt lat="49.7754432" lon="9.4449616">
                <ele>141.0</ele>
                <time>2020-08-29T09:19:33.000Z</time>
                <name>Trackpoint 1130</name>
            </trkpt>
            <trkpt lat="49.7755232" lon="9.4449064">
                <ele>141.0</ele>
                <time>2020-08-29T09:19:35.000Z</time>
                <name>Trackpoint 1131</name>
            </trkpt>
            <trkpt lat="49.7756128" lon="9.4448496">
                <ele>141.0</ele>
                <time>2020-08-29T09:19:37.000Z</time>
                <name>Trackpoint 1132</name>
            </trkpt>
            <trkpt lat="49.7757024" lon="9.444788">
                <ele>141.0</ele>
                <time>2020-08-29T09:19:39.000Z</time>
                <name>Trackpoint 1133</name>
            </trkpt>
            <trkpt lat="49.7758016" lon="9.444728">
                <ele>141.0</ele>
                <time>2020-08-29T09:19:41.000Z</time>
                <name>Trackpoint 1134</name>
            </trkpt>
            <trkpt lat="49.7759008" lon="9.4446648">
                <ele>141.0</ele>
                <time>2020-08-29T09:19:43.000Z</time>
                <name>Trackpoint 1135</name>
            </trkpt>
            <trkpt lat="49.7759968" lon="9.4446024">
                <ele>141.0</ele>
                <time>2020-08-29T09:19:45.000Z</time>
                <name>Trackpoint 1136</name>
            </trkpt>
            <trkpt lat="49.7760896" lon="9.4445488">
                <ele>141.0</ele>
                <time>2020-08-29T09:19:47.000Z</time>
                <name>Trackpoint 1137</name>
            </trkpt>
            <trkpt lat="49.776176" lon="9.4444984">
                <ele>141.0</ele>
                <time>2020-08-29T09:19:49.000Z</time>
                <name>Trackpoint 1138</name>
            </trkpt>
            <trkpt lat="49.7762656" lon="9.4444552">
                <ele>141.0</ele>
                <time>2020-08-29T09:19:51.000Z</time>
                <name>Trackpoint 1139</name>
            </trkpt>
            <trkpt lat="49.7763488" lon="9.4444104">
                <ele>141.0</ele>
                <time>2020-08-29T09:19:53.000Z</time>
                <name>Trackpoint 1140</name>
            </trkpt>
            <trkpt lat="49.7764288" lon="9.4443504">
                <ele>141.0</ele>
                <time>2020-08-29T09:19:55.000Z</time>
                <name>Trackpoint 1141</name>
            </trkpt>
            <trkpt lat="49.7765184" lon="9.4442984">
                <ele>141.0</ele>
                <time>2020-08-29T09:19:57.000Z</time>
                <name>Trackpoint 1142</name>
            </trkpt>
            <trkpt lat="49.7766048" lon="9.44424">
                <ele>141.0</ele>
                <time>2020-08-29T09:19:59.000Z</time>
                <name>Trackpoint 1143</name>
            </trkpt>
            <trkpt lat="49.7766912" lon="9.4441928">
                <ele>141.0</ele>
                <time>2020-08-29T09:20:01.000Z</time>
                <name>Trackpoint 1144</name>
            </trkpt>
            <trkpt lat="49.7767744" lon="9.4441384">
                <ele>141.0</ele>
                <time>2020-08-29T09:20:03.000Z</time>
                <name>Trackpoint 1145</name>
            </trkpt>
            <trkpt lat="49.776864" lon="9.4440872">
                <ele>141.0</ele>
                <time>2020-08-29T09:20:05.000Z</time>
                <name>Trackpoint 1146</name>
            </trkpt>
            <trkpt lat="49.7769536" lon="9.4440232">
                <ele>141.0</ele>
                <time>2020-08-29T09:20:07.000Z</time>
                <name>Trackpoint 1147</name>
            </trkpt>
            <trkpt lat="49.77704" lon="9.4439688">
                <ele>141.0</ele>
                <time>2020-08-29T09:20:09.000Z</time>
                <name>Trackpoint 1148</name>
            </trkpt>
            <trkpt lat="49.7771584" lon="9.4439112">
                <ele>141.0</ele>
                <time>2020-08-29T09:20:12.000Z</time>
                <name>Trackpoint 1149</name>
            </trkpt>
            <trkpt lat="49.777232" lon="9.4438488">
                <ele>141.0</ele>
                <time>2020-08-29T09:20:14.000Z</time>
                <name>Trackpoint 1150</name>
            </trkpt>
            <trkpt lat="49.7773088" lon="9.4438">
                <ele>141.0</ele>
                <time>2020-08-29T09:20:16.000Z</time>
                <name>Trackpoint 1151</name>
            </trkpt>
            <trkpt lat="49.7773984" lon="9.4437512">
                <ele>141.0</ele>
                <time>2020-08-29T09:20:18.000Z</time>
                <name>Trackpoint 1152</name>
            </trkpt>
            <trkpt lat="49.7775168" lon="9.4436848">
                <ele>142.0</ele>
                <time>2020-08-29T09:20:21.000Z</time>
                <name>Trackpoint 1153</name>
            </trkpt>
            <trkpt lat="49.7776" lon="9.443648">
                <ele>142.0</ele>
                <time>2020-08-29T09:20:23.000Z</time>
                <name>Trackpoint 1154</name>
            </trkpt>
            <trkpt lat="49.7777024" lon="9.4436152">
                <ele>142.0</ele>
                <time>2020-08-29T09:20:26.000Z</time>
                <name>Trackpoint 1155</name>
            </trkpt>
            <trkpt lat="49.7777888" lon="9.4435728">
                <ele>142.0</ele>
                <time>2020-08-29T09:20:29.000Z</time>
                <name>Trackpoint 1156</name>
            </trkpt>
            <trkpt lat="49.7778848" lon="9.4435352">
                <ele>142.0</ele>
                <time>2020-08-29T09:20:33.000Z</time>
                <name>Trackpoint 1157</name>
            </trkpt>
            <trkpt lat="49.7779648" lon="9.4434904">
                <ele>141.0</ele>
                <time>2020-08-29T09:20:37.000Z</time>
                <name>Trackpoint 1158</name>
            </trkpt>
            <trkpt lat="49.7780576" lon="9.4434584">
                <ele>141.0</ele>
                <time>2020-08-29T09:21:11.000Z</time>
                <name>Trackpoint 1159</name>
            </trkpt>
            <trkpt lat="49.77816" lon="9.443412">
                <ele>141.0</ele>
                <time>2020-08-29T09:21:14.000Z</time>
                <name>Trackpoint 1160</name>
            </trkpt>
            <trkpt lat="49.7782592" lon="9.443348">
                <ele>141.0</ele>
                <time>2020-08-29T09:22:01.000Z</time>
                <name>Trackpoint 1161</name>
            </trkpt>
            <trkpt lat="49.7783584" lon="9.4433">
                <ele>141.0</ele>
                <time>2020-08-29T09:22:04.000Z</time>
                <name>Trackpoint 1162</name>
            </trkpt>
            <trkpt lat="49.7784416" lon="9.44326">
                <ele>141.0</ele>
                <time>2020-08-29T09:22:06.000Z</time>
                <name>Trackpoint 1163</name>
            </trkpt>
            <trkpt lat="49.7785344" lon="9.4432152">
                <ele>141.0</ele>
                <time>2020-08-29T09:22:08.000Z</time>
                <name>Trackpoint 1164</name>
            </trkpt>
            <trkpt lat="49.7786304" lon="9.4431632">
                <ele>141.0</ele>
                <time>2020-08-29T09:22:10.000Z</time>
                <name>Trackpoint 1165</name>
            </trkpt>
            <trkpt lat="49.7787232" lon="9.4430984">
                <ele>141.0</ele>
                <time>2020-08-29T09:22:12.000Z</time>
                <name>Trackpoint 1166</name>
            </trkpt>
            <trkpt lat="49.7788096" lon="9.4430376">
                <ele>141.0</ele>
                <time>2020-08-29T09:22:14.000Z</time>
                <name>Trackpoint 1167</name>
            </trkpt>
            <trkpt lat="49.778896" lon="9.4429816">
                <ele>141.0</ele>
                <time>2020-08-29T09:22:16.000Z</time>
                <name>Trackpoint 1168</name>
            </trkpt>
            <trkpt lat="49.7789888" lon="9.4429152">
                <ele>141.0</ele>
                <time>2020-08-29T09:22:18.000Z</time>
                <name>Trackpoint 1169</name>
            </trkpt>
            <trkpt lat="49.779072" lon="9.442848">
                <ele>141.0</ele>
                <time>2020-08-29T09:22:20.000Z</time>
                <name>Trackpoint 1170</name>
            </trkpt>
            <trkpt lat="49.779168" lon="9.4427672">
                <ele>141.0</ele>
                <time>2020-08-29T09:22:22.000Z</time>
                <name>Trackpoint 1171</name>
            </trkpt>
            <trkpt lat="49.7792544" lon="9.4426848">
                <ele>141.0</ele>
                <time>2020-08-29T09:22:24.000Z</time>
                <name>Trackpoint 1172</name>
            </trkpt>
            <trkpt lat="49.7793472" lon="9.4426072">
                <ele>141.0</ele>
                <time>2020-08-29T09:22:26.000Z</time>
                <name>Trackpoint 1173</name>
            </trkpt>
            <trkpt lat="49.7794304" lon="9.4425352">
                <ele>141.0</ele>
                <time>2020-08-29T09:22:28.000Z</time>
                <name>Trackpoint 1174</name>
            </trkpt>
            <trkpt lat="49.7795136" lon="9.4424688">
                <ele>141.0</ele>
                <time>2020-08-29T09:22:30.000Z</time>
                <name>Trackpoint 1175</name>
            </trkpt>
            <trkpt lat="49.7795904" lon="9.442404">
                <ele>141.0</ele>
                <time>2020-08-29T09:22:32.000Z</time>
                <name>Trackpoint 1176</name>
            </trkpt>
            <trkpt lat="49.7796736" lon="9.44234">
                <ele>141.0</ele>
                <time>2020-08-29T09:22:34.000Z</time>
                <name>Trackpoint 1177</name>
            </trkpt>
            <trkpt lat="49.7797632" lon="9.4422776">
                <ele>141.0</ele>
                <time>2020-08-29T09:22:36.000Z</time>
                <name>Trackpoint 1178</name>
            </trkpt>
            <trkpt lat="49.7798592" lon="9.4422032">
                <ele>141.0</ele>
                <time>2020-08-29T09:22:38.000Z</time>
                <name>Trackpoint 1179</name>
            </trkpt>
            <trkpt lat="49.7799424" lon="9.442148">
                <ele>141.0</ele>
                <time>2020-08-29T09:22:40.000Z</time>
                <name>Trackpoint 1180</name>
            </trkpt>
            <trkpt lat="49.7800512" lon="9.4420584">
                <ele>141.0</ele>
                <time>2020-08-29T09:22:43.000Z</time>
                <name>Trackpoint 1181</name>
            </trkpt>
            <trkpt lat="49.7801248" lon="9.4419944">
                <ele>141.0</ele>
                <time>2020-08-29T09:22:45.000Z</time>
                <name>Trackpoint 1182</name>
            </trkpt>
            <trkpt lat="49.7802016" lon="9.4419416">
                <ele>141.0</ele>
                <time>2020-08-29T09:22:47.000Z</time>
                <name>Trackpoint 1183</name>
            </trkpt>
            <trkpt lat="49.7802816" lon="9.4418824">
                <ele>141.0</ele>
                <time>2020-08-29T09:22:49.000Z</time>
                <name>Trackpoint 1184</name>
            </trkpt>
            <trkpt lat="49.780368" lon="9.4418224">
                <ele>141.0</ele>
                <time>2020-08-29T09:22:51.000Z</time>
                <name>Trackpoint 1185</name>
            </trkpt>
            <trkpt lat="49.7804576" lon="9.4417616">
                <ele>141.0</ele>
                <time>2020-08-29T09:22:53.000Z</time>
                <name>Trackpoint 1186</name>
            </trkpt>
            <trkpt lat="49.7805472" lon="9.4417048">
                <ele>141.0</ele>
                <time>2020-08-29T09:22:55.000Z</time>
                <name>Trackpoint 1187</name>
            </trkpt>
            <trkpt lat="49.7806432" lon="9.4416512">
                <ele>141.0</ele>
                <time>2020-08-29T09:22:57.000Z</time>
                <name>Trackpoint 1188</name>
            </trkpt>
            <trkpt lat="49.7807744" lon="9.4415752">
                <ele>141.0</ele>
                <time>2020-08-29T09:23:00.000Z</time>
                <name>Trackpoint 1189</name>
            </trkpt>
            <trkpt lat="49.7808672" lon="9.441528">
                <ele>141.0</ele>
                <time>2020-08-29T09:23:02.000Z</time>
                <name>Trackpoint 1190</name>
            </trkpt>
            <trkpt lat="49.7809664" lon="9.4414704">
                <ele>141.0</ele>
                <time>2020-08-29T09:23:04.000Z</time>
                <name>Trackpoint 1191</name>
            </trkpt>
            <trkpt lat="49.781056" lon="9.4414256">
                <ele>141.0</ele>
                <time>2020-08-29T09:23:06.000Z</time>
                <name>Trackpoint 1192</name>
            </trkpt>
            <trkpt lat="49.781152" lon="9.4413744">
                <ele>141.0</ele>
                <time>2020-08-29T09:23:08.000Z</time>
                <name>Trackpoint 1193</name>
            </trkpt>
            <trkpt lat="49.781232" lon="9.441312">
                <ele>141.0</ele>
                <time>2020-08-29T09:23:10.000Z</time>
                <name>Trackpoint 1194</name>
            </trkpt>
            <trkpt lat="49.7813184" lon="9.4412248">
                <ele>140.0</ele>
                <time>2020-08-29T09:23:13.000Z</time>
                <name>Trackpoint 1195</name>
            </trkpt>
            <trkpt lat="49.7813952" lon="9.44116">
                <ele>140.0</ele>
                <time>2020-08-29T09:23:22.000Z</time>
                <name>Trackpoint 1196</name>
            </trkpt>
            <trkpt lat="49.7814944" lon="9.44112">
                <ele>140.0</ele>
                <time>2020-08-29T09:23:28.000Z</time>
                <name>Trackpoint 1197</name>
            </trkpt>
            <trkpt lat="49.7815808" lon="9.441152">
                <ele>140.0</ele>
                <time>2020-08-29T09:23:32.000Z</time>
                <name>Trackpoint 1198</name>
            </trkpt>
            <trkpt lat="49.7816864" lon="9.4411088">
                <ele>140.0</ele>
                <time>2020-08-29T09:23:35.000Z</time>
                <name>Trackpoint 1199</name>
            </trkpt>
            <trkpt lat="49.7817888" lon="9.4410352">
                <ele>140.0</ele>
                <time>2020-08-29T09:23:38.000Z</time>
                <name>Trackpoint 1200</name>
            </trkpt>
            <trkpt lat="49.7818688" lon="9.440984">
                <ele>140.0</ele>
                <time>2020-08-29T09:23:40.000Z</time>
                <name>Trackpoint 1201</name>
            </trkpt>
            <trkpt lat="49.781984" lon="9.4409568">
                <ele>139.0</ele>
                <time>2020-08-29T09:24:23.000Z</time>
                <name>Trackpoint 1202</name>
            </trkpt>
            <trkpt lat="49.782064" lon="9.4409136">
                <ele>139.0</ele>
                <time>2020-08-29T09:24:34.000Z</time>
                <name>Trackpoint 1203</name>
            </trkpt>
            <trkpt lat="49.782144" lon="9.4408712">
                <ele>139.0</ele>
                <time>2020-08-29T09:24:39.000Z</time>
                <name>Trackpoint 1204</name>
            </trkpt>
            <trkpt lat="49.7822432" lon="9.44084">
                <ele>139.0</ele>
                <time>2020-08-29T09:24:43.000Z</time>
                <name>Trackpoint 1205</name>
            </trkpt>
            <trkpt lat="49.7823232" lon="9.4407928">
                <ele>139.0</ele>
                <time>2020-08-29T09:25:20.000Z</time>
                <name>Trackpoint 1206</name>
            </trkpt>
            <trkpt lat="49.782416" lon="9.4407216">
                <ele>139.0</ele>
                <time>2020-08-29T09:25:23.000Z</time>
                <name>Trackpoint 1207</name>
            </trkpt>
            <trkpt lat="49.7825152" lon="9.4406584">
                <ele>139.0</ele>
                <time>2020-08-29T09:25:26.000Z</time>
                <name>Trackpoint 1208</name>
            </trkpt>
            <trkpt lat="49.782624" lon="9.4405896">
                <ele>139.0</ele>
                <time>2020-08-29T09:25:29.000Z</time>
                <name>Trackpoint 1209</name>
            </trkpt>
            <trkpt lat="49.782704" lon="9.4405344">
                <ele>139.0</ele>
                <time>2020-08-29T09:25:31.000Z</time>
                <name>Trackpoint 1210</name>
            </trkpt>
            <trkpt lat="49.7827872" lon="9.440492">
                <ele>139.0</ele>
                <time>2020-08-29T09:25:33.000Z</time>
                <name>Trackpoint 1211</name>
            </trkpt>
            <trkpt lat="49.782912" lon="9.4404424">
                <ele>139.0</ele>
                <time>2020-08-29T09:25:36.000Z</time>
                <name>Trackpoint 1212</name>
            </trkpt>
            <trkpt lat="49.7830016" lon="9.4403936">
                <ele>139.0</ele>
                <time>2020-08-29T09:25:38.000Z</time>
                <name>Trackpoint 1213</name>
            </trkpt>
            <trkpt lat="49.7830848" lon="9.4403464">
                <ele>139.0</ele>
                <time>2020-08-29T09:25:40.000Z</time>
                <name>Trackpoint 1214</name>
            </trkpt>
            <trkpt lat="49.783152" lon="9.4402864">
                <ele>139.0</ele>
                <time>2020-08-29T09:25:42.000Z</time>
                <name>Trackpoint 1215</name>
            </trkpt>
            <trkpt lat="49.7832288" lon="9.4402152">
                <ele>139.0</ele>
                <time>2020-08-29T09:25:44.000Z</time>
                <name>Trackpoint 1216</name>
            </trkpt>
            <trkpt lat="49.7833088" lon="9.4401504">
                <ele>139.0</ele>
                <time>2020-08-29T09:25:46.000Z</time>
                <name>Trackpoint 1217</name>
            </trkpt>
            <trkpt lat="49.7833952" lon="9.4400752">
                <ele>139.0</ele>
                <time>2020-08-29T09:25:48.000Z</time>
                <name>Trackpoint 1218</name>
            </trkpt>
            <trkpt lat="49.7834688" lon="9.4400128">
                <ele>139.0</ele>
                <time>2020-08-29T09:25:50.000Z</time>
                <name>Trackpoint 1219</name>
            </trkpt>
            <trkpt lat="49.7835424" lon="9.4399416">
                <ele>139.0</ele>
                <time>2020-08-29T09:25:52.000Z</time>
                <name>Trackpoint 1220</name>
            </trkpt>
            <trkpt lat="49.7836256" lon="9.4398648">
                <ele>139.0</ele>
                <time>2020-08-29T09:25:54.000Z</time>
                <name>Trackpoint 1221</name>
            </trkpt>
            <trkpt lat="49.7837056" lon="9.4397968">
                <ele>139.0</ele>
                <time>2020-08-29T09:25:56.000Z</time>
                <name>Trackpoint 1222</name>
            </trkpt>
            <trkpt lat="49.7837984" lon="9.4397224">
                <ele>139.0</ele>
                <time>2020-08-29T09:25:58.000Z</time>
                <name>Trackpoint 1223</name>
            </trkpt>
            <trkpt lat="49.7838816" lon="9.4396464">
                <ele>139.0</ele>
                <time>2020-08-29T09:26:00.000Z</time>
                <name>Trackpoint 1224</name>
            </trkpt>
            <trkpt lat="49.7839744" lon="9.4395664">
                <ele>139.0</ele>
                <time>2020-08-29T09:26:02.000Z</time>
                <name>Trackpoint 1225</name>
            </trkpt>
            <trkpt lat="49.7840576" lon="9.43948">
                <ele>139.0</ele>
                <time>2020-08-29T09:26:04.000Z</time>
                <name>Trackpoint 1226</name>
            </trkpt>
            <trkpt lat="49.7841216" lon="9.4393984">
                <ele>139.0</ele>
                <time>2020-08-29T09:26:06.000Z</time>
                <name>Trackpoint 1227</name>
            </trkpt>
            <trkpt lat="49.7841888" lon="9.4393304">
                <ele>139.0</ele>
                <time>2020-08-29T09:26:08.000Z</time>
                <name>Trackpoint 1228</name>
            </trkpt>
            <trkpt lat="49.7842496" lon="9.4392584">
                <ele>139.0</ele>
                <time>2020-08-29T09:26:12.000Z</time>
                <name>Trackpoint 1229</name>
            </trkpt>
            <trkpt lat="49.784336" lon="9.4391984">
                <ele>139.0</ele>
                <time>2020-08-29T09:26:59.000Z</time>
                <name>Trackpoint 1230</name>
            </trkpt>
            <trkpt lat="49.784416" lon="9.4391496">
                <ele>139.0</ele>
                <time>2020-08-29T09:27:02.000Z</time>
                <name>Trackpoint 1231</name>
            </trkpt>
            <trkpt lat="49.7844992" lon="9.4390984">
                <ele>139.0</ele>
                <time>2020-08-29T09:27:05.000Z</time>
                <name>Trackpoint 1232</name>
            </trkpt>
            <trkpt lat="49.7845792" lon="9.4390448">
                <ele>139.0</ele>
                <time>2020-08-29T09:27:09.000Z</time>
                <name>Trackpoint 1233</name>
            </trkpt>
            <trkpt lat="49.7846752" lon="9.438996">
                <ele>137.0</ele>
                <time>2020-08-29T09:27:14.000Z</time>
                <name>Trackpoint 1234</name>
            </trkpt>
            <trkpt lat="49.7847744" lon="9.4389336">
                <ele>137.0</ele>
                <time>2020-08-29T09:27:18.000Z</time>
                <name>Trackpoint 1235</name>
            </trkpt>
            <trkpt lat="49.7848672" lon="9.4388536">
                <ele>137.0</ele>
                <time>2020-08-29T09:27:21.000Z</time>
                <name>Trackpoint 1236</name>
            </trkpt>
            <trkpt lat="49.7849536" lon="9.438768">
                <ele>138.0</ele>
                <time>2020-08-29T09:27:24.000Z</time>
                <name>Trackpoint 1237</name>
            </trkpt>
            <trkpt lat="49.7850528" lon="9.4386864">
                <ele>137.0</ele>
                <time>2020-08-29T09:27:27.000Z</time>
                <name>Trackpoint 1238</name>
            </trkpt>
            <trkpt lat="49.7851424" lon="9.43862">
                <ele>137.0</ele>
                <time>2020-08-29T09:27:29.000Z</time>
                <name>Trackpoint 1239</name>
            </trkpt>
            <trkpt lat="49.785216" lon="9.4385592">
                <ele>137.0</ele>
                <time>2020-08-29T09:27:31.000Z</time>
                <name>Trackpoint 1240</name>
            </trkpt>
            <trkpt lat="49.7852928" lon="9.4384896">
                <ele>137.0</ele>
                <time>2020-08-29T09:27:33.000Z</time>
                <name>Trackpoint 1241</name>
            </trkpt>
            <trkpt lat="49.7853632" lon="9.4384216">
                <ele>138.0</ele>
                <time>2020-08-29T09:27:35.000Z</time>
                <name>Trackpoint 1242</name>
            </trkpt>
            <trkpt lat="49.7854464" lon="9.438352">
                <ele>138.0</ele>
                <time>2020-08-29T09:27:37.000Z</time>
                <name>Trackpoint 1243</name>
            </trkpt>
            <trkpt lat="49.7855296" lon="9.4382912">
                <ele>137.0</ele>
                <time>2020-08-29T09:27:39.000Z</time>
                <name>Trackpoint 1244</name>
            </trkpt>
            <trkpt lat="49.7856096" lon="9.4382152">
                <ele>137.0</ele>
                <time>2020-08-29T09:27:41.000Z</time>
                <name>Trackpoint 1245</name>
            </trkpt>
            <trkpt lat="49.7856864" lon="9.4381288">
                <ele>137.0</ele>
                <time>2020-08-29T09:27:43.000Z</time>
                <name>Trackpoint 1246</name>
            </trkpt>
            <trkpt lat="49.7857728" lon="9.4380512">
                <ele>137.0</ele>
                <time>2020-08-29T09:27:45.000Z</time>
                <name>Trackpoint 1247</name>
            </trkpt>
            <trkpt lat="49.7858592" lon="9.4379832">
                <ele>137.0</ele>
                <time>2020-08-29T09:27:47.000Z</time>
                <name>Trackpoint 1248</name>
            </trkpt>
            <trkpt lat="49.7859456" lon="9.4379184">
                <ele>137.0</ele>
                <time>2020-08-29T09:27:49.000Z</time>
                <name>Trackpoint 1249</name>
            </trkpt>
            <trkpt lat="49.7860384" lon="9.437848">
                <ele>137.0</ele>
                <time>2020-08-29T09:27:51.000Z</time>
                <name>Trackpoint 1250</name>
            </trkpt>
            <trkpt lat="49.7861216" lon="9.4377696">
                <ele>138.0</ele>
                <time>2020-08-29T09:27:53.000Z</time>
                <name>Trackpoint 1251</name>
            </trkpt>
            <trkpt lat="49.7862048" lon="9.437712">
                <ele>137.0</ele>
                <time>2020-08-29T09:27:55.000Z</time>
                <name>Trackpoint 1252</name>
            </trkpt>
            <trkpt lat="49.7862976" lon="9.4376472">
                <ele>137.0</ele>
                <time>2020-08-29T09:27:57.000Z</time>
                <name>Trackpoint 1253</name>
            </trkpt>
            <trkpt lat="49.7863776" lon="9.4375936">
                <ele>137.0</ele>
                <time>2020-08-29T09:27:59.000Z</time>
                <name>Trackpoint 1254</name>
            </trkpt>
            <trkpt lat="49.7864672" lon="9.4375384">
                <ele>137.0</ele>
                <time>2020-08-29T09:28:01.000Z</time>
                <name>Trackpoint 1255</name>
            </trkpt>
            <trkpt lat="49.786544" lon="9.4374704">
                <ele>136.0</ele>
                <time>2020-08-29T09:28:03.000Z</time>
                <name>Trackpoint 1256</name>
            </trkpt>
            <trkpt lat="49.7866368" lon="9.4373752">
                <ele>136.0</ele>
                <time>2020-08-29T09:28:06.000Z</time>
                <name>Trackpoint 1257</name>
            </trkpt>
            <trkpt lat="49.7866995" lon="9.437305">
                <ele>136.0</ele>
                <time>2020-08-29T09:28:09.000Z</time>
                <name>Trackpoint 1258</name>
            </trkpt>
            <trkpt lat="49.786738" lon="9.4372626">
                <ele>137.0</ele>
                <time>2020-08-29T09:28:13.000Z</time>
                <name>Trackpoint 1259</name>
            </trkpt>
            <trkpt lat="49.7867753" lon="9.4372055">
                <ele>136.0</ele>
                <time>2020-08-29T09:28:35.000Z</time>
                <name>Trackpoint 1260</name>
            </trkpt>
            <trkpt lat="49.786864" lon="9.4371048">
                <ele>137.0</ele>
                <time>2020-08-29T09:29:24.000Z</time>
                <name>Trackpoint 1264</name>
            </trkpt>
            <trkpt lat="49.7869312" lon="9.4370272">
                <ele>137.0</ele>
                <time>2020-08-29T09:29:26.000Z</time>
                <name>Trackpoint 1265</name>
            </trkpt>
            <trkpt lat="49.7870112" lon="9.4369472">
                <ele>137.0</ele>
                <time>2020-08-29T09:29:28.000Z</time>
                <name>Trackpoint 1266</name>
            </trkpt>
            <trkpt lat="49.7871008" lon="9.4368648">
                <ele>137.0</ele>
                <time>2020-08-29T09:29:30.000Z</time>
                <name>Trackpoint 1267</name>
            </trkpt>
            <trkpt lat="49.7871712" lon="9.4367712">
                <ele>137.0</ele>
                <time>2020-08-29T09:29:32.000Z</time>
                <name>Trackpoint 1268</name>
            </trkpt>
            <trkpt lat="49.7872608" lon="9.4366776">
                <ele>137.0</ele>
                <time>2020-08-29T09:29:34.000Z</time>
                <name>Trackpoint 1269</name>
            </trkpt>
            <trkpt lat="49.7873664" lon="9.4365856">
                <ele>137.0</ele>
                <time>2020-08-29T09:29:36.000Z</time>
                <name>Trackpoint 1270</name>
            </trkpt>
            <trkpt lat="49.7874528" lon="9.4364928">
                <ele>137.0</ele>
                <time>2020-08-29T09:29:38.000Z</time>
                <name>Trackpoint 1271</name>
            </trkpt>
            <trkpt lat="49.7875328" lon="9.4363968">
                <ele>137.0</ele>
                <time>2020-08-29T09:29:40.000Z</time>
                <name>Trackpoint 1272</name>
            </trkpt>
            <trkpt lat="49.787616" lon="9.4363016">
                <ele>137.0</ele>
                <time>2020-08-29T09:29:42.000Z</time>
                <name>Trackpoint 1273</name>
            </trkpt>
            <trkpt lat="49.7876928" lon="9.4362024">
                <ele>137.0</ele>
                <time>2020-08-29T09:29:44.000Z</time>
                <name>Trackpoint 1274</name>
            </trkpt>
            <trkpt lat="49.7877728" lon="9.436096">
                <ele>137.0</ele>
                <time>2020-08-29T09:29:46.000Z</time>
                <name>Trackpoint 1275</name>
            </trkpt>
            <trkpt lat="49.7878496" lon="9.4359976">
                <ele>136.0</ele>
                <time>2020-08-29T09:29:48.000Z</time>
                <name>Trackpoint 1276</name>
            </trkpt>
            <trkpt lat="49.7879328" lon="9.435888">
                <ele>136.0</ele>
                <time>2020-08-29T09:29:50.000Z</time>
                <name>Trackpoint 1277</name>
            </trkpt>
            <trkpt lat="49.7880096" lon="9.4357784">
                <ele>137.0</ele>
                <time>2020-08-29T09:29:52.000Z</time>
                <name>Trackpoint 1278</name>
            </trkpt>
            <trkpt lat="49.7880896" lon="9.435672">
                <ele>137.0</ele>
                <time>2020-08-29T09:29:54.000Z</time>
                <name>Trackpoint 1279</name>
            </trkpt>
            <trkpt lat="49.7881696" lon="9.43556">
                <ele>137.0</ele>
                <time>2020-08-29T09:29:56.000Z</time>
                <name>Trackpoint 1280</name>
            </trkpt>
            <trkpt lat="49.7882336" lon="9.4354464">
                <ele>137.0</ele>
                <time>2020-08-29T09:29:58.000Z</time>
                <name>Trackpoint 1281</name>
            </trkpt>
            <trkpt lat="49.7883296" lon="9.4353312">
                <ele>137.0</ele>
                <time>2020-08-29T09:30:00.000Z</time>
                <name>Trackpoint 1282</name>
            </trkpt>
            <trkpt lat="49.7883936" lon="9.4352152">
                <ele>137.0</ele>
                <time>2020-08-29T09:30:02.000Z</time>
                <name>Trackpoint 1283</name>
            </trkpt>
            <trkpt lat="49.788464" lon="9.4350832">
                <ele>137.0</ele>
                <time>2020-08-29T09:30:04.000Z</time>
                <name>Trackpoint 1284</name>
            </trkpt>
            <trkpt lat="49.7885376" lon="9.4349496">
                <ele>137.0</ele>
                <time>2020-08-29T09:30:06.000Z</time>
                <name>Trackpoint 1285</name>
            </trkpt>
            <trkpt lat="49.7886112" lon="9.4348136">
                <ele>137.0</ele>
                <time>2020-08-29T09:30:08.000Z</time>
                <name>Trackpoint 1286</name>
            </trkpt>
            <trkpt lat="49.7886848" lon="9.4346816">
                <ele>137.0</ele>
                <time>2020-08-29T09:30:10.000Z</time>
                <name>Trackpoint 1287</name>
            </trkpt>
            <trkpt lat="49.7887456" lon="9.4345576">
                <ele>137.0</ele>
                <time>2020-08-29T09:30:12.000Z</time>
                <name>Trackpoint 1288</name>
            </trkpt>
            <trkpt lat="49.7888064" lon="9.4344328">
                <ele>137.0</ele>
                <time>2020-08-29T09:30:14.000Z</time>
                <name>Trackpoint 1289</name>
            </trkpt>
            <trkpt lat="49.7888704" lon="9.4343096">
                <ele>136.0</ele>
                <time>2020-08-29T09:30:16.000Z</time>
                <name>Trackpoint 1290</name>
            </trkpt>
            <trkpt lat="49.7889344" lon="9.4341848">
                <ele>136.0</ele>
                <time>2020-08-29T09:30:18.000Z</time>
                <name>Trackpoint 1291</name>
            </trkpt>
            <trkpt lat="49.7889888" lon="9.4340664">
                <ele>135.0</ele>
                <time>2020-08-29T09:30:20.000Z</time>
                <name>Trackpoint 1292</name>
            </trkpt>
            <trkpt lat="49.7890496" lon="9.4339488">
                <ele>135.0</ele>
                <time>2020-08-29T09:30:22.000Z</time>
                <name>Trackpoint 1293</name>
            </trkpt>
            <trkpt lat="49.789104" lon="9.433844">
                <ele>135.0</ele>
                <time>2020-08-29T09:30:24.000Z</time>
                <name>Trackpoint 1294</name>
            </trkpt>
            <trkpt lat="49.7891552" lon="9.4337456">
                <ele>135.0</ele>
                <time>2020-08-29T09:30:26.000Z</time>
                <name>Trackpoint 1295</name>
            </trkpt>
            <trkpt lat="49.7891872" lon="9.4336384">
                <ele>135.0</ele>
                <time>2020-08-29T09:30:28.000Z</time>
                <name>Trackpoint 1296</name>
            </trkpt>
            <trkpt lat="49.7891936" lon="9.433508">
                <ele>134.0</ele>
                <time>2020-08-29T09:30:30.000Z</time>
                <name>Trackpoint 1297</name>
            </trkpt>
            <trkpt lat="49.789136" lon="9.4334296">
                <ele>134.0</ele>
                <time>2020-08-29T09:30:32.000Z</time>
                <name>Trackpoint 1298</name>
            </trkpt>
            <trkpt lat="49.789056" lon="9.4333512">
                <ele>134.0</ele>
                <time>2020-08-29T09:30:34.000Z</time>
                <name>Trackpoint 1299</name>
            </trkpt>
            <trkpt lat="49.7890016" lon="9.4332216">
                <ele>134.0</ele>
                <time>2020-08-29T09:30:36.000Z</time>
                <name>Trackpoint 1300</name>
            </trkpt>
            <trkpt lat="49.789024" lon="9.433072">
                <ele>134.0</ele>
                <time>2020-08-29T09:30:38.000Z</time>
                <name>Trackpoint 1301</name>
            </trkpt>
            <trkpt lat="49.7890752" lon="9.4329208">
                <ele>134.0</ele>
                <time>2020-08-29T09:30:40.000Z</time>
                <name>Trackpoint 1302</name>
            </trkpt>
            <trkpt lat="49.78912" lon="9.4327648">
                <ele>134.0</ele>
                <time>2020-08-29T09:30:42.000Z</time>
                <name>Trackpoint 1303</name>
            </trkpt>
            <trkpt lat="49.7891744" lon="9.4326216">
                <ele>134.0</ele>
                <time>2020-08-29T09:30:44.000Z</time>
                <name>Trackpoint 1304</name>
            </trkpt>
            <trkpt lat="49.7892224" lon="9.4324752">
                <ele>134.0</ele>
                <time>2020-08-29T09:30:46.000Z</time>
                <name>Trackpoint 1305</name>
            </trkpt>
            <trkpt lat="49.7892608" lon="9.4323256">
                <ele>134.0</ele>
                <time>2020-08-29T09:30:48.000Z</time>
                <name>Trackpoint 1306</name>
            </trkpt>
            <trkpt lat="49.7892928" lon="9.4321648">
                <ele>133.0</ele>
                <time>2020-08-29T09:30:50.000Z</time>
                <name>Trackpoint 1307</name>
            </trkpt>
            <trkpt lat="49.7893152" lon="9.432012">
                <ele>133.0</ele>
                <time>2020-08-29T09:30:52.000Z</time>
                <name>Trackpoint 1308</name>
            </trkpt>
            <trkpt lat="49.7893248" lon="9.4318536">
                <ele>133.0</ele>
                <time>2020-08-29T09:30:54.000Z</time>
                <name>Trackpoint 1309</name>
            </trkpt>
            <trkpt lat="49.7893408" lon="9.431688">
                <ele>133.0</ele>
                <time>2020-08-29T09:30:56.000Z</time>
                <name>Trackpoint 1310</name>
            </trkpt>
            <trkpt lat="49.7893536" lon="9.4315272">
                <ele>133.0</ele>
                <time>2020-08-29T09:30:58.000Z</time>
                <name>Trackpoint 1311</name>
            </trkpt>
            <trkpt lat="49.7893856" lon="9.4313632">
                <ele>133.0</ele>
                <time>2020-08-29T09:31:00.000Z</time>
                <name>Trackpoint 1312</name>
            </trkpt>
            <trkpt lat="49.789424" lon="9.4312064">
                <ele>133.0</ele>
                <time>2020-08-29T09:31:02.000Z</time>
                <name>Trackpoint 1313</name>
            </trkpt>
            <trkpt lat="49.7894656" lon="9.4310552">
                <ele>133.0</ele>
                <time>2020-08-29T09:31:04.000Z</time>
                <name>Trackpoint 1314</name>
            </trkpt>
            <trkpt lat="49.7895104" lon="9.430908">
                <ele>133.0</ele>
                <time>2020-08-29T09:31:06.000Z</time>
                <name>Trackpoint 1315</name>
            </trkpt>
            <trkpt lat="49.789552" lon="9.4307616">
                <ele>133.0</ele>
                <time>2020-08-29T09:31:08.000Z</time>
                <name>Trackpoint 1316</name>
            </trkpt>
            <trkpt lat="49.7895968" lon="9.4306136">
                <ele>133.0</ele>
                <time>2020-08-29T09:31:10.000Z</time>
                <name>Trackpoint 1317</name>
            </trkpt>
            <trkpt lat="49.7896384" lon="9.4304704">
                <ele>133.0</ele>
                <time>2020-08-29T09:31:12.000Z</time>
                <name>Trackpoint 1318</name>
            </trkpt>
            <trkpt lat="49.7896736" lon="9.4303328">
                <ele>133.0</ele>
                <time>2020-08-29T09:31:14.000Z</time>
                <name>Trackpoint 1319</name>
            </trkpt>
            <trkpt lat="49.7897152" lon="9.4301984">
                <ele>133.0</ele>
                <time>2020-08-29T09:31:16.000Z</time>
                <name>Trackpoint 1320</name>
            </trkpt>
            <trkpt lat="49.7897536" lon="9.4300632">
                <ele>133.0</ele>
                <time>2020-08-29T09:31:18.000Z</time>
                <name>Trackpoint 1321</name>
            </trkpt>
            <trkpt lat="49.7897824" lon="9.42992">
                <ele>133.0</ele>
                <time>2020-08-29T09:31:20.000Z</time>
                <name>Trackpoint 1322</name>
            </trkpt>
            <trkpt lat="49.7898176" lon="9.429776">
                <ele>133.0</ele>
                <time>2020-08-29T09:31:22.000Z</time>
                <name>Trackpoint 1323</name>
            </trkpt>
            <trkpt lat="49.7898496" lon="9.4296312">
                <ele>133.0</ele>
                <time>2020-08-29T09:31:24.000Z</time>
                <name>Trackpoint 1324</name>
            </trkpt>
            <trkpt lat="49.7898816" lon="9.4294856">
                <ele>133.0</ele>
                <time>2020-08-29T09:31:26.000Z</time>
                <name>Trackpoint 1325</name>
            </trkpt>
            <trkpt lat="49.7899136" lon="9.4293344">
                <ele>132.0</ele>
                <time>2020-08-29T09:31:28.000Z</time>
                <name>Trackpoint 1326</name>
            </trkpt>
            <trkpt lat="49.7899424" lon="9.4291936">
                <ele>133.0</ele>
                <time>2020-08-29T09:31:30.000Z</time>
                <name>Trackpoint 1327</name>
            </trkpt>
            <trkpt lat="49.7899776" lon="9.4290504">
                <ele>133.0</ele>
                <time>2020-08-29T09:31:32.000Z</time>
                <name>Trackpoint 1328</name>
            </trkpt>
            <trkpt lat="49.79" lon="9.428908">
                <ele>133.0</ele>
                <time>2020-08-29T09:31:34.000Z</time>
                <name>Trackpoint 1329</name>
            </trkpt>
            <trkpt lat="49.7900224" lon="9.4287632">
                <ele>133.0</ele>
                <time>2020-08-29T09:31:36.000Z</time>
                <name>Trackpoint 1330</name>
            </trkpt>
            <trkpt lat="49.7900544" lon="9.4286216">
                <ele>133.0</ele>
                <time>2020-08-29T09:31:38.000Z</time>
                <name>Trackpoint 1331</name>
            </trkpt>
            <trkpt lat="49.7900864" lon="9.4284912">
                <ele>133.0</ele>
                <time>2020-08-29T09:31:40.000Z</time>
                <name>Trackpoint 1332</name>
            </trkpt>
            <trkpt lat="49.7901216" lon="9.4283616">
                <ele>133.0</ele>
                <time>2020-08-29T09:31:42.000Z</time>
                <name>Trackpoint 1333</name>
            </trkpt>
            <trkpt lat="49.7901696" lon="9.4282352">
                <ele>133.0</ele>
                <time>2020-08-29T09:31:44.000Z</time>
                <name>Trackpoint 1334</name>
            </trkpt>
            <trkpt lat="49.790208" lon="9.4281064">
                <ele>133.0</ele>
                <time>2020-08-29T09:31:46.000Z</time>
                <name>Trackpoint 1335</name>
            </trkpt>
            <trkpt lat="49.7902176" lon="9.427972">
                <ele>133.0</ele>
                <time>2020-08-29T09:31:48.000Z</time>
                <name>Trackpoint 1336</name>
            </trkpt>
            <trkpt lat="49.7902208" lon="9.4278336">
                <ele>134.0</ele>
                <time>2020-08-29T09:31:50.000Z</time>
                <name>Trackpoint 1337</name>
            </trkpt>
            <trkpt lat="49.7902272" lon="9.4276912">
                <ele>134.0</ele>
                <time>2020-08-29T09:31:52.000Z</time>
                <name>Trackpoint 1338</name>
            </trkpt>
            <trkpt lat="49.7902336" lon="9.4275512">
                <ele>133.0</ele>
                <time>2020-08-29T09:31:54.000Z</time>
                <name>Trackpoint 1339</name>
            </trkpt>
            <trkpt lat="49.7902496" lon="9.427412">
                <ele>134.0</ele>
                <time>2020-08-29T09:31:56.000Z</time>
                <name>Trackpoint 1340</name>
            </trkpt>
            <trkpt lat="49.790272" lon="9.4272784">
                <ele>134.0</ele>
                <time>2020-08-29T09:31:58.000Z</time>
                <name>Trackpoint 1341</name>
            </trkpt>
            <trkpt lat="49.7902976" lon="9.427148">
                <ele>134.0</ele>
                <time>2020-08-29T09:32:00.000Z</time>
                <name>Trackpoint 1342</name>
            </trkpt>
            <trkpt lat="49.79032" lon="9.4270184">
                <ele>134.0</ele>
                <time>2020-08-29T09:32:02.000Z</time>
                <name>Trackpoint 1343</name>
            </trkpt>
            <trkpt lat="49.7903328" lon="9.4268888">
                <ele>134.0</ele>
                <time>2020-08-29T09:32:04.000Z</time>
                <name>Trackpoint 1344</name>
            </trkpt>
            <trkpt lat="49.7903488" lon="9.4267368">
                <ele>134.0</ele>
                <time>2020-08-29T09:32:06.000Z</time>
                <name>Trackpoint 1345</name>
            </trkpt>
            <trkpt lat="49.790368" lon="9.4265816">
                <ele>134.0</ele>
                <time>2020-08-29T09:32:08.000Z</time>
                <name>Trackpoint 1346</name>
            </trkpt>
            <trkpt lat="49.7903776" lon="9.4264408">
                <ele>135.0</ele>
                <time>2020-08-29T09:32:10.000Z</time>
                <name>Trackpoint 1347</name>
            </trkpt>
            <trkpt lat="49.7903904" lon="9.4263096">
                <ele>134.0</ele>
                <time>2020-08-29T09:32:12.000Z</time>
                <name>Trackpoint 1348</name>
            </trkpt>
            <trkpt lat="49.7904" lon="9.4261768">
                <ele>134.0</ele>
                <time>2020-08-29T09:32:14.000Z</time>
                <name>Trackpoint 1349</name>
            </trkpt>
            <trkpt lat="49.7904" lon="9.4260416">
                <ele>134.0</ele>
                <time>2020-08-29T09:32:16.000Z</time>
                <name>Trackpoint 1350</name>
            </trkpt>
            <trkpt lat="49.7904064" lon="9.4259056">
                <ele>134.0</ele>
                <time>2020-08-29T09:32:18.000Z</time>
                <name>Trackpoint 1351</name>
            </trkpt>
            <trkpt lat="49.7904064" lon="9.4257696">
                <ele>134.0</ele>
                <time>2020-08-29T09:32:20.000Z</time>
                <name>Trackpoint 1352</name>
            </trkpt>
            <trkpt lat="49.7904128" lon="9.4256312">
                <ele>134.0</ele>
                <time>2020-08-29T09:32:22.000Z</time>
                <name>Trackpoint 1353</name>
            </trkpt>
            <trkpt lat="49.7904096" lon="9.4254904">
                <ele>133.0</ele>
                <time>2020-08-29T09:32:24.000Z</time>
                <name>Trackpoint 1354</name>
            </trkpt>
            <trkpt lat="49.7904064" lon="9.425348">
                <ele>133.0</ele>
                <time>2020-08-29T09:32:26.000Z</time>
                <name>Trackpoint 1355</name>
            </trkpt>
            <trkpt lat="49.7903968" lon="9.4252032">
                <ele>133.0</ele>
                <time>2020-08-29T09:32:28.000Z</time>
                <name>Trackpoint 1356</name>
            </trkpt>
            <trkpt lat="49.7903872" lon="9.4250584">
                <ele>133.0</ele>
                <time>2020-08-29T09:32:30.000Z</time>
                <name>Trackpoint 1357</name>
            </trkpt>
            <trkpt lat="49.7903808" lon="9.4249152">
                <ele>133.0</ele>
                <time>2020-08-29T09:32:32.000Z</time>
                <name>Trackpoint 1358</name>
            </trkpt>
            <trkpt lat="49.7903744" lon="9.4247712">
                <ele>133.0</ele>
                <time>2020-08-29T09:32:34.000Z</time>
                <name>Trackpoint 1359</name>
            </trkpt>
            <trkpt lat="49.7903744" lon="9.424628">
                <ele>133.0</ele>
                <time>2020-08-29T09:32:36.000Z</time>
                <name>Trackpoint 1360</name>
            </trkpt>
            <trkpt lat="49.7903744" lon="9.424492">
                <ele>133.0</ele>
                <time>2020-08-29T09:32:38.000Z</time>
                <name>Trackpoint 1361</name>
            </trkpt>
            <trkpt lat="49.790368" lon="9.424352">
                <ele>133.0</ele>
                <time>2020-08-29T09:32:40.000Z</time>
                <name>Trackpoint 1362</name>
            </trkpt>
            <trkpt lat="49.7903552" lon="9.4242112">
                <ele>133.0</ele>
                <time>2020-08-29T09:32:42.000Z</time>
                <name>Trackpoint 1363</name>
            </trkpt>
            <trkpt lat="49.7903488" lon="9.4240688">
                <ele>133.0</ele>
                <time>2020-08-29T09:32:44.000Z</time>
                <name>Trackpoint 1364</name>
            </trkpt>
            <trkpt lat="49.790336" lon="9.4239168">
                <ele>133.0</ele>
                <time>2020-08-29T09:32:46.000Z</time>
                <name>Trackpoint 1365</name>
            </trkpt>
            <trkpt lat="49.7903264" lon="9.423768">
                <ele>133.0</ele>
                <time>2020-08-29T09:32:48.000Z</time>
                <name>Trackpoint 1366</name>
            </trkpt>
            <trkpt lat="49.7903168" lon="9.4236336">
                <ele>133.0</ele>
                <time>2020-08-29T09:32:50.000Z</time>
                <name>Trackpoint 1367</name>
            </trkpt>
            <trkpt lat="49.7903104" lon="9.4235032">
                <ele>133.0</ele>
                <time>2020-08-29T09:32:52.000Z</time>
                <name>Trackpoint 1368</name>
            </trkpt>
            <trkpt lat="49.7903072" lon="9.4233752">
                <ele>133.0</ele>
                <time>2020-08-29T09:32:54.000Z</time>
                <name>Trackpoint 1369</name>
            </trkpt>
            <trkpt lat="49.7902912" lon="9.4232464">
                <ele>133.0</ele>
                <time>2020-08-29T09:32:56.000Z</time>
                <name>Trackpoint 1370</name>
            </trkpt>
            <trkpt lat="49.790272" lon="9.4231168">
                <ele>133.0</ele>
                <time>2020-08-29T09:32:58.000Z</time>
                <name>Trackpoint 1371</name>
            </trkpt>
            <trkpt lat="49.79024" lon="9.422988">
                <ele>133.0</ele>
                <time>2020-08-29T09:33:00.000Z</time>
                <name>Trackpoint 1372</name>
            </trkpt>
            <trkpt lat="49.790208" lon="9.4228536">
                <ele>132.0</ele>
                <time>2020-08-29T09:33:02.000Z</time>
                <name>Trackpoint 1373</name>
            </trkpt>
            <trkpt lat="49.790176" lon="9.4226912">
                <ele>132.0</ele>
                <time>2020-08-29T09:33:04.000Z</time>
                <name>Trackpoint 1374</name>
            </trkpt>
            <trkpt lat="49.7901568" lon="9.42252">
                <ele>132.0</ele>
                <time>2020-08-29T09:33:06.000Z</time>
                <name>Trackpoint 1375</name>
            </trkpt>
            <trkpt lat="49.7901472" lon="9.4223496">
                <ele>132.0</ele>
                <time>2020-08-29T09:33:08.000Z</time>
                <name>Trackpoint 1376</name>
            </trkpt>
            <trkpt lat="49.7901184" lon="9.4221952">
                <ele>132.0</ele>
                <time>2020-08-29T09:33:10.000Z</time>
                <name>Trackpoint 1377</name>
            </trkpt>
            <trkpt lat="49.7900768" lon="9.4220664">
                <ele>132.0</ele>
                <time>2020-08-29T09:33:12.000Z</time>
                <name>Trackpoint 1378</name>
            </trkpt>
            <trkpt lat="49.7900288" lon="9.4219448">
                <ele>132.0</ele>
                <time>2020-08-29T09:33:14.000Z</time>
                <name>Trackpoint 1379</name>
            </trkpt>
            <trkpt lat="49.7899712" lon="9.4218184">
                <ele>132.0</ele>
                <time>2020-08-29T09:33:16.000Z</time>
                <name>Trackpoint 1380</name>
            </trkpt>
            <trkpt lat="49.7899168" lon="9.4216768">
                <ele>132.0</ele>
                <time>2020-08-29T09:33:18.000Z</time>
                <name>Trackpoint 1381</name>
            </trkpt>
            <trkpt lat="49.789872" lon="9.4215344">
                <ele>132.0</ele>
                <time>2020-08-29T09:33:20.000Z</time>
                <name>Trackpoint 1382</name>
            </trkpt>
            <trkpt lat="49.7898208" lon="9.4213936">
                <ele>132.0</ele>
                <time>2020-08-29T09:33:22.000Z</time>
                <name>Trackpoint 1383</name>
            </trkpt>
            <trkpt lat="49.789776" lon="9.4212568">
                <ele>132.0</ele>
                <time>2020-08-29T09:33:24.000Z</time>
                <name>Trackpoint 1384</name>
            </trkpt>
            <trkpt lat="49.7897408" lon="9.4211264">
                <ele>132.0</ele>
                <time>2020-08-29T09:33:26.000Z</time>
                <name>Trackpoint 1385</name>
            </trkpt>
            <trkpt lat="49.7897024" lon="9.4210184">
                <ele>133.0</ele>
                <time>2020-08-29T09:33:28.000Z</time>
                <name>Trackpoint 1386</name>
            </trkpt>
            <trkpt lat="49.789664" lon="9.420912">
                <ele>132.0</ele>
                <time>2020-08-29T09:33:30.000Z</time>
                <name>Trackpoint 1387</name>
            </trkpt>
            <trkpt lat="49.7896192" lon="9.420796">
                <ele>132.0</ele>
                <time>2020-08-29T09:33:32.000Z</time>
                <name>Trackpoint 1388</name>
            </trkpt>
            <trkpt lat="49.7895648" lon="9.4206848">
                <ele>132.0</ele>
                <time>2020-08-29T09:33:34.000Z</time>
                <name>Trackpoint 1389</name>
            </trkpt>
            <trkpt lat="49.7895136" lon="9.4205736">
                <ele>132.0</ele>
                <time>2020-08-29T09:33:36.000Z</time>
                <name>Trackpoint 1390</name>
            </trkpt>
            <trkpt lat="49.7894656" lon="9.42046">
                <ele>132.0</ele>
                <time>2020-08-29T09:33:38.000Z</time>
                <name>Trackpoint 1391</name>
            </trkpt>
            <trkpt lat="49.7894144" lon="9.4203568">
                <ele>132.0</ele>
                <time>2020-08-29T09:33:40.000Z</time>
                <name>Trackpoint 1392</name>
            </trkpt>
            <trkpt lat="49.78936" lon="9.4202416">
                <ele>132.0</ele>
                <time>2020-08-29T09:33:42.000Z</time>
                <name>Trackpoint 1393</name>
            </trkpt>
            <trkpt lat="49.7893024" lon="9.420112">
                <ele>132.0</ele>
                <time>2020-08-29T09:33:44.000Z</time>
                <name>Trackpoint 1394</name>
            </trkpt>
            <trkpt lat="49.7892576" lon="9.4199784">
                <ele>132.0</ele>
                <time>2020-08-29T09:33:46.000Z</time>
                <name>Trackpoint 1395</name>
            </trkpt>
            <trkpt lat="49.7892064" lon="9.4198664">
                <ele>132.0</ele>
                <time>2020-08-29T09:33:48.000Z</time>
                <name>Trackpoint 1396</name>
            </trkpt>
            <trkpt lat="49.7891584" lon="9.4197416">
                <ele>132.0</ele>
                <time>2020-08-29T09:33:50.000Z</time>
                <name>Trackpoint 1397</name>
            </trkpt>
            <trkpt lat="49.789104" lon="9.4196256">
                <ele>133.0</ele>
                <time>2020-08-29T09:33:52.000Z</time>
                <name>Trackpoint 1398</name>
            </trkpt>
            <trkpt lat="49.7890464" lon="9.4195016">
                <ele>133.0</ele>
                <time>2020-08-29T09:33:54.000Z</time>
                <name>Trackpoint 1399</name>
            </trkpt>
            <trkpt lat="49.7889792" lon="9.4193888">
                <ele>133.0</ele>
                <time>2020-08-29T09:33:56.000Z</time>
                <name>Trackpoint 1400</name>
            </trkpt>
            <trkpt lat="49.7889216" lon="9.4192632">
                <ele>133.0</ele>
                <time>2020-08-29T09:33:58.000Z</time>
                <name>Trackpoint 1401</name>
            </trkpt>
            <trkpt lat="49.7888608" lon="9.4191216">
                <ele>133.0</ele>
                <time>2020-08-29T09:34:00.000Z</time>
                <name>Trackpoint 1402</name>
            </trkpt>
            <trkpt lat="49.7888032" lon="9.418992">
                <ele>133.0</ele>
                <time>2020-08-29T09:34:02.000Z</time>
                <name>Trackpoint 1403</name>
            </trkpt>
            <trkpt lat="49.788736" lon="9.4188608">
                <ele>133.0</ele>
                <time>2020-08-29T09:34:04.000Z</time>
                <name>Trackpoint 1404</name>
            </trkpt>
            <trkpt lat="49.7886784" lon="9.4187248">
                <ele>133.0</ele>
                <time>2020-08-29T09:34:06.000Z</time>
                <name>Trackpoint 1405</name>
            </trkpt>
            <trkpt lat="49.788624" lon="9.4186016">
                <ele>133.0</ele>
                <time>2020-08-29T09:34:08.000Z</time>
                <name>Trackpoint 1406</name>
            </trkpt>
            <trkpt lat="49.7885696" lon="9.4184848">
                <ele>133.0</ele>
                <time>2020-08-29T09:34:10.000Z</time>
                <name>Trackpoint 1407</name>
            </trkpt>
            <trkpt lat="49.788512" lon="9.4183648">
                <ele>133.0</ele>
                <time>2020-08-29T09:34:12.000Z</time>
                <name>Trackpoint 1408</name>
            </trkpt>
            <trkpt lat="49.7884384" lon="9.4182664">
                <ele>133.0</ele>
                <time>2020-08-29T09:34:14.000Z</time>
                <name>Trackpoint 1409</name>
            </trkpt>
            <trkpt lat="49.788384" lon="9.4181736">
                <ele>133.0</ele>
                <time>2020-08-29T09:34:16.000Z</time>
                <name>Trackpoint 1410</name>
            </trkpt>
            <trkpt lat="49.7883264" lon="9.418092">
                <ele>132.0</ele>
                <time>2020-08-29T09:34:18.000Z</time>
                <name>Trackpoint 1411</name>
            </trkpt>
            <trkpt lat="49.788272" lon="9.4179888">
                <ele>132.0</ele>
                <time>2020-08-29T09:34:21.000Z</time>
                <name>Trackpoint 1412</name>
            </trkpt>
            <trkpt lat="49.788224" lon="9.4179088">
                <ele>133.0</ele>
                <time>2020-08-29T09:34:23.000Z</time>
                <name>Trackpoint 1413</name>
            </trkpt>
            <trkpt lat="49.78816" lon="9.4178112">
                <ele>132.0</ele>
                <time>2020-08-29T09:34:26.000Z</time>
                <name>Trackpoint 1414</name>
            </trkpt>
            <trkpt lat="49.7880928" lon="9.417708">
                <ele>132.0</ele>
                <time>2020-08-29T09:34:29.000Z</time>
                <name>Trackpoint 1415</name>
            </trkpt>
            <trkpt lat="49.7880256" lon="9.4176064">
                <ele>132.0</ele>
                <time>2020-08-29T09:34:32.000Z</time>
                <name>Trackpoint 1416</name>
            </trkpt>
            <trkpt lat="49.7879616" lon="9.4175184">
                <ele>132.0</ele>
                <time>2020-08-29T09:34:35.000Z</time>
                <name>Trackpoint 1417</name>
            </trkpt>
            <trkpt lat="49.7878944" lon="9.4174408">
                <ele>132.0</ele>
                <time>2020-08-29T09:34:38.000Z</time>
                <name>Trackpoint 1418</name>
            </trkpt>
            <trkpt lat="49.7878272" lon="9.4173536">
                <ele>132.0</ele>
                <time>2020-08-29T09:34:41.000Z</time>
                <name>Trackpoint 1419</name>
            </trkpt>
            <trkpt lat="49.787744" lon="9.4172552">
                <ele>131.0</ele>
                <time>2020-08-29T09:34:44.000Z</time>
                <name>Trackpoint 1420</name>
            </trkpt>
            <trkpt lat="49.7876704" lon="9.4171712">
                <ele>131.0</ele>
                <time>2020-08-29T09:34:47.000Z</time>
                <name>Trackpoint 1421</name>
            </trkpt>
            <trkpt lat="49.7875808" lon="9.4170688">
                <ele>131.0</ele>
                <time>2020-08-29T09:34:50.000Z</time>
                <name>Trackpoint 1422</name>
            </trkpt>
            <trkpt lat="49.7875168" lon="9.4169912">
                <ele>131.0</ele>
                <time>2020-08-29T09:34:52.000Z</time>
                <name>Trackpoint 1423</name>
            </trkpt>
            <trkpt lat="49.7874496" lon="9.4169168">
                <ele>132.0</ele>
                <time>2020-08-29T09:34:54.000Z</time>
                <name>Trackpoint 1424</name>
            </trkpt>
            <trkpt lat="49.7873664" lon="9.4168256">
                <ele>132.0</ele>
                <time>2020-08-29T09:34:56.000Z</time>
                <name>Trackpoint 1425</name>
            </trkpt>
            <trkpt lat="49.7872768" lon="9.4167144">
                <ele>132.0</ele>
                <time>2020-08-29T09:34:58.000Z</time>
                <name>Trackpoint 1426</name>
            </trkpt>
            <trkpt lat="49.7871936" lon="9.416608">
                <ele>132.0</ele>
                <time>2020-08-29T09:35:00.000Z</time>
                <name>Trackpoint 1427</name>
            </trkpt>
            <trkpt lat="49.7871136" lon="9.4165184">
                <ele>132.0</ele>
                <time>2020-08-29T09:35:02.000Z</time>
                <name>Trackpoint 1428</name>
            </trkpt>
            <trkpt lat="49.7870336" lon="9.4164016">
                <ele>132.0</ele>
                <time>2020-08-29T09:35:04.000Z</time>
                <name>Trackpoint 1429</name>
            </trkpt>
            <trkpt lat="49.7869568" lon="9.4163088">
                <ele>132.0</ele>
                <time>2020-08-29T09:35:06.000Z</time>
                <name>Trackpoint 1430</name>
            </trkpt>
            <trkpt lat="49.7868832" lon="9.4162056">
                <ele>132.0</ele>
                <time>2020-08-29T09:35:08.000Z</time>
                <name>Trackpoint 1431</name>
            </trkpt>
            <trkpt lat="49.786816" lon="9.4161104">
                <ele>132.0</ele>
                <time>2020-08-29T09:35:10.000Z</time>
                <name>Trackpoint 1432</name>
            </trkpt>
            <trkpt lat="49.7867552" lon="9.41602">
                <ele>132.0</ele>
                <time>2020-08-29T09:35:12.000Z</time>
                <name>Trackpoint 1433</name>
            </trkpt>
            <trkpt lat="49.7866816" lon="9.4159096">
                <ele>132.0</ele>
                <time>2020-08-29T09:35:14.000Z</time>
                <name>Trackpoint 1434</name>
            </trkpt>
            <trkpt lat="49.7866432" lon="9.4158184">
                <ele>133.0</ele>
                <time>2020-08-29T09:35:16.000Z</time>
                <name>Trackpoint 1435</name>
            </trkpt>
            <trkpt lat="49.7865824" lon="9.4157336">
                <ele>132.0</ele>
                <time>2020-08-29T09:36:13.000Z</time>
                <name>Trackpoint 1436</name>
            </trkpt>
            <trkpt lat="49.786528" lon="9.41564">
                <ele>133.0</ele>
                <time>2020-08-29T09:36:16.000Z</time>
                <name>Trackpoint 1437</name>
            </trkpt>
            <trkpt lat="49.7864832" lon="9.4155616">
                <ele>133.0</ele>
                <time>2020-08-29T09:36:18.000Z</time>
                <name>Trackpoint 1438</name>
            </trkpt>
            <trkpt lat="49.7864256" lon="9.4154752">
                <ele>134.0</ele>
                <time>2020-08-29T09:36:20.000Z</time>
                <name>Trackpoint 1439</name>
            </trkpt>
            <trkpt lat="49.7863744" lon="9.415372">
                <ele>134.0</ele>
                <time>2020-08-29T09:36:22.000Z</time>
                <name>Trackpoint 1440</name>
            </trkpt>
            <trkpt lat="49.7863168" lon="9.4152736">
                <ele>134.0</ele>
                <time>2020-08-29T09:36:24.000Z</time>
                <name>Trackpoint 1441</name>
            </trkpt>
            <trkpt lat="49.786256" lon="9.41518">
                <ele>135.0</ele>
                <time>2020-08-29T09:36:26.000Z</time>
                <name>Trackpoint 1442</name>
            </trkpt>
            <trkpt lat="49.7861984" lon="9.4150816">
                <ele>135.0</ele>
                <time>2020-08-29T09:36:28.000Z</time>
                <name>Trackpoint 1443</name>
            </trkpt>
            <trkpt lat="49.7861408" lon="9.4149904">
                <ele>135.0</ele>
                <time>2020-08-29T09:36:30.000Z</time>
                <name>Trackpoint 1444</name>
            </trkpt>
            <trkpt lat="49.7860864" lon="9.414904">
                <ele>135.0</ele>
                <time>2020-08-29T09:36:32.000Z</time>
                <name>Trackpoint 1445</name>
            </trkpt>
            <trkpt lat="49.7860256" lon="9.4147968">
                <ele>136.0</ele>
                <time>2020-08-29T09:36:35.000Z</time>
                <name>Trackpoint 1446</name>
            </trkpt>
            <trkpt lat="49.785952" lon="9.4147192">
                <ele>136.0</ele>
                <time>2020-08-29T09:36:40.000Z</time>
                <name>Trackpoint 1447</name>
            </trkpt>
            <trkpt lat="49.7858656" lon="9.4146608">
                <ele>136.0</ele>
                <time>2020-08-29T09:37:28.000Z</time>
                <name>Trackpoint 1448</name>
            </trkpt>
            <trkpt lat="49.7857504" lon="9.4146">
                <ele>136.0</ele>
                <time>2020-08-29T09:37:32.000Z</time>
                <name>Trackpoint 1449</name>
            </trkpt>
            <trkpt lat="49.7856736" lon="9.4145448">
                <ele>136.0</ele>
                <time>2020-08-29T09:37:34.000Z</time>
                <name>Trackpoint 1450</name>
            </trkpt>
            <trkpt lat="49.7855936" lon="9.4144696">
                <ele>136.0</ele>
                <time>2020-08-29T09:37:36.000Z</time>
                <name>Trackpoint 1451</name>
            </trkpt>
            <trkpt lat="49.7855136" lon="9.4143896">
                <ele>136.0</ele>
                <time>2020-08-29T09:37:38.000Z</time>
                <name>Trackpoint 1452</name>
            </trkpt>
            <trkpt lat="49.7854272" lon="9.4143104">
                <ele>136.0</ele>
                <time>2020-08-29T09:37:40.000Z</time>
                <name>Trackpoint 1453</name>
            </trkpt>
            <trkpt lat="49.785344" lon="9.4142352">
                <ele>136.0</ele>
                <time>2020-08-29T09:37:42.000Z</time>
                <name>Trackpoint 1454</name>
            </trkpt>
            <trkpt lat="49.7852608" lon="9.4141648">
                <ele>136.0</ele>
                <time>2020-08-29T09:37:44.000Z</time>
                <name>Trackpoint 1455</name>
            </trkpt>
            <trkpt lat="49.7851872" lon="9.414092">
                <ele>136.0</ele>
                <time>2020-08-29T09:37:46.000Z</time>
                <name>Trackpoint 1456</name>
            </trkpt>
            <trkpt lat="49.7851232" lon="9.4140264">
                <ele>136.0</ele>
                <time>2020-08-29T09:37:48.000Z</time>
                <name>Trackpoint 1457</name>
            </trkpt>
            <trkpt lat="49.7850528" lon="9.4139616">
                <ele>135.0</ele>
                <time>2020-08-29T09:37:50.000Z</time>
                <name>Trackpoint 1458</name>
            </trkpt>
            <trkpt lat="49.7849888" lon="9.413888">
                <ele>135.0</ele>
                <time>2020-08-29T09:37:52.000Z</time>
                <name>Trackpoint 1459</name>
            </trkpt>
            <trkpt lat="49.7849248" lon="9.4138168">
                <ele>135.0</ele>
                <time>2020-08-29T09:37:54.000Z</time>
                <name>Trackpoint 1460</name>
            </trkpt>
            <trkpt lat="49.7848576" lon="9.4137352">
                <ele>135.0</ele>
                <time>2020-08-29T09:37:56.000Z</time>
                <name>Trackpoint 1461</name>
            </trkpt>
            <trkpt lat="49.7847872" lon="9.4136432">
                <ele>136.0</ele>
                <time>2020-08-29T09:37:58.000Z</time>
                <name>Trackpoint 1462</name>
            </trkpt>
            <trkpt lat="49.7847072" lon="9.4135704">
                <ele>136.0</ele>
                <time>2020-08-29T09:38:00.000Z</time>
                <name>Trackpoint 1463</name>
            </trkpt>
            <trkpt lat="49.7846304" lon="9.4134816">
                <ele>136.0</ele>
                <time>2020-08-29T09:38:02.000Z</time>
                <name>Trackpoint 1464</name>
            </trkpt>
            <trkpt lat="49.7845408" lon="9.4133832">
                <ele>135.0</ele>
                <time>2020-08-29T09:38:04.000Z</time>
                <name>Trackpoint 1465</name>
            </trkpt>
            <trkpt lat="49.7844608" lon="9.4132728">
                <ele>135.0</ele>
                <time>2020-08-29T09:38:06.000Z</time>
                <name>Trackpoint 1466</name>
            </trkpt>
            <trkpt lat="49.7843904" lon="9.4131616">
                <ele>135.0</ele>
                <time>2020-08-29T09:38:08.000Z</time>
                <name>Trackpoint 1467</name>
            </trkpt>
            <trkpt lat="49.7843232" lon="9.4130232">
                <ele>135.0</ele>
                <time>2020-08-29T09:38:10.000Z</time>
                <name>Trackpoint 1468</name>
            </trkpt>
            <trkpt lat="49.7842592" lon="9.412904">
                <ele>135.0</ele>
                <time>2020-08-29T09:38:12.000Z</time>
                <name>Trackpoint 1469</name>
            </trkpt>
            <trkpt lat="49.784192" lon="9.4127928">
                <ele>135.0</ele>
                <time>2020-08-29T09:38:14.000Z</time>
                <name>Trackpoint 1470</name>
            </trkpt>
            <trkpt lat="49.7841312" lon="9.412688">
                <ele>135.0</ele>
                <time>2020-08-29T09:38:16.000Z</time>
                <name>Trackpoint 1471</name>
            </trkpt>
            <trkpt lat="49.7840768" lon="9.4125744">
                <ele>135.0</ele>
                <time>2020-08-29T09:38:18.000Z</time>
                <name>Trackpoint 1472</name>
            </trkpt>
            <trkpt lat="49.7840224" lon="9.412468">
                <ele>135.0</ele>
                <time>2020-08-29T09:38:20.000Z</time>
                <name>Trackpoint 1473</name>
            </trkpt>
            <trkpt lat="49.7839616" lon="9.4123632">
                <ele>135.0</ele>
                <time>2020-08-29T09:38:22.000Z</time>
                <name>Trackpoint 1474</name>
            </trkpt>
            <trkpt lat="49.783904" lon="9.4122536">
                <ele>134.0</ele>
                <time>2020-08-29T09:38:24.000Z</time>
                <name>Trackpoint 1475</name>
            </trkpt>
            <trkpt lat="49.7838432" lon="9.4121488">
                <ele>135.0</ele>
                <time>2020-08-29T09:38:26.000Z</time>
                <name>Trackpoint 1476</name>
            </trkpt>
            <trkpt lat="49.7837856" lon="9.4120368">
                <ele>135.0</ele>
                <time>2020-08-29T09:38:28.000Z</time>
                <name>Trackpoint 1477</name>
            </trkpt>
            <trkpt lat="49.783728" lon="9.4119304">
                <ele>135.0</ele>
                <time>2020-08-29T09:38:30.000Z</time>
                <name>Trackpoint 1478</name>
            </trkpt>
            <trkpt lat="49.783664" lon="9.4118184">
                <ele>135.0</ele>
                <time>2020-08-29T09:38:32.000Z</time>
                <name>Trackpoint 1479</name>
            </trkpt>
            <trkpt lat="49.7836" lon="9.4117096">
                <ele>136.0</ele>
                <time>2020-08-29T09:38:34.000Z</time>
                <name>Trackpoint 1480</name>
            </trkpt>
            <trkpt lat="49.7835264" lon="9.4116096">
                <ele>136.0</ele>
                <time>2020-08-29T09:38:36.000Z</time>
                <name>Trackpoint 1481</name>
            </trkpt>
            <trkpt lat="49.783456" lon="9.4115">
                <ele>135.0</ele>
                <time>2020-08-29T09:38:38.000Z</time>
                <name>Trackpoint 1482</name>
            </trkpt>
            <trkpt lat="49.7833856" lon="9.4113952">
                <ele>135.0</ele>
                <time>2020-08-29T09:38:40.000Z</time>
                <name>Trackpoint 1483</name>
            </trkpt>
            <trkpt lat="49.7833088" lon="9.4112928">
                <ele>135.0</ele>
                <time>2020-08-29T09:38:42.000Z</time>
                <name>Trackpoint 1484</name>
            </trkpt>
            <trkpt lat="49.7832384" lon="9.411188">
                <ele>135.0</ele>
                <time>2020-08-29T09:38:44.000Z</time>
                <name>Trackpoint 1485</name>
            </trkpt>
            <trkpt lat="49.7831616" lon="9.4110896">
                <ele>136.0</ele>
                <time>2020-08-29T09:38:46.000Z</time>
                <name>Trackpoint 1486</name>
            </trkpt>
            <trkpt lat="49.7830912" lon="9.411">
                <ele>136.0</ele>
                <time>2020-08-29T09:38:48.000Z</time>
                <name>Trackpoint 1487</name>
            </trkpt>
            <trkpt lat="49.7830368" lon="9.41092">
                <ele>136.0</ele>
                <time>2020-08-29T09:38:50.000Z</time>
                <name>Trackpoint 1488</name>
            </trkpt>
            <trkpt lat="49.7829824" lon="9.4108416">
                <ele>136.0</ele>
                <time>2020-08-29T09:38:52.000Z</time>
                <name>Trackpoint 1489</name>
            </trkpt>
            <trkpt lat="49.7829312" lon="9.4107648">
                <ele>136.0</ele>
                <time>2020-08-29T09:38:54.000Z</time>
                <name>Trackpoint 1490</name>
            </trkpt>
            <trkpt lat="49.7828928" lon="9.4106752">
                <ele>136.0</ele>
                <time>2020-08-29T09:38:56.000Z</time>
                <name>Trackpoint 1491</name>
            </trkpt>
            <trkpt lat="49.782848" lon="9.4105784">
                <ele>136.0</ele>
                <time>2020-08-29T09:38:58.000Z</time>
                <name>Trackpoint 1492</name>
            </trkpt>
            <trkpt lat="49.7828032" lon="9.4104832">
                <ele>137.0</ele>
                <time>2020-08-29T09:39:00.000Z</time>
                <name>Trackpoint 1493</name>
            </trkpt>
            <trkpt lat="49.7827584" lon="9.4103896">
                <ele>137.0</ele>
                <time>2020-08-29T09:39:02.000Z</time>
                <name>Trackpoint 1494</name>
            </trkpt>
            <trkpt lat="49.7827136" lon="9.4103072">
                <ele>137.0</ele>
                <time>2020-08-29T09:39:04.000Z</time>
                <name>Trackpoint 1495</name>
            </trkpt>
            <trkpt lat="49.7826464" lon="9.4102">
                <ele>136.0</ele>
                <time>2020-08-29T09:39:07.000Z</time>
                <name>Trackpoint 1496</name>
            </trkpt>
            <trkpt lat="49.7826016" lon="9.4101112">
                <ele>136.0</ele>
                <time>2020-08-29T09:39:09.000Z</time>
                <name>Trackpoint 1497</name>
            </trkpt>
            <trkpt lat="49.7825504" lon="9.4100216">
                <ele>136.0</ele>
                <time>2020-08-29T09:39:11.000Z</time>
                <name>Trackpoint 1498</name>
            </trkpt>
            <trkpt lat="49.7825024" lon="9.4099448">
                <ele>135.0</ele>
                <time>2020-08-29T09:39:13.000Z</time>
                <name>Trackpoint 1499</name>
            </trkpt>
            <trkpt lat="49.782448" lon="9.4098664">
                <ele>134.0</ele>
                <time>2020-08-29T09:39:15.000Z</time>
                <name>Trackpoint 1500</name>
            </trkpt>
            <trkpt lat="49.782384" lon="9.409788">
                <ele>134.0</ele>
                <time>2020-08-29T09:39:17.000Z</time>
                <name>Trackpoint 1501</name>
            </trkpt>
            <trkpt lat="49.7823168" lon="9.4097216">
                <ele>135.0</ele>
                <time>2020-08-29T09:39:19.000Z</time>
                <name>Trackpoint 1502</name>
            </trkpt>
            <trkpt lat="49.7822656" lon="9.4096448">
                <ele>135.0</ele>
                <time>2020-08-29T09:39:21.000Z</time>
                <name>Trackpoint 1503</name>
            </trkpt>
            <trkpt lat="49.782208" lon="9.4095752">
                <ele>135.0</ele>
                <time>2020-08-29T09:39:23.000Z</time>
                <name>Trackpoint 1504</name>
            </trkpt>
            <trkpt lat="49.7821568" lon="9.4094936">
                <ele>135.0</ele>
                <time>2020-08-29T09:39:25.000Z</time>
                <name>Trackpoint 1505</name>
            </trkpt>
            <trkpt lat="49.7821248" lon="9.4094064">
                <ele>135.0</ele>
                <time>2020-08-29T09:39:27.000Z</time>
                <name>Trackpoint 1506</name>
            </trkpt>
            <trkpt lat="49.7820768" lon="9.4092864">
                <ele>135.0</ele>
                <time>2020-08-29T09:39:30.000Z</time>
                <name>Trackpoint 1507</name>
            </trkpt>
            <trkpt lat="49.7820384" lon="9.4091656">
                <ele>135.0</ele>
                <time>2020-08-29T09:39:33.000Z</time>
                <name>Trackpoint 1508</name>
            </trkpt>
            <trkpt lat="49.7819776" lon="9.409052">
                <ele>135.0</ele>
                <time>2020-08-29T09:39:36.000Z</time>
                <name>Trackpoint 1509</name>
            </trkpt>
            <trkpt lat="49.7819456" lon="9.408928">
                <ele>135.0</ele>
                <time>2020-08-29T09:39:39.000Z</time>
                <name>Trackpoint 1510</name>
            </trkpt>
            <trkpt lat="49.7818976" lon="9.4088048">
                <ele>135.0</ele>
                <time>2020-08-29T09:39:42.000Z</time>
                <name>Trackpoint 1511</name>
            </trkpt>
            <trkpt lat="49.781856" lon="9.40872">
                <ele>135.0</ele>
                <time>2020-08-29T09:39:44.000Z</time>
                <name>Trackpoint 1512</name>
            </trkpt>
            <trkpt lat="49.781776" lon="9.4086504">
                <ele>135.0</ele>
                <time>2020-08-29T09:39:46.000Z</time>
                <name>Trackpoint 1513</name>
            </trkpt>
            <trkpt lat="49.7816992" lon="9.4085504">
                <ele>135.0</ele>
                <time>2020-08-29T09:39:49.000Z</time>
                <name>Trackpoint 1514</name>
            </trkpt>
            <trkpt lat="49.7816224" lon="9.4084568">
                <ele>135.0</ele>
                <time>2020-08-29T09:39:51.000Z</time>
                <name>Trackpoint 1515</name>
            </trkpt>
            <trkpt lat="49.7815392" lon="9.408352">
                <ele>135.0</ele>
                <time>2020-08-29T09:39:53.000Z</time>
                <name>Trackpoint 1516</name>
            </trkpt>
            <trkpt lat="49.781472" lon="9.40824">
                <ele>135.0</ele>
                <time>2020-08-29T09:39:55.000Z</time>
                <name>Trackpoint 1517</name>
            </trkpt>
            <trkpt lat="49.7814112" lon="9.4081312">
                <ele>135.0</ele>
                <time>2020-08-29T09:39:57.000Z</time>
                <name>Trackpoint 1518</name>
            </trkpt>
            <trkpt lat="49.7813536" lon="9.4080232">
                <ele>135.0</ele>
                <time>2020-08-29T09:39:59.000Z</time>
                <name>Trackpoint 1519</name>
            </trkpt>
            <trkpt lat="49.7812896" lon="9.4079152">
                <ele>135.0</ele>
                <time>2020-08-29T09:40:01.000Z</time>
                <name>Trackpoint 1520</name>
            </trkpt>
            <trkpt lat="49.781216" lon="9.4078016">
                <ele>135.0</ele>
                <time>2020-08-29T09:40:03.000Z</time>
                <name>Trackpoint 1521</name>
            </trkpt>
            <trkpt lat="49.781152" lon="9.4076616">
                <ele>135.0</ele>
                <time>2020-08-29T09:40:05.000Z</time>
                <name>Trackpoint 1522</name>
            </trkpt>
            <trkpt lat="49.7810944" lon="9.4075272">
                <ele>135.0</ele>
                <time>2020-08-29T09:40:07.000Z</time>
                <name>Trackpoint 1523</name>
            </trkpt>
            <trkpt lat="49.7810432" lon="9.4074288">
                <ele>136.0</ele>
                <time>2020-08-29T09:40:09.000Z</time>
                <name>Trackpoint 1524</name>
            </trkpt>
            <trkpt lat="49.7809664" lon="9.4073112">
                <ele>136.0</ele>
                <time>2020-08-29T09:40:12.000Z</time>
                <name>Trackpoint 1525</name>
            </trkpt>
            <trkpt lat="49.7808992" lon="9.4072088">
                <ele>137.0</ele>
                <time>2020-08-29T09:40:14.000Z</time>
                <name>Trackpoint 1526</name>
            </trkpt>
            <trkpt lat="49.7808544" lon="9.4070984">
                <ele>137.0</ele>
                <time>2020-08-29T09:40:16.000Z</time>
                <name>Trackpoint 1527</name>
            </trkpt>
            <trkpt lat="49.7808" lon="9.4069984">
                <ele>138.0</ele>
                <time>2020-08-29T09:40:18.000Z</time>
                <name>Trackpoint 1528</name>
            </trkpt>
            <trkpt lat="49.7807392" lon="9.4068832">
                <ele>138.0</ele>
                <time>2020-08-29T09:40:20.000Z</time>
                <name>Trackpoint 1529</name>
            </trkpt>
            <trkpt lat="49.7806688" lon="9.4067432">
                <ele>137.0</ele>
                <time>2020-08-29T09:40:22.000Z</time>
                <name>Trackpoint 1530</name>
            </trkpt>
            <trkpt lat="49.7806144" lon="9.4066096">
                <ele>137.0</ele>
                <time>2020-08-29T09:40:24.000Z</time>
                <name>Trackpoint 1531</name>
            </trkpt>
            <trkpt lat="49.7805504" lon="9.4064728">
                <ele>137.0</ele>
                <time>2020-08-29T09:40:26.000Z</time>
                <name>Trackpoint 1532</name>
            </trkpt>
            <trkpt lat="49.780496" lon="9.4063504">
                <ele>137.0</ele>
                <time>2020-08-29T09:40:28.000Z</time>
                <name>Trackpoint 1533</name>
            </trkpt>
            <trkpt lat="49.7804288" lon="9.4062232">
                <ele>138.0</ele>
                <time>2020-08-29T09:40:30.000Z</time>
                <name>Trackpoint 1534</name>
            </trkpt>
            <trkpt lat="49.780368" lon="9.4061072">
                <ele>138.0</ele>
                <time>2020-08-29T09:40:32.000Z</time>
                <name>Trackpoint 1535</name>
            </trkpt>
            <trkpt lat="49.7803072" lon="9.4059824">
                <ele>138.0</ele>
                <time>2020-08-29T09:40:34.000Z</time>
                <name>Trackpoint 1536</name>
            </trkpt>
            <trkpt lat="49.7802496" lon="9.4058584">
                <ele>138.0</ele>
                <time>2020-08-29T09:40:36.000Z</time>
                <name>Trackpoint 1537</name>
            </trkpt>
            <trkpt lat="49.7801888" lon="9.4057368">
                <ele>139.0</ele>
                <time>2020-08-29T09:40:38.000Z</time>
                <name>Trackpoint 1538</name>
            </trkpt>
            <trkpt lat="49.7801248" lon="9.40562">
                <ele>139.0</ele>
                <time>2020-08-29T09:40:40.000Z</time>
                <name>Trackpoint 1539</name>
            </trkpt>
            <trkpt lat="49.780064" lon="9.405508">
                <ele>139.0</ele>
                <time>2020-08-29T09:40:42.000Z</time>
                <name>Trackpoint 1540</name>
            </trkpt>
            <trkpt lat="49.7800032" lon="9.4053968">
                <ele>139.0</ele>
                <time>2020-08-29T09:40:44.000Z</time>
                <name>Trackpoint 1541</name>
            </trkpt>
            <trkpt lat="49.7799392" lon="9.40528">
                <ele>139.0</ele>
                <time>2020-08-29T09:40:46.000Z</time>
                <name>Trackpoint 1542</name>
            </trkpt>
            <trkpt lat="49.7798752" lon="9.4051712">
                <ele>139.0</ele>
                <time>2020-08-29T09:40:48.000Z</time>
                <name>Trackpoint 1543</name>
            </trkpt>
            <trkpt lat="49.779824" lon="9.4050752">
                <ele>139.0</ele>
                <time>2020-08-29T09:40:50.000Z</time>
                <name>Trackpoint 1544</name>
            </trkpt>
            <trkpt lat="49.77976" lon="9.4049656">
                <ele>139.0</ele>
                <time>2020-08-29T09:40:52.000Z</time>
                <name>Trackpoint 1545</name>
            </trkpt>
            <trkpt lat="49.7796768" lon="9.4048416">
                <ele>140.0</ele>
                <time>2020-08-29T09:40:54.000Z</time>
                <name>Trackpoint 1546</name>
            </trkpt>
            <trkpt lat="49.7796096" lon="9.4047248">
                <ele>140.0</ele>
                <time>2020-08-29T09:40:56.000Z</time>
                <name>Trackpoint 1547</name>
            </trkpt>
            <trkpt lat="49.7795456" lon="9.4046136">
                <ele>140.0</ele>
                <time>2020-08-29T09:40:58.000Z</time>
                <name>Trackpoint 1548</name>
            </trkpt>
            <trkpt lat="49.7794912" lon="9.4045016">
                <ele>140.0</ele>
                <time>2020-08-29T09:41:00.000Z</time>
                <name>Trackpoint 1549</name>
            </trkpt>
            <trkpt lat="49.7794272" lon="9.4043904">
                <ele>140.0</ele>
                <time>2020-08-29T09:41:02.000Z</time>
                <name>Trackpoint 1550</name>
            </trkpt>
            <trkpt lat="49.7793632" lon="9.4042816">
                <ele>140.0</ele>
                <time>2020-08-29T09:41:04.000Z</time>
                <name>Trackpoint 1551</name>
            </trkpt>
            <trkpt lat="49.779296" lon="9.4041768">
                <ele>140.0</ele>
                <time>2020-08-29T09:41:06.000Z</time>
                <name>Trackpoint 1552</name>
            </trkpt>
            <trkpt lat="49.7792" lon="9.404192">
                <ele>140.0</ele>
                <time>2020-08-29T09:41:09.000Z</time>
                <name>Trackpoint 1553</name>
            </trkpt>
            <trkpt lat="49.7791008" lon="9.40426">
                <ele>140.0</ele>
                <time>2020-08-29T09:41:12.000Z</time>
                <name>Trackpoint 1554</name>
            </trkpt>
            <trkpt lat="49.7789984" lon="9.4042728">
                <ele>138.0</ele>
                <time>2020-08-29T09:41:14.000Z</time>
                <name>Trackpoint 1555</name>
            </trkpt>
            <trkpt lat="49.7788896" lon="9.4042104">
                <ele>139.0</ele>
                <time>2020-08-29T09:41:16.000Z</time>
                <name>Trackpoint 1556</name>
            </trkpt>
            <trkpt lat="49.7787936" lon="9.4041072">
                <ele>139.0</ele>
                <time>2020-08-29T09:41:18.000Z</time>
                <name>Trackpoint 1557</name>
            </trkpt>
            <trkpt lat="49.7787008" lon="9.4039968">
                <ele>139.0</ele>
                <time>2020-08-29T09:41:20.000Z</time>
                <name>Trackpoint 1558</name>
            </trkpt>
            <trkpt lat="49.7786112" lon="9.403896">
                <ele>139.0</ele>
                <time>2020-08-29T09:41:22.000Z</time>
                <name>Trackpoint 1559</name>
            </trkpt>
            <trkpt lat="49.7785248" lon="9.4037816">
                <ele>139.0</ele>
                <time>2020-08-29T09:41:24.000Z</time>
                <name>Trackpoint 1560</name>
            </trkpt>
            <trkpt lat="49.778432" lon="9.4036912">
                <ele>138.0</ele>
                <time>2020-08-29T09:41:26.000Z</time>
                <name>Trackpoint 1561</name>
            </trkpt>
            <trkpt lat="49.7783392" lon="9.4036032">
                <ele>138.0</ele>
                <time>2020-08-29T09:41:28.000Z</time>
                <name>Trackpoint 1562</name>
            </trkpt>
            <trkpt lat="49.7782432" lon="9.4035152">
                <ele>138.0</ele>
                <time>2020-08-29T09:41:30.000Z</time>
                <name>Trackpoint 1563</name>
            </trkpt>
            <trkpt lat="49.77816" lon="9.4034272">
                <ele>138.0</ele>
                <time>2020-08-29T09:41:32.000Z</time>
                <name>Trackpoint 1564</name>
            </trkpt>
            <trkpt lat="49.7780672" lon="9.4033272">
                <ele>138.0</ele>
                <time>2020-08-29T09:41:34.000Z</time>
                <name>Trackpoint 1565</name>
            </trkpt>
            <trkpt lat="49.7779872" lon="9.403216">
                <ele>138.0</ele>
                <time>2020-08-29T09:41:36.000Z</time>
                <name>Trackpoint 1566</name>
            </trkpt>
            <trkpt lat="49.7779168" lon="9.4031064">
                <ele>138.0</ele>
                <time>2020-08-29T09:41:38.000Z</time>
                <name>Trackpoint 1567</name>
            </trkpt>
            <trkpt lat="49.777824" lon="9.4030048">
                <ele>138.0</ele>
                <time>2020-08-29T09:41:40.000Z</time>
                <name>Trackpoint 1568</name>
            </trkpt>
            <trkpt lat="49.777744" lon="9.4028952">
                <ele>137.0</ele>
                <time>2020-08-29T09:41:42.000Z</time>
                <name>Trackpoint 1569</name>
            </trkpt>
            <trkpt lat="49.777664" lon="9.4028">
                <ele>137.0</ele>
                <time>2020-08-29T09:41:44.000Z</time>
                <name>Trackpoint 1570</name>
            </trkpt>
            <trkpt lat="49.7775872" lon="9.4027048">
                <ele>137.0</ele>
                <time>2020-08-29T09:41:46.000Z</time>
                <name>Trackpoint 1571</name>
            </trkpt>
            <trkpt lat="49.7775168" lon="9.4026096">
                <ele>137.0</ele>
                <time>2020-08-29T09:41:48.000Z</time>
                <name>Trackpoint 1572</name>
            </trkpt>
            <trkpt lat="49.77744" lon="9.4025184">
                <ele>137.0</ele>
                <time>2020-08-29T09:41:50.000Z</time>
                <name>Trackpoint 1573</name>
            </trkpt>
            <trkpt lat="49.7773664" lon="9.4024216">
                <ele>137.0</ele>
                <time>2020-08-29T09:41:52.000Z</time>
                <name>Trackpoint 1574</name>
            </trkpt>
            <trkpt lat="49.7773024" lon="9.4023152">
                <ele>137.0</ele>
                <time>2020-08-29T09:41:54.000Z</time>
                <name>Trackpoint 1575</name>
            </trkpt>
            <trkpt lat="49.7772256" lon="9.4022">
                <ele>137.0</ele>
                <time>2020-08-29T09:41:56.000Z</time>
                <name>Trackpoint 1576</name>
            </trkpt>
            <trkpt lat="49.777152" lon="9.402112">
                <ele>137.0</ele>
                <time>2020-08-29T09:41:58.000Z</time>
                <name>Trackpoint 1577</name>
            </trkpt>
            <trkpt lat="49.7770656" lon="9.4020168">
                <ele>137.0</ele>
                <time>2020-08-29T09:42:00.000Z</time>
                <name>Trackpoint 1578</name>
            </trkpt>
            <trkpt lat="49.7769824" lon="9.4019272">
                <ele>137.0</ele>
                <time>2020-08-29T09:42:02.000Z</time>
                <name>Trackpoint 1579</name>
            </trkpt>
            <trkpt lat="49.776896" lon="9.4018224">
                <ele>137.0</ele>
                <time>2020-08-29T09:42:04.000Z</time>
                <name>Trackpoint 1580</name>
            </trkpt>
            <trkpt lat="49.7768096" lon="9.401736">
                <ele>138.0</ele>
                <time>2020-08-29T09:42:06.000Z</time>
                <name>Trackpoint 1581</name>
            </trkpt>
            <trkpt lat="49.7767232" lon="9.4016448">
                <ele>138.0</ele>
                <time>2020-08-29T09:42:08.000Z</time>
                <name>Trackpoint 1582</name>
            </trkpt>
            <trkpt lat="49.7766432" lon="9.4015552">
                <ele>138.0</ele>
                <time>2020-08-29T09:42:10.000Z</time>
                <name>Trackpoint 1583</name>
            </trkpt>
            <trkpt lat="49.7765664" lon="9.4014752">
                <ele>138.0</ele>
                <time>2020-08-29T09:42:12.000Z</time>
                <name>Trackpoint 1584</name>
            </trkpt>
            <trkpt lat="49.7764896" lon="9.4014032">
                <ele>138.0</ele>
                <time>2020-08-29T09:42:14.000Z</time>
                <name>Trackpoint 1585</name>
            </trkpt>
            <trkpt lat="49.7764128" lon="9.4013296">
                <ele>138.0</ele>
                <time>2020-08-29T09:42:16.000Z</time>
                <name>Trackpoint 1586</name>
            </trkpt>
            <trkpt lat="49.776336" lon="9.40126">
                <ele>138.0</ele>
                <time>2020-08-29T09:42:18.000Z</time>
                <name>Trackpoint 1587</name>
            </trkpt>
            <trkpt lat="49.776256" lon="9.4011768">
                <ele>138.0</ele>
                <time>2020-08-29T09:42:20.000Z</time>
                <name>Trackpoint 1588</name>
            </trkpt>
            <trkpt lat="49.7761792" lon="9.4010824">
                <ele>138.0</ele>
                <time>2020-08-29T09:42:22.000Z</time>
                <name>Trackpoint 1589</name>
            </trkpt>
            <trkpt lat="49.7761024" lon="9.40098">
                <ele>138.0</ele>
                <time>2020-08-29T09:42:24.000Z</time>
                <name>Trackpoint 1590</name>
            </trkpt>
            <trkpt lat="49.7760224" lon="9.4008776">
                <ele>137.0</ele>
                <time>2020-08-29T09:42:26.000Z</time>
                <name>Trackpoint 1591</name>
            </trkpt>
            <trkpt lat="49.7759392" lon="9.400768">
                <ele>137.0</ele>
                <time>2020-08-29T09:42:28.000Z</time>
                <name>Trackpoint 1592</name>
            </trkpt>
            <trkpt lat="49.7758752" lon="9.400668">
                <ele>137.0</ele>
                <time>2020-08-29T09:42:30.000Z</time>
                <name>Trackpoint 1593</name>
            </trkpt>
            <trkpt lat="49.7758112" lon="9.4005784">
                <ele>137.0</ele>
                <time>2020-08-29T09:42:32.000Z</time>
                <name>Trackpoint 1594</name>
            </trkpt>
            <trkpt lat="49.7757536" lon="9.40048">
                <ele>137.0</ele>
                <time>2020-08-29T09:42:34.000Z</time>
                <name>Trackpoint 1595</name>
            </trkpt>
            <trkpt lat="49.7756928" lon="9.4003832">
                <ele>138.0</ele>
                <time>2020-08-29T09:42:36.000Z</time>
                <name>Trackpoint 1596</name>
            </trkpt>
            <trkpt lat="49.7756384" lon="9.4002888">
                <ele>138.0</ele>
                <time>2020-08-29T09:42:38.000Z</time>
                <name>Trackpoint 1597</name>
            </trkpt>
            <trkpt lat="49.7755808" lon="9.4001976">
                <ele>138.0</ele>
                <time>2020-08-29T09:42:40.000Z</time>
                <name>Trackpoint 1598</name>
            </trkpt>
            <trkpt lat="49.7755104" lon="9.4001176">
                <ele>138.0</ele>
                <time>2020-08-29T09:42:42.000Z</time>
                <name>Trackpoint 1599</name>
            </trkpt>
            <trkpt lat="49.7754432" lon="9.4000432">
                <ele>138.0</ele>
                <time>2020-08-29T09:42:44.000Z</time>
                <name>Trackpoint 1600</name>
            </trkpt>
            <trkpt lat="49.7753856" lon="9.3999416">
                <ele>138.0</ele>
                <time>2020-08-29T09:42:46.000Z</time>
                <name>Trackpoint 1601</name>
            </trkpt>
            <trkpt lat="49.7753248" lon="9.399852">
                <ele>138.0</ele>
                <time>2020-08-29T09:42:48.000Z</time>
                <name>Trackpoint 1602</name>
            </trkpt>
            <trkpt lat="49.7752736" lon="9.3997432">
                <ele>138.0</ele>
                <time>2020-08-29T09:42:50.000Z</time>
                <name>Trackpoint 1603</name>
            </trkpt>
            <trkpt lat="49.775216" lon="9.399636">
                <ele>139.0</ele>
                <time>2020-08-29T09:42:52.000Z</time>
                <name>Trackpoint 1604</name>
            </trkpt>
            <trkpt lat="49.7751648" lon="9.3995448">
                <ele>140.0</ele>
                <time>2020-08-29T09:42:54.000Z</time>
                <name>Trackpoint 1605</name>
            </trkpt>
            <trkpt lat="49.775136" lon="9.39944">
                <ele>141.0</ele>
                <time>2020-08-29T09:42:56.000Z</time>
                <name>Trackpoint 1606</name>
            </trkpt>
            <trkpt lat="49.7751136" lon="9.3993168">
                <ele>141.0</ele>
                <time>2020-08-29T09:42:58.000Z</time>
                <name>Trackpoint 1607</name>
            </trkpt>
            <trkpt lat="49.775088" lon="9.3991944">
                <ele>141.0</ele>
                <time>2020-08-29T09:43:00.000Z</time>
                <name>Trackpoint 1608</name>
            </trkpt>
            <trkpt lat="49.7750656" lon="9.399088">
                <ele>141.0</ele>
                <time>2020-08-29T09:43:02.000Z</time>
                <name>Trackpoint 1609</name>
            </trkpt>
            <trkpt lat="49.7750496" lon="9.3989888">
                <ele>141.0</ele>
                <time>2020-08-29T09:43:04.000Z</time>
                <name>Trackpoint 1610</name>
            </trkpt>
            <trkpt lat="49.77504" lon="9.3988888">
                <ele>141.0</ele>
                <time>2020-08-29T09:43:06.000Z</time>
                <name>Trackpoint 1611</name>
            </trkpt>
            <trkpt lat="49.7750176" lon="9.3987528">
                <ele>141.0</ele>
                <time>2020-08-29T09:43:08.000Z</time>
                <name>Trackpoint 1612</name>
            </trkpt>
            <trkpt lat="49.7750048" lon="9.3986416">
                <ele>141.0</ele>
                <time>2020-08-29T09:43:10.000Z</time>
                <name>Trackpoint 1613</name>
            </trkpt>
            <trkpt lat="49.7749856" lon="9.3985216">
                <ele>141.0</ele>
                <time>2020-08-29T09:43:12.000Z</time>
                <name>Trackpoint 1614</name>
            </trkpt>
            <trkpt lat="49.7749664" lon="9.398388">
                <ele>141.0</ele>
                <time>2020-08-29T09:43:14.000Z</time>
                <name>Trackpoint 1615</name>
            </trkpt>
            <trkpt lat="49.7749664" lon="9.3982488">
                <ele>141.0</ele>
                <time>2020-08-29T09:43:16.000Z</time>
                <name>Trackpoint 1616</name>
            </trkpt>
            <trkpt lat="49.7750144" lon="9.398124">
                <ele>141.0</ele>
                <time>2020-08-29T09:43:18.000Z</time>
                <name>Trackpoint 1617</name>
            </trkpt>
            <trkpt lat="49.7750976" lon="9.3980512">
                <ele>141.0</ele>
                <time>2020-08-29T09:43:20.000Z</time>
                <name>Trackpoint 1618</name>
            </trkpt>
            <trkpt lat="49.7751616" lon="9.3979728">
                <ele>141.0</ele>
                <time>2020-08-29T09:43:22.000Z</time>
                <name>Trackpoint 1619</name>
            </trkpt>
            <trkpt lat="49.7752224" lon="9.39788">
                <ele>142.0</ele>
                <time>2020-08-29T09:43:24.000Z</time>
                <name>Trackpoint 1620</name>
            </trkpt>
            <trkpt lat="49.7753184" lon="9.3978464">
                <ele>143.0</ele>
                <time>2020-08-29T09:43:26.000Z</time>
                <name>Trackpoint 1621</name>
            </trkpt>
            <trkpt lat="49.7753952" lon="9.3977936">
                <ele>143.0</ele>
                <time>2020-08-29T09:43:28.000Z</time>
                <name>Trackpoint 1622</name>
            </trkpt>
            <trkpt lat="49.7754912" lon="9.3977568">
                <ele>145.0</ele>
                <time>2020-08-29T09:43:30.000Z</time>
                <name>Trackpoint 1623</name>
            </trkpt>
            <trkpt lat="49.7755904" lon="9.3977344">
                <ele>144.0</ele>
                <time>2020-08-29T09:43:32.000Z</time>
                <name>Trackpoint 1624</name>
            </trkpt>
            <trkpt lat="49.7757088" lon="9.397692">
                <ele>146.0</ele>
                <time>2020-08-29T09:43:35.000Z</time>
                <name>Trackpoint 1625</name>
            </trkpt>
            <trkpt lat="49.7758304" lon="9.3976568">
                <ele>147.0</ele>
                <time>2020-08-29T09:43:38.000Z</time>
                <name>Trackpoint 1626</name>
            </trkpt>
            <trkpt lat="49.7759552" lon="9.397612">
                <ele>147.0</ele>
                <time>2020-08-29T09:43:41.000Z</time>
                <name>Trackpoint 1627</name>
            </trkpt>
            <trkpt lat="49.776048" lon="9.3975536">
                <ele>151.0</ele>
                <time>2020-08-29T09:43:44.000Z</time>
                <name>Trackpoint 1628</name>
            </trkpt>
            <trkpt lat="49.7761696" lon="9.3975288">
                <ele>150.0</ele>
                <time>2020-08-29T09:43:47.000Z</time>
                <name>Trackpoint 1629</name>
            </trkpt>
            <trkpt lat="49.7762656" lon="9.3974912">
                <ele>149.0</ele>
                <time>2020-08-29T09:43:50.000Z</time>
                <name>Trackpoint 1630</name>
            </trkpt>
            <trkpt lat="49.776272" lon="9.3973664">
                <ele>147.0</ele>
                <time>2020-08-29T09:43:53.000Z</time>
                <name>Trackpoint 1631</name>
            </trkpt>
            <trkpt lat="49.7762528" lon="9.3972632">
                <ele>146.0</ele>
                <time>2020-08-29T09:43:55.000Z</time>
                <name>Trackpoint 1632</name>
            </trkpt>
            <trkpt lat="49.7762304" lon="9.3971584">
                <ele>146.0</ele>
                <time>2020-08-29T09:43:57.000Z</time>
                <name>Trackpoint 1633</name>
            </trkpt>
            <trkpt lat="49.7762144" lon="9.3970496">
                <ele>146.0</ele>
                <time>2020-08-29T09:43:59.000Z</time>
                <name>Trackpoint 1634</name>
            </trkpt>
            <trkpt lat="49.776192" lon="9.3969424">
                <ele>146.0</ele>
                <time>2020-08-29T09:44:01.000Z</time>
                <name>Trackpoint 1635</name>
            </trkpt>
            <trkpt lat="49.7761664" lon="9.3968288">
                <ele>146.0</ele>
                <time>2020-08-29T09:44:03.000Z</time>
                <name>Trackpoint 1636</name>
            </trkpt>
            <trkpt lat="49.7761408" lon="9.3967104">
                <ele>146.0</ele>
                <time>2020-08-29T09:44:05.000Z</time>
                <name>Trackpoint 1637</name>
            </trkpt>
            <trkpt lat="49.7761184" lon="9.3965856">
                <ele>146.0</ele>
                <time>2020-08-29T09:44:07.000Z</time>
                <name>Trackpoint 1638</name>
            </trkpt>
            <trkpt lat="49.776096" lon="9.3964752">
                <ele>146.0</ele>
                <time>2020-08-29T09:44:09.000Z</time>
                <name>Trackpoint 1639</name>
            </trkpt>
            <trkpt lat="49.77608" lon="9.3963568">
                <ele>146.0</ele>
                <time>2020-08-29T09:44:11.000Z</time>
                <name>Trackpoint 1640</name>
            </trkpt>
            <trkpt lat="49.7760512" lon="9.3962224">
                <ele>146.0</ele>
                <time>2020-08-29T09:44:13.000Z</time>
                <name>Trackpoint 1641</name>
            </trkpt>
            <trkpt lat="49.7760224" lon="9.3961">
                <ele>146.0</ele>
                <time>2020-08-29T09:44:15.000Z</time>
                <name>Trackpoint 1642</name>
            </trkpt>
            <trkpt lat="49.7760032" lon="9.3959552">
                <ele>146.0</ele>
                <time>2020-08-29T09:44:17.000Z</time>
                <name>Trackpoint 1643</name>
            </trkpt>
            <trkpt lat="49.7759872" lon="9.395808">
                <ele>145.0</ele>
                <time>2020-08-29T09:44:19.000Z</time>
                <name>Trackpoint 1644</name>
            </trkpt>
            <trkpt lat="49.775968" lon="9.3956744">
                <ele>145.0</ele>
                <time>2020-08-29T09:44:21.000Z</time>
                <name>Trackpoint 1645</name>
            </trkpt>
            <trkpt lat="49.7759552" lon="9.3955336">
                <ele>145.0</ele>
                <time>2020-08-29T09:44:23.000Z</time>
                <name>Trackpoint 1646</name>
            </trkpt>
            <trkpt lat="49.7759328" lon="9.3953888">
                <ele>145.0</ele>
                <time>2020-08-29T09:44:25.000Z</time>
                <name>Trackpoint 1647</name>
            </trkpt>
            <trkpt lat="49.7759104" lon="9.3952448">
                <ele>145.0</ele>
                <time>2020-08-29T09:44:27.000Z</time>
                <name>Trackpoint 1648</name>
            </trkpt>
            <trkpt lat="49.7758912" lon="9.3951056">
                <ele>145.0</ele>
                <time>2020-08-29T09:44:29.000Z</time>
                <name>Trackpoint 1649</name>
            </trkpt>
            <trkpt lat="49.7758752" lon="9.3949672">
                <ele>145.0</ele>
                <time>2020-08-29T09:44:31.000Z</time>
                <name>Trackpoint 1650</name>
            </trkpt>
            <trkpt lat="49.7758624" lon="9.3948248">
                <ele>144.0</ele>
                <time>2020-08-29T09:44:33.000Z</time>
                <name>Trackpoint 1651</name>
            </trkpt>
            <trkpt lat="49.7758432" lon="9.3946848">
                <ele>144.0</ele>
                <time>2020-08-29T09:44:35.000Z</time>
                <name>Trackpoint 1652</name>
            </trkpt>
            <trkpt lat="49.7758336" lon="9.3945488">
                <ele>144.0</ele>
                <time>2020-08-29T09:44:37.000Z</time>
                <name>Trackpoint 1653</name>
            </trkpt>
            <trkpt lat="49.7758208" lon="9.394412">
                <ele>144.0</ele>
                <time>2020-08-29T09:44:39.000Z</time>
                <name>Trackpoint 1654</name>
            </trkpt>
            <trkpt lat="49.7758144" lon="9.3942808">
                <ele>144.0</ele>
                <time>2020-08-29T09:44:41.000Z</time>
                <name>Trackpoint 1655</name>
            </trkpt>
            <trkpt lat="49.7758144" lon="9.3941472">
                <ele>143.0</ele>
                <time>2020-08-29T09:44:43.000Z</time>
                <name>Trackpoint 1656</name>
            </trkpt>
            <trkpt lat="49.775808" lon="9.3940088">
                <ele>143.0</ele>
                <time>2020-08-29T09:44:45.000Z</time>
                <name>Trackpoint 1657</name>
            </trkpt>
            <trkpt lat="49.7757984" lon="9.3938688">
                <ele>143.0</ele>
                <time>2020-08-29T09:44:47.000Z</time>
                <name>Trackpoint 1658</name>
            </trkpt>
            <trkpt lat="49.7757888" lon="9.393732">
                <ele>143.0</ele>
                <time>2020-08-29T09:44:49.000Z</time>
                <name>Trackpoint 1659</name>
            </trkpt>
            <trkpt lat="49.7757824" lon="9.3935896">
                <ele>143.0</ele>
                <time>2020-08-29T09:44:51.000Z</time>
                <name>Trackpoint 1660</name>
            </trkpt>
            <trkpt lat="49.775776" lon="9.3934432">
                <ele>143.0</ele>
                <time>2020-08-29T09:44:53.000Z</time>
                <name>Trackpoint 1661</name>
            </trkpt>
            <trkpt lat="49.775776" lon="9.3933032">
                <ele>142.0</ele>
                <time>2020-08-29T09:44:55.000Z</time>
                <name>Trackpoint 1662</name>
            </trkpt>
            <trkpt lat="49.775776" lon="9.3931688">
                <ele>142.0</ele>
                <time>2020-08-29T09:44:57.000Z</time>
                <name>Trackpoint 1663</name>
            </trkpt>
            <trkpt lat="49.775776" lon="9.393032">
                <ele>142.0</ele>
                <time>2020-08-29T09:44:59.000Z</time>
                <name>Trackpoint 1664</name>
            </trkpt>
            <trkpt lat="49.775776" lon="9.3928944">
                <ele>142.0</ele>
                <time>2020-08-29T09:45:01.000Z</time>
                <name>Trackpoint 1665</name>
            </trkpt>
            <trkpt lat="49.7757696" lon="9.3927536">
                <ele>142.0</ele>
                <time>2020-08-29T09:45:03.000Z</time>
                <name>Trackpoint 1666</name>
            </trkpt>
            <trkpt lat="49.7757632" lon="9.3926136">
                <ele>142.0</ele>
                <time>2020-08-29T09:45:05.000Z</time>
                <name>Trackpoint 1667</name>
            </trkpt>
            <trkpt lat="49.7757568" lon="9.3924688">
                <ele>142.0</ele>
                <time>2020-08-29T09:45:07.000Z</time>
                <name>Trackpoint 1668</name>
            </trkpt>
            <trkpt lat="49.7757568" lon="9.3923256">
                <ele>142.0</ele>
                <time>2020-08-29T09:45:09.000Z</time>
                <name>Trackpoint 1669</name>
            </trkpt>
            <trkpt lat="49.77576" lon="9.3921832">
                <ele>142.0</ele>
                <time>2020-08-29T09:45:11.000Z</time>
                <name>Trackpoint 1670</name>
            </trkpt>
            <trkpt lat="49.77576" lon="9.3920416">
                <ele>142.0</ele>
                <time>2020-08-29T09:45:13.000Z</time>
                <name>Trackpoint 1671</name>
            </trkpt>
            <trkpt lat="49.77576" lon="9.3919">
                <ele>141.0</ele>
                <time>2020-08-29T09:45:15.000Z</time>
                <name>Trackpoint 1672</name>
            </trkpt>
            <trkpt lat="49.7757568" lon="9.3917616">
                <ele>141.0</ele>
                <time>2020-08-29T09:45:17.000Z</time>
                <name>Trackpoint 1673</name>
            </trkpt>
            <trkpt lat="49.7757568" lon="9.3916168">
                <ele>142.0</ele>
                <time>2020-08-29T09:45:19.000Z</time>
                <name>Trackpoint 1674</name>
            </trkpt>
            <trkpt lat="49.7757536" lon="9.3914736">
                <ele>142.0</ele>
                <time>2020-08-29T09:45:21.000Z</time>
                <name>Trackpoint 1675</name>
            </trkpt>
            <trkpt lat="49.7757536" lon="9.3913368">
                <ele>142.0</ele>
                <time>2020-08-29T09:45:23.000Z</time>
                <name>Trackpoint 1676</name>
            </trkpt>
            <trkpt lat="49.7757504" lon="9.3911952">
                <ele>142.0</ele>
                <time>2020-08-29T09:45:25.000Z</time>
                <name>Trackpoint 1677</name>
            </trkpt>
            <trkpt lat="49.775744" lon="9.3910504">
                <ele>143.0</ele>
                <time>2020-08-29T09:45:27.000Z</time>
                <name>Trackpoint 1678</name>
            </trkpt>
            <trkpt lat="49.775744" lon="9.3909064">
                <ele>143.0</ele>
                <time>2020-08-29T09:45:29.000Z</time>
                <name>Trackpoint 1679</name>
            </trkpt>
            <trkpt lat="49.7757376" lon="9.3907632">
                <ele>143.0</ele>
                <time>2020-08-29T09:45:31.000Z</time>
                <name>Trackpoint 1680</name>
            </trkpt>
            <trkpt lat="49.7757376" lon="9.39062">
                <ele>143.0</ele>
                <time>2020-08-29T09:45:33.000Z</time>
                <name>Trackpoint 1681</name>
            </trkpt>
            <trkpt lat="49.7757344" lon="9.3904752">
                <ele>143.0</ele>
                <time>2020-08-29T09:45:35.000Z</time>
                <name>Trackpoint 1682</name>
            </trkpt>
            <trkpt lat="49.7757312" lon="9.3903248">
                <ele>142.0</ele>
                <time>2020-08-29T09:45:37.000Z</time>
                <name>Trackpoint 1683</name>
            </trkpt>
            <trkpt lat="49.7757312" lon="9.3901856">
                <ele>142.0</ele>
                <time>2020-08-29T09:45:39.000Z</time>
                <name>Trackpoint 1684</name>
            </trkpt>
            <trkpt lat="49.7757344" lon="9.39004">
                <ele>143.0</ele>
                <time>2020-08-29T09:45:41.000Z</time>
                <name>Trackpoint 1685</name>
            </trkpt>
            <trkpt lat="49.7757408" lon="9.3898984">
                <ele>142.0</ele>
                <time>2020-08-29T09:45:43.000Z</time>
                <name>Trackpoint 1686</name>
            </trkpt>
            <trkpt lat="49.775744" lon="9.38976">
                <ele>142.0</ele>
                <time>2020-08-29T09:45:45.000Z</time>
                <name>Trackpoint 1687</name>
            </trkpt>
            <trkpt lat="49.7757536" lon="9.3896216">
                <ele>143.0</ele>
                <time>2020-08-29T09:45:47.000Z</time>
                <name>Trackpoint 1688</name>
            </trkpt>
            <trkpt lat="49.7757696" lon="9.3894832">
                <ele>143.0</ele>
                <time>2020-08-29T09:45:49.000Z</time>
                <name>Trackpoint 1689</name>
            </trkpt>
            <trkpt lat="49.775792" lon="9.389348">
                <ele>143.0</ele>
                <time>2020-08-29T09:45:51.000Z</time>
                <name>Trackpoint 1690</name>
            </trkpt>
            <trkpt lat="49.7757952" lon="9.3891952">
                <ele>143.0</ele>
                <time>2020-08-29T09:45:53.000Z</time>
                <name>Trackpoint 1691</name>
            </trkpt>
            <trkpt lat="49.7758112" lon="9.3890512">
                <ele>143.0</ele>
                <time>2020-08-29T09:45:55.000Z</time>
                <name>Trackpoint 1692</name>
            </trkpt>
            <trkpt lat="49.7758304" lon="9.3889112">
                <ele>143.0</ele>
                <time>2020-08-29T09:45:57.000Z</time>
                <name>Trackpoint 1693</name>
            </trkpt>
            <trkpt lat="49.7758528" lon="9.3887752">
                <ele>143.0</ele>
                <time>2020-08-29T09:45:59.000Z</time>
                <name>Trackpoint 1694</name>
            </trkpt>
            <trkpt lat="49.775872" lon="9.3886344">
                <ele>143.0</ele>
                <time>2020-08-29T09:46:01.000Z</time>
                <name>Trackpoint 1695</name>
            </trkpt>
            <trkpt lat="49.7758944" lon="9.3884984">
                <ele>144.0</ele>
                <time>2020-08-29T09:46:03.000Z</time>
                <name>Trackpoint 1696</name>
            </trkpt>
            <trkpt lat="49.77592" lon="9.3883632">
                <ele>144.0</ele>
                <time>2020-08-29T09:46:05.000Z</time>
                <name>Trackpoint 1697</name>
            </trkpt>
            <trkpt lat="49.7759488" lon="9.3882304">
                <ele>144.0</ele>
                <time>2020-08-29T09:46:07.000Z</time>
                <name>Trackpoint 1698</name>
            </trkpt>
            <trkpt lat="49.7759744" lon="9.3880952">
                <ele>144.0</ele>
                <time>2020-08-29T09:46:09.000Z</time>
                <name>Trackpoint 1699</name>
            </trkpt>
            <trkpt lat="49.776" lon="9.3879584">
                <ele>144.0</ele>
                <time>2020-08-29T09:46:11.000Z</time>
                <name>Trackpoint 1700</name>
            </trkpt>
            <trkpt lat="49.7760352" lon="9.3878272">
                <ele>144.0</ele>
                <time>2020-08-29T09:46:13.000Z</time>
                <name>Trackpoint 1701</name>
            </trkpt>
            <trkpt lat="49.7760704" lon="9.3876864">
                <ele>145.0</ele>
                <time>2020-08-29T09:46:15.000Z</time>
                <name>Trackpoint 1702</name>
            </trkpt>
            <trkpt lat="49.776112" lon="9.3875504">
                <ele>145.0</ele>
                <time>2020-08-29T09:46:17.000Z</time>
                <name>Trackpoint 1703</name>
            </trkpt>
            <trkpt lat="49.7761504" lon="9.3874152">
                <ele>145.0</ele>
                <time>2020-08-29T09:46:19.000Z</time>
                <name>Trackpoint 1704</name>
            </trkpt>
            <trkpt lat="49.7761792" lon="9.3872872">
                <ele>145.0</ele>
                <time>2020-08-29T09:46:21.000Z</time>
                <name>Trackpoint 1705</name>
            </trkpt>
            <trkpt lat="49.7762176" lon="9.3871584">
                <ele>145.0</ele>
                <time>2020-08-29T09:46:23.000Z</time>
                <name>Trackpoint 1706</name>
            </trkpt>
            <trkpt lat="49.7762464" lon="9.3870224">
                <ele>145.0</ele>
                <time>2020-08-29T09:46:25.000Z</time>
                <name>Trackpoint 1707</name>
            </trkpt>
            <trkpt lat="49.7762752" lon="9.3868784">
                <ele>145.0</ele>
                <time>2020-08-29T09:46:27.000Z</time>
                <name>Trackpoint 1708</name>
            </trkpt>
            <trkpt lat="49.7762976" lon="9.3867352">
                <ele>145.0</ele>
                <time>2020-08-29T09:46:29.000Z</time>
                <name>Trackpoint 1709</name>
            </trkpt>
            <trkpt lat="49.7763168" lon="9.3865856">
                <ele>144.0</ele>
                <time>2020-08-29T09:46:31.000Z</time>
                <name>Trackpoint 1710</name>
            </trkpt>
            <trkpt lat="49.7763392" lon="9.386428">
                <ele>144.0</ele>
                <time>2020-08-29T09:46:33.000Z</time>
                <name>Trackpoint 1711</name>
            </trkpt>
            <trkpt lat="49.7763648" lon="9.3862736">
                <ele>144.0</ele>
                <time>2020-08-29T09:46:35.000Z</time>
                <name>Trackpoint 1712</name>
            </trkpt>
            <trkpt lat="49.7763904" lon="9.3861152">
                <ele>144.0</ele>
                <time>2020-08-29T09:46:37.000Z</time>
                <name>Trackpoint 1713</name>
            </trkpt>
            <trkpt lat="49.7764128" lon="9.3859568">
                <ele>144.0</ele>
                <time>2020-08-29T09:46:39.000Z</time>
                <name>Trackpoint 1714</name>
            </trkpt>
            <trkpt lat="49.7764384" lon="9.3858016">
                <ele>144.0</ele>
                <time>2020-08-29T09:46:41.000Z</time>
                <name>Trackpoint 1715</name>
            </trkpt>
            <trkpt lat="49.7764576" lon="9.3856448">
                <ele>144.0</ele>
                <time>2020-08-29T09:46:43.000Z</time>
                <name>Trackpoint 1716</name>
            </trkpt>
            <trkpt lat="49.7764864" lon="9.3855088">
                <ele>144.0</ele>
                <time>2020-08-29T09:46:45.000Z</time>
                <name>Trackpoint 1717</name>
            </trkpt>
            <trkpt lat="49.7765088" lon="9.385404">
                <ele>144.0</ele>
                <time>2020-08-29T09:46:47.000Z</time>
                <name>Trackpoint 1718</name>
            </trkpt>
            <trkpt lat="49.7765248" lon="9.3853104">
                <ele>144.0</ele>
                <time>2020-08-29T09:46:58.000Z</time>
                <name>Trackpoint 1719</name>
            </trkpt>
            <trkpt lat="49.7765248" lon="9.3853576">
                <ele>144.0</ele>
                <time>2020-08-29T09:47:20.000Z</time>
                <name>Trackpoint 1720</name>
            </trkpt>
            <trkpt lat="49.7765472" lon="9.3852416">
                <ele>144.0</ele>
                <time>2020-08-29T09:47:38.000Z</time>
                <name>Trackpoint 1721</name>
            </trkpt>
            <trkpt lat="49.7765632" lon="9.385108">
                <ele>144.0</ele>
                <time>2020-08-29T09:47:41.000Z</time>
                <name>Trackpoint 1722</name>
            </trkpt>
            <trkpt lat="49.776576" lon="9.3850072">
                <ele>144.0</ele>
                <time>2020-08-29T09:47:43.000Z</time>
                <name>Trackpoint 1723</name>
            </trkpt>
            <trkpt lat="49.7765984" lon="9.3848952">
                <ele>144.0</ele>
                <time>2020-08-29T09:47:45.000Z</time>
                <name>Trackpoint 1724</name>
            </trkpt>
            <trkpt lat="49.7766176" lon="9.38478">
                <ele>144.0</ele>
                <time>2020-08-29T09:47:47.000Z</time>
                <name>Trackpoint 1725</name>
            </trkpt>
            <trkpt lat="49.7766336" lon="9.3846752">
                <ele>144.0</ele>
                <time>2020-08-29T09:47:49.000Z</time>
                <name>Trackpoint 1726</name>
            </trkpt>
            <trkpt lat="49.7766464" lon="9.3845768">
                <ele>144.0</ele>
                <time>2020-08-29T09:47:51.000Z</time>
                <name>Trackpoint 1727</name>
            </trkpt>
            <trkpt lat="49.7766368" lon="9.3844864">
                <ele>144.0</ele>
                <time>2020-08-29T09:47:53.000Z</time>
                <name>Trackpoint 1728</name>
            </trkpt>
            <trkpt lat="49.7765504" lon="9.3843784">
                <ele>144.0</ele>
                <time>2020-08-29T09:47:56.000Z</time>
                <name>Trackpoint 1729</name>
            </trkpt>
            <trkpt lat="49.7764736" lon="9.3843032">
                <ele>144.0</ele>
                <time>2020-08-29T09:47:58.000Z</time>
                <name>Trackpoint 1730</name>
            </trkpt>
            <trkpt lat="49.7763904" lon="9.3842448">
                <ele>144.0</ele>
                <time>2020-08-29T09:48:00.000Z</time>
                <name>Trackpoint 1731</name>
            </trkpt>
            <trkpt lat="49.7762944" lon="9.3841712">
                <ele>143.0</ele>
                <time>2020-08-29T09:48:02.000Z</time>
                <name>Trackpoint 1732</name>
            </trkpt>
            <trkpt lat="49.7761952" lon="9.3840968">
                <ele>143.0</ele>
                <time>2020-08-29T09:48:04.000Z</time>
                <name>Trackpoint 1733</name>
            </trkpt>
            <trkpt lat="49.776096" lon="9.384024">
                <ele>143.0</ele>
                <time>2020-08-29T09:48:06.000Z</time>
                <name>Trackpoint 1734</name>
            </trkpt>
            <trkpt lat="49.7759936" lon="9.3839504">
                <ele>144.0</ele>
                <time>2020-08-29T09:48:08.000Z</time>
                <name>Trackpoint 1735</name>
            </trkpt>
            <trkpt lat="49.775888" lon="9.3838784">
                <ele>143.0</ele>
                <time>2020-08-29T09:48:10.000Z</time>
                <name>Trackpoint 1736</name>
            </trkpt>
            <trkpt lat="49.7757792" lon="9.3838056">
                <ele>143.0</ele>
                <time>2020-08-29T09:48:12.000Z</time>
                <name>Trackpoint 1737</name>
            </trkpt>
            <trkpt lat="49.7756736" lon="9.3837296">
                <ele>143.0</ele>
                <time>2020-08-29T09:48:14.000Z</time>
                <name>Trackpoint 1738</name>
            </trkpt>
            <trkpt lat="49.7755648" lon="9.3836584">
                <ele>143.0</ele>
                <time>2020-08-29T09:48:16.000Z</time>
                <name>Trackpoint 1739</name>
            </trkpt>
            <trkpt lat="49.7754624" lon="9.3835824">
                <ele>143.0</ele>
                <time>2020-08-29T09:48:18.000Z</time>
                <name>Trackpoint 1740</name>
            </trkpt>
            <trkpt lat="49.7753536" lon="9.3834984">
                <ele>143.0</ele>
                <time>2020-08-29T09:48:20.000Z</time>
                <name>Trackpoint 1741</name>
            </trkpt>
            <trkpt lat="49.775248" lon="9.3834">
                <ele>142.0</ele>
                <time>2020-08-29T09:48:22.000Z</time>
                <name>Trackpoint 1742</name>
            </trkpt>
            <trkpt lat="49.7751584" lon="9.3832776">
                <ele>142.0</ele>
                <time>2020-08-29T09:48:24.000Z</time>
                <name>Trackpoint 1743</name>
            </trkpt>
            <trkpt lat="49.7750752" lon="9.3831328">
                <ele>141.0</ele>
                <time>2020-08-29T09:48:26.000Z</time>
                <name>Trackpoint 1744</name>
            </trkpt>
            <trkpt lat="49.7749984" lon="9.3829744">
                <ele>140.0</ele>
                <time>2020-08-29T09:48:28.000Z</time>
                <name>Trackpoint 1745</name>
            </trkpt>
            <trkpt lat="49.7749248" lon="9.3828232">
                <ele>139.0</ele>
                <time>2020-08-29T09:48:30.000Z</time>
                <name>Trackpoint 1746</name>
            </trkpt>
            <trkpt lat="49.7748576" lon="9.3826768">
                <ele>139.0</ele>
                <time>2020-08-29T09:48:32.000Z</time>
                <name>Trackpoint 1747</name>
            </trkpt>
            <trkpt lat="49.7747872" lon="9.38254">
                <ele>138.0</ele>
                <time>2020-08-29T09:48:34.000Z</time>
                <name>Trackpoint 1748</name>
            </trkpt>
            <trkpt lat="49.7747264" lon="9.3824016">
                <ele>137.0</ele>
                <time>2020-08-29T09:48:36.000Z</time>
                <name>Trackpoint 1749</name>
            </trkpt>
            <trkpt lat="49.7746816" lon="9.38226">
                <ele>137.0</ele>
                <time>2020-08-29T09:48:38.000Z</time>
                <name>Trackpoint 1750</name>
            </trkpt>
            <trkpt lat="49.7746432" lon="9.3821048">
                <ele>137.0</ele>
                <time>2020-08-29T09:48:40.000Z</time>
                <name>Trackpoint 1751</name>
            </trkpt>
            <trkpt lat="49.7746208" lon="9.3819448">
                <ele>137.0</ele>
                <time>2020-08-29T09:48:42.000Z</time>
                <name>Trackpoint 1752</name>
            </trkpt>
            <trkpt lat="49.7746176" lon="9.381792">
                <ele>137.0</ele>
                <time>2020-08-29T09:48:44.000Z</time>
                <name>Trackpoint 1753</name>
            </trkpt>
            <trkpt lat="49.774624" lon="9.3816496">
                <ele>136.0</ele>
                <time>2020-08-29T09:48:46.000Z</time>
                <name>Trackpoint 1754</name>
            </trkpt>
            <trkpt lat="49.7746464" lon="9.3815248">
                <ele>136.0</ele>
                <time>2020-08-29T09:48:48.000Z</time>
                <name>Trackpoint 1755</name>
            </trkpt>
            <trkpt lat="49.7747008" lon="9.3814248">
                <ele>136.0</ele>
                <time>2020-08-29T09:48:50.000Z</time>
                <name>Trackpoint 1756</name>
            </trkpt>
            <trkpt lat="49.774752" lon="9.3813288">
                <ele>136.0</ele>
                <time>2020-08-29T09:48:52.000Z</time>
                <name>Trackpoint 1757</name>
            </trkpt>
            <trkpt lat="49.7748192" lon="9.3812552">
                <ele>136.0</ele>
                <time>2020-08-29T09:48:54.000Z</time>
                <name>Trackpoint 1758</name>
            </trkpt>
            <trkpt lat="49.7748864" lon="9.3811768">
                <ele>136.0</ele>
                <time>2020-08-29T09:48:56.000Z</time>
                <name>Trackpoint 1759</name>
            </trkpt>
            <trkpt lat="49.7749792" lon="9.3810752">
                <ele>135.0</ele>
                <time>2020-08-29T09:48:59.000Z</time>
                <name>Trackpoint 1760</name>
            </trkpt>
            <trkpt lat="49.77504" lon="9.381008">
                <ele>135.0</ele>
                <time>2020-08-29T09:49:01.000Z</time>
                <name>Trackpoint 1761</name>
            </trkpt>
            <trkpt lat="49.7751264" lon="9.3809072">
                <ele>135.0</ele>
                <time>2020-08-29T09:49:04.000Z</time>
                <name>Trackpoint 1762</name>
            </trkpt>
            <trkpt lat="49.7751968" lon="9.3808416">
                <ele>135.0</ele>
                <time>2020-08-29T09:49:06.000Z</time>
                <name>Trackpoint 1763</name>
            </trkpt>
            <trkpt lat="49.7752672" lon="9.3807672">
                <ele>135.0</ele>
                <time>2020-08-29T09:49:08.000Z</time>
                <name>Trackpoint 1764</name>
            </trkpt>
            <trkpt lat="49.7753344" lon="9.3806912">
                <ele>135.0</ele>
                <time>2020-08-29T09:49:10.000Z</time>
                <name>Trackpoint 1765</name>
            </trkpt>
            <trkpt lat="49.7754144" lon="9.3806136">
                <ele>135.0</ele>
                <time>2020-08-29T09:49:12.000Z</time>
                <name>Trackpoint 1766</name>
            </trkpt>
            <trkpt lat="49.7754816" lon="9.3805264">
                <ele>135.0</ele>
                <time>2020-08-29T09:49:14.000Z</time>
                <name>Trackpoint 1767</name>
            </trkpt>
            <trkpt lat="49.7755616" lon="9.3804304">
                <ele>135.0</ele>
                <time>2020-08-29T09:49:16.000Z</time>
                <name>Trackpoint 1768</name>
            </trkpt>
            <trkpt lat="49.7756384" lon="9.3803328">
                <ele>135.0</ele>
                <time>2020-08-29T09:49:18.000Z</time>
                <name>Trackpoint 1769</name>
            </trkpt>
            <trkpt lat="49.7757184" lon="9.3802344">
                <ele>135.0</ele>
                <time>2020-08-29T09:49:20.000Z</time>
                <name>Trackpoint 1770</name>
            </trkpt>
            <trkpt lat="49.7757984" lon="9.3801432">
                <ele>135.0</ele>
                <time>2020-08-29T09:49:22.000Z</time>
                <name>Trackpoint 1771</name>
            </trkpt>
            <trkpt lat="49.7758752" lon="9.3800632">
                <ele>135.0</ele>
                <time>2020-08-29T09:49:24.000Z</time>
                <name>Trackpoint 1772</name>
            </trkpt>
            <trkpt lat="49.7759424" lon="9.3799784">
                <ele>135.0</ele>
                <time>2020-08-29T09:49:26.000Z</time>
                <name>Trackpoint 1773</name>
            </trkpt>
            <trkpt lat="49.776032" lon="9.3798968">
                <ele>135.0</ele>
                <time>2020-08-29T09:49:28.000Z</time>
                <name>Trackpoint 1774</name>
            </trkpt>
            <trkpt lat="49.7760992" lon="9.3798288">
                <ele>136.0</ele>
                <time>2020-08-29T09:49:30.000Z</time>
                <name>Trackpoint 1775</name>
            </trkpt>
            <trkpt lat="49.7761664" lon="9.3797664">
                <ele>136.0</ele>
                <time>2020-08-29T09:49:32.000Z</time>
                <name>Trackpoint 1776</name>
            </trkpt>
            <trkpt lat="49.7762368" lon="9.3796952">
                <ele>135.0</ele>
                <time>2020-08-29T09:49:34.000Z</time>
                <name>Trackpoint 1777</name>
            </trkpt>
            <trkpt lat="49.7763072" lon="9.3796352">
                <ele>136.0</ele>
                <time>2020-08-29T09:49:36.000Z</time>
                <name>Trackpoint 1778</name>
            </trkpt>
            <trkpt lat="49.776384" lon="9.3795832">
                <ele>136.0</ele>
                <time>2020-08-29T09:49:38.000Z</time>
                <name>Trackpoint 1779</name>
            </trkpt>
            <trkpt lat="49.7764544" lon="9.3795096">
                <ele>136.0</ele>
                <time>2020-08-29T09:49:41.000Z</time>
                <name>Trackpoint 1780</name>
            </trkpt>
            <trkpt lat="49.776528" lon="9.3794544">
                <ele>135.0</ele>
                <time>2020-08-29T09:49:43.000Z</time>
                <name>Trackpoint 1781</name>
            </trkpt>
            <trkpt lat="49.7766368" lon="9.3793824">
                <ele>135.0</ele>
                <time>2020-08-29T09:49:46.000Z</time>
                <name>Trackpoint 1782</name>
            </trkpt>
            <trkpt lat="49.776736" lon="9.3793032">
                <ele>135.0</ele>
                <time>2020-08-29T09:49:49.000Z</time>
                <name>Trackpoint 1783</name>
            </trkpt>
            <trkpt lat="49.776816" lon="9.3792384">
                <ele>135.0</ele>
                <time>2020-08-29T09:49:52.000Z</time>
                <name>Trackpoint 1784</name>
            </trkpt>
            <trkpt lat="49.7768896" lon="9.3791848">
                <ele>135.0</ele>
                <time>2020-08-29T09:49:54.000Z</time>
                <name>Trackpoint 1785</name>
            </trkpt>
            <trkpt lat="49.7769728" lon="9.379124">
                <ele>135.0</ele>
                <time>2020-08-29T09:49:56.000Z</time>
                <name>Trackpoint 1786</name>
            </trkpt>
            <trkpt lat="49.7770592" lon="9.3790512">
                <ele>135.0</ele>
                <time>2020-08-29T09:49:58.000Z</time>
                <name>Trackpoint 1787</name>
            </trkpt>
            <trkpt lat="49.777152" lon="9.378968">
                <ele>135.0</ele>
                <time>2020-08-29T09:50:00.000Z</time>
                <name>Trackpoint 1788</name>
            </trkpt>
            <trkpt lat="49.7772416" lon="9.3789016">
                <ele>135.0</ele>
                <time>2020-08-29T09:50:02.000Z</time>
                <name>Trackpoint 1789</name>
            </trkpt>
            <trkpt lat="49.777328" lon="9.3788296">
                <ele>134.0</ele>
                <time>2020-08-29T09:50:04.000Z</time>
                <name>Trackpoint 1790</name>
            </trkpt>
            <trkpt lat="49.777424" lon="9.3787736">
                <ele>134.0</ele>
                <time>2020-08-29T09:50:06.000Z</time>
                <name>Trackpoint 1791</name>
            </trkpt>
            <trkpt lat="49.7775104" lon="9.37872">
                <ele>134.0</ele>
                <time>2020-08-29T09:50:08.000Z</time>
                <name>Trackpoint 1792</name>
            </trkpt>
            <trkpt lat="49.7775712" lon="9.3786336">
                <ele>134.0</ele>
                <time>2020-08-29T09:50:10.000Z</time>
                <name>Trackpoint 1793</name>
            </trkpt>
            <trkpt lat="49.7776448" lon="9.37856">
                <ele>134.0</ele>
                <time>2020-08-29T09:50:12.000Z</time>
                <name>Trackpoint 1794</name>
            </trkpt>
            <trkpt lat="49.7777184" lon="9.3784904">
                <ele>134.0</ele>
                <time>2020-08-29T09:50:14.000Z</time>
                <name>Trackpoint 1795</name>
            </trkpt>
            <trkpt lat="49.7777984" lon="9.3784176">
                <ele>134.0</ele>
                <time>2020-08-29T09:50:17.000Z</time>
                <name>Trackpoint 1796</name>
            </trkpt>
            <trkpt lat="49.777888" lon="9.3783528">
                <ele>133.0</ele>
                <time>2020-08-29T09:50:49.000Z</time>
                <name>Trackpoint 1797</name>
            </trkpt>
            <trkpt lat="49.7779776" lon="9.3782816">
                <ele>133.0</ele>
                <time>2020-08-29T09:50:53.000Z</time>
                <name>Trackpoint 1798</name>
            </trkpt>
            <trkpt lat="49.7780576" lon="9.378228">
                <ele>133.0</ele>
                <time>2020-08-29T09:50:56.000Z</time>
                <name>Trackpoint 1799</name>
            </trkpt>
            <trkpt lat="49.7781248" lon="9.3781656">
                <ele>133.0</ele>
                <time>2020-08-29T09:50:59.000Z</time>
                <name>Trackpoint 1800</name>
            </trkpt>
            <trkpt lat="49.7781952" lon="9.3781048">
                <ele>133.0</ele>
                <time>2020-08-29T09:51:02.000Z</time>
                <name>Trackpoint 1801</name>
            </trkpt>
            <trkpt lat="49.778256" lon="9.3780384">
                <ele>133.0</ele>
                <time>2020-08-29T09:51:05.000Z</time>
                <name>Trackpoint 1802</name>
            </trkpt>
            <trkpt lat="49.7783584" lon="9.3780496">
                <ele>133.0</ele>
                <time>2020-08-29T09:51:09.000Z</time>
                <name>Trackpoint 1803</name>
            </trkpt>
            <trkpt lat="49.778416" lon="9.3781248">
                <ele>133.0</ele>
                <time>2020-08-29T09:51:11.000Z</time>
                <name>Trackpoint 1804</name>
            </trkpt>
            <trkpt lat="49.7784704" lon="9.37822">
                <ele>133.0</ele>
                <time>2020-08-29T09:51:13.000Z</time>
                <name>Trackpoint 1805</name>
            </trkpt>
            <trkpt lat="49.7785248" lon="9.3782952">
                <ele>133.0</ele>
                <time>2020-08-29T09:51:15.000Z</time>
                <name>Trackpoint 1806</name>
            </trkpt>
            <trkpt lat="49.778624" lon="9.3783">
                <ele>133.0</ele>
                <time>2020-08-29T09:51:20.000Z</time>
                <name>Trackpoint 1807</name>
            </trkpt>
            <trkpt lat="49.7786976" lon="9.3781952">
                <ele>133.0</ele>
                <time>2020-08-29T09:51:23.000Z</time>
                <name>Trackpoint 1808</name>
            </trkpt>
            <trkpt lat="49.778768" lon="9.3781216">
                <ele>134.0</ele>
                <time>2020-08-29T09:51:25.000Z</time>
                <name>Trackpoint 1809</name>
            </trkpt>
            <trkpt lat="49.778848" lon="9.3780584">
                <ele>134.0</ele>
                <time>2020-08-29T09:51:27.000Z</time>
                <name>Trackpoint 1810</name>
            </trkpt>
            <trkpt lat="49.7789184" lon="9.3779784">
                <ele>134.0</ele>
                <time>2020-08-29T09:51:29.000Z</time>
                <name>Trackpoint 1811</name>
            </trkpt>
            <trkpt lat="49.7789888" lon="9.3778832">
                <ele>134.0</ele>
                <time>2020-08-29T09:51:31.000Z</time>
                <name>Trackpoint 1812</name>
            </trkpt>
            <trkpt lat="49.7790528" lon="9.3777888">
                <ele>134.0</ele>
                <time>2020-08-29T09:51:33.000Z</time>
                <name>Trackpoint 1813</name>
            </trkpt>
            <trkpt lat="49.7791104" lon="9.3776976">
                <ele>134.0</ele>
                <time>2020-08-29T09:51:35.000Z</time>
                <name>Trackpoint 1814</name>
            </trkpt>
            <trkpt lat="49.779168" lon="9.3776104">
                <ele>134.0</ele>
                <time>2020-08-29T09:51:37.000Z</time>
                <name>Trackpoint 1815</name>
            </trkpt>
            <trkpt lat="49.7792384" lon="9.3775168">
                <ele>134.0</ele>
                <time>2020-08-29T09:51:39.000Z</time>
                <name>Trackpoint 1816</name>
            </trkpt>
            <trkpt lat="49.7793152" lon="9.3774248">
                <ele>134.0</ele>
                <time>2020-08-29T09:51:41.000Z</time>
                <name>Trackpoint 1817</name>
            </trkpt>
            <trkpt lat="49.7793792" lon="9.3773336">
                <ele>134.0</ele>
                <time>2020-08-29T09:51:43.000Z</time>
                <name>Trackpoint 1818</name>
            </trkpt>
            <trkpt lat="49.7794496" lon="9.3772288">
                <ele>134.0</ele>
                <time>2020-08-29T09:51:45.000Z</time>
                <name>Trackpoint 1819</name>
            </trkpt>
            <trkpt lat="49.7795232" lon="9.3771216">
                <ele>134.0</ele>
                <time>2020-08-29T09:51:47.000Z</time>
                <name>Trackpoint 1820</name>
            </trkpt>
            <trkpt lat="49.779584" lon="9.3770104">
                <ele>134.0</ele>
                <time>2020-08-29T09:51:49.000Z</time>
                <name>Trackpoint 1821</name>
            </trkpt>
            <trkpt lat="49.7796288" lon="9.3768864">
                <ele>134.0</ele>
                <time>2020-08-29T09:51:51.000Z</time>
                <name>Trackpoint 1822</name>
            </trkpt>
            <trkpt lat="49.7796864" lon="9.3767592">
                <ele>134.0</ele>
                <time>2020-08-29T09:51:53.000Z</time>
                <name>Trackpoint 1823</name>
            </trkpt>
            <trkpt lat="49.779744" lon="9.3766296">
                <ele>134.0</ele>
                <time>2020-08-29T09:51:55.000Z</time>
                <name>Trackpoint 1824</name>
            </trkpt>
            <trkpt lat="49.7797952" lon="9.3765112">
                <ele>134.0</ele>
                <time>2020-08-29T09:51:57.000Z</time>
                <name>Trackpoint 1825</name>
            </trkpt>
            <trkpt lat="49.7798592" lon="9.3763936">
                <ele>134.0</ele>
                <time>2020-08-29T09:51:59.000Z</time>
                <name>Trackpoint 1826</name>
            </trkpt>
            <trkpt lat="49.7799104" lon="9.37628">
                <ele>134.0</ele>
                <time>2020-08-29T09:52:01.000Z</time>
                <name>Trackpoint 1827</name>
            </trkpt>
            <trkpt lat="49.779952" lon="9.3761952">
                <ele>135.0</ele>
                <time>2020-08-29T09:52:03.000Z</time>
                <name>Trackpoint 1828</name>
            </trkpt>
            <trkpt lat="49.78" lon="9.3760864">
                <ele>135.0</ele>
                <time>2020-08-29T09:52:06.000Z</time>
                <name>Trackpoint 1829</name>
            </trkpt>
            <trkpt lat="49.7800224" lon="9.3759872">
                <ele>135.0</ele>
                <time>2020-08-29T09:52:08.000Z</time>
                <name>Trackpoint 1830</name>
            </trkpt>
            <trkpt lat="49.780048" lon="9.3758832">
                <ele>135.0</ele>
                <time>2020-08-29T09:52:10.000Z</time>
                <name>Trackpoint 1831</name>
            </trkpt>
            <trkpt lat="49.7800832" lon="9.3757448">
                <ele>135.0</ele>
                <time>2020-08-29T09:52:12.000Z</time>
                <name>Trackpoint 1832</name>
            </trkpt>
            <trkpt lat="49.7801216" lon="9.3755904">
                <ele>135.0</ele>
                <time>2020-08-29T09:52:14.000Z</time>
                <name>Trackpoint 1833</name>
            </trkpt>
            <trkpt lat="49.7801536" lon="9.375432">
                <ele>135.0</ele>
                <time>2020-08-29T09:52:16.000Z</time>
                <name>Trackpoint 1834</name>
            </trkpt>
            <trkpt lat="49.780192" lon="9.375268">
                <ele>134.0</ele>
                <time>2020-08-29T09:52:18.000Z</time>
                <name>Trackpoint 1835</name>
            </trkpt>
            <trkpt lat="49.7802304" lon="9.375116">
                <ele>134.0</ele>
                <time>2020-08-29T09:52:20.000Z</time>
                <name>Trackpoint 1836</name>
            </trkpt>
            <trkpt lat="49.780272" lon="9.3749648">
                <ele>134.0</ele>
                <time>2020-08-29T09:52:22.000Z</time>
                <name>Trackpoint 1837</name>
            </trkpt>
            <trkpt lat="49.7803104" lon="9.3748216">
                <ele>134.0</ele>
                <time>2020-08-29T09:52:24.000Z</time>
                <name>Trackpoint 1838</name>
            </trkpt>
            <trkpt lat="49.7803456" lon="9.3746816">
                <ele>134.0</ele>
                <time>2020-08-29T09:52:26.000Z</time>
                <name>Trackpoint 1839</name>
            </trkpt>
            <trkpt lat="49.7803904" lon="9.3745336">
                <ele>134.0</ele>
                <time>2020-08-29T09:52:28.000Z</time>
                <name>Trackpoint 1840</name>
            </trkpt>
            <trkpt lat="49.7804384" lon="9.3743888">
                <ele>134.0</ele>
                <time>2020-08-29T09:52:30.000Z</time>
                <name>Trackpoint 1841</name>
            </trkpt>
            <trkpt lat="49.78048" lon="9.374244">
                <ele>134.0</ele>
                <time>2020-08-29T09:52:32.000Z</time>
                <name>Trackpoint 1842</name>
            </trkpt>
            <trkpt lat="49.780528" lon="9.3740856">
                <ele>134.0</ele>
                <time>2020-08-29T09:52:34.000Z</time>
                <name>Trackpoint 1843</name>
            </trkpt>
            <trkpt lat="49.780576" lon="9.3739272">
                <ele>133.0</ele>
                <time>2020-08-29T09:52:36.000Z</time>
                <name>Trackpoint 1844</name>
            </trkpt>
            <trkpt lat="49.7806144" lon="9.3737832">
                <ele>133.0</ele>
                <time>2020-08-29T09:52:38.000Z</time>
                <name>Trackpoint 1845</name>
            </trkpt>
            <trkpt lat="49.780656" lon="9.37364">
                <ele>134.0</ele>
                <time>2020-08-29T09:52:40.000Z</time>
                <name>Trackpoint 1846</name>
            </trkpt>
            <trkpt lat="49.7807008" lon="9.373504">
                <ele>133.0</ele>
                <time>2020-08-29T09:52:42.000Z</time>
                <name>Trackpoint 1847</name>
            </trkpt>
            <trkpt lat="49.7807392" lon="9.3733632">
                <ele>133.0</ele>
                <time>2020-08-29T09:52:44.000Z</time>
                <name>Trackpoint 1848</name>
            </trkpt>
            <trkpt lat="49.7807552" lon="9.3732144">
                <ele>133.0</ele>
                <time>2020-08-29T09:52:46.000Z</time>
                <name>Trackpoint 1849</name>
            </trkpt>
            <trkpt lat="49.7807744" lon="9.3730584">
                <ele>133.0</ele>
                <time>2020-08-29T09:52:48.000Z</time>
                <name>Trackpoint 1850</name>
            </trkpt>
            <trkpt lat="49.7807872" lon="9.3728936">
                <ele>133.0</ele>
                <time>2020-08-29T09:52:50.000Z</time>
                <name>Trackpoint 1851</name>
            </trkpt>
            <trkpt lat="49.7808032" lon="9.372728">
                <ele>133.0</ele>
                <time>2020-08-29T09:52:52.000Z</time>
                <name>Trackpoint 1852</name>
            </trkpt>
            <trkpt lat="49.7808224" lon="9.3725656">
                <ele>133.0</ele>
                <time>2020-08-29T09:52:54.000Z</time>
                <name>Trackpoint 1853</name>
            </trkpt>
            <trkpt lat="49.7808416" lon="9.3724048">
                <ele>133.0</ele>
                <time>2020-08-29T09:52:56.000Z</time>
                <name>Trackpoint 1854</name>
            </trkpt>
            <trkpt lat="49.780848" lon="9.3722384">
                <ele>133.0</ele>
                <time>2020-08-29T09:52:58.000Z</time>
                <name>Trackpoint 1855</name>
            </trkpt>
            <trkpt lat="49.7808448" lon="9.3720704">
                <ele>132.0</ele>
                <time>2020-08-29T09:53:00.000Z</time>
                <name>Trackpoint 1856</name>
            </trkpt>
            <trkpt lat="49.7808288" lon="9.3719056">
                <ele>132.0</ele>
                <time>2020-08-29T09:53:02.000Z</time>
                <name>Trackpoint 1857</name>
            </trkpt>
            <trkpt lat="49.7808064" lon="9.3717384">
                <ele>132.0</ele>
                <time>2020-08-29T09:53:04.000Z</time>
                <name>Trackpoint 1858</name>
            </trkpt>
            <trkpt lat="49.780784" lon="9.3715688">
                <ele>131.0</ele>
                <time>2020-08-29T09:53:06.000Z</time>
                <name>Trackpoint 1859</name>
            </trkpt>
            <trkpt lat="49.7807744" lon="9.3714784">
                <ele>131.0</ele>
                <time>2020-08-29T09:53:07.000Z</time>
                <name>Trackpoint 1860</name>
            </trkpt>
            <trkpt lat="49.7807456" lon="9.3713016">
                <ele>131.0</ele>
                <time>2020-08-29T09:53:09.000Z</time>
                <name>Trackpoint 1861</name>
            </trkpt>
            <trkpt lat="49.7807072" lon="9.371132">
                <ele>131.0</ele>
                <time>2020-08-29T09:53:11.000Z</time>
                <name>Trackpoint 1862</name>
            </trkpt>
            <trkpt lat="49.7806752" lon="9.3709632">
                <ele>131.0</ele>
                <time>2020-08-29T09:53:13.000Z</time>
                <name>Trackpoint 1863</name>
            </trkpt>
            <trkpt lat="49.78064" lon="9.370796">
                <ele>131.0</ele>
                <time>2020-08-29T09:53:15.000Z</time>
                <name>Trackpoint 1864</name>
            </trkpt>
            <trkpt lat="49.7805888" lon="9.3706328">
                <ele>131.0</ele>
                <time>2020-08-29T09:53:17.000Z</time>
                <name>Trackpoint 1865</name>
            </trkpt>
            <trkpt lat="49.7805408" lon="9.3704752">
                <ele>131.0</ele>
                <time>2020-08-29T09:53:19.000Z</time>
                <name>Trackpoint 1866</name>
            </trkpt>
            <trkpt lat="49.780496" lon="9.3703136">
                <ele>131.0</ele>
                <time>2020-08-29T09:53:21.000Z</time>
                <name>Trackpoint 1867</name>
            </trkpt>
            <trkpt lat="49.7804512" lon="9.3701584">
                <ele>130.0</ele>
                <time>2020-08-29T09:53:23.000Z</time>
                <name>Trackpoint 1868</name>
            </trkpt>
            <trkpt lat="49.7804096" lon="9.3700088">
                <ele>130.0</ele>
                <time>2020-08-29T09:53:25.000Z</time>
                <name>Trackpoint 1869</name>
            </trkpt>
            <trkpt lat="49.7803648" lon="9.36986">
                <ele>130.0</ele>
                <time>2020-08-29T09:53:27.000Z</time>
                <name>Trackpoint 1870</name>
            </trkpt>
            <trkpt lat="49.7803264" lon="9.3697144">
                <ele>131.0</ele>
                <time>2020-08-29T09:53:29.000Z</time>
                <name>Trackpoint 1871</name>
            </trkpt>
            <trkpt lat="49.7802816" lon="9.3695816">
                <ele>131.0</ele>
                <time>2020-08-29T09:53:31.000Z</time>
                <name>Trackpoint 1872</name>
            </trkpt>
            <trkpt lat="49.78024" lon="9.3694432">
                <ele>131.0</ele>
                <time>2020-08-29T09:53:33.000Z</time>
                <name>Trackpoint 1873</name>
            </trkpt>
            <trkpt lat="49.7802048" lon="9.3693448">
                <ele>131.0</ele>
                <time>2020-08-29T09:53:35.000Z</time>
                <name>Trackpoint 1874</name>
            </trkpt>
            <trkpt lat="49.7801632" lon="9.369228">
                <ele>131.0</ele>
                <time>2020-08-29T09:53:37.000Z</time>
                <name>Trackpoint 1875</name>
            </trkpt>
            <trkpt lat="49.780112" lon="9.3691">
                <ele>131.0</ele>
                <time>2020-08-29T09:53:39.000Z</time>
                <name>Trackpoint 1876</name>
            </trkpt>
            <trkpt lat="49.7800832" lon="9.3689808">
                <ele>131.0</ele>
                <time>2020-08-29T09:53:41.000Z</time>
                <name>Trackpoint 1877</name>
            </trkpt>
            <trkpt lat="49.7800416" lon="9.3688832">
                <ele>131.0</ele>
                <time>2020-08-29T09:53:43.000Z</time>
                <name>Trackpoint 1878</name>
            </trkpt>
            <trkpt lat="49.779984" lon="9.3687832">
                <ele>131.0</ele>
                <time>2020-08-29T09:53:45.000Z</time>
                <name>Trackpoint 1879</name>
            </trkpt>
            <trkpt lat="49.7799392" lon="9.3686936">
                <ele>132.0</ele>
                <time>2020-08-29T09:53:47.000Z</time>
                <name>Trackpoint 1880</name>
            </trkpt>
            <trkpt lat="49.7798752" lon="9.3685912">
                <ele>132.0</ele>
                <time>2020-08-29T09:53:49.000Z</time>
                <name>Trackpoint 1881</name>
            </trkpt>
            <trkpt lat="49.7798208" lon="9.3684784">
                <ele>132.0</ele>
                <time>2020-08-29T09:53:51.000Z</time>
                <name>Trackpoint 1882</name>
            </trkpt>
            <trkpt lat="49.77976" lon="9.3683592">
                <ele>132.0</ele>
                <time>2020-08-29T09:53:53.000Z</time>
                <name>Trackpoint 1883</name>
            </trkpt>
            <trkpt lat="49.7796928" lon="9.3682384">
                <ele>132.0</ele>
                <time>2020-08-29T09:53:55.000Z</time>
                <name>Trackpoint 1884</name>
            </trkpt>
            <trkpt lat="49.7796256" lon="9.36812">
                <ele>132.0</ele>
                <time>2020-08-29T09:53:57.000Z</time>
                <name>Trackpoint 1885</name>
            </trkpt>
            <trkpt lat="49.7795616" lon="9.3680096">
                <ele>132.0</ele>
                <time>2020-08-29T09:53:59.000Z</time>
                <name>Trackpoint 1886</name>
            </trkpt>
            <trkpt lat="49.7794912" lon="9.3678904">
                <ele>132.0</ele>
                <time>2020-08-29T09:54:01.000Z</time>
                <name>Trackpoint 1887</name>
            </trkpt>
            <trkpt lat="49.779408" lon="9.3677816">
                <ele>132.0</ele>
                <time>2020-08-29T09:54:03.000Z</time>
                <name>Trackpoint 1888</name>
            </trkpt>
            <trkpt lat="49.7793312" lon="9.367672">
                <ele>132.0</ele>
                <time>2020-08-29T09:54:05.000Z</time>
                <name>Trackpoint 1889</name>
            </trkpt>
            <trkpt lat="49.7792448" lon="9.3675696">
                <ele>132.0</ele>
                <time>2020-08-29T09:54:07.000Z</time>
                <name>Trackpoint 1890</name>
            </trkpt>
            <trkpt lat="49.7791584" lon="9.367468">
                <ele>132.0</ele>
                <time>2020-08-29T09:54:09.000Z</time>
                <name>Trackpoint 1891</name>
            </trkpt>
            <trkpt lat="49.7790784" lon="9.3673696">
                <ele>132.0</ele>
                <time>2020-08-29T09:54:11.000Z</time>
                <name>Trackpoint 1892</name>
            </trkpt>
            <trkpt lat="49.7790016" lon="9.3672888">
                <ele>132.0</ele>
                <time>2020-08-29T09:54:13.000Z</time>
                <name>Trackpoint 1893</name>
            </trkpt>
            <trkpt lat="49.7789376" lon="9.3672136">
                <ele>132.0</ele>
                <time>2020-08-29T09:54:15.000Z</time>
                <name>Trackpoint 1894</name>
            </trkpt>
            <trkpt lat="49.7788704" lon="9.3670928">
                <ele>132.0</ele>
                <time>2020-08-29T09:54:17.000Z</time>
                <name>Trackpoint 1895</name>
            </trkpt>
            <trkpt lat="49.7787968" lon="9.3669864">
                <ele>133.0</ele>
                <time>2020-08-29T09:54:19.000Z</time>
                <name>Trackpoint 1896</name>
            </trkpt>
            <trkpt lat="49.7787168" lon="9.3668744">
                <ele>132.0</ele>
                <time>2020-08-29T09:54:21.000Z</time>
                <name>Trackpoint 1897</name>
            </trkpt>
            <trkpt lat="49.77864" lon="9.3667568">
                <ele>132.0</ele>
                <time>2020-08-29T09:54:23.000Z</time>
                <name>Trackpoint 1898</name>
            </trkpt>
            <trkpt lat="49.7785632" lon="9.366656">
                <ele>132.0</ele>
                <time>2020-08-29T09:54:25.000Z</time>
                <name>Trackpoint 1899</name>
            </trkpt>
            <trkpt lat="49.7784928" lon="9.3665512">
                <ele>132.0</ele>
                <time>2020-08-29T09:54:27.000Z</time>
                <name>Trackpoint 1900</name>
            </trkpt>
            <trkpt lat="49.778432" lon="9.366444">
                <ele>132.0</ele>
                <time>2020-08-29T09:54:29.000Z</time>
                <name>Trackpoint 1901</name>
            </trkpt>
            <trkpt lat="49.7783584" lon="9.3663368">
                <ele>133.0</ele>
                <time>2020-08-29T09:54:31.000Z</time>
                <name>Trackpoint 1902</name>
            </trkpt>
            <trkpt lat="49.7782912" lon="9.3662216">
                <ele>132.0</ele>
                <time>2020-08-29T09:54:33.000Z</time>
                <name>Trackpoint 1903</name>
            </trkpt>
            <trkpt lat="49.7782208" lon="9.366092">
                <ele>132.0</ele>
                <time>2020-08-29T09:54:35.000Z</time>
                <name>Trackpoint 1904</name>
            </trkpt>
            <trkpt lat="49.7781472" lon="9.3659888">
                <ele>133.0</ele>
                <time>2020-08-29T09:54:37.000Z</time>
                <name>Trackpoint 1905</name>
            </trkpt>
            <trkpt lat="49.7780768" lon="9.3658864">
                <ele>133.0</ele>
                <time>2020-08-29T09:54:39.000Z</time>
                <name>Trackpoint 1906</name>
            </trkpt>
            <trkpt lat="49.778" lon="9.3657752">
                <ele>133.0</ele>
                <time>2020-08-29T09:54:41.000Z</time>
                <name>Trackpoint 1907</name>
            </trkpt>
            <trkpt lat="49.777936" lon="9.3656568">
                <ele>132.0</ele>
                <time>2020-08-29T09:54:43.000Z</time>
                <name>Trackpoint 1908</name>
            </trkpt>
            <trkpt lat="49.7778656" lon="9.3655368">
                <ele>132.0</ele>
                <time>2020-08-29T09:54:45.000Z</time>
                <name>Trackpoint 1909</name>
            </trkpt>
            <trkpt lat="49.7777952" lon="9.3654296">
                <ele>132.0</ele>
                <time>2020-08-29T09:54:47.000Z</time>
                <name>Trackpoint 1910</name>
            </trkpt>
            <trkpt lat="49.7777248" lon="9.3653224">
                <ele>132.0</ele>
                <time>2020-08-29T09:54:49.000Z</time>
                <name>Trackpoint 1911</name>
            </trkpt>
            <trkpt lat="49.777648" lon="9.3652312">
                <ele>132.0</ele>
                <time>2020-08-29T09:54:51.000Z</time>
                <name>Trackpoint 1912</name>
            </trkpt>
            <trkpt lat="49.7775648" lon="9.3650952">
                <ele>132.0</ele>
                <time>2020-08-29T09:54:53.000Z</time>
                <name>Trackpoint 1913</name>
            </trkpt>
            <trkpt lat="49.7774784" lon="9.3649752">
                <ele>132.0</ele>
                <time>2020-08-29T09:54:55.000Z</time>
                <name>Trackpoint 1914</name>
            </trkpt>
            <trkpt lat="49.7773888" lon="9.3648664">
                <ele>132.0</ele>
                <time>2020-08-29T09:54:57.000Z</time>
                <name>Trackpoint 1915</name>
            </trkpt>
            <trkpt lat="49.7773088" lon="9.3647544">
                <ele>132.0</ele>
                <time>2020-08-29T09:54:59.000Z</time>
                <name>Trackpoint 1916</name>
            </trkpt>
            <trkpt lat="49.7772256" lon="9.3646424">
                <ele>132.0</ele>
                <time>2020-08-29T09:55:01.000Z</time>
                <name>Trackpoint 1917</name>
            </trkpt>
            <trkpt lat="49.7771456" lon="9.3645336">
                <ele>132.0</ele>
                <time>2020-08-29T09:55:03.000Z</time>
                <name>Trackpoint 1918</name>
            </trkpt>
            <trkpt lat="49.7770624" lon="9.3643968">
                <ele>132.0</ele>
                <time>2020-08-29T09:55:05.000Z</time>
                <name>Trackpoint 1919</name>
            </trkpt>
            <trkpt lat="49.776976" lon="9.364272">
                <ele>132.0</ele>
                <time>2020-08-29T09:55:07.000Z</time>
                <name>Trackpoint 1920</name>
            </trkpt>
            <trkpt lat="49.7769024" lon="9.364152">
                <ele>131.0</ele>
                <time>2020-08-29T09:55:09.000Z</time>
                <name>Trackpoint 1921</name>
            </trkpt>
            <trkpt lat="49.7768128" lon="9.364032">
                <ele>132.0</ele>
                <time>2020-08-29T09:55:11.000Z</time>
                <name>Trackpoint 1922</name>
            </trkpt>
            <trkpt lat="49.7767328" lon="9.36392">
                <ele>132.0</ele>
                <time>2020-08-29T09:55:13.000Z</time>
                <name>Trackpoint 1923</name>
            </trkpt>
            <trkpt lat="49.7766496" lon="9.3638248">
                <ele>131.0</ele>
                <time>2020-08-29T09:55:15.000Z</time>
                <name>Trackpoint 1924</name>
            </trkpt>
            <trkpt lat="49.7765664" lon="9.3637336">
                <ele>131.0</ele>
                <time>2020-08-29T09:55:17.000Z</time>
                <name>Trackpoint 1925</name>
            </trkpt>
            <trkpt lat="49.7764864" lon="9.363628">
                <ele>131.0</ele>
                <time>2020-08-29T09:55:19.000Z</time>
                <name>Trackpoint 1926</name>
            </trkpt>
            <trkpt lat="49.7764064" lon="9.3635168">
                <ele>131.0</ele>
                <time>2020-08-29T09:55:21.000Z</time>
                <name>Trackpoint 1927</name>
            </trkpt>
            <trkpt lat="49.7763264" lon="9.3634144">
                <ele>131.0</ele>
                <time>2020-08-29T09:55:23.000Z</time>
                <name>Trackpoint 1928</name>
            </trkpt>
            <trkpt lat="49.776256" lon="9.3633032">
                <ele>131.0</ele>
                <time>2020-08-29T09:55:25.000Z</time>
                <name>Trackpoint 1929</name>
            </trkpt>
            <trkpt lat="49.776176" lon="9.3632048">
                <ele>131.0</ele>
                <time>2020-08-29T09:55:27.000Z</time>
                <name>Trackpoint 1930</name>
            </trkpt>
            <trkpt lat="49.7761024" lon="9.3631112">
                <ele>131.0</ele>
                <time>2020-08-29T09:55:29.000Z</time>
                <name>Trackpoint 1931</name>
            </trkpt>
            <trkpt lat="49.7760288" lon="9.3630152">
                <ele>131.0</ele>
                <time>2020-08-29T09:55:31.000Z</time>
                <name>Trackpoint 1932</name>
            </trkpt>
            <trkpt lat="49.7759424" lon="9.3629128">
                <ele>131.0</ele>
                <time>2020-08-29T09:55:33.000Z</time>
                <name>Trackpoint 1933</name>
            </trkpt>
            <trkpt lat="49.7758592" lon="9.3628016">
                <ele>131.0</ele>
                <time>2020-08-29T09:55:35.000Z</time>
                <name>Trackpoint 1934</name>
            </trkpt>
            <trkpt lat="49.7757728" lon="9.3627032">
                <ele>131.0</ele>
                <time>2020-08-29T09:55:37.000Z</time>
                <name>Trackpoint 1935</name>
            </trkpt>
            <trkpt lat="49.775664" lon="9.3626232">
                <ele>132.0</ele>
                <time>2020-08-29T09:55:39.000Z</time>
                <name>Trackpoint 1936</name>
            </trkpt>
            <trkpt lat="49.7755552" lon="9.3625448">
                <ele>132.0</ele>
                <time>2020-08-29T09:55:41.000Z</time>
                <name>Trackpoint 1937</name>
            </trkpt>
            <trkpt lat="49.775456" lon="9.362476">
                <ele>132.0</ele>
                <time>2020-08-29T09:55:43.000Z</time>
                <name>Trackpoint 1938</name>
            </trkpt>
            <trkpt lat="49.7753728" lon="9.3623984">
                <ele>132.0</ele>
                <time>2020-08-29T09:55:45.000Z</time>
                <name>Trackpoint 1939</name>
            </trkpt>
            <trkpt lat="49.77528" lon="9.3623264">
                <ele>132.0</ele>
                <time>2020-08-29T09:55:47.000Z</time>
                <name>Trackpoint 1940</name>
            </trkpt>
            <trkpt lat="49.7751936" lon="9.3622464">
                <ele>132.0</ele>
                <time>2020-08-29T09:55:49.000Z</time>
                <name>Trackpoint 1941</name>
            </trkpt>
            <trkpt lat="49.7751136" lon="9.3620856">
                <ele>132.0</ele>
                <time>2020-08-29T09:55:51.000Z</time>
                <name>Trackpoint 1942</name>
            </trkpt>
            <trkpt lat="49.7750176" lon="9.3619584">
                <ele>132.0</ele>
                <time>2020-08-29T09:55:53.000Z</time>
                <name>Trackpoint 1943</name>
            </trkpt>
            <trkpt lat="49.7749184" lon="9.3618616">
                <ele>132.0</ele>
                <time>2020-08-29T09:55:55.000Z</time>
                <name>Trackpoint 1944</name>
            </trkpt>
            <trkpt lat="49.7748192" lon="9.361756">
                <ele>133.0</ele>
                <time>2020-08-29T09:55:57.000Z</time>
                <name>Trackpoint 1945</name>
            </trkpt>
            <trkpt lat="49.7747072" lon="9.3616448">
                <ele>132.0</ele>
                <time>2020-08-29T09:55:59.000Z</time>
                <name>Trackpoint 1946</name>
            </trkpt>
            <trkpt lat="49.7746176" lon="9.361508">
                <ele>132.0</ele>
                <time>2020-08-29T09:56:01.000Z</time>
                <name>Trackpoint 1947</name>
            </trkpt>
            <trkpt lat="49.774528" lon="9.3613904">
                <ele>132.0</ele>
                <time>2020-08-29T09:56:03.000Z</time>
                <name>Trackpoint 1948</name>
            </trkpt>
            <trkpt lat="49.7744608" lon="9.3612368">
                <ele>131.0</ele>
                <time>2020-08-29T09:56:05.000Z</time>
                <name>Trackpoint 1949</name>
            </trkpt>
            <trkpt lat="49.7744288" lon="9.3611432">
                <ele>131.0</ele>
                <time>2020-08-29T09:56:06.000Z</time>
                <name>Trackpoint 1950</name>
            </trkpt>
            <trkpt lat="49.7744" lon="9.3610536">
                <ele>131.0</ele>
                <time>2020-08-29T09:56:07.000Z</time>
                <name>Trackpoint 1951</name>
            </trkpt>
            <trkpt lat="49.7743328" lon="9.3609048">
                <ele>130.0</ele>
                <time>2020-08-29T09:56:09.000Z</time>
                <name>Trackpoint 1952</name>
            </trkpt>
            <trkpt lat="49.7742624" lon="9.3607728">
                <ele>129.0</ele>
                <time>2020-08-29T09:56:11.000Z</time>
                <name>Trackpoint 1953</name>
            </trkpt>
            <trkpt lat="49.774192" lon="9.3606464">
                <ele>129.0</ele>
                <time>2020-08-29T09:56:13.000Z</time>
                <name>Trackpoint 1954</name>
            </trkpt>
            <trkpt lat="49.7741152" lon="9.3605344">
                <ele>129.0</ele>
                <time>2020-08-29T09:56:15.000Z</time>
                <name>Trackpoint 1955</name>
            </trkpt>
            <trkpt lat="49.7740512" lon="9.3604168">
                <ele>129.0</ele>
                <time>2020-08-29T09:56:17.000Z</time>
                <name>Trackpoint 1956</name>
            </trkpt>
            <trkpt lat="49.7739872" lon="9.3603136">
                <ele>129.0</ele>
                <time>2020-08-29T09:56:19.000Z</time>
                <name>Trackpoint 1957</name>
            </trkpt>
            <trkpt lat="49.7739168" lon="9.3602088">
                <ele>129.0</ele>
                <time>2020-08-29T09:56:21.000Z</time>
                <name>Trackpoint 1958</name>
            </trkpt>
            <trkpt lat="49.7738496" lon="9.3600952">
                <ele>129.0</ele>
                <time>2020-08-29T09:56:23.000Z</time>
                <name>Trackpoint 1959</name>
            </trkpt>
            <trkpt lat="49.773792" lon="9.3599528">
                <ele>129.0</ele>
                <time>2020-08-29T09:56:25.000Z</time>
                <name>Trackpoint 1960</name>
            </trkpt>
            <trkpt lat="49.7737504" lon="9.359808">
                <ele>130.0</ele>
                <time>2020-08-29T09:56:27.000Z</time>
                <name>Trackpoint 1961</name>
            </trkpt>
            <trkpt lat="49.7737248" lon="9.3596632">
                <ele>130.0</ele>
                <time>2020-08-29T09:56:29.000Z</time>
                <name>Trackpoint 1962</name>
            </trkpt>
            <trkpt lat="49.7736832" lon="9.3595216">
                <ele>130.0</ele>
                <time>2020-08-29T09:56:31.000Z</time>
                <name>Trackpoint 1963</name>
            </trkpt>
            <trkpt lat="49.7736288" lon="9.3593904">
                <ele>129.0</ele>
                <time>2020-08-29T09:56:33.000Z</time>
                <name>Trackpoint 1964</name>
            </trkpt>
            <trkpt lat="49.7735648" lon="9.3592768">
                <ele>130.0</ele>
                <time>2020-08-29T09:56:35.000Z</time>
                <name>Trackpoint 1965</name>
            </trkpt>
            <trkpt lat="49.7734976" lon="9.359172">
                <ele>129.0</ele>
                <time>2020-08-29T09:56:37.000Z</time>
                <name>Trackpoint 1966</name>
            </trkpt>
            <trkpt lat="49.7734368" lon="9.3590416">
                <ele>129.0</ele>
                <time>2020-08-29T09:56:39.000Z</time>
                <name>Trackpoint 1967</name>
            </trkpt>
            <trkpt lat="49.773376" lon="9.35892">
                <ele>130.0</ele>
                <time>2020-08-29T09:56:41.000Z</time>
                <name>Trackpoint 1968</name>
            </trkpt>
            <trkpt lat="49.7733152" lon="9.358804">
                <ele>129.0</ele>
                <time>2020-08-29T09:56:43.000Z</time>
                <name>Trackpoint 1969</name>
            </trkpt>
            <trkpt lat="49.7732544" lon="9.3586928">
                <ele>129.0</ele>
                <time>2020-08-29T09:56:45.000Z</time>
                <name>Trackpoint 1970</name>
            </trkpt>
            <trkpt lat="49.7731936" lon="9.3585784">
                <ele>129.0</ele>
                <time>2020-08-29T09:56:47.000Z</time>
                <name>Trackpoint 1971</name>
            </trkpt>
            <trkpt lat="49.7731424" lon="9.3584648">
                <ele>130.0</ele>
                <time>2020-08-29T09:56:49.000Z</time>
                <name>Trackpoint 1972</name>
            </trkpt>
            <trkpt lat="49.7731008" lon="9.3583584">
                <ele>130.0</ele>
                <time>2020-08-29T09:56:51.000Z</time>
                <name>Trackpoint 1973</name>
            </trkpt>
            <trkpt lat="49.7730592" lon="9.3582496">
                <ele>130.0</ele>
                <time>2020-08-29T09:56:53.000Z</time>
                <name>Trackpoint 1974</name>
            </trkpt>
            <trkpt lat="49.7730112" lon="9.3581336">
                <ele>130.0</ele>
                <time>2020-08-29T09:56:55.000Z</time>
                <name>Trackpoint 1975</name>
            </trkpt>
            <trkpt lat="49.7729696" lon="9.3580048">
                <ele>130.0</ele>
                <time>2020-08-29T09:56:57.000Z</time>
                <name>Trackpoint 1976</name>
            </trkpt>
            <trkpt lat="49.7729248" lon="9.3578656">
                <ele>130.0</ele>
                <time>2020-08-29T09:56:59.000Z</time>
                <name>Trackpoint 1977</name>
            </trkpt>
            <trkpt lat="49.7728928" lon="9.3577248">
                <ele>130.0</ele>
                <time>2020-08-29T09:57:01.000Z</time>
                <name>Trackpoint 1978</name>
            </trkpt>
            <trkpt lat="49.7728608" lon="9.357592">
                <ele>130.0</ele>
                <time>2020-08-29T09:57:03.000Z</time>
                <name>Trackpoint 1979</name>
            </trkpt>
            <trkpt lat="49.7728224" lon="9.3574616">
                <ele>130.0</ele>
                <time>2020-08-29T09:57:05.000Z</time>
                <name>Trackpoint 1980</name>
            </trkpt>
            <trkpt lat="49.7727808" lon="9.3573352">
                <ele>130.0</ele>
                <time>2020-08-29T09:57:07.000Z</time>
                <name>Trackpoint 1981</name>
            </trkpt>
            <trkpt lat="49.7727424" lon="9.357208">
                <ele>130.0</ele>
                <time>2020-08-29T09:57:09.000Z</time>
                <name>Trackpoint 1982</name>
            </trkpt>
            <trkpt lat="49.7727008" lon="9.3570872">
                <ele>130.0</ele>
                <time>2020-08-29T09:57:11.000Z</time>
                <name>Trackpoint 1983</name>
            </trkpt>
            <trkpt lat="49.772656" lon="9.3569568">
                <ele>130.0</ele>
                <time>2020-08-29T09:57:13.000Z</time>
                <name>Trackpoint 1984</name>
            </trkpt>
            <trkpt lat="49.7726048" lon="9.3568288">
                <ele>130.0</ele>
                <time>2020-08-29T09:57:15.000Z</time>
                <name>Trackpoint 1985</name>
            </trkpt>
            <trkpt lat="49.772576" lon="9.3566968">
                <ele>130.0</ele>
                <time>2020-08-29T09:57:17.000Z</time>
                <name>Trackpoint 1986</name>
            </trkpt>
            <trkpt lat="49.7725376" lon="9.3565704">
                <ele>131.0</ele>
                <time>2020-08-29T09:57:19.000Z</time>
                <name>Trackpoint 1987</name>
            </trkpt>
            <trkpt lat="49.7724992" lon="9.3564392">
                <ele>131.0</ele>
                <time>2020-08-29T09:57:21.000Z</time>
                <name>Trackpoint 1988</name>
            </trkpt>
            <trkpt lat="49.7724608" lon="9.356308">
                <ele>131.0</ele>
                <time>2020-08-29T09:57:23.000Z</time>
                <name>Trackpoint 1989</name>
            </trkpt>
            <trkpt lat="49.7724064" lon="9.3561872">
                <ele>131.0</ele>
                <time>2020-08-29T09:57:25.000Z</time>
                <name>Trackpoint 1990</name>
            </trkpt>
            <trkpt lat="49.7723648" lon="9.35606">
                <ele>131.0</ele>
                <time>2020-08-29T09:57:27.000Z</time>
                <name>Trackpoint 1991</name>
            </trkpt>
            <trkpt lat="49.7723264" lon="9.3559312">
                <ele>131.0</ele>
                <time>2020-08-29T09:57:29.000Z</time>
                <name>Trackpoint 1992</name>
            </trkpt>
            <trkpt lat="49.772288" lon="9.3558032">
                <ele>131.0</ele>
                <time>2020-08-29T09:57:31.000Z</time>
                <name>Trackpoint 1993</name>
            </trkpt>
            <trkpt lat="49.7722432" lon="9.3556856">
                <ele>132.0</ele>
                <time>2020-08-29T09:57:33.000Z</time>
                <name>Trackpoint 1994</name>
            </trkpt>
            <trkpt lat="49.7722048" lon="9.355568">
                <ele>132.0</ele>
                <time>2020-08-29T09:57:35.000Z</time>
                <name>Trackpoint 1995</name>
            </trkpt>
            <trkpt lat="49.7721696" lon="9.3554512">
                <ele>131.0</ele>
                <time>2020-08-29T09:57:37.000Z</time>
                <name>Trackpoint 1996</name>
            </trkpt>
            <trkpt lat="49.7721344" lon="9.3553288">
                <ele>131.0</ele>
                <time>2020-08-29T09:57:39.000Z</time>
                <name>Trackpoint 1997</name>
            </trkpt>
            <trkpt lat="49.7720992" lon="9.3552064">
                <ele>131.0</ele>
                <time>2020-08-29T09:57:41.000Z</time>
                <name>Trackpoint 1998</name>
            </trkpt>
            <trkpt lat="49.7720576" lon="9.3550832">
                <ele>131.0</ele>
                <time>2020-08-29T09:57:43.000Z</time>
                <name>Trackpoint 1999</name>
            </trkpt>
            <trkpt lat="49.7720192" lon="9.3549632">
                <ele>131.0</ele>
                <time>2020-08-29T09:57:45.000Z</time>
                <name>Trackpoint 2000</name>
            </trkpt>
            <trkpt lat="49.7719776" lon="9.3548416">
                <ele>131.0</ele>
                <time>2020-08-29T09:57:47.000Z</time>
                <name>Trackpoint 2001</name>
            </trkpt>
            <trkpt lat="49.7719488" lon="9.35472">
                <ele>131.0</ele>
                <time>2020-08-29T09:57:49.000Z</time>
                <name>Trackpoint 2002</name>
            </trkpt>
            <trkpt lat="49.7719232" lon="9.3545912">
                <ele>131.0</ele>
                <time>2020-08-29T09:57:51.000Z</time>
                <name>Trackpoint 2003</name>
            </trkpt>
            <trkpt lat="49.7718816" lon="9.354468">
                <ele>131.0</ele>
                <time>2020-08-29T09:57:53.000Z</time>
                <name>Trackpoint 2004</name>
            </trkpt>
            <trkpt lat="49.7718368" lon="9.3543504">
                <ele>131.0</ele>
                <time>2020-08-29T09:57:55.000Z</time>
                <name>Trackpoint 2005</name>
            </trkpt>
            <trkpt lat="49.7718016" lon="9.3542272">
                <ele>131.0</ele>
                <time>2020-08-29T09:57:57.000Z</time>
                <name>Trackpoint 2006</name>
            </trkpt>
            <trkpt lat="49.77176" lon="9.3541072">
                <ele>131.0</ele>
                <time>2020-08-29T09:57:59.000Z</time>
                <name>Trackpoint 2007</name>
            </trkpt>
            <trkpt lat="49.771728" lon="9.35398">
                <ele>131.0</ele>
                <time>2020-08-29T09:58:01.000Z</time>
                <name>Trackpoint 2008</name>
            </trkpt>
            <trkpt lat="49.7716864" lon="9.3538576">
                <ele>131.0</ele>
                <time>2020-08-29T09:58:03.000Z</time>
                <name>Trackpoint 2009</name>
            </trkpt>
            <trkpt lat="49.771648" lon="9.3537328">
                <ele>131.0</ele>
                <time>2020-08-29T09:58:05.000Z</time>
                <name>Trackpoint 2010</name>
            </trkpt>
            <trkpt lat="49.7716064" lon="9.3536152">
                <ele>131.0</ele>
                <time>2020-08-29T09:58:07.000Z</time>
                <name>Trackpoint 2011</name>
            </trkpt>
            <trkpt lat="49.771568" lon="9.353492">
                <ele>131.0</ele>
                <time>2020-08-29T09:58:09.000Z</time>
                <name>Trackpoint 2012</name>
            </trkpt>
            <trkpt lat="49.7715296" lon="9.3533696">
                <ele>131.0</ele>
                <time>2020-08-29T09:58:11.000Z</time>
                <name>Trackpoint 2013</name>
            </trkpt>
            <trkpt lat="49.7714912" lon="9.3532448">
                <ele>131.0</ele>
                <time>2020-08-29T09:58:13.000Z</time>
                <name>Trackpoint 2014</name>
            </trkpt>
            <trkpt lat="49.7714528" lon="9.35312">
                <ele>131.0</ele>
                <time>2020-08-29T09:58:15.000Z</time>
                <name>Trackpoint 2015</name>
            </trkpt>
            <trkpt lat="49.7714144" lon="9.3529952">
                <ele>131.0</ele>
                <time>2020-08-29T09:58:17.000Z</time>
                <name>Trackpoint 2016</name>
            </trkpt>
            <trkpt lat="49.7713728" lon="9.352872">
                <ele>131.0</ele>
                <time>2020-08-29T09:58:19.000Z</time>
                <name>Trackpoint 2017</name>
            </trkpt>
            <trkpt lat="49.7713312" lon="9.3527432">
                <ele>131.0</ele>
                <time>2020-08-29T09:58:21.000Z</time>
                <name>Trackpoint 2018</name>
            </trkpt>
            <trkpt lat="49.771296" lon="9.3526136">
                <ele>131.0</ele>
                <time>2020-08-29T09:58:23.000Z</time>
                <name>Trackpoint 2019</name>
            </trkpt>
            <trkpt lat="49.7712512" lon="9.3524864">
                <ele>131.0</ele>
                <time>2020-08-29T09:58:25.000Z</time>
                <name>Trackpoint 2020</name>
            </trkpt>
            <trkpt lat="49.771216" lon="9.3523568">
                <ele>131.0</ele>
                <time>2020-08-29T09:58:27.000Z</time>
                <name>Trackpoint 2021</name>
            </trkpt>
            <trkpt lat="49.7711776" lon="9.352232">
                <ele>131.0</ele>
                <time>2020-08-29T09:58:29.000Z</time>
                <name>Trackpoint 2022</name>
            </trkpt>
            <trkpt lat="49.771136" lon="9.3521096">
                <ele>131.0</ele>
                <time>2020-08-29T09:58:31.000Z</time>
                <name>Trackpoint 2023</name>
            </trkpt>
            <trkpt lat="49.7710912" lon="9.3519832">
                <ele>131.0</ele>
                <time>2020-08-29T09:58:33.000Z</time>
                <name>Trackpoint 2024</name>
            </trkpt>
            <trkpt lat="49.7710464" lon="9.351856">
                <ele>132.0</ele>
                <time>2020-08-29T09:58:35.000Z</time>
                <name>Trackpoint 2025</name>
            </trkpt>
            <trkpt lat="49.7709984" lon="9.3517216">
                <ele>132.0</ele>
                <time>2020-08-29T09:58:37.000Z</time>
                <name>Trackpoint 2026</name>
            </trkpt>
            <trkpt lat="49.7709632" lon="9.3515904">
                <ele>132.0</ele>
                <time>2020-08-29T09:58:39.000Z</time>
                <name>Trackpoint 2027</name>
            </trkpt>
            <trkpt lat="49.7709152" lon="9.3514584">
                <ele>132.0</ele>
                <time>2020-08-29T09:58:41.000Z</time>
                <name>Trackpoint 2028</name>
            </trkpt>
            <trkpt lat="49.7708704" lon="9.3513248">
                <ele>132.0</ele>
                <time>2020-08-29T09:58:43.000Z</time>
                <name>Trackpoint 2029</name>
            </trkpt>
            <trkpt lat="49.7708288" lon="9.3511896">
                <ele>132.0</ele>
                <time>2020-08-29T09:58:45.000Z</time>
                <name>Trackpoint 2030</name>
            </trkpt>
            <trkpt lat="49.770784" lon="9.3510552">
                <ele>132.0</ele>
                <time>2020-08-29T09:58:47.000Z</time>
                <name>Trackpoint 2031</name>
            </trkpt>
            <trkpt lat="49.7707392" lon="9.3509128">
                <ele>132.0</ele>
                <time>2020-08-29T09:58:49.000Z</time>
                <name>Trackpoint 2032</name>
            </trkpt>
            <trkpt lat="49.7707008" lon="9.350768">
                <ele>132.0</ele>
                <time>2020-08-29T09:58:51.000Z</time>
                <name>Trackpoint 2033</name>
            </trkpt>
            <trkpt lat="49.7706592" lon="9.3506184">
                <ele>131.0</ele>
                <time>2020-08-29T09:58:53.000Z</time>
                <name>Trackpoint 2034</name>
            </trkpt>
            <trkpt lat="49.7706304" lon="9.3504696">
                <ele>132.0</ele>
                <time>2020-08-29T09:58:55.000Z</time>
                <name>Trackpoint 2035</name>
            </trkpt>
            <trkpt lat="49.7705952" lon="9.350324">
                <ele>132.0</ele>
                <time>2020-08-29T09:58:57.000Z</time>
                <name>Trackpoint 2036</name>
            </trkpt>
            <trkpt lat="49.77056" lon="9.3501784">
                <ele>132.0</ele>
                <time>2020-08-29T09:58:59.000Z</time>
                <name>Trackpoint 2037</name>
            </trkpt>
            <trkpt lat="49.7705216" lon="9.350032">
                <ele>131.0</ele>
                <time>2020-08-29T09:59:01.000Z</time>
                <name>Trackpoint 2038</name>
            </trkpt>
            <trkpt lat="49.7704928" lon="9.3498832">
                <ele>131.0</ele>
                <time>2020-08-29T09:59:03.000Z</time>
                <name>Trackpoint 2039</name>
            </trkpt>
            <trkpt lat="49.7704608" lon="9.3497384">
                <ele>131.0</ele>
                <time>2020-08-29T09:59:05.000Z</time>
                <name>Trackpoint 2040</name>
            </trkpt>
            <trkpt lat="49.770432" lon="9.3495952">
                <ele>131.0</ele>
                <time>2020-08-29T09:59:07.000Z</time>
                <name>Trackpoint 2041</name>
            </trkpt>
            <trkpt lat="49.7704" lon="9.3494464">
                <ele>131.0</ele>
                <time>2020-08-29T09:59:09.000Z</time>
                <name>Trackpoint 2042</name>
            </trkpt>
            <trkpt lat="49.770368" lon="9.3492984">
                <ele>131.0</ele>
                <time>2020-08-29T09:59:11.000Z</time>
                <name>Trackpoint 2043</name>
            </trkpt>
            <trkpt lat="49.7703392" lon="9.3491448">
                <ele>131.0</ele>
                <time>2020-08-29T09:59:13.000Z</time>
                <name>Trackpoint 2044</name>
            </trkpt>
            <trkpt lat="49.7703104" lon="9.3489936">
                <ele>131.0</ele>
                <time>2020-08-29T09:59:15.000Z</time>
                <name>Trackpoint 2045</name>
            </trkpt>
            <trkpt lat="49.7702816" lon="9.3488368">
                <ele>131.0</ele>
                <time>2020-08-29T09:59:17.000Z</time>
                <name>Trackpoint 2046</name>
            </trkpt>
            <trkpt lat="49.770256" lon="9.3486816">
                <ele>131.0</ele>
                <time>2020-08-29T09:59:19.000Z</time>
                <name>Trackpoint 2047</name>
            </trkpt>
            <trkpt lat="49.7702336" lon="9.3485248">
                <ele>131.0</ele>
                <time>2020-08-29T09:59:21.000Z</time>
                <name>Trackpoint 2048</name>
            </trkpt>
            <trkpt lat="49.770208" lon="9.3483632">
                <ele>132.0</ele>
                <time>2020-08-29T09:59:23.000Z</time>
                <name>Trackpoint 2049</name>
            </trkpt>
            <trkpt lat="49.770192" lon="9.3482088">
                <ele>132.0</ele>
                <time>2020-08-29T09:59:25.000Z</time>
                <name>Trackpoint 2050</name>
            </trkpt>
            <trkpt lat="49.770176" lon="9.3480656">
                <ele>132.0</ele>
                <time>2020-08-29T09:59:27.000Z</time>
                <name>Trackpoint 2051</name>
            </trkpt>
            <trkpt lat="49.7701696" lon="9.3479208">
                <ele>132.0</ele>
                <time>2020-08-29T09:59:29.000Z</time>
                <name>Trackpoint 2052</name>
            </trkpt>
            <trkpt lat="49.7701568" lon="9.347792">
                <ele>132.0</ele>
                <time>2020-08-29T09:59:31.000Z</time>
                <name>Trackpoint 2053</name>
            </trkpt>
            <trkpt lat="49.770144" lon="9.3476736">
                <ele>132.0</ele>
                <time>2020-08-29T09:59:33.000Z</time>
                <name>Trackpoint 2054</name>
            </trkpt>
            <trkpt lat="49.7701408" lon="9.3475616">
                <ele>133.0</ele>
                <time>2020-08-29T09:59:35.000Z</time>
                <name>Trackpoint 2055</name>
            </trkpt>
            <trkpt lat="49.7701344" lon="9.3474376">
                <ele>133.0</ele>
                <time>2020-08-29T09:59:37.000Z</time>
                <name>Trackpoint 2056</name>
            </trkpt>
            <trkpt lat="49.7701312" lon="9.3473016">
                <ele>133.0</ele>
                <time>2020-08-29T09:59:39.000Z</time>
                <name>Trackpoint 2057</name>
            </trkpt>
            <trkpt lat="49.770112" lon="9.3471536">
                <ele>133.0</ele>
                <time>2020-08-29T09:59:41.000Z</time>
                <name>Trackpoint 2058</name>
            </trkpt>
            <trkpt lat="49.770096" lon="9.347016">
                <ele>133.0</ele>
                <time>2020-08-29T09:59:43.000Z</time>
                <name>Trackpoint 2059</name>
            </trkpt>
            <trkpt lat="49.7700832" lon="9.3468984">
                <ele>133.0</ele>
                <time>2020-08-29T09:59:45.000Z</time>
                <name>Trackpoint 2060</name>
            </trkpt>
            <trkpt lat="49.7700736" lon="9.3467888">
                <ele>133.0</ele>
                <time>2020-08-29T09:59:47.000Z</time>
                <name>Trackpoint 2061</name>
            </trkpt>
            <trkpt lat="49.7700608" lon="9.3466984">
                <ele>133.0</ele>
                <time>2020-08-29T09:59:49.000Z</time>
                <name>Trackpoint 2062</name>
            </trkpt>
            <trkpt lat="49.7700512" lon="9.3466064">
                <ele>133.0</ele>
                <time>2020-08-29T09:59:54.000Z</time>
                <name>Trackpoint 2063</name>
            </trkpt>
            <trkpt lat="49.7699616" lon="9.3466632">
                <ele>133.0</ele>
                <time>2020-08-29T10:00:25.000Z</time>
                <name>Trackpoint 2064</name>
            </trkpt>
            <trkpt lat="49.770016" lon="9.3465664">
                <ele>133.0</ele>
                <time>2020-08-29T10:00:35.000Z</time>
                <name>Trackpoint 2065</name>
            </trkpt>
            <trkpt lat="49.7700224" lon="9.3464536">
                <ele>133.0</ele>
                <time>2020-08-29T10:00:38.000Z</time>
                <name>Trackpoint 2066</name>
            </trkpt>
            <trkpt lat="49.7700224" lon="9.3463472">
                <ele>134.0</ele>
                <time>2020-08-29T10:00:40.000Z</time>
                <name>Trackpoint 2067</name>
            </trkpt>
            <trkpt lat="49.7700128" lon="9.3462288">
                <ele>134.0</ele>
                <time>2020-08-29T10:00:42.000Z</time>
                <name>Trackpoint 2068</name>
            </trkpt>
            <trkpt lat="49.7700128" lon="9.3461">
                <ele>134.0</ele>
                <time>2020-08-29T10:00:44.000Z</time>
                <name>Trackpoint 2069</name>
            </trkpt>
            <trkpt lat="49.7700128" lon="9.34598">
                <ele>135.0</ele>
                <time>2020-08-29T10:00:46.000Z</time>
                <name>Trackpoint 2070</name>
            </trkpt>
            <trkpt lat="49.7700032" lon="9.345848">
                <ele>135.0</ele>
                <time>2020-08-29T10:00:48.000Z</time>
                <name>Trackpoint 2071</name>
            </trkpt>
            <trkpt lat="49.7699968" lon="9.345712">
                <ele>135.0</ele>
                <time>2020-08-29T10:00:50.000Z</time>
                <name>Trackpoint 2072</name>
            </trkpt>
            <trkpt lat="49.7699808" lon="9.3455552">
                <ele>135.0</ele>
                <time>2020-08-29T10:00:52.000Z</time>
                <name>Trackpoint 2073</name>
            </trkpt>
            <trkpt lat="49.7699616" lon="9.3454">
                <ele>135.0</ele>
                <time>2020-08-29T10:00:54.000Z</time>
                <name>Trackpoint 2074</name>
            </trkpt>
            <trkpt lat="49.7699456" lon="9.3452384">
                <ele>135.0</ele>
                <time>2020-08-29T10:00:56.000Z</time>
                <name>Trackpoint 2075</name>
            </trkpt>
            <trkpt lat="49.769936" lon="9.345072">
                <ele>135.0</ele>
                <time>2020-08-29T10:00:58.000Z</time>
                <name>Trackpoint 2076</name>
            </trkpt>
            <trkpt lat="49.769904" lon="9.3449088">
                <ele>134.0</ele>
                <time>2020-08-29T10:01:00.000Z</time>
                <name>Trackpoint 2077</name>
            </trkpt>
            <trkpt lat="49.7698912" lon="9.3447552">
                <ele>134.0</ele>
                <time>2020-08-29T10:01:02.000Z</time>
                <name>Trackpoint 2078</name>
            </trkpt>
            <trkpt lat="49.7698752" lon="9.3446032">
                <ele>134.0</ele>
                <time>2020-08-29T10:01:04.000Z</time>
                <name>Trackpoint 2079</name>
            </trkpt>
            <trkpt lat="49.7698528" lon="9.3444544">
                <ele>134.0</ele>
                <time>2020-08-29T10:01:06.000Z</time>
                <name>Trackpoint 2080</name>
            </trkpt>
            <trkpt lat="49.76984" lon="9.3443048">
                <ele>134.0</ele>
                <time>2020-08-29T10:01:08.000Z</time>
                <name>Trackpoint 2081</name>
            </trkpt>
            <trkpt lat="49.7698368" lon="9.3441552">
                <ele>134.0</ele>
                <time>2020-08-29T10:01:10.000Z</time>
                <name>Trackpoint 2082</name>
            </trkpt>
            <trkpt lat="49.7698272" lon="9.344">
                <ele>134.0</ele>
                <time>2020-08-29T10:01:12.000Z</time>
                <name>Trackpoint 2083</name>
            </trkpt>
            <trkpt lat="49.7698176" lon="9.3438504">
                <ele>134.0</ele>
                <time>2020-08-29T10:01:14.000Z</time>
                <name>Trackpoint 2084</name>
            </trkpt>
            <trkpt lat="49.7698048" lon="9.3436968">
                <ele>134.0</ele>
                <time>2020-08-29T10:01:16.000Z</time>
                <name>Trackpoint 2085</name>
            </trkpt>
            <trkpt lat="49.769792" lon="9.3435424">
                <ele>134.0</ele>
                <time>2020-08-29T10:01:18.000Z</time>
                <name>Trackpoint 2086</name>
            </trkpt>
            <trkpt lat="49.7697728" lon="9.3433936">
                <ele>135.0</ele>
                <time>2020-08-29T10:01:20.000Z</time>
                <name>Trackpoint 2087</name>
            </trkpt>
            <trkpt lat="49.76976" lon="9.3432552">
                <ele>135.0</ele>
                <time>2020-08-29T10:01:22.000Z</time>
                <name>Trackpoint 2088</name>
            </trkpt>
            <trkpt lat="49.7697344" lon="9.3431168">
                <ele>135.0</ele>
                <time>2020-08-29T10:01:24.000Z</time>
                <name>Trackpoint 2089</name>
            </trkpt>
            <trkpt lat="49.7697248" lon="9.3429584">
                <ele>135.0</ele>
                <time>2020-08-29T10:01:26.000Z</time>
                <name>Trackpoint 2090</name>
            </trkpt>
            <trkpt lat="49.7697216" lon="9.3427912">
                <ele>135.0</ele>
                <time>2020-08-29T10:01:28.000Z</time>
                <name>Trackpoint 2091</name>
            </trkpt>
            <trkpt lat="49.769712" lon="9.3426288">
                <ele>135.0</ele>
                <time>2020-08-29T10:01:30.000Z</time>
                <name>Trackpoint 2092</name>
            </trkpt>
            <trkpt lat="49.7697024" lon="9.3424784">
                <ele>135.0</ele>
                <time>2020-08-29T10:01:32.000Z</time>
                <name>Trackpoint 2093</name>
            </trkpt>
            <trkpt lat="49.769696" lon="9.3423272">
                <ele>135.0</ele>
                <time>2020-08-29T10:01:34.000Z</time>
                <name>Trackpoint 2094</name>
            </trkpt>
            <trkpt lat="49.7696928" lon="9.3421944">
                <ele>135.0</ele>
                <time>2020-08-29T10:01:36.000Z</time>
                <name>Trackpoint 2095</name>
            </trkpt>
            <trkpt lat="49.76968" lon="9.3420552">
                <ele>135.0</ele>
                <time>2020-08-29T10:01:38.000Z</time>
                <name>Trackpoint 2096</name>
            </trkpt>
            <trkpt lat="49.7696544" lon="9.34192">
                <ele>135.0</ele>
                <time>2020-08-29T10:01:40.000Z</time>
                <name>Trackpoint 2097</name>
            </trkpt>
            <trkpt lat="49.7696416" lon="9.34178">
                <ele>134.0</ele>
                <time>2020-08-29T10:01:42.000Z</time>
                <name>Trackpoint 2098</name>
            </trkpt>
            <trkpt lat="49.7696352" lon="9.3416456">
                <ele>134.0</ele>
                <time>2020-08-29T10:01:44.000Z</time>
                <name>Trackpoint 2099</name>
            </trkpt>
            <trkpt lat="49.7696224" lon="9.341512">
                <ele>134.0</ele>
                <time>2020-08-29T10:01:46.000Z</time>
                <name>Trackpoint 2100</name>
            </trkpt>
            <trkpt lat="49.7695968" lon="9.3413696">
                <ele>134.0</ele>
                <time>2020-08-29T10:01:48.000Z</time>
                <name>Trackpoint 2101</name>
            </trkpt>
            <trkpt lat="49.7695872" lon="9.3412064">
                <ele>134.0</ele>
                <time>2020-08-29T10:01:50.000Z</time>
                <name>Trackpoint 2102</name>
            </trkpt>
            <trkpt lat="49.7695648" lon="9.3410568">
                <ele>134.0</ele>
                <time>2020-08-29T10:01:52.000Z</time>
                <name>Trackpoint 2103</name>
            </trkpt>
            <trkpt lat="49.7695616" lon="9.3409048">
                <ele>134.0</ele>
                <time>2020-08-29T10:01:54.000Z</time>
                <name>Trackpoint 2104</name>
            </trkpt>
            <trkpt lat="49.7695456" lon="9.3407568">
                <ele>134.0</ele>
                <time>2020-08-29T10:01:56.000Z</time>
                <name>Trackpoint 2105</name>
            </trkpt>
            <trkpt lat="49.7695424" lon="9.340616">
                <ele>134.0</ele>
                <time>2020-08-29T10:01:58.000Z</time>
                <name>Trackpoint 2106</name>
            </trkpt>
            <trkpt lat="49.7695424" lon="9.3404704">
                <ele>134.0</ele>
                <time>2020-08-29T10:02:00.000Z</time>
                <name>Trackpoint 2107</name>
            </trkpt>
            <trkpt lat="49.7695424" lon="9.340312">
                <ele>134.0</ele>
                <time>2020-08-29T10:02:02.000Z</time>
                <name>Trackpoint 2108</name>
            </trkpt>
            <trkpt lat="49.7695456" lon="9.3401632">
                <ele>134.0</ele>
                <time>2020-08-29T10:02:04.000Z</time>
                <name>Trackpoint 2109</name>
            </trkpt>
            <trkpt lat="49.7695488" lon="9.3400232">
                <ele>134.0</ele>
                <time>2020-08-29T10:02:06.000Z</time>
                <name>Trackpoint 2110</name>
            </trkpt>
            <trkpt lat="49.7695488" lon="9.339884">
                <ele>134.0</ele>
                <time>2020-08-29T10:02:08.000Z</time>
                <name>Trackpoint 2111</name>
            </trkpt>
            <trkpt lat="49.7695424" lon="9.339744">
                <ele>134.0</ele>
                <time>2020-08-29T10:02:10.000Z</time>
                <name>Trackpoint 2112</name>
            </trkpt>
            <trkpt lat="49.7695488" lon="9.3396128">
                <ele>133.0</ele>
                <time>2020-08-29T10:02:12.000Z</time>
                <name>Trackpoint 2113</name>
            </trkpt>
            <trkpt lat="49.7695616" lon="9.3394848">
                <ele>133.0</ele>
                <time>2020-08-29T10:02:14.000Z</time>
                <name>Trackpoint 2114</name>
            </trkpt>
            <trkpt lat="49.769568" lon="9.3393448">
                <ele>133.0</ele>
                <time>2020-08-29T10:02:16.000Z</time>
                <name>Trackpoint 2115</name>
            </trkpt>
            <trkpt lat="49.7695808" lon="9.3392048">
                <ele>133.0</ele>
                <time>2020-08-29T10:02:18.000Z</time>
                <name>Trackpoint 2116</name>
            </trkpt>
            <trkpt lat="49.7696032" lon="9.3390648">
                <ele>133.0</ele>
                <time>2020-08-29T10:02:20.000Z</time>
                <name>Trackpoint 2117</name>
            </trkpt>
            <trkpt lat="49.7696224" lon="9.3389168">
                <ele>133.0</ele>
                <time>2020-08-29T10:02:22.000Z</time>
                <name>Trackpoint 2118</name>
            </trkpt>
            <trkpt lat="49.7696448" lon="9.3387632">
                <ele>133.0</ele>
                <time>2020-08-29T10:02:24.000Z</time>
                <name>Trackpoint 2119</name>
            </trkpt>
            <trkpt lat="49.7696608" lon="9.3386152">
                <ele>133.0</ele>
                <time>2020-08-29T10:02:26.000Z</time>
                <name>Trackpoint 2120</name>
            </trkpt>
            <trkpt lat="49.76968" lon="9.3384704">
                <ele>133.0</ele>
                <time>2020-08-29T10:02:28.000Z</time>
                <name>Trackpoint 2121</name>
            </trkpt>
            <trkpt lat="49.7697056" lon="9.3383176">
                <ele>133.0</ele>
                <time>2020-08-29T10:02:30.000Z</time>
                <name>Trackpoint 2122</name>
            </trkpt>
            <trkpt lat="49.7697312" lon="9.3381664">
                <ele>133.0</ele>
                <time>2020-08-29T10:02:32.000Z</time>
                <name>Trackpoint 2123</name>
            </trkpt>
            <trkpt lat="49.76976" lon="9.3380184">
                <ele>133.0</ele>
                <time>2020-08-29T10:02:34.000Z</time>
                <name>Trackpoint 2124</name>
            </trkpt>
            <trkpt lat="49.769792" lon="9.33788">
                <ele>132.0</ele>
                <time>2020-08-29T10:02:36.000Z</time>
                <name>Trackpoint 2125</name>
            </trkpt>
            <trkpt lat="49.7698272" lon="9.3377536">
                <ele>132.0</ele>
                <time>2020-08-29T10:02:38.000Z</time>
                <name>Trackpoint 2126</name>
            </trkpt>
            <trkpt lat="49.7698592" lon="9.3376368">
                <ele>132.0</ele>
                <time>2020-08-29T10:02:40.000Z</time>
                <name>Trackpoint 2127</name>
            </trkpt>
            <trkpt lat="49.7698752" lon="9.3375256">
                <ele>132.0</ele>
                <time>2020-08-29T10:02:42.000Z</time>
                <name>Trackpoint 2128</name>
            </trkpt>
            <trkpt lat="49.7699104" lon="9.337408">
                <ele>132.0</ele>
                <time>2020-08-29T10:02:45.000Z</time>
                <name>Trackpoint 2129</name>
            </trkpt>
            <trkpt lat="49.7699424" lon="9.3372896">
                <ele>132.0</ele>
                <time>2020-08-29T10:02:48.000Z</time>
                <name>Trackpoint 2130</name>
            </trkpt>
            <trkpt lat="49.7699776" lon="9.3371552">
                <ele>132.0</ele>
                <time>2020-08-29T10:02:51.000Z</time>
                <name>Trackpoint 2131</name>
            </trkpt>
            <trkpt lat="49.7700032" lon="9.3370504">
                <ele>132.0</ele>
                <time>2020-08-29T10:02:53.000Z</time>
                <name>Trackpoint 2132</name>
            </trkpt>
            <trkpt lat="49.7700352" lon="9.336944">
                <ele>132.0</ele>
                <time>2020-08-29T10:02:55.000Z</time>
                <name>Trackpoint 2133</name>
            </trkpt>
            <trkpt lat="49.770064" lon="9.3368352">
                <ele>131.0</ele>
                <time>2020-08-29T10:02:57.000Z</time>
                <name>Trackpoint 2134</name>
            </trkpt>
            <trkpt lat="49.7700896" lon="9.336732">
                <ele>132.0</ele>
                <time>2020-08-29T10:02:59.000Z</time>
                <name>Trackpoint 2135</name>
            </trkpt>
            <trkpt lat="49.7701216" lon="9.3366368">
                <ele>132.0</ele>
                <time>2020-08-29T10:03:01.000Z</time>
                <name>Trackpoint 2136</name>
            </trkpt>
            <trkpt lat="49.7701568" lon="9.33652">
                <ele>131.0</ele>
                <time>2020-08-29T10:03:04.000Z</time>
                <name>Trackpoint 2137</name>
            </trkpt>
            <trkpt lat="49.7701728" lon="9.3364216">
                <ele>132.0</ele>
                <time>2020-08-29T10:03:08.000Z</time>
                <name>Trackpoint 2138</name>
            </trkpt>
            <trkpt lat="49.7702016" lon="9.3363352">
                <ele>131.0</ele>
                <time>2020-08-29T10:04:25.000Z</time>
                <name>Trackpoint 2139</name>
            </trkpt>
            <trkpt lat="49.7702368" lon="9.336228">
                <ele>131.0</ele>
                <time>2020-08-29T10:04:28.000Z</time>
                <name>Trackpoint 2140</name>
            </trkpt>
            <trkpt lat="49.7702592" lon="9.3361128">
                <ele>131.0</ele>
                <time>2020-08-29T10:04:31.000Z</time>
                <name>Trackpoint 2141</name>
            </trkpt>
            <trkpt lat="49.7702944" lon="9.3360232">
                <ele>131.0</ele>
                <time>2020-08-29T10:04:33.000Z</time>
                <name>Trackpoint 2142</name>
            </trkpt>
            <trkpt lat="49.77032" lon="9.3359168">
                <ele>131.0</ele>
                <time>2020-08-29T10:04:35.000Z</time>
                <name>Trackpoint 2143</name>
            </trkpt>
            <trkpt lat="49.7703488" lon="9.3358">
                <ele>132.0</ele>
                <time>2020-08-29T10:04:37.000Z</time>
                <name>Trackpoint 2144</name>
            </trkpt>
            <trkpt lat="49.7703776" lon="9.3356848">
                <ele>131.0</ele>
                <time>2020-08-29T10:04:39.000Z</time>
                <name>Trackpoint 2145</name>
            </trkpt>
            <trkpt lat="49.7704096" lon="9.3355664">
                <ele>131.0</ele>
                <time>2020-08-29T10:04:41.000Z</time>
                <name>Trackpoint 2146</name>
            </trkpt>
            <trkpt lat="49.7704384" lon="9.3354456">
                <ele>131.0</ele>
                <time>2020-08-29T10:04:43.000Z</time>
                <name>Trackpoint 2147</name>
            </trkpt>
            <trkpt lat="49.7704672" lon="9.3353168">
                <ele>132.0</ele>
                <time>2020-08-29T10:04:45.000Z</time>
                <name>Trackpoint 2148</name>
            </trkpt>
            <trkpt lat="49.7704896" lon="9.3351848">
                <ele>132.0</ele>
                <time>2020-08-29T10:04:47.000Z</time>
                <name>Trackpoint 2149</name>
            </trkpt>
            <trkpt lat="49.7705152" lon="9.3350464">
                <ele>132.0</ele>
                <time>2020-08-29T10:04:49.000Z</time>
                <name>Trackpoint 2150</name>
            </trkpt>
            <trkpt lat="49.7705376" lon="9.3349064">
                <ele>132.0</ele>
                <time>2020-08-29T10:04:51.000Z</time>
                <name>Trackpoint 2151</name>
            </trkpt>
            <trkpt lat="49.77056" lon="9.334768">
                <ele>132.0</ele>
                <time>2020-08-29T10:04:53.000Z</time>
                <name>Trackpoint 2152</name>
            </trkpt>
            <trkpt lat="49.770576" lon="9.3346208">
                <ele>132.0</ele>
                <time>2020-08-29T10:04:55.000Z</time>
                <name>Trackpoint 2153</name>
            </trkpt>
            <trkpt lat="49.7705888" lon="9.3344616">
                <ele>132.0</ele>
                <time>2020-08-29T10:04:57.000Z</time>
                <name>Trackpoint 2154</name>
            </trkpt>
            <trkpt lat="49.7705984" lon="9.3343064">
                <ele>132.0</ele>
                <time>2020-08-29T10:04:59.000Z</time>
                <name>Trackpoint 2155</name>
            </trkpt>
            <trkpt lat="49.7706144" lon="9.334144">
                <ele>132.0</ele>
                <time>2020-08-29T10:05:01.000Z</time>
                <name>Trackpoint 2156</name>
            </trkpt>
            <trkpt lat="49.7706208" lon="9.3339856">
                <ele>132.0</ele>
                <time>2020-08-29T10:05:03.000Z</time>
                <name>Trackpoint 2157</name>
            </trkpt>
            <trkpt lat="49.7706368" lon="9.3338248">
                <ele>132.0</ele>
                <time>2020-08-29T10:05:05.000Z</time>
                <name>Trackpoint 2158</name>
            </trkpt>
            <trkpt lat="49.7706496" lon="9.3336688">
                <ele>132.0</ele>
                <time>2020-08-29T10:05:07.000Z</time>
                <name>Trackpoint 2159</name>
            </trkpt>
            <trkpt lat="49.7706656" lon="9.3335112">
                <ele>132.0</ele>
                <time>2020-08-29T10:05:09.000Z</time>
                <name>Trackpoint 2160</name>
            </trkpt>
            <trkpt lat="49.7706848" lon="9.3333584">
                <ele>132.0</ele>
                <time>2020-08-29T10:05:11.000Z</time>
                <name>Trackpoint 2161</name>
            </trkpt>
            <trkpt lat="49.7706944" lon="9.3332032">
                <ele>132.0</ele>
                <time>2020-08-29T10:05:13.000Z</time>
                <name>Trackpoint 2162</name>
            </trkpt>
            <trkpt lat="49.7707072" lon="9.3330448">
                <ele>132.0</ele>
                <time>2020-08-29T10:05:15.000Z</time>
                <name>Trackpoint 2163</name>
            </trkpt>
            <trkpt lat="49.7707168" lon="9.3328896">
                <ele>132.0</ele>
                <time>2020-08-29T10:05:17.000Z</time>
                <name>Trackpoint 2164</name>
            </trkpt>
            <trkpt lat="49.7707264" lon="9.3327304">
                <ele>132.0</ele>
                <time>2020-08-29T10:05:19.000Z</time>
                <name>Trackpoint 2165</name>
            </trkpt>
            <trkpt lat="49.7707328" lon="9.3325784">
                <ele>132.0</ele>
                <time>2020-08-29T10:05:21.000Z</time>
                <name>Trackpoint 2166</name>
            </trkpt>
            <trkpt lat="49.7707488" lon="9.3324248">
                <ele>132.0</ele>
                <time>2020-08-29T10:05:23.000Z</time>
                <name>Trackpoint 2167</name>
            </trkpt>
            <trkpt lat="49.7707552" lon="9.3322688">
                <ele>132.0</ele>
                <time>2020-08-29T10:05:25.000Z</time>
                <name>Trackpoint 2168</name>
            </trkpt>
            <trkpt lat="49.7707648" lon="9.3321104">
                <ele>132.0</ele>
                <time>2020-08-29T10:05:27.000Z</time>
                <name>Trackpoint 2169</name>
            </trkpt>
            <trkpt lat="49.770768" lon="9.3319464">
                <ele>133.0</ele>
                <time>2020-08-29T10:05:29.000Z</time>
                <name>Trackpoint 2170</name>
            </trkpt>
            <trkpt lat="49.7707744" lon="9.3317872">
                <ele>133.0</ele>
                <time>2020-08-29T10:05:31.000Z</time>
                <name>Trackpoint 2171</name>
            </trkpt>
            <trkpt lat="49.7707776" lon="9.3316272">
                <ele>133.0</ele>
                <time>2020-08-29T10:05:33.000Z</time>
                <name>Trackpoint 2172</name>
            </trkpt>
            <trkpt lat="49.7707872" lon="9.3314648">
                <ele>133.0</ele>
                <time>2020-08-29T10:05:35.000Z</time>
                <name>Trackpoint 2173</name>
            </trkpt>
            <trkpt lat="49.7707968" lon="9.3312928">
                <ele>133.0</ele>
                <time>2020-08-29T10:05:37.000Z</time>
                <name>Trackpoint 2174</name>
            </trkpt>
            <trkpt lat="49.7708128" lon="9.3311232">
                <ele>133.0</ele>
                <time>2020-08-29T10:05:39.000Z</time>
                <name>Trackpoint 2175</name>
            </trkpt>
            <trkpt lat="49.7708192" lon="9.3309536">
                <ele>133.0</ele>
                <time>2020-08-29T10:05:41.000Z</time>
                <name>Trackpoint 2176</name>
            </trkpt>
            <trkpt lat="49.7708352" lon="9.33078">
                <ele>133.0</ele>
                <time>2020-08-29T10:05:43.000Z</time>
                <name>Trackpoint 2177</name>
            </trkpt>
            <trkpt lat="49.770848" lon="9.3306112">
                <ele>133.0</ele>
                <time>2020-08-29T10:05:45.000Z</time>
                <name>Trackpoint 2178</name>
            </trkpt>
            <trkpt lat="49.7708544" lon="9.3304504">
                <ele>133.0</ele>
                <time>2020-08-29T10:05:47.000Z</time>
                <name>Trackpoint 2179</name>
            </trkpt>
            <trkpt lat="49.7708672" lon="9.3302936">
                <ele>133.0</ele>
                <time>2020-08-29T10:05:49.000Z</time>
                <name>Trackpoint 2180</name>
            </trkpt>
            <trkpt lat="49.7708672" lon="9.3301288">
                <ele>133.0</ele>
                <time>2020-08-29T10:05:51.000Z</time>
                <name>Trackpoint 2181</name>
            </trkpt>
            <trkpt lat="49.7708768" lon="9.3299704">
                <ele>133.0</ele>
                <time>2020-08-29T10:05:53.000Z</time>
                <name>Trackpoint 2182</name>
            </trkpt>
            <trkpt lat="49.7708896" lon="9.3298104">
                <ele>133.0</ele>
                <time>2020-08-29T10:05:55.000Z</time>
                <name>Trackpoint 2183</name>
            </trkpt>
            <trkpt lat="49.7708992" lon="9.3296608">
                <ele>133.0</ele>
                <time>2020-08-29T10:05:57.000Z</time>
                <name>Trackpoint 2184</name>
            </trkpt>
            <trkpt lat="49.7709056" lon="9.3295672">
                <ele>133.0</ele>
                <time>2020-08-29T10:06:00.000Z</time>
                <name>Trackpoint 2185</name>
            </trkpt>
            <trkpt lat="49.7709056" lon="9.3294752">
                <ele>132.0</ele>
                <time>2020-08-29T10:06:35.000Z</time>
                <name>Trackpoint 2186</name>
            </trkpt>
            <trkpt lat="49.7709184" lon="9.3293384">
                <ele>132.0</ele>
                <time>2020-08-29T10:06:38.000Z</time>
                <name>Trackpoint 2187</name>
            </trkpt>
            <trkpt lat="49.770928" lon="9.3292288">
                <ele>132.0</ele>
                <time>2020-08-29T10:06:40.000Z</time>
                <name>Trackpoint 2188</name>
            </trkpt>
            <trkpt lat="49.7709344" lon="9.3291128">
                <ele>132.0</ele>
                <time>2020-08-29T10:06:42.000Z</time>
                <name>Trackpoint 2189</name>
            </trkpt>
            <trkpt lat="49.7709504" lon="9.3289984">
                <ele>132.0</ele>
                <time>2020-08-29T10:06:44.000Z</time>
                <name>Trackpoint 2190</name>
            </trkpt>
            <trkpt lat="49.7709632" lon="9.3288736">
                <ele>133.0</ele>
                <time>2020-08-29T10:06:46.000Z</time>
                <name>Trackpoint 2191</name>
            </trkpt>
            <trkpt lat="49.7709728" lon="9.3287488">
                <ele>133.0</ele>
                <time>2020-08-29T10:06:48.000Z</time>
                <name>Trackpoint 2192</name>
            </trkpt>
            <trkpt lat="49.7709888" lon="9.328624">
                <ele>133.0</ele>
                <time>2020-08-29T10:06:50.000Z</time>
                <name>Trackpoint 2193</name>
            </trkpt>
            <trkpt lat="49.7709984" lon="9.3284968">
                <ele>133.0</ele>
                <time>2020-08-29T10:06:52.000Z</time>
                <name>Trackpoint 2194</name>
            </trkpt>
            <trkpt lat="49.7710144" lon="9.3283616">
                <ele>133.0</ele>
                <time>2020-08-29T10:06:54.000Z</time>
                <name>Trackpoint 2195</name>
            </trkpt>
            <trkpt lat="49.7710304" lon="9.32822">
                <ele>133.0</ele>
                <time>2020-08-29T10:06:56.000Z</time>
                <name>Trackpoint 2196</name>
            </trkpt>
            <trkpt lat="49.7710528" lon="9.3280736">
                <ele>133.0</ele>
                <time>2020-08-29T10:06:58.000Z</time>
                <name>Trackpoint 2197</name>
            </trkpt>
            <trkpt lat="49.7710688" lon="9.327924">
                <ele>133.0</ele>
                <time>2020-08-29T10:07:00.000Z</time>
                <name>Trackpoint 2198</name>
            </trkpt>
            <trkpt lat="49.7710816" lon="9.327772">
                <ele>133.0</ele>
                <time>2020-08-29T10:07:02.000Z</time>
                <name>Trackpoint 2199</name>
            </trkpt>
            <trkpt lat="49.7710976" lon="9.3276264">
                <ele>133.0</ele>
                <time>2020-08-29T10:07:04.000Z</time>
                <name>Trackpoint 2200</name>
            </trkpt>
            <trkpt lat="49.7711072" lon="9.3274896">
                <ele>133.0</ele>
                <time>2020-08-29T10:07:06.000Z</time>
                <name>Trackpoint 2201</name>
            </trkpt>
            <trkpt lat="49.7711104" lon="9.3273552">
                <ele>133.0</ele>
                <time>2020-08-29T10:07:08.000Z</time>
                <name>Trackpoint 2202</name>
            </trkpt>
            <trkpt lat="49.7711136" lon="9.3272112">
                <ele>133.0</ele>
                <time>2020-08-29T10:07:10.000Z</time>
                <name>Trackpoint 2203</name>
            </trkpt>
            <trkpt lat="49.7711168" lon="9.3270664">
                <ele>133.0</ele>
                <time>2020-08-29T10:07:12.000Z</time>
                <name>Trackpoint 2204</name>
            </trkpt>
            <trkpt lat="49.7711264" lon="9.3269184">
                <ele>133.0</ele>
                <time>2020-08-29T10:07:14.000Z</time>
                <name>Trackpoint 2205</name>
            </trkpt>
            <trkpt lat="49.7711232" lon="9.3267848">
                <ele>134.0</ele>
                <time>2020-08-29T10:07:16.000Z</time>
                <name>Trackpoint 2206</name>
            </trkpt>
            <trkpt lat="49.7711168" lon="9.3266512">
                <ele>134.0</ele>
                <time>2020-08-29T10:07:18.000Z</time>
                <name>Trackpoint 2207</name>
            </trkpt>
            <trkpt lat="49.7711232" lon="9.32652">
                <ele>134.0</ele>
                <time>2020-08-29T10:07:20.000Z</time>
                <name>Trackpoint 2208</name>
            </trkpt>
            <trkpt lat="49.7711168" lon="9.3263832">
                <ele>134.0</ele>
                <time>2020-08-29T10:07:22.000Z</time>
                <name>Trackpoint 2209</name>
            </trkpt>
            <trkpt lat="49.7711232" lon="9.3262464">
                <ele>134.0</ele>
                <time>2020-08-29T10:07:24.000Z</time>
                <name>Trackpoint 2210</name>
            </trkpt>
            <trkpt lat="49.7711136" lon="9.3261136">
                <ele>134.0</ele>
                <time>2020-08-29T10:07:26.000Z</time>
                <name>Trackpoint 2211</name>
            </trkpt>
            <trkpt lat="49.7711104" lon="9.3259832">
                <ele>134.0</ele>
                <time>2020-08-29T10:07:28.000Z</time>
                <name>Trackpoint 2212</name>
            </trkpt>
            <trkpt lat="49.771104" lon="9.325856">
                <ele>134.0</ele>
                <time>2020-08-29T10:07:30.000Z</time>
                <name>Trackpoint 2213</name>
            </trkpt>
            <trkpt lat="49.7710976" lon="9.3257264">
                <ele>134.0</ele>
                <time>2020-08-29T10:07:32.000Z</time>
                <name>Trackpoint 2214</name>
            </trkpt>
            <trkpt lat="49.771104" lon="9.3255904">
                <ele>134.0</ele>
                <time>2020-08-29T10:07:34.000Z</time>
                <name>Trackpoint 2215</name>
            </trkpt>
            <trkpt lat="49.7710944" lon="9.3254416">
                <ele>134.0</ele>
                <time>2020-08-29T10:07:36.000Z</time>
                <name>Trackpoint 2216</name>
            </trkpt>
            <trkpt lat="49.7710912" lon="9.325292">
                <ele>134.0</ele>
                <time>2020-08-29T10:07:38.000Z</time>
                <name>Trackpoint 2217</name>
            </trkpt>
            <trkpt lat="49.7710848" lon="9.3251416">
                <ele>135.0</ele>
                <time>2020-08-29T10:07:40.000Z</time>
                <name>Trackpoint 2218</name>
            </trkpt>
            <trkpt lat="49.771072" lon="9.3249848">
                <ele>135.0</ele>
                <time>2020-08-29T10:07:42.000Z</time>
                <name>Trackpoint 2219</name>
            </trkpt>
            <trkpt lat="49.7710624" lon="9.3248128">
                <ele>134.0</ele>
                <time>2020-08-29T10:07:44.000Z</time>
                <name>Trackpoint 2220</name>
            </trkpt>
            <trkpt lat="49.7710496" lon="9.3246336">
                <ele>134.0</ele>
                <time>2020-08-29T10:07:46.000Z</time>
                <name>Trackpoint 2221</name>
            </trkpt>
            <trkpt lat="49.7710368" lon="9.324536">
                <ele>133.0</ele>
                <time>2020-08-29T10:07:47.000Z</time>
                <name>Trackpoint 2222</name>
            </trkpt>
            <trkpt lat="49.7710272" lon="9.3244368">
                <ele>133.0</ele>
                <time>2020-08-29T10:07:48.000Z</time>
                <name>Trackpoint 2223</name>
            </trkpt>
            <trkpt lat="49.7710144" lon="9.3243352">
                <ele>133.0</ele>
                <time>2020-08-29T10:07:49.000Z</time>
                <name>Trackpoint 2224</name>
            </trkpt>
            <trkpt lat="49.771008" lon="9.324232">
                <ele>133.0</ele>
                <time>2020-08-29T10:07:50.000Z</time>
                <name>Trackpoint 2225</name>
            </trkpt>
            <trkpt lat="49.7709984" lon="9.324128">
                <ele>133.0</ele>
                <time>2020-08-29T10:07:51.000Z</time>
                <name>Trackpoint 2226</name>
            </trkpt>
            <trkpt lat="49.7709888" lon="9.3240232">
                <ele>132.0</ele>
                <time>2020-08-29T10:07:52.000Z</time>
                <name>Trackpoint 2227</name>
            </trkpt>
            <trkpt lat="49.770976" lon="9.3239216">
                <ele>132.0</ele>
                <time>2020-08-29T10:07:53.000Z</time>
                <name>Trackpoint 2228</name>
            </trkpt>
            <trkpt lat="49.7709696" lon="9.3238184">
                <ele>132.0</ele>
                <time>2020-08-29T10:07:54.000Z</time>
                <name>Trackpoint 2229</name>
            </trkpt>
            <trkpt lat="49.7709568" lon="9.3237168">
                <ele>132.0</ele>
                <time>2020-08-29T10:07:55.000Z</time>
                <name>Trackpoint 2230</name>
            </trkpt>
            <trkpt lat="49.7709472" lon="9.3236152">
                <ele>132.0</ele>
                <time>2020-08-29T10:07:56.000Z</time>
                <name>Trackpoint 2231</name>
            </trkpt>
            <trkpt lat="49.7709376" lon="9.323508">
                <ele>132.0</ele>
                <time>2020-08-29T10:07:57.000Z</time>
                <name>Trackpoint 2232</name>
            </trkpt>
            <trkpt lat="49.7709312" lon="9.3234064">
                <ele>132.0</ele>
                <time>2020-08-29T10:07:58.000Z</time>
                <name>Trackpoint 2233</name>
            </trkpt>
            <trkpt lat="49.7709248" lon="9.323308">
                <ele>132.0</ele>
                <time>2020-08-29T10:07:59.000Z</time>
                <name>Trackpoint 2234</name>
            </trkpt>
            <trkpt lat="49.7709152" lon="9.3232136">
                <ele>132.0</ele>
                <time>2020-08-29T10:08:00.000Z</time>
                <name>Trackpoint 2235</name>
            </trkpt>
            <trkpt lat="49.7709088" lon="9.3231224">
                <ele>132.0</ele>
                <time>2020-08-29T10:08:01.000Z</time>
                <name>Trackpoint 2236</name>
            </trkpt>
            <trkpt lat="49.7709056" lon="9.3230312">
                <ele>132.0</ele>
                <time>2020-08-29T10:08:02.000Z</time>
                <name>Trackpoint 2237</name>
            </trkpt>
            <trkpt lat="49.7708896" lon="9.3228632">
                <ele>132.0</ele>
                <time>2020-08-29T10:08:04.000Z</time>
                <name>Trackpoint 2238</name>
            </trkpt>
            <trkpt lat="49.770864" lon="9.3227064">
                <ele>132.0</ele>
                <time>2020-08-29T10:08:06.000Z</time>
                <name>Trackpoint 2239</name>
            </trkpt>
            <trkpt lat="49.7708288" lon="9.3225632">
                <ele>132.0</ele>
                <time>2020-08-29T10:08:08.000Z</time>
                <name>Trackpoint 2240</name>
            </trkpt>
            <trkpt lat="49.7708" lon="9.3224264">
                <ele>132.0</ele>
                <time>2020-08-29T10:08:10.000Z</time>
                <name>Trackpoint 2241</name>
            </trkpt>
            <trkpt lat="49.7708" lon="9.3223136">
                <ele>132.0</ele>
                <time>2020-08-29T10:08:12.000Z</time>
                <name>Trackpoint 2242</name>
            </trkpt>
            <trkpt lat="49.7707936" lon="9.32222">
                <ele>132.0</ele>
                <time>2020-08-29T10:08:35.000Z</time>
                <name>Trackpoint 2243</name>
            </trkpt>
            <trkpt lat="49.7706848" lon="9.3222448">
                <ele>132.0</ele>
                <time>2020-08-29T10:08:40.000Z</time>
                <name>Trackpoint 2244</name>
            </trkpt>
            <trkpt lat="49.7705856" lon="9.3222904">
                <ele>132.0</ele>
                <time>2020-08-29T10:08:43.000Z</time>
                <name>Trackpoint 2245</name>
            </trkpt>
            <trkpt lat="49.7704608" lon="9.32234">
                <ele>132.0</ele>
                <time>2020-08-29T10:08:46.000Z</time>
                <name>Trackpoint 2246</name>
            </trkpt>
            <trkpt lat="49.7703808" lon="9.3223816">
                <ele>132.0</ele>
                <time>2020-08-29T10:08:48.000Z</time>
                <name>Trackpoint 2247</name>
            </trkpt>
            <trkpt lat="49.770272" lon="9.3224048">
                <ele>132.0</ele>
                <time>2020-08-29T10:08:51.000Z</time>
                <name>Trackpoint 2248</name>
            </trkpt>
            <trkpt lat="49.7701984" lon="9.3223248">
                <ele>132.0</ele>
                <time>2020-08-29T10:08:54.000Z</time>
                <name>Trackpoint 2249</name>
            </trkpt>
            <trkpt lat="49.770208" lon="9.3222216">
                <ele>132.0</ele>
                <time>2020-08-29T10:08:56.000Z</time>
                <name>Trackpoint 2250</name>
            </trkpt>
            <trkpt lat="49.770208" lon="9.3221264">
                <ele>132.0</ele>
                <time>2020-08-29T10:08:58.000Z</time>
                <name>Trackpoint 2251</name>
            </trkpt>
            <trkpt lat="49.7702144" lon="9.3220128">
                <ele>132.0</ele>
                <time>2020-08-29T10:09:00.000Z</time>
                <name>Trackpoint 2252</name>
            </trkpt>
            <trkpt lat="49.7702176" lon="9.3218816">
                <ele>132.0</ele>
                <time>2020-08-29T10:09:02.000Z</time>
                <name>Trackpoint 2253</name>
            </trkpt>
            <trkpt lat="49.7701952" lon="9.3217296">
                <ele>132.0</ele>
                <time>2020-08-29T10:09:04.000Z</time>
                <name>Trackpoint 2254</name>
            </trkpt>
            <trkpt lat="49.7701824" lon="9.3215952">
                <ele>132.0</ele>
                <time>2020-08-29T10:09:06.000Z</time>
                <name>Trackpoint 2255</name>
            </trkpt>
            <trkpt lat="49.7701696" lon="9.3214648">
                <ele>132.0</ele>
                <time>2020-08-29T10:09:08.000Z</time>
                <name>Trackpoint 2256</name>
            </trkpt>
            <trkpt lat="49.7701568" lon="9.321328">
                <ele>132.0</ele>
                <time>2020-08-29T10:09:10.000Z</time>
                <name>Trackpoint 2257</name>
            </trkpt>
            <trkpt lat="49.7701376" lon="9.3211872">
                <ele>132.0</ele>
                <time>2020-08-29T10:09:12.000Z</time>
                <name>Trackpoint 2258</name>
            </trkpt>
            <trkpt lat="49.7701344" lon="9.32104">
                <ele>132.0</ele>
                <time>2020-08-29T10:09:14.000Z</time>
                <name>Trackpoint 2259</name>
            </trkpt>
            <trkpt lat="49.7701152" lon="9.3208848">
                <ele>132.0</ele>
                <time>2020-08-29T10:09:16.000Z</time>
                <name>Trackpoint 2260</name>
            </trkpt>
            <trkpt lat="49.770096" lon="9.320732">
                <ele>132.0</ele>
                <time>2020-08-29T10:09:18.000Z</time>
                <name>Trackpoint 2261</name>
            </trkpt>
            <trkpt lat="49.7700928" lon="9.3205744">
                <ele>132.0</ele>
                <time>2020-08-29T10:09:20.000Z</time>
                <name>Trackpoint 2262</name>
            </trkpt>
            <trkpt lat="49.7700768" lon="9.3204168">
                <ele>132.0</ele>
                <time>2020-08-29T10:09:22.000Z</time>
                <name>Trackpoint 2263</name>
            </trkpt>
            <trkpt lat="49.7700608" lon="9.3202664">
                <ele>132.0</ele>
                <time>2020-08-29T10:09:24.000Z</time>
                <name>Trackpoint 2264</name>
            </trkpt>
            <trkpt lat="49.7700512" lon="9.3201168">
                <ele>131.0</ele>
                <time>2020-08-29T10:09:26.000Z</time>
                <name>Trackpoint 2265</name>
            </trkpt>
            <trkpt lat="49.7700384" lon="9.3199632">
                <ele>131.0</ele>
                <time>2020-08-29T10:09:28.000Z</time>
                <name>Trackpoint 2266</name>
            </trkpt>
            <trkpt lat="49.7700256" lon="9.3198048">
                <ele>131.0</ele>
                <time>2020-08-29T10:09:30.000Z</time>
                <name>Trackpoint 2267</name>
            </trkpt>
            <trkpt lat="49.7700192" lon="9.3196472">
                <ele>131.0</ele>
                <time>2020-08-29T10:09:32.000Z</time>
                <name>Trackpoint 2268</name>
            </trkpt>
            <trkpt lat="49.7700096" lon="9.3194912">
                <ele>130.0</ele>
                <time>2020-08-29T10:09:34.000Z</time>
                <name>Trackpoint 2269</name>
            </trkpt>
            <trkpt lat="49.7700032" lon="9.3193512">
                <ele>130.0</ele>
                <time>2020-08-29T10:09:36.000Z</time>
                <name>Trackpoint 2270</name>
            </trkpt>
            <trkpt lat="49.7699936" lon="9.319212">
                <ele>130.0</ele>
                <time>2020-08-29T10:09:38.000Z</time>
                <name>Trackpoint 2271</name>
            </trkpt>
            <trkpt lat="49.7699808" lon="9.3190672">
                <ele>130.0</ele>
                <time>2020-08-29T10:09:40.000Z</time>
                <name>Trackpoint 2272</name>
            </trkpt>
            <trkpt lat="49.7699712" lon="9.3189152">
                <ele>130.0</ele>
                <time>2020-08-29T10:09:42.000Z</time>
                <name>Trackpoint 2273</name>
            </trkpt>
            <trkpt lat="49.7699552" lon="9.318764">
                <ele>130.0</ele>
                <time>2020-08-29T10:09:44.000Z</time>
                <name>Trackpoint 2274</name>
            </trkpt>
            <trkpt lat="49.7699264" lon="9.318608">
                <ele>130.0</ele>
                <time>2020-08-29T10:09:46.000Z</time>
                <name>Trackpoint 2275</name>
            </trkpt>
            <trkpt lat="49.7698944" lon="9.3184544">
                <ele>131.0</ele>
                <time>2020-08-29T10:09:48.000Z</time>
                <name>Trackpoint 2276</name>
            </trkpt>
            <trkpt lat="49.7698528" lon="9.3183048">
                <ele>131.0</ele>
                <time>2020-08-29T10:09:50.000Z</time>
                <name>Trackpoint 2277</name>
            </trkpt>
            <trkpt lat="49.7698048" lon="9.318156">
                <ele>131.0</ele>
                <time>2020-08-29T10:09:52.000Z</time>
                <name>Trackpoint 2278</name>
            </trkpt>
            <trkpt lat="49.76976" lon="9.3180088">
                <ele>131.0</ele>
                <time>2020-08-29T10:09:54.000Z</time>
                <name>Trackpoint 2279</name>
            </trkpt>
            <trkpt lat="49.7697184" lon="9.3178784">
                <ele>131.0</ele>
                <time>2020-08-29T10:09:56.000Z</time>
                <name>Trackpoint 2280</name>
            </trkpt>
            <trkpt lat="49.76968" lon="9.317772">
                <ele>131.0</ele>
                <time>2020-08-29T10:09:59.000Z</time>
                <name>Trackpoint 2281</name>
            </trkpt>
            <trkpt lat="49.7697056" lon="9.3178928">
                <ele>131.0</ele>
                <time>2020-08-29T10:10:05.000Z</time>
                <name>Trackpoint 2282</name>
            </trkpt>
            <trkpt lat="49.76976" lon="9.3179952">
                <ele>132.0</ele>
                <time>2020-08-29T10:10:08.000Z</time>
                <name>Trackpoint 2283</name>
            </trkpt>
            <trkpt lat="49.769712" lon="9.3178928">
                <ele>132.0</ele>
                <time>2020-08-29T10:10:34.000Z</time>
                <name>Trackpoint 2284</name>
            </trkpt>
            <trkpt lat="49.76968" lon="9.3178064">
                <ele>131.0</ele>
                <time>2020-08-29T10:10:36.000Z</time>
                <name>Trackpoint 2285</name>
            </trkpt>
            <trkpt lat="49.7696416" lon="9.3177032">
                <ele>132.0</ele>
                <time>2020-08-29T10:10:38.000Z</time>
                <name>Trackpoint 2286</name>
            </trkpt>
            <trkpt lat="49.7695872" lon="9.3175896">
                <ele>132.0</ele>
                <time>2020-08-29T10:10:40.000Z</time>
                <name>Trackpoint 2287</name>
            </trkpt>
            <trkpt lat="49.7695328" lon="9.3174696">
                <ele>131.0</ele>
                <time>2020-08-29T10:10:42.000Z</time>
                <name>Trackpoint 2288</name>
            </trkpt>
            <trkpt lat="49.7694816" lon="9.31736">
                <ele>132.0</ele>
                <time>2020-08-29T10:10:44.000Z</time>
                <name>Trackpoint 2289</name>
            </trkpt>
            <trkpt lat="49.76944" lon="9.3172448">
                <ele>132.0</ele>
                <time>2020-08-29T10:10:46.000Z</time>
                <name>Trackpoint 2290</name>
            </trkpt>
            <trkpt lat="49.7694048" lon="9.3171256">
                <ele>132.0</ele>
                <time>2020-08-29T10:10:48.000Z</time>
                <name>Trackpoint 2291</name>
            </trkpt>
            <trkpt lat="49.7693792" lon="9.317012">
                <ele>131.0</ele>
                <time>2020-08-29T10:10:50.000Z</time>
                <name>Trackpoint 2292</name>
            </trkpt>
            <trkpt lat="49.7693568" lon="9.3168888">
                <ele>131.0</ele>
                <time>2020-08-29T10:10:52.000Z</time>
                <name>Trackpoint 2293</name>
            </trkpt>
            <trkpt lat="49.7693376" lon="9.3167664">
                <ele>131.0</ele>
                <time>2020-08-29T10:10:54.000Z</time>
                <name>Trackpoint 2294</name>
            </trkpt>
            <trkpt lat="49.7693216" lon="9.3166512">
                <ele>131.0</ele>
                <time>2020-08-29T10:10:56.000Z</time>
                <name>Trackpoint 2295</name>
            </trkpt>
            <trkpt lat="49.7692896" lon="9.3165368">
                <ele>130.0</ele>
                <time>2020-08-29T10:10:58.000Z</time>
                <name>Trackpoint 2296</name>
            </trkpt>
            <trkpt lat="49.769248" lon="9.3163992">
                <ele>130.0</ele>
                <time>2020-08-29T10:11:00.000Z</time>
                <name>Trackpoint 2297</name>
            </trkpt>
            <trkpt lat="49.7692064" lon="9.31626">
                <ele>130.0</ele>
                <time>2020-08-29T10:11:02.000Z</time>
                <name>Trackpoint 2298</name>
            </trkpt>
            <trkpt lat="49.7691648" lon="9.3161232">
                <ele>130.0</ele>
                <time>2020-08-29T10:11:04.000Z</time>
                <name>Trackpoint 2299</name>
            </trkpt>
            <trkpt lat="49.7691232" lon="9.316004">
                <ele>130.0</ele>
                <time>2020-08-29T10:11:06.000Z</time>
                <name>Trackpoint 2300</name>
            </trkpt>
            <trkpt lat="49.7690816" lon="9.315884">
                <ele>130.0</ele>
                <time>2020-08-29T10:11:08.000Z</time>
                <name>Trackpoint 2301</name>
            </trkpt>
            <trkpt lat="49.7690368" lon="9.31576">
                <ele>130.0</ele>
                <time>2020-08-29T10:11:10.000Z</time>
                <name>Trackpoint 2302</name>
            </trkpt>
            <trkpt lat="49.7689728" lon="9.315632">
                <ele>130.0</ele>
                <time>2020-08-29T10:11:12.000Z</time>
                <name>Trackpoint 2303</name>
            </trkpt>
            <trkpt lat="49.768912" lon="9.3155144">
                <ele>130.0</ele>
                <time>2020-08-29T10:11:14.000Z</time>
                <name>Trackpoint 2304</name>
            </trkpt>
            <trkpt lat="49.7688576" lon="9.3153936">
                <ele>131.0</ele>
                <time>2020-08-29T10:11:16.000Z</time>
                <name>Trackpoint 2305</name>
            </trkpt>
            <trkpt lat="49.7687936" lon="9.3152688">
                <ele>130.0</ele>
                <time>2020-08-29T10:11:18.000Z</time>
                <name>Trackpoint 2306</name>
            </trkpt>
            <trkpt lat="49.7687392" lon="9.3151432">
                <ele>130.0</ele>
                <time>2020-08-29T10:11:20.000Z</time>
                <name>Trackpoint 2307</name>
            </trkpt>
            <trkpt lat="49.7686816" lon="9.3150184">
                <ele>131.0</ele>
                <time>2020-08-29T10:11:22.000Z</time>
                <name>Trackpoint 2308</name>
            </trkpt>
            <trkpt lat="49.768624" lon="9.3148968">
                <ele>131.0</ele>
                <time>2020-08-29T10:11:24.000Z</time>
                <name>Trackpoint 2309</name>
            </trkpt>
            <trkpt lat="49.7685632" lon="9.3147648">
                <ele>131.0</ele>
                <time>2020-08-29T10:11:26.000Z</time>
                <name>Trackpoint 2310</name>
            </trkpt>
            <trkpt lat="49.768496" lon="9.314636">
                <ele>131.0</ele>
                <time>2020-08-29T10:11:28.000Z</time>
                <name>Trackpoint 2311</name>
            </trkpt>
            <trkpt lat="49.7684256" lon="9.3145112">
                <ele>131.0</ele>
                <time>2020-08-29T10:11:30.000Z</time>
                <name>Trackpoint 2312</name>
            </trkpt>
            <trkpt lat="49.7683552" lon="9.3143952">
                <ele>131.0</ele>
                <time>2020-08-29T10:11:32.000Z</time>
                <name>Trackpoint 2313</name>
            </trkpt>
            <trkpt lat="49.7682848" lon="9.3142816">
                <ele>131.0</ele>
                <time>2020-08-29T10:11:34.000Z</time>
                <name>Trackpoint 2314</name>
            </trkpt>
            <trkpt lat="49.7682112" lon="9.3141696">
                <ele>131.0</ele>
                <time>2020-08-29T10:11:36.000Z</time>
                <name>Trackpoint 2315</name>
            </trkpt>
            <trkpt lat="49.768144" lon="9.3140648">
                <ele>131.0</ele>
                <time>2020-08-29T10:11:38.000Z</time>
                <name>Trackpoint 2316</name>
            </trkpt>
            <trkpt lat="49.768064" lon="9.3139696">
                <ele>131.0</ele>
                <time>2020-08-29T10:11:40.000Z</time>
                <name>Trackpoint 2317</name>
            </trkpt>
            <trkpt lat="49.7679744" lon="9.3138768">
                <ele>132.0</ele>
                <time>2020-08-29T10:11:42.000Z</time>
                <name>Trackpoint 2318</name>
            </trkpt>
            <trkpt lat="49.7678912" lon="9.3137848">
                <ele>133.0</ele>
                <time>2020-08-29T10:11:44.000Z</time>
                <name>Trackpoint 2319</name>
            </trkpt>
            <trkpt lat="49.7677984" lon="9.3137128">
                <ele>133.0</ele>
                <time>2020-08-29T10:11:46.000Z</time>
                <name>Trackpoint 2320</name>
            </trkpt>
            <trkpt lat="49.767712" lon="9.3136232">
                <ele>133.0</ele>
                <time>2020-08-29T10:11:48.000Z</time>
                <name>Trackpoint 2321</name>
            </trkpt>
            <trkpt lat="49.7676288" lon="9.3135768">
                <ele>133.0</ele>
                <time>2020-08-29T10:11:50.000Z</time>
                <name>Trackpoint 2322</name>
            </trkpt>
            <trkpt lat="49.7675488" lon="9.3134896">
                <ele>134.0</ele>
                <time>2020-08-29T10:11:52.000Z</time>
                <name>Trackpoint 2323</name>
            </trkpt>
            <trkpt lat="49.7674752" lon="9.3133336">
                <ele>134.0</ele>
                <time>2020-08-29T10:11:54.000Z</time>
                <name>Trackpoint 2324</name>
            </trkpt>
            <trkpt lat="49.7673888" lon="9.31324">
                <ele>136.0</ele>
                <time>2020-08-29T10:11:56.000Z</time>
                <name>Trackpoint 2325</name>
            </trkpt>
            <trkpt lat="49.7673024" lon="9.3131336">
                <ele>135.0</ele>
                <time>2020-08-29T10:11:58.000Z</time>
                <name>Trackpoint 2326</name>
            </trkpt>
            <trkpt lat="49.767216" lon="9.3130432">
                <ele>136.0</ele>
                <time>2020-08-29T10:12:00.000Z</time>
                <name>Trackpoint 2327</name>
            </trkpt>
            <trkpt lat="49.7671328" lon="9.31294">
                <ele>136.0</ele>
                <time>2020-08-29T10:12:02.000Z</time>
                <name>Trackpoint 2328</name>
            </trkpt>
            <trkpt lat="49.767024" lon="9.3128528">
                <ele>136.0</ele>
                <time>2020-08-29T10:12:04.000Z</time>
                <name>Trackpoint 2329</name>
            </trkpt>
            <trkpt lat="49.7669216" lon="9.3127736">
                <ele>136.0</ele>
                <time>2020-08-29T10:12:06.000Z</time>
                <name>Trackpoint 2330</name>
            </trkpt>
            <trkpt lat="49.7668128" lon="9.3126984">
                <ele>135.0</ele>
                <time>2020-08-29T10:12:08.000Z</time>
                <name>Trackpoint 2331</name>
            </trkpt>
            <trkpt lat="49.7667072" lon="9.312632">
                <ele>134.0</ele>
                <time>2020-08-29T10:12:10.000Z</time>
                <name>Trackpoint 2332</name>
            </trkpt>
            <trkpt lat="49.7665984" lon="9.3125896">
                <ele>134.0</ele>
                <time>2020-08-29T10:12:12.000Z</time>
                <name>Trackpoint 2333</name>
            </trkpt>
            <trkpt lat="49.7664896" lon="9.3125488">
                <ele>134.0</ele>
                <time>2020-08-29T10:12:14.000Z</time>
                <name>Trackpoint 2334</name>
            </trkpt>
            <trkpt lat="49.7663904" lon="9.3125016">
                <ele>134.0</ele>
                <time>2020-08-29T10:12:16.000Z</time>
                <name>Trackpoint 2335</name>
            </trkpt>
            <trkpt lat="49.7662816" lon="9.3124768">
                <ele>134.0</ele>
                <time>2020-08-29T10:12:18.000Z</time>
                <name>Trackpoint 2336</name>
            </trkpt>
            <trkpt lat="49.7661856" lon="9.312424">
                <ele>134.0</ele>
                <time>2020-08-29T10:12:20.000Z</time>
                <name>Trackpoint 2337</name>
            </trkpt>
            <trkpt lat="49.7660864" lon="9.31238">
                <ele>134.0</ele>
                <time>2020-08-29T10:12:22.000Z</time>
                <name>Trackpoint 2338</name>
            </trkpt>
            <trkpt lat="49.765984" lon="9.312364">
                <ele>134.0</ele>
                <time>2020-08-29T10:12:24.000Z</time>
                <name>Trackpoint 2339</name>
            </trkpt>
            <trkpt lat="49.765888" lon="9.31236">
                <ele>134.0</ele>
                <time>2020-08-29T10:12:26.000Z</time>
                <name>Trackpoint 2340</name>
            </trkpt>
            <trkpt lat="49.7657856" lon="9.3123568">
                <ele>134.0</ele>
                <time>2020-08-29T10:12:28.000Z</time>
                <name>Trackpoint 2341</name>
            </trkpt>
            <trkpt lat="49.7656896" lon="9.3123504">
                <ele>134.0</ele>
                <time>2020-08-29T10:12:30.000Z</time>
                <name>Trackpoint 2342</name>
            </trkpt>
            <trkpt lat="49.7655808" lon="9.3123752">
                <ele>134.0</ele>
                <time>2020-08-29T10:12:32.000Z</time>
                <name>Trackpoint 2343</name>
            </trkpt>
            <trkpt lat="49.7654912" lon="9.3123864">
                <ele>134.0</ele>
                <time>2020-08-29T10:12:34.000Z</time>
                <name>Trackpoint 2344</name>
            </trkpt>
            <trkpt lat="49.7653856" lon="9.3123448">
                <ele>135.0</ele>
                <time>2020-08-29T10:12:37.000Z</time>
                <name>Trackpoint 2345</name>
            </trkpt>
            <trkpt lat="49.7652832" lon="9.3122704">
                <ele>135.0</ele>
                <time>2020-08-29T10:12:39.000Z</time>
                <name>Trackpoint 2346</name>
            </trkpt>
            <trkpt lat="49.7651456" lon="9.3122664">
                <ele>135.0</ele>
                <time>2020-08-29T10:12:41.000Z</time>
                <name>Trackpoint 2347</name>
            </trkpt>
            <trkpt lat="49.7650304" lon="9.3122728">
                <ele>135.0</ele>
                <time>2020-08-29T10:12:43.000Z</time>
                <name>Trackpoint 2348</name>
            </trkpt>
            <trkpt lat="49.7648992" lon="9.3122832">
                <ele>136.0</ele>
                <time>2020-08-29T10:12:45.000Z</time>
                <name>Trackpoint 2349</name>
            </trkpt>
            <trkpt lat="49.7647936" lon="9.31228">
                <ele>136.0</ele>
                <time>2020-08-29T10:12:47.000Z</time>
                <name>Trackpoint 2350</name>
            </trkpt>
            <trkpt lat="49.7646432" lon="9.3123192">
                <ele>136.0</ele>
                <time>2020-08-29T10:12:49.000Z</time>
                <name>Trackpoint 2351</name>
            </trkpt>
            <trkpt lat="49.7645152" lon="9.3123104">
                <ele>136.0</ele>
                <time>2020-08-29T10:12:52.000Z</time>
                <name>Trackpoint 2352</name>
            </trkpt>
            <trkpt lat="49.7644096" lon="9.3123664">
                <ele>136.0</ele>
                <time>2020-08-29T10:12:54.000Z</time>
                <name>Trackpoint 2353</name>
            </trkpt>
            <trkpt lat="49.7642976" lon="9.3124336">
                <ele>136.0</ele>
                <time>2020-08-29T10:12:56.000Z</time>
                <name>Trackpoint 2354</name>
            </trkpt>
            <trkpt lat="49.7641856" lon="9.3124984">
                <ele>136.0</ele>
                <time>2020-08-29T10:12:58.000Z</time>
                <name>Trackpoint 2355</name>
            </trkpt>
            <trkpt lat="49.764096" lon="9.3125432">
                <ele>137.0</ele>
                <time>2020-08-29T10:13:00.000Z</time>
                <name>Trackpoint 2356</name>
            </trkpt>
            <trkpt lat="49.764" lon="9.31246">
                <ele>137.0</ele>
                <time>2020-08-29T10:13:03.000Z</time>
                <name>Trackpoint 2357</name>
            </trkpt>
            <trkpt lat="49.7638848" lon="9.3124712">
                <ele>137.0</ele>
                <time>2020-08-29T10:13:06.000Z</time>
                <name>Trackpoint 2358</name>
            </trkpt>
            <trkpt lat="49.7637632" lon="9.3124704">
                <ele>137.0</ele>
                <time>2020-08-29T10:13:09.000Z</time>
                <name>Trackpoint 2359</name>
            </trkpt>
            <trkpt lat="49.763648" lon="9.3124648">
                <ele>137.0</ele>
                <time>2020-08-29T10:13:11.000Z</time>
                <name>Trackpoint 2360</name>
            </trkpt>
            <trkpt lat="49.7635552" lon="9.3124584">
                <ele>137.0</ele>
                <time>2020-08-29T10:13:13.000Z</time>
                <name>Trackpoint 2361</name>
            </trkpt>
            <trkpt lat="49.7634208" lon="9.3124448">
                <ele>137.0</ele>
                <time>2020-08-29T10:13:15.000Z</time>
                <name>Trackpoint 2362</name>
            </trkpt>
            <trkpt lat="49.7632832" lon="9.3124088">
                <ele>137.0</ele>
                <time>2020-08-29T10:13:18.000Z</time>
                <name>Trackpoint 2363</name>
            </trkpt>
            <trkpt lat="49.7631488" lon="9.3124168">
                <ele>137.0</ele>
                <time>2020-08-29T10:13:20.000Z</time>
                <name>Trackpoint 2364</name>
            </trkpt>
            <trkpt lat="49.7630336" lon="9.312384">
                <ele>137.0</ele>
                <time>2020-08-29T10:13:22.000Z</time>
                <name>Trackpoint 2365</name>
            </trkpt>
            <trkpt lat="49.7629408" lon="9.3123912">
                <ele>137.0</ele>
                <time>2020-08-29T10:13:24.000Z</time>
                <name>Trackpoint 2366</name>
            </trkpt>
            <trkpt lat="49.7628256" lon="9.312404">
                <ele>137.0</ele>
                <time>2020-08-29T10:13:26.000Z</time>
                <name>Trackpoint 2367</name>
            </trkpt>
            <trkpt lat="49.7626848" lon="9.3124176">
                <ele>137.0</ele>
                <time>2020-08-29T10:13:28.000Z</time>
                <name>Trackpoint 2368</name>
            </trkpt>
            <trkpt lat="49.7625472" lon="9.3124752">
                <ele>137.0</ele>
                <time>2020-08-29T10:13:30.000Z</time>
                <name>Trackpoint 2369</name>
            </trkpt>
            <trkpt lat="49.7624544" lon="9.31252">
                <ele>137.0</ele>
                <time>2020-08-29T10:13:32.000Z</time>
                <name>Trackpoint 2370</name>
            </trkpt>
            <trkpt lat="49.7623584" lon="9.3125416">
                <ele>137.0</ele>
                <time>2020-08-29T10:13:34.000Z</time>
                <name>Trackpoint 2371</name>
            </trkpt>
            <trkpt lat="49.7622272" lon="9.3125496">
                <ele>138.0</ele>
                <time>2020-08-29T10:13:37.000Z</time>
                <name>Trackpoint 2372</name>
            </trkpt>
            <trkpt lat="49.7621184" lon="9.3125696">
                <ele>138.0</ele>
                <time>2020-08-29T10:13:39.000Z</time>
                <name>Trackpoint 2373</name>
            </trkpt>
            <trkpt lat="49.7620096" lon="9.3125696">
                <ele>137.0</ele>
                <time>2020-08-29T10:13:41.000Z</time>
                <name>Trackpoint 2374</name>
            </trkpt>
            <trkpt lat="49.7619136" lon="9.3125464">
                <ele>138.0</ele>
                <time>2020-08-29T10:13:43.000Z</time>
                <name>Trackpoint 2375</name>
            </trkpt>
            <trkpt lat="49.7618304" lon="9.3125064">
                <ele>138.0</ele>
                <time>2020-08-29T10:13:45.000Z</time>
                <name>Trackpoint 2376</name>
            </trkpt>
            <trkpt lat="49.7617024" lon="9.3124952">
                <ele>137.0</ele>
                <time>2020-08-29T10:13:48.000Z</time>
                <name>Trackpoint 2377</name>
            </trkpt>
            <trkpt lat="49.7615904" lon="9.3125032">
                <ele>138.0</ele>
                <time>2020-08-29T10:13:50.000Z</time>
                <name>Trackpoint 2378</name>
            </trkpt>
            <trkpt lat="49.7614624" lon="9.3125112">
                <ele>137.0</ele>
                <time>2020-08-29T10:13:52.000Z</time>
                <name>Trackpoint 2379</name>
            </trkpt>
            <trkpt lat="49.7613376" lon="9.3125432">
                <ele>137.0</ele>
                <time>2020-08-29T10:13:54.000Z</time>
                <name>Trackpoint 2380</name>
            </trkpt>
            <trkpt lat="49.7612256" lon="9.3125688">
                <ele>137.0</ele>
                <time>2020-08-29T10:13:56.000Z</time>
                <name>Trackpoint 2381</name>
            </trkpt>
            <trkpt lat="49.761104" lon="9.3125832">
                <ele>138.0</ele>
                <time>2020-08-29T10:13:58.000Z</time>
                <name>Trackpoint 2382</name>
            </trkpt>
            <trkpt lat="49.7609984" lon="9.3125736">
                <ele>137.0</ele>
                <time>2020-08-29T10:14:00.000Z</time>
                <name>Trackpoint 2383</name>
            </trkpt>
            <trkpt lat="49.7608704" lon="9.312596">
                <ele>137.0</ele>
                <time>2020-08-29T10:14:02.000Z</time>
                <name>Trackpoint 2384</name>
            </trkpt>
            <trkpt lat="49.7607584" lon="9.3126184">
                <ele>137.0</ele>
                <time>2020-08-29T10:14:04.000Z</time>
                <name>Trackpoint 2385</name>
            </trkpt>
            <trkpt lat="49.7606208" lon="9.3126568">
                <ele>137.0</ele>
                <time>2020-08-29T10:14:06.000Z</time>
                <name>Trackpoint 2386</name>
            </trkpt>
            <trkpt lat="49.7605056" lon="9.3126784">
                <ele>138.0</ele>
                <time>2020-08-29T10:14:08.000Z</time>
                <name>Trackpoint 2387</name>
            </trkpt>
            <trkpt lat="49.760368" lon="9.3126944">
                <ele>137.0</ele>
                <time>2020-08-29T10:14:10.000Z</time>
                <name>Trackpoint 2388</name>
            </trkpt>
            <trkpt lat="49.7602464" lon="9.3127248">
                <ele>137.0</ele>
                <time>2020-08-29T10:14:12.000Z</time>
                <name>Trackpoint 2389</name>
            </trkpt>
            <trkpt lat="49.7601216" lon="9.3127584">
                <ele>137.0</ele>
                <time>2020-08-29T10:14:14.000Z</time>
                <name>Trackpoint 2390</name>
            </trkpt>
            <trkpt lat="49.7600128" lon="9.312772">
                <ele>137.0</ele>
                <time>2020-08-29T10:14:16.000Z</time>
                <name>Trackpoint 2391</name>
            </trkpt>
            <trkpt lat="49.7599136" lon="9.312792">
                <ele>137.0</ele>
                <time>2020-08-29T10:14:18.000Z</time>
                <name>Trackpoint 2392</name>
            </trkpt>
            <trkpt lat="49.7597984" lon="9.3128216">
                <ele>137.0</ele>
                <time>2020-08-29T10:14:20.000Z</time>
                <name>Trackpoint 2393</name>
            </trkpt>
            <trkpt lat="49.7596992" lon="9.312852">
                <ele>137.0</ele>
                <time>2020-08-29T10:14:22.000Z</time>
                <name>Trackpoint 2394</name>
            </trkpt>
            <trkpt lat="49.7596" lon="9.3128728">
                <ele>137.0</ele>
                <time>2020-08-29T10:14:24.000Z</time>
                <name>Trackpoint 2395</name>
            </trkpt>
            <trkpt lat="49.7594944" lon="9.3129016">
                <ele>137.0</ele>
                <time>2020-08-29T10:14:26.000Z</time>
                <name>Trackpoint 2396</name>
            </trkpt>
            <trkpt lat="49.7593888" lon="9.3129232">
                <ele>137.0</ele>
                <time>2020-08-29T10:14:28.000Z</time>
                <name>Trackpoint 2397</name>
            </trkpt>
            <trkpt lat="49.7592864" lon="9.3129464">
                <ele>137.0</ele>
                <time>2020-08-29T10:14:30.000Z</time>
                <name>Trackpoint 2398</name>
            </trkpt>
            <trkpt lat="49.7591936" lon="9.3129752">
                <ele>137.0</ele>
                <time>2020-08-29T10:14:32.000Z</time>
                <name>Trackpoint 2399</name>
            </trkpt>
            <trkpt lat="49.7591072" lon="9.31302">
                <ele>137.0</ele>
                <time>2020-08-29T10:14:34.000Z</time>
                <name>Trackpoint 2400</name>
            </trkpt>
            <trkpt lat="49.7589888" lon="9.3130888">
                <ele>136.0</ele>
                <time>2020-08-29T10:14:37.000Z</time>
                <name>Trackpoint 2401</name>
            </trkpt>
            <trkpt lat="49.7588832" lon="9.3131416">
                <ele>136.0</ele>
                <time>2020-08-29T10:14:40.000Z</time>
                <name>Trackpoint 2402</name>
            </trkpt>
            <trkpt lat="49.7587744" lon="9.313184">
                <ele>135.0</ele>
                <time>2020-08-29T10:14:43.000Z</time>
                <name>Trackpoint 2403</name>
            </trkpt>
            <trkpt lat="49.7586624" lon="9.3131952">
                <ele>134.0</ele>
                <time>2020-08-29T10:14:46.000Z</time>
                <name>Trackpoint 2404</name>
            </trkpt>
            <trkpt lat="49.758544" lon="9.3132384">
                <ele>134.0</ele>
                <time>2020-08-29T10:14:49.000Z</time>
                <name>Trackpoint 2405</name>
            </trkpt>
            <trkpt lat="49.7584544" lon="9.31326">
                <ele>134.0</ele>
                <time>2020-08-29T10:14:51.000Z</time>
                <name>Trackpoint 2406</name>
            </trkpt>
            <trkpt lat="49.7583744" lon="9.313316">
                <ele>134.0</ele>
                <time>2020-08-29T10:14:53.000Z</time>
                <name>Trackpoint 2407</name>
            </trkpt>
            <trkpt lat="49.758288" lon="9.3133688">
                <ele>134.0</ele>
                <time>2020-08-29T10:14:55.000Z</time>
                <name>Trackpoint 2408</name>
            </trkpt>
            <trkpt lat="49.7582016" lon="9.31342">
                <ele>133.0</ele>
                <time>2020-08-29T10:14:57.000Z</time>
                <name>Trackpoint 2409</name>
            </trkpt>
            <trkpt lat="49.7581088" lon="9.3134648">
                <ele>133.0</ele>
                <time>2020-08-29T10:14:59.000Z</time>
                <name>Trackpoint 2410</name>
            </trkpt>
            <trkpt lat="49.7580224" lon="9.3135184">
                <ele>132.0</ele>
                <time>2020-08-29T10:15:01.000Z</time>
                <name>Trackpoint 2411</name>
            </trkpt>
            <trkpt lat="49.757936" lon="9.3135704">
                <ele>132.0</ele>
                <time>2020-08-29T10:15:03.000Z</time>
                <name>Trackpoint 2412</name>
            </trkpt>
            <trkpt lat="49.75784" lon="9.3136264">
                <ele>132.0</ele>
                <time>2020-08-29T10:15:05.000Z</time>
                <name>Trackpoint 2413</name>
            </trkpt>
            <trkpt lat="49.7577472" lon="9.3136952">
                <ele>132.0</ele>
                <time>2020-08-29T10:15:07.000Z</time>
                <name>Trackpoint 2414</name>
            </trkpt>
            <trkpt lat="49.7576576" lon="9.3137568">
                <ele>131.0</ele>
                <time>2020-08-29T10:15:09.000Z</time>
                <name>Trackpoint 2415</name>
            </trkpt>
            <trkpt lat="49.757568" lon="9.3138168">
                <ele>131.0</ele>
                <time>2020-08-29T10:15:11.000Z</time>
                <name>Trackpoint 2416</name>
            </trkpt>
            <trkpt lat="49.7574848" lon="9.3138936">
                <ele>132.0</ele>
                <time>2020-08-29T10:15:13.000Z</time>
                <name>Trackpoint 2417</name>
            </trkpt>
            <trkpt lat="49.7574048" lon="9.3139512">
                <ele>132.0</ele>
                <time>2020-08-29T10:15:15.000Z</time>
                <name>Trackpoint 2418</name>
            </trkpt>
            <trkpt lat="49.757296" lon="9.3140248">
                <ele>131.0</ele>
                <time>2020-08-29T10:15:18.000Z</time>
                <name>Trackpoint 2419</name>
            </trkpt>
            <trkpt lat="49.7572032" lon="9.314108">
                <ele>131.0</ele>
                <time>2020-08-29T10:15:21.000Z</time>
                <name>Trackpoint 2420</name>
            </trkpt>
            <trkpt lat="49.7570944" lon="9.3141696">
                <ele>130.0</ele>
                <time>2020-08-29T10:15:24.000Z</time>
                <name>Trackpoint 2421</name>
            </trkpt>
            <trkpt lat="49.7570176" lon="9.314228">
                <ele>129.0</ele>
                <time>2020-08-29T10:15:26.000Z</time>
                <name>Trackpoint 2422</name>
            </trkpt>
            <trkpt lat="49.756944" lon="9.314288">
                <ele>129.0</ele>
                <time>2020-08-29T10:15:28.000Z</time>
                <name>Trackpoint 2423</name>
            </trkpt>
            <trkpt lat="49.7568704" lon="9.3143552">
                <ele>130.0</ele>
                <time>2020-08-29T10:15:30.000Z</time>
                <name>Trackpoint 2424</name>
            </trkpt>
            <trkpt lat="49.7567744" lon="9.3144528">
                <ele>130.0</ele>
                <time>2020-08-29T10:15:33.000Z</time>
                <name>Trackpoint 2425</name>
            </trkpt>
            <trkpt lat="49.756704" lon="9.3145264">
                <ele>130.0</ele>
                <time>2020-08-29T10:15:35.000Z</time>
                <name>Trackpoint 2426</name>
            </trkpt>
            <trkpt lat="49.7566304" lon="9.3146016">
                <ele>130.0</ele>
                <time>2020-08-29T10:15:37.000Z</time>
                <name>Trackpoint 2427</name>
            </trkpt>
            <trkpt lat="49.7565664" lon="9.3146664">
                <ele>130.0</ele>
                <time>2020-08-29T10:15:39.000Z</time>
                <name>Trackpoint 2428</name>
            </trkpt>
            <trkpt lat="49.7564864" lon="9.3147312">
                <ele>129.0</ele>
                <time>2020-08-29T10:15:41.000Z</time>
                <name>Trackpoint 2429</name>
            </trkpt>
            <trkpt lat="49.7564096" lon="9.3147784">
                <ele>130.0</ele>
                <time>2020-08-29T10:15:43.000Z</time>
                <name>Trackpoint 2430</name>
            </trkpt>
            <trkpt lat="49.756288" lon="9.3148344">
                <ele>130.0</ele>
                <time>2020-08-29T10:15:46.000Z</time>
                <name>Trackpoint 2431</name>
            </trkpt>
            <trkpt lat="49.756208" lon="9.3149">
                <ele>130.0</ele>
                <time>2020-08-29T10:15:48.000Z</time>
                <name>Trackpoint 2432</name>
            </trkpt>
            <trkpt lat="49.7561504" lon="9.3149728">
                <ele>130.0</ele>
                <time>2020-08-29T10:15:50.000Z</time>
                <name>Trackpoint 2433</name>
            </trkpt>
            <trkpt lat="49.7560704" lon="9.3150456">
                <ele>130.0</ele>
                <time>2020-08-29T10:15:53.000Z</time>
                <name>Trackpoint 2434</name>
            </trkpt>
            <trkpt lat="49.7559808" lon="9.3151056">
                <ele>130.0</ele>
                <time>2020-08-29T10:15:56.000Z</time>
                <name>Trackpoint 2435</name>
            </trkpt>
            <trkpt lat="49.7558944" lon="9.3151648">
                <ele>131.0</ele>
                <time>2020-08-29T10:15:59.000Z</time>
                <name>Trackpoint 2436</name>
            </trkpt>
            <trkpt lat="49.7558048" lon="9.3152288">
                <ele>131.0</ele>
                <time>2020-08-29T10:16:02.000Z</time>
                <name>Trackpoint 2437</name>
            </trkpt>
            <trkpt lat="49.7557216" lon="9.3152904">
                <ele>131.0</ele>
                <time>2020-08-29T10:16:05.000Z</time>
                <name>Trackpoint 2438</name>
            </trkpt>
            <trkpt lat="49.7556448" lon="9.31536">
                <ele>132.0</ele>
                <time>2020-08-29T10:16:08.000Z</time>
                <name>Trackpoint 2439</name>
            </trkpt>
            <trkpt lat="49.7556032" lon="9.3154496">
                <ele>132.0</ele>
                <time>2020-08-29T10:16:11.000Z</time>
                <name>Trackpoint 2440</name>
            </trkpt>
            <trkpt lat="49.7555328" lon="9.3155144">
                <ele>133.0</ele>
                <time>2020-08-29T10:16:13.000Z</time>
                <name>Trackpoint 2441</name>
            </trkpt>
            <trkpt lat="49.7554464" lon="9.315612">
                <ele>133.0</ele>
                <time>2020-08-29T10:16:16.000Z</time>
                <name>Trackpoint 2442</name>
            </trkpt>
            <trkpt lat="49.7553472" lon="9.3157064">
                <ele>133.0</ele>
                <time>2020-08-29T10:16:19.000Z</time>
                <name>Trackpoint 2443</name>
            </trkpt>
            <trkpt lat="49.7552576" lon="9.3158104">
                <ele>133.0</ele>
                <time>2020-08-29T10:16:22.000Z</time>
                <name>Trackpoint 2444</name>
            </trkpt>
            <trkpt lat="49.7551808" lon="9.3159016">
                <ele>133.0</ele>
                <time>2020-08-29T10:16:24.000Z</time>
                <name>Trackpoint 2445</name>
            </trkpt>
            <trkpt lat="49.7550976" lon="9.31598">
                <ele>133.0</ele>
                <time>2020-08-29T10:16:26.000Z</time>
                <name>Trackpoint 2446</name>
            </trkpt>
            <trkpt lat="49.7550208" lon="9.3160632">
                <ele>134.0</ele>
                <time>2020-08-29T10:16:28.000Z</time>
                <name>Trackpoint 2447</name>
            </trkpt>
            <trkpt lat="49.754944" lon="9.3161336">
                <ele>134.0</ele>
                <time>2020-08-29T10:16:30.000Z</time>
                <name>Trackpoint 2448</name>
            </trkpt>
            <trkpt lat="49.7548608" lon="9.3162296">
                <ele>134.0</ele>
                <time>2020-08-29T10:16:32.000Z</time>
                <name>Trackpoint 2449</name>
            </trkpt>
            <trkpt lat="49.754784" lon="9.3163272">
                <ele>135.0</ele>
                <time>2020-08-29T10:16:34.000Z</time>
                <name>Trackpoint 2450</name>
            </trkpt>
            <trkpt lat="49.7547072" lon="9.31642">
                <ele>135.0</ele>
                <time>2020-08-29T10:16:36.000Z</time>
                <name>Trackpoint 2451</name>
            </trkpt>
            <trkpt lat="49.7546304" lon="9.3165104">
                <ele>135.0</ele>
                <time>2020-08-29T10:16:38.000Z</time>
                <name>Trackpoint 2452</name>
            </trkpt>
            <trkpt lat="49.7545472" lon="9.3166128">
                <ele>135.0</ele>
                <time>2020-08-29T10:16:40.000Z</time>
                <name>Trackpoint 2453</name>
            </trkpt>
            <trkpt lat="49.754464" lon="9.3167496">
                <ele>135.0</ele>
                <time>2020-08-29T10:16:42.000Z</time>
                <name>Trackpoint 2454</name>
            </trkpt>
            <trkpt lat="49.7544224" lon="9.3168312">
                <ele>134.0</ele>
                <time>2020-08-29T10:16:43.000Z</time>
                <name>Trackpoint 2455</name>
            </trkpt>
            <trkpt lat="49.7543328" lon="9.3169736">
                <ele>134.0</ele>
                <time>2020-08-29T10:16:45.000Z</time>
                <name>Trackpoint 2456</name>
            </trkpt>
            <trkpt lat="49.7542816" lon="9.3170536">
                <ele>135.0</ele>
                <time>2020-08-29T10:16:46.000Z</time>
                <name>Trackpoint 2457</name>
            </trkpt>
            <trkpt lat="49.7542304" lon="9.3171384">
                <ele>135.0</ele>
                <time>2020-08-29T10:16:47.000Z</time>
                <name>Trackpoint 2458</name>
            </trkpt>
            <trkpt lat="49.7541696" lon="9.3172304">
                <ele>134.0</ele>
                <time>2020-08-29T10:16:48.000Z</time>
                <name>Trackpoint 2459</name>
            </trkpt>
            <trkpt lat="49.7541056" lon="9.3173104">
                <ele>134.0</ele>
                <time>2020-08-29T10:16:49.000Z</time>
                <name>Trackpoint 2460</name>
            </trkpt>
            <trkpt lat="49.7540448" lon="9.3173816">
                <ele>133.0</ele>
                <time>2020-08-29T10:16:50.000Z</time>
                <name>Trackpoint 2461</name>
            </trkpt>
            <trkpt lat="49.7539744" lon="9.3174496">
                <ele>133.0</ele>
                <time>2020-08-29T10:16:51.000Z</time>
                <name>Trackpoint 2462</name>
            </trkpt>
            <trkpt lat="49.7539104" lon="9.3175224">
                <ele>133.0</ele>
                <time>2020-08-29T10:16:52.000Z</time>
                <name>Trackpoint 2463</name>
            </trkpt>
            <trkpt lat="49.7538464" lon="9.3175984">
                <ele>133.0</ele>
                <time>2020-08-29T10:16:53.000Z</time>
                <name>Trackpoint 2464</name>
            </trkpt>
            <trkpt lat="49.753776" lon="9.3176696">
                <ele>133.0</ele>
                <time>2020-08-29T10:16:54.000Z</time>
                <name>Trackpoint 2465</name>
            </trkpt>
            <trkpt lat="49.7536576" lon="9.3177968">
                <ele>132.0</ele>
                <time>2020-08-29T10:16:56.000Z</time>
                <name>Trackpoint 2466</name>
            </trkpt>
            <trkpt lat="49.7535936" lon="9.317868">
                <ele>132.0</ele>
                <time>2020-08-29T10:16:57.000Z</time>
                <name>Trackpoint 2467</name>
            </trkpt>
            <trkpt lat="49.753488" lon="9.3179816">
                <ele>132.0</ele>
                <time>2020-08-29T10:16:59.000Z</time>
                <name>Trackpoint 2468</name>
            </trkpt>
            <trkpt lat="49.7533696" lon="9.3180936">
                <ele>132.0</ele>
                <time>2020-08-29T10:17:01.000Z</time>
                <name>Trackpoint 2469</name>
            </trkpt>
            <trkpt lat="49.7532608" lon="9.3181952">
                <ele>132.0</ele>
                <time>2020-08-29T10:17:03.000Z</time>
                <name>Trackpoint 2470</name>
            </trkpt>
            <trkpt lat="49.7531648" lon="9.3183">
                <ele>132.0</ele>
                <time>2020-08-29T10:17:05.000Z</time>
                <name>Trackpoint 2471</name>
            </trkpt>
            <trkpt lat="49.7530752" lon="9.3183944">
                <ele>132.0</ele>
                <time>2020-08-29T10:17:07.000Z</time>
                <name>Trackpoint 2472</name>
            </trkpt>
            <trkpt lat="49.7529824" lon="9.3184816">
                <ele>132.0</ele>
                <time>2020-08-29T10:17:09.000Z</time>
                <name>Trackpoint 2473</name>
            </trkpt>
            <trkpt lat="49.7529024" lon="9.318568">
                <ele>132.0</ele>
                <time>2020-08-29T10:17:11.000Z</time>
                <name>Trackpoint 2474</name>
            </trkpt>
            <trkpt lat="49.7528256" lon="9.3186712">
                <ele>132.0</ele>
                <time>2020-08-29T10:17:13.000Z</time>
                <name>Trackpoint 2475</name>
            </trkpt>
            <trkpt lat="49.7527456" lon="9.3187616">
                <ele>132.0</ele>
                <time>2020-08-29T10:17:15.000Z</time>
                <name>Trackpoint 2476</name>
            </trkpt>
            <trkpt lat="49.752656" lon="9.3188048">
                <ele>131.0</ele>
                <time>2020-08-29T10:17:17.000Z</time>
                <name>Trackpoint 2477</name>
            </trkpt>
            <trkpt lat="49.7525696" lon="9.3188888">
                <ele>132.0</ele>
                <time>2020-08-29T10:17:19.000Z</time>
                <name>Trackpoint 2478</name>
            </trkpt>
            <trkpt lat="49.7525024" lon="9.3189968">
                <ele>132.0</ele>
                <time>2020-08-29T10:17:21.000Z</time>
                <name>Trackpoint 2479</name>
            </trkpt>
            <trkpt lat="49.7524352" lon="9.3191208">
                <ele>132.0</ele>
                <time>2020-08-29T10:17:23.000Z</time>
                <name>Trackpoint 2480</name>
            </trkpt>
            <trkpt lat="49.7523616" lon="9.3192184">
                <ele>131.0</ele>
                <time>2020-08-29T10:17:25.000Z</time>
                <name>Trackpoint 2481</name>
            </trkpt>
            <trkpt lat="49.752272" lon="9.3193">
                <ele>131.0</ele>
                <time>2020-08-29T10:17:27.000Z</time>
                <name>Trackpoint 2482</name>
            </trkpt>
            <trkpt lat="49.7521856" lon="9.3193976">
                <ele>131.0</ele>
                <time>2020-08-29T10:17:29.000Z</time>
                <name>Trackpoint 2483</name>
            </trkpt>
            <trkpt lat="49.7520864" lon="9.3194848">
                <ele>130.0</ele>
                <time>2020-08-29T10:17:31.000Z</time>
                <name>Trackpoint 2484</name>
            </trkpt>
            <trkpt lat="49.7519872" lon="9.3195584">
                <ele>130.0</ele>
                <time>2020-08-29T10:17:33.000Z</time>
                <name>Trackpoint 2485</name>
            </trkpt>
            <trkpt lat="49.7518848" lon="9.31962">
                <ele>130.0</ele>
                <time>2020-08-29T10:17:35.000Z</time>
                <name>Trackpoint 2486</name>
            </trkpt>
            <trkpt lat="49.7517792" lon="9.3196888">
                <ele>130.0</ele>
                <time>2020-08-29T10:17:37.000Z</time>
                <name>Trackpoint 2487</name>
            </trkpt>
            <trkpt lat="49.75168" lon="9.3197616">
                <ele>130.0</ele>
                <time>2020-08-29T10:17:39.000Z</time>
                <name>Trackpoint 2488</name>
            </trkpt>
            <trkpt lat="49.7515648" lon="9.3198384">
                <ele>130.0</ele>
                <time>2020-08-29T10:17:41.000Z</time>
                <name>Trackpoint 2489</name>
            </trkpt>
            <trkpt lat="49.7514624" lon="9.3199464">
                <ele>130.0</ele>
                <time>2020-08-29T10:17:43.000Z</time>
                <name>Trackpoint 2490</name>
            </trkpt>
            <trkpt lat="49.7513664" lon="9.3200648">
                <ele>130.0</ele>
                <time>2020-08-29T10:17:45.000Z</time>
                <name>Trackpoint 2491</name>
            </trkpt>
            <trkpt lat="49.7512512" lon="9.3201504">
                <ele>130.0</ele>
                <time>2020-08-29T10:17:47.000Z</time>
                <name>Trackpoint 2492</name>
            </trkpt>
            <trkpt lat="49.7511392" lon="9.3202048">
                <ele>130.0</ele>
                <time>2020-08-29T10:17:49.000Z</time>
                <name>Trackpoint 2493</name>
            </trkpt>
            <trkpt lat="49.7510176" lon="9.3202616">
                <ele>130.0</ele>
                <time>2020-08-29T10:17:51.000Z</time>
                <name>Trackpoint 2494</name>
            </trkpt>
            <trkpt lat="49.7509088" lon="9.3203232">
                <ele>130.0</ele>
                <time>2020-08-29T10:17:53.000Z</time>
                <name>Trackpoint 2495</name>
            </trkpt>
            <trkpt lat="49.7508096" lon="9.3203736">
                <ele>130.0</ele>
                <time>2020-08-29T10:17:55.000Z</time>
                <name>Trackpoint 2496</name>
            </trkpt>
            <trkpt lat="49.7506976" lon="9.3204416">
                <ele>130.0</ele>
                <time>2020-08-29T10:17:57.000Z</time>
                <name>Trackpoint 2497</name>
            </trkpt>
            <trkpt lat="49.7505632" lon="9.320508">
                <ele>130.0</ele>
                <time>2020-08-29T10:17:59.000Z</time>
                <name>Trackpoint 2498</name>
            </trkpt>
            <trkpt lat="49.7504576" lon="9.3205536">
                <ele>131.0</ele>
                <time>2020-08-29T10:18:01.000Z</time>
                <name>Trackpoint 2499</name>
            </trkpt>
            <trkpt lat="49.7503456" lon="9.3206128">
                <ele>130.0</ele>
                <time>2020-08-29T10:18:03.000Z</time>
                <name>Trackpoint 2500</name>
            </trkpt>
            <trkpt lat="49.75024" lon="9.3206768">
                <ele>130.0</ele>
                <time>2020-08-29T10:18:05.000Z</time>
                <name>Trackpoint 2501</name>
            </trkpt>
            <trkpt lat="49.7501344" lon="9.3207368">
                <ele>130.0</ele>
                <time>2020-08-29T10:18:07.000Z</time>
                <name>Trackpoint 2502</name>
            </trkpt>
            <trkpt lat="49.7500256" lon="9.320804">
                <ele>130.0</ele>
                <time>2020-08-29T10:18:09.000Z</time>
                <name>Trackpoint 2503</name>
            </trkpt>
            <trkpt lat="49.7499168" lon="9.3208584">
                <ele>130.0</ele>
                <time>2020-08-29T10:18:11.000Z</time>
                <name>Trackpoint 2504</name>
            </trkpt>
            <trkpt lat="49.749808" lon="9.3209">
                <ele>131.0</ele>
                <time>2020-08-29T10:18:13.000Z</time>
                <name>Trackpoint 2505</name>
            </trkpt>
            <trkpt lat="49.7497216" lon="9.3209616">
                <ele>131.0</ele>
                <time>2020-08-29T10:18:15.000Z</time>
                <name>Trackpoint 2506</name>
            </trkpt>
            <trkpt lat="49.7496224" lon="9.3210224">
                <ele>131.0</ele>
                <time>2020-08-29T10:18:17.000Z</time>
                <name>Trackpoint 2507</name>
            </trkpt>
            <trkpt lat="49.749504" lon="9.3210672">
                <ele>131.0</ele>
                <time>2020-08-29T10:18:19.000Z</time>
                <name>Trackpoint 2508</name>
            </trkpt>
            <trkpt lat="49.749408" lon="9.3211248">
                <ele>131.0</ele>
                <time>2020-08-29T10:18:21.000Z</time>
                <name>Trackpoint 2509</name>
            </trkpt>
            <trkpt lat="49.749312" lon="9.321172">
                <ele>131.0</ele>
                <time>2020-08-29T10:18:23.000Z</time>
                <name>Trackpoint 2510</name>
            </trkpt>
            <trkpt lat="49.749232" lon="9.3212216">
                <ele>131.0</ele>
                <time>2020-08-29T10:18:25.000Z</time>
                <name>Trackpoint 2511</name>
            </trkpt>
            <trkpt lat="49.749152" lon="9.3212744">
                <ele>131.0</ele>
                <time>2020-08-29T10:18:27.000Z</time>
                <name>Trackpoint 2512</name>
            </trkpt>
            <trkpt lat="49.7490432" lon="9.3213368">
                <ele>131.0</ele>
                <time>2020-08-29T10:18:30.000Z</time>
                <name>Trackpoint 2513</name>
            </trkpt>
            <trkpt lat="49.7489216" lon="9.3213928">
                <ele>131.0</ele>
                <time>2020-08-29T10:18:33.000Z</time>
                <name>Trackpoint 2514</name>
            </trkpt>
            <trkpt lat="49.7488352" lon="9.3214384">
                <ele>131.0</ele>
                <time>2020-08-29T10:18:35.000Z</time>
                <name>Trackpoint 2515</name>
            </trkpt>
            <trkpt lat="49.748752" lon="9.3214752">
                <ele>131.0</ele>
                <time>2020-08-29T10:18:37.000Z</time>
                <name>Trackpoint 2516</name>
            </trkpt>
            <trkpt lat="49.7486528" lon="9.3215288">
                <ele>131.0</ele>
                <time>2020-08-29T10:18:39.000Z</time>
                <name>Trackpoint 2517</name>
            </trkpt>
            <trkpt lat="49.7485536" lon="9.32158">
                <ele>131.0</ele>
                <time>2020-08-29T10:18:41.000Z</time>
                <name>Trackpoint 2518</name>
            </trkpt>
            <trkpt lat="49.7484512" lon="9.3216112">
                <ele>131.0</ele>
                <time>2020-08-29T10:18:43.000Z</time>
                <name>Trackpoint 2519</name>
            </trkpt>
            <trkpt lat="49.7483456" lon="9.3216536">
                <ele>131.0</ele>
                <time>2020-08-29T10:18:45.000Z</time>
                <name>Trackpoint 2520</name>
            </trkpt>
            <trkpt lat="49.7482336" lon="9.3216896">
                <ele>131.0</ele>
                <time>2020-08-29T10:18:47.000Z</time>
                <name>Trackpoint 2521</name>
            </trkpt>
            <trkpt lat="49.748128" lon="9.3217224">
                <ele>131.0</ele>
                <time>2020-08-29T10:18:49.000Z</time>
                <name>Trackpoint 2522</name>
            </trkpt>
            <trkpt lat="49.7480192" lon="9.3217432">
                <ele>130.0</ele>
                <time>2020-08-29T10:18:51.000Z</time>
                <name>Trackpoint 2523</name>
            </trkpt>
            <trkpt lat="49.7479168" lon="9.3217672">
                <ele>131.0</ele>
                <time>2020-08-29T10:18:53.000Z</time>
                <name>Trackpoint 2524</name>
            </trkpt>
            <trkpt lat="49.7478208" lon="9.3217848">
                <ele>131.0</ele>
                <time>2020-08-29T10:18:55.000Z</time>
                <name>Trackpoint 2525</name>
            </trkpt>
            <trkpt lat="49.7477152" lon="9.3217936">
                <ele>131.0</ele>
                <time>2020-08-29T10:18:58.000Z</time>
                <name>Trackpoint 2526</name>
            </trkpt>
            <trkpt lat="49.7475936" lon="9.3217952">
                <ele>131.0</ele>
                <time>2020-08-29T10:19:01.000Z</time>
                <name>Trackpoint 2527</name>
            </trkpt>
            <trkpt lat="49.7474752" lon="9.3218">
                <ele>131.0</ele>
                <time>2020-08-29T10:19:04.000Z</time>
                <name>Trackpoint 2528</name>
            </trkpt>
            <trkpt lat="49.7473536" lon="9.321808">
                <ele>131.0</ele>
                <time>2020-08-29T10:19:07.000Z</time>
                <name>Trackpoint 2529</name>
            </trkpt>
            <trkpt lat="49.7472224" lon="9.3218168">
                <ele>131.0</ele>
                <time>2020-08-29T10:19:10.000Z</time>
                <name>Trackpoint 2530</name>
            </trkpt>
            <trkpt lat="49.74712" lon="9.3218344">
                <ele>131.0</ele>
                <time>2020-08-29T10:19:12.000Z</time>
                <name>Trackpoint 2531</name>
            </trkpt>
            <trkpt lat="49.7469952" lon="9.32184">
                <ele>131.0</ele>
                <time>2020-08-29T10:19:15.000Z</time>
                <name>Trackpoint 2532</name>
            </trkpt>
            <trkpt lat="49.7469056" lon="9.3218544">
                <ele>131.0</ele>
                <time>2020-08-29T10:19:17.000Z</time>
                <name>Trackpoint 2533</name>
            </trkpt>
            <trkpt lat="49.7468096" lon="9.321868">
                <ele>131.0</ele>
                <time>2020-08-29T10:19:19.000Z</time>
                <name>Trackpoint 2534</name>
            </trkpt>
            <trkpt lat="49.746672" lon="9.3218672">
                <ele>131.0</ele>
                <time>2020-08-29T10:19:22.000Z</time>
                <name>Trackpoint 2535</name>
            </trkpt>
            <trkpt lat="49.7465472" lon="9.321868">
                <ele>131.0</ele>
                <time>2020-08-29T10:19:25.000Z</time>
                <name>Trackpoint 2536</name>
            </trkpt>
            <trkpt lat="49.7464448" lon="9.321868">
                <ele>132.0</ele>
                <time>2020-08-29T10:19:27.000Z</time>
                <name>Trackpoint 2537</name>
            </trkpt>
            <trkpt lat="49.7463456" lon="9.3218448">
                <ele>132.0</ele>
                <time>2020-08-29T10:19:29.000Z</time>
                <name>Trackpoint 2538</name>
            </trkpt>
            <trkpt lat="49.7462112" lon="9.3218">
                <ele>133.0</ele>
                <time>2020-08-29T10:19:32.000Z</time>
                <name>Trackpoint 2539</name>
            </trkpt>
            <trkpt lat="49.7461216" lon="9.3217648">
                <ele>134.0</ele>
                <time>2020-08-29T10:19:34.000Z</time>
                <name>Trackpoint 2540</name>
            </trkpt>
            <trkpt lat="49.7460256" lon="9.321716">
                <ele>134.0</ele>
                <time>2020-08-29T10:19:36.000Z</time>
                <name>Trackpoint 2541</name>
            </trkpt>
            <trkpt lat="49.7459296" lon="9.3216536">
                <ele>133.0</ele>
                <time>2020-08-29T10:19:38.000Z</time>
                <name>Trackpoint 2542</name>
            </trkpt>
            <trkpt lat="49.7458432" lon="9.3215848">
                <ele>133.0</ele>
                <time>2020-08-29T10:19:40.000Z</time>
                <name>Trackpoint 2543</name>
            </trkpt>
            <trkpt lat="49.7457472" lon="9.3215176">
                <ele>133.0</ele>
                <time>2020-08-29T10:19:42.000Z</time>
                <name>Trackpoint 2544</name>
            </trkpt>
            <trkpt lat="49.7456544" lon="9.3214416">
                <ele>133.0</ele>
                <time>2020-08-29T10:19:44.000Z</time>
                <name>Trackpoint 2545</name>
            </trkpt>
            <trkpt lat="49.7455648" lon="9.3213632">
                <ele>133.0</ele>
                <time>2020-08-29T10:19:46.000Z</time>
                <name>Trackpoint 2546</name>
            </trkpt>
            <trkpt lat="49.7454752" lon="9.3212736">
                <ele>133.0</ele>
                <time>2020-08-29T10:19:48.000Z</time>
                <name>Trackpoint 2547</name>
            </trkpt>
            <trkpt lat="49.7453888" lon="9.3212">
                <ele>133.0</ele>
                <time>2020-08-29T10:19:50.000Z</time>
                <name>Trackpoint 2548</name>
            </trkpt>
            <trkpt lat="49.7452928" lon="9.3211568">
                <ele>133.0</ele>
                <time>2020-08-29T10:19:52.000Z</time>
                <name>Trackpoint 2549</name>
            </trkpt>
            <trkpt lat="49.7451936" lon="9.3211832">
                <ele>133.0</ele>
                <time>2020-08-29T10:19:54.000Z</time>
                <name>Trackpoint 2550</name>
            </trkpt>
            <trkpt lat="49.74512" lon="9.321248">
                <ele>133.0</ele>
                <time>2020-08-29T10:19:56.000Z</time>
                <name>Trackpoint 2551</name>
            </trkpt>
            <trkpt lat="49.7450528" lon="9.3213704">
                <ele>133.0</ele>
                <time>2020-08-29T10:19:58.000Z</time>
                <name>Trackpoint 2552</name>
            </trkpt>
            <trkpt lat="49.7449888" lon="9.3215168">
                <ele>133.0</ele>
                <time>2020-08-29T10:20:00.000Z</time>
                <name>Trackpoint 2553</name>
            </trkpt>
            <trkpt lat="49.744928" lon="9.3216816">
                <ele>133.0</ele>
                <time>2020-08-29T10:20:02.000Z</time>
                <name>Trackpoint 2554</name>
            </trkpt>
            <trkpt lat="49.744864" lon="9.3218432">
                <ele>132.0</ele>
                <time>2020-08-29T10:20:04.000Z</time>
                <name>Trackpoint 2555</name>
            </trkpt>
            <trkpt lat="49.7447968" lon="9.3219984">
                <ele>132.0</ele>
                <time>2020-08-29T10:20:06.000Z</time>
                <name>Trackpoint 2556</name>
            </trkpt>
            <trkpt lat="49.7447104" lon="9.3220784">
                <ele>133.0</ele>
                <time>2020-08-29T10:20:08.000Z</time>
                <name>Trackpoint 2557</name>
            </trkpt>
            <trkpt lat="49.744592" lon="9.3219992">
                <ele>132.0</ele>
                <time>2020-08-29T10:20:10.000Z</time>
                <name>Trackpoint 2558</name>
            </trkpt>
            <trkpt lat="49.7445056" lon="9.3218936">
                <ele>131.0</ele>
                <time>2020-08-29T10:20:12.000Z</time>
                <name>Trackpoint 2559</name>
            </trkpt>
            <trkpt lat="49.744432" lon="9.32178">
                <ele>132.0</ele>
                <time>2020-08-29T10:20:14.000Z</time>
                <name>Trackpoint 2560</name>
            </trkpt>
            <trkpt lat="49.7443616" lon="9.3216848">
                <ele>132.0</ele>
                <time>2020-08-29T10:20:16.000Z</time>
                <name>Trackpoint 2561</name>
            </trkpt>
            <trkpt lat="49.7442944" lon="9.3216088">
                <ele>132.0</ele>
                <time>2020-08-29T10:20:18.000Z</time>
                <name>Trackpoint 2562</name>
            </trkpt>
            <trkpt lat="49.74424" lon="9.3215304">
                <ele>132.0</ele>
                <time>2020-08-29T10:20:20.000Z</time>
                <name>Trackpoint 2563</name>
            </trkpt>
            <trkpt lat="49.7441824" lon="9.3214456">
                <ele>132.0</ele>
                <time>2020-08-29T10:20:22.000Z</time>
                <name>Trackpoint 2564</name>
            </trkpt>
            <trkpt lat="49.7441216" lon="9.3213616">
                <ele>132.0</ele>
                <time>2020-08-29T10:20:24.000Z</time>
                <name>Trackpoint 2565</name>
            </trkpt>
            <trkpt lat="49.744064" lon="9.3212784">
                <ele>132.0</ele>
                <time>2020-08-29T10:20:26.000Z</time>
                <name>Trackpoint 2566</name>
            </trkpt>
            <trkpt lat="49.7440032" lon="9.3211968">
                <ele>132.0</ele>
                <time>2020-08-29T10:20:28.000Z</time>
                <name>Trackpoint 2567</name>
            </trkpt>
            <trkpt lat="49.7439488" lon="9.32112">
                <ele>132.0</ele>
                <time>2020-08-29T10:20:30.000Z</time>
                <name>Trackpoint 2568</name>
            </trkpt>
            <trkpt lat="49.7439008" lon="9.3210296">
                <ele>132.0</ele>
                <time>2020-08-29T10:20:32.000Z</time>
                <name>Trackpoint 2569</name>
            </trkpt>
            <trkpt lat="49.7438432" lon="9.3209496">
                <ele>132.0</ele>
                <time>2020-08-29T10:20:34.000Z</time>
                <name>Trackpoint 2570</name>
            </trkpt>
            <trkpt lat="49.743792" lon="9.3208712">
                <ele>132.0</ele>
                <time>2020-08-29T10:20:36.000Z</time>
                <name>Trackpoint 2571</name>
            </trkpt>
            <trkpt lat="49.7437184" lon="9.3207632">
                <ele>132.0</ele>
                <time>2020-08-29T10:20:39.000Z</time>
                <name>Trackpoint 2572</name>
            </trkpt>
            <trkpt lat="49.7436608" lon="9.3206432">
                <ele>132.0</ele>
                <time>2020-08-29T10:20:42.000Z</time>
                <name>Trackpoint 2573</name>
            </trkpt>
            <trkpt lat="49.7436064" lon="9.3205296">
                <ele>132.0</ele>
                <time>2020-08-29T10:20:45.000Z</time>
                <name>Trackpoint 2574</name>
            </trkpt>
            <trkpt lat="49.7435776" lon="9.3204072">
                <ele>132.0</ele>
                <time>2020-08-29T10:20:48.000Z</time>
                <name>Trackpoint 2575</name>
            </trkpt>
            <trkpt lat="49.7434848" lon="9.3203688">
                <ele>133.0</ele>
                <time>2020-08-29T10:20:52.000Z</time>
                <name>Trackpoint 2576</name>
            </trkpt>
            <trkpt lat="49.7434304" lon="9.3204448">
                <ele>133.0</ele>
                <time>2020-08-29T10:20:54.000Z</time>
                <name>Trackpoint 2577</name>
            </trkpt>
            <trkpt lat="49.7433888" lon="9.3205416">
                <ele>133.0</ele>
                <time>2020-08-29T10:20:56.000Z</time>
                <name>Trackpoint 2578</name>
            </trkpt>
            <trkpt lat="49.7433312" lon="9.3206416">
                <ele>133.0</ele>
                <time>2020-08-29T10:20:58.000Z</time>
                <name>Trackpoint 2579</name>
            </trkpt>
            <trkpt lat="49.7432864" lon="9.3207384">
                <ele>133.0</ele>
                <time>2020-08-29T10:21:00.000Z</time>
                <name>Trackpoint 2580</name>
            </trkpt>
            <trkpt lat="49.7432352" lon="9.3208336">
                <ele>134.0</ele>
                <time>2020-08-29T10:21:02.000Z</time>
                <name>Trackpoint 2581</name>
            </trkpt>
            <trkpt lat="49.743184" lon="9.3209352">
                <ele>134.0</ele>
                <time>2020-08-29T10:21:04.000Z</time>
                <name>Trackpoint 2582</name>
            </trkpt>
            <trkpt lat="49.7431328" lon="9.3210352">
                <ele>135.0</ele>
                <time>2020-08-29T10:21:06.000Z</time>
                <name>Trackpoint 2583</name>
            </trkpt>
            <trkpt lat="49.7430816" lon="9.3211296">
                <ele>135.0</ele>
                <time>2020-08-29T10:21:08.000Z</time>
                <name>Trackpoint 2584</name>
            </trkpt>
            <trkpt lat="49.7430368" lon="9.321228">
                <ele>136.0</ele>
                <time>2020-08-29T10:21:10.000Z</time>
                <name>Trackpoint 2585</name>
            </trkpt>
            <trkpt lat="49.7429856" lon="9.321328">
                <ele>136.0</ele>
                <time>2020-08-29T10:21:12.000Z</time>
                <name>Trackpoint 2586</name>
            </trkpt>
            <trkpt lat="49.7429376" lon="9.3214184">
                <ele>137.0</ele>
                <time>2020-08-29T10:21:14.000Z</time>
                <name>Trackpoint 2587</name>
            </trkpt>
            <trkpt lat="49.7428928" lon="9.3215104">
                <ele>136.0</ele>
                <time>2020-08-29T10:21:16.000Z</time>
                <name>Trackpoint 2588</name>
            </trkpt>
            <trkpt lat="49.742848" lon="9.3215984">
                <ele>137.0</ele>
                <time>2020-08-29T10:21:18.000Z</time>
                <name>Trackpoint 2589</name>
            </trkpt>
            <trkpt lat="49.7427872" lon="9.3217136">
                <ele>136.0</ele>
                <time>2020-08-29T10:21:21.000Z</time>
                <name>Trackpoint 2590</name>
            </trkpt>
            <trkpt lat="49.742736" lon="9.3218072">
                <ele>136.0</ele>
                <time>2020-08-29T10:21:24.000Z</time>
                <name>Trackpoint 2591</name>
            </trkpt>
            <trkpt lat="49.742704" lon="9.321892">
                <ele>138.0</ele>
                <time>2020-08-29T10:22:03.000Z</time>
                <name>Trackpoint 2592</name>
            </trkpt>
            <trkpt lat="49.7426496" lon="9.3219984">
                <ele>138.0</ele>
                <time>2020-08-29T10:22:07.000Z</time>
                <name>Trackpoint 2593</name>
            </trkpt>
            <trkpt lat="49.7425952" lon="9.3221128">
                <ele>138.0</ele>
                <time>2020-08-29T10:22:10.000Z</time>
                <name>Trackpoint 2594</name>
            </trkpt>
            <trkpt lat="49.7425504" lon="9.3221928">
                <ele>138.0</ele>
                <time>2020-08-29T10:22:12.000Z</time>
                <name>Trackpoint 2595</name>
            </trkpt>
            <trkpt lat="49.7425056" lon="9.3222888">
                <ele>138.0</ele>
                <time>2020-08-29T10:22:14.000Z</time>
                <name>Trackpoint 2596</name>
            </trkpt>
            <trkpt lat="49.7424576" lon="9.3223864">
                <ele>138.0</ele>
                <time>2020-08-29T10:22:16.000Z</time>
                <name>Trackpoint 2597</name>
            </trkpt>
            <trkpt lat="49.7424096" lon="9.3224896">
                <ele>137.0</ele>
                <time>2020-08-29T10:22:18.000Z</time>
                <name>Trackpoint 2598</name>
            </trkpt>
            <trkpt lat="49.7423552" lon="9.3225944">
                <ele>137.0</ele>
                <time>2020-08-29T10:22:20.000Z</time>
                <name>Trackpoint 2599</name>
            </trkpt>
            <trkpt lat="49.7423072" lon="9.3227064">
                <ele>137.0</ele>
                <time>2020-08-29T10:22:22.000Z</time>
                <name>Trackpoint 2600</name>
            </trkpt>
            <trkpt lat="49.742256" lon="9.3228128">
                <ele>137.0</ele>
                <time>2020-08-29T10:22:24.000Z</time>
                <name>Trackpoint 2601</name>
            </trkpt>
            <trkpt lat="49.742208" lon="9.3229128">
                <ele>137.0</ele>
                <time>2020-08-29T10:22:26.000Z</time>
                <name>Trackpoint 2602</name>
            </trkpt>
            <trkpt lat="49.74216" lon="9.3230152">
                <ele>137.0</ele>
                <time>2020-08-29T10:22:28.000Z</time>
                <name>Trackpoint 2603</name>
            </trkpt>
            <trkpt lat="49.742128" lon="9.32312">
                <ele>138.0</ele>
                <time>2020-08-29T10:22:30.000Z</time>
                <name>Trackpoint 2604</name>
            </trkpt>
            <trkpt lat="49.7420832" lon="9.3232272">
                <ele>138.0</ele>
                <time>2020-08-29T10:22:33.000Z</time>
                <name>Trackpoint 2605</name>
            </trkpt>
            <trkpt lat="49.7419968" lon="9.3232784">
                <ele>139.0</ele>
                <time>2020-08-29T10:22:49.000Z</time>
                <name>Trackpoint 2606</name>
            </trkpt>
            <trkpt lat="49.7418976" lon="9.323272">
                <ele>139.0</ele>
                <time>2020-08-29T10:23:01.000Z</time>
                <name>Trackpoint 2607</name>
            </trkpt>
            <trkpt lat="49.741858" lon="9.3232583">
                <ele>140.0</ele>
                <time>2020-08-29T10:27:32.000Z</time>
                <name>Trackpoint 2610</name>
            </trkpt>
            <trkpt lat="49.741824" lon="9.3232344">
                <ele>140.0</ele>
                <time>2020-08-29T10:28:35.000Z</time>
                <name>Trackpoint 2611</name>
            </trkpt>
            <trkpt lat="49.7417664" lon="9.3231264">
                <ele>140.0</ele>
                <time>2020-08-29T10:28:41.000Z</time>
                <name>Trackpoint 2612</name>
            </trkpt>
            <trkpt lat="49.7417248" lon="9.3230416">
                <ele>140.0</ele>
                <time>2020-08-29T10:28:43.000Z</time>
                <name>Trackpoint 2613</name>
            </trkpt>
            <trkpt lat="49.7416928" lon="9.3229328">
                <ele>140.0</ele>
                <time>2020-08-29T10:28:45.000Z</time>
                <name>Trackpoint 2614</name>
            </trkpt>
            <trkpt lat="49.7416256" lon="9.3228384">
                <ele>140.0</ele>
                <time>2020-08-29T10:28:47.000Z</time>
                <name>Trackpoint 2615</name>
            </trkpt>
            <trkpt lat="49.7415648" lon="9.3227128">
                <ele>140.0</ele>
                <time>2020-08-29T10:28:49.000Z</time>
                <name>Trackpoint 2616</name>
            </trkpt>
            <trkpt lat="49.741488" lon="9.3226072">
                <ele>140.0</ele>
                <time>2020-08-29T10:28:51.000Z</time>
                <name>Trackpoint 2617</name>
            </trkpt>
            <trkpt lat="49.7414016" lon="9.3225344">
                <ele>140.0</ele>
                <time>2020-08-29T10:28:53.000Z</time>
                <name>Trackpoint 2618</name>
            </trkpt>
            <trkpt lat="49.7413184" lon="9.3224472">
                <ele>140.0</ele>
                <time>2020-08-29T10:28:55.000Z</time>
                <name>Trackpoint 2619</name>
            </trkpt>
            <trkpt lat="49.7412544" lon="9.3223488">
                <ele>140.0</ele>
                <time>2020-08-29T10:28:57.000Z</time>
                <name>Trackpoint 2620</name>
            </trkpt>
            <trkpt lat="49.7412064" lon="9.3222712">
                <ele>140.0</ele>
                <time>2020-08-29T10:29:00.000Z</time>
                <name>Trackpoint 2621</name>
            </trkpt>
            <trkpt lat="49.7412832" lon="9.3221768">
                <ele>140.0</ele>
                <time>2020-08-29T10:29:03.000Z</time>
                <name>Trackpoint 2622</name>
            </trkpt>
            <trkpt lat="49.74136" lon="9.3220928">
                <ele>140.0</ele>
                <time>2020-08-29T10:29:06.000Z</time>
                <name>Trackpoint 2623</name>
            </trkpt>
            <trkpt lat="49.741424" lon="9.3219864">
                <ele>140.0</ele>
                <time>2020-08-29T10:29:09.000Z</time>
                <name>Trackpoint 2624</name>
            </trkpt>
            <trkpt lat="49.7414656" lon="9.3218936">
                <ele>140.0</ele>
                <time>2020-08-29T10:29:22.000Z</time>
                <name>Trackpoint 2625</name>
            </trkpt>
            <trkpt lat="49.7414816" lon="9.3217952">
                <ele>140.0</ele>
                <time>2020-08-29T10:29:54.000Z</time>
                <name>Trackpoint 2626</name>
            </trkpt>
            <trkpt lat="49.741424" lon="9.321696">
                <ele>140.0</ele>
                <time>2020-08-29T10:29:58.000Z</time>
                <name>Trackpoint 2627</name>
            </trkpt>
            <trkpt lat="49.7413664" lon="9.3216">
                <ele>140.0</ele>
                <time>2020-08-29T10:30:02.000Z</time>
                <name>Trackpoint 2628</name>
            </trkpt>
            <trkpt lat="49.741296" lon="9.3215152">
                <ele>139.0</ele>
                <time>2020-08-29T10:30:06.000Z</time>
                <name>Trackpoint 2629</name>
            </trkpt>
            <trkpt lat="49.7412288" lon="9.3214">
                <ele>139.0</ele>
                <time>2020-08-29T10:30:09.000Z</time>
                <name>Trackpoint 2630</name>
            </trkpt>
            <trkpt lat="49.7411808" lon="9.3213064">
                <ele>139.0</ele>
                <time>2020-08-29T10:30:11.000Z</time>
                <name>Trackpoint 2631</name>
            </trkpt>
            <trkpt lat="49.7411264" lon="9.3212168">
                <ele>139.0</ele>
                <time>2020-08-29T10:30:13.000Z</time>
                <name>Trackpoint 2632</name>
            </trkpt>
            <trkpt lat="49.7410656" lon="9.3211232">
                <ele>139.0</ele>
                <time>2020-08-29T10:30:15.000Z</time>
                <name>Trackpoint 2633</name>
            </trkpt>
            <trkpt lat="49.7410048" lon="9.3210296">
                <ele>138.0</ele>
                <time>2020-08-29T10:30:17.000Z</time>
                <name>Trackpoint 2634</name>
            </trkpt>
            <trkpt lat="49.7409472" lon="9.3209416">
                <ele>138.0</ele>
                <time>2020-08-29T10:30:19.000Z</time>
                <name>Trackpoint 2635</name>
            </trkpt>
            <trkpt lat="49.7408928" lon="9.3208376">
                <ele>137.0</ele>
                <time>2020-08-29T10:30:21.000Z</time>
                <name>Trackpoint 2636</name>
            </trkpt>
            <trkpt lat="49.7408384" lon="9.3207368">
                <ele>136.0</ele>
                <time>2020-08-29T10:30:23.000Z</time>
                <name>Trackpoint 2637</name>
            </trkpt>
            <trkpt lat="49.7407776" lon="9.3206328">
                <ele>137.0</ele>
                <time>2020-08-29T10:30:25.000Z</time>
                <name>Trackpoint 2638</name>
            </trkpt>
            <trkpt lat="49.74072" lon="9.3205368">
                <ele>137.0</ele>
                <time>2020-08-29T10:30:27.000Z</time>
                <name>Trackpoint 2639</name>
            </trkpt>
            <trkpt lat="49.7406656" lon="9.3204536">
                <ele>137.0</ele>
                <time>2020-08-29T10:30:29.000Z</time>
                <name>Trackpoint 2640</name>
            </trkpt>
            <trkpt lat="49.740624" lon="9.3203624">
                <ele>137.0</ele>
                <time>2020-08-29T10:30:31.000Z</time>
                <name>Trackpoint 2641</name>
            </trkpt>
            <trkpt lat="49.7405888" lon="9.320276">
                <ele>137.0</ele>
                <time>2020-08-29T10:30:33.000Z</time>
                <name>Trackpoint 2642</name>
            </trkpt>
            <trkpt lat="49.7405664" lon="9.32016">
                <ele>137.0</ele>
                <time>2020-08-29T10:30:36.000Z</time>
                <name>Trackpoint 2643</name>
            </trkpt>
            <trkpt lat="49.7405952" lon="9.3200264">
                <ele>137.0</ele>
                <time>2020-08-29T10:30:39.000Z</time>
                <name>Trackpoint 2644</name>
            </trkpt>
            <trkpt lat="49.740624" lon="9.3199056">
                <ele>136.0</ele>
                <time>2020-08-29T10:30:41.000Z</time>
                <name>Trackpoint 2645</name>
            </trkpt>
            <trkpt lat="49.740608" lon="9.3197472">
                <ele>136.0</ele>
                <time>2020-08-29T10:30:43.000Z</time>
                <name>Trackpoint 2646</name>
            </trkpt>
            <trkpt lat="49.74056" lon="9.31958">
                <ele>136.0</ele>
                <time>2020-08-29T10:30:45.000Z</time>
                <name>Trackpoint 2647</name>
            </trkpt>
            <trkpt lat="49.740528" lon="9.3194936">
                <ele>136.0</ele>
                <time>2020-08-29T10:30:46.000Z</time>
                <name>Trackpoint 2648</name>
            </trkpt>
            <trkpt lat="49.7404736" lon="9.319332">
                <ele>136.0</ele>
                <time>2020-08-29T10:30:48.000Z</time>
                <name>Trackpoint 2649</name>
            </trkpt>
            <trkpt lat="49.7404512" lon="9.3192432">
                <ele>136.0</ele>
                <time>2020-08-29T10:30:49.000Z</time>
                <name>Trackpoint 2650</name>
            </trkpt>
            <trkpt lat="49.7404032" lon="9.3190784">
                <ele>136.0</ele>
                <time>2020-08-29T10:30:51.000Z</time>
                <name>Trackpoint 2651</name>
            </trkpt>
            <trkpt lat="49.7403552" lon="9.318916">
                <ele>135.0</ele>
                <time>2020-08-29T10:30:53.000Z</time>
                <name>Trackpoint 2652</name>
            </trkpt>
            <trkpt lat="49.7403168" lon="9.318764">
                <ele>135.0</ele>
                <time>2020-08-29T10:30:55.000Z</time>
                <name>Trackpoint 2653</name>
            </trkpt>
            <trkpt lat="49.7402848" lon="9.3186256">
                <ele>135.0</ele>
                <time>2020-08-29T10:30:57.000Z</time>
                <name>Trackpoint 2654</name>
            </trkpt>
            <trkpt lat="49.7402464" lon="9.3184968">
                <ele>135.0</ele>
                <time>2020-08-29T10:30:59.000Z</time>
                <name>Trackpoint 2655</name>
            </trkpt>
            <trkpt lat="49.740208" lon="9.3183944">
                <ele>135.0</ele>
                <time>2020-08-29T10:31:01.000Z</time>
                <name>Trackpoint 2656</name>
            </trkpt>
            <trkpt lat="49.7401824" lon="9.3183032">
                <ele>134.0</ele>
                <time>2020-08-29T10:31:03.000Z</time>
                <name>Trackpoint 2657</name>
            </trkpt>
            <trkpt lat="49.7401504" lon="9.318216">
                <ele>133.0</ele>
                <time>2020-08-29T10:31:44.000Z</time>
                <name>Trackpoint 2658</name>
            </trkpt>
            <trkpt lat="49.7401088" lon="9.318136">
                <ele>133.0</ele>
                <time>2020-08-29T10:31:46.000Z</time>
                <name>Trackpoint 2659</name>
            </trkpt>
            <trkpt lat="49.7400672" lon="9.3180336">
                <ele>133.0</ele>
                <time>2020-08-29T10:31:48.000Z</time>
                <name>Trackpoint 2660</name>
            </trkpt>
            <trkpt lat="49.7400288" lon="9.3179104">
                <ele>133.0</ele>
                <time>2020-08-29T10:31:50.000Z</time>
                <name>Trackpoint 2661</name>
            </trkpt>
            <trkpt lat="49.7399936" lon="9.3177704">
                <ele>133.0</ele>
                <time>2020-08-29T10:31:52.000Z</time>
                <name>Trackpoint 2662</name>
            </trkpt>
            <trkpt lat="49.7399488" lon="9.317632">
                <ele>133.0</ele>
                <time>2020-08-29T10:31:54.000Z</time>
                <name>Trackpoint 2663</name>
            </trkpt>
            <trkpt lat="49.7398976" lon="9.3174816">
                <ele>133.0</ele>
                <time>2020-08-29T10:31:56.000Z</time>
                <name>Trackpoint 2664</name>
            </trkpt>
            <trkpt lat="49.739856" lon="9.31734">
                <ele>133.0</ele>
                <time>2020-08-29T10:31:58.000Z</time>
                <name>Trackpoint 2665</name>
            </trkpt>
            <trkpt lat="49.7398112" lon="9.3171864">
                <ele>133.0</ele>
                <time>2020-08-29T10:32:00.000Z</time>
                <name>Trackpoint 2666</name>
            </trkpt>
            <trkpt lat="49.7397728" lon="9.3170416">
                <ele>133.0</ele>
                <time>2020-08-29T10:32:02.000Z</time>
                <name>Trackpoint 2667</name>
            </trkpt>
            <trkpt lat="49.7397536" lon="9.3168832">
                <ele>133.0</ele>
                <time>2020-08-29T10:32:04.000Z</time>
                <name>Trackpoint 2668</name>
            </trkpt>
            <trkpt lat="49.7397408" lon="9.3167248">
                <ele>133.0</ele>
                <time>2020-08-29T10:32:06.000Z</time>
                <name>Trackpoint 2669</name>
            </trkpt>
            <trkpt lat="49.7397344" lon="9.3165504">
                <ele>133.0</ele>
                <time>2020-08-29T10:32:08.000Z</time>
                <name>Trackpoint 2670</name>
            </trkpt>
            <trkpt lat="49.7397312" lon="9.3164568">
                <ele>133.0</ele>
                <time>2020-08-29T10:32:09.000Z</time>
                <name>Trackpoint 2671</name>
            </trkpt>
            <trkpt lat="49.7397248" lon="9.3163632">
                <ele>133.0</ele>
                <time>2020-08-29T10:32:10.000Z</time>
                <name>Trackpoint 2672</name>
            </trkpt>
            <trkpt lat="49.7397344" lon="9.3162072">
                <ele>133.0</ele>
                <time>2020-08-29T10:32:12.000Z</time>
                <name>Trackpoint 2673</name>
            </trkpt>
            <trkpt lat="49.7397408" lon="9.3160648">
                <ele>133.0</ele>
                <time>2020-08-29T10:32:14.000Z</time>
                <name>Trackpoint 2674</name>
            </trkpt>
            <trkpt lat="49.7397376" lon="9.3158976">
                <ele>133.0</ele>
                <time>2020-08-29T10:32:16.000Z</time>
                <name>Trackpoint 2675</name>
            </trkpt>
            <trkpt lat="49.7397472" lon="9.31574">
                <ele>133.0</ele>
                <time>2020-08-29T10:32:18.000Z</time>
                <name>Trackpoint 2676</name>
            </trkpt>
            <trkpt lat="49.7397536" lon="9.3155816">
                <ele>133.0</ele>
                <time>2020-08-29T10:32:20.000Z</time>
                <name>Trackpoint 2677</name>
            </trkpt>
            <trkpt lat="49.7397504" lon="9.3154112">
                <ele>133.0</ele>
                <time>2020-08-29T10:32:22.000Z</time>
                <name>Trackpoint 2678</name>
            </trkpt>
            <trkpt lat="49.7397408" lon="9.3152512">
                <ele>133.0</ele>
                <time>2020-08-29T10:32:24.000Z</time>
                <name>Trackpoint 2679</name>
            </trkpt>
            <trkpt lat="49.7397376" lon="9.3150728">
                <ele>133.0</ele>
                <time>2020-08-29T10:32:26.000Z</time>
                <name>Trackpoint 2680</name>
            </trkpt>
            <trkpt lat="49.7397408" lon="9.3149">
                <ele>133.0</ele>
                <time>2020-08-29T10:32:28.000Z</time>
                <name>Trackpoint 2681</name>
            </trkpt>
            <trkpt lat="49.7397536" lon="9.3147296">
                <ele>133.0</ele>
                <time>2020-08-29T10:32:30.000Z</time>
                <name>Trackpoint 2682</name>
            </trkpt>
            <trkpt lat="49.7397504" lon="9.3145736">
                <ele>133.0</ele>
                <time>2020-08-29T10:32:32.000Z</time>
                <name>Trackpoint 2683</name>
            </trkpt>
            <trkpt lat="49.7397536" lon="9.3144216">
                <ele>133.0</ele>
                <time>2020-08-29T10:32:34.000Z</time>
                <name>Trackpoint 2684</name>
            </trkpt>
            <trkpt lat="49.7397408" lon="9.314252">
                <ele>133.0</ele>
                <time>2020-08-29T10:32:36.000Z</time>
                <name>Trackpoint 2685</name>
            </trkpt>
            <trkpt lat="49.73976" lon="9.3140872">
                <ele>133.0</ele>
                <time>2020-08-29T10:32:38.000Z</time>
                <name>Trackpoint 2686</name>
            </trkpt>
            <trkpt lat="49.73976" lon="9.31394">
                <ele>132.0</ele>
                <time>2020-08-29T10:32:40.000Z</time>
                <name>Trackpoint 2687</name>
            </trkpt>
            <trkpt lat="49.7397664" lon="9.3137576">
                <ele>132.0</ele>
                <time>2020-08-29T10:32:42.000Z</time>
                <name>Trackpoint 2688</name>
            </trkpt>
            <trkpt lat="49.7397696" lon="9.3135856">
                <ele>132.0</ele>
                <time>2020-08-29T10:32:44.000Z</time>
                <name>Trackpoint 2689</name>
            </trkpt>
            <trkpt lat="49.7397664" lon="9.31342">
                <ele>132.0</ele>
                <time>2020-08-29T10:32:46.000Z</time>
                <name>Trackpoint 2690</name>
            </trkpt>
            <trkpt lat="49.7397568" lon="9.3132632">
                <ele>132.0</ele>
                <time>2020-08-29T10:32:48.000Z</time>
                <name>Trackpoint 2691</name>
            </trkpt>
            <trkpt lat="49.7397536" lon="9.313104">
                <ele>133.0</ele>
                <time>2020-08-29T10:32:50.000Z</time>
                <name>Trackpoint 2692</name>
            </trkpt>
            <trkpt lat="49.7397664" lon="9.3129368">
                <ele>133.0</ele>
                <time>2020-08-29T10:32:52.000Z</time>
                <name>Trackpoint 2693</name>
            </trkpt>
            <trkpt lat="49.7397728" lon="9.3127768">
                <ele>133.0</ele>
                <time>2020-08-29T10:32:54.000Z</time>
                <name>Trackpoint 2694</name>
            </trkpt>
            <trkpt lat="49.7397792" lon="9.3126072">
                <ele>133.0</ele>
                <time>2020-08-29T10:32:56.000Z</time>
                <name>Trackpoint 2695</name>
            </trkpt>
            <trkpt lat="49.7397984" lon="9.31244">
                <ele>132.0</ele>
                <time>2020-08-29T10:32:58.000Z</time>
                <name>Trackpoint 2696</name>
            </trkpt>
            <trkpt lat="49.739808" lon="9.3122864">
                <ele>133.0</ele>
                <time>2020-08-29T10:33:00.000Z</time>
                <name>Trackpoint 2697</name>
            </trkpt>
            <trkpt lat="49.7398144" lon="9.3121232">
                <ele>132.0</ele>
                <time>2020-08-29T10:33:02.000Z</time>
                <name>Trackpoint 2698</name>
            </trkpt>
            <trkpt lat="49.7398208" lon="9.3119872">
                <ele>132.0</ele>
                <time>2020-08-29T10:33:04.000Z</time>
                <name>Trackpoint 2699</name>
            </trkpt>
            <trkpt lat="49.7398272" lon="9.311836">
                <ele>132.0</ele>
                <time>2020-08-29T10:33:06.000Z</time>
                <name>Trackpoint 2700</name>
            </trkpt>
            <trkpt lat="49.7398176" lon="9.31168">
                <ele>131.0</ele>
                <time>2020-08-29T10:33:08.000Z</time>
                <name>Trackpoint 2701</name>
            </trkpt>
            <trkpt lat="49.7398176" lon="9.3115168">
                <ele>131.0</ele>
                <time>2020-08-29T10:33:10.000Z</time>
                <name>Trackpoint 2702</name>
            </trkpt>
            <trkpt lat="49.7398176" lon="9.311352">
                <ele>131.0</ele>
                <time>2020-08-29T10:33:12.000Z</time>
                <name>Trackpoint 2703</name>
            </trkpt>
            <trkpt lat="49.7398176" lon="9.3111864">
                <ele>131.0</ele>
                <time>2020-08-29T10:33:14.000Z</time>
                <name>Trackpoint 2704</name>
            </trkpt>
            <trkpt lat="49.7398176" lon="9.3110152">
                <ele>131.0</ele>
                <time>2020-08-29T10:33:16.000Z</time>
                <name>Trackpoint 2705</name>
            </trkpt>
            <trkpt lat="49.7398112" lon="9.3108416">
                <ele>130.0</ele>
                <time>2020-08-29T10:33:18.000Z</time>
                <name>Trackpoint 2706</name>
            </trkpt>
            <trkpt lat="49.7398048" lon="9.310672">
                <ele>130.0</ele>
                <time>2020-08-29T10:33:20.000Z</time>
                <name>Trackpoint 2707</name>
            </trkpt>
            <trkpt lat="49.7397952" lon="9.3104984">
                <ele>130.0</ele>
                <time>2020-08-29T10:33:22.000Z</time>
                <name>Trackpoint 2708</name>
            </trkpt>
            <trkpt lat="49.7397792" lon="9.3103288">
                <ele>130.0</ele>
                <time>2020-08-29T10:33:24.000Z</time>
                <name>Trackpoint 2709</name>
            </trkpt>
            <trkpt lat="49.7397664" lon="9.3101616">
                <ele>130.0</ele>
                <time>2020-08-29T10:33:26.000Z</time>
                <name>Trackpoint 2710</name>
            </trkpt>
            <trkpt lat="49.7397664" lon="9.3100016">
                <ele>130.0</ele>
                <time>2020-08-29T10:33:28.000Z</time>
                <name>Trackpoint 2711</name>
            </trkpt>
            <trkpt lat="49.7397664" lon="9.3098352">
                <ele>130.0</ele>
                <time>2020-08-29T10:33:30.000Z</time>
                <name>Trackpoint 2712</name>
            </trkpt>
            <trkpt lat="49.7397536" lon="9.3096736">
                <ele>130.0</ele>
                <time>2020-08-29T10:33:32.000Z</time>
                <name>Trackpoint 2713</name>
            </trkpt>
            <trkpt lat="49.73976" lon="9.3095056">
                <ele>129.0</ele>
                <time>2020-08-29T10:33:34.000Z</time>
                <name>Trackpoint 2714</name>
            </trkpt>
            <trkpt lat="49.73976" lon="9.3093392">
                <ele>129.0</ele>
                <time>2020-08-29T10:33:36.000Z</time>
                <name>Trackpoint 2715</name>
            </trkpt>
            <trkpt lat="49.73976" lon="9.309168">
                <ele>127.0</ele>
                <time>2020-08-29T10:33:38.000Z</time>
                <name>Trackpoint 2716</name>
            </trkpt>
            <trkpt lat="49.7397664" lon="9.3090032">
                <ele>126.0</ele>
                <time>2020-08-29T10:33:40.000Z</time>
                <name>Trackpoint 2717</name>
            </trkpt>
            <trkpt lat="49.7397696" lon="9.3088352">
                <ele>126.0</ele>
                <time>2020-08-29T10:33:42.000Z</time>
                <name>Trackpoint 2718</name>
            </trkpt>
            <trkpt lat="49.7397728" lon="9.308668">
                <ele>127.0</ele>
                <time>2020-08-29T10:33:44.000Z</time>
                <name>Trackpoint 2719</name>
            </trkpt>
            <trkpt lat="49.7397696" lon="9.3085096">
                <ele>127.0</ele>
                <time>2020-08-29T10:33:46.000Z</time>
                <name>Trackpoint 2720</name>
            </trkpt>
            <trkpt lat="49.7397696" lon="9.3083448">
                <ele>127.0</ele>
                <time>2020-08-29T10:33:48.000Z</time>
                <name>Trackpoint 2721</name>
            </trkpt>
            <trkpt lat="49.7397696" lon="9.3081904">
                <ele>127.0</ele>
                <time>2020-08-29T10:33:50.000Z</time>
                <name>Trackpoint 2722</name>
            </trkpt>
            <trkpt lat="49.7397696" lon="9.308028">
                <ele>127.0</ele>
                <time>2020-08-29T10:33:52.000Z</time>
                <name>Trackpoint 2723</name>
            </trkpt>
            <trkpt lat="49.7397664" lon="9.307872">
                <ele>126.0</ele>
                <time>2020-08-29T10:33:54.000Z</time>
                <name>Trackpoint 2724</name>
            </trkpt>
            <trkpt lat="49.7397504" lon="9.307716">
                <ele>127.0</ele>
                <time>2020-08-29T10:33:56.000Z</time>
                <name>Trackpoint 2725</name>
            </trkpt>
            <trkpt lat="49.7397472" lon="9.3075552">
                <ele>127.0</ele>
                <time>2020-08-29T10:33:58.000Z</time>
                <name>Trackpoint 2726</name>
            </trkpt>
            <trkpt lat="49.7397376" lon="9.3074016">
                <ele>126.0</ele>
                <time>2020-08-29T10:34:00.000Z</time>
                <name>Trackpoint 2727</name>
            </trkpt>
            <trkpt lat="49.7397472" lon="9.3072528">
                <ele>126.0</ele>
                <time>2020-08-29T10:34:02.000Z</time>
                <name>Trackpoint 2728</name>
            </trkpt>
            <trkpt lat="49.7397472" lon="9.3071016">
                <ele>126.0</ele>
                <time>2020-08-29T10:34:04.000Z</time>
                <name>Trackpoint 2729</name>
            </trkpt>
            <trkpt lat="49.7397504" lon="9.3069512">
                <ele>126.0</ele>
                <time>2020-08-29T10:34:06.000Z</time>
                <name>Trackpoint 2730</name>
            </trkpt>
            <trkpt lat="49.7397504" lon="9.3067904">
                <ele>125.0</ele>
                <time>2020-08-29T10:34:08.000Z</time>
                <name>Trackpoint 2731</name>
            </trkpt>
            <trkpt lat="49.73976" lon="9.30664">
                <ele>125.0</ele>
                <time>2020-08-29T10:34:10.000Z</time>
                <name>Trackpoint 2732</name>
            </trkpt>
            <trkpt lat="49.739776" lon="9.3064872">
                <ele>125.0</ele>
                <time>2020-08-29T10:34:12.000Z</time>
                <name>Trackpoint 2733</name>
            </trkpt>
            <trkpt lat="49.739792" lon="9.3063296">
                <ele>126.0</ele>
                <time>2020-08-29T10:34:14.000Z</time>
                <name>Trackpoint 2734</name>
            </trkpt>
            <trkpt lat="49.7398048" lon="9.3061736">
                <ele>126.0</ele>
                <time>2020-08-29T10:34:16.000Z</time>
                <name>Trackpoint 2735</name>
            </trkpt>
            <trkpt lat="49.7398208" lon="9.3060152">
                <ele>126.0</ele>
                <time>2020-08-29T10:34:18.000Z</time>
                <name>Trackpoint 2736</name>
            </trkpt>
            <trkpt lat="49.7398368" lon="9.3058592">
                <ele>126.0</ele>
                <time>2020-08-29T10:34:20.000Z</time>
                <name>Trackpoint 2737</name>
            </trkpt>
            <trkpt lat="49.7398528" lon="9.3056984">
                <ele>127.0</ele>
                <time>2020-08-29T10:34:22.000Z</time>
                <name>Trackpoint 2738</name>
            </trkpt>
            <trkpt lat="49.7398656" lon="9.3055384">
                <ele>127.0</ele>
                <time>2020-08-29T10:34:24.000Z</time>
                <name>Trackpoint 2739</name>
            </trkpt>
            <trkpt lat="49.7398848" lon="9.305384">
                <ele>126.0</ele>
                <time>2020-08-29T10:34:26.000Z</time>
                <name>Trackpoint 2740</name>
            </trkpt>
            <trkpt lat="49.7398976" lon="9.3052264">
                <ele>127.0</ele>
                <time>2020-08-29T10:34:28.000Z</time>
                <name>Trackpoint 2741</name>
            </trkpt>
            <trkpt lat="49.73992" lon="9.3050736">
                <ele>127.0</ele>
                <time>2020-08-29T10:34:30.000Z</time>
                <name>Trackpoint 2742</name>
            </trkpt>
            <trkpt lat="49.739936" lon="9.3049224">
                <ele>126.0</ele>
                <time>2020-08-29T10:34:32.000Z</time>
                <name>Trackpoint 2743</name>
            </trkpt>
            <trkpt lat="49.7399584" lon="9.3047648">
                <ele>126.0</ele>
                <time>2020-08-29T10:34:34.000Z</time>
                <name>Trackpoint 2744</name>
            </trkpt>
            <trkpt lat="49.7399744" lon="9.3046112">
                <ele>125.0</ele>
                <time>2020-08-29T10:34:36.000Z</time>
                <name>Trackpoint 2745</name>
            </trkpt>
            <trkpt lat="49.7399904" lon="9.3044616">
                <ele>125.0</ele>
                <time>2020-08-29T10:34:38.000Z</time>
                <name>Trackpoint 2746</name>
            </trkpt>
            <trkpt lat="49.7400032" lon="9.3043032">
                <ele>125.0</ele>
                <time>2020-08-29T10:34:40.000Z</time>
                <name>Trackpoint 2747</name>
            </trkpt>
            <trkpt lat="49.740016" lon="9.3041448">
                <ele>124.0</ele>
                <time>2020-08-29T10:34:42.000Z</time>
                <name>Trackpoint 2748</name>
            </trkpt>
            <trkpt lat="49.740032" lon="9.3039888">
                <ele>125.0</ele>
                <time>2020-08-29T10:34:44.000Z</time>
                <name>Trackpoint 2749</name>
            </trkpt>
            <trkpt lat="49.740048" lon="9.3038328">
                <ele>125.0</ele>
                <time>2020-08-29T10:34:46.000Z</time>
                <name>Trackpoint 2750</name>
            </trkpt>
            <trkpt lat="49.7400576" lon="9.3036768">
                <ele>125.0</ele>
                <time>2020-08-29T10:34:48.000Z</time>
                <name>Trackpoint 2751</name>
            </trkpt>
            <trkpt lat="49.7400736" lon="9.3035224">
                <ele>126.0</ele>
                <time>2020-08-29T10:34:50.000Z</time>
                <name>Trackpoint 2752</name>
            </trkpt>
            <trkpt lat="49.7400832" lon="9.3033688">
                <ele>127.0</ele>
                <time>2020-08-29T10:34:52.000Z</time>
                <name>Trackpoint 2753</name>
            </trkpt>
            <trkpt lat="49.7400928" lon="9.3032176">
                <ele>127.0</ele>
                <time>2020-08-29T10:34:54.000Z</time>
                <name>Trackpoint 2754</name>
            </trkpt>
            <trkpt lat="49.7401088" lon="9.3030632">
                <ele>127.0</ele>
                <time>2020-08-29T10:34:56.000Z</time>
                <name>Trackpoint 2755</name>
            </trkpt>
            <trkpt lat="49.7401184" lon="9.3029096">
                <ele>127.0</ele>
                <time>2020-08-29T10:34:58.000Z</time>
                <name>Trackpoint 2756</name>
            </trkpt>
            <trkpt lat="49.7401344" lon="9.302756">
                <ele>127.0</ele>
                <time>2020-08-29T10:35:00.000Z</time>
                <name>Trackpoint 2757</name>
            </trkpt>
            <trkpt lat="49.740144" lon="9.302604">
                <ele>127.0</ele>
                <time>2020-08-29T10:35:02.000Z</time>
                <name>Trackpoint 2758</name>
            </trkpt>
            <trkpt lat="49.7401472" lon="9.302452">
                <ele>127.0</ele>
                <time>2020-08-29T10:35:04.000Z</time>
                <name>Trackpoint 2759</name>
            </trkpt>
            <trkpt lat="49.7401536" lon="9.3022936">
                <ele>127.0</ele>
                <time>2020-08-29T10:35:06.000Z</time>
                <name>Trackpoint 2760</name>
            </trkpt>
            <trkpt lat="49.7401504" lon="9.302132">
                <ele>126.0</ele>
                <time>2020-08-29T10:35:08.000Z</time>
                <name>Trackpoint 2761</name>
            </trkpt>
            <trkpt lat="49.7401568" lon="9.30198">
                <ele>126.0</ele>
                <time>2020-08-29T10:35:10.000Z</time>
                <name>Trackpoint 2762</name>
            </trkpt>
            <trkpt lat="49.7401568" lon="9.3018304">
                <ele>125.0</ele>
                <time>2020-08-29T10:35:12.000Z</time>
                <name>Trackpoint 2763</name>
            </trkpt>
            <trkpt lat="49.7401536" lon="9.301672">
                <ele>125.0</ele>
                <time>2020-08-29T10:35:14.000Z</time>
                <name>Trackpoint 2764</name>
            </trkpt>
            <trkpt lat="49.7401536" lon="9.3015136">
                <ele>126.0</ele>
                <time>2020-08-29T10:35:16.000Z</time>
                <name>Trackpoint 2765</name>
            </trkpt>
            <trkpt lat="49.7401568" lon="9.3013552">
                <ele>126.0</ele>
                <time>2020-08-29T10:35:18.000Z</time>
                <name>Trackpoint 2766</name>
            </trkpt>
            <trkpt lat="49.7401632" lon="9.3012016">
                <ele>126.0</ele>
                <time>2020-08-29T10:35:20.000Z</time>
                <name>Trackpoint 2767</name>
            </trkpt>
            <trkpt lat="49.7401568" lon="9.3010416">
                <ele>126.0</ele>
                <time>2020-08-29T10:35:22.000Z</time>
                <name>Trackpoint 2768</name>
            </trkpt>
            <trkpt lat="49.7401536" lon="9.300888">
                <ele>126.0</ele>
                <time>2020-08-29T10:35:24.000Z</time>
                <name>Trackpoint 2769</name>
            </trkpt>
            <trkpt lat="49.7401536" lon="9.3007368">
                <ele>126.0</ele>
                <time>2020-08-29T10:35:26.000Z</time>
                <name>Trackpoint 2770</name>
            </trkpt>
            <trkpt lat="49.7401472" lon="9.3005896">
                <ele>127.0</ele>
                <time>2020-08-29T10:35:28.000Z</time>
                <name>Trackpoint 2771</name>
            </trkpt>
            <trkpt lat="49.7401344" lon="9.3004416">
                <ele>128.0</ele>
                <time>2020-08-29T10:35:30.000Z</time>
                <name>Trackpoint 2772</name>
            </trkpt>
            <trkpt lat="49.7401248" lon="9.3002952">
                <ele>128.0</ele>
                <time>2020-08-29T10:35:32.000Z</time>
                <name>Trackpoint 2773</name>
            </trkpt>
            <trkpt lat="49.7401088" lon="9.3001368">
                <ele>128.0</ele>
                <time>2020-08-29T10:35:34.000Z</time>
                <name>Trackpoint 2774</name>
            </trkpt>
            <trkpt lat="49.740096" lon="9.2999872">
                <ele>129.0</ele>
                <time>2020-08-29T10:35:36.000Z</time>
                <name>Trackpoint 2775</name>
            </trkpt>
            <trkpt lat="49.7400864" lon="9.2998352">
                <ele>129.0</ele>
                <time>2020-08-29T10:35:38.000Z</time>
                <name>Trackpoint 2776</name>
            </trkpt>
            <trkpt lat="49.7400736" lon="9.2996816">
                <ele>129.0</ele>
                <time>2020-08-29T10:35:40.000Z</time>
                <name>Trackpoint 2777</name>
            </trkpt>
            <trkpt lat="49.740064" lon="9.299528">
                <ele>129.0</ele>
                <time>2020-08-29T10:35:42.000Z</time>
                <name>Trackpoint 2778</name>
            </trkpt>
            <trkpt lat="49.7400512" lon="9.2993744">
                <ele>129.0</ele>
                <time>2020-08-29T10:35:44.000Z</time>
                <name>Trackpoint 2779</name>
            </trkpt>
            <trkpt lat="49.7400448" lon="9.29922">
                <ele>128.0</ele>
                <time>2020-08-29T10:35:46.000Z</time>
                <name>Trackpoint 2780</name>
            </trkpt>
            <trkpt lat="49.7400352" lon="9.2990648">
                <ele>128.0</ele>
                <time>2020-08-29T10:35:48.000Z</time>
                <name>Trackpoint 2781</name>
            </trkpt>
            <trkpt lat="49.7400288" lon="9.2989128">
                <ele>128.0</ele>
                <time>2020-08-29T10:35:50.000Z</time>
                <name>Trackpoint 2782</name>
            </trkpt>
            <trkpt lat="49.7400288" lon="9.2987584">
                <ele>127.0</ele>
                <time>2020-08-29T10:35:52.000Z</time>
                <name>Trackpoint 2783</name>
            </trkpt>
            <trkpt lat="49.7400448" lon="9.2986088">
                <ele>127.0</ele>
                <time>2020-08-29T10:35:54.000Z</time>
                <name>Trackpoint 2784</name>
            </trkpt>
            <trkpt lat="49.7400672" lon="9.29846">
                <ele>128.0</ele>
                <time>2020-08-29T10:35:56.000Z</time>
                <name>Trackpoint 2785</name>
            </trkpt>
            <trkpt lat="49.7400768" lon="9.298308">
                <ele>127.0</ele>
                <time>2020-08-29T10:35:58.000Z</time>
                <name>Trackpoint 2786</name>
            </trkpt>
            <trkpt lat="49.7400736" lon="9.2981568">
                <ele>127.0</ele>
                <time>2020-08-29T10:36:00.000Z</time>
                <name>Trackpoint 2787</name>
            </trkpt>
            <trkpt lat="49.740064" lon="9.298008">
                <ele>126.0</ele>
                <time>2020-08-29T10:36:02.000Z</time>
                <name>Trackpoint 2788</name>
            </trkpt>
            <trkpt lat="49.7400512" lon="9.297856">
                <ele>126.0</ele>
                <time>2020-08-29T10:36:04.000Z</time>
                <name>Trackpoint 2789</name>
            </trkpt>
            <trkpt lat="49.7400448" lon="9.2977104">
                <ele>126.0</ele>
                <time>2020-08-29T10:36:06.000Z</time>
                <name>Trackpoint 2790</name>
            </trkpt>
            <trkpt lat="49.740032" lon="9.2975656">
                <ele>127.0</ele>
                <time>2020-08-29T10:36:08.000Z</time>
                <name>Trackpoint 2791</name>
            </trkpt>
            <trkpt lat="49.7400256" lon="9.2974144">
                <ele>127.0</ele>
                <time>2020-08-29T10:36:10.000Z</time>
                <name>Trackpoint 2792</name>
            </trkpt>
            <trkpt lat="49.7400128" lon="9.2972632">
                <ele>127.0</ele>
                <time>2020-08-29T10:36:12.000Z</time>
                <name>Trackpoint 2793</name>
            </trkpt>
            <trkpt lat="49.7400032" lon="9.2971136">
                <ele>128.0</ele>
                <time>2020-08-29T10:36:14.000Z</time>
                <name>Trackpoint 2794</name>
            </trkpt>
            <trkpt lat="49.7399904" lon="9.296964">
                <ele>128.0</ele>
                <time>2020-08-29T10:36:16.000Z</time>
                <name>Trackpoint 2795</name>
            </trkpt>
            <trkpt lat="49.7399872" lon="9.296812">
                <ele>129.0</ele>
                <time>2020-08-29T10:36:18.000Z</time>
                <name>Trackpoint 2796</name>
            </trkpt>
            <trkpt lat="49.7399712" lon="9.2966616">
                <ele>129.0</ele>
                <time>2020-08-29T10:36:20.000Z</time>
                <name>Trackpoint 2797</name>
            </trkpt>
            <trkpt lat="49.7399392" lon="9.2965232">
                <ele>130.0</ele>
                <time>2020-08-29T10:36:22.000Z</time>
                <name>Trackpoint 2798</name>
            </trkpt>
            <trkpt lat="49.7398944" lon="9.2963832">
                <ele>129.0</ele>
                <time>2020-08-29T10:36:24.000Z</time>
                <name>Trackpoint 2799</name>
            </trkpt>
            <trkpt lat="49.7398464" lon="9.2962448">
                <ele>130.0</ele>
                <time>2020-08-29T10:36:26.000Z</time>
                <name>Trackpoint 2800</name>
            </trkpt>
            <trkpt lat="49.7397952" lon="9.2961128">
                <ele>129.0</ele>
                <time>2020-08-29T10:36:28.000Z</time>
                <name>Trackpoint 2801</name>
            </trkpt>
            <trkpt lat="49.7397568" lon="9.2959744">
                <ele>129.0</ele>
                <time>2020-08-29T10:36:30.000Z</time>
                <name>Trackpoint 2802</name>
            </trkpt>
            <trkpt lat="49.7397248" lon="9.2958296">
                <ele>128.0</ele>
                <time>2020-08-29T10:36:32.000Z</time>
                <name>Trackpoint 2803</name>
            </trkpt>
            <trkpt lat="49.739696" lon="9.2956816">
                <ele>128.0</ele>
                <time>2020-08-29T10:36:34.000Z</time>
                <name>Trackpoint 2804</name>
            </trkpt>
            <trkpt lat="49.7396704" lon="9.2955304">
                <ele>128.0</ele>
                <time>2020-08-29T10:36:36.000Z</time>
                <name>Trackpoint 2805</name>
            </trkpt>
            <trkpt lat="49.7396416" lon="9.2953752">
                <ele>128.0</ele>
                <time>2020-08-29T10:36:38.000Z</time>
                <name>Trackpoint 2806</name>
            </trkpt>
            <trkpt lat="49.7396192" lon="9.2952216">
                <ele>128.0</ele>
                <time>2020-08-29T10:36:40.000Z</time>
                <name>Trackpoint 2807</name>
            </trkpt>
            <trkpt lat="49.7395968" lon="9.2950696">
                <ele>128.0</ele>
                <time>2020-08-29T10:36:42.000Z</time>
                <name>Trackpoint 2808</name>
            </trkpt>
            <trkpt lat="49.7395872" lon="9.2949136">
                <ele>128.0</ele>
                <time>2020-08-29T10:36:44.000Z</time>
                <name>Trackpoint 2809</name>
            </trkpt>
            <trkpt lat="49.7395744" lon="9.2947584">
                <ele>128.0</ele>
                <time>2020-08-29T10:36:46.000Z</time>
                <name>Trackpoint 2810</name>
            </trkpt>
            <trkpt lat="49.739568" lon="9.2946016">
                <ele>128.0</ele>
                <time>2020-08-29T10:36:48.000Z</time>
                <name>Trackpoint 2811</name>
            </trkpt>
            <trkpt lat="49.7395584" lon="9.2944448">
                <ele>128.0</ele>
                <time>2020-08-29T10:36:50.000Z</time>
                <name>Trackpoint 2812</name>
            </trkpt>
            <trkpt lat="49.7395616" lon="9.2942864">
                <ele>128.0</ele>
                <time>2020-08-29T10:36:52.000Z</time>
                <name>Trackpoint 2813</name>
            </trkpt>
            <trkpt lat="49.7395712" lon="9.2941304">
                <ele>128.0</ele>
                <time>2020-08-29T10:36:54.000Z</time>
                <name>Trackpoint 2814</name>
            </trkpt>
            <trkpt lat="49.7395808" lon="9.293972">
                <ele>129.0</ele>
                <time>2020-08-29T10:36:56.000Z</time>
                <name>Trackpoint 2815</name>
            </trkpt>
            <trkpt lat="49.7396064" lon="9.2938168">
                <ele>129.0</ele>
                <time>2020-08-29T10:36:58.000Z</time>
                <name>Trackpoint 2816</name>
            </trkpt>
            <trkpt lat="49.7396352" lon="9.2936584">
                <ele>130.0</ele>
                <time>2020-08-29T10:37:00.000Z</time>
                <name>Trackpoint 2817</name>
            </trkpt>
            <trkpt lat="49.7396608" lon="9.2935">
                <ele>130.0</ele>
                <time>2020-08-29T10:37:02.000Z</time>
                <name>Trackpoint 2818</name>
            </trkpt>
            <trkpt lat="49.7396928" lon="9.293348">
                <ele>130.0</ele>
                <time>2020-08-29T10:37:04.000Z</time>
                <name>Trackpoint 2819</name>
            </trkpt>
            <trkpt lat="49.7397184" lon="9.2931928">
                <ele>130.0</ele>
                <time>2020-08-29T10:37:06.000Z</time>
                <name>Trackpoint 2820</name>
            </trkpt>
            <trkpt lat="49.7397504" lon="9.2930448">
                <ele>130.0</ele>
                <time>2020-08-29T10:37:08.000Z</time>
                <name>Trackpoint 2821</name>
            </trkpt>
            <trkpt lat="49.7397792" lon="9.2928936">
                <ele>129.0</ele>
                <time>2020-08-29T10:37:10.000Z</time>
                <name>Trackpoint 2822</name>
            </trkpt>
            <trkpt lat="49.7398112" lon="9.2927416">
                <ele>129.0</ele>
                <time>2020-08-29T10:37:12.000Z</time>
                <name>Trackpoint 2823</name>
            </trkpt>
            <trkpt lat="49.73984" lon="9.292588">
                <ele>129.0</ele>
                <time>2020-08-29T10:37:14.000Z</time>
                <name>Trackpoint 2824</name>
            </trkpt>
            <trkpt lat="49.7398656" lon="9.2924336">
                <ele>129.0</ele>
                <time>2020-08-29T10:37:16.000Z</time>
                <name>Trackpoint 2825</name>
            </trkpt>
            <trkpt lat="49.739888" lon="9.2922824">
                <ele>129.0</ele>
                <time>2020-08-29T10:37:18.000Z</time>
                <name>Trackpoint 2826</name>
            </trkpt>
            <trkpt lat="49.7399104" lon="9.292136">
                <ele>129.0</ele>
                <time>2020-08-29T10:37:20.000Z</time>
                <name>Trackpoint 2827</name>
            </trkpt>
            <trkpt lat="49.7399296" lon="9.291988">
                <ele>130.0</ele>
                <time>2020-08-29T10:37:22.000Z</time>
                <name>Trackpoint 2828</name>
            </trkpt>
            <trkpt lat="49.739952" lon="9.2918464">
                <ele>130.0</ele>
                <time>2020-08-29T10:37:24.000Z</time>
                <name>Trackpoint 2829</name>
            </trkpt>
            <trkpt lat="49.739984" lon="9.2917">
                <ele>130.0</ele>
                <time>2020-08-29T10:37:26.000Z</time>
                <name>Trackpoint 2830</name>
            </trkpt>
            <trkpt lat="49.7399968" lon="9.29156">
                <ele>130.0</ele>
                <time>2020-08-29T10:37:28.000Z</time>
                <name>Trackpoint 2831</name>
            </trkpt>
            <trkpt lat="49.7400192" lon="9.2914168">
                <ele>131.0</ele>
                <time>2020-08-29T10:37:30.000Z</time>
                <name>Trackpoint 2832</name>
            </trkpt>
            <trkpt lat="49.740048" lon="9.2912712">
                <ele>131.0</ele>
                <time>2020-08-29T10:37:32.000Z</time>
                <name>Trackpoint 2833</name>
            </trkpt>
            <trkpt lat="49.7400704" lon="9.2911256">
                <ele>131.0</ele>
                <time>2020-08-29T10:37:34.000Z</time>
                <name>Trackpoint 2834</name>
            </trkpt>
            <trkpt lat="49.740096" lon="9.2909832">
                <ele>131.0</ele>
                <time>2020-08-29T10:37:36.000Z</time>
                <name>Trackpoint 2835</name>
            </trkpt>
            <trkpt lat="49.7401376" lon="9.290836">
                <ele>131.0</ele>
                <time>2020-08-29T10:37:38.000Z</time>
                <name>Trackpoint 2836</name>
            </trkpt>
            <trkpt lat="49.740176" lon="9.2906912">
                <ele>131.0</ele>
                <time>2020-08-29T10:37:40.000Z</time>
                <name>Trackpoint 2837</name>
            </trkpt>
            <trkpt lat="49.740224" lon="9.290548">
                <ele>131.0</ele>
                <time>2020-08-29T10:37:42.000Z</time>
                <name>Trackpoint 2838</name>
            </trkpt>
            <trkpt lat="49.7402688" lon="9.2903992">
                <ele>131.0</ele>
                <time>2020-08-29T10:37:44.000Z</time>
                <name>Trackpoint 2839</name>
            </trkpt>
            <trkpt lat="49.7403168" lon="9.2902472">
                <ele>131.0</ele>
                <time>2020-08-29T10:37:46.000Z</time>
                <name>Trackpoint 2840</name>
            </trkpt>
            <trkpt lat="49.7403712" lon="9.2900912">
                <ele>130.0</ele>
                <time>2020-08-29T10:37:48.000Z</time>
                <name>Trackpoint 2841</name>
            </trkpt>
            <trkpt lat="49.7404256" lon="9.2899312">
                <ele>130.0</ele>
                <time>2020-08-29T10:37:50.000Z</time>
                <name>Trackpoint 2842</name>
            </trkpt>
            <trkpt lat="49.7404736" lon="9.2897616">
                <ele>129.0</ele>
                <time>2020-08-29T10:37:52.000Z</time>
                <name>Trackpoint 2843</name>
            </trkpt>
            <trkpt lat="49.7405248" lon="9.2895936">
                <ele>129.0</ele>
                <time>2020-08-29T10:37:54.000Z</time>
                <name>Trackpoint 2844</name>
            </trkpt>
            <trkpt lat="49.7405696" lon="9.2894232">
                <ele>129.0</ele>
                <time>2020-08-29T10:37:56.000Z</time>
                <name>Trackpoint 2845</name>
            </trkpt>
            <trkpt lat="49.7405888" lon="9.2893352">
                <ele>129.0</ele>
                <time>2020-08-29T10:37:57.000Z</time>
                <name>Trackpoint 2846</name>
            </trkpt>
            <trkpt lat="49.740624" lon="9.2891648">
                <ele>128.0</ele>
                <time>2020-08-29T10:37:59.000Z</time>
                <name>Trackpoint 2847</name>
            </trkpt>
            <trkpt lat="49.7406496" lon="9.2889944">
                <ele>128.0</ele>
                <time>2020-08-29T10:38:01.000Z</time>
                <name>Trackpoint 2848</name>
            </trkpt>
            <trkpt lat="49.7406688" lon="9.288828">
                <ele>128.0</ele>
                <time>2020-08-29T10:38:03.000Z</time>
                <name>Trackpoint 2849</name>
            </trkpt>
            <trkpt lat="49.7406912" lon="9.2886648">
                <ele>127.0</ele>
                <time>2020-08-29T10:38:05.000Z</time>
                <name>Trackpoint 2850</name>
            </trkpt>
            <trkpt lat="49.7407104" lon="9.2885088">
                <ele>127.0</ele>
                <time>2020-08-29T10:38:07.000Z</time>
                <name>Trackpoint 2851</name>
            </trkpt>
            <trkpt lat="49.7407264" lon="9.2883568">
                <ele>127.0</ele>
                <time>2020-08-29T10:38:09.000Z</time>
                <name>Trackpoint 2852</name>
            </trkpt>
            <trkpt lat="49.7407456" lon="9.288208">
                <ele>127.0</ele>
                <time>2020-08-29T10:38:11.000Z</time>
                <name>Trackpoint 2853</name>
            </trkpt>
            <trkpt lat="49.7407616" lon="9.288056">
                <ele>127.0</ele>
                <time>2020-08-29T10:38:13.000Z</time>
                <name>Trackpoint 2854</name>
            </trkpt>
            <trkpt lat="49.740784" lon="9.2879048">
                <ele>126.0</ele>
                <time>2020-08-29T10:38:15.000Z</time>
                <name>Trackpoint 2855</name>
            </trkpt>
            <trkpt lat="49.7408" lon="9.2877528">
                <ele>126.0</ele>
                <time>2020-08-29T10:38:17.000Z</time>
                <name>Trackpoint 2856</name>
            </trkpt>
            <trkpt lat="49.7408192" lon="9.2876032">
                <ele>125.0</ele>
                <time>2020-08-29T10:38:19.000Z</time>
                <name>Trackpoint 2857</name>
            </trkpt>
            <trkpt lat="49.7408256" lon="9.2874544">
                <ele>126.0</ele>
                <time>2020-08-29T10:38:21.000Z</time>
                <name>Trackpoint 2858</name>
            </trkpt>
            <trkpt lat="49.740832" lon="9.2873032">
                <ele>125.0</ele>
                <time>2020-08-29T10:38:23.000Z</time>
                <name>Trackpoint 2859</name>
            </trkpt>
            <trkpt lat="49.7408448" lon="9.2871488">
                <ele>125.0</ele>
                <time>2020-08-29T10:38:25.000Z</time>
                <name>Trackpoint 2860</name>
            </trkpt>
            <trkpt lat="49.7408512" lon="9.2869952">
                <ele>125.0</ele>
                <time>2020-08-29T10:38:27.000Z</time>
                <name>Trackpoint 2861</name>
            </trkpt>
            <trkpt lat="49.7408608" lon="9.2868368">
                <ele>125.0</ele>
                <time>2020-08-29T10:38:29.000Z</time>
                <name>Trackpoint 2862</name>
            </trkpt>
            <trkpt lat="49.7408704" lon="9.2866848">
                <ele>125.0</ele>
                <time>2020-08-29T10:38:31.000Z</time>
                <name>Trackpoint 2863</name>
            </trkpt>
            <trkpt lat="49.7408864" lon="9.2865312">
                <ele>126.0</ele>
                <time>2020-08-29T10:38:33.000Z</time>
                <name>Trackpoint 2864</name>
            </trkpt>
            <trkpt lat="49.7408928" lon="9.28638">
                <ele>127.0</ele>
                <time>2020-08-29T10:38:35.000Z</time>
                <name>Trackpoint 2865</name>
            </trkpt>
            <trkpt lat="49.7408992" lon="9.2862304">
                <ele>128.0</ele>
                <time>2020-08-29T10:38:37.000Z</time>
                <name>Trackpoint 2866</name>
            </trkpt>
            <trkpt lat="49.740912" lon="9.2860736">
                <ele>128.0</ele>
                <time>2020-08-29T10:38:39.000Z</time>
                <name>Trackpoint 2867</name>
            </trkpt>
            <trkpt lat="49.7409248" lon="9.28592">
                <ele>129.0</ele>
                <time>2020-08-29T10:38:41.000Z</time>
                <name>Trackpoint 2868</name>
            </trkpt>
            <trkpt lat="49.7409312" lon="9.28576">
                <ele>128.0</ele>
                <time>2020-08-29T10:38:43.000Z</time>
                <name>Trackpoint 2869</name>
            </trkpt>
            <trkpt lat="49.740944" lon="9.2856">
                <ele>128.0</ele>
                <time>2020-08-29T10:38:45.000Z</time>
                <name>Trackpoint 2870</name>
            </trkpt>
            <trkpt lat="49.7409504" lon="9.2854408">
                <ele>130.0</ele>
                <time>2020-08-29T10:38:47.000Z</time>
                <name>Trackpoint 2871</name>
            </trkpt>
            <trkpt lat="49.7409568" lon="9.2852824">
                <ele>131.0</ele>
                <time>2020-08-29T10:38:49.000Z</time>
                <name>Trackpoint 2872</name>
            </trkpt>
            <trkpt lat="49.7409664" lon="9.2851216">
                <ele>131.0</ele>
                <time>2020-08-29T10:38:51.000Z</time>
                <name>Trackpoint 2873</name>
            </trkpt>
            <trkpt lat="49.7409664" lon="9.2849552">
                <ele>132.0</ele>
                <time>2020-08-29T10:38:53.000Z</time>
                <name>Trackpoint 2874</name>
            </trkpt>
            <trkpt lat="49.7409632" lon="9.2847856">
                <ele>129.0</ele>
                <time>2020-08-29T10:38:55.000Z</time>
                <name>Trackpoint 2875</name>
            </trkpt>
            <trkpt lat="49.7409664" lon="9.2846136">
                <ele>128.0</ele>
                <time>2020-08-29T10:38:57.000Z</time>
                <name>Trackpoint 2876</name>
            </trkpt>
            <trkpt lat="49.7409632" lon="9.2845232">
                <ele>128.0</ele>
                <time>2020-08-29T10:38:58.000Z</time>
                <name>Trackpoint 2877</name>
            </trkpt>
            <trkpt lat="49.7409632" lon="9.284344">
                <ele>127.0</ele>
                <time>2020-08-29T10:39:00.000Z</time>
                <name>Trackpoint 2878</name>
            </trkpt>
            <trkpt lat="49.7409632" lon="9.2842512">
                <ele>127.0</ele>
                <time>2020-08-29T10:39:01.000Z</time>
                <name>Trackpoint 2879</name>
            </trkpt>
            <trkpt lat="49.74096" lon="9.284072">
                <ele>126.0</ele>
                <time>2020-08-29T10:39:03.000Z</time>
                <name>Trackpoint 2880</name>
            </trkpt>
            <trkpt lat="49.7409568" lon="9.28398">
                <ele>126.0</ele>
                <time>2020-08-29T10:39:04.000Z</time>
                <name>Trackpoint 2881</name>
            </trkpt>
            <trkpt lat="49.7409504" lon="9.2838032">
                <ele>126.0</ele>
                <time>2020-08-29T10:39:06.000Z</time>
                <name>Trackpoint 2882</name>
            </trkpt>
            <trkpt lat="49.7409472" lon="9.2836248">
                <ele>126.0</ele>
                <time>2020-08-29T10:39:08.000Z</time>
                <name>Trackpoint 2883</name>
            </trkpt>
            <trkpt lat="49.740944" lon="9.283452">
                <ele>126.0</ele>
                <time>2020-08-29T10:39:10.000Z</time>
                <name>Trackpoint 2884</name>
            </trkpt>
            <trkpt lat="49.7409408" lon="9.2832744">
                <ele>126.0</ele>
                <time>2020-08-29T10:39:12.000Z</time>
                <name>Trackpoint 2885</name>
            </trkpt>
            <trkpt lat="49.7409312" lon="9.2831048">
                <ele>126.0</ele>
                <time>2020-08-29T10:39:14.000Z</time>
                <name>Trackpoint 2886</name>
            </trkpt>
            <trkpt lat="49.740928" lon="9.2829288">
                <ele>125.0</ele>
                <time>2020-08-29T10:39:16.000Z</time>
                <name>Trackpoint 2887</name>
            </trkpt>
            <trkpt lat="49.7409248" lon="9.2828376">
                <ele>125.0</ele>
                <time>2020-08-29T10:39:17.000Z</time>
                <name>Trackpoint 2888</name>
            </trkpt>
            <trkpt lat="49.740912" lon="9.2826584">
                <ele>125.0</ele>
                <time>2020-08-29T10:39:19.000Z</time>
                <name>Trackpoint 2889</name>
            </trkpt>
            <trkpt lat="49.7409024" lon="9.2824872">
                <ele>125.0</ele>
                <time>2020-08-29T10:39:21.000Z</time>
                <name>Trackpoint 2890</name>
            </trkpt>
            <trkpt lat="49.7408896" lon="9.2823184">
                <ele>125.0</ele>
                <time>2020-08-29T10:39:23.000Z</time>
                <name>Trackpoint 2891</name>
            </trkpt>
            <trkpt lat="49.7408704" lon="9.282148">
                <ele>124.0</ele>
                <time>2020-08-29T10:39:25.000Z</time>
                <name>Trackpoint 2892</name>
            </trkpt>
            <trkpt lat="49.7408576" lon="9.281988">
                <ele>124.0</ele>
                <time>2020-08-29T10:39:27.000Z</time>
                <name>Trackpoint 2893</name>
            </trkpt>
            <trkpt lat="49.740832" lon="9.2818368">
                <ele>124.0</ele>
                <time>2020-08-29T10:39:29.000Z</time>
                <name>Trackpoint 2894</name>
            </trkpt>
            <trkpt lat="49.7408192" lon="9.2816912">
                <ele>124.0</ele>
                <time>2020-08-29T10:39:31.000Z</time>
                <name>Trackpoint 2895</name>
            </trkpt>
            <trkpt lat="49.7407936" lon="9.2815536">
                <ele>124.0</ele>
                <time>2020-08-29T10:39:33.000Z</time>
                <name>Trackpoint 2896</name>
            </trkpt>
            <trkpt lat="49.7407712" lon="9.28142">
                <ele>124.0</ele>
                <time>2020-08-29T10:39:35.000Z</time>
                <name>Trackpoint 2897</name>
            </trkpt>
            <trkpt lat="49.7407488" lon="9.281288">
                <ele>124.0</ele>
                <time>2020-08-29T10:39:37.000Z</time>
                <name>Trackpoint 2898</name>
            </trkpt>
            <trkpt lat="49.7407232" lon="9.2811568">
                <ele>124.0</ele>
                <time>2020-08-29T10:39:39.000Z</time>
                <name>Trackpoint 2899</name>
            </trkpt>
            <trkpt lat="49.740688" lon="9.2810248">
                <ele>125.0</ele>
                <time>2020-08-29T10:39:41.000Z</time>
                <name>Trackpoint 2900</name>
            </trkpt>
            <trkpt lat="49.7406592" lon="9.2808888">
                <ele>125.0</ele>
                <time>2020-08-29T10:39:43.000Z</time>
                <name>Trackpoint 2901</name>
            </trkpt>
            <trkpt lat="49.7406208" lon="9.2807504">
                <ele>125.0</ele>
                <time>2020-08-29T10:39:45.000Z</time>
                <name>Trackpoint 2902</name>
            </trkpt>
            <trkpt lat="49.7405824" lon="9.2806168">
                <ele>125.0</ele>
                <time>2020-08-29T10:39:47.000Z</time>
                <name>Trackpoint 2903</name>
            </trkpt>
            <trkpt lat="49.740544" lon="9.2804816">
                <ele>125.0</ele>
                <time>2020-08-29T10:39:49.000Z</time>
                <name>Trackpoint 2904</name>
            </trkpt>
            <trkpt lat="49.7405056" lon="9.2803432">
                <ele>125.0</ele>
                <time>2020-08-29T10:39:51.000Z</time>
                <name>Trackpoint 2905</name>
            </trkpt>
            <trkpt lat="49.7404672" lon="9.2802032">
                <ele>126.0</ele>
                <time>2020-08-29T10:39:53.000Z</time>
                <name>Trackpoint 2906</name>
            </trkpt>
            <trkpt lat="49.7404224" lon="9.2800704">
                <ele>126.0</ele>
                <time>2020-08-29T10:39:55.000Z</time>
                <name>Trackpoint 2907</name>
            </trkpt>
            <trkpt lat="49.7403808" lon="9.2799432">
                <ele>126.0</ele>
                <time>2020-08-29T10:39:57.000Z</time>
                <name>Trackpoint 2908</name>
            </trkpt>
            <trkpt lat="49.7403328" lon="9.2798216">
                <ele>127.0</ele>
                <time>2020-08-29T10:39:59.000Z</time>
                <name>Trackpoint 2909</name>
            </trkpt>
            <trkpt lat="49.7402816" lon="9.2797168">
                <ele>126.0</ele>
                <time>2020-08-29T10:40:01.000Z</time>
                <name>Trackpoint 2910</name>
            </trkpt>
            <trkpt lat="49.740224" lon="9.2796088">
                <ele>126.0</ele>
                <time>2020-08-29T10:40:03.000Z</time>
                <name>Trackpoint 2911</name>
            </trkpt>
            <trkpt lat="49.7401632" lon="9.2795016">
                <ele>126.0</ele>
                <time>2020-08-29T10:40:05.000Z</time>
                <name>Trackpoint 2912</name>
            </trkpt>
            <trkpt lat="49.7401024" lon="9.2793952">
                <ele>126.0</ele>
                <time>2020-08-29T10:40:07.000Z</time>
                <name>Trackpoint 2913</name>
            </trkpt>
            <trkpt lat="49.7400352" lon="9.2792904">
                <ele>126.0</ele>
                <time>2020-08-29T10:40:09.000Z</time>
                <name>Trackpoint 2914</name>
            </trkpt>
            <trkpt lat="49.739968" lon="9.2791864">
                <ele>126.0</ele>
                <time>2020-08-29T10:40:11.000Z</time>
                <name>Trackpoint 2915</name>
            </trkpt>
            <trkpt lat="49.7398944" lon="9.2790896">
                <ele>126.0</ele>
                <time>2020-08-29T10:40:13.000Z</time>
                <name>Trackpoint 2916</name>
            </trkpt>
            <trkpt lat="49.7398176" lon="9.2789984">
                <ele>126.0</ele>
                <time>2020-08-29T10:40:15.000Z</time>
                <name>Trackpoint 2917</name>
            </trkpt>
            <trkpt lat="49.7397376" lon="9.2789096">
                <ele>126.0</ele>
                <time>2020-08-29T10:40:17.000Z</time>
                <name>Trackpoint 2918</name>
            </trkpt>
            <trkpt lat="49.7396576" lon="9.2788264">
                <ele>126.0</ele>
                <time>2020-08-29T10:40:19.000Z</time>
                <name>Trackpoint 2919</name>
            </trkpt>
            <trkpt lat="49.7395776" lon="9.2787448">
                <ele>126.0</ele>
                <time>2020-08-29T10:40:21.000Z</time>
                <name>Trackpoint 2920</name>
            </trkpt>
            <trkpt lat="49.7394976" lon="9.2786616">
                <ele>126.0</ele>
                <time>2020-08-29T10:40:23.000Z</time>
                <name>Trackpoint 2921</name>
            </trkpt>
            <trkpt lat="49.7394176" lon="9.2785752">
                <ele>126.0</ele>
                <time>2020-08-29T10:40:25.000Z</time>
                <name>Trackpoint 2922</name>
            </trkpt>
            <trkpt lat="49.7393376" lon="9.2784904">
                <ele>126.0</ele>
                <time>2020-08-29T10:40:27.000Z</time>
                <name>Trackpoint 2923</name>
            </trkpt>
            <trkpt lat="49.7392544" lon="9.2784072">
                <ele>126.0</ele>
                <time>2020-08-29T10:40:29.000Z</time>
                <name>Trackpoint 2924</name>
            </trkpt>
            <trkpt lat="49.7391776" lon="9.2783232">
                <ele>126.0</ele>
                <time>2020-08-29T10:40:31.000Z</time>
                <name>Trackpoint 2925</name>
            </trkpt>
            <trkpt lat="49.7390976" lon="9.27824">
                <ele>126.0</ele>
                <time>2020-08-29T10:40:33.000Z</time>
                <name>Trackpoint 2926</name>
            </trkpt>
            <trkpt lat="49.7390208" lon="9.2781624">
                <ele>126.0</ele>
                <time>2020-08-29T10:40:35.000Z</time>
                <name>Trackpoint 2927</name>
            </trkpt>
            <trkpt lat="49.738944" lon="9.2780768">
                <ele>126.0</ele>
                <time>2020-08-29T10:40:37.000Z</time>
                <name>Trackpoint 2928</name>
            </trkpt>
            <trkpt lat="49.738864" lon="9.2779936">
                <ele>126.0</ele>
                <time>2020-08-29T10:40:39.000Z</time>
                <name>Trackpoint 2929</name>
            </trkpt>
            <trkpt lat="49.738784" lon="9.277908">
                <ele>126.0</ele>
                <time>2020-08-29T10:40:41.000Z</time>
                <name>Trackpoint 2930</name>
            </trkpt>
            <trkpt lat="49.738704" lon="9.2778232">
                <ele>126.0</ele>
                <time>2020-08-29T10:40:43.000Z</time>
                <name>Trackpoint 2931</name>
            </trkpt>
            <trkpt lat="49.7386208" lon="9.2777392">
                <ele>126.0</ele>
                <time>2020-08-29T10:40:45.000Z</time>
                <name>Trackpoint 2932</name>
            </trkpt>
            <trkpt lat="49.7385376" lon="9.27766">
                <ele>126.0</ele>
                <time>2020-08-29T10:40:47.000Z</time>
                <name>Trackpoint 2933</name>
            </trkpt>
            <trkpt lat="49.7384576" lon="9.2775816">
                <ele>126.0</ele>
                <time>2020-08-29T10:40:49.000Z</time>
                <name>Trackpoint 2934</name>
            </trkpt>
            <trkpt lat="49.7383776" lon="9.2775048">
                <ele>126.0</ele>
                <time>2020-08-29T10:40:51.000Z</time>
                <name>Trackpoint 2935</name>
            </trkpt>
            <trkpt lat="49.7382976" lon="9.2774232">
                <ele>126.0</ele>
                <time>2020-08-29T10:40:53.000Z</time>
                <name>Trackpoint 2936</name>
            </trkpt>
            <trkpt lat="49.7382208" lon="9.2773464">
                <ele>126.0</ele>
                <time>2020-08-29T10:40:55.000Z</time>
                <name>Trackpoint 2937</name>
            </trkpt>
            <trkpt lat="49.7381408" lon="9.2772704">
                <ele>126.0</ele>
                <time>2020-08-29T10:40:57.000Z</time>
                <name>Trackpoint 2938</name>
            </trkpt>
            <trkpt lat="49.7380608" lon="9.277188">
                <ele>126.0</ele>
                <time>2020-08-29T10:40:59.000Z</time>
                <name>Trackpoint 2939</name>
            </trkpt>
            <trkpt lat="49.7379872" lon="9.277108">
                <ele>126.0</ele>
                <time>2020-08-29T10:41:01.000Z</time>
                <name>Trackpoint 2940</name>
            </trkpt>
            <trkpt lat="49.7379072" lon="9.277028">
                <ele>126.0</ele>
                <time>2020-08-29T10:41:03.000Z</time>
                <name>Trackpoint 2941</name>
            </trkpt>
            <trkpt lat="49.7378272" lon="9.2769496">
                <ele>126.0</ele>
                <time>2020-08-29T10:41:05.000Z</time>
                <name>Trackpoint 2942</name>
            </trkpt>
            <trkpt lat="49.737744" lon="9.2768584">
                <ele>126.0</ele>
                <time>2020-08-29T10:41:07.000Z</time>
                <name>Trackpoint 2943</name>
            </trkpt>
            <trkpt lat="49.737664" lon="9.27678">
                <ele>126.0</ele>
                <time>2020-08-29T10:41:09.000Z</time>
                <name>Trackpoint 2944</name>
            </trkpt>
            <trkpt lat="49.7375808" lon="9.2766912">
                <ele>126.0</ele>
                <time>2020-08-29T10:41:11.000Z</time>
                <name>Trackpoint 2945</name>
            </trkpt>
            <trkpt lat="49.7374912" lon="9.2766088">
                <ele>126.0</ele>
                <time>2020-08-29T10:41:13.000Z</time>
                <name>Trackpoint 2946</name>
            </trkpt>
            <trkpt lat="49.7374112" lon="9.2765232">
                <ele>126.0</ele>
                <time>2020-08-29T10:41:15.000Z</time>
                <name>Trackpoint 2947</name>
            </trkpt>
            <trkpt lat="49.7373312" lon="9.27644">
                <ele>126.0</ele>
                <time>2020-08-29T10:41:17.000Z</time>
                <name>Trackpoint 2948</name>
            </trkpt>
            <trkpt lat="49.7372512" lon="9.2763616">
                <ele>126.0</ele>
                <time>2020-08-29T10:41:19.000Z</time>
                <name>Trackpoint 2949</name>
            </trkpt>
            <trkpt lat="49.7371712" lon="9.2762784">
                <ele>126.0</ele>
                <time>2020-08-29T10:41:21.000Z</time>
                <name>Trackpoint 2950</name>
            </trkpt>
            <trkpt lat="49.7370912" lon="9.2762032">
                <ele>126.0</ele>
                <time>2020-08-29T10:41:23.000Z</time>
                <name>Trackpoint 2951</name>
            </trkpt>
            <trkpt lat="49.737008" lon="9.2761272">
                <ele>126.0</ele>
                <time>2020-08-29T10:41:25.000Z</time>
                <name>Trackpoint 2952</name>
            </trkpt>
            <trkpt lat="49.7369248" lon="9.2760416">
                <ele>126.0</ele>
                <time>2020-08-29T10:41:27.000Z</time>
                <name>Trackpoint 2953</name>
            </trkpt>
            <trkpt lat="49.7368352" lon="9.2759664">
                <ele>126.0</ele>
                <time>2020-08-29T10:41:29.000Z</time>
                <name>Trackpoint 2954</name>
            </trkpt>
            <trkpt lat="49.736752" lon="9.275884">
                <ele>126.0</ele>
                <time>2020-08-29T10:41:31.000Z</time>
                <name>Trackpoint 2955</name>
            </trkpt>
            <trkpt lat="49.7366592" lon="9.2758">
                <ele>126.0</ele>
                <time>2020-08-29T10:41:33.000Z</time>
                <name>Trackpoint 2956</name>
            </trkpt>
            <trkpt lat="49.7365824" lon="9.27572">
                <ele>126.0</ele>
                <time>2020-08-29T10:41:35.000Z</time>
                <name>Trackpoint 2957</name>
            </trkpt>
            <trkpt lat="49.7365088" lon="9.2756328">
                <ele>126.0</ele>
                <time>2020-08-29T10:41:37.000Z</time>
                <name>Trackpoint 2958</name>
            </trkpt>
            <trkpt lat="49.7364192" lon="9.2755544">
                <ele>126.0</ele>
                <time>2020-08-29T10:41:39.000Z</time>
                <name>Trackpoint 2959</name>
            </trkpt>
            <trkpt lat="49.7363296" lon="9.275472">
                <ele>126.0</ele>
                <time>2020-08-29T10:41:41.000Z</time>
                <name>Trackpoint 2960</name>
            </trkpt>
            <trkpt lat="49.7362432" lon="9.2753888">
                <ele>126.0</ele>
                <time>2020-08-29T10:41:43.000Z</time>
                <name>Trackpoint 2961</name>
            </trkpt>
            <trkpt lat="49.7361504" lon="9.2753216">
                <ele>126.0</ele>
                <time>2020-08-29T10:41:45.000Z</time>
                <name>Trackpoint 2962</name>
            </trkpt>
            <trkpt lat="49.7360608" lon="9.2752752">
                <ele>126.0</ele>
                <time>2020-08-29T10:41:47.000Z</time>
                <name>Trackpoint 2963</name>
            </trkpt>
            <trkpt lat="49.7359808" lon="9.2752312">
                <ele>126.0</ele>
                <time>2020-08-29T10:41:49.000Z</time>
                <name>Trackpoint 2964</name>
            </trkpt>
            <trkpt lat="49.7358848" lon="9.2751816">
                <ele>126.0</ele>
                <time>2020-08-29T10:41:52.000Z</time>
                <name>Trackpoint 2965</name>
            </trkpt>
            <trkpt lat="49.7357888" lon="9.2751152">
                <ele>127.0</ele>
                <time>2020-08-29T10:42:22.000Z</time>
                <name>Trackpoint 2966</name>
            </trkpt>
            <trkpt lat="49.735696" lon="9.2750584">
                <ele>127.0</ele>
                <time>2020-08-29T10:42:25.000Z</time>
                <name>Trackpoint 2967</name>
            </trkpt>
            <trkpt lat="49.7355808" lon="9.2749928">
                <ele>127.0</ele>
                <time>2020-08-29T10:42:28.000Z</time>
                <name>Trackpoint 2968</name>
            </trkpt>
            <trkpt lat="49.7354752" lon="9.2749256">
                <ele>127.0</ele>
                <time>2020-08-29T10:42:31.000Z</time>
                <name>Trackpoint 2969</name>
            </trkpt>
            <trkpt lat="49.735392" lon="9.2748144">
                <ele>127.0</ele>
                <time>2020-08-29T10:42:34.000Z</time>
                <name>Trackpoint 2970</name>
            </trkpt>
            <trkpt lat="49.7353504" lon="9.2747272">
                <ele>127.0</ele>
                <time>2020-08-29T10:42:36.000Z</time>
                <name>Trackpoint 2971</name>
            </trkpt>
            <trkpt lat="49.735312" lon="9.2746216">
                <ele>127.0</ele>
                <time>2020-08-29T10:42:38.000Z</time>
                <name>Trackpoint 2972</name>
            </trkpt>
            <trkpt lat="49.7352832" lon="9.2745064">
                <ele>127.0</ele>
                <time>2020-08-29T10:42:40.000Z</time>
                <name>Trackpoint 2973</name>
            </trkpt>
            <trkpt lat="49.7352512" lon="9.2743816">
                <ele>127.0</ele>
                <time>2020-08-29T10:42:42.000Z</time>
                <name>Trackpoint 2974</name>
            </trkpt>
            <trkpt lat="49.7352096" lon="9.2742528">
                <ele>127.0</ele>
                <time>2020-08-29T10:42:44.000Z</time>
                <name>Trackpoint 2975</name>
            </trkpt>
            <trkpt lat="49.7351584" lon="9.274152">
                <ele>127.0</ele>
                <time>2020-08-29T10:42:46.000Z</time>
                <name>Trackpoint 2976</name>
            </trkpt>
            <trkpt lat="49.735088" lon="9.2740568">
                <ele>127.0</ele>
                <time>2020-08-29T10:42:48.000Z</time>
                <name>Trackpoint 2977</name>
            </trkpt>
            <trkpt lat="49.7350144" lon="9.2739648">
                <ele>127.0</ele>
                <time>2020-08-29T10:42:50.000Z</time>
                <name>Trackpoint 2978</name>
            </trkpt>
            <trkpt lat="49.7349408" lon="9.273876">
                <ele>127.0</ele>
                <time>2020-08-29T10:42:52.000Z</time>
                <name>Trackpoint 2979</name>
            </trkpt>
            <trkpt lat="49.734864" lon="9.2737864">
                <ele>127.0</ele>
                <time>2020-08-29T10:42:54.000Z</time>
                <name>Trackpoint 2980</name>
            </trkpt>
            <trkpt lat="49.734784" lon="9.2737048">
                <ele>127.0</ele>
                <time>2020-08-29T10:42:56.000Z</time>
                <name>Trackpoint 2981</name>
            </trkpt>
            <trkpt lat="49.7346912" lon="9.2736328">
                <ele>127.0</ele>
                <time>2020-08-29T10:42:58.000Z</time>
                <name>Trackpoint 2982</name>
            </trkpt>
            <trkpt lat="49.7346016" lon="9.2735616">
                <ele>127.0</ele>
                <time>2020-08-29T10:43:00.000Z</time>
                <name>Trackpoint 2983</name>
            </trkpt>
            <trkpt lat="49.7345088" lon="9.2734944">
                <ele>127.0</ele>
                <time>2020-08-29T10:43:02.000Z</time>
                <name>Trackpoint 2984</name>
            </trkpt>
            <trkpt lat="49.7344128" lon="9.2734296">
                <ele>127.0</ele>
                <time>2020-08-29T10:43:04.000Z</time>
                <name>Trackpoint 2985</name>
            </trkpt>
            <trkpt lat="49.7343136" lon="9.2733648">
                <ele>127.0</ele>
                <time>2020-08-29T10:43:06.000Z</time>
                <name>Trackpoint 2986</name>
            </trkpt>
            <trkpt lat="49.7342144" lon="9.2733184">
                <ele>127.0</ele>
                <time>2020-08-29T10:43:08.000Z</time>
                <name>Trackpoint 2987</name>
            </trkpt>
            <trkpt lat="49.734112" lon="9.2732848">
                <ele>127.0</ele>
                <time>2020-08-29T10:43:10.000Z</time>
                <name>Trackpoint 2988</name>
            </trkpt>
            <trkpt lat="49.7340064" lon="9.273256">
                <ele>127.0</ele>
                <time>2020-08-29T10:43:12.000Z</time>
                <name>Trackpoint 2989</name>
            </trkpt>
            <trkpt lat="49.7338944" lon="9.273216">
                <ele>127.0</ele>
                <time>2020-08-29T10:43:14.000Z</time>
                <name>Trackpoint 2990</name>
            </trkpt>
            <trkpt lat="49.733792" lon="9.2731664">
                <ele>127.0</ele>
                <time>2020-08-29T10:43:16.000Z</time>
                <name>Trackpoint 2991</name>
            </trkpt>
            <trkpt lat="49.7336928" lon="9.2731112">
                <ele>127.0</ele>
                <time>2020-08-29T10:43:18.000Z</time>
                <name>Trackpoint 2992</name>
            </trkpt>
            <trkpt lat="49.7335936" lon="9.2730576">
                <ele>127.0</ele>
                <time>2020-08-29T10:43:20.000Z</time>
                <name>Trackpoint 2993</name>
            </trkpt>
            <trkpt lat="49.7334944" lon="9.2730152">
                <ele>127.0</ele>
                <time>2020-08-29T10:43:22.000Z</time>
                <name>Trackpoint 2994</name>
            </trkpt>
            <trkpt lat="49.7334048" lon="9.2729904">
                <ele>127.0</ele>
                <time>2020-08-29T10:43:24.000Z</time>
                <name>Trackpoint 2995</name>
            </trkpt>
            <trkpt lat="49.733296" lon="9.2729632">
                <ele>127.0</ele>
                <time>2020-08-29T10:43:26.000Z</time>
                <name>Trackpoint 2996</name>
            </trkpt>
            <trkpt lat="49.7332" lon="9.2729184">
                <ele>127.0</ele>
                <time>2020-08-29T10:43:28.000Z</time>
                <name>Trackpoint 2997</name>
            </trkpt>
            <trkpt lat="49.7330944" lon="9.272852">
                <ele>127.0</ele>
                <time>2020-08-29T10:43:30.000Z</time>
                <name>Trackpoint 2998</name>
            </trkpt>
            <trkpt lat="49.7330016" lon="9.2727816">
                <ele>127.0</ele>
                <time>2020-08-29T10:43:32.000Z</time>
                <name>Trackpoint 2999</name>
            </trkpt>
            <trkpt lat="49.7329088" lon="9.2727144">
                <ele>127.0</ele>
                <time>2020-08-29T10:43:34.000Z</time>
                <name>Trackpoint 3000</name>
            </trkpt>
            <trkpt lat="49.732816" lon="9.2726448">
                <ele>127.0</ele>
                <time>2020-08-29T10:43:36.000Z</time>
                <name>Trackpoint 3001</name>
            </trkpt>
            <trkpt lat="49.7327232" lon="9.2725696">
                <ele>127.0</ele>
                <time>2020-08-29T10:43:38.000Z</time>
                <name>Trackpoint 3002</name>
            </trkpt>
            <trkpt lat="49.7326272" lon="9.2724864">
                <ele>127.0</ele>
                <time>2020-08-29T10:43:40.000Z</time>
                <name>Trackpoint 3003</name>
            </trkpt>
            <trkpt lat="49.7325312" lon="9.2724064">
                <ele>127.0</ele>
                <time>2020-08-29T10:43:42.000Z</time>
                <name>Trackpoint 3004</name>
            </trkpt>
            <trkpt lat="49.7324416" lon="9.27232">
                <ele>127.0</ele>
                <time>2020-08-29T10:43:44.000Z</time>
                <name>Trackpoint 3005</name>
            </trkpt>
            <trkpt lat="49.732352" lon="9.2722432">
                <ele>127.0</ele>
                <time>2020-08-29T10:43:46.000Z</time>
                <name>Trackpoint 3006</name>
            </trkpt>
            <trkpt lat="49.7322624" lon="9.272168">
                <ele>126.0</ele>
                <time>2020-08-29T10:43:48.000Z</time>
                <name>Trackpoint 3007</name>
            </trkpt>
            <trkpt lat="49.7321696" lon="9.2720984">
                <ele>127.0</ele>
                <time>2020-08-29T10:43:50.000Z</time>
                <name>Trackpoint 3008</name>
            </trkpt>
            <trkpt lat="49.7320832" lon="9.2720232">
                <ele>126.0</ele>
                <time>2020-08-29T10:43:52.000Z</time>
                <name>Trackpoint 3009</name>
            </trkpt>
            <trkpt lat="49.7319936" lon="9.2719536">
                <ele>126.0</ele>
                <time>2020-08-29T10:43:54.000Z</time>
                <name>Trackpoint 3010</name>
            </trkpt>
            <trkpt lat="49.7319072" lon="9.2718832">
                <ele>126.0</ele>
                <time>2020-08-29T10:43:56.000Z</time>
                <name>Trackpoint 3011</name>
            </trkpt>
            <trkpt lat="49.7318144" lon="9.2718184">
                <ele>126.0</ele>
                <time>2020-08-29T10:43:58.000Z</time>
                <name>Trackpoint 3012</name>
            </trkpt>
            <trkpt lat="49.7317248" lon="9.2717536">
                <ele>126.0</ele>
                <time>2020-08-29T10:44:00.000Z</time>
                <name>Trackpoint 3013</name>
            </trkpt>
            <trkpt lat="49.731632" lon="9.2716904">
                <ele>126.0</ele>
                <time>2020-08-29T10:44:02.000Z</time>
                <name>Trackpoint 3014</name>
            </trkpt>
            <trkpt lat="49.731536" lon="9.2716248">
                <ele>126.0</ele>
                <time>2020-08-29T10:44:04.000Z</time>
                <name>Trackpoint 3015</name>
            </trkpt>
            <trkpt lat="49.7314464" lon="9.2715664">
                <ele>126.0</ele>
                <time>2020-08-29T10:44:06.000Z</time>
                <name>Trackpoint 3016</name>
            </trkpt>
            <trkpt lat="49.7313568" lon="9.2715056">
                <ele>127.0</ele>
                <time>2020-08-29T10:44:08.000Z</time>
                <name>Trackpoint 3017</name>
            </trkpt>
            <trkpt lat="49.7312672" lon="9.2714344">
                <ele>127.0</ele>
                <time>2020-08-29T10:44:10.000Z</time>
                <name>Trackpoint 3018</name>
            </trkpt>
            <trkpt lat="49.7311744" lon="9.2713632">
                <ele>127.0</ele>
                <time>2020-08-29T10:44:12.000Z</time>
                <name>Trackpoint 3019</name>
            </trkpt>
            <trkpt lat="49.7310784" lon="9.2713016">
                <ele>127.0</ele>
                <time>2020-08-29T10:44:14.000Z</time>
                <name>Trackpoint 3020</name>
            </trkpt>
            <trkpt lat="49.7309888" lon="9.2712432">
                <ele>127.0</ele>
                <time>2020-08-29T10:44:16.000Z</time>
                <name>Trackpoint 3021</name>
            </trkpt>
            <trkpt lat="49.7308928" lon="9.2711784">
                <ele>127.0</ele>
                <time>2020-08-29T10:44:18.000Z</time>
                <name>Trackpoint 3022</name>
            </trkpt>
            <trkpt lat="49.7307936" lon="9.271116">
                <ele>127.0</ele>
                <time>2020-08-29T10:44:20.000Z</time>
                <name>Trackpoint 3023</name>
            </trkpt>
            <trkpt lat="49.7307008" lon="9.27106">
                <ele>127.0</ele>
                <time>2020-08-29T10:44:22.000Z</time>
                <name>Trackpoint 3024</name>
            </trkpt>
            <trkpt lat="49.7306048" lon="9.2709952">
                <ele>127.0</ele>
                <time>2020-08-29T10:44:24.000Z</time>
                <name>Trackpoint 3025</name>
            </trkpt>
            <trkpt lat="49.7305056" lon="9.2709352">
                <ele>127.0</ele>
                <time>2020-08-29T10:44:26.000Z</time>
                <name>Trackpoint 3026</name>
            </trkpt>
            <trkpt lat="49.7304064" lon="9.2708728">
                <ele>127.0</ele>
                <time>2020-08-29T10:44:28.000Z</time>
                <name>Trackpoint 3027</name>
            </trkpt>
            <trkpt lat="49.7303072" lon="9.2708128">
                <ele>127.0</ele>
                <time>2020-08-29T10:44:30.000Z</time>
                <name>Trackpoint 3028</name>
            </trkpt>
            <trkpt lat="49.7302144" lon="9.2707568">
                <ele>127.0</ele>
                <time>2020-08-29T10:44:32.000Z</time>
                <name>Trackpoint 3029</name>
            </trkpt>
            <trkpt lat="49.7301216" lon="9.2706944">
                <ele>127.0</ele>
                <time>2020-08-29T10:44:34.000Z</time>
                <name>Trackpoint 3030</name>
            </trkpt>
            <trkpt lat="49.7300448" lon="9.2706472">
                <ele>127.0</ele>
                <time>2020-08-29T10:44:36.000Z</time>
                <name>Trackpoint 3031</name>
            </trkpt>
            <trkpt lat="49.729968" lon="9.2705944">
                <ele>127.0</ele>
                <time>2020-08-29T10:44:38.000Z</time>
                <name>Trackpoint 3032</name>
            </trkpt>
            <trkpt lat="49.7298592" lon="9.2705224">
                <ele>127.0</ele>
                <time>2020-08-29T10:44:41.000Z</time>
                <name>Trackpoint 3033</name>
            </trkpt>
            <trkpt lat="49.7297472" lon="9.27046">
                <ele>127.0</ele>
                <time>2020-08-29T10:44:44.000Z</time>
                <name>Trackpoint 3034</name>
            </trkpt>
            <trkpt lat="49.7296576" lon="9.2704032">
                <ele>128.0</ele>
                <time>2020-08-29T10:44:47.000Z</time>
                <name>Trackpoint 3035</name>
            </trkpt>
            <trkpt lat="49.7295648" lon="9.270396">
                <ele>127.0</ele>
                <time>2020-08-29T10:45:09.000Z</time>
                <name>Trackpoint 3036</name>
            </trkpt>
            <trkpt lat="49.7295328" lon="9.2703832">
                <ele>127.0</ele>
                <time>2020-08-29T11:31:29.000Z</time>
                <name>Trackpoint 3037</name>
            </trkpt>
            <trkpt lat="49.7294528" lon="9.2703112">
                <ele>127.0</ele>
                <time>2020-08-29T11:32:23.000Z</time>
                <name>Trackpoint 3038</name>
            </trkpt>
            <trkpt lat="49.7293696" lon="9.2702528">
                <ele>127.0</ele>
                <time>2020-08-29T11:32:26.000Z</time>
                <name>Trackpoint 3039</name>
            </trkpt>
            <trkpt lat="49.7292608" lon="9.2701768">
                <ele>128.0</ele>
                <time>2020-08-29T11:32:29.000Z</time>
                <name>Trackpoint 3040</name>
            </trkpt>
            <trkpt lat="49.7291648" lon="9.2701216">
                <ele>127.0</ele>
                <time>2020-08-29T11:32:32.000Z</time>
                <name>Trackpoint 3041</name>
            </trkpt>
            <trkpt lat="49.7290656" lon="9.2700928">
                <ele>127.0</ele>
                <time>2020-08-29T11:32:50.000Z</time>
                <name>Trackpoint 3042</name>
            </trkpt>
            <trkpt lat="49.7289632" lon="9.2700392">
                <ele>127.0</ele>
                <time>2020-08-29T11:32:54.000Z</time>
                <name>Trackpoint 3043</name>
            </trkpt>
            <trkpt lat="49.7288576" lon="9.2700008">
                <ele>127.0</ele>
                <time>2020-08-29T11:32:57.000Z</time>
                <name>Trackpoint 3044</name>
            </trkpt>
            <trkpt lat="49.7287456" lon="9.269952">
                <ele>127.0</ele>
                <time>2020-08-29T11:33:00.000Z</time>
                <name>Trackpoint 3045</name>
            </trkpt>
            <trkpt lat="49.7286592" lon="9.2699096">
                <ele>127.0</ele>
                <time>2020-08-29T11:33:02.000Z</time>
                <name>Trackpoint 3046</name>
            </trkpt>
            <trkpt lat="49.7285696" lon="9.2698648">
                <ele>127.0</ele>
                <time>2020-08-29T11:33:04.000Z</time>
                <name>Trackpoint 3047</name>
            </trkpt>
            <trkpt lat="49.7284736" lon="9.2698224">
                <ele>127.0</ele>
                <time>2020-08-29T11:33:06.000Z</time>
                <name>Trackpoint 3048</name>
            </trkpt>
            <trkpt lat="49.7283744" lon="9.269776">
                <ele>127.0</ele>
                <time>2020-08-29T11:33:08.000Z</time>
                <name>Trackpoint 3049</name>
            </trkpt>
            <trkpt lat="49.7282752" lon="9.2697336">
                <ele>127.0</ele>
                <time>2020-08-29T11:33:10.000Z</time>
                <name>Trackpoint 3050</name>
            </trkpt>
            <trkpt lat="49.7281728" lon="9.2696864">
                <ele>126.0</ele>
                <time>2020-08-29T11:33:12.000Z</time>
                <name>Trackpoint 3051</name>
            </trkpt>
            <trkpt lat="49.7280704" lon="9.2696384">
                <ele>126.0</ele>
                <time>2020-08-29T11:33:14.000Z</time>
                <name>Trackpoint 3052</name>
            </trkpt>
            <trkpt lat="49.7279648" lon="9.2695936">
                <ele>126.0</ele>
                <time>2020-08-29T11:33:16.000Z</time>
                <name>Trackpoint 3053</name>
            </trkpt>
            <trkpt lat="49.7278624" lon="9.2695464">
                <ele>126.0</ele>
                <time>2020-08-29T11:33:18.000Z</time>
                <name>Trackpoint 3054</name>
            </trkpt>
            <trkpt lat="49.72776" lon="9.2695016">
                <ele>126.0</ele>
                <time>2020-08-29T11:33:20.000Z</time>
                <name>Trackpoint 3055</name>
            </trkpt>
            <trkpt lat="49.7276608" lon="9.2694584">
                <ele>126.0</ele>
                <time>2020-08-29T11:33:22.000Z</time>
                <name>Trackpoint 3056</name>
            </trkpt>
            <trkpt lat="49.7275584" lon="9.2694184">
                <ele>126.0</ele>
                <time>2020-08-29T11:33:24.000Z</time>
                <name>Trackpoint 3057</name>
            </trkpt>
            <trkpt lat="49.727456" lon="9.2693768">
                <ele>126.0</ele>
                <time>2020-08-29T11:33:26.000Z</time>
                <name>Trackpoint 3058</name>
            </trkpt>
            <trkpt lat="49.7273536" lon="9.2693392">
                <ele>126.0</ele>
                <time>2020-08-29T11:33:28.000Z</time>
                <name>Trackpoint 3059</name>
            </trkpt>
            <trkpt lat="49.727248" lon="9.2693016">
                <ele>126.0</ele>
                <time>2020-08-29T11:33:30.000Z</time>
                <name>Trackpoint 3060</name>
            </trkpt>
            <trkpt lat="49.7271424" lon="9.2692632">
                <ele>126.0</ele>
                <time>2020-08-29T11:33:32.000Z</time>
                <name>Trackpoint 3061</name>
            </trkpt>
            <trkpt lat="49.7270368" lon="9.2692248">
                <ele>127.0</ele>
                <time>2020-08-29T11:33:34.000Z</time>
                <name>Trackpoint 3062</name>
            </trkpt>
            <trkpt lat="49.7269248" lon="9.2691832">
                <ele>126.0</ele>
                <time>2020-08-29T11:33:36.000Z</time>
                <name>Trackpoint 3063</name>
            </trkpt>
            <trkpt lat="49.7268224" lon="9.2691472">
                <ele>126.0</ele>
                <time>2020-08-29T11:33:38.000Z</time>
                <name>Trackpoint 3064</name>
            </trkpt>
            <trkpt lat="49.7267232" lon="9.2691096">
                <ele>127.0</ele>
                <time>2020-08-29T11:33:40.000Z</time>
                <name>Trackpoint 3065</name>
            </trkpt>
            <trkpt lat="49.7266208" lon="9.2690688">
                <ele>126.0</ele>
                <time>2020-08-29T11:33:42.000Z</time>
                <name>Trackpoint 3066</name>
            </trkpt>
            <trkpt lat="49.7265216" lon="9.2690248">
                <ele>126.0</ele>
                <time>2020-08-29T11:33:44.000Z</time>
                <name>Trackpoint 3067</name>
            </trkpt>
            <trkpt lat="49.7264128" lon="9.2689888">
                <ele>126.0</ele>
                <time>2020-08-29T11:33:46.000Z</time>
                <name>Trackpoint 3068</name>
            </trkpt>
            <trkpt lat="49.7263136" lon="9.2689504">
                <ele>126.0</ele>
                <time>2020-08-29T11:33:48.000Z</time>
                <name>Trackpoint 3069</name>
            </trkpt>
            <trkpt lat="49.7262176" lon="9.2689168">
                <ele>126.0</ele>
                <time>2020-08-29T11:33:50.000Z</time>
                <name>Trackpoint 3070</name>
            </trkpt>
            <trkpt lat="49.7261248" lon="9.2688736">
                <ele>126.0</ele>
                <time>2020-08-29T11:33:53.000Z</time>
                <name>Trackpoint 3071</name>
            </trkpt>
            <trkpt lat="49.7260384" lon="9.2688216">
                <ele>127.0</ele>
                <time>2020-08-29T11:34:17.000Z</time>
                <name>Trackpoint 3072</name>
            </trkpt>
            <trkpt lat="49.7259744" lon="9.2687216">
                <ele>127.0</ele>
                <time>2020-08-29T11:34:20.000Z</time>
                <name>Trackpoint 3073</name>
            </trkpt>
            <trkpt lat="49.7259264" lon="9.2686008">
                <ele>127.0</ele>
                <time>2020-08-29T11:34:23.000Z</time>
                <name>Trackpoint 3074</name>
            </trkpt>
            <trkpt lat="49.7259104" lon="9.2684968">
                <ele>127.0</ele>
                <time>2020-08-29T11:34:25.000Z</time>
                <name>Trackpoint 3075</name>
            </trkpt>
            <trkpt lat="49.7258944" lon="9.2683632">
                <ele>127.0</ele>
                <time>2020-08-29T11:34:27.000Z</time>
                <name>Trackpoint 3076</name>
            </trkpt>
            <trkpt lat="49.7258848" lon="9.2682184">
                <ele>127.0</ele>
                <time>2020-08-29T11:34:29.000Z</time>
                <name>Trackpoint 3077</name>
            </trkpt>
            <trkpt lat="49.7258656" lon="9.2680728">
                <ele>127.0</ele>
                <time>2020-08-29T11:34:31.000Z</time>
                <name>Trackpoint 3078</name>
            </trkpt>
            <trkpt lat="49.7258304" lon="9.2679192">
                <ele>128.0</ele>
                <time>2020-08-29T11:34:33.000Z</time>
                <name>Trackpoint 3079</name>
            </trkpt>
            <trkpt lat="49.7257408" lon="9.2678072">
                <ele>127.0</ele>
                <time>2020-08-29T11:34:35.000Z</time>
                <name>Trackpoint 3080</name>
            </trkpt>
            <trkpt lat="49.725632" lon="9.2677648">
                <ele>128.0</ele>
                <time>2020-08-29T11:34:37.000Z</time>
                <name>Trackpoint 3081</name>
            </trkpt>
            <trkpt lat="49.7255136" lon="9.2677344">
                <ele>128.0</ele>
                <time>2020-08-29T11:34:39.000Z</time>
                <name>Trackpoint 3082</name>
            </trkpt>
            <trkpt lat="49.7254016" lon="9.2677072">
                <ele>127.0</ele>
                <time>2020-08-29T11:34:41.000Z</time>
                <name>Trackpoint 3083</name>
            </trkpt>
            <trkpt lat="49.7252896" lon="9.2676832">
                <ele>127.0</ele>
                <time>2020-08-29T11:34:43.000Z</time>
                <name>Trackpoint 3084</name>
            </trkpt>
            <trkpt lat="49.7251744" lon="9.2676648">
                <ele>127.0</ele>
                <time>2020-08-29T11:34:45.000Z</time>
                <name>Trackpoint 3085</name>
            </trkpt>
            <trkpt lat="49.7250656" lon="9.2676288">
                <ele>126.0</ele>
                <time>2020-08-29T11:34:47.000Z</time>
                <name>Trackpoint 3086</name>
            </trkpt>
            <trkpt lat="49.7249568" lon="9.2676">
                <ele>126.0</ele>
                <time>2020-08-29T11:34:49.000Z</time>
                <name>Trackpoint 3087</name>
            </trkpt>
            <trkpt lat="49.7248448" lon="9.2675712">
                <ele>126.0</ele>
                <time>2020-08-29T11:34:51.000Z</time>
                <name>Trackpoint 3088</name>
            </trkpt>
            <trkpt lat="49.7247392" lon="9.2675368">
                <ele>126.0</ele>
                <time>2020-08-29T11:34:53.000Z</time>
                <name>Trackpoint 3089</name>
            </trkpt>
            <trkpt lat="49.7246272" lon="9.2675152">
                <ele>126.0</ele>
                <time>2020-08-29T11:34:55.000Z</time>
                <name>Trackpoint 3090</name>
            </trkpt>
            <trkpt lat="49.7245184" lon="9.2674752">
                <ele>125.0</ele>
                <time>2020-08-29T11:34:57.000Z</time>
                <name>Trackpoint 3091</name>
            </trkpt>
            <trkpt lat="49.724416" lon="9.2674368">
                <ele>125.0</ele>
                <time>2020-08-29T11:34:59.000Z</time>
                <name>Trackpoint 3092</name>
            </trkpt>
            <trkpt lat="49.724304" lon="9.2674112">
                <ele>125.0</ele>
                <time>2020-08-29T11:35:01.000Z</time>
                <name>Trackpoint 3093</name>
            </trkpt>
            <trkpt lat="49.7241984" lon="9.2673912">
                <ele>125.0</ele>
                <time>2020-08-29T11:35:03.000Z</time>
                <name>Trackpoint 3094</name>
            </trkpt>
            <trkpt lat="49.7240896" lon="9.2673656">
                <ele>124.0</ele>
                <time>2020-08-29T11:35:05.000Z</time>
                <name>Trackpoint 3095</name>
            </trkpt>
            <trkpt lat="49.7239968" lon="9.26734">
                <ele>123.0</ele>
                <time>2020-08-29T11:35:07.000Z</time>
                <name>Trackpoint 3096</name>
            </trkpt>
            <trkpt lat="49.723888" lon="9.2673128">
                <ele>123.0</ele>
                <time>2020-08-29T11:35:09.000Z</time>
                <name>Trackpoint 3097</name>
            </trkpt>
            <trkpt lat="49.7237856" lon="9.2672968">
                <ele>123.0</ele>
                <time>2020-08-29T11:35:11.000Z</time>
                <name>Trackpoint 3098</name>
            </trkpt>
            <trkpt lat="49.72368" lon="9.26728">
                <ele>123.0</ele>
                <time>2020-08-29T11:35:13.000Z</time>
                <name>Trackpoint 3099</name>
            </trkpt>
            <trkpt lat="49.7235712" lon="9.2672592">
                <ele>123.0</ele>
                <time>2020-08-29T11:35:15.000Z</time>
                <name>Trackpoint 3100</name>
            </trkpt>
            <trkpt lat="49.723472" lon="9.2672456">
                <ele>123.0</ele>
                <time>2020-08-29T11:35:17.000Z</time>
                <name>Trackpoint 3101</name>
            </trkpt>
            <trkpt lat="49.723376" lon="9.2672232">
                <ele>122.0</ele>
                <time>2020-08-29T11:35:19.000Z</time>
                <name>Trackpoint 3102</name>
            </trkpt>
            <trkpt lat="49.723248" lon="9.2671968">
                <ele>123.0</ele>
                <time>2020-08-29T11:35:22.000Z</time>
                <name>Trackpoint 3103</name>
            </trkpt>
            <trkpt lat="49.7231584" lon="9.2671832">
                <ele>123.0</ele>
                <time>2020-08-29T11:35:24.000Z</time>
                <name>Trackpoint 3104</name>
            </trkpt>
            <trkpt lat="49.7230368" lon="9.2671536">
                <ele>123.0</ele>
                <time>2020-08-29T11:35:27.000Z</time>
                <name>Trackpoint 3105</name>
            </trkpt>
            <trkpt lat="49.7229248" lon="9.2671384">
                <ele>123.0</ele>
                <time>2020-08-29T11:35:30.000Z</time>
                <name>Trackpoint 3106</name>
            </trkpt>
            <trkpt lat="49.7228064" lon="9.2671168">
                <ele>123.0</ele>
                <time>2020-08-29T11:35:33.000Z</time>
                <name>Trackpoint 3107</name>
            </trkpt>
            <trkpt lat="49.7226784" lon="9.2670896">
                <ele>123.0</ele>
                <time>2020-08-29T11:35:36.000Z</time>
                <name>Trackpoint 3108</name>
            </trkpt>
            <trkpt lat="49.7225888" lon="9.267068">
                <ele>123.0</ele>
                <time>2020-08-29T11:35:38.000Z</time>
                <name>Trackpoint 3109</name>
            </trkpt>
            <trkpt lat="49.7224928" lon="9.2670544">
                <ele>123.0</ele>
                <time>2020-08-29T11:35:40.000Z</time>
                <name>Trackpoint 3110</name>
            </trkpt>
            <trkpt lat="49.7223968" lon="9.2670288">
                <ele>123.0</ele>
                <time>2020-08-29T11:35:42.000Z</time>
                <name>Trackpoint 3111</name>
            </trkpt>
            <trkpt lat="49.7223008" lon="9.2670088">
                <ele>123.0</ele>
                <time>2020-08-29T11:35:44.000Z</time>
                <name>Trackpoint 3112</name>
            </trkpt>
            <trkpt lat="49.7222048" lon="9.2669832">
                <ele>123.0</ele>
                <time>2020-08-29T11:35:46.000Z</time>
                <name>Trackpoint 3113</name>
            </trkpt>
            <trkpt lat="49.7221056" lon="9.2669584">
                <ele>123.0</ele>
                <time>2020-08-29T11:35:48.000Z</time>
                <name>Trackpoint 3114</name>
            </trkpt>
            <trkpt lat="49.7220064" lon="9.2669352">
                <ele>123.0</ele>
                <time>2020-08-29T11:35:50.000Z</time>
                <name>Trackpoint 3115</name>
            </trkpt>
            <trkpt lat="49.7219072" lon="9.2669152">
                <ele>123.0</ele>
                <time>2020-08-29T11:35:52.000Z</time>
                <name>Trackpoint 3116</name>
            </trkpt>
            <trkpt lat="49.721808" lon="9.2668832">
                <ele>123.0</ele>
                <time>2020-08-29T11:35:54.000Z</time>
                <name>Trackpoint 3117</name>
            </trkpt>
            <trkpt lat="49.7217088" lon="9.2668536">
                <ele>123.0</ele>
                <time>2020-08-29T11:35:56.000Z</time>
                <name>Trackpoint 3118</name>
            </trkpt>
            <trkpt lat="49.7216096" lon="9.266824">
                <ele>124.0</ele>
                <time>2020-08-29T11:35:58.000Z</time>
                <name>Trackpoint 3119</name>
            </trkpt>
            <trkpt lat="49.721504" lon="9.2667912">
                <ele>124.0</ele>
                <time>2020-08-29T11:36:00.000Z</time>
                <name>Trackpoint 3120</name>
            </trkpt>
            <trkpt lat="49.721408" lon="9.26676">
                <ele>124.0</ele>
                <time>2020-08-29T11:36:02.000Z</time>
                <name>Trackpoint 3121</name>
            </trkpt>
            <trkpt lat="49.7213184" lon="9.2667304">
                <ele>124.0</ele>
                <time>2020-08-29T11:36:04.000Z</time>
                <name>Trackpoint 3122</name>
            </trkpt>
            <trkpt lat="49.721232" lon="9.2666952">
                <ele>124.0</ele>
                <time>2020-08-29T11:36:06.000Z</time>
                <name>Trackpoint 3123</name>
            </trkpt>
            <trkpt lat="49.7211104" lon="9.2666528">
                <ele>125.0</ele>
                <time>2020-08-29T11:36:09.000Z</time>
                <name>Trackpoint 3124</name>
            </trkpt>
            <trkpt lat="49.7209984" lon="9.266632">
                <ele>124.0</ele>
                <time>2020-08-29T11:36:12.000Z</time>
                <name>Trackpoint 3125</name>
            </trkpt>
            <trkpt lat="49.7208928" lon="9.2666968">
                <ele>125.0</ele>
                <time>2020-08-29T11:36:15.000Z</time>
                <name>Trackpoint 3126</name>
            </trkpt>
            <trkpt lat="49.7208224" lon="9.2667984">
                <ele>125.0</ele>
                <time>2020-08-29T11:36:18.000Z</time>
                <name>Trackpoint 3127</name>
            </trkpt>
            <trkpt lat="49.720768" lon="9.266876">
                <ele>124.0</ele>
                <time>2020-08-29T11:36:20.000Z</time>
                <name>Trackpoint 3128</name>
            </trkpt>
            <trkpt lat="49.7207232" lon="9.2669648">
                <ele>125.0</ele>
                <time>2020-08-29T11:36:23.000Z</time>
                <name>Trackpoint 3129</name>
            </trkpt>
            <trkpt lat="49.7207136" lon="9.2670632">
                <ele>125.0</ele>
                <time>2020-08-29T11:36:29.000Z</time>
                <name>Trackpoint 3130</name>
            </trkpt>
            <trkpt lat="49.720624" lon="9.267052">
                <ele>124.0</ele>
                <time>2020-08-29T11:36:36.000Z</time>
                <name>Trackpoint 3131</name>
            </trkpt>
            <trkpt lat="49.7205664" lon="9.2671368">
                <ele>124.0</ele>
                <time>2020-08-29T11:37:15.000Z</time>
                <name>Trackpoint 3132</name>
            </trkpt>
            <trkpt lat="49.7204768" lon="9.2671896">
                <ele>124.0</ele>
                <time>2020-08-29T11:37:18.000Z</time>
                <name>Trackpoint 3133</name>
            </trkpt>
            <trkpt lat="49.7203584" lon="9.2672456">
                <ele>124.0</ele>
                <time>2020-08-29T11:37:21.000Z</time>
                <name>Trackpoint 3134</name>
            </trkpt>
            <trkpt lat="49.7202848" lon="9.2673">
                <ele>124.0</ele>
                <time>2020-08-29T11:37:23.000Z</time>
                <name>Trackpoint 3135</name>
            </trkpt>
            <trkpt lat="49.7201568" lon="9.2673416">
                <ele>125.0</ele>
                <time>2020-08-29T11:37:26.000Z</time>
                <name>Trackpoint 3136</name>
            </trkpt>
            <trkpt lat="49.7200256" lon="9.267332">
                <ele>125.0</ele>
                <time>2020-08-29T11:37:29.000Z</time>
                <name>Trackpoint 3137</name>
            </trkpt>
            <trkpt lat="49.7199488" lon="9.2672832">
                <ele>125.0</ele>
                <time>2020-08-29T11:37:31.000Z</time>
                <name>Trackpoint 3138</name>
            </trkpt>
            <trkpt lat="49.7198752" lon="9.2672232">
                <ele>125.0</ele>
                <time>2020-08-29T11:37:33.000Z</time>
                <name>Trackpoint 3139</name>
            </trkpt>
            <trkpt lat="49.719808" lon="9.2671344">
                <ele>125.0</ele>
                <time>2020-08-29T11:37:35.000Z</time>
                <name>Trackpoint 3140</name>
            </trkpt>
            <trkpt lat="49.7197504" lon="9.2670336">
                <ele>125.0</ele>
                <time>2020-08-29T11:37:37.000Z</time>
                <name>Trackpoint 3141</name>
            </trkpt>
            <trkpt lat="49.7196896" lon="9.2669184">
                <ele>125.0</ele>
                <time>2020-08-29T11:37:39.000Z</time>
                <name>Trackpoint 3142</name>
            </trkpt>
            <trkpt lat="49.7196224" lon="9.2668048">
                <ele>125.0</ele>
                <time>2020-08-29T11:37:41.000Z</time>
                <name>Trackpoint 3143</name>
            </trkpt>
            <trkpt lat="49.7195552" lon="9.2667104">
                <ele>124.0</ele>
                <time>2020-08-29T11:37:43.000Z</time>
                <name>Trackpoint 3144</name>
            </trkpt>
            <trkpt lat="49.7194752" lon="9.2666304">
                <ele>124.0</ele>
                <time>2020-08-29T11:37:45.000Z</time>
                <name>Trackpoint 3145</name>
            </trkpt>
            <trkpt lat="49.7193824" lon="9.2665632">
                <ele>124.0</ele>
                <time>2020-08-29T11:37:47.000Z</time>
                <name>Trackpoint 3146</name>
            </trkpt>
            <trkpt lat="49.7192928" lon="9.2664968">
                <ele>124.0</ele>
                <time>2020-08-29T11:37:49.000Z</time>
                <name>Trackpoint 3147</name>
            </trkpt>
            <trkpt lat="49.7191936" lon="9.26644">
                <ele>125.0</ele>
                <time>2020-08-29T11:37:51.000Z</time>
                <name>Trackpoint 3148</name>
            </trkpt>
            <trkpt lat="49.7190944" lon="9.26638">
                <ele>125.0</ele>
                <time>2020-08-29T11:37:53.000Z</time>
                <name>Trackpoint 3149</name>
            </trkpt>
            <trkpt lat="49.7189792" lon="9.2663368">
                <ele>126.0</ele>
                <time>2020-08-29T11:37:55.000Z</time>
                <name>Trackpoint 3150</name>
            </trkpt>
            <trkpt lat="49.7188768" lon="9.2662888">
                <ele>126.0</ele>
                <time>2020-08-29T11:37:57.000Z</time>
                <name>Trackpoint 3151</name>
            </trkpt>
            <trkpt lat="49.7187776" lon="9.266236">
                <ele>126.0</ele>
                <time>2020-08-29T11:37:59.000Z</time>
                <name>Trackpoint 3152</name>
            </trkpt>
            <trkpt lat="49.7186624" lon="9.2661896">
                <ele>126.0</ele>
                <time>2020-08-29T11:38:01.000Z</time>
                <name>Trackpoint 3153</name>
            </trkpt>
            <trkpt lat="49.71856" lon="9.2661384">
                <ele>126.0</ele>
                <time>2020-08-29T11:38:03.000Z</time>
                <name>Trackpoint 3154</name>
            </trkpt>
            <trkpt lat="49.718448" lon="9.2660912">
                <ele>126.0</ele>
                <time>2020-08-29T11:38:05.000Z</time>
                <name>Trackpoint 3155</name>
            </trkpt>
            <trkpt lat="49.7183424" lon="9.2660448">
                <ele>126.0</ele>
                <time>2020-08-29T11:38:07.000Z</time>
                <name>Trackpoint 3156</name>
            </trkpt>
            <trkpt lat="49.7182304" lon="9.266004">
                <ele>126.0</ele>
                <time>2020-08-29T11:38:09.000Z</time>
                <name>Trackpoint 3157</name>
            </trkpt>
            <trkpt lat="49.718128" lon="9.2659552">
                <ele>126.0</ele>
                <time>2020-08-29T11:38:11.000Z</time>
                <name>Trackpoint 3158</name>
            </trkpt>
            <trkpt lat="49.7180256" lon="9.26592">
                <ele>126.0</ele>
                <time>2020-08-29T11:38:13.000Z</time>
                <name>Trackpoint 3159</name>
            </trkpt>
            <trkpt lat="49.7179232" lon="9.2658816">
                <ele>127.0</ele>
                <time>2020-08-29T11:38:15.000Z</time>
                <name>Trackpoint 3160</name>
            </trkpt>
            <trkpt lat="49.717824" lon="9.2658392">
                <ele>127.0</ele>
                <time>2020-08-29T11:38:17.000Z</time>
                <name>Trackpoint 3161</name>
            </trkpt>
            <trkpt lat="49.7177248" lon="9.2658064">
                <ele>127.0</ele>
                <time>2020-08-29T11:38:19.000Z</time>
                <name>Trackpoint 3162</name>
            </trkpt>
            <trkpt lat="49.7176256" lon="9.2657536">
                <ele>126.0</ele>
                <time>2020-08-29T11:38:21.000Z</time>
                <name>Trackpoint 3163</name>
            </trkpt>
            <trkpt lat="49.7175232" lon="9.2656944">
                <ele>127.0</ele>
                <time>2020-08-29T11:38:23.000Z</time>
                <name>Trackpoint 3164</name>
            </trkpt>
            <trkpt lat="49.7174176" lon="9.2656368">
                <ele>127.0</ele>
                <time>2020-08-29T11:38:25.000Z</time>
                <name>Trackpoint 3165</name>
            </trkpt>
            <trkpt lat="49.7173152" lon="9.265592">
                <ele>127.0</ele>
                <time>2020-08-29T11:38:27.000Z</time>
                <name>Trackpoint 3166</name>
            </trkpt>
            <trkpt lat="49.717216" lon="9.2655424">
                <ele>128.0</ele>
                <time>2020-08-29T11:38:29.000Z</time>
                <name>Trackpoint 3167</name>
            </trkpt>
            <trkpt lat="49.7171136" lon="9.2654888">
                <ele>128.0</ele>
                <time>2020-08-29T11:38:31.000Z</time>
                <name>Trackpoint 3168</name>
            </trkpt>
            <trkpt lat="49.7170176" lon="9.2654352">
                <ele>128.0</ele>
                <time>2020-08-29T11:38:33.000Z</time>
                <name>Trackpoint 3169</name>
            </trkpt>
            <trkpt lat="49.716928" lon="9.2653848">
                <ele>128.0</ele>
                <time>2020-08-29T11:38:35.000Z</time>
                <name>Trackpoint 3170</name>
            </trkpt>
            <trkpt lat="49.7168288" lon="9.26532">
                <ele>129.0</ele>
                <time>2020-08-29T11:38:37.000Z</time>
                <name>Trackpoint 3171</name>
            </trkpt>
            <trkpt lat="49.7167392" lon="9.2652464">
                <ele>128.0</ele>
                <time>2020-08-29T11:38:39.000Z</time>
                <name>Trackpoint 3172</name>
            </trkpt>
            <trkpt lat="49.71664" lon="9.2651928">
                <ele>129.0</ele>
                <time>2020-08-29T11:38:41.000Z</time>
                <name>Trackpoint 3173</name>
            </trkpt>
            <trkpt lat="49.7165536" lon="9.2651504">
                <ele>128.0</ele>
                <time>2020-08-29T11:38:43.000Z</time>
                <name>Trackpoint 3174</name>
            </trkpt>
            <trkpt lat="49.7164768" lon="9.2651016">
                <ele>128.0</ele>
                <time>2020-08-29T11:38:45.000Z</time>
                <name>Trackpoint 3175</name>
            </trkpt>
            <trkpt lat="49.7163872" lon="9.2650384">
                <ele>128.0</ele>
                <time>2020-08-29T11:38:48.000Z</time>
                <name>Trackpoint 3176</name>
            </trkpt>
            <trkpt lat="49.7162848" lon="9.2649784">
                <ele>128.0</ele>
                <time>2020-08-29T11:38:52.000Z</time>
                <name>Trackpoint 3177</name>
            </trkpt>
            <trkpt lat="49.716208" lon="9.2649224">
                <ele>129.0</ele>
                <time>2020-08-29T11:39:21.000Z</time>
                <name>Trackpoint 3178</name>
            </trkpt>
            <trkpt lat="49.716144" lon="9.264856">
                <ele>130.0</ele>
                <time>2020-08-29T11:39:45.000Z</time>
                <name>Trackpoint 3179</name>
            </trkpt>
            <trkpt lat="49.7160416" lon="9.2648736">
                <ele>129.0</ele>
                <time>2020-08-29T11:42:24.000Z</time>
                <name>Trackpoint 3180</name>
            </trkpt>
            <trkpt lat="49.7159648" lon="9.2648">
                <ele>129.0</ele>
                <time>2020-08-29T11:42:28.000Z</time>
                <name>Trackpoint 3181</name>
            </trkpt>
            <trkpt lat="49.7158816" lon="9.26474">
                <ele>129.0</ele>
                <time>2020-08-29T11:42:31.000Z</time>
                <name>Trackpoint 3182</name>
            </trkpt>
            <trkpt lat="49.715776" lon="9.2646768">
                <ele>129.0</ele>
                <time>2020-08-29T11:42:34.000Z</time>
                <name>Trackpoint 3183</name>
            </trkpt>
            <trkpt lat="49.715696" lon="9.2646312">
                <ele>129.0</ele>
                <time>2020-08-29T11:42:36.000Z</time>
                <name>Trackpoint 3184</name>
            </trkpt>
            <trkpt lat="49.7156064" lon="9.2645912">
                <ele>129.0</ele>
                <time>2020-08-29T11:42:38.000Z</time>
                <name>Trackpoint 3185</name>
            </trkpt>
            <trkpt lat="49.7155264" lon="9.2645432">
                <ele>129.0</ele>
                <time>2020-08-29T11:42:40.000Z</time>
                <name>Trackpoint 3186</name>
            </trkpt>
            <trkpt lat="49.7154464" lon="9.2644952">
                <ele>129.0</ele>
                <time>2020-08-29T11:42:42.000Z</time>
                <name>Trackpoint 3187</name>
            </trkpt>
            <trkpt lat="49.7153664" lon="9.2644432">
                <ele>128.0</ele>
                <time>2020-08-29T11:42:44.000Z</time>
                <name>Trackpoint 3188</name>
            </trkpt>
            <trkpt lat="49.71528" lon="9.264392">
                <ele>128.0</ele>
                <time>2020-08-29T11:42:54.000Z</time>
                <name>Trackpoint 3189</name>
            </trkpt>
            <trkpt lat="49.715184" lon="9.2643416">
                <ele>128.0</ele>
                <time>2020-08-29T11:42:58.000Z</time>
                <name>Trackpoint 3190</name>
            </trkpt>
            <trkpt lat="49.7150816" lon="9.2642784">
                <ele>128.0</ele>
                <time>2020-08-29T11:43:01.000Z</time>
                <name>Trackpoint 3191</name>
            </trkpt>
            <trkpt lat="49.7149696" lon="9.2642136">
                <ele>128.0</ele>
                <time>2020-08-29T11:43:04.000Z</time>
                <name>Trackpoint 3192</name>
            </trkpt>
            <trkpt lat="49.7148448" lon="9.26416">
                <ele>128.0</ele>
                <time>2020-08-29T11:43:07.000Z</time>
                <name>Trackpoint 3193</name>
            </trkpt>
            <trkpt lat="49.7147488" lon="9.264116">
                <ele>128.0</ele>
                <time>2020-08-29T11:43:09.000Z</time>
                <name>Trackpoint 3194</name>
            </trkpt>
            <trkpt lat="49.714656" lon="9.2640736">
                <ele>128.0</ele>
                <time>2020-08-29T11:43:11.000Z</time>
                <name>Trackpoint 3195</name>
            </trkpt>
            <trkpt lat="49.7145344" lon="9.2640264">
                <ele>128.0</ele>
                <time>2020-08-29T11:43:14.000Z</time>
                <name>Trackpoint 3196</name>
            </trkpt>
            <trkpt lat="49.7144288" lon="9.2639816">
                <ele>127.0</ele>
                <time>2020-08-29T11:43:17.000Z</time>
                <name>Trackpoint 3197</name>
            </trkpt>
            <trkpt lat="49.71432" lon="9.2639552">
                <ele>127.0</ele>
                <time>2020-08-29T11:43:20.000Z</time>
                <name>Trackpoint 3198</name>
            </trkpt>
            <trkpt lat="49.7142016" lon="9.2639368">
                <ele>126.0</ele>
                <time>2020-08-29T11:43:23.000Z</time>
                <name>Trackpoint 3199</name>
            </trkpt>
            <trkpt lat="49.7140736" lon="9.2639328">
                <ele>126.0</ele>
                <time>2020-08-29T11:43:26.000Z</time>
                <name>Trackpoint 3200</name>
            </trkpt>
            <trkpt lat="49.7139584" lon="9.2639512">
                <ele>125.0</ele>
                <time>2020-08-29T11:43:29.000Z</time>
                <name>Trackpoint 3201</name>
            </trkpt>
            <trkpt lat="49.7138528" lon="9.2639576">
                <ele>125.0</ele>
                <time>2020-08-29T11:43:32.000Z</time>
                <name>Trackpoint 3202</name>
            </trkpt>
            <trkpt lat="49.71376" lon="9.2639688">
                <ele>125.0</ele>
                <time>2020-08-29T11:43:35.000Z</time>
                <name>Trackpoint 3203</name>
            </trkpt>
            <trkpt lat="49.7136544" lon="9.2640016">
                <ele>125.0</ele>
                <time>2020-08-29T11:43:39.000Z</time>
                <name>Trackpoint 3204</name>
            </trkpt>
            <trkpt lat="49.713552" lon="9.2640248">
                <ele>125.0</ele>
                <time>2020-08-29T11:43:43.000Z</time>
                <name>Trackpoint 3205</name>
            </trkpt>
            <trkpt lat="49.7134656" lon="9.2640664">
                <ele>125.0</ele>
                <time>2020-08-29T11:43:47.000Z</time>
                <name>Trackpoint 3206</name>
            </trkpt>
            <trkpt lat="49.713376" lon="9.2640952">
                <ele>124.0</ele>
                <time>2020-08-29T11:43:52.000Z</time>
                <name>Trackpoint 3207</name>
            </trkpt>
            <trkpt lat="49.7132832" lon="9.2640952">
                <ele>124.0</ele>
                <time>2020-08-29T11:43:56.000Z</time>
                <name>Trackpoint 3208</name>
            </trkpt>
            <trkpt lat="49.7131776" lon="9.2641096">
                <ele>125.0</ele>
                <time>2020-08-29T11:43:59.000Z</time>
                <name>Trackpoint 3209</name>
            </trkpt>
            <trkpt lat="49.7130496" lon="9.2641248">
                <ele>124.0</ele>
                <time>2020-08-29T11:44:02.000Z</time>
                <name>Trackpoint 3210</name>
            </trkpt>
            <trkpt lat="49.712928" lon="9.2641136">
                <ele>124.0</ele>
                <time>2020-08-29T11:44:05.000Z</time>
                <name>Trackpoint 3211</name>
            </trkpt>
            <trkpt lat="49.7128128" lon="9.2640896">
                <ele>124.0</ele>
                <time>2020-08-29T11:44:08.000Z</time>
                <name>Trackpoint 3212</name>
            </trkpt>
            <trkpt lat="49.7127008" lon="9.2640648">
                <ele>124.0</ele>
                <time>2020-08-29T11:44:11.000Z</time>
                <name>Trackpoint 3213</name>
            </trkpt>
            <trkpt lat="49.7126112" lon="9.264056">
                <ele>124.0</ele>
                <time>2020-08-29T11:44:13.000Z</time>
                <name>Trackpoint 3214</name>
            </trkpt>
            <trkpt lat="49.7124736" lon="9.2640584">
                <ele>124.0</ele>
                <time>2020-08-29T11:44:16.000Z</time>
                <name>Trackpoint 3215</name>
            </trkpt>
            <trkpt lat="49.712384" lon="9.2640848">
                <ele>124.0</ele>
                <time>2020-08-29T11:44:18.000Z</time>
                <name>Trackpoint 3216</name>
            </trkpt>
            <trkpt lat="49.7122944" lon="9.26412">
                <ele>124.0</ele>
                <time>2020-08-29T11:44:20.000Z</time>
                <name>Trackpoint 3217</name>
            </trkpt>
            <trkpt lat="49.7122112" lon="9.26416">
                <ele>124.0</ele>
                <time>2020-08-29T11:44:22.000Z</time>
                <name>Trackpoint 3218</name>
            </trkpt>
            <trkpt lat="49.7121248" lon="9.264196">
                <ele>124.0</ele>
                <time>2020-08-29T11:44:24.000Z</time>
                <name>Trackpoint 3219</name>
            </trkpt>
            <trkpt lat="49.7120544" lon="9.26428">
                <ele>124.0</ele>
                <time>2020-08-29T11:44:26.000Z</time>
                <name>Trackpoint 3220</name>
            </trkpt>
            <trkpt lat="49.7120448" lon="9.2644104">
                <ele>124.0</ele>
                <time>2020-08-29T11:44:28.000Z</time>
                <name>Trackpoint 3221</name>
            </trkpt>
            <trkpt lat="49.712048" lon="9.2645528">
                <ele>124.0</ele>
                <time>2020-08-29T11:44:30.000Z</time>
                <name>Trackpoint 3222</name>
            </trkpt>
            <trkpt lat="49.7120544" lon="9.2646952">
                <ele>124.0</ele>
                <time>2020-08-29T11:44:32.000Z</time>
                <name>Trackpoint 3223</name>
            </trkpt>
            <trkpt lat="49.7120672" lon="9.2648088">
                <ele>124.0</ele>
                <time>2020-08-29T11:44:34.000Z</time>
                <name>Trackpoint 3224</name>
            </trkpt>
            <trkpt lat="49.7121024" lon="9.2649024">
                <ele>126.0</ele>
                <time>2020-08-29T11:44:52.000Z</time>
                <name>Trackpoint 3227</name>
            </trkpt>
            <trkpt lat="49.7120128" lon="9.2648896">
                <ele>125.0</ele>
                <time>2020-08-29T11:45:06.000Z</time>
                <name>Trackpoint 3228</name>
            </trkpt>
            <trkpt lat="49.7119168" lon="9.2648832">
                <ele>123.0</ele>
                <time>2020-08-29T11:45:15.000Z</time>
                <name>Trackpoint 3229</name>
            </trkpt>
            <trkpt lat="49.7118912" lon="9.2647648">
                <ele>126.0</ele>
                <time>2020-08-29T11:46:03.000Z</time>
                <name>Trackpoint 3230</name>
            </trkpt>
            <trkpt lat="49.7118688" lon="9.2646736">
                <ele>126.0</ele>
                <time>2020-08-29T11:46:05.000Z</time>
                <name>Trackpoint 3231</name>
            </trkpt>
            <trkpt lat="49.711856" lon="9.2645568">
                <ele>126.0</ele>
                <time>2020-08-29T11:46:07.000Z</time>
                <name>Trackpoint 3232</name>
            </trkpt>
            <trkpt lat="49.7118464" lon="9.2644368">
                <ele>126.0</ele>
                <time>2020-08-29T11:46:09.000Z</time>
                <name>Trackpoint 3233</name>
            </trkpt>
            <trkpt lat="49.71184" lon="9.2643216">
                <ele>126.0</ele>
                <time>2020-08-29T11:46:11.000Z</time>
                <name>Trackpoint 3234</name>
            </trkpt>
            <trkpt lat="49.7118336" lon="9.2642136">
                <ele>127.0</ele>
                <time>2020-08-29T11:46:13.000Z</time>
                <name>Trackpoint 3235</name>
            </trkpt>
            <trkpt lat="49.7118336" lon="9.2641">
                <ele>127.0</ele>
                <time>2020-08-29T11:46:15.000Z</time>
                <name>Trackpoint 3236</name>
            </trkpt>
            <trkpt lat="49.7118368" lon="9.2639688">
                <ele>127.0</ele>
                <time>2020-08-29T11:46:17.000Z</time>
                <name>Trackpoint 3237</name>
            </trkpt>
            <trkpt lat="49.71184" lon="9.2638464">
                <ele>127.0</ele>
                <time>2020-08-29T11:46:19.000Z</time>
                <name>Trackpoint 3238</name>
            </trkpt>
            <trkpt lat="49.7118496" lon="9.2637144">
                <ele>127.0</ele>
                <time>2020-08-29T11:46:21.000Z</time>
                <name>Trackpoint 3239</name>
            </trkpt>
            <trkpt lat="49.7118592" lon="9.2635848">
                <ele>127.0</ele>
                <time>2020-08-29T11:46:23.000Z</time>
                <name>Trackpoint 3240</name>
            </trkpt>
            <trkpt lat="49.7118688" lon="9.2634448">
                <ele>126.0</ele>
                <time>2020-08-29T11:46:25.000Z</time>
                <name>Trackpoint 3241</name>
            </trkpt>
            <trkpt lat="49.7118848" lon="9.263304">
                <ele>126.0</ele>
                <time>2020-08-29T11:46:27.000Z</time>
                <name>Trackpoint 3242</name>
            </trkpt>
            <trkpt lat="49.711888" lon="9.26316">
                <ele>125.0</ele>
                <time>2020-08-29T11:46:29.000Z</time>
                <name>Trackpoint 3243</name>
            </trkpt>
            <trkpt lat="49.711904" lon="9.2630256">
                <ele>125.0</ele>
                <time>2020-08-29T11:46:31.000Z</time>
                <name>Trackpoint 3244</name>
            </trkpt>
            <trkpt lat="49.7119136" lon="9.2628984">
                <ele>125.0</ele>
                <time>2020-08-29T11:46:33.000Z</time>
                <name>Trackpoint 3245</name>
            </trkpt>
            <trkpt lat="49.7119264" lon="9.2627784">
                <ele>125.0</ele>
                <time>2020-08-29T11:46:35.000Z</time>
                <name>Trackpoint 3246</name>
            </trkpt>
            <trkpt lat="49.7118784" lon="9.2626616">
                <ele>126.0</ele>
                <time>2020-08-29T11:46:38.000Z</time>
                <name>Trackpoint 3247</name>
            </trkpt>
            <trkpt lat="49.711776" lon="9.2626496">
                <ele>125.0</ele>
                <time>2020-08-29T11:46:41.000Z</time>
                <name>Trackpoint 3248</name>
            </trkpt>
            <trkpt lat="49.7116448" lon="9.262624">
                <ele>125.0</ele>
                <time>2020-08-29T11:46:44.000Z</time>
                <name>Trackpoint 3249</name>
            </trkpt>
            <trkpt lat="49.7115552" lon="9.262604">
                <ele>125.0</ele>
                <time>2020-08-29T11:46:46.000Z</time>
                <name>Trackpoint 3250</name>
            </trkpt>
            <trkpt lat="49.7114208" lon="9.2625784">
                <ele>124.0</ele>
                <time>2020-08-29T11:46:49.000Z</time>
                <name>Trackpoint 3251</name>
            </trkpt>
            <trkpt lat="49.7113312" lon="9.2625648">
                <ele>124.0</ele>
                <time>2020-08-29T11:46:51.000Z</time>
                <name>Trackpoint 3252</name>
            </trkpt>
            <trkpt lat="49.7112384" lon="9.26254">
                <ele>123.0</ele>
                <time>2020-08-29T11:46:53.000Z</time>
                <name>Trackpoint 3253</name>
            </trkpt>
            <trkpt lat="49.7111392" lon="9.2625288">
                <ele>123.0</ele>
                <time>2020-08-29T11:46:55.000Z</time>
                <name>Trackpoint 3254</name>
            </trkpt>
            <trkpt lat="49.71104" lon="9.26252">
                <ele>123.0</ele>
                <time>2020-08-29T11:46:57.000Z</time>
                <name>Trackpoint 3255</name>
            </trkpt>
            <trkpt lat="49.7109504" lon="9.262508">
                <ele>123.0</ele>
                <time>2020-08-29T11:46:59.000Z</time>
                <name>Trackpoint 3256</name>
            </trkpt>
            <trkpt lat="49.7108256" lon="9.2624912">
                <ele>123.0</ele>
                <time>2020-08-29T11:47:02.000Z</time>
                <name>Trackpoint 3257</name>
            </trkpt>
            <trkpt lat="49.71072" lon="9.2624776">
                <ele>123.0</ele>
                <time>2020-08-29T11:47:05.000Z</time>
                <name>Trackpoint 3258</name>
            </trkpt>
            <trkpt lat="49.710624" lon="9.26246">
                <ele>123.0</ele>
                <time>2020-08-29T11:47:08.000Z</time>
                <name>Trackpoint 3259</name>
            </trkpt>
            <trkpt lat="49.7105248" lon="9.2624352">
                <ele>124.0</ele>
                <time>2020-08-29T11:47:11.000Z</time>
                <name>Trackpoint 3260</name>
            </trkpt>
            <trkpt lat="49.7104096" lon="9.2623864">
                <ele>124.0</ele>
                <time>2020-08-29T11:47:14.000Z</time>
                <name>Trackpoint 3261</name>
            </trkpt>
            <trkpt lat="49.7103232" lon="9.2623392">
                <ele>124.0</ele>
                <time>2020-08-29T11:47:16.000Z</time>
                <name>Trackpoint 3262</name>
            </trkpt>
            <trkpt lat="49.7102432" lon="9.2622784">
                <ele>124.0</ele>
                <time>2020-08-29T11:47:18.000Z</time>
                <name>Trackpoint 3263</name>
            </trkpt>
            <trkpt lat="49.7101504" lon="9.262212">
                <ele>124.0</ele>
                <time>2020-08-29T11:47:20.000Z</time>
                <name>Trackpoint 3264</name>
            </trkpt>
            <trkpt lat="49.710064" lon="9.262148">
                <ele>124.0</ele>
                <time>2020-08-29T11:47:22.000Z</time>
                <name>Trackpoint 3265</name>
            </trkpt>
            <trkpt lat="49.7099712" lon="9.2620872">
                <ele>124.0</ele>
                <time>2020-08-29T11:47:24.000Z</time>
                <name>Trackpoint 3266</name>
            </trkpt>
            <trkpt lat="49.7098816" lon="9.2620232">
                <ele>124.0</ele>
                <time>2020-08-29T11:47:26.000Z</time>
                <name>Trackpoint 3267</name>
            </trkpt>
            <trkpt lat="49.709792" lon="9.2619688">
                <ele>124.0</ele>
                <time>2020-08-29T11:47:28.000Z</time>
                <name>Trackpoint 3268</name>
            </trkpt>
            <trkpt lat="49.7097056" lon="9.2619288">
                <ele>124.0</ele>
                <time>2020-08-29T11:47:30.000Z</time>
                <name>Trackpoint 3269</name>
            </trkpt>
            <trkpt lat="49.7096192" lon="9.2619">
                <ele>124.0</ele>
                <time>2020-08-29T11:47:32.000Z</time>
                <name>Trackpoint 3270</name>
            </trkpt>
            <trkpt lat="49.7095232" lon="9.2618984">
                <ele>124.0</ele>
                <time>2020-08-29T11:47:34.000Z</time>
                <name>Trackpoint 3271</name>
            </trkpt>
            <trkpt lat="49.7094304" lon="9.2619112">
                <ele>124.0</ele>
                <time>2020-08-29T11:47:36.000Z</time>
                <name>Trackpoint 3272</name>
            </trkpt>
            <trkpt lat="49.7093376" lon="9.2619352">
                <ele>124.0</ele>
                <time>2020-08-29T11:47:38.000Z</time>
                <name>Trackpoint 3273</name>
            </trkpt>
            <trkpt lat="49.709248" lon="9.2619648">
                <ele>124.0</ele>
                <time>2020-08-29T11:47:40.000Z</time>
                <name>Trackpoint 3274</name>
            </trkpt>
            <trkpt lat="49.7091552" lon="9.2619616">
                <ele>124.0</ele>
                <time>2020-08-29T11:47:42.000Z</time>
                <name>Trackpoint 3275</name>
            </trkpt>
            <trkpt lat="49.709072" lon="9.2618864">
                <ele>124.0</ele>
                <time>2020-08-29T11:47:44.000Z</time>
                <name>Trackpoint 3276</name>
            </trkpt>
            <trkpt lat="49.7089952" lon="9.2618048">
                <ele>124.0</ele>
                <time>2020-08-29T11:47:46.000Z</time>
                <name>Trackpoint 3277</name>
            </trkpt>
            <trkpt lat="49.708912" lon="9.26172">
                <ele>124.0</ele>
                <time>2020-08-29T11:47:48.000Z</time>
                <name>Trackpoint 3278</name>
            </trkpt>
            <trkpt lat="49.708816" lon="9.2616656">
                <ele>124.0</ele>
                <time>2020-08-29T11:47:50.000Z</time>
                <name>Trackpoint 3279</name>
            </trkpt>
            <trkpt lat="49.70872" lon="9.2616304">
                <ele>124.0</ele>
                <time>2020-08-29T11:47:52.000Z</time>
                <name>Trackpoint 3280</name>
            </trkpt>
            <trkpt lat="49.7086208" lon="9.2616168">
                <ele>124.0</ele>
                <time>2020-08-29T11:47:54.000Z</time>
                <name>Trackpoint 3281</name>
            </trkpt>
            <trkpt lat="49.708528" lon="9.2616352">
                <ele>124.0</ele>
                <time>2020-08-29T11:47:56.000Z</time>
                <name>Trackpoint 3282</name>
            </trkpt>
            <trkpt lat="49.7084192" lon="9.2616568">
                <ele>124.0</ele>
                <time>2020-08-29T11:47:58.000Z</time>
                <name>Trackpoint 3283</name>
            </trkpt>
            <trkpt lat="49.70832" lon="9.2616384">
                <ele>124.0</ele>
                <time>2020-08-29T11:48:00.000Z</time>
                <name>Trackpoint 3284</name>
            </trkpt>
            <trkpt lat="49.7082336" lon="9.2615832">
                <ele>124.0</ele>
                <time>2020-08-29T11:48:02.000Z</time>
                <name>Trackpoint 3285</name>
            </trkpt>
            <trkpt lat="49.7081504" lon="9.261508">
                <ele>124.0</ele>
                <time>2020-08-29T11:48:04.000Z</time>
                <name>Trackpoint 3286</name>
            </trkpt>
            <trkpt lat="49.7080736" lon="9.261428">
                <ele>124.0</ele>
                <time>2020-08-29T11:48:06.000Z</time>
                <name>Trackpoint 3287</name>
            </trkpt>
            <trkpt lat="49.708" lon="9.2613552">
                <ele>124.0</ele>
                <time>2020-08-29T11:48:08.000Z</time>
                <name>Trackpoint 3288</name>
            </trkpt>
            <trkpt lat="49.70792" lon="9.2612784">
                <ele>124.0</ele>
                <time>2020-08-29T11:48:10.000Z</time>
                <name>Trackpoint 3289</name>
            </trkpt>
            <trkpt lat="49.7078464" lon="9.2611904">
                <ele>125.0</ele>
                <time>2020-08-29T11:48:12.000Z</time>
                <name>Trackpoint 3290</name>
            </trkpt>
            <trkpt lat="49.7077824" lon="9.26112">
                <ele>125.0</ele>
                <time>2020-08-29T11:48:14.000Z</time>
                <name>Trackpoint 3291</name>
            </trkpt>
            <trkpt lat="49.7076992" lon="9.2610368">
                <ele>125.0</ele>
                <time>2020-08-29T11:48:16.000Z</time>
                <name>Trackpoint 3292</name>
            </trkpt>
            <trkpt lat="49.7076064" lon="9.260948">
                <ele>125.0</ele>
                <time>2020-08-29T11:48:18.000Z</time>
                <name>Trackpoint 3293</name>
            </trkpt>
            <trkpt lat="49.7075072" lon="9.260852">
                <ele>125.0</ele>
                <time>2020-08-29T11:48:20.000Z</time>
                <name>Trackpoint 3294</name>
            </trkpt>
            <trkpt lat="49.7074176" lon="9.260752">
                <ele>125.0</ele>
                <time>2020-08-29T11:48:22.000Z</time>
                <name>Trackpoint 3295</name>
            </trkpt>
            <trkpt lat="49.7073472" lon="9.2606648">
                <ele>125.0</ele>
                <time>2020-08-29T11:48:24.000Z</time>
                <name>Trackpoint 3296</name>
            </trkpt>
            <trkpt lat="49.7072704" lon="9.26056">
                <ele>125.0</ele>
                <time>2020-08-29T11:48:26.000Z</time>
                <name>Trackpoint 3297</name>
            </trkpt>
            <trkpt lat="49.7072096" lon="9.2604688">
                <ele>125.0</ele>
                <time>2020-08-29T11:48:28.000Z</time>
                <name>Trackpoint 3298</name>
            </trkpt>
            <trkpt lat="49.7071328" lon="9.2604112">
                <ele>126.0</ele>
                <time>2020-08-29T11:48:30.000Z</time>
                <name>Trackpoint 3299</name>
            </trkpt>
            <trkpt lat="49.707008" lon="9.260352">
                <ele>126.0</ele>
                <time>2020-08-29T11:48:32.000Z</time>
                <name>Trackpoint 3300</name>
            </trkpt>
            <trkpt lat="49.7069184" lon="9.2603368">
                <ele>126.0</ele>
                <time>2020-08-29T11:48:34.000Z</time>
                <name>Trackpoint 3301</name>
            </trkpt>
            <trkpt lat="49.7068416" lon="9.2604048">
                <ele>126.0</ele>
                <time>2020-08-29T11:48:37.000Z</time>
                <name>Trackpoint 3302</name>
            </trkpt>
            <trkpt lat="49.7067872" lon="9.2604888">
                <ele>126.0</ele>
                <time>2020-08-29T11:48:40.000Z</time>
                <name>Trackpoint 3303</name>
            </trkpt>
            <trkpt lat="49.706672" lon="9.2604536">
                <ele>127.0</ele>
                <time>2020-08-29T11:48:45.000Z</time>
                <name>Trackpoint 3304</name>
            </trkpt>
            <trkpt lat="49.7065856" lon="9.2603616">
                <ele>127.0</ele>
                <time>2020-08-29T11:48:48.000Z</time>
                <name>Trackpoint 3305</name>
            </trkpt>
            <trkpt lat="49.7064864" lon="9.2602664">
                <ele>127.0</ele>
                <time>2020-08-29T11:48:51.000Z</time>
                <name>Trackpoint 3306</name>
            </trkpt>
            <trkpt lat="49.706416" lon="9.2601984">
                <ele>127.0</ele>
                <time>2020-08-29T11:48:53.000Z</time>
                <name>Trackpoint 3307</name>
            </trkpt>
            <trkpt lat="49.7063456" lon="9.26012">
                <ele>126.0</ele>
                <time>2020-08-29T11:48:55.000Z</time>
                <name>Trackpoint 3308</name>
            </trkpt>
            <trkpt lat="49.706272" lon="9.2600472">
                <ele>127.0</ele>
                <time>2020-08-29T11:48:57.000Z</time>
                <name>Trackpoint 3309</name>
            </trkpt>
            <trkpt lat="49.7062112" lon="9.2599632">
                <ele>127.0</ele>
                <time>2020-08-29T11:48:59.000Z</time>
                <name>Trackpoint 3310</name>
            </trkpt>
            <trkpt lat="49.706144" lon="9.2598752">
                <ele>127.0</ele>
                <time>2020-08-29T11:49:01.000Z</time>
                <name>Trackpoint 3311</name>
            </trkpt>
            <trkpt lat="49.7060768" lon="9.25978">
                <ele>127.0</ele>
                <time>2020-08-29T11:49:03.000Z</time>
                <name>Trackpoint 3312</name>
            </trkpt>
            <trkpt lat="49.7059936" lon="9.2596848">
                <ele>127.0</ele>
                <time>2020-08-29T11:49:05.000Z</time>
                <name>Trackpoint 3313</name>
            </trkpt>
            <trkpt lat="49.70592" lon="9.2596">
                <ele>127.0</ele>
                <time>2020-08-29T11:49:07.000Z</time>
                <name>Trackpoint 3314</name>
            </trkpt>
            <trkpt lat="49.7058368" lon="9.2595328">
                <ele>127.0</ele>
                <time>2020-08-29T11:49:09.000Z</time>
                <name>Trackpoint 3315</name>
            </trkpt>
            <trkpt lat="49.7057728" lon="9.2594536">
                <ele>127.0</ele>
                <time>2020-08-29T11:49:11.000Z</time>
                <name>Trackpoint 3316</name>
            </trkpt>
            <trkpt lat="49.7057088" lon="9.2593384">
                <ele>127.0</ele>
                <time>2020-08-29T11:49:13.000Z</time>
                <name>Trackpoint 3317</name>
            </trkpt>
            <trkpt lat="49.7056352" lon="9.259236">
                <ele>127.0</ele>
                <time>2020-08-29T11:49:15.000Z</time>
                <name>Trackpoint 3318</name>
            </trkpt>
            <trkpt lat="49.7055552" lon="9.2591536">
                <ele>127.0</ele>
                <time>2020-08-29T11:49:17.000Z</time>
                <name>Trackpoint 3319</name>
            </trkpt>
            <trkpt lat="49.7054624" lon="9.2590736">
                <ele>127.0</ele>
                <time>2020-08-29T11:49:19.000Z</time>
                <name>Trackpoint 3320</name>
            </trkpt>
            <trkpt lat="49.705392" lon="9.2589928">
                <ele>127.0</ele>
                <time>2020-08-29T11:49:21.000Z</time>
                <name>Trackpoint 3321</name>
            </trkpt>
            <trkpt lat="49.7053184" lon="9.2589256">
                <ele>127.0</ele>
                <time>2020-08-29T11:49:23.000Z</time>
                <name>Trackpoint 3322</name>
            </trkpt>
            <trkpt lat="49.7052384" lon="9.2588728">
                <ele>127.0</ele>
                <time>2020-08-29T11:49:25.000Z</time>
                <name>Trackpoint 3323</name>
            </trkpt>
            <trkpt lat="49.705136" lon="9.2588056">
                <ele>126.0</ele>
                <time>2020-08-29T11:49:28.000Z</time>
                <name>Trackpoint 3324</name>
            </trkpt>
            <trkpt lat="49.705072" lon="9.2586984">
                <ele>125.0</ele>
                <time>2020-08-29T11:49:31.000Z</time>
                <name>Trackpoint 3325</name>
            </trkpt>
            <trkpt lat="49.7050464" lon="9.2585752">
                <ele>126.0</ele>
                <time>2020-08-29T11:49:34.000Z</time>
                <name>Trackpoint 3326</name>
            </trkpt>
            <trkpt lat="49.7049824" lon="9.2584712">
                <ele>126.0</ele>
                <time>2020-08-29T11:49:37.000Z</time>
                <name>Trackpoint 3327</name>
            </trkpt>
            <trkpt lat="49.7049216" lon="9.2583568">
                <ele>126.0</ele>
                <time>2020-08-29T11:49:40.000Z</time>
                <name>Trackpoint 3328</name>
            </trkpt>
            <trkpt lat="49.7048736" lon="9.2582416">
                <ele>126.0</ele>
                <time>2020-08-29T11:49:43.000Z</time>
                <name>Trackpoint 3329</name>
            </trkpt>
            <trkpt lat="49.7048352" lon="9.2581352">
                <ele>126.0</ele>
                <time>2020-08-29T11:49:46.000Z</time>
                <name>Trackpoint 3330</name>
            </trkpt>
            <trkpt lat="49.7048064" lon="9.2580336">
                <ele>125.0</ele>
                <time>2020-08-29T11:49:50.000Z</time>
                <name>Trackpoint 3331</name>
            </trkpt>
            <trkpt lat="49.704704" lon="9.2580072">
                <ele>125.0</ele>
                <time>2020-08-29T11:50:19.000Z</time>
                <name>Trackpoint 3332</name>
            </trkpt>
            <trkpt lat="49.7046176" lon="9.2579544">
                <ele>126.0</ele>
                <time>2020-08-29T11:51:27.000Z</time>
                <name>Trackpoint 3333</name>
            </trkpt>
            <trkpt lat="49.7045312" lon="9.2579">
                <ele>126.0</ele>
                <time>2020-08-29T11:51:31.000Z</time>
                <name>Trackpoint 3334</name>
            </trkpt>
            <trkpt lat="49.7044384" lon="9.2578336">
                <ele>126.0</ele>
                <time>2020-08-29T11:51:34.000Z</time>
                <name>Trackpoint 3335</name>
            </trkpt>
            <trkpt lat="49.7043616" lon="9.257776">
                <ele>126.0</ele>
                <time>2020-08-29T11:51:36.000Z</time>
                <name>Trackpoint 3336</name>
            </trkpt>
            <trkpt lat="49.7042816" lon="9.2577216">
                <ele>126.0</ele>
                <time>2020-08-29T11:51:38.000Z</time>
                <name>Trackpoint 3337</name>
            </trkpt>
            <trkpt lat="49.7041984" lon="9.257664">
                <ele>126.0</ele>
                <time>2020-08-29T11:51:40.000Z</time>
                <name>Trackpoint 3338</name>
            </trkpt>
            <trkpt lat="49.7041216" lon="9.2576048">
                <ele>126.0</ele>
                <time>2020-08-29T11:51:42.000Z</time>
                <name>Trackpoint 3339</name>
            </trkpt>
            <trkpt lat="49.704048" lon="9.257548">
                <ele>126.0</ele>
                <time>2020-08-29T11:51:44.000Z</time>
                <name>Trackpoint 3340</name>
            </trkpt>
            <trkpt lat="49.7039712" lon="9.2574856">
                <ele>125.0</ele>
                <time>2020-08-29T11:52:04.000Z</time>
                <name>Trackpoint 3341</name>
            </trkpt>
            <trkpt lat="49.7038752" lon="9.2574352">
                <ele>126.0</ele>
                <time>2020-08-29T11:52:08.000Z</time>
                <name>Trackpoint 3342</name>
            </trkpt>
            <trkpt lat="49.7037824" lon="9.2573632">
                <ele>126.0</ele>
                <time>2020-08-29T11:52:11.000Z</time>
                <name>Trackpoint 3343</name>
            </trkpt>
            <trkpt lat="49.703712" lon="9.2572968">
                <ele>126.0</ele>
                <time>2020-08-29T11:52:13.000Z</time>
                <name>Trackpoint 3344</name>
            </trkpt>
            <trkpt lat="49.703648" lon="9.2572168">
                <ele>126.0</ele>
                <time>2020-08-29T11:52:15.000Z</time>
                <name>Trackpoint 3345</name>
            </trkpt>
            <trkpt lat="49.7035872" lon="9.2571352">
                <ele>126.0</ele>
                <time>2020-08-29T11:52:17.000Z</time>
                <name>Trackpoint 3346</name>
            </trkpt>
            <trkpt lat="49.7035328" lon="9.2570496">
                <ele>127.0</ele>
                <time>2020-08-29T11:52:19.000Z</time>
                <name>Trackpoint 3347</name>
            </trkpt>
            <trkpt lat="49.7034912" lon="9.2569616">
                <ele>127.0</ele>
                <time>2020-08-29T11:52:21.000Z</time>
                <name>Trackpoint 3348</name>
            </trkpt>
            <trkpt lat="49.7034272" lon="9.256848">
                <ele>126.0</ele>
                <time>2020-08-29T11:52:24.000Z</time>
                <name>Trackpoint 3349</name>
            </trkpt>
            <trkpt lat="49.7033344" lon="9.2568256">
                <ele>127.0</ele>
                <time>2020-08-29T11:52:28.000Z</time>
                <name>Trackpoint 3350</name>
            </trkpt>
            <trkpt lat="49.7032928" lon="9.2567432">
                <ele>126.0</ele>
                <time>2020-08-29T11:52:50.000Z</time>
                <name>Trackpoint 3351</name>
            </trkpt>
            <trkpt lat="49.7032384" lon="9.2566248">
                <ele>126.0</ele>
                <time>2020-08-29T11:52:53.000Z</time>
                <name>Trackpoint 3352</name>
            </trkpt>
            <trkpt lat="49.7031776" lon="9.2565544">
                <ele>126.0</ele>
                <time>2020-08-29T11:52:55.000Z</time>
                <name>Trackpoint 3353</name>
            </trkpt>
            <trkpt lat="49.703088" lon="9.2564696">
                <ele>126.0</ele>
                <time>2020-08-29T11:52:58.000Z</time>
                <name>Trackpoint 3354</name>
            </trkpt>
            <trkpt lat="49.7030336" lon="9.2563864">
                <ele>126.0</ele>
                <time>2020-08-29T11:53:00.000Z</time>
                <name>Trackpoint 3355</name>
            </trkpt>
            <trkpt lat="49.7029632" lon="9.2563136">
                <ele>126.0</ele>
                <time>2020-08-29T11:53:02.000Z</time>
                <name>Trackpoint 3356</name>
            </trkpt>
            <trkpt lat="49.7028896" lon="9.2562448">
                <ele>126.0</ele>
                <time>2020-08-29T11:53:04.000Z</time>
                <name>Trackpoint 3357</name>
            </trkpt>
            <trkpt lat="49.702816" lon="9.256168">
                <ele>126.0</ele>
                <time>2020-08-29T11:53:06.000Z</time>
                <name>Trackpoint 3358</name>
            </trkpt>
            <trkpt lat="49.7027424" lon="9.2560968">
                <ele>126.0</ele>
                <time>2020-08-29T11:53:08.000Z</time>
                <name>Trackpoint 3359</name>
            </trkpt>
            <trkpt lat="49.7026688" lon="9.2560104">
                <ele>126.0</ele>
                <time>2020-08-29T11:53:10.000Z</time>
                <name>Trackpoint 3360</name>
            </trkpt>
            <trkpt lat="49.7025856" lon="9.2559248">
                <ele>126.0</ele>
                <time>2020-08-29T11:53:12.000Z</time>
                <name>Trackpoint 3361</name>
            </trkpt>
            <trkpt lat="49.702512" lon="9.2558384">
                <ele>126.0</ele>
                <time>2020-08-29T11:53:14.000Z</time>
                <name>Trackpoint 3362</name>
            </trkpt>
            <trkpt lat="49.7024384" lon="9.2557472">
                <ele>126.0</ele>
                <time>2020-08-29T11:53:16.000Z</time>
                <name>Trackpoint 3363</name>
            </trkpt>
            <trkpt lat="49.7023712" lon="9.2556736">
                <ele>126.0</ele>
                <time>2020-08-29T11:53:18.000Z</time>
                <name>Trackpoint 3364</name>
            </trkpt>
            <trkpt lat="49.7023008" lon="9.2556016">
                <ele>126.0</ele>
                <time>2020-08-29T11:53:20.000Z</time>
                <name>Trackpoint 3365</name>
            </trkpt>
            <trkpt lat="49.70224" lon="9.2555336">
                <ele>126.0</ele>
                <time>2020-08-29T11:53:22.000Z</time>
                <name>Trackpoint 3366</name>
            </trkpt>
            <trkpt lat="49.7021728" lon="9.2554392">
                <ele>126.0</ele>
                <time>2020-08-29T11:53:25.000Z</time>
                <name>Trackpoint 3367</name>
            </trkpt>
            <trkpt lat="49.7020928" lon="9.255368">
                <ele>126.0</ele>
                <time>2020-08-29T11:54:10.000Z</time>
                <name>Trackpoint 3368</name>
            </trkpt>
            <trkpt lat="49.7020192" lon="9.2552832">
                <ele>126.0</ele>
                <time>2020-08-29T11:54:13.000Z</time>
                <name>Trackpoint 3369</name>
            </trkpt>
            <trkpt lat="49.7019552" lon="9.2552032">
                <ele>126.0</ele>
                <time>2020-08-29T11:54:16.000Z</time>
                <name>Trackpoint 3370</name>
            </trkpt>
            <trkpt lat="49.7018592" lon="9.2551048">
                <ele>126.0</ele>
                <time>2020-08-29T11:54:19.000Z</time>
                <name>Trackpoint 3371</name>
            </trkpt>
            <trkpt lat="49.7017952" lon="9.2550384">
                <ele>126.0</ele>
                <time>2020-08-29T11:54:21.000Z</time>
                <name>Trackpoint 3372</name>
            </trkpt>
            <trkpt lat="49.701715" lon="9.2549181">
                <ele>125.0</ele>
                <time>2020-08-29T11:54:23.000Z</time>
                <name>Trackpoint 3373</name>
            </trkpt>
            <trkpt lat="49.701665" lon="9.2549512">
                <ele>125.0</ele>
                <time>2020-08-29T11:54:28.000Z</time>
                <name>Trackpoint 3374</name>
            </trkpt>
            <trkpt lat="49.7015928" lon="9.2550633">
                <ele>125.0</ele>
                <time>2020-08-29T11:54:33.000Z</time>
                <name>Trackpoint 3375</name>
            </trkpt>
            <trkpt lat="49.7015538" lon="9.2550209">
                <ele>130.0</ele>
                <time>2020-08-29T12:15:51.000Z</time>
                <name>Trackpoint 3435</name>
            </trkpt>
            <trkpt lat="49.7015428" lon="9.2549834">
                <ele>127.0</ele>
                <time>2020-08-29T12:17:08.000Z</time>
                <name>Trackpoint 3436</name>
            </trkpt>
            <trkpt lat="49.7015136" lon="9.2549264">
                <ele>127.0</ele>
                <time>2020-08-29T12:17:17.000Z</time>
                <name>Trackpoint 3437</name>
            </trkpt>
            <trkpt lat="49.7014464" lon="9.254804">
                <ele>127.0</ele>
                <time>2020-08-29T12:17:20.000Z</time>
                <name>Trackpoint 3438</name>
            </trkpt>
            <trkpt lat="49.7013888" lon="9.2547104">
                <ele>127.0</ele>
                <time>2020-08-29T12:17:22.000Z</time>
                <name>Trackpoint 3439</name>
            </trkpt>
            <trkpt lat="49.7013312" lon="9.2546064">
                <ele>127.0</ele>
                <time>2020-08-29T12:17:24.000Z</time>
                <name>Trackpoint 3440</name>
            </trkpt>
            <trkpt lat="49.7012704" lon="9.2545016">
                <ele>127.0</ele>
                <time>2020-08-29T12:17:26.000Z</time>
                <name>Trackpoint 3441</name>
            </trkpt>
            <trkpt lat="49.7012064" lon="9.2543936">
                <ele>127.0</ele>
                <time>2020-08-29T12:17:28.000Z</time>
                <name>Trackpoint 3442</name>
            </trkpt>
            <trkpt lat="49.7011456" lon="9.2543024">
                <ele>127.0</ele>
                <time>2020-08-29T12:17:30.000Z</time>
                <name>Trackpoint 3443</name>
            </trkpt>
            <trkpt lat="49.7010912" lon="9.2542232">
                <ele>127.0</ele>
                <time>2020-08-29T12:17:32.000Z</time>
                <name>Trackpoint 3444</name>
            </trkpt>
            <trkpt lat="49.7010496" lon="9.2541248">
                <ele>127.0</ele>
                <time>2020-08-29T12:17:34.000Z</time>
                <name>Trackpoint 3445</name>
            </trkpt>
            <trkpt lat="49.7009856" lon="9.254012">
                <ele>127.0</ele>
                <time>2020-08-29T12:17:36.000Z</time>
                <name>Trackpoint 3446</name>
            </trkpt>
            <trkpt lat="49.7009376" lon="9.253928">
                <ele>127.0</ele>
                <time>2020-08-29T12:17:38.000Z</time>
                <name>Trackpoint 3447</name>
            </trkpt>
            <trkpt lat="49.7008672" lon="9.2538096">
                <ele>127.0</ele>
                <time>2020-08-29T12:17:41.000Z</time>
                <name>Trackpoint 3448</name>
            </trkpt>
            <trkpt lat="49.7008224" lon="9.25372">
                <ele>127.0</ele>
                <time>2020-08-29T12:17:43.000Z</time>
                <name>Trackpoint 3449</name>
            </trkpt>
            <trkpt lat="49.7007744" lon="9.2536232">
                <ele>127.0</ele>
                <time>2020-08-29T12:17:45.000Z</time>
                <name>Trackpoint 3450</name>
            </trkpt>
            <trkpt lat="49.7007072" lon="9.2534904">
                <ele>127.0</ele>
                <time>2020-08-29T12:17:48.000Z</time>
                <name>Trackpoint 3451</name>
            </trkpt>
            <trkpt lat="49.7006464" lon="9.2533776">
                <ele>127.0</ele>
                <time>2020-08-29T12:17:50.000Z</time>
                <name>Trackpoint 3452</name>
            </trkpt>
            <trkpt lat="49.7005792" lon="9.2532584">
                <ele>127.0</ele>
                <time>2020-08-29T12:17:52.000Z</time>
                <name>Trackpoint 3453</name>
            </trkpt>
            <trkpt lat="49.7005312" lon="9.2531472">
                <ele>127.0</ele>
                <time>2020-08-29T12:17:54.000Z</time>
                <name>Trackpoint 3454</name>
            </trkpt>
            <trkpt lat="49.7004864" lon="9.2530296">
                <ele>127.0</ele>
                <time>2020-08-29T12:17:56.000Z</time>
                <name>Trackpoint 3455</name>
            </trkpt>
            <trkpt lat="49.7004512" lon="9.2529136">
                <ele>127.0</ele>
                <time>2020-08-29T12:17:58.000Z</time>
                <name>Trackpoint 3456</name>
            </trkpt>
            <trkpt lat="49.7004192" lon="9.2527816">
                <ele>127.0</ele>
                <time>2020-08-29T12:18:00.000Z</time>
                <name>Trackpoint 3457</name>
            </trkpt>
            <trkpt lat="49.7003904" lon="9.2526616">
                <ele>127.0</ele>
                <time>2020-08-29T12:18:02.000Z</time>
                <name>Trackpoint 3458</name>
            </trkpt>
            <trkpt lat="49.7003616" lon="9.2525456">
                <ele>127.0</ele>
                <time>2020-08-29T12:18:04.000Z</time>
                <name>Trackpoint 3459</name>
            </trkpt>
            <trkpt lat="49.7003456" lon="9.252432">
                <ele>127.0</ele>
                <time>2020-08-29T12:18:06.000Z</time>
                <name>Trackpoint 3460</name>
            </trkpt>
            <trkpt lat="49.7003136" lon="9.2523048">
                <ele>127.0</ele>
                <time>2020-08-29T12:18:08.000Z</time>
                <name>Trackpoint 3461</name>
            </trkpt>
            <trkpt lat="49.700272" lon="9.2521616">
                <ele>127.0</ele>
                <time>2020-08-29T12:18:10.000Z</time>
                <name>Trackpoint 3462</name>
            </trkpt>
            <trkpt lat="49.7002304" lon="9.2520416">
                <ele>127.0</ele>
                <time>2020-08-29T12:18:12.000Z</time>
                <name>Trackpoint 3463</name>
            </trkpt>
            <trkpt lat="49.700192" lon="9.2519304">
                <ele>127.0</ele>
                <time>2020-08-29T12:18:14.000Z</time>
                <name>Trackpoint 3464</name>
            </trkpt>
            <trkpt lat="49.7001536" lon="9.25182">
                <ele>127.0</ele>
                <time>2020-08-29T12:18:16.000Z</time>
                <name>Trackpoint 3465</name>
            </trkpt>
            <trkpt lat="49.7001152" lon="9.2516984">
                <ele>127.0</ele>
                <time>2020-08-29T12:18:18.000Z</time>
                <name>Trackpoint 3466</name>
            </trkpt>
            <trkpt lat="49.70008" lon="9.2515848">
                <ele>126.0</ele>
                <time>2020-08-29T12:18:20.000Z</time>
                <name>Trackpoint 3467</name>
            </trkpt>
            <trkpt lat="49.7000224" lon="9.2514688">
                <ele>127.0</ele>
                <time>2020-08-29T12:18:23.000Z</time>
                <name>Trackpoint 3468</name>
            </trkpt>
            <trkpt lat="49.6999936" lon="9.2513768">
                <ele>127.0</ele>
                <time>2020-08-29T12:18:26.000Z</time>
                <name>Trackpoint 3469</name>
            </trkpt>
            <trkpt lat="49.6999808" lon="9.251284">
                <ele>127.0</ele>
                <time>2020-08-29T12:18:28.000Z</time>
                <name>Trackpoint 3470</name>
            </trkpt>
            <trkpt lat="49.699984" lon="9.2511832">
                <ele>127.0</ele>
                <time>2020-08-29T12:18:30.000Z</time>
                <name>Trackpoint 3471</name>
            </trkpt>
            <trkpt lat="49.6999808" lon="9.2510744">
                <ele>127.0</ele>
                <time>2020-08-29T12:18:32.000Z</time>
                <name>Trackpoint 3472</name>
            </trkpt>
            <trkpt lat="49.6999776" lon="9.2509616">
                <ele>126.0</ele>
                <time>2020-08-29T12:18:34.000Z</time>
                <name>Trackpoint 3473</name>
            </trkpt>
            <trkpt lat="49.699968" lon="9.2508672">
                <ele>126.0</ele>
                <time>2020-08-29T12:18:36.000Z</time>
                <name>Trackpoint 3474</name>
            </trkpt>
            <trkpt lat="49.6999616" lon="9.25076">
                <ele>126.0</ele>
                <time>2020-08-29T12:18:38.000Z</time>
                <name>Trackpoint 3475</name>
            </trkpt>
            <trkpt lat="49.6999552" lon="9.25064">
                <ele>126.0</ele>
                <time>2020-08-29T12:18:40.000Z</time>
                <name>Trackpoint 3476</name>
            </trkpt>
            <trkpt lat="49.6999392" lon="9.2505168">
                <ele>126.0</ele>
                <time>2020-08-29T12:18:42.000Z</time>
                <name>Trackpoint 3477</name>
            </trkpt>
            <trkpt lat="49.6999328" lon="9.2504032">
                <ele>126.0</ele>
                <time>2020-08-29T12:18:44.000Z</time>
                <name>Trackpoint 3478</name>
            </trkpt>
            <trkpt lat="49.6999296" lon="9.2502832">
                <ele>126.0</ele>
                <time>2020-08-29T12:18:46.000Z</time>
                <name>Trackpoint 3479</name>
            </trkpt>
            <trkpt lat="49.6999232" lon="9.25016">
                <ele>126.0</ele>
                <time>2020-08-29T12:18:48.000Z</time>
                <name>Trackpoint 3480</name>
            </trkpt>
            <trkpt lat="49.6999136" lon="9.2500488">
                <ele>126.0</ele>
                <time>2020-08-29T12:18:50.000Z</time>
                <name>Trackpoint 3481</name>
            </trkpt>
            <trkpt lat="49.6999008" lon="9.2499504">
                <ele>126.0</ele>
                <time>2020-08-29T12:18:52.000Z</time>
                <name>Trackpoint 3482</name>
            </trkpt>
            <trkpt lat="49.6999008" lon="9.2498512">
                <ele>126.0</ele>
                <time>2020-08-29T12:18:54.000Z</time>
                <name>Trackpoint 3483</name>
            </trkpt>
            <trkpt lat="49.6998944" lon="9.2497584">
                <ele>126.0</ele>
                <time>2020-08-29T12:18:56.000Z</time>
                <name>Trackpoint 3484</name>
            </trkpt>
            <trkpt lat="49.6998944" lon="9.249632">
                <ele>126.0</ele>
                <time>2020-08-29T12:18:59.000Z</time>
                <name>Trackpoint 3485</name>
            </trkpt>
            <trkpt lat="49.6998816" lon="9.2494968">
                <ele>127.0</ele>
                <time>2020-08-29T12:19:02.000Z</time>
                <name>Trackpoint 3486</name>
            </trkpt>
            <trkpt lat="49.6998688" lon="9.2493632">
                <ele>127.0</ele>
                <time>2020-08-29T12:19:05.000Z</time>
                <name>Trackpoint 3487</name>
            </trkpt>
            <trkpt lat="49.6998784" lon="9.2492664">
                <ele>127.0</ele>
                <time>2020-08-29T12:19:07.000Z</time>
                <name>Trackpoint 3488</name>
            </trkpt>
            <trkpt lat="49.6998816" lon="9.249164">
                <ele>127.0</ele>
                <time>2020-08-29T12:19:09.000Z</time>
                <name>Trackpoint 3489</name>
            </trkpt>
            <trkpt lat="49.6998816" lon="9.2490504">
                <ele>127.0</ele>
                <time>2020-08-29T12:19:11.000Z</time>
                <name>Trackpoint 3490</name>
            </trkpt>
            <trkpt lat="49.6998752" lon="9.248932">
                <ele>126.0</ele>
                <time>2020-08-29T12:19:13.000Z</time>
                <name>Trackpoint 3491</name>
            </trkpt>
            <trkpt lat="49.6998752" lon="9.2488184">
                <ele>126.0</ele>
                <time>2020-08-29T12:19:15.000Z</time>
                <name>Trackpoint 3492</name>
            </trkpt>
            <trkpt lat="49.6998784" lon="9.2487072">
                <ele>126.0</ele>
                <time>2020-08-29T12:19:17.000Z</time>
                <name>Trackpoint 3493</name>
            </trkpt>
            <trkpt lat="49.6998912" lon="9.2485912">
                <ele>126.0</ele>
                <time>2020-08-29T12:19:19.000Z</time>
                <name>Trackpoint 3494</name>
            </trkpt>
            <trkpt lat="49.6998912" lon="9.2484728">
                <ele>126.0</ele>
                <time>2020-08-29T12:19:21.000Z</time>
                <name>Trackpoint 3495</name>
            </trkpt>
            <trkpt lat="49.6998912" lon="9.2483656">
                <ele>126.0</ele>
                <time>2020-08-29T12:19:23.000Z</time>
                <name>Trackpoint 3496</name>
            </trkpt>
            <trkpt lat="49.6998912" lon="9.2482592">
                <ele>126.0</ele>
                <time>2020-08-29T12:19:25.000Z</time>
                <name>Trackpoint 3497</name>
            </trkpt>
            <trkpt lat="49.6998816" lon="9.2481672">
                <ele>126.0</ele>
                <time>2020-08-29T12:19:27.000Z</time>
                <name>Trackpoint 3498</name>
            </trkpt>
            <trkpt lat="49.6998752" lon="9.2480648">
                <ele>126.0</ele>
                <time>2020-08-29T12:19:29.000Z</time>
                <name>Trackpoint 3499</name>
            </trkpt>
            <trkpt lat="49.6998784" lon="9.2479688">
                <ele>126.0</ele>
                <time>2020-08-29T12:19:31.000Z</time>
                <name>Trackpoint 3500</name>
            </trkpt>
            <trkpt lat="49.6998784" lon="9.2478688">
                <ele>126.0</ele>
                <time>2020-08-29T12:19:33.000Z</time>
                <name>Trackpoint 3501</name>
            </trkpt>
            <trkpt lat="49.6999008" lon="9.2477712">
                <ele>126.0</ele>
                <time>2020-08-29T12:19:36.000Z</time>
                <name>Trackpoint 3502</name>
            </trkpt>
            <trkpt lat="49.699936" lon="9.2478584">
                <ele>126.0</ele>
                <time>2020-08-29T12:19:48.000Z</time>
                <name>Trackpoint 3503</name>
            </trkpt>
            <trkpt lat="49.6999552" lon="9.2477528">
                <ele>125.0</ele>
                <time>2020-08-29T12:20:26.000Z</time>
                <name>Trackpoint 3504</name>
            </trkpt>
            <trkpt lat="49.699952" lon="9.2476432">
                <ele>126.0</ele>
                <time>2020-08-29T12:20:29.000Z</time>
                <name>Trackpoint 3505</name>
            </trkpt>
            <trkpt lat="49.699952" lon="9.2475408">
                <ele>126.0</ele>
                <time>2020-08-29T12:20:32.000Z</time>
                <name>Trackpoint 3506</name>
            </trkpt>
            <trkpt lat="49.6999584" lon="9.2474448">
                <ele>126.0</ele>
                <time>2020-08-29T12:20:34.000Z</time>
                <name>Trackpoint 3507</name>
            </trkpt>
            <trkpt lat="49.699968" lon="9.2473288">
                <ele>126.0</ele>
                <time>2020-08-29T12:20:36.000Z</time>
                <name>Trackpoint 3508</name>
            </trkpt>
            <trkpt lat="49.699984" lon="9.2472016">
                <ele>126.0</ele>
                <time>2020-08-29T12:20:38.000Z</time>
                <name>Trackpoint 3509</name>
            </trkpt>
            <trkpt lat="49.7000128" lon="9.2470816">
                <ele>126.0</ele>
                <time>2020-08-29T12:20:40.000Z</time>
                <name>Trackpoint 3510</name>
            </trkpt>
            <trkpt lat="49.7000352" lon="9.2469568">
                <ele>126.0</ele>
                <time>2020-08-29T12:20:42.000Z</time>
                <name>Trackpoint 3511</name>
            </trkpt>
            <trkpt lat="49.7000608" lon="9.2468296">
                <ele>126.0</ele>
                <time>2020-08-29T12:20:44.000Z</time>
                <name>Trackpoint 3512</name>
            </trkpt>
            <trkpt lat="49.7000928" lon="9.246708">
                <ele>126.0</ele>
                <time>2020-08-29T12:20:46.000Z</time>
                <name>Trackpoint 3513</name>
            </trkpt>
            <trkpt lat="49.7001152" lon="9.2465824">
                <ele>126.0</ele>
                <time>2020-08-29T12:20:48.000Z</time>
                <name>Trackpoint 3514</name>
            </trkpt>
            <trkpt lat="49.7001728" lon="9.2464464">
                <ele>126.0</ele>
                <time>2020-08-29T12:20:50.000Z</time>
                <name>Trackpoint 3515</name>
            </trkpt>
            <trkpt lat="49.7002336" lon="9.2463368">
                <ele>126.0</ele>
                <time>2020-08-29T12:20:52.000Z</time>
                <name>Trackpoint 3516</name>
            </trkpt>
            <trkpt lat="49.7002784" lon="9.2462232">
                <ele>126.0</ele>
                <time>2020-08-29T12:20:54.000Z</time>
                <name>Trackpoint 3517</name>
            </trkpt>
            <trkpt lat="49.7003136" lon="9.2461144">
                <ele>126.0</ele>
                <time>2020-08-29T12:20:56.000Z</time>
                <name>Trackpoint 3518</name>
            </trkpt>
            <trkpt lat="49.7003488" lon="9.2459944">
                <ele>126.0</ele>
                <time>2020-08-29T12:20:58.000Z</time>
                <name>Trackpoint 3519</name>
            </trkpt>
            <trkpt lat="49.7003744" lon="9.2458712">
                <ele>126.0</ele>
                <time>2020-08-29T12:21:00.000Z</time>
                <name>Trackpoint 3520</name>
            </trkpt>
            <trkpt lat="49.7004256" lon="9.2457536">
                <ele>126.0</ele>
                <time>2020-08-29T12:21:02.000Z</time>
                <name>Trackpoint 3521</name>
            </trkpt>
            <trkpt lat="49.7004704" lon="9.2456528">
                <ele>126.0</ele>
                <time>2020-08-29T12:21:04.000Z</time>
                <name>Trackpoint 3522</name>
            </trkpt>
            <trkpt lat="49.7005184" lon="9.245548">
                <ele>126.0</ele>
                <time>2020-08-29T12:21:06.000Z</time>
                <name>Trackpoint 3523</name>
            </trkpt>
            <trkpt lat="49.7005568" lon="9.245428">
                <ele>126.0</ele>
                <time>2020-08-29T12:21:08.000Z</time>
                <name>Trackpoint 3524</name>
            </trkpt>
            <trkpt lat="49.7006048" lon="9.245292">
                <ele>126.0</ele>
                <time>2020-08-29T12:21:10.000Z</time>
                <name>Trackpoint 3525</name>
            </trkpt>
            <trkpt lat="49.7006464" lon="9.2451584">
                <ele>126.0</ele>
                <time>2020-08-29T12:21:12.000Z</time>
                <name>Trackpoint 3526</name>
            </trkpt>
            <trkpt lat="49.7006656" lon="9.2450048">
                <ele>126.0</ele>
                <time>2020-08-29T12:21:14.000Z</time>
                <name>Trackpoint 3527</name>
            </trkpt>
            <trkpt lat="49.7006688" lon="9.2448528">
                <ele>126.0</ele>
                <time>2020-08-29T12:21:16.000Z</time>
                <name>Trackpoint 3528</name>
            </trkpt>
            <trkpt lat="49.7006592" lon="9.2447184">
                <ele>126.0</ele>
                <time>2020-08-29T12:21:18.000Z</time>
                <name>Trackpoint 3529</name>
            </trkpt>
            <trkpt lat="49.7006592" lon="9.2445984">
                <ele>126.0</ele>
                <time>2020-08-29T12:21:20.000Z</time>
                <name>Trackpoint 3530</name>
            </trkpt>
            <trkpt lat="49.7006656" lon="9.244476">
                <ele>126.0</ele>
                <time>2020-08-29T12:21:22.000Z</time>
                <name>Trackpoint 3531</name>
            </trkpt>
            <trkpt lat="49.7006784" lon="9.2443464">
                <ele>126.0</ele>
                <time>2020-08-29T12:21:24.000Z</time>
                <name>Trackpoint 3532</name>
            </trkpt>
            <trkpt lat="49.7007072" lon="9.2442152">
                <ele>126.0</ele>
                <time>2020-08-29T12:21:26.000Z</time>
                <name>Trackpoint 3533</name>
            </trkpt>
            <trkpt lat="49.700736" lon="9.2440832">
                <ele>126.0</ele>
                <time>2020-08-29T12:21:28.000Z</time>
                <name>Trackpoint 3534</name>
            </trkpt>
            <trkpt lat="49.7007744" lon="9.243968">
                <ele>126.0</ele>
                <time>2020-08-29T12:21:30.000Z</time>
                <name>Trackpoint 3535</name>
            </trkpt>
            <trkpt lat="49.7008064" lon="9.2438488">
                <ele>126.0</ele>
                <time>2020-08-29T12:21:32.000Z</time>
                <name>Trackpoint 3536</name>
            </trkpt>
            <trkpt lat="49.700864" lon="9.2437264">
                <ele>126.0</ele>
                <time>2020-08-29T12:21:34.000Z</time>
                <name>Trackpoint 3537</name>
            </trkpt>
            <trkpt lat="49.7008928" lon="9.243604">
                <ele>126.0</ele>
                <time>2020-08-29T12:21:36.000Z</time>
                <name>Trackpoint 3538</name>
            </trkpt>
            <trkpt lat="49.7009312" lon="9.24348">
                <ele>126.0</ele>
                <time>2020-08-29T12:21:38.000Z</time>
                <name>Trackpoint 3539</name>
            </trkpt>
            <trkpt lat="49.7009568" lon="9.2433752">
                <ele>126.0</ele>
                <time>2020-08-29T12:21:40.000Z</time>
                <name>Trackpoint 3540</name>
            </trkpt>
            <trkpt lat="49.7010016" lon="9.243248">
                <ele>126.0</ele>
                <time>2020-08-29T12:21:42.000Z</time>
                <name>Trackpoint 3541</name>
            </trkpt>
            <trkpt lat="49.7010144" lon="9.2431568">
                <ele>126.0</ele>
                <time>2020-08-29T12:21:44.000Z</time>
                <name>Trackpoint 3542</name>
            </trkpt>
            <trkpt lat="49.7010624" lon="9.2430216">
                <ele>126.0</ele>
                <time>2020-08-29T12:21:47.000Z</time>
                <name>Trackpoint 3543</name>
            </trkpt>
            <trkpt lat="49.7010944" lon="9.2428848">
                <ele>126.0</ele>
                <time>2020-08-29T12:21:49.000Z</time>
                <name>Trackpoint 3544</name>
            </trkpt>
            <trkpt lat="49.701088" lon="9.2427832">
                <ele>126.0</ele>
                <time>2020-08-29T12:21:51.000Z</time>
                <name>Trackpoint 3545</name>
            </trkpt>
            <trkpt lat="49.7011296" lon="9.242648">
                <ele>126.0</ele>
                <time>2020-08-29T12:21:53.000Z</time>
                <name>Trackpoint 3546</name>
            </trkpt>
            <trkpt lat="49.7012192" lon="9.2425016">
                <ele>126.0</ele>
                <time>2020-08-29T12:21:55.000Z</time>
                <name>Trackpoint 3547</name>
            </trkpt>
            <trkpt lat="49.7013184" lon="9.2423384">
                <ele>126.0</ele>
                <time>2020-08-29T12:21:57.000Z</time>
                <name>Trackpoint 3548</name>
            </trkpt>
            <trkpt lat="49.7013728" lon="9.2422416">
                <ele>126.0</ele>
                <time>2020-08-29T12:21:58.000Z</time>
                <name>Trackpoint 3549</name>
            </trkpt>
            <trkpt lat="49.7014624" lon="9.2420864">
                <ele>126.0</ele>
                <time>2020-08-29T12:22:00.000Z</time>
                <name>Trackpoint 3550</name>
            </trkpt>
            <trkpt lat="49.7015136" lon="9.242008">
                <ele>125.0</ele>
                <time>2020-08-29T12:22:01.000Z</time>
                <name>Trackpoint 3551</name>
            </trkpt>
            <trkpt lat="49.701568" lon="9.2419216">
                <ele>125.0</ele>
                <time>2020-08-29T12:22:02.000Z</time>
                <name>Trackpoint 3552</name>
            </trkpt>
            <trkpt lat="49.7016256" lon="9.2417736">
                <ele>125.0</ele>
                <time>2020-08-29T12:22:04.000Z</time>
                <name>Trackpoint 3553</name>
            </trkpt>
            <trkpt lat="49.701696" lon="9.2416296">
                <ele>125.0</ele>
                <time>2020-08-29T12:22:06.000Z</time>
                <name>Trackpoint 3554</name>
            </trkpt>
            <trkpt lat="49.7017504" lon="9.2414704">
                <ele>125.0</ele>
                <time>2020-08-29T12:22:08.000Z</time>
                <name>Trackpoint 3555</name>
            </trkpt>
            <trkpt lat="49.7018176" lon="9.2413328">
                <ele>125.0</ele>
                <time>2020-08-29T12:22:10.000Z</time>
                <name>Trackpoint 3556</name>
            </trkpt>
            <trkpt lat="49.701888" lon="9.2412096">
                <ele>125.0</ele>
                <time>2020-08-29T12:22:12.000Z</time>
                <name>Trackpoint 3557</name>
            </trkpt>
            <trkpt lat="49.7019264" lon="9.2410816">
                <ele>125.0</ele>
                <time>2020-08-29T12:22:14.000Z</time>
                <name>Trackpoint 3558</name>
            </trkpt>
            <trkpt lat="49.7019744" lon="9.2409648">
                <ele>125.0</ele>
                <time>2020-08-29T12:22:16.000Z</time>
                <name>Trackpoint 3559</name>
            </trkpt>
            <trkpt lat="49.702016" lon="9.2408464">
                <ele>125.0</ele>
                <time>2020-08-29T12:22:18.000Z</time>
                <name>Trackpoint 3560</name>
            </trkpt>
            <trkpt lat="49.7020608" lon="9.24074">
                <ele>125.0</ele>
                <time>2020-08-29T12:22:20.000Z</time>
                <name>Trackpoint 3561</name>
            </trkpt>
            <trkpt lat="49.7021056" lon="9.2406432">
                <ele>125.0</ele>
                <time>2020-08-29T12:22:22.000Z</time>
                <name>Trackpoint 3562</name>
            </trkpt>
            <trkpt lat="49.7021472" lon="9.2405184">
                <ele>125.0</ele>
                <time>2020-08-29T12:22:24.000Z</time>
                <name>Trackpoint 3563</name>
            </trkpt>
            <trkpt lat="49.7021952" lon="9.2404144">
                <ele>125.0</ele>
                <time>2020-08-29T12:22:26.000Z</time>
                <name>Trackpoint 3564</name>
            </trkpt>
            <trkpt lat="49.7022432" lon="9.2402832">
                <ele>125.0</ele>
                <time>2020-08-29T12:22:28.000Z</time>
                <name>Trackpoint 3565</name>
            </trkpt>
            <trkpt lat="49.70232" lon="9.2401448">
                <ele>124.0</ele>
                <time>2020-08-29T12:22:30.000Z</time>
                <name>Trackpoint 3566</name>
            </trkpt>
            <trkpt lat="49.7023712" lon="9.2400368">
                <ele>124.0</ele>
                <time>2020-08-29T12:22:32.000Z</time>
                <name>Trackpoint 3567</name>
            </trkpt>
            <trkpt lat="49.7024224" lon="9.2399184">
                <ele>124.0</ele>
                <time>2020-08-29T12:22:34.000Z</time>
                <name>Trackpoint 3568</name>
            </trkpt>
            <trkpt lat="49.70248" lon="9.239792">
                <ele>124.0</ele>
                <time>2020-08-29T12:22:36.000Z</time>
                <name>Trackpoint 3569</name>
            </trkpt>
            <trkpt lat="49.7025056" lon="9.2396936">
                <ele>124.0</ele>
                <time>2020-08-29T12:22:38.000Z</time>
                <name>Trackpoint 3570</name>
            </trkpt>
            <trkpt lat="49.7025824" lon="9.2395552">
                <ele>124.0</ele>
                <time>2020-08-29T12:22:40.000Z</time>
                <name>Trackpoint 3571</name>
            </trkpt>
            <trkpt lat="49.7026624" lon="9.2394048">
                <ele>124.0</ele>
                <time>2020-08-29T12:22:42.000Z</time>
                <name>Trackpoint 3572</name>
            </trkpt>
            <trkpt lat="49.7027392" lon="9.2392976">
                <ele>124.0</ele>
                <time>2020-08-29T12:22:44.000Z</time>
                <name>Trackpoint 3573</name>
            </trkpt>
            <trkpt lat="49.7028096" lon="9.2391984">
                <ele>124.0</ele>
                <time>2020-08-29T12:22:46.000Z</time>
                <name>Trackpoint 3574</name>
            </trkpt>
            <trkpt lat="49.7028832" lon="9.2390768">
                <ele>124.0</ele>
                <time>2020-08-29T12:22:48.000Z</time>
                <name>Trackpoint 3575</name>
            </trkpt>
            <trkpt lat="49.7029568" lon="9.238952">
                <ele>124.0</ele>
                <time>2020-08-29T12:22:50.000Z</time>
                <name>Trackpoint 3576</name>
            </trkpt>
            <trkpt lat="49.7030208" lon="9.238816">
                <ele>124.0</ele>
                <time>2020-08-29T12:22:52.000Z</time>
                <name>Trackpoint 3577</name>
            </trkpt>
            <trkpt lat="49.7030976" lon="9.2386712">
                <ele>124.0</ele>
                <time>2020-08-29T12:22:54.000Z</time>
                <name>Trackpoint 3578</name>
            </trkpt>
            <trkpt lat="49.7031616" lon="9.2385352">
                <ele>124.0</ele>
                <time>2020-08-29T12:22:56.000Z</time>
                <name>Trackpoint 3579</name>
            </trkpt>
            <trkpt lat="49.7032192" lon="9.238412">
                <ele>124.0</ele>
                <time>2020-08-29T12:22:58.000Z</time>
                <name>Trackpoint 3580</name>
            </trkpt>
            <trkpt lat="49.7032736" lon="9.2383136">
                <ele>124.0</ele>
                <time>2020-08-29T12:23:00.000Z</time>
                <name>Trackpoint 3581</name>
            </trkpt>
            <trkpt lat="49.7033312" lon="9.23824">
                <ele>124.0</ele>
                <time>2020-08-29T12:23:06.000Z</time>
                <name>Trackpoint 3582</name>
            </trkpt>
            <trkpt lat="49.7033888" lon="9.2381624">
                <ele>125.0</ele>
                <time>2020-08-29T12:23:36.000Z</time>
                <name>Trackpoint 3583</name>
            </trkpt>
            <trkpt lat="49.7034153" lon="9.2380903">
                <ele>126.0</ele>
                <time>2020-08-29T12:42:44.000Z</time>
                <name>Trackpoint 3602</name>
            </trkpt>
            <trkpt lat="49.703376" lon="9.2380584">
                <ele>126.0</ele>
                <time>2020-08-29T12:42:49.000Z</time>
                <name>Trackpoint 3603</name>
            </trkpt>
            <trkpt lat="49.7033504" lon="9.237964">
                <ele>126.0</ele>
                <time>2020-08-29T12:42:54.000Z</time>
                <name>Trackpoint 3604</name>
            </trkpt>
            <trkpt lat="49.703376" lon="9.2378728">
                <ele>126.0</ele>
                <time>2020-08-29T12:42:57.000Z</time>
                <name>Trackpoint 3605</name>
            </trkpt>
            <trkpt lat="49.703424" lon="9.2377928">
                <ele>126.0</ele>
                <time>2020-08-29T12:43:22.000Z</time>
                <name>Trackpoint 3606</name>
            </trkpt>
            <trkpt lat="49.7034752" lon="9.2376808">
                <ele>126.0</ele>
                <time>2020-08-29T12:43:25.000Z</time>
                <name>Trackpoint 3607</name>
            </trkpt>
            <trkpt lat="49.7035232" lon="9.2375872">
                <ele>126.0</ele>
                <time>2020-08-29T12:43:27.000Z</time>
                <name>Trackpoint 3608</name>
            </trkpt>
            <trkpt lat="49.7035456" lon="9.2374832">
                <ele>126.0</ele>
                <time>2020-08-29T12:43:29.000Z</time>
                <name>Trackpoint 3609</name>
            </trkpt>
            <trkpt lat="49.7035872" lon="9.2373888">
                <ele>126.0</ele>
                <time>2020-08-29T12:43:31.000Z</time>
                <name>Trackpoint 3610</name>
            </trkpt>
            <trkpt lat="49.7036128" lon="9.2372704">
                <ele>126.0</ele>
                <time>2020-08-29T12:43:33.000Z</time>
                <name>Trackpoint 3611</name>
            </trkpt>
            <trkpt lat="49.703632" lon="9.2371304">
                <ele>126.0</ele>
                <time>2020-08-29T12:43:35.000Z</time>
                <name>Trackpoint 3612</name>
            </trkpt>
            <trkpt lat="49.7036576" lon="9.2370072">
                <ele>126.0</ele>
                <time>2020-08-29T12:43:37.000Z</time>
                <name>Trackpoint 3613</name>
            </trkpt>
            <trkpt lat="49.7037248" lon="9.2368336">
                <ele>126.0</ele>
                <time>2020-08-29T12:43:39.000Z</time>
                <name>Trackpoint 3614</name>
            </trkpt>
            <trkpt lat="49.7037152" lon="9.2366736">
                <ele>126.0</ele>
                <time>2020-08-29T12:43:41.000Z</time>
                <name>Trackpoint 3615</name>
            </trkpt>
            <trkpt lat="49.7036928" lon="9.2365312">
                <ele>126.0</ele>
                <time>2020-08-29T12:43:43.000Z</time>
                <name>Trackpoint 3616</name>
            </trkpt>
            <trkpt lat="49.7036672" lon="9.2364168">
                <ele>126.0</ele>
                <time>2020-08-29T12:43:45.000Z</time>
                <name>Trackpoint 3617</name>
            </trkpt>
            <trkpt lat="49.703632" lon="9.2363216">
                <ele>127.0</ele>
                <time>2020-08-29T12:43:48.000Z</time>
                <name>Trackpoint 3618</name>
            </trkpt>
            <trkpt lat="49.7035968" lon="9.2362248">
                <ele>127.0</ele>
                <time>2020-08-29T12:43:50.000Z</time>
                <name>Trackpoint 3619</name>
            </trkpt>
            <trkpt lat="49.7035712" lon="9.2360888">
                <ele>127.0</ele>
                <time>2020-08-29T12:43:52.000Z</time>
                <name>Trackpoint 3620</name>
            </trkpt>
            <trkpt lat="49.7035488" lon="9.2359552">
                <ele>127.0</ele>
                <time>2020-08-29T12:43:54.000Z</time>
                <name>Trackpoint 3621</name>
            </trkpt>
            <trkpt lat="49.7035648" lon="9.2358312">
                <ele>127.0</ele>
                <time>2020-08-29T12:43:56.000Z</time>
                <name>Trackpoint 3622</name>
            </trkpt>
            <trkpt lat="49.7035872" lon="9.2356864">
                <ele>127.0</ele>
                <time>2020-08-29T12:43:58.000Z</time>
                <name>Trackpoint 3623</name>
            </trkpt>
            <trkpt lat="49.703632" lon="9.2355872">
                <ele>127.0</ele>
                <time>2020-08-29T12:44:00.000Z</time>
                <name>Trackpoint 3624</name>
            </trkpt>
            <trkpt lat="49.703696" lon="9.23552">
                <ele>127.0</ele>
                <time>2020-08-29T12:44:02.000Z</time>
                <name>Trackpoint 3625</name>
            </trkpt>
            <trkpt lat="49.7037536" lon="9.2354096">
                <ele>127.0</ele>
                <time>2020-08-29T12:44:04.000Z</time>
                <name>Trackpoint 3626</name>
            </trkpt>
            <trkpt lat="49.703808" lon="9.235316">
                <ele>127.0</ele>
                <time>2020-08-29T12:44:06.000Z</time>
                <name>Trackpoint 3627</name>
            </trkpt>
            <trkpt lat="49.7038496" lon="9.2352168">
                <ele>127.0</ele>
                <time>2020-08-29T12:44:09.000Z</time>
                <name>Trackpoint 3628</name>
            </trkpt>
            <trkpt lat="49.703856" lon="9.2351104">
                <ele>127.0</ele>
                <time>2020-08-29T12:44:12.000Z</time>
                <name>Trackpoint 3629</name>
            </trkpt>
            <trkpt lat="49.7038528" lon="9.235012">
                <ele>127.0</ele>
                <time>2020-08-29T12:44:20.000Z</time>
                <name>Trackpoint 3630</name>
            </trkpt>
            <trkpt lat="49.7038944" lon="9.2349008">
                <ele>127.0</ele>
                <time>2020-08-29T12:44:32.000Z</time>
                <name>Trackpoint 3631</name>
            </trkpt>
            <trkpt lat="49.7039616" lon="9.2347848">
                <ele>127.0</ele>
                <time>2020-08-29T12:44:35.000Z</time>
                <name>Trackpoint 3632</name>
            </trkpt>
            <trkpt lat="49.7040224" lon="9.2346736">
                <ele>127.0</ele>
                <time>2020-08-29T12:44:38.000Z</time>
                <name>Trackpoint 3633</name>
            </trkpt>
            <trkpt lat="49.7040608" lon="9.2345888">
                <ele>127.0</ele>
                <time>2020-08-29T12:44:41.000Z</time>
                <name>Trackpoint 3634</name>
            </trkpt>
            <trkpt lat="49.7040928" lon="9.2345016">
                <ele>127.0</ele>
                <time>2020-08-29T12:45:02.000Z</time>
                <name>Trackpoint 3635</name>
            </trkpt>
            <trkpt lat="49.7041408" lon="9.2344128">
                <ele>127.0</ele>
                <time>2020-08-29T12:45:06.000Z</time>
                <name>Trackpoint 3636</name>
            </trkpt>
            <trkpt lat="49.704144" lon="9.2343032">
                <ele>127.0</ele>
                <time>2020-08-29T12:45:20.000Z</time>
                <name>Trackpoint 3637</name>
            </trkpt>
            <trkpt lat="49.704192" lon="9.2341856">
                <ele>127.0</ele>
                <time>2020-08-29T12:45:23.000Z</time>
                <name>Trackpoint 3638</name>
            </trkpt>
            <trkpt lat="49.7042432" lon="9.2340832">
                <ele>127.0</ele>
                <time>2020-08-29T12:45:25.000Z</time>
                <name>Trackpoint 3639</name>
            </trkpt>
            <trkpt lat="49.7043072" lon="9.2339736">
                <ele>127.0</ele>
                <time>2020-08-29T12:45:27.000Z</time>
                <name>Trackpoint 3640</name>
            </trkpt>
            <trkpt lat="49.7043808" lon="9.2338488">
                <ele>127.0</ele>
                <time>2020-08-29T12:45:29.000Z</time>
                <name>Trackpoint 3641</name>
            </trkpt>
            <trkpt lat="49.7044672" lon="9.2337216">
                <ele>127.0</ele>
                <time>2020-08-29T12:45:31.000Z</time>
                <name>Trackpoint 3642</name>
            </trkpt>
            <trkpt lat="49.7045632" lon="9.2336056">
                <ele>127.0</ele>
                <time>2020-08-29T12:45:33.000Z</time>
                <name>Trackpoint 3643</name>
            </trkpt>
            <trkpt lat="49.7046624" lon="9.233492">
                <ele>127.0</ele>
                <time>2020-08-29T12:45:35.000Z</time>
                <name>Trackpoint 3644</name>
            </trkpt>
            <trkpt lat="49.7047744" lon="9.2333984">
                <ele>127.0</ele>
                <time>2020-08-29T12:45:37.000Z</time>
                <name>Trackpoint 3645</name>
            </trkpt>
            <trkpt lat="49.7048736" lon="9.2332848">
                <ele>127.0</ele>
                <time>2020-08-29T12:45:39.000Z</time>
                <name>Trackpoint 3646</name>
            </trkpt>
            <trkpt lat="49.7049632" lon="9.2331784">
                <ele>127.0</ele>
                <time>2020-08-29T12:45:41.000Z</time>
                <name>Trackpoint 3647</name>
            </trkpt>
            <trkpt lat="49.7050592" lon="9.233064">
                <ele>127.0</ele>
                <time>2020-08-29T12:45:43.000Z</time>
                <name>Trackpoint 3648</name>
            </trkpt>
            <trkpt lat="49.705152" lon="9.23294">
                <ele>127.0</ele>
                <time>2020-08-29T12:45:45.000Z</time>
                <name>Trackpoint 3649</name>
            </trkpt>
            <trkpt lat="49.7052544" lon="9.2328056">
                <ele>127.0</ele>
                <time>2020-08-29T12:45:47.000Z</time>
                <name>Trackpoint 3650</name>
            </trkpt>
            <trkpt lat="49.7053536" lon="9.232668">
                <ele>127.0</ele>
                <time>2020-08-29T12:45:49.000Z</time>
                <name>Trackpoint 3651</name>
            </trkpt>
            <trkpt lat="49.70544" lon="9.2325296">
                <ele>127.0</ele>
                <time>2020-08-29T12:45:51.000Z</time>
                <name>Trackpoint 3652</name>
            </trkpt>
            <trkpt lat="49.705504" lon="9.2323864">
                <ele>127.0</ele>
                <time>2020-08-29T12:45:53.000Z</time>
                <name>Trackpoint 3653</name>
            </trkpt>
            <trkpt lat="49.7055584" lon="9.2322232">
                <ele>127.0</ele>
                <time>2020-08-29T12:45:55.000Z</time>
                <name>Trackpoint 3654</name>
            </trkpt>
            <trkpt lat="49.7056288" lon="9.2320816">
                <ele>127.0</ele>
                <time>2020-08-29T12:45:57.000Z</time>
                <name>Trackpoint 3655</name>
            </trkpt>
            <trkpt lat="49.70568" lon="9.2319336">
                <ele>127.0</ele>
                <time>2020-08-29T12:45:59.000Z</time>
                <name>Trackpoint 3656</name>
            </trkpt>
            <trkpt lat="49.7057216" lon="9.2317584">
                <ele>127.0</ele>
                <time>2020-08-29T12:46:01.000Z</time>
                <name>Trackpoint 3657</name>
            </trkpt>
            <trkpt lat="49.7057472" lon="9.2316712">
                <ele>127.0</ele>
                <time>2020-08-29T12:46:02.000Z</time>
                <name>Trackpoint 3658</name>
            </trkpt>
            <trkpt lat="49.7057728" lon="9.2315832">
                <ele>127.0</ele>
                <time>2020-08-29T12:46:03.000Z</time>
                <name>Trackpoint 3659</name>
            </trkpt>
            <trkpt lat="49.705808" lon="9.2314952">
                <ele>127.0</ele>
                <time>2020-08-29T12:46:04.000Z</time>
                <name>Trackpoint 3660</name>
            </trkpt>
            <trkpt lat="49.7058368" lon="9.2314064">
                <ele>127.0</ele>
                <time>2020-08-29T12:46:05.000Z</time>
                <name>Trackpoint 3661</name>
            </trkpt>
            <trkpt lat="49.705872" lon="9.2313184">
                <ele>127.0</ele>
                <time>2020-08-29T12:46:06.000Z</time>
                <name>Trackpoint 3662</name>
            </trkpt>
            <trkpt lat="49.7059072" lon="9.2312336">
                <ele>127.0</ele>
                <time>2020-08-29T12:46:07.000Z</time>
                <name>Trackpoint 3663</name>
            </trkpt>
            <trkpt lat="49.7059392" lon="9.2311488">
                <ele>127.0</ele>
                <time>2020-08-29T12:46:08.000Z</time>
                <name>Trackpoint 3664</name>
            </trkpt>
            <trkpt lat="49.7059744" lon="9.2310632">
                <ele>127.0</ele>
                <time>2020-08-29T12:46:09.000Z</time>
                <name>Trackpoint 3665</name>
            </trkpt>
            <trkpt lat="49.7060096" lon="9.2309736">
                <ele>127.0</ele>
                <time>2020-08-29T12:46:10.000Z</time>
                <name>Trackpoint 3666</name>
            </trkpt>
            <trkpt lat="49.706048" lon="9.2308864">
                <ele>127.0</ele>
                <time>2020-08-29T12:46:11.000Z</time>
                <name>Trackpoint 3667</name>
            </trkpt>
            <trkpt lat="49.7060864" lon="9.2308">
                <ele>127.0</ele>
                <time>2020-08-29T12:46:12.000Z</time>
                <name>Trackpoint 3668</name>
            </trkpt>
            <trkpt lat="49.7061344" lon="9.2307184">
                <ele>127.0</ele>
                <time>2020-08-29T12:46:13.000Z</time>
                <name>Trackpoint 3669</name>
            </trkpt>
            <trkpt lat="49.7061696" lon="9.2306336">
                <ele>127.0</ele>
                <time>2020-08-29T12:46:14.000Z</time>
                <name>Trackpoint 3670</name>
            </trkpt>
            <trkpt lat="49.7062464" lon="9.230472">
                <ele>128.0</ele>
                <time>2020-08-29T12:46:16.000Z</time>
                <name>Trackpoint 3671</name>
            </trkpt>
            <trkpt lat="49.7062848" lon="9.2303888">
                <ele>128.0</ele>
                <time>2020-08-29T12:46:17.000Z</time>
                <name>Trackpoint 3672</name>
            </trkpt>
            <trkpt lat="49.7063232" lon="9.2303064">
                <ele>128.0</ele>
                <time>2020-08-29T12:46:18.000Z</time>
                <name>Trackpoint 3673</name>
            </trkpt>
            <trkpt lat="49.7064032" lon="9.2301616">
                <ele>128.0</ele>
                <time>2020-08-29T12:46:20.000Z</time>
                <name>Trackpoint 3674</name>
            </trkpt>
            <trkpt lat="49.7064864" lon="9.230028">
                <ele>128.0</ele>
                <time>2020-08-29T12:46:22.000Z</time>
                <name>Trackpoint 3675</name>
            </trkpt>
            <trkpt lat="49.7065696" lon="9.2299016">
                <ele>128.0</ele>
                <time>2020-08-29T12:46:24.000Z</time>
                <name>Trackpoint 3676</name>
            </trkpt>
            <trkpt lat="49.706656" lon="9.22978">
                <ele>128.0</ele>
                <time>2020-08-29T12:46:26.000Z</time>
                <name>Trackpoint 3677</name>
            </trkpt>
            <trkpt lat="49.706736" lon="9.2296688">
                <ele>128.0</ele>
                <time>2020-08-29T12:46:28.000Z</time>
                <name>Trackpoint 3678</name>
            </trkpt>
            <trkpt lat="49.7068096" lon="9.2295568">
                <ele>128.0</ele>
                <time>2020-08-29T12:46:30.000Z</time>
                <name>Trackpoint 3679</name>
            </trkpt>
            <trkpt lat="49.7068704" lon="9.2294304">
                <ele>128.0</ele>
                <time>2020-08-29T12:46:32.000Z</time>
                <name>Trackpoint 3680</name>
            </trkpt>
            <trkpt lat="49.7069312" lon="9.2293352">
                <ele>128.0</ele>
                <time>2020-08-29T12:46:34.000Z</time>
                <name>Trackpoint 3681</name>
            </trkpt>
            <trkpt lat="49.7070496" lon="9.2292736">
                <ele>128.0</ele>
                <time>2020-08-29T12:46:37.000Z</time>
                <name>Trackpoint 3682</name>
            </trkpt>
            <trkpt lat="49.7071328" lon="9.229188">
                <ele>128.0</ele>
                <time>2020-08-29T12:46:39.000Z</time>
                <name>Trackpoint 3683</name>
            </trkpt>
            <trkpt lat="49.7071808" lon="9.229092">
                <ele>128.0</ele>
                <time>2020-08-29T12:46:41.000Z</time>
                <name>Trackpoint 3684</name>
            </trkpt>
            <trkpt lat="49.7072512" lon="9.2289832">
                <ele>128.0</ele>
                <time>2020-08-29T12:46:44.000Z</time>
                <name>Trackpoint 3685</name>
            </trkpt>
            <trkpt lat="49.7073088" lon="9.228884">
                <ele>128.0</ele>
                <time>2020-08-29T12:46:46.000Z</time>
                <name>Trackpoint 3686</name>
            </trkpt>
            <trkpt lat="49.7074112" lon="9.2290264">
                <ele>128.0</ele>
                <time>2020-08-29T12:46:51.000Z</time>
                <name>Trackpoint 3687</name>
            </trkpt>
            <trkpt lat="49.7074368" lon="9.2291344">
                <ele>128.0</ele>
                <time>2020-08-29T12:46:52.000Z</time>
                <name>Trackpoint 3688</name>
            </trkpt>
            <trkpt lat="49.707456" lon="9.2292336">
                <ele>128.0</ele>
                <time>2020-08-29T12:46:53.000Z</time>
                <name>Trackpoint 3689</name>
            </trkpt>
            <trkpt lat="49.7074688" lon="9.2293264">
                <ele>127.0</ele>
                <time>2020-08-29T12:46:54.000Z</time>
                <name>Trackpoint 3690</name>
            </trkpt>
            <trkpt lat="49.7074592" lon="9.2294728">
                <ele>127.0</ele>
                <time>2020-08-29T12:46:56.000Z</time>
                <name>Trackpoint 3691</name>
            </trkpt>
            <trkpt lat="49.7074464" lon="9.2296352">
                <ele>127.0</ele>
                <time>2020-08-29T12:46:58.000Z</time>
                <name>Trackpoint 3692</name>
            </trkpt>
            <trkpt lat="49.7074368" lon="9.2298096">
                <ele>127.0</ele>
                <time>2020-08-29T12:47:00.000Z</time>
                <name>Trackpoint 3693</name>
            </trkpt>
            <trkpt lat="49.7074016" lon="9.229968">
                <ele>127.0</ele>
                <time>2020-08-29T12:47:02.000Z</time>
                <name>Trackpoint 3694</name>
            </trkpt>
            <trkpt lat="49.7073696" lon="9.2301384">
                <ele>127.0</ele>
                <time>2020-08-29T12:47:04.000Z</time>
                <name>Trackpoint 3695</name>
            </trkpt>
            <trkpt lat="49.7073376" lon="9.2303">
                <ele>127.0</ele>
                <time>2020-08-29T12:47:06.000Z</time>
                <name>Trackpoint 3696</name>
            </trkpt>
            <trkpt lat="49.7072992" lon="9.2304496">
                <ele>127.0</ele>
                <time>2020-08-29T12:47:08.000Z</time>
                <name>Trackpoint 3697</name>
            </trkpt>
            <trkpt lat="49.707232" lon="9.23058">
                <ele>127.0</ele>
                <time>2020-08-29T12:47:10.000Z</time>
                <name>Trackpoint 3698</name>
            </trkpt>
            <trkpt lat="49.7071648" lon="9.2306968">
                <ele>127.0</ele>
                <time>2020-08-29T12:47:12.000Z</time>
                <name>Trackpoint 3699</name>
            </trkpt>
            <trkpt lat="49.707072" lon="9.2308032">
                <ele>127.0</ele>
                <time>2020-08-29T12:47:14.000Z</time>
                <name>Trackpoint 3700</name>
            </trkpt>
            <trkpt lat="49.7069824" lon="9.2309216">
                <ele>126.0</ele>
                <time>2020-08-29T12:47:16.000Z</time>
                <name>Trackpoint 3701</name>
            </trkpt>
            <trkpt lat="49.7068896" lon="9.231024">
                <ele>126.0</ele>
                <time>2020-08-29T12:47:18.000Z</time>
                <name>Trackpoint 3702</name>
            </trkpt>
            <trkpt lat="49.7067936" lon="9.2311296">
                <ele>126.0</ele>
                <time>2020-08-29T12:47:20.000Z</time>
                <name>Trackpoint 3703</name>
            </trkpt>
            <trkpt lat="49.7067072" lon="9.231248">
                <ele>125.0</ele>
                <time>2020-08-29T12:47:22.000Z</time>
                <name>Trackpoint 3704</name>
            </trkpt>
            <trkpt lat="49.7066208" lon="9.2313608">
                <ele>125.0</ele>
                <time>2020-08-29T12:47:24.000Z</time>
                <name>Trackpoint 3705</name>
            </trkpt>
            <trkpt lat="49.7065312" lon="9.2314632">
                <ele>125.0</ele>
                <time>2020-08-29T12:47:26.000Z</time>
                <name>Trackpoint 3706</name>
            </trkpt>
            <trkpt lat="49.7064736" lon="9.2315584">
                <ele>125.0</ele>
                <time>2020-08-29T12:47:28.000Z</time>
                <name>Trackpoint 3707</name>
            </trkpt>
            <trkpt lat="49.7064864" lon="9.2316736">
                <ele>126.0</ele>
                <time>2020-08-29T12:47:30.000Z</time>
                <name>Trackpoint 3708</name>
            </trkpt>
            <trkpt lat="49.7065472" lon="9.2317664">
                <ele>126.0</ele>
                <time>2020-08-29T12:47:32.000Z</time>
                <name>Trackpoint 3709</name>
            </trkpt>
            <trkpt lat="49.7066272" lon="9.2318296">
                <ele>126.0</ele>
                <time>2020-08-29T12:47:34.000Z</time>
                <name>Trackpoint 3710</name>
            </trkpt>
            <trkpt lat="49.7067072" lon="9.2319032">
                <ele>126.0</ele>
                <time>2020-08-29T12:47:36.000Z</time>
                <name>Trackpoint 3711</name>
            </trkpt>
            <trkpt lat="49.7067904" lon="9.23196">
                <ele>126.0</ele>
                <time>2020-08-29T12:47:38.000Z</time>
                <name>Trackpoint 3712</name>
            </trkpt>
            <trkpt lat="49.70688" lon="9.232008">
                <ele>126.0</ele>
                <time>2020-08-29T12:47:40.000Z</time>
                <name>Trackpoint 3713</name>
            </trkpt>
            <trkpt lat="49.7069824" lon="9.2320696">
                <ele>126.0</ele>
                <time>2020-08-29T12:47:43.000Z</time>
                <name>Trackpoint 3714</name>
            </trkpt>
            <trkpt lat="49.7070624" lon="9.2321192">
                <ele>126.0</ele>
                <time>2020-08-29T12:47:45.000Z</time>
                <name>Trackpoint 3715</name>
            </trkpt>
            <trkpt lat="49.7071776" lon="9.2321568">
                <ele>126.0</ele>
                <time>2020-08-29T12:47:48.000Z</time>
                <name>Trackpoint 3716</name>
            </trkpt>
            <trkpt lat="49.7072672" lon="9.2320536">
                <ele>126.0</ele>
                <time>2020-08-29T12:47:50.000Z</time>
                <name>Trackpoint 3717</name>
            </trkpt>
            <trkpt lat="49.707376" lon="9.2319616">
                <ele>126.0</ele>
                <time>2020-08-29T12:47:52.000Z</time>
                <name>Trackpoint 3718</name>
            </trkpt>
            <trkpt lat="49.7074784" lon="9.2318672">
                <ele>126.0</ele>
                <time>2020-08-29T12:47:54.000Z</time>
                <name>Trackpoint 3719</name>
            </trkpt>
            <trkpt lat="49.7075776" lon="9.23176">
                <ele>126.0</ele>
                <time>2020-08-29T12:47:56.000Z</time>
                <name>Trackpoint 3720</name>
            </trkpt>
            <trkpt lat="49.7076768" lon="9.23166">
                <ele>126.0</ele>
                <time>2020-08-29T12:47:58.000Z</time>
                <name>Trackpoint 3721</name>
            </trkpt>
            <trkpt lat="49.7077792" lon="9.2315584">
                <ele>126.0</ele>
                <time>2020-08-29T12:48:00.000Z</time>
                <name>Trackpoint 3722</name>
            </trkpt>
            <trkpt lat="49.7078848" lon="9.2314504">
                <ele>126.0</ele>
                <time>2020-08-29T12:48:02.000Z</time>
                <name>Trackpoint 3723</name>
            </trkpt>
            <trkpt lat="49.7079872" lon="9.2313608">
                <ele>126.0</ele>
                <time>2020-08-29T12:48:04.000Z</time>
                <name>Trackpoint 3724</name>
            </trkpt>
            <trkpt lat="49.70808" lon="9.231272">
                <ele>126.0</ele>
                <time>2020-08-29T12:48:06.000Z</time>
                <name>Trackpoint 3725</name>
            </trkpt>
            <trkpt lat="49.7081856" lon="9.2311824">
                <ele>126.0</ele>
                <time>2020-08-29T12:48:08.000Z</time>
                <name>Trackpoint 3726</name>
            </trkpt>
            <trkpt lat="49.7082752" lon="9.2311016">
                <ele>126.0</ele>
                <time>2020-08-29T12:48:10.000Z</time>
                <name>Trackpoint 3727</name>
            </trkpt>
            <trkpt lat="49.7082976" lon="9.2309784">
                <ele>126.0</ele>
                <time>2020-08-29T12:48:12.000Z</time>
                <name>Trackpoint 3728</name>
            </trkpt>
            <trkpt lat="49.7082624" lon="9.2308416">
                <ele>126.0</ele>
                <time>2020-08-29T12:48:14.000Z</time>
                <name>Trackpoint 3729</name>
            </trkpt>
            <trkpt lat="49.7081952" lon="9.2306928">
                <ele>126.0</ele>
                <time>2020-08-29T12:48:16.000Z</time>
                <name>Trackpoint 3730</name>
            </trkpt>
            <trkpt lat="49.7081312" lon="9.23054">
                <ele>126.0</ele>
                <time>2020-08-29T12:48:18.000Z</time>
                <name>Trackpoint 3731</name>
            </trkpt>
            <trkpt lat="49.7081024" lon="9.230376">
                <ele>126.0</ele>
                <time>2020-08-29T12:48:20.000Z</time>
                <name>Trackpoint 3732</name>
            </trkpt>
            <trkpt lat="49.70816" lon="9.2302504">
                <ele>126.0</ele>
                <time>2020-08-29T12:48:22.000Z</time>
                <name>Trackpoint 3733</name>
            </trkpt>
            <trkpt lat="49.7082304" lon="9.2301128">
                <ele>126.0</ele>
                <time>2020-08-29T12:48:24.000Z</time>
                <name>Trackpoint 3734</name>
            </trkpt>
            <trkpt lat="49.7083104" lon="9.229992">
                <ele>126.0</ele>
                <time>2020-08-29T12:48:26.000Z</time>
                <name>Trackpoint 3735</name>
            </trkpt>
            <trkpt lat="49.7083808" lon="9.2298616">
                <ele>126.0</ele>
                <time>2020-08-29T12:48:28.000Z</time>
                <name>Trackpoint 3736</name>
            </trkpt>
            <trkpt lat="49.7084544" lon="9.2297288">
                <ele>126.0</ele>
                <time>2020-08-29T12:48:30.000Z</time>
                <name>Trackpoint 3737</name>
            </trkpt>
            <trkpt lat="49.708528" lon="9.2295952">
                <ele>126.0</ele>
                <time>2020-08-29T12:48:32.000Z</time>
                <name>Trackpoint 3738</name>
            </trkpt>
            <trkpt lat="49.708608" lon="9.22946">
                <ele>126.0</ele>
                <time>2020-08-29T12:48:34.000Z</time>
                <name>Trackpoint 3739</name>
            </trkpt>
            <trkpt lat="49.7086816" lon="9.2293264">
                <ele>126.0</ele>
                <time>2020-08-29T12:48:36.000Z</time>
                <name>Trackpoint 3740</name>
            </trkpt>
            <trkpt lat="49.7087584" lon="9.229192">
                <ele>126.0</ele>
                <time>2020-08-29T12:48:38.000Z</time>
                <name>Trackpoint 3741</name>
            </trkpt>
            <trkpt lat="49.708832" lon="9.2290672">
                <ele>126.0</ele>
                <time>2020-08-29T12:48:40.000Z</time>
                <name>Trackpoint 3742</name>
            </trkpt>
            <trkpt lat="49.7089088" lon="9.2289432">
                <ele>126.0</ele>
                <time>2020-08-29T12:48:42.000Z</time>
                <name>Trackpoint 3743</name>
            </trkpt>
            <trkpt lat="49.708976" lon="9.228824">
                <ele>126.0</ele>
                <time>2020-08-29T12:48:44.000Z</time>
                <name>Trackpoint 3744</name>
            </trkpt>
            <trkpt lat="49.7090464" lon="9.228692">
                <ele>127.0</ele>
                <time>2020-08-29T12:48:46.000Z</time>
                <name>Trackpoint 3745</name>
            </trkpt>
            <trkpt lat="49.7091232" lon="9.2285632">
                <ele>127.0</ele>
                <time>2020-08-29T12:48:48.000Z</time>
                <name>Trackpoint 3746</name>
            </trkpt>
            <trkpt lat="49.7091872" lon="9.2284296">
                <ele>126.0</ele>
                <time>2020-08-29T12:48:50.000Z</time>
                <name>Trackpoint 3747</name>
            </trkpt>
            <trkpt lat="49.709264" lon="9.2283096">
                <ele>126.0</ele>
                <time>2020-08-29T12:48:52.000Z</time>
                <name>Trackpoint 3748</name>
            </trkpt>
            <trkpt lat="49.7093312" lon="9.2281952">
                <ele>126.0</ele>
                <time>2020-08-29T12:48:54.000Z</time>
                <name>Trackpoint 3749</name>
            </trkpt>
            <trkpt lat="49.7094016" lon="9.22808">
                <ele>127.0</ele>
                <time>2020-08-29T12:48:56.000Z</time>
                <name>Trackpoint 3750</name>
            </trkpt>
            <trkpt lat="49.709472" lon="9.22796">
                <ele>127.0</ele>
                <time>2020-08-29T12:48:58.000Z</time>
                <name>Trackpoint 3751</name>
            </trkpt>
            <trkpt lat="49.7095424" lon="9.2278584">
                <ele>126.0</ele>
                <time>2020-08-29T12:49:00.000Z</time>
                <name>Trackpoint 3752</name>
            </trkpt>
            <trkpt lat="49.7096032" lon="9.2277536">
                <ele>126.0</ele>
                <time>2020-08-29T12:49:02.000Z</time>
                <name>Trackpoint 3753</name>
            </trkpt>
            <trkpt lat="49.709664" lon="9.2276488">
                <ele>126.0</ele>
                <time>2020-08-29T12:49:04.000Z</time>
                <name>Trackpoint 3754</name>
            </trkpt>
            <trkpt lat="49.7097248" lon="9.2275488">
                <ele>127.0</ele>
                <time>2020-08-29T12:49:06.000Z</time>
                <name>Trackpoint 3755</name>
            </trkpt>
            <trkpt lat="49.7097824" lon="9.2274568">
                <ele>127.0</ele>
                <time>2020-08-29T12:49:08.000Z</time>
                <name>Trackpoint 3756</name>
            </trkpt>
            <trkpt lat="49.7098336" lon="9.2273616">
                <ele>127.0</ele>
                <time>2020-08-29T12:49:10.000Z</time>
                <name>Trackpoint 3757</name>
            </trkpt>
            <trkpt lat="49.7098976" lon="9.22726">
                <ele>127.0</ele>
                <time>2020-08-29T12:49:12.000Z</time>
                <name>Trackpoint 3758</name>
            </trkpt>
            <trkpt lat="49.7099648" lon="9.227148">
                <ele>127.0</ele>
                <time>2020-08-29T12:49:14.000Z</time>
                <name>Trackpoint 3759</name>
            </trkpt>
            <trkpt lat="49.710032" lon="9.2270296">
                <ele>127.0</ele>
                <time>2020-08-29T12:49:16.000Z</time>
                <name>Trackpoint 3760</name>
            </trkpt>
            <trkpt lat="49.7101056" lon="9.2269096">
                <ele>127.0</ele>
                <time>2020-08-29T12:49:18.000Z</time>
                <name>Trackpoint 3761</name>
            </trkpt>
            <trkpt lat="49.7101792" lon="9.2267904">
                <ele>127.0</ele>
                <time>2020-08-29T12:49:20.000Z</time>
                <name>Trackpoint 3762</name>
            </trkpt>
            <trkpt lat="49.7102496" lon="9.2266648">
                <ele>127.0</ele>
                <time>2020-08-29T12:49:22.000Z</time>
                <name>Trackpoint 3763</name>
            </trkpt>
            <trkpt lat="49.7103232" lon="9.2265368">
                <ele>127.0</ele>
                <time>2020-08-29T12:49:24.000Z</time>
                <name>Trackpoint 3764</name>
            </trkpt>
            <trkpt lat="49.7103968" lon="9.2264096">
                <ele>127.0</ele>
                <time>2020-08-29T12:49:26.000Z</time>
                <name>Trackpoint 3765</name>
            </trkpt>
            <trkpt lat="49.7104672" lon="9.2262824">
                <ele>128.0</ele>
                <time>2020-08-29T12:49:28.000Z</time>
                <name>Trackpoint 3766</name>
            </trkpt>
            <trkpt lat="49.7105344" lon="9.2261552">
                <ele>128.0</ele>
                <time>2020-08-29T12:49:30.000Z</time>
                <name>Trackpoint 3767</name>
            </trkpt>
            <trkpt lat="49.7106016" lon="9.2260336">
                <ele>128.0</ele>
                <time>2020-08-29T12:49:32.000Z</time>
                <name>Trackpoint 3768</name>
            </trkpt>
            <trkpt lat="49.7106752" lon="9.225932">
                <ele>128.0</ele>
                <time>2020-08-29T12:49:34.000Z</time>
                <name>Trackpoint 3769</name>
            </trkpt>
            <trkpt lat="49.7107616" lon="9.2258504">
                <ele>128.0</ele>
                <time>2020-08-29T12:49:36.000Z</time>
                <name>Trackpoint 3770</name>
            </trkpt>
            <trkpt lat="49.7108512" lon="9.225772">
                <ele>128.0</ele>
                <time>2020-08-29T12:49:38.000Z</time>
                <name>Trackpoint 3771</name>
            </trkpt>
            <trkpt lat="49.710944" lon="9.2256968">
                <ele>127.0</ele>
                <time>2020-08-29T12:49:40.000Z</time>
                <name>Trackpoint 3772</name>
            </trkpt>
            <trkpt lat="49.71104" lon="9.2256136">
                <ele>128.0</ele>
                <time>2020-08-29T12:49:42.000Z</time>
                <name>Trackpoint 3773</name>
            </trkpt>
            <trkpt lat="49.7111392" lon="9.225536">
                <ele>128.0</ele>
                <time>2020-08-29T12:49:44.000Z</time>
                <name>Trackpoint 3774</name>
            </trkpt>
            <trkpt lat="49.7112352" lon="9.2254632">
                <ele>128.0</ele>
                <time>2020-08-29T12:49:46.000Z</time>
                <name>Trackpoint 3775</name>
            </trkpt>
            <trkpt lat="49.7113312" lon="9.2253904">
                <ele>128.0</ele>
                <time>2020-08-29T12:49:48.000Z</time>
                <name>Trackpoint 3776</name>
            </trkpt>
            <trkpt lat="49.7114304" lon="9.2253248">
                <ele>129.0</ele>
                <time>2020-08-29T12:49:50.000Z</time>
                <name>Trackpoint 3777</name>
            </trkpt>
            <trkpt lat="49.7115296" lon="9.22526">
                <ele>129.0</ele>
                <time>2020-08-29T12:49:52.000Z</time>
                <name>Trackpoint 3778</name>
            </trkpt>
            <trkpt lat="49.711632" lon="9.2252056">
                <ele>129.0</ele>
                <time>2020-08-29T12:49:54.000Z</time>
                <name>Trackpoint 3779</name>
            </trkpt>
            <trkpt lat="49.711728" lon="9.22514">
                <ele>129.0</ele>
                <time>2020-08-29T12:49:56.000Z</time>
                <name>Trackpoint 3780</name>
            </trkpt>
            <trkpt lat="49.7118272" lon="9.2250832">
                <ele>129.0</ele>
                <time>2020-08-29T12:49:58.000Z</time>
                <name>Trackpoint 3781</name>
            </trkpt>
            <trkpt lat="49.7119232" lon="9.2250248">
                <ele>129.0</ele>
                <time>2020-08-29T12:50:00.000Z</time>
                <name>Trackpoint 3782</name>
            </trkpt>
            <trkpt lat="49.712016" lon="9.2249584">
                <ele>129.0</ele>
                <time>2020-08-29T12:50:02.000Z</time>
                <name>Trackpoint 3783</name>
            </trkpt>
            <trkpt lat="49.712112" lon="9.2249008">
                <ele>129.0</ele>
                <time>2020-08-29T12:50:04.000Z</time>
                <name>Trackpoint 3784</name>
            </trkpt>
            <trkpt lat="49.7122112" lon="9.2248472">
                <ele>129.0</ele>
                <time>2020-08-29T12:50:06.000Z</time>
                <name>Trackpoint 3785</name>
            </trkpt>
            <trkpt lat="49.7123072" lon="9.2248024">
                <ele>129.0</ele>
                <time>2020-08-29T12:50:08.000Z</time>
                <name>Trackpoint 3786</name>
            </trkpt>
            <trkpt lat="49.7124064" lon="9.2247584">
                <ele>129.0</ele>
                <time>2020-08-29T12:50:10.000Z</time>
                <name>Trackpoint 3787</name>
            </trkpt>
            <trkpt lat="49.7124992" lon="9.2247152">
                <ele>129.0</ele>
                <time>2020-08-29T12:50:12.000Z</time>
                <name>Trackpoint 3788</name>
            </trkpt>
            <trkpt lat="49.7125856" lon="9.2246688">
                <ele>129.0</ele>
                <time>2020-08-29T12:50:14.000Z</time>
                <name>Trackpoint 3789</name>
            </trkpt>
            <trkpt lat="49.712704" lon="9.2246104">
                <ele>129.0</ele>
                <time>2020-08-29T12:50:17.000Z</time>
                <name>Trackpoint 3790</name>
            </trkpt>
            <trkpt lat="49.7128096" lon="9.2245512">
                <ele>129.0</ele>
                <time>2020-08-29T12:50:20.000Z</time>
                <name>Trackpoint 3791</name>
            </trkpt>
            <trkpt lat="49.712896" lon="9.2245104">
                <ele>129.0</ele>
                <time>2020-08-29T12:50:22.000Z</time>
                <name>Trackpoint 3792</name>
            </trkpt>
            <trkpt lat="49.7129792" lon="9.2244656">
                <ele>130.0</ele>
                <time>2020-08-29T12:50:24.000Z</time>
                <name>Trackpoint 3793</name>
            </trkpt>
            <trkpt lat="49.7130688" lon="9.2244216">
                <ele>130.0</ele>
                <time>2020-08-29T12:50:26.000Z</time>
                <name>Trackpoint 3794</name>
            </trkpt>
            <trkpt lat="49.7131616" lon="9.2243672">
                <ele>130.0</ele>
                <time>2020-08-29T12:50:28.000Z</time>
                <name>Trackpoint 3795</name>
            </trkpt>
            <trkpt lat="49.7132576" lon="9.2243048">
                <ele>130.0</ele>
                <time>2020-08-29T12:50:30.000Z</time>
                <name>Trackpoint 3796</name>
            </trkpt>
            <trkpt lat="49.7133472" lon="9.2242368">
                <ele>130.0</ele>
                <time>2020-08-29T12:50:32.000Z</time>
                <name>Trackpoint 3797</name>
            </trkpt>
            <trkpt lat="49.7134432" lon="9.224156">
                <ele>130.0</ele>
                <time>2020-08-29T12:50:34.000Z</time>
                <name>Trackpoint 3798</name>
            </trkpt>
            <trkpt lat="49.713536" lon="9.2240736">
                <ele>130.0</ele>
                <time>2020-08-29T12:50:36.000Z</time>
                <name>Trackpoint 3799</name>
            </trkpt>
            <trkpt lat="49.7136352" lon="9.2239936">
                <ele>130.0</ele>
                <time>2020-08-29T12:50:38.000Z</time>
                <name>Trackpoint 3800</name>
            </trkpt>
            <trkpt lat="49.7137344" lon="9.2239152">
                <ele>130.0</ele>
                <time>2020-08-29T12:50:40.000Z</time>
                <name>Trackpoint 3801</name>
            </trkpt>
            <trkpt lat="49.7138368" lon="9.2238432">
                <ele>130.0</ele>
                <time>2020-08-29T12:50:42.000Z</time>
                <name>Trackpoint 3802</name>
            </trkpt>
            <trkpt lat="49.713936" lon="9.2237664">
                <ele>131.0</ele>
                <time>2020-08-29T12:50:44.000Z</time>
                <name>Trackpoint 3803</name>
            </trkpt>
            <trkpt lat="49.7140352" lon="9.2236904">
                <ele>131.0</ele>
                <time>2020-08-29T12:50:46.000Z</time>
                <name>Trackpoint 3804</name>
            </trkpt>
            <trkpt lat="49.7141344" lon="9.223612">
                <ele>131.0</ele>
                <time>2020-08-29T12:50:48.000Z</time>
                <name>Trackpoint 3805</name>
            </trkpt>
            <trkpt lat="49.7142336" lon="9.2235336">
                <ele>131.0</ele>
                <time>2020-08-29T12:50:50.000Z</time>
                <name>Trackpoint 3806</name>
            </trkpt>
            <trkpt lat="49.7143296" lon="9.2234432">
                <ele>131.0</ele>
                <time>2020-08-29T12:50:52.000Z</time>
                <name>Trackpoint 3807</name>
            </trkpt>
            <trkpt lat="49.7144256" lon="9.2233536">
                <ele>131.0</ele>
                <time>2020-08-29T12:50:54.000Z</time>
                <name>Trackpoint 3808</name>
            </trkpt>
            <trkpt lat="49.7145152" lon="9.2232584">
                <ele>131.0</ele>
                <time>2020-08-29T12:50:56.000Z</time>
                <name>Trackpoint 3809</name>
            </trkpt>
            <trkpt lat="49.7145984" lon="9.2231392">
                <ele>129.0</ele>
                <time>2020-08-29T12:50:58.000Z</time>
                <name>Trackpoint 3810</name>
            </trkpt>
            <trkpt lat="49.714688" lon="9.2230264">
                <ele>128.0</ele>
                <time>2020-08-29T12:51:00.000Z</time>
                <name>Trackpoint 3811</name>
            </trkpt>
            <trkpt lat="49.7147744" lon="9.2229232">
                <ele>127.0</ele>
                <time>2020-08-29T12:51:02.000Z</time>
                <name>Trackpoint 3812</name>
            </trkpt>
            <trkpt lat="49.714896" lon="9.2228496">
                <ele>128.0</ele>
                <time>2020-08-29T12:51:04.000Z</time>
                <name>Trackpoint 3813</name>
            </trkpt>
            <trkpt lat="49.7150112" lon="9.2227688">
                <ele>129.0</ele>
                <time>2020-08-29T12:51:06.000Z</time>
                <name>Trackpoint 3814</name>
            </trkpt>
            <trkpt lat="49.7151232" lon="9.2226912">
                <ele>129.0</ele>
                <time>2020-08-29T12:51:08.000Z</time>
                <name>Trackpoint 3815</name>
            </trkpt>
            <trkpt lat="49.715232" lon="9.2226104">
                <ele>129.0</ele>
                <time>2020-08-29T12:51:10.000Z</time>
                <name>Trackpoint 3816</name>
            </trkpt>
            <trkpt lat="49.7153248" lon="9.2225016">
                <ele>130.0</ele>
                <time>2020-08-29T12:51:12.000Z</time>
                <name>Trackpoint 3817</name>
            </trkpt>
            <trkpt lat="49.7154208" lon="9.2224104">
                <ele>130.0</ele>
                <time>2020-08-29T12:51:14.000Z</time>
                <name>Trackpoint 3818</name>
            </trkpt>
            <trkpt lat="49.7155072" lon="9.22232">
                <ele>129.0</ele>
                <time>2020-08-29T12:51:16.000Z</time>
                <name>Trackpoint 3819</name>
            </trkpt>
            <trkpt lat="49.7156" lon="9.2222472">
                <ele>129.0</ele>
                <time>2020-08-29T12:51:18.000Z</time>
                <name>Trackpoint 3820</name>
            </trkpt>
            <trkpt lat="49.7156864" lon="9.2221832">
                <ele>130.0</ele>
                <time>2020-08-29T12:51:20.000Z</time>
                <name>Trackpoint 3821</name>
            </trkpt>
            <trkpt lat="49.7157632" lon="9.2221096">
                <ele>130.0</ele>
                <time>2020-08-29T12:51:22.000Z</time>
                <name>Trackpoint 3822</name>
            </trkpt>
            <trkpt lat="49.7158368" lon="9.2220384">
                <ele>131.0</ele>
                <time>2020-08-29T12:51:24.000Z</time>
                <name>Trackpoint 3823</name>
            </trkpt>
            <trkpt lat="49.7159424" lon="9.2219496">
                <ele>131.0</ele>
                <time>2020-08-29T12:51:27.000Z</time>
                <name>Trackpoint 3824</name>
            </trkpt>
            <trkpt lat="49.7160032" lon="9.2218648">
                <ele>131.0</ele>
                <time>2020-08-29T12:51:29.000Z</time>
                <name>Trackpoint 3825</name>
            </trkpt>
            <trkpt lat="49.7160256" lon="9.2217432">
                <ele>131.0</ele>
                <time>2020-08-29T12:51:31.000Z</time>
                <name>Trackpoint 3826</name>
            </trkpt>
            <trkpt lat="49.7160352" lon="9.221612">
                <ele>131.0</ele>
                <time>2020-08-29T12:51:33.000Z</time>
                <name>Trackpoint 3827</name>
            </trkpt>
            <trkpt lat="49.7160192" lon="9.2214544">
                <ele>131.0</ele>
                <time>2020-08-29T12:51:35.000Z</time>
                <name>Trackpoint 3828</name>
            </trkpt>
            <trkpt lat="49.7160256" lon="9.2212936">
                <ele>131.0</ele>
                <time>2020-08-29T12:51:37.000Z</time>
                <name>Trackpoint 3829</name>
            </trkpt>
            <trkpt lat="49.7160288" lon="9.2211248">
                <ele>131.0</ele>
                <time>2020-08-29T12:51:39.000Z</time>
                <name>Trackpoint 3830</name>
            </trkpt>
            <trkpt lat="49.7160352" lon="9.2209528">
                <ele>131.0</ele>
                <time>2020-08-29T12:51:41.000Z</time>
                <name>Trackpoint 3831</name>
            </trkpt>
            <trkpt lat="49.716064" lon="9.2207848">
                <ele>131.0</ele>
                <time>2020-08-29T12:51:43.000Z</time>
                <name>Trackpoint 3832</name>
            </trkpt>
            <trkpt lat="49.7160768" lon="9.2206944">
                <ele>131.0</ele>
                <time>2020-08-29T12:51:44.000Z</time>
                <name>Trackpoint 3833</name>
            </trkpt>
            <trkpt lat="49.7161024" lon="9.2205664">
                <ele>131.0</ele>
                <time>2020-08-29T12:51:46.000Z</time>
                <name>Trackpoint 3834</name>
            </trkpt>
            <trkpt lat="49.7161216" lon="9.2204168">
                <ele>131.0</ele>
                <time>2020-08-29T12:51:48.000Z</time>
                <name>Trackpoint 3835</name>
            </trkpt>
            <trkpt lat="49.716128" lon="9.2202704">
                <ele>132.0</ele>
                <time>2020-08-29T12:51:50.000Z</time>
                <name>Trackpoint 3836</name>
            </trkpt>
            <trkpt lat="49.7161472" lon="9.220112">
                <ele>132.0</ele>
                <time>2020-08-29T12:51:52.000Z</time>
                <name>Trackpoint 3837</name>
            </trkpt>
            <trkpt lat="49.7161952" lon="9.21994">
                <ele>132.0</ele>
                <time>2020-08-29T12:51:54.000Z</time>
                <name>Trackpoint 3838</name>
            </trkpt>
            <trkpt lat="49.716224" lon="9.2197904">
                <ele>132.0</ele>
                <time>2020-08-29T12:51:56.000Z</time>
                <name>Trackpoint 3839</name>
            </trkpt>
            <trkpt lat="49.7162528" lon="9.2196664">
                <ele>132.0</ele>
                <time>2020-08-29T12:51:58.000Z</time>
                <name>Trackpoint 3840</name>
            </trkpt>
            <trkpt lat="49.716288" lon="9.2195416">
                <ele>132.0</ele>
                <time>2020-08-29T12:52:00.000Z</time>
                <name>Trackpoint 3841</name>
            </trkpt>
            <trkpt lat="49.7163072" lon="9.219408">
                <ele>132.0</ele>
                <time>2020-08-29T12:52:02.000Z</time>
                <name>Trackpoint 3842</name>
            </trkpt>
            <trkpt lat="49.7163072" lon="9.2192768">
                <ele>132.0</ele>
                <time>2020-08-29T12:52:04.000Z</time>
                <name>Trackpoint 3843</name>
            </trkpt>
            <trkpt lat="49.7162968" lon="9.2191611">
                <ele>132.0</ele>
                <time>2020-08-29T12:52:06.000Z</time>
                <name>Trackpoint 3844</name>
            </trkpt>
            <trkpt lat="49.7162804" lon="9.2190849">
                <ele>131.0</ele>
                <time>2020-08-29T12:52:09.000Z</time>
                <name>Trackpoint 3845</name>
            </trkpt>
            <trkpt lat="49.7162745" lon="9.2190218">
                <ele>131.0</ele>
                <time>2020-08-29T12:52:13.000Z</time>
                <name>Trackpoint 3846</name>
            </trkpt>
            <trkpt lat="49.7162656" lon="9.2189448">
                <ele>126.0</ele>
                <time>2020-08-29T13:01:26.000Z</time>
                <name>Trackpoint 3925</name>
            </trkpt>
            <trkpt lat="49.7161952" lon="9.2190336">
                <ele>126.0</ele>
                <time>2020-08-29T13:01:28.000Z</time>
                <name>Trackpoint 3926</name>
            </trkpt>
            <trkpt lat="49.7161216" lon="9.2191096">
                <ele>126.0</ele>
                <time>2020-08-29T13:01:30.000Z</time>
                <name>Trackpoint 3927</name>
            </trkpt>
            <trkpt lat="49.7160608" lon="9.2191824">
                <ele>126.0</ele>
                <time>2020-08-29T13:01:32.000Z</time>
                <name>Trackpoint 3928</name>
            </trkpt>
            <trkpt lat="49.7159776" lon="9.2192832">
                <ele>126.0</ele>
                <time>2020-08-29T13:01:35.000Z</time>
                <name>Trackpoint 3929</name>
            </trkpt>
            <trkpt lat="49.7159104" lon="9.219368">
                <ele>126.0</ele>
                <time>2020-08-29T13:01:37.000Z</time>
                <name>Trackpoint 3930</name>
            </trkpt>
            <trkpt lat="49.7158304" lon="9.2194568">
                <ele>126.0</ele>
                <time>2020-08-29T13:01:39.000Z</time>
                <name>Trackpoint 3931</name>
            </trkpt>
            <trkpt lat="49.7157472" lon="9.2195504">
                <ele>126.0</ele>
                <time>2020-08-29T13:01:41.000Z</time>
                <name>Trackpoint 3932</name>
            </trkpt>
            <trkpt lat="49.715664" lon="9.2196464">
                <ele>126.0</ele>
                <time>2020-08-29T13:01:43.000Z</time>
                <name>Trackpoint 3933</name>
            </trkpt>
            <trkpt lat="49.715584" lon="9.21976">
                <ele>127.0</ele>
                <time>2020-08-29T13:01:45.000Z</time>
                <name>Trackpoint 3934</name>
            </trkpt>
            <trkpt lat="49.7155008" lon="9.21988">
                <ele>127.0</ele>
                <time>2020-08-29T13:01:47.000Z</time>
                <name>Trackpoint 3935</name>
            </trkpt>
            <trkpt lat="49.7154336" lon="9.2199768">
                <ele>127.0</ele>
                <time>2020-08-29T13:01:49.000Z</time>
                <name>Trackpoint 3936</name>
            </trkpt>
            <trkpt lat="49.715408" lon="9.220072">
                <ele>127.0</ele>
                <time>2020-08-29T13:01:51.000Z</time>
                <name>Trackpoint 3937</name>
            </trkpt>
            <trkpt lat="49.7153984" lon="9.2202064">
                <ele>128.0</ele>
                <time>2020-08-29T13:01:54.000Z</time>
                <name>Trackpoint 3938</name>
            </trkpt>
            <trkpt lat="49.7153536" lon="9.2203">
                <ele>128.0</ele>
                <time>2020-08-29T13:01:57.000Z</time>
                <name>Trackpoint 3939</name>
            </trkpt>
            <trkpt lat="49.7153888" lon="9.2204016">
                <ele>128.0</ele>
                <time>2020-08-29T13:02:00.000Z</time>
                <name>Trackpoint 3940</name>
            </trkpt>
            <trkpt lat="49.7154304" lon="9.2205">
                <ele>128.0</ele>
                <time>2020-08-29T13:02:02.000Z</time>
                <name>Trackpoint 3941</name>
            </trkpt>
            <trkpt lat="49.715472" lon="9.2206032">
                <ele>128.0</ele>
                <time>2020-08-29T13:02:04.000Z</time>
                <name>Trackpoint 3942</name>
            </trkpt>
            <trkpt lat="49.7155072" lon="9.220708">
                <ele>128.0</ele>
                <time>2020-08-29T13:02:06.000Z</time>
                <name>Trackpoint 3943</name>
            </trkpt>
            <trkpt lat="49.715568" lon="9.2208232">
                <ele>128.0</ele>
                <time>2020-08-29T13:02:09.000Z</time>
                <name>Trackpoint 3944</name>
            </trkpt>
            <trkpt lat="49.7156064" lon="9.220908">
                <ele>128.0</ele>
                <time>2020-08-29T13:02:11.000Z</time>
                <name>Trackpoint 3945</name>
            </trkpt>
            <trkpt lat="49.7156448" lon="9.2209928">
                <ele>128.0</ele>
                <time>2020-08-29T13:02:13.000Z</time>
                <name>Trackpoint 3946</name>
            </trkpt>
            <trkpt lat="49.71568" lon="9.2210776">
                <ele>128.0</ele>
                <time>2020-08-29T13:02:15.000Z</time>
                <name>Trackpoint 3947</name>
            </trkpt>
            <trkpt lat="49.7157376" lon="9.2211952">
                <ele>129.0</ele>
                <time>2020-08-29T13:02:18.000Z</time>
                <name>Trackpoint 3948</name>
            </trkpt>
            <trkpt lat="49.7157856" lon="9.2212864">
                <ele>129.0</ele>
                <time>2020-08-29T13:02:21.000Z</time>
                <name>Trackpoint 3949</name>
            </trkpt>
            <trkpt lat="49.7158304" lon="9.2213832">
                <ele>129.0</ele>
                <time>2020-08-29T13:02:24.000Z</time>
                <name>Trackpoint 3950</name>
            </trkpt>
            <trkpt lat="49.7158592" lon="9.2215016">
                <ele>129.0</ele>
                <time>2020-08-29T13:02:27.000Z</time>
                <name>Trackpoint 3951</name>
            </trkpt>
            <trkpt lat="49.715904" lon="9.22162">
                <ele>129.0</ele>
                <time>2020-08-29T13:02:30.000Z</time>
                <name>Trackpoint 3952</name>
            </trkpt>
            <trkpt lat="49.7159232" lon="9.221732">
                <ele>130.0</ele>
                <time>2020-08-29T13:02:32.000Z</time>
                <name>Trackpoint 3953</name>
            </trkpt>
            <trkpt lat="49.715968" lon="9.22184">
                <ele>131.0</ele>
                <time>2020-08-29T13:02:34.000Z</time>
                <name>Trackpoint 3954</name>
            </trkpt>
            <trkpt lat="49.7160192" lon="9.2219432">
                <ele>132.0</ele>
                <time>2020-08-29T13:02:36.000Z</time>
                <name>Trackpoint 3955</name>
            </trkpt>
            <trkpt lat="49.716064" lon="9.2220384">
                <ele>132.0</ele>
                <time>2020-08-29T13:02:38.000Z</time>
                <name>Trackpoint 3956</name>
            </trkpt>
            <trkpt lat="49.7161056" lon="9.2221296">
                <ele>133.0</ele>
                <time>2020-08-29T13:02:40.000Z</time>
                <name>Trackpoint 3957</name>
            </trkpt>
            <trkpt lat="49.7161472" lon="9.2222208">
                <ele>133.0</ele>
                <time>2020-08-29T13:02:42.000Z</time>
                <name>Trackpoint 3958</name>
            </trkpt>
            <trkpt lat="49.7161856" lon="9.2223104">
                <ele>133.0</ele>
                <time>2020-08-29T13:02:44.000Z</time>
                <name>Trackpoint 3959</name>
            </trkpt>
            <trkpt lat="49.7162336" lon="9.2223968">
                <ele>134.0</ele>
                <time>2020-08-29T13:02:46.000Z</time>
                <name>Trackpoint 3960</name>
            </trkpt>
            <trkpt lat="49.7162816" lon="9.2224968">
                <ele>134.0</ele>
                <time>2020-08-29T13:02:48.000Z</time>
                <name>Trackpoint 3961</name>
            </trkpt>
            <trkpt lat="49.716336" lon="9.2226048">
                <ele>134.0</ele>
                <time>2020-08-29T13:02:50.000Z</time>
                <name>Trackpoint 3962</name>
            </trkpt>
            <trkpt lat="49.7163936" lon="9.2227272">
                <ele>135.0</ele>
                <time>2020-08-29T13:02:52.000Z</time>
                <name>Trackpoint 3963</name>
            </trkpt>
            <trkpt lat="49.716464" lon="9.2228416">
                <ele>135.0</ele>
                <time>2020-08-29T13:02:54.000Z</time>
                <name>Trackpoint 3964</name>
            </trkpt>
            <trkpt lat="49.7165312" lon="9.2229656">
                <ele>135.0</ele>
                <time>2020-08-29T13:02:56.000Z</time>
                <name>Trackpoint 3965</name>
            </trkpt>
            <trkpt lat="49.716592" lon="9.2231">
                <ele>135.0</ele>
                <time>2020-08-29T13:02:58.000Z</time>
                <name>Trackpoint 3966</name>
            </trkpt>
            <trkpt lat="49.716656" lon="9.2232264">
                <ele>135.0</ele>
                <time>2020-08-29T13:03:00.000Z</time>
                <name>Trackpoint 3967</name>
            </trkpt>
            <trkpt lat="49.7167168" lon="9.2233552">
                <ele>135.0</ele>
                <time>2020-08-29T13:03:02.000Z</time>
                <name>Trackpoint 3968</name>
            </trkpt>
            <trkpt lat="49.7167744" lon="9.2234824">
                <ele>135.0</ele>
                <time>2020-08-29T13:03:04.000Z</time>
                <name>Trackpoint 3969</name>
            </trkpt>
            <trkpt lat="49.7168384" lon="9.223608">
                <ele>135.0</ele>
                <time>2020-08-29T13:03:06.000Z</time>
                <name>Trackpoint 3970</name>
            </trkpt>
            <trkpt lat="49.7169024" lon="9.2237304">
                <ele>134.0</ele>
                <time>2020-08-29T13:03:08.000Z</time>
                <name>Trackpoint 3971</name>
            </trkpt>
            <trkpt lat="49.716976" lon="9.2238504">
                <ele>134.0</ele>
                <time>2020-08-29T13:03:10.000Z</time>
                <name>Trackpoint 3972</name>
            </trkpt>
            <trkpt lat="49.7170464" lon="9.2239712">
                <ele>134.0</ele>
                <time>2020-08-29T13:03:12.000Z</time>
                <name>Trackpoint 3973</name>
            </trkpt>
            <trkpt lat="49.7171168" lon="9.2240888">
                <ele>134.0</ele>
                <time>2020-08-29T13:03:14.000Z</time>
                <name>Trackpoint 3974</name>
            </trkpt>
            <trkpt lat="49.7171808" lon="9.2242144">
                <ele>134.0</ele>
                <time>2020-08-29T13:03:16.000Z</time>
                <name>Trackpoint 3975</name>
            </trkpt>
            <trkpt lat="49.7172608" lon="9.2243456">
                <ele>134.0</ele>
                <time>2020-08-29T13:03:18.000Z</time>
                <name>Trackpoint 3976</name>
            </trkpt>
            <trkpt lat="49.7173376" lon="9.224468">
                <ele>134.0</ele>
                <time>2020-08-29T13:03:20.000Z</time>
                <name>Trackpoint 3977</name>
            </trkpt>
            <trkpt lat="49.7174144" lon="9.2245928">
                <ele>134.0</ele>
                <time>2020-08-29T13:03:22.000Z</time>
                <name>Trackpoint 3978</name>
            </trkpt>
            <trkpt lat="49.7174912" lon="9.2247112">
                <ele>134.0</ele>
                <time>2020-08-29T13:03:24.000Z</time>
                <name>Trackpoint 3979</name>
            </trkpt>
            <trkpt lat="49.7175712" lon="9.2248296">
                <ele>133.0</ele>
                <time>2020-08-29T13:03:26.000Z</time>
                <name>Trackpoint 3980</name>
            </trkpt>
            <trkpt lat="49.7176544" lon="9.2249568">
                <ele>133.0</ele>
                <time>2020-08-29T13:03:28.000Z</time>
                <name>Trackpoint 3981</name>
            </trkpt>
            <trkpt lat="49.717744" lon="9.225088">
                <ele>133.0</ele>
                <time>2020-08-29T13:03:30.000Z</time>
                <name>Trackpoint 3982</name>
            </trkpt>
            <trkpt lat="49.7178336" lon="9.2252168">
                <ele>134.0</ele>
                <time>2020-08-29T13:03:32.000Z</time>
                <name>Trackpoint 3983</name>
            </trkpt>
            <trkpt lat="49.7179296" lon="9.2253504">
                <ele>134.0</ele>
                <time>2020-08-29T13:03:34.000Z</time>
                <name>Trackpoint 3984</name>
            </trkpt>
            <trkpt lat="49.7180224" lon="9.2254816">
                <ele>134.0</ele>
                <time>2020-08-29T13:03:36.000Z</time>
                <name>Trackpoint 3985</name>
            </trkpt>
            <trkpt lat="49.7181152" lon="9.2256136">
                <ele>133.0</ele>
                <time>2020-08-29T13:03:38.000Z</time>
                <name>Trackpoint 3986</name>
            </trkpt>
            <trkpt lat="49.7182112" lon="9.2257416">
                <ele>133.0</ele>
                <time>2020-08-29T13:03:40.000Z</time>
                <name>Trackpoint 3987</name>
            </trkpt>
            <trkpt lat="49.7183072" lon="9.2258664">
                <ele>133.0</ele>
                <time>2020-08-29T13:03:42.000Z</time>
                <name>Trackpoint 3988</name>
            </trkpt>
            <trkpt lat="49.7184064" lon="9.225988">
                <ele>133.0</ele>
                <time>2020-08-29T13:03:44.000Z</time>
                <name>Trackpoint 3989</name>
            </trkpt>
            <trkpt lat="49.7185056" lon="9.2261088">
                <ele>133.0</ele>
                <time>2020-08-29T13:03:46.000Z</time>
                <name>Trackpoint 3990</name>
            </trkpt>
            <trkpt lat="49.7186048" lon="9.2262288">
                <ele>132.0</ele>
                <time>2020-08-29T13:03:48.000Z</time>
                <name>Trackpoint 3991</name>
            </trkpt>
            <trkpt lat="49.7187008" lon="9.2263416">
                <ele>132.0</ele>
                <time>2020-08-29T13:03:50.000Z</time>
                <name>Trackpoint 3992</name>
            </trkpt>
            <trkpt lat="49.7187904" lon="9.2264496">
                <ele>132.0</ele>
                <time>2020-08-29T13:03:52.000Z</time>
                <name>Trackpoint 3993</name>
            </trkpt>
            <trkpt lat="49.7188832" lon="9.2265528">
                <ele>132.0</ele>
                <time>2020-08-29T13:03:54.000Z</time>
                <name>Trackpoint 3994</name>
            </trkpt>
            <trkpt lat="49.7189728" lon="9.2266512">
                <ele>132.0</ele>
                <time>2020-08-29T13:03:56.000Z</time>
                <name>Trackpoint 3995</name>
            </trkpt>
            <trkpt lat="49.71904" lon="9.2267704">
                <ele>133.0</ele>
                <time>2020-08-29T13:03:58.000Z</time>
                <name>Trackpoint 3996</name>
            </trkpt>
            <trkpt lat="49.7190944" lon="9.2269136">
                <ele>132.0</ele>
                <time>2020-08-29T13:04:00.000Z</time>
                <name>Trackpoint 3997</name>
            </trkpt>
            <trkpt lat="49.7191616" lon="9.2270432">
                <ele>131.0</ele>
                <time>2020-08-29T13:04:02.000Z</time>
                <name>Trackpoint 3998</name>
            </trkpt>
            <trkpt lat="49.7192736" lon="9.2271136">
                <ele>131.0</ele>
                <time>2020-08-29T13:04:04.000Z</time>
                <name>Trackpoint 3999</name>
            </trkpt>
            <trkpt lat="49.7193984" lon="9.227132">
                <ele>130.0</ele>
                <time>2020-08-29T13:04:06.000Z</time>
                <name>Trackpoint 4000</name>
            </trkpt>
            <trkpt lat="49.7195296" lon="9.227148">
                <ele>130.0</ele>
                <time>2020-08-29T13:04:08.000Z</time>
                <name>Trackpoint 4001</name>
            </trkpt>
            <trkpt lat="49.7196576" lon="9.2271928">
                <ele>129.0</ele>
                <time>2020-08-29T13:04:10.000Z</time>
                <name>Trackpoint 4002</name>
            </trkpt>
            <trkpt lat="49.7197792" lon="9.227272">
                <ele>129.0</ele>
                <time>2020-08-29T13:04:12.000Z</time>
                <name>Trackpoint 4003</name>
            </trkpt>
            <trkpt lat="49.7198976" lon="9.227384">
                <ele>129.0</ele>
                <time>2020-08-29T13:04:14.000Z</time>
                <name>Trackpoint 4004</name>
            </trkpt>
            <trkpt lat="49.719952" lon="9.2274568">
                <ele>128.0</ele>
                <time>2020-08-29T13:04:15.000Z</time>
                <name>Trackpoint 4005</name>
            </trkpt>
            <trkpt lat="49.72" lon="9.22754">
                <ele>128.0</ele>
                <time>2020-08-29T13:04:16.000Z</time>
                <name>Trackpoint 4006</name>
            </trkpt>
            <trkpt lat="49.720048" lon="9.2276288">
                <ele>128.0</ele>
                <time>2020-08-29T13:04:17.000Z</time>
                <name>Trackpoint 4007</name>
            </trkpt>
            <trkpt lat="49.720096" lon="9.227712">
                <ele>128.0</ele>
                <time>2020-08-29T13:04:18.000Z</time>
                <name>Trackpoint 4008</name>
            </trkpt>
            <trkpt lat="49.7201888" lon="9.2278416">
                <ele>129.0</ele>
                <time>2020-08-29T13:04:20.000Z</time>
                <name>Trackpoint 4009</name>
            </trkpt>
            <trkpt lat="49.7202848" lon="9.2279264">
                <ele>129.0</ele>
                <time>2020-08-29T13:04:22.000Z</time>
                <name>Trackpoint 4010</name>
            </trkpt>
            <trkpt lat="49.7203712" lon="9.2279552">
                <ele>129.0</ele>
                <time>2020-08-29T13:04:24.000Z</time>
                <name>Trackpoint 4011</name>
            </trkpt>
            <trkpt lat="49.720448" lon="9.2280168">
                <ele>129.0</ele>
                <time>2020-08-29T13:04:26.000Z</time>
                <name>Trackpoint 4012</name>
            </trkpt>
            <trkpt lat="49.7205056" lon="9.2281064">
                <ele>129.0</ele>
                <time>2020-08-29T13:04:28.000Z</time>
                <name>Trackpoint 4013</name>
            </trkpt>
            <trkpt lat="49.7205728" lon="9.2281864">
                <ele>129.0</ele>
                <time>2020-08-29T13:04:30.000Z</time>
                <name>Trackpoint 4014</name>
            </trkpt>
            <trkpt lat="49.720688" lon="9.2282">
                <ele>129.0</ele>
                <time>2020-08-29T13:04:33.000Z</time>
                <name>Trackpoint 4015</name>
            </trkpt>
            <trkpt lat="49.7207552" lon="9.2281336">
                <ele>130.0</ele>
                <time>2020-08-29T13:04:35.000Z</time>
                <name>Trackpoint 4016</name>
            </trkpt>
            <trkpt lat="49.720816" lon="9.2280528">
                <ele>130.0</ele>
                <time>2020-08-29T13:04:37.000Z</time>
                <name>Trackpoint 4017</name>
            </trkpt>
            <trkpt lat="49.7209152" lon="9.2280264">
                <ele>130.0</ele>
                <time>2020-08-29T13:04:40.000Z</time>
                <name>Trackpoint 4018</name>
            </trkpt>
            <trkpt lat="49.721024" lon="9.227992">
                <ele>130.0</ele>
                <time>2020-08-29T13:04:44.000Z</time>
                <name>Trackpoint 4019</name>
            </trkpt>
            <trkpt lat="49.7210912" lon="9.2279104">
                <ele>131.0</ele>
                <time>2020-08-29T13:04:46.000Z</time>
                <name>Trackpoint 4020</name>
            </trkpt>
            <trkpt lat="49.7211616" lon="9.2278272">
                <ele>130.0</ele>
                <time>2020-08-29T13:04:48.000Z</time>
                <name>Trackpoint 4021</name>
            </trkpt>
            <trkpt lat="49.721232" lon="9.2277368">
                <ele>130.0</ele>
                <time>2020-08-29T13:04:50.000Z</time>
                <name>Trackpoint 4022</name>
            </trkpt>
            <trkpt lat="49.7213184" lon="9.2276472">
                <ele>130.0</ele>
                <time>2020-08-29T13:04:52.000Z</time>
                <name>Trackpoint 4023</name>
            </trkpt>
            <trkpt lat="49.7213984" lon="9.2275632">
                <ele>130.0</ele>
                <time>2020-08-29T13:04:54.000Z</time>
                <name>Trackpoint 4024</name>
            </trkpt>
            <trkpt lat="49.7214688" lon="9.2274768">
                <ele>130.0</ele>
                <time>2020-08-29T13:04:56.000Z</time>
                <name>Trackpoint 4025</name>
            </trkpt>
            <trkpt lat="49.7215456" lon="9.227388">
                <ele>130.0</ele>
                <time>2020-08-29T13:04:58.000Z</time>
                <name>Trackpoint 4026</name>
            </trkpt>
            <trkpt lat="49.721616" lon="9.2273016">
                <ele>130.0</ele>
                <time>2020-08-29T13:05:00.000Z</time>
                <name>Trackpoint 4027</name>
            </trkpt>
            <trkpt lat="49.721696" lon="9.2272128">
                <ele>130.0</ele>
                <time>2020-08-29T13:05:02.000Z</time>
                <name>Trackpoint 4028</name>
            </trkpt>
            <trkpt lat="49.7217728" lon="9.2271272">
                <ele>131.0</ele>
                <time>2020-08-29T13:05:04.000Z</time>
                <name>Trackpoint 4029</name>
            </trkpt>
            <trkpt lat="49.7218464" lon="9.2270368">
                <ele>133.0</ele>
                <time>2020-08-29T13:05:06.000Z</time>
                <name>Trackpoint 4030</name>
            </trkpt>
            <trkpt lat="49.7219264" lon="9.2269536">
                <ele>133.0</ele>
                <time>2020-08-29T13:05:08.000Z</time>
                <name>Trackpoint 4031</name>
            </trkpt>
            <trkpt lat="49.7220032" lon="9.22686">
                <ele>134.0</ele>
                <time>2020-08-29T13:05:10.000Z</time>
                <name>Trackpoint 4032</name>
            </trkpt>
            <trkpt lat="49.72208" lon="9.2267752">
                <ele>134.0</ele>
                <time>2020-08-29T13:05:12.000Z</time>
                <name>Trackpoint 4033</name>
            </trkpt>
            <trkpt lat="49.7221536" lon="9.2266912">
                <ele>134.0</ele>
                <time>2020-08-29T13:05:14.000Z</time>
                <name>Trackpoint 4034</name>
            </trkpt>
            <trkpt lat="49.7222368" lon="9.2266128">
                <ele>133.0</ele>
                <time>2020-08-29T13:05:16.000Z</time>
                <name>Trackpoint 4035</name>
            </trkpt>
            <trkpt lat="49.7223296" lon="9.226528">
                <ele>133.0</ele>
                <time>2020-08-29T13:05:18.000Z</time>
                <name>Trackpoint 4036</name>
            </trkpt>
            <trkpt lat="49.722416" lon="9.2264408">
                <ele>134.0</ele>
                <time>2020-08-29T13:05:20.000Z</time>
                <name>Trackpoint 4037</name>
            </trkpt>
            <trkpt lat="49.7225088" lon="9.2263696">
                <ele>134.0</ele>
                <time>2020-08-29T13:05:22.000Z</time>
                <name>Trackpoint 4038</name>
            </trkpt>
            <trkpt lat="49.7225952" lon="9.2262832">
                <ele>134.0</ele>
                <time>2020-08-29T13:05:24.000Z</time>
                <name>Trackpoint 4039</name>
            </trkpt>
            <trkpt lat="49.7226912" lon="9.2261936">
                <ele>135.0</ele>
                <time>2020-08-29T13:05:26.000Z</time>
                <name>Trackpoint 4040</name>
            </trkpt>
            <trkpt lat="49.7227776" lon="9.2260968">
                <ele>135.0</ele>
                <time>2020-08-29T13:05:28.000Z</time>
                <name>Trackpoint 4041</name>
            </trkpt>
            <trkpt lat="49.7228576" lon="9.2259928">
                <ele>135.0</ele>
                <time>2020-08-29T13:05:30.000Z</time>
                <name>Trackpoint 4042</name>
            </trkpt>
            <trkpt lat="49.7229472" lon="9.2259152">
                <ele>135.0</ele>
                <time>2020-08-29T13:05:32.000Z</time>
                <name>Trackpoint 4043</name>
            </trkpt>
            <trkpt lat="49.7230368" lon="9.2258352">
                <ele>135.0</ele>
                <time>2020-08-29T13:05:34.000Z</time>
                <name>Trackpoint 4044</name>
            </trkpt>
            <trkpt lat="49.7231264" lon="9.2257536">
                <ele>134.0</ele>
                <time>2020-08-29T13:05:36.000Z</time>
                <name>Trackpoint 4045</name>
            </trkpt>
            <trkpt lat="49.7232128" lon="9.2256648">
                <ele>134.0</ele>
                <time>2020-08-29T13:05:38.000Z</time>
                <name>Trackpoint 4046</name>
            </trkpt>
            <trkpt lat="49.7233056" lon="9.2255784">
                <ele>135.0</ele>
                <time>2020-08-29T13:05:40.000Z</time>
                <name>Trackpoint 4047</name>
            </trkpt>
            <trkpt lat="49.7233856" lon="9.2254984">
                <ele>135.0</ele>
                <time>2020-08-29T13:05:42.000Z</time>
                <name>Trackpoint 4048</name>
            </trkpt>
            <trkpt lat="49.723472" lon="9.2254264">
                <ele>135.0</ele>
                <time>2020-08-29T13:05:44.000Z</time>
                <name>Trackpoint 4049</name>
            </trkpt>
            <trkpt lat="49.7235488" lon="9.2253416">
                <ele>135.0</ele>
                <time>2020-08-29T13:05:46.000Z</time>
                <name>Trackpoint 4050</name>
            </trkpt>
            <trkpt lat="49.7236352" lon="9.2252632">
                <ele>134.0</ele>
                <time>2020-08-29T13:05:48.000Z</time>
                <name>Trackpoint 4051</name>
            </trkpt>
            <trkpt lat="49.7237216" lon="9.2251984">
                <ele>135.0</ele>
                <time>2020-08-29T13:05:50.000Z</time>
                <name>Trackpoint 4052</name>
            </trkpt>
            <trkpt lat="49.7238016" lon="9.225128">
                <ele>135.0</ele>
                <time>2020-08-29T13:05:52.000Z</time>
                <name>Trackpoint 4053</name>
            </trkpt>
            <trkpt lat="49.7238816" lon="9.2250792">
                <ele>135.0</ele>
                <time>2020-08-29T13:05:54.000Z</time>
                <name>Trackpoint 4054</name>
            </trkpt>
            <trkpt lat="49.723968" lon="9.2250456">
                <ele>135.0</ele>
                <time>2020-08-29T13:05:56.000Z</time>
                <name>Trackpoint 4055</name>
            </trkpt>
            <trkpt lat="49.724" lon="9.2249544">
                <ele>135.0</ele>
                <time>2020-08-29T13:05:57.000Z</time>
                <name>Trackpoint 4056</name>
            </trkpt>
            <trkpt lat="49.7241024" lon="9.2249448">
                <ele>134.0</ele>
                <time>2020-08-29T13:05:59.000Z</time>
                <name>Trackpoint 4057</name>
            </trkpt>
            <trkpt lat="49.724192" lon="9.224908">
                <ele>133.0</ele>
                <time>2020-08-29T13:06:01.000Z</time>
                <name>Trackpoint 4058</name>
            </trkpt>
            <trkpt lat="49.7242816" lon="9.2248696">
                <ele>133.0</ele>
                <time>2020-08-29T13:06:03.000Z</time>
                <name>Trackpoint 4059</name>
            </trkpt>
            <trkpt lat="49.724384" lon="9.2248088">
                <ele>133.0</ele>
                <time>2020-08-29T13:06:06.000Z</time>
                <name>Trackpoint 4060</name>
            </trkpt>
            <trkpt lat="49.7244896" lon="9.22482">
                <ele>132.0</ele>
                <time>2020-08-29T13:06:09.000Z</time>
                <name>Trackpoint 4061</name>
            </trkpt>
            <trkpt lat="49.7245792" lon="9.2248424">
                <ele>132.0</ele>
                <time>2020-08-29T13:06:59.000Z</time>
                <name>Trackpoint 4062</name>
            </trkpt>
            <trkpt lat="49.7246336" lon="9.2247696">
                <ele>132.0</ele>
                <time>2020-08-29T13:07:02.000Z</time>
                <name>Trackpoint 4063</name>
            </trkpt>
            <trkpt lat="49.7246752" lon="9.2246864">
                <ele>132.0</ele>
                <time>2020-08-29T13:07:04.000Z</time>
                <name>Trackpoint 4064</name>
            </trkpt>
            <trkpt lat="49.7247232" lon="9.2245776">
                <ele>132.0</ele>
                <time>2020-08-29T13:07:06.000Z</time>
                <name>Trackpoint 4065</name>
            </trkpt>
            <trkpt lat="49.7247776" lon="9.224448">
                <ele>132.0</ele>
                <time>2020-08-29T13:07:08.000Z</time>
                <name>Trackpoint 4066</name>
            </trkpt>
            <trkpt lat="49.7248384" lon="9.2243216">
                <ele>132.0</ele>
                <time>2020-08-29T13:07:10.000Z</time>
                <name>Trackpoint 4067</name>
            </trkpt>
            <trkpt lat="49.7248928" lon="9.2241736">
                <ele>132.0</ele>
                <time>2020-08-29T13:07:12.000Z</time>
                <name>Trackpoint 4068</name>
            </trkpt>
            <trkpt lat="49.7249216" lon="9.2240016">
                <ele>132.0</ele>
                <time>2020-08-29T13:07:14.000Z</time>
                <name>Trackpoint 4069</name>
            </trkpt>
            <trkpt lat="49.7249856" lon="9.2238616">
                <ele>132.0</ele>
                <time>2020-08-29T13:07:16.000Z</time>
                <name>Trackpoint 4070</name>
            </trkpt>
            <trkpt lat="49.7250368" lon="9.2236856">
                <ele>132.0</ele>
                <time>2020-08-29T13:07:18.000Z</time>
                <name>Trackpoint 4071</name>
            </trkpt>
            <trkpt lat="49.725056" lon="9.2235968">
                <ele>132.0</ele>
                <time>2020-08-29T13:07:19.000Z</time>
                <name>Trackpoint 4072</name>
            </trkpt>
            <trkpt lat="49.7250784" lon="9.2235072">
                <ele>132.0</ele>
                <time>2020-08-29T13:07:20.000Z</time>
                <name>Trackpoint 4073</name>
            </trkpt>
            <trkpt lat="49.7250944" lon="9.223416">
                <ele>132.0</ele>
                <time>2020-08-29T13:07:21.000Z</time>
                <name>Trackpoint 4074</name>
            </trkpt>
            <trkpt lat="49.7251168" lon="9.2233248">
                <ele>132.0</ele>
                <time>2020-08-29T13:07:22.000Z</time>
                <name>Trackpoint 4075</name>
            </trkpt>
            <trkpt lat="49.7251296" lon="9.2232288">
                <ele>132.0</ele>
                <time>2020-08-29T13:07:23.000Z</time>
                <name>Trackpoint 4076</name>
            </trkpt>
            <trkpt lat="49.7251488" lon="9.2231328">
                <ele>132.0</ele>
                <time>2020-08-29T13:07:24.000Z</time>
                <name>Trackpoint 4077</name>
            </trkpt>
            <trkpt lat="49.7251648" lon="9.2230416">
                <ele>132.0</ele>
                <time>2020-08-29T13:07:25.000Z</time>
                <name>Trackpoint 4078</name>
            </trkpt>
            <trkpt lat="49.7251744" lon="9.2229456">
                <ele>132.0</ele>
                <time>2020-08-29T13:07:26.000Z</time>
                <name>Trackpoint 4079</name>
            </trkpt>
            <trkpt lat="49.7251904" lon="9.2228448">
                <ele>132.0</ele>
                <time>2020-08-29T13:07:27.000Z</time>
                <name>Trackpoint 4080</name>
            </trkpt>
            <trkpt lat="49.7252" lon="9.2227488">
                <ele>132.0</ele>
                <time>2020-08-29T13:07:28.000Z</time>
                <name>Trackpoint 4081</name>
            </trkpt>
            <trkpt lat="49.7252096" lon="9.2226552">
                <ele>132.0</ele>
                <time>2020-08-29T13:07:29.000Z</time>
                <name>Trackpoint 4082</name>
            </trkpt>
            <trkpt lat="49.7252224" lon="9.2225648">
                <ele>132.0</ele>
                <time>2020-08-29T13:07:30.000Z</time>
                <name>Trackpoint 4083</name>
            </trkpt>
            <trkpt lat="49.7252352" lon="9.2224752">
                <ele>132.0</ele>
                <time>2020-08-29T13:07:31.000Z</time>
                <name>Trackpoint 4084</name>
            </trkpt>
            <trkpt lat="49.725248" lon="9.222372">
                <ele>132.0</ele>
                <time>2020-08-29T13:07:32.000Z</time>
                <name>Trackpoint 4085</name>
            </trkpt>
            <trkpt lat="49.7252608" lon="9.222272">
                <ele>132.0</ele>
                <time>2020-08-29T13:07:33.000Z</time>
                <name>Trackpoint 4086</name>
            </trkpt>
            <trkpt lat="49.72528" lon="9.2221784">
                <ele>132.0</ele>
                <time>2020-08-29T13:07:34.000Z</time>
                <name>Trackpoint 4087</name>
            </trkpt>
            <trkpt lat="49.7253216" lon="9.222">
                <ele>132.0</ele>
                <time>2020-08-29T13:07:36.000Z</time>
                <name>Trackpoint 4088</name>
            </trkpt>
            <trkpt lat="49.7253376" lon="9.2218952">
                <ele>132.0</ele>
                <time>2020-08-29T13:07:37.000Z</time>
                <name>Trackpoint 4089</name>
            </trkpt>
            <trkpt lat="49.7253568" lon="9.2217968">
                <ele>132.0</ele>
                <time>2020-08-29T13:07:38.000Z</time>
                <name>Trackpoint 4090</name>
            </trkpt>
            <trkpt lat="49.7253728" lon="9.2216832">
                <ele>132.0</ele>
                <time>2020-08-29T13:07:39.000Z</time>
                <name>Trackpoint 4091</name>
            </trkpt>
            <trkpt lat="49.725392" lon="9.221572">
                <ele>132.0</ele>
                <time>2020-08-29T13:07:40.000Z</time>
                <name>Trackpoint 4092</name>
            </trkpt>
            <trkpt lat="49.7254112" lon="9.2214672">
                <ele>132.0</ele>
                <time>2020-08-29T13:07:41.000Z</time>
                <name>Trackpoint 4093</name>
            </trkpt>
            <trkpt lat="49.7254336" lon="9.221372">
                <ele>132.0</ele>
                <time>2020-08-29T13:07:42.000Z</time>
                <name>Trackpoint 4094</name>
            </trkpt>
            <trkpt lat="49.7254496" lon="9.2212784">
                <ele>132.0</ele>
                <time>2020-08-29T13:07:43.000Z</time>
                <name>Trackpoint 4095</name>
            </trkpt>
            <trkpt lat="49.725488" lon="9.22112">
                <ele>132.0</ele>
                <time>2020-08-29T13:07:45.000Z</time>
                <name>Trackpoint 4096</name>
            </trkpt>
            <trkpt lat="49.72552" lon="9.2209856">
                <ele>132.0</ele>
                <time>2020-08-29T13:07:47.000Z</time>
                <name>Trackpoint 4097</name>
            </trkpt>
            <trkpt lat="49.7255296" lon="9.2208656">
                <ele>132.0</ele>
                <time>2020-08-29T13:07:49.000Z</time>
                <name>Trackpoint 4098</name>
            </trkpt>
            <trkpt lat="49.725488" lon="9.2207816">
                <ele>132.0</ele>
                <time>2020-08-29T13:07:52.000Z</time>
                <name>Trackpoint 4099</name>
            </trkpt>
            <trkpt lat="49.7254432" lon="9.2206808">
                <ele>132.0</ele>
                <time>2020-08-29T13:07:55.000Z</time>
                <name>Trackpoint 4100</name>
            </trkpt>
            <trkpt lat="49.7253952" lon="9.2206032">
                <ele>132.0</ele>
                <time>2020-08-29T13:08:18.000Z</time>
                <name>Trackpoint 4101</name>
            </trkpt>
            <trkpt lat="49.72528" lon="9.2206136">
                <ele>132.0</ele>
                <time>2020-08-29T13:08:23.000Z</time>
                <name>Trackpoint 4102</name>
            </trkpt>
            <trkpt lat="49.7251712" lon="9.2206224">
                <ele>132.0</ele>
                <time>2020-08-29T13:08:26.000Z</time>
                <name>Trackpoint 4103</name>
            </trkpt>
            <trkpt lat="49.72504" lon="9.2206232">
                <ele>132.0</ele>
                <time>2020-08-29T13:08:29.000Z</time>
                <name>Trackpoint 4104</name>
            </trkpt>
            <trkpt lat="49.724912" lon="9.2206448">
                <ele>132.0</ele>
                <time>2020-08-29T13:08:32.000Z</time>
                <name>Trackpoint 4105</name>
            </trkpt>
            <trkpt lat="49.7247936" lon="9.2206848">
                <ele>132.0</ele>
                <time>2020-08-29T13:08:35.000Z</time>
                <name>Trackpoint 4106</name>
            </trkpt>
            <trkpt lat="49.7247008" lon="9.2206984">
                <ele>132.0</ele>
                <time>2020-08-29T13:08:37.000Z</time>
                <name>Trackpoint 4107</name>
            </trkpt>
            <trkpt lat="49.7245664" lon="9.2207168">
                <ele>132.0</ele>
                <time>2020-08-29T13:08:40.000Z</time>
                <name>Trackpoint 4108</name>
            </trkpt>
            <trkpt lat="49.7244288" lon="9.2207144">
                <ele>132.0</ele>
                <time>2020-08-29T13:08:43.000Z</time>
                <name>Trackpoint 4109</name>
            </trkpt>
            <trkpt lat="49.7242912" lon="9.22072">
                <ele>132.0</ele>
                <time>2020-08-29T13:08:46.000Z</time>
                <name>Trackpoint 4110</name>
            </trkpt>
            <trkpt lat="49.72416" lon="9.2207016">
                <ele>132.0</ele>
                <time>2020-08-29T13:08:49.000Z</time>
                <name>Trackpoint 4111</name>
            </trkpt>
            <trkpt lat="49.7240864" lon="9.2206288">
                <ele>131.0</ele>
                <time>2020-08-29T13:08:51.000Z</time>
                <name>Trackpoint 4112</name>
            </trkpt>
            <trkpt lat="49.7240448" lon="9.2205216">
                <ele>131.0</ele>
                <time>2020-08-29T13:08:53.000Z</time>
                <name>Trackpoint 4113</name>
            </trkpt>
            <trkpt lat="49.7240192" lon="9.22042">
                <ele>131.0</ele>
                <time>2020-08-29T13:08:55.000Z</time>
                <name>Trackpoint 4114</name>
            </trkpt>
            <trkpt lat="49.724032" lon="9.2203256">
                <ele>131.0</ele>
                <time>2020-08-29T13:08:58.000Z</time>
                <name>Trackpoint 4115</name>
            </trkpt>
            <trkpt lat="49.7241088" lon="9.2202568">
                <ele>131.0</ele>
                <time>2020-08-29T13:09:03.000Z</time>
                <name>Trackpoint 4116</name>
            </trkpt>
            <trkpt lat="49.7240992" lon="9.2201584">
                <ele>131.0</ele>
                <time>2020-08-29T13:09:17.000Z</time>
                <name>Trackpoint 4117</name>
            </trkpt>
            <trkpt lat="49.7240992" lon="9.220068">
                <ele>130.0</ele>
                <time>2020-08-29T13:09:34.000Z</time>
                <name>Trackpoint 4118</name>
            </trkpt>
            <trkpt lat="49.7241088" lon="9.21996">
                <ele>130.0</ele>
                <time>2020-08-29T13:09:40.000Z</time>
                <name>Trackpoint 4119</name>
            </trkpt>
            <trkpt lat="49.7241696" lon="9.2198688">
                <ele>130.0</ele>
                <time>2020-08-29T13:09:44.000Z</time>
                <name>Trackpoint 4120</name>
            </trkpt>
            <trkpt lat="49.7242592" lon="9.2197688">
                <ele>130.0</ele>
                <time>2020-08-29T13:09:47.000Z</time>
                <name>Trackpoint 4121</name>
            </trkpt>
            <trkpt lat="49.7243104" lon="9.2196704">
                <ele>130.0</ele>
                <time>2020-08-29T13:09:49.000Z</time>
                <name>Trackpoint 4122</name>
            </trkpt>
            <trkpt lat="49.724368" lon="9.2195568">
                <ele>130.0</ele>
                <time>2020-08-29T13:09:51.000Z</time>
                <name>Trackpoint 4123</name>
            </trkpt>
            <trkpt lat="49.7244416" lon="9.2194544">
                <ele>130.0</ele>
                <time>2020-08-29T13:09:53.000Z</time>
                <name>Trackpoint 4124</name>
            </trkpt>
            <trkpt lat="49.7245152" lon="9.21938">
                <ele>130.0</ele>
                <time>2020-08-29T13:09:55.000Z</time>
                <name>Trackpoint 4125</name>
            </trkpt>
            <trkpt lat="49.7245856" lon="9.2193048">
                <ele>130.0</ele>
                <time>2020-08-29T13:09:57.000Z</time>
                <name>Trackpoint 4126</name>
            </trkpt>
            <trkpt lat="49.7246816" lon="9.2192048">
                <ele>129.0</ele>
                <time>2020-08-29T13:09:59.000Z</time>
                <name>Trackpoint 4127</name>
            </trkpt>
            <trkpt lat="49.7247616" lon="9.2190816">
                <ele>129.0</ele>
                <time>2020-08-29T13:10:01.000Z</time>
                <name>Trackpoint 4128</name>
            </trkpt>
            <trkpt lat="49.7248128" lon="9.2190048">
                <ele>129.0</ele>
                <time>2020-08-29T13:10:02.000Z</time>
                <name>Trackpoint 4129</name>
            </trkpt>
            <trkpt lat="49.7248832" lon="9.2188904">
                <ele>129.0</ele>
                <time>2020-08-29T13:10:04.000Z</time>
                <name>Trackpoint 4130</name>
            </trkpt>
            <trkpt lat="49.7249568" lon="9.2187856">
                <ele>129.0</ele>
                <time>2020-08-29T13:10:06.000Z</time>
                <name>Trackpoint 4131</name>
            </trkpt>
            <trkpt lat="49.72504" lon="9.2186832">
                <ele>129.0</ele>
                <time>2020-08-29T13:10:08.000Z</time>
                <name>Trackpoint 4132</name>
            </trkpt>
            <trkpt lat="49.7251296" lon="9.2185744">
                <ele>129.0</ele>
                <time>2020-08-29T13:10:10.000Z</time>
                <name>Trackpoint 4133</name>
            </trkpt>
            <trkpt lat="49.7252128" lon="9.21846">
                <ele>129.0</ele>
                <time>2020-08-29T13:10:12.000Z</time>
                <name>Trackpoint 4134</name>
            </trkpt>
            <trkpt lat="49.7252896" lon="9.21836">
                <ele>128.0</ele>
                <time>2020-08-29T13:10:14.000Z</time>
                <name>Trackpoint 4135</name>
            </trkpt>
            <trkpt lat="49.72536" lon="9.2182512">
                <ele>128.0</ele>
                <time>2020-08-29T13:10:16.000Z</time>
                <name>Trackpoint 4136</name>
            </trkpt>
            <trkpt lat="49.72544" lon="9.218152">
                <ele>128.0</ele>
                <time>2020-08-29T13:10:18.000Z</time>
                <name>Trackpoint 4137</name>
            </trkpt>
            <trkpt lat="49.7255168" lon="9.2180368">
                <ele>128.0</ele>
                <time>2020-08-29T13:10:20.000Z</time>
                <name>Trackpoint 4138</name>
            </trkpt>
            <trkpt lat="49.7255968" lon="9.2179296">
                <ele>128.0</ele>
                <time>2020-08-29T13:10:22.000Z</time>
                <name>Trackpoint 4139</name>
            </trkpt>
            <trkpt lat="49.72568" lon="9.217832">
                <ele>128.0</ele>
                <time>2020-08-29T13:10:24.000Z</time>
                <name>Trackpoint 4140</name>
            </trkpt>
            <trkpt lat="49.72576" lon="9.2177184">
                <ele>128.0</ele>
                <time>2020-08-29T13:10:26.000Z</time>
                <name>Trackpoint 4141</name>
            </trkpt>
            <trkpt lat="49.7258368" lon="9.2176304">
                <ele>128.0</ele>
                <time>2020-08-29T13:10:28.000Z</time>
                <name>Trackpoint 4142</name>
            </trkpt>
            <trkpt lat="49.7259136" lon="9.21756">
                <ele>128.0</ele>
                <time>2020-08-29T13:10:30.000Z</time>
                <name>Trackpoint 4143</name>
            </trkpt>
            <trkpt lat="49.7259936" lon="9.2175032">
                <ele>128.0</ele>
                <time>2020-08-29T13:10:33.000Z</time>
                <name>Trackpoint 4144</name>
            </trkpt>
            <trkpt lat="49.7260896" lon="9.21752">
                <ele>128.0</ele>
                <time>2020-08-29T13:11:14.000Z</time>
                <name>Trackpoint 4145</name>
            </trkpt>
            <trkpt lat="49.7261856" lon="9.2174528">
                <ele>128.0</ele>
                <time>2020-08-29T13:11:17.000Z</time>
                <name>Trackpoint 4146</name>
            </trkpt>
            <trkpt lat="49.7262816" lon="9.2173992">
                <ele>128.0</ele>
                <time>2020-08-29T13:11:20.000Z</time>
                <name>Trackpoint 4147</name>
            </trkpt>
            <trkpt lat="49.7263552" lon="9.2173368">
                <ele>128.0</ele>
                <time>2020-08-29T13:11:22.000Z</time>
                <name>Trackpoint 4148</name>
            </trkpt>
            <trkpt lat="49.7264352" lon="9.217252">
                <ele>128.0</ele>
                <time>2020-08-29T13:11:24.000Z</time>
                <name>Trackpoint 4149</name>
            </trkpt>
            <trkpt lat="49.7265536" lon="9.21714">
                <ele>128.0</ele>
                <time>2020-08-29T13:11:26.000Z</time>
                <name>Trackpoint 4150</name>
            </trkpt>
            <trkpt lat="49.7266784" lon="9.21706">
                <ele>128.0</ele>
                <time>2020-08-29T13:11:28.000Z</time>
                <name>Trackpoint 4151</name>
            </trkpt>
            <trkpt lat="49.7267776" lon="9.2169368">
                <ele>127.0</ele>
                <time>2020-08-29T13:11:30.000Z</time>
                <name>Trackpoint 4152</name>
            </trkpt>
            <trkpt lat="49.7268768" lon="9.2168528">
                <ele>127.0</ele>
                <time>2020-08-29T13:11:32.000Z</time>
                <name>Trackpoint 4153</name>
            </trkpt>
            <trkpt lat="49.7269824" lon="9.2167728">
                <ele>127.0</ele>
                <time>2020-08-29T13:11:34.000Z</time>
                <name>Trackpoint 4154</name>
            </trkpt>
            <trkpt lat="49.7270752" lon="9.2166952">
                <ele>127.0</ele>
                <time>2020-08-29T13:11:36.000Z</time>
                <name>Trackpoint 4155</name>
            </trkpt>
            <trkpt lat="49.7271648" lon="9.2166208">
                <ele>127.0</ele>
                <time>2020-08-29T13:11:38.000Z</time>
                <name>Trackpoint 4156</name>
            </trkpt>
            <trkpt lat="49.7272448" lon="9.21654">
                <ele>127.0</ele>
                <time>2020-08-29T13:11:40.000Z</time>
                <name>Trackpoint 4157</name>
            </trkpt>
            <trkpt lat="49.7273216" lon="9.2164536">
                <ele>127.0</ele>
                <time>2020-08-29T13:11:42.000Z</time>
                <name>Trackpoint 4158</name>
            </trkpt>
            <trkpt lat="49.7273952" lon="9.2163552">
                <ele>127.0</ele>
                <time>2020-08-29T13:11:44.000Z</time>
                <name>Trackpoint 4159</name>
            </trkpt>
            <trkpt lat="49.7274592" lon="9.21624">
                <ele>127.0</ele>
                <time>2020-08-29T13:11:46.000Z</time>
                <name>Trackpoint 4160</name>
            </trkpt>
            <trkpt lat="49.7275392" lon="9.2161416">
                <ele>127.0</ele>
                <time>2020-08-29T13:11:48.000Z</time>
                <name>Trackpoint 4161</name>
            </trkpt>
            <trkpt lat="49.727616" lon="9.2160384">
                <ele>127.0</ele>
                <time>2020-08-29T13:11:50.000Z</time>
                <name>Trackpoint 4162</name>
            </trkpt>
            <trkpt lat="49.72768" lon="9.2159208">
                <ele>127.0</ele>
                <time>2020-08-29T13:11:52.000Z</time>
                <name>Trackpoint 4163</name>
            </trkpt>
            <trkpt lat="49.7277344" lon="9.215792">
                <ele>127.0</ele>
                <time>2020-08-29T13:11:54.000Z</time>
                <name>Trackpoint 4164</name>
            </trkpt>
            <trkpt lat="49.7278048" lon="9.2156712">
                <ele>127.0</ele>
                <time>2020-08-29T13:11:56.000Z</time>
                <name>Trackpoint 4165</name>
            </trkpt>
            <trkpt lat="49.727872" lon="9.2155352">
                <ele>127.0</ele>
                <time>2020-08-29T13:11:58.000Z</time>
                <name>Trackpoint 4166</name>
            </trkpt>
            <trkpt lat="49.7279328" lon="9.2153928">
                <ele>127.0</ele>
                <time>2020-08-29T13:12:00.000Z</time>
                <name>Trackpoint 4167</name>
            </trkpt>
            <trkpt lat="49.7279808" lon="9.2152392">
                <ele>127.0</ele>
                <time>2020-08-29T13:12:02.000Z</time>
                <name>Trackpoint 4168</name>
            </trkpt>
            <trkpt lat="49.7280352" lon="9.215092">
                <ele>127.0</ele>
                <time>2020-08-29T13:12:04.000Z</time>
                <name>Trackpoint 4169</name>
            </trkpt>
            <trkpt lat="49.7280928" lon="9.2149496">
                <ele>127.0</ele>
                <time>2020-08-29T13:12:06.000Z</time>
                <name>Trackpoint 4170</name>
            </trkpt>
            <trkpt lat="49.7281536" lon="9.2148216">
                <ele>127.0</ele>
                <time>2020-08-29T13:12:08.000Z</time>
                <name>Trackpoint 4171</name>
            </trkpt>
            <trkpt lat="49.728208" lon="9.2146952">
                <ele>127.0</ele>
                <time>2020-08-29T13:12:10.000Z</time>
                <name>Trackpoint 4172</name>
            </trkpt>
            <trkpt lat="49.7282592" lon="9.214572">
                <ele>127.0</ele>
                <time>2020-08-29T13:12:12.000Z</time>
                <name>Trackpoint 4173</name>
            </trkpt>
            <trkpt lat="49.7283136" lon="9.2144672">
                <ele>127.0</ele>
                <time>2020-08-29T13:12:14.000Z</time>
                <name>Trackpoint 4174</name>
            </trkpt>
            <trkpt lat="49.7283776" lon="9.2143432">
                <ele>127.0</ele>
                <time>2020-08-29T13:12:16.000Z</time>
                <name>Trackpoint 4175</name>
            </trkpt>
            <trkpt lat="49.7284416" lon="9.2142136">
                <ele>127.0</ele>
                <time>2020-08-29T13:12:18.000Z</time>
                <name>Trackpoint 4176</name>
            </trkpt>
            <trkpt lat="49.7285056" lon="9.2140712">
                <ele>127.0</ele>
                <time>2020-08-29T13:12:20.000Z</time>
                <name>Trackpoint 4177</name>
            </trkpt>
            <trkpt lat="49.728576" lon="9.2139328">
                <ele>127.0</ele>
                <time>2020-08-29T13:12:22.000Z</time>
                <name>Trackpoint 4178</name>
            </trkpt>
            <trkpt lat="49.7286496" lon="9.2137816">
                <ele>127.0</ele>
                <time>2020-08-29T13:12:24.000Z</time>
                <name>Trackpoint 4179</name>
            </trkpt>
            <trkpt lat="49.7287232" lon="9.2136288">
                <ele>127.0</ele>
                <time>2020-08-29T13:12:26.000Z</time>
                <name>Trackpoint 4180</name>
            </trkpt>
            <trkpt lat="49.728752" lon="9.2135432">
                <ele>127.0</ele>
                <time>2020-08-29T13:12:27.000Z</time>
                <name>Trackpoint 4181</name>
            </trkpt>
            <trkpt lat="49.7288128" lon="9.21338">
                <ele>127.0</ele>
                <time>2020-08-29T13:12:29.000Z</time>
                <name>Trackpoint 4182</name>
            </trkpt>
            <trkpt lat="49.7288672" lon="9.2132152">
                <ele>126.0</ele>
                <time>2020-08-29T13:12:31.000Z</time>
                <name>Trackpoint 4183</name>
            </trkpt>
            <trkpt lat="49.7288928" lon="9.213128">
                <ele>126.0</ele>
                <time>2020-08-29T13:12:32.000Z</time>
                <name>Trackpoint 4184</name>
            </trkpt>
            <trkpt lat="49.728944" lon="9.2129552">
                <ele>126.0</ele>
                <time>2020-08-29T13:12:34.000Z</time>
                <name>Trackpoint 4185</name>
            </trkpt>
            <trkpt lat="49.7290112" lon="9.2128136">
                <ele>126.0</ele>
                <time>2020-08-29T13:12:36.000Z</time>
                <name>Trackpoint 4186</name>
            </trkpt>
            <trkpt lat="49.7290816" lon="9.21268">
                <ele>126.0</ele>
                <time>2020-08-29T13:12:38.000Z</time>
                <name>Trackpoint 4187</name>
            </trkpt>
            <trkpt lat="49.7291456" lon="9.2125416">
                <ele>126.0</ele>
                <time>2020-08-29T13:12:40.000Z</time>
                <name>Trackpoint 4188</name>
            </trkpt>
            <trkpt lat="49.7292032" lon="9.2123848">
                <ele>126.0</ele>
                <time>2020-08-29T13:12:42.000Z</time>
                <name>Trackpoint 4189</name>
            </trkpt>
            <trkpt lat="49.729264" lon="9.2122368">
                <ele>126.0</ele>
                <time>2020-08-29T13:12:44.000Z</time>
                <name>Trackpoint 4190</name>
            </trkpt>
            <trkpt lat="49.7292992" lon="9.2120568">
                <ele>126.0</ele>
                <time>2020-08-29T13:12:46.000Z</time>
                <name>Trackpoint 4191</name>
            </trkpt>
            <trkpt lat="49.7293088" lon="9.2119576">
                <ele>126.0</ele>
                <time>2020-08-29T13:12:47.000Z</time>
                <name>Trackpoint 4192</name>
            </trkpt>
            <trkpt lat="49.7293216" lon="9.2118552">
                <ele>125.0</ele>
                <time>2020-08-29T13:12:48.000Z</time>
                <name>Trackpoint 4193</name>
            </trkpt>
            <trkpt lat="49.7293408" lon="9.2117616">
                <ele>125.0</ele>
                <time>2020-08-29T13:12:49.000Z</time>
                <name>Trackpoint 4194</name>
            </trkpt>
            <trkpt lat="49.7293632" lon="9.2116736">
                <ele>125.0</ele>
                <time>2020-08-29T13:12:50.000Z</time>
                <name>Trackpoint 4195</name>
            </trkpt>
            <trkpt lat="49.7293824" lon="9.211572">
                <ele>125.0</ele>
                <time>2020-08-29T13:12:51.000Z</time>
                <name>Trackpoint 4196</name>
            </trkpt>
            <trkpt lat="49.7293984" lon="9.2114624">
                <ele>125.0</ele>
                <time>2020-08-29T13:12:52.000Z</time>
                <name>Trackpoint 4197</name>
            </trkpt>
            <trkpt lat="49.729408" lon="9.2113512">
                <ele>125.0</ele>
                <time>2020-08-29T13:12:53.000Z</time>
                <name>Trackpoint 4198</name>
            </trkpt>
            <trkpt lat="49.7294112" lon="9.2112264">
                <ele>125.0</ele>
                <time>2020-08-29T13:12:54.000Z</time>
                <name>Trackpoint 4199</name>
            </trkpt>
            <trkpt lat="49.729424" lon="9.211112">
                <ele>125.0</ele>
                <time>2020-08-29T13:12:55.000Z</time>
                <name>Trackpoint 4200</name>
            </trkpt>
            <trkpt lat="49.7294432" lon="9.2110008">
                <ele>125.0</ele>
                <time>2020-08-29T13:12:56.000Z</time>
                <name>Trackpoint 4201</name>
            </trkpt>
            <trkpt lat="49.7294528" lon="9.2108896">
                <ele>125.0</ele>
                <time>2020-08-29T13:12:57.000Z</time>
                <name>Trackpoint 4202</name>
            </trkpt>
            <trkpt lat="49.7294688" lon="9.2107848">
                <ele>125.0</ele>
                <time>2020-08-29T13:12:58.000Z</time>
                <name>Trackpoint 4203</name>
            </trkpt>
            <trkpt lat="49.729488" lon="9.2106848">
                <ele>125.0</ele>
                <time>2020-08-29T13:12:59.000Z</time>
                <name>Trackpoint 4204</name>
            </trkpt>
            <trkpt lat="49.7295008" lon="9.21058">
                <ele>125.0</ele>
                <time>2020-08-29T13:13:00.000Z</time>
                <name>Trackpoint 4205</name>
            </trkpt>
            <trkpt lat="49.7295136" lon="9.210472">
                <ele>125.0</ele>
                <time>2020-08-29T13:13:01.000Z</time>
                <name>Trackpoint 4206</name>
            </trkpt>
            <trkpt lat="49.7295296" lon="9.2103592">
                <ele>125.0</ele>
                <time>2020-08-29T13:13:02.000Z</time>
                <name>Trackpoint 4207</name>
            </trkpt>
            <trkpt lat="49.7295488" lon="9.2102536">
                <ele>125.0</ele>
                <time>2020-08-29T13:13:03.000Z</time>
                <name>Trackpoint 4208</name>
            </trkpt>
            <trkpt lat="49.729568" lon="9.2101536">
                <ele>125.0</ele>
                <time>2020-08-29T13:13:04.000Z</time>
                <name>Trackpoint 4209</name>
            </trkpt>
            <trkpt lat="49.729584" lon="9.2100584">
                <ele>125.0</ele>
                <time>2020-08-29T13:13:05.000Z</time>
                <name>Trackpoint 4210</name>
            </trkpt>
            <trkpt lat="49.7296" lon="9.209964">
                <ele>125.0</ele>
                <time>2020-08-29T13:13:06.000Z</time>
                <name>Trackpoint 4211</name>
            </trkpt>
            <trkpt lat="49.7296128" lon="9.2098664">
                <ele>125.0</ele>
                <time>2020-08-29T13:13:07.000Z</time>
                <name>Trackpoint 4212</name>
            </trkpt>
            <trkpt lat="49.7296256" lon="9.2097728">
                <ele>124.0</ele>
                <time>2020-08-29T13:13:08.000Z</time>
                <name>Trackpoint 4213</name>
            </trkpt>
            <trkpt lat="49.7296704" lon="9.2096008">
                <ele>124.0</ele>
                <time>2020-08-29T13:13:10.000Z</time>
                <name>Trackpoint 4214</name>
            </trkpt>
            <trkpt lat="49.7296896" lon="9.209512">
                <ele>124.0</ele>
                <time>2020-08-29T13:13:11.000Z</time>
                <name>Trackpoint 4215</name>
            </trkpt>
            <trkpt lat="49.7297056" lon="9.2094096">
                <ele>124.0</ele>
                <time>2020-08-29T13:13:12.000Z</time>
                <name>Trackpoint 4216</name>
            </trkpt>
            <trkpt lat="49.7297248" lon="9.2093184">
                <ele>124.0</ele>
                <time>2020-08-29T13:13:13.000Z</time>
                <name>Trackpoint 4217</name>
            </trkpt>
            <trkpt lat="49.7297408" lon="9.2092184">
                <ele>124.0</ele>
                <time>2020-08-29T13:13:14.000Z</time>
                <name>Trackpoint 4218</name>
            </trkpt>
            <trkpt lat="49.7297568" lon="9.2091264">
                <ele>124.0</ele>
                <time>2020-08-29T13:13:15.000Z</time>
                <name>Trackpoint 4219</name>
            </trkpt>
            <trkpt lat="49.729776" lon="9.209032">
                <ele>124.0</ele>
                <time>2020-08-29T13:13:16.000Z</time>
                <name>Trackpoint 4220</name>
            </trkpt>
            <trkpt lat="49.729792" lon="9.2089344">
                <ele>124.0</ele>
                <time>2020-08-29T13:13:17.000Z</time>
                <name>Trackpoint 4221</name>
            </trkpt>
            <trkpt lat="49.7298112" lon="9.20884">
                <ele>124.0</ele>
                <time>2020-08-29T13:13:18.000Z</time>
                <name>Trackpoint 4222</name>
            </trkpt>
            <trkpt lat="49.7298304" lon="9.2087432">
                <ele>125.0</ele>
                <time>2020-08-29T13:13:19.000Z</time>
                <name>Trackpoint 4223</name>
            </trkpt>
            <trkpt lat="49.7298464" lon="9.2086512">
                <ele>125.0</ele>
                <time>2020-08-29T13:13:20.000Z</time>
                <name>Trackpoint 4224</name>
            </trkpt>
            <trkpt lat="49.7298688" lon="9.20856">
                <ele>125.0</ele>
                <time>2020-08-29T13:13:21.000Z</time>
                <name>Trackpoint 4225</name>
            </trkpt>
            <trkpt lat="49.7298912" lon="9.2084664">
                <ele>125.0</ele>
                <time>2020-08-29T13:13:22.000Z</time>
                <name>Trackpoint 4226</name>
            </trkpt>
            <trkpt lat="49.7299168" lon="9.2083768">
                <ele>125.0</ele>
                <time>2020-08-29T13:13:23.000Z</time>
                <name>Trackpoint 4227</name>
            </trkpt>
            <trkpt lat="49.7299392" lon="9.2082832">
                <ele>125.0</ele>
                <time>2020-08-29T13:13:24.000Z</time>
                <name>Trackpoint 4228</name>
            </trkpt>
            <trkpt lat="49.7299648" lon="9.2081936">
                <ele>125.0</ele>
                <time>2020-08-29T13:13:25.000Z</time>
                <name>Trackpoint 4229</name>
            </trkpt>
            <trkpt lat="49.730016" lon="9.2080248">
                <ele>124.0</ele>
                <time>2020-08-29T13:13:27.000Z</time>
                <name>Trackpoint 4230</name>
            </trkpt>
            <trkpt lat="49.7300352" lon="9.2079288">
                <ele>124.0</ele>
                <time>2020-08-29T13:13:28.000Z</time>
                <name>Trackpoint 4231</name>
            </trkpt>
            <trkpt lat="49.73008" lon="9.2077488">
                <ele>124.0</ele>
                <time>2020-08-29T13:13:30.000Z</time>
                <name>Trackpoint 4232</name>
            </trkpt>
            <trkpt lat="49.7301024" lon="9.2076552">
                <ele>124.0</ele>
                <time>2020-08-29T13:13:31.000Z</time>
                <name>Trackpoint 4233</name>
            </trkpt>
            <trkpt lat="49.7301248" lon="9.207568">
                <ele>124.0</ele>
                <time>2020-08-29T13:13:32.000Z</time>
                <name>Trackpoint 4234</name>
            </trkpt>
            <trkpt lat="49.7301664" lon="9.2073968">
                <ele>124.0</ele>
                <time>2020-08-29T13:13:34.000Z</time>
                <name>Trackpoint 4235</name>
            </trkpt>
            <trkpt lat="49.7302208" lon="9.2072488">
                <ele>124.0</ele>
                <time>2020-08-29T13:13:36.000Z</time>
                <name>Trackpoint 4236</name>
            </trkpt>
            <trkpt lat="49.7302624" lon="9.2070712">
                <ele>124.0</ele>
                <time>2020-08-29T13:13:38.000Z</time>
                <name>Trackpoint 4237</name>
            </trkpt>
            <trkpt lat="49.730288" lon="9.2069832">
                <ele>124.0</ele>
                <time>2020-08-29T13:13:39.000Z</time>
                <name>Trackpoint 4238</name>
            </trkpt>
            <trkpt lat="49.7303136" lon="9.2068952">
                <ele>124.0</ele>
                <time>2020-08-29T13:13:40.000Z</time>
                <name>Trackpoint 4239</name>
            </trkpt>
            <trkpt lat="49.7303328" lon="9.2068072">
                <ele>124.0</ele>
                <time>2020-08-29T13:13:41.000Z</time>
                <name>Trackpoint 4240</name>
            </trkpt>
            <trkpt lat="49.7303648" lon="9.2066432">
                <ele>124.0</ele>
                <time>2020-08-29T13:13:43.000Z</time>
                <name>Trackpoint 4241</name>
            </trkpt>
            <trkpt lat="49.7304032" lon="9.2064784">
                <ele>124.0</ele>
                <time>2020-08-29T13:13:45.000Z</time>
                <name>Trackpoint 4242</name>
            </trkpt>
            <trkpt lat="49.7304512" lon="9.2063176">
                <ele>124.0</ele>
                <time>2020-08-29T13:13:47.000Z</time>
                <name>Trackpoint 4243</name>
            </trkpt>
            <trkpt lat="49.7304736" lon="9.2062304">
                <ele>124.0</ele>
                <time>2020-08-29T13:13:48.000Z</time>
                <name>Trackpoint 4244</name>
            </trkpt>
            <trkpt lat="49.7305056" lon="9.2060672">
                <ele>124.0</ele>
                <time>2020-08-29T13:13:50.000Z</time>
                <name>Trackpoint 4245</name>
            </trkpt>
            <trkpt lat="49.730544" lon="9.2059184">
                <ele>124.0</ele>
                <time>2020-08-29T13:13:52.000Z</time>
                <name>Trackpoint 4246</name>
            </trkpt>
            <trkpt lat="49.730576" lon="9.2057416">
                <ele>124.0</ele>
                <time>2020-08-29T13:13:54.000Z</time>
                <name>Trackpoint 4247</name>
            </trkpt>
            <trkpt lat="49.7305856" lon="9.2056504">
                <ele>124.0</ele>
                <time>2020-08-29T13:13:55.000Z</time>
                <name>Trackpoint 4248</name>
            </trkpt>
            <trkpt lat="49.7306208" lon="9.2054704">
                <ele>124.0</ele>
                <time>2020-08-29T13:13:57.000Z</time>
                <name>Trackpoint 4249</name>
            </trkpt>
            <trkpt lat="49.7306656" lon="9.2053136">
                <ele>124.0</ele>
                <time>2020-08-29T13:13:59.000Z</time>
                <name>Trackpoint 4250</name>
            </trkpt>
            <trkpt lat="49.7306912" lon="9.2052272">
                <ele>124.0</ele>
                <time>2020-08-29T13:14:00.000Z</time>
                <name>Trackpoint 4251</name>
            </trkpt>
            <trkpt lat="49.7307104" lon="9.2051312">
                <ele>124.0</ele>
                <time>2020-08-29T13:14:01.000Z</time>
                <name>Trackpoint 4252</name>
            </trkpt>
            <trkpt lat="49.7307232" lon="9.2050368">
                <ele>124.0</ele>
                <time>2020-08-29T13:14:02.000Z</time>
                <name>Trackpoint 4253</name>
            </trkpt>
            <trkpt lat="49.7307424" lon="9.2049488">
                <ele>124.0</ele>
                <time>2020-08-29T13:14:03.000Z</time>
                <name>Trackpoint 4254</name>
            </trkpt>
            <trkpt lat="49.7307776" lon="9.2047784">
                <ele>124.0</ele>
                <time>2020-08-29T13:14:05.000Z</time>
                <name>Trackpoint 4255</name>
            </trkpt>
            <trkpt lat="49.7308192" lon="9.204608">
                <ele>124.0</ele>
                <time>2020-08-29T13:14:07.000Z</time>
                <name>Trackpoint 4256</name>
            </trkpt>
            <trkpt lat="49.730864" lon="9.2044496">
                <ele>124.0</ele>
                <time>2020-08-29T13:14:09.000Z</time>
                <name>Trackpoint 4257</name>
            </trkpt>
            <trkpt lat="49.730912" lon="9.2043152">
                <ele>124.0</ele>
                <time>2020-08-29T13:14:11.000Z</time>
                <name>Trackpoint 4258</name>
            </trkpt>
            <trkpt lat="49.7309504" lon="9.2041416">
                <ele>124.0</ele>
                <time>2020-08-29T13:14:13.000Z</time>
                <name>Trackpoint 4259</name>
            </trkpt>
            <trkpt lat="49.7309696" lon="9.204052">
                <ele>124.0</ele>
                <time>2020-08-29T13:14:14.000Z</time>
                <name>Trackpoint 4260</name>
            </trkpt>
            <trkpt lat="49.731008" lon="9.2038736">
                <ele>124.0</ele>
                <time>2020-08-29T13:14:16.000Z</time>
                <name>Trackpoint 4261</name>
            </trkpt>
            <trkpt lat="49.7310272" lon="9.2037784">
                <ele>124.0</ele>
                <time>2020-08-29T13:14:17.000Z</time>
                <name>Trackpoint 4262</name>
            </trkpt>
            <trkpt lat="49.7310496" lon="9.2036848">
                <ele>124.0</ele>
                <time>2020-08-29T13:14:18.000Z</time>
                <name>Trackpoint 4263</name>
            </trkpt>
            <trkpt lat="49.731072" lon="9.2035952">
                <ele>124.0</ele>
                <time>2020-08-29T13:14:19.000Z</time>
                <name>Trackpoint 4264</name>
            </trkpt>
            <trkpt lat="49.7311136" lon="9.2034416">
                <ele>124.0</ele>
                <time>2020-08-29T13:14:21.000Z</time>
                <name>Trackpoint 4265</name>
            </trkpt>
            <trkpt lat="49.7311392" lon="9.2033464">
                <ele>124.0</ele>
                <time>2020-08-29T13:14:22.000Z</time>
                <name>Trackpoint 4266</name>
            </trkpt>
            <trkpt lat="49.7311584" lon="9.2032568">
                <ele>124.0</ele>
                <time>2020-08-29T13:14:23.000Z</time>
                <name>Trackpoint 4267</name>
            </trkpt>
            <trkpt lat="49.7311744" lon="9.2031536">
                <ele>124.0</ele>
                <time>2020-08-29T13:14:24.000Z</time>
                <name>Trackpoint 4268</name>
            </trkpt>
            <trkpt lat="49.7311904" lon="9.2030464">
                <ele>124.0</ele>
                <time>2020-08-29T13:14:25.000Z</time>
                <name>Trackpoint 4269</name>
            </trkpt>
            <trkpt lat="49.7312064" lon="9.2029416">
                <ele>124.0</ele>
                <time>2020-08-29T13:14:26.000Z</time>
                <name>Trackpoint 4270</name>
            </trkpt>
            <trkpt lat="49.7312288" lon="9.2028488">
                <ele>124.0</ele>
                <time>2020-08-29T13:14:27.000Z</time>
                <name>Trackpoint 4271</name>
            </trkpt>
            <trkpt lat="49.731248" lon="9.2027584">
                <ele>124.0</ele>
                <time>2020-08-29T13:14:28.000Z</time>
                <name>Trackpoint 4272</name>
            </trkpt>
            <trkpt lat="49.7312704" lon="9.2026704">
                <ele>124.0</ele>
                <time>2020-08-29T13:14:29.000Z</time>
                <name>Trackpoint 4273</name>
            </trkpt>
            <trkpt lat="49.73128" lon="9.2025768">
                <ele>124.0</ele>
                <time>2020-08-29T13:14:30.000Z</time>
                <name>Trackpoint 4274</name>
            </trkpt>
            <trkpt lat="49.7312928" lon="9.2024632">
                <ele>124.0</ele>
                <time>2020-08-29T13:14:31.000Z</time>
                <name>Trackpoint 4275</name>
            </trkpt>
            <trkpt lat="49.731312" lon="9.2023624">
                <ele>124.0</ele>
                <time>2020-08-29T13:14:32.000Z</time>
                <name>Trackpoint 4276</name>
            </trkpt>
            <trkpt lat="49.7313312" lon="9.2022688">
                <ele>124.0</ele>
                <time>2020-08-29T13:14:33.000Z</time>
                <name>Trackpoint 4277</name>
            </trkpt>
            <trkpt lat="49.7313504" lon="9.2021768">
                <ele>124.0</ele>
                <time>2020-08-29T13:14:34.000Z</time>
                <name>Trackpoint 4278</name>
            </trkpt>
            <trkpt lat="49.7313696" lon="9.202088">
                <ele>124.0</ele>
                <time>2020-08-29T13:14:35.000Z</time>
                <name>Trackpoint 4279</name>
            </trkpt>
            <trkpt lat="49.7313888" lon="9.2019952">
                <ele>124.0</ele>
                <time>2020-08-29T13:14:36.000Z</time>
                <name>Trackpoint 4280</name>
            </trkpt>
            <trkpt lat="49.7314048" lon="9.2018984">
                <ele>124.0</ele>
                <time>2020-08-29T13:14:37.000Z</time>
                <name>Trackpoint 4281</name>
            </trkpt>
            <trkpt lat="49.7314272" lon="9.2018072">
                <ele>124.0</ele>
                <time>2020-08-29T13:14:38.000Z</time>
                <name>Trackpoint 4282</name>
            </trkpt>
            <trkpt lat="49.73144" lon="9.2017136">
                <ele>124.0</ele>
                <time>2020-08-29T13:14:39.000Z</time>
                <name>Trackpoint 4283</name>
            </trkpt>
            <trkpt lat="49.7314752" lon="9.2015696">
                <ele>124.0</ele>
                <time>2020-08-29T13:14:41.000Z</time>
                <name>Trackpoint 4284</name>
            </trkpt>
            <trkpt lat="49.7314912" lon="9.2014736">
                <ele>124.0</ele>
                <time>2020-08-29T13:14:42.000Z</time>
                <name>Trackpoint 4285</name>
            </trkpt>
            <trkpt lat="49.7315296" lon="9.2013064">
                <ele>124.0</ele>
                <time>2020-08-29T13:14:44.000Z</time>
                <name>Trackpoint 4286</name>
            </trkpt>
            <trkpt lat="49.7315744" lon="9.2011544">
                <ele>124.0</ele>
                <time>2020-08-29T13:14:46.000Z</time>
                <name>Trackpoint 4287</name>
            </trkpt>
            <trkpt lat="49.7316128" lon="9.200976">
                <ele>124.0</ele>
                <time>2020-08-29T13:14:48.000Z</time>
                <name>Trackpoint 4288</name>
            </trkpt>
            <trkpt lat="49.7316544" lon="9.2008104">
                <ele>124.0</ele>
                <time>2020-08-29T13:14:50.000Z</time>
                <name>Trackpoint 4289</name>
            </trkpt>
            <trkpt lat="49.7316736" lon="9.2007216">
                <ele>124.0</ele>
                <time>2020-08-29T13:14:51.000Z</time>
                <name>Trackpoint 4290</name>
            </trkpt>
            <trkpt lat="49.7317184" lon="9.2005704">
                <ele>124.0</ele>
                <time>2020-08-29T13:14:53.000Z</time>
                <name>Trackpoint 4291</name>
            </trkpt>
            <trkpt lat="49.7317536" lon="9.2003984">
                <ele>124.0</ele>
                <time>2020-08-29T13:14:55.000Z</time>
                <name>Trackpoint 4292</name>
            </trkpt>
            <trkpt lat="49.7318112" lon="9.2002472">
                <ele>124.0</ele>
                <time>2020-08-29T13:14:57.000Z</time>
                <name>Trackpoint 4293</name>
            </trkpt>
            <trkpt lat="49.731872" lon="9.2001064">
                <ele>124.0</ele>
                <time>2020-08-29T13:14:59.000Z</time>
                <name>Trackpoint 4294</name>
            </trkpt>
            <trkpt lat="49.7319232" lon="9.199952">
                <ele>124.0</ele>
                <time>2020-08-29T13:15:01.000Z</time>
                <name>Trackpoint 4295</name>
            </trkpt>
            <trkpt lat="49.731984" lon="9.1998064">
                <ele>124.0</ele>
                <time>2020-08-29T13:15:03.000Z</time>
                <name>Trackpoint 4296</name>
            </trkpt>
            <trkpt lat="49.7320032" lon="9.1997184">
                <ele>124.0</ele>
                <time>2020-08-29T13:15:04.000Z</time>
                <name>Trackpoint 4297</name>
            </trkpt>
            <trkpt lat="49.7320224" lon="9.1996024">
                <ele>123.0</ele>
                <time>2020-08-29T13:15:05.000Z</time>
                <name>Trackpoint 4298</name>
            </trkpt>
            <trkpt lat="49.7320352" lon="9.1994848">
                <ele>123.0</ele>
                <time>2020-08-29T13:15:06.000Z</time>
                <name>Trackpoint 4299</name>
            </trkpt>
            <trkpt lat="49.7320608" lon="9.1993904">
                <ele>123.0</ele>
                <time>2020-08-29T13:15:07.000Z</time>
                <name>Trackpoint 4300</name>
            </trkpt>
            <trkpt lat="49.7320864" lon="9.1993016">
                <ele>123.0</ele>
                <time>2020-08-29T13:15:08.000Z</time>
                <name>Trackpoint 4301</name>
            </trkpt>
            <trkpt lat="49.7321088" lon="9.199208">
                <ele>123.0</ele>
                <time>2020-08-29T13:15:09.000Z</time>
                <name>Trackpoint 4302</name>
            </trkpt>
            <trkpt lat="49.7321536" lon="9.1990432">
                <ele>123.0</ele>
                <time>2020-08-29T13:15:11.000Z</time>
                <name>Trackpoint 4303</name>
            </trkpt>
            <trkpt lat="49.7322016" lon="9.1988784">
                <ele>123.0</ele>
                <time>2020-08-29T13:15:13.000Z</time>
                <name>Trackpoint 4304</name>
            </trkpt>
            <trkpt lat="49.7322496" lon="9.1987184">
                <ele>123.0</ele>
                <time>2020-08-29T13:15:15.000Z</time>
                <name>Trackpoint 4305</name>
            </trkpt>
            <trkpt lat="49.7322944" lon="9.19856">
                <ele>123.0</ele>
                <time>2020-08-29T13:15:17.000Z</time>
                <name>Trackpoint 4306</name>
            </trkpt>
            <trkpt lat="49.7323424" lon="9.1984032">
                <ele>123.0</ele>
                <time>2020-08-29T13:15:19.000Z</time>
                <name>Trackpoint 4307</name>
            </trkpt>
            <trkpt lat="49.732384" lon="9.1982432">
                <ele>123.0</ele>
                <time>2020-08-29T13:15:21.000Z</time>
                <name>Trackpoint 4308</name>
            </trkpt>
            <trkpt lat="49.732432" lon="9.1980912">
                <ele>123.0</ele>
                <time>2020-08-29T13:15:23.000Z</time>
                <name>Trackpoint 4309</name>
            </trkpt>
            <trkpt lat="49.7324704" lon="9.1979416">
                <ele>122.0</ele>
                <time>2020-08-29T13:15:25.000Z</time>
                <name>Trackpoint 4310</name>
            </trkpt>
            <trkpt lat="49.732512" lon="9.1978016">
                <ele>122.0</ele>
                <time>2020-08-29T13:15:27.000Z</time>
                <name>Trackpoint 4311</name>
            </trkpt>
            <trkpt lat="49.7325504" lon="9.1976696">
                <ele>122.0</ele>
                <time>2020-08-29T13:15:29.000Z</time>
                <name>Trackpoint 4312</name>
            </trkpt>
            <trkpt lat="49.7325888" lon="9.1975416">
                <ele>122.0</ele>
                <time>2020-08-29T13:15:31.000Z</time>
                <name>Trackpoint 4313</name>
            </trkpt>
            <trkpt lat="49.7326304" lon="9.1974088">
                <ele>122.0</ele>
                <time>2020-08-29T13:15:33.000Z</time>
                <name>Trackpoint 4314</name>
            </trkpt>
            <trkpt lat="49.7326688" lon="9.1972704">
                <ele>122.0</ele>
                <time>2020-08-29T13:15:35.000Z</time>
                <name>Trackpoint 4315</name>
            </trkpt>
            <trkpt lat="49.7327104" lon="9.1971256">
                <ele>122.0</ele>
                <time>2020-08-29T13:15:37.000Z</time>
                <name>Trackpoint 4316</name>
            </trkpt>
            <trkpt lat="49.7327488" lon="9.1969832">
                <ele>122.0</ele>
                <time>2020-08-29T13:15:39.000Z</time>
                <name>Trackpoint 4317</name>
            </trkpt>
            <trkpt lat="49.7327872" lon="9.19684">
                <ele>122.0</ele>
                <time>2020-08-29T13:15:41.000Z</time>
                <name>Trackpoint 4318</name>
            </trkpt>
            <trkpt lat="49.7328256" lon="9.1967024">
                <ele>122.0</ele>
                <time>2020-08-29T13:15:43.000Z</time>
                <name>Trackpoint 4319</name>
            </trkpt>
            <trkpt lat="49.732864" lon="9.1965616">
                <ele>122.0</ele>
                <time>2020-08-29T13:15:45.000Z</time>
                <name>Trackpoint 4320</name>
            </trkpt>
            <trkpt lat="49.7329024" lon="9.1964216">
                <ele>122.0</ele>
                <time>2020-08-29T13:15:47.000Z</time>
                <name>Trackpoint 4321</name>
            </trkpt>
            <trkpt lat="49.7329472" lon="9.1962768">
                <ele>121.0</ele>
                <time>2020-08-29T13:15:49.000Z</time>
                <name>Trackpoint 4322</name>
            </trkpt>
            <trkpt lat="49.7329888" lon="9.1961344">
                <ele>121.0</ele>
                <time>2020-08-29T13:15:51.000Z</time>
                <name>Trackpoint 4323</name>
            </trkpt>
            <trkpt lat="49.733024" lon="9.195996">
                <ele>121.0</ele>
                <time>2020-08-29T13:15:53.000Z</time>
                <name>Trackpoint 4324</name>
            </trkpt>
            <trkpt lat="49.7330688" lon="9.1958752">
                <ele>121.0</ele>
                <time>2020-08-29T13:15:55.000Z</time>
                <name>Trackpoint 4325</name>
            </trkpt>
            <trkpt lat="49.7331136" lon="9.1957528">
                <ele>121.0</ele>
                <time>2020-08-29T13:15:57.000Z</time>
                <name>Trackpoint 4326</name>
            </trkpt>
            <trkpt lat="49.7331584" lon="9.195628">
                <ele>121.0</ele>
                <time>2020-08-29T13:15:59.000Z</time>
                <name>Trackpoint 4327</name>
            </trkpt>
            <trkpt lat="49.7331936" lon="9.1954848">
                <ele>120.0</ele>
                <time>2020-08-29T13:16:01.000Z</time>
                <name>Trackpoint 4328</name>
            </trkpt>
            <trkpt lat="49.7332352" lon="9.1953488">
                <ele>121.0</ele>
                <time>2020-08-29T13:16:03.000Z</time>
                <name>Trackpoint 4329</name>
            </trkpt>
            <trkpt lat="49.7332768" lon="9.1952104">
                <ele>121.0</ele>
                <time>2020-08-29T13:16:05.000Z</time>
                <name>Trackpoint 4330</name>
            </trkpt>
            <trkpt lat="49.7333312" lon="9.19506">
                <ele>122.0</ele>
                <time>2020-08-29T13:16:07.000Z</time>
                <name>Trackpoint 4331</name>
            </trkpt>
            <trkpt lat="49.7333792" lon="9.1949216">
                <ele>121.0</ele>
                <time>2020-08-29T13:16:09.000Z</time>
                <name>Trackpoint 4332</name>
            </trkpt>
            <trkpt lat="49.7334304" lon="9.194788">
                <ele>122.0</ele>
                <time>2020-08-29T13:16:11.000Z</time>
                <name>Trackpoint 4333</name>
            </trkpt>
            <trkpt lat="49.733472" lon="9.1946432">
                <ele>121.0</ele>
                <time>2020-08-29T13:16:13.000Z</time>
                <name>Trackpoint 4334</name>
            </trkpt>
            <trkpt lat="49.7335168" lon="9.1945136">
                <ele>121.0</ele>
                <time>2020-08-29T13:16:15.000Z</time>
                <name>Trackpoint 4335</name>
            </trkpt>
            <trkpt lat="49.7335648" lon="9.1943928">
                <ele>121.0</ele>
                <time>2020-08-29T13:16:17.000Z</time>
                <name>Trackpoint 4336</name>
            </trkpt>
            <trkpt lat="49.7336192" lon="9.194272">
                <ele>121.0</ele>
                <time>2020-08-29T13:16:19.000Z</time>
                <name>Trackpoint 4337</name>
            </trkpt>
            <trkpt lat="49.733664" lon="9.194148">
                <ele>121.0</ele>
                <time>2020-08-29T13:16:21.000Z</time>
                <name>Trackpoint 4338</name>
            </trkpt>
            <trkpt lat="49.7337152" lon="9.1940248">
                <ele>121.0</ele>
                <time>2020-08-29T13:16:23.000Z</time>
                <name>Trackpoint 4339</name>
            </trkpt>
            <trkpt lat="49.73376" lon="9.1939184">
                <ele>121.0</ele>
                <time>2020-08-29T13:16:25.000Z</time>
                <name>Trackpoint 4340</name>
            </trkpt>
            <trkpt lat="49.733808" lon="9.1938">
                <ele>121.0</ele>
                <time>2020-08-29T13:16:27.000Z</time>
                <name>Trackpoint 4341</name>
            </trkpt>
            <trkpt lat="49.73384" lon="9.1936728">
                <ele>121.0</ele>
                <time>2020-08-29T13:16:29.000Z</time>
                <name>Trackpoint 4342</name>
            </trkpt>
            <trkpt lat="49.733888" lon="9.1935352">
                <ele>122.0</ele>
                <time>2020-08-29T13:16:31.000Z</time>
                <name>Trackpoint 4343</name>
            </trkpt>
            <trkpt lat="49.733936" lon="9.1934136">
                <ele>122.0</ele>
                <time>2020-08-29T13:16:33.000Z</time>
                <name>Trackpoint 4344</name>
            </trkpt>
            <trkpt lat="49.7339904" lon="9.19328">
                <ele>122.0</ele>
                <time>2020-08-29T13:16:35.000Z</time>
                <name>Trackpoint 4345</name>
            </trkpt>
            <trkpt lat="49.7340416" lon="9.1931488">
                <ele>122.0</ele>
                <time>2020-08-29T13:16:37.000Z</time>
                <name>Trackpoint 4346</name>
            </trkpt>
            <trkpt lat="49.7340992" lon="9.1930168">
                <ele>122.0</ele>
                <time>2020-08-29T13:16:39.000Z</time>
                <name>Trackpoint 4347</name>
            </trkpt>
            <trkpt lat="49.7341536" lon="9.1928856">
                <ele>122.0</ele>
                <time>2020-08-29T13:16:41.000Z</time>
                <name>Trackpoint 4348</name>
            </trkpt>
            <trkpt lat="49.7342048" lon="9.1927568">
                <ele>122.0</ele>
                <time>2020-08-29T13:16:43.000Z</time>
                <name>Trackpoint 4349</name>
            </trkpt>
            <trkpt lat="49.734256" lon="9.1926496">
                <ele>122.0</ele>
                <time>2020-08-29T13:16:45.000Z</time>
                <name>Trackpoint 4350</name>
            </trkpt>
            <trkpt lat="49.734304" lon="9.1925536">
                <ele>122.0</ele>
                <time>2020-08-29T13:16:47.000Z</time>
                <name>Trackpoint 4351</name>
            </trkpt>
            <trkpt lat="49.7343488" lon="9.1924384">
                <ele>122.0</ele>
                <time>2020-08-29T13:16:49.000Z</time>
                <name>Trackpoint 4352</name>
            </trkpt>
            <trkpt lat="49.7343872" lon="9.1923312">
                <ele>122.0</ele>
                <time>2020-08-29T13:16:51.000Z</time>
                <name>Trackpoint 4353</name>
            </trkpt>
            <trkpt lat="49.7344288" lon="9.19224">
                <ele>122.0</ele>
                <time>2020-08-29T13:16:53.000Z</time>
                <name>Trackpoint 4354</name>
            </trkpt>
            <trkpt lat="49.7344704" lon="9.192112">
                <ele>122.0</ele>
                <time>2020-08-29T13:16:56.000Z</time>
                <name>Trackpoint 4355</name>
            </trkpt>
            <trkpt lat="49.734512" lon="9.1920168">
                <ele>122.0</ele>
                <time>2020-08-29T13:16:58.000Z</time>
                <name>Trackpoint 4356</name>
            </trkpt>
            <trkpt lat="49.7345472" lon="9.1919096">
                <ele>122.0</ele>
                <time>2020-08-29T13:17:00.000Z</time>
                <name>Trackpoint 4357</name>
            </trkpt>
            <trkpt lat="49.7345824" lon="9.1918032">
                <ele>122.0</ele>
                <time>2020-08-29T13:17:02.000Z</time>
                <name>Trackpoint 4358</name>
            </trkpt>
            <trkpt lat="49.7346272" lon="9.1917248">
                <ele>122.0</ele>
                <time>2020-08-29T13:17:04.000Z</time>
                <name>Trackpoint 4359</name>
            </trkpt>
            <trkpt lat="49.7346656" lon="9.1916416">
                <ele>122.0</ele>
                <time>2020-08-29T13:17:06.000Z</time>
                <name>Trackpoint 4360</name>
            </trkpt>
            <trkpt lat="49.7347104" lon="9.1915552">
                <ele>122.0</ele>
                <time>2020-08-29T13:17:09.000Z</time>
                <name>Trackpoint 4361</name>
            </trkpt>
            <trkpt lat="49.7347616" lon="9.1914728">
                <ele>122.0</ele>
                <time>2020-08-29T13:17:11.000Z</time>
                <name>Trackpoint 4362</name>
            </trkpt>
            <trkpt lat="49.734816" lon="9.1913664">
                <ele>122.0</ele>
                <time>2020-08-29T13:17:13.000Z</time>
                <name>Trackpoint 4363</name>
            </trkpt>
            <trkpt lat="49.7348704" lon="9.1912496">
                <ele>122.0</ele>
                <time>2020-08-29T13:17:15.000Z</time>
                <name>Trackpoint 4364</name>
            </trkpt>
            <trkpt lat="49.7349248" lon="9.1911312">
                <ele>122.0</ele>
                <time>2020-08-29T13:17:17.000Z</time>
                <name>Trackpoint 4365</name>
            </trkpt>
            <trkpt lat="49.7349824" lon="9.1910088">
                <ele>122.0</ele>
                <time>2020-08-29T13:17:19.000Z</time>
                <name>Trackpoint 4366</name>
            </trkpt>
            <trkpt lat="49.7350272" lon="9.1908728">
                <ele>122.0</ele>
                <time>2020-08-29T13:17:21.000Z</time>
                <name>Trackpoint 4367</name>
            </trkpt>
            <trkpt lat="49.7350784" lon="9.1907584">
                <ele>122.0</ele>
                <time>2020-08-29T13:17:23.000Z</time>
                <name>Trackpoint 4368</name>
            </trkpt>
            <trkpt lat="49.7351328" lon="9.1906344">
                <ele>122.0</ele>
                <time>2020-08-29T13:17:25.000Z</time>
                <name>Trackpoint 4369</name>
            </trkpt>
            <trkpt lat="49.7351872" lon="9.1905144">
                <ele>122.0</ele>
                <time>2020-08-29T13:17:27.000Z</time>
                <name>Trackpoint 4370</name>
            </trkpt>
            <trkpt lat="49.735232" lon="9.1904048">
                <ele>122.0</ele>
                <time>2020-08-29T13:17:29.000Z</time>
                <name>Trackpoint 4371</name>
            </trkpt>
            <trkpt lat="49.7352864" lon="9.1902864">
                <ele>122.0</ele>
                <time>2020-08-29T13:17:31.000Z</time>
                <name>Trackpoint 4372</name>
            </trkpt>
            <trkpt lat="49.7353504" lon="9.1901664">
                <ele>122.0</ele>
                <time>2020-08-29T13:17:33.000Z</time>
                <name>Trackpoint 4373</name>
            </trkpt>
            <trkpt lat="49.7354112" lon="9.1900416">
                <ele>122.0</ele>
                <time>2020-08-29T13:17:35.000Z</time>
                <name>Trackpoint 4374</name>
            </trkpt>
            <trkpt lat="49.7354816" lon="9.1899144">
                <ele>122.0</ele>
                <time>2020-08-29T13:17:37.000Z</time>
                <name>Trackpoint 4375</name>
            </trkpt>
            <trkpt lat="49.7355392" lon="9.189772">
                <ele>122.0</ele>
                <time>2020-08-29T13:17:39.000Z</time>
                <name>Trackpoint 4376</name>
            </trkpt>
            <trkpt lat="49.7355904" lon="9.1896664">
                <ele>122.0</ele>
                <time>2020-08-29T13:17:41.000Z</time>
                <name>Trackpoint 4377</name>
            </trkpt>
            <trkpt lat="49.7356672" lon="9.18958">
                <ele>122.0</ele>
                <time>2020-08-29T13:17:43.000Z</time>
                <name>Trackpoint 4378</name>
            </trkpt>
            <trkpt lat="49.7357248" lon="9.1894864">
                <ele>121.0</ele>
                <time>2020-08-29T13:17:45.000Z</time>
                <name>Trackpoint 4379</name>
            </trkpt>
            <trkpt lat="49.7358016" lon="9.1893928">
                <ele>121.0</ele>
                <time>2020-08-29T13:17:47.000Z</time>
                <name>Trackpoint 4380</name>
            </trkpt>
            <trkpt lat="49.7358656" lon="9.1892952">
                <ele>121.0</ele>
                <time>2020-08-29T13:17:49.000Z</time>
                <name>Trackpoint 4381</name>
            </trkpt>
            <trkpt lat="49.7359392" lon="9.189192">
                <ele>121.0</ele>
                <time>2020-08-29T13:17:51.000Z</time>
                <name>Trackpoint 4382</name>
            </trkpt>
            <trkpt lat="49.7360224" lon="9.1890872">
                <ele>121.0</ele>
                <time>2020-08-29T13:17:53.000Z</time>
                <name>Trackpoint 4383</name>
            </trkpt>
            <trkpt lat="49.7361024" lon="9.1889912">
                <ele>121.0</ele>
                <time>2020-08-29T13:17:55.000Z</time>
                <name>Trackpoint 4384</name>
            </trkpt>
            <trkpt lat="49.7361792" lon="9.1888952">
                <ele>120.0</ele>
                <time>2020-08-29T13:17:57.000Z</time>
                <name>Trackpoint 4385</name>
            </trkpt>
            <trkpt lat="49.7362624" lon="9.188804">
                <ele>120.0</ele>
                <time>2020-08-29T13:17:59.000Z</time>
                <name>Trackpoint 4386</name>
            </trkpt>
            <trkpt lat="49.7363552" lon="9.1887128">
                <ele>120.0</ele>
                <time>2020-08-29T13:18:01.000Z</time>
                <name>Trackpoint 4387</name>
            </trkpt>
            <trkpt lat="49.7364352" lon="9.188628">
                <ele>121.0</ele>
                <time>2020-08-29T13:18:03.000Z</time>
                <name>Trackpoint 4388</name>
            </trkpt>
            <trkpt lat="49.7365152" lon="9.1885456">
                <ele>121.0</ele>
                <time>2020-08-29T13:18:05.000Z</time>
                <name>Trackpoint 4389</name>
            </trkpt>
            <trkpt lat="49.7365952" lon="9.188468">
                <ele>122.0</ele>
                <time>2020-08-29T13:18:07.000Z</time>
                <name>Trackpoint 4390</name>
            </trkpt>
            <trkpt lat="49.736672" lon="9.18838">
                <ele>122.0</ele>
                <time>2020-08-29T13:18:09.000Z</time>
                <name>Trackpoint 4391</name>
            </trkpt>
            <trkpt lat="49.7367584" lon="9.1882896">
                <ele>122.0</ele>
                <time>2020-08-29T13:18:11.000Z</time>
                <name>Trackpoint 4392</name>
            </trkpt>
            <trkpt lat="49.736832" lon="9.1882032">
                <ele>122.0</ele>
                <time>2020-08-29T13:18:13.000Z</time>
                <name>Trackpoint 4393</name>
            </trkpt>
            <trkpt lat="49.7368928" lon="9.1881248">
                <ele>122.0</ele>
                <time>2020-08-29T13:18:15.000Z</time>
                <name>Trackpoint 4394</name>
            </trkpt>
            <trkpt lat="49.7369664" lon="9.1880552">
                <ele>122.0</ele>
                <time>2020-08-29T13:18:17.000Z</time>
                <name>Trackpoint 4395</name>
            </trkpt>
            <trkpt lat="49.7370528" lon="9.1879832">
                <ele>123.0</ele>
                <time>2020-08-29T13:18:19.000Z</time>
                <name>Trackpoint 4396</name>
            </trkpt>
            <trkpt lat="49.7371296" lon="9.1879016">
                <ele>123.0</ele>
                <time>2020-08-29T13:18:21.000Z</time>
                <name>Trackpoint 4397</name>
            </trkpt>
            <trkpt lat="49.7372064" lon="9.1878256">
                <ele>123.0</ele>
                <time>2020-08-29T13:18:23.000Z</time>
                <name>Trackpoint 4398</name>
            </trkpt>
            <trkpt lat="49.7372736" lon="9.1877536">
                <ele>123.0</ele>
                <time>2020-08-29T13:18:25.000Z</time>
                <name>Trackpoint 4399</name>
            </trkpt>
            <trkpt lat="49.7373344" lon="9.18768">
                <ele>123.0</ele>
                <time>2020-08-29T13:18:27.000Z</time>
                <name>Trackpoint 4400</name>
            </trkpt>
            <trkpt lat="49.737392" lon="9.1876072">
                <ele>123.0</ele>
                <time>2020-08-29T13:18:29.000Z</time>
                <name>Trackpoint 4401</name>
            </trkpt>
            <trkpt lat="49.7374464" lon="9.1875352">
                <ele>123.0</ele>
                <time>2020-08-29T13:18:31.000Z</time>
                <name>Trackpoint 4402</name>
            </trkpt>
            <trkpt lat="49.7375072" lon="9.187464">
                <ele>123.0</ele>
                <time>2020-08-29T13:18:33.000Z</time>
                <name>Trackpoint 4403</name>
            </trkpt>
            <trkpt lat="49.7375552" lon="9.187368">
                <ele>122.0</ele>
                <time>2020-08-29T13:18:35.000Z</time>
                <name>Trackpoint 4404</name>
            </trkpt>
            <trkpt lat="49.7376224" lon="9.1872752">
                <ele>123.0</ele>
                <time>2020-08-29T13:18:37.000Z</time>
                <name>Trackpoint 4405</name>
            </trkpt>
            <trkpt lat="49.7376896" lon="9.187172">
                <ele>122.0</ele>
                <time>2020-08-29T13:18:39.000Z</time>
                <name>Trackpoint 4406</name>
            </trkpt>
            <trkpt lat="49.7377504" lon="9.1870632">
                <ele>122.0</ele>
                <time>2020-08-29T13:18:41.000Z</time>
                <name>Trackpoint 4407</name>
            </trkpt>
            <trkpt lat="49.7378112" lon="9.1869624">
                <ele>121.0</ele>
                <time>2020-08-29T13:18:43.000Z</time>
                <name>Trackpoint 4408</name>
            </trkpt>
            <trkpt lat="49.7378816" lon="9.1868664">
                <ele>120.0</ele>
                <time>2020-08-29T13:18:45.000Z</time>
                <name>Trackpoint 4409</name>
            </trkpt>
            <trkpt lat="49.737952" lon="9.1867664">
                <ele>121.0</ele>
                <time>2020-08-29T13:18:47.000Z</time>
                <name>Trackpoint 4410</name>
            </trkpt>
            <trkpt lat="49.7380288" lon="9.1866712">
                <ele>121.0</ele>
                <time>2020-08-29T13:18:49.000Z</time>
                <name>Trackpoint 4411</name>
            </trkpt>
            <trkpt lat="49.7381056" lon="9.1865752">
                <ele>121.0</ele>
                <time>2020-08-29T13:18:51.000Z</time>
                <name>Trackpoint 4412</name>
            </trkpt>
            <trkpt lat="49.7381792" lon="9.1864792">
                <ele>121.0</ele>
                <time>2020-08-29T13:18:53.000Z</time>
                <name>Trackpoint 4413</name>
            </trkpt>
            <trkpt lat="49.7382496" lon="9.1863848">
                <ele>121.0</ele>
                <time>2020-08-29T13:18:55.000Z</time>
                <name>Trackpoint 4414</name>
            </trkpt>
            <trkpt lat="49.73832" lon="9.1863">
                <ele>121.0</ele>
                <time>2020-08-29T13:18:57.000Z</time>
                <name>Trackpoint 4415</name>
            </trkpt>
            <trkpt lat="49.738384" lon="9.1862184">
                <ele>121.0</ele>
                <time>2020-08-29T13:18:59.000Z</time>
                <name>Trackpoint 4416</name>
            </trkpt>
            <trkpt lat="49.7384448" lon="9.1861448">
                <ele>122.0</ele>
                <time>2020-08-29T13:19:01.000Z</time>
                <name>Trackpoint 4417</name>
            </trkpt>
            <trkpt lat="49.738528" lon="9.186044">
                <ele>121.0</ele>
                <time>2020-08-29T13:19:04.000Z</time>
                <name>Trackpoint 4418</name>
            </trkpt>
            <trkpt lat="49.7385888" lon="9.1859728">
                <ele>121.0</ele>
                <time>2020-08-29T13:19:06.000Z</time>
                <name>Trackpoint 4419</name>
            </trkpt>
            <trkpt lat="49.738656" lon="9.1858952">
                <ele>121.0</ele>
                <time>2020-08-29T13:19:08.000Z</time>
                <name>Trackpoint 4420</name>
            </trkpt>
            <trkpt lat="49.7387264" lon="9.185808">
                <ele>121.0</ele>
                <time>2020-08-29T13:19:10.000Z</time>
                <name>Trackpoint 4421</name>
            </trkpt>
            <trkpt lat="49.7387936" lon="9.185732">
                <ele>121.0</ele>
                <time>2020-08-29T13:19:12.000Z</time>
                <name>Trackpoint 4422</name>
            </trkpt>
            <trkpt lat="49.7388576" lon="9.1856584">
                <ele>121.0</ele>
                <time>2020-08-29T13:19:14.000Z</time>
                <name>Trackpoint 4423</name>
            </trkpt>
            <trkpt lat="49.7389408" lon="9.1855832">
                <ele>121.0</ele>
                <time>2020-08-29T13:19:16.000Z</time>
                <name>Trackpoint 4424</name>
            </trkpt>
            <trkpt lat="49.739024" lon="9.1855136">
                <ele>121.0</ele>
                <time>2020-08-29T13:19:18.000Z</time>
                <name>Trackpoint 4425</name>
            </trkpt>
            <trkpt lat="49.739104" lon="9.1854312">
                <ele>121.0</ele>
                <time>2020-08-29T13:19:20.000Z</time>
                <name>Trackpoint 4426</name>
            </trkpt>
            <trkpt lat="49.7391904" lon="9.1853504">
                <ele>121.0</ele>
                <time>2020-08-29T13:19:22.000Z</time>
                <name>Trackpoint 4427</name>
            </trkpt>
            <trkpt lat="49.739264" lon="9.18526">
                <ele>121.0</ele>
                <time>2020-08-29T13:19:24.000Z</time>
                <name>Trackpoint 4428</name>
            </trkpt>
            <trkpt lat="49.73936" lon="9.1851832">
                <ele>121.0</ele>
                <time>2020-08-29T13:19:26.000Z</time>
                <name>Trackpoint 4429</name>
            </trkpt>
            <trkpt lat="49.7394432" lon="9.185092">
                <ele>121.0</ele>
                <time>2020-08-29T13:19:28.000Z</time>
                <name>Trackpoint 4430</name>
            </trkpt>
            <trkpt lat="49.7395328" lon="9.185012">
                <ele>122.0</ele>
                <time>2020-08-29T13:19:30.000Z</time>
                <name>Trackpoint 4431</name>
            </trkpt>
            <trkpt lat="49.739616" lon="9.1849216">
                <ele>121.0</ele>
                <time>2020-08-29T13:19:32.000Z</time>
                <name>Trackpoint 4432</name>
            </trkpt>
            <trkpt lat="49.7396992" lon="9.184836">
                <ele>122.0</ele>
                <time>2020-08-29T13:19:34.000Z</time>
                <name>Trackpoint 4433</name>
            </trkpt>
            <trkpt lat="49.7397856" lon="9.1847496">
                <ele>121.0</ele>
                <time>2020-08-29T13:19:36.000Z</time>
                <name>Trackpoint 4434</name>
            </trkpt>
            <trkpt lat="49.7398688" lon="9.1846648">
                <ele>121.0</ele>
                <time>2020-08-29T13:19:38.000Z</time>
                <name>Trackpoint 4435</name>
            </trkpt>
            <trkpt lat="49.7399456" lon="9.1845752">
                <ele>121.0</ele>
                <time>2020-08-29T13:19:40.000Z</time>
                <name>Trackpoint 4436</name>
            </trkpt>
            <trkpt lat="49.7400064" lon="9.1844968">
                <ele>121.0</ele>
                <time>2020-08-29T13:19:42.000Z</time>
                <name>Trackpoint 4437</name>
            </trkpt>
            <trkpt lat="49.7400768" lon="9.1844184">
                <ele>122.0</ele>
                <time>2020-08-29T13:19:44.000Z</time>
                <name>Trackpoint 4438</name>
            </trkpt>
            <trkpt lat="49.7401504" lon="9.1843344">
                <ele>121.0</ele>
                <time>2020-08-29T13:19:46.000Z</time>
                <name>Trackpoint 4439</name>
            </trkpt>
            <trkpt lat="49.7402368" lon="9.1842568">
                <ele>122.0</ele>
                <time>2020-08-29T13:19:48.000Z</time>
                <name>Trackpoint 4440</name>
            </trkpt>
            <trkpt lat="49.7403168" lon="9.184168">
                <ele>122.0</ele>
                <time>2020-08-29T13:19:50.000Z</time>
                <name>Trackpoint 4441</name>
            </trkpt>
            <trkpt lat="49.7404" lon="9.1840824">
                <ele>122.0</ele>
                <time>2020-08-29T13:19:52.000Z</time>
                <name>Trackpoint 4442</name>
            </trkpt>
            <trkpt lat="49.7404736" lon="9.1840088">
                <ele>122.0</ele>
                <time>2020-08-29T13:19:54.000Z</time>
                <name>Trackpoint 4443</name>
            </trkpt>
            <trkpt lat="49.7405504" lon="9.1839288">
                <ele>122.0</ele>
                <time>2020-08-29T13:19:56.000Z</time>
                <name>Trackpoint 4444</name>
            </trkpt>
            <trkpt lat="49.740624" lon="9.183848">
                <ele>122.0</ele>
                <time>2020-08-29T13:19:58.000Z</time>
                <name>Trackpoint 4445</name>
            </trkpt>
            <trkpt lat="49.7406944" lon="9.1837816">
                <ele>122.0</ele>
                <time>2020-08-29T13:20:00.000Z</time>
                <name>Trackpoint 4446</name>
            </trkpt>
            <trkpt lat="49.7407712" lon="9.1837168">
                <ele>122.0</ele>
                <time>2020-08-29T13:20:02.000Z</time>
                <name>Trackpoint 4447</name>
            </trkpt>
            <trkpt lat="49.740848" lon="9.1836368">
                <ele>121.0</ele>
                <time>2020-08-29T13:20:04.000Z</time>
                <name>Trackpoint 4448</name>
            </trkpt>
            <trkpt lat="49.7409312" lon="9.1835544">
                <ele>121.0</ele>
                <time>2020-08-29T13:20:06.000Z</time>
                <name>Trackpoint 4449</name>
            </trkpt>
            <trkpt lat="49.7410208" lon="9.1834784">
                <ele>121.0</ele>
                <time>2020-08-29T13:20:08.000Z</time>
                <name>Trackpoint 4450</name>
            </trkpt>
            <trkpt lat="49.7411008" lon="9.1834">
                <ele>121.0</ele>
                <time>2020-08-29T13:20:10.000Z</time>
                <name>Trackpoint 4451</name>
            </trkpt>
            <trkpt lat="49.7411872" lon="9.1833216">
                <ele>121.0</ele>
                <time>2020-08-29T13:20:12.000Z</time>
                <name>Trackpoint 4452</name>
            </trkpt>
            <trkpt lat="49.7412672" lon="9.1832416">
                <ele>121.0</ele>
                <time>2020-08-29T13:20:14.000Z</time>
                <name>Trackpoint 4453</name>
            </trkpt>
            <trkpt lat="49.741344" lon="9.1831688">
                <ele>121.0</ele>
                <time>2020-08-29T13:20:16.000Z</time>
                <name>Trackpoint 4454</name>
            </trkpt>
            <trkpt lat="49.7414176" lon="9.1831016">
                <ele>121.0</ele>
                <time>2020-08-29T13:20:18.000Z</time>
                <name>Trackpoint 4455</name>
            </trkpt>
            <trkpt lat="49.741488" lon="9.18304">
                <ele>121.0</ele>
                <time>2020-08-29T13:20:20.000Z</time>
                <name>Trackpoint 4456</name>
            </trkpt>
            <trkpt lat="49.7415584" lon="9.1829816">
                <ele>121.0</ele>
                <time>2020-08-29T13:20:22.000Z</time>
                <name>Trackpoint 4457</name>
            </trkpt>
            <trkpt lat="49.7416544" lon="9.1829032">
                <ele>121.0</ele>
                <time>2020-08-29T13:20:25.000Z</time>
                <name>Trackpoint 4458</name>
            </trkpt>
            <trkpt lat="49.7417568" lon="9.1828168">
                <ele>121.0</ele>
                <time>2020-08-29T13:20:28.000Z</time>
                <name>Trackpoint 4459</name>
            </trkpt>
            <trkpt lat="49.7418304" lon="9.1827632">
                <ele>121.0</ele>
                <time>2020-08-29T13:20:30.000Z</time>
                <name>Trackpoint 4460</name>
            </trkpt>
            <trkpt lat="49.7419104" lon="9.182696">
                <ele>121.0</ele>
                <time>2020-08-29T13:20:32.000Z</time>
                <name>Trackpoint 4461</name>
            </trkpt>
            <trkpt lat="49.7419936" lon="9.1826232">
                <ele>121.0</ele>
                <time>2020-08-29T13:20:34.000Z</time>
                <name>Trackpoint 4462</name>
            </trkpt>
            <trkpt lat="49.74208" lon="9.1825536">
                <ele>121.0</ele>
                <time>2020-08-29T13:20:36.000Z</time>
                <name>Trackpoint 4463</name>
            </trkpt>
            <trkpt lat="49.7421696" lon="9.18248">
                <ele>121.0</ele>
                <time>2020-08-29T13:20:38.000Z</time>
                <name>Trackpoint 4464</name>
            </trkpt>
            <trkpt lat="49.7422528" lon="9.1824032">
                <ele>121.0</ele>
                <time>2020-08-29T13:20:40.000Z</time>
                <name>Trackpoint 4465</name>
            </trkpt>
            <trkpt lat="49.742336" lon="9.1823368">
                <ele>121.0</ele>
                <time>2020-08-29T13:20:42.000Z</time>
                <name>Trackpoint 4466</name>
            </trkpt>
            <trkpt lat="49.742416" lon="9.1822728">
                <ele>121.0</ele>
                <time>2020-08-29T13:20:44.000Z</time>
                <name>Trackpoint 4467</name>
            </trkpt>
            <trkpt lat="49.742496" lon="9.1822072">
                <ele>121.0</ele>
                <time>2020-08-29T13:20:46.000Z</time>
                <name>Trackpoint 4468</name>
            </trkpt>
            <trkpt lat="49.7425792" lon="9.1821344">
                <ele>121.0</ele>
                <time>2020-08-29T13:20:48.000Z</time>
                <name>Trackpoint 4469</name>
            </trkpt>
            <trkpt lat="49.742672" lon="9.1820608">
                <ele>121.0</ele>
                <time>2020-08-29T13:20:50.000Z</time>
                <name>Trackpoint 4470</name>
            </trkpt>
            <trkpt lat="49.7427648" lon="9.1819888">
                <ele>121.0</ele>
                <time>2020-08-29T13:20:52.000Z</time>
                <name>Trackpoint 4471</name>
            </trkpt>
            <trkpt lat="49.7428544" lon="9.181916">
                <ele>121.0</ele>
                <time>2020-08-29T13:20:54.000Z</time>
                <name>Trackpoint 4472</name>
            </trkpt>
            <trkpt lat="49.7429376" lon="9.1818536">
                <ele>121.0</ele>
                <time>2020-08-29T13:20:56.000Z</time>
                <name>Trackpoint 4473</name>
            </trkpt>
            <trkpt lat="49.7430176" lon="9.1817864">
                <ele>121.0</ele>
                <time>2020-08-29T13:20:58.000Z</time>
                <name>Trackpoint 4474</name>
            </trkpt>
            <trkpt lat="49.7431008" lon="9.1817248">
                <ele>121.0</ele>
                <time>2020-08-29T13:21:00.000Z</time>
                <name>Trackpoint 4475</name>
            </trkpt>
            <trkpt lat="49.7431744" lon="9.181672">
                <ele>121.0</ele>
                <time>2020-08-29T13:21:02.000Z</time>
                <name>Trackpoint 4476</name>
            </trkpt>
            <trkpt lat="49.7432512" lon="9.1816184">
                <ele>122.0</ele>
                <time>2020-08-29T13:21:04.000Z</time>
                <name>Trackpoint 4477</name>
            </trkpt>
            <trkpt lat="49.7433632" lon="9.181552">
                <ele>122.0</ele>
                <time>2020-08-29T13:21:07.000Z</time>
                <name>Trackpoint 4478</name>
            </trkpt>
            <trkpt lat="49.74344" lon="9.1815016">
                <ele>122.0</ele>
                <time>2020-08-29T13:21:09.000Z</time>
                <name>Trackpoint 4479</name>
            </trkpt>
            <trkpt lat="49.7435488" lon="9.1814416">
                <ele>122.0</ele>
                <time>2020-08-29T13:21:12.000Z</time>
                <name>Trackpoint 4480</name>
            </trkpt>
            <trkpt lat="49.743648" lon="9.18136">
                <ele>122.0</ele>
                <time>2020-08-29T13:21:15.000Z</time>
                <name>Trackpoint 4481</name>
            </trkpt>
            <trkpt lat="49.7437632" lon="9.1812736">
                <ele>122.0</ele>
                <time>2020-08-29T13:21:18.000Z</time>
                <name>Trackpoint 4482</name>
            </trkpt>
            <trkpt lat="49.7438496" lon="9.1812136">
                <ele>122.0</ele>
                <time>2020-08-29T13:21:20.000Z</time>
                <name>Trackpoint 4483</name>
            </trkpt>
            <trkpt lat="49.7439552" lon="9.18116">
                <ele>122.0</ele>
                <time>2020-08-29T13:21:22.000Z</time>
                <name>Trackpoint 4484</name>
            </trkpt>
            <trkpt lat="49.7440576" lon="9.1811016">
                <ele>122.0</ele>
                <time>2020-08-29T13:21:24.000Z</time>
                <name>Trackpoint 4485</name>
            </trkpt>
            <trkpt lat="49.74416" lon="9.1810552">
                <ele>122.0</ele>
                <time>2020-08-29T13:21:26.000Z</time>
                <name>Trackpoint 4486</name>
            </trkpt>
            <trkpt lat="49.744256" lon="9.1810032">
                <ele>122.0</ele>
                <time>2020-08-29T13:21:28.000Z</time>
                <name>Trackpoint 4487</name>
            </trkpt>
            <trkpt lat="49.7443552" lon="9.1809464">
                <ele>122.0</ele>
                <time>2020-08-29T13:21:30.000Z</time>
                <name>Trackpoint 4488</name>
            </trkpt>
            <trkpt lat="49.744464" lon="9.1808968">
                <ele>121.0</ele>
                <time>2020-08-29T13:21:32.000Z</time>
                <name>Trackpoint 4489</name>
            </trkpt>
            <trkpt lat="49.744576" lon="9.1808464">
                <ele>121.0</ele>
                <time>2020-08-29T13:21:34.000Z</time>
                <name>Trackpoint 4490</name>
            </trkpt>
            <trkpt lat="49.7446816" lon="9.1807944">
                <ele>121.0</ele>
                <time>2020-08-29T13:21:36.000Z</time>
                <name>Trackpoint 4491</name>
            </trkpt>
            <trkpt lat="49.7447808" lon="9.1807472">
                <ele>121.0</ele>
                <time>2020-08-29T13:21:38.000Z</time>
                <name>Trackpoint 4492</name>
            </trkpt>
            <trkpt lat="49.7448736" lon="9.1807048">
                <ele>121.0</ele>
                <time>2020-08-29T13:21:40.000Z</time>
                <name>Trackpoint 4493</name>
            </trkpt>
            <trkpt lat="49.7450016" lon="9.1807016">
                <ele>122.0</ele>
                <time>2020-08-29T13:21:43.000Z</time>
                <name>Trackpoint 4494</name>
            </trkpt>
            <trkpt lat="49.7451264" lon="9.18076">
                <ele>122.0</ele>
                <time>2020-08-29T13:21:45.000Z</time>
                <name>Trackpoint 4495</name>
            </trkpt>
            <trkpt lat="49.745248" lon="9.1808072">
                <ele>122.0</ele>
                <time>2020-08-29T13:21:47.000Z</time>
                <name>Trackpoint 4496</name>
            </trkpt>
            <trkpt lat="49.7453728" lon="9.180812">
                <ele>122.0</ele>
                <time>2020-08-29T13:21:49.000Z</time>
                <name>Trackpoint 4497</name>
            </trkpt>
            <trkpt lat="49.745488" lon="9.1807784">
                <ele>122.0</ele>
                <time>2020-08-29T13:21:51.000Z</time>
                <name>Trackpoint 4498</name>
            </trkpt>
            <trkpt lat="49.7456064" lon="9.18074">
                <ele>122.0</ele>
                <time>2020-08-29T13:21:53.000Z</time>
                <name>Trackpoint 4499</name>
            </trkpt>
            <trkpt lat="49.7457184" lon="9.180712">
                <ele>122.0</ele>
                <time>2020-08-29T13:21:55.000Z</time>
                <name>Trackpoint 4500</name>
            </trkpt>
            <trkpt lat="49.7458336" lon="9.1806784">
                <ele>122.0</ele>
                <time>2020-08-29T13:21:57.000Z</time>
                <name>Trackpoint 4501</name>
            </trkpt>
            <trkpt lat="49.7459424" lon="9.1806368">
                <ele>122.0</ele>
                <time>2020-08-29T13:21:59.000Z</time>
                <name>Trackpoint 4502</name>
            </trkpt>
            <trkpt lat="49.746048" lon="9.1805952">
                <ele>122.0</ele>
                <time>2020-08-29T13:22:01.000Z</time>
                <name>Trackpoint 4503</name>
            </trkpt>
            <trkpt lat="49.7461472" lon="9.180556">
                <ele>122.0</ele>
                <time>2020-08-29T13:22:03.000Z</time>
                <name>Trackpoint 4504</name>
            </trkpt>
            <trkpt lat="49.7462528" lon="9.1805096">
                <ele>122.0</ele>
                <time>2020-08-29T13:22:05.000Z</time>
                <name>Trackpoint 4505</name>
            </trkpt>
            <trkpt lat="49.7463584" lon="9.1804568">
                <ele>122.0</ele>
                <time>2020-08-29T13:22:07.000Z</time>
                <name>Trackpoint 4506</name>
            </trkpt>
            <trkpt lat="49.7464608" lon="9.1804">
                <ele>121.0</ele>
                <time>2020-08-29T13:22:09.000Z</time>
                <name>Trackpoint 4507</name>
            </trkpt>
            <trkpt lat="49.7465568" lon="9.1803464">
                <ele>121.0</ele>
                <time>2020-08-29T13:22:11.000Z</time>
                <name>Trackpoint 4508</name>
            </trkpt>
            <trkpt lat="49.7466464" lon="9.1802928">
                <ele>121.0</ele>
                <time>2020-08-29T13:22:13.000Z</time>
                <name>Trackpoint 4509</name>
            </trkpt>
            <trkpt lat="49.746736" lon="9.1802432">
                <ele>121.0</ele>
                <time>2020-08-29T13:22:15.000Z</time>
                <name>Trackpoint 4510</name>
            </trkpt>
            <trkpt lat="49.7468224" lon="9.1801928">
                <ele>121.0</ele>
                <time>2020-08-29T13:22:17.000Z</time>
                <name>Trackpoint 4511</name>
            </trkpt>
            <trkpt lat="49.7469088" lon="9.1801328">
                <ele>121.0</ele>
                <time>2020-08-29T13:22:19.000Z</time>
                <name>Trackpoint 4512</name>
            </trkpt>
            <trkpt lat="49.7469856" lon="9.1800816">
                <ele>121.0</ele>
                <time>2020-08-29T13:22:21.000Z</time>
                <name>Trackpoint 4513</name>
            </trkpt>
            <trkpt lat="49.7470656" lon="9.1800336">
                <ele>121.0</ele>
                <time>2020-08-29T13:22:23.000Z</time>
                <name>Trackpoint 4514</name>
            </trkpt>
            <trkpt lat="49.747152" lon="9.17998">
                <ele>121.0</ele>
                <time>2020-08-29T13:22:25.000Z</time>
                <name>Trackpoint 4515</name>
            </trkpt>
            <trkpt lat="49.7472384" lon="9.1799224">
                <ele>121.0</ele>
                <time>2020-08-29T13:22:27.000Z</time>
                <name>Trackpoint 4516</name>
            </trkpt>
            <trkpt lat="49.7473312" lon="9.1798712">
                <ele>121.0</ele>
                <time>2020-08-29T13:22:29.000Z</time>
                <name>Trackpoint 4517</name>
            </trkpt>
            <trkpt lat="49.747424" lon="9.1798248">
                <ele>121.0</ele>
                <time>2020-08-29T13:22:31.000Z</time>
                <name>Trackpoint 4518</name>
            </trkpt>
            <trkpt lat="49.7475232" lon="9.1797896">
                <ele>121.0</ele>
                <time>2020-08-29T13:22:33.000Z</time>
                <name>Trackpoint 4519</name>
            </trkpt>
            <trkpt lat="49.7476224" lon="9.179764">
                <ele>120.0</ele>
                <time>2020-08-29T13:22:35.000Z</time>
                <name>Trackpoint 4520</name>
            </trkpt>
            <trkpt lat="49.747728" lon="9.17974">
                <ele>120.0</ele>
                <time>2020-08-29T13:22:37.000Z</time>
                <name>Trackpoint 4521</name>
            </trkpt>
            <trkpt lat="49.7478304" lon="9.1797112">
                <ele>120.0</ele>
                <time>2020-08-29T13:22:39.000Z</time>
                <name>Trackpoint 4522</name>
            </trkpt>
            <trkpt lat="49.7479264" lon="9.17968">
                <ele>120.0</ele>
                <time>2020-08-29T13:22:41.000Z</time>
                <name>Trackpoint 4523</name>
            </trkpt>
            <trkpt lat="49.7480192" lon="9.1796512">
                <ele>121.0</ele>
                <time>2020-08-29T13:22:43.000Z</time>
                <name>Trackpoint 4524</name>
            </trkpt>
            <trkpt lat="49.7481184" lon="9.179624">
                <ele>121.0</ele>
                <time>2020-08-29T13:22:45.000Z</time>
                <name>Trackpoint 4525</name>
            </trkpt>
            <trkpt lat="49.7482176" lon="9.1795904">
                <ele>121.0</ele>
                <time>2020-08-29T13:22:47.000Z</time>
                <name>Trackpoint 4526</name>
            </trkpt>
            <trkpt lat="49.7483264" lon="9.1795552">
                <ele>121.0</ele>
                <time>2020-08-29T13:22:49.000Z</time>
                <name>Trackpoint 4527</name>
            </trkpt>
            <trkpt lat="49.748432" lon="9.1795216">
                <ele>121.0</ele>
                <time>2020-08-29T13:22:51.000Z</time>
                <name>Trackpoint 4528</name>
            </trkpt>
            <trkpt lat="49.7485472" lon="9.1794856">
                <ele>121.0</ele>
                <time>2020-08-29T13:22:53.000Z</time>
                <name>Trackpoint 4529</name>
            </trkpt>
            <trkpt lat="49.7486528" lon="9.1794432">
                <ele>121.0</ele>
                <time>2020-08-29T13:22:55.000Z</time>
                <name>Trackpoint 4530</name>
            </trkpt>
            <trkpt lat="49.7487712" lon="9.1793872">
                <ele>121.0</ele>
                <time>2020-08-29T13:22:57.000Z</time>
                <name>Trackpoint 4531</name>
            </trkpt>
            <trkpt lat="49.7489056" lon="9.1793416">
                <ele>122.0</ele>
                <time>2020-08-29T13:22:59.000Z</time>
                <name>Trackpoint 4532</name>
            </trkpt>
            <trkpt lat="49.7490304" lon="9.1792984">
                <ele>121.0</ele>
                <time>2020-08-29T13:23:01.000Z</time>
                <name>Trackpoint 4533</name>
            </trkpt>
            <trkpt lat="49.7491648" lon="9.17926">
                <ele>121.0</ele>
                <time>2020-08-29T13:23:03.000Z</time>
                <name>Trackpoint 4534</name>
            </trkpt>
            <trkpt lat="49.7492992" lon="9.1792368">
                <ele>121.0</ele>
                <time>2020-08-29T13:23:05.000Z</time>
                <name>Trackpoint 4535</name>
            </trkpt>
            <trkpt lat="49.7494304" lon="9.1791984">
                <ele>121.0</ele>
                <time>2020-08-29T13:23:07.000Z</time>
                <name>Trackpoint 4536</name>
            </trkpt>
            <trkpt lat="49.7495616" lon="9.17916">
                <ele>121.0</ele>
                <time>2020-08-29T13:23:09.000Z</time>
                <name>Trackpoint 4537</name>
            </trkpt>
            <trkpt lat="49.7496832" lon="9.179116">
                <ele>121.0</ele>
                <time>2020-08-29T13:23:11.000Z</time>
                <name>Trackpoint 4538</name>
            </trkpt>
            <trkpt lat="49.7498048" lon="9.179076">
                <ele>121.0</ele>
                <time>2020-08-29T13:23:13.000Z</time>
                <name>Trackpoint 4539</name>
            </trkpt>
            <trkpt lat="49.7499328" lon="9.1790384">
                <ele>121.0</ele>
                <time>2020-08-29T13:23:15.000Z</time>
                <name>Trackpoint 4540</name>
            </trkpt>
            <trkpt lat="49.7500544" lon="9.1789952">
                <ele>121.0</ele>
                <time>2020-08-29T13:23:17.000Z</time>
                <name>Trackpoint 4541</name>
            </trkpt>
            <trkpt lat="49.7501664" lon="9.1789552">
                <ele>121.0</ele>
                <time>2020-08-29T13:23:19.000Z</time>
                <name>Trackpoint 4542</name>
            </trkpt>
            <trkpt lat="49.7502784" lon="9.1789304">
                <ele>121.0</ele>
                <time>2020-08-29T13:23:21.000Z</time>
                <name>Trackpoint 4543</name>
            </trkpt>
            <trkpt lat="49.750384" lon="9.1789064">
                <ele>121.0</ele>
                <time>2020-08-29T13:23:23.000Z</time>
                <name>Trackpoint 4544</name>
            </trkpt>
            <trkpt lat="49.75048" lon="9.1788752">
                <ele>121.0</ele>
                <time>2020-08-29T13:23:25.000Z</time>
                <name>Trackpoint 4545</name>
            </trkpt>
            <trkpt lat="49.7505984" lon="9.1788584">
                <ele>121.0</ele>
                <time>2020-08-29T13:23:27.000Z</time>
                <name>Trackpoint 4546</name>
            </trkpt>
            <trkpt lat="49.7507296" lon="9.178828">
                <ele>121.0</ele>
                <time>2020-08-29T13:23:29.000Z</time>
                <name>Trackpoint 4547</name>
            </trkpt>
            <trkpt lat="49.7508608" lon="9.1787952">
                <ele>121.0</ele>
                <time>2020-08-29T13:23:31.000Z</time>
                <name>Trackpoint 4548</name>
            </trkpt>
            <trkpt lat="49.7509984" lon="9.1787656">
                <ele>121.0</ele>
                <time>2020-08-29T13:23:33.000Z</time>
                <name>Trackpoint 4549</name>
            </trkpt>
            <trkpt lat="49.7511296" lon="9.1787344">
                <ele>121.0</ele>
                <time>2020-08-29T13:23:35.000Z</time>
                <name>Trackpoint 4550</name>
            </trkpt>
            <trkpt lat="49.751248" lon="9.1787056">
                <ele>121.0</ele>
                <time>2020-08-29T13:23:37.000Z</time>
                <name>Trackpoint 4551</name>
            </trkpt>
            <trkpt lat="49.7513632" lon="9.1786768">
                <ele>122.0</ele>
                <time>2020-08-29T13:23:39.000Z</time>
                <name>Trackpoint 4552</name>
            </trkpt>
            <trkpt lat="49.751472" lon="9.1786448">
                <ele>122.0</ele>
                <time>2020-08-29T13:23:41.000Z</time>
                <name>Trackpoint 4553</name>
            </trkpt>
            <trkpt lat="49.7515744" lon="9.178608">
                <ele>122.0</ele>
                <time>2020-08-29T13:23:43.000Z</time>
                <name>Trackpoint 4554</name>
            </trkpt>
            <trkpt lat="49.7516896" lon="9.178572">
                <ele>121.0</ele>
                <time>2020-08-29T13:23:45.000Z</time>
                <name>Trackpoint 4555</name>
            </trkpt>
            <trkpt lat="49.7517856" lon="9.1785696">
                <ele>122.0</ele>
                <time>2020-08-29T13:23:46.000Z</time>
                <name>Trackpoint 4556</name>
            </trkpt>
            <trkpt lat="49.7519232" lon="9.178548">
                <ele>121.0</ele>
                <time>2020-08-29T13:23:48.000Z</time>
                <name>Trackpoint 4557</name>
            </trkpt>
            <trkpt lat="49.752048" lon="9.1785384">
                <ele>121.0</ele>
                <time>2020-08-29T13:23:50.000Z</time>
                <name>Trackpoint 4558</name>
            </trkpt>
            <trkpt lat="49.7521728" lon="9.1785232">
                <ele>121.0</ele>
                <time>2020-08-29T13:23:52.000Z</time>
                <name>Trackpoint 4559</name>
            </trkpt>
            <trkpt lat="49.752304" lon="9.1785024">
                <ele>121.0</ele>
                <time>2020-08-29T13:23:54.000Z</time>
                <name>Trackpoint 4560</name>
            </trkpt>
            <trkpt lat="49.7524352" lon="9.1784888">
                <ele>121.0</ele>
                <time>2020-08-29T13:23:56.000Z</time>
                <name>Trackpoint 4561</name>
            </trkpt>
            <trkpt lat="49.75256" lon="9.1784736">
                <ele>121.0</ele>
                <time>2020-08-29T13:23:58.000Z</time>
                <name>Trackpoint 4562</name>
            </trkpt>
            <trkpt lat="49.752688" lon="9.1784664">
                <ele>121.0</ele>
                <time>2020-08-29T13:24:00.000Z</time>
                <name>Trackpoint 4563</name>
            </trkpt>
            <trkpt lat="49.7528192" lon="9.17846">
                <ele>120.0</ele>
                <time>2020-08-29T13:24:02.000Z</time>
                <name>Trackpoint 4564</name>
            </trkpt>
            <trkpt lat="49.752944" lon="9.1784424">
                <ele>120.0</ele>
                <time>2020-08-29T13:24:04.000Z</time>
                <name>Trackpoint 4565</name>
            </trkpt>
            <trkpt lat="49.7530656" lon="9.1784136">
                <ele>120.0</ele>
                <time>2020-08-29T13:24:06.000Z</time>
                <name>Trackpoint 4566</name>
            </trkpt>
            <trkpt lat="49.7531904" lon="9.1783784">
                <ele>120.0</ele>
                <time>2020-08-29T13:24:08.000Z</time>
                <name>Trackpoint 4567</name>
            </trkpt>
            <trkpt lat="49.7533184" lon="9.1783448">
                <ele>120.0</ele>
                <time>2020-08-29T13:24:10.000Z</time>
                <name>Trackpoint 4568</name>
            </trkpt>
            <trkpt lat="49.7534432" lon="9.1783168">
                <ele>120.0</ele>
                <time>2020-08-29T13:24:12.000Z</time>
                <name>Trackpoint 4569</name>
            </trkpt>
            <trkpt lat="49.7535776" lon="9.1782976">
                <ele>120.0</ele>
                <time>2020-08-29T13:24:14.000Z</time>
                <name>Trackpoint 4570</name>
            </trkpt>
            <trkpt lat="49.753712" lon="9.1782968">
                <ele>120.0</ele>
                <time>2020-08-29T13:24:16.000Z</time>
                <name>Trackpoint 4571</name>
            </trkpt>
            <trkpt lat="49.753856" lon="9.1782968">
                <ele>120.0</ele>
                <time>2020-08-29T13:24:18.000Z</time>
                <name>Trackpoint 4572</name>
            </trkpt>
            <trkpt lat="49.7540064" lon="9.1783">
                <ele>120.0</ele>
                <time>2020-08-29T13:24:20.000Z</time>
                <name>Trackpoint 4573</name>
            </trkpt>
            <trkpt lat="49.7541504" lon="9.1783">
                <ele>121.0</ele>
                <time>2020-08-29T13:24:22.000Z</time>
                <name>Trackpoint 4574</name>
            </trkpt>
            <trkpt lat="49.7542912" lon="9.1783016">
                <ele>120.0</ele>
                <time>2020-08-29T13:24:24.000Z</time>
                <name>Trackpoint 4575</name>
            </trkpt>
            <trkpt lat="49.7544416" lon="9.178304">
                <ele>120.0</ele>
                <time>2020-08-29T13:24:26.000Z</time>
                <name>Trackpoint 4576</name>
            </trkpt>
            <trkpt lat="49.7545824" lon="9.1783184">
                <ele>120.0</ele>
                <time>2020-08-29T13:24:28.000Z</time>
                <name>Trackpoint 4577</name>
            </trkpt>
            <trkpt lat="49.7547264" lon="9.1783416">
                <ele>120.0</ele>
                <time>2020-08-29T13:24:30.000Z</time>
                <name>Trackpoint 4578</name>
            </trkpt>
            <trkpt lat="49.7548512" lon="9.1783584">
                <ele>120.0</ele>
                <time>2020-08-29T13:24:32.000Z</time>
                <name>Trackpoint 4579</name>
            </trkpt>
            <trkpt lat="49.7549856" lon="9.1783816">
                <ele>120.0</ele>
                <time>2020-08-29T13:24:34.000Z</time>
                <name>Trackpoint 4580</name>
            </trkpt>
            <trkpt lat="49.7551104" lon="9.1784088">
                <ele>120.0</ele>
                <time>2020-08-29T13:24:36.000Z</time>
                <name>Trackpoint 4581</name>
            </trkpt>
            <trkpt lat="49.7552352" lon="9.1784248">
                <ele>120.0</ele>
                <time>2020-08-29T13:24:38.000Z</time>
                <name>Trackpoint 4582</name>
            </trkpt>
            <trkpt lat="49.7553568" lon="9.1784464">
                <ele>120.0</ele>
                <time>2020-08-29T13:24:40.000Z</time>
                <name>Trackpoint 4583</name>
            </trkpt>
            <trkpt lat="49.7554688" lon="9.1784736">
                <ele>120.0</ele>
                <time>2020-08-29T13:24:42.000Z</time>
                <name>Trackpoint 4584</name>
            </trkpt>
            <trkpt lat="49.7556" lon="9.1784984">
                <ele>121.0</ele>
                <time>2020-08-29T13:24:44.000Z</time>
                <name>Trackpoint 4585</name>
            </trkpt>
            <trkpt lat="49.755712" lon="9.1785224">
                <ele>121.0</ele>
                <time>2020-08-29T13:24:46.000Z</time>
                <name>Trackpoint 4586</name>
            </trkpt>
            <trkpt lat="49.7558176" lon="9.1785424">
                <ele>120.0</ele>
                <time>2020-08-29T13:24:48.000Z</time>
                <name>Trackpoint 4587</name>
            </trkpt>
            <trkpt lat="49.7559328" lon="9.178568">
                <ele>121.0</ele>
                <time>2020-08-29T13:24:50.000Z</time>
                <name>Trackpoint 4588</name>
            </trkpt>
            <trkpt lat="49.7560544" lon="9.1785936">
                <ele>121.0</ele>
                <time>2020-08-29T13:24:52.000Z</time>
                <name>Trackpoint 4589</name>
            </trkpt>
            <trkpt lat="49.7561632" lon="9.1786096">
                <ele>121.0</ele>
                <time>2020-08-29T13:24:54.000Z</time>
                <name>Trackpoint 4590</name>
            </trkpt>
            <trkpt lat="49.7562752" lon="9.17862">
                <ele>121.0</ele>
                <time>2020-08-29T13:24:56.000Z</time>
                <name>Trackpoint 4591</name>
            </trkpt>
            <trkpt lat="49.7563776" lon="9.178632">
                <ele>121.0</ele>
                <time>2020-08-29T13:24:58.000Z</time>
                <name>Trackpoint 4592</name>
            </trkpt>
            <trkpt lat="49.7564864" lon="9.1786472">
                <ele>121.0</ele>
                <time>2020-08-29T13:25:00.000Z</time>
                <name>Trackpoint 4593</name>
            </trkpt>
            <trkpt lat="49.7565888" lon="9.1786584">
                <ele>121.0</ele>
                <time>2020-08-29T13:25:02.000Z</time>
                <name>Trackpoint 4594</name>
            </trkpt>
            <trkpt lat="49.756704" lon="9.1786568">
                <ele>121.0</ele>
                <time>2020-08-29T13:25:04.000Z</time>
                <name>Trackpoint 4595</name>
            </trkpt>
            <trkpt lat="49.7567872" lon="9.178568">
                <ele>121.0</ele>
                <time>2020-08-29T13:25:06.000Z</time>
                <name>Trackpoint 4596</name>
            </trkpt>
            <trkpt lat="49.7568256" lon="9.1784584">
                <ele>121.0</ele>
                <time>2020-08-29T13:25:08.000Z</time>
                <name>Trackpoint 4597</name>
            </trkpt>
            <trkpt lat="49.7568576" lon="9.1783704">
                <ele>121.0</ele>
                <time>2020-08-29T13:25:10.000Z</time>
                <name>Trackpoint 4598</name>
            </trkpt>
            <trkpt lat="49.7569184" lon="9.1782848">
                <ele>121.0</ele>
                <time>2020-08-29T13:25:14.000Z</time>
                <name>Trackpoint 4599</name>
            </trkpt>
            <trkpt lat="49.7570144" lon="9.17826">
                <ele>121.0</ele>
                <time>2020-08-29T13:25:50.000Z</time>
                <name>Trackpoint 4600</name>
            </trkpt>
            <trkpt lat="49.757136" lon="9.1782816">
                <ele>121.0</ele>
                <time>2020-08-29T13:25:54.000Z</time>
                <name>Trackpoint 4601</name>
            </trkpt>
            <trkpt lat="49.7572224" lon="9.1783088">
                <ele>121.0</ele>
                <time>2020-08-29T13:25:56.000Z</time>
                <name>Trackpoint 4602</name>
            </trkpt>
            <trkpt lat="49.7573408" lon="9.1783248">
                <ele>121.0</ele>
                <time>2020-08-29T13:25:58.000Z</time>
                <name>Trackpoint 4603</name>
            </trkpt>
            <trkpt lat="49.7574528" lon="9.1783616">
                <ele>121.0</ele>
                <time>2020-08-29T13:26:00.000Z</time>
                <name>Trackpoint 4604</name>
            </trkpt>
            <trkpt lat="49.7575456" lon="9.1783888">
                <ele>121.0</ele>
                <time>2020-08-29T13:26:02.000Z</time>
                <name>Trackpoint 4605</name>
            </trkpt>
            <trkpt lat="49.7576512" lon="9.1784184">
                <ele>121.0</ele>
                <time>2020-08-29T13:26:04.000Z</time>
                <name>Trackpoint 4606</name>
            </trkpt>
            <trkpt lat="49.7577696" lon="9.1784464">
                <ele>121.0</ele>
                <time>2020-08-29T13:26:06.000Z</time>
                <name>Trackpoint 4607</name>
            </trkpt>
            <trkpt lat="49.757856" lon="9.1785">
                <ele>121.0</ele>
                <time>2020-08-29T13:26:07.000Z</time>
                <name>Trackpoint 4608</name>
            </trkpt>
            <trkpt lat="49.7579616" lon="9.1785224">
                <ele>121.0</ele>
                <time>2020-08-29T13:26:09.000Z</time>
                <name>Trackpoint 4609</name>
            </trkpt>
            <trkpt lat="49.7580704" lon="9.1785352">
                <ele>121.0</ele>
                <time>2020-08-29T13:26:11.000Z</time>
                <name>Trackpoint 4610</name>
            </trkpt>
            <trkpt lat="49.7581888" lon="9.17854">
                <ele>121.0</ele>
                <time>2020-08-29T13:26:13.000Z</time>
                <name>Trackpoint 4611</name>
            </trkpt>
            <trkpt lat="49.7583072" lon="9.1785616">
                <ele>120.0</ele>
                <time>2020-08-29T13:26:15.000Z</time>
                <name>Trackpoint 4612</name>
            </trkpt>
            <trkpt lat="49.7584128" lon="9.1785816">
                <ele>120.0</ele>
                <time>2020-08-29T13:26:17.000Z</time>
                <name>Trackpoint 4613</name>
            </trkpt>
            <trkpt lat="49.7585344" lon="9.1785736">
                <ele>121.0</ele>
                <time>2020-08-29T13:26:20.000Z</time>
                <name>Trackpoint 4614</name>
            </trkpt>
            <trkpt lat="49.7586304" lon="9.1786048">
                <ele>121.0</ele>
                <time>2020-08-29T13:26:22.000Z</time>
                <name>Trackpoint 4615</name>
            </trkpt>
            <trkpt lat="49.7587616" lon="9.178648">
                <ele>121.0</ele>
                <time>2020-08-29T13:26:25.000Z</time>
                <name>Trackpoint 4616</name>
            </trkpt>
            <trkpt lat="49.7588288" lon="9.1787096">
                <ele>121.0</ele>
                <time>2020-08-29T13:26:26.000Z</time>
                <name>Trackpoint 4617</name>
            </trkpt>
            <trkpt lat="49.7589408" lon="9.1787656">
                <ele>121.0</ele>
                <time>2020-08-29T13:26:28.000Z</time>
                <name>Trackpoint 4618</name>
            </trkpt>
            <trkpt lat="49.7590592" lon="9.1788104">
                <ele>121.0</ele>
                <time>2020-08-29T13:26:30.000Z</time>
                <name>Trackpoint 4619</name>
            </trkpt>
            <trkpt lat="49.7591776" lon="9.1788504">
                <ele>121.0</ele>
                <time>2020-08-29T13:26:32.000Z</time>
                <name>Trackpoint 4620</name>
            </trkpt>
            <trkpt lat="49.7592896" lon="9.1788928">
                <ele>121.0</ele>
                <time>2020-08-29T13:26:34.000Z</time>
                <name>Trackpoint 4621</name>
            </trkpt>
            <trkpt lat="49.7594112" lon="9.1789368">
                <ele>121.0</ele>
                <time>2020-08-29T13:26:36.000Z</time>
                <name>Trackpoint 4622</name>
            </trkpt>
            <trkpt lat="49.7595328" lon="9.1789728">
                <ele>121.0</ele>
                <time>2020-08-29T13:26:38.000Z</time>
                <name>Trackpoint 4623</name>
            </trkpt>
            <trkpt lat="49.7596544" lon="9.1790088">
                <ele>121.0</ele>
                <time>2020-08-29T13:26:40.000Z</time>
                <name>Trackpoint 4624</name>
            </trkpt>
            <trkpt lat="49.7597664" lon="9.1790464">
                <ele>121.0</ele>
                <time>2020-08-29T13:26:42.000Z</time>
                <name>Trackpoint 4625</name>
            </trkpt>
            <trkpt lat="49.7599104" lon="9.1790536">
                <ele>121.0</ele>
                <time>2020-08-29T13:26:45.000Z</time>
                <name>Trackpoint 4626</name>
            </trkpt>
            <trkpt lat="49.7600352" lon="9.1790752">
                <ele>121.0</ele>
                <time>2020-08-29T13:26:47.000Z</time>
                <name>Trackpoint 4627</name>
            </trkpt>
            <trkpt lat="49.7601632" lon="9.1791216">
                <ele>121.0</ele>
                <time>2020-08-29T13:26:49.000Z</time>
                <name>Trackpoint 4628</name>
            </trkpt>
            <trkpt lat="49.7602944" lon="9.1791736">
                <ele>121.0</ele>
                <time>2020-08-29T13:26:51.000Z</time>
                <name>Trackpoint 4629</name>
            </trkpt>
            <trkpt lat="49.7604416" lon="9.1792272">
                <ele>121.0</ele>
                <time>2020-08-29T13:26:53.000Z</time>
                <name>Trackpoint 4630</name>
            </trkpt>
            <trkpt lat="49.760592" lon="9.1792768">
                <ele>121.0</ele>
                <time>2020-08-29T13:26:55.000Z</time>
                <name>Trackpoint 4631</name>
            </trkpt>
            <trkpt lat="49.7607232" lon="9.179312">
                <ele>121.0</ele>
                <time>2020-08-29T13:26:57.000Z</time>
                <name>Trackpoint 4632</name>
            </trkpt>
            <trkpt lat="49.760864" lon="9.179352">
                <ele>121.0</ele>
                <time>2020-08-29T13:26:59.000Z</time>
                <name>Trackpoint 4633</name>
            </trkpt>
            <trkpt lat="49.761008" lon="9.179392">
                <ele>121.0</ele>
                <time>2020-08-29T13:27:01.000Z</time>
                <name>Trackpoint 4634</name>
            </trkpt>
            <trkpt lat="49.7611616" lon="9.1794432">
                <ele>121.0</ele>
                <time>2020-08-29T13:27:03.000Z</time>
                <name>Trackpoint 4635</name>
            </trkpt>
            <trkpt lat="49.7613184" lon="9.1795032">
                <ele>121.0</ele>
                <time>2020-08-29T13:27:05.000Z</time>
                <name>Trackpoint 4636</name>
            </trkpt>
            <trkpt lat="49.761472" lon="9.179552">
                <ele>121.0</ele>
                <time>2020-08-29T13:27:07.000Z</time>
                <name>Trackpoint 4637</name>
            </trkpt>
            <trkpt lat="49.7616224" lon="9.1795856">
                <ele>121.0</ele>
                <time>2020-08-29T13:27:09.000Z</time>
                <name>Trackpoint 4638</name>
            </trkpt>
            <trkpt lat="49.7617728" lon="9.17962">
                <ele>121.0</ele>
                <time>2020-08-29T13:27:11.000Z</time>
                <name>Trackpoint 4639</name>
            </trkpt>
            <trkpt lat="49.76192" lon="9.1796552">
                <ele>121.0</ele>
                <time>2020-08-29T13:27:13.000Z</time>
                <name>Trackpoint 4640</name>
            </trkpt>
            <trkpt lat="49.762048" lon="9.1796904">
                <ele>121.0</ele>
                <time>2020-08-29T13:27:15.000Z</time>
                <name>Trackpoint 4641</name>
            </trkpt>
            <trkpt lat="49.7621856" lon="9.179724">
                <ele>121.0</ele>
                <time>2020-08-29T13:27:17.000Z</time>
                <name>Trackpoint 4642</name>
            </trkpt>
            <trkpt lat="49.7622976" lon="9.1797448">
                <ele>122.0</ele>
                <time>2020-08-29T13:27:19.000Z</time>
                <name>Trackpoint 4643</name>
            </trkpt>
            <trkpt lat="49.7624128" lon="9.1797704">
                <ele>122.0</ele>
                <time>2020-08-29T13:27:21.000Z</time>
                <name>Trackpoint 4644</name>
            </trkpt>
            <trkpt lat="49.762528" lon="9.1797952">
                <ele>122.0</ele>
                <time>2020-08-29T13:27:23.000Z</time>
                <name>Trackpoint 4645</name>
            </trkpt>
            <trkpt lat="49.7626432" lon="9.1798232">
                <ele>122.0</ele>
                <time>2020-08-29T13:27:25.000Z</time>
                <name>Trackpoint 4646</name>
            </trkpt>
            <trkpt lat="49.762736" lon="9.17986">
                <ele>122.0</ele>
                <time>2020-08-29T13:27:27.000Z</time>
                <name>Trackpoint 4647</name>
            </trkpt>
            <trkpt lat="49.7628288" lon="9.179896">
                <ele>122.0</ele>
                <time>2020-08-29T13:27:29.000Z</time>
                <name>Trackpoint 4648</name>
            </trkpt>
            <trkpt lat="49.7629536" lon="9.179916">
                <ele>122.0</ele>
                <time>2020-08-29T13:27:32.000Z</time>
                <name>Trackpoint 4649</name>
            </trkpt>
            <trkpt lat="49.7630624" lon="9.1799232">
                <ele>122.0</ele>
                <time>2020-08-29T13:27:34.000Z</time>
                <name>Trackpoint 4650</name>
            </trkpt>
            <trkpt lat="49.7631744" lon="9.1799448">
                <ele>122.0</ele>
                <time>2020-08-29T13:27:36.000Z</time>
                <name>Trackpoint 4651</name>
            </trkpt>
            <trkpt lat="49.76328" lon="9.1799696">
                <ele>122.0</ele>
                <time>2020-08-29T13:27:38.000Z</time>
                <name>Trackpoint 4652</name>
            </trkpt>
            <trkpt lat="49.7633856" lon="9.18">
                <ele>122.0</ele>
                <time>2020-08-29T13:27:40.000Z</time>
                <name>Trackpoint 4653</name>
            </trkpt>
            <trkpt lat="49.7635008" lon="9.1800384">
                <ele>122.0</ele>
                <time>2020-08-29T13:27:42.000Z</time>
                <name>Trackpoint 4654</name>
            </trkpt>
            <trkpt lat="49.7636192" lon="9.1800784">
                <ele>122.0</ele>
                <time>2020-08-29T13:27:44.000Z</time>
                <name>Trackpoint 4655</name>
            </trkpt>
            <trkpt lat="49.7637376" lon="9.1801168">
                <ele>122.0</ele>
                <time>2020-08-29T13:27:46.000Z</time>
                <name>Trackpoint 4656</name>
            </trkpt>
            <trkpt lat="49.763856" lon="9.1801592">
                <ele>122.0</ele>
                <time>2020-08-29T13:27:48.000Z</time>
                <name>Trackpoint 4657</name>
            </trkpt>
            <trkpt lat="49.7639648" lon="9.1801864">
                <ele>122.0</ele>
                <time>2020-08-29T13:27:50.000Z</time>
                <name>Trackpoint 4658</name>
            </trkpt>
            <trkpt lat="49.7640928" lon="9.180208">
                <ele>122.0</ele>
                <time>2020-08-29T13:27:52.000Z</time>
                <name>Trackpoint 4659</name>
            </trkpt>
            <trkpt lat="49.7642048" lon="9.1802328">
                <ele>122.0</ele>
                <time>2020-08-29T13:27:54.000Z</time>
                <name>Trackpoint 4660</name>
            </trkpt>
            <trkpt lat="49.7643296" lon="9.1802552">
                <ele>122.0</ele>
                <time>2020-08-29T13:27:56.000Z</time>
                <name>Trackpoint 4661</name>
            </trkpt>
            <trkpt lat="49.7644416" lon="9.1802816">
                <ele>122.0</ele>
                <time>2020-08-29T13:27:58.000Z</time>
                <name>Trackpoint 4662</name>
            </trkpt>
            <trkpt lat="49.7645568" lon="9.1803128">
                <ele>122.0</ele>
                <time>2020-08-29T13:28:00.000Z</time>
                <name>Trackpoint 4663</name>
            </trkpt>
            <trkpt lat="49.7646592" lon="9.1803312">
                <ele>122.0</ele>
                <time>2020-08-29T13:28:02.000Z</time>
                <name>Trackpoint 4664</name>
            </trkpt>
            <trkpt lat="49.7647488" lon="9.18034">
                <ele>122.0</ele>
                <time>2020-08-29T13:28:04.000Z</time>
                <name>Trackpoint 4665</name>
            </trkpt>
            <trkpt lat="49.7648512" lon="9.1803552">
                <ele>122.0</ele>
                <time>2020-08-29T13:28:06.000Z</time>
                <name>Trackpoint 4666</name>
            </trkpt>
            <trkpt lat="49.7649568" lon="9.1803712">
                <ele>122.0</ele>
                <time>2020-08-29T13:28:08.000Z</time>
                <name>Trackpoint 4667</name>
            </trkpt>
            <trkpt lat="49.7650848" lon="9.1803968">
                <ele>122.0</ele>
                <time>2020-08-29T13:28:10.000Z</time>
                <name>Trackpoint 4668</name>
            </trkpt>
            <trkpt lat="49.7651968" lon="9.1804336">
                <ele>122.0</ele>
                <time>2020-08-29T13:28:12.000Z</time>
                <name>Trackpoint 4669</name>
            </trkpt>
            <trkpt lat="49.765312" lon="9.1804552">
                <ele>122.0</ele>
                <time>2020-08-29T13:28:14.000Z</time>
                <name>Trackpoint 4670</name>
            </trkpt>
            <trkpt lat="49.7654272" lon="9.18048">
                <ele>122.0</ele>
                <time>2020-08-29T13:28:16.000Z</time>
                <name>Trackpoint 4671</name>
            </trkpt>
            <trkpt lat="49.7655456" lon="9.1805">
                <ele>122.0</ele>
                <time>2020-08-29T13:28:18.000Z</time>
                <name>Trackpoint 4672</name>
            </trkpt>
            <trkpt lat="49.7656736" lon="9.180536">
                <ele>122.0</ele>
                <time>2020-08-29T13:28:20.000Z</time>
                <name>Trackpoint 4673</name>
            </trkpt>
            <trkpt lat="49.7657952" lon="9.1805648">
                <ele>122.0</ele>
                <time>2020-08-29T13:28:22.000Z</time>
                <name>Trackpoint 4674</name>
            </trkpt>
            <trkpt lat="49.7659296" lon="9.180596">
                <ele>122.0</ele>
                <time>2020-08-29T13:28:24.000Z</time>
                <name>Trackpoint 4675</name>
            </trkpt>
            <trkpt lat="49.7660512" lon="9.1806272">
                <ele>122.0</ele>
                <time>2020-08-29T13:28:26.000Z</time>
                <name>Trackpoint 4676</name>
            </trkpt>
            <trkpt lat="49.7661728" lon="9.1806424">
                <ele>122.0</ele>
                <time>2020-08-29T13:28:28.000Z</time>
                <name>Trackpoint 4677</name>
            </trkpt>
            <trkpt lat="49.766288" lon="9.1806472">
                <ele>123.0</ele>
                <time>2020-08-29T13:28:30.000Z</time>
                <name>Trackpoint 4678</name>
            </trkpt>
            <trkpt lat="49.7663776" lon="9.1806632">
                <ele>123.0</ele>
                <time>2020-08-29T13:28:32.000Z</time>
                <name>Trackpoint 4679</name>
            </trkpt>
            <trkpt lat="49.766496" lon="9.1807496">
                <ele>122.0</ele>
                <time>2020-08-29T13:28:40.000Z</time>
                <name>Trackpoint 4680</name>
            </trkpt>
            <trkpt lat="49.7665632" lon="9.180832">
                <ele>122.0</ele>
                <time>2020-08-29T13:29:09.000Z</time>
                <name>Trackpoint 4681</name>
            </trkpt>
            <trkpt lat="49.7666848" lon="9.1808784">
                <ele>122.0</ele>
                <time>2020-08-29T13:29:14.000Z</time>
                <name>Trackpoint 4682</name>
            </trkpt>
            <trkpt lat="49.7667936" lon="9.1809152">
                <ele>122.0</ele>
                <time>2020-08-29T13:29:17.000Z</time>
                <name>Trackpoint 4683</name>
            </trkpt>
            <trkpt lat="49.7668832" lon="9.1809584">
                <ele>122.0</ele>
                <time>2020-08-29T13:29:20.000Z</time>
                <name>Trackpoint 4684</name>
            </trkpt>
            <trkpt lat="49.7669728" lon="9.1810064">
                <ele>122.0</ele>
                <time>2020-08-29T13:29:23.000Z</time>
                <name>Trackpoint 4685</name>
            </trkpt>
            <trkpt lat="49.7670816" lon="9.181048">
                <ele>122.0</ele>
                <time>2020-08-29T13:29:26.000Z</time>
                <name>Trackpoint 4686</name>
            </trkpt>
            <trkpt lat="49.7671968" lon="9.1810936">
                <ele>122.0</ele>
                <time>2020-08-29T13:29:29.000Z</time>
                <name>Trackpoint 4687</name>
            </trkpt>
            <trkpt lat="49.7673184" lon="9.18116">
                <ele>122.0</ele>
                <time>2020-08-29T13:29:31.000Z</time>
                <name>Trackpoint 4688</name>
            </trkpt>
            <trkpt lat="49.767456" lon="9.1812312">
                <ele>122.0</ele>
                <time>2020-08-29T13:29:33.000Z</time>
                <name>Trackpoint 4689</name>
            </trkpt>
            <trkpt lat="49.7675872" lon="9.1812896">
                <ele>122.0</ele>
                <time>2020-08-29T13:29:35.000Z</time>
                <name>Trackpoint 4690</name>
            </trkpt>
            <trkpt lat="49.7676864" lon="9.181316">
                <ele>122.0</ele>
                <time>2020-08-29T13:29:37.000Z</time>
                <name>Trackpoint 4691</name>
            </trkpt>
            <trkpt lat="49.767792" lon="9.1813536">
                <ele>122.0</ele>
                <time>2020-08-29T13:29:39.000Z</time>
                <name>Trackpoint 4692</name>
            </trkpt>
            <trkpt lat="49.7678944" lon="9.1813984">
                <ele>122.0</ele>
                <time>2020-08-29T13:29:41.000Z</time>
                <name>Trackpoint 4693</name>
            </trkpt>
            <trkpt lat="49.7680192" lon="9.1814344">
                <ele>122.0</ele>
                <time>2020-08-29T13:29:43.000Z</time>
                <name>Trackpoint 4694</name>
            </trkpt>
            <trkpt lat="49.7681344" lon="9.181468">
                <ele>122.0</ele>
                <time>2020-08-29T13:29:45.000Z</time>
                <name>Trackpoint 4695</name>
            </trkpt>
            <trkpt lat="49.7682464" lon="9.1815136">
                <ele>122.0</ele>
                <time>2020-08-29T13:29:47.000Z</time>
                <name>Trackpoint 4696</name>
            </trkpt>
            <trkpt lat="49.768352" lon="9.1815656">
                <ele>122.0</ele>
                <time>2020-08-29T13:29:49.000Z</time>
                <name>Trackpoint 4697</name>
            </trkpt>
            <trkpt lat="49.7684704" lon="9.1815832">
                <ele>122.0</ele>
                <time>2020-08-29T13:29:51.000Z</time>
                <name>Trackpoint 4698</name>
            </trkpt>
            <trkpt lat="49.7685728" lon="9.1816168">
                <ele>122.0</ele>
                <time>2020-08-29T13:29:53.000Z</time>
                <name>Trackpoint 4699</name>
            </trkpt>
            <trkpt lat="49.7686688" lon="9.1816416">
                <ele>122.0</ele>
                <time>2020-08-29T13:29:55.000Z</time>
                <name>Trackpoint 4700</name>
            </trkpt>
            <trkpt lat="49.7687648" lon="9.1816656">
                <ele>122.0</ele>
                <time>2020-08-29T13:29:57.000Z</time>
                <name>Trackpoint 4701</name>
            </trkpt>
            <trkpt lat="49.768864" lon="9.1816984">
                <ele>122.0</ele>
                <time>2020-08-29T13:29:59.000Z</time>
                <name>Trackpoint 4702</name>
            </trkpt>
            <trkpt lat="49.76896" lon="9.1817248">
                <ele>123.0</ele>
                <time>2020-08-29T13:30:01.000Z</time>
                <name>Trackpoint 4703</name>
            </trkpt>
            <trkpt lat="49.7690624" lon="9.1817568">
                <ele>123.0</ele>
                <time>2020-08-29T13:30:03.000Z</time>
                <name>Trackpoint 4704</name>
            </trkpt>
            <trkpt lat="49.7691616" lon="9.1817648">
                <ele>123.0</ele>
                <time>2020-08-29T13:30:05.000Z</time>
                <name>Trackpoint 4705</name>
            </trkpt>
            <trkpt lat="49.769264" lon="9.1817888">
                <ele>123.0</ele>
                <time>2020-08-29T13:30:07.000Z</time>
                <name>Trackpoint 4706</name>
            </trkpt>
            <trkpt lat="49.769376" lon="9.1818112">
                <ele>123.0</ele>
                <time>2020-08-29T13:30:09.000Z</time>
                <name>Trackpoint 4707</name>
            </trkpt>
            <trkpt lat="49.7694816" lon="9.1818368">
                <ele>123.0</ele>
                <time>2020-08-29T13:30:11.000Z</time>
                <name>Trackpoint 4708</name>
            </trkpt>
            <trkpt lat="49.7696" lon="9.1818752">
                <ele>123.0</ele>
                <time>2020-08-29T13:30:13.000Z</time>
                <name>Trackpoint 4709</name>
            </trkpt>
            <trkpt lat="49.7697184" lon="9.1819296">
                <ele>123.0</ele>
                <time>2020-08-29T13:30:15.000Z</time>
                <name>Trackpoint 4710</name>
            </trkpt>
            <trkpt lat="49.7698368" lon="9.18198">
                <ele>123.0</ele>
                <time>2020-08-29T13:30:17.000Z</time>
                <name>Trackpoint 4711</name>
            </trkpt>
            <trkpt lat="49.7699552" lon="9.1820336">
                <ele>123.0</ele>
                <time>2020-08-29T13:30:19.000Z</time>
                <name>Trackpoint 4712</name>
            </trkpt>
            <trkpt lat="49.7700768" lon="9.1820848">
                <ele>123.0</ele>
                <time>2020-08-29T13:30:21.000Z</time>
                <name>Trackpoint 4713</name>
            </trkpt>
            <trkpt lat="49.770192" lon="9.1821216">
                <ele>123.0</ele>
                <time>2020-08-29T13:30:23.000Z</time>
                <name>Trackpoint 4714</name>
            </trkpt>
            <trkpt lat="49.7703136" lon="9.1821584">
                <ele>123.0</ele>
                <time>2020-08-29T13:30:25.000Z</time>
                <name>Trackpoint 4715</name>
            </trkpt>
            <trkpt lat="49.7704288" lon="9.182192">
                <ele>123.0</ele>
                <time>2020-08-29T13:30:27.000Z</time>
                <name>Trackpoint 4716</name>
            </trkpt>
            <trkpt lat="49.7705504" lon="9.1822232">
                <ele>123.0</ele>
                <time>2020-08-29T13:30:29.000Z</time>
                <name>Trackpoint 4717</name>
            </trkpt>
            <trkpt lat="49.770672" lon="9.182268">
                <ele>123.0</ele>
                <time>2020-08-29T13:30:31.000Z</time>
                <name>Trackpoint 4718</name>
            </trkpt>
            <trkpt lat="49.7707936" lon="9.1823432">
                <ele>123.0</ele>
                <time>2020-08-29T13:30:33.000Z</time>
                <name>Trackpoint 4719</name>
            </trkpt>
            <trkpt lat="49.7709088" lon="9.18242">
                <ele>123.0</ele>
                <time>2020-08-29T13:30:35.000Z</time>
                <name>Trackpoint 4720</name>
            </trkpt>
            <trkpt lat="49.771024" lon="9.1824552">
                <ele>123.0</ele>
                <time>2020-08-29T13:30:37.000Z</time>
                <name>Trackpoint 4721</name>
            </trkpt>
            <trkpt lat="49.7711296" lon="9.1824848">
                <ele>123.0</ele>
                <time>2020-08-29T13:30:39.000Z</time>
                <name>Trackpoint 4722</name>
            </trkpt>
            <trkpt lat="49.7712416" lon="9.1825264">
                <ele>123.0</ele>
                <time>2020-08-29T13:30:41.000Z</time>
                <name>Trackpoint 4723</name>
            </trkpt>
            <trkpt lat="49.7713824" lon="9.1825752">
                <ele>123.0</ele>
                <time>2020-08-29T13:30:44.000Z</time>
                <name>Trackpoint 4724</name>
            </trkpt>
            <trkpt lat="49.771488" lon="9.1826096">
                <ele>123.0</ele>
                <time>2020-08-29T13:30:46.000Z</time>
                <name>Trackpoint 4725</name>
            </trkpt>
            <trkpt lat="49.7716064" lon="9.1826432">
                <ele>123.0</ele>
                <time>2020-08-29T13:30:48.000Z</time>
                <name>Trackpoint 4726</name>
            </trkpt>
            <trkpt lat="49.771728" lon="9.1826832">
                <ele>123.0</ele>
                <time>2020-08-29T13:30:50.000Z</time>
                <name>Trackpoint 4727</name>
            </trkpt>
            <trkpt lat="49.7718368" lon="9.182736">
                <ele>123.0</ele>
                <time>2020-08-29T13:30:52.000Z</time>
                <name>Trackpoint 4728</name>
            </trkpt>
            <trkpt lat="49.7719712" lon="9.1827944">
                <ele>123.0</ele>
                <time>2020-08-29T13:30:54.000Z</time>
                <name>Trackpoint 4729</name>
            </trkpt>
            <trkpt lat="49.7721088" lon="9.1828568">
                <ele>123.0</ele>
                <time>2020-08-29T13:30:56.000Z</time>
                <name>Trackpoint 4730</name>
            </trkpt>
            <trkpt lat="49.7722432" lon="9.1828896">
                <ele>123.0</ele>
                <time>2020-08-29T13:30:58.000Z</time>
                <name>Trackpoint 4731</name>
            </trkpt>
            <trkpt lat="49.7723648" lon="9.182928">
                <ele>123.0</ele>
                <time>2020-08-29T13:31:00.000Z</time>
                <name>Trackpoint 4732</name>
            </trkpt>
            <trkpt lat="49.7724864" lon="9.1829616">
                <ele>123.0</ele>
                <time>2020-08-29T13:31:02.000Z</time>
                <name>Trackpoint 4733</name>
            </trkpt>
            <trkpt lat="49.7726048" lon="9.1829984">
                <ele>123.0</ele>
                <time>2020-08-29T13:31:04.000Z</time>
                <name>Trackpoint 4734</name>
            </trkpt>
            <trkpt lat="49.7727232" lon="9.1830352">
                <ele>123.0</ele>
                <time>2020-08-29T13:31:06.000Z</time>
                <name>Trackpoint 4735</name>
            </trkpt>
            <trkpt lat="49.7728448" lon="9.1830656">
                <ele>123.0</ele>
                <time>2020-08-29T13:31:08.000Z</time>
                <name>Trackpoint 4736</name>
            </trkpt>
            <trkpt lat="49.7729696" lon="9.1830856">
                <ele>123.0</ele>
                <time>2020-08-29T13:31:10.000Z</time>
                <name>Trackpoint 4737</name>
            </trkpt>
            <trkpt lat="49.7730912" lon="9.183108">
                <ele>123.0</ele>
                <time>2020-08-29T13:31:12.000Z</time>
                <name>Trackpoint 4738</name>
            </trkpt>
            <trkpt lat="49.7732064" lon="9.1831352">
                <ele>123.0</ele>
                <time>2020-08-29T13:31:14.000Z</time>
                <name>Trackpoint 4739</name>
            </trkpt>
            <trkpt lat="49.773312" lon="9.1831568">
                <ele>123.0</ele>
                <time>2020-08-29T13:31:16.000Z</time>
                <name>Trackpoint 4740</name>
            </trkpt>
            <trkpt lat="49.7734272" lon="9.1831776">
                <ele>123.0</ele>
                <time>2020-08-29T13:31:18.000Z</time>
                <name>Trackpoint 4741</name>
            </trkpt>
            <trkpt lat="49.773536" lon="9.1831952">
                <ele>123.0</ele>
                <time>2020-08-29T13:31:20.000Z</time>
                <name>Trackpoint 4742</name>
            </trkpt>
            <trkpt lat="49.7736544" lon="9.1832152">
                <ele>123.0</ele>
                <time>2020-08-29T13:31:22.000Z</time>
                <name>Trackpoint 4743</name>
            </trkpt>
            <trkpt lat="49.7737824" lon="9.1832064">
                <ele>123.0</ele>
                <time>2020-08-29T13:31:24.000Z</time>
                <name>Trackpoint 4744</name>
            </trkpt>
            <trkpt lat="49.773904" lon="9.183224">
                <ele>123.0</ele>
                <time>2020-08-29T13:31:26.000Z</time>
                <name>Trackpoint 4745</name>
            </trkpt>
            <trkpt lat="49.7740256" lon="9.1832336">
                <ele>123.0</ele>
                <time>2020-08-29T13:31:28.000Z</time>
                <name>Trackpoint 4746</name>
            </trkpt>
            <trkpt lat="49.7741312" lon="9.18324">
                <ele>123.0</ele>
                <time>2020-08-29T13:31:30.000Z</time>
                <name>Trackpoint 4747</name>
            </trkpt>
            <trkpt lat="49.7742304" lon="9.1832368">
                <ele>123.0</ele>
                <time>2020-08-29T13:31:32.000Z</time>
                <name>Trackpoint 4748</name>
            </trkpt>
            <trkpt lat="49.7743296" lon="9.1832488">
                <ele>123.0</ele>
                <time>2020-08-29T13:31:34.000Z</time>
                <name>Trackpoint 4749</name>
            </trkpt>
            <trkpt lat="49.774432" lon="9.1832712">
                <ele>123.0</ele>
                <time>2020-08-29T13:31:36.000Z</time>
                <name>Trackpoint 4750</name>
            </trkpt>
            <trkpt lat="49.7745408" lon="9.1832864">
                <ele>123.0</ele>
                <time>2020-08-29T13:31:38.000Z</time>
                <name>Trackpoint 4751</name>
            </trkpt>
            <trkpt lat="49.7746464" lon="9.1833152">
                <ele>123.0</ele>
                <time>2020-08-29T13:31:40.000Z</time>
                <name>Trackpoint 4752</name>
            </trkpt>
            <trkpt lat="49.7747648" lon="9.1833264">
                <ele>123.0</ele>
                <time>2020-08-29T13:31:42.000Z</time>
                <name>Trackpoint 4753</name>
            </trkpt>
            <trkpt lat="49.7748608" lon="9.18332">
                <ele>123.0</ele>
                <time>2020-08-29T13:31:44.000Z</time>
                <name>Trackpoint 4754</name>
            </trkpt>
            <trkpt lat="49.7749632" lon="9.1832896">
                <ele>123.0</ele>
                <time>2020-08-29T13:31:47.000Z</time>
                <name>Trackpoint 4755</name>
            </trkpt>
            <trkpt lat="49.7750624" lon="9.1832784">
                <ele>123.0</ele>
                <time>2020-08-29T13:31:50.000Z</time>
                <name>Trackpoint 4756</name>
            </trkpt>
            <trkpt lat="49.775184" lon="9.1832896">
                <ele>123.0</ele>
                <time>2020-08-29T13:31:53.000Z</time>
                <name>Trackpoint 4757</name>
            </trkpt>
            <trkpt lat="49.77528" lon="9.183284">
                <ele>124.0</ele>
                <time>2020-08-29T13:31:55.000Z</time>
                <name>Trackpoint 4758</name>
            </trkpt>
            <trkpt lat="49.7753792" lon="9.18328">
                <ele>124.0</ele>
                <time>2020-08-29T13:31:57.000Z</time>
                <name>Trackpoint 4759</name>
            </trkpt>
            <trkpt lat="49.7754784" lon="9.1832784">
                <ele>124.0</ele>
                <time>2020-08-29T13:31:59.000Z</time>
                <name>Trackpoint 4760</name>
            </trkpt>
            <trkpt lat="49.775584" lon="9.1832752">
                <ele>124.0</ele>
                <time>2020-08-29T13:32:01.000Z</time>
                <name>Trackpoint 4761</name>
            </trkpt>
            <trkpt lat="49.7756832" lon="9.1832664">
                <ele>124.0</ele>
                <time>2020-08-29T13:32:03.000Z</time>
                <name>Trackpoint 4762</name>
            </trkpt>
            <trkpt lat="49.7757792" lon="9.1832512">
                <ele>124.0</ele>
                <time>2020-08-29T13:32:05.000Z</time>
                <name>Trackpoint 4763</name>
            </trkpt>
            <trkpt lat="49.7758816" lon="9.183244">
                <ele>124.0</ele>
                <time>2020-08-29T13:32:07.000Z</time>
                <name>Trackpoint 4764</name>
            </trkpt>
            <trkpt lat="49.7759872" lon="9.1832168">
                <ele>124.0</ele>
                <time>2020-08-29T13:32:09.000Z</time>
                <name>Trackpoint 4765</name>
            </trkpt>
            <trkpt lat="49.7760864" lon="9.1831864">
                <ele>124.0</ele>
                <time>2020-08-29T13:32:11.000Z</time>
                <name>Trackpoint 4766</name>
            </trkpt>
            <trkpt lat="49.776192" lon="9.1831576">
                <ele>124.0</ele>
                <time>2020-08-29T13:32:13.000Z</time>
                <name>Trackpoint 4767</name>
            </trkpt>
            <trkpt lat="49.7762976" lon="9.1831352">
                <ele>124.0</ele>
                <time>2020-08-29T13:32:15.000Z</time>
                <name>Trackpoint 4768</name>
            </trkpt>
            <trkpt lat="49.7764" lon="9.1831128">
                <ele>124.0</ele>
                <time>2020-08-29T13:32:17.000Z</time>
                <name>Trackpoint 4769</name>
            </trkpt>
            <trkpt lat="49.7764992" lon="9.1830928">
                <ele>124.0</ele>
                <time>2020-08-29T13:32:19.000Z</time>
                <name>Trackpoint 4770</name>
            </trkpt>
            <trkpt lat="49.7766048" lon="9.1830656">
                <ele>124.0</ele>
                <time>2020-08-29T13:32:21.000Z</time>
                <name>Trackpoint 4771</name>
            </trkpt>
            <trkpt lat="49.7767232" lon="9.1830416">
                <ele>124.0</ele>
                <time>2020-08-29T13:32:23.000Z</time>
                <name>Trackpoint 4772</name>
            </trkpt>
            <trkpt lat="49.7768352" lon="9.1830152">
                <ele>124.0</ele>
                <time>2020-08-29T13:32:25.000Z</time>
                <name>Trackpoint 4773</name>
            </trkpt>
            <trkpt lat="49.7769504" lon="9.1829832">
                <ele>124.0</ele>
                <time>2020-08-29T13:32:27.000Z</time>
                <name>Trackpoint 4774</name>
            </trkpt>
            <trkpt lat="49.7770592" lon="9.182952">
                <ele>124.0</ele>
                <time>2020-08-29T13:32:29.000Z</time>
                <name>Trackpoint 4775</name>
            </trkpt>
            <trkpt lat="49.777168" lon="9.1829232">
                <ele>124.0</ele>
                <time>2020-08-29T13:32:31.000Z</time>
                <name>Trackpoint 4776</name>
            </trkpt>
            <trkpt lat="49.7772704" lon="9.1828944">
                <ele>124.0</ele>
                <time>2020-08-29T13:32:33.000Z</time>
                <name>Trackpoint 4777</name>
            </trkpt>
            <trkpt lat="49.7773632" lon="9.1828696">
                <ele>124.0</ele>
                <time>2020-08-29T13:32:35.000Z</time>
                <name>Trackpoint 4778</name>
            </trkpt>
            <trkpt lat="49.7774592" lon="9.1828432">
                <ele>124.0</ele>
                <time>2020-08-29T13:32:37.000Z</time>
                <name>Trackpoint 4779</name>
            </trkpt>
            <trkpt lat="49.7775648" lon="9.1828384">
                <ele>124.0</ele>
                <time>2020-08-29T13:32:39.000Z</time>
                <name>Trackpoint 4780</name>
            </trkpt>
            <trkpt lat="49.777664" lon="9.1828584">
                <ele>124.0</ele>
                <time>2020-08-29T13:32:41.000Z</time>
                <name>Trackpoint 4781</name>
            </trkpt>
            <trkpt lat="49.7777696" lon="9.1829016">
                <ele>124.0</ele>
                <time>2020-08-29T13:32:43.000Z</time>
                <name>Trackpoint 4782</name>
            </trkpt>
            <trkpt lat="49.7778816" lon="9.1829632">
                <ele>124.0</ele>
                <time>2020-08-29T13:32:45.000Z</time>
                <name>Trackpoint 4783</name>
            </trkpt>
            <trkpt lat="49.7779808" lon="9.1829968">
                <ele>124.0</ele>
                <time>2020-08-29T13:32:47.000Z</time>
                <name>Trackpoint 4784</name>
            </trkpt>
            <trkpt lat="49.7780768" lon="9.1830264">
                <ele>125.0</ele>
                <time>2020-08-29T13:32:49.000Z</time>
                <name>Trackpoint 4785</name>
            </trkpt>
            <trkpt lat="49.7781824" lon="9.18304">
                <ele>125.0</ele>
                <time>2020-08-29T13:32:51.000Z</time>
                <name>Trackpoint 4786</name>
            </trkpt>
            <trkpt lat="49.7782784" lon="9.1830256">
                <ele>125.0</ele>
                <time>2020-08-29T13:32:53.000Z</time>
                <name>Trackpoint 4787</name>
            </trkpt>
            <trkpt lat="49.7783808" lon="9.1830032">
                <ele>125.0</ele>
                <time>2020-08-29T13:32:55.000Z</time>
                <name>Trackpoint 4788</name>
            </trkpt>
            <trkpt lat="49.77848" lon="9.1829856">
                <ele>125.0</ele>
                <time>2020-08-29T13:32:57.000Z</time>
                <name>Trackpoint 4789</name>
            </trkpt>
            <trkpt lat="49.7785728" lon="9.1829504">
                <ele>125.0</ele>
                <time>2020-08-29T13:32:59.000Z</time>
                <name>Trackpoint 4790</name>
            </trkpt>
            <trkpt lat="49.7786688" lon="9.1829216">
                <ele>125.0</ele>
                <time>2020-08-29T13:33:01.000Z</time>
                <name>Trackpoint 4791</name>
            </trkpt>
            <trkpt lat="49.7787616" lon="9.1828936">
                <ele>125.0</ele>
                <time>2020-08-29T13:33:03.000Z</time>
                <name>Trackpoint 4792</name>
            </trkpt>
            <trkpt lat="49.7788576" lon="9.1828768">
                <ele>125.0</ele>
                <time>2020-08-29T13:33:05.000Z</time>
                <name>Trackpoint 4793</name>
            </trkpt>
            <trkpt lat="49.7789504" lon="9.1828432">
                <ele>125.0</ele>
                <time>2020-08-29T13:33:07.000Z</time>
                <name>Trackpoint 4794</name>
            </trkpt>
            <trkpt lat="49.7790368" lon="9.182792">
                <ele>125.0</ele>
                <time>2020-08-29T13:33:09.000Z</time>
                <name>Trackpoint 4795</name>
            </trkpt>
            <trkpt lat="49.77912" lon="9.1827352">
                <ele>125.0</ele>
                <time>2020-08-29T13:33:11.000Z</time>
                <name>Trackpoint 4796</name>
            </trkpt>
            <trkpt lat="49.7792" lon="9.1826896">
                <ele>125.0</ele>
                <time>2020-08-29T13:33:13.000Z</time>
                <name>Trackpoint 4797</name>
            </trkpt>
            <trkpt lat="49.7792736" lon="9.1826336">
                <ele>125.0</ele>
                <time>2020-08-29T13:33:15.000Z</time>
                <name>Trackpoint 4798</name>
            </trkpt>
            <trkpt lat="49.7793696" lon="9.1825416">
                <ele>125.0</ele>
                <time>2020-08-29T13:33:18.000Z</time>
                <name>Trackpoint 4799</name>
            </trkpt>
            <trkpt lat="49.7794432" lon="9.182464">
                <ele>125.0</ele>
                <time>2020-08-29T13:33:20.000Z</time>
                <name>Trackpoint 4800</name>
            </trkpt>
            <trkpt lat="49.7795136" lon="9.1824016">
                <ele>126.0</ele>
                <time>2020-08-29T13:33:22.000Z</time>
                <name>Trackpoint 4801</name>
            </trkpt>
            <trkpt lat="49.7795968" lon="9.1823352">
                <ele>126.0</ele>
                <time>2020-08-29T13:33:24.000Z</time>
                <name>Trackpoint 4802</name>
            </trkpt>
            <trkpt lat="49.7796768" lon="9.1822752">
                <ele>126.0</ele>
                <time>2020-08-29T13:33:26.000Z</time>
                <name>Trackpoint 4803</name>
            </trkpt>
            <trkpt lat="49.7797504" lon="9.1822032">
                <ele>126.0</ele>
                <time>2020-08-29T13:33:29.000Z</time>
                <name>Trackpoint 4804</name>
            </trkpt>
            <trkpt lat="49.7798432" lon="9.182228">
                <ele>126.0</ele>
                <time>2020-08-29T13:33:45.000Z</time>
                <name>Trackpoint 4805</name>
            </trkpt>
            <trkpt lat="49.7799392" lon="9.1822656">
                <ele>125.0</ele>
                <time>2020-08-29T13:34:03.000Z</time>
                <name>Trackpoint 4806</name>
            </trkpt>
            <trkpt lat="49.779888" lon="9.1821808">
                <ele>125.0</ele>
                <time>2020-08-29T13:34:11.000Z</time>
                <name>Trackpoint 4807</name>
            </trkpt>
            <trkpt lat="49.7797888" lon="9.1821168">
                <ele>125.0</ele>
                <time>2020-08-29T13:34:16.000Z</time>
                <name>Trackpoint 4808</name>
            </trkpt>
            <trkpt lat="49.7797344" lon="9.18202">
                <ele>125.0</ele>
                <time>2020-08-29T13:34:20.000Z</time>
                <name>Trackpoint 4809</name>
            </trkpt>
            <trkpt lat="49.7797952" lon="9.1819488">
                <ele>125.0</ele>
                <time>2020-08-29T13:34:28.000Z</time>
                <name>Trackpoint 4810</name>
            </trkpt>
            <trkpt lat="49.7799136" lon="9.1819336">
                <ele>125.0</ele>
                <time>2020-08-29T13:34:32.000Z</time>
                <name>Trackpoint 4811</name>
            </trkpt>
            <trkpt lat="49.7800064" lon="9.1818784">
                <ele>125.0</ele>
                <time>2020-08-29T13:34:35.000Z</time>
                <name>Trackpoint 4812</name>
            </trkpt>
            <trkpt lat="49.780112" lon="9.18182">
                <ele>125.0</ele>
                <time>2020-08-29T13:34:38.000Z</time>
                <name>Trackpoint 4813</name>
            </trkpt>
            <trkpt lat="49.7802176" lon="9.1817416">
                <ele>125.0</ele>
                <time>2020-08-29T13:34:41.000Z</time>
                <name>Trackpoint 4814</name>
            </trkpt>
            <trkpt lat="49.7803008" lon="9.18168">
                <ele>125.0</ele>
                <time>2020-08-29T13:34:43.000Z</time>
                <name>Trackpoint 4815</name>
            </trkpt>
            <trkpt lat="49.7804064" lon="9.1816304">
                <ele>125.0</ele>
                <time>2020-08-29T13:34:45.000Z</time>
                <name>Trackpoint 4816</name>
            </trkpt>
            <trkpt lat="49.7804992" lon="9.1815752">
                <ele>125.0</ele>
                <time>2020-08-29T13:34:47.000Z</time>
                <name>Trackpoint 4817</name>
            </trkpt>
            <trkpt lat="49.7805824" lon="9.1815056">
                <ele>125.0</ele>
                <time>2020-08-29T13:34:49.000Z</time>
                <name>Trackpoint 4818</name>
            </trkpt>
            <trkpt lat="49.780656" lon="9.1814232">
                <ele>125.0</ele>
                <time>2020-08-29T13:34:51.000Z</time>
                <name>Trackpoint 4819</name>
            </trkpt>
            <trkpt lat="49.78072" lon="9.1813472">
                <ele>125.0</ele>
                <time>2020-08-29T13:34:53.000Z</time>
                <name>Trackpoint 4820</name>
            </trkpt>
            <trkpt lat="49.780784" lon="9.1812752">
                <ele>126.0</ele>
                <time>2020-08-29T13:34:56.000Z</time>
                <name>Trackpoint 4821</name>
            </trkpt>
            <trkpt lat="49.7808672" lon="9.1812">
                <ele>126.0</ele>
                <time>2020-08-29T13:35:49.000Z</time>
                <name>Trackpoint 4822</name>
            </trkpt>
            <trkpt lat="49.7809568" lon="9.18114">
                <ele>126.0</ele>
                <time>2020-08-29T13:35:52.000Z</time>
                <name>Trackpoint 4823</name>
            </trkpt>
            <trkpt lat="49.7810528" lon="9.1810416">
                <ele>126.0</ele>
                <time>2020-08-29T13:35:55.000Z</time>
                <name>Trackpoint 4824</name>
            </trkpt>
            <trkpt lat="49.78112" lon="9.1809728">
                <ele>126.0</ele>
                <time>2020-08-29T13:35:57.000Z</time>
                <name>Trackpoint 4825</name>
            </trkpt>
            <trkpt lat="49.781184" lon="9.1809032">
                <ele>126.0</ele>
                <time>2020-08-29T13:35:59.000Z</time>
                <name>Trackpoint 4826</name>
            </trkpt>
            <trkpt lat="49.7812896" lon="9.180812">
                <ele>126.0</ele>
                <time>2020-08-29T13:36:01.000Z</time>
                <name>Trackpoint 4827</name>
            </trkpt>
            <trkpt lat="49.7813696" lon="9.1807472">
                <ele>126.0</ele>
                <time>2020-08-29T13:36:03.000Z</time>
                <name>Trackpoint 4828</name>
            </trkpt>
            <trkpt lat="49.781456" lon="9.1806896">
                <ele>126.0</ele>
                <time>2020-08-29T13:36:05.000Z</time>
                <name>Trackpoint 4829</name>
            </trkpt>
            <trkpt lat="49.781536" lon="9.18062">
                <ele>126.0</ele>
                <time>2020-08-29T13:36:07.000Z</time>
                <name>Trackpoint 4830</name>
            </trkpt>
            <trkpt lat="49.781616" lon="9.1805552">
                <ele>126.0</ele>
                <time>2020-08-29T13:36:09.000Z</time>
                <name>Trackpoint 4831</name>
            </trkpt>
            <trkpt lat="49.781712" lon="9.1804664">
                <ele>126.0</ele>
                <time>2020-08-29T13:36:12.000Z</time>
                <name>Trackpoint 4832</name>
            </trkpt>
            <trkpt lat="49.7818016" lon="9.1803776">
                <ele>126.0</ele>
                <time>2020-08-29T13:36:15.000Z</time>
                <name>Trackpoint 4833</name>
            </trkpt>
            <trkpt lat="49.7818752" lon="9.18032">
                <ele>126.0</ele>
                <time>2020-08-29T13:36:17.000Z</time>
                <name>Trackpoint 4834</name>
            </trkpt>
            <trkpt lat="49.7819776" lon="9.1802416">
                <ele>126.0</ele>
                <time>2020-08-29T13:36:20.000Z</time>
                <name>Trackpoint 4835</name>
            </trkpt>
            <trkpt lat="49.7820096" lon="9.1801528">
                <ele>126.0</ele>
                <time>2020-08-29T13:38:34.000Z</time>
                <name>Trackpoint 4840</name>
            </trkpt>
            <trkpt lat="49.7820864" lon="9.1800296">
                <ele>126.0</ele>
                <time>2020-08-29T13:38:36.000Z</time>
                <name>Trackpoint 4841</name>
            </trkpt>
            <trkpt lat="49.7821696" lon="9.1798712">
                <ele>126.0</ele>
                <time>2020-08-29T13:38:38.000Z</time>
                <name>Trackpoint 4842</name>
            </trkpt>
            <trkpt lat="49.7822176" lon="9.1797848">
                <ele>126.0</ele>
                <time>2020-08-29T13:38:39.000Z</time>
                <name>Trackpoint 4843</name>
            </trkpt>
            <trkpt lat="49.7822656" lon="9.179704">
                <ele>126.0</ele>
                <time>2020-08-29T13:38:40.000Z</time>
                <name>Trackpoint 4844</name>
            </trkpt>
            <trkpt lat="49.782368" lon="9.1795968">
                <ele>126.0</ele>
                <time>2020-08-29T13:38:42.000Z</time>
                <name>Trackpoint 4845</name>
            </trkpt>
            <trkpt lat="49.7824512" lon="9.179468">
                <ele>126.0</ele>
                <time>2020-08-29T13:38:44.000Z</time>
                <name>Trackpoint 4846</name>
            </trkpt>
            <trkpt lat="49.7825248" lon="9.1793448">
                <ele>126.0</ele>
                <time>2020-08-29T13:38:46.000Z</time>
                <name>Trackpoint 4847</name>
            </trkpt>
            <trkpt lat="49.7825952" lon="9.1792568">
                <ele>126.0</ele>
                <time>2020-08-29T13:38:48.000Z</time>
                <name>Trackpoint 4848</name>
            </trkpt>
            <trkpt lat="49.7826592" lon="9.17918">
                <ele>126.0</ele>
                <time>2020-08-29T13:38:50.000Z</time>
                <name>Trackpoint 4849</name>
            </trkpt>
            <trkpt lat="49.7827264" lon="9.1791112">
                <ele>126.0</ele>
                <time>2020-08-29T13:38:53.000Z</time>
                <name>Trackpoint 4850</name>
            </trkpt>
            <trkpt lat="49.782752" lon="9.1792096">
                <ele>126.0</ele>
                <time>2020-08-29T13:38:58.000Z</time>
                <name>Trackpoint 4851</name>
            </trkpt>
            <trkpt lat="49.7827232" lon="9.1792968">
                <ele>126.0</ele>
                <time>2020-08-29T13:39:00.000Z</time>
                <name>Trackpoint 4852</name>
            </trkpt>
            <trkpt lat="49.782688" lon="9.1794264">
                <ele>126.0</ele>
                <time>2020-08-29T13:39:03.000Z</time>
                <name>Trackpoint 4853</name>
            </trkpt>
            <trkpt lat="49.7826496" lon="9.1795104">
                <ele>126.0</ele>
                <time>2020-08-29T13:39:05.000Z</time>
                <name>Trackpoint 4854</name>
            </trkpt>
            <trkpt lat="49.7826112" lon="9.1795968">
                <ele>126.0</ele>
                <time>2020-08-29T13:39:07.000Z</time>
                <name>Trackpoint 4855</name>
            </trkpt>
            <trkpt lat="49.7825696" lon="9.179724">
                <ele>126.0</ele>
                <time>2020-08-29T13:39:10.000Z</time>
                <name>Trackpoint 4856</name>
            </trkpt>
            <trkpt lat="49.7825216" lon="9.1798296">
                <ele>126.0</ele>
                <time>2020-08-29T13:39:13.000Z</time>
                <name>Trackpoint 4857</name>
            </trkpt>
            <trkpt lat="49.7824768" lon="9.1799288">
                <ele>126.0</ele>
                <time>2020-08-29T13:39:16.000Z</time>
                <name>Trackpoint 4858</name>
            </trkpt>
            <trkpt lat="49.7823936" lon="9.1799816">
                <ele>126.0</ele>
                <time>2020-08-29T13:39:20.000Z</time>
                <name>Trackpoint 4859</name>
            </trkpt>
            <trkpt lat="49.782304" lon="9.1799584">
                <ele>126.0</ele>
                <time>2020-08-29T13:39:29.000Z</time>
                <name>Trackpoint 4860</name>
            </trkpt>
            <trkpt lat="49.7822304" lon="9.1798688">
                <ele>126.0</ele>
                <time>2020-08-29T13:40:38.000Z</time>
                <name>Trackpoint 4861</name>
            </trkpt>
            <trkpt lat="49.782176" lon="9.179764">
                <ele>127.0</ele>
                <time>2020-08-29T13:40:41.000Z</time>
                <name>Trackpoint 4862</name>
            </trkpt>
            <trkpt lat="49.7821312" lon="9.1796448">
                <ele>128.0</ele>
                <time>2020-08-29T13:40:44.000Z</time>
                <name>Trackpoint 4863</name>
            </trkpt>
            <trkpt lat="49.782096" lon="9.17956">
                <ele>128.0</ele>
                <time>2020-08-29T13:40:46.000Z</time>
                <name>Trackpoint 4864</name>
            </trkpt>
            <trkpt lat="49.7820384" lon="9.1794416">
                <ele>129.0</ele>
                <time>2020-08-29T13:40:49.000Z</time>
                <name>Trackpoint 4865</name>
            </trkpt>
            <trkpt lat="49.7820064" lon="9.1793568">
                <ele>130.0</ele>
                <time>2020-08-29T13:40:51.000Z</time>
                <name>Trackpoint 4866</name>
            </trkpt>
            <trkpt lat="49.7819776" lon="9.1792672">
                <ele>130.0</ele>
                <time>2020-08-29T13:40:53.000Z</time>
                <name>Trackpoint 4867</name>
            </trkpt>
            <trkpt lat="49.7819328" lon="9.1791432">
                <ele>131.0</ele>
                <time>2020-08-29T13:40:56.000Z</time>
                <name>Trackpoint 4868</name>
            </trkpt>
            <trkpt lat="49.7819008" lon="9.1790584">
                <ele>132.0</ele>
                <time>2020-08-29T13:40:58.000Z</time>
                <name>Trackpoint 4869</name>
            </trkpt>
            <trkpt lat="49.7818592" lon="9.1789328">
                <ele>132.0</ele>
                <time>2020-08-29T13:41:01.000Z</time>
                <name>Trackpoint 4870</name>
            </trkpt>
            <trkpt lat="49.7818112" lon="9.1788264">
                <ele>132.0</ele>
                <time>2020-08-29T13:41:04.000Z</time>
                <name>Trackpoint 4871</name>
            </trkpt>
            <trkpt lat="49.7817792" lon="9.1787416">
                <ele>131.0</ele>
                <time>2020-08-29T13:41:07.000Z</time>
                <name>Trackpoint 4872</name>
            </trkpt>
            <trkpt lat="49.7817472" lon="9.178648">
                <ele>132.0</ele>
                <time>2020-08-29T13:41:11.000Z</time>
                <name>Trackpoint 4873</name>
            </trkpt>
            <trkpt lat="49.7817216" lon="9.1785584">
                <ele>131.0</ele>
                <time>2020-08-29T13:41:58.000Z</time>
                <name>Trackpoint 4874</name>
            </trkpt>
            <trkpt lat="49.7816896" lon="9.1784736">
                <ele>131.0</ele>
                <time>2020-08-29T13:42:01.000Z</time>
                <name>Trackpoint 4875</name>
            </trkpt>
            <trkpt lat="49.7816416" lon="9.17836">
                <ele>131.0</ele>
                <time>2020-08-29T13:42:04.000Z</time>
                <name>Trackpoint 4876</name>
            </trkpt>
            <trkpt lat="49.7815968" lon="9.17824">
                <ele>131.0</ele>
                <time>2020-08-29T13:42:07.000Z</time>
                <name>Trackpoint 4877</name>
            </trkpt>
            <trkpt lat="49.7815616" lon="9.178148">
                <ele>131.0</ele>
                <time>2020-08-29T13:42:09.000Z</time>
                <name>Trackpoint 4878</name>
            </trkpt>
            <trkpt lat="49.7815232" lon="9.178048">
                <ele>130.0</ele>
                <time>2020-08-29T13:42:11.000Z</time>
                <name>Trackpoint 4879</name>
            </trkpt>
            <trkpt lat="49.7814784" lon="9.1779368">
                <ele>130.0</ele>
                <time>2020-08-29T13:42:13.000Z</time>
                <name>Trackpoint 4880</name>
            </trkpt>
            <trkpt lat="49.7814336" lon="9.1778224">
                <ele>129.0</ele>
                <time>2020-08-29T13:42:15.000Z</time>
                <name>Trackpoint 4881</name>
            </trkpt>
            <trkpt lat="49.781392" lon="9.1777152">
                <ele>129.0</ele>
                <time>2020-08-29T13:42:17.000Z</time>
                <name>Trackpoint 4882</name>
            </trkpt>
            <trkpt lat="49.7813632" lon="9.177604">
                <ele>128.0</ele>
                <time>2020-08-29T13:42:19.000Z</time>
                <name>Trackpoint 4883</name>
            </trkpt>
            <trkpt lat="49.7813568" lon="9.1774856">
                <ele>128.0</ele>
                <time>2020-08-29T13:42:21.000Z</time>
                <name>Trackpoint 4884</name>
            </trkpt>
            <trkpt lat="49.7813696" lon="9.1773632">
                <ele>127.0</ele>
                <time>2020-08-29T13:42:23.000Z</time>
                <name>Trackpoint 4885</name>
            </trkpt>
            <trkpt lat="49.7813952" lon="9.177252">
                <ele>127.0</ele>
                <time>2020-08-29T13:42:25.000Z</time>
                <name>Trackpoint 4886</name>
            </trkpt>
            <trkpt lat="49.7814528" lon="9.1771768">
                <ele>126.0</ele>
                <time>2020-08-29T13:42:28.000Z</time>
                <name>Trackpoint 4887</name>
            </trkpt>
            <trkpt lat="49.781456" lon="9.1772784">
                <ele>126.0</ele>
                <time>2020-08-29T13:42:31.000Z</time>
                <name>Trackpoint 4888</name>
            </trkpt>
            <trkpt lat="49.78144" lon="9.1773856">
                <ele>126.0</ele>
                <time>2020-08-29T13:42:33.000Z</time>
                <name>Trackpoint 4889</name>
            </trkpt>
            <trkpt lat="49.7814496" lon="9.1775032">
                <ele>125.0</ele>
                <time>2020-08-29T13:42:35.000Z</time>
                <name>Trackpoint 4890</name>
            </trkpt>
            <trkpt lat="49.7814912" lon="9.1775976">
                <ele>125.0</ele>
                <time>2020-08-29T13:42:37.000Z</time>
                <name>Trackpoint 4891</name>
            </trkpt>
            <trkpt lat="49.7816" lon="9.1775952">
                <ele>123.0</ele>
                <time>2020-08-29T13:42:40.000Z</time>
                <name>Trackpoint 4892</name>
            </trkpt>
            <trkpt lat="49.7816864" lon="9.1775128">
                <ele>123.0</ele>
                <time>2020-08-29T13:42:42.000Z</time>
                <name>Trackpoint 4893</name>
            </trkpt>
            <trkpt lat="49.7817664" lon="9.1774432">
                <ele>123.0</ele>
                <time>2020-08-29T13:42:44.000Z</time>
                <name>Trackpoint 4894</name>
            </trkpt>
            <trkpt lat="49.78184" lon="9.1773856">
                <ele>122.0</ele>
                <time>2020-08-29T13:42:46.000Z</time>
                <name>Trackpoint 4895</name>
            </trkpt>
            <trkpt lat="49.7819392" lon="9.1774168">
                <ele>121.0</ele>
                <time>2020-08-29T13:42:49.000Z</time>
                <name>Trackpoint 4896</name>
            </trkpt>
            <trkpt lat="49.7819872" lon="9.1775112">
                <ele>121.0</ele>
                <time>2020-08-29T13:42:51.000Z</time>
                <name>Trackpoint 4897</name>
            </trkpt>
            <trkpt lat="49.782064" lon="9.1775704">
                <ele>121.0</ele>
                <time>2020-08-29T13:42:56.000Z</time>
                <name>Trackpoint 4898</name>
            </trkpt>
            <trkpt lat="49.7821536" lon="9.1774928">
                <ele>121.0</ele>
                <time>2020-08-29T13:43:37.000Z</time>
                <name>Trackpoint 4899</name>
            </trkpt>
            <trkpt lat="49.7822624" lon="9.177408">
                <ele>121.0</ele>
                <time>2020-08-29T13:43:40.000Z</time>
                <name>Trackpoint 4900</name>
            </trkpt>
            <trkpt lat="49.782336" lon="9.1773416">
                <ele>121.0</ele>
                <time>2020-08-29T13:43:42.000Z</time>
                <name>Trackpoint 4901</name>
            </trkpt>
            <trkpt lat="49.7824224" lon="9.177272">
                <ele>121.0</ele>
                <time>2020-08-29T13:43:44.000Z</time>
                <name>Trackpoint 4902</name>
            </trkpt>
            <trkpt lat="49.782512" lon="9.1771984">
                <ele>121.0</ele>
                <time>2020-08-29T13:43:46.000Z</time>
                <name>Trackpoint 4903</name>
            </trkpt>
            <trkpt lat="49.7825952" lon="9.177116">
                <ele>120.0</ele>
                <time>2020-08-29T13:43:48.000Z</time>
                <name>Trackpoint 4904</name>
            </trkpt>
            <trkpt lat="49.782688" lon="9.177036">
                <ele>120.0</ele>
                <time>2020-08-29T13:43:50.000Z</time>
                <name>Trackpoint 4905</name>
            </trkpt>
            <trkpt lat="49.782784" lon="9.176944">
                <ele>120.0</ele>
                <time>2020-08-29T13:43:52.000Z</time>
                <name>Trackpoint 4906</name>
            </trkpt>
            <trkpt lat="49.7828704" lon="9.1768488">
                <ele>120.0</ele>
                <time>2020-08-29T13:43:54.000Z</time>
                <name>Trackpoint 4907</name>
            </trkpt>
            <trkpt lat="49.7829664" lon="9.1767528">
                <ele>120.0</ele>
                <time>2020-08-29T13:43:56.000Z</time>
                <name>Trackpoint 4908</name>
            </trkpt>
            <trkpt lat="49.7830656" lon="9.1766568">
                <ele>120.0</ele>
                <time>2020-08-29T13:43:58.000Z</time>
                <name>Trackpoint 4909</name>
            </trkpt>
            <trkpt lat="49.783168" lon="9.176568">
                <ele>120.0</ele>
                <time>2020-08-29T13:44:00.000Z</time>
                <name>Trackpoint 4910</name>
            </trkpt>
            <trkpt lat="49.7832672" lon="9.176488">
                <ele>120.0</ele>
                <time>2020-08-29T13:44:02.000Z</time>
                <name>Trackpoint 4911</name>
            </trkpt>
            <trkpt lat="49.7833696" lon="9.1764336">
                <ele>120.0</ele>
                <time>2020-08-29T13:44:04.000Z</time>
                <name>Trackpoint 4912</name>
            </trkpt>
            <trkpt lat="49.7834816" lon="9.17636">
                <ele>119.0</ele>
                <time>2020-08-29T13:44:06.000Z</time>
                <name>Trackpoint 4913</name>
            </trkpt>
            <trkpt lat="49.7835808" lon="9.1762848">
                <ele>120.0</ele>
                <time>2020-08-29T13:44:08.000Z</time>
                <name>Trackpoint 4914</name>
            </trkpt>
            <trkpt lat="49.7836832" lon="9.1761968">
                <ele>119.0</ele>
                <time>2020-08-29T13:44:10.000Z</time>
                <name>Trackpoint 4915</name>
            </trkpt>
            <trkpt lat="49.7837664" lon="9.1761168">
                <ele>119.0</ele>
                <time>2020-08-29T13:44:12.000Z</time>
                <name>Trackpoint 4916</name>
            </trkpt>
            <trkpt lat="49.7838432" lon="9.176048">
                <ele>119.0</ele>
                <time>2020-08-29T13:44:14.000Z</time>
                <name>Trackpoint 4917</name>
            </trkpt>
            <trkpt lat="49.78392" lon="9.1759904">
                <ele>119.0</ele>
                <time>2020-08-29T13:44:16.000Z</time>
                <name>Trackpoint 4918</name>
            </trkpt>
            <trkpt lat="49.7839968" lon="9.1759432">
                <ele>119.0</ele>
                <time>2020-08-29T13:44:18.000Z</time>
                <name>Trackpoint 4919</name>
            </trkpt>
            <trkpt lat="49.7841312" lon="9.1759032">
                <ele>119.0</ele>
                <time>2020-08-29T13:44:21.000Z</time>
                <name>Trackpoint 4920</name>
            </trkpt>
            <trkpt lat="49.7842112" lon="9.175828">
                <ele>119.0</ele>
                <time>2020-08-29T13:44:23.000Z</time>
                <name>Trackpoint 4921</name>
            </trkpt>
            <trkpt lat="49.7843136" lon="9.1757632">
                <ele>119.0</ele>
                <time>2020-08-29T13:44:25.000Z</time>
                <name>Trackpoint 4922</name>
            </trkpt>
            <trkpt lat="49.784432" lon="9.1757152">
                <ele>119.0</ele>
                <time>2020-08-29T13:44:27.000Z</time>
                <name>Trackpoint 4923</name>
            </trkpt>
            <trkpt lat="49.7845344" lon="9.1756512">
                <ele>119.0</ele>
                <time>2020-08-29T13:44:30.000Z</time>
                <name>Trackpoint 4924</name>
            </trkpt>
            <trkpt lat="49.7846176" lon="9.1756032">
                <ele>119.0</ele>
                <time>2020-08-29T13:44:32.000Z</time>
                <name>Trackpoint 4925</name>
            </trkpt>
            <trkpt lat="49.7847168" lon="9.1755712">
                <ele>119.0</ele>
                <time>2020-08-29T13:44:34.000Z</time>
                <name>Trackpoint 4926</name>
            </trkpt>
            <trkpt lat="49.784832" lon="9.1755384">
                <ele>118.0</ele>
                <time>2020-08-29T13:44:36.000Z</time>
                <name>Trackpoint 4927</name>
            </trkpt>
            <trkpt lat="49.784928" lon="9.1755064">
                <ele>118.0</ele>
                <time>2020-08-29T13:44:38.000Z</time>
                <name>Trackpoint 4928</name>
            </trkpt>
            <trkpt lat="49.7850464" lon="9.1754528">
                <ele>118.0</ele>
                <time>2020-08-29T13:44:40.000Z</time>
                <name>Trackpoint 4929</name>
            </trkpt>
            <trkpt lat="49.7851456" lon="9.1754176">
                <ele>118.0</ele>
                <time>2020-08-29T13:44:42.000Z</time>
                <name>Trackpoint 4930</name>
            </trkpt>
            <trkpt lat="49.785248" lon="9.1753632">
                <ele>118.0</ele>
                <time>2020-08-29T13:44:44.000Z</time>
                <name>Trackpoint 4931</name>
            </trkpt>
            <trkpt lat="49.7853728" lon="9.1753368">
                <ele>118.0</ele>
                <time>2020-08-29T13:44:46.000Z</time>
                <name>Trackpoint 4932</name>
            </trkpt>
            <trkpt lat="49.7854944" lon="9.175292">
                <ele>118.0</ele>
                <time>2020-08-29T13:44:48.000Z</time>
                <name>Trackpoint 4933</name>
            </trkpt>
            <trkpt lat="49.7856192" lon="9.1752432">
                <ele>118.0</ele>
                <time>2020-08-29T13:44:50.000Z</time>
                <name>Trackpoint 4934</name>
            </trkpt>
            <trkpt lat="49.7857216" lon="9.1752016">
                <ele>118.0</ele>
                <time>2020-08-29T13:44:52.000Z</time>
                <name>Trackpoint 4935</name>
            </trkpt>
            <trkpt lat="49.7858304" lon="9.1751432">
                <ele>118.0</ele>
                <time>2020-08-29T13:44:54.000Z</time>
                <name>Trackpoint 4936</name>
            </trkpt>
            <trkpt lat="49.7859424" lon="9.1751016">
                <ele>118.0</ele>
                <time>2020-08-29T13:44:56.000Z</time>
                <name>Trackpoint 4937</name>
            </trkpt>
            <trkpt lat="49.7860416" lon="9.1750496">
                <ele>119.0</ele>
                <time>2020-08-29T13:44:58.000Z</time>
                <name>Trackpoint 4938</name>
            </trkpt>
            <trkpt lat="49.786144" lon="9.17502">
                <ele>119.0</ele>
                <time>2020-08-29T13:45:00.000Z</time>
                <name>Trackpoint 4939</name>
            </trkpt>
            <trkpt lat="49.78624" lon="9.1749712">
                <ele>119.0</ele>
                <time>2020-08-29T13:45:02.000Z</time>
                <name>Trackpoint 4940</name>
            </trkpt>
            <trkpt lat="49.7863264" lon="9.174916">
                <ele>119.0</ele>
                <time>2020-08-29T13:45:04.000Z</time>
                <name>Trackpoint 4941</name>
            </trkpt>
            <trkpt lat="49.786416" lon="9.1748632">
                <ele>119.0</ele>
                <time>2020-08-29T13:45:06.000Z</time>
                <name>Trackpoint 4942</name>
            </trkpt>
            <trkpt lat="49.7865056" lon="9.1748">
                <ele>119.0</ele>
                <time>2020-08-29T13:45:08.000Z</time>
                <name>Trackpoint 4943</name>
            </trkpt>
            <trkpt lat="49.7865952" lon="9.1747416">
                <ele>120.0</ele>
                <time>2020-08-29T13:45:10.000Z</time>
                <name>Trackpoint 4944</name>
            </trkpt>
            <trkpt lat="49.7866784" lon="9.1746792">
                <ele>120.0</ele>
                <time>2020-08-29T13:45:12.000Z</time>
                <name>Trackpoint 4945</name>
            </trkpt>
            <trkpt lat="49.7867648" lon="9.17462">
                <ele>120.0</ele>
                <time>2020-08-29T13:45:14.000Z</time>
                <name>Trackpoint 4946</name>
            </trkpt>
            <trkpt lat="49.7868384" lon="9.1745592">
                <ele>120.0</ele>
                <time>2020-08-29T13:45:16.000Z</time>
                <name>Trackpoint 4947</name>
            </trkpt>
            <trkpt lat="49.786944" lon="9.1744736">
                <ele>120.0</ele>
                <time>2020-08-29T13:45:19.000Z</time>
                <name>Trackpoint 4948</name>
            </trkpt>
            <trkpt lat="49.7870496" lon="9.1743984">
                <ele>120.0</ele>
                <time>2020-08-29T13:45:22.000Z</time>
                <name>Trackpoint 4949</name>
            </trkpt>
            <trkpt lat="49.7871424" lon="9.1743048">
                <ele>121.0</ele>
                <time>2020-08-29T13:45:25.000Z</time>
                <name>Trackpoint 4950</name>
            </trkpt>
            <trkpt lat="49.7872096" lon="9.1742336">
                <ele>120.0</ele>
                <time>2020-08-29T13:45:27.000Z</time>
                <name>Trackpoint 4951</name>
            </trkpt>
            <trkpt lat="49.78728" lon="9.1741712">
                <ele>120.0</ele>
                <time>2020-08-29T13:45:29.000Z</time>
                <name>Trackpoint 4952</name>
            </trkpt>
            <trkpt lat="49.7873504" lon="9.1740968">
                <ele>121.0</ele>
                <time>2020-08-29T13:45:31.000Z</time>
                <name>Trackpoint 4953</name>
            </trkpt>
            <trkpt lat="49.7874304" lon="9.1740168">
                <ele>120.0</ele>
                <time>2020-08-29T13:45:33.000Z</time>
                <name>Trackpoint 4954</name>
            </trkpt>
            <trkpt lat="49.7875008" lon="9.1739416">
                <ele>120.0</ele>
                <time>2020-08-29T13:45:35.000Z</time>
                <name>Trackpoint 4955</name>
            </trkpt>
            <trkpt lat="49.7875712" lon="9.1738584">
                <ele>121.0</ele>
                <time>2020-08-29T13:45:37.000Z</time>
                <name>Trackpoint 4956</name>
            </trkpt>
            <trkpt lat="49.7876352" lon="9.1737648">
                <ele>120.0</ele>
                <time>2020-08-29T13:45:39.000Z</time>
                <name>Trackpoint 4957</name>
            </trkpt>
            <trkpt lat="49.7876992" lon="9.1736768">
                <ele>120.0</ele>
                <time>2020-08-29T13:45:41.000Z</time>
                <name>Trackpoint 4958</name>
            </trkpt>
            <trkpt lat="49.7877728" lon="9.173596">
                <ele>120.0</ele>
                <time>2020-08-29T13:45:43.000Z</time>
                <name>Trackpoint 4959</name>
            </trkpt>
            <trkpt lat="49.7878464" lon="9.1735152">
                <ele>120.0</ele>
                <time>2020-08-29T13:45:45.000Z</time>
                <name>Trackpoint 4960</name>
            </trkpt>
            <trkpt lat="49.7879136" lon="9.1734184">
                <ele>120.0</ele>
                <time>2020-08-29T13:45:47.000Z</time>
                <name>Trackpoint 4961</name>
            </trkpt>
            <trkpt lat="49.7879776" lon="9.1733248">
                <ele>121.0</ele>
                <time>2020-08-29T13:45:49.000Z</time>
                <name>Trackpoint 4962</name>
            </trkpt>
            <trkpt lat="49.7880512" lon="9.1732456">
                <ele>121.0</ele>
                <time>2020-08-29T13:45:51.000Z</time>
                <name>Trackpoint 4963</name>
            </trkpt>
            <trkpt lat="49.7881216" lon="9.1731704">
                <ele>121.0</ele>
                <time>2020-08-29T13:45:53.000Z</time>
                <name>Trackpoint 4964</name>
            </trkpt>
            <trkpt lat="49.7881888" lon="9.1730816">
                <ele>121.0</ele>
                <time>2020-08-29T13:45:55.000Z</time>
                <name>Trackpoint 4965</name>
            </trkpt>
            <trkpt lat="49.7882496" lon="9.1729944">
                <ele>121.0</ele>
                <time>2020-08-29T13:45:57.000Z</time>
                <name>Trackpoint 4966</name>
            </trkpt>
            <trkpt lat="49.788304" lon="9.17292">
                <ele>121.0</ele>
                <time>2020-08-29T13:45:59.000Z</time>
                <name>Trackpoint 4967</name>
            </trkpt>
            <trkpt lat="49.788368" lon="9.1728552">
                <ele>121.0</ele>
                <time>2020-08-29T13:46:01.000Z</time>
                <name>Trackpoint 4968</name>
            </trkpt>
            <trkpt lat="49.7884384" lon="9.1727752">
                <ele>121.0</ele>
                <time>2020-08-29T13:46:03.000Z</time>
                <name>Trackpoint 4969</name>
            </trkpt>
            <trkpt lat="49.7885056" lon="9.1726768">
                <ele>121.0</ele>
                <time>2020-08-29T13:46:05.000Z</time>
                <name>Trackpoint 4970</name>
            </trkpt>
            <trkpt lat="49.7885792" lon="9.1725768">
                <ele>121.0</ele>
                <time>2020-08-29T13:46:07.000Z</time>
                <name>Trackpoint 4971</name>
            </trkpt>
            <trkpt lat="49.7886432" lon="9.1724728">
                <ele>121.0</ele>
                <time>2020-08-29T13:46:09.000Z</time>
                <name>Trackpoint 4972</name>
            </trkpt>
            <trkpt lat="49.7887072" lon="9.1723856">
                <ele>121.0</ele>
                <time>2020-08-29T13:46:11.000Z</time>
                <name>Trackpoint 4973</name>
            </trkpt>
            <trkpt lat="49.7887808" lon="9.1722944">
                <ele>122.0</ele>
                <time>2020-08-29T13:46:13.000Z</time>
                <name>Trackpoint 4974</name>
            </trkpt>
            <trkpt lat="49.7888576" lon="9.172196">
                <ele>122.0</ele>
                <time>2020-08-29T13:46:15.000Z</time>
                <name>Trackpoint 4975</name>
            </trkpt>
            <trkpt lat="49.7889376" lon="9.1720888">
                <ele>122.0</ele>
                <time>2020-08-29T13:46:17.000Z</time>
                <name>Trackpoint 4976</name>
            </trkpt>
            <trkpt lat="49.789008" lon="9.17198">
                <ele>122.0</ele>
                <time>2020-08-29T13:46:19.000Z</time>
                <name>Trackpoint 4977</name>
            </trkpt>
            <trkpt lat="49.7890848" lon="9.1718728">
                <ele>121.0</ele>
                <time>2020-08-29T13:46:21.000Z</time>
                <name>Trackpoint 4978</name>
            </trkpt>
            <trkpt lat="49.7891616" lon="9.17176">
                <ele>121.0</ele>
                <time>2020-08-29T13:46:23.000Z</time>
                <name>Trackpoint 4979</name>
            </trkpt>
            <trkpt lat="49.7892448" lon="9.1716472">
                <ele>120.0</ele>
                <time>2020-08-29T13:46:25.000Z</time>
                <name>Trackpoint 4980</name>
            </trkpt>
            <trkpt lat="49.7893344" lon="9.1715368">
                <ele>120.0</ele>
                <time>2020-08-29T13:46:27.000Z</time>
                <name>Trackpoint 4981</name>
            </trkpt>
            <trkpt lat="49.7894176" lon="9.171416">
                <ele>120.0</ele>
                <time>2020-08-29T13:46:29.000Z</time>
                <name>Trackpoint 4982</name>
            </trkpt>
            <trkpt lat="49.789504" lon="9.1712952">
                <ele>121.0</ele>
                <time>2020-08-29T13:46:31.000Z</time>
                <name>Trackpoint 4983</name>
            </trkpt>
            <trkpt lat="49.7895904" lon="9.1711832">
                <ele>120.0</ele>
                <time>2020-08-29T13:46:33.000Z</time>
                <name>Trackpoint 4984</name>
            </trkpt>
            <trkpt lat="49.7896704" lon="9.1710752">
                <ele>121.0</ele>
                <time>2020-08-29T13:46:35.000Z</time>
                <name>Trackpoint 4985</name>
            </trkpt>
            <trkpt lat="49.7897504" lon="9.1709648">
                <ele>121.0</ele>
                <time>2020-08-29T13:46:37.000Z</time>
                <name>Trackpoint 4986</name>
            </trkpt>
            <trkpt lat="49.7898208" lon="9.170848">
                <ele>121.0</ele>
                <time>2020-08-29T13:46:39.000Z</time>
                <name>Trackpoint 4987</name>
            </trkpt>
            <trkpt lat="49.7899008" lon="9.1707352">
                <ele>121.0</ele>
                <time>2020-08-29T13:46:41.000Z</time>
                <name>Trackpoint 4988</name>
            </trkpt>
            <trkpt lat="49.7899872" lon="9.1706168">
                <ele>121.0</ele>
                <time>2020-08-29T13:46:43.000Z</time>
                <name>Trackpoint 4989</name>
            </trkpt>
            <trkpt lat="49.7900672" lon="9.1704912">
                <ele>122.0</ele>
                <time>2020-08-29T13:46:45.000Z</time>
                <name>Trackpoint 4990</name>
            </trkpt>
            <trkpt lat="49.7901472" lon="9.17036">
                <ele>121.0</ele>
                <time>2020-08-29T13:46:47.000Z</time>
                <name>Trackpoint 4991</name>
            </trkpt>
            <trkpt lat="49.7902272" lon="9.1702368">
                <ele>122.0</ele>
                <time>2020-08-29T13:46:49.000Z</time>
                <name>Trackpoint 4992</name>
            </trkpt>
            <trkpt lat="49.7903104" lon="9.1701136">
                <ele>122.0</ele>
                <time>2020-08-29T13:46:51.000Z</time>
                <name>Trackpoint 4993</name>
            </trkpt>
            <trkpt lat="49.7903904" lon="9.1699816">
                <ele>122.0</ele>
                <time>2020-08-29T13:46:53.000Z</time>
                <name>Trackpoint 4994</name>
            </trkpt>
            <trkpt lat="49.7904672" lon="9.169864">
                <ele>122.0</ele>
                <time>2020-08-29T13:46:55.000Z</time>
                <name>Trackpoint 4995</name>
            </trkpt>
            <trkpt lat="49.7905344" lon="9.1697456">
                <ele>121.0</ele>
                <time>2020-08-29T13:46:57.000Z</time>
                <name>Trackpoint 4996</name>
            </trkpt>
            <trkpt lat="49.790608" lon="9.1696256">
                <ele>121.0</ele>
                <time>2020-08-29T13:46:59.000Z</time>
                <name>Trackpoint 4997</name>
            </trkpt>
            <trkpt lat="49.7906784" lon="9.1695096">
                <ele>121.0</ele>
                <time>2020-08-29T13:47:01.000Z</time>
                <name>Trackpoint 4998</name>
            </trkpt>
            <trkpt lat="49.790752" lon="9.1694048">
                <ele>121.0</ele>
                <time>2020-08-29T13:47:03.000Z</time>
                <name>Trackpoint 4999</name>
            </trkpt>
            <trkpt lat="49.7908224" lon="9.1693048">
                <ele>121.0</ele>
                <time>2020-08-29T13:47:05.000Z</time>
                <name>Trackpoint 5000</name>
            </trkpt>
            <trkpt lat="49.7908768" lon="9.169224">
                <ele>122.0</ele>
                <time>2020-08-29T13:47:07.000Z</time>
                <name>Trackpoint 5001</name>
            </trkpt>
            <trkpt lat="49.7909312" lon="9.169144">
                <ele>122.0</ele>
                <time>2020-08-29T13:47:09.000Z</time>
                <name>Trackpoint 5002</name>
            </trkpt>
            <trkpt lat="49.7909856" lon="9.169052">
                <ele>121.0</ele>
                <time>2020-08-29T13:47:11.000Z</time>
                <name>Trackpoint 5003</name>
            </trkpt>
            <trkpt lat="49.7910432" lon="9.1689464">
                <ele>122.0</ele>
                <time>2020-08-29T13:47:13.000Z</time>
                <name>Trackpoint 5004</name>
            </trkpt>
            <trkpt lat="49.791088" lon="9.1688368">
                <ele>122.0</ele>
                <time>2020-08-29T13:47:15.000Z</time>
                <name>Trackpoint 5005</name>
            </trkpt>
            <trkpt lat="49.7911456" lon="9.1687344">
                <ele>122.0</ele>
                <time>2020-08-29T13:47:17.000Z</time>
                <name>Trackpoint 5006</name>
            </trkpt>
            <trkpt lat="49.7912096" lon="9.1686472">
                <ele>121.0</ele>
                <time>2020-08-29T13:47:19.000Z</time>
                <name>Trackpoint 5007</name>
            </trkpt>
            <trkpt lat="49.7912704" lon="9.1685464">
                <ele>121.0</ele>
                <time>2020-08-29T13:47:21.000Z</time>
                <name>Trackpoint 5008</name>
            </trkpt>
            <trkpt lat="49.791328" lon="9.1684352">
                <ele>122.0</ele>
                <time>2020-08-29T13:47:23.000Z</time>
                <name>Trackpoint 5009</name>
            </trkpt>
            <trkpt lat="49.7913856" lon="9.168328">
                <ele>122.0</ele>
                <time>2020-08-29T13:47:25.000Z</time>
                <name>Trackpoint 5010</name>
            </trkpt>
            <trkpt lat="49.7914368" lon="9.1682104">
                <ele>122.0</ele>
                <time>2020-08-29T13:47:27.000Z</time>
                <name>Trackpoint 5011</name>
            </trkpt>
            <trkpt lat="49.7914816" lon="9.1680896">
                <ele>121.0</ele>
                <time>2020-08-29T13:47:29.000Z</time>
                <name>Trackpoint 5012</name>
            </trkpt>
            <trkpt lat="49.7915392" lon="9.1679832">
                <ele>121.0</ele>
                <time>2020-08-29T13:47:31.000Z</time>
                <name>Trackpoint 5013</name>
            </trkpt>
            <trkpt lat="49.7916032" lon="9.1678752">
                <ele>121.0</ele>
                <time>2020-08-29T13:47:33.000Z</time>
                <name>Trackpoint 5014</name>
            </trkpt>
            <trkpt lat="49.7916608" lon="9.167764">
                <ele>121.0</ele>
                <time>2020-08-29T13:47:35.000Z</time>
                <name>Trackpoint 5015</name>
            </trkpt>
            <trkpt lat="49.7917184" lon="9.1676728">
                <ele>120.0</ele>
                <time>2020-08-29T13:47:37.000Z</time>
                <name>Trackpoint 5016</name>
            </trkpt>
            <trkpt lat="49.7917824" lon="9.167592">
                <ele>120.0</ele>
                <time>2020-08-29T13:47:39.000Z</time>
                <name>Trackpoint 5017</name>
            </trkpt>
            <trkpt lat="49.7918496" lon="9.1675032">
                <ele>121.0</ele>
                <time>2020-08-29T13:47:41.000Z</time>
                <name>Trackpoint 5018</name>
            </trkpt>
            <trkpt lat="49.7919072" lon="9.1673896">
                <ele>121.0</ele>
                <time>2020-08-29T13:47:43.000Z</time>
                <name>Trackpoint 5019</name>
            </trkpt>
            <trkpt lat="49.7919616" lon="9.167272">
                <ele>121.0</ele>
                <time>2020-08-29T13:47:45.000Z</time>
                <name>Trackpoint 5020</name>
            </trkpt>
            <trkpt lat="49.7920224" lon="9.16716">
                <ele>121.0</ele>
                <time>2020-08-29T13:47:47.000Z</time>
                <name>Trackpoint 5021</name>
            </trkpt>
            <trkpt lat="49.7920768" lon="9.1670552">
                <ele>121.0</ele>
                <time>2020-08-29T13:47:49.000Z</time>
                <name>Trackpoint 5022</name>
            </trkpt>
            <trkpt lat="49.792128" lon="9.1669592">
                <ele>121.0</ele>
                <time>2020-08-29T13:47:51.000Z</time>
                <name>Trackpoint 5023</name>
            </trkpt>
            <trkpt lat="49.7921792" lon="9.1668656">
                <ele>121.0</ele>
                <time>2020-08-29T13:47:53.000Z</time>
                <name>Trackpoint 5024</name>
            </trkpt>
            <trkpt lat="49.7922272" lon="9.1667816">
                <ele>121.0</ele>
                <time>2020-08-29T13:47:55.000Z</time>
                <name>Trackpoint 5025</name>
            </trkpt>
            <trkpt lat="49.7922816" lon="9.1666896">
                <ele>121.0</ele>
                <time>2020-08-29T13:47:57.000Z</time>
                <name>Trackpoint 5026</name>
            </trkpt>
            <trkpt lat="49.792336" lon="9.166592">
                <ele>122.0</ele>
                <time>2020-08-29T13:47:59.000Z</time>
                <name>Trackpoint 5027</name>
            </trkpt>
            <trkpt lat="49.792384" lon="9.1665016">
                <ele>122.0</ele>
                <time>2020-08-29T13:48:01.000Z</time>
                <name>Trackpoint 5028</name>
            </trkpt>
            <trkpt lat="49.7924352" lon="9.1664136">
                <ele>121.0</ele>
                <time>2020-08-29T13:48:03.000Z</time>
                <name>Trackpoint 5029</name>
            </trkpt>
            <trkpt lat="49.79248" lon="9.1663312">
                <ele>121.0</ele>
                <time>2020-08-29T13:48:05.000Z</time>
                <name>Trackpoint 5030</name>
            </trkpt>
            <trkpt lat="49.7925312" lon="9.1662432">
                <ele>122.0</ele>
                <time>2020-08-29T13:48:07.000Z</time>
                <name>Trackpoint 5031</name>
            </trkpt>
            <trkpt lat="49.7925888" lon="9.1661456">
                <ele>122.0</ele>
                <time>2020-08-29T13:48:09.000Z</time>
                <name>Trackpoint 5032</name>
            </trkpt>
            <trkpt lat="49.792656" lon="9.1660384">
                <ele>122.0</ele>
                <time>2020-08-29T13:48:11.000Z</time>
                <name>Trackpoint 5033</name>
            </trkpt>
            <trkpt lat="49.79272" lon="9.1659336">
                <ele>122.0</ele>
                <time>2020-08-29T13:48:13.000Z</time>
                <name>Trackpoint 5034</name>
            </trkpt>
            <trkpt lat="49.7927872" lon="9.1658152">
                <ele>122.0</ele>
                <time>2020-08-29T13:48:15.000Z</time>
                <name>Trackpoint 5035</name>
            </trkpt>
            <trkpt lat="49.7928512" lon="9.1656952">
                <ele>122.0</ele>
                <time>2020-08-29T13:48:17.000Z</time>
                <name>Trackpoint 5036</name>
            </trkpt>
            <trkpt lat="49.7929216" lon="9.1655768">
                <ele>122.0</ele>
                <time>2020-08-29T13:48:19.000Z</time>
                <name>Trackpoint 5037</name>
            </trkpt>
            <trkpt lat="49.7929888" lon="9.1654568">
                <ele>122.0</ele>
                <time>2020-08-29T13:48:21.000Z</time>
                <name>Trackpoint 5038</name>
            </trkpt>
            <trkpt lat="49.7930592" lon="9.1653384">
                <ele>122.0</ele>
                <time>2020-08-29T13:48:23.000Z</time>
                <name>Trackpoint 5039</name>
            </trkpt>
            <trkpt lat="49.7931264" lon="9.1652144">
                <ele>122.0</ele>
                <time>2020-08-29T13:48:25.000Z</time>
                <name>Trackpoint 5040</name>
            </trkpt>
            <trkpt lat="49.7931968" lon="9.165096">
                <ele>122.0</ele>
                <time>2020-08-29T13:48:27.000Z</time>
                <name>Trackpoint 5041</name>
            </trkpt>
            <trkpt lat="49.7932704" lon="9.1649704">
                <ele>121.0</ele>
                <time>2020-08-29T13:48:29.000Z</time>
                <name>Trackpoint 5042</name>
            </trkpt>
            <trkpt lat="49.7933376" lon="9.16484">
                <ele>121.0</ele>
                <time>2020-08-29T13:48:31.000Z</time>
                <name>Trackpoint 5043</name>
            </trkpt>
            <trkpt lat="49.7934112" lon="9.1647168">
                <ele>121.0</ele>
                <time>2020-08-29T13:48:33.000Z</time>
                <name>Trackpoint 5044</name>
            </trkpt>
            <trkpt lat="49.7934784" lon="9.1645832">
                <ele>122.0</ele>
                <time>2020-08-29T13:48:35.000Z</time>
                <name>Trackpoint 5045</name>
            </trkpt>
            <trkpt lat="49.7935424" lon="9.164436">
                <ele>122.0</ele>
                <time>2020-08-29T13:48:37.000Z</time>
                <name>Trackpoint 5046</name>
            </trkpt>
            <trkpt lat="49.7936032" lon="9.164304">
                <ele>122.0</ele>
                <time>2020-08-29T13:48:39.000Z</time>
                <name>Trackpoint 5047</name>
            </trkpt>
            <trkpt lat="49.7936544" lon="9.1641648">
                <ele>122.0</ele>
                <time>2020-08-29T13:48:41.000Z</time>
                <name>Trackpoint 5048</name>
            </trkpt>
            <trkpt lat="49.7937152" lon="9.164032">
                <ele>123.0</ele>
                <time>2020-08-29T13:48:43.000Z</time>
                <name>Trackpoint 5049</name>
            </trkpt>
            <trkpt lat="49.7937728" lon="9.1639016">
                <ele>122.0</ele>
                <time>2020-08-29T13:48:45.000Z</time>
                <name>Trackpoint 5050</name>
            </trkpt>
            <trkpt lat="49.7938144" lon="9.1637496">
                <ele>123.0</ele>
                <time>2020-08-29T13:48:47.000Z</time>
                <name>Trackpoint 5051</name>
            </trkpt>
            <trkpt lat="49.7938656" lon="9.163624">
                <ele>123.0</ele>
                <time>2020-08-29T13:48:49.000Z</time>
                <name>Trackpoint 5052</name>
            </trkpt>
            <trkpt lat="49.7939264" lon="9.1635088">
                <ele>122.0</ele>
                <time>2020-08-29T13:48:51.000Z</time>
                <name>Trackpoint 5053</name>
            </trkpt>
            <trkpt lat="49.7939744" lon="9.163368">
                <ele>121.0</ele>
                <time>2020-08-29T13:48:53.000Z</time>
                <name>Trackpoint 5054</name>
            </trkpt>
            <trkpt lat="49.7940384" lon="9.163252">
                <ele>121.0</ele>
                <time>2020-08-29T13:48:55.000Z</time>
                <name>Trackpoint 5055</name>
            </trkpt>
            <trkpt lat="49.7940896" lon="9.1631384">
                <ele>121.0</ele>
                <time>2020-08-29T13:48:57.000Z</time>
                <name>Trackpoint 5056</name>
            </trkpt>
            <trkpt lat="49.794144" lon="9.163016">
                <ele>121.0</ele>
                <time>2020-08-29T13:48:59.000Z</time>
                <name>Trackpoint 5057</name>
            </trkpt>
            <trkpt lat="49.7942016" lon="9.162904">
                <ele>121.0</ele>
                <time>2020-08-29T13:49:01.000Z</time>
                <name>Trackpoint 5058</name>
            </trkpt>
            <trkpt lat="49.7942592" lon="9.1627928">
                <ele>121.0</ele>
                <time>2020-08-29T13:49:03.000Z</time>
                <name>Trackpoint 5059</name>
            </trkpt>
            <trkpt lat="49.7942976" lon="9.1626904">
                <ele>121.0</ele>
                <time>2020-08-29T13:49:05.000Z</time>
                <name>Trackpoint 5060</name>
            </trkpt>
            <trkpt lat="49.7943264" lon="9.1626032">
                <ele>122.0</ele>
                <time>2020-08-29T13:49:07.000Z</time>
                <name>Trackpoint 5061</name>
            </trkpt>
            <trkpt lat="49.7943808" lon="9.162492">
                <ele>122.0</ele>
                <time>2020-08-29T13:49:10.000Z</time>
                <name>Trackpoint 5062</name>
            </trkpt>
            <trkpt lat="49.7944768" lon="9.1625456">
                <ele>123.0</ele>
                <time>2020-08-29T13:49:14.000Z</time>
                <name>Trackpoint 5063</name>
            </trkpt>
            <trkpt lat="49.7945376" lon="9.1626184">
                <ele>122.0</ele>
                <time>2020-08-29T13:49:16.000Z</time>
                <name>Trackpoint 5064</name>
            </trkpt>
            <trkpt lat="49.7945984" lon="9.1627064">
                <ele>122.0</ele>
                <time>2020-08-29T13:49:18.000Z</time>
                <name>Trackpoint 5065</name>
            </trkpt>
            <trkpt lat="49.7946592" lon="9.1628104">
                <ele>122.0</ele>
                <time>2020-08-29T13:49:20.000Z</time>
                <name>Trackpoint 5066</name>
            </trkpt>
            <trkpt lat="49.7947232" lon="9.1629112">
                <ele>122.0</ele>
                <time>2020-08-29T13:49:22.000Z</time>
                <name>Trackpoint 5067</name>
            </trkpt>
            <trkpt lat="49.7947808" lon="9.1629896">
                <ele>122.0</ele>
                <time>2020-08-29T13:49:24.000Z</time>
                <name>Trackpoint 5068</name>
            </trkpt>
            <trkpt lat="49.7948416" lon="9.163072">
                <ele>122.0</ele>
                <time>2020-08-29T13:49:26.000Z</time>
                <name>Trackpoint 5069</name>
            </trkpt>
            <trkpt lat="49.794896" lon="9.163148">
                <ele>122.0</ele>
                <time>2020-08-29T13:49:28.000Z</time>
                <name>Trackpoint 5070</name>
            </trkpt>
            <trkpt lat="49.79496" lon="9.1632272">
                <ele>122.0</ele>
                <time>2020-08-29T13:49:30.000Z</time>
                <name>Trackpoint 5071</name>
            </trkpt>
            <trkpt lat="49.7950432" lon="9.1632992">
                <ele>122.0</ele>
                <time>2020-08-29T13:49:32.000Z</time>
                <name>Trackpoint 5072</name>
            </trkpt>
            <trkpt lat="49.7951424" lon="9.1632792">
                <ele>122.0</ele>
                <time>2020-08-29T13:49:34.000Z</time>
                <name>Trackpoint 5073</name>
            </trkpt>
            <trkpt lat="49.7952384" lon="9.1631944">
                <ele>122.0</ele>
                <time>2020-08-29T13:49:36.000Z</time>
                <name>Trackpoint 5074</name>
            </trkpt>
            <trkpt lat="49.7953312" lon="9.1631184">
                <ele>122.0</ele>
                <time>2020-08-29T13:49:38.000Z</time>
                <name>Trackpoint 5075</name>
            </trkpt>
            <trkpt lat="49.7954336" lon="9.1630448">
                <ele>122.0</ele>
                <time>2020-08-29T13:49:40.000Z</time>
                <name>Trackpoint 5076</name>
            </trkpt>
            <trkpt lat="49.7955168" lon="9.1629536">
                <ele>122.0</ele>
                <time>2020-08-29T13:49:42.000Z</time>
                <name>Trackpoint 5077</name>
            </trkpt>
            <trkpt lat="49.7956032" lon="9.1628504">
                <ele>122.0</ele>
                <time>2020-08-29T13:49:44.000Z</time>
                <name>Trackpoint 5078</name>
            </trkpt>
            <trkpt lat="49.7956928" lon="9.1627552">
                <ele>122.0</ele>
                <time>2020-08-29T13:49:46.000Z</time>
                <name>Trackpoint 5079</name>
            </trkpt>
            <trkpt lat="49.7957792" lon="9.1626552">
                <ele>122.0</ele>
                <time>2020-08-29T13:49:48.000Z</time>
                <name>Trackpoint 5080</name>
            </trkpt>
            <trkpt lat="49.7958688" lon="9.162548">
                <ele>122.0</ele>
                <time>2020-08-29T13:49:50.000Z</time>
                <name>Trackpoint 5081</name>
            </trkpt>
            <trkpt lat="49.7959392" lon="9.1624344">
                <ele>122.0</ele>
                <time>2020-08-29T13:49:52.000Z</time>
                <name>Trackpoint 5082</name>
            </trkpt>
            <trkpt lat="49.7960256" lon="9.1623272">
                <ele>122.0</ele>
                <time>2020-08-29T13:49:54.000Z</time>
                <name>Trackpoint 5083</name>
            </trkpt>
            <trkpt lat="49.796096" lon="9.16222">
                <ele>122.0</ele>
                <time>2020-08-29T13:49:56.000Z</time>
                <name>Trackpoint 5084</name>
            </trkpt>
            <trkpt lat="49.7961632" lon="9.162104">
                <ele>122.0</ele>
                <time>2020-08-29T13:49:58.000Z</time>
                <name>Trackpoint 5085</name>
            </trkpt>
            <trkpt lat="49.7962496" lon="9.161992">
                <ele>121.0</ele>
                <time>2020-08-29T13:50:00.000Z</time>
                <name>Trackpoint 5086</name>
            </trkpt>
            <trkpt lat="49.796336" lon="9.1618768">
                <ele>121.0</ele>
                <time>2020-08-29T13:50:02.000Z</time>
                <name>Trackpoint 5087</name>
            </trkpt>
            <trkpt lat="49.7964128" lon="9.16176">
                <ele>121.0</ele>
                <time>2020-08-29T13:50:04.000Z</time>
                <name>Trackpoint 5088</name>
            </trkpt>
            <trkpt lat="49.7964864" lon="9.161652">
                <ele>121.0</ele>
                <time>2020-08-29T13:50:06.000Z</time>
                <name>Trackpoint 5089</name>
            </trkpt>
            <trkpt lat="49.7965536" lon="9.1615464">
                <ele>121.0</ele>
                <time>2020-08-29T13:50:08.000Z</time>
                <name>Trackpoint 5090</name>
            </trkpt>
            <trkpt lat="49.796624" lon="9.1614464">
                <ele>121.0</ele>
                <time>2020-08-29T13:50:10.000Z</time>
                <name>Trackpoint 5091</name>
            </trkpt>
            <trkpt lat="49.7966912" lon="9.1613464">
                <ele>121.0</ele>
                <time>2020-08-29T13:50:12.000Z</time>
                <name>Trackpoint 5092</name>
            </trkpt>
            <trkpt lat="49.7967488" lon="9.1612552">
                <ele>121.0</ele>
                <time>2020-08-29T13:50:14.000Z</time>
                <name>Trackpoint 5093</name>
            </trkpt>
            <trkpt lat="49.7967936" lon="9.161168">
                <ele>121.0</ele>
                <time>2020-08-29T13:50:16.000Z</time>
                <name>Trackpoint 5094</name>
            </trkpt>
            <trkpt lat="49.7968448" lon="9.1610848">
                <ele>122.0</ele>
                <time>2020-08-29T13:50:18.000Z</time>
                <name>Trackpoint 5095</name>
            </trkpt>
            <trkpt lat="49.7968864" lon="9.1610016">
                <ele>121.0</ele>
                <time>2020-08-29T13:50:20.000Z</time>
                <name>Trackpoint 5096</name>
            </trkpt>
            <trkpt lat="49.7969312" lon="9.1609064">
                <ele>121.0</ele>
                <time>2020-08-29T13:50:23.000Z</time>
                <name>Trackpoint 5097</name>
            </trkpt>
            <trkpt lat="49.7969408" lon="9.1608136">
                <ele>120.0</ele>
                <time>2020-08-29T13:51:07.000Z</time>
                <name>Trackpoint 5098</name>
            </trkpt>
            <trkpt lat="49.79696" lon="9.1607152">
                <ele>120.0</ele>
                <time>2020-08-29T13:51:11.000Z</time>
                <name>Trackpoint 5099</name>
            </trkpt>
            <trkpt lat="49.7970016" lon="9.160612">
                <ele>120.0</ele>
                <time>2020-08-29T13:51:14.000Z</time>
                <name>Trackpoint 5100</name>
            </trkpt>
            <trkpt lat="49.7971008" lon="9.1605384">
                <ele>120.0</ele>
                <time>2020-08-29T13:51:17.000Z</time>
                <name>Trackpoint 5101</name>
            </trkpt>
            <trkpt lat="49.7971904" lon="9.1604632">
                <ele>119.0</ele>
                <time>2020-08-29T13:51:19.000Z</time>
                <name>Trackpoint 5102</name>
            </trkpt>
            <trkpt lat="49.79728" lon="9.1603816">
                <ele>119.0</ele>
                <time>2020-08-29T13:51:21.000Z</time>
                <name>Trackpoint 5103</name>
            </trkpt>
            <trkpt lat="49.79736" lon="9.1602944">
                <ele>119.0</ele>
                <time>2020-08-29T13:51:23.000Z</time>
                <name>Trackpoint 5104</name>
            </trkpt>
            <trkpt lat="49.7974272" lon="9.1602">
                <ele>119.0</ele>
                <time>2020-08-29T13:51:25.000Z</time>
                <name>Trackpoint 5105</name>
            </trkpt>
            <trkpt lat="49.7974816" lon="9.1601016">
                <ele>119.0</ele>
                <time>2020-08-29T13:51:27.000Z</time>
                <name>Trackpoint 5106</name>
            </trkpt>
            <trkpt lat="49.7975392" lon="9.1600016">
                <ele>119.0</ele>
                <time>2020-08-29T13:51:29.000Z</time>
                <name>Trackpoint 5107</name>
            </trkpt>
            <trkpt lat="49.7975936" lon="9.1599">
                <ele>119.0</ele>
                <time>2020-08-29T13:51:31.000Z</time>
                <name>Trackpoint 5108</name>
            </trkpt>
            <trkpt lat="49.7976448" lon="9.159792">
                <ele>119.0</ele>
                <time>2020-08-29T13:51:33.000Z</time>
                <name>Trackpoint 5109</name>
            </trkpt>
            <trkpt lat="49.7977024" lon="9.15968">
                <ele>119.0</ele>
                <time>2020-08-29T13:51:35.000Z</time>
                <name>Trackpoint 5110</name>
            </trkpt>
            <trkpt lat="49.7977568" lon="9.1595672">
                <ele>119.0</ele>
                <time>2020-08-29T13:51:37.000Z</time>
                <name>Trackpoint 5111</name>
            </trkpt>
            <trkpt lat="49.7978176" lon="9.1594584">
                <ele>119.0</ele>
                <time>2020-08-29T13:51:39.000Z</time>
                <name>Trackpoint 5112</name>
            </trkpt>
            <trkpt lat="49.7978784" lon="9.1593448">
                <ele>119.0</ele>
                <time>2020-08-29T13:51:41.000Z</time>
                <name>Trackpoint 5113</name>
            </trkpt>
            <trkpt lat="49.7979392" lon="9.1592304">
                <ele>119.0</ele>
                <time>2020-08-29T13:51:43.000Z</time>
                <name>Trackpoint 5114</name>
            </trkpt>
            <trkpt lat="49.7980032" lon="9.1591104">
                <ele>119.0</ele>
                <time>2020-08-29T13:51:45.000Z</time>
                <name>Trackpoint 5115</name>
            </trkpt>
            <trkpt lat="49.798064" lon="9.1589944">
                <ele>119.0</ele>
                <time>2020-08-29T13:51:47.000Z</time>
                <name>Trackpoint 5116</name>
            </trkpt>
            <trkpt lat="49.7981344" lon="9.1588752">
                <ele>119.0</ele>
                <time>2020-08-29T13:51:49.000Z</time>
                <name>Trackpoint 5117</name>
            </trkpt>
            <trkpt lat="49.7981984" lon="9.15876">
                <ele>119.0</ele>
                <time>2020-08-29T13:51:51.000Z</time>
                <name>Trackpoint 5118</name>
            </trkpt>
            <trkpt lat="49.7982336" lon="9.1586448">
                <ele>119.0</ele>
                <time>2020-08-29T13:51:53.000Z</time>
                <name>Trackpoint 5119</name>
            </trkpt>
            <trkpt lat="49.7982528" lon="9.1585376">
                <ele>119.0</ele>
                <time>2020-08-29T13:51:55.000Z</time>
                <name>Trackpoint 5120</name>
            </trkpt>
            <trkpt lat="49.7982592" lon="9.1584416">
                <ele>119.0</ele>
                <time>2020-08-29T13:52:25.000Z</time>
                <name>Trackpoint 5121</name>
            </trkpt>
            <trkpt lat="49.7983008" lon="9.1583496">
                <ele>119.0</ele>
                <time>2020-08-29T13:52:29.000Z</time>
                <name>Trackpoint 5122</name>
            </trkpt>
            <trkpt lat="49.7983584" lon="9.1582296">
                <ele>119.0</ele>
                <time>2020-08-29T13:52:32.000Z</time>
                <name>Trackpoint 5123</name>
            </trkpt>
            <trkpt lat="49.7983936" lon="9.1581384">
                <ele>119.0</ele>
                <time>2020-08-29T13:52:34.000Z</time>
                <name>Trackpoint 5124</name>
            </trkpt>
            <trkpt lat="49.798448" lon="9.1580448">
                <ele>119.0</ele>
                <time>2020-08-29T13:52:36.000Z</time>
                <name>Trackpoint 5125</name>
            </trkpt>
            <trkpt lat="49.7985024" lon="9.1579448">
                <ele>119.0</ele>
                <time>2020-08-29T13:52:38.000Z</time>
                <name>Trackpoint 5126</name>
            </trkpt>
            <trkpt lat="49.7985536" lon="9.1578328">
                <ele>119.0</ele>
                <time>2020-08-29T13:52:40.000Z</time>
                <name>Trackpoint 5127</name>
            </trkpt>
            <trkpt lat="49.7986176" lon="9.1577232">
                <ele>119.0</ele>
                <time>2020-08-29T13:52:42.000Z</time>
                <name>Trackpoint 5128</name>
            </trkpt>
            <trkpt lat="49.798672" lon="9.157592">
                <ele>119.0</ele>
                <time>2020-08-29T13:52:44.000Z</time>
                <name>Trackpoint 5129</name>
            </trkpt>
            <trkpt lat="49.79872" lon="9.1574624">
                <ele>119.0</ele>
                <time>2020-08-29T13:52:46.000Z</time>
                <name>Trackpoint 5130</name>
            </trkpt>
            <trkpt lat="49.7987744" lon="9.1573296">
                <ele>119.0</ele>
                <time>2020-08-29T13:52:48.000Z</time>
                <name>Trackpoint 5131</name>
            </trkpt>
            <trkpt lat="49.7988288" lon="9.1572136">
                <ele>120.0</ele>
                <time>2020-08-29T13:52:50.000Z</time>
                <name>Trackpoint 5132</name>
            </trkpt>
            <trkpt lat="49.7988736" lon="9.1571032">
                <ele>120.0</ele>
                <time>2020-08-29T13:52:52.000Z</time>
                <name>Trackpoint 5133</name>
            </trkpt>
            <trkpt lat="49.7989248" lon="9.1569904">
                <ele>120.0</ele>
                <time>2020-08-29T13:52:54.000Z</time>
                <name>Trackpoint 5134</name>
            </trkpt>
            <trkpt lat="49.7989632" lon="9.15688">
                <ele>120.0</ele>
                <time>2020-08-29T13:52:56.000Z</time>
                <name>Trackpoint 5135</name>
            </trkpt>
            <trkpt lat="49.7990144" lon="9.1567736">
                <ele>120.0</ele>
                <time>2020-08-29T13:52:58.000Z</time>
                <name>Trackpoint 5136</name>
            </trkpt>
            <trkpt lat="49.7990752" lon="9.1566432">
                <ele>120.0</ele>
                <time>2020-08-29T13:53:00.000Z</time>
                <name>Trackpoint 5137</name>
            </trkpt>
            <trkpt lat="49.7991328" lon="9.1564904">
                <ele>120.0</ele>
                <time>2020-08-29T13:53:02.000Z</time>
                <name>Trackpoint 5138</name>
            </trkpt>
            <trkpt lat="49.7992032" lon="9.1563368">
                <ele>119.0</ele>
                <time>2020-08-29T13:53:04.000Z</time>
                <name>Trackpoint 5139</name>
            </trkpt>
            <trkpt lat="49.7992736" lon="9.1561768">
                <ele>119.0</ele>
                <time>2020-08-29T13:53:06.000Z</time>
                <name>Trackpoint 5140</name>
            </trkpt>
            <trkpt lat="49.7993536" lon="9.15602">
                <ele>120.0</ele>
                <time>2020-08-29T13:53:08.000Z</time>
                <name>Trackpoint 5141</name>
            </trkpt>
            <trkpt lat="49.7994304" lon="9.155864">
                <ele>120.0</ele>
                <time>2020-08-29T13:53:10.000Z</time>
                <name>Trackpoint 5142</name>
            </trkpt>
            <trkpt lat="49.799504" lon="9.1557032">
                <ele>120.0</ele>
                <time>2020-08-29T13:53:12.000Z</time>
                <name>Trackpoint 5143</name>
            </trkpt>
            <trkpt lat="49.799568" lon="9.1555336">
                <ele>120.0</ele>
                <time>2020-08-29T13:53:14.000Z</time>
                <name>Trackpoint 5144</name>
            </trkpt>
            <trkpt lat="49.7996096" lon="9.1553584">
                <ele>121.0</ele>
                <time>2020-08-29T13:53:16.000Z</time>
                <name>Trackpoint 5145</name>
            </trkpt>
            <trkpt lat="49.7996256" lon="9.1552696">
                <ele>121.0</ele>
                <time>2020-08-29T13:53:17.000Z</time>
                <name>Trackpoint 5146</name>
            </trkpt>
            <trkpt lat="49.7996544" lon="9.1550912">
                <ele>120.0</ele>
                <time>2020-08-29T13:53:19.000Z</time>
                <name>Trackpoint 5147</name>
            </trkpt>
            <trkpt lat="49.7996736" lon="9.1550032">
                <ele>120.0</ele>
                <time>2020-08-29T13:53:20.000Z</time>
                <name>Trackpoint 5148</name>
            </trkpt>
            <trkpt lat="49.7996928" lon="9.1549152">
                <ele>120.0</ele>
                <time>2020-08-29T13:53:21.000Z</time>
                <name>Trackpoint 5149</name>
            </trkpt>
            <trkpt lat="49.7997184" lon="9.1548232">
                <ele>120.0</ele>
                <time>2020-08-29T13:53:22.000Z</time>
                <name>Trackpoint 5150</name>
            </trkpt>
            <trkpt lat="49.799744" lon="9.1547368">
                <ele>120.0</ele>
                <time>2020-08-29T13:53:23.000Z</time>
                <name>Trackpoint 5151</name>
            </trkpt>
            <trkpt lat="49.7997696" lon="9.1546488">
                <ele>120.0</ele>
                <time>2020-08-29T13:53:24.000Z</time>
                <name>Trackpoint 5152</name>
            </trkpt>
            <trkpt lat="49.7997984" lon="9.15456">
                <ele>120.0</ele>
                <time>2020-08-29T13:53:25.000Z</time>
                <name>Trackpoint 5153</name>
            </trkpt>
            <trkpt lat="49.799824" lon="9.1544736">
                <ele>120.0</ele>
                <time>2020-08-29T13:53:26.000Z</time>
                <name>Trackpoint 5154</name>
            </trkpt>
            <trkpt lat="49.7998496" lon="9.154384">
                <ele>120.0</ele>
                <time>2020-08-29T13:53:27.000Z</time>
                <name>Trackpoint 5155</name>
            </trkpt>
            <trkpt lat="49.7998816" lon="9.1542984">
                <ele>120.0</ele>
                <time>2020-08-29T13:53:28.000Z</time>
                <name>Trackpoint 5156</name>
            </trkpt>
            <trkpt lat="49.7999072" lon="9.154212">
                <ele>120.0</ele>
                <time>2020-08-29T13:53:29.000Z</time>
                <name>Trackpoint 5157</name>
            </trkpt>
            <trkpt lat="49.7999328" lon="9.1541232">
                <ele>120.0</ele>
                <time>2020-08-29T13:53:30.000Z</time>
                <name>Trackpoint 5158</name>
            </trkpt>
            <trkpt lat="49.7999872" lon="9.1539488">
                <ele>120.0</ele>
                <time>2020-08-29T13:53:32.000Z</time>
                <name>Trackpoint 5159</name>
            </trkpt>
            <trkpt lat="49.800016" lon="9.1538616">
                <ele>120.0</ele>
                <time>2020-08-29T13:53:33.000Z</time>
                <name>Trackpoint 5160</name>
            </trkpt>
            <trkpt lat="49.8000416" lon="9.1537712">
                <ele>120.0</ele>
                <time>2020-08-29T13:53:34.000Z</time>
                <name>Trackpoint 5161</name>
            </trkpt>
            <trkpt lat="49.8000672" lon="9.1536816">
                <ele>120.0</ele>
                <time>2020-08-29T13:53:35.000Z</time>
                <name>Trackpoint 5162</name>
            </trkpt>
            <trkpt lat="49.800096" lon="9.1535952">
                <ele>120.0</ele>
                <time>2020-08-29T13:53:36.000Z</time>
                <name>Trackpoint 5163</name>
            </trkpt>
            <trkpt lat="49.8001216" lon="9.153508">
                <ele>120.0</ele>
                <time>2020-08-29T13:53:37.000Z</time>
                <name>Trackpoint 5164</name>
            </trkpt>
            <trkpt lat="49.8001504" lon="9.1534216">
                <ele>120.0</ele>
                <time>2020-08-29T13:53:38.000Z</time>
                <name>Trackpoint 5165</name>
            </trkpt>
            <trkpt lat="49.8002144" lon="9.1532536">
                <ele>120.0</ele>
                <time>2020-08-29T13:53:40.000Z</time>
                <name>Trackpoint 5166</name>
            </trkpt>
            <trkpt lat="49.8002432" lon="9.1531664">
                <ele>121.0</ele>
                <time>2020-08-29T13:53:41.000Z</time>
                <name>Trackpoint 5167</name>
            </trkpt>
            <trkpt lat="49.8002784" lon="9.1530816">
                <ele>120.0</ele>
                <time>2020-08-29T13:53:42.000Z</time>
                <name>Trackpoint 5168</name>
            </trkpt>
            <trkpt lat="49.800336" lon="9.1529128">
                <ele>120.0</ele>
                <time>2020-08-29T13:53:44.000Z</time>
                <name>Trackpoint 5169</name>
            </trkpt>
            <trkpt lat="49.8003616" lon="9.1528264">
                <ele>120.0</ele>
                <time>2020-08-29T13:53:45.000Z</time>
                <name>Trackpoint 5170</name>
            </trkpt>
            <trkpt lat="49.800416" lon="9.1526736">
                <ele>121.0</ele>
                <time>2020-08-29T13:53:47.000Z</time>
                <name>Trackpoint 5171</name>
            </trkpt>
            <trkpt lat="49.800464" lon="9.152536">
                <ele>121.0</ele>
                <time>2020-08-29T13:53:49.000Z</time>
                <name>Trackpoint 5172</name>
            </trkpt>
            <trkpt lat="49.8005152" lon="9.1524048">
                <ele>121.0</ele>
                <time>2020-08-29T13:53:51.000Z</time>
                <name>Trackpoint 5173</name>
            </trkpt>
            <trkpt lat="49.8005664" lon="9.1522664">
                <ele>121.0</ele>
                <time>2020-08-29T13:53:53.000Z</time>
                <name>Trackpoint 5174</name>
            </trkpt>
            <trkpt lat="49.8006208" lon="9.152132">
                <ele>120.0</ele>
                <time>2020-08-29T13:53:55.000Z</time>
                <name>Trackpoint 5175</name>
            </trkpt>
            <trkpt lat="49.8006784" lon="9.1519944">
                <ele>120.0</ele>
                <time>2020-08-29T13:53:57.000Z</time>
                <name>Trackpoint 5176</name>
            </trkpt>
            <trkpt lat="49.8007328" lon="9.1518584">
                <ele>121.0</ele>
                <time>2020-08-29T13:53:59.000Z</time>
                <name>Trackpoint 5177</name>
            </trkpt>
            <trkpt lat="49.8007936" lon="9.1517216">
                <ele>120.0</ele>
                <time>2020-08-29T13:54:01.000Z</time>
                <name>Trackpoint 5178</name>
            </trkpt>
            <trkpt lat="49.8008448" lon="9.15158">
                <ele>121.0</ele>
                <time>2020-08-29T13:54:03.000Z</time>
                <name>Trackpoint 5179</name>
            </trkpt>
            <trkpt lat="49.8009024" lon="9.1514416">
                <ele>121.0</ele>
                <time>2020-08-29T13:54:05.000Z</time>
                <name>Trackpoint 5180</name>
            </trkpt>
            <trkpt lat="49.8009568" lon="9.1512936">
                <ele>120.0</ele>
                <time>2020-08-29T13:54:07.000Z</time>
                <name>Trackpoint 5181</name>
            </trkpt>
            <trkpt lat="49.8010144" lon="9.1511472">
                <ele>120.0</ele>
                <time>2020-08-29T13:54:09.000Z</time>
                <name>Trackpoint 5182</name>
            </trkpt>
            <trkpt lat="49.8010752" lon="9.1509984">
                <ele>120.0</ele>
                <time>2020-08-29T13:54:11.000Z</time>
                <name>Trackpoint 5183</name>
            </trkpt>
            <trkpt lat="49.8011328" lon="9.150844">
                <ele>120.0</ele>
                <time>2020-08-29T13:54:13.000Z</time>
                <name>Trackpoint 5184</name>
            </trkpt>
            <trkpt lat="49.8011808" lon="9.1506856">
                <ele>120.0</ele>
                <time>2020-08-29T13:54:15.000Z</time>
                <name>Trackpoint 5185</name>
            </trkpt>
            <trkpt lat="49.8012416" lon="9.1505336">
                <ele>120.0</ele>
                <time>2020-08-29T13:54:17.000Z</time>
                <name>Trackpoint 5186</name>
            </trkpt>
            <trkpt lat="49.8013024" lon="9.15038">
                <ele>120.0</ele>
                <time>2020-08-29T13:54:19.000Z</time>
                <name>Trackpoint 5187</name>
            </trkpt>
            <trkpt lat="49.8013664" lon="9.1502264">
                <ele>120.0</ele>
                <time>2020-08-29T13:54:21.000Z</time>
                <name>Trackpoint 5188</name>
            </trkpt>
            <trkpt lat="49.8014176" lon="9.150072">
                <ele>120.0</ele>
                <time>2020-08-29T13:54:23.000Z</time>
                <name>Trackpoint 5189</name>
            </trkpt>
            <trkpt lat="49.801472" lon="9.1499208">
                <ele>120.0</ele>
                <time>2020-08-29T13:54:25.000Z</time>
                <name>Trackpoint 5190</name>
            </trkpt>
            <trkpt lat="49.8015264" lon="9.1497696">
                <ele>120.0</ele>
                <time>2020-08-29T13:54:27.000Z</time>
                <name>Trackpoint 5191</name>
            </trkpt>
            <trkpt lat="49.8015776" lon="9.1496264">
                <ele>120.0</ele>
                <time>2020-08-29T13:54:29.000Z</time>
                <name>Trackpoint 5192</name>
            </trkpt>
            <trkpt lat="49.8016352" lon="9.14948">
                <ele>119.0</ele>
                <time>2020-08-29T13:54:31.000Z</time>
                <name>Trackpoint 5193</name>
            </trkpt>
            <trkpt lat="49.8016896" lon="9.1493416">
                <ele>119.0</ele>
                <time>2020-08-29T13:54:33.000Z</time>
                <name>Trackpoint 5194</name>
            </trkpt>
            <trkpt lat="49.8017376" lon="9.149212">
                <ele>120.0</ele>
                <time>2020-08-29T13:54:35.000Z</time>
                <name>Trackpoint 5195</name>
            </trkpt>
            <trkpt lat="49.8017856" lon="9.1490848">
                <ele>119.0</ele>
                <time>2020-08-29T13:54:37.000Z</time>
                <name>Trackpoint 5196</name>
            </trkpt>
            <trkpt lat="49.8018272" lon="9.1489624">
                <ele>119.0</ele>
                <time>2020-08-29T13:54:39.000Z</time>
                <name>Trackpoint 5197</name>
            </trkpt>
            <trkpt lat="49.801872" lon="9.1488304">
                <ele>119.0</ele>
                <time>2020-08-29T13:54:41.000Z</time>
                <name>Trackpoint 5198</name>
            </trkpt>
            <trkpt lat="49.8019232" lon="9.1486832">
                <ele>119.0</ele>
                <time>2020-08-29T13:54:43.000Z</time>
                <name>Trackpoint 5199</name>
            </trkpt>
            <trkpt lat="49.8019648" lon="9.1485384">
                <ele>120.0</ele>
                <time>2020-08-29T13:54:45.000Z</time>
                <name>Trackpoint 5200</name>
            </trkpt>
            <trkpt lat="49.8020096" lon="9.14838">
                <ele>120.0</ele>
                <time>2020-08-29T13:54:47.000Z</time>
                <name>Trackpoint 5201</name>
            </trkpt>
            <trkpt lat="49.8020544" lon="9.1482264">
                <ele>120.0</ele>
                <time>2020-08-29T13:54:49.000Z</time>
                <name>Trackpoint 5202</name>
            </trkpt>
            <trkpt lat="49.802096" lon="9.1480728">
                <ele>120.0</ele>
                <time>2020-08-29T13:54:51.000Z</time>
                <name>Trackpoint 5203</name>
            </trkpt>
            <trkpt lat="49.8021408" lon="9.147928">
                <ele>121.0</ele>
                <time>2020-08-29T13:54:53.000Z</time>
                <name>Trackpoint 5204</name>
            </trkpt>
            <trkpt lat="49.8021728" lon="9.147772">
                <ele>121.0</ele>
                <time>2020-08-29T13:54:55.000Z</time>
                <name>Trackpoint 5205</name>
            </trkpt>
            <trkpt lat="49.8022112" lon="9.1476248">
                <ele>121.0</ele>
                <time>2020-08-29T13:54:57.000Z</time>
                <name>Trackpoint 5206</name>
            </trkpt>
            <trkpt lat="49.802256" lon="9.1474712">
                <ele>121.0</ele>
                <time>2020-08-29T13:54:59.000Z</time>
                <name>Trackpoint 5207</name>
            </trkpt>
            <trkpt lat="49.802304" lon="9.1473176">
                <ele>120.0</ele>
                <time>2020-08-29T13:55:01.000Z</time>
                <name>Trackpoint 5208</name>
            </trkpt>
            <trkpt lat="49.8023488" lon="9.147168">
                <ele>120.0</ele>
                <time>2020-08-29T13:55:03.000Z</time>
                <name>Trackpoint 5209</name>
            </trkpt>
            <trkpt lat="49.8024" lon="9.1470232">
                <ele>122.0</ele>
                <time>2020-08-29T13:55:05.000Z</time>
                <name>Trackpoint 5210</name>
            </trkpt>
            <trkpt lat="49.8024448" lon="9.1468752">
                <ele>122.0</ele>
                <time>2020-08-29T13:55:07.000Z</time>
                <name>Trackpoint 5211</name>
            </trkpt>
            <trkpt lat="49.8024992" lon="9.1467384">
                <ele>122.0</ele>
                <time>2020-08-29T13:55:09.000Z</time>
                <name>Trackpoint 5212</name>
            </trkpt>
            <trkpt lat="49.8025472" lon="9.1466104">
                <ele>122.0</ele>
                <time>2020-08-29T13:55:11.000Z</time>
                <name>Trackpoint 5213</name>
            </trkpt>
            <trkpt lat="49.8025984" lon="9.1464704">
                <ele>122.0</ele>
                <time>2020-08-29T13:55:13.000Z</time>
                <name>Trackpoint 5214</name>
            </trkpt>
            <trkpt lat="49.8026464" lon="9.1463336">
                <ele>121.0</ele>
                <time>2020-08-29T13:55:15.000Z</time>
                <name>Trackpoint 5215</name>
            </trkpt>
            <trkpt lat="49.802688" lon="9.1461912">
                <ele>121.0</ele>
                <time>2020-08-29T13:55:17.000Z</time>
                <name>Trackpoint 5216</name>
            </trkpt>
            <trkpt lat="49.8027296" lon="9.1460504">
                <ele>121.0</ele>
                <time>2020-08-29T13:55:19.000Z</time>
                <name>Trackpoint 5217</name>
            </trkpt>
            <trkpt lat="49.8027712" lon="9.145908">
                <ele>120.0</ele>
                <time>2020-08-29T13:55:21.000Z</time>
                <name>Trackpoint 5218</name>
            </trkpt>
            <trkpt lat="49.8028192" lon="9.1457784">
                <ele>120.0</ele>
                <time>2020-08-29T13:55:23.000Z</time>
                <name>Trackpoint 5219</name>
            </trkpt>
            <trkpt lat="49.8028608" lon="9.1456336">
                <ele>120.0</ele>
                <time>2020-08-29T13:55:25.000Z</time>
                <name>Trackpoint 5220</name>
            </trkpt>
            <trkpt lat="49.8029088" lon="9.1454952">
                <ele>120.0</ele>
                <time>2020-08-29T13:55:27.000Z</time>
                <name>Trackpoint 5221</name>
            </trkpt>
            <trkpt lat="49.8029568" lon="9.1453552">
                <ele>120.0</ele>
                <time>2020-08-29T13:55:29.000Z</time>
                <name>Trackpoint 5222</name>
            </trkpt>
            <trkpt lat="49.8030016" lon="9.1452168">
                <ele>119.0</ele>
                <time>2020-08-29T13:55:31.000Z</time>
                <name>Trackpoint 5223</name>
            </trkpt>
            <trkpt lat="49.8030432" lon="9.14508">
                <ele>119.0</ele>
                <time>2020-08-29T13:55:33.000Z</time>
                <name>Trackpoint 5224</name>
            </trkpt>
            <trkpt lat="49.803088" lon="9.1449432">
                <ele>119.0</ele>
                <time>2020-08-29T13:55:35.000Z</time>
                <name>Trackpoint 5225</name>
            </trkpt>
            <trkpt lat="49.803136" lon="9.1448048">
                <ele>119.0</ele>
                <time>2020-08-29T13:55:37.000Z</time>
                <name>Trackpoint 5226</name>
            </trkpt>
            <trkpt lat="49.8031808" lon="9.1446664">
                <ele>119.0</ele>
                <time>2020-08-29T13:55:39.000Z</time>
                <name>Trackpoint 5227</name>
            </trkpt>
            <trkpt lat="49.8032256" lon="9.1445264">
                <ele>119.0</ele>
                <time>2020-08-29T13:55:41.000Z</time>
                <name>Trackpoint 5228</name>
            </trkpt>
            <trkpt lat="49.80328" lon="9.144392">
                <ele>119.0</ele>
                <time>2020-08-29T13:55:43.000Z</time>
                <name>Trackpoint 5229</name>
            </trkpt>
            <trkpt lat="49.8033248" lon="9.1442536">
                <ele>119.0</ele>
                <time>2020-08-29T13:55:45.000Z</time>
                <name>Trackpoint 5230</name>
            </trkpt>
            <trkpt lat="49.8033568" lon="9.144112">
                <ele>119.0</ele>
                <time>2020-08-29T13:55:47.000Z</time>
                <name>Trackpoint 5231</name>
            </trkpt>
            <trkpt lat="49.803344" lon="9.1439648">
                <ele>120.0</ele>
                <time>2020-08-29T13:55:49.000Z</time>
                <name>Trackpoint 5232</name>
            </trkpt>
            <trkpt lat="49.803296" lon="9.1438504">
                <ele>120.0</ele>
                <time>2020-08-29T13:55:51.000Z</time>
                <name>Trackpoint 5233</name>
            </trkpt>
            <trkpt lat="49.8032288" lon="9.1437584">
                <ele>121.0</ele>
                <time>2020-08-29T13:55:53.000Z</time>
                <name>Trackpoint 5234</name>
            </trkpt>
            <trkpt lat="49.8031616" lon="9.1436728">
                <ele>121.0</ele>
                <time>2020-08-29T13:55:55.000Z</time>
                <name>Trackpoint 5235</name>
            </trkpt>
            <trkpt lat="49.8030976" lon="9.143588">
                <ele>121.0</ele>
                <time>2020-08-29T13:55:57.000Z</time>
                <name>Trackpoint 5236</name>
            </trkpt>
            <trkpt lat="49.8030304" lon="9.1435048">
                <ele>121.0</ele>
                <time>2020-08-29T13:55:59.000Z</time>
                <name>Trackpoint 5237</name>
            </trkpt>
            <trkpt lat="49.8029664" lon="9.14342">
                <ele>121.0</ele>
                <time>2020-08-29T13:56:01.000Z</time>
                <name>Trackpoint 5238</name>
            </trkpt>
            <trkpt lat="49.8029184" lon="9.1433232">
                <ele>121.0</ele>
                <time>2020-08-29T13:56:03.000Z</time>
                <name>Trackpoint 5239</name>
            </trkpt>
            <trkpt lat="49.8028704" lon="9.1432216">
                <ele>122.0</ele>
                <time>2020-08-29T13:56:05.000Z</time>
                <name>Trackpoint 5240</name>
            </trkpt>
            <trkpt lat="49.802832" lon="9.1431168">
                <ele>122.0</ele>
                <time>2020-08-29T13:56:07.000Z</time>
                <name>Trackpoint 5241</name>
            </trkpt>
            <trkpt lat="49.8028064" lon="9.1430168">
                <ele>122.0</ele>
                <time>2020-08-29T13:56:09.000Z</time>
                <name>Trackpoint 5242</name>
            </trkpt>
            <trkpt lat="49.8028064" lon="9.1429104">
                <ele>122.0</ele>
                <time>2020-08-29T13:56:11.000Z</time>
                <name>Trackpoint 5243</name>
            </trkpt>
            <trkpt lat="49.802848" lon="9.1428072">
                <ele>122.0</ele>
                <time>2020-08-29T13:56:13.000Z</time>
                <name>Trackpoint 5244</name>
            </trkpt>
            <trkpt lat="49.8028992" lon="9.1427">
                <ele>122.0</ele>
                <time>2020-08-29T13:56:15.000Z</time>
                <name>Trackpoint 5245</name>
            </trkpt>
            <trkpt lat="49.8029408" lon="9.1425816">
                <ele>122.0</ele>
                <time>2020-08-29T13:56:17.000Z</time>
                <name>Trackpoint 5246</name>
            </trkpt>
            <trkpt lat="49.8029888" lon="9.1424616">
                <ele>122.0</ele>
                <time>2020-08-29T13:56:19.000Z</time>
                <name>Trackpoint 5247</name>
            </trkpt>
            <trkpt lat="49.8030208" lon="9.1423304">
                <ele>122.0</ele>
                <time>2020-08-29T13:56:21.000Z</time>
                <name>Trackpoint 5248</name>
            </trkpt>
            <trkpt lat="49.8030432" lon="9.142192">
                <ele>121.0</ele>
                <time>2020-08-29T13:56:23.000Z</time>
                <name>Trackpoint 5249</name>
            </trkpt>
            <trkpt lat="49.8030784" lon="9.1420568">
                <ele>121.0</ele>
                <time>2020-08-29T13:56:25.000Z</time>
                <name>Trackpoint 5250</name>
            </trkpt>
            <trkpt lat="49.8031136" lon="9.1419184">
                <ele>121.0</ele>
                <time>2020-08-29T13:56:27.000Z</time>
                <name>Trackpoint 5251</name>
            </trkpt>
            <trkpt lat="49.8031488" lon="9.1417816">
                <ele>122.0</ele>
                <time>2020-08-29T13:56:29.000Z</time>
                <name>Trackpoint 5252</name>
            </trkpt>
            <trkpt lat="49.8032" lon="9.1416456">
                <ele>121.0</ele>
                <time>2020-08-29T13:56:31.000Z</time>
                <name>Trackpoint 5253</name>
            </trkpt>
            <trkpt lat="49.8032544" lon="9.1415032">
                <ele>121.0</ele>
                <time>2020-08-29T13:56:33.000Z</time>
                <name>Trackpoint 5254</name>
            </trkpt>
            <trkpt lat="49.8033088" lon="9.141368">
                <ele>121.0</ele>
                <time>2020-08-29T13:56:35.000Z</time>
                <name>Trackpoint 5255</name>
            </trkpt>
            <trkpt lat="49.8033664" lon="9.1412312">
                <ele>121.0</ele>
                <time>2020-08-29T13:56:37.000Z</time>
                <name>Trackpoint 5256</name>
            </trkpt>
            <trkpt lat="49.8034208" lon="9.1411">
                <ele>122.0</ele>
                <time>2020-08-29T13:56:39.000Z</time>
                <name>Trackpoint 5257</name>
            </trkpt>
            <trkpt lat="49.8034784" lon="9.1409632">
                <ele>121.0</ele>
                <time>2020-08-29T13:56:41.000Z</time>
                <name>Trackpoint 5258</name>
            </trkpt>
            <trkpt lat="49.8035456" lon="9.1408352">
                <ele>121.0</ele>
                <time>2020-08-29T13:56:43.000Z</time>
                <name>Trackpoint 5259</name>
            </trkpt>
            <trkpt lat="49.8036064" lon="9.1407072">
                <ele>122.0</ele>
                <time>2020-08-29T13:56:45.000Z</time>
                <name>Trackpoint 5260</name>
            </trkpt>
            <trkpt lat="49.8036736" lon="9.1405824">
                <ele>122.0</ele>
                <time>2020-08-29T13:56:47.000Z</time>
                <name>Trackpoint 5261</name>
            </trkpt>
            <trkpt lat="49.8037376" lon="9.1404616">
                <ele>122.0</ele>
                <time>2020-08-29T13:56:49.000Z</time>
                <name>Trackpoint 5262</name>
            </trkpt>
            <trkpt lat="49.8037984" lon="9.140344">
                <ele>121.0</ele>
                <time>2020-08-29T13:56:51.000Z</time>
                <name>Trackpoint 5263</name>
            </trkpt>
            <trkpt lat="49.8038688" lon="9.1402232">
                <ele>122.0</ele>
                <time>2020-08-29T13:56:53.000Z</time>
                <name>Trackpoint 5264</name>
            </trkpt>
            <trkpt lat="49.8039328" lon="9.1400992">
                <ele>122.0</ele>
                <time>2020-08-29T13:56:55.000Z</time>
                <name>Trackpoint 5265</name>
            </trkpt>
            <trkpt lat="49.804" lon="9.1399736">
                <ele>122.0</ele>
                <time>2020-08-29T13:56:57.000Z</time>
                <name>Trackpoint 5266</name>
            </trkpt>
            <trkpt lat="49.8040704" lon="9.1398424">
                <ele>122.0</ele>
                <time>2020-08-29T13:56:59.000Z</time>
                <name>Trackpoint 5267</name>
            </trkpt>
            <trkpt lat="49.8041408" lon="9.1397104">
                <ele>122.0</ele>
                <time>2020-08-29T13:57:01.000Z</time>
                <name>Trackpoint 5268</name>
            </trkpt>
            <trkpt lat="49.8042144" lon="9.1395752">
                <ele>122.0</ele>
                <time>2020-08-29T13:57:03.000Z</time>
                <name>Trackpoint 5269</name>
            </trkpt>
            <trkpt lat="49.804288" lon="9.1394384">
                <ele>121.0</ele>
                <time>2020-08-29T13:57:05.000Z</time>
                <name>Trackpoint 5270</name>
            </trkpt>
            <trkpt lat="49.8043648" lon="9.1393032">
                <ele>121.0</ele>
                <time>2020-08-29T13:57:07.000Z</time>
                <name>Trackpoint 5271</name>
            </trkpt>
            <trkpt lat="49.8044384" lon="9.1391696">
                <ele>121.0</ele>
                <time>2020-08-29T13:57:09.000Z</time>
                <name>Trackpoint 5272</name>
            </trkpt>
            <trkpt lat="49.8045184" lon="9.1390416">
                <ele>121.0</ele>
                <time>2020-08-29T13:57:11.000Z</time>
                <name>Trackpoint 5273</name>
            </trkpt>
            <trkpt lat="49.8045984" lon="9.1389128">
                <ele>121.0</ele>
                <time>2020-08-29T13:57:13.000Z</time>
                <name>Trackpoint 5274</name>
            </trkpt>
            <trkpt lat="49.8046784" lon="9.1387904">
                <ele>120.0</ele>
                <time>2020-08-29T13:57:15.000Z</time>
                <name>Trackpoint 5275</name>
            </trkpt>
            <trkpt lat="49.8047552" lon="9.138672">
                <ele>121.0</ele>
                <time>2020-08-29T13:57:17.000Z</time>
                <name>Trackpoint 5276</name>
            </trkpt>
            <trkpt lat="49.804832" lon="9.1385616">
                <ele>120.0</ele>
                <time>2020-08-29T13:57:19.000Z</time>
                <name>Trackpoint 5277</name>
            </trkpt>
            <trkpt lat="49.8049088" lon="9.1384496">
                <ele>120.0</ele>
                <time>2020-08-29T13:57:21.000Z</time>
                <name>Trackpoint 5278</name>
            </trkpt>
            <trkpt lat="49.8049888" lon="9.1383432">
                <ele>120.0</ele>
                <time>2020-08-29T13:57:23.000Z</time>
                <name>Trackpoint 5279</name>
            </trkpt>
            <trkpt lat="49.8050752" lon="9.1382416">
                <ele>120.0</ele>
                <time>2020-08-29T13:57:25.000Z</time>
                <name>Trackpoint 5280</name>
            </trkpt>
            <trkpt lat="49.8051616" lon="9.1381384">
                <ele>119.0</ele>
                <time>2020-08-29T13:57:27.000Z</time>
                <name>Trackpoint 5281</name>
            </trkpt>
            <trkpt lat="49.8052448" lon="9.1380352">
                <ele>119.0</ele>
                <time>2020-08-29T13:57:29.000Z</time>
                <name>Trackpoint 5282</name>
            </trkpt>
            <trkpt lat="49.805328" lon="9.1379336">
                <ele>119.0</ele>
                <time>2020-08-29T13:57:31.000Z</time>
                <name>Trackpoint 5283</name>
            </trkpt>
            <trkpt lat="49.8054176" lon="9.1378384">
                <ele>119.0</ele>
                <time>2020-08-29T13:57:33.000Z</time>
                <name>Trackpoint 5284</name>
            </trkpt>
            <trkpt lat="49.8055008" lon="9.1377496">
                <ele>119.0</ele>
                <time>2020-08-29T13:57:35.000Z</time>
                <name>Trackpoint 5285</name>
            </trkpt>
            <trkpt lat="49.8055808" lon="9.1376632">
                <ele>119.0</ele>
                <time>2020-08-29T13:57:37.000Z</time>
                <name>Trackpoint 5286</name>
            </trkpt>
            <trkpt lat="49.8056576" lon="9.1375848">
                <ele>120.0</ele>
                <time>2020-08-29T13:57:39.000Z</time>
                <name>Trackpoint 5287</name>
            </trkpt>
            <trkpt lat="49.8057152" lon="9.1375016">
                <ele>120.0</ele>
                <time>2020-08-29T13:57:41.000Z</time>
                <name>Trackpoint 5288</name>
            </trkpt>
            <trkpt lat="49.805744" lon="9.1374064">
                <ele>120.0</ele>
                <time>2020-08-29T13:57:43.000Z</time>
                <name>Trackpoint 5289</name>
            </trkpt>
            <trkpt lat="49.8057856" lon="9.1373168">
                <ele>120.0</ele>
                <time>2020-08-29T13:57:46.000Z</time>
                <name>Trackpoint 5290</name>
            </trkpt>
            <trkpt lat="49.8058688" lon="9.137232">
                <ele>121.0</ele>
                <time>2020-08-29T13:57:49.000Z</time>
                <name>Trackpoint 5291</name>
            </trkpt>
            <trkpt lat="49.8059392" lon="9.1371616">
                <ele>121.0</ele>
                <time>2020-08-29T13:57:51.000Z</time>
                <name>Trackpoint 5292</name>
            </trkpt>
            <trkpt lat="49.8060032" lon="9.1370888">
                <ele>121.0</ele>
                <time>2020-08-29T13:57:53.000Z</time>
                <name>Trackpoint 5293</name>
            </trkpt>
            <trkpt lat="49.8060736" lon="9.1370152">
                <ele>122.0</ele>
                <time>2020-08-29T13:57:55.000Z</time>
                <name>Trackpoint 5294</name>
            </trkpt>
            <trkpt lat="49.8061664" lon="9.1369248">
                <ele>122.0</ele>
                <time>2020-08-29T13:57:58.000Z</time>
                <name>Trackpoint 5295</name>
            </trkpt>
            <trkpt lat="49.8062528" lon="9.13684">
                <ele>122.0</ele>
                <time>2020-08-29T13:58:01.000Z</time>
                <name>Trackpoint 5296</name>
            </trkpt>
            <trkpt lat="49.8063392" lon="9.1367464">
                <ele>123.0</ele>
                <time>2020-08-29T13:58:04.000Z</time>
                <name>Trackpoint 5297</name>
            </trkpt>
            <trkpt lat="49.8064192" lon="9.1366632">
                <ele>123.0</ele>
                <time>2020-08-29T13:58:07.000Z</time>
                <name>Trackpoint 5298</name>
            </trkpt>
            <trkpt lat="49.8065024" lon="9.1365768">
                <ele>123.0</ele>
                <time>2020-08-29T13:58:10.000Z</time>
                <name>Trackpoint 5299</name>
            </trkpt>
            <trkpt lat="49.8065952" lon="9.1364832">
                <ele>123.0</ele>
                <time>2020-08-29T13:58:13.000Z</time>
                <name>Trackpoint 5300</name>
            </trkpt>
            <trkpt lat="49.806656" lon="9.1364096">
                <ele>123.0</ele>
                <time>2020-08-29T13:58:15.000Z</time>
                <name>Trackpoint 5301</name>
            </trkpt>
            <trkpt lat="49.80672" lon="9.1363448">
                <ele>123.0</ele>
                <time>2020-08-29T13:58:17.000Z</time>
                <name>Trackpoint 5302</name>
            </trkpt>
            <trkpt lat="49.8067936" lon="9.1362832">
                <ele>124.0</ele>
                <time>2020-08-29T13:58:19.000Z</time>
                <name>Trackpoint 5303</name>
            </trkpt>
            <trkpt lat="49.8068736" lon="9.1362088">
                <ele>124.0</ele>
                <time>2020-08-29T13:58:21.000Z</time>
                <name>Trackpoint 5304</name>
            </trkpt>
            <trkpt lat="49.8069472" lon="9.1361328">
                <ele>124.0</ele>
                <time>2020-08-29T13:58:23.000Z</time>
                <name>Trackpoint 5305</name>
            </trkpt>
            <trkpt lat="49.8070304" lon="9.136068">
                <ele>124.0</ele>
                <time>2020-08-29T13:58:25.000Z</time>
                <name>Trackpoint 5306</name>
            </trkpt>
            <trkpt lat="49.8071072" lon="9.1360016">
                <ele>124.0</ele>
                <time>2020-08-29T13:58:27.000Z</time>
                <name>Trackpoint 5307</name>
            </trkpt>
            <trkpt lat="49.8071936" lon="9.1359328">
                <ele>124.0</ele>
                <time>2020-08-29T13:58:29.000Z</time>
                <name>Trackpoint 5308</name>
            </trkpt>
            <trkpt lat="49.8072736" lon="9.1358736">
                <ele>124.0</ele>
                <time>2020-08-29T13:58:31.000Z</time>
                <name>Trackpoint 5309</name>
            </trkpt>
            <trkpt lat="49.8073632" lon="9.1358096">
                <ele>124.0</ele>
                <time>2020-08-29T13:58:33.000Z</time>
                <name>Trackpoint 5310</name>
            </trkpt>
            <trkpt lat="49.8074432" lon="9.1357416">
                <ele>124.0</ele>
                <time>2020-08-29T13:58:35.000Z</time>
                <name>Trackpoint 5311</name>
            </trkpt>
            <trkpt lat="49.8075264" lon="9.1356752">
                <ele>124.0</ele>
                <time>2020-08-29T13:58:37.000Z</time>
                <name>Trackpoint 5312</name>
            </trkpt>
            <trkpt lat="49.8076032" lon="9.1356136">
                <ele>124.0</ele>
                <time>2020-08-29T13:58:39.000Z</time>
                <name>Trackpoint 5313</name>
            </trkpt>
            <trkpt lat="49.8076832" lon="9.1355488">
                <ele>125.0</ele>
                <time>2020-08-29T13:58:41.000Z</time>
                <name>Trackpoint 5314</name>
            </trkpt>
            <trkpt lat="49.8077728" lon="9.1354784">
                <ele>125.0</ele>
                <time>2020-08-29T13:58:43.000Z</time>
                <name>Trackpoint 5315</name>
            </trkpt>
            <trkpt lat="49.8078688" lon="9.1354168">
                <ele>125.0</ele>
                <time>2020-08-29T13:58:45.000Z</time>
                <name>Trackpoint 5316</name>
            </trkpt>
            <trkpt lat="49.8079552" lon="9.135368">
                <ele>125.0</ele>
                <time>2020-08-29T13:58:47.000Z</time>
                <name>Trackpoint 5317</name>
            </trkpt>
            <trkpt lat="49.8080544" lon="9.1353264">
                <ele>125.0</ele>
                <time>2020-08-29T13:58:49.000Z</time>
                <name>Trackpoint 5318</name>
            </trkpt>
            <trkpt lat="49.8081536" lon="9.1352728">
                <ele>125.0</ele>
                <time>2020-08-29T13:58:51.000Z</time>
                <name>Trackpoint 5319</name>
            </trkpt>
            <trkpt lat="49.8082496" lon="9.1352232">
                <ele>125.0</ele>
                <time>2020-08-29T13:58:53.000Z</time>
                <name>Trackpoint 5320</name>
            </trkpt>
            <trkpt lat="49.808352" lon="9.135168">
                <ele>124.0</ele>
                <time>2020-08-29T13:58:55.000Z</time>
                <name>Trackpoint 5321</name>
            </trkpt>
            <trkpt lat="49.8084576" lon="9.1351216">
                <ele>124.0</ele>
                <time>2020-08-29T13:58:57.000Z</time>
                <name>Trackpoint 5322</name>
            </trkpt>
            <trkpt lat="49.8085664" lon="9.1350744">
                <ele>124.0</ele>
                <time>2020-08-29T13:58:59.000Z</time>
                <name>Trackpoint 5323</name>
            </trkpt>
            <trkpt lat="49.8086688" lon="9.1350248">
                <ele>124.0</ele>
                <time>2020-08-29T13:59:01.000Z</time>
                <name>Trackpoint 5324</name>
            </trkpt>
            <trkpt lat="49.8087776" lon="9.1349784">
                <ele>124.0</ele>
                <time>2020-08-29T13:59:03.000Z</time>
                <name>Trackpoint 5325</name>
            </trkpt>
            <trkpt lat="49.8088864" lon="9.1349336">
                <ele>124.0</ele>
                <time>2020-08-29T13:59:05.000Z</time>
                <name>Trackpoint 5326</name>
            </trkpt>
            <trkpt lat="49.8090016" lon="9.1349048">
                <ele>124.0</ele>
                <time>2020-08-29T13:59:07.000Z</time>
                <name>Trackpoint 5327</name>
            </trkpt>
            <trkpt lat="49.8091136" lon="9.1348752">
                <ele>124.0</ele>
                <time>2020-08-29T13:59:09.000Z</time>
                <name>Trackpoint 5328</name>
            </trkpt>
            <trkpt lat="49.8092224" lon="9.1348432">
                <ele>124.0</ele>
                <time>2020-08-29T13:59:11.000Z</time>
                <name>Trackpoint 5329</name>
            </trkpt>
            <trkpt lat="49.8093408" lon="9.1348112">
                <ele>123.0</ele>
                <time>2020-08-29T13:59:13.000Z</time>
                <name>Trackpoint 5330</name>
            </trkpt>
            <trkpt lat="49.8094592" lon="9.1347888">
                <ele>124.0</ele>
                <time>2020-08-29T13:59:15.000Z</time>
                <name>Trackpoint 5331</name>
            </trkpt>
            <trkpt lat="49.8095808" lon="9.1347752">
                <ele>124.0</ele>
                <time>2020-08-29T13:59:17.000Z</time>
                <name>Trackpoint 5332</name>
            </trkpt>
            <trkpt lat="49.8097024" lon="9.1347536">
                <ele>124.0</ele>
                <time>2020-08-29T13:59:19.000Z</time>
                <name>Trackpoint 5333</name>
            </trkpt>
            <trkpt lat="49.8098176" lon="9.1347288">
                <ele>124.0</ele>
                <time>2020-08-29T13:59:21.000Z</time>
                <name>Trackpoint 5334</name>
            </trkpt>
            <trkpt lat="49.8099552" lon="9.1347216">
                <ele>124.0</ele>
                <time>2020-08-29T13:59:23.000Z</time>
                <name>Trackpoint 5335</name>
            </trkpt>
            <trkpt lat="49.8100768" lon="9.1347168">
                <ele>123.0</ele>
                <time>2020-08-29T13:59:25.000Z</time>
                <name>Trackpoint 5336</name>
            </trkpt>
            <trkpt lat="49.8101952" lon="9.1347">
                <ele>123.0</ele>
                <time>2020-08-29T13:59:27.000Z</time>
                <name>Trackpoint 5337</name>
            </trkpt>
            <trkpt lat="49.8103168" lon="9.1346928">
                <ele>123.0</ele>
                <time>2020-08-29T13:59:29.000Z</time>
                <name>Trackpoint 5338</name>
            </trkpt>
            <trkpt lat="49.8104288" lon="9.1346968">
                <ele>123.0</ele>
                <time>2020-08-29T13:59:31.000Z</time>
                <name>Trackpoint 5339</name>
            </trkpt>
            <trkpt lat="49.810544" lon="9.1346952">
                <ele>123.0</ele>
                <time>2020-08-29T13:59:33.000Z</time>
                <name>Trackpoint 5340</name>
            </trkpt>
            <trkpt lat="49.8106688" lon="9.1347048">
                <ele>123.0</ele>
                <time>2020-08-29T13:59:35.000Z</time>
                <name>Trackpoint 5341</name>
            </trkpt>
            <trkpt lat="49.8108096" lon="9.1347112">
                <ele>124.0</ele>
                <time>2020-08-29T13:59:37.000Z</time>
                <name>Trackpoint 5342</name>
            </trkpt>
            <trkpt lat="49.8109472" lon="9.1347128">
                <ele>124.0</ele>
                <time>2020-08-29T13:59:39.000Z</time>
                <name>Trackpoint 5343</name>
            </trkpt>
            <trkpt lat="49.8110816" lon="9.1347248">
                <ele>124.0</ele>
                <time>2020-08-29T13:59:41.000Z</time>
                <name>Trackpoint 5344</name>
            </trkpt>
            <trkpt lat="49.8112096" lon="9.1347304">
                <ele>124.0</ele>
                <time>2020-08-29T13:59:43.000Z</time>
                <name>Trackpoint 5345</name>
            </trkpt>
            <trkpt lat="49.811344" lon="9.1347416">
                <ele>124.0</ele>
                <time>2020-08-29T13:59:45.000Z</time>
                <name>Trackpoint 5346</name>
            </trkpt>
            <trkpt lat="49.8114752" lon="9.1347552">
                <ele>124.0</ele>
                <time>2020-08-29T13:59:47.000Z</time>
                <name>Trackpoint 5347</name>
            </trkpt>
            <trkpt lat="49.8115968" lon="9.1347736">
                <ele>124.0</ele>
                <time>2020-08-29T13:59:49.000Z</time>
                <name>Trackpoint 5348</name>
            </trkpt>
            <trkpt lat="49.8117152" lon="9.1347704">
                <ele>124.0</ele>
                <time>2020-08-29T13:59:51.000Z</time>
                <name>Trackpoint 5349</name>
            </trkpt>
            <trkpt lat="49.8118368" lon="9.1347752">
                <ele>124.0</ele>
                <time>2020-08-29T13:59:53.000Z</time>
                <name>Trackpoint 5350</name>
            </trkpt>
            <trkpt lat="49.811952" lon="9.1347752">
                <ele>124.0</ele>
                <time>2020-08-29T13:59:55.000Z</time>
                <name>Trackpoint 5351</name>
            </trkpt>
            <trkpt lat="49.8120832" lon="9.1347816">
                <ele>124.0</ele>
                <time>2020-08-29T13:59:57.000Z</time>
                <name>Trackpoint 5352</name>
            </trkpt>
            <trkpt lat="49.8122016" lon="9.1347888">
                <ele>125.0</ele>
                <time>2020-08-29T13:59:59.000Z</time>
                <name>Trackpoint 5353</name>
            </trkpt>
            <trkpt lat="49.81232" lon="9.13478">
                <ele>124.0</ele>
                <time>2020-08-29T14:00:01.000Z</time>
                <name>Trackpoint 5354</name>
            </trkpt>
            <trkpt lat="49.8124416" lon="9.1347888">
                <ele>125.0</ele>
                <time>2020-08-29T14:00:03.000Z</time>
                <name>Trackpoint 5355</name>
            </trkpt>
            <trkpt lat="49.8125792" lon="9.1347936">
                <ele>125.0</ele>
                <time>2020-08-29T14:00:05.000Z</time>
                <name>Trackpoint 5356</name>
            </trkpt>
            <trkpt lat="49.8127136" lon="9.1347984">
                <ele>125.0</ele>
                <time>2020-08-29T14:00:07.000Z</time>
                <name>Trackpoint 5357</name>
            </trkpt>
            <trkpt lat="49.812832" lon="9.1347984">
                <ele>125.0</ele>
                <time>2020-08-29T14:00:09.000Z</time>
                <name>Trackpoint 5358</name>
            </trkpt>
            <trkpt lat="49.8129536" lon="9.1348064">
                <ele>125.0</ele>
                <time>2020-08-29T14:00:11.000Z</time>
                <name>Trackpoint 5359</name>
            </trkpt>
            <trkpt lat="49.8130752" lon="9.1348112">
                <ele>125.0</ele>
                <time>2020-08-29T14:00:13.000Z</time>
                <name>Trackpoint 5360</name>
            </trkpt>
            <trkpt lat="49.8131936" lon="9.1348184">
                <ele>125.0</ele>
                <time>2020-08-29T14:00:15.000Z</time>
                <name>Trackpoint 5361</name>
            </trkpt>
            <trkpt lat="49.8133152" lon="9.1348336">
                <ele>125.0</ele>
                <time>2020-08-29T14:00:17.000Z</time>
                <name>Trackpoint 5362</name>
            </trkpt>
            <trkpt lat="49.81344" lon="9.13484">
                <ele>125.0</ele>
                <time>2020-08-29T14:00:19.000Z</time>
                <name>Trackpoint 5363</name>
            </trkpt>
            <trkpt lat="49.8135616" lon="9.1348536">
                <ele>125.0</ele>
                <time>2020-08-29T14:00:21.000Z</time>
                <name>Trackpoint 5364</name>
            </trkpt>
            <trkpt lat="49.8136832" lon="9.1348688">
                <ele>125.0</ele>
                <time>2020-08-29T14:00:23.000Z</time>
                <name>Trackpoint 5365</name>
            </trkpt>
            <trkpt lat="49.8138112" lon="9.1348736">
                <ele>125.0</ele>
                <time>2020-08-29T14:00:25.000Z</time>
                <name>Trackpoint 5366</name>
            </trkpt>
            <trkpt lat="49.8139456" lon="9.1348736">
                <ele>125.0</ele>
                <time>2020-08-29T14:00:27.000Z</time>
                <name>Trackpoint 5367</name>
            </trkpt>
            <trkpt lat="49.8140864" lon="9.1348848">
                <ele>125.0</ele>
                <time>2020-08-29T14:00:29.000Z</time>
                <name>Trackpoint 5368</name>
            </trkpt>
            <trkpt lat="49.8142208" lon="9.1348848">
                <ele>125.0</ele>
                <time>2020-08-29T14:00:31.000Z</time>
                <name>Trackpoint 5369</name>
            </trkpt>
            <trkpt lat="49.8143456" lon="9.1348912">
                <ele>125.0</ele>
                <time>2020-08-29T14:00:33.000Z</time>
                <name>Trackpoint 5370</name>
            </trkpt>
            <trkpt lat="49.8144672" lon="9.1348984">
                <ele>125.0</ele>
                <time>2020-08-29T14:00:35.000Z</time>
                <name>Trackpoint 5371</name>
            </trkpt>
            <trkpt lat="49.8145856" lon="9.1349032">
                <ele>125.0</ele>
                <time>2020-08-29T14:00:37.000Z</time>
                <name>Trackpoint 5372</name>
            </trkpt>
            <trkpt lat="49.8146976" lon="9.1349088">
                <ele>125.0</ele>
                <time>2020-08-29T14:00:39.000Z</time>
                <name>Trackpoint 5373</name>
            </trkpt>
            <trkpt lat="49.8148128" lon="9.1349096">
                <ele>125.0</ele>
                <time>2020-08-29T14:00:41.000Z</time>
                <name>Trackpoint 5374</name>
            </trkpt>
            <trkpt lat="49.8149248" lon="9.1349048">
                <ele>125.0</ele>
                <time>2020-08-29T14:00:43.000Z</time>
                <name>Trackpoint 5375</name>
            </trkpt>
            <trkpt lat="49.8150496" lon="9.1348984">
                <ele>125.0</ele>
                <time>2020-08-29T14:00:45.000Z</time>
                <name>Trackpoint 5376</name>
            </trkpt>
            <trkpt lat="49.8151616" lon="9.1349088">
                <ele>125.0</ele>
                <time>2020-08-29T14:00:47.000Z</time>
                <name>Trackpoint 5377</name>
            </trkpt>
            <trkpt lat="49.81528" lon="9.13492">
                <ele>125.0</ele>
                <time>2020-08-29T14:00:49.000Z</time>
                <name>Trackpoint 5378</name>
            </trkpt>
            <trkpt lat="49.8153984" lon="9.1349352">
                <ele>125.0</ele>
                <time>2020-08-29T14:00:51.000Z</time>
                <name>Trackpoint 5379</name>
            </trkpt>
            <trkpt lat="49.8155168" lon="9.1349424">
                <ele>125.0</ele>
                <time>2020-08-29T14:00:53.000Z</time>
                <name>Trackpoint 5380</name>
            </trkpt>
            <trkpt lat="49.815632" lon="9.1349472">
                <ele>125.0</ele>
                <time>2020-08-29T14:00:55.000Z</time>
                <name>Trackpoint 5381</name>
            </trkpt>
            <trkpt lat="49.8157504" lon="9.1349472">
                <ele>125.0</ele>
                <time>2020-08-29T14:00:57.000Z</time>
                <name>Trackpoint 5382</name>
            </trkpt>
            <trkpt lat="49.815872" lon="9.1349496">
                <ele>125.0</ele>
                <time>2020-08-29T14:00:59.000Z</time>
                <name>Trackpoint 5383</name>
            </trkpt>
            <trkpt lat="49.8159936" lon="9.134956">
                <ele>125.0</ele>
                <time>2020-08-29T14:01:01.000Z</time>
                <name>Trackpoint 5384</name>
            </trkpt>
            <trkpt lat="49.816112" lon="9.134956">
                <ele>125.0</ele>
                <time>2020-08-29T14:01:03.000Z</time>
                <name>Trackpoint 5385</name>
            </trkpt>
            <trkpt lat="49.81624" lon="9.1349632">
                <ele>125.0</ele>
                <time>2020-08-29T14:01:05.000Z</time>
                <name>Trackpoint 5386</name>
            </trkpt>
            <trkpt lat="49.816352" lon="9.1349648">
                <ele>125.0</ele>
                <time>2020-08-29T14:01:07.000Z</time>
                <name>Trackpoint 5387</name>
            </trkpt>
            <trkpt lat="49.8164736" lon="9.1349752">
                <ele>125.0</ele>
                <time>2020-08-29T14:01:09.000Z</time>
                <name>Trackpoint 5388</name>
            </trkpt>
            <trkpt lat="49.8166016" lon="9.1349824">
                <ele>125.0</ele>
                <time>2020-08-29T14:01:11.000Z</time>
                <name>Trackpoint 5389</name>
            </trkpt>
            <trkpt lat="49.8167264" lon="9.1349848">
                <ele>125.0</ele>
                <time>2020-08-29T14:01:13.000Z</time>
                <name>Trackpoint 5390</name>
            </trkpt>
            <trkpt lat="49.816832" lon="9.1349952">
                <ele>125.0</ele>
                <time>2020-08-29T14:01:15.000Z</time>
                <name>Trackpoint 5391</name>
            </trkpt>
            <trkpt lat="49.8169568" lon="9.1349952">
                <ele>125.0</ele>
                <time>2020-08-29T14:01:17.000Z</time>
                <name>Trackpoint 5392</name>
            </trkpt>
            <trkpt lat="49.8170816" lon="9.135">
                <ele>125.0</ele>
                <time>2020-08-29T14:01:19.000Z</time>
                <name>Trackpoint 5393</name>
            </trkpt>
            <trkpt lat="49.8172032" lon="9.1350072">
                <ele>125.0</ele>
                <time>2020-08-29T14:01:21.000Z</time>
                <name>Trackpoint 5394</name>
            </trkpt>
            <trkpt lat="49.8173216" lon="9.135008">
                <ele>125.0</ele>
                <time>2020-08-29T14:01:23.000Z</time>
                <name>Trackpoint 5395</name>
            </trkpt>
            <trkpt lat="49.8174464" lon="9.1350168">
                <ele>125.0</ele>
                <time>2020-08-29T14:01:25.000Z</time>
                <name>Trackpoint 5396</name>
            </trkpt>
            <trkpt lat="49.8175744" lon="9.1350168">
                <ele>125.0</ele>
                <time>2020-08-29T14:01:27.000Z</time>
                <name>Trackpoint 5397</name>
            </trkpt>
            <trkpt lat="49.8176992" lon="9.1350232">
                <ele>125.0</ele>
                <time>2020-08-29T14:01:29.000Z</time>
                <name>Trackpoint 5398</name>
            </trkpt>
            <trkpt lat="49.8178176" lon="9.1350296">
                <ele>125.0</ele>
                <time>2020-08-29T14:01:31.000Z</time>
                <name>Trackpoint 5399</name>
            </trkpt>
            <trkpt lat="49.8179424" lon="9.1350448">
                <ele>125.0</ele>
                <time>2020-08-29T14:01:33.000Z</time>
                <name>Trackpoint 5400</name>
            </trkpt>
            <trkpt lat="49.8180608" lon="9.1350536">
                <ele>125.0</ele>
                <time>2020-08-29T14:01:35.000Z</time>
                <name>Trackpoint 5401</name>
            </trkpt>
            <trkpt lat="49.8181824" lon="9.1350672">
                <ele>125.0</ele>
                <time>2020-08-29T14:01:37.000Z</time>
                <name>Trackpoint 5402</name>
            </trkpt>
            <trkpt lat="49.8183072" lon="9.1350936">
                <ele>125.0</ele>
                <time>2020-08-29T14:01:39.000Z</time>
                <name>Trackpoint 5403</name>
            </trkpt>
            <trkpt lat="49.8184288" lon="9.1351184">
                <ele>125.0</ele>
                <time>2020-08-29T14:01:41.000Z</time>
                <name>Trackpoint 5404</name>
            </trkpt>
            <trkpt lat="49.8185504" lon="9.1351448">
                <ele>124.0</ele>
                <time>2020-08-29T14:01:43.000Z</time>
                <name>Trackpoint 5405</name>
            </trkpt>
            <trkpt lat="49.8186688" lon="9.135172">
                <ele>124.0</ele>
                <time>2020-08-29T14:01:45.000Z</time>
                <name>Trackpoint 5406</name>
            </trkpt>
            <trkpt lat="49.8187904" lon="9.1351984">
                <ele>124.0</ele>
                <time>2020-08-29T14:01:47.000Z</time>
                <name>Trackpoint 5407</name>
            </trkpt>
            <trkpt lat="49.8189088" lon="9.135232">
                <ele>124.0</ele>
                <time>2020-08-29T14:01:49.000Z</time>
                <name>Trackpoint 5408</name>
            </trkpt>
            <trkpt lat="49.819024" lon="9.1352704">
                <ele>124.0</ele>
                <time>2020-08-29T14:01:51.000Z</time>
                <name>Trackpoint 5409</name>
            </trkpt>
            <trkpt lat="49.8191424" lon="9.1353064">
                <ele>124.0</ele>
                <time>2020-08-29T14:01:53.000Z</time>
                <name>Trackpoint 5410</name>
            </trkpt>
            <trkpt lat="49.8192608" lon="9.1353504">
                <ele>124.0</ele>
                <time>2020-08-29T14:01:55.000Z</time>
                <name>Trackpoint 5411</name>
            </trkpt>
            <trkpt lat="49.8193728" lon="9.135384">
                <ele>124.0</ele>
                <time>2020-08-29T14:01:57.000Z</time>
                <name>Trackpoint 5412</name>
            </trkpt>
            <trkpt lat="49.819488" lon="9.1354304">
                <ele>124.0</ele>
                <time>2020-08-29T14:01:59.000Z</time>
                <name>Trackpoint 5413</name>
            </trkpt>
            <trkpt lat="49.8196064" lon="9.1354816">
                <ele>124.0</ele>
                <time>2020-08-29T14:02:01.000Z</time>
                <name>Trackpoint 5414</name>
            </trkpt>
            <trkpt lat="49.8197216" lon="9.1355336">
                <ele>124.0</ele>
                <time>2020-08-29T14:02:03.000Z</time>
                <name>Trackpoint 5415</name>
            </trkpt>
            <trkpt lat="49.8198368" lon="9.1355832">
                <ele>123.0</ele>
                <time>2020-08-29T14:02:05.000Z</time>
                <name>Trackpoint 5416</name>
            </trkpt>
            <trkpt lat="49.8199552" lon="9.1356448">
                <ele>123.0</ele>
                <time>2020-08-29T14:02:07.000Z</time>
                <name>Trackpoint 5417</name>
            </trkpt>
            <trkpt lat="49.8200672" lon="9.1357024">
                <ele>123.0</ele>
                <time>2020-08-29T14:02:09.000Z</time>
                <name>Trackpoint 5418</name>
            </trkpt>
            <trkpt lat="49.8201824" lon="9.1357496">
                <ele>123.0</ele>
                <time>2020-08-29T14:02:11.000Z</time>
                <name>Trackpoint 5419</name>
            </trkpt>
            <trkpt lat="49.8202944" lon="9.135808">
                <ele>124.0</ele>
                <time>2020-08-29T14:02:13.000Z</time>
                <name>Trackpoint 5420</name>
            </trkpt>
            <trkpt lat="49.8204032" lon="9.1358672">
                <ele>123.0</ele>
                <time>2020-08-29T14:02:15.000Z</time>
                <name>Trackpoint 5421</name>
            </trkpt>
            <trkpt lat="49.8205312" lon="9.1359184">
                <ele>123.0</ele>
                <time>2020-08-29T14:02:17.000Z</time>
                <name>Trackpoint 5422</name>
            </trkpt>
            <trkpt lat="49.8206528" lon="9.1359768">
                <ele>123.0</ele>
                <time>2020-08-29T14:02:19.000Z</time>
                <name>Trackpoint 5423</name>
            </trkpt>
            <trkpt lat="49.8207808" lon="9.1360368">
                <ele>123.0</ele>
                <time>2020-08-29T14:02:21.000Z</time>
                <name>Trackpoint 5424</name>
            </trkpt>
            <trkpt lat="49.8209152" lon="9.1360776">
                <ele>123.0</ele>
                <time>2020-08-29T14:02:23.000Z</time>
                <name>Trackpoint 5425</name>
            </trkpt>
            <trkpt lat="49.8210496" lon="9.1361464">
                <ele>123.0</ele>
                <time>2020-08-29T14:02:25.000Z</time>
                <name>Trackpoint 5426</name>
            </trkpt>
            <trkpt lat="49.821168" lon="9.1362088">
                <ele>122.0</ele>
                <time>2020-08-29T14:02:27.000Z</time>
                <name>Trackpoint 5427</name>
            </trkpt>
            <trkpt lat="49.8212896" lon="9.1362632">
                <ele>122.0</ele>
                <time>2020-08-29T14:02:29.000Z</time>
                <name>Trackpoint 5428</name>
            </trkpt>
            <trkpt lat="49.8213984" lon="9.13632">
                <ele>121.0</ele>
                <time>2020-08-29T14:02:31.000Z</time>
                <name>Trackpoint 5429</name>
            </trkpt>
            <trkpt lat="49.821504" lon="9.1363632">
                <ele>121.0</ele>
                <time>2020-08-29T14:02:33.000Z</time>
                <name>Trackpoint 5430</name>
            </trkpt>
            <trkpt lat="49.8216032" lon="9.1364032">
                <ele>121.0</ele>
                <time>2020-08-29T14:02:35.000Z</time>
                <name>Trackpoint 5431</name>
            </trkpt>
            <trkpt lat="49.821696" lon="9.1364584">
                <ele>121.0</ele>
                <time>2020-08-29T14:02:37.000Z</time>
                <name>Trackpoint 5432</name>
            </trkpt>
            <trkpt lat="49.8217888" lon="9.1365136">
                <ele>121.0</ele>
                <time>2020-08-29T14:02:39.000Z</time>
                <name>Trackpoint 5433</name>
            </trkpt>
            <trkpt lat="49.8218944" lon="9.1365544">
                <ele>122.0</ele>
                <time>2020-08-29T14:02:41.000Z</time>
                <name>Trackpoint 5434</name>
            </trkpt>
            <trkpt lat="49.822" lon="9.1366016">
                <ele>121.0</ele>
                <time>2020-08-29T14:02:43.000Z</time>
                <name>Trackpoint 5435</name>
            </trkpt>
            <trkpt lat="49.8220832" lon="9.1366432">
                <ele>121.0</ele>
                <time>2020-08-29T14:02:45.000Z</time>
                <name>Trackpoint 5436</name>
            </trkpt>
            <trkpt lat="49.8221664" lon="9.1366856">
                <ele>121.0</ele>
                <time>2020-08-29T14:03:26.000Z</time>
                <name>Trackpoint 5437</name>
            </trkpt>
            <trkpt lat="49.822272" lon="9.1367256">
                <ele>121.0</ele>
                <time>2020-08-29T14:03:33.000Z</time>
                <name>Trackpoint 5438</name>
            </trkpt>
            <trkpt lat="49.8223776" lon="9.1367776">
                <ele>121.0</ele>
                <time>2020-08-29T14:03:36.000Z</time>
                <name>Trackpoint 5439</name>
            </trkpt>
            <trkpt lat="49.8225088" lon="9.1368176">
                <ele>121.0</ele>
                <time>2020-08-29T14:03:39.000Z</time>
                <name>Trackpoint 5440</name>
            </trkpt>
            <trkpt lat="49.8226016" lon="9.1368576">
                <ele>121.0</ele>
                <time>2020-08-29T14:03:41.000Z</time>
                <name>Trackpoint 5441</name>
            </trkpt>
            <trkpt lat="49.8226976" lon="9.1368912">
                <ele>121.0</ele>
                <time>2020-08-29T14:03:43.000Z</time>
                <name>Trackpoint 5442</name>
            </trkpt>
            <trkpt lat="49.8228096" lon="9.1369432">
                <ele>121.0</ele>
                <time>2020-08-29T14:03:46.000Z</time>
                <name>Trackpoint 5443</name>
            </trkpt>
            <trkpt lat="49.8229216" lon="9.1369912">
                <ele>121.0</ele>
                <time>2020-08-29T14:03:48.000Z</time>
                <name>Trackpoint 5444</name>
            </trkpt>
            <trkpt lat="49.823024" lon="9.1370248">
                <ele>121.0</ele>
                <time>2020-08-29T14:03:50.000Z</time>
                <name>Trackpoint 5445</name>
            </trkpt>
            <trkpt lat="49.823136" lon="9.1370688">
                <ele>121.0</ele>
                <time>2020-08-29T14:03:52.000Z</time>
                <name>Trackpoint 5446</name>
            </trkpt>
            <trkpt lat="49.8232512" lon="9.1371336">
                <ele>120.0</ele>
                <time>2020-08-29T14:03:54.000Z</time>
                <name>Trackpoint 5447</name>
            </trkpt>
            <trkpt lat="49.8233536" lon="9.1371696">
                <ele>120.0</ele>
                <time>2020-08-29T14:03:56.000Z</time>
                <name>Trackpoint 5448</name>
            </trkpt>
            <trkpt lat="49.8234496" lon="9.1372016">
                <ele>120.0</ele>
                <time>2020-08-29T14:03:58.000Z</time>
                <name>Trackpoint 5449</name>
            </trkpt>
            <trkpt lat="49.823552" lon="9.1372408">
                <ele>120.0</ele>
                <time>2020-08-29T14:04:00.000Z</time>
                <name>Trackpoint 5450</name>
            </trkpt>
            <trkpt lat="49.8236384" lon="9.1372744">
                <ele>120.0</ele>
                <time>2020-08-29T14:04:02.000Z</time>
                <name>Trackpoint 5451</name>
            </trkpt>
            <trkpt lat="49.8237376" lon="9.1373128">
                <ele>120.0</ele>
                <time>2020-08-29T14:04:04.000Z</time>
                <name>Trackpoint 5452</name>
            </trkpt>
            <trkpt lat="49.8238368" lon="9.1373504">
                <ele>120.0</ele>
                <time>2020-08-29T14:04:06.000Z</time>
                <name>Trackpoint 5453</name>
            </trkpt>
            <trkpt lat="49.8239392" lon="9.1373864">
                <ele>120.0</ele>
                <time>2020-08-29T14:04:08.000Z</time>
                <name>Trackpoint 5454</name>
            </trkpt>
            <trkpt lat="49.8240448" lon="9.1374232">
                <ele>120.0</ele>
                <time>2020-08-29T14:04:10.000Z</time>
                <name>Trackpoint 5455</name>
            </trkpt>
            <trkpt lat="49.8241504" lon="9.1374648">
                <ele>120.0</ele>
                <time>2020-08-29T14:04:12.000Z</time>
                <name>Trackpoint 5456</name>
            </trkpt>
            <trkpt lat="49.8242688" lon="9.1375112">
                <ele>120.0</ele>
                <time>2020-08-29T14:04:14.000Z</time>
                <name>Trackpoint 5457</name>
            </trkpt>
            <trkpt lat="49.8243744" lon="9.1375512">
                <ele>121.0</ele>
                <time>2020-08-29T14:04:16.000Z</time>
                <name>Trackpoint 5458</name>
            </trkpt>
            <trkpt lat="49.8244896" lon="9.137584">
                <ele>121.0</ele>
                <time>2020-08-29T14:04:18.000Z</time>
                <name>Trackpoint 5459</name>
            </trkpt>
            <trkpt lat="49.824608" lon="9.1376304">
                <ele>121.0</ele>
                <time>2020-08-29T14:04:20.000Z</time>
                <name>Trackpoint 5460</name>
            </trkpt>
            <trkpt lat="49.82472" lon="9.1376784">
                <ele>121.0</ele>
                <time>2020-08-29T14:04:22.000Z</time>
                <name>Trackpoint 5461</name>
            </trkpt>
            <trkpt lat="49.8248352" lon="9.1377248">
                <ele>121.0</ele>
                <time>2020-08-29T14:04:24.000Z</time>
                <name>Trackpoint 5462</name>
            </trkpt>
            <trkpt lat="49.8249536" lon="9.137772">
                <ele>121.0</ele>
                <time>2020-08-29T14:04:26.000Z</time>
                <name>Trackpoint 5463</name>
            </trkpt>
            <trkpt lat="49.8250816" lon="9.1378232">
                <ele>121.0</ele>
                <time>2020-08-29T14:04:28.000Z</time>
                <name>Trackpoint 5464</name>
            </trkpt>
            <trkpt lat="49.8252032" lon="9.1378696">
                <ele>121.0</ele>
                <time>2020-08-29T14:04:30.000Z</time>
                <name>Trackpoint 5465</name>
            </trkpt>
            <trkpt lat="49.8253184" lon="9.1379216">
                <ele>121.0</ele>
                <time>2020-08-29T14:04:32.000Z</time>
                <name>Trackpoint 5466</name>
            </trkpt>
            <trkpt lat="49.8254272" lon="9.1379536">
                <ele>121.0</ele>
                <time>2020-08-29T14:04:34.000Z</time>
                <name>Trackpoint 5467</name>
            </trkpt>
            <trkpt lat="49.8255424" lon="9.1379992">
                <ele>121.0</ele>
                <time>2020-08-29T14:04:36.000Z</time>
                <name>Trackpoint 5468</name>
            </trkpt>
            <trkpt lat="49.8256608" lon="9.1380528">
                <ele>121.0</ele>
                <time>2020-08-29T14:04:38.000Z</time>
                <name>Trackpoint 5469</name>
            </trkpt>
            <trkpt lat="49.8257792" lon="9.1380984">
                <ele>121.0</ele>
                <time>2020-08-29T14:04:40.000Z</time>
                <name>Trackpoint 5470</name>
            </trkpt>
            <trkpt lat="49.8258976" lon="9.1381432">
                <ele>121.0</ele>
                <time>2020-08-29T14:04:42.000Z</time>
                <name>Trackpoint 5471</name>
            </trkpt>
            <trkpt lat="49.8260128" lon="9.138188">
                <ele>121.0</ele>
                <time>2020-08-29T14:04:44.000Z</time>
                <name>Trackpoint 5472</name>
            </trkpt>
            <trkpt lat="49.8261248" lon="9.1382328">
                <ele>121.0</ele>
                <time>2020-08-29T14:04:46.000Z</time>
                <name>Trackpoint 5473</name>
            </trkpt>
            <trkpt lat="49.8262496" lon="9.1382816">
                <ele>120.0</ele>
                <time>2020-08-29T14:04:48.000Z</time>
                <name>Trackpoint 5474</name>
            </trkpt>
            <trkpt lat="49.826368" lon="9.13834">
                <ele>119.0</ele>
                <time>2020-08-29T14:04:50.000Z</time>
                <name>Trackpoint 5475</name>
            </trkpt>
            <trkpt lat="49.82648" lon="9.1384">
                <ele>118.0</ele>
                <time>2020-08-29T14:04:52.000Z</time>
                <name>Trackpoint 5476</name>
            </trkpt>
            <trkpt lat="49.8266016" lon="9.1384536">
                <ele>118.0</ele>
                <time>2020-08-29T14:04:54.000Z</time>
                <name>Trackpoint 5477</name>
            </trkpt>
            <trkpt lat="49.8267264" lon="9.1385032">
                <ele>119.0</ele>
                <time>2020-08-29T14:04:56.000Z</time>
                <name>Trackpoint 5478</name>
            </trkpt>
            <trkpt lat="49.8268448" lon="9.1385384">
                <ele>118.0</ele>
                <time>2020-08-29T14:04:58.000Z</time>
                <name>Trackpoint 5479</name>
            </trkpt>
            <trkpt lat="49.8269568" lon="9.1385872">
                <ele>118.0</ele>
                <time>2020-08-29T14:05:00.000Z</time>
                <name>Trackpoint 5480</name>
            </trkpt>
            <trkpt lat="49.8270688" lon="9.1386368">
                <ele>118.0</ele>
                <time>2020-08-29T14:05:02.000Z</time>
                <name>Trackpoint 5481</name>
            </trkpt>
            <trkpt lat="49.8271776" lon="9.1386856">
                <ele>118.0</ele>
                <time>2020-08-29T14:05:04.000Z</time>
                <name>Trackpoint 5482</name>
            </trkpt>
            <trkpt lat="49.8272896" lon="9.138732">
                <ele>118.0</ele>
                <time>2020-08-29T14:05:06.000Z</time>
                <name>Trackpoint 5483</name>
            </trkpt>
            <trkpt lat="49.8273952" lon="9.1387704">
                <ele>119.0</ele>
                <time>2020-08-29T14:05:08.000Z</time>
                <name>Trackpoint 5484</name>
            </trkpt>
            <trkpt lat="49.827504" lon="9.1388152">
                <ele>119.0</ele>
                <time>2020-08-29T14:05:10.000Z</time>
                <name>Trackpoint 5485</name>
            </trkpt>
            <trkpt lat="49.8276096" lon="9.138852">
                <ele>119.0</ele>
                <time>2020-08-29T14:05:12.000Z</time>
                <name>Trackpoint 5486</name>
            </trkpt>
            <trkpt lat="49.8277088" lon="9.1388928">
                <ele>119.0</ele>
                <time>2020-08-29T14:05:14.000Z</time>
                <name>Trackpoint 5487</name>
            </trkpt>
            <trkpt lat="49.82776" lon="9.1390064">
                <ele>118.0</ele>
                <time>2020-08-29T14:05:16.000Z</time>
                <name>Trackpoint 5488</name>
            </trkpt>
            <trkpt lat="49.8277216" lon="9.1391648">
                <ele>118.0</ele>
                <time>2020-08-29T14:05:18.000Z</time>
                <name>Trackpoint 5489</name>
            </trkpt>
            <trkpt lat="49.8276928" lon="9.1392536">
                <ele>117.0</ele>
                <time>2020-08-29T14:05:19.000Z</time>
                <name>Trackpoint 5490</name>
            </trkpt>
            <trkpt lat="49.8276672" lon="9.1393416">
                <ele>117.0</ele>
                <time>2020-08-29T14:05:20.000Z</time>
                <name>Trackpoint 5491</name>
            </trkpt>
            <trkpt lat="49.8276448" lon="9.1394328">
                <ele>117.0</ele>
                <time>2020-08-29T14:05:21.000Z</time>
                <name>Trackpoint 5492</name>
            </trkpt>
            <trkpt lat="49.8276192" lon="9.139528">
                <ele>117.0</ele>
                <time>2020-08-29T14:05:22.000Z</time>
                <name>Trackpoint 5493</name>
            </trkpt>
            <trkpt lat="49.8276" lon="9.1396264">
                <ele>117.0</ele>
                <time>2020-08-29T14:05:23.000Z</time>
                <name>Trackpoint 5494</name>
            </trkpt>
            <trkpt lat="49.8275936" lon="9.13972">
                <ele>117.0</ele>
                <time>2020-08-29T14:05:24.000Z</time>
                <name>Trackpoint 5495</name>
            </trkpt>
            <trkpt lat="49.827664" lon="9.1398696">
                <ele>117.0</ele>
                <time>2020-08-29T14:05:26.000Z</time>
                <name>Trackpoint 5496</name>
            </trkpt>
            <trkpt lat="49.8277888" lon="9.1399536">
                <ele>118.0</ele>
                <time>2020-08-29T14:05:28.000Z</time>
                <name>Trackpoint 5497</name>
            </trkpt>
            <trkpt lat="49.82792" lon="9.1400072">
                <ele>118.0</ele>
                <time>2020-08-29T14:05:30.000Z</time>
                <name>Trackpoint 5498</name>
            </trkpt>
            <trkpt lat="49.8280512" lon="9.1400608">
                <ele>118.0</ele>
                <time>2020-08-29T14:05:32.000Z</time>
                <name>Trackpoint 5499</name>
            </trkpt>
            <trkpt lat="49.8281856" lon="9.140112">
                <ele>118.0</ele>
                <time>2020-08-29T14:05:34.000Z</time>
                <name>Trackpoint 5500</name>
            </trkpt>
            <trkpt lat="49.8283232" lon="9.1401632">
                <ele>118.0</ele>
                <time>2020-08-29T14:05:36.000Z</time>
                <name>Trackpoint 5501</name>
            </trkpt>
            <trkpt lat="49.8284608" lon="9.1402128">
                <ele>118.0</ele>
                <time>2020-08-29T14:05:38.000Z</time>
                <name>Trackpoint 5502</name>
            </trkpt>
            <trkpt lat="49.8285888" lon="9.1402704">
                <ele>118.0</ele>
                <time>2020-08-29T14:05:40.000Z</time>
                <name>Trackpoint 5503</name>
            </trkpt>
            <trkpt lat="49.82872" lon="9.1403216">
                <ele>118.0</ele>
                <time>2020-08-29T14:05:42.000Z</time>
                <name>Trackpoint 5504</name>
            </trkpt>
            <trkpt lat="49.8288512" lon="9.1403712">
                <ele>118.0</ele>
                <time>2020-08-29T14:05:44.000Z</time>
                <name>Trackpoint 5505</name>
            </trkpt>
            <trkpt lat="49.828976" lon="9.140424">
                <ele>118.0</ele>
                <time>2020-08-29T14:05:46.000Z</time>
                <name>Trackpoint 5506</name>
            </trkpt>
            <trkpt lat="49.8290976" lon="9.140476">
                <ele>118.0</ele>
                <time>2020-08-29T14:05:48.000Z</time>
                <name>Trackpoint 5507</name>
            </trkpt>
            <trkpt lat="49.8292192" lon="9.1405296">
                <ele>118.0</ele>
                <time>2020-08-29T14:05:50.000Z</time>
                <name>Trackpoint 5508</name>
            </trkpt>
            <trkpt lat="49.8293408" lon="9.14058">
                <ele>118.0</ele>
                <time>2020-08-29T14:05:52.000Z</time>
                <name>Trackpoint 5509</name>
            </trkpt>
            <trkpt lat="49.8294624" lon="9.140628">
                <ele>118.0</ele>
                <time>2020-08-29T14:05:54.000Z</time>
                <name>Trackpoint 5510</name>
            </trkpt>
            <trkpt lat="49.8295776" lon="9.140672">
                <ele>118.0</ele>
                <time>2020-08-29T14:05:56.000Z</time>
                <name>Trackpoint 5511</name>
            </trkpt>
            <trkpt lat="49.829696" lon="9.14072">
                <ele>119.0</ele>
                <time>2020-08-29T14:05:58.000Z</time>
                <name>Trackpoint 5512</name>
            </trkpt>
            <trkpt lat="49.8298176" lon="9.1407672">
                <ele>119.0</ele>
                <time>2020-08-29T14:06:00.000Z</time>
                <name>Trackpoint 5513</name>
            </trkpt>
            <trkpt lat="49.8299392" lon="9.140808">
                <ele>119.0</ele>
                <time>2020-08-29T14:06:02.000Z</time>
                <name>Trackpoint 5514</name>
            </trkpt>
            <trkpt lat="49.830064" lon="9.1408464">
                <ele>119.0</ele>
                <time>2020-08-29T14:06:04.000Z</time>
                <name>Trackpoint 5515</name>
            </trkpt>
            <trkpt lat="49.8301856" lon="9.1408816">
                <ele>120.0</ele>
                <time>2020-08-29T14:06:06.000Z</time>
                <name>Trackpoint 5516</name>
            </trkpt>
            <trkpt lat="49.830304" lon="9.140928">
                <ele>121.0</ele>
                <time>2020-08-29T14:06:08.000Z</time>
                <name>Trackpoint 5517</name>
            </trkpt>
            <trkpt lat="49.8304192" lon="9.1409968">
                <ele>122.0</ele>
                <time>2020-08-29T14:06:10.000Z</time>
                <name>Trackpoint 5518</name>
            </trkpt>
            <trkpt lat="49.830528" lon="9.1410352">
                <ele>123.0</ele>
                <time>2020-08-29T14:06:12.000Z</time>
                <name>Trackpoint 5519</name>
            </trkpt>
            <trkpt lat="49.8306304" lon="9.1410288">
                <ele>124.0</ele>
                <time>2020-08-29T14:06:14.000Z</time>
                <name>Trackpoint 5520</name>
            </trkpt>
            <trkpt lat="49.8307456" lon="9.1409928">
                <ele>125.0</ele>
                <time>2020-08-29T14:06:16.000Z</time>
                <name>Trackpoint 5521</name>
            </trkpt>
            <trkpt lat="49.8308608" lon="9.1409456">
                <ele>124.0</ele>
                <time>2020-08-29T14:06:18.000Z</time>
                <name>Trackpoint 5522</name>
            </trkpt>
            <trkpt lat="49.8309632" lon="9.140892">
                <ele>124.0</ele>
                <time>2020-08-29T14:06:20.000Z</time>
                <name>Trackpoint 5523</name>
            </trkpt>
            <trkpt lat="49.8310688" lon="9.14092">
                <ele>123.0</ele>
                <time>2020-08-29T14:06:22.000Z</time>
                <name>Trackpoint 5524</name>
            </trkpt>
            <trkpt lat="49.831136" lon="9.1410576">
                <ele>123.0</ele>
                <time>2020-08-29T14:06:24.000Z</time>
                <name>Trackpoint 5525</name>
            </trkpt>
            <trkpt lat="49.8311808" lon="9.1412224">
                <ele>123.0</ele>
                <time>2020-08-29T14:06:26.000Z</time>
                <name>Trackpoint 5526</name>
            </trkpt>
            <trkpt lat="49.8312384" lon="9.141392">
                <ele>122.0</ele>
                <time>2020-08-29T14:06:28.000Z</time>
                <name>Trackpoint 5527</name>
            </trkpt>
            <trkpt lat="49.8312736" lon="9.1414808">
                <ele>120.0</ele>
                <time>2020-08-29T14:06:29.000Z</time>
                <name>Trackpoint 5528</name>
            </trkpt>
            <trkpt lat="49.8313184" lon="9.1415704">
                <ele>120.0</ele>
                <time>2020-08-29T14:06:30.000Z</time>
                <name>Trackpoint 5529</name>
            </trkpt>
            <trkpt lat="49.8313632" lon="9.1416552">
                <ele>119.0</ele>
                <time>2020-08-29T14:06:31.000Z</time>
                <name>Trackpoint 5530</name>
            </trkpt>
            <trkpt lat="49.8314208" lon="9.1417328">
                <ele>120.0</ele>
                <time>2020-08-29T14:06:32.000Z</time>
                <name>Trackpoint 5531</name>
            </trkpt>
            <trkpt lat="49.831488" lon="9.1418">
                <ele>120.0</ele>
                <time>2020-08-29T14:06:33.000Z</time>
                <name>Trackpoint 5532</name>
            </trkpt>
            <trkpt lat="49.8316224" lon="9.1418984">
                <ele>120.0</ele>
                <time>2020-08-29T14:06:35.000Z</time>
                <name>Trackpoint 5533</name>
            </trkpt>
            <trkpt lat="49.8317632" lon="9.1419632">
                <ele>120.0</ele>
                <time>2020-08-29T14:06:37.000Z</time>
                <name>Trackpoint 5534</name>
            </trkpt>
            <trkpt lat="49.8318816" lon="9.1419952">
                <ele>120.0</ele>
                <time>2020-08-29T14:06:39.000Z</time>
                <name>Trackpoint 5535</name>
            </trkpt>
            <trkpt lat="49.832" lon="9.1420096">
                <ele>120.0</ele>
                <time>2020-08-29T14:06:41.000Z</time>
                <name>Trackpoint 5536</name>
            </trkpt>
            <trkpt lat="49.8321632" lon="9.1419984">
                <ele>120.0</ele>
                <time>2020-08-29T14:06:43.000Z</time>
                <name>Trackpoint 5537</name>
            </trkpt>
            <trkpt lat="49.8323104" lon="9.14196">
                <ele>120.0</ele>
                <time>2020-08-29T14:06:45.000Z</time>
                <name>Trackpoint 5538</name>
            </trkpt>
            <trkpt lat="49.8324512" lon="9.1419352">
                <ele>119.0</ele>
                <time>2020-08-29T14:06:47.000Z</time>
                <name>Trackpoint 5539</name>
            </trkpt>
            <trkpt lat="49.8325856" lon="9.1419536">
                <ele>119.0</ele>
                <time>2020-08-29T14:06:49.000Z</time>
                <name>Trackpoint 5540</name>
            </trkpt>
            <trkpt lat="49.8327072" lon="9.1420096">
                <ele>120.0</ele>
                <time>2020-08-29T14:06:51.000Z</time>
                <name>Trackpoint 5541</name>
            </trkpt>
            <trkpt lat="49.8328128" lon="9.14208">
                <ele>120.0</ele>
                <time>2020-08-29T14:06:53.000Z</time>
                <name>Trackpoint 5542</name>
            </trkpt>
            <trkpt lat="49.8329056" lon="9.1421544">
                <ele>120.0</ele>
                <time>2020-08-29T14:06:55.000Z</time>
                <name>Trackpoint 5543</name>
            </trkpt>
            <trkpt lat="49.8329632" lon="9.142272">
                <ele>119.0</ele>
                <time>2020-08-29T14:06:57.000Z</time>
                <name>Trackpoint 5544</name>
            </trkpt>
            <trkpt lat="49.8329504" lon="9.1424168">
                <ele>119.0</ele>
                <time>2020-08-29T14:06:59.000Z</time>
                <name>Trackpoint 5545</name>
            </trkpt>
            <trkpt lat="49.8328928" lon="9.14256">
                <ele>118.0</ele>
                <time>2020-08-29T14:07:01.000Z</time>
                <name>Trackpoint 5546</name>
            </trkpt>
            <trkpt lat="49.8328384" lon="9.1427088">
                <ele>118.0</ele>
                <time>2020-08-29T14:07:03.000Z</time>
                <name>Trackpoint 5547</name>
            </trkpt>
            <trkpt lat="49.8327776" lon="9.1428584">
                <ele>117.0</ele>
                <time>2020-08-29T14:07:05.000Z</time>
                <name>Trackpoint 5548</name>
            </trkpt>
            <trkpt lat="49.8327168" lon="9.143012">
                <ele>117.0</ele>
                <time>2020-08-29T14:07:07.000Z</time>
                <name>Trackpoint 5549</name>
            </trkpt>
            <trkpt lat="49.8326656" lon="9.1431704">
                <ele>117.0</ele>
                <time>2020-08-29T14:07:09.000Z</time>
                <name>Trackpoint 5550</name>
            </trkpt>
            <trkpt lat="49.8326144" lon="9.1433336">
                <ele>117.0</ele>
                <time>2020-08-29T14:07:11.000Z</time>
                <name>Trackpoint 5551</name>
            </trkpt>
            <trkpt lat="49.83256" lon="9.1434936">
                <ele>116.0</ele>
                <time>2020-08-29T14:07:13.000Z</time>
                <name>Trackpoint 5552</name>
            </trkpt>
            <trkpt lat="49.832512" lon="9.1436568">
                <ele>116.0</ele>
                <time>2020-08-29T14:07:15.000Z</time>
                <name>Trackpoint 5553</name>
            </trkpt>
            <trkpt lat="49.8324576" lon="9.1438176">
                <ele>116.0</ele>
                <time>2020-08-29T14:07:17.000Z</time>
                <name>Trackpoint 5554</name>
            </trkpt>
            <trkpt lat="49.8323936" lon="9.1439752">
                <ele>116.0</ele>
                <time>2020-08-29T14:07:19.000Z</time>
                <name>Trackpoint 5555</name>
            </trkpt>
            <trkpt lat="49.832336" lon="9.144132">
                <ele>116.0</ele>
                <time>2020-08-29T14:07:21.000Z</time>
                <name>Trackpoint 5556</name>
            </trkpt>
            <trkpt lat="49.8323072" lon="9.1443072">
                <ele>116.0</ele>
                <time>2020-08-29T14:07:23.000Z</time>
                <name>Trackpoint 5557</name>
            </trkpt>
            <trkpt lat="49.8323264" lon="9.1444864">
                <ele>116.0</ele>
                <time>2020-08-29T14:07:25.000Z</time>
                <name>Trackpoint 5558</name>
            </trkpt>
            <trkpt lat="49.8323904" lon="9.1446368">
                <ele>117.0</ele>
                <time>2020-08-29T14:07:27.000Z</time>
                <name>Trackpoint 5559</name>
            </trkpt>
            <trkpt lat="49.8324704" lon="9.1447624">
                <ele>117.0</ele>
                <time>2020-08-29T14:07:29.000Z</time>
                <name>Trackpoint 5560</name>
            </trkpt>
            <trkpt lat="49.8325728" lon="9.1448736">
                <ele>117.0</ele>
                <time>2020-08-29T14:07:31.000Z</time>
                <name>Trackpoint 5561</name>
            </trkpt>
            <trkpt lat="49.8326752" lon="9.1449832">
                <ele>118.0</ele>
                <time>2020-08-29T14:07:33.000Z</time>
                <name>Trackpoint 5562</name>
            </trkpt>
            <trkpt lat="49.8327968" lon="9.145092">
                <ele>118.0</ele>
                <time>2020-08-29T14:07:35.000Z</time>
                <name>Trackpoint 5563</name>
            </trkpt>
            <trkpt lat="49.832912" lon="9.1451968">
                <ele>118.0</ele>
                <time>2020-08-29T14:07:37.000Z</time>
                <name>Trackpoint 5564</name>
            </trkpt>
            <trkpt lat="49.8330496" lon="9.1452864">
                <ele>118.0</ele>
                <time>2020-08-29T14:07:39.000Z</time>
                <name>Trackpoint 5565</name>
            </trkpt>
            <trkpt lat="49.8331744" lon="9.1453784">
                <ele>118.0</ele>
                <time>2020-08-29T14:07:41.000Z</time>
                <name>Trackpoint 5566</name>
            </trkpt>
            <trkpt lat="49.8333056" lon="9.1454584">
                <ele>118.0</ele>
                <time>2020-08-29T14:07:43.000Z</time>
                <name>Trackpoint 5567</name>
            </trkpt>
            <trkpt lat="49.83344" lon="9.1455296">
                <ele>119.0</ele>
                <time>2020-08-29T14:07:45.000Z</time>
                <name>Trackpoint 5568</name>
            </trkpt>
            <trkpt lat="49.833568" lon="9.1456048">
                <ele>118.0</ele>
                <time>2020-08-29T14:07:47.000Z</time>
                <name>Trackpoint 5569</name>
            </trkpt>
            <trkpt lat="49.8336992" lon="9.1456872">
                <ele>119.0</ele>
                <time>2020-08-29T14:07:49.000Z</time>
                <name>Trackpoint 5570</name>
            </trkpt>
            <trkpt lat="49.8338272" lon="9.1457664">
                <ele>119.0</ele>
                <time>2020-08-29T14:07:51.000Z</time>
                <name>Trackpoint 5571</name>
            </trkpt>
            <trkpt lat="49.8339584" lon="9.1458456">
                <ele>119.0</ele>
                <time>2020-08-29T14:07:53.000Z</time>
                <name>Trackpoint 5572</name>
            </trkpt>
            <trkpt lat="49.8340832" lon="9.1459168">
                <ele>119.0</ele>
                <time>2020-08-29T14:07:55.000Z</time>
                <name>Trackpoint 5573</name>
            </trkpt>
            <trkpt lat="49.8342048" lon="9.1459904">
                <ele>119.0</ele>
                <time>2020-08-29T14:07:57.000Z</time>
                <name>Trackpoint 5574</name>
            </trkpt>
            <trkpt lat="49.8343264" lon="9.1460536">
                <ele>119.0</ele>
                <time>2020-08-29T14:07:59.000Z</time>
                <name>Trackpoint 5575</name>
            </trkpt>
            <trkpt lat="49.8344512" lon="9.14612">
                <ele>119.0</ele>
                <time>2020-08-29T14:08:01.000Z</time>
                <name>Trackpoint 5576</name>
            </trkpt>
            <trkpt lat="49.8345728" lon="9.1461832">
                <ele>119.0</ele>
                <time>2020-08-29T14:08:03.000Z</time>
                <name>Trackpoint 5577</name>
            </trkpt>
            <trkpt lat="49.8346816" lon="9.14624">
                <ele>119.0</ele>
                <time>2020-08-29T14:08:05.000Z</time>
                <name>Trackpoint 5578</name>
            </trkpt>
            <trkpt lat="49.8347936" lon="9.146292">
                <ele>119.0</ele>
                <time>2020-08-29T14:08:07.000Z</time>
                <name>Trackpoint 5579</name>
            </trkpt>
            <trkpt lat="49.834896" lon="9.1463432">
                <ele>118.0</ele>
                <time>2020-08-29T14:08:09.000Z</time>
                <name>Trackpoint 5580</name>
            </trkpt>
            <trkpt lat="49.8349984" lon="9.146408">
                <ele>119.0</ele>
                <time>2020-08-29T14:08:11.000Z</time>
                <name>Trackpoint 5581</name>
            </trkpt>
            <trkpt lat="49.8350976" lon="9.146468">
                <ele>119.0</ele>
                <time>2020-08-29T14:08:13.000Z</time>
                <name>Trackpoint 5582</name>
            </trkpt>
            <trkpt lat="49.8351968" lon="9.1465256">
                <ele>119.0</ele>
                <time>2020-08-29T14:08:15.000Z</time>
                <name>Trackpoint 5583</name>
            </trkpt>
            <trkpt lat="49.8352992" lon="9.1465752">
                <ele>119.0</ele>
                <time>2020-08-29T14:08:17.000Z</time>
                <name>Trackpoint 5584</name>
            </trkpt>
            <trkpt lat="49.8354048" lon="9.146628">
                <ele>119.0</ele>
                <time>2020-08-29T14:08:19.000Z</time>
                <name>Trackpoint 5585</name>
            </trkpt>
            <trkpt lat="49.8355104" lon="9.146684">
                <ele>118.0</ele>
                <time>2020-08-29T14:08:21.000Z</time>
                <name>Trackpoint 5586</name>
            </trkpt>
            <trkpt lat="49.8356224" lon="9.1467384">
                <ele>118.0</ele>
                <time>2020-08-29T14:08:23.000Z</time>
                <name>Trackpoint 5587</name>
            </trkpt>
            <trkpt lat="49.8357312" lon="9.1468048">
                <ele>118.0</ele>
                <time>2020-08-29T14:08:25.000Z</time>
                <name>Trackpoint 5588</name>
            </trkpt>
            <trkpt lat="49.8358432" lon="9.1468632">
                <ele>118.0</ele>
                <time>2020-08-29T14:08:27.000Z</time>
                <name>Trackpoint 5589</name>
            </trkpt>
            <trkpt lat="49.8359488" lon="9.1469184">
                <ele>118.0</ele>
                <time>2020-08-29T14:08:29.000Z</time>
                <name>Trackpoint 5590</name>
            </trkpt>
            <trkpt lat="49.8360544" lon="9.1469768">
                <ele>118.0</ele>
                <time>2020-08-29T14:08:31.000Z</time>
                <name>Trackpoint 5591</name>
            </trkpt>
            <trkpt lat="49.8361632" lon="9.14704">
                <ele>118.0</ele>
                <time>2020-08-29T14:08:33.000Z</time>
                <name>Trackpoint 5592</name>
            </trkpt>
            <trkpt lat="49.836272" lon="9.1470968">
                <ele>118.0</ele>
                <time>2020-08-29T14:08:35.000Z</time>
                <name>Trackpoint 5593</name>
            </trkpt>
            <trkpt lat="49.8363808" lon="9.1471432">
                <ele>118.0</ele>
                <time>2020-08-29T14:08:37.000Z</time>
                <name>Trackpoint 5594</name>
            </trkpt>
            <trkpt lat="49.8364896" lon="9.1471928">
                <ele>118.0</ele>
                <time>2020-08-29T14:08:39.000Z</time>
                <name>Trackpoint 5595</name>
            </trkpt>
            <trkpt lat="49.8366016" lon="9.1472584">
                <ele>119.0</ele>
                <time>2020-08-29T14:08:41.000Z</time>
                <name>Trackpoint 5596</name>
            </trkpt>
            <trkpt lat="49.8367072" lon="9.1473248">
                <ele>119.0</ele>
                <time>2020-08-29T14:08:43.000Z</time>
                <name>Trackpoint 5597</name>
            </trkpt>
            <trkpt lat="49.8368192" lon="9.1473848">
                <ele>119.0</ele>
                <time>2020-08-29T14:08:45.000Z</time>
                <name>Trackpoint 5598</name>
            </trkpt>
            <trkpt lat="49.8369248" lon="9.1474736">
                <ele>119.0</ele>
                <time>2020-08-29T14:08:47.000Z</time>
                <name>Trackpoint 5599</name>
            </trkpt>
            <trkpt lat="49.8370272" lon="9.1475688">
                <ele>119.0</ele>
                <time>2020-08-29T14:08:49.000Z</time>
                <name>Trackpoint 5600</name>
            </trkpt>
            <trkpt lat="49.8371264" lon="9.147668">
                <ele>119.0</ele>
                <time>2020-08-29T14:08:51.000Z</time>
                <name>Trackpoint 5601</name>
            </trkpt>
            <trkpt lat="49.8372256" lon="9.147772">
                <ele>119.0</ele>
                <time>2020-08-29T14:08:53.000Z</time>
                <name>Trackpoint 5602</name>
            </trkpt>
            <trkpt lat="49.8373184" lon="9.1478632">
                <ele>118.0</ele>
                <time>2020-08-29T14:08:55.000Z</time>
                <name>Trackpoint 5603</name>
            </trkpt>
            <trkpt lat="49.8374048" lon="9.1479552">
                <ele>118.0</ele>
                <time>2020-08-29T14:08:57.000Z</time>
                <name>Trackpoint 5604</name>
            </trkpt>
            <trkpt lat="49.8375008" lon="9.1480216">
                <ele>118.0</ele>
                <time>2020-08-29T14:08:59.000Z</time>
                <name>Trackpoint 5605</name>
            </trkpt>
            <trkpt lat="49.8376032" lon="9.1480688">
                <ele>118.0</ele>
                <time>2020-08-29T14:09:01.000Z</time>
                <name>Trackpoint 5606</name>
            </trkpt>
            <trkpt lat="49.8377152" lon="9.1481016">
                <ele>118.0</ele>
                <time>2020-08-29T14:09:03.000Z</time>
                <name>Trackpoint 5607</name>
            </trkpt>
            <trkpt lat="49.8378272" lon="9.1481448">
                <ele>118.0</ele>
                <time>2020-08-29T14:09:05.000Z</time>
                <name>Trackpoint 5608</name>
            </trkpt>
            <trkpt lat="49.8379264" lon="9.14818">
                <ele>118.0</ele>
                <time>2020-08-29T14:09:07.000Z</time>
                <name>Trackpoint 5609</name>
            </trkpt>
            <trkpt lat="49.838032" lon="9.1482624">
                <ele>118.0</ele>
                <time>2020-08-29T14:09:10.000Z</time>
                <name>Trackpoint 5610</name>
            </trkpt>
            <trkpt lat="49.8381248" lon="9.148316">
                <ele>118.0</ele>
                <time>2020-08-29T14:09:12.000Z</time>
                <name>Trackpoint 5611</name>
            </trkpt>
            <trkpt lat="49.838208" lon="9.1483784">
                <ele>119.0</ele>
                <time>2020-08-29T14:09:15.000Z</time>
                <name>Trackpoint 5612</name>
            </trkpt>
            <trkpt lat="49.8382976" lon="9.1484584">
                <ele>119.0</ele>
                <time>2020-08-29T14:09:19.000Z</time>
                <name>Trackpoint 5613</name>
            </trkpt>
            <trkpt lat="49.8384096" lon="9.1485144">
                <ele>119.0</ele>
                <time>2020-08-29T14:09:23.000Z</time>
                <name>Trackpoint 5614</name>
            </trkpt>
            <trkpt lat="49.8385216" lon="9.14864">
                <ele>119.0</ele>
                <time>2020-08-29T14:09:26.000Z</time>
                <name>Trackpoint 5615</name>
            </trkpt>
            <trkpt lat="49.8386144" lon="9.148744">
                <ele>120.0</ele>
                <time>2020-08-29T14:09:28.000Z</time>
                <name>Trackpoint 5616</name>
            </trkpt>
            <trkpt lat="49.838736" lon="9.14884">
                <ele>120.0</ele>
                <time>2020-08-29T14:09:30.000Z</time>
                <name>Trackpoint 5617</name>
            </trkpt>
            <trkpt lat="49.838848" lon="9.148896">
                <ele>120.0</ele>
                <time>2020-08-29T14:09:32.000Z</time>
                <name>Trackpoint 5618</name>
            </trkpt>
            <trkpt lat="49.8389504" lon="9.148936">
                <ele>120.0</ele>
                <time>2020-08-29T14:09:34.000Z</time>
                <name>Trackpoint 5619</name>
            </trkpt>
            <trkpt lat="49.839072" lon="9.1490048">
                <ele>119.0</ele>
                <time>2020-08-29T14:09:36.000Z</time>
                <name>Trackpoint 5620</name>
            </trkpt>
            <trkpt lat="49.8391776" lon="9.149072">
                <ele>120.0</ele>
                <time>2020-08-29T14:09:38.000Z</time>
                <name>Trackpoint 5621</name>
            </trkpt>
            <trkpt lat="49.8392768" lon="9.1491432">
                <ele>120.0</ele>
                <time>2020-08-29T14:09:40.000Z</time>
                <name>Trackpoint 5622</name>
            </trkpt>
            <trkpt lat="49.8393856" lon="9.1492256">
                <ele>120.0</ele>
                <time>2020-08-29T14:09:42.000Z</time>
                <name>Trackpoint 5623</name>
            </trkpt>
            <trkpt lat="49.8394656" lon="9.1493056">
                <ele>120.0</ele>
                <time>2020-08-29T14:09:44.000Z</time>
                <name>Trackpoint 5624</name>
            </trkpt>
            <trkpt lat="49.8395488" lon="9.149348">
                <ele>120.0</ele>
                <time>2020-08-29T14:09:46.000Z</time>
                <name>Trackpoint 5625</name>
            </trkpt>
            <trkpt lat="49.83968" lon="9.1494032">
                <ele>120.0</ele>
                <time>2020-08-29T14:09:49.000Z</time>
                <name>Trackpoint 5626</name>
            </trkpt>
            <trkpt lat="49.839776" lon="9.1494448">
                <ele>120.0</ele>
                <time>2020-08-29T14:09:51.000Z</time>
                <name>Trackpoint 5627</name>
            </trkpt>
            <trkpt lat="49.8398656" lon="9.1495064">
                <ele>120.0</ele>
                <time>2020-08-29T14:09:53.000Z</time>
                <name>Trackpoint 5628</name>
            </trkpt>
            <trkpt lat="49.8399776" lon="9.1495648">
                <ele>120.0</ele>
                <time>2020-08-29T14:09:55.000Z</time>
                <name>Trackpoint 5629</name>
            </trkpt>
            <trkpt lat="49.84008" lon="9.1496296">
                <ele>120.0</ele>
                <time>2020-08-29T14:09:57.000Z</time>
                <name>Trackpoint 5630</name>
            </trkpt>
            <trkpt lat="49.8402016" lon="9.1496888">
                <ele>120.0</ele>
                <time>2020-08-29T14:09:59.000Z</time>
                <name>Trackpoint 5631</name>
            </trkpt>
            <trkpt lat="49.8403328" lon="9.1497632">
                <ele>120.0</ele>
                <time>2020-08-29T14:10:01.000Z</time>
                <name>Trackpoint 5632</name>
            </trkpt>
            <trkpt lat="49.8404576" lon="9.1498616">
                <ele>120.0</ele>
                <time>2020-08-29T14:10:03.000Z</time>
                <name>Trackpoint 5633</name>
            </trkpt>
            <trkpt lat="49.8405792" lon="9.1499504">
                <ele>120.0</ele>
                <time>2020-08-29T14:10:05.000Z</time>
                <name>Trackpoint 5634</name>
            </trkpt>
            <trkpt lat="49.8406688" lon="9.1500264">
                <ele>120.0</ele>
                <time>2020-08-29T14:10:07.000Z</time>
                <name>Trackpoint 5635</name>
            </trkpt>
            <trkpt lat="49.840752" lon="9.1500904">
                <ele>120.0</ele>
                <time>2020-08-29T14:10:09.000Z</time>
                <name>Trackpoint 5636</name>
            </trkpt>
            <trkpt lat="49.840848" lon="9.1501504">
                <ele>121.0</ele>
                <time>2020-08-29T14:10:11.000Z</time>
                <name>Trackpoint 5637</name>
            </trkpt>
            <trkpt lat="49.8409408" lon="9.1502064">
                <ele>121.0</ele>
                <time>2020-08-29T14:10:13.000Z</time>
                <name>Trackpoint 5638</name>
            </trkpt>
            <trkpt lat="49.8410272" lon="9.1502688">
                <ele>121.0</ele>
                <time>2020-08-29T14:10:15.000Z</time>
                <name>Trackpoint 5639</name>
            </trkpt>
            <trkpt lat="49.8410976" lon="9.1503264">
                <ele>121.0</ele>
                <time>2020-08-29T14:10:17.000Z</time>
                <name>Trackpoint 5640</name>
            </trkpt>
            <trkpt lat="49.8412032" lon="9.1503952">
                <ele>121.0</ele>
                <time>2020-08-29T14:10:20.000Z</time>
                <name>Trackpoint 5641</name>
            </trkpt>
            <trkpt lat="49.8412864" lon="9.15048">
                <ele>120.0</ele>
                <time>2020-08-29T14:10:23.000Z</time>
                <name>Trackpoint 5642</name>
            </trkpt>
            <trkpt lat="49.8414016" lon="9.1504968">
                <ele>120.0</ele>
                <time>2020-08-29T14:10:27.000Z</time>
                <name>Trackpoint 5643</name>
            </trkpt>
            <trkpt lat="49.841504" lon="9.150532">
                <ele>120.0</ele>
                <time>2020-08-29T14:10:30.000Z</time>
                <name>Trackpoint 5644</name>
            </trkpt>
            <trkpt lat="49.8416256" lon="9.150592">
                <ele>120.0</ele>
                <time>2020-08-29T14:10:33.000Z</time>
                <name>Trackpoint 5645</name>
            </trkpt>
            <trkpt lat="49.8417312" lon="9.150648">
                <ele>120.0</ele>
                <time>2020-08-29T14:10:35.000Z</time>
                <name>Trackpoint 5646</name>
            </trkpt>
            <trkpt lat="49.8418336" lon="9.1507104">
                <ele>120.0</ele>
                <time>2020-08-29T14:10:37.000Z</time>
                <name>Trackpoint 5647</name>
            </trkpt>
            <trkpt lat="49.8419296" lon="9.1507504">
                <ele>120.0</ele>
                <time>2020-08-29T14:10:39.000Z</time>
                <name>Trackpoint 5648</name>
            </trkpt>
            <trkpt lat="49.8420864" lon="9.1508248">
                <ele>119.0</ele>
                <time>2020-08-29T14:10:41.000Z</time>
                <name>Trackpoint 5649</name>
            </trkpt>
            <trkpt lat="49.8421984" lon="9.1508664">
                <ele>119.0</ele>
                <time>2020-08-29T14:10:43.000Z</time>
                <name>Trackpoint 5650</name>
            </trkpt>
            <trkpt lat="49.84232" lon="9.1509304">
                <ele>120.0</ele>
                <time>2020-08-29T14:10:45.000Z</time>
                <name>Trackpoint 5651</name>
            </trkpt>
            <trkpt lat="49.8424288" lon="9.1509752">
                <ele>120.0</ele>
                <time>2020-08-29T14:10:47.000Z</time>
                <name>Trackpoint 5652</name>
            </trkpt>
            <trkpt lat="49.8425408" lon="9.1510112">
                <ele>120.0</ele>
                <time>2020-08-29T14:10:49.000Z</time>
                <name>Trackpoint 5653</name>
            </trkpt>
            <trkpt lat="49.8426592" lon="9.15106">
                <ele>120.0</ele>
                <time>2020-08-29T14:10:51.000Z</time>
                <name>Trackpoint 5654</name>
            </trkpt>
            <trkpt lat="49.8427808" lon="9.1511072">
                <ele>119.0</ele>
                <time>2020-08-29T14:10:53.000Z</time>
                <name>Trackpoint 5655</name>
            </trkpt>
            <trkpt lat="49.8429056" lon="9.1511536">
                <ele>119.0</ele>
                <time>2020-08-29T14:10:55.000Z</time>
                <name>Trackpoint 5656</name>
            </trkpt>
            <trkpt lat="49.8430208" lon="9.151192">
                <ele>119.0</ele>
                <time>2020-08-29T14:10:57.000Z</time>
                <name>Trackpoint 5657</name>
            </trkpt>
            <trkpt lat="49.84312" lon="9.151232">
                <ele>119.0</ele>
                <time>2020-08-29T14:10:59.000Z</time>
                <name>Trackpoint 5658</name>
            </trkpt>
            <trkpt lat="49.8432384" lon="9.1512808">
                <ele>119.0</ele>
                <time>2020-08-29T14:11:01.000Z</time>
                <name>Trackpoint 5659</name>
            </trkpt>
            <trkpt lat="49.8433632" lon="9.151332">
                <ele>119.0</ele>
                <time>2020-08-29T14:11:03.000Z</time>
                <name>Trackpoint 5660</name>
            </trkpt>
            <trkpt lat="49.8434976" lon="9.1513752">
                <ele>119.0</ele>
                <time>2020-08-29T14:11:05.000Z</time>
                <name>Trackpoint 5661</name>
            </trkpt>
            <trkpt lat="49.8436384" lon="9.15142">
                <ele>120.0</ele>
                <time>2020-08-29T14:11:07.000Z</time>
                <name>Trackpoint 5662</name>
            </trkpt>
            <trkpt lat="49.8437504" lon="9.1514616">
                <ele>120.0</ele>
                <time>2020-08-29T14:11:09.000Z</time>
                <name>Trackpoint 5663</name>
            </trkpt>
            <trkpt lat="49.8438656" lon="9.1515032">
                <ele>119.0</ele>
                <time>2020-08-29T14:11:11.000Z</time>
                <name>Trackpoint 5664</name>
            </trkpt>
            <trkpt lat="49.8439904" lon="9.1515464">
                <ele>120.0</ele>
                <time>2020-08-29T14:11:13.000Z</time>
                <name>Trackpoint 5665</name>
            </trkpt>
            <trkpt lat="49.8441088" lon="9.1515888">
                <ele>120.0</ele>
                <time>2020-08-29T14:11:15.000Z</time>
                <name>Trackpoint 5666</name>
            </trkpt>
            <trkpt lat="49.8442368" lon="9.1516184">
                <ele>119.0</ele>
                <time>2020-08-29T14:11:17.000Z</time>
                <name>Trackpoint 5667</name>
            </trkpt>
            <trkpt lat="49.844352" lon="9.1516704">
                <ele>119.0</ele>
                <time>2020-08-29T14:11:19.000Z</time>
                <name>Trackpoint 5668</name>
            </trkpt>
            <trkpt lat="49.8444544" lon="9.1517216">
                <ele>119.0</ele>
                <time>2020-08-29T14:11:21.000Z</time>
                <name>Trackpoint 5669</name>
            </trkpt>
            <trkpt lat="49.844528" lon="9.1518072">
                <ele>119.0</ele>
                <time>2020-08-29T14:11:23.000Z</time>
                <name>Trackpoint 5670</name>
            </trkpt>
            <trkpt lat="49.8445856" lon="9.1519448">
                <ele>119.0</ele>
                <time>2020-08-29T14:11:25.000Z</time>
                <name>Trackpoint 5671</name>
            </trkpt>
            <trkpt lat="49.8446464" lon="9.1520816">
                <ele>119.0</ele>
                <time>2020-08-29T14:11:27.000Z</time>
                <name>Trackpoint 5672</name>
            </trkpt>
            <trkpt lat="49.844752" lon="9.15216">
                <ele>120.0</ele>
                <time>2020-08-29T14:11:29.000Z</time>
                <name>Trackpoint 5673</name>
            </trkpt>
            <trkpt lat="49.8448672" lon="9.1521968">
                <ele>120.0</ele>
                <time>2020-08-29T14:11:31.000Z</time>
                <name>Trackpoint 5674</name>
            </trkpt>
            <trkpt lat="49.8449792" lon="9.1521816">
                <ele>121.0</ele>
                <time>2020-08-29T14:11:33.000Z</time>
                <name>Trackpoint 5675</name>
            </trkpt>
            <trkpt lat="49.845088" lon="9.1521432">
                <ele>121.0</ele>
                <time>2020-08-29T14:11:35.000Z</time>
                <name>Trackpoint 5676</name>
            </trkpt>
            <trkpt lat="49.8452032" lon="9.1521">
                <ele>121.0</ele>
                <time>2020-08-29T14:11:37.000Z</time>
                <name>Trackpoint 5677</name>
            </trkpt>
            <trkpt lat="49.8453216" lon="9.1520728">
                <ele>121.0</ele>
                <time>2020-08-29T14:11:39.000Z</time>
                <name>Trackpoint 5678</name>
            </trkpt>
            <trkpt lat="49.84544" lon="9.1520856">
                <ele>121.0</ele>
                <time>2020-08-29T14:11:41.000Z</time>
                <name>Trackpoint 5679</name>
            </trkpt>
            <trkpt lat="49.8455584" lon="9.1521256">
                <ele>121.0</ele>
                <time>2020-08-29T14:11:43.000Z</time>
                <name>Trackpoint 5680</name>
            </trkpt>
            <trkpt lat="49.8456672" lon="9.1521656">
                <ele>121.0</ele>
                <time>2020-08-29T14:11:45.000Z</time>
                <name>Trackpoint 5681</name>
            </trkpt>
            <trkpt lat="49.8457824" lon="9.1521984">
                <ele>122.0</ele>
                <time>2020-08-29T14:11:47.000Z</time>
                <name>Trackpoint 5682</name>
            </trkpt>
            <trkpt lat="49.8459008" lon="9.1522368">
                <ele>122.0</ele>
                <time>2020-08-29T14:11:49.000Z</time>
                <name>Trackpoint 5683</name>
            </trkpt>
            <trkpt lat="49.8460192" lon="9.1522752">
                <ele>123.0</ele>
                <time>2020-08-29T14:11:51.000Z</time>
                <name>Trackpoint 5684</name>
            </trkpt>
            <trkpt lat="49.8461344" lon="9.1523088">
                <ele>123.0</ele>
                <time>2020-08-29T14:11:53.000Z</time>
                <name>Trackpoint 5685</name>
            </trkpt>
            <trkpt lat="49.8462496" lon="9.15234">
                <ele>123.0</ele>
                <time>2020-08-29T14:11:55.000Z</time>
                <name>Trackpoint 5686</name>
            </trkpt>
            <trkpt lat="49.846368" lon="9.1523736">
                <ele>124.0</ele>
                <time>2020-08-29T14:11:57.000Z</time>
                <name>Trackpoint 5687</name>
            </trkpt>
            <trkpt lat="49.8464768" lon="9.1524096">
                <ele>123.0</ele>
                <time>2020-08-29T14:11:59.000Z</time>
                <name>Trackpoint 5688</name>
            </trkpt>
            <trkpt lat="49.8465888" lon="9.1524464">
                <ele>123.0</ele>
                <time>2020-08-29T14:12:01.000Z</time>
                <name>Trackpoint 5689</name>
            </trkpt>
            <trkpt lat="49.846704" lon="9.1524832">
                <ele>123.0</ele>
                <time>2020-08-29T14:12:03.000Z</time>
                <name>Trackpoint 5690</name>
            </trkpt>
            <trkpt lat="49.846816" lon="9.1525248">
                <ele>123.0</ele>
                <time>2020-08-29T14:12:05.000Z</time>
                <name>Trackpoint 5691</name>
            </trkpt>
            <trkpt lat="49.8469312" lon="9.1525624">
                <ele>122.0</ele>
                <time>2020-08-29T14:12:07.000Z</time>
                <name>Trackpoint 5692</name>
            </trkpt>
            <trkpt lat="49.8470432" lon="9.1525984">
                <ele>123.0</ele>
                <time>2020-08-29T14:12:09.000Z</time>
                <name>Trackpoint 5693</name>
            </trkpt>
            <trkpt lat="49.847152" lon="9.152632">
                <ele>123.0</ele>
                <time>2020-08-29T14:12:11.000Z</time>
                <name>Trackpoint 5694</name>
            </trkpt>
            <trkpt lat="49.8472608" lon="9.1526672">
                <ele>123.0</ele>
                <time>2020-08-29T14:12:13.000Z</time>
                <name>Trackpoint 5695</name>
            </trkpt>
            <trkpt lat="49.8473632" lon="9.1527032">
                <ele>122.0</ele>
                <time>2020-08-29T14:12:15.000Z</time>
                <name>Trackpoint 5696</name>
            </trkpt>
            <trkpt lat="49.8474784" lon="9.1527392">
                <ele>122.0</ele>
                <time>2020-08-29T14:12:17.000Z</time>
                <name>Trackpoint 5697</name>
            </trkpt>
            <trkpt lat="49.8476" lon="9.1527832">
                <ele>121.0</ele>
                <time>2020-08-29T14:12:19.000Z</time>
                <name>Trackpoint 5698</name>
            </trkpt>
            <trkpt lat="49.847712" lon="9.1528232">
                <ele>122.0</ele>
                <time>2020-08-29T14:12:21.000Z</time>
                <name>Trackpoint 5699</name>
            </trkpt>
            <trkpt lat="49.84784" lon="9.1528552">
                <ele>122.0</ele>
                <time>2020-08-29T14:12:23.000Z</time>
                <name>Trackpoint 5700</name>
            </trkpt>
            <trkpt lat="49.8479488" lon="9.1528904">
                <ele>122.0</ele>
                <time>2020-08-29T14:12:25.000Z</time>
                <name>Trackpoint 5701</name>
            </trkpt>
            <trkpt lat="49.8480672" lon="9.1529216">
                <ele>122.0</ele>
                <time>2020-08-29T14:12:27.000Z</time>
                <name>Trackpoint 5702</name>
            </trkpt>
            <trkpt lat="49.8481856" lon="9.1529552">
                <ele>122.0</ele>
                <time>2020-08-29T14:12:29.000Z</time>
                <name>Trackpoint 5703</name>
            </trkpt>
            <trkpt lat="49.8483008" lon="9.1529904">
                <ele>121.0</ele>
                <time>2020-08-29T14:12:31.000Z</time>
                <name>Trackpoint 5704</name>
            </trkpt>
            <trkpt lat="49.848416" lon="9.1530216">
                <ele>121.0</ele>
                <time>2020-08-29T14:12:33.000Z</time>
                <name>Trackpoint 5705</name>
            </trkpt>
            <trkpt lat="49.8485248" lon="9.1530552">
                <ele>121.0</ele>
                <time>2020-08-29T14:12:35.000Z</time>
                <name>Trackpoint 5706</name>
            </trkpt>
            <trkpt lat="49.8486368" lon="9.153084">
                <ele>122.0</ele>
                <time>2020-08-29T14:12:37.000Z</time>
                <name>Trackpoint 5707</name>
            </trkpt>
            <trkpt lat="49.8487488" lon="9.1531112">
                <ele>122.0</ele>
                <time>2020-08-29T14:12:39.000Z</time>
                <name>Trackpoint 5708</name>
            </trkpt>
            <trkpt lat="49.8488544" lon="9.1531448">
                <ele>122.0</ele>
                <time>2020-08-29T14:12:41.000Z</time>
                <name>Trackpoint 5709</name>
            </trkpt>
            <trkpt lat="49.8489632" lon="9.153176">
                <ele>121.0</ele>
                <time>2020-08-29T14:12:43.000Z</time>
                <name>Trackpoint 5710</name>
            </trkpt>
            <trkpt lat="49.8490752" lon="9.1532096">
                <ele>122.0</ele>
                <time>2020-08-29T14:12:45.000Z</time>
                <name>Trackpoint 5711</name>
            </trkpt>
            <trkpt lat="49.8491936" lon="9.1532424">
                <ele>121.0</ele>
                <time>2020-08-29T14:12:47.000Z</time>
                <name>Trackpoint 5712</name>
            </trkpt>
            <trkpt lat="49.849312" lon="9.1532768">
                <ele>122.0</ele>
                <time>2020-08-29T14:12:49.000Z</time>
                <name>Trackpoint 5713</name>
            </trkpt>
            <trkpt lat="49.8494304" lon="9.1533096">
                <ele>121.0</ele>
                <time>2020-08-29T14:12:51.000Z</time>
                <name>Trackpoint 5714</name>
            </trkpt>
            <trkpt lat="49.8495456" lon="9.15334">
                <ele>122.0</ele>
                <time>2020-08-29T14:12:53.000Z</time>
                <name>Trackpoint 5715</name>
            </trkpt>
            <trkpt lat="49.8496576" lon="9.15338">
                <ele>121.0</ele>
                <time>2020-08-29T14:12:55.000Z</time>
                <name>Trackpoint 5716</name>
            </trkpt>
            <trkpt lat="49.8497728" lon="9.1534136">
                <ele>121.0</ele>
                <time>2020-08-29T14:12:57.000Z</time>
                <name>Trackpoint 5717</name>
            </trkpt>
            <trkpt lat="49.8498912" lon="9.1534504">
                <ele>121.0</ele>
                <time>2020-08-29T14:12:59.000Z</time>
                <name>Trackpoint 5718</name>
            </trkpt>
            <trkpt lat="49.8500032" lon="9.1534864">
                <ele>120.0</ele>
                <time>2020-08-29T14:13:01.000Z</time>
                <name>Trackpoint 5719</name>
            </trkpt>
            <trkpt lat="49.8501152" lon="9.1535216">
                <ele>120.0</ele>
                <time>2020-08-29T14:13:03.000Z</time>
                <name>Trackpoint 5720</name>
            </trkpt>
            <trkpt lat="49.850224" lon="9.1535552">
                <ele>120.0</ele>
                <time>2020-08-29T14:13:05.000Z</time>
                <name>Trackpoint 5721</name>
            </trkpt>
            <trkpt lat="49.8503424" lon="9.1535904">
                <ele>120.0</ele>
                <time>2020-08-29T14:13:07.000Z</time>
                <name>Trackpoint 5722</name>
            </trkpt>
            <trkpt lat="49.850464" lon="9.1536264">
                <ele>120.0</ele>
                <time>2020-08-29T14:13:09.000Z</time>
                <name>Trackpoint 5723</name>
            </trkpt>
            <trkpt lat="49.850592" lon="9.1536616">
                <ele>120.0</ele>
                <time>2020-08-29T14:13:11.000Z</time>
                <name>Trackpoint 5724</name>
            </trkpt>
            <trkpt lat="49.85072" lon="9.1537088">
                <ele>120.0</ele>
                <time>2020-08-29T14:13:13.000Z</time>
                <name>Trackpoint 5725</name>
            </trkpt>
            <trkpt lat="49.8508544" lon="9.1537488">
                <ele>120.0</ele>
                <time>2020-08-29T14:13:15.000Z</time>
                <name>Trackpoint 5726</name>
            </trkpt>
            <trkpt lat="49.8509792" lon="9.1537864">
                <ele>120.0</ele>
                <time>2020-08-29T14:13:17.000Z</time>
                <name>Trackpoint 5727</name>
            </trkpt>
            <trkpt lat="49.8511072" lon="9.1538248">
                <ele>120.0</ele>
                <time>2020-08-29T14:13:19.000Z</time>
                <name>Trackpoint 5728</name>
            </trkpt>
            <trkpt lat="49.8512256" lon="9.1538648">
                <ele>120.0</ele>
                <time>2020-08-29T14:13:21.000Z</time>
                <name>Trackpoint 5729</name>
            </trkpt>
            <trkpt lat="49.8513504" lon="9.1538984">
                <ele>120.0</ele>
                <time>2020-08-29T14:13:23.000Z</time>
                <name>Trackpoint 5730</name>
            </trkpt>
            <trkpt lat="49.851472" lon="9.1539248">
                <ele>120.0</ele>
                <time>2020-08-29T14:13:25.000Z</time>
                <name>Trackpoint 5731</name>
            </trkpt>
            <trkpt lat="49.851584" lon="9.1539632">
                <ele>120.0</ele>
                <time>2020-08-29T14:13:27.000Z</time>
                <name>Trackpoint 5732</name>
            </trkpt>
            <trkpt lat="49.8517088" lon="9.1540032">
                <ele>121.0</ele>
                <time>2020-08-29T14:13:29.000Z</time>
                <name>Trackpoint 5733</name>
            </trkpt>
            <trkpt lat="49.8518304" lon="9.1540416">
                <ele>121.0</ele>
                <time>2020-08-29T14:13:31.000Z</time>
                <name>Trackpoint 5734</name>
            </trkpt>
            <trkpt lat="49.8519552" lon="9.1540848">
                <ele>120.0</ele>
                <time>2020-08-29T14:13:33.000Z</time>
                <name>Trackpoint 5735</name>
            </trkpt>
            <trkpt lat="49.8520768" lon="9.1541208">
                <ele>120.0</ele>
                <time>2020-08-29T14:13:35.000Z</time>
                <name>Trackpoint 5736</name>
            </trkpt>
            <trkpt lat="49.852208" lon="9.1541592">
                <ele>121.0</ele>
                <time>2020-08-29T14:13:37.000Z</time>
                <name>Trackpoint 5737</name>
            </trkpt>
            <trkpt lat="49.8523232" lon="9.1541952">
                <ele>121.0</ele>
                <time>2020-08-29T14:13:39.000Z</time>
                <name>Trackpoint 5738</name>
            </trkpt>
            <trkpt lat="49.8524352" lon="9.1542264">
                <ele>121.0</ele>
                <time>2020-08-29T14:13:41.000Z</time>
                <name>Trackpoint 5739</name>
            </trkpt>
            <trkpt lat="49.8525504" lon="9.1542616">
                <ele>120.0</ele>
                <time>2020-08-29T14:13:43.000Z</time>
                <name>Trackpoint 5740</name>
            </trkpt>
            <trkpt lat="49.8526752" lon="9.1542984">
                <ele>120.0</ele>
                <time>2020-08-29T14:13:45.000Z</time>
                <name>Trackpoint 5741</name>
            </trkpt>
            <trkpt lat="49.8527904" lon="9.1543312">
                <ele>120.0</ele>
                <time>2020-08-29T14:13:47.000Z</time>
                <name>Trackpoint 5742</name>
            </trkpt>
            <trkpt lat="49.8529088" lon="9.154364">
                <ele>119.0</ele>
                <time>2020-08-29T14:13:49.000Z</time>
                <name>Trackpoint 5743</name>
            </trkpt>
            <trkpt lat="49.8530272" lon="9.1543976">
                <ele>120.0</ele>
                <time>2020-08-29T14:13:51.000Z</time>
                <name>Trackpoint 5744</name>
            </trkpt>
            <trkpt lat="49.8531424" lon="9.1544288">
                <ele>120.0</ele>
                <time>2020-08-29T14:13:53.000Z</time>
                <name>Trackpoint 5745</name>
            </trkpt>
            <trkpt lat="49.8532576" lon="9.15446">
                <ele>120.0</ele>
                <time>2020-08-29T14:13:55.000Z</time>
                <name>Trackpoint 5746</name>
            </trkpt>
            <trkpt lat="49.8533632" lon="9.1544912">
                <ele>120.0</ele>
                <time>2020-08-29T14:13:57.000Z</time>
                <name>Trackpoint 5747</name>
            </trkpt>
            <trkpt lat="49.8534784" lon="9.1545136">
                <ele>120.0</ele>
                <time>2020-08-29T14:13:59.000Z</time>
                <name>Trackpoint 5748</name>
            </trkpt>
            <trkpt lat="49.8536032" lon="9.1545448">
                <ele>120.0</ele>
                <time>2020-08-29T14:14:01.000Z</time>
                <name>Trackpoint 5749</name>
            </trkpt>
            <trkpt lat="49.853744" lon="9.1545896">
                <ele>119.0</ele>
                <time>2020-08-29T14:14:03.000Z</time>
                <name>Trackpoint 5750</name>
            </trkpt>
            <trkpt lat="49.8538848" lon="9.154636">
                <ele>119.0</ele>
                <time>2020-08-29T14:14:05.000Z</time>
                <name>Trackpoint 5751</name>
            </trkpt>
            <trkpt lat="49.8540224" lon="9.1546816">
                <ele>120.0</ele>
                <time>2020-08-29T14:14:07.000Z</time>
                <name>Trackpoint 5752</name>
            </trkpt>
            <trkpt lat="49.8541536" lon="9.1547136">
                <ele>120.0</ele>
                <time>2020-08-29T14:14:09.000Z</time>
                <name>Trackpoint 5753</name>
            </trkpt>
            <trkpt lat="49.854272" lon="9.154748">
                <ele>120.0</ele>
                <time>2020-08-29T14:14:11.000Z</time>
                <name>Trackpoint 5754</name>
            </trkpt>
            <trkpt lat="49.8543904" lon="9.15478">
                <ele>120.0</ele>
                <time>2020-08-29T14:14:13.000Z</time>
                <name>Trackpoint 5755</name>
            </trkpt>
            <trkpt lat="49.854512" lon="9.1547984">
                <ele>120.0</ele>
                <time>2020-08-29T14:14:15.000Z</time>
                <name>Trackpoint 5756</name>
            </trkpt>
            <trkpt lat="49.8546496" lon="9.1548384">
                <ele>120.0</ele>
                <time>2020-08-29T14:14:17.000Z</time>
                <name>Trackpoint 5757</name>
            </trkpt>
            <trkpt lat="49.8547904" lon="9.154892">
                <ele>120.0</ele>
                <time>2020-08-29T14:14:19.000Z</time>
                <name>Trackpoint 5758</name>
            </trkpt>
            <trkpt lat="49.8549312" lon="9.1549384">
                <ele>121.0</ele>
                <time>2020-08-29T14:14:21.000Z</time>
                <name>Trackpoint 5759</name>
            </trkpt>
            <trkpt lat="49.8550688" lon="9.1549784">
                <ele>120.0</ele>
                <time>2020-08-29T14:14:23.000Z</time>
                <name>Trackpoint 5760</name>
            </trkpt>
            <trkpt lat="49.8552096" lon="9.1550152">
                <ele>121.0</ele>
                <time>2020-08-29T14:14:25.000Z</time>
                <name>Trackpoint 5761</name>
            </trkpt>
            <trkpt lat="49.8553504" lon="9.1550552">
                <ele>120.0</ele>
                <time>2020-08-29T14:14:27.000Z</time>
                <name>Trackpoint 5762</name>
            </trkpt>
            <trkpt lat="49.8554912" lon="9.1550928">
                <ele>121.0</ele>
                <time>2020-08-29T14:14:29.000Z</time>
                <name>Trackpoint 5763</name>
            </trkpt>
            <trkpt lat="49.855632" lon="9.1551336">
                <ele>120.0</ele>
                <time>2020-08-29T14:14:31.000Z</time>
                <name>Trackpoint 5764</name>
            </trkpt>
            <trkpt lat="49.8557728" lon="9.1551704">
                <ele>120.0</ele>
                <time>2020-08-29T14:14:33.000Z</time>
                <name>Trackpoint 5765</name>
            </trkpt>
            <trkpt lat="49.8559072" lon="9.1552088">
                <ele>120.0</ele>
                <time>2020-08-29T14:14:35.000Z</time>
                <name>Trackpoint 5766</name>
            </trkpt>
            <trkpt lat="49.8560448" lon="9.1552464">
                <ele>120.0</ele>
                <time>2020-08-29T14:14:37.000Z</time>
                <name>Trackpoint 5767</name>
            </trkpt>
            <trkpt lat="49.8561792" lon="9.1552848">
                <ele>120.0</ele>
                <time>2020-08-29T14:14:39.000Z</time>
                <name>Trackpoint 5768</name>
            </trkpt>
            <trkpt lat="49.8563104" lon="9.1553248">
                <ele>119.0</ele>
                <time>2020-08-29T14:14:41.000Z</time>
                <name>Trackpoint 5769</name>
            </trkpt>
            <trkpt lat="49.856448" lon="9.1553624">
                <ele>119.0</ele>
                <time>2020-08-29T14:14:43.000Z</time>
                <name>Trackpoint 5770</name>
            </trkpt>
            <trkpt lat="49.8565792" lon="9.1553984">
                <ele>119.0</ele>
                <time>2020-08-29T14:14:45.000Z</time>
                <name>Trackpoint 5771</name>
            </trkpt>
            <trkpt lat="49.8567072" lon="9.1554384">
                <ele>118.0</ele>
                <time>2020-08-29T14:14:47.000Z</time>
                <name>Trackpoint 5772</name>
            </trkpt>
            <trkpt lat="49.8568384" lon="9.1554736">
                <ele>118.0</ele>
                <time>2020-08-29T14:14:49.000Z</time>
                <name>Trackpoint 5773</name>
            </trkpt>
            <trkpt lat="49.8569664" lon="9.1555096">
                <ele>118.0</ele>
                <time>2020-08-29T14:14:51.000Z</time>
                <name>Trackpoint 5774</name>
            </trkpt>
            <trkpt lat="49.8570912" lon="9.1555544">
                <ele>118.0</ele>
                <time>2020-08-29T14:14:53.000Z</time>
                <name>Trackpoint 5775</name>
            </trkpt>
            <trkpt lat="49.8572128" lon="9.1556104">
                <ele>119.0</ele>
                <time>2020-08-29T14:14:55.000Z</time>
                <name>Trackpoint 5776</name>
            </trkpt>
            <trkpt lat="49.857328" lon="9.1557056">
                <ele>118.0</ele>
                <time>2020-08-29T14:14:57.000Z</time>
                <name>Trackpoint 5777</name>
            </trkpt>
            <trkpt lat="49.85744" lon="9.1558016">
                <ele>119.0</ele>
                <time>2020-08-29T14:14:59.000Z</time>
                <name>Trackpoint 5778</name>
            </trkpt>
            <trkpt lat="49.857552" lon="9.1558968">
                <ele>120.0</ele>
                <time>2020-08-29T14:15:01.000Z</time>
                <name>Trackpoint 5779</name>
            </trkpt>
            <trkpt lat="49.8576672" lon="9.1559832">
                <ele>120.0</ele>
                <time>2020-08-29T14:15:03.000Z</time>
                <name>Trackpoint 5780</name>
            </trkpt>
            <trkpt lat="49.8577888" lon="9.1560472">
                <ele>120.0</ele>
                <time>2020-08-29T14:15:05.000Z</time>
                <name>Trackpoint 5781</name>
            </trkpt>
            <trkpt lat="49.8579136" lon="9.1560832">
                <ele>121.0</ele>
                <time>2020-08-29T14:15:07.000Z</time>
                <name>Trackpoint 5782</name>
            </trkpt>
            <trkpt lat="49.8580448" lon="9.1561232">
                <ele>121.0</ele>
                <time>2020-08-29T14:15:09.000Z</time>
                <name>Trackpoint 5783</name>
            </trkpt>
            <trkpt lat="49.8581632" lon="9.1561544">
                <ele>121.0</ele>
                <time>2020-08-29T14:15:11.000Z</time>
                <name>Trackpoint 5784</name>
            </trkpt>
            <trkpt lat="49.8582848" lon="9.156188">
                <ele>121.0</ele>
                <time>2020-08-29T14:15:13.000Z</time>
                <name>Trackpoint 5785</name>
            </trkpt>
            <trkpt lat="49.8584128" lon="9.1562232">
                <ele>121.0</ele>
                <time>2020-08-29T14:15:15.000Z</time>
                <name>Trackpoint 5786</name>
            </trkpt>
            <trkpt lat="49.8585536" lon="9.1562584">
                <ele>121.0</ele>
                <time>2020-08-29T14:15:17.000Z</time>
                <name>Trackpoint 5787</name>
            </trkpt>
            <trkpt lat="49.858688" lon="9.1562832">
                <ele>121.0</ele>
                <time>2020-08-29T14:15:19.000Z</time>
                <name>Trackpoint 5788</name>
            </trkpt>
            <trkpt lat="49.8588224" lon="9.156308">
                <ele>120.0</ele>
                <time>2020-08-29T14:15:21.000Z</time>
                <name>Trackpoint 5789</name>
            </trkpt>
            <trkpt lat="49.8589568" lon="9.1563216">
                <ele>120.0</ele>
                <time>2020-08-29T14:15:23.000Z</time>
                <name>Trackpoint 5790</name>
            </trkpt>
            <trkpt lat="49.8590912" lon="9.1563384">
                <ele>120.0</ele>
                <time>2020-08-29T14:15:25.000Z</time>
                <name>Trackpoint 5791</name>
            </trkpt>
            <trkpt lat="49.8592224" lon="9.156352">
                <ele>120.0</ele>
                <time>2020-08-29T14:15:27.000Z</time>
                <name>Trackpoint 5792</name>
            </trkpt>
            <trkpt lat="49.8593568" lon="9.1563704">
                <ele>120.0</ele>
                <time>2020-08-29T14:15:29.000Z</time>
                <name>Trackpoint 5793</name>
            </trkpt>
            <trkpt lat="49.8594752" lon="9.1563968">
                <ele>120.0</ele>
                <time>2020-08-29T14:15:31.000Z</time>
                <name>Trackpoint 5794</name>
            </trkpt>
            <trkpt lat="49.859584" lon="9.1564152">
                <ele>120.0</ele>
                <time>2020-08-29T14:15:33.000Z</time>
                <name>Trackpoint 5795</name>
            </trkpt>
            <trkpt lat="49.8596928" lon="9.1563952">
                <ele>120.0</ele>
                <time>2020-08-29T14:15:35.000Z</time>
                <name>Trackpoint 5796</name>
            </trkpt>
            <trkpt lat="49.859792" lon="9.1563232">
                <ele>120.0</ele>
                <time>2020-08-29T14:15:37.000Z</time>
                <name>Trackpoint 5797</name>
            </trkpt>
            <trkpt lat="49.8598976" lon="9.156252">
                <ele>120.0</ele>
                <time>2020-08-29T14:15:39.000Z</time>
                <name>Trackpoint 5798</name>
            </trkpt>
            <trkpt lat="49.8600032" lon="9.1562048">
                <ele>120.0</ele>
                <time>2020-08-29T14:15:41.000Z</time>
                <name>Trackpoint 5799</name>
            </trkpt>
            <trkpt lat="49.860112" lon="9.1562184">
                <ele>120.0</ele>
                <time>2020-08-29T14:15:43.000Z</time>
                <name>Trackpoint 5800</name>
            </trkpt>
            <trkpt lat="49.8602208" lon="9.1562256">
                <ele>120.0</ele>
                <time>2020-08-29T14:15:45.000Z</time>
                <name>Trackpoint 5801</name>
            </trkpt>
            <trkpt lat="49.8603296" lon="9.1562232">
                <ele>120.0</ele>
                <time>2020-08-29T14:15:47.000Z</time>
                <name>Trackpoint 5802</name>
            </trkpt>
            <trkpt lat="49.860432" lon="9.1562216">
                <ele>120.0</ele>
                <time>2020-08-29T14:15:49.000Z</time>
                <name>Trackpoint 5803</name>
            </trkpt>
            <trkpt lat="49.8605408" lon="9.1562144">
                <ele>120.0</ele>
                <time>2020-08-29T14:15:51.000Z</time>
                <name>Trackpoint 5804</name>
            </trkpt>
            <trkpt lat="49.8606496" lon="9.1562072">
                <ele>120.0</ele>
                <time>2020-08-29T14:15:53.000Z</time>
                <name>Trackpoint 5805</name>
            </trkpt>
            <trkpt lat="49.8607648" lon="9.156212">
                <ele>120.0</ele>
                <time>2020-08-29T14:15:55.000Z</time>
                <name>Trackpoint 5806</name>
            </trkpt>
            <trkpt lat="49.8608768" lon="9.1562048">
                <ele>121.0</ele>
                <time>2020-08-29T14:15:57.000Z</time>
                <name>Trackpoint 5807</name>
            </trkpt>
            <trkpt lat="49.8609856" lon="9.1562016">
                <ele>121.0</ele>
                <time>2020-08-29T14:15:59.000Z</time>
                <name>Trackpoint 5808</name>
            </trkpt>
            <trkpt lat="49.8610944" lon="9.1562008">
                <ele>121.0</ele>
                <time>2020-08-29T14:16:01.000Z</time>
                <name>Trackpoint 5809</name>
            </trkpt>
            <trkpt lat="49.8611936" lon="9.1561936">
                <ele>121.0</ele>
                <time>2020-08-29T14:16:03.000Z</time>
                <name>Trackpoint 5810</name>
            </trkpt>
            <trkpt lat="49.8613408" lon="9.1561832">
                <ele>121.0</ele>
                <time>2020-08-29T14:16:06.000Z</time>
                <name>Trackpoint 5811</name>
            </trkpt>
            <trkpt lat="49.8614464" lon="9.1561816">
                <ele>121.0</ele>
                <time>2020-08-29T14:16:08.000Z</time>
                <name>Trackpoint 5812</name>
            </trkpt>
            <trkpt lat="49.8615584" lon="9.1561736">
                <ele>122.0</ele>
                <time>2020-08-29T14:16:10.000Z</time>
                <name>Trackpoint 5813</name>
            </trkpt>
            <trkpt lat="49.8616576" lon="9.1561616">
                <ele>122.0</ele>
                <time>2020-08-29T14:16:12.000Z</time>
                <name>Trackpoint 5814</name>
            </trkpt>
            <trkpt lat="49.8617568" lon="9.15614">
                <ele>122.0</ele>
                <time>2020-08-29T14:16:14.000Z</time>
                <name>Trackpoint 5815</name>
            </trkpt>
            <trkpt lat="49.861856" lon="9.156112">
                <ele>122.0</ele>
                <time>2020-08-29T14:16:16.000Z</time>
                <name>Trackpoint 5816</name>
            </trkpt>
            <trkpt lat="49.8619456" lon="9.156088">
                <ele>122.0</ele>
                <time>2020-08-29T14:16:18.000Z</time>
                <name>Trackpoint 5817</name>
            </trkpt>
            <trkpt lat="49.8620416" lon="9.1560696">
                <ele>122.0</ele>
                <time>2020-08-29T14:16:20.000Z</time>
                <name>Trackpoint 5818</name>
            </trkpt>
            <trkpt lat="49.862128" lon="9.1560352">
                <ele>123.0</ele>
                <time>2020-08-29T14:16:22.000Z</time>
                <name>Trackpoint 5819</name>
            </trkpt>
            <trkpt lat="49.8622464" lon="9.1560096">
                <ele>123.0</ele>
                <time>2020-08-29T14:16:25.000Z</time>
                <name>Trackpoint 5820</name>
            </trkpt>
            <trkpt lat="49.86232" lon="9.15608">
                <ele>123.0</ele>
                <time>2020-08-29T14:16:27.000Z</time>
                <name>Trackpoint 5821</name>
            </trkpt>
            <trkpt lat="49.862384" lon="9.1562016">
                <ele>122.0</ele>
                <time>2020-08-29T14:16:29.000Z</time>
                <name>Trackpoint 5822</name>
            </trkpt>
            <trkpt lat="49.862432" lon="9.1563216">
                <ele>122.0</ele>
                <time>2020-08-29T14:16:31.000Z</time>
                <name>Trackpoint 5823</name>
            </trkpt>
            <trkpt lat="49.862464" lon="9.1564368">
                <ele>122.0</ele>
                <time>2020-08-29T14:16:33.000Z</time>
                <name>Trackpoint 5824</name>
            </trkpt>
            <trkpt lat="49.8625152" lon="9.1565488">
                <ele>122.0</ele>
                <time>2020-08-29T14:16:35.000Z</time>
                <name>Trackpoint 5825</name>
            </trkpt>
            <trkpt lat="49.8625664" lon="9.1566784">
                <ele>122.0</ele>
                <time>2020-08-29T14:16:37.000Z</time>
                <name>Trackpoint 5826</name>
            </trkpt>
            <trkpt lat="49.8626304" lon="9.1568">
                <ele>121.0</ele>
                <time>2020-08-29T14:16:39.000Z</time>
                <name>Trackpoint 5827</name>
            </trkpt>
            <trkpt lat="49.8627328" lon="9.1569256">
                <ele>121.0</ele>
                <time>2020-08-29T14:16:41.000Z</time>
                <name>Trackpoint 5828</name>
            </trkpt>
            <trkpt lat="49.8628288" lon="9.1570232">
                <ele>121.0</ele>
                <time>2020-08-29T14:16:43.000Z</time>
                <name>Trackpoint 5829</name>
            </trkpt>
            <trkpt lat="49.8629152" lon="9.157068">
                <ele>121.0</ele>
                <time>2020-08-29T14:16:45.000Z</time>
                <name>Trackpoint 5830</name>
            </trkpt>
            <trkpt lat="49.863008" lon="9.1570632">
                <ele>121.0</ele>
                <time>2020-08-29T14:16:47.000Z</time>
                <name>Trackpoint 5831</name>
            </trkpt>
            <trkpt lat="49.8631328" lon="9.1570584">
                <ele>120.0</ele>
                <time>2020-08-29T14:16:49.000Z</time>
                <name>Trackpoint 5832</name>
            </trkpt>
            <trkpt lat="49.8632416" lon="9.157092">
                <ele>120.0</ele>
                <time>2020-08-29T14:16:51.000Z</time>
                <name>Trackpoint 5833</name>
            </trkpt>
            <trkpt lat="49.8633408" lon="9.157128">
                <ele>120.0</ele>
                <time>2020-08-29T14:16:53.000Z</time>
                <name>Trackpoint 5834</name>
            </trkpt>
            <trkpt lat="49.8634528" lon="9.1571512">
                <ele>121.0</ele>
                <time>2020-08-29T14:16:55.000Z</time>
                <name>Trackpoint 5835</name>
            </trkpt>
            <trkpt lat="49.8635776" lon="9.1571912">
                <ele>120.0</ele>
                <time>2020-08-29T14:16:57.000Z</time>
                <name>Trackpoint 5836</name>
            </trkpt>
            <trkpt lat="49.8636928" lon="9.1572136">
                <ele>120.0</ele>
                <time>2020-08-29T14:16:59.000Z</time>
                <name>Trackpoint 5837</name>
            </trkpt>
            <trkpt lat="49.8637952" lon="9.1572384">
                <ele>120.0</ele>
                <time>2020-08-29T14:17:01.000Z</time>
                <name>Trackpoint 5838</name>
            </trkpt>
            <trkpt lat="49.863904" lon="9.1572712">
                <ele>120.0</ele>
                <time>2020-08-29T14:17:03.000Z</time>
                <name>Trackpoint 5839</name>
            </trkpt>
            <trkpt lat="49.8640064" lon="9.1573">
                <ele>120.0</ele>
                <time>2020-08-29T14:17:05.000Z</time>
                <name>Trackpoint 5840</name>
            </trkpt>
            <trkpt lat="49.864112" lon="9.1573264">
                <ele>119.0</ele>
                <time>2020-08-29T14:17:07.000Z</time>
                <name>Trackpoint 5841</name>
            </trkpt>
            <trkpt lat="49.864224" lon="9.1573632">
                <ele>120.0</ele>
                <time>2020-08-29T14:17:09.000Z</time>
                <name>Trackpoint 5842</name>
            </trkpt>
            <trkpt lat="49.8643264" lon="9.1573888">
                <ele>120.0</ele>
                <time>2020-08-29T14:17:11.000Z</time>
                <name>Trackpoint 5843</name>
            </trkpt>
            <trkpt lat="49.8644224" lon="9.1574152">
                <ele>120.0</ele>
                <time>2020-08-29T14:17:13.000Z</time>
                <name>Trackpoint 5844</name>
            </trkpt>
            <trkpt lat="49.8645216" lon="9.1574472">
                <ele>120.0</ele>
                <time>2020-08-29T14:17:15.000Z</time>
                <name>Trackpoint 5845</name>
            </trkpt>
            <trkpt lat="49.8646272" lon="9.1574736">
                <ele>120.0</ele>
                <time>2020-08-29T14:17:17.000Z</time>
                <name>Trackpoint 5846</name>
            </trkpt>
            <trkpt lat="49.8647392" lon="9.1575">
                <ele>120.0</ele>
                <time>2020-08-29T14:17:19.000Z</time>
                <name>Trackpoint 5847</name>
            </trkpt>
            <trkpt lat="49.864848" lon="9.1575248">
                <ele>120.0</ele>
                <time>2020-08-29T14:17:21.000Z</time>
                <name>Trackpoint 5848</name>
            </trkpt>
            <trkpt lat="49.8649632" lon="9.1575584">
                <ele>120.0</ele>
                <time>2020-08-29T14:17:23.000Z</time>
                <name>Trackpoint 5849</name>
            </trkpt>
            <trkpt lat="49.8650848" lon="9.1575848">
                <ele>120.0</ele>
                <time>2020-08-29T14:17:25.000Z</time>
                <name>Trackpoint 5850</name>
            </trkpt>
            <trkpt lat="49.8652" lon="9.157612">
                <ele>120.0</ele>
                <time>2020-08-29T14:17:27.000Z</time>
                <name>Trackpoint 5851</name>
            </trkpt>
            <trkpt lat="49.8653056" lon="9.1576344">
                <ele>120.0</ele>
                <time>2020-08-29T14:17:29.000Z</time>
                <name>Trackpoint 5852</name>
            </trkpt>
            <trkpt lat="49.8654176" lon="9.1576632">
                <ele>120.0</ele>
                <time>2020-08-29T14:17:31.000Z</time>
                <name>Trackpoint 5853</name>
            </trkpt>
            <trkpt lat="49.86552" lon="9.1576928">
                <ele>120.0</ele>
                <time>2020-08-29T14:17:33.000Z</time>
                <name>Trackpoint 5854</name>
            </trkpt>
            <trkpt lat="49.8656192" lon="9.1577256">
                <ele>120.0</ele>
                <time>2020-08-29T14:17:35.000Z</time>
                <name>Trackpoint 5855</name>
            </trkpt>
            <trkpt lat="49.865728" lon="9.157748">
                <ele>120.0</ele>
                <time>2020-08-29T14:17:37.000Z</time>
                <name>Trackpoint 5856</name>
            </trkpt>
            <trkpt lat="49.8658432" lon="9.1577664">
                <ele>120.0</ele>
                <time>2020-08-29T14:17:39.000Z</time>
                <name>Trackpoint 5857</name>
            </trkpt>
            <trkpt lat="49.865952" lon="9.1577968">
                <ele>120.0</ele>
                <time>2020-08-29T14:17:41.000Z</time>
                <name>Trackpoint 5858</name>
            </trkpt>
            <trkpt lat="49.866048" lon="9.1578104">
                <ele>120.0</ele>
                <time>2020-08-29T14:17:43.000Z</time>
                <name>Trackpoint 5859</name>
            </trkpt>
            <trkpt lat="49.8661664" lon="9.1578504">
                <ele>120.0</ele>
                <time>2020-08-29T14:17:46.000Z</time>
                <name>Trackpoint 5860</name>
            </trkpt>
            <trkpt lat="49.8662848" lon="9.1578904">
                <ele>120.0</ele>
                <time>2020-08-29T14:17:49.000Z</time>
                <name>Trackpoint 5861</name>
            </trkpt>
            <trkpt lat="49.866416" lon="9.1579304">
                <ele>120.0</ele>
                <time>2020-08-29T14:17:52.000Z</time>
                <name>Trackpoint 5862</name>
            </trkpt>
            <trkpt lat="49.8665184" lon="9.15796">
                <ele>120.0</ele>
                <time>2020-08-29T14:17:54.000Z</time>
                <name>Trackpoint 5863</name>
            </trkpt>
            <trkpt lat="49.866624" lon="9.1579816">
                <ele>120.0</ele>
                <time>2020-08-29T14:17:56.000Z</time>
                <name>Trackpoint 5864</name>
            </trkpt>
            <trkpt lat="49.8667424" lon="9.1580112">
                <ele>120.0</ele>
                <time>2020-08-29T14:17:58.000Z</time>
                <name>Trackpoint 5865</name>
            </trkpt>
            <trkpt lat="49.8668512" lon="9.1580384">
                <ele>120.0</ele>
                <time>2020-08-29T14:18:00.000Z</time>
                <name>Trackpoint 5866</name>
            </trkpt>
            <trkpt lat="49.86696" lon="9.1580664">
                <ele>120.0</ele>
                <time>2020-08-29T14:18:02.000Z</time>
                <name>Trackpoint 5867</name>
            </trkpt>
            <trkpt lat="49.8670624" lon="9.1580952">
                <ele>120.0</ele>
                <time>2020-08-29T14:18:04.000Z</time>
                <name>Trackpoint 5868</name>
            </trkpt>
            <trkpt lat="49.8671648" lon="9.1581096">
                <ele>120.0</ele>
                <time>2020-08-29T14:18:06.000Z</time>
                <name>Trackpoint 5869</name>
            </trkpt>
            <trkpt lat="49.8672608" lon="9.15814">
                <ele>120.0</ele>
                <time>2020-08-29T14:18:08.000Z</time>
                <name>Trackpoint 5870</name>
            </trkpt>
            <trkpt lat="49.86736" lon="9.1581632">
                <ele>120.0</ele>
                <time>2020-08-29T14:18:10.000Z</time>
                <name>Trackpoint 5871</name>
            </trkpt>
            <trkpt lat="49.8674688" lon="9.1581896">
                <ele>120.0</ele>
                <time>2020-08-29T14:18:12.000Z</time>
                <name>Trackpoint 5872</name>
            </trkpt>
            <trkpt lat="49.8675776" lon="9.1582136">
                <ele>120.0</ele>
                <time>2020-08-29T14:18:14.000Z</time>
                <name>Trackpoint 5873</name>
            </trkpt>
            <trkpt lat="49.8676864" lon="9.15824">
                <ele>120.0</ele>
                <time>2020-08-29T14:18:16.000Z</time>
                <name>Trackpoint 5874</name>
            </trkpt>
            <trkpt lat="49.8678016" lon="9.1582632">
                <ele>120.0</ele>
                <time>2020-08-29T14:18:18.000Z</time>
                <name>Trackpoint 5875</name>
            </trkpt>
            <trkpt lat="49.86792" lon="9.1582832">
                <ele>120.0</ele>
                <time>2020-08-29T14:18:20.000Z</time>
                <name>Trackpoint 5876</name>
            </trkpt>
            <trkpt lat="49.8680384" lon="9.1583136">
                <ele>120.0</ele>
                <time>2020-08-29T14:18:22.000Z</time>
                <name>Trackpoint 5877</name>
            </trkpt>
            <trkpt lat="49.868144" lon="9.1583568">
                <ele>120.0</ele>
                <time>2020-08-29T14:18:24.000Z</time>
                <name>Trackpoint 5878</name>
            </trkpt>
            <trkpt lat="49.8682656" lon="9.1583768">
                <ele>120.0</ele>
                <time>2020-08-29T14:18:26.000Z</time>
                <name>Trackpoint 5879</name>
            </trkpt>
            <trkpt lat="49.8683808" lon="9.1583992">
                <ele>120.0</ele>
                <time>2020-08-29T14:18:28.000Z</time>
                <name>Trackpoint 5880</name>
            </trkpt>
            <trkpt lat="49.868496" lon="9.1584064">
                <ele>120.0</ele>
                <time>2020-08-29T14:18:30.000Z</time>
                <name>Trackpoint 5881</name>
            </trkpt>
            <trkpt lat="49.8685888" lon="9.1583832">
                <ele>121.0</ele>
                <time>2020-08-29T14:18:32.000Z</time>
                <name>Trackpoint 5882</name>
            </trkpt>
            <trkpt lat="49.8687008" lon="9.158392">
                <ele>121.0</ele>
                <time>2020-08-29T14:18:34.000Z</time>
                <name>Trackpoint 5883</name>
            </trkpt>
            <trkpt lat="49.8688096" lon="9.1583864">
                <ele>122.0</ele>
                <time>2020-08-29T14:18:36.000Z</time>
                <name>Trackpoint 5884</name>
            </trkpt>
            <trkpt lat="49.868912" lon="9.1583952">
                <ele>121.0</ele>
                <time>2020-08-29T14:18:38.000Z</time>
                <name>Trackpoint 5885</name>
            </trkpt>
            <trkpt lat="49.8690112" lon="9.1584056">
                <ele>121.0</ele>
                <time>2020-08-29T14:18:40.000Z</time>
                <name>Trackpoint 5886</name>
            </trkpt>
            <trkpt lat="49.8691104" lon="9.1584104">
                <ele>121.0</ele>
                <time>2020-08-29T14:18:42.000Z</time>
                <name>Trackpoint 5887</name>
            </trkpt>
            <trkpt lat="49.8692128" lon="9.1584104">
                <ele>121.0</ele>
                <time>2020-08-29T14:18:44.000Z</time>
                <name>Trackpoint 5888</name>
            </trkpt>
            <trkpt lat="49.8693152" lon="9.1584152">
                <ele>121.0</ele>
                <time>2020-08-29T14:18:46.000Z</time>
                <name>Trackpoint 5889</name>
            </trkpt>
            <trkpt lat="49.869424" lon="9.15842">
                <ele>122.0</ele>
                <time>2020-08-29T14:18:48.000Z</time>
                <name>Trackpoint 5890</name>
            </trkpt>
            <trkpt lat="49.8695296" lon="9.1584184">
                <ele>121.0</ele>
                <time>2020-08-29T14:18:50.000Z</time>
                <name>Trackpoint 5891</name>
            </trkpt>
            <trkpt lat="49.8696416" lon="9.1584264">
                <ele>121.0</ele>
                <time>2020-08-29T14:18:52.000Z</time>
                <name>Trackpoint 5892</name>
            </trkpt>
            <trkpt lat="49.8697472" lon="9.1584368">
                <ele>121.0</ele>
                <time>2020-08-29T14:18:54.000Z</time>
                <name>Trackpoint 5893</name>
            </trkpt>
            <trkpt lat="49.8698592" lon="9.1584464">
                <ele>121.0</ele>
                <time>2020-08-29T14:18:56.000Z</time>
                <name>Trackpoint 5894</name>
            </trkpt>
            <trkpt lat="49.869968" lon="9.1584632">
                <ele>121.0</ele>
                <time>2020-08-29T14:18:58.000Z</time>
                <name>Trackpoint 5895</name>
            </trkpt>
            <trkpt lat="49.87008" lon="9.158488">
                <ele>121.0</ele>
                <time>2020-08-29T14:19:00.000Z</time>
                <name>Trackpoint 5896</name>
            </trkpt>
            <trkpt lat="49.8701888" lon="9.158512">
                <ele>121.0</ele>
                <time>2020-08-29T14:19:02.000Z</time>
                <name>Trackpoint 5897</name>
            </trkpt>
            <trkpt lat="49.8703008" lon="9.1585376">
                <ele>121.0</ele>
                <time>2020-08-29T14:19:04.000Z</time>
                <name>Trackpoint 5898</name>
            </trkpt>
            <trkpt lat="49.8704064" lon="9.1585664">
                <ele>121.0</ele>
                <time>2020-08-29T14:19:06.000Z</time>
                <name>Trackpoint 5899</name>
            </trkpt>
            <trkpt lat="49.8705216" lon="9.1585928">
                <ele>121.0</ele>
                <time>2020-08-29T14:19:08.000Z</time>
                <name>Trackpoint 5900</name>
            </trkpt>
            <trkpt lat="49.8706336" lon="9.1586176">
                <ele>121.0</ele>
                <time>2020-08-29T14:19:10.000Z</time>
                <name>Trackpoint 5901</name>
            </trkpt>
            <trkpt lat="49.8707456" lon="9.1586368">
                <ele>121.0</ele>
                <time>2020-08-29T14:19:12.000Z</time>
                <name>Trackpoint 5902</name>
            </trkpt>
            <trkpt lat="49.870864" lon="9.1586384">
                <ele>121.0</ele>
                <time>2020-08-29T14:19:14.000Z</time>
                <name>Trackpoint 5903</name>
            </trkpt>
            <trkpt lat="49.8709824" lon="9.15864">
                <ele>121.0</ele>
                <time>2020-08-29T14:19:16.000Z</time>
                <name>Trackpoint 5904</name>
            </trkpt>
            <trkpt lat="49.8710976" lon="9.15864">
                <ele>122.0</ele>
                <time>2020-08-29T14:19:18.000Z</time>
                <name>Trackpoint 5905</name>
            </trkpt>
            <trkpt lat="49.8712096" lon="9.158644">
                <ele>122.0</ele>
                <time>2020-08-29T14:19:20.000Z</time>
                <name>Trackpoint 5906</name>
            </trkpt>
            <trkpt lat="49.8713184" lon="9.1586512">
                <ele>121.0</ele>
                <time>2020-08-29T14:19:22.000Z</time>
                <name>Trackpoint 5907</name>
            </trkpt>
            <trkpt lat="49.8714304" lon="9.1586536">
                <ele>121.0</ele>
                <time>2020-08-29T14:19:24.000Z</time>
                <name>Trackpoint 5908</name>
            </trkpt>
            <trkpt lat="49.8715328" lon="9.1586704">
                <ele>121.0</ele>
                <time>2020-08-29T14:19:26.000Z</time>
                <name>Trackpoint 5909</name>
            </trkpt>
            <trkpt lat="49.8716352" lon="9.1586864">
                <ele>121.0</ele>
                <time>2020-08-29T14:19:28.000Z</time>
                <name>Trackpoint 5910</name>
            </trkpt>
            <trkpt lat="49.8717472" lon="9.1587048">
                <ele>121.0</ele>
                <time>2020-08-29T14:19:30.000Z</time>
                <name>Trackpoint 5911</name>
            </trkpt>
            <trkpt lat="49.871856" lon="9.1587264">
                <ele>120.0</ele>
                <time>2020-08-29T14:19:32.000Z</time>
                <name>Trackpoint 5912</name>
            </trkpt>
            <trkpt lat="49.8719648" lon="9.1587464">
                <ele>120.0</ele>
                <time>2020-08-29T14:19:34.000Z</time>
                <name>Trackpoint 5913</name>
            </trkpt>
            <trkpt lat="49.8720704" lon="9.1587696">
                <ele>120.0</ele>
                <time>2020-08-29T14:19:36.000Z</time>
                <name>Trackpoint 5914</name>
            </trkpt>
            <trkpt lat="49.8721728" lon="9.1587864">
                <ele>120.0</ele>
                <time>2020-08-29T14:19:38.000Z</time>
                <name>Trackpoint 5915</name>
            </trkpt>
            <trkpt lat="49.872272" lon="9.1588032">
                <ele>120.0</ele>
                <time>2020-08-29T14:19:40.000Z</time>
                <name>Trackpoint 5916</name>
            </trkpt>
            <trkpt lat="49.8723712" lon="9.15882">
                <ele>121.0</ele>
                <time>2020-08-29T14:19:42.000Z</time>
                <name>Trackpoint 5917</name>
            </trkpt>
            <trkpt lat="49.8724736" lon="9.1588424">
                <ele>121.0</ele>
                <time>2020-08-29T14:19:44.000Z</time>
                <name>Trackpoint 5918</name>
            </trkpt>
            <trkpt lat="49.8725792" lon="9.15886">
                <ele>121.0</ele>
                <time>2020-08-29T14:19:46.000Z</time>
                <name>Trackpoint 5919</name>
            </trkpt>
            <trkpt lat="49.8726816" lon="9.1588768">
                <ele>121.0</ele>
                <time>2020-08-29T14:19:48.000Z</time>
                <name>Trackpoint 5920</name>
            </trkpt>
            <trkpt lat="49.872784" lon="9.1588944">
                <ele>121.0</ele>
                <time>2020-08-29T14:19:50.000Z</time>
                <name>Trackpoint 5921</name>
            </trkpt>
            <trkpt lat="49.8728832" lon="9.1589144">
                <ele>121.0</ele>
                <time>2020-08-29T14:19:52.000Z</time>
                <name>Trackpoint 5922</name>
            </trkpt>
            <trkpt lat="49.8729888" lon="9.1589336">
                <ele>121.0</ele>
                <time>2020-08-29T14:19:54.000Z</time>
                <name>Trackpoint 5923</name>
            </trkpt>
            <trkpt lat="49.8730912" lon="9.1589544">
                <ele>121.0</ele>
                <time>2020-08-29T14:19:56.000Z</time>
                <name>Trackpoint 5924</name>
            </trkpt>
            <trkpt lat="49.8731872" lon="9.1589768">
                <ele>121.0</ele>
                <time>2020-08-29T14:19:58.000Z</time>
                <name>Trackpoint 5925</name>
            </trkpt>
            <trkpt lat="49.8732896" lon="9.1589896">
                <ele>121.0</ele>
                <time>2020-08-29T14:20:00.000Z</time>
                <name>Trackpoint 5926</name>
            </trkpt>
            <trkpt lat="49.8733888" lon="9.159012">
                <ele>121.0</ele>
                <time>2020-08-29T14:20:02.000Z</time>
                <name>Trackpoint 5927</name>
            </trkpt>
            <trkpt lat="49.8734848" lon="9.1590232">
                <ele>121.0</ele>
                <time>2020-08-29T14:20:04.000Z</time>
                <name>Trackpoint 5928</name>
            </trkpt>
            <trkpt lat="49.8735744" lon="9.1590384">
                <ele>121.0</ele>
                <time>2020-08-29T14:20:06.000Z</time>
                <name>Trackpoint 5929</name>
            </trkpt>
            <trkpt lat="49.8736608" lon="9.1590784">
                <ele>122.0</ele>
                <time>2020-08-29T14:20:08.000Z</time>
                <name>Trackpoint 5930</name>
            </trkpt>
            <trkpt lat="49.8737472" lon="9.1591368">
                <ele>122.0</ele>
                <time>2020-08-29T14:20:10.000Z</time>
                <name>Trackpoint 5931</name>
            </trkpt>
            <trkpt lat="49.87384" lon="9.159192">
                <ele>122.0</ele>
                <time>2020-08-29T14:20:12.000Z</time>
                <name>Trackpoint 5932</name>
            </trkpt>
            <trkpt lat="49.8739328" lon="9.159248">
                <ele>123.0</ele>
                <time>2020-08-29T14:20:14.000Z</time>
                <name>Trackpoint 5933</name>
            </trkpt>
            <trkpt lat="49.8740192" lon="9.1593016">
                <ele>123.0</ele>
                <time>2020-08-29T14:20:16.000Z</time>
                <name>Trackpoint 5934</name>
            </trkpt>
            <trkpt lat="49.8741024" lon="9.1593504">
                <ele>123.0</ele>
                <time>2020-08-29T14:20:18.000Z</time>
                <name>Trackpoint 5935</name>
            </trkpt>
            <trkpt lat="49.8741952" lon="9.1594016">
                <ele>123.0</ele>
                <time>2020-08-29T14:20:20.000Z</time>
                <name>Trackpoint 5936</name>
            </trkpt>
            <trkpt lat="49.874288" lon="9.1594496">
                <ele>123.0</ele>
                <time>2020-08-29T14:20:22.000Z</time>
                <name>Trackpoint 5937</name>
            </trkpt>
            <trkpt lat="49.8743808" lon="9.1595">
                <ele>123.0</ele>
                <time>2020-08-29T14:20:24.000Z</time>
                <name>Trackpoint 5938</name>
            </trkpt>
            <trkpt lat="49.8744864" lon="9.1595432">
                <ele>123.0</ele>
                <time>2020-08-29T14:20:26.000Z</time>
                <name>Trackpoint 5939</name>
            </trkpt>
            <trkpt lat="49.874592" lon="9.1595872">
                <ele>123.0</ele>
                <time>2020-08-29T14:20:28.000Z</time>
                <name>Trackpoint 5940</name>
            </trkpt>
            <trkpt lat="49.8746944" lon="9.1595984">
                <ele>123.0</ele>
                <time>2020-08-29T14:20:30.000Z</time>
                <name>Trackpoint 5941</name>
            </trkpt>
            <trkpt lat="49.8748064" lon="9.159612">
                <ele>123.0</ele>
                <time>2020-08-29T14:20:32.000Z</time>
                <name>Trackpoint 5942</name>
            </trkpt>
            <trkpt lat="49.874912" lon="9.15964">
                <ele>123.0</ele>
                <time>2020-08-29T14:20:34.000Z</time>
                <name>Trackpoint 5943</name>
            </trkpt>
            <trkpt lat="49.875008" lon="9.1596896">
                <ele>123.0</ele>
                <time>2020-08-29T14:20:36.000Z</time>
                <name>Trackpoint 5944</name>
            </trkpt>
            <trkpt lat="49.8751136" lon="9.1597248">
                <ele>123.0</ele>
                <time>2020-08-29T14:20:38.000Z</time>
                <name>Trackpoint 5945</name>
            </trkpt>
            <trkpt lat="49.8752224" lon="9.1597496">
                <ele>124.0</ele>
                <time>2020-08-29T14:20:40.000Z</time>
                <name>Trackpoint 5946</name>
            </trkpt>
            <trkpt lat="49.875328" lon="9.1597768">
                <ele>124.0</ele>
                <time>2020-08-29T14:20:42.000Z</time>
                <name>Trackpoint 5947</name>
            </trkpt>
            <trkpt lat="49.8754272" lon="9.159808">
                <ele>124.0</ele>
                <time>2020-08-29T14:20:44.000Z</time>
                <name>Trackpoint 5948</name>
            </trkpt>
            <trkpt lat="49.8755264" lon="9.1598256">
                <ele>124.0</ele>
                <time>2020-08-29T14:20:46.000Z</time>
                <name>Trackpoint 5949</name>
            </trkpt>
            <trkpt lat="49.8756512" lon="9.1598664">
                <ele>124.0</ele>
                <time>2020-08-29T14:20:49.000Z</time>
                <name>Trackpoint 5950</name>
            </trkpt>
            <trkpt lat="49.8757632" lon="9.1599128">
                <ele>124.0</ele>
                <time>2020-08-29T14:20:52.000Z</time>
                <name>Trackpoint 5951</name>
            </trkpt>
            <trkpt lat="49.8758816" lon="9.1599712">
                <ele>124.0</ele>
                <time>2020-08-29T14:20:55.000Z</time>
                <name>Trackpoint 5952</name>
            </trkpt>
            <trkpt lat="49.876" lon="9.1600312">
                <ele>123.0</ele>
                <time>2020-08-29T14:20:58.000Z</time>
                <name>Trackpoint 5953</name>
            </trkpt>
            <trkpt lat="49.8760832" lon="9.1600704">
                <ele>123.0</ele>
                <time>2020-08-29T14:21:00.000Z</time>
                <name>Trackpoint 5954</name>
            </trkpt>
            <trkpt lat="49.876176" lon="9.1601088">
                <ele>123.0</ele>
                <time>2020-08-29T14:21:02.000Z</time>
                <name>Trackpoint 5955</name>
            </trkpt>
            <trkpt lat="49.8762592" lon="9.1601512">
                <ele>123.0</ele>
                <time>2020-08-29T14:21:04.000Z</time>
                <name>Trackpoint 5956</name>
            </trkpt>
            <trkpt lat="49.8763808" lon="9.1602064">
                <ele>122.0</ele>
                <time>2020-08-29T14:21:07.000Z</time>
                <name>Trackpoint 5957</name>
            </trkpt>
            <trkpt lat="49.8764608" lon="9.1602536">
                <ele>122.0</ele>
                <time>2020-08-29T14:21:09.000Z</time>
                <name>Trackpoint 5958</name>
            </trkpt>
            <trkpt lat="49.8765344" lon="9.1603344">
                <ele>120.0</ele>
                <time>2020-08-29T14:21:11.000Z</time>
                <name>Trackpoint 5959</name>
            </trkpt>
            <trkpt lat="49.8765984" lon="9.160432">
                <ele>118.0</ele>
                <time>2020-08-29T14:21:13.000Z</time>
                <name>Trackpoint 5960</name>
            </trkpt>
            <trkpt lat="49.876672" lon="9.1605064">
                <ele>119.0</ele>
                <time>2020-08-29T14:21:15.000Z</time>
                <name>Trackpoint 5961</name>
            </trkpt>
            <trkpt lat="49.876752" lon="9.1605632">
                <ele>120.0</ele>
                <time>2020-08-29T14:21:17.000Z</time>
                <name>Trackpoint 5962</name>
            </trkpt>
            <trkpt lat="49.8768704" lon="9.1605928">
                <ele>119.0</ele>
                <time>2020-08-29T14:21:20.000Z</time>
                <name>Trackpoint 5963</name>
            </trkpt>
            <trkpt lat="49.87696" lon="9.1606352">
                <ele>119.0</ele>
                <time>2020-08-29T14:21:22.000Z</time>
                <name>Trackpoint 5964</name>
            </trkpt>
            <trkpt lat="49.8770496" lon="9.1606712">
                <ele>119.0</ele>
                <time>2020-08-29T14:21:24.000Z</time>
                <name>Trackpoint 5965</name>
            </trkpt>
            <trkpt lat="49.8771584" lon="9.1607176">
                <ele>119.0</ele>
                <time>2020-08-29T14:21:27.000Z</time>
                <name>Trackpoint 5966</name>
            </trkpt>
            <trkpt lat="49.877248" lon="9.1607616">
                <ele>119.0</ele>
                <time>2020-08-29T14:21:29.000Z</time>
                <name>Trackpoint 5967</name>
            </trkpt>
            <trkpt lat="49.8773568" lon="9.1607912">
                <ele>119.0</ele>
                <time>2020-08-29T14:21:31.000Z</time>
                <name>Trackpoint 5968</name>
            </trkpt>
            <trkpt lat="49.8774752" lon="9.1608664">
                <ele>119.0</ele>
                <time>2020-08-29T14:21:34.000Z</time>
                <name>Trackpoint 5969</name>
            </trkpt>
            <trkpt lat="49.8775648" lon="9.1609224">
                <ele>119.0</ele>
                <time>2020-08-29T14:21:36.000Z</time>
                <name>Trackpoint 5970</name>
            </trkpt>
            <trkpt lat="49.8776544" lon="9.1609824">
                <ele>119.0</ele>
                <time>2020-08-29T14:21:38.000Z</time>
                <name>Trackpoint 5971</name>
            </trkpt>
            <trkpt lat="49.8777344" lon="9.1610248">
                <ele>119.0</ele>
                <time>2020-08-29T14:21:40.000Z</time>
                <name>Trackpoint 5972</name>
            </trkpt>
            <trkpt lat="49.8778304" lon="9.1610432">
                <ele>119.0</ele>
                <time>2020-08-29T14:21:44.000Z</time>
                <name>Trackpoint 5973</name>
            </trkpt>
            <trkpt lat="49.8779488" lon="9.1610872">
                <ele>119.0</ele>
                <time>2020-08-29T14:21:47.000Z</time>
                <name>Trackpoint 5974</name>
            </trkpt>
            <trkpt lat="49.8780608" lon="9.1611472">
                <ele>119.0</ele>
                <time>2020-08-29T14:21:50.000Z</time>
                <name>Trackpoint 5975</name>
            </trkpt>
            <trkpt lat="49.8781728" lon="9.161208">
                <ele>119.0</ele>
                <time>2020-08-29T14:21:53.000Z</time>
                <name>Trackpoint 5976</name>
            </trkpt>
            <trkpt lat="49.878272" lon="9.1612752">
                <ele>119.0</ele>
                <time>2020-08-29T14:21:56.000Z</time>
                <name>Trackpoint 5977</name>
            </trkpt>
            <trkpt lat="49.8783616" lon="9.1613168">
                <ele>119.0</ele>
                <time>2020-08-29T14:21:59.000Z</time>
                <name>Trackpoint 5978</name>
            </trkpt>
            <trkpt lat="49.8784677" lon="9.161444">
                <ele>118.0</ele>
                <time>2020-08-29T14:37:28.000Z</time>
                <name>Trackpoint 5983</name>
            </trkpt>
            <trkpt lat="49.87856" lon="9.1614848">
                <ele>120.0</ele>
                <time>2020-08-29T14:37:41.000Z</time>
                <name>Trackpoint 5984</name>
            </trkpt>
            <trkpt lat="49.8785664" lon="9.1614864">
                <ele>119.0</ele>
                <time>2020-08-29T14:39:08.000Z</time>
                <name>Trackpoint 5985</name>
            </trkpt>
            <trkpt lat="49.878656" lon="9.1615336">
                <ele>119.0</ele>
                <time>2020-08-29T14:39:15.000Z</time>
                <name>Trackpoint 5986</name>
            </trkpt>
            <trkpt lat="49.8787648" lon="9.1616064">
                <ele>119.0</ele>
                <time>2020-08-29T14:39:19.000Z</time>
                <name>Trackpoint 5987</name>
            </trkpt>
            <trkpt lat="49.878864" lon="9.161672">
                <ele>119.0</ele>
                <time>2020-08-29T14:39:22.000Z</time>
                <name>Trackpoint 5988</name>
            </trkpt>
            <trkpt lat="49.878976" lon="9.16174">
                <ele>119.0</ele>
                <time>2020-08-29T14:39:25.000Z</time>
                <name>Trackpoint 5989</name>
            </trkpt>
            <trkpt lat="49.8790816" lon="9.161812">
                <ele>119.0</ele>
                <time>2020-08-29T14:39:28.000Z</time>
                <name>Trackpoint 5990</name>
            </trkpt>
            <trkpt lat="49.8791936" lon="9.1618832">
                <ele>119.0</ele>
                <time>2020-08-29T14:39:31.000Z</time>
                <name>Trackpoint 5991</name>
            </trkpt>
            <trkpt lat="49.879296" lon="9.1619504">
                <ele>119.0</ele>
                <time>2020-08-29T14:39:34.000Z</time>
                <name>Trackpoint 5992</name>
            </trkpt>
            <trkpt lat="49.8793984" lon="9.1620128">
                <ele>119.0</ele>
                <time>2020-08-29T14:39:37.000Z</time>
                <name>Trackpoint 5993</name>
            </trkpt>
            <trkpt lat="49.8795008" lon="9.1620768">
                <ele>117.0</ele>
                <time>2020-08-29T14:39:40.000Z</time>
                <name>Trackpoint 5994</name>
            </trkpt>
            <trkpt lat="49.8796032" lon="9.1621488">
                <ele>116.0</ele>
                <time>2020-08-29T14:39:43.000Z</time>
                <name>Trackpoint 5995</name>
            </trkpt>
            <trkpt lat="49.8797024" lon="9.1622136">
                <ele>116.0</ele>
                <time>2020-08-29T14:39:46.000Z</time>
                <name>Trackpoint 5996</name>
            </trkpt>
            <trkpt lat="49.8797952" lon="9.162256">
                <ele>115.0</ele>
                <time>2020-08-29T14:39:49.000Z</time>
                <name>Trackpoint 5997</name>
            </trkpt>
            <trkpt lat="49.8798752" lon="9.1623064">
                <ele>115.0</ele>
                <time>2020-08-29T14:39:52.000Z</time>
                <name>Trackpoint 5998</name>
            </trkpt>
            <trkpt lat="49.879952" lon="9.1623536">
                <ele>115.0</ele>
                <time>2020-08-29T14:39:55.000Z</time>
                <name>Trackpoint 5999</name>
            </trkpt>
            <trkpt lat="49.8800416" lon="9.1624096">
                <ele>115.0</ele>
                <time>2020-08-29T14:39:59.000Z</time>
                <name>Trackpoint 6000</name>
            </trkpt>
            <trkpt lat="49.8801216" lon="9.162452">
                <ele>115.0</ele>
                <time>2020-08-29T14:40:03.000Z</time>
                <name>Trackpoint 6001</name>
            </trkpt>
            <trkpt lat="49.8802144" lon="9.1624472">
                <ele>114.0</ele>
                <time>2020-08-29T14:40:07.000Z</time>
                <name>Trackpoint 6002</name>
            </trkpt>
            <trkpt lat="49.880272" lon="9.1623232">
                <ele>114.0</ele>
                <time>2020-08-29T14:40:10.000Z</time>
                <name>Trackpoint 6003</name>
            </trkpt>
            <trkpt lat="49.8803104" lon="9.1622384">
                <ele>114.0</ele>
                <time>2020-08-29T14:40:12.000Z</time>
                <name>Trackpoint 6004</name>
            </trkpt>
            <trkpt lat="49.8803744" lon="9.1621312">
                <ele>115.0</ele>
                <time>2020-08-29T14:40:15.000Z</time>
                <name>Trackpoint 6005</name>
            </trkpt>
            <trkpt lat="49.8804192" lon="9.1620328">
                <ele>114.0</ele>
                <time>2020-08-29T14:40:18.000Z</time>
                <name>Trackpoint 6006</name>
            </trkpt>
            <trkpt lat="49.8804512" lon="9.1619352">
                <ele>115.0</ele>
                <time>2020-08-29T14:40:21.000Z</time>
                <name>Trackpoint 6007</name>
            </trkpt>
            <trkpt lat="49.880496" lon="9.1618216">
                <ele>115.0</ele>
                <time>2020-08-29T14:40:24.000Z</time>
                <name>Trackpoint 6008</name>
            </trkpt>
            <trkpt lat="49.8805536" lon="9.16172">
                <ele>115.0</ele>
                <time>2020-08-29T14:40:27.000Z</time>
                <name>Trackpoint 6009</name>
            </trkpt>
            <trkpt lat="49.8806144" lon="9.1616112">
                <ele>115.0</ele>
                <time>2020-08-29T14:40:30.000Z</time>
                <name>Trackpoint 6010</name>
            </trkpt>
            <trkpt lat="49.880672" lon="9.1615104">
                <ele>116.0</ele>
                <time>2020-08-29T14:40:33.000Z</time>
                <name>Trackpoint 6011</name>
            </trkpt>
            <trkpt lat="49.8807168" lon="9.161424">
                <ele>116.0</ele>
                <time>2020-08-29T14:40:35.000Z</time>
                <name>Trackpoint 6012</name>
            </trkpt>
            <trkpt lat="49.8807424" lon="9.1613264">
                <ele>116.0</ele>
                <time>2020-08-29T14:40:37.000Z</time>
                <name>Trackpoint 6013</name>
            </trkpt>
            <trkpt lat="49.8807808" lon="9.1612368">
                <ele>116.0</ele>
                <time>2020-08-29T14:40:39.000Z</time>
                <name>Trackpoint 6014</name>
            </trkpt>
            <trkpt lat="49.8808288" lon="9.1611568">
                <ele>116.0</ele>
                <time>2020-08-29T14:40:41.000Z</time>
                <name>Trackpoint 6015</name>
            </trkpt>
            <trkpt lat="49.88088" lon="9.1610816">
                <ele>116.0</ele>
                <time>2020-08-29T14:40:43.000Z</time>
                <name>Trackpoint 6016</name>
            </trkpt>
            <trkpt lat="49.8809248" lon="9.1610032">
                <ele>116.0</ele>
                <time>2020-08-29T14:40:45.000Z</time>
                <name>Trackpoint 6017</name>
            </trkpt>
            <trkpt lat="49.8810112" lon="9.1609448">
                <ele>116.0</ele>
                <time>2020-08-29T14:40:48.000Z</time>
                <name>Trackpoint 6018</name>
            </trkpt>
            <trkpt lat="49.8811136" lon="9.1609496">
                <ele>116.0</ele>
                <time>2020-08-29T14:40:51.000Z</time>
                <name>Trackpoint 6019</name>
            </trkpt>
            <trkpt lat="49.8812288" lon="9.160956">
                <ele>116.0</ele>
                <time>2020-08-29T14:40:54.000Z</time>
                <name>Trackpoint 6020</name>
            </trkpt>
            <trkpt lat="49.881344" lon="9.160936">
                <ele>116.0</ele>
                <time>2020-08-29T14:40:57.000Z</time>
                <name>Trackpoint 6021</name>
            </trkpt>
            <trkpt lat="49.881472" lon="9.1609184">
                <ele>116.0</ele>
                <time>2020-08-29T14:41:00.000Z</time>
                <name>Trackpoint 6022</name>
            </trkpt>
            <trkpt lat="49.8815648" lon="9.1609064">
                <ele>116.0</ele>
                <time>2020-08-29T14:41:02.000Z</time>
                <name>Trackpoint 6023</name>
            </trkpt>
            <trkpt lat="49.881696" lon="9.1609184">
                <ele>118.0</ele>
                <time>2020-08-29T14:41:05.000Z</time>
                <name>Trackpoint 6024</name>
            </trkpt>
            <trkpt lat="49.8817888" lon="9.1609088">
                <ele>118.0</ele>
                <time>2020-08-29T14:41:07.000Z</time>
                <name>Trackpoint 6025</name>
            </trkpt>
            <trkpt lat="49.881888" lon="9.1609136">
                <ele>119.0</ele>
                <time>2020-08-29T14:41:09.000Z</time>
                <name>Trackpoint 6026</name>
            </trkpt>
            <trkpt lat="49.881984" lon="9.1609248">
                <ele>120.0</ele>
                <time>2020-08-29T14:41:11.000Z</time>
                <name>Trackpoint 6027</name>
            </trkpt>
            <trkpt lat="49.8820768" lon="9.1609232">
                <ele>120.0</ele>
                <time>2020-08-29T14:41:13.000Z</time>
                <name>Trackpoint 6028</name>
            </trkpt>
            <trkpt lat="49.8821728" lon="9.1609088">
                <ele>120.0</ele>
                <time>2020-08-29T14:41:15.000Z</time>
                <name>Trackpoint 6029</name>
            </trkpt>
            <trkpt lat="49.8822976" lon="9.1609224">
                <ele>120.0</ele>
                <time>2020-08-29T14:41:18.000Z</time>
                <name>Trackpoint 6030</name>
            </trkpt>
            <trkpt lat="49.8824224" lon="9.1609184">
                <ele>121.0</ele>
                <time>2020-08-29T14:41:21.000Z</time>
                <name>Trackpoint 6031</name>
            </trkpt>
            <trkpt lat="49.8825152" lon="9.1609224">
                <ele>121.0</ele>
                <time>2020-08-29T14:41:23.000Z</time>
                <name>Trackpoint 6032</name>
            </trkpt>
            <trkpt lat="49.88264" lon="9.1609424">
                <ele>121.0</ele>
                <time>2020-08-29T14:41:26.000Z</time>
                <name>Trackpoint 6033</name>
            </trkpt>
            <trkpt lat="49.882752" lon="9.1609688">
                <ele>121.0</ele>
                <time>2020-08-29T14:41:29.000Z</time>
                <name>Trackpoint 6034</name>
            </trkpt>
            <trkpt lat="49.8828576" lon="9.1610184">
                <ele>121.0</ele>
                <time>2020-08-29T14:41:32.000Z</time>
                <name>Trackpoint 6035</name>
            </trkpt>
            <trkpt lat="49.8829472" lon="9.1610384">
                <ele>120.0</ele>
                <time>2020-08-29T14:41:34.000Z</time>
                <name>Trackpoint 6036</name>
            </trkpt>
            <trkpt lat="49.8830784" lon="9.1610344">
                <ele>121.0</ele>
                <time>2020-08-29T14:41:37.000Z</time>
                <name>Trackpoint 6037</name>
            </trkpt>
            <trkpt lat="49.8831776" lon="9.1610232">
                <ele>120.0</ele>
                <time>2020-08-29T14:41:39.000Z</time>
                <name>Trackpoint 6038</name>
            </trkpt>
            <trkpt lat="49.8832736" lon="9.1610144">
                <ele>120.0</ele>
                <time>2020-08-29T14:41:41.000Z</time>
                <name>Trackpoint 6039</name>
            </trkpt>
            <trkpt lat="49.8833664" lon="9.1610032">
                <ele>120.0</ele>
                <time>2020-08-29T14:41:43.000Z</time>
                <name>Trackpoint 6040</name>
            </trkpt>
            <trkpt lat="49.8834624" lon="9.1609896">
                <ele>120.0</ele>
                <time>2020-08-29T14:41:45.000Z</time>
                <name>Trackpoint 6041</name>
            </trkpt>
            <trkpt lat="49.8835968" lon="9.1609784">
                <ele>120.0</ele>
                <time>2020-08-29T14:41:48.000Z</time>
                <name>Trackpoint 6042</name>
            </trkpt>
            <trkpt lat="49.8836928" lon="9.1609736">
                <ele>121.0</ele>
                <time>2020-08-29T14:41:50.000Z</time>
                <name>Trackpoint 6043</name>
            </trkpt>
            <trkpt lat="49.8837888" lon="9.1609752">
                <ele>121.0</ele>
                <time>2020-08-29T14:41:52.000Z</time>
                <name>Trackpoint 6044</name>
            </trkpt>
            <trkpt lat="49.8838912" lon="9.1609848">
                <ele>121.0</ele>
                <time>2020-08-29T14:41:54.000Z</time>
                <name>Trackpoint 6045</name>
            </trkpt>
            <trkpt lat="49.8840256" lon="9.1609888">
                <ele>121.0</ele>
                <time>2020-08-29T14:41:57.000Z</time>
                <name>Trackpoint 6046</name>
            </trkpt>
            <trkpt lat="49.8841216" lon="9.1609848">
                <ele>121.0</ele>
                <time>2020-08-29T14:41:59.000Z</time>
                <name>Trackpoint 6047</name>
            </trkpt>
            <trkpt lat="49.8842208" lon="9.16098">
                <ele>121.0</ele>
                <time>2020-08-29T14:42:01.000Z</time>
                <name>Trackpoint 6048</name>
            </trkpt>
            <trkpt lat="49.88432" lon="9.1609736">
                <ele>121.0</ele>
                <time>2020-08-29T14:42:03.000Z</time>
                <name>Trackpoint 6049</name>
            </trkpt>
            <trkpt lat="49.8844224" lon="9.160972">
                <ele>121.0</ele>
                <time>2020-08-29T14:42:05.000Z</time>
                <name>Trackpoint 6050</name>
            </trkpt>
            <trkpt lat="49.8845216" lon="9.1609688">
                <ele>121.0</ele>
                <time>2020-08-29T14:42:07.000Z</time>
                <name>Trackpoint 6051</name>
            </trkpt>
            <trkpt lat="49.8846176" lon="9.160956">
                <ele>121.0</ele>
                <time>2020-08-29T14:42:09.000Z</time>
                <name>Trackpoint 6052</name>
            </trkpt>
            <trkpt lat="49.8847168" lon="9.1609536">
                <ele>120.0</ele>
                <time>2020-08-29T14:42:11.000Z</time>
                <name>Trackpoint 6053</name>
            </trkpt>
            <trkpt lat="49.8848224" lon="9.1609632">
                <ele>120.0</ele>
                <time>2020-08-29T14:42:13.000Z</time>
                <name>Trackpoint 6054</name>
            </trkpt>
            <trkpt lat="49.8849248" lon="9.1609624">
                <ele>120.0</ele>
                <time>2020-08-29T14:42:15.000Z</time>
                <name>Trackpoint 6055</name>
            </trkpt>
            <trkpt lat="49.8850176" lon="9.16096">
                <ele>120.0</ele>
                <time>2020-08-29T14:42:17.000Z</time>
                <name>Trackpoint 6056</name>
            </trkpt>
            <trkpt lat="49.8851456" lon="9.1609688">
                <ele>120.0</ele>
                <time>2020-08-29T14:42:20.000Z</time>
                <name>Trackpoint 6057</name>
            </trkpt>
            <trkpt lat="49.8852416" lon="9.1609736">
                <ele>120.0</ele>
                <time>2020-08-29T14:42:22.000Z</time>
                <name>Trackpoint 6058</name>
            </trkpt>
            <trkpt lat="49.8853728" lon="9.1609672">
                <ele>120.0</ele>
                <time>2020-08-29T14:42:25.000Z</time>
                <name>Trackpoint 6059</name>
            </trkpt>
            <trkpt lat="49.8854592" lon="9.1609112">
                <ele>120.0</ele>
                <time>2020-08-29T14:42:27.000Z</time>
                <name>Trackpoint 6060</name>
            </trkpt>
            <trkpt lat="49.8855008" lon="9.1607936">
                <ele>120.0</ele>
                <time>2020-08-29T14:42:29.000Z</time>
                <name>Trackpoint 6061</name>
            </trkpt>
            <trkpt lat="49.8855104" lon="9.1606504">
                <ele>120.0</ele>
                <time>2020-08-29T14:42:31.000Z</time>
                <name>Trackpoint 6062</name>
            </trkpt>
            <trkpt lat="49.8854976" lon="9.1604968">
                <ele>121.0</ele>
                <time>2020-08-29T14:42:33.000Z</time>
                <name>Trackpoint 6063</name>
            </trkpt>
            <trkpt lat="49.885472" lon="9.160348">
                <ele>120.0</ele>
                <time>2020-08-29T14:42:35.000Z</time>
                <name>Trackpoint 6064</name>
            </trkpt>
            <trkpt lat="49.8854496" lon="9.160196">
                <ele>122.0</ele>
                <time>2020-08-29T14:42:37.000Z</time>
                <name>Trackpoint 6065</name>
            </trkpt>
            <trkpt lat="49.8854336" lon="9.1600464">
                <ele>121.0</ele>
                <time>2020-08-29T14:42:39.000Z</time>
                <name>Trackpoint 6066</name>
            </trkpt>
            <trkpt lat="49.8854176" lon="9.1598928">
                <ele>121.0</ele>
                <time>2020-08-29T14:42:41.000Z</time>
                <name>Trackpoint 6067</name>
            </trkpt>
            <trkpt lat="49.8853984" lon="9.1597456">
                <ele>121.0</ele>
                <time>2020-08-29T14:42:43.000Z</time>
                <name>Trackpoint 6068</name>
            </trkpt>
            <trkpt lat="49.8853792" lon="9.1595936">
                <ele>120.0</ele>
                <time>2020-08-29T14:42:45.000Z</time>
                <name>Trackpoint 6069</name>
            </trkpt>
            <trkpt lat="49.8853696" lon="9.1594432">
                <ele>121.0</ele>
                <time>2020-08-29T14:42:47.000Z</time>
                <name>Trackpoint 6070</name>
            </trkpt>
            <trkpt lat="49.88536" lon="9.1592952">
                <ele>119.0</ele>
                <time>2020-08-29T14:42:49.000Z</time>
                <name>Trackpoint 6071</name>
            </trkpt>
            <trkpt lat="49.88536" lon="9.1591504">
                <ele>120.0</ele>
                <time>2020-08-29T14:42:51.000Z</time>
                <name>Trackpoint 6072</name>
            </trkpt>
            <trkpt lat="49.8853568" lon="9.159">
                <ele>119.0</ele>
                <time>2020-08-29T14:42:53.000Z</time>
                <name>Trackpoint 6073</name>
            </trkpt>
            <trkpt lat="49.885344" lon="9.158856">
                <ele>118.0</ele>
                <time>2020-08-29T14:42:55.000Z</time>
                <name>Trackpoint 6074</name>
            </trkpt>
            <trkpt lat="49.8853312" lon="9.1587096">
                <ele>119.0</ele>
                <time>2020-08-29T14:42:57.000Z</time>
                <name>Trackpoint 6075</name>
            </trkpt>
            <trkpt lat="49.885312" lon="9.1585712">
                <ele>119.0</ele>
                <time>2020-08-29T14:42:59.000Z</time>
                <name>Trackpoint 6076</name>
            </trkpt>
            <trkpt lat="49.8852928" lon="9.1584328">
                <ele>118.0</ele>
                <time>2020-08-29T14:43:01.000Z</time>
                <name>Trackpoint 6077</name>
            </trkpt>
            <trkpt lat="49.8852736" lon="9.158292">
                <ele>116.0</ele>
                <time>2020-08-29T14:43:03.000Z</time>
                <name>Trackpoint 6078</name>
            </trkpt>
            <trkpt lat="49.8852704" lon="9.1581448">
                <ele>116.0</ele>
                <time>2020-08-29T14:43:05.000Z</time>
                <name>Trackpoint 6079</name>
            </trkpt>
            <trkpt lat="49.8852608" lon="9.1579952">
                <ele>116.0</ele>
                <time>2020-08-29T14:43:07.000Z</time>
                <name>Trackpoint 6080</name>
            </trkpt>
            <trkpt lat="49.8852512" lon="9.1578464">
                <ele>116.0</ele>
                <time>2020-08-29T14:43:09.000Z</time>
                <name>Trackpoint 6081</name>
            </trkpt>
            <trkpt lat="49.885232" lon="9.1576968">
                <ele>116.0</ele>
                <time>2020-08-29T14:43:11.000Z</time>
                <name>Trackpoint 6082</name>
            </trkpt>
            <trkpt lat="49.8852192" lon="9.1575536">
                <ele>116.0</ele>
                <time>2020-08-29T14:43:13.000Z</time>
                <name>Trackpoint 6083</name>
            </trkpt>
            <trkpt lat="49.8852096" lon="9.1574184">
                <ele>116.0</ele>
                <time>2020-08-29T14:43:15.000Z</time>
                <name>Trackpoint 6084</name>
            </trkpt>
            <trkpt lat="49.8851936" lon="9.1572848">
                <ele>117.0</ele>
                <time>2020-08-29T14:43:17.000Z</time>
                <name>Trackpoint 6085</name>
            </trkpt>
            <trkpt lat="49.8851776" lon="9.1571568">
                <ele>117.0</ele>
                <time>2020-08-29T14:43:19.000Z</time>
                <name>Trackpoint 6086</name>
            </trkpt>
            <trkpt lat="49.8851616" lon="9.1570328">
                <ele>118.0</ele>
                <time>2020-08-29T14:43:21.000Z</time>
                <name>Trackpoint 6087</name>
            </trkpt>
            <trkpt lat="49.8851456" lon="9.1569096">
                <ele>117.0</ele>
                <time>2020-08-29T14:43:23.000Z</time>
                <name>Trackpoint 6088</name>
            </trkpt>
            <trkpt lat="49.8851424" lon="9.156792">
                <ele>117.0</ele>
                <time>2020-08-29T14:43:25.000Z</time>
                <name>Trackpoint 6089</name>
            </trkpt>
            <trkpt lat="49.8851424" lon="9.1566864">
                <ele>118.0</ele>
                <time>2020-08-29T14:43:27.000Z</time>
                <name>Trackpoint 6090</name>
            </trkpt>
            <trkpt lat="49.8851552" lon="9.1565952">
                <ele>117.0</ele>
                <time>2020-08-29T14:43:29.000Z</time>
                <name>Trackpoint 6091</name>
            </trkpt>
            <trkpt lat="49.8851584" lon="9.1564928">
                <ele>118.0</ele>
                <time>2020-08-29T14:43:32.000Z</time>
                <name>Trackpoint 6092</name>
            </trkpt>
            <trkpt lat="49.885232" lon="9.1565464">
                <ele>116.0</ele>
                <time>2020-08-29T14:44:03.000Z</time>
                <name>Trackpoint 6093</name>
            </trkpt>
            <trkpt lat="49.8853568" lon="9.1565352">
                <ele>116.0</ele>
                <time>2020-08-29T14:44:07.000Z</time>
                <name>Trackpoint 6094</name>
            </trkpt>
            <trkpt lat="49.8854592" lon="9.1565048">
                <ele>116.0</ele>
                <time>2020-08-29T14:44:10.000Z</time>
                <name>Trackpoint 6095</name>
            </trkpt>
            <trkpt lat="49.8855552" lon="9.1564904">
                <ele>116.0</ele>
                <time>2020-08-29T14:44:12.000Z</time>
                <name>Trackpoint 6096</name>
            </trkpt>
            <trkpt lat="49.885648" lon="9.1564712">
                <ele>116.0</ele>
                <time>2020-08-29T14:44:14.000Z</time>
                <name>Trackpoint 6097</name>
            </trkpt>
            <trkpt lat="49.8857472" lon="9.15646">
                <ele>116.0</ele>
                <time>2020-08-29T14:44:16.000Z</time>
                <name>Trackpoint 6098</name>
            </trkpt>
            <trkpt lat="49.8858464" lon="9.1564432">
                <ele>115.0</ele>
                <time>2020-08-29T14:44:18.000Z</time>
                <name>Trackpoint 6099</name>
            </trkpt>
            <trkpt lat="49.8859488" lon="9.1564216">
                <ele>115.0</ele>
                <time>2020-08-29T14:44:20.000Z</time>
                <name>Trackpoint 6100</name>
            </trkpt>
            <trkpt lat="49.8860448" lon="9.1564056">
                <ele>115.0</ele>
                <time>2020-08-29T14:44:22.000Z</time>
                <name>Trackpoint 6101</name>
            </trkpt>
            <trkpt lat="49.886144" lon="9.1563904">
                <ele>115.0</ele>
                <time>2020-08-29T14:44:24.000Z</time>
                <name>Trackpoint 6102</name>
            </trkpt>
            <trkpt lat="49.8862464" lon="9.1563632">
                <ele>115.0</ele>
                <time>2020-08-29T14:44:26.000Z</time>
                <name>Trackpoint 6103</name>
            </trkpt>
            <trkpt lat="49.8863488" lon="9.15634">
                <ele>116.0</ele>
                <time>2020-08-29T14:44:28.000Z</time>
                <name>Trackpoint 6104</name>
            </trkpt>
            <trkpt lat="49.8864512" lon="9.1563152">
                <ele>116.0</ele>
                <time>2020-08-29T14:44:30.000Z</time>
                <name>Trackpoint 6105</name>
            </trkpt>
            <trkpt lat="49.8865536" lon="9.156288">
                <ele>116.0</ele>
                <time>2020-08-29T14:44:32.000Z</time>
                <name>Trackpoint 6106</name>
            </trkpt>
            <trkpt lat="49.8866496" lon="9.1562728">
                <ele>116.0</ele>
                <time>2020-08-29T14:44:34.000Z</time>
                <name>Trackpoint 6107</name>
            </trkpt>
            <trkpt lat="49.8867456" lon="9.1562584">
                <ele>116.0</ele>
                <time>2020-08-29T14:44:36.000Z</time>
                <name>Trackpoint 6108</name>
            </trkpt>
            <trkpt lat="49.8868448" lon="9.1562456">
                <ele>116.0</ele>
                <time>2020-08-29T14:44:38.000Z</time>
                <name>Trackpoint 6109</name>
            </trkpt>
            <trkpt lat="49.886944" lon="9.1562216">
                <ele>116.0</ele>
                <time>2020-08-29T14:44:40.000Z</time>
                <name>Trackpoint 6110</name>
            </trkpt>
            <trkpt lat="49.8870464" lon="9.1561944">
                <ele>116.0</ele>
                <time>2020-08-29T14:44:42.000Z</time>
                <name>Trackpoint 6111</name>
            </trkpt>
            <trkpt lat="49.8871488" lon="9.156168">
                <ele>117.0</ele>
                <time>2020-08-29T14:44:44.000Z</time>
                <name>Trackpoint 6112</name>
            </trkpt>
            <trkpt lat="49.887248" lon="9.1561472">
                <ele>117.0</ele>
                <time>2020-08-29T14:44:46.000Z</time>
                <name>Trackpoint 6113</name>
            </trkpt>
            <trkpt lat="49.8873504" lon="9.15612">
                <ele>117.0</ele>
                <time>2020-08-29T14:44:48.000Z</time>
                <name>Trackpoint 6114</name>
            </trkpt>
            <trkpt lat="49.887456" lon="9.1560896">
                <ele>118.0</ele>
                <time>2020-08-29T14:44:50.000Z</time>
                <name>Trackpoint 6115</name>
            </trkpt>
            <trkpt lat="49.8875488" lon="9.1560472">
                <ele>117.0</ele>
                <time>2020-08-29T14:44:52.000Z</time>
                <name>Trackpoint 6116</name>
            </trkpt>
            <trkpt lat="49.887648" lon="9.1559984">
                <ele>117.0</ele>
                <time>2020-08-29T14:44:54.000Z</time>
                <name>Trackpoint 6117</name>
            </trkpt>
            <trkpt lat="49.887744" lon="9.1559352">
                <ele>118.0</ele>
                <time>2020-08-29T14:44:56.000Z</time>
                <name>Trackpoint 6118</name>
            </trkpt>
            <trkpt lat="49.88784" lon="9.1558664">
                <ele>117.0</ele>
                <time>2020-08-29T14:44:58.000Z</time>
                <name>Trackpoint 6119</name>
            </trkpt>
            <trkpt lat="49.8879424" lon="9.1558016">
                <ele>117.0</ele>
                <time>2020-08-29T14:45:00.000Z</time>
                <name>Trackpoint 6120</name>
            </trkpt>
            <trkpt lat="49.8880384" lon="9.1557368">
                <ele>117.0</ele>
                <time>2020-08-29T14:45:02.000Z</time>
                <name>Trackpoint 6121</name>
            </trkpt>
            <trkpt lat="49.8881408" lon="9.155672">
                <ele>117.0</ele>
                <time>2020-08-29T14:45:04.000Z</time>
                <name>Trackpoint 6122</name>
            </trkpt>
            <trkpt lat="49.8882432" lon="9.1556184">
                <ele>117.0</ele>
                <time>2020-08-29T14:45:06.000Z</time>
                <name>Trackpoint 6123</name>
            </trkpt>
            <trkpt lat="49.8883392" lon="9.1555568">
                <ele>117.0</ele>
                <time>2020-08-29T14:45:08.000Z</time>
                <name>Trackpoint 6124</name>
            </trkpt>
            <trkpt lat="49.8884384" lon="9.1554816">
                <ele>117.0</ele>
                <time>2020-08-29T14:45:10.000Z</time>
                <name>Trackpoint 6125</name>
            </trkpt>
            <trkpt lat="49.8885408" lon="9.155412">
                <ele>117.0</ele>
                <time>2020-08-29T14:45:12.000Z</time>
                <name>Trackpoint 6126</name>
            </trkpt>
            <trkpt lat="49.8886368" lon="9.155336">
                <ele>118.0</ele>
                <time>2020-08-29T14:45:14.000Z</time>
                <name>Trackpoint 6127</name>
            </trkpt>
            <trkpt lat="49.8887328" lon="9.1552584">
                <ele>118.0</ele>
                <time>2020-08-29T14:45:16.000Z</time>
                <name>Trackpoint 6128</name>
            </trkpt>
            <trkpt lat="49.8888288" lon="9.1551784">
                <ele>118.0</ele>
                <time>2020-08-29T14:45:18.000Z</time>
                <name>Trackpoint 6129</name>
            </trkpt>
            <trkpt lat="49.8889248" lon="9.1550928">
                <ele>118.0</ele>
                <time>2020-08-29T14:45:20.000Z</time>
                <name>Trackpoint 6130</name>
            </trkpt>
            <trkpt lat="49.889024" lon="9.1550168">
                <ele>118.0</ele>
                <time>2020-08-29T14:45:22.000Z</time>
                <name>Trackpoint 6131</name>
            </trkpt>
            <trkpt lat="49.8891136" lon="9.1549328">
                <ele>117.0</ele>
                <time>2020-08-29T14:45:24.000Z</time>
                <name>Trackpoint 6132</name>
            </trkpt>
            <trkpt lat="49.8892064" lon="9.1548544">
                <ele>117.0</ele>
                <time>2020-08-29T14:45:26.000Z</time>
                <name>Trackpoint 6133</name>
            </trkpt>
            <trkpt lat="49.8892896" lon="9.1547784">
                <ele>117.0</ele>
                <time>2020-08-29T14:45:28.000Z</time>
                <name>Trackpoint 6134</name>
            </trkpt>
            <trkpt lat="49.8893824" lon="9.1547048">
                <ele>117.0</ele>
                <time>2020-08-29T14:45:30.000Z</time>
                <name>Trackpoint 6135</name>
            </trkpt>
            <trkpt lat="49.889472" lon="9.154632">
                <ele>117.0</ele>
                <time>2020-08-29T14:45:32.000Z</time>
                <name>Trackpoint 6136</name>
            </trkpt>
            <trkpt lat="49.8895648" lon="9.154556">
                <ele>117.0</ele>
                <time>2020-08-29T14:45:34.000Z</time>
                <name>Trackpoint 6137</name>
            </trkpt>
            <trkpt lat="49.8896608" lon="9.15448">
                <ele>117.0</ele>
                <time>2020-08-29T14:45:36.000Z</time>
                <name>Trackpoint 6138</name>
            </trkpt>
            <trkpt lat="49.8897504" lon="9.1544048">
                <ele>117.0</ele>
                <time>2020-08-29T14:45:38.000Z</time>
                <name>Trackpoint 6139</name>
            </trkpt>
            <trkpt lat="49.8898464" lon="9.1543328">
                <ele>117.0</ele>
                <time>2020-08-29T14:45:40.000Z</time>
                <name>Trackpoint 6140</name>
            </trkpt>
            <trkpt lat="49.8899424" lon="9.1542664">
                <ele>117.0</ele>
                <time>2020-08-29T14:45:42.000Z</time>
                <name>Trackpoint 6141</name>
            </trkpt>
            <trkpt lat="49.8900416" lon="9.1542032">
                <ele>116.0</ele>
                <time>2020-08-29T14:45:44.000Z</time>
                <name>Trackpoint 6142</name>
            </trkpt>
            <trkpt lat="49.8901376" lon="9.1541368">
                <ele>116.0</ele>
                <time>2020-08-29T14:45:46.000Z</time>
                <name>Trackpoint 6143</name>
            </trkpt>
            <trkpt lat="49.8902368" lon="9.1540784">
                <ele>116.0</ele>
                <time>2020-08-29T14:45:48.000Z</time>
                <name>Trackpoint 6144</name>
            </trkpt>
            <trkpt lat="49.8903392" lon="9.154028">
                <ele>117.0</ele>
                <time>2020-08-29T14:45:50.000Z</time>
                <name>Trackpoint 6145</name>
            </trkpt>
            <trkpt lat="49.8904352" lon="9.1539696">
                <ele>117.0</ele>
                <time>2020-08-29T14:45:52.000Z</time>
                <name>Trackpoint 6146</name>
            </trkpt>
            <trkpt lat="49.8905344" lon="9.153916">
                <ele>117.0</ele>
                <time>2020-08-29T14:45:54.000Z</time>
                <name>Trackpoint 6147</name>
            </trkpt>
            <trkpt lat="49.8906336" lon="9.1538648">
                <ele>118.0</ele>
                <time>2020-08-29T14:45:56.000Z</time>
                <name>Trackpoint 6148</name>
            </trkpt>
            <trkpt lat="49.890736" lon="9.153816">
                <ele>118.0</ele>
                <time>2020-08-29T14:45:58.000Z</time>
                <name>Trackpoint 6149</name>
            </trkpt>
            <trkpt lat="49.8908416" lon="9.1537616">
                <ele>119.0</ele>
                <time>2020-08-29T14:46:00.000Z</time>
                <name>Trackpoint 6150</name>
            </trkpt>
            <trkpt lat="49.890944" lon="9.1537104">
                <ele>119.0</ele>
                <time>2020-08-29T14:46:02.000Z</time>
                <name>Trackpoint 6151</name>
            </trkpt>
            <trkpt lat="49.8910432" lon="9.1536568">
                <ele>119.0</ele>
                <time>2020-08-29T14:46:04.000Z</time>
                <name>Trackpoint 6152</name>
            </trkpt>
            <trkpt lat="49.8911488" lon="9.1536">
                <ele>118.0</ele>
                <time>2020-08-29T14:46:06.000Z</time>
                <name>Trackpoint 6153</name>
            </trkpt>
            <trkpt lat="49.891248" lon="9.1535456">
                <ele>118.0</ele>
                <time>2020-08-29T14:46:08.000Z</time>
                <name>Trackpoint 6154</name>
            </trkpt>
            <trkpt lat="49.8913504" lon="9.1534928">
                <ele>118.0</ele>
                <time>2020-08-29T14:46:10.000Z</time>
                <name>Trackpoint 6155</name>
            </trkpt>
            <trkpt lat="49.8914496" lon="9.1534368">
                <ele>118.0</ele>
                <time>2020-08-29T14:46:12.000Z</time>
                <name>Trackpoint 6156</name>
            </trkpt>
            <trkpt lat="49.8915488" lon="9.1533744">
                <ele>118.0</ele>
                <time>2020-08-29T14:46:14.000Z</time>
                <name>Trackpoint 6157</name>
            </trkpt>
            <trkpt lat="49.8916512" lon="9.1533168">
                <ele>120.0</ele>
                <time>2020-08-29T14:46:16.000Z</time>
                <name>Trackpoint 6158</name>
            </trkpt>
            <trkpt lat="49.8917472" lon="9.1532432">
                <ele>119.0</ele>
                <time>2020-08-29T14:46:18.000Z</time>
                <name>Trackpoint 6159</name>
            </trkpt>
            <trkpt lat="49.8918432" lon="9.1531632">
                <ele>119.0</ele>
                <time>2020-08-29T14:46:20.000Z</time>
                <name>Trackpoint 6160</name>
            </trkpt>
            <trkpt lat="49.8919328" lon="9.1530816">
                <ele>119.0</ele>
                <time>2020-08-29T14:46:22.000Z</time>
                <name>Trackpoint 6161</name>
            </trkpt>
            <trkpt lat="49.8920128" lon="9.1529848">
                <ele>118.0</ele>
                <time>2020-08-29T14:46:24.000Z</time>
                <name>Trackpoint 6162</name>
            </trkpt>
            <trkpt lat="49.8920928" lon="9.1528784">
                <ele>118.0</ele>
                <time>2020-08-29T14:46:26.000Z</time>
                <name>Trackpoint 6163</name>
            </trkpt>
            <trkpt lat="49.8921728" lon="9.1527704">
                <ele>118.0</ele>
                <time>2020-08-29T14:46:28.000Z</time>
                <name>Trackpoint 6164</name>
            </trkpt>
            <trkpt lat="49.8922528" lon="9.1526584">
                <ele>117.0</ele>
                <time>2020-08-29T14:46:30.000Z</time>
                <name>Trackpoint 6165</name>
            </trkpt>
            <trkpt lat="49.8923296" lon="9.1525448">
                <ele>117.0</ele>
                <time>2020-08-29T14:46:32.000Z</time>
                <name>Trackpoint 6166</name>
            </trkpt>
            <trkpt lat="49.8924096" lon="9.1524312">
                <ele>117.0</ele>
                <time>2020-08-29T14:46:34.000Z</time>
                <name>Trackpoint 6167</name>
            </trkpt>
            <trkpt lat="49.8924896" lon="9.1523184">
                <ele>118.0</ele>
                <time>2020-08-29T14:46:36.000Z</time>
                <name>Trackpoint 6168</name>
            </trkpt>
            <trkpt lat="49.8925664" lon="9.1522064">
                <ele>118.0</ele>
                <time>2020-08-29T14:46:38.000Z</time>
                <name>Trackpoint 6169</name>
            </trkpt>
            <trkpt lat="49.8926464" lon="9.1520952">
                <ele>118.0</ele>
                <time>2020-08-29T14:46:40.000Z</time>
                <name>Trackpoint 6170</name>
            </trkpt>
            <trkpt lat="49.8927264" lon="9.1519832">
                <ele>117.0</ele>
                <time>2020-08-29T14:46:42.000Z</time>
                <name>Trackpoint 6171</name>
            </trkpt>
            <trkpt lat="49.8928032" lon="9.1518768">
                <ele>117.0</ele>
                <time>2020-08-29T14:46:44.000Z</time>
                <name>Trackpoint 6172</name>
            </trkpt>
            <trkpt lat="49.8928832" lon="9.1517712">
                <ele>117.0</ele>
                <time>2020-08-29T14:46:46.000Z</time>
                <name>Trackpoint 6173</name>
            </trkpt>
            <trkpt lat="49.8929632" lon="9.1516736">
                <ele>117.0</ele>
                <time>2020-08-29T14:46:48.000Z</time>
                <name>Trackpoint 6174</name>
            </trkpt>
            <trkpt lat="49.8930464" lon="9.1515768">
                <ele>118.0</ele>
                <time>2020-08-29T14:46:50.000Z</time>
                <name>Trackpoint 6175</name>
            </trkpt>
            <trkpt lat="49.893136" lon="9.1514864">
                <ele>118.0</ele>
                <time>2020-08-29T14:46:52.000Z</time>
                <name>Trackpoint 6176</name>
            </trkpt>
            <trkpt lat="49.8932256" lon="9.1514032">
                <ele>117.0</ele>
                <time>2020-08-29T14:46:54.000Z</time>
                <name>Trackpoint 6177</name>
            </trkpt>
            <trkpt lat="49.8933248" lon="9.1513336">
                <ele>117.0</ele>
                <time>2020-08-29T14:46:56.000Z</time>
                <name>Trackpoint 6178</name>
            </trkpt>
            <trkpt lat="49.8934208" lon="9.1512736">
                <ele>117.0</ele>
                <time>2020-08-29T14:46:58.000Z</time>
                <name>Trackpoint 6179</name>
            </trkpt>
            <trkpt lat="49.8935168" lon="9.1512168">
                <ele>117.0</ele>
                <time>2020-08-29T14:47:00.000Z</time>
                <name>Trackpoint 6180</name>
            </trkpt>
            <trkpt lat="49.8936128" lon="9.1511648">
                <ele>117.0</ele>
                <time>2020-08-29T14:47:02.000Z</time>
                <name>Trackpoint 6181</name>
            </trkpt>
            <trkpt lat="49.8937088" lon="9.15112">
                <ele>117.0</ele>
                <time>2020-08-29T14:47:04.000Z</time>
                <name>Trackpoint 6182</name>
            </trkpt>
            <trkpt lat="49.8938336" lon="9.1511568">
                <ele>117.0</ele>
                <time>2020-08-29T14:47:07.000Z</time>
                <name>Trackpoint 6183</name>
            </trkpt>
            <trkpt lat="49.8939008" lon="9.15126">
                <ele>117.0</ele>
                <time>2020-08-29T14:47:09.000Z</time>
                <name>Trackpoint 6184</name>
            </trkpt>
            <trkpt lat="49.8939488" lon="9.1513816">
                <ele>117.0</ele>
                <time>2020-08-29T14:47:11.000Z</time>
                <name>Trackpoint 6185</name>
            </trkpt>
            <trkpt lat="49.8939936" lon="9.1514664">
                <ele>117.0</ele>
                <time>2020-08-29T14:47:15.000Z</time>
                <name>Trackpoint 6186</name>
            </trkpt>
            <trkpt lat="49.8940992" lon="9.1514752">
                <ele>117.0</ele>
                <time>2020-08-29T14:47:51.000Z</time>
                <name>Trackpoint 6187</name>
            </trkpt>
            <trkpt lat="49.8941856" lon="9.1513632">
                <ele>117.0</ele>
                <time>2020-08-29T14:47:54.000Z</time>
                <name>Trackpoint 6188</name>
            </trkpt>
            <trkpt lat="49.89424" lon="9.1512816">
                <ele>117.0</ele>
                <time>2020-08-29T14:47:56.000Z</time>
                <name>Trackpoint 6189</name>
            </trkpt>
            <trkpt lat="49.8942976" lon="9.1511936">
                <ele>117.0</ele>
                <time>2020-08-29T14:47:58.000Z</time>
                <name>Trackpoint 6190</name>
            </trkpt>
            <trkpt lat="49.8943488" lon="9.1510936">
                <ele>116.0</ele>
                <time>2020-08-29T14:48:00.000Z</time>
                <name>Trackpoint 6191</name>
            </trkpt>
            <trkpt lat="49.8943968" lon="9.1509952">
                <ele>116.0</ele>
                <time>2020-08-29T14:48:02.000Z</time>
                <name>Trackpoint 6192</name>
            </trkpt>
            <trkpt lat="49.894448" lon="9.1509088">
                <ele>116.0</ele>
                <time>2020-08-29T14:48:04.000Z</time>
                <name>Trackpoint 6193</name>
            </trkpt>
            <trkpt lat="49.894496" lon="9.1508264">
                <ele>117.0</ele>
                <time>2020-08-29T14:48:06.000Z</time>
                <name>Trackpoint 6194</name>
            </trkpt>
            <trkpt lat="49.8945376" lon="9.1507464">
                <ele>117.0</ele>
                <time>2020-08-29T14:48:08.000Z</time>
                <name>Trackpoint 6195</name>
            </trkpt>
            <trkpt lat="49.8945952" lon="9.150628">
                <ele>117.0</ele>
                <time>2020-08-29T14:48:11.000Z</time>
                <name>Trackpoint 6196</name>
            </trkpt>
            <trkpt lat="49.8946688" lon="9.1505096">
                <ele>116.0</ele>
                <time>2020-08-29T14:48:14.000Z</time>
                <name>Trackpoint 6197</name>
            </trkpt>
            <trkpt lat="49.8947264" lon="9.150396">
                <ele>116.0</ele>
                <time>2020-08-29T14:48:16.000Z</time>
                <name>Trackpoint 6198</name>
            </trkpt>
            <trkpt lat="49.894784" lon="9.1502832">
                <ele>117.0</ele>
                <time>2020-08-29T14:48:18.000Z</time>
                <name>Trackpoint 6199</name>
            </trkpt>
            <trkpt lat="49.894848" lon="9.1501704">
                <ele>116.0</ele>
                <time>2020-08-29T14:48:20.000Z</time>
                <name>Trackpoint 6200</name>
            </trkpt>
            <trkpt lat="49.894912" lon="9.150068">
                <ele>116.0</ele>
                <time>2020-08-29T14:48:22.000Z</time>
                <name>Trackpoint 6201</name>
            </trkpt>
            <trkpt lat="49.8949728" lon="9.1499664">
                <ele>116.0</ele>
                <time>2020-08-29T14:48:24.000Z</time>
                <name>Trackpoint 6202</name>
            </trkpt>
            <trkpt lat="49.8950336" lon="9.1498744">
                <ele>116.0</ele>
                <time>2020-08-29T14:48:26.000Z</time>
                <name>Trackpoint 6203</name>
            </trkpt>
            <trkpt lat="49.8951008" lon="9.1497784">
                <ele>116.0</ele>
                <time>2020-08-29T14:48:28.000Z</time>
                <name>Trackpoint 6204</name>
            </trkpt>
            <trkpt lat="49.895168" lon="9.149676">
                <ele>116.0</ele>
                <time>2020-08-29T14:48:30.000Z</time>
                <name>Trackpoint 6205</name>
            </trkpt>
            <trkpt lat="49.895232" lon="9.1495704">
                <ele>116.0</ele>
                <time>2020-08-29T14:48:32.000Z</time>
                <name>Trackpoint 6206</name>
            </trkpt>
            <trkpt lat="49.8953056" lon="9.1494704">
                <ele>116.0</ele>
                <time>2020-08-29T14:48:34.000Z</time>
                <name>Trackpoint 6207</name>
            </trkpt>
            <trkpt lat="49.8953792" lon="9.1493656">
                <ele>116.0</ele>
                <time>2020-08-29T14:48:36.000Z</time>
                <name>Trackpoint 6208</name>
            </trkpt>
            <trkpt lat="49.8954592" lon="9.1492504">
                <ele>116.0</ele>
                <time>2020-08-29T14:48:38.000Z</time>
                <name>Trackpoint 6209</name>
            </trkpt>
            <trkpt lat="49.8955264" lon="9.1491368">
                <ele>116.0</ele>
                <time>2020-08-29T14:48:40.000Z</time>
                <name>Trackpoint 6210</name>
            </trkpt>
            <trkpt lat="49.8956032" lon="9.14902">
                <ele>115.0</ele>
                <time>2020-08-29T14:48:42.000Z</time>
                <name>Trackpoint 6211</name>
            </trkpt>
            <trkpt lat="49.8956768" lon="9.1489032">
                <ele>115.0</ele>
                <time>2020-08-29T14:48:44.000Z</time>
                <name>Trackpoint 6212</name>
            </trkpt>
            <trkpt lat="49.8957504" lon="9.1487912">
                <ele>115.0</ele>
                <time>2020-08-29T14:48:46.000Z</time>
                <name>Trackpoint 6213</name>
            </trkpt>
            <trkpt lat="49.895824" lon="9.1486784">
                <ele>115.0</ele>
                <time>2020-08-29T14:48:48.000Z</time>
                <name>Trackpoint 6214</name>
            </trkpt>
            <trkpt lat="49.8958976" lon="9.1485752">
                <ele>115.0</ele>
                <time>2020-08-29T14:48:50.000Z</time>
                <name>Trackpoint 6215</name>
            </trkpt>
            <trkpt lat="49.8959744" lon="9.1484736">
                <ele>115.0</ele>
                <time>2020-08-29T14:48:52.000Z</time>
                <name>Trackpoint 6216</name>
            </trkpt>
            <trkpt lat="49.8960576" lon="9.1484072">
                <ele>115.0</ele>
                <time>2020-08-29T14:48:54.000Z</time>
                <name>Trackpoint 6217</name>
            </trkpt>
            <trkpt lat="49.8961536" lon="9.1483768">
                <ele>115.0</ele>
                <time>2020-08-29T14:48:56.000Z</time>
                <name>Trackpoint 6218</name>
            </trkpt>
            <trkpt lat="49.8962464" lon="9.1483072">
                <ele>114.0</ele>
                <time>2020-08-29T14:48:58.000Z</time>
                <name>Trackpoint 6219</name>
            </trkpt>
            <trkpt lat="49.8963328" lon="9.1481832">
                <ele>113.0</ele>
                <time>2020-08-29T14:49:00.000Z</time>
                <name>Trackpoint 6220</name>
            </trkpt>
            <trkpt lat="49.8963808" lon="9.14804">
                <ele>114.0</ele>
                <time>2020-08-29T14:49:02.000Z</time>
                <name>Trackpoint 6221</name>
            </trkpt>
            <trkpt lat="49.8964" lon="9.1478952">
                <ele>113.0</ele>
                <time>2020-08-29T14:49:04.000Z</time>
                <name>Trackpoint 6222</name>
            </trkpt>
            <trkpt lat="49.8964352" lon="9.1477672">
                <ele>113.0</ele>
                <time>2020-08-29T14:49:06.000Z</time>
                <name>Trackpoint 6223</name>
            </trkpt>
            <trkpt lat="49.896512" lon="9.1476744">
                <ele>114.0</ele>
                <time>2020-08-29T14:49:08.000Z</time>
                <name>Trackpoint 6224</name>
            </trkpt>
            <trkpt lat="49.8965888" lon="9.1475912">
                <ele>114.0</ele>
                <time>2020-08-29T14:49:10.000Z</time>
                <name>Trackpoint 6225</name>
            </trkpt>
            <trkpt lat="49.8966496" lon="9.1475112">
                <ele>115.0</ele>
                <time>2020-08-29T14:49:12.000Z</time>
                <name>Trackpoint 6226</name>
            </trkpt>
            <trkpt lat="49.8967136" lon="9.1474416">
                <ele>115.0</ele>
                <time>2020-08-29T14:49:14.000Z</time>
                <name>Trackpoint 6227</name>
            </trkpt>
            <trkpt lat="49.8967936" lon="9.1473504">
                <ele>115.0</ele>
                <time>2020-08-29T14:49:16.000Z</time>
                <name>Trackpoint 6228</name>
            </trkpt>
            <trkpt lat="49.8968704" lon="9.1472784">
                <ele>115.0</ele>
                <time>2020-08-29T14:49:18.000Z</time>
                <name>Trackpoint 6229</name>
            </trkpt>
            <trkpt lat="49.8969696" lon="9.1471568">
                <ele>115.0</ele>
                <time>2020-08-29T14:49:20.000Z</time>
                <name>Trackpoint 6230</name>
            </trkpt>
            <trkpt lat="49.896992" lon="9.1470216">
                <ele>115.0</ele>
                <time>2020-08-29T14:49:22.000Z</time>
                <name>Trackpoint 6231</name>
            </trkpt>
            <trkpt lat="49.8969504" lon="9.1468936">
                <ele>115.0</ele>
                <time>2020-08-29T14:49:24.000Z</time>
                <name>Trackpoint 6232</name>
            </trkpt>
            <trkpt lat="49.8969024" lon="9.1467832">
                <ele>115.0</ele>
                <time>2020-08-29T14:49:26.000Z</time>
                <name>Trackpoint 6233</name>
            </trkpt>
            <trkpt lat="49.8968576" lon="9.1466752">
                <ele>115.0</ele>
                <time>2020-08-29T14:49:28.000Z</time>
                <name>Trackpoint 6234</name>
            </trkpt>
            <trkpt lat="49.896816" lon="9.1465656">
                <ele>115.0</ele>
                <time>2020-08-29T14:49:30.000Z</time>
                <name>Trackpoint 6235</name>
            </trkpt>
            <trkpt lat="49.896768" lon="9.146448">
                <ele>115.0</ele>
                <time>2020-08-29T14:49:32.000Z</time>
                <name>Trackpoint 6236</name>
            </trkpt>
            <trkpt lat="49.8967232" lon="9.1463368">
                <ele>115.0</ele>
                <time>2020-08-29T14:49:34.000Z</time>
                <name>Trackpoint 6237</name>
            </trkpt>
            <trkpt lat="49.8966784" lon="9.146216">
                <ele>115.0</ele>
                <time>2020-08-29T14:49:36.000Z</time>
                <name>Trackpoint 6238</name>
            </trkpt>
            <trkpt lat="49.8966336" lon="9.146096">
                <ele>115.0</ele>
                <time>2020-08-29T14:49:38.000Z</time>
                <name>Trackpoint 6239</name>
            </trkpt>
            <trkpt lat="49.8965824" lon="9.1459776">
                <ele>115.0</ele>
                <time>2020-08-29T14:49:40.000Z</time>
                <name>Trackpoint 6240</name>
            </trkpt>
            <trkpt lat="49.8965376" lon="9.1458528">
                <ele>115.0</ele>
                <time>2020-08-29T14:49:42.000Z</time>
                <name>Trackpoint 6241</name>
            </trkpt>
            <trkpt lat="49.8964896" lon="9.1457264">
                <ele>115.0</ele>
                <time>2020-08-29T14:49:44.000Z</time>
                <name>Trackpoint 6242</name>
            </trkpt>
            <trkpt lat="49.896432" lon="9.1456072">
                <ele>115.0</ele>
                <time>2020-08-29T14:49:46.000Z</time>
                <name>Trackpoint 6243</name>
            </trkpt>
            <trkpt lat="49.896384" lon="9.1454832">
                <ele>115.0</ele>
                <time>2020-08-29T14:49:48.000Z</time>
                <name>Trackpoint 6244</name>
            </trkpt>
            <trkpt lat="49.896336" lon="9.145364">
                <ele>115.0</ele>
                <time>2020-08-29T14:49:50.000Z</time>
                <name>Trackpoint 6245</name>
            </trkpt>
            <trkpt lat="49.8962912" lon="9.1452448">
                <ele>114.0</ele>
                <time>2020-08-29T14:49:52.000Z</time>
                <name>Trackpoint 6246</name>
            </trkpt>
            <trkpt lat="49.89624" lon="9.1451304">
                <ele>114.0</ele>
                <time>2020-08-29T14:49:54.000Z</time>
                <name>Trackpoint 6247</name>
            </trkpt>
            <trkpt lat="49.8961984" lon="9.1450184">
                <ele>114.0</ele>
                <time>2020-08-29T14:49:56.000Z</time>
                <name>Trackpoint 6248</name>
            </trkpt>
            <trkpt lat="49.8961472" lon="9.1449032">
                <ele>113.0</ele>
                <time>2020-08-29T14:49:58.000Z</time>
                <name>Trackpoint 6249</name>
            </trkpt>
            <trkpt lat="49.8961024" lon="9.1447952">
                <ele>113.0</ele>
                <time>2020-08-29T14:50:00.000Z</time>
                <name>Trackpoint 6250</name>
            </trkpt>
            <trkpt lat="49.8960544" lon="9.1446936">
                <ele>111.0</ele>
                <time>2020-08-29T14:50:02.000Z</time>
                <name>Trackpoint 6251</name>
            </trkpt>
            <trkpt lat="49.896016" lon="9.1445936">
                <ele>111.0</ele>
                <time>2020-08-29T14:50:04.000Z</time>
                <name>Trackpoint 6252</name>
            </trkpt>
            <trkpt lat="49.8960128" lon="9.1444832">
                <ele>114.0</ele>
                <time>2020-08-29T14:50:06.000Z</time>
                <name>Trackpoint 6253</name>
            </trkpt>
            <trkpt lat="49.896112" lon="9.144432">
                <ele>114.0</ele>
                <time>2020-08-29T14:50:09.000Z</time>
                <name>Trackpoint 6254</name>
            </trkpt>
            <trkpt lat="49.8962016" lon="9.1444184">
                <ele>115.0</ele>
                <time>2020-08-29T14:50:11.000Z</time>
                <name>Trackpoint 6255</name>
            </trkpt>
            <trkpt lat="49.8962976" lon="9.1444032">
                <ele>116.0</ele>
                <time>2020-08-29T14:50:13.000Z</time>
                <name>Trackpoint 6256</name>
            </trkpt>
            <trkpt lat="49.8963904" lon="9.1443968">
                <ele>116.0</ele>
                <time>2020-08-29T14:50:15.000Z</time>
                <name>Trackpoint 6257</name>
            </trkpt>
            <trkpt lat="49.8964832" lon="9.1443816">
                <ele>116.0</ele>
                <time>2020-08-29T14:50:17.000Z</time>
                <name>Trackpoint 6258</name>
            </trkpt>
            <trkpt lat="49.896576" lon="9.1443664">
                <ele>117.0</ele>
                <time>2020-08-29T14:50:19.000Z</time>
                <name>Trackpoint 6259</name>
            </trkpt>
            <trkpt lat="49.8967136" lon="9.1443504">
                <ele>117.0</ele>
                <time>2020-08-29T14:50:22.000Z</time>
                <name>Trackpoint 6260</name>
            </trkpt>
            <trkpt lat="49.896848" lon="9.144328">
                <ele>117.0</ele>
                <time>2020-08-29T14:50:25.000Z</time>
                <name>Trackpoint 6261</name>
            </trkpt>
            <trkpt lat="49.8969728" lon="9.1443096">
                <ele>116.0</ele>
                <time>2020-08-29T14:50:28.000Z</time>
                <name>Trackpoint 6262</name>
            </trkpt>
            <trkpt lat="49.8971008" lon="9.1442968">
                <ele>117.0</ele>
                <time>2020-08-29T14:50:31.000Z</time>
                <name>Trackpoint 6263</name>
            </trkpt>
            <trkpt lat="49.8972" lon="9.144272">
                <ele>117.0</ele>
                <time>2020-08-29T14:50:33.000Z</time>
                <name>Trackpoint 6264</name>
            </trkpt>
            <trkpt lat="49.8972896" lon="9.1442568">
                <ele>117.0</ele>
                <time>2020-08-29T14:50:35.000Z</time>
                <name>Trackpoint 6265</name>
            </trkpt>
            <trkpt lat="49.8973824" lon="9.14424">
                <ele>118.0</ele>
                <time>2020-08-29T14:50:37.000Z</time>
                <name>Trackpoint 6266</name>
            </trkpt>
            <trkpt lat="49.8975072" lon="9.144212">
                <ele>117.0</ele>
                <time>2020-08-29T14:50:40.000Z</time>
                <name>Trackpoint 6267</name>
            </trkpt>
            <trkpt lat="49.8975968" lon="9.1441944">
                <ele>118.0</ele>
                <time>2020-08-29T14:50:42.000Z</time>
                <name>Trackpoint 6268</name>
            </trkpt>
            <trkpt lat="49.8977248" lon="9.1441584">
                <ele>118.0</ele>
                <time>2020-08-29T14:50:45.000Z</time>
                <name>Trackpoint 6269</name>
            </trkpt>
            <trkpt lat="49.8978112" lon="9.1441272">
                <ele>118.0</ele>
                <time>2020-08-29T14:50:47.000Z</time>
                <name>Trackpoint 6270</name>
            </trkpt>
            <trkpt lat="49.8979008" lon="9.1440888">
                <ele>117.0</ele>
                <time>2020-08-29T14:50:49.000Z</time>
                <name>Trackpoint 6271</name>
            </trkpt>
            <trkpt lat="49.897984" lon="9.1440488">
                <ele>118.0</ele>
                <time>2020-08-29T14:50:51.000Z</time>
                <name>Trackpoint 6272</name>
            </trkpt>
            <trkpt lat="49.8980672" lon="9.1440096">
                <ele>117.0</ele>
                <time>2020-08-29T14:50:53.000Z</time>
                <name>Trackpoint 6273</name>
            </trkpt>
            <trkpt lat="49.8981888" lon="9.143944">
                <ele>117.0</ele>
                <time>2020-08-29T14:50:56.000Z</time>
                <name>Trackpoint 6274</name>
            </trkpt>
            <trkpt lat="49.8982656" lon="9.1438904">
                <ele>117.0</ele>
                <time>2020-08-29T14:50:58.000Z</time>
                <name>Trackpoint 6275</name>
            </trkpt>
            <trkpt lat="49.8983776" lon="9.1437904">
                <ele>117.0</ele>
                <time>2020-08-29T14:51:01.000Z</time>
                <name>Trackpoint 6276</name>
            </trkpt>
            <trkpt lat="49.8984576" lon="9.1437368">
                <ele>117.0</ele>
                <time>2020-08-29T14:51:03.000Z</time>
                <name>Trackpoint 6277</name>
            </trkpt>
            <trkpt lat="49.8985344" lon="9.1436752">
                <ele>117.0</ele>
                <time>2020-08-29T14:51:05.000Z</time>
                <name>Trackpoint 6278</name>
            </trkpt>
            <trkpt lat="49.898608" lon="9.1436192">
                <ele>117.0</ele>
                <time>2020-08-29T14:51:07.000Z</time>
                <name>Trackpoint 6279</name>
            </trkpt>
            <trkpt lat="49.8986816" lon="9.1435648">
                <ele>117.0</ele>
                <time>2020-08-29T14:51:09.000Z</time>
                <name>Trackpoint 6280</name>
            </trkpt>
            <trkpt lat="49.8987584" lon="9.1435072">
                <ele>117.0</ele>
                <time>2020-08-29T14:51:11.000Z</time>
                <name>Trackpoint 6281</name>
            </trkpt>
            <trkpt lat="49.8988352" lon="9.1434448">
                <ele>117.0</ele>
                <time>2020-08-29T14:51:13.000Z</time>
                <name>Trackpoint 6282</name>
            </trkpt>
            <trkpt lat="49.8989024" lon="9.14338">
                <ele>117.0</ele>
                <time>2020-08-29T14:51:15.000Z</time>
                <name>Trackpoint 6283</name>
            </trkpt>
            <trkpt lat="49.8989952" lon="9.1433248">
                <ele>117.0</ele>
                <time>2020-08-29T14:51:17.000Z</time>
                <name>Trackpoint 6284</name>
            </trkpt>
            <trkpt lat="49.8990656" lon="9.1432648">
                <ele>117.0</ele>
                <time>2020-08-29T14:51:19.000Z</time>
                <name>Trackpoint 6285</name>
            </trkpt>
            <trkpt lat="49.8991456" lon="9.1432112">
                <ele>117.0</ele>
                <time>2020-08-29T14:51:21.000Z</time>
                <name>Trackpoint 6286</name>
            </trkpt>
            <trkpt lat="49.8992352" lon="9.143164">
                <ele>117.0</ele>
                <time>2020-08-29T14:51:23.000Z</time>
                <name>Trackpoint 6287</name>
            </trkpt>
            <trkpt lat="49.899312" lon="9.1431112">
                <ele>117.0</ele>
                <time>2020-08-29T14:51:25.000Z</time>
                <name>Trackpoint 6288</name>
            </trkpt>
            <trkpt lat="49.8994144" lon="9.1430304">
                <ele>117.0</ele>
                <time>2020-08-29T14:51:28.000Z</time>
                <name>Trackpoint 6289</name>
            </trkpt>
            <trkpt lat="49.8995136" lon="9.1429592">
                <ele>117.0</ele>
                <time>2020-08-29T14:51:31.000Z</time>
                <name>Trackpoint 6290</name>
            </trkpt>
            <trkpt lat="49.899616" lon="9.1428872">
                <ele>117.0</ele>
                <time>2020-08-29T14:51:34.000Z</time>
                <name>Trackpoint 6291</name>
            </trkpt>
            <trkpt lat="49.8996928" lon="9.1428368">
                <ele>118.0</ele>
                <time>2020-08-29T14:51:36.000Z</time>
                <name>Trackpoint 6292</name>
            </trkpt>
            <trkpt lat="49.8997696" lon="9.1427848">
                <ele>117.0</ele>
                <time>2020-08-29T14:51:38.000Z</time>
                <name>Trackpoint 6293</name>
            </trkpt>
            <trkpt lat="49.8998688" lon="9.1427072">
                <ele>118.0</ele>
                <time>2020-08-29T14:51:41.000Z</time>
                <name>Trackpoint 6294</name>
            </trkpt>
            <trkpt lat="49.8999648" lon="9.1426264">
                <ele>118.0</ele>
                <time>2020-08-29T14:51:44.000Z</time>
                <name>Trackpoint 6295</name>
            </trkpt>
            <trkpt lat="49.9000512" lon="9.1425696">
                <ele>118.0</ele>
                <time>2020-08-29T14:51:47.000Z</time>
                <name>Trackpoint 6296</name>
            </trkpt>
            <trkpt lat="49.9001696" lon="9.1425448">
                <ele>119.0</ele>
                <time>2020-08-29T14:51:51.000Z</time>
                <name>Trackpoint 6297</name>
            </trkpt>
            <trkpt lat="49.900304" lon="9.142524">
                <ele>119.0</ele>
                <time>2020-08-29T14:51:54.000Z</time>
                <name>Trackpoint 6298</name>
            </trkpt>
            <trkpt lat="49.9004096" lon="9.1425112">
                <ele>119.0</ele>
                <time>2020-08-29T14:51:56.000Z</time>
                <name>Trackpoint 6299</name>
            </trkpt>
            <trkpt lat="49.9005152" lon="9.1425088">
                <ele>118.0</ele>
                <time>2020-08-29T14:51:58.000Z</time>
                <name>Trackpoint 6300</name>
            </trkpt>
            <trkpt lat="49.9006144" lon="9.1424936">
                <ele>118.0</ele>
                <time>2020-08-29T14:52:00.000Z</time>
                <name>Trackpoint 6301</name>
            </trkpt>
            <trkpt lat="49.9007104" lon="9.142484">
                <ele>118.0</ele>
                <time>2020-08-29T14:52:02.000Z</time>
                <name>Trackpoint 6302</name>
            </trkpt>
            <trkpt lat="49.900832" lon="9.1424848">
                <ele>118.0</ele>
                <time>2020-08-29T14:52:05.000Z</time>
                <name>Trackpoint 6303</name>
            </trkpt>
            <trkpt lat="49.9009312" lon="9.142464">
                <ele>118.0</ele>
                <time>2020-08-29T14:52:07.000Z</time>
                <name>Trackpoint 6304</name>
            </trkpt>
            <trkpt lat="49.9010368" lon="9.1424312">
                <ele>118.0</ele>
                <time>2020-08-29T14:52:09.000Z</time>
                <name>Trackpoint 6305</name>
            </trkpt>
            <trkpt lat="49.9011264" lon="9.1424016">
                <ele>119.0</ele>
                <time>2020-08-29T14:52:11.000Z</time>
                <name>Trackpoint 6306</name>
            </trkpt>
            <trkpt lat="49.9012256" lon="9.142368">
                <ele>118.0</ele>
                <time>2020-08-29T14:52:13.000Z</time>
                <name>Trackpoint 6307</name>
            </trkpt>
            <trkpt lat="49.9013216" lon="9.14234">
                <ele>118.0</ele>
                <time>2020-08-29T14:52:15.000Z</time>
                <name>Trackpoint 6308</name>
            </trkpt>
            <trkpt lat="49.9014016" lon="9.1422928">
                <ele>118.0</ele>
                <time>2020-08-29T14:52:17.000Z</time>
                <name>Trackpoint 6309</name>
            </trkpt>
            <trkpt lat="49.9015008" lon="9.1422616">
                <ele>119.0</ele>
                <time>2020-08-29T14:52:19.000Z</time>
                <name>Trackpoint 6310</name>
            </trkpt>
            <trkpt lat="49.9015872" lon="9.1422256">
                <ele>119.0</ele>
                <time>2020-08-29T14:52:21.000Z</time>
                <name>Trackpoint 6311</name>
            </trkpt>
            <trkpt lat="49.9017024" lon="9.1421784">
                <ele>119.0</ele>
                <time>2020-08-29T14:52:24.000Z</time>
                <name>Trackpoint 6312</name>
            </trkpt>
            <trkpt lat="49.9017984" lon="9.1421296">
                <ele>119.0</ele>
                <time>2020-08-29T14:52:27.000Z</time>
                <name>Trackpoint 6313</name>
            </trkpt>
            <trkpt lat="49.9019136" lon="9.1420936">
                <ele>119.0</ele>
                <time>2020-08-29T14:52:30.000Z</time>
                <name>Trackpoint 6314</name>
            </trkpt>
            <trkpt lat="49.9020224" lon="9.1420616">
                <ele>119.0</ele>
                <time>2020-08-29T14:52:33.000Z</time>
                <name>Trackpoint 6315</name>
            </trkpt>
            <trkpt lat="49.9021216" lon="9.1420248">
                <ele>119.0</ele>
                <time>2020-08-29T14:52:36.000Z</time>
                <name>Trackpoint 6316</name>
            </trkpt>
            <trkpt lat="49.9022112" lon="9.141992">
                <ele>119.0</ele>
                <time>2020-08-29T14:52:39.000Z</time>
                <name>Trackpoint 6317</name>
            </trkpt>
            <trkpt lat="49.9022784" lon="9.1419088">
                <ele>119.0</ele>
                <time>2020-08-29T14:52:44.000Z</time>
                <name>Trackpoint 6318</name>
            </trkpt>
            <trkpt lat="49.90224" lon="9.14182">
                <ele>119.0</ele>
                <time>2020-08-29T14:52:48.000Z</time>
                <name>Trackpoint 6319</name>
            </trkpt>
            <trkpt lat="49.9022912" lon="9.1418984">
                <ele>120.0</ele>
                <time>2020-08-29T14:53:45.000Z</time>
                <name>Trackpoint 6320</name>
            </trkpt>
            <trkpt lat="49.9023808" lon="9.1419152">
                <ele>120.0</ele>
                <time>2020-08-29T14:54:16.000Z</time>
                <name>Trackpoint 6321</name>
            </trkpt>
            <trkpt lat="49.9024928" lon="9.1419016">
                <ele>120.0</ele>
                <time>2020-08-29T14:54:19.000Z</time>
                <name>Trackpoint 6322</name>
            </trkpt>
            <trkpt lat="49.9026144" lon="9.1418552">
                <ele>120.0</ele>
                <time>2020-08-29T14:54:22.000Z</time>
                <name>Trackpoint 6323</name>
            </trkpt>
            <trkpt lat="49.9027072" lon="9.1418312">
                <ele>120.0</ele>
                <time>2020-08-29T14:54:26.000Z</time>
                <name>Trackpoint 6324</name>
            </trkpt>
            <trkpt lat="49.902816" lon="9.1417768">
                <ele>120.0</ele>
                <time>2020-08-29T14:55:05.000Z</time>
                <name>Trackpoint 6325</name>
            </trkpt>
            <trkpt lat="49.9029184" lon="9.1417376">
                <ele>120.0</ele>
                <time>2020-08-29T14:55:08.000Z</time>
                <name>Trackpoint 6326</name>
            </trkpt>
            <trkpt lat="49.9030432" lon="9.1416912">
                <ele>120.0</ele>
                <time>2020-08-29T14:55:11.000Z</time>
                <name>Trackpoint 6327</name>
            </trkpt>
            <trkpt lat="49.9031616" lon="9.1416456">
                <ele>120.0</ele>
                <time>2020-08-29T14:55:14.000Z</time>
                <name>Trackpoint 6328</name>
            </trkpt>
            <trkpt lat="49.9032544" lon="9.141608">
                <ele>120.0</ele>
                <time>2020-08-29T14:55:16.000Z</time>
                <name>Trackpoint 6329</name>
            </trkpt>
            <trkpt lat="49.90336" lon="9.1415728">
                <ele>120.0</ele>
                <time>2020-08-29T14:55:18.000Z</time>
                <name>Trackpoint 6330</name>
            </trkpt>
            <trkpt lat="49.9034496" lon="9.1415304">
                <ele>120.0</ele>
                <time>2020-08-29T14:55:20.000Z</time>
                <name>Trackpoint 6331</name>
            </trkpt>
            <trkpt lat="49.9035488" lon="9.1414816">
                <ele>120.0</ele>
                <time>2020-08-29T14:55:22.000Z</time>
                <name>Trackpoint 6332</name>
            </trkpt>
            <trkpt lat="49.903648" lon="9.141448">
                <ele>120.0</ele>
                <time>2020-08-29T14:55:24.000Z</time>
                <name>Trackpoint 6333</name>
            </trkpt>
            <trkpt lat="49.9037408" lon="9.1414096">
                <ele>120.0</ele>
                <time>2020-08-29T14:55:26.000Z</time>
                <name>Trackpoint 6334</name>
            </trkpt>
            <trkpt lat="49.9038272" lon="9.1413768">
                <ele>120.0</ele>
                <time>2020-08-29T14:55:28.000Z</time>
                <name>Trackpoint 6335</name>
            </trkpt>
            <trkpt lat="49.903936" lon="9.1413336">
                <ele>120.0</ele>
                <time>2020-08-29T14:55:30.000Z</time>
                <name>Trackpoint 6336</name>
            </trkpt>
            <trkpt lat="49.9040288" lon="9.1412984">
                <ele>120.0</ele>
                <time>2020-08-29T14:55:32.000Z</time>
                <name>Trackpoint 6337</name>
            </trkpt>
            <trkpt lat="49.9041248" lon="9.1412536">
                <ele>120.0</ele>
                <time>2020-08-29T14:55:34.000Z</time>
                <name>Trackpoint 6338</name>
            </trkpt>
            <trkpt lat="49.904224" lon="9.1412088">
                <ele>120.0</ele>
                <time>2020-08-29T14:55:36.000Z</time>
                <name>Trackpoint 6339</name>
            </trkpt>
            <trkpt lat="49.90432" lon="9.1411664">
                <ele>120.0</ele>
                <time>2020-08-29T14:55:38.000Z</time>
                <name>Trackpoint 6340</name>
            </trkpt>
            <trkpt lat="49.904416" lon="9.1411352">
                <ele>120.0</ele>
                <time>2020-08-29T14:55:40.000Z</time>
                <name>Trackpoint 6341</name>
            </trkpt>
            <trkpt lat="49.9045184" lon="9.1410912">
                <ele>120.0</ele>
                <time>2020-08-29T14:55:42.000Z</time>
                <name>Trackpoint 6342</name>
            </trkpt>
            <trkpt lat="49.9046144" lon="9.14106">
                <ele>120.0</ele>
                <time>2020-08-29T14:55:44.000Z</time>
                <name>Trackpoint 6343</name>
            </trkpt>
            <trkpt lat="49.904704" lon="9.1410352">
                <ele>120.0</ele>
                <time>2020-08-29T14:55:46.000Z</time>
                <name>Trackpoint 6344</name>
            </trkpt>
            <trkpt lat="49.9048" lon="9.1409928">
                <ele>120.0</ele>
                <time>2020-08-29T14:55:48.000Z</time>
                <name>Trackpoint 6345</name>
            </trkpt>
            <trkpt lat="49.9048896" lon="9.140972">
                <ele>120.0</ele>
                <time>2020-08-29T14:55:50.000Z</time>
                <name>Trackpoint 6346</name>
            </trkpt>
            <trkpt lat="49.9049792" lon="9.140948">
                <ele>120.0</ele>
                <time>2020-08-29T14:55:52.000Z</time>
                <name>Trackpoint 6347</name>
            </trkpt>
            <trkpt lat="49.905072" lon="9.1409304">
                <ele>120.0</ele>
                <time>2020-08-29T14:55:54.000Z</time>
                <name>Trackpoint 6348</name>
            </trkpt>
            <trkpt lat="49.9051936" lon="9.1408952">
                <ele>120.0</ele>
                <time>2020-08-29T14:55:57.000Z</time>
                <name>Trackpoint 6349</name>
            </trkpt>
            <trkpt lat="49.9052992" lon="9.1408504">
                <ele>120.0</ele>
                <time>2020-08-29T14:55:59.000Z</time>
                <name>Trackpoint 6350</name>
            </trkpt>
            <trkpt lat="49.9054016" lon="9.1408144">
                <ele>120.0</ele>
                <time>2020-08-29T14:56:01.000Z</time>
                <name>Trackpoint 6351</name>
            </trkpt>
            <trkpt lat="49.9055104" lon="9.1407768">
                <ele>119.0</ele>
                <time>2020-08-29T14:56:03.000Z</time>
                <name>Trackpoint 6352</name>
            </trkpt>
            <trkpt lat="49.9056096" lon="9.1407384">
                <ele>119.0</ele>
                <time>2020-08-29T14:56:05.000Z</time>
                <name>Trackpoint 6353</name>
            </trkpt>
            <trkpt lat="49.9057152" lon="9.1406936">
                <ele>119.0</ele>
                <time>2020-08-29T14:56:07.000Z</time>
                <name>Trackpoint 6354</name>
            </trkpt>
            <trkpt lat="49.9058144" lon="9.1406496">
                <ele>119.0</ele>
                <time>2020-08-29T14:56:09.000Z</time>
                <name>Trackpoint 6355</name>
            </trkpt>
            <trkpt lat="49.9059168" lon="9.1406">
                <ele>119.0</ele>
                <time>2020-08-29T14:56:11.000Z</time>
                <name>Trackpoint 6356</name>
            </trkpt>
            <trkpt lat="49.9060128" lon="9.1405584">
                <ele>119.0</ele>
                <time>2020-08-29T14:56:13.000Z</time>
                <name>Trackpoint 6357</name>
            </trkpt>
            <trkpt lat="49.906096" lon="9.1405136">
                <ele>119.0</ele>
                <time>2020-08-29T14:56:15.000Z</time>
                <name>Trackpoint 6358</name>
            </trkpt>
            <trkpt lat="49.9061888" lon="9.1404736">
                <ele>119.0</ele>
                <time>2020-08-29T14:56:17.000Z</time>
                <name>Trackpoint 6359</name>
            </trkpt>
            <trkpt lat="49.9062752" lon="9.1404384">
                <ele>119.0</ele>
                <time>2020-08-29T14:56:19.000Z</time>
                <name>Trackpoint 6360</name>
            </trkpt>
            <trkpt lat="49.9063904" lon="9.1403952">
                <ele>119.0</ele>
                <time>2020-08-29T14:56:22.000Z</time>
                <name>Trackpoint 6361</name>
            </trkpt>
            <trkpt lat="49.9064864" lon="9.140364">
                <ele>119.0</ele>
                <time>2020-08-29T14:56:45.000Z</time>
                <name>Trackpoint 6362</name>
            </trkpt>
            <trkpt lat="49.9065504" lon="9.1402904">
                <ele>119.0</ele>
                <time>2020-08-29T14:57:10.000Z</time>
                <name>Trackpoint 6363</name>
            </trkpt>
            <trkpt lat="49.9066528" lon="9.1402928">
                <ele>119.0</ele>
                <time>2020-08-29T14:57:16.000Z</time>
                <name>Trackpoint 6364</name>
            </trkpt>
            <trkpt lat="49.9067584" lon="9.1402432">
                <ele>119.0</ele>
                <time>2020-08-29T14:57:19.000Z</time>
                <name>Trackpoint 6365</name>
            </trkpt>
            <trkpt lat="49.906848" lon="9.1401928">
                <ele>119.0</ele>
                <time>2020-08-29T14:57:22.000Z</time>
                <name>Trackpoint 6366</name>
            </trkpt>
            <trkpt lat="49.9069376" lon="9.1401528">
                <ele>119.0</ele>
                <time>2020-08-29T14:57:24.000Z</time>
                <name>Trackpoint 6367</name>
            </trkpt>
            <trkpt lat="49.9070208" lon="9.140112">
                <ele>119.0</ele>
                <time>2020-08-29T14:57:26.000Z</time>
                <name>Trackpoint 6368</name>
            </trkpt>
            <trkpt lat="49.9071168" lon="9.1400648">
                <ele>119.0</ele>
                <time>2020-08-29T14:57:28.000Z</time>
                <name>Trackpoint 6369</name>
            </trkpt>
            <trkpt lat="49.9072032" lon="9.1400184">
                <ele>119.0</ele>
                <time>2020-08-29T14:57:30.000Z</time>
                <name>Trackpoint 6370</name>
            </trkpt>
            <trkpt lat="49.9072864" lon="9.1399672">
                <ele>119.0</ele>
                <time>2020-08-29T14:57:32.000Z</time>
                <name>Trackpoint 6371</name>
            </trkpt>
            <trkpt lat="49.9073824" lon="9.1399072">
                <ele>119.0</ele>
                <time>2020-08-29T14:57:34.000Z</time>
                <name>Trackpoint 6372</name>
            </trkpt>
            <trkpt lat="49.9074816" lon="9.1398632">
                <ele>119.0</ele>
                <time>2020-08-29T14:57:36.000Z</time>
                <name>Trackpoint 6373</name>
            </trkpt>
            <trkpt lat="49.9075936" lon="9.1398096">
                <ele>119.0</ele>
                <time>2020-08-29T14:57:38.000Z</time>
                <name>Trackpoint 6374</name>
            </trkpt>
            <trkpt lat="49.9076768" lon="9.1397536">
                <ele>119.0</ele>
                <time>2020-08-29T14:57:40.000Z</time>
                <name>Trackpoint 6375</name>
            </trkpt>
            <trkpt lat="49.9077696" lon="9.1396968">
                <ele>119.0</ele>
                <time>2020-08-29T14:57:42.000Z</time>
                <name>Trackpoint 6376</name>
            </trkpt>
            <trkpt lat="49.907856" lon="9.1396448">
                <ele>119.0</ele>
                <time>2020-08-29T14:57:44.000Z</time>
                <name>Trackpoint 6377</name>
            </trkpt>
            <trkpt lat="49.907952" lon="9.1395912">
                <ele>119.0</ele>
                <time>2020-08-29T14:57:46.000Z</time>
                <name>Trackpoint 6378</name>
            </trkpt>
            <trkpt lat="49.908048" lon="9.1395504">
                <ele>119.0</ele>
                <time>2020-08-29T14:57:48.000Z</time>
                <name>Trackpoint 6379</name>
            </trkpt>
            <trkpt lat="49.9081376" lon="9.139488">
                <ele>119.0</ele>
                <time>2020-08-29T14:57:50.000Z</time>
                <name>Trackpoint 6380</name>
            </trkpt>
            <trkpt lat="49.9082272" lon="9.1394368">
                <ele>119.0</ele>
                <time>2020-08-29T14:57:52.000Z</time>
                <name>Trackpoint 6381</name>
            </trkpt>
            <trkpt lat="49.9083104" lon="9.1393816">
                <ele>119.0</ele>
                <time>2020-08-29T14:57:54.000Z</time>
                <name>Trackpoint 6382</name>
            </trkpt>
            <trkpt lat="49.9083968" lon="9.1393384">
                <ele>119.0</ele>
                <time>2020-08-29T14:57:56.000Z</time>
                <name>Trackpoint 6383</name>
            </trkpt>
            <trkpt lat="49.90848" lon="9.1392784">
                <ele>119.0</ele>
                <time>2020-08-29T14:57:58.000Z</time>
                <name>Trackpoint 6384</name>
            </trkpt>
            <trkpt lat="49.908576" lon="9.1392032">
                <ele>119.0</ele>
                <time>2020-08-29T14:58:01.000Z</time>
                <name>Trackpoint 6385</name>
            </trkpt>
            <trkpt lat="49.9086688" lon="9.13916">
                <ele>119.0</ele>
                <time>2020-08-29T14:58:04.000Z</time>
                <name>Trackpoint 6386</name>
            </trkpt>
            <trkpt lat="49.908752" lon="9.1391136">
                <ele>119.0</ele>
                <time>2020-08-29T14:58:41.000Z</time>
                <name>Trackpoint 6387</name>
            </trkpt>
            <trkpt lat="49.9088512" lon="9.1390616">
                <ele>119.0</ele>
                <time>2020-08-29T14:59:09.000Z</time>
                <name>Trackpoint 6388</name>
            </trkpt>
            <trkpt lat="49.9089472" lon="9.139">
                <ele>119.0</ele>
                <time>2020-08-29T14:59:12.000Z</time>
                <name>Trackpoint 6389</name>
            </trkpt>
            <trkpt lat="49.9090496" lon="9.1389216">
                <ele>119.0</ele>
                <time>2020-08-29T14:59:15.000Z</time>
                <name>Trackpoint 6390</name>
            </trkpt>
            <trkpt lat="49.9091456" lon="9.1388752">
                <ele>119.0</ele>
                <time>2020-08-29T14:59:17.000Z</time>
                <name>Trackpoint 6391</name>
            </trkpt>
            <trkpt lat="49.9092672" lon="9.138808">
                <ele>119.0</ele>
                <time>2020-08-29T14:59:19.000Z</time>
                <name>Trackpoint 6392</name>
            </trkpt>
            <trkpt lat="49.9093472" lon="9.1387232">
                <ele>119.0</ele>
                <time>2020-08-29T14:59:21.000Z</time>
                <name>Trackpoint 6393</name>
            </trkpt>
            <trkpt lat="49.9094304" lon="9.1386416">
                <ele>119.0</ele>
                <time>2020-08-29T14:59:23.000Z</time>
                <name>Trackpoint 6394</name>
            </trkpt>
            <trkpt lat="49.9095232" lon="9.13856">
                <ele>119.0</ele>
                <time>2020-08-29T14:59:25.000Z</time>
                <name>Trackpoint 6395</name>
            </trkpt>
            <trkpt lat="49.9096096" lon="9.1384848">
                <ele>119.0</ele>
                <time>2020-08-29T14:59:27.000Z</time>
                <name>Trackpoint 6396</name>
            </trkpt>
            <trkpt lat="49.9097088" lon="9.1383952">
                <ele>119.0</ele>
                <time>2020-08-29T14:59:29.000Z</time>
                <name>Trackpoint 6397</name>
            </trkpt>
            <trkpt lat="49.9098016" lon="9.1383216">
                <ele>119.0</ele>
                <time>2020-08-29T14:59:31.000Z</time>
                <name>Trackpoint 6398</name>
            </trkpt>
            <trkpt lat="49.9098976" lon="9.1382416">
                <ele>119.0</ele>
                <time>2020-08-29T14:59:33.000Z</time>
                <name>Trackpoint 6399</name>
            </trkpt>
            <trkpt lat="49.9100032" lon="9.1381728">
                <ele>119.0</ele>
                <time>2020-08-29T14:59:35.000Z</time>
                <name>Trackpoint 6400</name>
            </trkpt>
            <trkpt lat="49.9101056" lon="9.1380904">
                <ele>119.0</ele>
                <time>2020-08-29T14:59:37.000Z</time>
                <name>Trackpoint 6401</name>
            </trkpt>
            <trkpt lat="49.9102176" lon="9.1380128">
                <ele>119.0</ele>
                <time>2020-08-29T14:59:39.000Z</time>
                <name>Trackpoint 6402</name>
            </trkpt>
            <trkpt lat="49.91032" lon="9.1379368">
                <ele>120.0</ele>
                <time>2020-08-29T14:59:41.000Z</time>
                <name>Trackpoint 6403</name>
            </trkpt>
            <trkpt lat="49.9104224" lon="9.13786">
                <ele>120.0</ele>
                <time>2020-08-29T14:59:43.000Z</time>
                <name>Trackpoint 6404</name>
            </trkpt>
            <trkpt lat="49.9105312" lon="9.1377872">
                <ele>120.0</ele>
                <time>2020-08-29T14:59:45.000Z</time>
                <name>Trackpoint 6405</name>
            </trkpt>
            <trkpt lat="49.9106368" lon="9.1377112">
                <ele>120.0</ele>
                <time>2020-08-29T14:59:47.000Z</time>
                <name>Trackpoint 6406</name>
            </trkpt>
            <trkpt lat="49.910736" lon="9.1376448">
                <ele>120.0</ele>
                <time>2020-08-29T14:59:49.000Z</time>
                <name>Trackpoint 6407</name>
            </trkpt>
            <trkpt lat="49.9108384" lon="9.1375752">
                <ele>120.0</ele>
                <time>2020-08-29T14:59:51.000Z</time>
                <name>Trackpoint 6408</name>
            </trkpt>
            <trkpt lat="49.9109344" lon="9.1375168">
                <ele>120.0</ele>
                <time>2020-08-29T14:59:53.000Z</time>
                <name>Trackpoint 6409</name>
            </trkpt>
            <trkpt lat="49.9110144" lon="9.1374648">
                <ele>120.0</ele>
                <time>2020-08-29T14:59:55.000Z</time>
                <name>Trackpoint 6410</name>
            </trkpt>
            <trkpt lat="49.9111008" lon="9.1374032">
                <ele>120.0</ele>
                <time>2020-08-29T14:59:57.000Z</time>
                <name>Trackpoint 6411</name>
            </trkpt>
            <trkpt lat="49.9111744" lon="9.1372984">
                <ele>120.0</ele>
                <time>2020-08-29T14:59:59.000Z</time>
                <name>Trackpoint 6412</name>
            </trkpt>
            <trkpt lat="49.9112192" lon="9.1372016">
                <ele>120.0</ele>
                <time>2020-08-29T15:00:01.000Z</time>
                <name>Trackpoint 6413</name>
            </trkpt>
            <trkpt lat="49.9113088" lon="9.1371632">
                <ele>120.0</ele>
                <time>2020-08-29T15:00:03.000Z</time>
                <name>Trackpoint 6414</name>
            </trkpt>
            <trkpt lat="49.9114176" lon="9.1372168">
                <ele>120.0</ele>
                <time>2020-08-29T15:00:06.000Z</time>
                <name>Trackpoint 6415</name>
            </trkpt>
            <trkpt lat="49.9114528" lon="9.1373056">
                <ele>120.0</ele>
                <time>2020-08-29T15:00:08.000Z</time>
                <name>Trackpoint 6416</name>
            </trkpt>
            <trkpt lat="49.9115168" lon="9.1374016">
                <ele>120.0</ele>
                <time>2020-08-29T15:00:10.000Z</time>
                <name>Trackpoint 6417</name>
            </trkpt>
            <trkpt lat="49.9116032" lon="9.1375">
                <ele>120.0</ele>
                <time>2020-08-29T15:00:12.000Z</time>
                <name>Trackpoint 6418</name>
            </trkpt>
            <trkpt lat="49.9116832" lon="9.1375848">
                <ele>120.0</ele>
                <time>2020-08-29T15:00:14.000Z</time>
                <name>Trackpoint 6419</name>
            </trkpt>
            <trkpt lat="49.9117696" lon="9.1376832">
                <ele>120.0</ele>
                <time>2020-08-29T15:00:16.000Z</time>
                <name>Trackpoint 6420</name>
            </trkpt>
            <trkpt lat="49.9118656" lon="9.1378">
                <ele>120.0</ele>
                <time>2020-08-29T15:00:18.000Z</time>
                <name>Trackpoint 6421</name>
            </trkpt>
            <trkpt lat="49.9119744" lon="9.1379216">
                <ele>120.0</ele>
                <time>2020-08-29T15:00:20.000Z</time>
                <name>Trackpoint 6422</name>
            </trkpt>
            <trkpt lat="49.9120672" lon="9.1380616">
                <ele>120.0</ele>
                <time>2020-08-29T15:00:22.000Z</time>
                <name>Trackpoint 6423</name>
            </trkpt>
            <trkpt lat="49.912112" lon="9.1381456">
                <ele>120.0</ele>
                <time>2020-08-29T15:00:23.000Z</time>
                <name>Trackpoint 6424</name>
            </trkpt>
            <trkpt lat="49.9121408" lon="9.1382328">
                <ele>120.0</ele>
                <time>2020-08-29T15:00:24.000Z</time>
                <name>Trackpoint 6425</name>
            </trkpt>
            <trkpt lat="49.912208" lon="9.1383912">
                <ele>120.0</ele>
                <time>2020-08-29T15:00:26.000Z</time>
                <name>Trackpoint 6426</name>
            </trkpt>
            <trkpt lat="49.912272" lon="9.1385448">
                <ele>120.0</ele>
                <time>2020-08-29T15:00:28.000Z</time>
                <name>Trackpoint 6427</name>
            </trkpt>
            <trkpt lat="49.9123488" lon="9.1386984">
                <ele>120.0</ele>
                <time>2020-08-29T15:00:30.000Z</time>
                <name>Trackpoint 6428</name>
            </trkpt>
            <trkpt lat="49.9124192" lon="9.1388552">
                <ele>120.0</ele>
                <time>2020-08-29T15:00:32.000Z</time>
                <name>Trackpoint 6429</name>
            </trkpt>
            <trkpt lat="49.912496" lon="9.1390104">
                <ele>120.0</ele>
                <time>2020-08-29T15:00:34.000Z</time>
                <name>Trackpoint 6430</name>
            </trkpt>
            <trkpt lat="49.9125696" lon="9.13916">
                <ele>120.0</ele>
                <time>2020-08-29T15:00:36.000Z</time>
                <name>Trackpoint 6431</name>
            </trkpt>
            <trkpt lat="49.9126016" lon="9.1392472">
                <ele>120.0</ele>
                <time>2020-08-29T15:00:37.000Z</time>
                <name>Trackpoint 6432</name>
            </trkpt>
            <trkpt lat="49.9126688" lon="9.1394104">
                <ele>120.0</ele>
                <time>2020-08-29T15:00:39.000Z</time>
                <name>Trackpoint 6433</name>
            </trkpt>
            <trkpt lat="49.9127456" lon="9.139568">
                <ele>120.0</ele>
                <time>2020-08-29T15:00:41.000Z</time>
                <name>Trackpoint 6434</name>
            </trkpt>
            <trkpt lat="49.9128192" lon="9.1397184">
                <ele>120.0</ele>
                <time>2020-08-29T15:00:43.000Z</time>
                <name>Trackpoint 6435</name>
            </trkpt>
            <trkpt lat="49.9128992" lon="9.1398624">
                <ele>120.0</ele>
                <time>2020-08-29T15:00:45.000Z</time>
                <name>Trackpoint 6436</name>
            </trkpt>
            <trkpt lat="49.9129984" lon="9.1399696">
                <ele>120.0</ele>
                <time>2020-08-29T15:00:47.000Z</time>
                <name>Trackpoint 6437</name>
            </trkpt>
            <trkpt lat="49.9130752" lon="9.1400784">
                <ele>120.0</ele>
                <time>2020-08-29T15:00:49.000Z</time>
                <name>Trackpoint 6438</name>
            </trkpt>
            <trkpt lat="49.913152" lon="9.1401752">
                <ele>120.0</ele>
                <time>2020-08-29T15:00:51.000Z</time>
                <name>Trackpoint 6439</name>
            </trkpt>
            <trkpt lat="49.9132256" lon="9.1402664">
                <ele>120.0</ele>
                <time>2020-08-29T15:00:53.000Z</time>
                <name>Trackpoint 6440</name>
            </trkpt>
            <trkpt lat="49.9132896" lon="9.1403648">
                <ele>120.0</ele>
                <time>2020-08-29T15:00:55.000Z</time>
                <name>Trackpoint 6441</name>
            </trkpt>
            <trkpt lat="49.9133568" lon="9.14046">
                <ele>120.0</ele>
                <time>2020-08-29T15:00:57.000Z</time>
                <name>Trackpoint 6442</name>
            </trkpt>
            <trkpt lat="49.9134336" lon="9.14056">
                <ele>120.0</ele>
                <time>2020-08-29T15:00:59.000Z</time>
                <name>Trackpoint 6443</name>
            </trkpt>
            <trkpt lat="49.9135136" lon="9.1406536">
                <ele>120.0</ele>
                <time>2020-08-29T15:01:01.000Z</time>
                <name>Trackpoint 6444</name>
            </trkpt>
            <trkpt lat="49.9135744" lon="9.140732">
                <ele>119.0</ele>
                <time>2020-08-29T15:01:03.000Z</time>
                <name>Trackpoint 6445</name>
            </trkpt>
            <trkpt lat="49.9136576" lon="9.1407944">
                <ele>119.0</ele>
                <time>2020-08-29T15:01:05.000Z</time>
                <name>Trackpoint 6446</name>
            </trkpt>
            <trkpt lat="49.9137408" lon="9.1408416">
                <ele>119.0</ele>
                <time>2020-08-29T15:01:07.000Z</time>
                <name>Trackpoint 6447</name>
            </trkpt>
            <trkpt lat="49.9138144" lon="9.1409056">
                <ele>120.0</ele>
                <time>2020-08-29T15:01:09.000Z</time>
                <name>Trackpoint 6448</name>
            </trkpt>
            <trkpt lat="49.91392" lon="9.1409568">
                <ele>120.0</ele>
                <time>2020-08-29T15:01:11.000Z</time>
                <name>Trackpoint 6449</name>
            </trkpt>
            <trkpt lat="49.9140352" lon="9.1410216">
                <ele>119.0</ele>
                <time>2020-08-29T15:01:13.000Z</time>
                <name>Trackpoint 6450</name>
            </trkpt>
            <trkpt lat="49.9141472" lon="9.1410616">
                <ele>119.0</ele>
                <time>2020-08-29T15:01:15.000Z</time>
                <name>Trackpoint 6451</name>
            </trkpt>
            <trkpt lat="49.9142528" lon="9.1411">
                <ele>120.0</ele>
                <time>2020-08-29T15:01:17.000Z</time>
                <name>Trackpoint 6452</name>
            </trkpt>
            <trkpt lat="49.9143712" lon="9.1411304">
                <ele>120.0</ele>
                <time>2020-08-29T15:01:20.000Z</time>
                <name>Trackpoint 6453</name>
            </trkpt>
            <trkpt lat="49.9144608" lon="9.1411504">
                <ele>120.0</ele>
                <time>2020-08-29T15:01:22.000Z</time>
                <name>Trackpoint 6454</name>
            </trkpt>
            <trkpt lat="49.9145504" lon="9.141176">
                <ele>120.0</ele>
                <time>2020-08-29T15:01:24.000Z</time>
                <name>Trackpoint 6455</name>
            </trkpt>
            <trkpt lat="49.914672" lon="9.141216">
                <ele>120.0</ele>
                <time>2020-08-29T15:01:27.000Z</time>
                <name>Trackpoint 6456</name>
            </trkpt>
            <trkpt lat="49.9148" lon="9.1412688">
                <ele>120.0</ele>
                <time>2020-08-29T15:01:30.000Z</time>
                <name>Trackpoint 6457</name>
            </trkpt>
            <trkpt lat="49.914928" lon="9.1413224">
                <ele>121.0</ele>
                <time>2020-08-29T15:01:32.000Z</time>
                <name>Trackpoint 6458</name>
            </trkpt>
            <trkpt lat="49.9150496" lon="9.141352">
                <ele>121.0</ele>
                <time>2020-08-29T15:01:34.000Z</time>
                <name>Trackpoint 6459</name>
            </trkpt>
            <trkpt lat="49.9151392" lon="9.1413696">
                <ele>121.0</ele>
                <time>2020-08-29T15:01:36.000Z</time>
                <name>Trackpoint 6460</name>
            </trkpt>
            <trkpt lat="49.9152448" lon="9.1413648">
                <ele>121.0</ele>
                <time>2020-08-29T15:01:38.000Z</time>
                <name>Trackpoint 6461</name>
            </trkpt>
            <trkpt lat="49.9153632" lon="9.1413784">
                <ele>121.0</ele>
                <time>2020-08-29T15:01:40.000Z</time>
                <name>Trackpoint 6462</name>
            </trkpt>
            <trkpt lat="49.915456" lon="9.1414272">
                <ele>121.0</ele>
                <time>2020-08-29T15:01:42.000Z</time>
                <name>Trackpoint 6463</name>
            </trkpt>
            <trkpt lat="49.9155968" lon="9.1414616">
                <ele>121.0</ele>
                <time>2020-08-29T15:01:44.000Z</time>
                <name>Trackpoint 6464</name>
            </trkpt>
            <trkpt lat="49.9156992" lon="9.1414672">
                <ele>121.0</ele>
                <time>2020-08-29T15:01:46.000Z</time>
                <name>Trackpoint 6465</name>
            </trkpt>
            <trkpt lat="49.9158048" lon="9.1415032">
                <ele>121.0</ele>
                <time>2020-08-29T15:01:48.000Z</time>
                <name>Trackpoint 6466</name>
            </trkpt>
            <trkpt lat="49.9159232" lon="9.141512">
                <ele>122.0</ele>
                <time>2020-08-29T15:01:50.000Z</time>
                <name>Trackpoint 6467</name>
            </trkpt>
            <trkpt lat="49.9160608" lon="9.141532">
                <ele>122.0</ele>
                <time>2020-08-29T15:01:52.000Z</time>
                <name>Trackpoint 6468</name>
            </trkpt>
            <trkpt lat="49.916176" lon="9.1415192">
                <ele>122.0</ele>
                <time>2020-08-29T15:01:54.000Z</time>
                <name>Trackpoint 6469</name>
            </trkpt>
            <trkpt lat="49.9163008" lon="9.1415416">
                <ele>122.0</ele>
                <time>2020-08-29T15:01:56.000Z</time>
                <name>Trackpoint 6470</name>
            </trkpt>
            <trkpt lat="49.916432" lon="9.1415752">
                <ele>120.0</ele>
                <time>2020-08-29T15:01:57.000Z</time>
                <name>Trackpoint 6471</name>
            </trkpt>
            <trkpt lat="49.9165696" lon="9.1415832">
                <ele>120.0</ele>
                <time>2020-08-29T15:01:59.000Z</time>
                <name>Trackpoint 6472</name>
            </trkpt>
            <trkpt lat="49.916688" lon="9.141592">
                <ele>120.0</ele>
                <time>2020-08-29T15:02:01.000Z</time>
                <name>Trackpoint 6473</name>
            </trkpt>
            <trkpt lat="49.916816" lon="9.1415984">
                <ele>120.0</ele>
                <time>2020-08-29T15:02:03.000Z</time>
                <name>Trackpoint 6474</name>
            </trkpt>
            <trkpt lat="49.9169312" lon="9.1416">
                <ele>121.0</ele>
                <time>2020-08-29T15:02:05.000Z</time>
                <name>Trackpoint 6475</name>
            </trkpt>
            <trkpt lat="49.9170464" lon="9.1416016">
                <ele>121.0</ele>
                <time>2020-08-29T15:02:07.000Z</time>
                <name>Trackpoint 6476</name>
            </trkpt>
            <trkpt lat="49.9171744" lon="9.1416">
                <ele>121.0</ele>
                <time>2020-08-29T15:02:09.000Z</time>
                <name>Trackpoint 6477</name>
            </trkpt>
            <trkpt lat="49.917312" lon="9.1416032">
                <ele>121.0</ele>
                <time>2020-08-29T15:02:11.000Z</time>
                <name>Trackpoint 6478</name>
            </trkpt>
            <trkpt lat="49.9174016" lon="9.141588">
                <ele>121.0</ele>
                <time>2020-08-29T15:02:13.000Z</time>
                <name>Trackpoint 6479</name>
            </trkpt>
            <trkpt lat="49.9175296" lon="9.1415784">
                <ele>122.0</ele>
                <time>2020-08-29T15:02:16.000Z</time>
                <name>Trackpoint 6480</name>
            </trkpt>
            <trkpt lat="49.9176224" lon="9.1415416">
                <ele>122.0</ele>
                <time>2020-08-29T15:02:18.000Z</time>
                <name>Trackpoint 6481</name>
            </trkpt>
            <trkpt lat="49.917712" lon="9.1414968">
                <ele>122.0</ele>
                <time>2020-08-29T15:02:19.000Z</time>
                <name>Trackpoint 6482</name>
            </trkpt>
            <trkpt lat="49.9178464" lon="9.1414416">
                <ele>122.0</ele>
                <time>2020-08-29T15:02:21.000Z</time>
                <name>Trackpoint 6483</name>
            </trkpt>
            <trkpt lat="49.9179968" lon="9.1413648">
                <ele>122.0</ele>
                <time>2020-08-29T15:02:23.000Z</time>
                <name>Trackpoint 6484</name>
            </trkpt>
            <trkpt lat="49.918128" lon="9.1413224">
                <ele>122.0</ele>
                <time>2020-08-29T15:02:25.000Z</time>
                <name>Trackpoint 6485</name>
            </trkpt>
            <trkpt lat="49.9182368" lon="9.1412496">
                <ele>122.0</ele>
                <time>2020-08-29T15:02:27.000Z</time>
                <name>Trackpoint 6486</name>
            </trkpt>
            <trkpt lat="49.918368" lon="9.1411504">
                <ele>122.0</ele>
                <time>2020-08-29T15:02:29.000Z</time>
                <name>Trackpoint 6487</name>
            </trkpt>
            <trkpt lat="49.9184864" lon="9.1410504">
                <ele>122.0</ele>
                <time>2020-08-29T15:02:31.000Z</time>
                <name>Trackpoint 6488</name>
            </trkpt>
            <trkpt lat="49.918592" lon="9.1409464">
                <ele>122.0</ele>
                <time>2020-08-29T15:02:33.000Z</time>
                <name>Trackpoint 6489</name>
            </trkpt>
            <trkpt lat="49.9186784" lon="9.1408416">
                <ele>122.0</ele>
                <time>2020-08-29T15:02:35.000Z</time>
                <name>Trackpoint 6490</name>
            </trkpt>
            <trkpt lat="49.9187648" lon="9.1407384">
                <ele>122.0</ele>
                <time>2020-08-29T15:02:37.000Z</time>
                <name>Trackpoint 6491</name>
            </trkpt>
            <trkpt lat="49.9188448" lon="9.1406448">
                <ele>122.0</ele>
                <time>2020-08-29T15:02:39.000Z</time>
                <name>Trackpoint 6492</name>
            </trkpt>
            <trkpt lat="49.9189184" lon="9.1405496">
                <ele>122.0</ele>
                <time>2020-08-29T15:02:41.000Z</time>
                <name>Trackpoint 6493</name>
            </trkpt>
            <trkpt lat="49.9189984" lon="9.1404616">
                <ele>122.0</ele>
                <time>2020-08-29T15:02:43.000Z</time>
                <name>Trackpoint 6494</name>
            </trkpt>
            <trkpt lat="49.919088" lon="9.1403736">
                <ele>122.0</ele>
                <time>2020-08-29T15:02:45.000Z</time>
                <name>Trackpoint 6495</name>
            </trkpt>
            <trkpt lat="49.9191744" lon="9.1402584">
                <ele>121.0</ele>
                <time>2020-08-29T15:02:47.000Z</time>
                <name>Trackpoint 6496</name>
            </trkpt>
            <trkpt lat="49.9192576" lon="9.1401456">
                <ele>120.0</ele>
                <time>2020-08-29T15:02:49.000Z</time>
                <name>Trackpoint 6497</name>
            </trkpt>
            <trkpt lat="49.9193472" lon="9.140032">
                <ele>119.0</ele>
                <time>2020-08-29T15:02:51.000Z</time>
                <name>Trackpoint 6498</name>
            </trkpt>
            <trkpt lat="49.9194304" lon="9.1399152">
                <ele>118.0</ele>
                <time>2020-08-29T15:02:53.000Z</time>
                <name>Trackpoint 6499</name>
            </trkpt>
            <trkpt lat="49.91952" lon="9.1398088">
                <ele>118.0</ele>
                <time>2020-08-29T15:02:55.000Z</time>
                <name>Trackpoint 6500</name>
            </trkpt>
            <trkpt lat="49.9196064" lon="9.1396936">
                <ele>118.0</ele>
                <time>2020-08-29T15:02:57.000Z</time>
                <name>Trackpoint 6501</name>
            </trkpt>
            <trkpt lat="49.919696" lon="9.139588">
                <ele>119.0</ele>
                <time>2020-08-29T15:02:59.000Z</time>
                <name>Trackpoint 6502</name>
            </trkpt>
            <trkpt lat="49.9197792" lon="9.1394784">
                <ele>119.0</ele>
                <time>2020-08-29T15:03:01.000Z</time>
                <name>Trackpoint 6503</name>
            </trkpt>
            <trkpt lat="49.9198656" lon="9.1393672">
                <ele>119.0</ele>
                <time>2020-08-29T15:03:03.000Z</time>
                <name>Trackpoint 6504</name>
            </trkpt>
            <trkpt lat="49.9199424" lon="9.1392544">
                <ele>119.0</ele>
                <time>2020-08-29T15:03:05.000Z</time>
                <name>Trackpoint 6505</name>
            </trkpt>
            <trkpt lat="49.920032" lon="9.1391672">
                <ele>118.0</ele>
                <time>2020-08-29T15:03:07.000Z</time>
                <name>Trackpoint 6506</name>
            </trkpt>
            <trkpt lat="49.9201152" lon="9.1390648">
                <ele>119.0</ele>
                <time>2020-08-29T15:03:09.000Z</time>
                <name>Trackpoint 6507</name>
            </trkpt>
            <trkpt lat="49.920208" lon="9.13896">
                <ele>119.0</ele>
                <time>2020-08-29T15:03:11.000Z</time>
                <name>Trackpoint 6508</name>
            </trkpt>
            <trkpt lat="49.920304" lon="9.1388416">
                <ele>119.0</ele>
                <time>2020-08-29T15:03:13.000Z</time>
                <name>Trackpoint 6509</name>
            </trkpt>
            <trkpt lat="49.9203936" lon="9.138728">
                <ele>119.0</ele>
                <time>2020-08-29T15:03:15.000Z</time>
                <name>Trackpoint 6510</name>
            </trkpt>
            <trkpt lat="49.9204832" lon="9.1386168">
                <ele>119.0</ele>
                <time>2020-08-29T15:03:17.000Z</time>
                <name>Trackpoint 6511</name>
            </trkpt>
            <trkpt lat="49.9205728" lon="9.1384984">
                <ele>118.0</ele>
                <time>2020-08-29T15:03:19.000Z</time>
                <name>Trackpoint 6512</name>
            </trkpt>
            <trkpt lat="49.9206656" lon="9.1383864">
                <ele>118.0</ele>
                <time>2020-08-29T15:03:21.000Z</time>
                <name>Trackpoint 6513</name>
            </trkpt>
            <trkpt lat="49.920752" lon="9.13828">
                <ele>119.0</ele>
                <time>2020-08-29T15:03:23.000Z</time>
                <name>Trackpoint 6514</name>
            </trkpt>
            <trkpt lat="49.9208448" lon="9.13818">
                <ele>118.0</ele>
                <time>2020-08-29T15:03:25.000Z</time>
                <name>Trackpoint 6515</name>
            </trkpt>
            <trkpt lat="49.9209248" lon="9.1380768">
                <ele>118.0</ele>
                <time>2020-08-29T15:03:27.000Z</time>
                <name>Trackpoint 6516</name>
            </trkpt>
            <trkpt lat="49.9210048" lon="9.1379816">
                <ele>118.0</ele>
                <time>2020-08-29T15:03:29.000Z</time>
                <name>Trackpoint 6517</name>
            </trkpt>
            <trkpt lat="49.9210816" lon="9.1378768">
                <ele>118.0</ele>
                <time>2020-08-29T15:03:31.000Z</time>
                <name>Trackpoint 6518</name>
            </trkpt>
            <trkpt lat="49.9211584" lon="9.1377688">
                <ele>118.0</ele>
                <time>2020-08-29T15:03:33.000Z</time>
                <name>Trackpoint 6519</name>
            </trkpt>
            <trkpt lat="49.9212416" lon="9.13766">
                <ele>117.0</ele>
                <time>2020-08-29T15:03:35.000Z</time>
                <name>Trackpoint 6520</name>
            </trkpt>
            <trkpt lat="49.9213216" lon="9.1375616">
                <ele>118.0</ele>
                <time>2020-08-29T15:03:37.000Z</time>
                <name>Trackpoint 6521</name>
            </trkpt>
            <trkpt lat="49.9214112" lon="9.1374592">
                <ele>118.0</ele>
                <time>2020-08-29T15:03:39.000Z</time>
                <name>Trackpoint 6522</name>
            </trkpt>
            <trkpt lat="49.9214944" lon="9.1373528">
                <ele>118.0</ele>
                <time>2020-08-29T15:03:41.000Z</time>
                <name>Trackpoint 6523</name>
            </trkpt>
            <trkpt lat="49.9215712" lon="9.1372496">
                <ele>118.0</ele>
                <time>2020-08-29T15:03:43.000Z</time>
                <name>Trackpoint 6524</name>
            </trkpt>
            <trkpt lat="49.9216448" lon="9.137128">
                <ele>117.0</ele>
                <time>2020-08-29T15:03:45.000Z</time>
                <name>Trackpoint 6525</name>
            </trkpt>
            <trkpt lat="49.9217312" lon="9.1370016">
                <ele>117.0</ele>
                <time>2020-08-29T15:03:47.000Z</time>
                <name>Trackpoint 6526</name>
            </trkpt>
            <trkpt lat="49.9218304" lon="9.1369">
                <ele>117.0</ele>
                <time>2020-08-29T15:03:49.000Z</time>
                <name>Trackpoint 6527</name>
            </trkpt>
            <trkpt lat="49.9219232" lon="9.1367976">
                <ele>117.0</ele>
                <time>2020-08-29T15:03:51.000Z</time>
                <name>Trackpoint 6528</name>
            </trkpt>
            <trkpt lat="49.9220128" lon="9.136688">
                <ele>117.0</ele>
                <time>2020-08-29T15:03:53.000Z</time>
                <name>Trackpoint 6529</name>
            </trkpt>
            <trkpt lat="49.9220992" lon="9.1365768">
                <ele>117.0</ele>
                <time>2020-08-29T15:03:55.000Z</time>
                <name>Trackpoint 6530</name>
            </trkpt>
            <trkpt lat="49.9221824" lon="9.136468">
                <ele>117.0</ele>
                <time>2020-08-29T15:03:57.000Z</time>
                <name>Trackpoint 6531</name>
            </trkpt>
            <trkpt lat="49.9222688" lon="9.1363624">
                <ele>117.0</ele>
                <time>2020-08-29T15:03:59.000Z</time>
                <name>Trackpoint 6532</name>
            </trkpt>
            <trkpt lat="49.922352" lon="9.1362552">
                <ele>117.0</ele>
                <time>2020-08-29T15:04:01.000Z</time>
                <name>Trackpoint 6533</name>
            </trkpt>
            <trkpt lat="49.922432" lon="9.1361464">
                <ele>117.0</ele>
                <time>2020-08-29T15:04:03.000Z</time>
                <name>Trackpoint 6534</name>
            </trkpt>
            <trkpt lat="49.9225152" lon="9.1360384">
                <ele>118.0</ele>
                <time>2020-08-29T15:04:05.000Z</time>
                <name>Trackpoint 6535</name>
            </trkpt>
            <trkpt lat="49.9225984" lon="9.1359256">
                <ele>118.0</ele>
                <time>2020-08-29T15:04:07.000Z</time>
                <name>Trackpoint 6536</name>
            </trkpt>
            <trkpt lat="49.9226784" lon="9.1358144">
                <ele>117.0</ele>
                <time>2020-08-29T15:04:09.000Z</time>
                <name>Trackpoint 6537</name>
            </trkpt>
            <trkpt lat="49.9227616" lon="9.1357088">
                <ele>117.0</ele>
                <time>2020-08-29T15:04:11.000Z</time>
                <name>Trackpoint 6538</name>
            </trkpt>
            <trkpt lat="49.9228448" lon="9.1356048">
                <ele>117.0</ele>
                <time>2020-08-29T15:04:13.000Z</time>
                <name>Trackpoint 6539</name>
            </trkpt>
            <trkpt lat="49.922928" lon="9.135504">
                <ele>117.0</ele>
                <time>2020-08-29T15:04:15.000Z</time>
                <name>Trackpoint 6540</name>
            </trkpt>
            <trkpt lat="49.9230112" lon="9.1354">
                <ele>117.0</ele>
                <time>2020-08-29T15:04:17.000Z</time>
                <name>Trackpoint 6541</name>
            </trkpt>
            <trkpt lat="49.9230944" lon="9.1352952">
                <ele>117.0</ele>
                <time>2020-08-29T15:04:19.000Z</time>
                <name>Trackpoint 6542</name>
            </trkpt>
            <trkpt lat="49.9231808" lon="9.135188">
                <ele>117.0</ele>
                <time>2020-08-29T15:04:21.000Z</time>
                <name>Trackpoint 6543</name>
            </trkpt>
            <trkpt lat="49.923264" lon="9.1350768">
                <ele>116.0</ele>
                <time>2020-08-29T15:04:23.000Z</time>
                <name>Trackpoint 6544</name>
            </trkpt>
            <trkpt lat="49.9233504" lon="9.1349672">
                <ele>116.0</ele>
                <time>2020-08-29T15:04:25.000Z</time>
                <name>Trackpoint 6545</name>
            </trkpt>
            <trkpt lat="49.9234432" lon="9.13486">
                <ele>116.0</ele>
                <time>2020-08-29T15:04:27.000Z</time>
                <name>Trackpoint 6546</name>
            </trkpt>
            <trkpt lat="49.9235296" lon="9.1347448">
                <ele>116.0</ele>
                <time>2020-08-29T15:04:29.000Z</time>
                <name>Trackpoint 6547</name>
            </trkpt>
            <trkpt lat="49.9236224" lon="9.1346328">
                <ele>116.0</ele>
                <time>2020-08-29T15:04:31.000Z</time>
                <name>Trackpoint 6548</name>
            </trkpt>
            <trkpt lat="49.9237152" lon="9.134532">
                <ele>116.0</ele>
                <time>2020-08-29T15:04:33.000Z</time>
                <name>Trackpoint 6549</name>
            </trkpt>
            <trkpt lat="49.9238016" lon="9.1344232">
                <ele>116.0</ele>
                <time>2020-08-29T15:04:35.000Z</time>
                <name>Trackpoint 6550</name>
            </trkpt>
            <trkpt lat="49.923888" lon="9.1343136">
                <ele>117.0</ele>
                <time>2020-08-29T15:04:37.000Z</time>
                <name>Trackpoint 6551</name>
            </trkpt>
            <trkpt lat="49.9239744" lon="9.1341864">
                <ele>116.0</ele>
                <time>2020-08-29T15:04:39.000Z</time>
                <name>Trackpoint 6552</name>
            </trkpt>
            <trkpt lat="49.9240544" lon="9.134064">
                <ele>117.0</ele>
                <time>2020-08-29T15:04:41.000Z</time>
                <name>Trackpoint 6553</name>
            </trkpt>
            <trkpt lat="49.9241344" lon="9.133948">
                <ele>117.0</ele>
                <time>2020-08-29T15:04:43.000Z</time>
                <name>Trackpoint 6554</name>
            </trkpt>
            <trkpt lat="49.924208" lon="9.1338384">
                <ele>117.0</ele>
                <time>2020-08-29T15:04:45.000Z</time>
                <name>Trackpoint 6555</name>
            </trkpt>
            <trkpt lat="49.9242816" lon="9.1337272">
                <ele>117.0</ele>
                <time>2020-08-29T15:04:47.000Z</time>
                <name>Trackpoint 6556</name>
            </trkpt>
            <trkpt lat="49.924352" lon="9.1336296">
                <ele>117.0</ele>
                <time>2020-08-29T15:04:49.000Z</time>
                <name>Trackpoint 6557</name>
            </trkpt>
            <trkpt lat="49.9244128" lon="9.1335384">
                <ele>117.0</ele>
                <time>2020-08-29T15:04:51.000Z</time>
                <name>Trackpoint 6558</name>
            </trkpt>
            <trkpt lat="49.9244768" lon="9.1334496">
                <ele>117.0</ele>
                <time>2020-08-29T15:04:53.000Z</time>
                <name>Trackpoint 6559</name>
            </trkpt>
            <trkpt lat="49.9245376" lon="9.1333584">
                <ele>116.0</ele>
                <time>2020-08-29T15:04:55.000Z</time>
                <name>Trackpoint 6560</name>
            </trkpt>
            <trkpt lat="49.9246048" lon="9.1332632">
                <ele>116.0</ele>
                <time>2020-08-29T15:04:57.000Z</time>
                <name>Trackpoint 6561</name>
            </trkpt>
            <trkpt lat="49.924672" lon="9.1331664">
                <ele>117.0</ele>
                <time>2020-08-29T15:04:59.000Z</time>
                <name>Trackpoint 6562</name>
            </trkpt>
            <trkpt lat="49.9247392" lon="9.133068">
                <ele>117.0</ele>
                <time>2020-08-29T15:05:01.000Z</time>
                <name>Trackpoint 6563</name>
            </trkpt>
            <trkpt lat="49.9248128" lon="9.1329648">
                <ele>117.0</ele>
                <time>2020-08-29T15:05:03.000Z</time>
                <name>Trackpoint 6564</name>
            </trkpt>
            <trkpt lat="49.92488" lon="9.1328632">
                <ele>117.0</ele>
                <time>2020-08-29T15:05:05.000Z</time>
                <name>Trackpoint 6565</name>
            </trkpt>
            <trkpt lat="49.9249408" lon="9.1327632">
                <ele>117.0</ele>
                <time>2020-08-29T15:05:07.000Z</time>
                <name>Trackpoint 6566</name>
            </trkpt>
            <trkpt lat="49.925008" lon="9.1326736">
                <ele>117.0</ele>
                <time>2020-08-29T15:05:09.000Z</time>
                <name>Trackpoint 6567</name>
            </trkpt>
            <trkpt lat="49.9250688" lon="9.13258">
                <ele>117.0</ele>
                <time>2020-08-29T15:05:11.000Z</time>
                <name>Trackpoint 6568</name>
            </trkpt>
            <trkpt lat="49.9251296" lon="9.1324816">
                <ele>117.0</ele>
                <time>2020-08-29T15:05:13.000Z</time>
                <name>Trackpoint 6569</name>
            </trkpt>
            <trkpt lat="49.9251904" lon="9.1323744">
                <ele>117.0</ele>
                <time>2020-08-29T15:05:15.000Z</time>
                <name>Trackpoint 6570</name>
            </trkpt>
            <trkpt lat="49.9252512" lon="9.13226">
                <ele>117.0</ele>
                <time>2020-08-29T15:05:17.000Z</time>
                <name>Trackpoint 6571</name>
            </trkpt>
            <trkpt lat="49.9253056" lon="9.1321312">
                <ele>116.0</ele>
                <time>2020-08-29T15:05:19.000Z</time>
                <name>Trackpoint 6572</name>
            </trkpt>
            <trkpt lat="49.9253664" lon="9.1320048">
                <ele>116.0</ele>
                <time>2020-08-29T15:05:21.000Z</time>
                <name>Trackpoint 6573</name>
            </trkpt>
            <trkpt lat="49.9254272" lon="9.1318712">
                <ele>116.0</ele>
                <time>2020-08-29T15:05:23.000Z</time>
                <name>Trackpoint 6574</name>
            </trkpt>
            <trkpt lat="49.925488" lon="9.1317416">
                <ele>116.0</ele>
                <time>2020-08-29T15:05:25.000Z</time>
                <name>Trackpoint 6575</name>
            </trkpt>
            <trkpt lat="49.9255488" lon="9.1316032">
                <ele>115.0</ele>
                <time>2020-08-29T15:05:27.000Z</time>
                <name>Trackpoint 6576</name>
            </trkpt>
            <trkpt lat="49.9256128" lon="9.131472">
                <ele>116.0</ele>
                <time>2020-08-29T15:05:29.000Z</time>
                <name>Trackpoint 6577</name>
            </trkpt>
            <trkpt lat="49.9256736" lon="9.1313384">
                <ele>116.0</ele>
                <time>2020-08-29T15:05:31.000Z</time>
                <name>Trackpoint 6578</name>
            </trkpt>
            <trkpt lat="49.9257408" lon="9.1312152">
                <ele>116.0</ele>
                <time>2020-08-29T15:05:33.000Z</time>
                <name>Trackpoint 6579</name>
            </trkpt>
            <trkpt lat="49.925808" lon="9.1310952">
                <ele>115.0</ele>
                <time>2020-08-29T15:05:35.000Z</time>
                <name>Trackpoint 6580</name>
            </trkpt>
            <trkpt lat="49.9258848" lon="9.1309792">
                <ele>115.0</ele>
                <time>2020-08-29T15:05:37.000Z</time>
                <name>Trackpoint 6581</name>
            </trkpt>
            <trkpt lat="49.9259616" lon="9.130848">
                <ele>114.0</ele>
                <time>2020-08-29T15:05:39.000Z</time>
                <name>Trackpoint 6582</name>
            </trkpt>
            <trkpt lat="49.9260416" lon="9.1307088">
                <ele>114.0</ele>
                <time>2020-08-29T15:05:41.000Z</time>
                <name>Trackpoint 6583</name>
            </trkpt>
            <trkpt lat="49.9261216" lon="9.1305848">
                <ele>114.0</ele>
                <time>2020-08-29T15:05:43.000Z</time>
                <name>Trackpoint 6584</name>
            </trkpt>
            <trkpt lat="49.9262048" lon="9.1304552">
                <ele>114.0</ele>
                <time>2020-08-29T15:05:45.000Z</time>
                <name>Trackpoint 6585</name>
            </trkpt>
            <trkpt lat="49.9262848" lon="9.130332">
                <ele>115.0</ele>
                <time>2020-08-29T15:05:47.000Z</time>
                <name>Trackpoint 6586</name>
            </trkpt>
            <trkpt lat="49.926368" lon="9.130212">
                <ele>115.0</ele>
                <time>2020-08-29T15:05:49.000Z</time>
                <name>Trackpoint 6587</name>
            </trkpt>
            <trkpt lat="49.9264512" lon="9.1300896">
                <ele>115.0</ele>
                <time>2020-08-29T15:05:51.000Z</time>
                <name>Trackpoint 6588</name>
            </trkpt>
            <trkpt lat="49.9265376" lon="9.1299616">
                <ele>115.0</ele>
                <time>2020-08-29T15:05:53.000Z</time>
                <name>Trackpoint 6589</name>
            </trkpt>
            <trkpt lat="49.9266208" lon="9.12982">
                <ele>114.0</ele>
                <time>2020-08-29T15:05:55.000Z</time>
                <name>Trackpoint 6590</name>
            </trkpt>
            <trkpt lat="49.9267008" lon="9.129688">
                <ele>114.0</ele>
                <time>2020-08-29T15:05:57.000Z</time>
                <name>Trackpoint 6591</name>
            </trkpt>
            <trkpt lat="49.9267808" lon="9.1295608">
                <ele>114.0</ele>
                <time>2020-08-29T15:05:59.000Z</time>
                <name>Trackpoint 6592</name>
            </trkpt>
            <trkpt lat="49.926864" lon="9.12944">
                <ele>114.0</ele>
                <time>2020-08-29T15:06:01.000Z</time>
                <name>Trackpoint 6593</name>
            </trkpt>
            <trkpt lat="49.9269472" lon="9.129316">
                <ele>114.0</ele>
                <time>2020-08-29T15:06:03.000Z</time>
                <name>Trackpoint 6594</name>
            </trkpt>
            <trkpt lat="49.9270272" lon="9.1291904">
                <ele>114.0</ele>
                <time>2020-08-29T15:06:05.000Z</time>
                <name>Trackpoint 6595</name>
            </trkpt>
            <trkpt lat="49.9271072" lon="9.1290576">
                <ele>114.0</ele>
                <time>2020-08-29T15:06:07.000Z</time>
                <name>Trackpoint 6596</name>
            </trkpt>
            <trkpt lat="49.9271936" lon="9.1289232">
                <ele>114.0</ele>
                <time>2020-08-29T15:06:09.000Z</time>
                <name>Trackpoint 6597</name>
            </trkpt>
            <trkpt lat="49.9272768" lon="9.1287944">
                <ele>113.0</ele>
                <time>2020-08-29T15:06:11.000Z</time>
                <name>Trackpoint 6598</name>
            </trkpt>
            <trkpt lat="49.9273632" lon="9.1286752">
                <ele>113.0</ele>
                <time>2020-08-29T15:06:13.000Z</time>
                <name>Trackpoint 6599</name>
            </trkpt>
            <trkpt lat="49.9274496" lon="9.1285448">
                <ele>114.0</ele>
                <time>2020-08-29T15:06:15.000Z</time>
                <name>Trackpoint 6600</name>
            </trkpt>
            <trkpt lat="49.9275296" lon="9.128424">
                <ele>114.0</ele>
                <time>2020-08-29T15:06:17.000Z</time>
                <name>Trackpoint 6601</name>
            </trkpt>
            <trkpt lat="49.9276096" lon="9.128292">
                <ele>114.0</ele>
                <time>2020-08-29T15:06:19.000Z</time>
                <name>Trackpoint 6602</name>
            </trkpt>
            <trkpt lat="49.9276896" lon="9.1281656">
                <ele>114.0</ele>
                <time>2020-08-29T15:06:21.000Z</time>
                <name>Trackpoint 6603</name>
            </trkpt>
            <trkpt lat="49.9277696" lon="9.1280344">
                <ele>114.0</ele>
                <time>2020-08-29T15:06:23.000Z</time>
                <name>Trackpoint 6604</name>
            </trkpt>
            <trkpt lat="49.9278528" lon="9.1279088">
                <ele>114.0</ele>
                <time>2020-08-29T15:06:25.000Z</time>
                <name>Trackpoint 6605</name>
            </trkpt>
            <trkpt lat="49.927936" lon="9.1277768">
                <ele>114.0</ele>
                <time>2020-08-29T15:06:27.000Z</time>
                <name>Trackpoint 6606</name>
            </trkpt>
            <trkpt lat="49.928016" lon="9.127648">
                <ele>114.0</ele>
                <time>2020-08-29T15:06:29.000Z</time>
                <name>Trackpoint 6607</name>
            </trkpt>
            <trkpt lat="49.9281056" lon="9.1275216">
                <ele>114.0</ele>
                <time>2020-08-29T15:06:31.000Z</time>
                <name>Trackpoint 6608</name>
            </trkpt>
            <trkpt lat="49.9281888" lon="9.1273944">
                <ele>114.0</ele>
                <time>2020-08-29T15:06:33.000Z</time>
                <name>Trackpoint 6609</name>
            </trkpt>
            <trkpt lat="49.9282752" lon="9.1272752">
                <ele>114.0</ele>
                <time>2020-08-29T15:06:35.000Z</time>
                <name>Trackpoint 6610</name>
            </trkpt>
            <trkpt lat="49.9283584" lon="9.1271432">
                <ele>113.0</ele>
                <time>2020-08-29T15:06:37.000Z</time>
                <name>Trackpoint 6611</name>
            </trkpt>
            <trkpt lat="49.928448" lon="9.12702">
                <ele>113.0</ele>
                <time>2020-08-29T15:06:39.000Z</time>
                <name>Trackpoint 6612</name>
            </trkpt>
            <trkpt lat="49.9285344" lon="9.1268952">
                <ele>113.0</ele>
                <time>2020-08-29T15:06:41.000Z</time>
                <name>Trackpoint 6613</name>
            </trkpt>
            <trkpt lat="49.928624" lon="9.126772">
                <ele>113.0</ele>
                <time>2020-08-29T15:06:43.000Z</time>
                <name>Trackpoint 6614</name>
            </trkpt>
            <trkpt lat="49.9287136" lon="9.1266568">
                <ele>113.0</ele>
                <time>2020-08-29T15:06:45.000Z</time>
                <name>Trackpoint 6615</name>
            </trkpt>
            <trkpt lat="49.9288032" lon="9.12654">
                <ele>114.0</ele>
                <time>2020-08-29T15:06:47.000Z</time>
                <name>Trackpoint 6616</name>
            </trkpt>
            <trkpt lat="49.9288896" lon="9.1264216">
                <ele>114.0</ele>
                <time>2020-08-29T15:06:49.000Z</time>
                <name>Trackpoint 6617</name>
            </trkpt>
            <trkpt lat="49.9289728" lon="9.1263088">
                <ele>114.0</ele>
                <time>2020-08-29T15:06:51.000Z</time>
                <name>Trackpoint 6618</name>
            </trkpt>
            <trkpt lat="49.9290624" lon="9.1262016">
                <ele>114.0</ele>
                <time>2020-08-29T15:06:53.000Z</time>
                <name>Trackpoint 6619</name>
            </trkpt>
            <trkpt lat="49.9291488" lon="9.1261064">
                <ele>115.0</ele>
                <time>2020-08-29T15:06:55.000Z</time>
                <name>Trackpoint 6620</name>
            </trkpt>
            <trkpt lat="49.9292384" lon="9.126012">
                <ele>115.0</ele>
                <time>2020-08-29T15:06:57.000Z</time>
                <name>Trackpoint 6621</name>
            </trkpt>
            <trkpt lat="49.9293312" lon="9.1259184">
                <ele>115.0</ele>
                <time>2020-08-29T15:06:59.000Z</time>
                <name>Trackpoint 6622</name>
            </trkpt>
            <trkpt lat="49.9294272" lon="9.1258272">
                <ele>115.0</ele>
                <time>2020-08-29T15:07:01.000Z</time>
                <name>Trackpoint 6623</name>
            </trkpt>
            <trkpt lat="49.9295232" lon="9.1257296">
                <ele>115.0</ele>
                <time>2020-08-29T15:07:03.000Z</time>
                <name>Trackpoint 6624</name>
            </trkpt>
            <trkpt lat="49.9296192" lon="9.1256384">
                <ele>115.0</ele>
                <time>2020-08-29T15:07:05.000Z</time>
                <name>Trackpoint 6625</name>
            </trkpt>
            <trkpt lat="49.9297216" lon="9.1255432">
                <ele>115.0</ele>
                <time>2020-08-29T15:07:07.000Z</time>
                <name>Trackpoint 6626</name>
            </trkpt>
            <trkpt lat="49.9298208" lon="9.1254504">
                <ele>116.0</ele>
                <time>2020-08-29T15:07:09.000Z</time>
                <name>Trackpoint 6627</name>
            </trkpt>
            <trkpt lat="49.92992" lon="9.1253528">
                <ele>116.0</ele>
                <time>2020-08-29T15:07:11.000Z</time>
                <name>Trackpoint 6628</name>
            </trkpt>
            <trkpt lat="49.9300192" lon="9.1252616">
                <ele>115.0</ele>
                <time>2020-08-29T15:07:13.000Z</time>
                <name>Trackpoint 6629</name>
            </trkpt>
            <trkpt lat="49.9301184" lon="9.1251632">
                <ele>115.0</ele>
                <time>2020-08-29T15:07:15.000Z</time>
                <name>Trackpoint 6630</name>
            </trkpt>
            <trkpt lat="49.9302208" lon="9.1250664">
                <ele>115.0</ele>
                <time>2020-08-29T15:07:17.000Z</time>
                <name>Trackpoint 6631</name>
            </trkpt>
            <trkpt lat="49.9303232" lon="9.1249664">
                <ele>115.0</ele>
                <time>2020-08-29T15:07:19.000Z</time>
                <name>Trackpoint 6632</name>
            </trkpt>
            <trkpt lat="49.9304288" lon="9.124868">
                <ele>114.0</ele>
                <time>2020-08-29T15:07:21.000Z</time>
                <name>Trackpoint 6633</name>
            </trkpt>
            <trkpt lat="49.930528" lon="9.1247616">
                <ele>115.0</ele>
                <time>2020-08-29T15:07:23.000Z</time>
                <name>Trackpoint 6634</name>
            </trkpt>
            <trkpt lat="49.9306208" lon="9.1246544">
                <ele>114.0</ele>
                <time>2020-08-29T15:07:25.000Z</time>
                <name>Trackpoint 6635</name>
            </trkpt>
            <trkpt lat="49.9307168" lon="9.1245432">
                <ele>115.0</ele>
                <time>2020-08-29T15:07:27.000Z</time>
                <name>Trackpoint 6636</name>
            </trkpt>
            <trkpt lat="49.9308128" lon="9.1244272">
                <ele>115.0</ele>
                <time>2020-08-29T15:07:29.000Z</time>
                <name>Trackpoint 6637</name>
            </trkpt>
            <trkpt lat="49.9309088" lon="9.124316">
                <ele>115.0</ele>
                <time>2020-08-29T15:07:31.000Z</time>
                <name>Trackpoint 6638</name>
            </trkpt>
            <trkpt lat="49.9310048" lon="9.124204">
                <ele>114.0</ele>
                <time>2020-08-29T15:07:33.000Z</time>
                <name>Trackpoint 6639</name>
            </trkpt>
            <trkpt lat="49.9310944" lon="9.1240904">
                <ele>114.0</ele>
                <time>2020-08-29T15:07:35.000Z</time>
                <name>Trackpoint 6640</name>
            </trkpt>
            <trkpt lat="49.9311936" lon="9.1239792">
                <ele>114.0</ele>
                <time>2020-08-29T15:07:37.000Z</time>
                <name>Trackpoint 6641</name>
            </trkpt>
            <trkpt lat="49.9312864" lon="9.1238632">
                <ele>114.0</ele>
                <time>2020-08-29T15:07:39.000Z</time>
                <name>Trackpoint 6642</name>
            </trkpt>
            <trkpt lat="49.931376" lon="9.1237496">
                <ele>114.0</ele>
                <time>2020-08-29T15:07:41.000Z</time>
                <name>Trackpoint 6643</name>
            </trkpt>
            <trkpt lat="49.9314688" lon="9.12364">
                <ele>114.0</ele>
                <time>2020-08-29T15:07:43.000Z</time>
                <name>Trackpoint 6644</name>
            </trkpt>
            <trkpt lat="49.931552" lon="9.1235336">
                <ele>115.0</ele>
                <time>2020-08-29T15:07:45.000Z</time>
                <name>Trackpoint 6645</name>
            </trkpt>
            <trkpt lat="49.9316288" lon="9.123444">
                <ele>115.0</ele>
                <time>2020-08-29T15:07:47.000Z</time>
                <name>Trackpoint 6646</name>
            </trkpt>
            <trkpt lat="49.9315616" lon="9.1235104">
                <ele>115.0</ele>
                <time>2020-08-29T15:07:57.000Z</time>
                <name>Trackpoint 6647</name>
            </trkpt>
            <trkpt lat="49.931648" lon="9.1234248">
                <ele>115.0</ele>
                <time>2020-08-29T15:10:36.000Z</time>
                <name>Trackpoint 6648</name>
            </trkpt>
            <trkpt lat="49.931728" lon="9.1233264">
                <ele>115.0</ele>
                <time>2020-08-29T15:10:39.000Z</time>
                <name>Trackpoint 6649</name>
            </trkpt>
            <trkpt lat="49.9317888" lon="9.1232544">
                <ele>115.0</ele>
                <time>2020-08-29T15:10:41.000Z</time>
                <name>Trackpoint 6650</name>
            </trkpt>
            <trkpt lat="49.9318496" lon="9.1231768">
                <ele>115.0</ele>
                <time>2020-08-29T15:10:43.000Z</time>
                <name>Trackpoint 6651</name>
            </trkpt>
            <trkpt lat="49.9319168" lon="9.1231016">
                <ele>115.0</ele>
                <time>2020-08-29T15:10:45.000Z</time>
                <name>Trackpoint 6652</name>
            </trkpt>
            <trkpt lat="49.9319776" lon="9.1230248">
                <ele>115.0</ele>
                <time>2020-08-29T15:10:47.000Z</time>
                <name>Trackpoint 6653</name>
            </trkpt>
            <trkpt lat="49.9320448" lon="9.1229464">
                <ele>115.0</ele>
                <time>2020-08-29T15:10:49.000Z</time>
                <name>Trackpoint 6654</name>
            </trkpt>
            <trkpt lat="49.9321088" lon="9.122864">
                <ele>115.0</ele>
                <time>2020-08-29T15:10:51.000Z</time>
                <name>Trackpoint 6655</name>
            </trkpt>
            <trkpt lat="49.9321792" lon="9.122784">
                <ele>115.0</ele>
                <time>2020-08-29T15:10:53.000Z</time>
                <name>Trackpoint 6656</name>
            </trkpt>
            <trkpt lat="49.9322432" lon="9.1227056">
                <ele>115.0</ele>
                <time>2020-08-29T15:10:55.000Z</time>
                <name>Trackpoint 6657</name>
            </trkpt>
            <trkpt lat="49.9323072" lon="9.1226304">
                <ele>116.0</ele>
                <time>2020-08-29T15:10:57.000Z</time>
                <name>Trackpoint 6658</name>
            </trkpt>
            <trkpt lat="49.9323776" lon="9.1225544">
                <ele>116.0</ele>
                <time>2020-08-29T15:10:59.000Z</time>
                <name>Trackpoint 6659</name>
            </trkpt>
            <trkpt lat="49.9324416" lon="9.1224744">
                <ele>116.0</ele>
                <time>2020-08-29T15:11:01.000Z</time>
                <name>Trackpoint 6660</name>
            </trkpt>
            <trkpt lat="49.9325056" lon="9.1223968">
                <ele>115.0</ele>
                <time>2020-08-29T15:11:03.000Z</time>
                <name>Trackpoint 6661</name>
            </trkpt>
            <trkpt lat="49.9325728" lon="9.12232">
                <ele>115.0</ele>
                <time>2020-08-29T15:11:05.000Z</time>
                <name>Trackpoint 6662</name>
            </trkpt>
            <trkpt lat="49.9326368" lon="9.122236">
                <ele>116.0</ele>
                <time>2020-08-29T15:11:07.000Z</time>
                <name>Trackpoint 6663</name>
            </trkpt>
            <trkpt lat="49.932704" lon="9.1221552">
                <ele>116.0</ele>
                <time>2020-08-29T15:11:09.000Z</time>
                <name>Trackpoint 6664</name>
            </trkpt>
            <trkpt lat="49.9327808" lon="9.1220704">
                <ele>115.0</ele>
                <time>2020-08-29T15:11:11.000Z</time>
                <name>Trackpoint 6665</name>
            </trkpt>
            <trkpt lat="49.9328544" lon="9.1219784">
                <ele>115.0</ele>
                <time>2020-08-29T15:11:13.000Z</time>
                <name>Trackpoint 6666</name>
            </trkpt>
            <trkpt lat="49.9329248" lon="9.1218816">
                <ele>115.0</ele>
                <time>2020-08-29T15:11:15.000Z</time>
                <name>Trackpoint 6667</name>
            </trkpt>
            <trkpt lat="49.9330016" lon="9.1217816">
                <ele>115.0</ele>
                <time>2020-08-29T15:11:17.000Z</time>
                <name>Trackpoint 6668</name>
            </trkpt>
            <trkpt lat="49.9330784" lon="9.1216768">
                <ele>115.0</ele>
                <time>2020-08-29T15:11:19.000Z</time>
                <name>Trackpoint 6669</name>
            </trkpt>
            <trkpt lat="49.9331552" lon="9.1215648">
                <ele>115.0</ele>
                <time>2020-08-29T15:11:21.000Z</time>
                <name>Trackpoint 6670</name>
            </trkpt>
            <trkpt lat="49.9332288" lon="9.1214512">
                <ele>115.0</ele>
                <time>2020-08-29T15:11:23.000Z</time>
                <name>Trackpoint 6671</name>
            </trkpt>
            <trkpt lat="49.9332992" lon="9.1213368">
                <ele>115.0</ele>
                <time>2020-08-29T15:11:25.000Z</time>
                <name>Trackpoint 6672</name>
            </trkpt>
            <trkpt lat="49.9333696" lon="9.12122">
                <ele>115.0</ele>
                <time>2020-08-29T15:11:27.000Z</time>
                <name>Trackpoint 6673</name>
            </trkpt>
            <trkpt lat="49.9334368" lon="9.1211016">
                <ele>115.0</ele>
                <time>2020-08-29T15:11:29.000Z</time>
                <name>Trackpoint 6674</name>
            </trkpt>
            <trkpt lat="49.9334976" lon="9.1209816">
                <ele>115.0</ele>
                <time>2020-08-29T15:11:31.000Z</time>
                <name>Trackpoint 6675</name>
            </trkpt>
            <trkpt lat="49.9335584" lon="9.1208584">
                <ele>115.0</ele>
                <time>2020-08-29T15:11:33.000Z</time>
                <name>Trackpoint 6676</name>
            </trkpt>
            <trkpt lat="49.933616" lon="9.1207336">
                <ele>115.0</ele>
                <time>2020-08-29T15:11:35.000Z</time>
                <name>Trackpoint 6677</name>
            </trkpt>
            <trkpt lat="49.9336672" lon="9.1206032">
                <ele>115.0</ele>
                <time>2020-08-29T15:11:37.000Z</time>
                <name>Trackpoint 6678</name>
            </trkpt>
            <trkpt lat="49.9337184" lon="9.1204704">
                <ele>114.0</ele>
                <time>2020-08-29T15:11:39.000Z</time>
                <name>Trackpoint 6679</name>
            </trkpt>
            <trkpt lat="49.9337728" lon="9.120332">
                <ele>114.0</ele>
                <time>2020-08-29T15:11:41.000Z</time>
                <name>Trackpoint 6680</name>
            </trkpt>
            <trkpt lat="49.9338272" lon="9.1201888">
                <ele>114.0</ele>
                <time>2020-08-29T15:11:43.000Z</time>
                <name>Trackpoint 6681</name>
            </trkpt>
            <trkpt lat="49.9338752" lon="9.1200448">
                <ele>114.0</ele>
                <time>2020-08-29T15:11:45.000Z</time>
                <name>Trackpoint 6682</name>
            </trkpt>
            <trkpt lat="49.9339264" lon="9.1199016">
                <ele>114.0</ele>
                <time>2020-08-29T15:11:47.000Z</time>
                <name>Trackpoint 6683</name>
            </trkpt>
            <trkpt lat="49.9339744" lon="9.1197584">
                <ele>114.0</ele>
                <time>2020-08-29T15:11:49.000Z</time>
                <name>Trackpoint 6684</name>
            </trkpt>
            <trkpt lat="49.9340256" lon="9.1196072">
                <ele>114.0</ele>
                <time>2020-08-29T15:11:51.000Z</time>
                <name>Trackpoint 6685</name>
            </trkpt>
            <trkpt lat="49.9340768" lon="9.1194624">
                <ele>115.0</ele>
                <time>2020-08-29T15:11:53.000Z</time>
                <name>Trackpoint 6686</name>
            </trkpt>
            <trkpt lat="49.9341312" lon="9.1193064">
                <ele>115.0</ele>
                <time>2020-08-29T15:11:55.000Z</time>
                <name>Trackpoint 6687</name>
            </trkpt>
            <trkpt lat="49.934176" lon="9.119152">
                <ele>114.0</ele>
                <time>2020-08-29T15:11:57.000Z</time>
                <name>Trackpoint 6688</name>
            </trkpt>
            <trkpt lat="49.9342272" lon="9.1190032">
                <ele>115.0</ele>
                <time>2020-08-29T15:11:59.000Z</time>
                <name>Trackpoint 6689</name>
            </trkpt>
            <trkpt lat="49.9342816" lon="9.1188536">
                <ele>115.0</ele>
                <time>2020-08-29T15:12:01.000Z</time>
                <name>Trackpoint 6690</name>
            </trkpt>
            <trkpt lat="49.9343296" lon="9.118696">
                <ele>115.0</ele>
                <time>2020-08-29T15:12:03.000Z</time>
                <name>Trackpoint 6691</name>
            </trkpt>
            <trkpt lat="49.9343808" lon="9.118544">
                <ele>115.0</ele>
                <time>2020-08-29T15:12:05.000Z</time>
                <name>Trackpoint 6692</name>
            </trkpt>
            <trkpt lat="49.9344288" lon="9.1183856">
                <ele>114.0</ele>
                <time>2020-08-29T15:12:07.000Z</time>
                <name>Trackpoint 6693</name>
            </trkpt>
            <trkpt lat="49.9344736" lon="9.1182216">
                <ele>114.0</ele>
                <time>2020-08-29T15:12:09.000Z</time>
                <name>Trackpoint 6694</name>
            </trkpt>
            <trkpt lat="49.934528" lon="9.1180624">
                <ele>114.0</ele>
                <time>2020-08-29T15:12:11.000Z</time>
                <name>Trackpoint 6695</name>
            </trkpt>
            <trkpt lat="49.9345824" lon="9.1179">
                <ele>114.0</ele>
                <time>2020-08-29T15:12:13.000Z</time>
                <name>Trackpoint 6696</name>
            </trkpt>
            <trkpt lat="49.9346336" lon="9.1177416">
                <ele>114.0</ele>
                <time>2020-08-29T15:12:15.000Z</time>
                <name>Trackpoint 6697</name>
            </trkpt>
            <trkpt lat="49.9346848" lon="9.1175832">
                <ele>114.0</ele>
                <time>2020-08-29T15:12:17.000Z</time>
                <name>Trackpoint 6698</name>
            </trkpt>
            <trkpt lat="49.9347328" lon="9.1174232">
                <ele>114.0</ele>
                <time>2020-08-29T15:12:19.000Z</time>
                <name>Trackpoint 6699</name>
            </trkpt>
            <trkpt lat="49.934784" lon="9.117264">
                <ele>114.0</ele>
                <time>2020-08-29T15:12:21.000Z</time>
                <name>Trackpoint 6700</name>
            </trkpt>
            <trkpt lat="49.934832" lon="9.1171048">
                <ele>114.0</ele>
                <time>2020-08-29T15:12:23.000Z</time>
                <name>Trackpoint 6701</name>
            </trkpt>
            <trkpt lat="49.9348832" lon="9.116952">
                <ele>114.0</ele>
                <time>2020-08-29T15:12:25.000Z</time>
                <name>Trackpoint 6702</name>
            </trkpt>
            <trkpt lat="49.9349504" lon="9.116812">
                <ele>113.0</ele>
                <time>2020-08-29T15:12:27.000Z</time>
                <name>Trackpoint 6703</name>
            </trkpt>
            <trkpt lat="49.9350208" lon="9.1166712">
                <ele>113.0</ele>
                <time>2020-08-29T15:12:29.000Z</time>
                <name>Trackpoint 6704</name>
            </trkpt>
            <trkpt lat="49.935088" lon="9.1165312">
                <ele>113.0</ele>
                <time>2020-08-29T15:12:31.000Z</time>
                <name>Trackpoint 6705</name>
            </trkpt>
            <trkpt lat="49.9351584" lon="9.1163864">
                <ele>113.0</ele>
                <time>2020-08-29T15:12:33.000Z</time>
                <name>Trackpoint 6706</name>
            </trkpt>
            <trkpt lat="49.9352256" lon="9.1162384">
                <ele>113.0</ele>
                <time>2020-08-29T15:12:35.000Z</time>
                <name>Trackpoint 6707</name>
            </trkpt>
            <trkpt lat="49.935296" lon="9.1160848">
                <ele>113.0</ele>
                <time>2020-08-29T15:12:37.000Z</time>
                <name>Trackpoint 6708</name>
            </trkpt>
            <trkpt lat="49.9353632" lon="9.1159296">
                <ele>113.0</ele>
                <time>2020-08-29T15:12:39.000Z</time>
                <name>Trackpoint 6709</name>
            </trkpt>
            <trkpt lat="49.935424" lon="9.1157736">
                <ele>113.0</ele>
                <time>2020-08-29T15:12:41.000Z</time>
                <name>Trackpoint 6710</name>
            </trkpt>
            <trkpt lat="49.9354912" lon="9.11562">
                <ele>113.0</ele>
                <time>2020-08-29T15:12:43.000Z</time>
                <name>Trackpoint 6711</name>
            </trkpt>
            <trkpt lat="49.935552" lon="9.1154616">
                <ele>113.0</ele>
                <time>2020-08-29T15:12:45.000Z</time>
                <name>Trackpoint 6712</name>
            </trkpt>
            <trkpt lat="49.9356128" lon="9.1153096">
                <ele>113.0</ele>
                <time>2020-08-29T15:12:47.000Z</time>
                <name>Trackpoint 6713</name>
            </trkpt>
            <trkpt lat="49.9356704" lon="9.1151616">
                <ele>112.0</ele>
                <time>2020-08-29T15:12:49.000Z</time>
                <name>Trackpoint 6714</name>
            </trkpt>
            <trkpt lat="49.9357216" lon="9.115024">
                <ele>112.0</ele>
                <time>2020-08-29T15:12:51.000Z</time>
                <name>Trackpoint 6715</name>
            </trkpt>
            <trkpt lat="49.935776" lon="9.1148968">
                <ele>112.0</ele>
                <time>2020-08-29T15:12:53.000Z</time>
                <name>Trackpoint 6716</name>
            </trkpt>
            <trkpt lat="49.9358208" lon="9.1147808">
                <ele>113.0</ele>
                <time>2020-08-29T15:12:55.000Z</time>
                <name>Trackpoint 6717</name>
            </trkpt>
            <trkpt lat="49.9358688" lon="9.114672">
                <ele>113.0</ele>
                <time>2020-08-29T15:12:57.000Z</time>
                <name>Trackpoint 6718</name>
            </trkpt>
            <trkpt lat="49.9359104" lon="9.1145688">
                <ele>112.0</ele>
                <time>2020-08-29T15:13:00.000Z</time>
                <name>Trackpoint 6719</name>
            </trkpt>
            <trkpt lat="49.9359392" lon="9.114464">
                <ele>113.0</ele>
                <time>2020-08-29T15:13:18.000Z</time>
                <name>Trackpoint 6720</name>
            </trkpt>
            <trkpt lat="49.9359776" lon="9.1143616">
                <ele>113.0</ele>
                <time>2020-08-29T15:13:21.000Z</time>
                <name>Trackpoint 6721</name>
            </trkpt>
            <trkpt lat="49.9360224" lon="9.1142464">
                <ele>115.0</ele>
                <time>2020-08-29T15:13:24.000Z</time>
                <name>Trackpoint 6722</name>
            </trkpt>
            <trkpt lat="49.9360576" lon="9.1141592">
                <ele>116.0</ele>
                <time>2020-08-29T15:13:26.000Z</time>
                <name>Trackpoint 6723</name>
            </trkpt>
            <trkpt lat="49.936096" lon="9.1140696">
                <ele>117.0</ele>
                <time>2020-08-29T15:13:28.000Z</time>
                <name>Trackpoint 6724</name>
            </trkpt>
            <trkpt lat="49.936128" lon="9.1139768">
                <ele>119.0</ele>
                <time>2020-08-29T15:13:30.000Z</time>
                <name>Trackpoint 6725</name>
            </trkpt>
            <trkpt lat="49.93616" lon="9.1138784">
                <ele>116.0</ele>
                <time>2020-08-29T15:13:32.000Z</time>
                <name>Trackpoint 6726</name>
            </trkpt>
            <trkpt lat="49.936192" lon="9.1137888">
                <ele>116.0</ele>
                <time>2020-08-29T15:13:34.000Z</time>
                <name>Trackpoint 6727</name>
            </trkpt>
            <trkpt lat="49.9362656" lon="9.1136648">
                <ele>116.0</ele>
                <time>2020-08-29T15:13:37.000Z</time>
                <name>Trackpoint 6728</name>
            </trkpt>
            <trkpt lat="49.9363104" lon="9.1135864">
                <ele>118.0</ele>
                <time>2020-08-29T15:13:39.000Z</time>
                <name>Trackpoint 6729</name>
            </trkpt>
            <trkpt lat="49.9363776" lon="9.1134832">
                <ele>120.0</ele>
                <time>2020-08-29T15:13:42.000Z</time>
                <name>Trackpoint 6730</name>
            </trkpt>
            <trkpt lat="49.9364544" lon="9.113388">
                <ele>122.0</ele>
                <time>2020-08-29T15:13:45.000Z</time>
                <name>Trackpoint 6731</name>
            </trkpt>
            <trkpt lat="49.936544" lon="9.113292">
                <ele>123.0</ele>
                <time>2020-08-29T15:13:48.000Z</time>
                <name>Trackpoint 6732</name>
            </trkpt>
            <trkpt lat="49.9366176" lon="9.1132">
                <ele>123.0</ele>
                <time>2020-08-29T15:13:51.000Z</time>
                <name>Trackpoint 6733</name>
            </trkpt>
            <trkpt lat="49.9367104" lon="9.1131184">
                <ele>123.0</ele>
                <time>2020-08-29T15:13:54.000Z</time>
                <name>Trackpoint 6734</name>
            </trkpt>
            <trkpt lat="49.9368032" lon="9.113024">
                <ele>124.0</ele>
                <time>2020-08-29T15:13:57.000Z</time>
                <name>Trackpoint 6735</name>
            </trkpt>
            <trkpt lat="49.9368576" lon="9.1129416">
                <ele>124.0</ele>
                <time>2020-08-29T15:13:59.000Z</time>
                <name>Trackpoint 6736</name>
            </trkpt>
            <trkpt lat="49.9369088" lon="9.1128552">
                <ele>123.0</ele>
                <time>2020-08-29T15:14:01.000Z</time>
                <name>Trackpoint 6737</name>
            </trkpt>
            <trkpt lat="49.9369504" lon="9.112772">
                <ele>123.0</ele>
                <time>2020-08-29T15:14:03.000Z</time>
                <name>Trackpoint 6738</name>
            </trkpt>
            <trkpt lat="49.936976" lon="9.1126832">
                <ele>124.0</ele>
                <time>2020-08-29T15:14:06.000Z</time>
                <name>Trackpoint 6739</name>
            </trkpt>
            <trkpt lat="49.9370016" lon="9.1125784">
                <ele>123.0</ele>
                <time>2020-08-29T15:14:10.000Z</time>
                <name>Trackpoint 6740</name>
            </trkpt>
            <trkpt lat="49.93704" lon="9.1124896">
                <ele>124.0</ele>
                <time>2020-08-29T15:15:03.000Z</time>
                <name>Trackpoint 6741</name>
            </trkpt>
            <trkpt lat="49.9370912" lon="9.1124032">
                <ele>123.0</ele>
                <time>2020-08-29T15:15:10.000Z</time>
                <name>Trackpoint 6742</name>
            </trkpt>
            <trkpt lat="49.9371552" lon="9.1123264">
                <ele>123.0</ele>
                <time>2020-08-29T15:15:16.000Z</time>
                <name>Trackpoint 6743</name>
            </trkpt>
            <trkpt lat="49.9372288" lon="9.1122552">
                <ele>123.0</ele>
                <time>2020-08-29T15:15:19.000Z</time>
                <name>Trackpoint 6744</name>
            </trkpt>
            <trkpt lat="49.9373024" lon="9.1121792">
                <ele>124.0</ele>
                <time>2020-08-29T15:15:21.000Z</time>
                <name>Trackpoint 6745</name>
            </trkpt>
            <trkpt lat="49.9373664" lon="9.1120752">
                <ele>124.0</ele>
                <time>2020-08-29T15:15:23.000Z</time>
                <name>Trackpoint 6746</name>
            </trkpt>
            <trkpt lat="49.9374464" lon="9.1119856">
                <ele>123.0</ele>
                <time>2020-08-29T15:15:25.000Z</time>
                <name>Trackpoint 6747</name>
            </trkpt>
            <trkpt lat="49.93752" lon="9.1118944">
                <ele>124.0</ele>
                <time>2020-08-29T15:15:27.000Z</time>
                <name>Trackpoint 6748</name>
            </trkpt>
            <trkpt lat="49.9376032" lon="9.1117984">
                <ele>123.0</ele>
                <time>2020-08-29T15:15:29.000Z</time>
                <name>Trackpoint 6749</name>
            </trkpt>
            <trkpt lat="49.93768" lon="9.1117032">
                <ele>123.0</ele>
                <time>2020-08-29T15:15:31.000Z</time>
                <name>Trackpoint 6750</name>
            </trkpt>
            <trkpt lat="49.9377568" lon="9.1116">
                <ele>123.0</ele>
                <time>2020-08-29T15:15:33.000Z</time>
                <name>Trackpoint 6751</name>
            </trkpt>
            <trkpt lat="49.9378368" lon="9.111504">
                <ele>123.0</ele>
                <time>2020-08-29T15:15:35.000Z</time>
                <name>Trackpoint 6752</name>
            </trkpt>
            <trkpt lat="49.9379168" lon="9.1114064">
                <ele>123.0</ele>
                <time>2020-08-29T15:15:37.000Z</time>
                <name>Trackpoint 6753</name>
            </trkpt>
            <trkpt lat="49.9379968" lon="9.1113032">
                <ele>124.0</ele>
                <time>2020-08-29T15:15:39.000Z</time>
                <name>Trackpoint 6754</name>
            </trkpt>
            <trkpt lat="49.9380736" lon="9.1111984">
                <ele>123.0</ele>
                <time>2020-08-29T15:15:41.000Z</time>
                <name>Trackpoint 6755</name>
            </trkpt>
            <trkpt lat="49.9381536" lon="9.111092">
                <ele>123.0</ele>
                <time>2020-08-29T15:15:43.000Z</time>
                <name>Trackpoint 6756</name>
            </trkpt>
            <trkpt lat="49.9382336" lon="9.1109896">
                <ele>123.0</ele>
                <time>2020-08-29T15:15:45.000Z</time>
                <name>Trackpoint 6757</name>
            </trkpt>
            <trkpt lat="49.9383136" lon="9.1108864">
                <ele>123.0</ele>
                <time>2020-08-29T15:15:47.000Z</time>
                <name>Trackpoint 6758</name>
            </trkpt>
            <trkpt lat="49.9383936" lon="9.1107816">
                <ele>123.0</ele>
                <time>2020-08-29T15:15:49.000Z</time>
                <name>Trackpoint 6759</name>
            </trkpt>
            <trkpt lat="49.9384736" lon="9.1106728">
                <ele>123.0</ele>
                <time>2020-08-29T15:15:51.000Z</time>
                <name>Trackpoint 6760</name>
            </trkpt>
            <trkpt lat="49.9385504" lon="9.1105832">
                <ele>123.0</ele>
                <time>2020-08-29T15:15:53.000Z</time>
                <name>Trackpoint 6761</name>
            </trkpt>
            <trkpt lat="49.9386208" lon="9.1104984">
                <ele>123.0</ele>
                <time>2020-08-29T15:15:55.000Z</time>
                <name>Trackpoint 6762</name>
            </trkpt>
            <trkpt lat="49.9386816" lon="9.1104096">
                <ele>123.0</ele>
                <time>2020-08-29T15:15:57.000Z</time>
                <name>Trackpoint 6763</name>
            </trkpt>
            <trkpt lat="49.9387424" lon="9.1103352">
                <ele>123.0</ele>
                <time>2020-08-29T15:15:59.000Z</time>
                <name>Trackpoint 6764</name>
            </trkpt>
            <trkpt lat="49.9387968" lon="9.1102632">
                <ele>123.0</ele>
                <time>2020-08-29T15:16:01.000Z</time>
                <name>Trackpoint 6765</name>
            </trkpt>
            <trkpt lat="49.9388576" lon="9.1101912">
                <ele>123.0</ele>
                <time>2020-08-29T15:16:03.000Z</time>
                <name>Trackpoint 6766</name>
            </trkpt>
            <trkpt lat="49.9389472" lon="9.1100664">
                <ele>122.0</ele>
                <time>2020-08-29T15:16:05.000Z</time>
                <name>Trackpoint 6767</name>
            </trkpt>
            <trkpt lat="49.9390176" lon="9.10998">
                <ele>123.0</ele>
                <time>2020-08-29T15:16:07.000Z</time>
                <name>Trackpoint 6768</name>
            </trkpt>
            <trkpt lat="49.9390976" lon="9.1098808">
                <ele>123.0</ele>
                <time>2020-08-29T15:16:09.000Z</time>
                <name>Trackpoint 6769</name>
            </trkpt>
            <trkpt lat="49.9391776" lon="9.1097848">
                <ele>123.0</ele>
                <time>2020-08-29T15:16:11.000Z</time>
                <name>Trackpoint 6770</name>
            </trkpt>
            <trkpt lat="49.9392672" lon="9.1096696">
                <ele>123.0</ele>
                <time>2020-08-29T15:16:13.000Z</time>
                <name>Trackpoint 6771</name>
            </trkpt>
            <trkpt lat="49.9393504" lon="9.1095648">
                <ele>123.0</ele>
                <time>2020-08-29T15:16:15.000Z</time>
                <name>Trackpoint 6772</name>
            </trkpt>
            <trkpt lat="49.9394368" lon="9.109464">
                <ele>123.0</ele>
                <time>2020-08-29T15:16:17.000Z</time>
                <name>Trackpoint 6773</name>
            </trkpt>
            <trkpt lat="49.9395168" lon="9.1093656">
                <ele>122.0</ele>
                <time>2020-08-29T15:16:19.000Z</time>
                <name>Trackpoint 6774</name>
            </trkpt>
            <trkpt lat="49.9396032" lon="9.1092752">
                <ele>123.0</ele>
                <time>2020-08-29T15:16:21.000Z</time>
                <name>Trackpoint 6775</name>
            </trkpt>
            <trkpt lat="49.939696" lon="9.1091808">
                <ele>123.0</ele>
                <time>2020-08-29T15:16:23.000Z</time>
                <name>Trackpoint 6776</name>
            </trkpt>
            <trkpt lat="49.939792" lon="9.1090944">
                <ele>123.0</ele>
                <time>2020-08-29T15:16:25.000Z</time>
                <name>Trackpoint 6777</name>
            </trkpt>
            <trkpt lat="49.9398816" lon="9.1089936">
                <ele>123.0</ele>
                <time>2020-08-29T15:16:27.000Z</time>
                <name>Trackpoint 6778</name>
            </trkpt>
            <trkpt lat="49.9399712" lon="9.1089096">
                <ele>123.0</ele>
                <time>2020-08-29T15:16:29.000Z</time>
                <name>Trackpoint 6779</name>
            </trkpt>
            <trkpt lat="49.9400544" lon="9.1088184">
                <ele>123.0</ele>
                <time>2020-08-29T15:16:31.000Z</time>
                <name>Trackpoint 6780</name>
            </trkpt>
            <trkpt lat="49.940144" lon="9.1087264">
                <ele>123.0</ele>
                <time>2020-08-29T15:16:33.000Z</time>
                <name>Trackpoint 6781</name>
            </trkpt>
            <trkpt lat="49.9402304" lon="9.10864">
                <ele>123.0</ele>
                <time>2020-08-29T15:16:35.000Z</time>
                <name>Trackpoint 6782</name>
            </trkpt>
            <trkpt lat="49.9403104" lon="9.1085616">
                <ele>123.0</ele>
                <time>2020-08-29T15:16:37.000Z</time>
                <name>Trackpoint 6783</name>
            </trkpt>
            <trkpt lat="49.9403904" lon="9.1084808">
                <ele>123.0</ele>
                <time>2020-08-29T15:16:39.000Z</time>
                <name>Trackpoint 6784</name>
            </trkpt>
            <trkpt lat="49.940464" lon="9.1083968">
                <ele>123.0</ele>
                <time>2020-08-29T15:16:41.000Z</time>
                <name>Trackpoint 6785</name>
            </trkpt>
            <trkpt lat="49.9405408" lon="9.108328">
                <ele>123.0</ele>
                <time>2020-08-29T15:16:43.000Z</time>
                <name>Trackpoint 6786</name>
            </trkpt>
            <trkpt lat="49.9406304" lon="9.1082624">
                <ele>123.0</ele>
                <time>2020-08-29T15:16:45.000Z</time>
                <name>Trackpoint 6787</name>
            </trkpt>
            <trkpt lat="49.94072" lon="9.1081888">
                <ele>122.0</ele>
                <time>2020-08-29T15:16:47.000Z</time>
                <name>Trackpoint 6788</name>
            </trkpt>
            <trkpt lat="49.9408256" lon="9.10812">
                <ele>122.0</ele>
                <time>2020-08-29T15:16:49.000Z</time>
                <name>Trackpoint 6789</name>
            </trkpt>
            <trkpt lat="49.9409248" lon="9.1080464">
                <ele>122.0</ele>
                <time>2020-08-29T15:16:51.000Z</time>
                <name>Trackpoint 6790</name>
            </trkpt>
            <trkpt lat="49.9410368" lon="9.1079768">
                <ele>122.0</ele>
                <time>2020-08-29T15:16:53.000Z</time>
                <name>Trackpoint 6791</name>
            </trkpt>
            <trkpt lat="49.9411456" lon="9.1078928">
                <ele>122.0</ele>
                <time>2020-08-29T15:16:55.000Z</time>
                <name>Trackpoint 6792</name>
            </trkpt>
            <trkpt lat="49.9412704" lon="9.1078256">
                <ele>121.0</ele>
                <time>2020-08-29T15:16:57.000Z</time>
                <name>Trackpoint 6793</name>
            </trkpt>
            <trkpt lat="49.941392" lon="9.107768">
                <ele>121.0</ele>
                <time>2020-08-29T15:16:59.000Z</time>
                <name>Trackpoint 6794</name>
            </trkpt>
            <trkpt lat="49.9415136" lon="9.1077032">
                <ele>120.0</ele>
                <time>2020-08-29T15:17:01.000Z</time>
                <name>Trackpoint 6795</name>
            </trkpt>
            <trkpt lat="49.9416224" lon="9.1076024">
                <ele>120.0</ele>
                <time>2020-08-29T15:17:03.000Z</time>
                <name>Trackpoint 6796</name>
            </trkpt>
            <trkpt lat="49.941728" lon="9.1074936">
                <ele>120.0</ele>
                <time>2020-08-29T15:17:05.000Z</time>
                <name>Trackpoint 6797</name>
            </trkpt>
            <trkpt lat="49.9418496" lon="9.1073936">
                <ele>121.0</ele>
                <time>2020-08-29T15:17:07.000Z</time>
                <name>Trackpoint 6798</name>
            </trkpt>
            <trkpt lat="49.9419744" lon="9.1073168">
                <ele>121.0</ele>
                <time>2020-08-29T15:17:09.000Z</time>
                <name>Trackpoint 6799</name>
            </trkpt>
            <trkpt lat="49.9421056" lon="9.107228">
                <ele>122.0</ele>
                <time>2020-08-29T15:17:11.000Z</time>
                <name>Trackpoint 6800</name>
            </trkpt>
            <trkpt lat="49.942224" lon="9.1071584">
                <ele>122.0</ele>
                <time>2020-08-29T15:17:13.000Z</time>
                <name>Trackpoint 6801</name>
            </trkpt>
            <trkpt lat="49.9423104" lon="9.107128">
                <ele>122.0</ele>
                <time>2020-08-29T15:17:15.000Z</time>
                <name>Trackpoint 6802</name>
            </trkpt>
            <trkpt lat="49.9423872" lon="9.1071816">
                <ele>122.0</ele>
                <time>2020-08-29T15:17:18.000Z</time>
                <name>Trackpoint 6803</name>
            </trkpt>
            <trkpt lat="49.942432" lon="9.1072632">
                <ele>122.0</ele>
                <time>2020-08-29T15:17:33.000Z</time>
                <name>Trackpoint 6804</name>
            </trkpt>
            <trkpt lat="49.9425216" lon="9.1072912">
                <ele>123.0</ele>
                <time>2020-08-29T15:18:03.000Z</time>
                <name>Trackpoint 6805</name>
            </trkpt>
            <trkpt lat="49.942592" lon="9.1073888">
                <ele>123.0</ele>
                <time>2020-08-29T15:18:06.000Z</time>
                <name>Trackpoint 6806</name>
            </trkpt>
            <trkpt lat="49.9426688" lon="9.10746">
                <ele>123.0</ele>
                <time>2020-08-29T15:18:08.000Z</time>
                <name>Trackpoint 6807</name>
            </trkpt>
            <trkpt lat="49.942752" lon="9.1075048">
                <ele>123.0</ele>
                <time>2020-08-29T15:18:10.000Z</time>
                <name>Trackpoint 6808</name>
            </trkpt>
            <trkpt lat="49.9428512" lon="9.107476">
                <ele>123.0</ele>
                <time>2020-08-29T15:18:12.000Z</time>
                <name>Trackpoint 6809</name>
            </trkpt>
            <trkpt lat="49.9429536" lon="9.1074488">
                <ele>123.0</ele>
                <time>2020-08-29T15:18:14.000Z</time>
                <name>Trackpoint 6810</name>
            </trkpt>
            <trkpt lat="49.943104" lon="9.1074064">
                <ele>123.0</ele>
                <time>2020-08-29T15:18:16.000Z</time>
                <name>Trackpoint 6811</name>
            </trkpt>
            <trkpt lat="49.9432576" lon="9.1073752">
                <ele>123.0</ele>
                <time>2020-08-29T15:18:18.000Z</time>
                <name>Trackpoint 6812</name>
            </trkpt>
            <trkpt lat="49.9433696" lon="9.1073568">
                <ele>122.0</ele>
                <time>2020-08-29T15:18:20.000Z</time>
                <name>Trackpoint 6813</name>
            </trkpt>
            <trkpt lat="49.9434752" lon="9.1073312">
                <ele>122.0</ele>
                <time>2020-08-29T15:18:22.000Z</time>
                <name>Trackpoint 6814</name>
            </trkpt>
            <trkpt lat="49.943584" lon="9.107308">
                <ele>122.0</ele>
                <time>2020-08-29T15:18:24.000Z</time>
                <name>Trackpoint 6815</name>
            </trkpt>
            <trkpt lat="49.9437088" lon="9.1072952">
                <ele>122.0</ele>
                <time>2020-08-29T15:18:26.000Z</time>
                <name>Trackpoint 6816</name>
            </trkpt>
            <trkpt lat="49.9438144" lon="9.1072664">
                <ele>122.0</ele>
                <time>2020-08-29T15:18:28.000Z</time>
                <name>Trackpoint 6817</name>
            </trkpt>
            <trkpt lat="49.9439072" lon="9.1072464">
                <ele>122.0</ele>
                <time>2020-08-29T15:18:30.000Z</time>
                <name>Trackpoint 6818</name>
            </trkpt>
            <trkpt lat="49.9440384" lon="9.1072464">
                <ele>122.0</ele>
                <time>2020-08-29T15:18:33.000Z</time>
                <name>Trackpoint 6819</name>
            </trkpt>
            <trkpt lat="49.944144" lon="9.1072304">
                <ele>122.0</ele>
                <time>2020-08-29T15:18:35.000Z</time>
                <name>Trackpoint 6820</name>
            </trkpt>
            <trkpt lat="49.944272" lon="9.10722">
                <ele>122.0</ele>
                <time>2020-08-29T15:18:37.000Z</time>
                <name>Trackpoint 6821</name>
            </trkpt>
            <trkpt lat="49.9444128" lon="9.1072256">
                <ele>122.0</ele>
                <time>2020-08-29T15:18:40.000Z</time>
                <name>Trackpoint 6822</name>
            </trkpt>
            <trkpt lat="49.944512" lon="9.1072304">
                <ele>122.0</ele>
                <time>2020-08-29T15:18:42.000Z</time>
                <name>Trackpoint 6823</name>
            </trkpt>
            <trkpt lat="49.9446112" lon="9.1072264">
                <ele>122.0</ele>
                <time>2020-08-29T15:18:44.000Z</time>
                <name>Trackpoint 6824</name>
            </trkpt>
            <trkpt lat="49.9447104" lon="9.1071928">
                <ele>122.0</ele>
                <time>2020-08-29T15:18:46.000Z</time>
                <name>Trackpoint 6825</name>
            </trkpt>
            <trkpt lat="49.9448064" lon="9.1071816">
                <ele>121.0</ele>
                <time>2020-08-29T15:18:47.000Z</time>
                <name>Trackpoint 6826</name>
            </trkpt>
            <trkpt lat="49.9448992" lon="9.1071816">
                <ele>121.0</ele>
                <time>2020-08-29T15:18:49.000Z</time>
                <name>Trackpoint 6827</name>
            </trkpt>
            <trkpt lat="49.9450432" lon="9.1071832">
                <ele>121.0</ele>
                <time>2020-08-29T15:18:52.000Z</time>
                <name>Trackpoint 6828</name>
            </trkpt>
            <trkpt lat="49.9451744" lon="9.1071752">
                <ele>120.0</ele>
                <time>2020-08-29T15:18:55.000Z</time>
                <name>Trackpoint 6829</name>
            </trkpt>
            <trkpt lat="49.945312" lon="9.107192">
                <ele>120.0</ele>
                <time>2020-08-29T15:18:57.000Z</time>
                <name>Trackpoint 6830</name>
            </trkpt>
            <trkpt lat="49.9454144" lon="9.1072128">
                <ele>120.0</ele>
                <time>2020-08-29T15:18:59.000Z</time>
                <name>Trackpoint 6831</name>
            </trkpt>
            <trkpt lat="49.9454944" lon="9.10726">
                <ele>120.0</ele>
                <time>2020-08-29T15:19:01.000Z</time>
                <name>Trackpoint 6832</name>
            </trkpt>
            <trkpt lat="49.945584" lon="9.10728">
                <ele>120.0</ele>
                <time>2020-08-29T15:19:03.000Z</time>
                <name>Trackpoint 6833</name>
            </trkpt>
            <trkpt lat="49.94568" lon="9.1073048">
                <ele>120.0</ele>
                <time>2020-08-29T15:19:05.000Z</time>
                <name>Trackpoint 6834</name>
            </trkpt>
            <trkpt lat="49.9457664" lon="9.1073368">
                <ele>120.0</ele>
                <time>2020-08-29T15:19:07.000Z</time>
                <name>Trackpoint 6835</name>
            </trkpt>
            <trkpt lat="49.9458624" lon="9.1073712">
                <ele>120.0</ele>
                <time>2020-08-29T15:19:10.000Z</time>
                <name>Trackpoint 6836</name>
            </trkpt>
            <trkpt lat="49.945952" lon="9.1074184">
                <ele>120.0</ele>
                <time>2020-08-29T15:19:13.000Z</time>
                <name>Trackpoint 6837</name>
            </trkpt>
            <trkpt lat="49.9460864" lon="9.1074648">
                <ele>120.0</ele>
                <time>2020-08-29T15:19:16.000Z</time>
                <name>Trackpoint 6838</name>
            </trkpt>
            <trkpt lat="49.9462048" lon="9.1075032">
                <ele>121.0</ele>
                <time>2020-08-29T15:19:18.000Z</time>
                <name>Trackpoint 6839</name>
            </trkpt>
            <trkpt lat="49.9463424" lon="9.107536">
                <ele>121.0</ele>
                <time>2020-08-29T15:19:20.000Z</time>
                <name>Trackpoint 6840</name>
            </trkpt>
            <trkpt lat="49.9464576" lon="9.1075696">
                <ele>121.0</ele>
                <time>2020-08-29T15:19:22.000Z</time>
                <name>Trackpoint 6841</name>
            </trkpt>
            <trkpt lat="49.9465632" lon="9.1076096">
                <ele>120.0</ele>
                <time>2020-08-29T15:19:24.000Z</time>
                <name>Trackpoint 6842</name>
            </trkpt>
            <trkpt lat="49.9466784" lon="9.1076672">
                <ele>120.0</ele>
                <time>2020-08-29T15:19:27.000Z</time>
                <name>Trackpoint 6843</name>
            </trkpt>
            <trkpt lat="49.9467936" lon="9.1077144">
                <ele>121.0</ele>
                <time>2020-08-29T15:19:29.000Z</time>
                <name>Trackpoint 6844</name>
            </trkpt>
            <trkpt lat="49.946912" lon="9.1077696">
                <ele>120.0</ele>
                <time>2020-08-29T15:19:31.000Z</time>
                <name>Trackpoint 6845</name>
            </trkpt>
            <trkpt lat="49.9470176" lon="9.1078184">
                <ele>120.0</ele>
                <time>2020-08-29T15:19:33.000Z</time>
                <name>Trackpoint 6846</name>
            </trkpt>
            <trkpt lat="49.9471104" lon="9.107872">
                <ele>120.0</ele>
                <time>2020-08-29T15:19:35.000Z</time>
                <name>Trackpoint 6847</name>
            </trkpt>
            <trkpt lat="49.9472" lon="9.1079232">
                <ele>120.0</ele>
                <time>2020-08-29T15:19:37.000Z</time>
                <name>Trackpoint 6848</name>
            </trkpt>
            <trkpt lat="49.9472896" lon="9.1079768">
                <ele>120.0</ele>
                <time>2020-08-29T15:19:39.000Z</time>
                <name>Trackpoint 6849</name>
            </trkpt>
            <trkpt lat="49.9473696" lon="9.1080288">
                <ele>120.0</ele>
                <time>2020-08-29T15:19:41.000Z</time>
                <name>Trackpoint 6850</name>
            </trkpt>
            <trkpt lat="49.9474816" lon="9.1080904">
                <ele>120.0</ele>
                <time>2020-08-29T15:19:43.000Z</time>
                <name>Trackpoint 6851</name>
            </trkpt>
            <trkpt lat="49.9475936" lon="9.1081688">
                <ele>120.0</ele>
                <time>2020-08-29T15:19:45.000Z</time>
                <name>Trackpoint 6852</name>
            </trkpt>
            <trkpt lat="49.94768" lon="9.1082248">
                <ele>119.0</ele>
                <time>2020-08-29T15:19:46.000Z</time>
                <name>Trackpoint 6853</name>
            </trkpt>
            <trkpt lat="49.947776" lon="9.1082984">
                <ele>118.0</ele>
                <time>2020-08-29T15:19:48.000Z</time>
                <name>Trackpoint 6854</name>
            </trkpt>
            <trkpt lat="49.9478688" lon="9.1083736">
                <ele>118.0</ele>
                <time>2020-08-29T15:19:50.000Z</time>
                <name>Trackpoint 6855</name>
            </trkpt>
            <trkpt lat="49.947968" lon="9.1084568">
                <ele>118.0</ele>
                <time>2020-08-29T15:19:52.000Z</time>
                <name>Trackpoint 6856</name>
            </trkpt>
            <trkpt lat="49.9480896" lon="9.1085528">
                <ele>117.0</ele>
                <time>2020-08-29T15:19:54.000Z</time>
                <name>Trackpoint 6857</name>
            </trkpt>
            <trkpt lat="49.9481888" lon="9.1086328">
                <ele>116.0</ele>
                <time>2020-08-29T15:19:56.000Z</time>
                <name>Trackpoint 6858</name>
            </trkpt>
            <trkpt lat="49.9482912" lon="9.1087176">
                <ele>115.0</ele>
                <time>2020-08-29T15:19:58.000Z</time>
                <name>Trackpoint 6859</name>
            </trkpt>
            <trkpt lat="49.9483808" lon="9.108804">
                <ele>115.0</ele>
                <time>2020-08-29T15:20:00.000Z</time>
                <name>Trackpoint 6860</name>
            </trkpt>
            <trkpt lat="49.9484672" lon="9.1088888">
                <ele>115.0</ele>
                <time>2020-08-29T15:20:02.000Z</time>
                <name>Trackpoint 6861</name>
            </trkpt>
            <trkpt lat="49.9485536" lon="9.10898">
                <ele>115.0</ele>
                <time>2020-08-29T15:20:04.000Z</time>
                <name>Trackpoint 6862</name>
            </trkpt>
            <trkpt lat="49.9486336" lon="9.1090672">
                <ele>115.0</ele>
                <time>2020-08-29T15:20:06.000Z</time>
                <name>Trackpoint 6863</name>
            </trkpt>
            <trkpt lat="49.9487392" lon="9.1091584">
                <ele>114.0</ele>
                <time>2020-08-29T15:20:08.000Z</time>
                <name>Trackpoint 6864</name>
            </trkpt>
            <trkpt lat="49.9488256" lon="9.1092528">
                <ele>114.0</ele>
                <time>2020-08-29T15:20:10.000Z</time>
                <name>Trackpoint 6865</name>
            </trkpt>
            <trkpt lat="49.9489184" lon="9.1093432">
                <ele>113.0</ele>
                <time>2020-08-29T15:20:12.000Z</time>
                <name>Trackpoint 6866</name>
            </trkpt>
            <trkpt lat="49.9490016" lon="9.1094248">
                <ele>113.0</ele>
                <time>2020-08-29T15:20:14.000Z</time>
                <name>Trackpoint 6867</name>
            </trkpt>
            <trkpt lat="49.9490848" lon="9.1095168">
                <ele>113.0</ele>
                <time>2020-08-29T15:20:17.000Z</time>
                <name>Trackpoint 6868</name>
            </trkpt>
            <trkpt lat="49.9491616" lon="9.1096224">
                <ele>114.0</ele>
                <time>2020-08-29T15:20:20.000Z</time>
                <name>Trackpoint 6869</name>
            </trkpt>
            <trkpt lat="49.9492224" lon="9.1097136">
                <ele>114.0</ele>
                <time>2020-08-29T15:20:22.000Z</time>
                <name>Trackpoint 6870</name>
            </trkpt>
            <trkpt lat="49.9493024" lon="9.109812">
                <ele>114.0</ele>
                <time>2020-08-29T15:20:24.000Z</time>
                <name>Trackpoint 6871</name>
            </trkpt>
            <trkpt lat="49.949376" lon="9.1099232">
                <ele>114.0</ele>
                <time>2020-08-29T15:20:26.000Z</time>
                <name>Trackpoint 6872</name>
            </trkpt>
            <trkpt lat="49.94944" lon="9.1100232">
                <ele>115.0</ele>
                <time>2020-08-29T15:20:28.000Z</time>
                <name>Trackpoint 6873</name>
            </trkpt>
            <trkpt lat="49.9494816" lon="9.110104">
                <ele>114.0</ele>
                <time>2020-08-29T15:20:30.000Z</time>
                <name>Trackpoint 6874</name>
            </trkpt>
            <trkpt lat="49.9495392" lon="9.1101936">
                <ele>114.0</ele>
                <time>2020-08-29T15:20:32.000Z</time>
                <name>Trackpoint 6875</name>
            </trkpt>
            <trkpt lat="49.949584" lon="9.110296">
                <ele>114.0</ele>
                <time>2020-08-29T15:20:34.000Z</time>
                <name>Trackpoint 6876</name>
            </trkpt>
            <trkpt lat="49.9496544" lon="9.1104032">
                <ele>114.0</ele>
                <time>2020-08-29T15:20:36.000Z</time>
                <name>Trackpoint 6877</name>
            </trkpt>
            <trkpt lat="49.9497184" lon="9.110492">
                <ele>114.0</ele>
                <time>2020-08-29T15:20:38.000Z</time>
                <name>Trackpoint 6878</name>
            </trkpt>
            <trkpt lat="49.9497728" lon="9.110592">
                <ele>114.0</ele>
                <time>2020-08-29T15:20:40.000Z</time>
                <name>Trackpoint 6879</name>
            </trkpt>
            <trkpt lat="49.9497984" lon="9.11068">
                <ele>114.0</ele>
                <time>2020-08-29T15:20:41.000Z</time>
                <name>Trackpoint 6880</name>
            </trkpt>
            <trkpt lat="49.9498752" lon="9.1108304">
                <ele>114.0</ele>
                <time>2020-08-29T15:20:43.000Z</time>
                <name>Trackpoint 6881</name>
            </trkpt>
            <trkpt lat="49.9499552" lon="9.1109584">
                <ele>114.0</ele>
                <time>2020-08-29T15:20:45.000Z</time>
                <name>Trackpoint 6882</name>
            </trkpt>
            <trkpt lat="49.950048" lon="9.1110784">
                <ele>114.0</ele>
                <time>2020-08-29T15:20:47.000Z</time>
                <name>Trackpoint 6883</name>
            </trkpt>
            <trkpt lat="49.9501568" lon="9.1112">
                <ele>114.0</ele>
                <time>2020-08-29T15:20:49.000Z</time>
                <name>Trackpoint 6884</name>
            </trkpt>
            <trkpt lat="49.9502208" lon="9.1113352">
                <ele>114.0</ele>
                <time>2020-08-29T15:20:51.000Z</time>
                <name>Trackpoint 6885</name>
            </trkpt>
            <trkpt lat="49.9503104" lon="9.1114568">
                <ele>114.0</ele>
                <time>2020-08-29T15:20:53.000Z</time>
                <name>Trackpoint 6886</name>
            </trkpt>
            <trkpt lat="49.9503776" lon="9.1115704">
                <ele>114.0</ele>
                <time>2020-08-29T15:20:55.000Z</time>
                <name>Trackpoint 6887</name>
            </trkpt>
            <trkpt lat="49.950448" lon="9.1116848">
                <ele>114.0</ele>
                <time>2020-08-29T15:20:57.000Z</time>
                <name>Trackpoint 6888</name>
            </trkpt>
            <trkpt lat="49.9505472" lon="9.1118296">
                <ele>114.0</ele>
                <time>2020-08-29T15:20:59.000Z</time>
                <name>Trackpoint 6889</name>
            </trkpt>
            <trkpt lat="49.9506464" lon="9.1119736">
                <ele>114.0</ele>
                <time>2020-08-29T15:21:01.000Z</time>
                <name>Trackpoint 6890</name>
            </trkpt>
            <trkpt lat="49.9507232" lon="9.1121016">
                <ele>114.0</ele>
                <time>2020-08-29T15:21:03.000Z</time>
                <name>Trackpoint 6891</name>
            </trkpt>
            <trkpt lat="49.9507776" lon="9.1122168">
                <ele>114.0</ele>
                <time>2020-08-29T15:21:05.000Z</time>
                <name>Trackpoint 6892</name>
            </trkpt>
            <trkpt lat="49.9508352" lon="9.1123288">
                <ele>113.0</ele>
                <time>2020-08-29T15:21:07.000Z</time>
                <name>Trackpoint 6893</name>
            </trkpt>
            <trkpt lat="49.9508864" lon="9.1124288">
                <ele>114.0</ele>
                <time>2020-08-29T15:21:09.000Z</time>
                <name>Trackpoint 6894</name>
            </trkpt>
            <trkpt lat="49.9509248" lon="9.1125408">
                <ele>113.0</ele>
                <time>2020-08-29T15:21:11.000Z</time>
                <name>Trackpoint 6895</name>
            </trkpt>
            <trkpt lat="49.950992" lon="9.1126768">
                <ele>114.0</ele>
                <time>2020-08-29T15:21:13.000Z</time>
                <name>Trackpoint 6896</name>
            </trkpt>
            <trkpt lat="49.9510432" lon="9.1128">
                <ele>114.0</ele>
                <time>2020-08-29T15:21:15.000Z</time>
                <name>Trackpoint 6897</name>
            </trkpt>
            <trkpt lat="49.9511456" lon="9.112928">
                <ele>114.0</ele>
                <time>2020-08-29T15:21:17.000Z</time>
                <name>Trackpoint 6898</name>
            </trkpt>
            <trkpt lat="49.9512064" lon="9.1130448">
                <ele>114.0</ele>
                <time>2020-08-29T15:21:19.000Z</time>
                <name>Trackpoint 6899</name>
            </trkpt>
            <trkpt lat="49.95128" lon="9.1131736">
                <ele>114.0</ele>
                <time>2020-08-29T15:21:21.000Z</time>
                <name>Trackpoint 6900</name>
            </trkpt>
            <trkpt lat="49.9513408" lon="9.1132984">
                <ele>114.0</ele>
                <time>2020-08-29T15:21:23.000Z</time>
                <name>Trackpoint 6901</name>
            </trkpt>
            <trkpt lat="49.951392" lon="9.113428">
                <ele>114.0</ele>
                <time>2020-08-29T15:21:25.000Z</time>
                <name>Trackpoint 6902</name>
            </trkpt>
            <trkpt lat="49.9514496" lon="9.113548">
                <ele>114.0</ele>
                <time>2020-08-29T15:21:27.000Z</time>
                <name>Trackpoint 6903</name>
            </trkpt>
            <trkpt lat="49.9515008" lon="9.1136568">
                <ele>114.0</ele>
                <time>2020-08-29T15:21:29.000Z</time>
                <name>Trackpoint 6904</name>
            </trkpt>
            <trkpt lat="49.9515776" lon="9.1138048">
                <ele>114.0</ele>
                <time>2020-08-29T15:21:31.000Z</time>
                <name>Trackpoint 6905</name>
            </trkpt>
            <trkpt lat="49.9516448" lon="9.113932">
                <ele>114.0</ele>
                <time>2020-08-29T15:21:33.000Z</time>
                <name>Trackpoint 6906</name>
            </trkpt>
            <trkpt lat="49.9516896" lon="9.1140472">
                <ele>114.0</ele>
                <time>2020-08-29T15:21:35.000Z</time>
                <name>Trackpoint 6907</name>
            </trkpt>
            <trkpt lat="49.95176" lon="9.1141832">
                <ele>114.0</ele>
                <time>2020-08-29T15:21:37.000Z</time>
                <name>Trackpoint 6908</name>
            </trkpt>
            <trkpt lat="49.951824" lon="9.1143248">
                <ele>114.0</ele>
                <time>2020-08-29T15:21:39.000Z</time>
                <name>Trackpoint 6909</name>
            </trkpt>
            <trkpt lat="49.9518752" lon="9.1144016">
                <ele>114.0</ele>
                <time>2020-08-29T15:21:40.000Z</time>
                <name>Trackpoint 6910</name>
            </trkpt>
            <trkpt lat="49.9519232" lon="9.1144816">
                <ele>113.0</ele>
                <time>2020-08-29T15:21:41.000Z</time>
                <name>Trackpoint 6911</name>
            </trkpt>
            <trkpt lat="49.9519872" lon="9.114612">
                <ele>114.0</ele>
                <time>2020-08-29T15:21:43.000Z</time>
                <name>Trackpoint 6912</name>
            </trkpt>
            <trkpt lat="49.9520576" lon="9.1147472">
                <ele>114.0</ele>
                <time>2020-08-29T15:21:45.000Z</time>
                <name>Trackpoint 6913</name>
            </trkpt>
            <trkpt lat="49.952144" lon="9.1148864">
                <ele>113.0</ele>
                <time>2020-08-29T15:21:47.000Z</time>
                <name>Trackpoint 6914</name>
            </trkpt>
            <trkpt lat="49.9521952" lon="9.1149656">
                <ele>113.0</ele>
                <time>2020-08-29T15:21:48.000Z</time>
                <name>Trackpoint 6915</name>
            </trkpt>
            <trkpt lat="49.9522464" lon="9.1150976">
                <ele>113.0</ele>
                <time>2020-08-29T15:21:50.000Z</time>
                <name>Trackpoint 6916</name>
            </trkpt>
            <trkpt lat="49.952304" lon="9.1152216">
                <ele>113.0</ele>
                <time>2020-08-29T15:21:52.000Z</time>
                <name>Trackpoint 6917</name>
            </trkpt>
            <trkpt lat="49.9523392" lon="9.115348">
                <ele>113.0</ele>
                <time>2020-08-29T15:21:54.000Z</time>
                <name>Trackpoint 6918</name>
            </trkpt>
            <trkpt lat="49.9524128" lon="9.1154808">
                <ele>113.0</ele>
                <time>2020-08-29T15:21:56.000Z</time>
                <name>Trackpoint 6919</name>
            </trkpt>
            <trkpt lat="49.9524864" lon="9.1156216">
                <ele>113.0</ele>
                <time>2020-08-29T15:21:58.000Z</time>
                <name>Trackpoint 6920</name>
            </trkpt>
            <trkpt lat="49.9525632" lon="9.1157488">
                <ele>113.0</ele>
                <time>2020-08-29T15:22:00.000Z</time>
                <name>Trackpoint 6921</name>
            </trkpt>
            <trkpt lat="49.9525984" lon="9.1158752">
                <ele>113.0</ele>
                <time>2020-08-29T15:22:02.000Z</time>
                <name>Trackpoint 6922</name>
            </trkpt>
            <trkpt lat="49.9526752" lon="9.1160136">
                <ele>113.0</ele>
                <time>2020-08-29T15:22:04.000Z</time>
                <name>Trackpoint 6923</name>
            </trkpt>
            <trkpt lat="49.95272" lon="9.1161448">
                <ele>113.0</ele>
                <time>2020-08-29T15:22:06.000Z</time>
                <name>Trackpoint 6924</name>
            </trkpt>
            <trkpt lat="49.9527712" lon="9.1162728">
                <ele>113.0</ele>
                <time>2020-08-29T15:22:08.000Z</time>
                <name>Trackpoint 6925</name>
            </trkpt>
            <trkpt lat="49.9528224" lon="9.1163968">
                <ele>113.0</ele>
                <time>2020-08-29T15:22:10.000Z</time>
                <name>Trackpoint 6926</name>
            </trkpt>
            <trkpt lat="49.952896" lon="9.1165312">
                <ele>114.0</ele>
                <time>2020-08-29T15:22:12.000Z</time>
                <name>Trackpoint 6927</name>
            </trkpt>
            <trkpt lat="49.9529728" lon="9.1166696">
                <ele>114.0</ele>
                <time>2020-08-29T15:22:14.000Z</time>
                <name>Trackpoint 6928</name>
            </trkpt>
            <trkpt lat="49.9530304" lon="9.1167424">
                <ele>114.0</ele>
                <time>2020-08-29T15:22:15.000Z</time>
                <name>Trackpoint 6929</name>
            </trkpt>
            <trkpt lat="49.9530976" lon="9.1168568">
                <ele>114.0</ele>
                <time>2020-08-29T15:22:17.000Z</time>
                <name>Trackpoint 6930</name>
            </trkpt>
            <trkpt lat="49.9531392" lon="9.116968">
                <ele>114.0</ele>
                <time>2020-08-29T15:22:19.000Z</time>
                <name>Trackpoint 6931</name>
            </trkpt>
            <trkpt lat="49.953216" lon="9.1170928">
                <ele>114.0</ele>
                <time>2020-08-29T15:22:21.000Z</time>
                <name>Trackpoint 6932</name>
            </trkpt>
            <trkpt lat="49.953296" lon="9.1172048">
                <ele>114.0</ele>
                <time>2020-08-29T15:22:23.000Z</time>
                <name>Trackpoint 6933</name>
            </trkpt>
            <trkpt lat="49.953344" lon="9.1172848">
                <ele>114.0</ele>
                <time>2020-08-29T15:22:24.000Z</time>
                <name>Trackpoint 6934</name>
            </trkpt>
            <trkpt lat="49.9534112" lon="9.1174">
                <ele>114.0</ele>
                <time>2020-08-29T15:22:26.000Z</time>
                <name>Trackpoint 6935</name>
            </trkpt>
            <trkpt lat="49.9534944" lon="9.1175144">
                <ele>114.0</ele>
                <time>2020-08-29T15:22:28.000Z</time>
                <name>Trackpoint 6936</name>
            </trkpt>
            <trkpt lat="49.9535264" lon="9.1176256">
                <ele>114.0</ele>
                <time>2020-08-29T15:22:30.000Z</time>
                <name>Trackpoint 6937</name>
            </trkpt>
            <trkpt lat="49.9535744" lon="9.1177328">
                <ele>114.0</ele>
                <time>2020-08-29T15:22:32.000Z</time>
                <name>Trackpoint 6938</name>
            </trkpt>
            <trkpt lat="49.9536288" lon="9.1178504">
                <ele>113.0</ele>
                <time>2020-08-29T15:22:34.000Z</time>
                <name>Trackpoint 6939</name>
            </trkpt>
            <trkpt lat="49.9536928" lon="9.1179648">
                <ele>114.0</ele>
                <time>2020-08-29T15:22:36.000Z</time>
                <name>Trackpoint 6940</name>
            </trkpt>
            <trkpt lat="49.953744" lon="9.1180512">
                <ele>114.0</ele>
                <time>2020-08-29T15:22:38.000Z</time>
                <name>Trackpoint 6941</name>
            </trkpt>
            <trkpt lat="49.9537888" lon="9.1181352">
                <ele>114.0</ele>
                <time>2020-08-29T15:22:40.000Z</time>
                <name>Trackpoint 6942</name>
            </trkpt>
            <trkpt lat="49.9538272" lon="9.1182216">
                <ele>114.0</ele>
                <time>2020-08-29T15:22:49.000Z</time>
                <name>Trackpoint 6943</name>
            </trkpt>
            <trkpt lat="49.953872" lon="9.1183096">
                <ele>114.0</ele>
                <time>2020-08-29T15:23:12.000Z</time>
                <name>Trackpoint 6944</name>
            </trkpt>
            <trkpt lat="49.9539296" lon="9.1184264">
                <ele>114.0</ele>
                <time>2020-08-29T15:23:15.000Z</time>
                <name>Trackpoint 6945</name>
            </trkpt>
            <trkpt lat="49.9539808" lon="9.1185128">
                <ele>114.0</ele>
                <time>2020-08-29T15:23:17.000Z</time>
                <name>Trackpoint 6946</name>
            </trkpt>
            <trkpt lat="49.954032" lon="9.1186048">
                <ele>114.0</ele>
                <time>2020-08-29T15:23:19.000Z</time>
                <name>Trackpoint 6947</name>
            </trkpt>
            <trkpt lat="49.9541088" lon="9.1186896">
                <ele>114.0</ele>
                <time>2020-08-29T15:23:21.000Z</time>
                <name>Trackpoint 6948</name>
            </trkpt>
            <trkpt lat="49.9541792" lon="9.118776">
                <ele>114.0</ele>
                <time>2020-08-29T15:23:23.000Z</time>
                <name>Trackpoint 6949</name>
            </trkpt>
            <trkpt lat="49.9542464" lon="9.1188736">
                <ele>114.0</ele>
                <time>2020-08-29T15:23:25.000Z</time>
                <name>Trackpoint 6950</name>
            </trkpt>
            <trkpt lat="49.9543264" lon="9.11896">
                <ele>114.0</ele>
                <time>2020-08-29T15:23:27.000Z</time>
                <name>Trackpoint 6951</name>
            </trkpt>
            <trkpt lat="49.9544032" lon="9.1190504">
                <ele>114.0</ele>
                <time>2020-08-29T15:23:29.000Z</time>
                <name>Trackpoint 6952</name>
            </trkpt>
            <trkpt lat="49.9544672" lon="9.1191704">
                <ele>114.0</ele>
                <time>2020-08-29T15:23:31.000Z</time>
                <name>Trackpoint 6953</name>
            </trkpt>
            <trkpt lat="49.9545248" lon="9.1192976">
                <ele>114.0</ele>
                <time>2020-08-29T15:23:33.000Z</time>
                <name>Trackpoint 6954</name>
            </trkpt>
            <trkpt lat="49.9545824" lon="9.1194184">
                <ele>114.0</ele>
                <time>2020-08-29T15:23:35.000Z</time>
                <name>Trackpoint 6955</name>
            </trkpt>
            <trkpt lat="49.95464" lon="9.119532">
                <ele>114.0</ele>
                <time>2020-08-29T15:23:37.000Z</time>
                <name>Trackpoint 6956</name>
            </trkpt>
            <trkpt lat="49.9547008" lon="9.1196544">
                <ele>114.0</ele>
                <time>2020-08-29T15:23:39.000Z</time>
                <name>Trackpoint 6957</name>
            </trkpt>
            <trkpt lat="49.9547488" lon="9.1197752">
                <ele>114.0</ele>
                <time>2020-08-29T15:23:41.000Z</time>
                <name>Trackpoint 6958</name>
            </trkpt>
            <trkpt lat="49.9548064" lon="9.1198904">
                <ele>114.0</ele>
                <time>2020-08-29T15:23:43.000Z</time>
                <name>Trackpoint 6959</name>
            </trkpt>
            <trkpt lat="49.9548672" lon="9.1200064">
                <ele>115.0</ele>
                <time>2020-08-29T15:23:45.000Z</time>
                <name>Trackpoint 6960</name>
            </trkpt>
            <trkpt lat="49.9549216" lon="9.1201312">
                <ele>114.0</ele>
                <time>2020-08-29T15:23:47.000Z</time>
                <name>Trackpoint 6961</name>
            </trkpt>
            <trkpt lat="49.9549824" lon="9.12026">
                <ele>115.0</ele>
                <time>2020-08-29T15:23:49.000Z</time>
                <name>Trackpoint 6962</name>
            </trkpt>
            <trkpt lat="49.955056" lon="9.1203968">
                <ele>115.0</ele>
                <time>2020-08-29T15:23:51.000Z</time>
                <name>Trackpoint 6963</name>
            </trkpt>
            <trkpt lat="49.95512" lon="9.1205184">
                <ele>115.0</ele>
                <time>2020-08-29T15:23:53.000Z</time>
                <name>Trackpoint 6964</name>
            </trkpt>
            <trkpt lat="49.955184" lon="9.1206368">
                <ele>115.0</ele>
                <time>2020-08-29T15:23:55.000Z</time>
                <name>Trackpoint 6965</name>
            </trkpt>
            <trkpt lat="49.9552544" lon="9.1207512">
                <ele>115.0</ele>
                <time>2020-08-29T15:23:57.000Z</time>
                <name>Trackpoint 6966</name>
            </trkpt>
            <trkpt lat="49.9553024" lon="9.1208624">
                <ele>115.0</ele>
                <time>2020-08-29T15:23:59.000Z</time>
                <name>Trackpoint 6967</name>
            </trkpt>
            <trkpt lat="49.9553056" lon="9.1209632">
                <ele>115.0</ele>
                <time>2020-08-29T15:24:01.000Z</time>
                <name>Trackpoint 6968</name>
            </trkpt>
            <trkpt lat="49.9552576" lon="9.1210848">
                <ele>115.0</ele>
                <time>2020-08-29T15:24:04.000Z</time>
                <name>Trackpoint 6969</name>
            </trkpt>
            <trkpt lat="49.955264" lon="9.1211768">
                <ele>115.0</ele>
                <time>2020-08-29T15:24:06.000Z</time>
                <name>Trackpoint 6970</name>
            </trkpt>
            <trkpt lat="49.95528" lon="9.1212752">
                <ele>115.0</ele>
                <time>2020-08-29T15:24:08.000Z</time>
                <name>Trackpoint 6971</name>
            </trkpt>
            <trkpt lat="49.9552704" lon="9.1213888">
                <ele>115.0</ele>
                <time>2020-08-29T15:24:10.000Z</time>
                <name>Trackpoint 6972</name>
            </trkpt>
            <trkpt lat="49.9552256" lon="9.1214912">
                <ele>115.0</ele>
                <time>2020-08-29T15:24:12.000Z</time>
                <name>Trackpoint 6973</name>
            </trkpt>
            <trkpt lat="49.9551744" lon="9.1215912">
                <ele>114.0</ele>
                <time>2020-08-29T15:24:14.000Z</time>
                <name>Trackpoint 6974</name>
            </trkpt>
            <trkpt lat="49.9551232" lon="9.1216872">
                <ele>114.0</ele>
                <time>2020-08-29T15:24:16.000Z</time>
                <name>Trackpoint 6975</name>
            </trkpt>
            <trkpt lat="49.9550784" lon="9.121788">
                <ele>114.0</ele>
                <time>2020-08-29T15:24:18.000Z</time>
                <name>Trackpoint 6976</name>
            </trkpt>
            <trkpt lat="49.9550208" lon="9.1219">
                <ele>114.0</ele>
                <time>2020-08-29T15:24:20.000Z</time>
                <name>Trackpoint 6977</name>
            </trkpt>
            <trkpt lat="49.954976" lon="9.1220104">
                <ele>113.0</ele>
                <time>2020-08-29T15:24:22.000Z</time>
                <name>Trackpoint 6978</name>
            </trkpt>
            <trkpt lat="49.9549216" lon="9.1221248">
                <ele>113.0</ele>
                <time>2020-08-29T15:24:24.000Z</time>
                <name>Trackpoint 6979</name>
            </trkpt>
            <trkpt lat="49.9548768" lon="9.122256">
                <ele>112.0</ele>
                <time>2020-08-29T15:24:26.000Z</time>
                <name>Trackpoint 6980</name>
            </trkpt>
            <trkpt lat="49.9548608" lon="9.1224048">
                <ele>112.0</ele>
                <time>2020-08-29T15:24:28.000Z</time>
                <name>Trackpoint 6981</name>
            </trkpt>
            <trkpt lat="49.95488" lon="9.1225632">
                <ele>112.0</ele>
                <time>2020-08-29T15:24:30.000Z</time>
                <name>Trackpoint 6982</name>
            </trkpt>
            <trkpt lat="49.9549248" lon="9.1227152">
                <ele>112.0</ele>
                <time>2020-08-29T15:24:32.000Z</time>
                <name>Trackpoint 6983</name>
            </trkpt>
            <trkpt lat="49.9549824" lon="9.12286">
                <ele>112.0</ele>
                <time>2020-08-29T15:24:34.000Z</time>
                <name>Trackpoint 6984</name>
            </trkpt>
            <trkpt lat="49.9550464" lon="9.123">
                <ele>112.0</ele>
                <time>2020-08-29T15:24:36.000Z</time>
                <name>Trackpoint 6985</name>
            </trkpt>
            <trkpt lat="49.955104" lon="9.1231472">
                <ele>112.0</ele>
                <time>2020-08-29T15:24:38.000Z</time>
                <name>Trackpoint 6986</name>
            </trkpt>
            <trkpt lat="49.9551712" lon="9.1232968">
                <ele>112.0</ele>
                <time>2020-08-29T15:24:40.000Z</time>
                <name>Trackpoint 6987</name>
            </trkpt>
            <trkpt lat="49.9552224" lon="9.1234192">
                <ele>112.0</ele>
                <time>2020-08-29T15:24:42.000Z</time>
                <name>Trackpoint 6988</name>
            </trkpt>
            <trkpt lat="49.9552832" lon="9.1235552">
                <ele>112.0</ele>
                <time>2020-08-29T15:24:44.000Z</time>
                <name>Trackpoint 6989</name>
            </trkpt>
            <trkpt lat="49.9553536" lon="9.1236848">
                <ele>112.0</ele>
                <time>2020-08-29T15:24:46.000Z</time>
                <name>Trackpoint 6990</name>
            </trkpt>
            <trkpt lat="49.9554144" lon="9.1238136">
                <ele>112.0</ele>
                <time>2020-08-29T15:24:48.000Z</time>
                <name>Trackpoint 6991</name>
            </trkpt>
            <trkpt lat="49.9554752" lon="9.1239432">
                <ele>112.0</ele>
                <time>2020-08-29T15:24:50.000Z</time>
                <name>Trackpoint 6992</name>
            </trkpt>
            <trkpt lat="49.9555296" lon="9.1240784">
                <ele>112.0</ele>
                <time>2020-08-29T15:24:52.000Z</time>
                <name>Trackpoint 6993</name>
            </trkpt>
            <trkpt lat="49.9555904" lon="9.1242088">
                <ele>112.0</ele>
                <time>2020-08-29T15:24:54.000Z</time>
                <name>Trackpoint 6994</name>
            </trkpt>
            <trkpt lat="49.9556384" lon="9.1243264">
                <ele>112.0</ele>
                <time>2020-08-29T15:24:56.000Z</time>
                <name>Trackpoint 6995</name>
            </trkpt>
            <trkpt lat="49.9556928" lon="9.1244296">
                <ele>112.0</ele>
                <time>2020-08-29T15:24:58.000Z</time>
                <name>Trackpoint 6996</name>
            </trkpt>
            <trkpt lat="49.9557472" lon="9.12452">
                <ele>112.0</ele>
                <time>2020-08-29T15:25:00.000Z</time>
                <name>Trackpoint 6997</name>
            </trkpt>
            <trkpt lat="49.9557984" lon="9.1246168">
                <ele>112.0</ele>
                <time>2020-08-29T15:25:03.000Z</time>
                <name>Trackpoint 6998</name>
            </trkpt>
            <trkpt lat="49.95584" lon="9.1247104">
                <ele>112.0</ele>
                <time>2020-08-29T15:57:19.000Z</time>
                <name>Trackpoint 6999</name>
            </trkpt>
            <trkpt lat="49.955856" lon="9.1247264">
                <ele>112.0</ele>
                <time>2020-08-29T15:58:24.000Z</time>
                <name>Trackpoint 7000</name>
            </trkpt>
            <trkpt lat="49.95592" lon="9.1247952">
                <ele>113.0</ele>
                <time>2020-08-29T15:58:39.000Z</time>
                <name>Trackpoint 7001</name>
            </trkpt>
            <trkpt lat="49.9559744" lon="9.1249088">
                <ele>113.0</ele>
                <time>2020-08-29T15:58:43.000Z</time>
                <name>Trackpoint 7002</name>
            </trkpt>
            <trkpt lat="49.956032" lon="9.1250032">
                <ele>113.0</ele>
                <time>2020-08-29T15:58:46.000Z</time>
                <name>Trackpoint 7003</name>
            </trkpt>
            <trkpt lat="49.9561088" lon="9.1251024">
                <ele>112.0</ele>
                <time>2020-08-29T15:58:49.000Z</time>
                <name>Trackpoint 7004</name>
            </trkpt>
            <trkpt lat="49.9561696" lon="9.1251936">
                <ele>112.0</ele>
                <time>2020-08-29T15:58:51.000Z</time>
                <name>Trackpoint 7005</name>
            </trkpt>
            <trkpt lat="49.9562336" lon="9.1252984">
                <ele>112.0</ele>
                <time>2020-08-29T15:58:53.000Z</time>
                <name>Trackpoint 7006</name>
            </trkpt>
            <trkpt lat="49.956304" lon="9.1254056">
                <ele>112.0</ele>
                <time>2020-08-29T15:58:55.000Z</time>
                <name>Trackpoint 7007</name>
            </trkpt>
            <trkpt lat="49.9563712" lon="9.1255016">
                <ele>112.0</ele>
                <time>2020-08-29T15:58:57.000Z</time>
                <name>Trackpoint 7008</name>
            </trkpt>
            <trkpt lat="49.9564544" lon="9.125604">
                <ele>112.0</ele>
                <time>2020-08-29T15:58:59.000Z</time>
                <name>Trackpoint 7009</name>
            </trkpt>
            <trkpt lat="49.9565216" lon="9.1256904">
                <ele>112.0</ele>
                <time>2020-08-29T15:59:01.000Z</time>
                <name>Trackpoint 7010</name>
            </trkpt>
            <trkpt lat="49.956576" lon="9.1257648">
                <ele>112.0</ele>
                <time>2020-08-29T15:59:03.000Z</time>
                <name>Trackpoint 7011</name>
            </trkpt>
            <trkpt lat="49.9566432" lon="9.125856">
                <ele>112.0</ele>
                <time>2020-08-29T15:59:06.000Z</time>
                <name>Trackpoint 7012</name>
            </trkpt>
            <trkpt lat="49.95672" lon="9.1259568">
                <ele>112.0</ele>
                <time>2020-08-29T15:59:17.000Z</time>
                <name>Trackpoint 7013</name>
            </trkpt>
            <trkpt lat="49.9567712" lon="9.1260864">
                <ele>112.0</ele>
                <time>2020-08-29T15:59:20.000Z</time>
                <name>Trackpoint 7014</name>
            </trkpt>
            <trkpt lat="49.9568192" lon="9.1261728">
                <ele>112.0</ele>
                <time>2020-08-29T15:59:22.000Z</time>
                <name>Trackpoint 7015</name>
            </trkpt>
            <trkpt lat="49.9568608" lon="9.126264">
                <ele>112.0</ele>
                <time>2020-08-29T15:59:24.000Z</time>
                <name>Trackpoint 7016</name>
            </trkpt>
            <trkpt lat="49.9569088" lon="9.1263616">
                <ele>112.0</ele>
                <time>2020-08-29T15:59:26.000Z</time>
                <name>Trackpoint 7017</name>
            </trkpt>
            <trkpt lat="49.9569696" lon="9.1264648">
                <ele>112.0</ele>
                <time>2020-08-29T15:59:28.000Z</time>
                <name>Trackpoint 7018</name>
            </trkpt>
            <trkpt lat="49.9570464" lon="9.1266072">
                <ele>112.0</ele>
                <time>2020-08-29T15:59:30.000Z</time>
                <name>Trackpoint 7019</name>
            </trkpt>
            <trkpt lat="49.9571136" lon="9.1267232">
                <ele>112.0</ele>
                <time>2020-08-29T15:59:32.000Z</time>
                <name>Trackpoint 7020</name>
            </trkpt>
            <trkpt lat="49.9571808" lon="9.1268352">
                <ele>112.0</ele>
                <time>2020-08-29T15:59:34.000Z</time>
                <name>Trackpoint 7021</name>
            </trkpt>
            <trkpt lat="49.9572288" lon="9.1269576">
                <ele>112.0</ele>
                <time>2020-08-29T15:59:37.000Z</time>
                <name>Trackpoint 7022</name>
            </trkpt>
            <trkpt lat="49.9572864" lon="9.1270504">
                <ele>112.0</ele>
                <time>2020-08-29T15:59:39.000Z</time>
                <name>Trackpoint 7023</name>
            </trkpt>
            <trkpt lat="49.9573664" lon="9.127176">
                <ele>112.0</ele>
                <time>2020-08-29T15:59:41.000Z</time>
                <name>Trackpoint 7024</name>
            </trkpt>
            <trkpt lat="49.9574176" lon="9.127252">
                <ele>112.0</ele>
                <time>2020-08-29T15:59:42.000Z</time>
                <name>Trackpoint 7025</name>
            </trkpt>
            <trkpt lat="49.957488" lon="9.1274072">
                <ele>112.0</ele>
                <time>2020-08-29T15:59:44.000Z</time>
                <name>Trackpoint 7026</name>
            </trkpt>
            <trkpt lat="49.9575232" lon="9.1274928">
                <ele>112.0</ele>
                <time>2020-08-29T15:59:45.000Z</time>
                <name>Trackpoint 7027</name>
            </trkpt>
            <trkpt lat="49.9575648" lon="9.1275752">
                <ele>112.0</ele>
                <time>2020-08-29T15:59:46.000Z</time>
                <name>Trackpoint 7028</name>
            </trkpt>
            <trkpt lat="49.9576416" lon="9.1277248">
                <ele>112.0</ele>
                <time>2020-08-29T15:59:48.000Z</time>
                <name>Trackpoint 7029</name>
            </trkpt>
            <trkpt lat="49.9577088" lon="9.1278752">
                <ele>112.0</ele>
                <time>2020-08-29T15:59:50.000Z</time>
                <name>Trackpoint 7030</name>
            </trkpt>
            <trkpt lat="49.957776" lon="9.1280136">
                <ele>112.0</ele>
                <time>2020-08-29T15:59:52.000Z</time>
                <name>Trackpoint 7031</name>
            </trkpt>
            <trkpt lat="49.95784" lon="9.128152">
                <ele>112.0</ele>
                <time>2020-08-29T15:59:54.000Z</time>
                <name>Trackpoint 7032</name>
            </trkpt>
            <trkpt lat="49.957904" lon="9.1282784">
                <ele>112.0</ele>
                <time>2020-08-29T15:59:56.000Z</time>
                <name>Trackpoint 7033</name>
            </trkpt>
            <trkpt lat="49.9579744" lon="9.1283888">
                <ele>112.0</ele>
                <time>2020-08-29T15:59:58.000Z</time>
                <name>Trackpoint 7034</name>
            </trkpt>
            <trkpt lat="49.9580416" lon="9.128504">
                <ele>112.0</ele>
                <time>2020-08-29T16:00:00.000Z</time>
                <name>Trackpoint 7035</name>
            </trkpt>
            <trkpt lat="49.9581216" lon="9.1286272">
                <ele>112.0</ele>
                <time>2020-08-29T16:00:02.000Z</time>
                <name>Trackpoint 7036</name>
            </trkpt>
            <trkpt lat="49.9582176" lon="9.1287536">
                <ele>112.0</ele>
                <time>2020-08-29T16:00:04.000Z</time>
                <name>Trackpoint 7037</name>
            </trkpt>
            <trkpt lat="49.9583168" lon="9.1288904">
                <ele>112.0</ele>
                <time>2020-08-29T16:00:06.000Z</time>
                <name>Trackpoint 7038</name>
            </trkpt>
            <trkpt lat="49.9584096" lon="9.1290152">
                <ele>112.0</ele>
                <time>2020-08-29T16:00:08.000Z</time>
                <name>Trackpoint 7039</name>
            </trkpt>
            <trkpt lat="49.9585088" lon="9.1291288">
                <ele>112.0</ele>
                <time>2020-08-29T16:00:10.000Z</time>
                <name>Trackpoint 7040</name>
            </trkpt>
            <trkpt lat="49.9586176" lon="9.1292448">
                <ele>112.0</ele>
                <time>2020-08-29T16:00:12.000Z</time>
                <name>Trackpoint 7041</name>
            </trkpt>
            <trkpt lat="49.9587296" lon="9.1293488">
                <ele>113.0</ele>
                <time>2020-08-29T16:00:14.000Z</time>
                <name>Trackpoint 7042</name>
            </trkpt>
            <trkpt lat="49.9588448" lon="9.1294496">
                <ele>113.0</ele>
                <time>2020-08-29T16:00:16.000Z</time>
                <name>Trackpoint 7043</name>
            </trkpt>
            <trkpt lat="49.9589472" lon="9.1295384">
                <ele>113.0</ele>
                <time>2020-08-29T16:00:18.000Z</time>
                <name>Trackpoint 7044</name>
            </trkpt>
            <trkpt lat="49.959056" lon="9.1296264">
                <ele>113.0</ele>
                <time>2020-08-29T16:00:20.000Z</time>
                <name>Trackpoint 7045</name>
            </trkpt>
            <trkpt lat="49.959168" lon="9.129712">
                <ele>113.0</ele>
                <time>2020-08-29T16:00:22.000Z</time>
                <name>Trackpoint 7046</name>
            </trkpt>
            <trkpt lat="49.9592768" lon="9.1297704">
                <ele>113.0</ele>
                <time>2020-08-29T16:00:24.000Z</time>
                <name>Trackpoint 7047</name>
            </trkpt>
            <trkpt lat="49.959376" lon="9.1298248">
                <ele>113.0</ele>
                <time>2020-08-29T16:00:26.000Z</time>
                <name>Trackpoint 7048</name>
            </trkpt>
            <trkpt lat="49.9594688" lon="9.1298936">
                <ele>113.0</ele>
                <time>2020-08-29T16:00:28.000Z</time>
                <name>Trackpoint 7049</name>
            </trkpt>
            <trkpt lat="49.9595712" lon="9.1299648">
                <ele>113.0</ele>
                <time>2020-08-29T16:00:30.000Z</time>
                <name>Trackpoint 7050</name>
            </trkpt>
            <trkpt lat="49.9596672" lon="9.1300488">
                <ele>112.0</ele>
                <time>2020-08-29T16:00:32.000Z</time>
                <name>Trackpoint 7051</name>
            </trkpt>
            <trkpt lat="49.9597728" lon="9.1301032">
                <ele>113.0</ele>
                <time>2020-08-29T16:00:34.000Z</time>
                <name>Trackpoint 7052</name>
            </trkpt>
            <trkpt lat="49.9598656" lon="9.1301536">
                <ele>113.0</ele>
                <time>2020-08-29T16:00:36.000Z</time>
                <name>Trackpoint 7053</name>
            </trkpt>
            <trkpt lat="49.9599424" lon="9.1302072">
                <ele>113.0</ele>
                <time>2020-08-29T16:00:38.000Z</time>
                <name>Trackpoint 7054</name>
            </trkpt>
            <trkpt lat="49.9600448" lon="9.1302496">
                <ele>112.0</ele>
                <time>2020-08-29T16:00:40.000Z</time>
                <name>Trackpoint 7055</name>
            </trkpt>
            <trkpt lat="49.960144" lon="9.1302864">
                <ele>112.0</ele>
                <time>2020-08-29T16:00:42.000Z</time>
                <name>Trackpoint 7056</name>
            </trkpt>
            <trkpt lat="49.960256" lon="9.1303192">
                <ele>112.0</ele>
                <time>2020-08-29T16:00:44.000Z</time>
                <name>Trackpoint 7057</name>
            </trkpt>
            <trkpt lat="49.9603424" lon="9.1303552">
                <ele>112.0</ele>
                <time>2020-08-29T16:00:46.000Z</time>
                <name>Trackpoint 7058</name>
            </trkpt>
            <trkpt lat="49.9604352" lon="9.1304256">
                <ele>112.0</ele>
                <time>2020-08-29T16:00:48.000Z</time>
                <name>Trackpoint 7059</name>
            </trkpt>
            <trkpt lat="49.960496" lon="9.1305176">
                <ele>112.0</ele>
                <time>2020-08-29T16:00:50.000Z</time>
                <name>Trackpoint 7060</name>
            </trkpt>
            <trkpt lat="49.9605376" lon="9.13064">
                <ele>112.0</ele>
                <time>2020-08-29T16:00:52.000Z</time>
                <name>Trackpoint 7061</name>
            </trkpt>
            <trkpt lat="49.9605888" lon="9.1307488">
                <ele>112.0</ele>
                <time>2020-08-29T16:00:54.000Z</time>
                <name>Trackpoint 7062</name>
            </trkpt>
            <trkpt lat="49.9606464" lon="9.130852">
                <ele>112.0</ele>
                <time>2020-08-29T16:00:56.000Z</time>
                <name>Trackpoint 7063</name>
            </trkpt>
            <trkpt lat="49.9607008" lon="9.1309344">
                <ele>112.0</ele>
                <time>2020-08-29T16:00:58.000Z</time>
                <name>Trackpoint 7064</name>
            </trkpt>
            <trkpt lat="49.9607776" lon="9.1310256">
                <ele>111.0</ele>
                <time>2020-08-29T16:01:01.000Z</time>
                <name>Trackpoint 7065</name>
            </trkpt>
            <trkpt lat="49.9608608" lon="9.1310616">
                <ele>111.0</ele>
                <time>2020-08-29T16:01:07.000Z</time>
                <name>Trackpoint 7066</name>
            </trkpt>
            <trkpt lat="49.9609152" lon="9.1311368">
                <ele>111.0</ele>
                <time>2020-08-29T16:01:29.000Z</time>
                <name>Trackpoint 7067</name>
            </trkpt>
            <trkpt lat="49.9610112" lon="9.1312">
                <ele>111.0</ele>
                <time>2020-08-29T16:01:35.000Z</time>
                <name>Trackpoint 7068</name>
            </trkpt>
            <trkpt lat="49.9611168" lon="9.131244">
                <ele>111.0</ele>
                <time>2020-08-29T16:01:39.000Z</time>
                <name>Trackpoint 7069</name>
            </trkpt>
            <trkpt lat="49.9612192" lon="9.1313104">
                <ele>111.0</ele>
                <time>2020-08-29T16:01:42.000Z</time>
                <name>Trackpoint 7070</name>
            </trkpt>
            <trkpt lat="49.9613216" lon="9.1313896">
                <ele>111.0</ele>
                <time>2020-08-29T16:01:45.000Z</time>
                <name>Trackpoint 7071</name>
            </trkpt>
            <trkpt lat="49.9614336" lon="9.1314488">
                <ele>111.0</ele>
                <time>2020-08-29T16:01:48.000Z</time>
                <name>Trackpoint 7072</name>
            </trkpt>
            <trkpt lat="49.9615136" lon="9.1315008">
                <ele>111.0</ele>
                <time>2020-08-29T16:01:50.000Z</time>
                <name>Trackpoint 7073</name>
            </trkpt>
            <trkpt lat="49.9615808" lon="9.1315616">
                <ele>111.0</ele>
                <time>2020-08-29T16:01:52.000Z</time>
                <name>Trackpoint 7074</name>
            </trkpt>
            <trkpt lat="49.961696" lon="9.1316456">
                <ele>111.0</ele>
                <time>2020-08-29T16:01:55.000Z</time>
                <name>Trackpoint 7075</name>
            </trkpt>
            <trkpt lat="49.961792" lon="9.1317128">
                <ele>111.0</ele>
                <time>2020-08-29T16:01:57.000Z</time>
                <name>Trackpoint 7076</name>
            </trkpt>
            <trkpt lat="49.9618752" lon="9.1317752">
                <ele>111.0</ele>
                <time>2020-08-29T16:01:59.000Z</time>
                <name>Trackpoint 7077</name>
            </trkpt>
            <trkpt lat="49.9619584" lon="9.131848">
                <ele>111.0</ele>
                <time>2020-08-29T16:02:01.000Z</time>
                <name>Trackpoint 7078</name>
            </trkpt>
            <trkpt lat="49.9620256" lon="9.13192">
                <ele>111.0</ele>
                <time>2020-08-29T16:02:03.000Z</time>
                <name>Trackpoint 7079</name>
            </trkpt>
            <trkpt lat="49.9621056" lon="9.1320104">
                <ele>111.0</ele>
                <time>2020-08-29T16:02:05.000Z</time>
                <name>Trackpoint 7080</name>
            </trkpt>
            <trkpt lat="49.9622016" lon="9.1321">
                <ele>111.0</ele>
                <time>2020-08-29T16:02:07.000Z</time>
                <name>Trackpoint 7081</name>
            </trkpt>
            <trkpt lat="49.9622752" lon="9.1321696">
                <ele>111.0</ele>
                <time>2020-08-29T16:02:09.000Z</time>
                <name>Trackpoint 7082</name>
            </trkpt>
            <trkpt lat="49.9623712" lon="9.1322296">
                <ele>111.0</ele>
                <time>2020-08-29T16:02:11.000Z</time>
                <name>Trackpoint 7083</name>
            </trkpt>
            <trkpt lat="49.96248" lon="9.132248">
                <ele>111.0</ele>
                <time>2020-08-29T16:02:13.000Z</time>
                <name>Trackpoint 7084</name>
            </trkpt>
            <trkpt lat="49.9626048" lon="9.1322584">
                <ele>110.0</ele>
                <time>2020-08-29T16:02:15.000Z</time>
                <name>Trackpoint 7085</name>
            </trkpt>
            <trkpt lat="49.962752" lon="9.1322568">
                <ele>110.0</ele>
                <time>2020-08-29T16:02:17.000Z</time>
                <name>Trackpoint 7086</name>
            </trkpt>
            <trkpt lat="49.9628704" lon="9.1322496">
                <ele>111.0</ele>
                <time>2020-08-29T16:02:19.000Z</time>
                <name>Trackpoint 7087</name>
            </trkpt>
            <trkpt lat="49.962976" lon="9.1322368">
                <ele>111.0</ele>
                <time>2020-08-29T16:02:21.000Z</time>
                <name>Trackpoint 7088</name>
            </trkpt>
            <trkpt lat="49.9630976" lon="9.132252">
                <ele>111.0</ele>
                <time>2020-08-29T16:02:24.000Z</time>
                <name>Trackpoint 7089</name>
            </trkpt>
            <trkpt lat="49.9632224" lon="9.1322768">
                <ele>110.0</ele>
                <time>2020-08-29T16:02:27.000Z</time>
                <name>Trackpoint 7090</name>
            </trkpt>
            <trkpt lat="49.9633184" lon="9.132352">
                <ele>110.0</ele>
                <time>2020-08-29T16:02:30.000Z</time>
                <name>Trackpoint 7091</name>
            </trkpt>
            <trkpt lat="49.9634016" lon="9.1324104">
                <ele>110.0</ele>
                <time>2020-08-29T16:02:33.000Z</time>
                <name>Trackpoint 7092</name>
            </trkpt>
            <trkpt lat="49.9634656" lon="9.1325232">
                <ele>110.0</ele>
                <time>2020-08-29T16:02:36.000Z</time>
                <name>Trackpoint 7093</name>
            </trkpt>
            <trkpt lat="49.9634976" lon="9.132624">
                <ele>110.0</ele>
                <time>2020-08-29T16:02:38.000Z</time>
                <name>Trackpoint 7094</name>
            </trkpt>
            <trkpt lat="49.9635808" lon="9.1327088">
                <ele>110.0</ele>
                <time>2020-08-29T16:02:40.000Z</time>
                <name>Trackpoint 7095</name>
            </trkpt>
            <trkpt lat="49.963664" lon="9.1328336">
                <ele>110.0</ele>
                <time>2020-08-29T16:02:42.000Z</time>
                <name>Trackpoint 7096</name>
            </trkpt>
            <trkpt lat="49.963712" lon="9.1329144">
                <ele>110.0</ele>
                <time>2020-08-29T16:02:43.000Z</time>
                <name>Trackpoint 7097</name>
            </trkpt>
            <trkpt lat="49.963792" lon="9.1330536">
                <ele>110.0</ele>
                <time>2020-08-29T16:02:45.000Z</time>
                <name>Trackpoint 7098</name>
            </trkpt>
            <trkpt lat="49.9638656" lon="9.133128">
                <ele>110.0</ele>
                <time>2020-08-29T16:02:47.000Z</time>
                <name>Trackpoint 7099</name>
            </trkpt>
            <trkpt lat="49.9639488" lon="9.1332">
                <ele>110.0</ele>
                <time>2020-08-29T16:02:49.000Z</time>
                <name>Trackpoint 7100</name>
            </trkpt>
            <trkpt lat="49.9640288" lon="9.1332968">
                <ele>110.0</ele>
                <time>2020-08-29T16:02:51.000Z</time>
                <name>Trackpoint 7101</name>
            </trkpt>
            <trkpt lat="49.9641344" lon="9.1333904">
                <ele>110.0</ele>
                <time>2020-08-29T16:02:53.000Z</time>
                <name>Trackpoint 7102</name>
            </trkpt>
            <trkpt lat="49.9642304" lon="9.1334712">
                <ele>110.0</ele>
                <time>2020-08-29T16:02:55.000Z</time>
                <name>Trackpoint 7103</name>
            </trkpt>
            <trkpt lat="49.964336" lon="9.1335696">
                <ele>110.0</ele>
                <time>2020-08-29T16:02:57.000Z</time>
                <name>Trackpoint 7104</name>
            </trkpt>
            <trkpt lat="49.964448" lon="9.13368">
                <ele>110.0</ele>
                <time>2020-08-29T16:02:59.000Z</time>
                <name>Trackpoint 7105</name>
            </trkpt>
            <trkpt lat="49.9645344" lon="9.1337768">
                <ele>110.0</ele>
                <time>2020-08-29T16:03:01.000Z</time>
                <name>Trackpoint 7106</name>
            </trkpt>
            <trkpt lat="49.9646272" lon="9.133868">
                <ele>110.0</ele>
                <time>2020-08-29T16:03:03.000Z</time>
                <name>Trackpoint 7107</name>
            </trkpt>
            <trkpt lat="49.9647232" lon="9.1339568">
                <ele>110.0</ele>
                <time>2020-08-29T16:03:05.000Z</time>
                <name>Trackpoint 7108</name>
            </trkpt>
            <trkpt lat="49.9648128" lon="9.1340488">
                <ele>111.0</ele>
                <time>2020-08-29T16:03:07.000Z</time>
                <name>Trackpoint 7109</name>
            </trkpt>
            <trkpt lat="49.9649056" lon="9.134136">
                <ele>110.0</ele>
                <time>2020-08-29T16:03:09.000Z</time>
                <name>Trackpoint 7110</name>
            </trkpt>
            <trkpt lat="49.965008" lon="9.1342288">
                <ele>110.0</ele>
                <time>2020-08-29T16:03:11.000Z</time>
                <name>Trackpoint 7111</name>
            </trkpt>
            <trkpt lat="49.965088" lon="9.134312">
                <ele>111.0</ele>
                <time>2020-08-29T16:03:13.000Z</time>
                <name>Trackpoint 7112</name>
            </trkpt>
            <trkpt lat="49.9651552" lon="9.134388">
                <ele>110.0</ele>
                <time>2020-08-29T16:03:15.000Z</time>
                <name>Trackpoint 7113</name>
            </trkpt>
            <trkpt lat="49.9652512" lon="9.134468">
                <ele>110.0</ele>
                <time>2020-08-29T16:03:17.000Z</time>
                <name>Trackpoint 7114</name>
            </trkpt>
            <trkpt lat="49.9653536" lon="9.1345528">
                <ele>110.0</ele>
                <time>2020-08-29T16:03:19.000Z</time>
                <name>Trackpoint 7115</name>
            </trkpt>
            <trkpt lat="49.9654528" lon="9.1346352">
                <ele>110.0</ele>
                <time>2020-08-29T16:03:21.000Z</time>
                <name>Trackpoint 7116</name>
            </trkpt>
            <trkpt lat="49.9655456" lon="9.134724">
                <ele>110.0</ele>
                <time>2020-08-29T16:03:23.000Z</time>
                <name>Trackpoint 7117</name>
            </trkpt>
            <trkpt lat="49.9656384" lon="9.1348136">
                <ele>110.0</ele>
                <time>2020-08-29T16:03:25.000Z</time>
                <name>Trackpoint 7118</name>
            </trkpt>
            <trkpt lat="49.9657312" lon="9.1348896">
                <ele>110.0</ele>
                <time>2020-08-29T16:03:27.000Z</time>
                <name>Trackpoint 7119</name>
            </trkpt>
            <trkpt lat="49.9658272" lon="9.1349752">
                <ele>110.0</ele>
                <time>2020-08-29T16:03:29.000Z</time>
                <name>Trackpoint 7120</name>
            </trkpt>
            <trkpt lat="49.9659104" lon="9.1350536">
                <ele>110.0</ele>
                <time>2020-08-29T16:03:31.000Z</time>
                <name>Trackpoint 7121</name>
            </trkpt>
            <trkpt lat="49.9660064" lon="9.1351368">
                <ele>110.0</ele>
                <time>2020-08-29T16:03:33.000Z</time>
                <name>Trackpoint 7122</name>
            </trkpt>
            <trkpt lat="49.9661056" lon="9.135212">
                <ele>110.0</ele>
                <time>2020-08-29T16:03:35.000Z</time>
                <name>Trackpoint 7123</name>
            </trkpt>
            <trkpt lat="49.9662048" lon="9.13528">
                <ele>110.0</ele>
                <time>2020-08-29T16:03:37.000Z</time>
                <name>Trackpoint 7124</name>
            </trkpt>
            <trkpt lat="49.9663008" lon="9.1353552">
                <ele>110.0</ele>
                <time>2020-08-29T16:03:39.000Z</time>
                <name>Trackpoint 7125</name>
            </trkpt>
            <trkpt lat="49.9664032" lon="9.1354352">
                <ele>110.0</ele>
                <time>2020-08-29T16:03:41.000Z</time>
                <name>Trackpoint 7126</name>
            </trkpt>
            <trkpt lat="49.9665056" lon="9.1355152">
                <ele>110.0</ele>
                <time>2020-08-29T16:03:43.000Z</time>
                <name>Trackpoint 7127</name>
            </trkpt>
            <trkpt lat="49.9666144" lon="9.1355864">
                <ele>110.0</ele>
                <time>2020-08-29T16:03:45.000Z</time>
                <name>Trackpoint 7128</name>
            </trkpt>
            <trkpt lat="49.9667104" lon="9.1356624">
                <ele>111.0</ele>
                <time>2020-08-29T16:03:47.000Z</time>
                <name>Trackpoint 7129</name>
            </trkpt>
            <trkpt lat="49.9668" lon="9.1357296">
                <ele>111.0</ele>
                <time>2020-08-29T16:03:49.000Z</time>
                <name>Trackpoint 7130</name>
            </trkpt>
            <trkpt lat="49.9668736" lon="9.1357936">
                <ele>111.0</ele>
                <time>2020-08-29T16:03:51.000Z</time>
                <name>Trackpoint 7131</name>
            </trkpt>
            <trkpt lat="49.9669536" lon="9.1358632">
                <ele>111.0</ele>
                <time>2020-08-29T16:03:53.000Z</time>
                <name>Trackpoint 7132</name>
            </trkpt>
            <trkpt lat="49.9670496" lon="9.1359416">
                <ele>111.0</ele>
                <time>2020-08-29T16:03:55.000Z</time>
                <name>Trackpoint 7133</name>
            </trkpt>
            <trkpt lat="49.9671264" lon="9.1359952">
                <ele>111.0</ele>
                <time>2020-08-29T16:03:57.000Z</time>
                <name>Trackpoint 7134</name>
            </trkpt>
            <trkpt lat="49.9672288" lon="9.1360664">
                <ele>111.0</ele>
                <time>2020-08-29T16:03:59.000Z</time>
                <name>Trackpoint 7135</name>
            </trkpt>
            <trkpt lat="49.967328" lon="9.1361312">
                <ele>111.0</ele>
                <time>2020-08-29T16:04:01.000Z</time>
                <name>Trackpoint 7136</name>
            </trkpt>
            <trkpt lat="49.9674272" lon="9.1362088">
                <ele>111.0</ele>
                <time>2020-08-29T16:04:03.000Z</time>
                <name>Trackpoint 7137</name>
            </trkpt>
            <trkpt lat="49.9675328" lon="9.1362736">
                <ele>111.0</ele>
                <time>2020-08-29T16:04:05.000Z</time>
                <name>Trackpoint 7138</name>
            </trkpt>
            <trkpt lat="49.967616" lon="9.13634">
                <ele>111.0</ele>
                <time>2020-08-29T16:04:08.000Z</time>
                <name>Trackpoint 7139</name>
            </trkpt>
            <trkpt lat="49.9677216" lon="9.1364032">
                <ele>111.0</ele>
                <time>2020-08-29T16:04:10.000Z</time>
                <name>Trackpoint 7140</name>
            </trkpt>
            <trkpt lat="49.9678432" lon="9.1365">
                <ele>111.0</ele>
                <time>2020-08-29T16:04:12.000Z</time>
                <name>Trackpoint 7141</name>
            </trkpt>
            <trkpt lat="49.9679616" lon="9.1365904">
                <ele>111.0</ele>
                <time>2020-08-29T16:04:14.000Z</time>
                <name>Trackpoint 7142</name>
            </trkpt>
            <trkpt lat="49.9680736" lon="9.1366904">
                <ele>111.0</ele>
                <time>2020-08-29T16:04:16.000Z</time>
                <name>Trackpoint 7143</name>
            </trkpt>
            <trkpt lat="49.9681824" lon="9.1367712">
                <ele>110.0</ele>
                <time>2020-08-29T16:04:18.000Z</time>
                <name>Trackpoint 7144</name>
            </trkpt>
            <trkpt lat="49.9682912" lon="9.1368648">
                <ele>110.0</ele>
                <time>2020-08-29T16:04:20.000Z</time>
                <name>Trackpoint 7145</name>
            </trkpt>
            <trkpt lat="49.9684064" lon="9.1369552">
                <ele>110.0</ele>
                <time>2020-08-29T16:04:22.000Z</time>
                <name>Trackpoint 7146</name>
            </trkpt>
            <trkpt lat="49.968512" lon="9.1370352">
                <ele>110.0</ele>
                <time>2020-08-29T16:04:24.000Z</time>
                <name>Trackpoint 7147</name>
            </trkpt>
            <trkpt lat="49.9686048" lon="9.1371088">
                <ele>111.0</ele>
                <time>2020-08-29T16:04:26.000Z</time>
                <name>Trackpoint 7148</name>
            </trkpt>
            <trkpt lat="49.9687168" lon="9.1371616">
                <ele>110.0</ele>
                <time>2020-08-29T16:04:28.000Z</time>
                <name>Trackpoint 7149</name>
            </trkpt>
            <trkpt lat="49.9688" lon="9.1372336">
                <ele>110.0</ele>
                <time>2020-08-29T16:04:30.000Z</time>
                <name>Trackpoint 7150</name>
            </trkpt>
            <trkpt lat="49.9688896" lon="9.1372872">
                <ele>110.0</ele>
                <time>2020-08-29T16:04:32.000Z</time>
                <name>Trackpoint 7151</name>
            </trkpt>
            <trkpt lat="49.9689824" lon="9.1373552">
                <ele>110.0</ele>
                <time>2020-08-29T16:04:34.000Z</time>
                <name>Trackpoint 7152</name>
            </trkpt>
            <trkpt lat="49.9690816" lon="9.1374256">
                <ele>110.0</ele>
                <time>2020-08-29T16:04:36.000Z</time>
                <name>Trackpoint 7153</name>
            </trkpt>
            <trkpt lat="49.9691968" lon="9.1374952">
                <ele>110.0</ele>
                <time>2020-08-29T16:04:38.000Z</time>
                <name>Trackpoint 7154</name>
            </trkpt>
            <trkpt lat="49.9692928" lon="9.1375648">
                <ele>110.0</ele>
                <time>2020-08-29T16:04:40.000Z</time>
                <name>Trackpoint 7155</name>
            </trkpt>
            <trkpt lat="49.9693824" lon="9.1376384">
                <ele>110.0</ele>
                <time>2020-08-29T16:04:42.000Z</time>
                <name>Trackpoint 7156</name>
            </trkpt>
            <trkpt lat="49.9694816" lon="9.1376896">
                <ele>110.0</ele>
                <time>2020-08-29T16:04:44.000Z</time>
                <name>Trackpoint 7157</name>
            </trkpt>
            <trkpt lat="49.969584" lon="9.1377432">
                <ele>110.0</ele>
                <time>2020-08-29T16:04:46.000Z</time>
                <name>Trackpoint 7158</name>
            </trkpt>
            <trkpt lat="49.9696928" lon="9.1377952">
                <ele>109.0</ele>
                <time>2020-08-29T16:04:48.000Z</time>
                <name>Trackpoint 7159</name>
            </trkpt>
            <trkpt lat="49.9698368" lon="9.1378648">
                <ele>109.0</ele>
                <time>2020-08-29T16:04:50.000Z</time>
                <name>Trackpoint 7160</name>
            </trkpt>
            <trkpt lat="49.969952" lon="9.1379384">
                <ele>110.0</ele>
                <time>2020-08-29T16:04:52.000Z</time>
                <name>Trackpoint 7161</name>
            </trkpt>
            <trkpt lat="49.9700736" lon="9.1380056">
                <ele>110.0</ele>
                <time>2020-08-29T16:04:54.000Z</time>
                <name>Trackpoint 7162</name>
            </trkpt>
            <trkpt lat="49.9701536" lon="9.1380504">
                <ele>109.0</ele>
                <time>2020-08-29T16:04:55.000Z</time>
                <name>Trackpoint 7163</name>
            </trkpt>
            <trkpt lat="49.970288" lon="9.1381216">
                <ele>109.0</ele>
                <time>2020-08-29T16:04:57.000Z</time>
                <name>Trackpoint 7164</name>
            </trkpt>
            <trkpt lat="49.9704032" lon="9.1381816">
                <ele>109.0</ele>
                <time>2020-08-29T16:04:59.000Z</time>
                <name>Trackpoint 7165</name>
            </trkpt>
            <trkpt lat="49.9705344" lon="9.1382448">
                <ele>109.0</ele>
                <time>2020-08-29T16:05:01.000Z</time>
                <name>Trackpoint 7166</name>
            </trkpt>
            <trkpt lat="49.970656" lon="9.1382888">
                <ele>109.0</ele>
                <time>2020-08-29T16:05:03.000Z</time>
                <name>Trackpoint 7167</name>
            </trkpt>
            <trkpt lat="49.970768" lon="9.1383152">
                <ele>109.0</ele>
                <time>2020-08-29T16:05:05.000Z</time>
                <name>Trackpoint 7168</name>
            </trkpt>
            <trkpt lat="49.9708736" lon="9.1383136">
                <ele>110.0</ele>
                <time>2020-08-29T16:05:08.000Z</time>
                <name>Trackpoint 7169</name>
            </trkpt>
            <trkpt lat="49.970928" lon="9.1383984">
                <ele>111.0</ele>
                <time>2020-08-29T16:05:13.000Z</time>
                <name>Trackpoint 7170</name>
            </trkpt>
            <trkpt lat="49.9710272" lon="9.1383688">
                <ele>110.0</ele>
                <time>2020-08-29T16:05:38.000Z</time>
                <name>Trackpoint 7171</name>
            </trkpt>
            <trkpt lat="49.9711264" lon="9.1383664">
                <ele>110.0</ele>
                <time>2020-08-29T16:05:42.000Z</time>
                <name>Trackpoint 7172</name>
            </trkpt>
            <trkpt lat="49.9712448" lon="9.1383632">
                <ele>110.0</ele>
                <time>2020-08-29T16:05:46.000Z</time>
                <name>Trackpoint 7173</name>
            </trkpt>
            <trkpt lat="49.97136" lon="9.1383496">
                <ele>110.0</ele>
                <time>2020-08-29T16:05:49.000Z</time>
                <name>Trackpoint 7174</name>
            </trkpt>
            <trkpt lat="49.9714848" lon="9.1383632">
                <ele>110.0</ele>
                <time>2020-08-29T16:05:52.000Z</time>
                <name>Trackpoint 7175</name>
            </trkpt>
            <trkpt lat="49.9715776" lon="9.138376">
                <ele>110.0</ele>
                <time>2020-08-29T16:05:55.000Z</time>
                <name>Trackpoint 7176</name>
            </trkpt>
            <trkpt lat="49.9716672" lon="9.1384288">
                <ele>110.0</ele>
                <time>2020-08-29T16:05:58.000Z</time>
                <name>Trackpoint 7177</name>
            </trkpt>
            <trkpt lat="49.9717472" lon="9.13834">
                <ele>110.0</ele>
                <time>2020-08-29T16:06:02.000Z</time>
                <name>Trackpoint 7178</name>
            </trkpt>
            <trkpt lat="49.971744" lon="9.13822">
                <ele>110.0</ele>
                <time>2020-08-29T16:06:05.000Z</time>
                <name>Trackpoint 7179</name>
            </trkpt>
            <trkpt lat="49.9717344" lon="9.1381264">
                <ele>111.0</ele>
                <time>2020-08-29T16:06:07.000Z</time>
                <name>Trackpoint 7180</name>
            </trkpt>
            <trkpt lat="49.9717088" lon="9.138032">
                <ele>111.0</ele>
                <time>2020-08-29T16:06:09.000Z</time>
                <name>Trackpoint 7181</name>
            </trkpt>
            <trkpt lat="49.9716832" lon="9.1379216">
                <ele>111.0</ele>
                <time>2020-08-29T16:06:11.000Z</time>
                <name>Trackpoint 7182</name>
            </trkpt>
            <trkpt lat="49.9716416" lon="9.137828">
                <ele>111.0</ele>
                <time>2020-08-29T16:06:13.000Z</time>
                <name>Trackpoint 7183</name>
            </trkpt>
            <trkpt lat="49.9715968" lon="9.1377296">
                <ele>111.0</ele>
                <time>2020-08-29T16:06:15.000Z</time>
                <name>Trackpoint 7184</name>
            </trkpt>
            <trkpt lat="49.9715616" lon="9.1376336">
                <ele>111.0</ele>
                <time>2020-08-29T16:06:18.000Z</time>
                <name>Trackpoint 7185</name>
            </trkpt>
            <trkpt lat="49.9715104" lon="9.1375488">
                <ele>111.0</ele>
                <time>2020-08-29T16:06:22.000Z</time>
                <name>Trackpoint 7186</name>
            </trkpt>
            <trkpt lat="49.9716032" lon="9.1375736">
                <ele>112.0</ele>
                <time>2020-08-29T16:07:55.000Z</time>
                <name>Trackpoint 7187</name>
            </trkpt>
            <trkpt lat="49.9716864" lon="9.1376384">
                <ele>113.0</ele>
                <time>2020-08-29T16:07:59.000Z</time>
                <name>Trackpoint 7188</name>
            </trkpt>
            <trkpt lat="49.9717568" lon="9.1377224">
                <ele>115.0</ele>
                <time>2020-08-29T16:08:03.000Z</time>
                <name>Trackpoint 7189</name>
            </trkpt>
            <trkpt lat="49.9718016" lon="9.13784">
                <ele>116.0</ele>
                <time>2020-08-29T16:08:06.000Z</time>
                <name>Trackpoint 7190</name>
            </trkpt>
            <trkpt lat="49.9718208" lon="9.1379384">
                <ele>116.0</ele>
                <time>2020-08-29T16:08:08.000Z</time>
                <name>Trackpoint 7191</name>
            </trkpt>
            <trkpt lat="49.9718336" lon="9.1380464">
                <ele>117.0</ele>
                <time>2020-08-29T16:08:10.000Z</time>
                <name>Trackpoint 7192</name>
            </trkpt>
            <trkpt lat="49.97184" lon="9.13816">
                <ele>118.0</ele>
                <time>2020-08-29T16:08:12.000Z</time>
                <name>Trackpoint 7193</name>
            </trkpt>
            <trkpt lat="49.97184" lon="9.1382712">
                <ele>118.0</ele>
                <time>2020-08-29T16:08:14.000Z</time>
                <name>Trackpoint 7194</name>
            </trkpt>
            <trkpt lat="49.97184" lon="9.1383912">
                <ele>119.0</ele>
                <time>2020-08-29T16:08:16.000Z</time>
                <name>Trackpoint 7195</name>
            </trkpt>
            <trkpt lat="49.9718368" lon="9.1385048">
                <ele>120.0</ele>
                <time>2020-08-29T16:08:18.000Z</time>
                <name>Trackpoint 7196</name>
            </trkpt>
            <trkpt lat="49.9718336" lon="9.1386232">
                <ele>120.0</ele>
                <time>2020-08-29T16:08:20.000Z</time>
                <name>Trackpoint 7197</name>
            </trkpt>
            <trkpt lat="49.9718272" lon="9.1387416">
                <ele>120.0</ele>
                <time>2020-08-29T16:08:22.000Z</time>
                <name>Trackpoint 7198</name>
            </trkpt>
            <trkpt lat="49.9718272" lon="9.1388528">
                <ele>121.0</ele>
                <time>2020-08-29T16:08:24.000Z</time>
                <name>Trackpoint 7199</name>
            </trkpt>
            <trkpt lat="49.9718272" lon="9.1389648">
                <ele>121.0</ele>
                <time>2020-08-29T16:08:26.000Z</time>
                <name>Trackpoint 7200</name>
            </trkpt>
            <trkpt lat="49.9718208" lon="9.1390848">
                <ele>121.0</ele>
                <time>2020-08-29T16:08:28.000Z</time>
                <name>Trackpoint 7201</name>
            </trkpt>
            <trkpt lat="49.9718176" lon="9.1391952">
                <ele>122.0</ele>
                <time>2020-08-29T16:08:30.000Z</time>
                <name>Trackpoint 7202</name>
            </trkpt>
            <trkpt lat="49.9718144" lon="9.1392896">
                <ele>122.0</ele>
                <time>2020-08-29T16:08:32.000Z</time>
                <name>Trackpoint 7203</name>
            </trkpt>
            <trkpt lat="49.971808" lon="9.139408">
                <ele>122.0</ele>
                <time>2020-08-29T16:08:35.000Z</time>
                <name>Trackpoint 7204</name>
            </trkpt>
            <trkpt lat="49.9718144" lon="9.1395232">
                <ele>122.0</ele>
                <time>2020-08-29T16:10:30.000Z</time>
                <name>Trackpoint 7205</name>
            </trkpt>
            <trkpt lat="49.9718176" lon="9.1396368">
                <ele>123.0</ele>
                <time>2020-08-29T16:10:33.000Z</time>
                <name>Trackpoint 7206</name>
            </trkpt>
            <trkpt lat="49.9718176" lon="9.1397736">
                <ele>123.0</ele>
                <time>2020-08-29T16:10:36.000Z</time>
                <name>Trackpoint 7207</name>
            </trkpt>
            <trkpt lat="49.9718144" lon="9.1398936">
                <ele>123.0</ele>
                <time>2020-08-29T16:10:38.000Z</time>
                <name>Trackpoint 7208</name>
            </trkpt>
            <trkpt lat="49.9718144" lon="9.1400336">
                <ele>123.0</ele>
                <time>2020-08-29T16:10:40.000Z</time>
                <name>Trackpoint 7209</name>
            </trkpt>
            <trkpt lat="49.9718016" lon="9.1401752">
                <ele>123.0</ele>
                <time>2020-08-29T16:10:42.000Z</time>
                <name>Trackpoint 7210</name>
            </trkpt>
            <trkpt lat="49.9717952" lon="9.140324">
                <ele>123.0</ele>
                <time>2020-08-29T16:10:44.000Z</time>
                <name>Trackpoint 7211</name>
            </trkpt>
            <trkpt lat="49.9717888" lon="9.1404664">
                <ele>123.0</ele>
                <time>2020-08-29T16:10:46.000Z</time>
                <name>Trackpoint 7212</name>
            </trkpt>
            <trkpt lat="49.9717856" lon="9.1406096">
                <ele>122.0</ele>
                <time>2020-08-29T16:10:48.000Z</time>
                <name>Trackpoint 7213</name>
            </trkpt>
            <trkpt lat="49.9717824" lon="9.140768">
                <ele>122.0</ele>
                <time>2020-08-29T16:10:50.000Z</time>
                <name>Trackpoint 7214</name>
            </trkpt>
            <trkpt lat="49.9717792" lon="9.1409232">
                <ele>122.0</ele>
                <time>2020-08-29T16:10:52.000Z</time>
                <name>Trackpoint 7215</name>
            </trkpt>
            <trkpt lat="49.971776" lon="9.1410712">
                <ele>122.0</ele>
                <time>2020-08-29T16:10:54.000Z</time>
                <name>Trackpoint 7216</name>
            </trkpt>
            <trkpt lat="49.9717664" lon="9.14122">
                <ele>121.0</ele>
                <time>2020-08-29T16:10:56.000Z</time>
                <name>Trackpoint 7217</name>
            </trkpt>
            <trkpt lat="49.9717664" lon="9.1413784">
                <ele>120.0</ele>
                <time>2020-08-29T16:10:58.000Z</time>
                <name>Trackpoint 7218</name>
            </trkpt>
            <trkpt lat="49.9717664" lon="9.1415464">
                <ele>120.0</ele>
                <time>2020-08-29T16:11:00.000Z</time>
                <name>Trackpoint 7219</name>
            </trkpt>
            <trkpt lat="49.97176" lon="9.141704">
                <ele>119.0</ele>
                <time>2020-08-29T16:11:02.000Z</time>
                <name>Trackpoint 7220</name>
            </trkpt>
            <trkpt lat="49.9717568" lon="9.1418464">
                <ele>118.0</ele>
                <time>2020-08-29T16:11:04.000Z</time>
                <name>Trackpoint 7221</name>
            </trkpt>
            <trkpt lat="49.9717593" lon="9.1419605">
                <ele>118.0</ele>
                <time>2020-08-29T16:11:06.000Z</time>
                <name>Trackpoint 7222</name>
            </trkpt>
            <trkpt lat="49.971748" lon="9.1421188">
                <ele>118.0</ele>
                <time>2020-08-29T16:11:08.000Z</time>
                <name>Trackpoint 7223</name>
            </trkpt>
            <trkpt lat="49.9717176" lon="9.1420318">
                <ele>124.0</ele>
                <time>2020-08-29T17:02:08.000Z</time>
                <name>Trackpoint 7404</name>
            </trkpt>
            <trkpt lat="49.9716945" lon="9.1420926">
                <ele>123.0</ele>
                <time>2020-08-29T17:02:11.000Z</time>
                <name>Trackpoint 7405</name>
            </trkpt>
            <trkpt lat="49.9716384" lon="9.1421856">
                <ele>123.0</ele>
                <time>2020-08-29T17:02:15.000Z</time>
                <name>Trackpoint 7406</name>
            </trkpt>
            <trkpt lat="49.971536" lon="9.1421872">
                <ele>123.0</ele>
                <time>2020-08-29T17:02:26.000Z</time>
                <name>Trackpoint 7407</name>
            </trkpt>
            <trkpt lat="49.9714432" lon="9.142128">
                <ele>123.0</ele>
                <time>2020-08-29T17:02:29.000Z</time>
                <name>Trackpoint 7408</name>
            </trkpt>
            <trkpt lat="49.9713696" lon="9.1420736">
                <ele>123.0</ele>
                <time>2020-08-29T17:02:31.000Z</time>
                <name>Trackpoint 7409</name>
            </trkpt>
            <trkpt lat="49.9713184" lon="9.1419736">
                <ele>123.0</ele>
                <time>2020-08-29T17:02:34.000Z</time>
                <name>Trackpoint 7410</name>
            </trkpt>
            <trkpt lat="49.9713568" lon="9.1418832">
                <ele>121.0</ele>
                <time>2020-08-29T17:02:37.000Z</time>
                <name>Trackpoint 7411</name>
            </trkpt>
            <trkpt lat="49.97144" lon="9.14194">
                <ele>119.0</ele>
                <time>2020-08-29T17:02:58.000Z</time>
                <name>Trackpoint 7412</name>
            </trkpt>
            <trkpt lat="49.9715424" lon="9.1419688">
                <ele>119.0</ele>
                <time>2020-08-29T17:03:03.000Z</time>
                <name>Trackpoint 7413</name>
            </trkpt>
            <trkpt lat="49.9716384" lon="9.1419712">
                <ele>119.0</ele>
                <time>2020-08-29T17:03:06.000Z</time>
                <name>Trackpoint 7414</name>
            </trkpt>
            <trkpt lat="49.971744" lon="9.1419896">
                <ele>119.0</ele>
                <time>2020-08-29T17:03:09.000Z</time>
                <name>Trackpoint 7415</name>
            </trkpt>
            <trkpt lat="49.9718464" lon="9.1419872">
                <ele>119.0</ele>
                <time>2020-08-29T17:03:13.000Z</time>
                <name>Trackpoint 7416</name>
            </trkpt>
            <trkpt lat="49.971904" lon="9.1418816">
                <ele>119.0</ele>
                <time>2020-08-29T17:03:17.000Z</time>
                <name>Trackpoint 7417</name>
            </trkpt>
            <trkpt lat="49.9719072" lon="9.1417904">
                <ele>119.0</ele>
                <time>2020-08-29T17:03:22.000Z</time>
                <name>Trackpoint 7418</name>
            </trkpt>
            <trkpt lat="49.9719232" lon="9.1417">
                <ele>119.0</ele>
                <time>2020-08-29T17:03:25.000Z</time>
                <name>Trackpoint 7419</name>
            </trkpt>
            <trkpt lat="49.9720128" lon="9.14164">
                <ele>119.0</ele>
                <time>2020-08-29T17:03:29.000Z</time>
                <name>Trackpoint 7420</name>
            </trkpt>
            <trkpt lat="49.9721248" lon="9.1416184">
                <ele>119.0</ele>
                <time>2020-08-29T17:03:32.000Z</time>
                <name>Trackpoint 7421</name>
            </trkpt>
            <trkpt lat="49.9722496" lon="9.141612">
                <ele>119.0</ele>
                <time>2020-08-29T17:03:35.000Z</time>
                <name>Trackpoint 7422</name>
            </trkpt>
            <trkpt lat="49.9723808" lon="9.1416256">
                <ele>119.0</ele>
                <time>2020-08-29T17:03:38.000Z</time>
                <name>Trackpoint 7423</name>
            </trkpt>
            <trkpt lat="49.9724736" lon="9.1416304">
                <ele>119.0</ele>
                <time>2020-08-29T17:03:40.000Z</time>
                <name>Trackpoint 7424</name>
            </trkpt>
            <trkpt lat="49.972608" lon="9.14162">
                <ele>119.0</ele>
                <time>2020-08-29T17:03:43.000Z</time>
                <name>Trackpoint 7425</name>
            </trkpt>
            <trkpt lat="49.9727296" lon="9.1416056">
                <ele>119.0</ele>
                <time>2020-08-29T17:03:46.000Z</time>
                <name>Trackpoint 7426</name>
            </trkpt>
            <trkpt lat="49.97288" lon="9.1415832">
                <ele>118.0</ele>
                <time>2020-08-29T17:03:49.000Z</time>
                <name>Trackpoint 7427</name>
            </trkpt>
            <trkpt lat="49.9729856" lon="9.1415656">
                <ele>118.0</ele>
                <time>2020-08-29T17:03:51.000Z</time>
                <name>Trackpoint 7428</name>
            </trkpt>
            <trkpt lat="49.9731136" lon="9.1415632">
                <ele>118.0</ele>
                <time>2020-08-29T17:03:54.000Z</time>
                <name>Trackpoint 7429</name>
            </trkpt>
            <trkpt lat="49.9732032" lon="9.1415464">
                <ele>118.0</ele>
                <time>2020-08-29T17:03:56.000Z</time>
                <name>Trackpoint 7430</name>
            </trkpt>
            <trkpt lat="49.973312" lon="9.1415032">
                <ele>118.0</ele>
                <time>2020-08-29T17:03:59.000Z</time>
                <name>Trackpoint 7431</name>
            </trkpt>
            <trkpt lat="49.9734336" lon="9.1414816">
                <ele>118.0</ele>
                <time>2020-08-29T17:04:02.000Z</time>
                <name>Trackpoint 7432</name>
            </trkpt>
            <trkpt lat="49.9735264" lon="9.1414568">
                <ele>118.0</ele>
                <time>2020-08-29T17:04:04.000Z</time>
                <name>Trackpoint 7433</name>
            </trkpt>
            <trkpt lat="49.9736256" lon="9.141408">
                <ele>118.0</ele>
                <time>2020-08-29T17:04:06.000Z</time>
                <name>Trackpoint 7434</name>
            </trkpt>
            <trkpt lat="49.9737216" lon="9.1413632">
                <ele>118.0</ele>
                <time>2020-08-29T17:04:08.000Z</time>
                <name>Trackpoint 7435</name>
            </trkpt>
            <trkpt lat="49.9738208" lon="9.141332">
                <ele>117.0</ele>
                <time>2020-08-29T17:04:10.000Z</time>
                <name>Trackpoint 7436</name>
            </trkpt>
            <trkpt lat="49.97392" lon="9.1412952">
                <ele>117.0</ele>
                <time>2020-08-29T17:04:12.000Z</time>
                <name>Trackpoint 7437</name>
            </trkpt>
            <trkpt lat="49.9740128" lon="9.1412672">
                <ele>117.0</ele>
                <time>2020-08-29T17:04:14.000Z</time>
                <name>Trackpoint 7438</name>
            </trkpt>
            <trkpt lat="49.9741248" lon="9.1412248">
                <ele>117.0</ele>
                <time>2020-08-29T17:04:16.000Z</time>
                <name>Trackpoint 7439</name>
            </trkpt>
            <trkpt lat="49.9742208" lon="9.1411816">
                <ele>117.0</ele>
                <time>2020-08-29T17:04:18.000Z</time>
                <name>Trackpoint 7440</name>
            </trkpt>
            <trkpt lat="49.9743104" lon="9.141156">
                <ele>117.0</ele>
                <time>2020-08-29T17:04:20.000Z</time>
                <name>Trackpoint 7441</name>
            </trkpt>
            <trkpt lat="49.9743904" lon="9.1411">
                <ele>117.0</ele>
                <time>2020-08-29T17:04:22.000Z</time>
                <name>Trackpoint 7442</name>
            </trkpt>
            <trkpt lat="49.9744672" lon="9.1410488">
                <ele>117.0</ele>
                <time>2020-08-29T17:04:24.000Z</time>
                <name>Trackpoint 7443</name>
            </trkpt>
            <trkpt lat="49.9745408" lon="9.1409928">
                <ele>117.0</ele>
                <time>2020-08-29T17:04:26.000Z</time>
                <name>Trackpoint 7444</name>
            </trkpt>
            <trkpt lat="49.9746336" lon="9.1409264">
                <ele>117.0</ele>
                <time>2020-08-29T17:04:29.000Z</time>
                <name>Trackpoint 7445</name>
            </trkpt>
            <trkpt lat="49.9747232" lon="9.1408664">
                <ele>116.0</ele>
                <time>2020-08-29T17:04:57.000Z</time>
                <name>Trackpoint 7446</name>
            </trkpt>
            <trkpt lat="49.9748032" lon="9.1408232">
                <ele>116.0</ele>
                <time>2020-08-29T17:05:01.000Z</time>
                <name>Trackpoint 7447</name>
            </trkpt>
            <trkpt lat="49.9748672" lon="9.140752">
                <ele>116.0</ele>
                <time>2020-08-29T17:05:22.000Z</time>
                <name>Trackpoint 7448</name>
            </trkpt>
            <trkpt lat="49.9749728" lon="9.1407232">
                <ele>116.0</ele>
                <time>2020-08-29T17:05:27.000Z</time>
                <name>Trackpoint 7449</name>
            </trkpt>
            <trkpt lat="49.9750784" lon="9.1406872">
                <ele>116.0</ele>
                <time>2020-08-29T17:05:30.000Z</time>
                <name>Trackpoint 7450</name>
            </trkpt>
            <trkpt lat="49.9751904" lon="9.1406448">
                <ele>116.0</ele>
                <time>2020-08-29T17:05:33.000Z</time>
                <name>Trackpoint 7451</name>
            </trkpt>
            <trkpt lat="49.9753152" lon="9.1405824">
                <ele>116.0</ele>
                <time>2020-08-29T17:05:36.000Z</time>
                <name>Trackpoint 7452</name>
            </trkpt>
            <trkpt lat="49.9754208" lon="9.140536">
                <ele>116.0</ele>
                <time>2020-08-29T17:05:39.000Z</time>
                <name>Trackpoint 7453</name>
            </trkpt>
            <trkpt lat="49.9755168" lon="9.1404736">
                <ele>115.0</ele>
                <time>2020-08-29T17:06:07.000Z</time>
                <name>Trackpoint 7454</name>
            </trkpt>
            <trkpt lat="49.975632" lon="9.1403888">
                <ele>115.0</ele>
                <time>2020-08-29T17:06:10.000Z</time>
                <name>Trackpoint 7455</name>
            </trkpt>
            <trkpt lat="49.975712" lon="9.1403352">
                <ele>115.0</ele>
                <time>2020-08-29T17:06:12.000Z</time>
                <name>Trackpoint 7456</name>
            </trkpt>
            <trkpt lat="49.975792" lon="9.1402768">
                <ele>115.0</ele>
                <time>2020-08-29T17:06:15.000Z</time>
                <name>Trackpoint 7457</name>
            </trkpt>
            <trkpt lat="49.9758656" lon="9.1401784">
                <ele>115.0</ele>
                <time>2020-08-29T17:06:18.000Z</time>
                <name>Trackpoint 7458</name>
            </trkpt>
            <trkpt lat="49.9759136" lon="9.1400808">
                <ele>115.0</ele>
                <time>2020-08-29T17:06:20.000Z</time>
                <name>Trackpoint 7459</name>
            </trkpt>
            <trkpt lat="49.976016" lon="9.1400272">
                <ele>115.0</ele>
                <time>2020-08-29T17:06:23.000Z</time>
                <name>Trackpoint 7460</name>
            </trkpt>
            <trkpt lat="49.9761024" lon="9.1399336">
                <ele>115.0</ele>
                <time>2020-08-29T17:06:26.000Z</time>
                <name>Trackpoint 7461</name>
            </trkpt>
            <trkpt lat="49.9761856" lon="9.1398584">
                <ele>115.0</ele>
                <time>2020-08-29T17:06:29.000Z</time>
                <name>Trackpoint 7462</name>
            </trkpt>
            <trkpt lat="49.9763008" lon="9.1398296">
                <ele>115.0</ele>
                <time>2020-08-29T17:06:33.000Z</time>
                <name>Trackpoint 7463</name>
            </trkpt>
            <trkpt lat="49.976384" lon="9.1397752">
                <ele>115.0</ele>
                <time>2020-08-29T17:06:36.000Z</time>
                <name>Trackpoint 7464</name>
            </trkpt>
            <trkpt lat="49.976464" lon="9.1396968">
                <ele>115.0</ele>
                <time>2020-08-29T17:06:39.000Z</time>
                <name>Trackpoint 7465</name>
            </trkpt>
            <trkpt lat="49.9765504" lon="9.1396568">
                <ele>115.0</ele>
                <time>2020-08-29T17:06:43.000Z</time>
                <name>Trackpoint 7466</name>
            </trkpt>
            <trkpt lat="49.9765408" lon="9.1395632">
                <ele>115.0</ele>
                <time>2020-08-29T17:07:02.000Z</time>
                <name>Trackpoint 7467</name>
            </trkpt>
            <trkpt lat="49.9765536" lon="9.1394392">
                <ele>115.0</ele>
                <time>2020-08-29T17:07:04.000Z</time>
                <name>Trackpoint 7468</name>
            </trkpt>
            <trkpt lat="49.976592" lon="9.1393">
                <ele>115.0</ele>
                <time>2020-08-29T17:07:06.000Z</time>
                <name>Trackpoint 7469</name>
            </trkpt>
            <trkpt lat="49.9766336" lon="9.1391648">
                <ele>115.0</ele>
                <time>2020-08-29T17:07:08.000Z</time>
                <name>Trackpoint 7470</name>
            </trkpt>
            <trkpt lat="49.9766528" lon="9.139076">
                <ele>115.0</ele>
                <time>2020-08-29T17:07:09.000Z</time>
                <name>Trackpoint 7471</name>
            </trkpt>
            <trkpt lat="49.976688" lon="9.1389176">
                <ele>115.0</ele>
                <time>2020-08-29T17:07:11.000Z</time>
                <name>Trackpoint 7472</name>
            </trkpt>
            <trkpt lat="49.9767264" lon="9.138772">
                <ele>115.0</ele>
                <time>2020-08-29T17:07:13.000Z</time>
                <name>Trackpoint 7473</name>
            </trkpt>
            <trkpt lat="49.9767616" lon="9.1386216">
                <ele>115.0</ele>
                <time>2020-08-29T17:07:15.000Z</time>
                <name>Trackpoint 7474</name>
            </trkpt>
            <trkpt lat="49.9767904" lon="9.1384648">
                <ele>115.0</ele>
                <time>2020-08-29T17:07:17.000Z</time>
                <name>Trackpoint 7475</name>
            </trkpt>
            <trkpt lat="49.9768064" lon="9.13832">
                <ele>115.0</ele>
                <time>2020-08-29T17:07:19.000Z</time>
                <name>Trackpoint 7476</name>
            </trkpt>
            <trkpt lat="49.976832" lon="9.13818">
                <ele>115.0</ele>
                <time>2020-08-29T17:07:21.000Z</time>
                <name>Trackpoint 7477</name>
            </trkpt>
            <trkpt lat="49.9768448" lon="9.1380328">
                <ele>115.0</ele>
                <time>2020-08-29T17:07:23.000Z</time>
                <name>Trackpoint 7478</name>
            </trkpt>
            <trkpt lat="49.9768448" lon="9.1378784">
                <ele>115.0</ele>
                <time>2020-08-29T17:07:25.000Z</time>
                <name>Trackpoint 7479</name>
            </trkpt>
            <trkpt lat="49.9768448" lon="9.1377096">
                <ele>115.0</ele>
                <time>2020-08-29T17:07:27.000Z</time>
                <name>Trackpoint 7480</name>
            </trkpt>
            <trkpt lat="49.9768576" lon="9.1375416">
                <ele>115.0</ele>
                <time>2020-08-29T17:07:29.000Z</time>
                <name>Trackpoint 7481</name>
            </trkpt>
            <trkpt lat="49.9768768" lon="9.1374504">
                <ele>115.0</ele>
                <time>2020-08-29T17:07:30.000Z</time>
                <name>Trackpoint 7482</name>
            </trkpt>
            <trkpt lat="49.9769088" lon="9.1372904">
                <ele>115.0</ele>
                <time>2020-08-29T17:07:32.000Z</time>
                <name>Trackpoint 7483</name>
            </trkpt>
            <trkpt lat="49.9769568" lon="9.13716">
                <ele>115.0</ele>
                <time>2020-08-29T17:07:34.000Z</time>
                <name>Trackpoint 7484</name>
            </trkpt>
            <trkpt lat="49.9769856" lon="9.1370288">
                <ele>115.0</ele>
                <time>2020-08-29T17:07:36.000Z</time>
                <name>Trackpoint 7485</name>
            </trkpt>
            <trkpt lat="49.9770048" lon="9.1368736">
                <ele>115.0</ele>
                <time>2020-08-29T17:07:38.000Z</time>
                <name>Trackpoint 7486</name>
            </trkpt>
            <trkpt lat="49.9770208" lon="9.13674">
                <ele>115.0</ele>
                <time>2020-08-29T17:07:40.000Z</time>
                <name>Trackpoint 7487</name>
            </trkpt>
            <trkpt lat="49.9770304" lon="9.1366416">
                <ele>115.0</ele>
                <time>2020-08-29T17:07:42.000Z</time>
                <name>Trackpoint 7488</name>
            </trkpt>
            <trkpt lat="49.9770304" lon="9.1365416">
                <ele>114.0</ele>
                <time>2020-08-29T17:07:44.000Z</time>
                <name>Trackpoint 7489</name>
            </trkpt>
            <trkpt lat="49.97704" lon="9.1364384">
                <ele>114.0</ele>
                <time>2020-08-29T17:07:47.000Z</time>
                <name>Trackpoint 7490</name>
            </trkpt>
            <trkpt lat="49.9770368" lon="9.136296">
                <ele>114.0</ele>
                <time>2020-08-29T17:07:58.000Z</time>
                <name>Trackpoint 7491</name>
            </trkpt>
            <trkpt lat="49.9770688" lon="9.1362088">
                <ele>114.0</ele>
                <time>2020-08-29T17:08:05.000Z</time>
                <name>Trackpoint 7492</name>
            </trkpt>
            <trkpt lat="49.9770976" lon="9.1361112">
                <ele>113.0</ele>
                <time>2020-08-29T17:08:19.000Z</time>
                <name>Trackpoint 7493</name>
            </trkpt>
            <trkpt lat="49.9771168" lon="9.1360232">
                <ele>113.0</ele>
                <time>2020-08-29T17:08:21.000Z</time>
                <name>Trackpoint 7494</name>
            </trkpt>
            <trkpt lat="49.9771552" lon="9.1358984">
                <ele>113.0</ele>
                <time>2020-08-29T17:08:24.000Z</time>
                <name>Trackpoint 7495</name>
            </trkpt>
            <trkpt lat="49.9771776" lon="9.1357848">
                <ele>113.0</ele>
                <time>2020-08-29T17:08:26.000Z</time>
                <name>Trackpoint 7496</name>
            </trkpt>
            <trkpt lat="49.9772032" lon="9.13568">
                <ele>113.0</ele>
                <time>2020-08-29T17:08:28.000Z</time>
                <name>Trackpoint 7497</name>
            </trkpt>
            <trkpt lat="49.9772448" lon="9.1355688">
                <ele>113.0</ele>
                <time>2020-08-29T17:08:31.000Z</time>
                <name>Trackpoint 7498</name>
            </trkpt>
            <trkpt lat="49.9772736" lon="9.13548">
                <ele>113.0</ele>
                <time>2020-08-29T17:08:33.000Z</time>
                <name>Trackpoint 7499</name>
            </trkpt>
            <trkpt lat="49.9773024" lon="9.135384">
                <ele>113.0</ele>
                <time>2020-08-29T17:08:36.000Z</time>
                <name>Trackpoint 7500</name>
            </trkpt>
            <trkpt lat="49.9772544" lon="9.1352816">
                <ele>113.0</ele>
                <time>2020-08-29T17:08:41.000Z</time>
                <name>Trackpoint 7501</name>
            </trkpt>
            <trkpt lat="49.9772544" lon="9.1351496">
                <ele>113.0</ele>
                <time>2020-08-29T17:08:47.000Z</time>
                <name>Trackpoint 7502</name>
            </trkpt>
            <trkpt lat="49.977264" lon="9.135048">
                <ele>113.0</ele>
                <time>2020-08-29T17:08:49.000Z</time>
                <name>Trackpoint 7503</name>
            </trkpt>
            <trkpt lat="49.9772896" lon="9.1349248">
                <ele>113.0</ele>
                <time>2020-08-29T17:08:51.000Z</time>
                <name>Trackpoint 7504</name>
            </trkpt>
            <trkpt lat="49.9773088" lon="9.1348">
                <ele>113.0</ele>
                <time>2020-08-29T17:08:53.000Z</time>
                <name>Trackpoint 7505</name>
            </trkpt>
            <trkpt lat="49.9773216" lon="9.134684">
                <ele>113.0</ele>
                <time>2020-08-29T17:08:55.000Z</time>
                <name>Trackpoint 7506</name>
            </trkpt>
            <trkpt lat="49.9773536" lon="9.13458">
                <ele>113.0</ele>
                <time>2020-08-29T17:08:57.000Z</time>
                <name>Trackpoint 7507</name>
            </trkpt>
            <trkpt lat="49.977376" lon="9.1344736">
                <ele>113.0</ele>
                <time>2020-08-29T17:08:59.000Z</time>
                <name>Trackpoint 7508</name>
            </trkpt>
            <trkpt lat="49.9773952" lon="9.1343496">
                <ele>113.0</ele>
                <time>2020-08-29T17:09:01.000Z</time>
                <name>Trackpoint 7509</name>
            </trkpt>
            <trkpt lat="49.977424" lon="9.1342184">
                <ele>113.0</ele>
                <time>2020-08-29T17:09:03.000Z</time>
                <name>Trackpoint 7510</name>
            </trkpt>
            <trkpt lat="49.9774656" lon="9.1340816">
                <ele>113.0</ele>
                <time>2020-08-29T17:09:05.000Z</time>
                <name>Trackpoint 7511</name>
            </trkpt>
            <trkpt lat="49.9774976" lon="9.1339728">
                <ele>113.0</ele>
                <time>2020-08-29T17:09:07.000Z</time>
                <name>Trackpoint 7512</name>
            </trkpt>
            <trkpt lat="49.9775392" lon="9.1338832">
                <ele>113.0</ele>
                <time>2020-08-29T17:09:09.000Z</time>
                <name>Trackpoint 7513</name>
            </trkpt>
            <trkpt lat="49.9775808" lon="9.1338016">
                <ele>113.0</ele>
                <time>2020-08-29T17:09:11.000Z</time>
                <name>Trackpoint 7514</name>
            </trkpt>
            <trkpt lat="49.9776384" lon="9.1337048">
                <ele>113.0</ele>
                <time>2020-08-29T17:09:14.000Z</time>
                <name>Trackpoint 7515</name>
            </trkpt>
            <trkpt lat="49.9776416" lon="9.1336136">
                <ele>113.0</ele>
                <time>2020-08-29T17:09:22.000Z</time>
                <name>Trackpoint 7516</name>
            </trkpt>
            <trkpt lat="49.977664" lon="9.13352">
                <ele>112.0</ele>
                <time>2020-08-29T17:09:33.000Z</time>
                <name>Trackpoint 7517</name>
            </trkpt>
            <trkpt lat="49.9776832" lon="9.1334248">
                <ele>112.0</ele>
                <time>2020-08-29T17:09:35.000Z</time>
                <name>Trackpoint 7518</name>
            </trkpt>
            <trkpt lat="49.9777184" lon="9.13334">
                <ele>112.0</ele>
                <time>2020-08-29T17:09:37.000Z</time>
                <name>Trackpoint 7519</name>
            </trkpt>
            <trkpt lat="49.9777376" lon="9.1332512">
                <ele>112.0</ele>
                <time>2020-08-29T17:09:39.000Z</time>
                <name>Trackpoint 7520</name>
            </trkpt>
            <trkpt lat="49.9777632" lon="9.1331152">
                <ele>112.0</ele>
                <time>2020-08-29T17:09:42.000Z</time>
                <name>Trackpoint 7521</name>
            </trkpt>
            <trkpt lat="49.9777984" lon="9.1329832">
                <ele>112.0</ele>
                <time>2020-08-29T17:09:45.000Z</time>
                <name>Trackpoint 7522</name>
            </trkpt>
            <trkpt lat="49.9778304" lon="9.1328488">
                <ele>112.0</ele>
                <time>2020-08-29T17:09:48.000Z</time>
                <name>Trackpoint 7523</name>
            </trkpt>
            <trkpt lat="49.9778528" lon="9.1327552">
                <ele>112.0</ele>
                <time>2020-08-29T17:09:50.000Z</time>
                <name>Trackpoint 7524</name>
            </trkpt>
            <trkpt lat="49.9778784" lon="9.1326216">
                <ele>112.0</ele>
                <time>2020-08-29T17:09:53.000Z</time>
                <name>Trackpoint 7525</name>
            </trkpt>
            <trkpt lat="49.977904" lon="9.132532">
                <ele>111.0</ele>
                <time>2020-08-29T17:09:55.000Z</time>
                <name>Trackpoint 7526</name>
            </trkpt>
            <trkpt lat="49.9779392" lon="9.132428">
                <ele>112.0</ele>
                <time>2020-08-29T17:09:57.000Z</time>
                <name>Trackpoint 7527</name>
            </trkpt>
            <trkpt lat="49.9779552" lon="9.1323336">
                <ele>112.0</ele>
                <time>2020-08-29T17:09:59.000Z</time>
                <name>Trackpoint 7528</name>
            </trkpt>
            <trkpt lat="49.9779744" lon="9.1322384">
                <ele>112.0</ele>
                <time>2020-08-29T17:10:01.000Z</time>
                <name>Trackpoint 7529</name>
            </trkpt>
            <trkpt lat="49.978" lon="9.1321096">
                <ele>111.0</ele>
                <time>2020-08-29T17:10:04.000Z</time>
                <name>Trackpoint 7530</name>
            </trkpt>
            <trkpt lat="49.978016" lon="9.1319752">
                <ele>111.0</ele>
                <time>2020-08-29T17:10:07.000Z</time>
                <name>Trackpoint 7531</name>
            </trkpt>
            <trkpt lat="49.9780288" lon="9.1318848">
                <ele>111.0</ele>
                <time>2020-08-29T17:10:09.000Z</time>
                <name>Trackpoint 7532</name>
            </trkpt>
            <trkpt lat="49.9780288" lon="9.1317928">
                <ele>111.0</ele>
                <time>2020-08-29T17:10:11.000Z</time>
                <name>Trackpoint 7533</name>
            </trkpt>
            <trkpt lat="49.978048" lon="9.1316984">
                <ele>111.0</ele>
                <time>2020-08-29T17:10:13.000Z</time>
                <name>Trackpoint 7534</name>
            </trkpt>
            <trkpt lat="49.9780576" lon="9.1315896">
                <ele>111.0</ele>
                <time>2020-08-29T17:10:15.000Z</time>
                <name>Trackpoint 7535</name>
            </trkpt>
            <trkpt lat="49.978064" lon="9.1314784">
                <ele>112.0</ele>
                <time>2020-08-29T17:10:17.000Z</time>
                <name>Trackpoint 7536</name>
            </trkpt>
            <trkpt lat="49.9780768" lon="9.1313664">
                <ele>111.0</ele>
                <time>2020-08-29T17:10:19.000Z</time>
                <name>Trackpoint 7537</name>
            </trkpt>
            <trkpt lat="49.978096" lon="9.1312704">
                <ele>111.0</ele>
                <time>2020-08-29T17:10:21.000Z</time>
                <name>Trackpoint 7538</name>
            </trkpt>
            <trkpt lat="49.978096" lon="9.1311464">
                <ele>111.0</ele>
                <time>2020-08-29T17:10:23.000Z</time>
                <name>Trackpoint 7539</name>
            </trkpt>
            <trkpt lat="49.9781024" lon="9.1310216">
                <ele>111.0</ele>
                <time>2020-08-29T17:10:25.000Z</time>
                <name>Trackpoint 7540</name>
            </trkpt>
            <trkpt lat="49.9781024" lon="9.1308944">
                <ele>111.0</ele>
                <time>2020-08-29T17:10:27.000Z</time>
                <name>Trackpoint 7541</name>
            </trkpt>
            <trkpt lat="49.978128" lon="9.1307848">
                <ele>111.0</ele>
                <time>2020-08-29T17:10:29.000Z</time>
                <name>Trackpoint 7542</name>
            </trkpt>
            <trkpt lat="49.9781504" lon="9.1306896">
                <ele>111.0</ele>
                <time>2020-08-29T17:10:31.000Z</time>
                <name>Trackpoint 7543</name>
            </trkpt>
            <trkpt lat="49.9781696" lon="9.1305736">
                <ele>112.0</ele>
                <time>2020-08-29T17:10:33.000Z</time>
                <name>Trackpoint 7544</name>
            </trkpt>
            <trkpt lat="49.9781792" lon="9.1304616">
                <ele>111.0</ele>
                <time>2020-08-29T17:10:35.000Z</time>
                <name>Trackpoint 7545</name>
            </trkpt>
            <trkpt lat="49.9781952" lon="9.130352">
                <ele>111.0</ele>
                <time>2020-08-29T17:10:37.000Z</time>
                <name>Trackpoint 7546</name>
            </trkpt>
            <trkpt lat="49.978208" lon="9.1302368">
                <ele>111.0</ele>
                <time>2020-08-29T17:10:39.000Z</time>
                <name>Trackpoint 7547</name>
            </trkpt>
            <trkpt lat="49.9782144" lon="9.1301232">
                <ele>110.0</ele>
                <time>2020-08-29T17:10:41.000Z</time>
                <name>Trackpoint 7548</name>
            </trkpt>
            <trkpt lat="49.9782208" lon="9.1300232">
                <ele>110.0</ele>
                <time>2020-08-29T17:10:43.000Z</time>
                <name>Trackpoint 7549</name>
            </trkpt>
            <trkpt lat="49.97824" lon="9.1298904">
                <ele>111.0</ele>
                <time>2020-08-29T17:10:46.000Z</time>
                <name>Trackpoint 7550</name>
            </trkpt>
            <trkpt lat="49.9782432" lon="9.12978">
                <ele>110.0</ele>
                <time>2020-08-29T17:10:48.000Z</time>
                <name>Trackpoint 7551</name>
            </trkpt>
            <trkpt lat="49.978256" lon="9.1296656">
                <ele>111.0</ele>
                <time>2020-08-29T17:10:50.000Z</time>
                <name>Trackpoint 7552</name>
            </trkpt>
            <trkpt lat="49.9782624" lon="9.1295384">
                <ele>111.0</ele>
                <time>2020-08-29T17:10:52.000Z</time>
                <name>Trackpoint 7553</name>
            </trkpt>
            <trkpt lat="49.9782784" lon="9.1294184">
                <ele>111.0</ele>
                <time>2020-08-29T17:10:54.000Z</time>
                <name>Trackpoint 7554</name>
            </trkpt>
            <trkpt lat="49.9782976" lon="9.1292848">
                <ele>111.0</ele>
                <time>2020-08-29T17:10:56.000Z</time>
                <name>Trackpoint 7555</name>
            </trkpt>
            <trkpt lat="49.9782976" lon="9.129144">
                <ele>110.0</ele>
                <time>2020-08-29T17:10:58.000Z</time>
                <name>Trackpoint 7556</name>
            </trkpt>
            <trkpt lat="49.9783104" lon="9.1290032">
                <ele>111.0</ele>
                <time>2020-08-29T17:11:00.000Z</time>
                <name>Trackpoint 7557</name>
            </trkpt>
            <trkpt lat="49.9783104" lon="9.1288616">
                <ele>111.0</ele>
                <time>2020-08-29T17:11:02.000Z</time>
                <name>Trackpoint 7558</name>
            </trkpt>
            <trkpt lat="49.9783296" lon="9.128688">
                <ele>110.0</ele>
                <time>2020-08-29T17:11:04.000Z</time>
                <name>Trackpoint 7559</name>
            </trkpt>
            <trkpt lat="49.9783552" lon="9.1285264">
                <ele>110.0</ele>
                <time>2020-08-29T17:11:06.000Z</time>
                <name>Trackpoint 7560</name>
            </trkpt>
            <trkpt lat="49.9783808" lon="9.1283576">
                <ele>110.0</ele>
                <time>2020-08-29T17:11:08.000Z</time>
                <name>Trackpoint 7561</name>
            </trkpt>
            <trkpt lat="49.9784064" lon="9.1282016">
                <ele>110.0</ele>
                <time>2020-08-29T17:11:10.000Z</time>
                <name>Trackpoint 7562</name>
            </trkpt>
            <trkpt lat="49.9784256" lon="9.1280616">
                <ele>111.0</ele>
                <time>2020-08-29T17:11:12.000Z</time>
                <name>Trackpoint 7563</name>
            </trkpt>
            <trkpt lat="49.978448" lon="9.1279272">
                <ele>111.0</ele>
                <time>2020-08-29T17:11:14.000Z</time>
                <name>Trackpoint 7564</name>
            </trkpt>
            <trkpt lat="49.9784608" lon="9.1278016">
                <ele>110.0</ele>
                <time>2020-08-29T17:11:16.000Z</time>
                <name>Trackpoint 7565</name>
            </trkpt>
            <trkpt lat="49.9784576" lon="9.1276928">
                <ele>111.0</ele>
                <time>2020-08-29T17:11:18.000Z</time>
                <name>Trackpoint 7566</name>
            </trkpt>
            <trkpt lat="49.9784576" lon="9.1275728">
                <ele>111.0</ele>
                <time>2020-08-29T17:11:20.000Z</time>
                <name>Trackpoint 7567</name>
            </trkpt>
            <trkpt lat="49.9784928" lon="9.1274032">
                <ele>111.0</ele>
                <time>2020-08-29T17:11:22.000Z</time>
                <name>Trackpoint 7568</name>
            </trkpt>
            <trkpt lat="49.9785056" lon="9.1272472">
                <ele>112.0</ele>
                <time>2020-08-29T17:11:24.000Z</time>
                <name>Trackpoint 7569</name>
            </trkpt>
            <trkpt lat="49.9785248" lon="9.1270936">
                <ele>112.0</ele>
                <time>2020-08-29T17:11:26.000Z</time>
                <name>Trackpoint 7570</name>
            </trkpt>
            <trkpt lat="49.9785408" lon="9.1269264">
                <ele>112.0</ele>
                <time>2020-08-29T17:11:28.000Z</time>
                <name>Trackpoint 7571</name>
            </trkpt>
            <trkpt lat="49.9785504" lon="9.1267592">
                <ele>111.0</ele>
                <time>2020-08-29T17:11:30.000Z</time>
                <name>Trackpoint 7572</name>
            </trkpt>
            <trkpt lat="49.9785536" lon="9.1265936">
                <ele>110.0</ele>
                <time>2020-08-29T17:11:32.000Z</time>
                <name>Trackpoint 7573</name>
            </trkpt>
            <trkpt lat="49.9785664" lon="9.126436">
                <ele>110.0</ele>
                <time>2020-08-29T17:11:34.000Z</time>
                <name>Trackpoint 7574</name>
            </trkpt>
            <trkpt lat="49.9785728" lon="9.1262952">
                <ele>111.0</ele>
                <time>2020-08-29T17:11:36.000Z</time>
                <name>Trackpoint 7575</name>
            </trkpt>
            <trkpt lat="49.9785856" lon="9.1261432">
                <ele>111.0</ele>
                <time>2020-08-29T17:11:38.000Z</time>
                <name>Trackpoint 7576</name>
            </trkpt>
            <trkpt lat="49.978592" lon="9.1259832">
                <ele>110.0</ele>
                <time>2020-08-29T17:11:40.000Z</time>
                <name>Trackpoint 7577</name>
            </trkpt>
            <trkpt lat="49.9785984" lon="9.1258136">
                <ele>111.0</ele>
                <time>2020-08-29T17:11:42.000Z</time>
                <name>Trackpoint 7578</name>
            </trkpt>
            <trkpt lat="49.9786144" lon="9.1256488">
                <ele>110.0</ele>
                <time>2020-08-29T17:11:44.000Z</time>
                <name>Trackpoint 7579</name>
            </trkpt>
            <trkpt lat="49.9786304" lon="9.1254832">
                <ele>110.0</ele>
                <time>2020-08-29T17:11:46.000Z</time>
                <name>Trackpoint 7580</name>
            </trkpt>
            <trkpt lat="49.9786528" lon="9.1253144">
                <ele>110.0</ele>
                <time>2020-08-29T17:11:48.000Z</time>
                <name>Trackpoint 7581</name>
            </trkpt>
            <trkpt lat="49.9786688" lon="9.1251568">
                <ele>110.0</ele>
                <time>2020-08-29T17:11:50.000Z</time>
                <name>Trackpoint 7582</name>
            </trkpt>
            <trkpt lat="49.9786784" lon="9.1249968">
                <ele>110.0</ele>
                <time>2020-08-29T17:11:52.000Z</time>
                <name>Trackpoint 7583</name>
            </trkpt>
            <trkpt lat="49.9786912" lon="9.1248432">
                <ele>110.0</ele>
                <time>2020-08-29T17:11:54.000Z</time>
                <name>Trackpoint 7584</name>
            </trkpt>
            <trkpt lat="49.9786944" lon="9.1246928">
                <ele>110.0</ele>
                <time>2020-08-29T17:11:56.000Z</time>
                <name>Trackpoint 7585</name>
            </trkpt>
            <trkpt lat="49.9787072" lon="9.124552">
                <ele>110.0</ele>
                <time>2020-08-29T17:11:58.000Z</time>
                <name>Trackpoint 7586</name>
            </trkpt>
            <trkpt lat="49.9787136" lon="9.1243832">
                <ele>110.0</ele>
                <time>2020-08-29T17:12:00.000Z</time>
                <name>Trackpoint 7587</name>
            </trkpt>
            <trkpt lat="49.9787168" lon="9.1242104">
                <ele>110.0</ele>
                <time>2020-08-29T17:12:02.000Z</time>
                <name>Trackpoint 7588</name>
            </trkpt>
            <trkpt lat="49.9787232" lon="9.1240328">
                <ele>110.0</ele>
                <time>2020-08-29T17:12:04.000Z</time>
                <name>Trackpoint 7589</name>
            </trkpt>
            <trkpt lat="49.9787136" lon="9.1239336">
                <ele>110.0</ele>
                <time>2020-08-29T17:12:05.000Z</time>
                <name>Trackpoint 7590</name>
            </trkpt>
            <trkpt lat="49.9787264" lon="9.12376">
                <ele>110.0</ele>
                <time>2020-08-29T17:12:07.000Z</time>
                <name>Trackpoint 7591</name>
            </trkpt>
            <trkpt lat="49.9787296" lon="9.1235912">
                <ele>110.0</ele>
                <time>2020-08-29T17:12:09.000Z</time>
                <name>Trackpoint 7592</name>
            </trkpt>
            <trkpt lat="49.9787296" lon="9.1234168">
                <ele>110.0</ele>
                <time>2020-08-29T17:12:11.000Z</time>
                <name>Trackpoint 7593</name>
            </trkpt>
            <trkpt lat="49.9787328" lon="9.1233256">
                <ele>110.0</ele>
                <time>2020-08-29T17:12:12.000Z</time>
                <name>Trackpoint 7594</name>
            </trkpt>
            <trkpt lat="49.978736" lon="9.1232344">
                <ele>111.0</ele>
                <time>2020-08-29T17:12:13.000Z</time>
                <name>Trackpoint 7595</name>
            </trkpt>
            <trkpt lat="49.9787392" lon="9.12306">
                <ele>111.0</ele>
                <time>2020-08-29T17:12:15.000Z</time>
                <name>Trackpoint 7596</name>
            </trkpt>
            <trkpt lat="49.9787392" lon="9.1228936">
                <ele>111.0</ele>
                <time>2020-08-29T17:12:17.000Z</time>
                <name>Trackpoint 7597</name>
            </trkpt>
            <trkpt lat="49.9787264" lon="9.1227216">
                <ele>111.0</ele>
                <time>2020-08-29T17:12:19.000Z</time>
                <name>Trackpoint 7598</name>
            </trkpt>
            <trkpt lat="49.9787072" lon="9.122548">
                <ele>111.0</ele>
                <time>2020-08-29T17:12:21.000Z</time>
                <name>Trackpoint 7599</name>
            </trkpt>
            <trkpt lat="49.978704" lon="9.1223784">
                <ele>110.0</ele>
                <time>2020-08-29T17:12:23.000Z</time>
                <name>Trackpoint 7600</name>
            </trkpt>
            <trkpt lat="49.9786976" lon="9.1222088">
                <ele>110.0</ele>
                <time>2020-08-29T17:12:25.000Z</time>
                <name>Trackpoint 7601</name>
            </trkpt>
            <trkpt lat="49.978688" lon="9.1220376">
                <ele>110.0</ele>
                <time>2020-08-29T17:12:27.000Z</time>
                <name>Trackpoint 7602</name>
            </trkpt>
            <trkpt lat="49.9786784" lon="9.1218784">
                <ele>110.0</ele>
                <time>2020-08-29T17:12:29.000Z</time>
                <name>Trackpoint 7603</name>
            </trkpt>
            <trkpt lat="49.9786848" lon="9.1217848">
                <ele>110.0</ele>
                <time>2020-08-29T17:12:30.000Z</time>
                <name>Trackpoint 7604</name>
            </trkpt>
            <trkpt lat="49.9786848" lon="9.1216936">
                <ele>110.0</ele>
                <time>2020-08-29T17:12:31.000Z</time>
                <name>Trackpoint 7605</name>
            </trkpt>
            <trkpt lat="49.9786848" lon="9.1215112">
                <ele>110.0</ele>
                <time>2020-08-29T17:12:33.000Z</time>
                <name>Trackpoint 7606</name>
            </trkpt>
            <trkpt lat="49.9786848" lon="9.1214112">
                <ele>110.0</ele>
                <time>2020-08-29T17:12:34.000Z</time>
                <name>Trackpoint 7607</name>
            </trkpt>
            <trkpt lat="49.978672" lon="9.1213128">
                <ele>110.0</ele>
                <time>2020-08-29T17:12:35.000Z</time>
                <name>Trackpoint 7608</name>
            </trkpt>
            <trkpt lat="49.9786656" lon="9.1212168">
                <ele>110.0</ele>
                <time>2020-08-29T17:12:36.000Z</time>
                <name>Trackpoint 7609</name>
            </trkpt>
            <trkpt lat="49.9786528" lon="9.1211184">
                <ele>110.0</ele>
                <time>2020-08-29T17:12:37.000Z</time>
                <name>Trackpoint 7610</name>
            </trkpt>
            <trkpt lat="49.97864" lon="9.1210232">
                <ele>110.0</ele>
                <time>2020-08-29T17:12:38.000Z</time>
                <name>Trackpoint 7611</name>
            </trkpt>
            <trkpt lat="49.9786304" lon="9.1209272">
                <ele>110.0</ele>
                <time>2020-08-29T17:12:39.000Z</time>
                <name>Trackpoint 7612</name>
            </trkpt>
            <trkpt lat="49.9786272" lon="9.1207584">
                <ele>110.0</ele>
                <time>2020-08-29T17:12:41.000Z</time>
                <name>Trackpoint 7613</name>
            </trkpt>
            <trkpt lat="49.9786176" lon="9.1205928">
                <ele>110.0</ele>
                <time>2020-08-29T17:12:43.000Z</time>
                <name>Trackpoint 7614</name>
            </trkpt>
            <trkpt lat="49.978624" lon="9.120452">
                <ele>110.0</ele>
                <time>2020-08-29T17:12:45.000Z</time>
                <name>Trackpoint 7615</name>
            </trkpt>
            <trkpt lat="49.9786048" lon="9.120308">
                <ele>109.0</ele>
                <time>2020-08-29T17:12:47.000Z</time>
                <name>Trackpoint 7616</name>
            </trkpt>
            <trkpt lat="49.978576" lon="9.1201512">
                <ele>109.0</ele>
                <time>2020-08-29T17:12:49.000Z</time>
                <name>Trackpoint 7617</name>
            </trkpt>
            <trkpt lat="49.9785568" lon="9.119984">
                <ele>109.0</ele>
                <time>2020-08-29T17:12:51.000Z</time>
                <name>Trackpoint 7618</name>
            </trkpt>
            <trkpt lat="49.9785408" lon="9.119812">
                <ele>109.0</ele>
                <time>2020-08-29T17:12:53.000Z</time>
                <name>Trackpoint 7619</name>
            </trkpt>
            <trkpt lat="49.9785248" lon="9.1196448">
                <ele>109.0</ele>
                <time>2020-08-29T17:12:55.000Z</time>
                <name>Trackpoint 7620</name>
            </trkpt>
            <trkpt lat="49.978496" lon="9.1194888">
                <ele>109.0</ele>
                <time>2020-08-29T17:12:57.000Z</time>
                <name>Trackpoint 7621</name>
            </trkpt>
            <trkpt lat="49.9784768" lon="9.1193336">
                <ele>109.0</ele>
                <time>2020-08-29T17:12:59.000Z</time>
                <name>Trackpoint 7622</name>
            </trkpt>
            <trkpt lat="49.9784576" lon="9.11918">
                <ele>109.0</ele>
                <time>2020-08-29T17:13:01.000Z</time>
                <name>Trackpoint 7623</name>
            </trkpt>
            <trkpt lat="49.9784416" lon="9.119032">
                <ele>109.0</ele>
                <time>2020-08-29T17:13:03.000Z</time>
                <name>Trackpoint 7624</name>
            </trkpt>
            <trkpt lat="49.9784288" lon="9.118908">
                <ele>109.0</ele>
                <time>2020-08-29T17:13:05.000Z</time>
                <name>Trackpoint 7625</name>
            </trkpt>
            <trkpt lat="49.9784192" lon="9.11878">
                <ele>109.0</ele>
                <time>2020-08-29T17:13:08.000Z</time>
                <name>Trackpoint 7626</name>
            </trkpt>
            <trkpt lat="49.9783936" lon="9.1186616">
                <ele>109.0</ele>
                <time>2020-08-29T17:13:11.000Z</time>
                <name>Trackpoint 7627</name>
            </trkpt>
            <trkpt lat="49.9783968" lon="9.1185568">
                <ele>109.0</ele>
                <time>2020-08-29T17:13:13.000Z</time>
                <name>Trackpoint 7628</name>
            </trkpt>
            <trkpt lat="49.9783968" lon="9.1184432">
                <ele>109.0</ele>
                <time>2020-08-29T17:13:15.000Z</time>
                <name>Trackpoint 7629</name>
            </trkpt>
            <trkpt lat="49.9783936" lon="9.1183384">
                <ele>108.0</ele>
                <time>2020-08-29T17:13:17.000Z</time>
                <name>Trackpoint 7630</name>
            </trkpt>
            <trkpt lat="49.9783776" lon="9.1182448">
                <ele>108.0</ele>
                <time>2020-08-29T17:13:19.000Z</time>
                <name>Trackpoint 7631</name>
            </trkpt>
            <trkpt lat="49.978336" lon="9.1181272">
                <ele>109.0</ele>
                <time>2020-08-29T17:13:22.000Z</time>
                <name>Trackpoint 7632</name>
            </trkpt>
            <trkpt lat="49.9782944" lon="9.1180416">
                <ele>110.0</ele>
                <time>2020-08-29T17:16:23.000Z</time>
                <name>Trackpoint 7633</name>
            </trkpt>
            <trkpt lat="49.978288" lon="9.1179384">
                <ele>111.0</ele>
                <time>2020-08-29T17:19:16.000Z</time>
                <name>Trackpoint 7634</name>
            </trkpt>
            <trkpt lat="49.9782784" lon="9.1178016">
                <ele>111.0</ele>
                <time>2020-08-29T17:19:19.000Z</time>
                <name>Trackpoint 7635</name>
            </trkpt>
            <trkpt lat="49.978272" lon="9.1176928">
                <ele>111.0</ele>
                <time>2020-08-29T17:19:21.000Z</time>
                <name>Trackpoint 7636</name>
            </trkpt>
            <trkpt lat="49.9782528" lon="9.1175768">
                <ele>111.0</ele>
                <time>2020-08-29T17:19:23.000Z</time>
                <name>Trackpoint 7637</name>
            </trkpt>
            <trkpt lat="49.9782304" lon="9.1174544">
                <ele>111.0</ele>
                <time>2020-08-29T17:19:25.000Z</time>
                <name>Trackpoint 7638</name>
            </trkpt>
            <trkpt lat="49.9781984" lon="9.1173432">
                <ele>111.0</ele>
                <time>2020-08-29T17:19:27.000Z</time>
                <name>Trackpoint 7639</name>
            </trkpt>
            <trkpt lat="49.978176" lon="9.117244">
                <ele>111.0</ele>
                <time>2020-08-29T17:19:29.000Z</time>
                <name>Trackpoint 7640</name>
            </trkpt>
            <trkpt lat="49.9781504" lon="9.1171512">
                <ele>111.0</ele>
                <time>2020-08-29T17:19:31.000Z</time>
                <name>Trackpoint 7641</name>
            </trkpt>
            <trkpt lat="49.9781216" lon="9.1170656">
                <ele>110.0</ele>
                <time>2020-08-29T17:19:33.000Z</time>
                <name>Trackpoint 7642</name>
            </trkpt>
            <trkpt lat="49.9780928" lon="9.1169344">
                <ele>110.0</ele>
                <time>2020-08-29T17:19:36.000Z</time>
                <name>Trackpoint 7643</name>
            </trkpt>
            <trkpt lat="49.97808" lon="9.11684">
                <ele>110.0</ele>
                <time>2020-08-29T17:19:38.000Z</time>
                <name>Trackpoint 7644</name>
            </trkpt>
            <trkpt lat="49.9780576" lon="9.1167424">
                <ele>110.0</ele>
                <time>2020-08-29T17:19:40.000Z</time>
                <name>Trackpoint 7645</name>
            </trkpt>
            <trkpt lat="49.9780288" lon="9.1166112">
                <ele>110.0</ele>
                <time>2020-08-29T17:19:42.000Z</time>
                <name>Trackpoint 7646</name>
            </trkpt>
            <trkpt lat="49.9780128" lon="9.1164816">
                <ele>110.0</ele>
                <time>2020-08-29T17:19:44.000Z</time>
                <name>Trackpoint 7647</name>
            </trkpt>
            <trkpt lat="49.977984" lon="9.11634">
                <ele>111.0</ele>
                <time>2020-08-29T17:19:46.000Z</time>
                <name>Trackpoint 7648</name>
            </trkpt>
            <trkpt lat="49.9779712" lon="9.1161872">
                <ele>111.0</ele>
                <time>2020-08-29T17:19:48.000Z</time>
                <name>Trackpoint 7649</name>
            </trkpt>
            <trkpt lat="49.9779552" lon="9.11604">
                <ele>111.0</ele>
                <time>2020-08-29T17:19:50.000Z</time>
                <name>Trackpoint 7650</name>
            </trkpt>
            <trkpt lat="49.9779648" lon="9.1159032">
                <ele>111.0</ele>
                <time>2020-08-29T17:19:52.000Z</time>
                <name>Trackpoint 7651</name>
            </trkpt>
            <trkpt lat="49.9779904" lon="9.1157968">
                <ele>112.0</ele>
                <time>2020-08-29T17:19:54.000Z</time>
                <name>Trackpoint 7652</name>
            </trkpt>
            <trkpt lat="49.9779744" lon="9.1157032">
                <ele>111.0</ele>
                <time>2020-08-29T17:19:57.000Z</time>
                <name>Trackpoint 7653</name>
            </trkpt>
            <trkpt lat="49.9779168" lon="9.1155928">
                <ele>112.0</ele>
                <time>2020-08-29T17:20:00.000Z</time>
                <name>Trackpoint 7654</name>
            </trkpt>
            <trkpt lat="49.9778752" lon="9.1154832">
                <ele>112.0</ele>
                <time>2020-08-29T17:20:02.000Z</time>
                <name>Trackpoint 7655</name>
            </trkpt>
            <trkpt lat="49.977824" lon="9.1153616">
                <ele>111.0</ele>
                <time>2020-08-29T17:20:04.000Z</time>
                <name>Trackpoint 7656</name>
            </trkpt>
            <trkpt lat="49.977744" lon="9.1152064">
                <ele>112.0</ele>
                <time>2020-08-29T17:20:06.000Z</time>
                <name>Trackpoint 7657</name>
            </trkpt>
            <trkpt lat="49.97768" lon="9.115044">
                <ele>111.0</ele>
                <time>2020-08-29T17:20:08.000Z</time>
                <name>Trackpoint 7658</name>
            </trkpt>
            <trkpt lat="49.9776544" lon="9.1149528">
                <ele>111.0</ele>
                <time>2020-08-29T17:20:09.000Z</time>
                <name>Trackpoint 7659</name>
            </trkpt>
            <trkpt lat="49.9776352" lon="9.114852">
                <ele>111.0</ele>
                <time>2020-08-29T17:20:10.000Z</time>
                <name>Trackpoint 7660</name>
            </trkpt>
            <trkpt lat="49.9776128" lon="9.1147568">
                <ele>111.0</ele>
                <time>2020-08-29T17:20:11.000Z</time>
                <name>Trackpoint 7661</name>
            </trkpt>
            <trkpt lat="49.9775648" lon="9.1145752">
                <ele>112.0</ele>
                <time>2020-08-29T17:20:13.000Z</time>
                <name>Trackpoint 7662</name>
            </trkpt>
            <trkpt lat="49.9775264" lon="9.1144016">
                <ele>111.0</ele>
                <time>2020-08-29T17:20:15.000Z</time>
                <name>Trackpoint 7663</name>
            </trkpt>
            <trkpt lat="49.9774848" lon="9.1142264">
                <ele>111.0</ele>
                <time>2020-08-29T17:20:17.000Z</time>
                <name>Trackpoint 7664</name>
            </trkpt>
            <trkpt lat="49.9774432" lon="9.1140544">
                <ele>111.0</ele>
                <time>2020-08-29T17:20:19.000Z</time>
                <name>Trackpoint 7665</name>
            </trkpt>
            <trkpt lat="49.9773984" lon="9.1138872">
                <ele>111.0</ele>
                <time>2020-08-29T17:20:21.000Z</time>
                <name>Trackpoint 7666</name>
            </trkpt>
            <trkpt lat="49.9773472" lon="9.1137064">
                <ele>111.0</ele>
                <time>2020-08-29T17:20:23.000Z</time>
                <name>Trackpoint 7667</name>
            </trkpt>
            <trkpt lat="49.9773248" lon="9.1136176">
                <ele>110.0</ele>
                <time>2020-08-29T17:20:24.000Z</time>
                <name>Trackpoint 7668</name>
            </trkpt>
            <trkpt lat="49.9773024" lon="9.1135304">
                <ele>110.0</ele>
                <time>2020-08-29T17:20:25.000Z</time>
                <name>Trackpoint 7669</name>
            </trkpt>
            <trkpt lat="49.97728" lon="9.1134432">
                <ele>111.0</ele>
                <time>2020-08-29T17:20:26.000Z</time>
                <name>Trackpoint 7670</name>
            </trkpt>
            <trkpt lat="49.9772384" lon="9.1132736">
                <ele>111.0</ele>
                <time>2020-08-29T17:20:28.000Z</time>
                <name>Trackpoint 7671</name>
            </trkpt>
            <trkpt lat="49.9771904" lon="9.1131064">
                <ele>111.0</ele>
                <time>2020-08-29T17:20:30.000Z</time>
                <name>Trackpoint 7672</name>
            </trkpt>
            <trkpt lat="49.9771648" lon="9.11302">
                <ele>111.0</ele>
                <time>2020-08-29T17:20:31.000Z</time>
                <name>Trackpoint 7673</name>
            </trkpt>
            <trkpt lat="49.9771232" lon="9.1128552">
                <ele>111.0</ele>
                <time>2020-08-29T17:20:33.000Z</time>
                <name>Trackpoint 7674</name>
            </trkpt>
            <trkpt lat="49.9770784" lon="9.1126808">
                <ele>111.0</ele>
                <time>2020-08-29T17:20:35.000Z</time>
                <name>Trackpoint 7675</name>
            </trkpt>
            <trkpt lat="49.9770592" lon="9.1125816">
                <ele>111.0</ele>
                <time>2020-08-29T17:20:36.000Z</time>
                <name>Trackpoint 7676</name>
            </trkpt>
            <trkpt lat="49.9770368" lon="9.1124848">
                <ele>111.0</ele>
                <time>2020-08-29T17:20:37.000Z</time>
                <name>Trackpoint 7677</name>
            </trkpt>
            <trkpt lat="49.9770112" lon="9.1123888">
                <ele>111.0</ele>
                <time>2020-08-29T17:20:38.000Z</time>
                <name>Trackpoint 7678</name>
            </trkpt>
            <trkpt lat="49.9769888" lon="9.1122912">
                <ele>111.0</ele>
                <time>2020-08-29T17:20:39.000Z</time>
                <name>Trackpoint 7679</name>
            </trkpt>
            <trkpt lat="49.976976" lon="9.1121912">
                <ele>110.0</ele>
                <time>2020-08-29T17:20:40.000Z</time>
                <name>Trackpoint 7680</name>
            </trkpt>
            <trkpt lat="49.9769664" lon="9.1120904">
                <ele>110.0</ele>
                <time>2020-08-29T17:20:41.000Z</time>
                <name>Trackpoint 7681</name>
            </trkpt>
            <trkpt lat="49.9769664" lon="9.1119896">
                <ele>110.0</ele>
                <time>2020-08-29T17:20:42.000Z</time>
                <name>Trackpoint 7682</name>
            </trkpt>
            <trkpt lat="49.976976" lon="9.111888">
                <ele>110.0</ele>
                <time>2020-08-29T17:20:43.000Z</time>
                <name>Trackpoint 7683</name>
            </trkpt>
            <trkpt lat="49.9769856" lon="9.1117888">
                <ele>110.0</ele>
                <time>2020-08-29T17:20:44.000Z</time>
                <name>Trackpoint 7684</name>
            </trkpt>
            <trkpt lat="49.976992" lon="9.1116912">
                <ele>110.0</ele>
                <time>2020-08-29T17:20:45.000Z</time>
                <name>Trackpoint 7685</name>
            </trkpt>
            <trkpt lat="49.9770048" lon="9.1115952">
                <ele>109.0</ele>
                <time>2020-08-29T17:20:46.000Z</time>
                <name>Trackpoint 7686</name>
            </trkpt>
            <trkpt lat="49.977008" lon="9.1114912">
                <ele>110.0</ele>
                <time>2020-08-29T17:20:47.000Z</time>
                <name>Trackpoint 7687</name>
            </trkpt>
            <trkpt lat="49.977024" lon="9.1113968">
                <ele>110.0</ele>
                <time>2020-08-29T17:20:48.000Z</time>
                <name>Trackpoint 7688</name>
            </trkpt>
            <trkpt lat="49.9770304" lon="9.1112984">
                <ele>110.0</ele>
                <time>2020-08-29T17:20:49.000Z</time>
                <name>Trackpoint 7689</name>
            </trkpt>
            <trkpt lat="49.9770304" lon="9.1112032">
                <ele>110.0</ele>
                <time>2020-08-29T17:20:50.000Z</time>
                <name>Trackpoint 7690</name>
            </trkpt>
            <trkpt lat="49.9770208" lon="9.111112">
                <ele>109.0</ele>
                <time>2020-08-29T17:20:51.000Z</time>
                <name>Trackpoint 7691</name>
            </trkpt>
            <trkpt lat="49.9769568" lon="9.1109552">
                <ele>110.0</ele>
                <time>2020-08-29T17:20:53.000Z</time>
                <name>Trackpoint 7692</name>
            </trkpt>
            <trkpt lat="49.9768704" lon="9.11082">
                <ele>109.0</ele>
                <time>2020-08-29T17:20:55.000Z</time>
                <name>Trackpoint 7693</name>
            </trkpt>
            <trkpt lat="49.976784" lon="9.1106904">
                <ele>109.0</ele>
                <time>2020-08-29T17:20:57.000Z</time>
                <name>Trackpoint 7694</name>
            </trkpt>
            <trkpt lat="49.976704" lon="9.1105632">
                <ele>110.0</ele>
                <time>2020-08-29T17:20:59.000Z</time>
                <name>Trackpoint 7695</name>
            </trkpt>
            <trkpt lat="49.9766208" lon="9.1104344">
                <ele>109.0</ele>
                <time>2020-08-29T17:21:01.000Z</time>
                <name>Trackpoint 7696</name>
            </trkpt>
            <trkpt lat="49.9765408" lon="9.1103096">
                <ele>109.0</ele>
                <time>2020-08-29T17:21:03.000Z</time>
                <name>Trackpoint 7697</name>
            </trkpt>
            <trkpt lat="49.9764544" lon="9.110184">
                <ele>109.0</ele>
                <time>2020-08-29T17:21:05.000Z</time>
                <name>Trackpoint 7698</name>
            </trkpt>
            <trkpt lat="49.9763744" lon="9.110068">
                <ele>109.0</ele>
                <time>2020-08-29T17:21:07.000Z</time>
                <name>Trackpoint 7699</name>
            </trkpt>
            <trkpt lat="49.9762912" lon="9.1099464">
                <ele>109.0</ele>
                <time>2020-08-29T17:21:09.000Z</time>
                <name>Trackpoint 7700</name>
            </trkpt>
            <trkpt lat="49.976208" lon="9.1098272">
                <ele>109.0</ele>
                <time>2020-08-29T17:21:11.000Z</time>
                <name>Trackpoint 7701</name>
            </trkpt>
            <trkpt lat="49.976128" lon="9.1097048">
                <ele>108.0</ele>
                <time>2020-08-29T17:21:13.000Z</time>
                <name>Trackpoint 7702</name>
            </trkpt>
            <trkpt lat="49.9760512" lon="9.10958">
                <ele>109.0</ele>
                <time>2020-08-29T17:21:15.000Z</time>
                <name>Trackpoint 7703</name>
            </trkpt>
            <trkpt lat="49.975968" lon="9.1094568">
                <ele>109.0</ele>
                <time>2020-08-29T17:21:17.000Z</time>
                <name>Trackpoint 7704</name>
            </trkpt>
            <trkpt lat="49.9758976" lon="9.1093416">
                <ele>109.0</ele>
                <time>2020-08-29T17:21:19.000Z</time>
                <name>Trackpoint 7705</name>
            </trkpt>
            <trkpt lat="49.9758304" lon="9.1092232">
                <ele>109.0</ele>
                <time>2020-08-29T17:21:21.000Z</time>
                <name>Trackpoint 7706</name>
            </trkpt>
            <trkpt lat="49.975776" lon="9.1090896">
                <ele>109.0</ele>
                <time>2020-08-29T17:21:23.000Z</time>
                <name>Trackpoint 7707</name>
            </trkpt>
            <trkpt lat="49.975728" lon="9.1089512">
                <ele>109.0</ele>
                <time>2020-08-29T17:21:25.000Z</time>
                <name>Trackpoint 7708</name>
            </trkpt>
            <trkpt lat="49.9756736" lon="9.1088048">
                <ele>108.0</ele>
                <time>2020-08-29T17:21:27.000Z</time>
                <name>Trackpoint 7709</name>
            </trkpt>
            <trkpt lat="49.975616" lon="9.1086632">
                <ele>109.0</ele>
                <time>2020-08-29T17:21:29.000Z</time>
                <name>Trackpoint 7710</name>
            </trkpt>
            <trkpt lat="49.9755776" lon="9.1085784">
                <ele>109.0</ele>
                <time>2020-08-29T17:21:30.000Z</time>
                <name>Trackpoint 7711</name>
            </trkpt>
            <trkpt lat="49.9755264" lon="9.1084168">
                <ele>109.0</ele>
                <time>2020-08-29T17:21:32.000Z</time>
                <name>Trackpoint 7712</name>
            </trkpt>
            <trkpt lat="49.9755008" lon="9.1083296">
                <ele>109.0</ele>
                <time>2020-08-29T17:21:33.000Z</time>
                <name>Trackpoint 7713</name>
            </trkpt>
            <trkpt lat="49.975456" lon="9.1081832">
                <ele>109.0</ele>
                <time>2020-08-29T17:21:35.000Z</time>
                <name>Trackpoint 7714</name>
            </trkpt>
            <trkpt lat="49.9754144" lon="9.1080536">
                <ele>109.0</ele>
                <time>2020-08-29T17:21:37.000Z</time>
                <name>Trackpoint 7715</name>
            </trkpt>
            <trkpt lat="49.9753984" lon="9.1079584">
                <ele>109.0</ele>
                <time>2020-08-29T17:21:38.000Z</time>
                <name>Trackpoint 7716</name>
            </trkpt>
            <trkpt lat="49.97536" lon="9.1077968">
                <ele>110.0</ele>
                <time>2020-08-29T17:21:40.000Z</time>
                <name>Trackpoint 7717</name>
            </trkpt>
            <trkpt lat="49.9753312" lon="9.107652">
                <ele>110.0</ele>
                <time>2020-08-29T17:21:42.000Z</time>
                <name>Trackpoint 7718</name>
            </trkpt>
            <trkpt lat="49.9752992" lon="9.1074936">
                <ele>110.0</ele>
                <time>2020-08-29T17:21:44.000Z</time>
                <name>Trackpoint 7719</name>
            </trkpt>
            <trkpt lat="49.9752576" lon="9.1073328">
                <ele>110.0</ele>
                <time>2020-08-29T17:21:46.000Z</time>
                <name>Trackpoint 7720</name>
            </trkpt>
            <trkpt lat="49.9752224" lon="9.1071752">
                <ele>110.0</ele>
                <time>2020-08-29T17:21:48.000Z</time>
                <name>Trackpoint 7721</name>
            </trkpt>
            <trkpt lat="49.9752" lon="9.107088">
                <ele>110.0</ele>
                <time>2020-08-29T17:21:49.000Z</time>
                <name>Trackpoint 7722</name>
            </trkpt>
            <trkpt lat="49.9751616" lon="9.106928">
                <ele>110.0</ele>
                <time>2020-08-29T17:21:51.000Z</time>
                <name>Trackpoint 7723</name>
            </trkpt>
            <trkpt lat="49.9751296" lon="9.1067664">
                <ele>110.0</ele>
                <time>2020-08-29T17:21:53.000Z</time>
                <name>Trackpoint 7724</name>
            </trkpt>
            <trkpt lat="49.9750976" lon="9.1066">
                <ele>110.0</ele>
                <time>2020-08-29T17:21:55.000Z</time>
                <name>Trackpoint 7725</name>
            </trkpt>
            <trkpt lat="49.9750912" lon="9.1064352">
                <ele>111.0</ele>
                <time>2020-08-29T17:21:57.000Z</time>
                <name>Trackpoint 7726</name>
            </trkpt>
            <trkpt lat="49.9750912" lon="9.106268">
                <ele>111.0</ele>
                <time>2020-08-29T17:21:59.000Z</time>
                <name>Trackpoint 7727</name>
            </trkpt>
            <trkpt lat="49.975104" lon="9.1061152">
                <ele>110.0</ele>
                <time>2020-08-29T17:22:01.000Z</time>
                <name>Trackpoint 7728</name>
            </trkpt>
            <trkpt lat="49.9751296" lon="9.1059576">
                <ele>109.0</ele>
                <time>2020-08-29T17:22:03.000Z</time>
                <name>Trackpoint 7729</name>
            </trkpt>
            <trkpt lat="49.975152" lon="9.1058368">
                <ele>109.0</ele>
                <time>2020-08-29T17:22:05.000Z</time>
                <name>Trackpoint 7730</name>
            </trkpt>
            <trkpt lat="49.9751648" lon="9.1057416">
                <ele>108.0</ele>
                <time>2020-08-29T17:22:45.000Z</time>
                <name>Trackpoint 7731</name>
            </trkpt>
            <trkpt lat="49.9751968" lon="9.10562">
                <ele>108.0</ele>
                <time>2020-08-29T17:22:49.000Z</time>
                <name>Trackpoint 7732</name>
            </trkpt>
            <trkpt lat="49.975232" lon="9.1054848">
                <ele>108.0</ele>
                <time>2020-08-29T17:22:52.000Z</time>
                <name>Trackpoint 7733</name>
            </trkpt>
            <trkpt lat="49.9752416" lon="9.1053664">
                <ele>108.0</ele>
                <time>2020-08-29T17:22:54.000Z</time>
                <name>Trackpoint 7734</name>
            </trkpt>
            <trkpt lat="49.9752288" lon="9.1052328">
                <ele>108.0</ele>
                <time>2020-08-29T17:22:56.000Z</time>
                <name>Trackpoint 7735</name>
            </trkpt>
            <trkpt lat="49.9751808" lon="9.1051032">
                <ele>108.0</ele>
                <time>2020-08-29T17:22:58.000Z</time>
                <name>Trackpoint 7736</name>
            </trkpt>
            <trkpt lat="49.97512" lon="9.1049832">
                <ele>108.0</ele>
                <time>2020-08-29T17:23:00.000Z</time>
                <name>Trackpoint 7737</name>
            </trkpt>
            <trkpt lat="49.9750528" lon="9.1048632">
                <ele>108.0</ele>
                <time>2020-08-29T17:23:02.000Z</time>
                <name>Trackpoint 7738</name>
            </trkpt>
            <trkpt lat="49.9749952" lon="9.1047224">
                <ele>108.0</ele>
                <time>2020-08-29T17:23:04.000Z</time>
                <name>Trackpoint 7739</name>
            </trkpt>
            <trkpt lat="49.9749312" lon="9.1045816">
                <ele>108.0</ele>
                <time>2020-08-29T17:23:06.000Z</time>
                <name>Trackpoint 7740</name>
            </trkpt>
            <trkpt lat="49.9748768" lon="9.1044352">
                <ele>108.0</ele>
                <time>2020-08-29T17:23:08.000Z</time>
                <name>Trackpoint 7741</name>
            </trkpt>
            <trkpt lat="49.9748256" lon="9.1043064">
                <ele>108.0</ele>
                <time>2020-08-29T17:23:10.000Z</time>
                <name>Trackpoint 7742</name>
            </trkpt>
            <trkpt lat="49.9747776" lon="9.104172">
                <ele>108.0</ele>
                <time>2020-08-29T17:23:12.000Z</time>
                <name>Trackpoint 7743</name>
            </trkpt>
            <trkpt lat="49.974736" lon="9.1040224">
                <ele>108.0</ele>
                <time>2020-08-29T17:23:14.000Z</time>
                <name>Trackpoint 7744</name>
            </trkpt>
            <trkpt lat="49.9747008" lon="9.103864">
                <ele>108.0</ele>
                <time>2020-08-29T17:23:16.000Z</time>
                <name>Trackpoint 7745</name>
            </trkpt>
            <trkpt lat="49.974672" lon="9.103708">
                <ele>108.0</ele>
                <time>2020-08-29T17:23:18.000Z</time>
                <name>Trackpoint 7746</name>
            </trkpt>
            <trkpt lat="49.974656" lon="9.1035496">
                <ele>108.0</ele>
                <time>2020-08-29T17:23:20.000Z</time>
                <name>Trackpoint 7747</name>
            </trkpt>
            <trkpt lat="49.9746528" lon="9.1034136">
                <ele>108.0</ele>
                <time>2020-08-29T17:23:22.000Z</time>
                <name>Trackpoint 7748</name>
            </trkpt>
            <trkpt lat="49.97464" lon="9.103256">
                <ele>108.0</ele>
                <time>2020-08-29T17:23:24.000Z</time>
                <name>Trackpoint 7749</name>
            </trkpt>
            <trkpt lat="49.97464" lon="9.1030816">
                <ele>108.0</ele>
                <time>2020-08-29T17:23:26.000Z</time>
                <name>Trackpoint 7750</name>
            </trkpt>
            <trkpt lat="49.97464" lon="9.1029128">
                <ele>108.0</ele>
                <time>2020-08-29T17:23:28.000Z</time>
                <name>Trackpoint 7751</name>
            </trkpt>
            <trkpt lat="49.97464" lon="9.1027432">
                <ele>108.0</ele>
                <time>2020-08-29T17:23:30.000Z</time>
                <name>Trackpoint 7752</name>
            </trkpt>
            <trkpt lat="49.974624" lon="9.1025752">
                <ele>108.0</ele>
                <time>2020-08-29T17:23:32.000Z</time>
                <name>Trackpoint 7753</name>
            </trkpt>
            <trkpt lat="49.9746208" lon="9.1023912">
                <ele>108.0</ele>
                <time>2020-08-29T17:23:34.000Z</time>
                <name>Trackpoint 7754</name>
            </trkpt>
            <trkpt lat="49.974608" lon="9.1022192">
                <ele>108.0</ele>
                <time>2020-08-29T17:23:36.000Z</time>
                <name>Trackpoint 7755</name>
            </trkpt>
            <trkpt lat="49.974608" lon="9.1020416">
                <ele>108.0</ele>
                <time>2020-08-29T17:23:38.000Z</time>
                <name>Trackpoint 7756</name>
            </trkpt>
            <trkpt lat="49.9746016" lon="9.1018688">
                <ele>108.0</ele>
                <time>2020-08-29T17:23:40.000Z</time>
                <name>Trackpoint 7757</name>
            </trkpt>
            <trkpt lat="49.9745856" lon="9.1017088">
                <ele>108.0</ele>
                <time>2020-08-29T17:23:42.000Z</time>
                <name>Trackpoint 7758</name>
            </trkpt>
            <trkpt lat="49.9745856" lon="9.1015528">
                <ele>108.0</ele>
                <time>2020-08-29T17:23:44.000Z</time>
                <name>Trackpoint 7759</name>
            </trkpt>
            <trkpt lat="49.974576" lon="9.1013872">
                <ele>108.0</ele>
                <time>2020-08-29T17:23:46.000Z</time>
                <name>Trackpoint 7760</name>
            </trkpt>
            <trkpt lat="49.9745632" lon="9.1012968">
                <ele>108.0</ele>
                <time>2020-08-29T17:23:47.000Z</time>
                <name>Trackpoint 7761</name>
            </trkpt>
            <trkpt lat="49.9745472" lon="9.1011336">
                <ele>107.0</ele>
                <time>2020-08-29T17:23:49.000Z</time>
                <name>Trackpoint 7762</name>
            </trkpt>
            <trkpt lat="49.974528" lon="9.1009632">
                <ele>107.0</ele>
                <time>2020-08-29T17:23:51.000Z</time>
                <name>Trackpoint 7763</name>
            </trkpt>
            <trkpt lat="49.9745216" lon="9.1008056">
                <ele>107.0</ele>
                <time>2020-08-29T17:23:53.000Z</time>
                <name>Trackpoint 7764</name>
            </trkpt>
            <trkpt lat="49.9745184" lon="9.100628">
                <ele>107.0</ele>
                <time>2020-08-29T17:23:55.000Z</time>
                <name>Trackpoint 7765</name>
            </trkpt>
            <trkpt lat="49.9745088" lon="9.1005272">
                <ele>107.0</ele>
                <time>2020-08-29T17:23:56.000Z</time>
                <name>Trackpoint 7766</name>
            </trkpt>
            <trkpt lat="49.974496" lon="9.1003536">
                <ele>107.0</ele>
                <time>2020-08-29T17:23:58.000Z</time>
                <name>Trackpoint 7767</name>
            </trkpt>
            <trkpt lat="49.9744832" lon="9.1001832">
                <ele>107.0</ele>
                <time>2020-08-29T17:24:00.000Z</time>
                <name>Trackpoint 7768</name>
            </trkpt>
            <trkpt lat="49.9744768" lon="9.1000096">
                <ele>107.0</ele>
                <time>2020-08-29T17:24:02.000Z</time>
                <name>Trackpoint 7769</name>
            </trkpt>
            <trkpt lat="49.974464" lon="9.09992">
                <ele>107.0</ele>
                <time>2020-08-29T17:24:03.000Z</time>
                <name>Trackpoint 7770</name>
            </trkpt>
            <trkpt lat="49.9744576" lon="9.0998272">
                <ele>107.0</ele>
                <time>2020-08-29T17:24:04.000Z</time>
                <name>Trackpoint 7771</name>
            </trkpt>
            <trkpt lat="49.9744448" lon="9.099736">
                <ele>107.0</ele>
                <time>2020-08-29T17:24:05.000Z</time>
                <name>Trackpoint 7772</name>
            </trkpt>
            <trkpt lat="49.9744384" lon="9.0996448">
                <ele>107.0</ele>
                <time>2020-08-29T17:24:06.000Z</time>
                <name>Trackpoint 7773</name>
            </trkpt>
            <trkpt lat="49.9744192" lon="9.0994728">
                <ele>107.0</ele>
                <time>2020-08-29T17:24:08.000Z</time>
                <name>Trackpoint 7774</name>
            </trkpt>
            <trkpt lat="49.974416" lon="9.0993032">
                <ele>107.0</ele>
                <time>2020-08-29T17:24:10.000Z</time>
                <name>Trackpoint 7775</name>
            </trkpt>
            <trkpt lat="49.9744" lon="9.0991232">
                <ele>107.0</ele>
                <time>2020-08-29T17:24:12.000Z</time>
                <name>Trackpoint 7776</name>
            </trkpt>
            <trkpt lat="49.9743776" lon="9.0989512">
                <ele>107.0</ele>
                <time>2020-08-29T17:24:14.000Z</time>
                <name>Trackpoint 7777</name>
            </trkpt>
            <trkpt lat="49.9743744" lon="9.098788">
                <ele>107.0</ele>
                <time>2020-08-29T17:24:16.000Z</time>
                <name>Trackpoint 7778</name>
            </trkpt>
            <trkpt lat="49.9743648" lon="9.098628">
                <ele>106.0</ele>
                <time>2020-08-29T17:24:18.000Z</time>
                <name>Trackpoint 7779</name>
            </trkpt>
            <trkpt lat="49.9743552" lon="9.098452">
                <ele>106.0</ele>
                <time>2020-08-29T17:24:20.000Z</time>
                <name>Trackpoint 7780</name>
            </trkpt>
            <trkpt lat="49.9743488" lon="9.098356">
                <ele>106.0</ele>
                <time>2020-08-29T17:24:21.000Z</time>
                <name>Trackpoint 7781</name>
            </trkpt>
            <trkpt lat="49.9743424" lon="9.0981928">
                <ele>106.0</ele>
                <time>2020-08-29T17:24:23.000Z</time>
                <name>Trackpoint 7782</name>
            </trkpt>
            <trkpt lat="49.9743264" lon="9.0980128">
                <ele>106.0</ele>
                <time>2020-08-29T17:24:25.000Z</time>
                <name>Trackpoint 7783</name>
            </trkpt>
            <trkpt lat="49.97432" lon="9.097912">
                <ele>106.0</ele>
                <time>2020-08-29T17:24:26.000Z</time>
                <name>Trackpoint 7784</name>
            </trkpt>
            <trkpt lat="49.9743104" lon="9.0978144">
                <ele>106.0</ele>
                <time>2020-08-29T17:24:27.000Z</time>
                <name>Trackpoint 7785</name>
            </trkpt>
            <trkpt lat="49.9742976" lon="9.0977224">
                <ele>106.0</ele>
                <time>2020-08-29T17:24:28.000Z</time>
                <name>Trackpoint 7786</name>
            </trkpt>
            <trkpt lat="49.9742912" lon="9.0976296">
                <ele>106.0</ele>
                <time>2020-08-29T17:24:29.000Z</time>
                <name>Trackpoint 7787</name>
            </trkpt>
            <trkpt lat="49.9742816" lon="9.0974464">
                <ele>106.0</ele>
                <time>2020-08-29T17:24:31.000Z</time>
                <name>Trackpoint 7788</name>
            </trkpt>
            <trkpt lat="49.9742752" lon="9.0973416">
                <ele>106.0</ele>
                <time>2020-08-29T17:24:32.000Z</time>
                <name>Trackpoint 7789</name>
            </trkpt>
            <trkpt lat="49.9742656" lon="9.097248">
                <ele>106.0</ele>
                <time>2020-08-29T17:24:33.000Z</time>
                <name>Trackpoint 7790</name>
            </trkpt>
            <trkpt lat="49.9742752" lon="9.0970872">
                <ele>106.0</ele>
                <time>2020-08-29T17:24:35.000Z</time>
                <name>Trackpoint 7791</name>
            </trkpt>
            <trkpt lat="49.9742592" lon="9.0969104">
                <ele>106.0</ele>
                <time>2020-08-29T17:24:37.000Z</time>
                <name>Trackpoint 7792</name>
            </trkpt>
            <trkpt lat="49.9742432" lon="9.0967368">
                <ele>106.0</ele>
                <time>2020-08-29T17:24:39.000Z</time>
                <name>Trackpoint 7793</name>
            </trkpt>
            <trkpt lat="49.9742368" lon="9.0966464">
                <ele>106.0</ele>
                <time>2020-08-29T17:24:40.000Z</time>
                <name>Trackpoint 7794</name>
            </trkpt>
            <trkpt lat="49.9742272" lon="9.0965496">
                <ele>106.0</ele>
                <time>2020-08-29T17:24:41.000Z</time>
                <name>Trackpoint 7795</name>
            </trkpt>
            <trkpt lat="49.9742208" lon="9.0964584">
                <ele>106.0</ele>
                <time>2020-08-29T17:24:42.000Z</time>
                <name>Trackpoint 7796</name>
            </trkpt>
            <trkpt lat="49.9742176" lon="9.0962832">
                <ele>106.0</ele>
                <time>2020-08-29T17:24:44.000Z</time>
                <name>Trackpoint 7797</name>
            </trkpt>
            <trkpt lat="49.974224" lon="9.0961064">
                <ele>106.0</ele>
                <time>2020-08-29T17:24:46.000Z</time>
                <name>Trackpoint 7798</name>
            </trkpt>
            <trkpt lat="49.9742304" lon="9.0959328">
                <ele>105.0</ele>
                <time>2020-08-29T17:24:48.000Z</time>
                <name>Trackpoint 7799</name>
            </trkpt>
            <trkpt lat="49.9742272" lon="9.0958408">
                <ele>105.0</ele>
                <time>2020-08-29T17:24:49.000Z</time>
                <name>Trackpoint 7800</name>
            </trkpt>
            <trkpt lat="49.9742272" lon="9.09568">
                <ele>105.0</ele>
                <time>2020-08-29T17:24:51.000Z</time>
                <name>Trackpoint 7801</name>
            </trkpt>
            <trkpt lat="49.9742272" lon="9.0955016">
                <ele>105.0</ele>
                <time>2020-08-29T17:24:53.000Z</time>
                <name>Trackpoint 7802</name>
            </trkpt>
            <trkpt lat="49.9742304" lon="9.0954104">
                <ele>105.0</ele>
                <time>2020-08-29T17:24:54.000Z</time>
                <name>Trackpoint 7803</name>
            </trkpt>
            <trkpt lat="49.9742496" lon="9.0952456">
                <ele>105.0</ele>
                <time>2020-08-29T17:24:56.000Z</time>
                <name>Trackpoint 7804</name>
            </trkpt>
            <trkpt lat="49.9742464" lon="9.0951536">
                <ele>105.0</ele>
                <time>2020-08-29T17:24:57.000Z</time>
                <name>Trackpoint 7805</name>
            </trkpt>
            <trkpt lat="49.9742464" lon="9.0950616">
                <ele>105.0</ele>
                <time>2020-08-29T17:24:58.000Z</time>
                <name>Trackpoint 7806</name>
            </trkpt>
            <trkpt lat="49.974256" lon="9.0948864">
                <ele>105.0</ele>
                <time>2020-08-29T17:25:00.000Z</time>
                <name>Trackpoint 7807</name>
            </trkpt>
            <trkpt lat="49.9742688" lon="9.0947168">
                <ele>105.0</ele>
                <time>2020-08-29T17:25:02.000Z</time>
                <name>Trackpoint 7808</name>
            </trkpt>
            <trkpt lat="49.9742688" lon="9.0946152">
                <ele>105.0</ele>
                <time>2020-08-29T17:25:03.000Z</time>
                <name>Trackpoint 7809</name>
            </trkpt>
            <trkpt lat="49.9742688" lon="9.0945216">
                <ele>105.0</ele>
                <time>2020-08-29T17:25:04.000Z</time>
                <name>Trackpoint 7810</name>
            </trkpt>
            <trkpt lat="49.9742752" lon="9.0944272">
                <ele>105.0</ele>
                <time>2020-08-29T17:25:05.000Z</time>
                <name>Trackpoint 7811</name>
            </trkpt>
            <trkpt lat="49.9742816" lon="9.0943336">
                <ele>105.0</ele>
                <time>2020-08-29T17:25:06.000Z</time>
                <name>Trackpoint 7812</name>
            </trkpt>
            <trkpt lat="49.9742816" lon="9.0942248">
                <ele>105.0</ele>
                <time>2020-08-29T17:25:07.000Z</time>
                <name>Trackpoint 7813</name>
            </trkpt>
            <trkpt lat="49.9742816" lon="9.0941136">
                <ele>105.0</ele>
                <time>2020-08-29T17:25:08.000Z</time>
                <name>Trackpoint 7814</name>
            </trkpt>
            <trkpt lat="49.9742784" lon="9.0940088">
                <ele>105.0</ele>
                <time>2020-08-29T17:25:09.000Z</time>
                <name>Trackpoint 7815</name>
            </trkpt>
            <trkpt lat="49.9742752" lon="9.0939016">
                <ele>105.0</ele>
                <time>2020-08-29T17:25:10.000Z</time>
                <name>Trackpoint 7816</name>
            </trkpt>
            <trkpt lat="49.9742752" lon="9.0938032">
                <ele>105.0</ele>
                <time>2020-08-29T17:25:11.000Z</time>
                <name>Trackpoint 7817</name>
            </trkpt>
            <trkpt lat="49.9742624" lon="9.0937016">
                <ele>105.0</ele>
                <time>2020-08-29T17:25:12.000Z</time>
                <name>Trackpoint 7818</name>
            </trkpt>
            <trkpt lat="49.9742496" lon="9.0936">
                <ele>105.0</ele>
                <time>2020-08-29T17:25:13.000Z</time>
                <name>Trackpoint 7819</name>
            </trkpt>
            <trkpt lat="49.9742304" lon="9.0934952">
                <ele>105.0</ele>
                <time>2020-08-29T17:25:14.000Z</time>
                <name>Trackpoint 7820</name>
            </trkpt>
            <trkpt lat="49.974224" lon="9.0934">
                <ele>105.0</ele>
                <time>2020-08-29T17:25:15.000Z</time>
                <name>Trackpoint 7821</name>
            </trkpt>
            <trkpt lat="49.9742112" lon="9.0933016">
                <ele>105.0</ele>
                <time>2020-08-29T17:25:16.000Z</time>
                <name>Trackpoint 7822</name>
            </trkpt>
            <trkpt lat="49.9741888" lon="9.0931264">
                <ele>105.0</ele>
                <time>2020-08-29T17:25:18.000Z</time>
                <name>Trackpoint 7823</name>
            </trkpt>
            <trkpt lat="49.9741408" lon="9.09298">
                <ele>105.0</ele>
                <time>2020-08-29T17:25:20.000Z</time>
                <name>Trackpoint 7824</name>
            </trkpt>
            <trkpt lat="49.9741056" lon="9.0928968">
                <ele>105.0</ele>
                <time>2020-08-29T17:25:21.000Z</time>
                <name>Trackpoint 7825</name>
            </trkpt>
            <trkpt lat="49.9740832" lon="9.0928">
                <ele>105.0</ele>
                <time>2020-08-29T17:25:22.000Z</time>
                <name>Trackpoint 7826</name>
            </trkpt>
            <trkpt lat="49.9740672" lon="9.0927064">
                <ele>105.0</ele>
                <time>2020-08-29T17:25:23.000Z</time>
                <name>Trackpoint 7827</name>
            </trkpt>
            <trkpt lat="49.9740992" lon="9.0925552">
                <ele>105.0</ele>
                <time>2020-08-29T17:25:25.000Z</time>
                <name>Trackpoint 7828</name>
            </trkpt>
            <trkpt lat="49.9741792" lon="9.0924384">
                <ele>106.0</ele>
                <time>2020-08-29T17:25:27.000Z</time>
                <name>Trackpoint 7829</name>
            </trkpt>
            <trkpt lat="49.9742624" lon="9.0923384">
                <ele>106.0</ele>
                <time>2020-08-29T17:25:29.000Z</time>
                <name>Trackpoint 7830</name>
            </trkpt>
            <trkpt lat="49.9743584" lon="9.0922432">
                <ele>106.0</ele>
                <time>2020-08-29T17:25:31.000Z</time>
                <name>Trackpoint 7831</name>
            </trkpt>
            <trkpt lat="49.9744416" lon="9.0921736">
                <ele>106.0</ele>
                <time>2020-08-29T17:25:33.000Z</time>
                <name>Trackpoint 7832</name>
            </trkpt>
            <trkpt lat="49.974528" lon="9.092096">
                <ele>106.0</ele>
                <time>2020-08-29T17:25:35.000Z</time>
                <name>Trackpoint 7833</name>
            </trkpt>
            <trkpt lat="49.974608" lon="9.0920096">
                <ele>106.0</ele>
                <time>2020-08-29T17:25:37.000Z</time>
                <name>Trackpoint 7834</name>
            </trkpt>
            <trkpt lat="49.9746784" lon="9.0918752">
                <ele>106.0</ele>
                <time>2020-08-29T17:25:39.000Z</time>
                <name>Trackpoint 7835</name>
            </trkpt>
            <trkpt lat="49.9747072" lon="9.0917064">
                <ele>105.0</ele>
                <time>2020-08-29T17:25:41.000Z</time>
                <name>Trackpoint 7836</name>
            </trkpt>
            <trkpt lat="49.9747264" lon="9.0915384">
                <ele>106.0</ele>
                <time>2020-08-29T17:25:43.000Z</time>
                <name>Trackpoint 7837</name>
            </trkpt>
            <trkpt lat="49.9747584" lon="9.091376">
                <ele>106.0</ele>
                <time>2020-08-29T17:25:45.000Z</time>
                <name>Trackpoint 7838</name>
            </trkpt>
            <trkpt lat="49.9747936" lon="9.0912152">
                <ele>106.0</ele>
                <time>2020-08-29T17:25:47.000Z</time>
                <name>Trackpoint 7839</name>
            </trkpt>
            <trkpt lat="49.974816" lon="9.091128">
                <ele>106.0</ele>
                <time>2020-08-29T17:25:48.000Z</time>
                <name>Trackpoint 7840</name>
            </trkpt>
            <trkpt lat="49.9748544" lon="9.0909528">
                <ele>106.0</ele>
                <time>2020-08-29T17:25:50.000Z</time>
                <name>Trackpoint 7841</name>
            </trkpt>
            <trkpt lat="49.9748768" lon="9.0908632">
                <ele>106.0</ele>
                <time>2020-08-29T17:25:51.000Z</time>
                <name>Trackpoint 7842</name>
            </trkpt>
            <trkpt lat="49.9748928" lon="9.0907696">
                <ele>106.0</ele>
                <time>2020-08-29T17:25:52.000Z</time>
                <name>Trackpoint 7843</name>
            </trkpt>
            <trkpt lat="49.9749152" lon="9.0906784">
                <ele>106.0</ele>
                <time>2020-08-29T17:25:53.000Z</time>
                <name>Trackpoint 7844</name>
            </trkpt>
            <trkpt lat="49.9749344" lon="9.09058">
                <ele>106.0</ele>
                <time>2020-08-29T17:25:54.000Z</time>
                <name>Trackpoint 7845</name>
            </trkpt>
            <trkpt lat="49.9749792" lon="9.0904032">
                <ele>106.0</ele>
                <time>2020-08-29T17:25:56.000Z</time>
                <name>Trackpoint 7846</name>
            </trkpt>
            <trkpt lat="49.9750016" lon="9.0903128">
                <ele>106.0</ele>
                <time>2020-08-29T17:25:57.000Z</time>
                <name>Trackpoint 7847</name>
            </trkpt>
            <trkpt lat="49.9750336" lon="9.0902144">
                <ele>106.0</ele>
                <time>2020-08-29T17:25:58.000Z</time>
                <name>Trackpoint 7848</name>
            </trkpt>
            <trkpt lat="49.975056" lon="9.0901248">
                <ele>106.0</ele>
                <time>2020-08-29T17:25:59.000Z</time>
                <name>Trackpoint 7849</name>
            </trkpt>
            <trkpt lat="49.9750816" lon="9.0900384">
                <ele>106.0</ele>
                <time>2020-08-29T17:26:00.000Z</time>
                <name>Trackpoint 7850</name>
            </trkpt>
            <trkpt lat="49.9751008" lon="9.0899464">
                <ele>106.0</ele>
                <time>2020-08-29T17:26:01.000Z</time>
                <name>Trackpoint 7851</name>
            </trkpt>
            <trkpt lat="49.9751232" lon="9.0898552">
                <ele>106.0</ele>
                <time>2020-08-29T17:26:02.000Z</time>
                <name>Trackpoint 7852</name>
            </trkpt>
            <trkpt lat="49.9751424" lon="9.08976">
                <ele>106.0</ele>
                <time>2020-08-29T17:26:03.000Z</time>
                <name>Trackpoint 7853</name>
            </trkpt>
            <trkpt lat="49.9751648" lon="9.0896656">
                <ele>106.0</ele>
                <time>2020-08-29T17:26:04.000Z</time>
                <name>Trackpoint 7854</name>
            </trkpt>
            <trkpt lat="49.975184" lon="9.0895664">
                <ele>106.0</ele>
                <time>2020-08-29T17:26:05.000Z</time>
                <name>Trackpoint 7855</name>
            </trkpt>
            <trkpt lat="49.9752096" lon="9.0894736">
                <ele>106.0</ele>
                <time>2020-08-29T17:26:06.000Z</time>
                <name>Trackpoint 7856</name>
            </trkpt>
            <trkpt lat="49.975232" lon="9.08938">
                <ele>106.0</ele>
                <time>2020-08-29T17:26:07.000Z</time>
                <name>Trackpoint 7857</name>
            </trkpt>
            <trkpt lat="49.9752576" lon="9.0892872">
                <ele>106.0</ele>
                <time>2020-08-29T17:26:08.000Z</time>
                <name>Trackpoint 7858</name>
            </trkpt>
            <trkpt lat="49.9752832" lon="9.089196">
                <ele>106.0</ele>
                <time>2020-08-29T17:26:09.000Z</time>
                <name>Trackpoint 7859</name>
            </trkpt>
            <trkpt lat="49.975312" lon="9.0891064">
                <ele>106.0</ele>
                <time>2020-08-29T17:26:10.000Z</time>
                <name>Trackpoint 7860</name>
            </trkpt>
            <trkpt lat="49.9753376" lon="9.0890176">
                <ele>106.0</ele>
                <time>2020-08-29T17:26:11.000Z</time>
                <name>Trackpoint 7861</name>
            </trkpt>
            <trkpt lat="49.9753696" lon="9.0889328">
                <ele>106.0</ele>
                <time>2020-08-29T17:26:12.000Z</time>
                <name>Trackpoint 7862</name>
            </trkpt>
            <trkpt lat="49.9754432" lon="9.0887832">
                <ele>106.0</ele>
                <time>2020-08-29T17:26:14.000Z</time>
                <name>Trackpoint 7863</name>
            </trkpt>
            <trkpt lat="49.9755168" lon="9.088652">
                <ele>106.0</ele>
                <time>2020-08-29T17:26:16.000Z</time>
                <name>Trackpoint 7864</name>
            </trkpt>
            <trkpt lat="49.9755936" lon="9.0885064">
                <ele>106.0</ele>
                <time>2020-08-29T17:26:18.000Z</time>
                <name>Trackpoint 7865</name>
            </trkpt>
            <trkpt lat="49.9756384" lon="9.088348">
                <ele>106.0</ele>
                <time>2020-08-29T17:26:20.000Z</time>
                <name>Trackpoint 7866</name>
            </trkpt>
            <trkpt lat="49.9756864" lon="9.0882032">
                <ele>106.0</ele>
                <time>2020-08-29T17:26:22.000Z</time>
                <name>Trackpoint 7867</name>
            </trkpt>
            <trkpt lat="49.9757248" lon="9.0880496">
                <ele>106.0</ele>
                <time>2020-08-29T17:26:24.000Z</time>
                <name>Trackpoint 7868</name>
            </trkpt>
            <trkpt lat="49.9757696" lon="9.0878984">
                <ele>106.0</ele>
                <time>2020-08-29T17:26:26.000Z</time>
                <name>Trackpoint 7869</name>
            </trkpt>
            <trkpt lat="49.9758144" lon="9.0877488">
                <ele>106.0</ele>
                <time>2020-08-29T17:26:28.000Z</time>
                <name>Trackpoint 7870</name>
            </trkpt>
            <trkpt lat="49.9758688" lon="9.0876016">
                <ele>106.0</ele>
                <time>2020-08-29T17:26:30.000Z</time>
                <name>Trackpoint 7871</name>
            </trkpt>
            <trkpt lat="49.9759104" lon="9.0874592">
                <ele>106.0</ele>
                <time>2020-08-29T17:26:32.000Z</time>
                <name>Trackpoint 7872</name>
            </trkpt>
            <trkpt lat="49.975952" lon="9.0873248">
                <ele>106.0</ele>
                <time>2020-08-29T17:26:34.000Z</time>
                <name>Trackpoint 7873</name>
            </trkpt>
            <trkpt lat="49.9759936" lon="9.0871888">
                <ele>106.0</ele>
                <time>2020-08-29T17:26:36.000Z</time>
                <name>Trackpoint 7874</name>
            </trkpt>
            <trkpt lat="49.9760448" lon="9.0870568">
                <ele>106.0</ele>
                <time>2020-08-29T17:26:38.000Z</time>
                <name>Trackpoint 7875</name>
            </trkpt>
            <trkpt lat="49.9760928" lon="9.0869152">
                <ele>106.0</ele>
                <time>2020-08-29T17:26:40.000Z</time>
                <name>Trackpoint 7876</name>
            </trkpt>
            <trkpt lat="49.9761376" lon="9.0867904">
                <ele>106.0</ele>
                <time>2020-08-29T17:26:42.000Z</time>
                <name>Trackpoint 7877</name>
            </trkpt>
            <trkpt lat="49.9761888" lon="9.0866632">
                <ele>106.0</ele>
                <time>2020-08-29T17:26:44.000Z</time>
                <name>Trackpoint 7878</name>
            </trkpt>
            <trkpt lat="49.9761952" lon="9.08654">
                <ele>106.0</ele>
                <time>2020-08-29T17:26:46.000Z</time>
                <name>Trackpoint 7879</name>
            </trkpt>
            <trkpt lat="49.9761888" lon="9.0864136">
                <ele>106.0</ele>
                <time>2020-08-29T17:26:48.000Z</time>
                <name>Trackpoint 7880</name>
            </trkpt>
            <trkpt lat="49.976192" lon="9.0862952">
                <ele>105.0</ele>
                <time>2020-08-29T17:26:50.000Z</time>
                <name>Trackpoint 7881</name>
            </trkpt>
            <trkpt lat="49.9762112" lon="9.0861816">
                <ele>105.0</ele>
                <time>2020-08-29T17:26:53.000Z</time>
                <name>Trackpoint 7882</name>
            </trkpt>
            <trkpt lat="49.9762272" lon="9.0860416">
                <ele>105.0</ele>
                <time>2020-08-29T17:26:56.000Z</time>
                <name>Trackpoint 7883</name>
            </trkpt>
            <trkpt lat="49.9762368" lon="9.0859216">
                <ele>105.0</ele>
                <time>2020-08-29T17:26:58.000Z</time>
                <name>Trackpoint 7884</name>
            </trkpt>
            <trkpt lat="49.9762528" lon="9.085816">
                <ele>105.0</ele>
                <time>2020-08-29T17:27:00.000Z</time>
                <name>Trackpoint 7885</name>
            </trkpt>
            <trkpt lat="49.9762688" lon="9.085696">
                <ele>106.0</ele>
                <time>2020-08-29T17:27:02.000Z</time>
                <name>Trackpoint 7886</name>
            </trkpt>
            <trkpt lat="49.9763008" lon="9.0855848">
                <ele>106.0</ele>
                <time>2020-08-29T17:27:04.000Z</time>
                <name>Trackpoint 7887</name>
            </trkpt>
            <trkpt lat="49.9763264" lon="9.0854784">
                <ele>106.0</ele>
                <time>2020-08-29T17:27:06.000Z</time>
                <name>Trackpoint 7888</name>
            </trkpt>
            <trkpt lat="49.9763456" lon="9.0853728">
                <ele>106.0</ele>
                <time>2020-08-29T17:27:08.000Z</time>
                <name>Trackpoint 7889</name>
            </trkpt>
            <trkpt lat="49.9763616" lon="9.0852632">
                <ele>106.0</ele>
                <time>2020-08-29T17:27:11.000Z</time>
                <name>Trackpoint 7890</name>
            </trkpt>
            <trkpt lat="49.9763744" lon="9.0851448">
                <ele>107.0</ele>
                <time>2020-08-29T17:28:31.000Z</time>
                <name>Trackpoint 7891</name>
            </trkpt>
            <trkpt lat="49.9763872" lon="9.0850552">
                <ele>107.0</ele>
                <time>2020-08-29T17:28:33.000Z</time>
                <name>Trackpoint 7892</name>
            </trkpt>
            <trkpt lat="49.9764032" lon="9.0849488">
                <ele>107.0</ele>
                <time>2020-08-29T17:28:35.000Z</time>
                <name>Trackpoint 7893</name>
            </trkpt>
            <trkpt lat="49.9764224" lon="9.0848304">
                <ele>107.0</ele>
                <time>2020-08-29T17:28:37.000Z</time>
                <name>Trackpoint 7894</name>
            </trkpt>
            <trkpt lat="49.9764448" lon="9.084708">
                <ele>107.0</ele>
                <time>2020-08-29T17:28:39.000Z</time>
                <name>Trackpoint 7895</name>
            </trkpt>
            <trkpt lat="49.9764736" lon="9.0845936">
                <ele>106.0</ele>
                <time>2020-08-29T17:28:41.000Z</time>
                <name>Trackpoint 7896</name>
            </trkpt>
            <trkpt lat="49.9765024" lon="9.0844816">
                <ele>106.0</ele>
                <time>2020-08-29T17:28:43.000Z</time>
                <name>Trackpoint 7897</name>
            </trkpt>
            <trkpt lat="49.9765248" lon="9.0843536">
                <ele>106.0</ele>
                <time>2020-08-29T17:28:45.000Z</time>
                <name>Trackpoint 7898</name>
            </trkpt>
            <trkpt lat="49.976544" lon="9.0842216">
                <ele>106.0</ele>
                <time>2020-08-29T17:28:47.000Z</time>
                <name>Trackpoint 7899</name>
            </trkpt>
            <trkpt lat="49.97656" lon="9.0840784">
                <ele>106.0</ele>
                <time>2020-08-29T17:28:49.000Z</time>
                <name>Trackpoint 7900</name>
            </trkpt>
            <trkpt lat="49.9765792" lon="9.0839264">
                <ele>106.0</ele>
                <time>2020-08-29T17:28:51.000Z</time>
                <name>Trackpoint 7901</name>
            </trkpt>
            <trkpt lat="49.9765984" lon="9.08378">
                <ele>106.0</ele>
                <time>2020-08-29T17:28:53.000Z</time>
                <name>Trackpoint 7902</name>
            </trkpt>
            <trkpt lat="49.9766112" lon="9.0836424">
                <ele>106.0</ele>
                <time>2020-08-29T17:28:55.000Z</time>
                <name>Trackpoint 7903</name>
            </trkpt>
            <trkpt lat="49.9766272" lon="9.0835016">
                <ele>107.0</ele>
                <time>2020-08-29T17:28:57.000Z</time>
                <name>Trackpoint 7904</name>
            </trkpt>
            <trkpt lat="49.97664" lon="9.083348">
                <ele>106.0</ele>
                <time>2020-08-29T17:28:59.000Z</time>
                <name>Trackpoint 7905</name>
            </trkpt>
            <trkpt lat="49.9766624" lon="9.0832184">
                <ele>106.0</ele>
                <time>2020-08-29T17:29:01.000Z</time>
                <name>Trackpoint 7906</name>
            </trkpt>
            <trkpt lat="49.9766816" lon="9.0830696">
                <ele>106.0</ele>
                <time>2020-08-29T17:29:03.000Z</time>
                <name>Trackpoint 7907</name>
            </trkpt>
            <trkpt lat="49.976688" lon="9.0829136">
                <ele>106.0</ele>
                <time>2020-08-29T17:29:05.000Z</time>
                <name>Trackpoint 7908</name>
            </trkpt>
            <trkpt lat="49.976704" lon="9.0827688">
                <ele>106.0</ele>
                <time>2020-08-29T17:29:07.000Z</time>
                <name>Trackpoint 7909</name>
            </trkpt>
            <trkpt lat="49.9767264" lon="9.08262">
                <ele>106.0</ele>
                <time>2020-08-29T17:29:09.000Z</time>
                <name>Trackpoint 7910</name>
            </trkpt>
            <trkpt lat="49.976752" lon="9.082472">
                <ele>106.0</ele>
                <time>2020-08-29T17:29:11.000Z</time>
                <name>Trackpoint 7911</name>
            </trkpt>
            <trkpt lat="49.9767648" lon="9.0823136">
                <ele>106.0</ele>
                <time>2020-08-29T17:29:13.000Z</time>
                <name>Trackpoint 7912</name>
            </trkpt>
            <trkpt lat="49.9767904" lon="9.0821504">
                <ele>106.0</ele>
                <time>2020-08-29T17:29:15.000Z</time>
                <name>Trackpoint 7913</name>
            </trkpt>
            <trkpt lat="49.9768032" lon="9.0820152">
                <ele>106.0</ele>
                <time>2020-08-29T17:29:17.000Z</time>
                <name>Trackpoint 7914</name>
            </trkpt>
            <trkpt lat="49.9768192" lon="9.081872">
                <ele>106.0</ele>
                <time>2020-08-29T17:29:19.000Z</time>
                <name>Trackpoint 7915</name>
            </trkpt>
            <trkpt lat="49.9768384" lon="9.0817336">
                <ele>106.0</ele>
                <time>2020-08-29T17:29:21.000Z</time>
                <name>Trackpoint 7916</name>
            </trkpt>
            <trkpt lat="49.976848" lon="9.0815736">
                <ele>106.0</ele>
                <time>2020-08-29T17:29:23.000Z</time>
                <name>Trackpoint 7917</name>
            </trkpt>
            <trkpt lat="49.9768704" lon="9.0814136">
                <ele>106.0</ele>
                <time>2020-08-29T17:29:25.000Z</time>
                <name>Trackpoint 7918</name>
            </trkpt>
            <trkpt lat="49.9768928" lon="9.081252">
                <ele>107.0</ele>
                <time>2020-08-29T17:29:27.000Z</time>
                <name>Trackpoint 7919</name>
            </trkpt>
            <trkpt lat="49.9769184" lon="9.0810896">
                <ele>107.0</ele>
                <time>2020-08-29T17:29:29.000Z</time>
                <name>Trackpoint 7920</name>
            </trkpt>
            <trkpt lat="49.9769408" lon="9.0809368">
                <ele>107.0</ele>
                <time>2020-08-29T17:29:31.000Z</time>
                <name>Trackpoint 7921</name>
            </trkpt>
            <trkpt lat="49.9769696" lon="9.0807752">
                <ele>107.0</ele>
                <time>2020-08-29T17:29:33.000Z</time>
                <name>Trackpoint 7922</name>
            </trkpt>
            <trkpt lat="49.976992" lon="9.0806152">
                <ele>106.0</ele>
                <time>2020-08-29T17:29:35.000Z</time>
                <name>Trackpoint 7923</name>
            </trkpt>
            <trkpt lat="49.9770176" lon="9.080452">
                <ele>106.0</ele>
                <time>2020-08-29T17:29:37.000Z</time>
                <name>Trackpoint 7924</name>
            </trkpt>
            <trkpt lat="49.9770624" lon="9.0802872">
                <ele>106.0</ele>
                <time>2020-08-29T17:29:39.000Z</time>
                <name>Trackpoint 7925</name>
            </trkpt>
            <trkpt lat="49.977088" lon="9.0801248">
                <ele>106.0</ele>
                <time>2020-08-29T17:29:41.000Z</time>
                <name>Trackpoint 7926</name>
            </trkpt>
            <trkpt lat="49.9771232" lon="9.0799704">
                <ele>106.0</ele>
                <time>2020-08-29T17:29:43.000Z</time>
                <name>Trackpoint 7927</name>
            </trkpt>
            <trkpt lat="49.9771488" lon="9.0798168">
                <ele>106.0</ele>
                <time>2020-08-29T17:29:45.000Z</time>
                <name>Trackpoint 7928</name>
            </trkpt>
            <trkpt lat="49.9771744" lon="9.0796536">
                <ele>106.0</ele>
                <time>2020-08-29T17:29:47.000Z</time>
                <name>Trackpoint 7929</name>
            </trkpt>
            <trkpt lat="49.9771904" lon="9.0794872">
                <ele>107.0</ele>
                <time>2020-08-29T17:29:49.000Z</time>
                <name>Trackpoint 7930</name>
            </trkpt>
            <trkpt lat="49.9772224" lon="9.0793312">
                <ele>107.0</ele>
                <time>2020-08-29T17:29:51.000Z</time>
                <name>Trackpoint 7931</name>
            </trkpt>
            <trkpt lat="49.9772416" lon="9.0791904">
                <ele>107.0</ele>
                <time>2020-08-29T17:29:53.000Z</time>
                <name>Trackpoint 7932</name>
            </trkpt>
            <trkpt lat="49.977264" lon="9.079052">
                <ele>107.0</ele>
                <time>2020-08-29T17:29:55.000Z</time>
                <name>Trackpoint 7933</name>
            </trkpt>
            <trkpt lat="49.9772864" lon="9.0789272">
                <ele>107.0</ele>
                <time>2020-08-29T17:29:57.000Z</time>
                <name>Trackpoint 7934</name>
            </trkpt>
            <trkpt lat="49.9773248" lon="9.078812">
                <ele>107.0</ele>
                <time>2020-08-29T17:29:59.000Z</time>
                <name>Trackpoint 7935</name>
            </trkpt>
            <trkpt lat="49.977344" lon="9.0786912">
                <ele>107.0</ele>
                <time>2020-08-29T17:30:01.000Z</time>
                <name>Trackpoint 7936</name>
            </trkpt>
            <trkpt lat="49.97736" lon="9.0786016">
                <ele>107.0</ele>
                <time>2020-08-29T17:30:03.000Z</time>
                <name>Trackpoint 7937</name>
            </trkpt>
            <trkpt lat="49.9774016" lon="9.078488">
                <ele>107.0</ele>
                <time>2020-08-29T17:30:06.000Z</time>
                <name>Trackpoint 7938</name>
            </trkpt>
            <trkpt lat="49.9774272" lon="9.078372">
                <ele>107.0</ele>
                <time>2020-08-29T17:30:08.000Z</time>
                <name>Trackpoint 7939</name>
            </trkpt>
            <trkpt lat="49.9774592" lon="9.0782472">
                <ele>107.0</ele>
                <time>2020-08-29T17:30:10.000Z</time>
                <name>Trackpoint 7940</name>
            </trkpt>
            <trkpt lat="49.977488" lon="9.0781248">
                <ele>107.0</ele>
                <time>2020-08-29T17:30:12.000Z</time>
                <name>Trackpoint 7941</name>
            </trkpt>
            <trkpt lat="49.9775168" lon="9.0780048">
                <ele>107.0</ele>
                <time>2020-08-29T17:30:14.000Z</time>
                <name>Trackpoint 7942</name>
            </trkpt>
            <trkpt lat="49.977536" lon="9.0778952">
                <ele>107.0</ele>
                <time>2020-08-29T17:30:16.000Z</time>
                <name>Trackpoint 7943</name>
            </trkpt>
            <trkpt lat="49.9775616" lon="9.0777952">
                <ele>107.0</ele>
                <time>2020-08-29T17:30:18.000Z</time>
                <name>Trackpoint 7944</name>
            </trkpt>
            <trkpt lat="49.9775936" lon="9.077692">
                <ele>107.0</ele>
                <time>2020-08-29T17:30:20.000Z</time>
                <name>Trackpoint 7945</name>
            </trkpt>
            <trkpt lat="49.9776" lon="9.077592">
                <ele>107.0</ele>
                <time>2020-08-29T17:30:22.000Z</time>
                <name>Trackpoint 7946</name>
            </trkpt>
            <trkpt lat="49.977616" lon="9.0774832">
                <ele>107.0</ele>
                <time>2020-08-29T17:30:24.000Z</time>
                <name>Trackpoint 7947</name>
            </trkpt>
            <trkpt lat="49.9776384" lon="9.077376">
                <ele>107.0</ele>
                <time>2020-08-29T17:30:26.000Z</time>
                <name>Trackpoint 7948</name>
            </trkpt>
            <trkpt lat="49.977664" lon="9.0772736">
                <ele>108.0</ele>
                <time>2020-08-29T17:30:28.000Z</time>
                <name>Trackpoint 7949</name>
            </trkpt>
            <trkpt lat="49.9776928" lon="9.0771768">
                <ele>108.0</ele>
                <time>2020-08-29T17:30:30.000Z</time>
                <name>Trackpoint 7950</name>
            </trkpt>
            <trkpt lat="49.9777184" lon="9.0770664">
                <ele>108.0</ele>
                <time>2020-08-29T17:30:32.000Z</time>
                <name>Trackpoint 7951</name>
            </trkpt>
            <trkpt lat="49.9777504" lon="9.0769368">
                <ele>108.0</ele>
                <time>2020-08-29T17:30:34.000Z</time>
                <name>Trackpoint 7952</name>
            </trkpt>
            <trkpt lat="49.9777856" lon="9.0767944">
                <ele>108.0</ele>
                <time>2020-08-29T17:30:36.000Z</time>
                <name>Trackpoint 7953</name>
            </trkpt>
            <trkpt lat="49.9778208" lon="9.07664">
                <ele>108.0</ele>
                <time>2020-08-29T17:30:38.000Z</time>
                <name>Trackpoint 7954</name>
            </trkpt>
            <trkpt lat="49.9778592" lon="9.0764936">
                <ele>108.0</ele>
                <time>2020-08-29T17:30:40.000Z</time>
                <name>Trackpoint 7955</name>
            </trkpt>
            <trkpt lat="49.9779008" lon="9.0763456">
                <ele>108.0</ele>
                <time>2020-08-29T17:30:42.000Z</time>
                <name>Trackpoint 7956</name>
            </trkpt>
            <trkpt lat="49.9779392" lon="9.0761992">
                <ele>108.0</ele>
                <time>2020-08-29T17:30:44.000Z</time>
                <name>Trackpoint 7957</name>
            </trkpt>
            <trkpt lat="49.9779744" lon="9.0760472">
                <ele>108.0</ele>
                <time>2020-08-29T17:30:46.000Z</time>
                <name>Trackpoint 7958</name>
            </trkpt>
            <trkpt lat="49.9780096" lon="9.0758896">
                <ele>108.0</ele>
                <time>2020-08-29T17:30:48.000Z</time>
                <name>Trackpoint 7959</name>
            </trkpt>
            <trkpt lat="49.9780512" lon="9.0757376">
                <ele>108.0</ele>
                <time>2020-08-29T17:30:50.000Z</time>
                <name>Trackpoint 7960</name>
            </trkpt>
            <trkpt lat="49.9780768" lon="9.0756064">
                <ele>108.0</ele>
                <time>2020-08-29T17:30:52.000Z</time>
                <name>Trackpoint 7961</name>
            </trkpt>
            <trkpt lat="49.9781152" lon="9.0754632">
                <ele>108.0</ele>
                <time>2020-08-29T17:30:54.000Z</time>
                <name>Trackpoint 7962</name>
            </trkpt>
            <trkpt lat="49.97816" lon="9.0753088">
                <ele>108.0</ele>
                <time>2020-08-29T17:30:56.000Z</time>
                <name>Trackpoint 7963</name>
            </trkpt>
            <trkpt lat="49.9781984" lon="9.0751616">
                <ele>108.0</ele>
                <time>2020-08-29T17:30:58.000Z</time>
                <name>Trackpoint 7964</name>
            </trkpt>
            <trkpt lat="49.9782368" lon="9.0750112">
                <ele>108.0</ele>
                <time>2020-08-29T17:31:00.000Z</time>
                <name>Trackpoint 7965</name>
            </trkpt>
            <trkpt lat="49.9782816" lon="9.0748568">
                <ele>107.0</ele>
                <time>2020-08-29T17:31:02.000Z</time>
                <name>Trackpoint 7966</name>
            </trkpt>
            <trkpt lat="49.9783264" lon="9.0747216">
                <ele>107.0</ele>
                <time>2020-08-29T17:31:04.000Z</time>
                <name>Trackpoint 7967</name>
            </trkpt>
            <trkpt lat="49.978368" lon="9.0745832">
                <ele>108.0</ele>
                <time>2020-08-29T17:31:06.000Z</time>
                <name>Trackpoint 7968</name>
            </trkpt>
            <trkpt lat="49.9784064" lon="9.0744552">
                <ele>107.0</ele>
                <time>2020-08-29T17:31:08.000Z</time>
                <name>Trackpoint 7969</name>
            </trkpt>
            <trkpt lat="49.9784416" lon="9.074324">
                <ele>108.0</ele>
                <time>2020-08-29T17:31:10.000Z</time>
                <name>Trackpoint 7970</name>
            </trkpt>
            <trkpt lat="49.9784864" lon="9.0741864">
                <ele>108.0</ele>
                <time>2020-08-29T17:31:12.000Z</time>
                <name>Trackpoint 7971</name>
            </trkpt>
            <trkpt lat="49.978528" lon="9.0740432">
                <ele>108.0</ele>
                <time>2020-08-29T17:31:14.000Z</time>
                <name>Trackpoint 7972</name>
            </trkpt>
            <trkpt lat="49.9785664" lon="9.0739032">
                <ele>108.0</ele>
                <time>2020-08-29T17:31:16.000Z</time>
                <name>Trackpoint 7973</name>
            </trkpt>
            <trkpt lat="49.9786048" lon="9.0737616">
                <ele>108.0</ele>
                <time>2020-08-29T17:31:18.000Z</time>
                <name>Trackpoint 7974</name>
            </trkpt>
            <trkpt lat="49.9786464" lon="9.0736168">
                <ele>108.0</ele>
                <time>2020-08-29T17:31:20.000Z</time>
                <name>Trackpoint 7975</name>
            </trkpt>
            <trkpt lat="49.9786912" lon="9.073472">
                <ele>108.0</ele>
                <time>2020-08-29T17:31:22.000Z</time>
                <name>Trackpoint 7976</name>
            </trkpt>
            <trkpt lat="49.978736" lon="9.0733296">
                <ele>108.0</ele>
                <time>2020-08-29T17:31:24.000Z</time>
                <name>Trackpoint 7977</name>
            </trkpt>
            <trkpt lat="49.9787744" lon="9.0731984">
                <ele>108.0</ele>
                <time>2020-08-29T17:31:26.000Z</time>
                <name>Trackpoint 7978</name>
            </trkpt>
            <trkpt lat="49.9788256" lon="9.07306">
                <ele>108.0</ele>
                <time>2020-08-29T17:31:28.000Z</time>
                <name>Trackpoint 7979</name>
            </trkpt>
            <trkpt lat="49.9788672" lon="9.0729064">
                <ele>108.0</ele>
                <time>2020-08-29T17:31:30.000Z</time>
                <name>Trackpoint 7980</name>
            </trkpt>
            <trkpt lat="49.978912" lon="9.0727584">
                <ele>108.0</ele>
                <time>2020-08-29T17:31:32.000Z</time>
                <name>Trackpoint 7981</name>
            </trkpt>
            <trkpt lat="49.9789664" lon="9.0726216">
                <ele>109.0</ele>
                <time>2020-08-29T17:31:34.000Z</time>
                <name>Trackpoint 7982</name>
            </trkpt>
            <trkpt lat="49.9790176" lon="9.0724848">
                <ele>109.0</ele>
                <time>2020-08-29T17:31:36.000Z</time>
                <name>Trackpoint 7983</name>
            </trkpt>
            <trkpt lat="49.9790752" lon="9.0723512">
                <ele>109.0</ele>
                <time>2020-08-29T17:31:38.000Z</time>
                <name>Trackpoint 7984</name>
            </trkpt>
            <trkpt lat="49.9791328" lon="9.07222">
                <ele>109.0</ele>
                <time>2020-08-29T17:31:40.000Z</time>
                <name>Trackpoint 7985</name>
            </trkpt>
            <trkpt lat="49.9791904" lon="9.0720856">
                <ele>109.0</ele>
                <time>2020-08-29T17:31:42.000Z</time>
                <name>Trackpoint 7986</name>
            </trkpt>
            <trkpt lat="49.9792416" lon="9.0719536">
                <ele>109.0</ele>
                <time>2020-08-29T17:31:44.000Z</time>
                <name>Trackpoint 7987</name>
            </trkpt>
            <trkpt lat="49.9792992" lon="9.0718232">
                <ele>109.0</ele>
                <time>2020-08-29T17:31:46.000Z</time>
                <name>Trackpoint 7988</name>
            </trkpt>
            <trkpt lat="49.9793536" lon="9.0716936">
                <ele>108.0</ele>
                <time>2020-08-29T17:31:48.000Z</time>
                <name>Trackpoint 7989</name>
            </trkpt>
            <trkpt lat="49.9794144" lon="9.0715576">
                <ele>109.0</ele>
                <time>2020-08-29T17:31:50.000Z</time>
                <name>Trackpoint 7990</name>
            </trkpt>
            <trkpt lat="49.979472" lon="9.071432">
                <ele>108.0</ele>
                <time>2020-08-29T17:31:52.000Z</time>
                <name>Trackpoint 7991</name>
            </trkpt>
            <trkpt lat="49.9795296" lon="9.0713152">
                <ele>109.0</ele>
                <time>2020-08-29T17:31:54.000Z</time>
                <name>Trackpoint 7992</name>
            </trkpt>
            <trkpt lat="49.9795904" lon="9.071192">
                <ele>108.0</ele>
                <time>2020-08-29T17:31:56.000Z</time>
                <name>Trackpoint 7993</name>
            </trkpt>
            <trkpt lat="49.9796448" lon="9.0710784">
                <ele>109.0</ele>
                <time>2020-08-29T17:31:58.000Z</time>
                <name>Trackpoint 7994</name>
            </trkpt>
            <trkpt lat="49.9796992" lon="9.0709784">
                <ele>109.0</ele>
                <time>2020-08-29T17:32:00.000Z</time>
                <name>Trackpoint 7995</name>
            </trkpt>
            <trkpt lat="49.9797472" lon="9.0708936">
                <ele>109.0</ele>
                <time>2020-08-29T17:32:02.000Z</time>
                <name>Trackpoint 7996</name>
            </trkpt>
            <trkpt lat="49.9797888" lon="9.0708016">
                <ele>109.0</ele>
                <time>2020-08-29T17:32:04.000Z</time>
                <name>Trackpoint 7997</name>
            </trkpt>
            <trkpt lat="49.9798304" lon="9.0707216">
                <ele>109.0</ele>
                <time>2020-08-29T17:32:06.000Z</time>
                <name>Trackpoint 7998</name>
            </trkpt>
            <trkpt lat="49.9798912" lon="9.0706128">
                <ele>109.0</ele>
                <time>2020-08-29T17:32:09.000Z</time>
                <name>Trackpoint 7999</name>
            </trkpt>
            <trkpt lat="49.981378" lon="9.0722406">
                <ele>118.0</ele>
                <time>2020-08-30T07:19:40.000Z</time>
                <name>Trackpoint 287</name>
            </trkpt>
            <trkpt lat="49.9814336" lon="9.0721416">
                <ele>119.0</ele>
                <time>2020-08-30T07:19:44.000Z</time>
                <name>Trackpoint 289</name>
            </trkpt>
            <trkpt lat="49.9814688" lon="9.0720568">
                <ele>120.0</ele>
                <time>2020-08-30T07:19:46.000Z</time>
                <name>Trackpoint 290</name>
            </trkpt>
            <trkpt lat="49.9815104" lon="9.0719544">
                <ele>120.0</ele>
                <time>2020-08-30T07:19:49.000Z</time>
                <name>Trackpoint 291</name>
            </trkpt>
            <trkpt lat="49.9815552" lon="9.0718616">
                <ele>120.0</ele>
                <time>2020-08-30T07:20:26.000Z</time>
                <name>Trackpoint 292</name>
            </trkpt>
            <trkpt lat="49.9816512" lon="9.0717984">
                <ele>120.0</ele>
                <time>2020-08-30T07:20:30.000Z</time>
                <name>Trackpoint 293</name>
            </trkpt>
            <trkpt lat="49.9817312" lon="9.0716936">
                <ele>120.0</ele>
                <time>2020-08-30T07:20:33.000Z</time>
                <name>Trackpoint 294</name>
            </trkpt>
            <trkpt lat="49.981808" lon="9.0716312">
                <ele>120.0</ele>
                <time>2020-08-30T07:20:35.000Z</time>
                <name>Trackpoint 295</name>
            </trkpt>
            <trkpt lat="49.9818752" lon="9.0715664">
                <ele>119.0</ele>
                <time>2020-08-30T07:20:37.000Z</time>
                <name>Trackpoint 296</name>
            </trkpt>
            <trkpt lat="49.9819424" lon="9.0714968">
                <ele>119.0</ele>
                <time>2020-08-30T07:20:39.000Z</time>
                <name>Trackpoint 297</name>
            </trkpt>
            <trkpt lat="49.9820064" lon="9.07142">
                <ele>119.0</ele>
                <time>2020-08-30T07:20:41.000Z</time>
                <name>Trackpoint 298</name>
            </trkpt>
            <trkpt lat="49.98208" lon="9.071348">
                <ele>119.0</ele>
                <time>2020-08-30T07:20:43.000Z</time>
                <name>Trackpoint 299</name>
            </trkpt>
            <trkpt lat="49.982144" lon="9.0712832">
                <ele>119.0</ele>
                <time>2020-08-30T07:20:45.000Z</time>
                <name>Trackpoint 300</name>
            </trkpt>
            <trkpt lat="49.9822304" lon="9.071208">
                <ele>119.0</ele>
                <time>2020-08-30T07:20:47.000Z</time>
                <name>Trackpoint 301</name>
            </trkpt>
            <trkpt lat="49.9823232" lon="9.0711272">
                <ele>119.0</ele>
                <time>2020-08-30T07:20:49.000Z</time>
                <name>Trackpoint 302</name>
            </trkpt>
            <trkpt lat="49.9824192" lon="9.0710272">
                <ele>119.0</ele>
                <time>2020-08-30T07:20:51.000Z</time>
                <name>Trackpoint 303</name>
            </trkpt>
            <trkpt lat="49.9824928" lon="9.07092">
                <ele>119.0</ele>
                <time>2020-08-30T07:20:53.000Z</time>
                <name>Trackpoint 304</name>
            </trkpt>
            <trkpt lat="49.982576" lon="9.0708152">
                <ele>119.0</ele>
                <time>2020-08-30T07:20:55.000Z</time>
                <name>Trackpoint 305</name>
            </trkpt>
            <trkpt lat="49.9826624" lon="9.0707168">
                <ele>119.0</ele>
                <time>2020-08-30T07:20:57.000Z</time>
                <name>Trackpoint 306</name>
            </trkpt>
            <trkpt lat="49.9827424" lon="9.0706304">
                <ele>119.0</ele>
                <time>2020-08-30T07:20:59.000Z</time>
                <name>Trackpoint 307</name>
            </trkpt>
            <trkpt lat="49.9828288" lon="9.0705416">
                <ele>118.0</ele>
                <time>2020-08-30T07:21:01.000Z</time>
                <name>Trackpoint 308</name>
            </trkpt>
            <trkpt lat="49.9829088" lon="9.070448">
                <ele>118.0</ele>
                <time>2020-08-30T07:21:03.000Z</time>
                <name>Trackpoint 309</name>
            </trkpt>
            <trkpt lat="49.9830048" lon="9.0703696">
                <ele>118.0</ele>
                <time>2020-08-30T07:21:05.000Z</time>
                <name>Trackpoint 310</name>
            </trkpt>
            <trkpt lat="49.9830816" lon="9.0702848">
                <ele>119.0</ele>
                <time>2020-08-30T07:21:07.000Z</time>
                <name>Trackpoint 311</name>
            </trkpt>
            <trkpt lat="49.9831584" lon="9.0701952">
                <ele>119.0</ele>
                <time>2020-08-30T07:21:09.000Z</time>
                <name>Trackpoint 312</name>
            </trkpt>
            <trkpt lat="49.9832224" lon="9.0700976">
                <ele>119.0</ele>
                <time>2020-08-30T07:21:11.000Z</time>
                <name>Trackpoint 313</name>
            </trkpt>
            <trkpt lat="49.9833056" lon="9.070008">
                <ele>119.0</ele>
                <time>2020-08-30T07:21:13.000Z</time>
                <name>Trackpoint 314</name>
            </trkpt>
            <trkpt lat="49.9833824" lon="9.0699128">
                <ele>119.0</ele>
                <time>2020-08-30T07:21:15.000Z</time>
                <name>Trackpoint 315</name>
            </trkpt>
            <trkpt lat="49.9834656" lon="9.0698344">
                <ele>119.0</ele>
                <time>2020-08-30T07:21:17.000Z</time>
                <name>Trackpoint 316</name>
            </trkpt>
            <trkpt lat="49.9835552" lon="9.0697472">
                <ele>119.0</ele>
                <time>2020-08-30T07:21:19.000Z</time>
                <name>Trackpoint 317</name>
            </trkpt>
            <trkpt lat="49.9836288" lon="9.069656">
                <ele>119.0</ele>
                <time>2020-08-30T07:21:21.000Z</time>
                <name>Trackpoint 318</name>
            </trkpt>
            <trkpt lat="49.9836992" lon="9.069576">
                <ele>119.0</ele>
                <time>2020-08-30T07:21:23.000Z</time>
                <name>Trackpoint 319</name>
            </trkpt>
            <trkpt lat="49.9837792" lon="9.069484">
                <ele>119.0</ele>
                <time>2020-08-30T07:21:25.000Z</time>
                <name>Trackpoint 320</name>
            </trkpt>
            <trkpt lat="49.983872" lon="9.0693728">
                <ele>119.0</ele>
                <time>2020-08-30T07:21:27.000Z</time>
                <name>Trackpoint 321</name>
            </trkpt>
            <trkpt lat="49.9839552" lon="9.0692864">
                <ele>119.0</ele>
                <time>2020-08-30T07:21:29.000Z</time>
                <name>Trackpoint 322</name>
            </trkpt>
            <trkpt lat="49.9840384" lon="9.0692232">
                <ele>119.0</ele>
                <time>2020-08-30T07:21:31.000Z</time>
                <name>Trackpoint 323</name>
            </trkpt>
            <trkpt lat="49.984112" lon="9.0691368">
                <ele>119.0</ele>
                <time>2020-08-30T07:21:33.000Z</time>
                <name>Trackpoint 324</name>
            </trkpt>
            <trkpt lat="49.9841888" lon="9.0690432">
                <ele>119.0</ele>
                <time>2020-08-30T07:21:35.000Z</time>
                <name>Trackpoint 325</name>
            </trkpt>
            <trkpt lat="49.9842464" lon="9.0689472">
                <ele>120.0</ele>
                <time>2020-08-30T07:21:37.000Z</time>
                <name>Trackpoint 326</name>
            </trkpt>
            <trkpt lat="49.9842976" lon="9.0688688">
                <ele>120.0</ele>
                <time>2020-08-30T07:21:39.000Z</time>
                <name>Trackpoint 327</name>
            </trkpt>
            <trkpt lat="49.9843584" lon="9.0687968">
                <ele>120.0</ele>
                <time>2020-08-30T07:21:41.000Z</time>
                <name>Trackpoint 328</name>
            </trkpt>
            <trkpt lat="49.9844256" lon="9.06872">
                <ele>120.0</ele>
                <time>2020-08-30T07:21:43.000Z</time>
                <name>Trackpoint 329</name>
            </trkpt>
            <trkpt lat="49.9844896" lon="9.0686416">
                <ele>120.0</ele>
                <time>2020-08-30T07:21:45.000Z</time>
                <name>Trackpoint 330</name>
            </trkpt>
            <trkpt lat="49.9845568" lon="9.068572">
                <ele>120.0</ele>
                <time>2020-08-30T07:21:47.000Z</time>
                <name>Trackpoint 331</name>
            </trkpt>
            <trkpt lat="49.984624" lon="9.068492">
                <ele>120.0</ele>
                <time>2020-08-30T07:21:49.000Z</time>
                <name>Trackpoint 332</name>
            </trkpt>
            <trkpt lat="49.9846944" lon="9.0684032">
                <ele>120.0</ele>
                <time>2020-08-30T07:21:51.000Z</time>
                <name>Trackpoint 333</name>
            </trkpt>
            <trkpt lat="49.9847616" lon="9.0683168">
                <ele>120.0</ele>
                <time>2020-08-30T07:21:53.000Z</time>
                <name>Trackpoint 334</name>
            </trkpt>
            <trkpt lat="49.984832" lon="9.0682248">
                <ele>120.0</ele>
                <time>2020-08-30T07:21:55.000Z</time>
                <name>Trackpoint 335</name>
            </trkpt>
            <trkpt lat="49.9848992" lon="9.0681432">
                <ele>120.0</ele>
                <time>2020-08-30T07:21:57.000Z</time>
                <name>Trackpoint 336</name>
            </trkpt>
            <trkpt lat="49.984944" lon="9.06806">
                <ele>120.0</ele>
                <time>2020-08-30T07:22:01.000Z</time>
                <name>Trackpoint 337</name>
            </trkpt>
            <trkpt lat="49.985024" lon="9.0680112">
                <ele>120.0</ele>
                <time>2020-08-30T07:22:37.000Z</time>
                <name>Trackpoint 338</name>
            </trkpt>
            <trkpt lat="49.9850784" lon="9.0679392">
                <ele>120.0</ele>
                <time>2020-08-30T07:22:39.000Z</time>
                <name>Trackpoint 339</name>
            </trkpt>
            <trkpt lat="49.9851424" lon="9.067852">
                <ele>120.0</ele>
                <time>2020-08-30T07:22:41.000Z</time>
                <name>Trackpoint 340</name>
            </trkpt>
            <trkpt lat="49.9851904" lon="9.0677536">
                <ele>120.0</ele>
                <time>2020-08-30T07:22:43.000Z</time>
                <name>Trackpoint 341</name>
            </trkpt>
            <trkpt lat="49.9852608" lon="9.0676648">
                <ele>120.0</ele>
                <time>2020-08-30T07:22:45.000Z</time>
                <name>Trackpoint 342</name>
            </trkpt>
            <trkpt lat="49.9853184" lon="9.0675872">
                <ele>120.0</ele>
                <time>2020-08-30T07:22:47.000Z</time>
                <name>Trackpoint 343</name>
            </trkpt>
            <trkpt lat="49.9853888" lon="9.0675152">
                <ele>120.0</ele>
                <time>2020-08-30T07:22:49.000Z</time>
                <name>Trackpoint 344</name>
            </trkpt>
            <trkpt lat="49.9854592" lon="9.0674336">
                <ele>120.0</ele>
                <time>2020-08-30T07:22:51.000Z</time>
                <name>Trackpoint 345</name>
            </trkpt>
            <trkpt lat="49.9855232" lon="9.0673536">
                <ele>120.0</ele>
                <time>2020-08-30T07:22:53.000Z</time>
                <name>Trackpoint 346</name>
            </trkpt>
            <trkpt lat="49.9855904" lon="9.067288">
                <ele>120.0</ele>
                <time>2020-08-30T07:22:55.000Z</time>
                <name>Trackpoint 347</name>
            </trkpt>
            <trkpt lat="49.9856608" lon="9.0672168">
                <ele>120.0</ele>
                <time>2020-08-30T07:22:57.000Z</time>
                <name>Trackpoint 348</name>
            </trkpt>
            <trkpt lat="49.98576" lon="9.0671304">
                <ele>120.0</ele>
                <time>2020-08-30T07:23:00.000Z</time>
                <name>Trackpoint 349</name>
            </trkpt>
            <trkpt lat="49.9858336" lon="9.067068">
                <ele>119.0</ele>
                <time>2020-08-30T07:23:02.000Z</time>
                <name>Trackpoint 350</name>
            </trkpt>
            <trkpt lat="49.9859072" lon="9.0670048">
                <ele>119.0</ele>
                <time>2020-08-30T07:23:04.000Z</time>
                <name>Trackpoint 351</name>
            </trkpt>
            <trkpt lat="49.9859872" lon="9.0669336">
                <ele>119.0</ele>
                <time>2020-08-30T07:23:06.000Z</time>
                <name>Trackpoint 352</name>
            </trkpt>
            <trkpt lat="49.986064" lon="9.0668768">
                <ele>119.0</ele>
                <time>2020-08-30T07:23:08.000Z</time>
                <name>Trackpoint 353</name>
            </trkpt>
            <trkpt lat="49.9861568" lon="9.0667912">
                <ele>119.0</ele>
                <time>2020-08-30T07:23:11.000Z</time>
                <name>Trackpoint 354</name>
            </trkpt>
            <trkpt lat="49.9862336" lon="9.0667312">
                <ele>119.0</ele>
                <time>2020-08-30T07:23:13.000Z</time>
                <name>Trackpoint 355</name>
            </trkpt>
            <trkpt lat="49.9863168" lon="9.0666784">
                <ele>119.0</ele>
                <time>2020-08-30T07:23:15.000Z</time>
                <name>Trackpoint 356</name>
            </trkpt>
            <trkpt lat="49.986416" lon="9.0666512">
                <ele>119.0</ele>
                <time>2020-08-30T07:23:17.000Z</time>
                <name>Trackpoint 357</name>
            </trkpt>
            <trkpt lat="49.986512" lon="9.066604">
                <ele>119.0</ele>
                <time>2020-08-30T07:23:19.000Z</time>
                <name>Trackpoint 358</name>
            </trkpt>
            <trkpt lat="49.9866208" lon="9.06656">
                <ele>119.0</ele>
                <time>2020-08-30T07:23:21.000Z</time>
                <name>Trackpoint 359</name>
            </trkpt>
            <trkpt lat="49.986736" lon="9.0665264">
                <ele>119.0</ele>
                <time>2020-08-30T07:23:23.000Z</time>
                <name>Trackpoint 360</name>
            </trkpt>
            <trkpt lat="49.9868384" lon="9.0664952">
                <ele>119.0</ele>
                <time>2020-08-30T07:23:25.000Z</time>
                <name>Trackpoint 361</name>
            </trkpt>
            <trkpt lat="49.9869376" lon="9.0664656">
                <ele>119.0</ele>
                <time>2020-08-30T07:23:27.000Z</time>
                <name>Trackpoint 362</name>
            </trkpt>
            <trkpt lat="49.9870336" lon="9.0664416">
                <ele>119.0</ele>
                <time>2020-08-30T07:23:29.000Z</time>
                <name>Trackpoint 363</name>
            </trkpt>
            <trkpt lat="49.9871648" lon="9.0664016">
                <ele>119.0</ele>
                <time>2020-08-30T07:23:32.000Z</time>
                <name>Trackpoint 364</name>
            </trkpt>
            <trkpt lat="49.9872544" lon="9.0663792">
                <ele>119.0</ele>
                <time>2020-08-30T07:23:34.000Z</time>
                <name>Trackpoint 365</name>
            </trkpt>
            <trkpt lat="49.987344" lon="9.066352">
                <ele>118.0</ele>
                <time>2020-08-30T07:23:36.000Z</time>
                <name>Trackpoint 366</name>
            </trkpt>
            <trkpt lat="49.9874432" lon="9.0663208">
                <ele>118.0</ele>
                <time>2020-08-30T07:23:38.000Z</time>
                <name>Trackpoint 367</name>
            </trkpt>
            <trkpt lat="49.9875456" lon="9.0662896">
                <ele>118.0</ele>
                <time>2020-08-30T07:23:40.000Z</time>
                <name>Trackpoint 368</name>
            </trkpt>
            <trkpt lat="49.9876448" lon="9.0662632">
                <ele>118.0</ele>
                <time>2020-08-30T07:23:42.000Z</time>
                <name>Trackpoint 369</name>
            </trkpt>
            <trkpt lat="49.987744" lon="9.0662416">
                <ele>118.0</ele>
                <time>2020-08-30T07:23:44.000Z</time>
                <name>Trackpoint 370</name>
            </trkpt>
            <trkpt lat="49.9878336" lon="9.0662096">
                <ele>118.0</ele>
                <time>2020-08-30T07:23:46.000Z</time>
                <name>Trackpoint 371</name>
            </trkpt>
            <trkpt lat="49.9879232" lon="9.0661848">
                <ele>118.0</ele>
                <time>2020-08-30T07:23:48.000Z</time>
                <name>Trackpoint 372</name>
            </trkpt>
            <trkpt lat="49.9880416" lon="9.06616">
                <ele>117.0</ele>
                <time>2020-08-30T07:23:51.000Z</time>
                <name>Trackpoint 373</name>
            </trkpt>
            <trkpt lat="49.988128" lon="9.0661312">
                <ele>117.0</ele>
                <time>2020-08-30T07:23:55.000Z</time>
                <name>Trackpoint 374</name>
            </trkpt>
            <trkpt lat="49.9881888" lon="9.0660616">
                <ele>117.0</ele>
                <time>2020-08-30T07:24:27.000Z</time>
                <name>Trackpoint 375</name>
            </trkpt>
            <trkpt lat="49.9881088" lon="9.0661224">
                <ele>115.0</ele>
                <time>2020-08-30T07:25:04.000Z</time>
                <name>Trackpoint 376</name>
            </trkpt>
            <trkpt lat="49.9880192" lon="9.0661536">
                <ele>115.0</ele>
                <time>2020-08-30T07:25:07.000Z</time>
                <name>Trackpoint 377</name>
            </trkpt>
            <trkpt lat="49.9879264" lon="9.0661848">
                <ele>115.0</ele>
                <time>2020-08-30T07:25:10.000Z</time>
                <name>Trackpoint 378</name>
            </trkpt>
            <trkpt lat="49.9878336" lon="9.066228">
                <ele>114.0</ele>
                <time>2020-08-30T07:25:14.000Z</time>
                <name>Trackpoint 379</name>
            </trkpt>
            <trkpt lat="49.9879392" lon="9.0662048">
                <ele>113.0</ele>
                <time>2020-08-30T07:26:27.000Z</time>
                <name>Trackpoint 380</name>
            </trkpt>
            <trkpt lat="49.9880224" lon="9.0661672">
                <ele>112.0</ele>
                <time>2020-08-30T07:26:31.000Z</time>
                <name>Trackpoint 381</name>
            </trkpt>
            <trkpt lat="49.988112" lon="9.0661352">
                <ele>112.0</ele>
                <time>2020-08-30T07:26:36.000Z</time>
                <name>Trackpoint 382</name>
            </trkpt>
            <trkpt lat="49.9881888" lon="9.06608">
                <ele>113.0</ele>
                <time>2020-08-30T07:26:51.000Z</time>
                <name>Trackpoint 383</name>
            </trkpt>
            <trkpt lat="49.988288" lon="9.0660384">
                <ele>113.0</ele>
                <time>2020-08-30T07:26:56.000Z</time>
                <name>Trackpoint 384</name>
            </trkpt>
            <trkpt lat="49.988416" lon="9.0660416">
                <ele>113.0</ele>
                <time>2020-08-30T07:26:59.000Z</time>
                <name>Trackpoint 385</name>
            </trkpt>
            <trkpt lat="49.9885408" lon="9.0659984">
                <ele>113.0</ele>
                <time>2020-08-30T07:27:02.000Z</time>
                <name>Trackpoint 386</name>
            </trkpt>
            <trkpt lat="49.9886752" lon="9.0659552">
                <ele>113.0</ele>
                <time>2020-08-30T07:27:05.000Z</time>
                <name>Trackpoint 387</name>
            </trkpt>
            <trkpt lat="49.9887616" lon="9.0659152">
                <ele>113.0</ele>
                <time>2020-08-30T07:27:07.000Z</time>
                <name>Trackpoint 388</name>
            </trkpt>
            <trkpt lat="49.9889312" lon="9.0658728">
                <ele>113.0</ele>
                <time>2020-08-30T07:27:10.000Z</time>
                <name>Trackpoint 389</name>
            </trkpt>
            <trkpt lat="49.9890368" lon="9.0658504">
                <ele>113.0</ele>
                <time>2020-08-30T07:27:12.000Z</time>
                <name>Trackpoint 390</name>
            </trkpt>
            <trkpt lat="49.9891424" lon="9.0658184">
                <ele>113.0</ele>
                <time>2020-08-30T07:27:14.000Z</time>
                <name>Trackpoint 391</name>
            </trkpt>
            <trkpt lat="49.9892544" lon="9.0657928">
                <ele>114.0</ele>
                <time>2020-08-30T07:27:16.000Z</time>
                <name>Trackpoint 392</name>
            </trkpt>
            <trkpt lat="49.9893536" lon="9.0657728">
                <ele>114.0</ele>
                <time>2020-08-30T07:27:18.000Z</time>
                <name>Trackpoint 393</name>
            </trkpt>
            <trkpt lat="49.989456" lon="9.0657528">
                <ele>115.0</ele>
                <time>2020-08-30T07:27:20.000Z</time>
                <name>Trackpoint 394</name>
            </trkpt>
            <trkpt lat="49.989568" lon="9.0657232">
                <ele>116.0</ele>
                <time>2020-08-30T07:27:22.000Z</time>
                <name>Trackpoint 395</name>
            </trkpt>
            <trkpt lat="49.9896704" lon="9.065692">
                <ele>116.0</ele>
                <time>2020-08-30T07:27:24.000Z</time>
                <name>Trackpoint 396</name>
            </trkpt>
            <trkpt lat="49.9897696" lon="9.0656616">
                <ele>116.0</ele>
                <time>2020-08-30T07:27:26.000Z</time>
                <name>Trackpoint 397</name>
            </trkpt>
            <trkpt lat="49.9898688" lon="9.0656368">
                <ele>116.0</ele>
                <time>2020-08-30T07:27:28.000Z</time>
                <name>Trackpoint 398</name>
            </trkpt>
            <trkpt lat="49.9899712" lon="9.065612">
                <ele>117.0</ele>
                <time>2020-08-30T07:27:30.000Z</time>
                <name>Trackpoint 399</name>
            </trkpt>
            <trkpt lat="49.9900736" lon="9.0655984">
                <ele>117.0</ele>
                <time>2020-08-30T07:27:32.000Z</time>
                <name>Trackpoint 400</name>
            </trkpt>
            <trkpt lat="49.9901728" lon="9.0655672">
                <ele>117.0</ele>
                <time>2020-08-30T07:27:34.000Z</time>
                <name>Trackpoint 401</name>
            </trkpt>
            <trkpt lat="49.9902752" lon="9.0655472">
                <ele>117.0</ele>
                <time>2020-08-30T07:27:36.000Z</time>
                <name>Trackpoint 402</name>
            </trkpt>
            <trkpt lat="49.9903712" lon="9.0655248">
                <ele>117.0</ele>
                <time>2020-08-30T07:27:38.000Z</time>
                <name>Trackpoint 403</name>
            </trkpt>
            <trkpt lat="49.9905024" lon="9.0654944">
                <ele>117.0</ele>
                <time>2020-08-30T07:27:40.000Z</time>
                <name>Trackpoint 404</name>
            </trkpt>
            <trkpt lat="49.9905952" lon="9.0655">
                <ele>118.0</ele>
                <time>2020-08-30T07:27:42.000Z</time>
                <name>Trackpoint 405</name>
            </trkpt>
            <trkpt lat="49.9907264" lon="9.0655336">
                <ele>118.0</ele>
                <time>2020-08-30T07:27:45.000Z</time>
                <name>Trackpoint 406</name>
            </trkpt>
            <trkpt lat="49.990832" lon="9.0655584">
                <ele>118.0</ele>
                <time>2020-08-30T07:27:48.000Z</time>
                <name>Trackpoint 407</name>
            </trkpt>
            <trkpt lat="49.9909888" lon="9.0654936">
                <ele>118.0</ele>
                <time>2020-08-30T07:27:51.000Z</time>
                <name>Trackpoint 408</name>
            </trkpt>
            <trkpt lat="49.9910656" lon="9.0654096">
                <ele>119.0</ele>
                <time>2020-08-30T07:27:52.000Z</time>
                <name>Trackpoint 409</name>
            </trkpt>
            <trkpt lat="49.9911552" lon="9.0653512">
                <ele>120.0</ele>
                <time>2020-08-30T07:27:53.000Z</time>
                <name>Trackpoint 410</name>
            </trkpt>
            <trkpt lat="49.991264" lon="9.0653152">
                <ele>120.0</ele>
                <time>2020-08-30T07:27:55.000Z</time>
                <name>Trackpoint 411</name>
            </trkpt>
            <trkpt lat="49.9913856" lon="9.0652704">
                <ele>122.0</ele>
                <time>2020-08-30T07:27:57.000Z</time>
                <name>Trackpoint 412</name>
            </trkpt>
            <trkpt lat="49.9914944" lon="9.0652416">
                <ele>121.0</ele>
                <time>2020-08-30T07:27:59.000Z</time>
                <name>Trackpoint 413</name>
            </trkpt>
            <trkpt lat="49.9916192" lon="9.0652088">
                <ele>121.0</ele>
                <time>2020-08-30T07:28:01.000Z</time>
                <name>Trackpoint 414</name>
            </trkpt>
            <trkpt lat="49.991744" lon="9.0651712">
                <ele>121.0</ele>
                <time>2020-08-30T07:28:03.000Z</time>
                <name>Trackpoint 415</name>
            </trkpt>
            <trkpt lat="49.9918528" lon="9.0651448">
                <ele>121.0</ele>
                <time>2020-08-30T07:28:05.000Z</time>
                <name>Trackpoint 416</name>
            </trkpt>
            <trkpt lat="49.9919712" lon="9.0651168">
                <ele>121.0</ele>
                <time>2020-08-30T07:28:07.000Z</time>
                <name>Trackpoint 417</name>
            </trkpt>
            <trkpt lat="49.99208" lon="9.0650904">
                <ele>121.0</ele>
                <time>2020-08-30T07:28:09.000Z</time>
                <name>Trackpoint 418</name>
            </trkpt>
            <trkpt lat="49.9921888" lon="9.0650704">
                <ele>121.0</ele>
                <time>2020-08-30T07:28:11.000Z</time>
                <name>Trackpoint 419</name>
            </trkpt>
            <trkpt lat="49.9922912" lon="9.0650552">
                <ele>122.0</ele>
                <time>2020-08-30T07:28:13.000Z</time>
                <name>Trackpoint 420</name>
            </trkpt>
            <trkpt lat="49.9923936" lon="9.06504">
                <ele>123.0</ele>
                <time>2020-08-30T07:28:15.000Z</time>
                <name>Trackpoint 421</name>
            </trkpt>
            <trkpt lat="49.9924896" lon="9.0650368">
                <ele>122.0</ele>
                <time>2020-08-30T07:28:17.000Z</time>
                <name>Trackpoint 422</name>
            </trkpt>
            <trkpt lat="49.992608" lon="9.065088">
                <ele>121.0</ele>
                <time>2020-08-30T07:28:20.000Z</time>
                <name>Trackpoint 423</name>
            </trkpt>
            <trkpt lat="49.9927136" lon="9.0650952">
                <ele>120.0</ele>
                <time>2020-08-30T07:28:23.000Z</time>
                <name>Trackpoint 424</name>
            </trkpt>
            <trkpt lat="49.9928096" lon="9.0649968">
                <ele>120.0</ele>
                <time>2020-08-30T07:28:26.000Z</time>
                <name>Trackpoint 425</name>
            </trkpt>
            <trkpt lat="49.9928672" lon="9.0649168">
                <ele>120.0</ele>
                <time>2020-08-30T07:28:28.000Z</time>
                <name>Trackpoint 426</name>
            </trkpt>
            <trkpt lat="49.992944" lon="9.064848">
                <ele>119.0</ele>
                <time>2020-08-30T07:28:30.000Z</time>
                <name>Trackpoint 427</name>
            </trkpt>
            <trkpt lat="49.9930368" lon="9.064792">
                <ele>119.0</ele>
                <time>2020-08-30T07:28:32.000Z</time>
                <name>Trackpoint 428</name>
            </trkpt>
            <trkpt lat="49.9931328" lon="9.0647432">
                <ele>118.0</ele>
                <time>2020-08-30T07:28:34.000Z</time>
                <name>Trackpoint 429</name>
            </trkpt>
            <trkpt lat="49.993232" lon="9.0646984">
                <ele>118.0</ele>
                <time>2020-08-30T07:28:36.000Z</time>
                <name>Trackpoint 430</name>
            </trkpt>
            <trkpt lat="49.993328" lon="9.0646584">
                <ele>118.0</ele>
                <time>2020-08-30T07:28:38.000Z</time>
                <name>Trackpoint 431</name>
            </trkpt>
            <trkpt lat="49.993424" lon="9.0646336">
                <ele>117.0</ele>
                <time>2020-08-30T07:28:40.000Z</time>
                <name>Trackpoint 432</name>
            </trkpt>
            <trkpt lat="49.9935136" lon="9.0646048">
                <ele>117.0</ele>
                <time>2020-08-30T07:28:42.000Z</time>
                <name>Trackpoint 433</name>
            </trkpt>
            <trkpt lat="49.9936064" lon="9.064584">
                <ele>118.0</ele>
                <time>2020-08-30T07:28:44.000Z</time>
                <name>Trackpoint 434</name>
            </trkpt>
            <trkpt lat="49.9937088" lon="9.0645552">
                <ele>118.0</ele>
                <time>2020-08-30T07:28:47.000Z</time>
                <name>Trackpoint 435</name>
            </trkpt>
            <trkpt lat="49.993824" lon="9.0645288">
                <ele>119.0</ele>
                <time>2020-08-30T07:28:50.000Z</time>
                <name>Trackpoint 436</name>
            </trkpt>
            <trkpt lat="49.9939264" lon="9.0644976">
                <ele>119.0</ele>
                <time>2020-08-30T07:28:52.000Z</time>
                <name>Trackpoint 437</name>
            </trkpt>
            <trkpt lat="49.9940384" lon="9.0644752">
                <ele>119.0</ele>
                <time>2020-08-30T07:28:54.000Z</time>
                <name>Trackpoint 438</name>
            </trkpt>
            <trkpt lat="49.9941248" lon="9.06444">
                <ele>120.0</ele>
                <time>2020-08-30T07:28:56.000Z</time>
                <name>Trackpoint 439</name>
            </trkpt>
            <trkpt lat="49.994224" lon="9.0644056">
                <ele>120.0</ele>
                <time>2020-08-30T07:28:58.000Z</time>
                <name>Trackpoint 440</name>
            </trkpt>
            <trkpt lat="49.9943328" lon="9.0643456">
                <ele>120.0</ele>
                <time>2020-08-30T07:29:00.000Z</time>
                <name>Trackpoint 441</name>
            </trkpt>
            <trkpt lat="49.9944448" lon="9.0643016">
                <ele>120.0</ele>
                <time>2020-08-30T07:29:02.000Z</time>
                <name>Trackpoint 442</name>
            </trkpt>
            <trkpt lat="49.9945344" lon="9.0642544">
                <ele>120.0</ele>
                <time>2020-08-30T07:29:04.000Z</time>
                <name>Trackpoint 443</name>
            </trkpt>
            <trkpt lat="49.994624" lon="9.0642136">
                <ele>121.0</ele>
                <time>2020-08-30T07:29:06.000Z</time>
                <name>Trackpoint 444</name>
            </trkpt>
            <trkpt lat="49.9947232" lon="9.0641736">
                <ele>120.0</ele>
                <time>2020-08-30T07:29:08.000Z</time>
                <name>Trackpoint 445</name>
            </trkpt>
            <trkpt lat="49.9948288" lon="9.0641296">
                <ele>121.0</ele>
                <time>2020-08-30T07:29:10.000Z</time>
                <name>Trackpoint 446</name>
            </trkpt>
            <trkpt lat="49.9949408" lon="9.0640808">
                <ele>121.0</ele>
                <time>2020-08-30T07:29:12.000Z</time>
                <name>Trackpoint 447</name>
            </trkpt>
            <trkpt lat="49.9950432" lon="9.064032">
                <ele>121.0</ele>
                <time>2020-08-30T07:29:14.000Z</time>
                <name>Trackpoint 448</name>
            </trkpt>
            <trkpt lat="49.9951488" lon="9.0639912">
                <ele>121.0</ele>
                <time>2020-08-30T07:29:16.000Z</time>
                <name>Trackpoint 449</name>
            </trkpt>
            <trkpt lat="49.9952352" lon="9.0639536">
                <ele>121.0</ele>
                <time>2020-08-30T07:29:18.000Z</time>
                <name>Trackpoint 450</name>
            </trkpt>
            <trkpt lat="49.9953376" lon="9.0639136">
                <ele>121.0</ele>
                <time>2020-08-30T07:29:20.000Z</time>
                <name>Trackpoint 451</name>
            </trkpt>
            <trkpt lat="49.9954464" lon="9.0638664">
                <ele>121.0</ele>
                <time>2020-08-30T07:29:22.000Z</time>
                <name>Trackpoint 452</name>
            </trkpt>
            <trkpt lat="49.9955552" lon="9.0638248">
                <ele>120.0</ele>
                <time>2020-08-30T07:29:24.000Z</time>
                <name>Trackpoint 453</name>
            </trkpt>
            <trkpt lat="49.995664" lon="9.0637768">
                <ele>120.0</ele>
                <time>2020-08-30T07:29:26.000Z</time>
                <name>Trackpoint 454</name>
            </trkpt>
            <trkpt lat="49.9957632" lon="9.0637352">
                <ele>120.0</ele>
                <time>2020-08-30T07:29:28.000Z</time>
                <name>Trackpoint 455</name>
            </trkpt>
            <trkpt lat="49.9958496" lon="9.063668">
                <ele>120.0</ele>
                <time>2020-08-30T07:29:30.000Z</time>
                <name>Trackpoint 456</name>
            </trkpt>
            <trkpt lat="49.9959456" lon="9.063592">
                <ele>119.0</ele>
                <time>2020-08-30T07:29:32.000Z</time>
                <name>Trackpoint 457</name>
            </trkpt>
            <trkpt lat="49.9960288" lon="9.063508">
                <ele>118.0</ele>
                <time>2020-08-30T07:29:34.000Z</time>
                <name>Trackpoint 458</name>
            </trkpt>
            <trkpt lat="49.9961152" lon="9.0634336">
                <ele>118.0</ele>
                <time>2020-08-30T07:29:36.000Z</time>
                <name>Trackpoint 459</name>
            </trkpt>
            <trkpt lat="49.9962048" lon="9.0633552">
                <ele>118.0</ele>
                <time>2020-08-30T07:29:38.000Z</time>
                <name>Trackpoint 460</name>
            </trkpt>
            <trkpt lat="49.9962912" lon="9.0632752">
                <ele>118.0</ele>
                <time>2020-08-30T07:29:40.000Z</time>
                <name>Trackpoint 461</name>
            </trkpt>
            <trkpt lat="49.9963808" lon="9.063184">
                <ele>117.0</ele>
                <time>2020-08-30T07:29:42.000Z</time>
                <name>Trackpoint 462</name>
            </trkpt>
            <trkpt lat="49.9964608" lon="9.063084">
                <ele>116.0</ele>
                <time>2020-08-30T07:29:44.000Z</time>
                <name>Trackpoint 463</name>
            </trkpt>
            <trkpt lat="49.9965504" lon="9.063">
                <ele>117.0</ele>
                <time>2020-08-30T07:29:46.000Z</time>
                <name>Trackpoint 464</name>
            </trkpt>
            <trkpt lat="49.9966496" lon="9.0629216">
                <ele>116.0</ele>
                <time>2020-08-30T07:29:48.000Z</time>
                <name>Trackpoint 465</name>
            </trkpt>
            <trkpt lat="49.9967392" lon="9.0628416">
                <ele>116.0</ele>
                <time>2020-08-30T07:29:50.000Z</time>
                <name>Trackpoint 466</name>
            </trkpt>
            <trkpt lat="49.9968352" lon="9.0627696">
                <ele>117.0</ele>
                <time>2020-08-30T07:29:52.000Z</time>
                <name>Trackpoint 467</name>
            </trkpt>
            <trkpt lat="49.9969248" lon="9.062688">
                <ele>117.0</ele>
                <time>2020-08-30T07:29:54.000Z</time>
                <name>Trackpoint 468</name>
            </trkpt>
            <trkpt lat="49.997024" lon="9.0626088">
                <ele>116.0</ele>
                <time>2020-08-30T07:29:56.000Z</time>
                <name>Trackpoint 469</name>
            </trkpt>
            <trkpt lat="49.99712" lon="9.062516">
                <ele>116.0</ele>
                <time>2020-08-30T07:29:58.000Z</time>
                <name>Trackpoint 470</name>
            </trkpt>
            <trkpt lat="49.9972192" lon="9.0624416">
                <ele>116.0</ele>
                <time>2020-08-30T07:30:00.000Z</time>
                <name>Trackpoint 471</name>
            </trkpt>
            <trkpt lat="49.9973184" lon="9.062364">
                <ele>116.0</ele>
                <time>2020-08-30T07:30:02.000Z</time>
                <name>Trackpoint 472</name>
            </trkpt>
            <trkpt lat="49.9974112" lon="9.0622816">
                <ele>116.0</ele>
                <time>2020-08-30T07:30:04.000Z</time>
                <name>Trackpoint 473</name>
            </trkpt>
            <trkpt lat="49.997504" lon="9.0621992">
                <ele>116.0</ele>
                <time>2020-08-30T07:30:06.000Z</time>
                <name>Trackpoint 474</name>
            </trkpt>
            <trkpt lat="49.9975968" lon="9.0621184">
                <ele>116.0</ele>
                <time>2020-08-30T07:30:08.000Z</time>
                <name>Trackpoint 475</name>
            </trkpt>
            <trkpt lat="49.99768" lon="9.0620272">
                <ele>116.0</ele>
                <time>2020-08-30T07:30:10.000Z</time>
                <name>Trackpoint 476</name>
            </trkpt>
            <trkpt lat="49.9977536" lon="9.0619432">
                <ele>116.0</ele>
                <time>2020-08-30T07:30:12.000Z</time>
                <name>Trackpoint 477</name>
            </trkpt>
            <trkpt lat="49.9978208" lon="9.0618536">
                <ele>116.0</ele>
                <time>2020-08-30T07:30:14.000Z</time>
                <name>Trackpoint 478</name>
            </trkpt>
            <trkpt lat="49.997888" lon="9.06178">
                <ele>116.0</ele>
                <time>2020-08-30T07:30:17.000Z</time>
                <name>Trackpoint 479</name>
            </trkpt>
            <trkpt lat="49.9979104" lon="9.0617616">
                <ele>116.0</ele>
                <time>2020-08-30T07:30:57.000Z</time>
                <name>Trackpoint 480</name>
            </trkpt>
            <trkpt lat="49.997968" lon="9.0616888">
                <ele>116.0</ele>
                <time>2020-08-30T07:31:01.000Z</time>
                <name>Trackpoint 481</name>
            </trkpt>
            <trkpt lat="49.9980288" lon="9.0615968">
                <ele>116.0</ele>
                <time>2020-08-30T07:31:04.000Z</time>
                <name>Trackpoint 482</name>
            </trkpt>
            <trkpt lat="49.9980896" lon="9.0615152">
                <ele>116.0</ele>
                <time>2020-08-30T07:31:07.000Z</time>
                <name>Trackpoint 483</name>
            </trkpt>
            <trkpt lat="49.9981728" lon="9.0614528">
                <ele>116.0</ele>
                <time>2020-08-30T07:31:10.000Z</time>
                <name>Trackpoint 484</name>
            </trkpt>
            <trkpt lat="49.9982688" lon="9.0613736">
                <ele>116.0</ele>
                <time>2020-08-30T07:31:13.000Z</time>
                <name>Trackpoint 485</name>
            </trkpt>
            <trkpt lat="49.9983776" lon="9.0612968">
                <ele>116.0</ele>
                <time>2020-08-30T07:31:16.000Z</time>
                <name>Trackpoint 486</name>
            </trkpt>
            <trkpt lat="49.9984864" lon="9.061216">
                <ele>116.0</ele>
                <time>2020-08-30T07:31:19.000Z</time>
                <name>Trackpoint 487</name>
            </trkpt>
            <trkpt lat="49.9985472" lon="9.0611488">
                <ele>116.0</ele>
                <time>2020-08-30T07:31:21.000Z</time>
                <name>Trackpoint 488</name>
            </trkpt>
            <trkpt lat="49.998624" lon="9.0610912">
                <ele>116.0</ele>
                <time>2020-08-30T07:31:23.000Z</time>
                <name>Trackpoint 489</name>
            </trkpt>
            <trkpt lat="49.998704" lon="9.0610448">
                <ele>116.0</ele>
                <time>2020-08-30T07:31:25.000Z</time>
                <name>Trackpoint 490</name>
            </trkpt>
            <trkpt lat="49.9988032" lon="9.0610048">
                <ele>116.0</ele>
                <time>2020-08-30T07:31:46.000Z</time>
                <name>Trackpoint 491</name>
            </trkpt>
            <trkpt lat="49.9988736" lon="9.0609464">
                <ele>116.0</ele>
                <time>2020-08-30T07:31:49.000Z</time>
                <name>Trackpoint 492</name>
            </trkpt>
            <trkpt lat="49.9989696" lon="9.0608816">
                <ele>116.0</ele>
                <time>2020-08-30T07:31:52.000Z</time>
                <name>Trackpoint 493</name>
            </trkpt>
            <trkpt lat="49.9990784" lon="9.0608032">
                <ele>116.0</ele>
                <time>2020-08-30T07:31:55.000Z</time>
                <name>Trackpoint 494</name>
            </trkpt>
            <trkpt lat="49.9991488" lon="9.060712">
                <ele>116.0</ele>
                <time>2020-08-30T07:31:57.000Z</time>
                <name>Trackpoint 495</name>
            </trkpt>
            <trkpt lat="49.9992064" lon="9.0605984">
                <ele>116.0</ele>
                <time>2020-08-30T07:31:59.000Z</time>
                <name>Trackpoint 496</name>
            </trkpt>
            <trkpt lat="49.9992704" lon="9.0605">
                <ele>116.0</ele>
                <time>2020-08-30T07:32:01.000Z</time>
                <name>Trackpoint 497</name>
            </trkpt>
            <trkpt lat="49.9993248" lon="9.0604232">
                <ele>116.0</ele>
                <time>2020-08-30T07:32:03.000Z</time>
                <name>Trackpoint 498</name>
            </trkpt>
            <trkpt lat="49.9994016" lon="9.0603368">
                <ele>116.0</ele>
                <time>2020-08-30T07:32:30.000Z</time>
                <name>Trackpoint 499</name>
            </trkpt>
            <trkpt lat="49.9994848" lon="9.0602528">
                <ele>115.0</ele>
                <time>2020-08-30T07:32:33.000Z</time>
                <name>Trackpoint 500</name>
            </trkpt>
            <trkpt lat="49.999584" lon="9.0601616">
                <ele>116.0</ele>
                <time>2020-08-30T07:32:36.000Z</time>
                <name>Trackpoint 501</name>
            </trkpt>
            <trkpt lat="49.9996576" lon="9.0600928">
                <ele>116.0</ele>
                <time>2020-08-30T07:32:38.000Z</time>
                <name>Trackpoint 502</name>
            </trkpt>
            <trkpt lat="49.9997376" lon="9.0600256">
                <ele>115.0</ele>
                <time>2020-08-30T07:32:40.000Z</time>
                <name>Trackpoint 503</name>
            </trkpt>
            <trkpt lat="49.9998144" lon="9.0599544">
                <ele>115.0</ele>
                <time>2020-08-30T07:32:42.000Z</time>
                <name>Trackpoint 504</name>
            </trkpt>
            <trkpt lat="49.999888" lon="9.0598848">
                <ele>115.0</ele>
                <time>2020-08-30T07:32:44.000Z</time>
                <name>Trackpoint 505</name>
            </trkpt>
            <trkpt lat="49.9999744" lon="9.0598096">
                <ele>115.0</ele>
                <time>2020-08-30T07:32:46.000Z</time>
                <name>Trackpoint 506</name>
            </trkpt>
            <trkpt lat="50.0000448" lon="9.0597352">
                <ele>115.0</ele>
                <time>2020-08-30T07:32:48.000Z</time>
                <name>Trackpoint 507</name>
            </trkpt>
            <trkpt lat="50.0001312" lon="9.0596464">
                <ele>115.0</ele>
                <time>2020-08-30T07:32:50.000Z</time>
                <name>Trackpoint 508</name>
            </trkpt>
            <trkpt lat="50.000224" lon="9.05956">
                <ele>115.0</ele>
                <time>2020-08-30T07:32:52.000Z</time>
                <name>Trackpoint 509</name>
            </trkpt>
            <trkpt lat="50.0003168" lon="9.0594768">
                <ele>115.0</ele>
                <time>2020-08-30T07:32:54.000Z</time>
                <name>Trackpoint 510</name>
            </trkpt>
            <trkpt lat="50.0003968" lon="9.0593952">
                <ele>115.0</ele>
                <time>2020-08-30T07:32:56.000Z</time>
                <name>Trackpoint 511</name>
            </trkpt>
            <trkpt lat="50.0004768" lon="9.0593168">
                <ele>115.0</ele>
                <time>2020-08-30T07:32:58.000Z</time>
                <name>Trackpoint 512</name>
            </trkpt>
            <trkpt lat="50.0005632" lon="9.0592368">
                <ele>115.0</ele>
                <time>2020-08-30T07:33:00.000Z</time>
                <name>Trackpoint 513</name>
            </trkpt>
            <trkpt lat="50.0006496" lon="9.0591536">
                <ele>114.0</ele>
                <time>2020-08-30T07:33:02.000Z</time>
                <name>Trackpoint 514</name>
            </trkpt>
            <trkpt lat="50.0007392" lon="9.0590784">
                <ele>114.0</ele>
                <time>2020-08-30T07:33:04.000Z</time>
                <name>Trackpoint 515</name>
            </trkpt>
            <trkpt lat="50.0008288" lon="9.0590088">
                <ele>114.0</ele>
                <time>2020-08-30T07:33:06.000Z</time>
                <name>Trackpoint 516</name>
            </trkpt>
            <trkpt lat="50.0009184" lon="9.0589488">
                <ele>114.0</ele>
                <time>2020-08-30T07:33:08.000Z</time>
                <name>Trackpoint 517</name>
            </trkpt>
            <trkpt lat="50.001008" lon="9.0589">
                <ele>114.0</ele>
                <time>2020-08-30T07:33:10.000Z</time>
                <name>Trackpoint 518</name>
            </trkpt>
            <trkpt lat="50.0010912" lon="9.0588568">
                <ele>114.0</ele>
                <time>2020-08-30T07:33:12.000Z</time>
                <name>Trackpoint 519</name>
            </trkpt>
            <trkpt lat="50.0011904" lon="9.0588032">
                <ele>114.0</ele>
                <time>2020-08-30T07:33:14.000Z</time>
                <name>Trackpoint 520</name>
            </trkpt>
            <trkpt lat="50.0012768" lon="9.0587504">
                <ele>114.0</ele>
                <time>2020-08-30T07:33:16.000Z</time>
                <name>Trackpoint 521</name>
            </trkpt>
            <trkpt lat="50.0013696" lon="9.0587">
                <ele>114.0</ele>
                <time>2020-08-30T07:33:18.000Z</time>
                <name>Trackpoint 522</name>
            </trkpt>
            <trkpt lat="50.0014528" lon="9.0586456">
                <ele>114.0</ele>
                <time>2020-08-30T07:33:20.000Z</time>
                <name>Trackpoint 523</name>
            </trkpt>
            <trkpt lat="50.0015328" lon="9.0585784">
                <ele>113.0</ele>
                <time>2020-08-30T07:33:22.000Z</time>
                <name>Trackpoint 524</name>
            </trkpt>
            <trkpt lat="50.0016256" lon="9.0585016">
                <ele>113.0</ele>
                <time>2020-08-30T07:33:24.000Z</time>
                <name>Trackpoint 525</name>
            </trkpt>
            <trkpt lat="50.0017056" lon="9.0584112">
                <ele>114.0</ele>
                <time>2020-08-30T07:33:26.000Z</time>
                <name>Trackpoint 526</name>
            </trkpt>
            <trkpt lat="50.0017696" lon="9.0583048">
                <ele>114.0</ele>
                <time>2020-08-30T07:33:28.000Z</time>
                <name>Trackpoint 527</name>
            </trkpt>
            <trkpt lat="50.0018336" lon="9.0581968">
                <ele>113.0</ele>
                <time>2020-08-30T07:33:30.000Z</time>
                <name>Trackpoint 528</name>
            </trkpt>
            <trkpt lat="50.0019008" lon="9.058088">
                <ele>113.0</ele>
                <time>2020-08-30T07:33:32.000Z</time>
                <name>Trackpoint 529</name>
            </trkpt>
            <trkpt lat="50.0019616" lon="9.0579816">
                <ele>113.0</ele>
                <time>2020-08-30T07:33:34.000Z</time>
                <name>Trackpoint 530</name>
            </trkpt>
            <trkpt lat="50.0020224" lon="9.0578816">
                <ele>113.0</ele>
                <time>2020-08-30T07:33:36.000Z</time>
                <name>Trackpoint 531</name>
            </trkpt>
            <trkpt lat="50.0020896" lon="9.0577816">
                <ele>113.0</ele>
                <time>2020-08-30T07:33:38.000Z</time>
                <name>Trackpoint 532</name>
            </trkpt>
            <trkpt lat="50.0021504" lon="9.0576896">
                <ele>113.0</ele>
                <time>2020-08-30T07:33:40.000Z</time>
                <name>Trackpoint 533</name>
            </trkpt>
            <trkpt lat="50.002224" lon="9.0576048">
                <ele>112.0</ele>
                <time>2020-08-30T07:33:42.000Z</time>
                <name>Trackpoint 534</name>
            </trkpt>
            <trkpt lat="50.002288" lon="9.057504">
                <ele>113.0</ele>
                <time>2020-08-30T07:33:44.000Z</time>
                <name>Trackpoint 535</name>
            </trkpt>
            <trkpt lat="50.0023648" lon="9.0574112">
                <ele>113.0</ele>
                <time>2020-08-30T07:33:46.000Z</time>
                <name>Trackpoint 536</name>
            </trkpt>
            <trkpt lat="50.0024448" lon="9.0573152">
                <ele>113.0</ele>
                <time>2020-08-30T07:33:48.000Z</time>
                <name>Trackpoint 537</name>
            </trkpt>
            <trkpt lat="50.0025184" lon="9.057212">
                <ele>113.0</ele>
                <time>2020-08-30T07:33:50.000Z</time>
                <name>Trackpoint 538</name>
            </trkpt>
            <trkpt lat="50.0025888" lon="9.0571">
                <ele>113.0</ele>
                <time>2020-08-30T07:33:52.000Z</time>
                <name>Trackpoint 539</name>
            </trkpt>
            <trkpt lat="50.0026656" lon="9.057012">
                <ele>113.0</ele>
                <time>2020-08-30T07:33:54.000Z</time>
                <name>Trackpoint 540</name>
            </trkpt>
            <trkpt lat="50.0027552" lon="9.05696">
                <ele>113.0</ele>
                <time>2020-08-30T07:33:56.000Z</time>
                <name>Trackpoint 541</name>
            </trkpt>
            <trkpt lat="50.002832" lon="9.0569016">
                <ele>113.0</ele>
                <time>2020-08-30T07:33:58.000Z</time>
                <name>Trackpoint 542</name>
            </trkpt>
            <trkpt lat="50.0028992" lon="9.0568216">
                <ele>113.0</ele>
                <time>2020-08-30T07:34:00.000Z</time>
                <name>Trackpoint 543</name>
            </trkpt>
            <trkpt lat="50.0029632" lon="9.0567232">
                <ele>113.0</ele>
                <time>2020-08-30T07:34:02.000Z</time>
                <name>Trackpoint 544</name>
            </trkpt>
            <trkpt lat="50.003024" lon="9.0566152">
                <ele>113.0</ele>
                <time>2020-08-30T07:34:04.000Z</time>
                <name>Trackpoint 545</name>
            </trkpt>
            <trkpt lat="50.0030848" lon="9.0565136">
                <ele>113.0</ele>
                <time>2020-08-30T07:34:06.000Z</time>
                <name>Trackpoint 546</name>
            </trkpt>
            <trkpt lat="50.003152" lon="9.0564136">
                <ele>113.0</ele>
                <time>2020-08-30T07:34:08.000Z</time>
                <name>Trackpoint 547</name>
            </trkpt>
            <trkpt lat="50.0032224" lon="9.0563048">
                <ele>113.0</ele>
                <time>2020-08-30T07:34:10.000Z</time>
                <name>Trackpoint 548</name>
            </trkpt>
            <trkpt lat="50.0032992" lon="9.0561912">
                <ele>114.0</ele>
                <time>2020-08-30T07:34:12.000Z</time>
                <name>Trackpoint 549</name>
            </trkpt>
            <trkpt lat="50.0033632" lon="9.0560704">
                <ele>114.0</ele>
                <time>2020-08-30T07:34:14.000Z</time>
                <name>Trackpoint 550</name>
            </trkpt>
            <trkpt lat="50.0034304" lon="9.0559504">
                <ele>114.0</ele>
                <time>2020-08-30T07:34:16.000Z</time>
                <name>Trackpoint 551</name>
            </trkpt>
            <trkpt lat="50.0035008" lon="9.0558256">
                <ele>114.0</ele>
                <time>2020-08-30T07:34:18.000Z</time>
                <name>Trackpoint 552</name>
            </trkpt>
            <trkpt lat="50.0035616" lon="9.0557016">
                <ele>114.0</ele>
                <time>2020-08-30T07:34:20.000Z</time>
                <name>Trackpoint 553</name>
            </trkpt>
            <trkpt lat="50.0036352" lon="9.0555872">
                <ele>114.0</ele>
                <time>2020-08-30T07:34:22.000Z</time>
                <name>Trackpoint 554</name>
            </trkpt>
            <trkpt lat="50.003696" lon="9.0554688">
                <ele>114.0</ele>
                <time>2020-08-30T07:34:24.000Z</time>
                <name>Trackpoint 555</name>
            </trkpt>
            <trkpt lat="50.0037664" lon="9.055364">
                <ele>114.0</ele>
                <time>2020-08-30T07:34:26.000Z</time>
                <name>Trackpoint 556</name>
            </trkpt>
            <trkpt lat="50.0038368" lon="9.055248">
                <ele>115.0</ele>
                <time>2020-08-30T07:34:28.000Z</time>
                <name>Trackpoint 557</name>
            </trkpt>
            <trkpt lat="50.003904" lon="9.0551384">
                <ele>115.0</ele>
                <time>2020-08-30T07:34:30.000Z</time>
                <name>Trackpoint 558</name>
            </trkpt>
            <trkpt lat="50.0039584" lon="9.0550184">
                <ele>115.0</ele>
                <time>2020-08-30T07:34:32.000Z</time>
                <name>Trackpoint 559</name>
            </trkpt>
            <trkpt lat="50.004016" lon="9.0549048">
                <ele>115.0</ele>
                <time>2020-08-30T07:34:34.000Z</time>
                <name>Trackpoint 560</name>
            </trkpt>
            <trkpt lat="50.0040832" lon="9.0547888">
                <ele>115.0</ele>
                <time>2020-08-30T07:34:36.000Z</time>
                <name>Trackpoint 561</name>
            </trkpt>
            <trkpt lat="50.0041472" lon="9.0546688">
                <ele>115.0</ele>
                <time>2020-08-30T07:34:38.000Z</time>
                <name>Trackpoint 562</name>
            </trkpt>
            <trkpt lat="50.0042144" lon="9.0545552">
                <ele>115.0</ele>
                <time>2020-08-30T07:34:40.000Z</time>
                <name>Trackpoint 563</name>
            </trkpt>
            <trkpt lat="50.0042752" lon="9.0544432">
                <ele>115.0</ele>
                <time>2020-08-30T07:34:42.000Z</time>
                <name>Trackpoint 564</name>
            </trkpt>
            <trkpt lat="50.0043328" lon="9.0543336">
                <ele>115.0</ele>
                <time>2020-08-30T07:34:44.000Z</time>
                <name>Trackpoint 565</name>
            </trkpt>
            <trkpt lat="50.0043904" lon="9.054216">
                <ele>115.0</ele>
                <time>2020-08-30T07:34:46.000Z</time>
                <name>Trackpoint 566</name>
            </trkpt>
            <trkpt lat="50.0044544" lon="9.0540984">
                <ele>115.0</ele>
                <time>2020-08-30T07:34:48.000Z</time>
                <name>Trackpoint 567</name>
            </trkpt>
            <trkpt lat="50.0045248" lon="9.053984">
                <ele>116.0</ele>
                <time>2020-08-30T07:34:50.000Z</time>
                <name>Trackpoint 568</name>
            </trkpt>
            <trkpt lat="50.0045792" lon="9.0538728">
                <ele>116.0</ele>
                <time>2020-08-30T07:34:52.000Z</time>
                <name>Trackpoint 569</name>
            </trkpt>
            <trkpt lat="50.0046464" lon="9.053748">
                <ele>116.0</ele>
                <time>2020-08-30T07:34:54.000Z</time>
                <name>Trackpoint 570</name>
            </trkpt>
            <trkpt lat="50.0047104" lon="9.0536272">
                <ele>116.0</ele>
                <time>2020-08-30T07:34:56.000Z</time>
                <name>Trackpoint 571</name>
            </trkpt>
            <trkpt lat="50.004768" lon="9.0534984">
                <ele>116.0</ele>
                <time>2020-08-30T07:34:58.000Z</time>
                <name>Trackpoint 572</name>
            </trkpt>
            <trkpt lat="50.0048288" lon="9.0533704">
                <ele>117.0</ele>
                <time>2020-08-30T07:35:00.000Z</time>
                <name>Trackpoint 573</name>
            </trkpt>
            <trkpt lat="50.0048928" lon="9.0532552">
                <ele>118.0</ele>
                <time>2020-08-30T07:35:02.000Z</time>
                <name>Trackpoint 574</name>
            </trkpt>
            <trkpt lat="50.0049632" lon="9.05314">
                <ele>120.0</ele>
                <time>2020-08-30T07:35:04.000Z</time>
                <name>Trackpoint 575</name>
            </trkpt>
            <trkpt lat="50.0050368" lon="9.053028">
                <ele>120.0</ele>
                <time>2020-08-30T07:35:06.000Z</time>
                <name>Trackpoint 576</name>
            </trkpt>
            <trkpt lat="50.005104" lon="9.0529272">
                <ele>121.0</ele>
                <time>2020-08-30T07:35:08.000Z</time>
                <name>Trackpoint 577</name>
            </trkpt>
            <trkpt lat="50.0051616" lon="9.0528384">
                <ele>119.0</ele>
                <time>2020-08-30T07:35:10.000Z</time>
                <name>Trackpoint 578</name>
            </trkpt>
            <trkpt lat="50.0052032" lon="9.0527536">
                <ele>119.0</ele>
                <time>2020-08-30T07:35:12.000Z</time>
                <name>Trackpoint 579</name>
            </trkpt>
            <trkpt lat="50.0052864" lon="9.0526984">
                <ele>118.0</ele>
                <time>2020-08-30T07:35:15.000Z</time>
                <name>Trackpoint 580</name>
            </trkpt>
            <trkpt lat="50.0053664" lon="9.0527712">
                <ele>116.0</ele>
                <time>2020-08-30T07:35:19.000Z</time>
                <name>Trackpoint 581</name>
            </trkpt>
            <trkpt lat="50.0054528" lon="9.0528544">
                <ele>116.0</ele>
                <time>2020-08-30T07:35:23.000Z</time>
                <name>Trackpoint 582</name>
            </trkpt>
            <trkpt lat="50.005536" lon="9.05296">
                <ele>116.0</ele>
                <time>2020-08-30T07:35:26.000Z</time>
                <name>Trackpoint 583</name>
            </trkpt>
            <trkpt lat="50.0056128" lon="9.053072">
                <ele>116.0</ele>
                <time>2020-08-30T07:35:29.000Z</time>
                <name>Trackpoint 584</name>
            </trkpt>
            <trkpt lat="50.005696" lon="9.0531856">
                <ele>116.0</ele>
                <time>2020-08-30T07:35:32.000Z</time>
                <name>Trackpoint 585</name>
            </trkpt>
            <trkpt lat="50.0057792" lon="9.053284">
                <ele>117.0</ele>
                <time>2020-08-30T07:35:35.000Z</time>
                <name>Trackpoint 586</name>
            </trkpt>
            <trkpt lat="50.0058368" lon="9.053364">
                <ele>117.0</ele>
                <time>2020-08-30T07:35:37.000Z</time>
                <name>Trackpoint 587</name>
            </trkpt>
            <trkpt lat="50.0058944" lon="9.0534384">
                <ele>117.0</ele>
                <time>2020-08-30T07:35:39.000Z</time>
                <name>Trackpoint 588</name>
            </trkpt>
            <trkpt lat="50.0059744" lon="9.0535136">
                <ele>117.0</ele>
                <time>2020-08-30T07:35:42.000Z</time>
                <name>Trackpoint 589</name>
            </trkpt>
            <trkpt lat="50.0060704" lon="9.0534496">
                <ele>117.0</ele>
                <time>2020-08-30T07:35:46.000Z</time>
                <name>Trackpoint 590</name>
            </trkpt>
            <trkpt lat="50.0061088" lon="9.0533416">
                <ele>117.0</ele>
                <time>2020-08-30T07:35:48.000Z</time>
                <name>Trackpoint 591</name>
            </trkpt>
            <trkpt lat="50.006144" lon="9.0532352">
                <ele>117.0</ele>
                <time>2020-08-30T07:35:50.000Z</time>
                <name>Trackpoint 592</name>
            </trkpt>
            <trkpt lat="50.006192" lon="9.0531232">
                <ele>117.0</ele>
                <time>2020-08-30T07:35:52.000Z</time>
                <name>Trackpoint 593</name>
            </trkpt>
            <trkpt lat="50.0062496" lon="9.0530096">
                <ele>117.0</ele>
                <time>2020-08-30T07:35:54.000Z</time>
                <name>Trackpoint 594</name>
            </trkpt>
            <trkpt lat="50.0063072" lon="9.0528968">
                <ele>117.0</ele>
                <time>2020-08-30T07:35:56.000Z</time>
                <name>Trackpoint 595</name>
            </trkpt>
            <trkpt lat="50.006368" lon="9.0527712">
                <ele>117.0</ele>
                <time>2020-08-30T07:35:58.000Z</time>
                <name>Trackpoint 596</name>
            </trkpt>
            <trkpt lat="50.0064224" lon="9.0526448">
                <ele>116.0</ele>
                <time>2020-08-30T07:36:00.000Z</time>
                <name>Trackpoint 597</name>
            </trkpt>
            <trkpt lat="50.0064864" lon="9.052508">
                <ele>116.0</ele>
                <time>2020-08-30T07:36:02.000Z</time>
                <name>Trackpoint 598</name>
            </trkpt>
            <trkpt lat="50.0065504" lon="9.0523784">
                <ele>116.0</ele>
                <time>2020-08-30T07:36:04.000Z</time>
                <name>Trackpoint 599</name>
            </trkpt>
            <trkpt lat="50.0066112" lon="9.0522416">
                <ele>116.0</ele>
                <time>2020-08-30T07:36:06.000Z</time>
                <name>Trackpoint 600</name>
            </trkpt>
            <trkpt lat="50.006672" lon="9.0521072">
                <ele>116.0</ele>
                <time>2020-08-30T07:36:08.000Z</time>
                <name>Trackpoint 601</name>
            </trkpt>
            <trkpt lat="50.0067392" lon="9.05198">
                <ele>116.0</ele>
                <time>2020-08-30T07:36:10.000Z</time>
                <name>Trackpoint 602</name>
            </trkpt>
            <trkpt lat="50.0067968" lon="9.0518416">
                <ele>116.0</ele>
                <time>2020-08-30T07:36:12.000Z</time>
                <name>Trackpoint 603</name>
            </trkpt>
            <trkpt lat="50.0068672" lon="9.051712">
                <ele>115.0</ele>
                <time>2020-08-30T07:36:14.000Z</time>
                <name>Trackpoint 604</name>
            </trkpt>
            <trkpt lat="50.0069344" lon="9.0515832">
                <ele>115.0</ele>
                <time>2020-08-30T07:36:16.000Z</time>
                <name>Trackpoint 605</name>
            </trkpt>
            <trkpt lat="50.0069984" lon="9.051452">
                <ele>115.0</ele>
                <time>2020-08-30T07:36:18.000Z</time>
                <name>Trackpoint 606</name>
            </trkpt>
            <trkpt lat="50.0070656" lon="9.0513232">
                <ele>115.0</ele>
                <time>2020-08-30T07:36:20.000Z</time>
                <name>Trackpoint 607</name>
            </trkpt>
            <trkpt lat="50.0071328" lon="9.0511936">
                <ele>115.0</ele>
                <time>2020-08-30T07:36:22.000Z</time>
                <name>Trackpoint 608</name>
            </trkpt>
            <trkpt lat="50.0071968" lon="9.0510632">
                <ele>115.0</ele>
                <time>2020-08-30T07:36:24.000Z</time>
                <name>Trackpoint 609</name>
            </trkpt>
            <trkpt lat="50.007264" lon="9.0509304">
                <ele>115.0</ele>
                <time>2020-08-30T07:36:26.000Z</time>
                <name>Trackpoint 610</name>
            </trkpt>
            <trkpt lat="50.0073312" lon="9.0507984">
                <ele>115.0</ele>
                <time>2020-08-30T07:36:28.000Z</time>
                <name>Trackpoint 611</name>
            </trkpt>
            <trkpt lat="50.0074016" lon="9.0506672">
                <ele>115.0</ele>
                <time>2020-08-30T07:36:30.000Z</time>
                <name>Trackpoint 612</name>
            </trkpt>
            <trkpt lat="50.0074688" lon="9.0505312">
                <ele>115.0</ele>
                <time>2020-08-30T07:36:32.000Z</time>
                <name>Trackpoint 613</name>
            </trkpt>
            <trkpt lat="50.0075328" lon="9.0503952">
                <ele>116.0</ele>
                <time>2020-08-30T07:36:34.000Z</time>
                <name>Trackpoint 614</name>
            </trkpt>
            <trkpt lat="50.0076064" lon="9.0502632">
                <ele>116.0</ele>
                <time>2020-08-30T07:36:36.000Z</time>
                <name>Trackpoint 615</name>
            </trkpt>
            <trkpt lat="50.0076736" lon="9.050132">
                <ele>116.0</ele>
                <time>2020-08-30T07:36:38.000Z</time>
                <name>Trackpoint 616</name>
            </trkpt>
            <trkpt lat="50.0077408" lon="9.0500024">
                <ele>116.0</ele>
                <time>2020-08-30T07:36:40.000Z</time>
                <name>Trackpoint 617</name>
            </trkpt>
            <trkpt lat="50.0078048" lon="9.0498688">
                <ele>117.0</ele>
                <time>2020-08-30T07:36:42.000Z</time>
                <name>Trackpoint 618</name>
            </trkpt>
            <trkpt lat="50.007872" lon="9.0497352">
                <ele>117.0</ele>
                <time>2020-08-30T07:36:44.000Z</time>
                <name>Trackpoint 619</name>
            </trkpt>
            <trkpt lat="50.0079424" lon="9.0496032">
                <ele>117.0</ele>
                <time>2020-08-30T07:36:46.000Z</time>
                <name>Trackpoint 620</name>
            </trkpt>
            <trkpt lat="50.0080032" lon="9.0494584">
                <ele>117.0</ele>
                <time>2020-08-30T07:36:48.000Z</time>
                <name>Trackpoint 621</name>
            </trkpt>
            <trkpt lat="50.0080672" lon="9.0493152">
                <ele>117.0</ele>
                <time>2020-08-30T07:36:50.000Z</time>
                <name>Trackpoint 622</name>
            </trkpt>
            <trkpt lat="50.0081248" lon="9.0491584">
                <ele>117.0</ele>
                <time>2020-08-30T07:36:52.000Z</time>
                <name>Trackpoint 623</name>
            </trkpt>
            <trkpt lat="50.0081824" lon="9.0490048">
                <ele>117.0</ele>
                <time>2020-08-30T07:36:54.000Z</time>
                <name>Trackpoint 624</name>
            </trkpt>
            <trkpt lat="50.0082368" lon="9.0488504">
                <ele>117.0</ele>
                <time>2020-08-30T07:36:56.000Z</time>
                <name>Trackpoint 625</name>
            </trkpt>
            <trkpt lat="50.0082816" lon="9.0486872">
                <ele>117.0</ele>
                <time>2020-08-30T07:36:58.000Z</time>
                <name>Trackpoint 626</name>
            </trkpt>
            <trkpt lat="50.00832" lon="9.0485232">
                <ele>117.0</ele>
                <time>2020-08-30T07:37:00.000Z</time>
                <name>Trackpoint 627</name>
            </trkpt>
            <trkpt lat="50.0083616" lon="9.0483568">
                <ele>117.0</ele>
                <time>2020-08-30T07:37:02.000Z</time>
                <name>Trackpoint 628</name>
            </trkpt>
            <trkpt lat="50.0084032" lon="9.0481952">
                <ele>116.0</ele>
                <time>2020-08-30T07:37:04.000Z</time>
                <name>Trackpoint 629</name>
            </trkpt>
            <trkpt lat="50.0084448" lon="9.0480336">
                <ele>116.0</ele>
                <time>2020-08-30T07:37:06.000Z</time>
                <name>Trackpoint 630</name>
            </trkpt>
            <trkpt lat="50.0084832" lon="9.0478752">
                <ele>116.0</ele>
                <time>2020-08-30T07:37:08.000Z</time>
                <name>Trackpoint 631</name>
            </trkpt>
            <trkpt lat="50.0085216" lon="9.0477288">
                <ele>116.0</ele>
                <time>2020-08-30T07:37:10.000Z</time>
                <name>Trackpoint 632</name>
            </trkpt>
            <trkpt lat="50.0085536" lon="9.0476016">
                <ele>116.0</ele>
                <time>2020-08-30T07:37:12.000Z</time>
                <name>Trackpoint 633</name>
            </trkpt>
            <trkpt lat="50.0085792" lon="9.0474952">
                <ele>115.0</ele>
                <time>2020-08-30T07:37:14.000Z</time>
                <name>Trackpoint 634</name>
            </trkpt>
            <trkpt lat="50.0085952" lon="9.0473856">
                <ele>115.0</ele>
                <time>2020-08-30T07:37:17.000Z</time>
                <name>Trackpoint 635</name>
            </trkpt>
            <trkpt lat="50.0085664" lon="9.0472984">
                <ele>114.0</ele>
                <time>2020-08-30T07:37:23.000Z</time>
                <name>Trackpoint 636</name>
            </trkpt>
            <trkpt lat="50.0085472" lon="9.0474008">
                <ele>112.0</ele>
                <time>2020-08-30T07:37:41.000Z</time>
                <name>Trackpoint 637</name>
            </trkpt>
            <trkpt lat="50.0085568" lon="9.0474928">
                <ele>113.0</ele>
                <time>2020-08-30T07:37:46.000Z</time>
                <name>Trackpoint 638</name>
            </trkpt>
            <trkpt lat="50.0085472" lon="9.0475968">
                <ele>113.0</ele>
                <time>2020-08-30T07:37:51.000Z</time>
                <name>Trackpoint 639</name>
            </trkpt>
            <trkpt lat="50.008544" lon="9.0475064">
                <ele>112.0</ele>
                <time>2020-08-30T07:37:59.000Z</time>
                <name>Trackpoint 640</name>
            </trkpt>
            <trkpt lat="50.0085568" lon="9.0474056">
                <ele>114.0</ele>
                <time>2020-08-30T07:38:32.000Z</time>
                <name>Trackpoint 641</name>
            </trkpt>
            <trkpt lat="50.0086112" lon="9.0473272">
                <ele>114.0</ele>
                <time>2020-08-30T07:38:35.000Z</time>
                <name>Trackpoint 642</name>
            </trkpt>
            <trkpt lat="50.0086464" lon="9.0472024">
                <ele>115.0</ele>
                <time>2020-08-30T07:38:38.000Z</time>
                <name>Trackpoint 643</name>
            </trkpt>
            <trkpt lat="50.0086816" lon="9.0470936">
                <ele>115.0</ele>
                <time>2020-08-30T07:38:40.000Z</time>
                <name>Trackpoint 644</name>
            </trkpt>
            <trkpt lat="50.0087104" lon="9.0469752">
                <ele>114.0</ele>
                <time>2020-08-30T07:38:42.000Z</time>
                <name>Trackpoint 645</name>
            </trkpt>
            <trkpt lat="50.008736" lon="9.0468528">
                <ele>113.0</ele>
                <time>2020-08-30T07:38:44.000Z</time>
                <name>Trackpoint 646</name>
            </trkpt>
            <trkpt lat="50.0087712" lon="9.0467264">
                <ele>113.0</ele>
                <time>2020-08-30T07:38:46.000Z</time>
                <name>Trackpoint 647</name>
            </trkpt>
            <trkpt lat="50.0088096" lon="9.046588">
                <ele>112.0</ele>
                <time>2020-08-30T07:38:48.000Z</time>
                <name>Trackpoint 648</name>
            </trkpt>
            <trkpt lat="50.0088448" lon="9.0464488">
                <ele>112.0</ele>
                <time>2020-08-30T07:38:50.000Z</time>
                <name>Trackpoint 649</name>
            </trkpt>
            <trkpt lat="50.0088928" lon="9.0463048">
                <ele>111.0</ele>
                <time>2020-08-30T07:38:52.000Z</time>
                <name>Trackpoint 650</name>
            </trkpt>
            <trkpt lat="50.0089376" lon="9.04616">
                <ele>111.0</ele>
                <time>2020-08-30T07:38:54.000Z</time>
                <name>Trackpoint 651</name>
            </trkpt>
            <trkpt lat="50.0089792" lon="9.0460064">
                <ele>110.0</ele>
                <time>2020-08-30T07:38:56.000Z</time>
                <name>Trackpoint 652</name>
            </trkpt>
            <trkpt lat="50.0090304" lon="9.0458568">
                <ele>110.0</ele>
                <time>2020-08-30T07:38:58.000Z</time>
                <name>Trackpoint 653</name>
            </trkpt>
            <trkpt lat="50.0090816" lon="9.0457032">
                <ele>110.0</ele>
                <time>2020-08-30T07:39:00.000Z</time>
                <name>Trackpoint 654</name>
            </trkpt>
            <trkpt lat="50.009136" lon="9.0455504">
                <ele>109.0</ele>
                <time>2020-08-30T07:39:02.000Z</time>
                <name>Trackpoint 655</name>
            </trkpt>
            <trkpt lat="50.0091808" lon="9.0453904">
                <ele>109.0</ele>
                <time>2020-08-30T07:39:04.000Z</time>
                <name>Trackpoint 656</name>
            </trkpt>
            <trkpt lat="50.0092352" lon="9.0452408">
                <ele>109.0</ele>
                <time>2020-08-30T07:39:06.000Z</time>
                <name>Trackpoint 657</name>
            </trkpt>
            <trkpt lat="50.0092992" lon="9.045096">
                <ele>109.0</ele>
                <time>2020-08-30T07:39:08.000Z</time>
                <name>Trackpoint 658</name>
            </trkpt>
            <trkpt lat="50.0093664" lon="9.0449512">
                <ele>109.0</ele>
                <time>2020-08-30T07:39:10.000Z</time>
                <name>Trackpoint 659</name>
            </trkpt>
            <trkpt lat="50.0094336" lon="9.044808">
                <ele>109.0</ele>
                <time>2020-08-30T07:39:12.000Z</time>
                <name>Trackpoint 660</name>
            </trkpt>
            <trkpt lat="50.009504" lon="9.0446632">
                <ele>109.0</ele>
                <time>2020-08-30T07:39:14.000Z</time>
                <name>Trackpoint 661</name>
            </trkpt>
            <trkpt lat="50.0095744" lon="9.0445272">
                <ele>109.0</ele>
                <time>2020-08-30T07:39:16.000Z</time>
                <name>Trackpoint 662</name>
            </trkpt>
            <trkpt lat="50.009648" lon="9.0443968">
                <ele>109.0</ele>
                <time>2020-08-30T07:39:18.000Z</time>
                <name>Trackpoint 663</name>
            </trkpt>
            <trkpt lat="50.0097184" lon="9.0442632">
                <ele>109.0</ele>
                <time>2020-08-30T07:39:20.000Z</time>
                <name>Trackpoint 664</name>
            </trkpt>
            <trkpt lat="50.0097952" lon="9.0441312">
                <ele>109.0</ele>
                <time>2020-08-30T07:39:22.000Z</time>
                <name>Trackpoint 665</name>
            </trkpt>
            <trkpt lat="50.009872" lon="9.0440016">
                <ele>109.0</ele>
                <time>2020-08-30T07:39:24.000Z</time>
                <name>Trackpoint 666</name>
            </trkpt>
            <trkpt lat="50.0099488" lon="9.043872">
                <ele>109.0</ele>
                <time>2020-08-30T07:39:26.000Z</time>
                <name>Trackpoint 667</name>
            </trkpt>
            <trkpt lat="50.0100256" lon="9.0437472">
                <ele>109.0</ele>
                <time>2020-08-30T07:39:28.000Z</time>
                <name>Trackpoint 668</name>
            </trkpt>
            <trkpt lat="50.0101056" lon="9.0436232">
                <ele>110.0</ele>
                <time>2020-08-30T07:39:30.000Z</time>
                <name>Trackpoint 669</name>
            </trkpt>
            <trkpt lat="50.0101888" lon="9.043504">
                <ele>109.0</ele>
                <time>2020-08-30T07:39:32.000Z</time>
                <name>Trackpoint 670</name>
            </trkpt>
            <trkpt lat="50.010272" lon="9.0433848">
                <ele>109.0</ele>
                <time>2020-08-30T07:39:34.000Z</time>
                <name>Trackpoint 671</name>
            </trkpt>
            <trkpt lat="50.0103616" lon="9.0432752">
                <ele>110.0</ele>
                <time>2020-08-30T07:39:36.000Z</time>
                <name>Trackpoint 672</name>
            </trkpt>
            <trkpt lat="50.0104576" lon="9.0431768">
                <ele>110.0</ele>
                <time>2020-08-30T07:39:38.000Z</time>
                <name>Trackpoint 673</name>
            </trkpt>
            <trkpt lat="50.0105504" lon="9.0430832">
                <ele>110.0</ele>
                <time>2020-08-30T07:39:40.000Z</time>
                <name>Trackpoint 674</name>
            </trkpt>
            <trkpt lat="50.0106464" lon="9.0429936">
                <ele>110.0</ele>
                <time>2020-08-30T07:39:42.000Z</time>
                <name>Trackpoint 675</name>
            </trkpt>
            <trkpt lat="50.0107424" lon="9.0428984">
                <ele>110.0</ele>
                <time>2020-08-30T07:39:44.000Z</time>
                <name>Trackpoint 676</name>
            </trkpt>
            <trkpt lat="50.0108416" lon="9.0428104">
                <ele>110.0</ele>
                <time>2020-08-30T07:39:46.000Z</time>
                <name>Trackpoint 677</name>
            </trkpt>
            <trkpt lat="50.0109408" lon="9.0427288">
                <ele>110.0</ele>
                <time>2020-08-30T07:39:48.000Z</time>
                <name>Trackpoint 678</name>
            </trkpt>
            <trkpt lat="50.01104" lon="9.0426504">
                <ele>110.0</ele>
                <time>2020-08-30T07:39:50.000Z</time>
                <name>Trackpoint 679</name>
            </trkpt>
            <trkpt lat="50.011136" lon="9.042572">
                <ele>110.0</ele>
                <time>2020-08-30T07:39:52.000Z</time>
                <name>Trackpoint 680</name>
            </trkpt>
            <trkpt lat="50.0112352" lon="9.0424968">
                <ele>111.0</ele>
                <time>2020-08-30T07:39:54.000Z</time>
                <name>Trackpoint 681</name>
            </trkpt>
            <trkpt lat="50.0113344" lon="9.0424272">
                <ele>111.0</ele>
                <time>2020-08-30T07:39:56.000Z</time>
                <name>Trackpoint 682</name>
            </trkpt>
            <trkpt lat="50.0114304" lon="9.0423568">
                <ele>111.0</ele>
                <time>2020-08-30T07:39:58.000Z</time>
                <name>Trackpoint 683</name>
            </trkpt>
            <trkpt lat="50.0115328" lon="9.0422936">
                <ele>111.0</ele>
                <time>2020-08-30T07:40:00.000Z</time>
                <name>Trackpoint 684</name>
            </trkpt>
            <trkpt lat="50.0116256" lon="9.0422352">
                <ele>111.0</ele>
                <time>2020-08-30T07:40:02.000Z</time>
                <name>Trackpoint 685</name>
            </trkpt>
            <trkpt lat="50.0117312" lon="9.0421784">
                <ele>111.0</ele>
                <time>2020-08-30T07:40:04.000Z</time>
                <name>Trackpoint 686</name>
            </trkpt>
            <trkpt lat="50.011824" lon="9.0421248">
                <ele>111.0</ele>
                <time>2020-08-30T07:40:06.000Z</time>
                <name>Trackpoint 687</name>
            </trkpt>
            <trkpt lat="50.0119232" lon="9.0420752">
                <ele>111.0</ele>
                <time>2020-08-30T07:40:08.000Z</time>
                <name>Trackpoint 688</name>
            </trkpt>
            <trkpt lat="50.0120096" lon="9.0420152">
                <ele>111.0</ele>
                <time>2020-08-30T07:40:10.000Z</time>
                <name>Trackpoint 689</name>
            </trkpt>
            <trkpt lat="50.01208" lon="9.0419432">
                <ele>111.0</ele>
                <time>2020-08-30T07:40:12.000Z</time>
                <name>Trackpoint 690</name>
            </trkpt>
            <trkpt lat="50.0121568" lon="9.0418752">
                <ele>111.0</ele>
                <time>2020-08-30T07:40:14.000Z</time>
                <name>Trackpoint 691</name>
            </trkpt>
            <trkpt lat="50.0122368" lon="9.041808">
                <ele>111.0</ele>
                <time>2020-08-30T07:40:16.000Z</time>
                <name>Trackpoint 692</name>
            </trkpt>
            <trkpt lat="50.0123168" lon="9.041732">
                <ele>111.0</ele>
                <time>2020-08-30T07:40:18.000Z</time>
                <name>Trackpoint 693</name>
            </trkpt>
            <trkpt lat="50.0123968" lon="9.041652">
                <ele>111.0</ele>
                <time>2020-08-30T07:40:20.000Z</time>
                <name>Trackpoint 694</name>
            </trkpt>
            <trkpt lat="50.0124864" lon="9.0415784">
                <ele>111.0</ele>
                <time>2020-08-30T07:40:22.000Z</time>
                <name>Trackpoint 695</name>
            </trkpt>
            <trkpt lat="50.0125696" lon="9.0415016">
                <ele>111.0</ele>
                <time>2020-08-30T07:40:24.000Z</time>
                <name>Trackpoint 696</name>
            </trkpt>
            <trkpt lat="50.012656" lon="9.0414248">
                <ele>111.0</ele>
                <time>2020-08-30T07:40:26.000Z</time>
                <name>Trackpoint 697</name>
            </trkpt>
            <trkpt lat="50.0127456" lon="9.0413464">
                <ele>111.0</ele>
                <time>2020-08-30T07:40:28.000Z</time>
                <name>Trackpoint 698</name>
            </trkpt>
            <trkpt lat="50.0128288" lon="9.0412664">
                <ele>111.0</ele>
                <time>2020-08-30T07:40:30.000Z</time>
                <name>Trackpoint 699</name>
            </trkpt>
            <trkpt lat="50.0129152" lon="9.0411928">
                <ele>111.0</ele>
                <time>2020-08-30T07:40:32.000Z</time>
                <name>Trackpoint 700</name>
            </trkpt>
            <trkpt lat="50.013008" lon="9.0411256">
                <ele>112.0</ele>
                <time>2020-08-30T07:40:34.000Z</time>
                <name>Trackpoint 701</name>
            </trkpt>
            <trkpt lat="50.0131008" lon="9.0410544">
                <ele>112.0</ele>
                <time>2020-08-30T07:40:36.000Z</time>
                <name>Trackpoint 702</name>
            </trkpt>
            <trkpt lat="50.0131872" lon="9.0409832">
                <ele>111.0</ele>
                <time>2020-08-30T07:40:38.000Z</time>
                <name>Trackpoint 703</name>
            </trkpt>
            <trkpt lat="50.01328" lon="9.0409168">
                <ele>111.0</ele>
                <time>2020-08-30T07:40:40.000Z</time>
                <name>Trackpoint 704</name>
            </trkpt>
            <trkpt lat="50.0133664" lon="9.0408488">
                <ele>111.0</ele>
                <time>2020-08-30T07:40:42.000Z</time>
                <name>Trackpoint 705</name>
            </trkpt>
            <trkpt lat="50.013456" lon="9.0407752">
                <ele>111.0</ele>
                <time>2020-08-30T07:40:44.000Z</time>
                <name>Trackpoint 706</name>
            </trkpt>
            <trkpt lat="50.0135392" lon="9.0406952">
                <ele>112.0</ele>
                <time>2020-08-30T07:40:46.000Z</time>
                <name>Trackpoint 707</name>
            </trkpt>
            <trkpt lat="50.0136224" lon="9.0406104">
                <ele>112.0</ele>
                <time>2020-08-30T07:40:48.000Z</time>
                <name>Trackpoint 708</name>
            </trkpt>
            <trkpt lat="50.0137056" lon="9.040532">
                <ele>112.0</ele>
                <time>2020-08-30T07:40:50.000Z</time>
                <name>Trackpoint 709</name>
            </trkpt>
            <trkpt lat="50.0137888" lon="9.0404568">
                <ele>112.0</ele>
                <time>2020-08-30T07:40:52.000Z</time>
                <name>Trackpoint 710</name>
            </trkpt>
            <trkpt lat="50.0138784" lon="9.0403832">
                <ele>111.0</ele>
                <time>2020-08-30T07:40:54.000Z</time>
                <name>Trackpoint 711</name>
            </trkpt>
            <trkpt lat="50.0139648" lon="9.040308">
                <ele>111.0</ele>
                <time>2020-08-30T07:40:56.000Z</time>
                <name>Trackpoint 712</name>
            </trkpt>
            <trkpt lat="50.014048" lon="9.040228">
                <ele>111.0</ele>
                <time>2020-08-30T07:40:58.000Z</time>
                <name>Trackpoint 713</name>
            </trkpt>
            <trkpt lat="50.0141344" lon="9.0401488">
                <ele>111.0</ele>
                <time>2020-08-30T07:41:00.000Z</time>
                <name>Trackpoint 714</name>
            </trkpt>
            <trkpt lat="50.0142208" lon="9.0400736">
                <ele>111.0</ele>
                <time>2020-08-30T07:41:02.000Z</time>
                <name>Trackpoint 715</name>
            </trkpt>
            <trkpt lat="50.014304" lon="9.0399984">
                <ele>111.0</ele>
                <time>2020-08-30T07:41:04.000Z</time>
                <name>Trackpoint 716</name>
            </trkpt>
            <trkpt lat="50.0143936" lon="9.0399216">
                <ele>111.0</ele>
                <time>2020-08-30T07:41:06.000Z</time>
                <name>Trackpoint 717</name>
            </trkpt>
            <trkpt lat="50.0144768" lon="9.0398432">
                <ele>111.0</ele>
                <time>2020-08-30T07:41:08.000Z</time>
                <name>Trackpoint 718</name>
            </trkpt>
            <trkpt lat="50.01456" lon="9.0397664">
                <ele>111.0</ele>
                <time>2020-08-30T07:41:10.000Z</time>
                <name>Trackpoint 719</name>
            </trkpt>
            <trkpt lat="50.0146496" lon="9.0396904">
                <ele>111.0</ele>
                <time>2020-08-30T07:41:12.000Z</time>
                <name>Trackpoint 720</name>
            </trkpt>
            <trkpt lat="50.0147328" lon="9.0396136">
                <ele>111.0</ele>
                <time>2020-08-30T07:41:14.000Z</time>
                <name>Trackpoint 721</name>
            </trkpt>
            <trkpt lat="50.0148192" lon="9.0395344">
                <ele>111.0</ele>
                <time>2020-08-30T07:41:16.000Z</time>
                <name>Trackpoint 722</name>
            </trkpt>
            <trkpt lat="50.0149056" lon="9.039456">
                <ele>111.0</ele>
                <time>2020-08-30T07:41:18.000Z</time>
                <name>Trackpoint 723</name>
            </trkpt>
            <trkpt lat="50.014992" lon="9.0393832">
                <ele>111.0</ele>
                <time>2020-08-30T07:41:20.000Z</time>
                <name>Trackpoint 724</name>
            </trkpt>
            <trkpt lat="50.0150752" lon="9.0393064">
                <ele>111.0</ele>
                <time>2020-08-30T07:41:22.000Z</time>
                <name>Trackpoint 725</name>
            </trkpt>
            <trkpt lat="50.0151584" lon="9.0392352">
                <ele>111.0</ele>
                <time>2020-08-30T07:41:24.000Z</time>
                <name>Trackpoint 726</name>
            </trkpt>
            <trkpt lat="50.015248" lon="9.0391704">
                <ele>111.0</ele>
                <time>2020-08-30T07:41:26.000Z</time>
                <name>Trackpoint 727</name>
            </trkpt>
            <trkpt lat="50.0153344" lon="9.0391032">
                <ele>111.0</ele>
                <time>2020-08-30T07:41:28.000Z</time>
                <name>Trackpoint 728</name>
            </trkpt>
            <trkpt lat="50.0154272" lon="9.03904">
                <ele>111.0</ele>
                <time>2020-08-30T07:41:30.000Z</time>
                <name>Trackpoint 729</name>
            </trkpt>
            <trkpt lat="50.0155168" lon="9.0389832">
                <ele>111.0</ele>
                <time>2020-08-30T07:41:32.000Z</time>
                <name>Trackpoint 730</name>
            </trkpt>
            <trkpt lat="50.0156128" lon="9.038928">
                <ele>111.0</ele>
                <time>2020-08-30T07:41:34.000Z</time>
                <name>Trackpoint 731</name>
            </trkpt>
            <trkpt lat="50.0156928" lon="9.038848">
                <ele>111.0</ele>
                <time>2020-08-30T07:41:36.000Z</time>
                <name>Trackpoint 732</name>
            </trkpt>
            <trkpt lat="50.0157696" lon="9.0387536">
                <ele>111.0</ele>
                <time>2020-08-30T07:41:38.000Z</time>
                <name>Trackpoint 733</name>
            </trkpt>
            <trkpt lat="50.0158592" lon="9.0387032">
                <ele>111.0</ele>
                <time>2020-08-30T07:41:40.000Z</time>
                <name>Trackpoint 734</name>
            </trkpt>
            <trkpt lat="50.015952" lon="9.0386632">
                <ele>111.0</ele>
                <time>2020-08-30T07:41:42.000Z</time>
                <name>Trackpoint 735</name>
            </trkpt>
            <trkpt lat="50.0160416" lon="9.0386104">
                <ele>111.0</ele>
                <time>2020-08-30T07:41:44.000Z</time>
                <name>Trackpoint 736</name>
            </trkpt>
            <trkpt lat="50.0161408" lon="9.0385616">
                <ele>111.0</ele>
                <time>2020-08-30T07:41:46.000Z</time>
                <name>Trackpoint 737</name>
            </trkpt>
            <trkpt lat="50.01624" lon="9.0385088">
                <ele>111.0</ele>
                <time>2020-08-30T07:41:48.000Z</time>
                <name>Trackpoint 738</name>
            </trkpt>
            <trkpt lat="50.0163392" lon="9.0384504">
                <ele>111.0</ele>
                <time>2020-08-30T07:41:50.000Z</time>
                <name>Trackpoint 739</name>
            </trkpt>
            <trkpt lat="50.0164384" lon="9.0383928">
                <ele>111.0</ele>
                <time>2020-08-30T07:41:52.000Z</time>
                <name>Trackpoint 740</name>
            </trkpt>
            <trkpt lat="50.0165344" lon="9.0383328">
                <ele>110.0</ele>
                <time>2020-08-30T07:41:54.000Z</time>
                <name>Trackpoint 741</name>
            </trkpt>
            <trkpt lat="50.0166272" lon="9.038272">
                <ele>111.0</ele>
                <time>2020-08-30T07:41:56.000Z</time>
                <name>Trackpoint 742</name>
            </trkpt>
            <trkpt lat="50.0167232" lon="9.0382096">
                <ele>111.0</ele>
                <time>2020-08-30T07:41:58.000Z</time>
                <name>Trackpoint 743</name>
            </trkpt>
            <trkpt lat="50.016816" lon="9.0381496">
                <ele>111.0</ele>
                <time>2020-08-30T07:42:00.000Z</time>
                <name>Trackpoint 744</name>
            </trkpt>
            <trkpt lat="50.016912" lon="9.0380896">
                <ele>111.0</ele>
                <time>2020-08-30T07:42:02.000Z</time>
                <name>Trackpoint 745</name>
            </trkpt>
            <trkpt lat="50.0170016" lon="9.0380248">
                <ele>111.0</ele>
                <time>2020-08-30T07:42:04.000Z</time>
                <name>Trackpoint 746</name>
            </trkpt>
            <trkpt lat="50.0170976" lon="9.03796">
                <ele>111.0</ele>
                <time>2020-08-30T07:42:06.000Z</time>
                <name>Trackpoint 747</name>
            </trkpt>
            <trkpt lat="50.0171904" lon="9.0378984">
                <ele>111.0</ele>
                <time>2020-08-30T07:42:08.000Z</time>
                <name>Trackpoint 748</name>
            </trkpt>
            <trkpt lat="50.01728" lon="9.0378368">
                <ele>111.0</ele>
                <time>2020-08-30T07:42:10.000Z</time>
                <name>Trackpoint 749</name>
            </trkpt>
            <trkpt lat="50.0173728" lon="9.0377712">
                <ele>111.0</ele>
                <time>2020-08-30T07:42:12.000Z</time>
                <name>Trackpoint 750</name>
            </trkpt>
            <trkpt lat="50.0174624" lon="9.037708">
                <ele>111.0</ele>
                <time>2020-08-30T07:42:14.000Z</time>
                <name>Trackpoint 751</name>
            </trkpt>
            <trkpt lat="50.0175552" lon="9.0376416">
                <ele>111.0</ele>
                <time>2020-08-30T07:42:16.000Z</time>
                <name>Trackpoint 752</name>
            </trkpt>
            <trkpt lat="50.017648" lon="9.037572">
                <ele>111.0</ele>
                <time>2020-08-30T07:42:18.000Z</time>
                <name>Trackpoint 753</name>
            </trkpt>
            <trkpt lat="50.0177376" lon="9.0375072">
                <ele>111.0</ele>
                <time>2020-08-30T07:42:20.000Z</time>
                <name>Trackpoint 754</name>
            </trkpt>
            <trkpt lat="50.0178272" lon="9.0374416">
                <ele>111.0</ele>
                <time>2020-08-30T07:42:22.000Z</time>
                <name>Trackpoint 755</name>
            </trkpt>
            <trkpt lat="50.0179168" lon="9.0373784">
                <ele>111.0</ele>
                <time>2020-08-30T07:42:24.000Z</time>
                <name>Trackpoint 756</name>
            </trkpt>
            <trkpt lat="50.0180064" lon="9.0373152">
                <ele>111.0</ele>
                <time>2020-08-30T07:42:26.000Z</time>
                <name>Trackpoint 757</name>
            </trkpt>
            <trkpt lat="50.0180928" lon="9.0372448">
                <ele>111.0</ele>
                <time>2020-08-30T07:42:28.000Z</time>
                <name>Trackpoint 758</name>
            </trkpt>
            <trkpt lat="50.0181824" lon="9.0371816">
                <ele>111.0</ele>
                <time>2020-08-30T07:42:30.000Z</time>
                <name>Trackpoint 759</name>
            </trkpt>
            <trkpt lat="50.0182624" lon="9.03712">
                <ele>111.0</ele>
                <time>2020-08-30T07:42:32.000Z</time>
                <name>Trackpoint 760</name>
            </trkpt>
            <trkpt lat="50.0183456" lon="9.0370576">
                <ele>111.0</ele>
                <time>2020-08-30T07:42:34.000Z</time>
                <name>Trackpoint 761</name>
            </trkpt>
            <trkpt lat="50.0184288" lon="9.0370032">
                <ele>111.0</ele>
                <time>2020-08-30T07:42:36.000Z</time>
                <name>Trackpoint 762</name>
            </trkpt>
            <trkpt lat="50.0185216" lon="9.036948">
                <ele>111.0</ele>
                <time>2020-08-30T07:42:38.000Z</time>
                <name>Trackpoint 763</name>
            </trkpt>
            <trkpt lat="50.0186112" lon="9.0369016">
                <ele>111.0</ele>
                <time>2020-08-30T07:42:40.000Z</time>
                <name>Trackpoint 764</name>
            </trkpt>
            <trkpt lat="50.0187072" lon="9.0368632">
                <ele>111.0</ele>
                <time>2020-08-30T07:42:42.000Z</time>
                <name>Trackpoint 765</name>
            </trkpt>
            <trkpt lat="50.0188032" lon="9.0368248">
                <ele>111.0</ele>
                <time>2020-08-30T07:42:44.000Z</time>
                <name>Trackpoint 766</name>
            </trkpt>
            <trkpt lat="50.0188992" lon="9.03678">
                <ele>111.0</ele>
                <time>2020-08-30T07:42:46.000Z</time>
                <name>Trackpoint 767</name>
            </trkpt>
            <trkpt lat="50.018992" lon="9.0367272">
                <ele>111.0</ele>
                <time>2020-08-30T07:42:48.000Z</time>
                <name>Trackpoint 768</name>
            </trkpt>
            <trkpt lat="50.0190848" lon="9.0366624">
                <ele>111.0</ele>
                <time>2020-08-30T07:42:50.000Z</time>
                <name>Trackpoint 769</name>
            </trkpt>
            <trkpt lat="50.0191808" lon="9.0365888">
                <ele>110.0</ele>
                <time>2020-08-30T07:42:52.000Z</time>
                <name>Trackpoint 770</name>
            </trkpt>
            <trkpt lat="50.0192704" lon="9.0365048">
                <ele>110.0</ele>
                <time>2020-08-30T07:42:54.000Z</time>
                <name>Trackpoint 771</name>
            </trkpt>
            <trkpt lat="50.01936" lon="9.0364088">
                <ele>110.0</ele>
                <time>2020-08-30T07:42:56.000Z</time>
                <name>Trackpoint 772</name>
            </trkpt>
            <trkpt lat="50.0194432" lon="9.036308">
                <ele>110.0</ele>
                <time>2020-08-30T07:42:58.000Z</time>
                <name>Trackpoint 773</name>
            </trkpt>
            <trkpt lat="50.0195264" lon="9.0362104">
                <ele>110.0</ele>
                <time>2020-08-30T07:43:00.000Z</time>
                <name>Trackpoint 774</name>
            </trkpt>
            <trkpt lat="50.0196128" lon="9.036108">
                <ele>110.0</ele>
                <time>2020-08-30T07:43:02.000Z</time>
                <name>Trackpoint 775</name>
            </trkpt>
            <trkpt lat="50.0196928" lon="9.0360072">
                <ele>110.0</ele>
                <time>2020-08-30T07:43:04.000Z</time>
                <name>Trackpoint 776</name>
            </trkpt>
            <trkpt lat="50.0197728" lon="9.0359048">
                <ele>110.0</ele>
                <time>2020-08-30T07:43:06.000Z</time>
                <name>Trackpoint 777</name>
            </trkpt>
            <trkpt lat="50.019856" lon="9.0358088">
                <ele>110.0</ele>
                <time>2020-08-30T07:43:08.000Z</time>
                <name>Trackpoint 778</name>
            </trkpt>
            <trkpt lat="50.0199424" lon="9.0357168">
                <ele>110.0</ele>
                <time>2020-08-30T07:43:10.000Z</time>
                <name>Trackpoint 779</name>
            </trkpt>
            <trkpt lat="50.0200352" lon="9.0356432">
                <ele>110.0</ele>
                <time>2020-08-30T07:43:12.000Z</time>
                <name>Trackpoint 780</name>
            </trkpt>
            <trkpt lat="50.0201248" lon="9.0355656">
                <ele>110.0</ele>
                <time>2020-08-30T07:43:14.000Z</time>
                <name>Trackpoint 781</name>
            </trkpt>
            <trkpt lat="50.0202144" lon="9.0354832">
                <ele>110.0</ele>
                <time>2020-08-30T07:43:16.000Z</time>
                <name>Trackpoint 782</name>
            </trkpt>
            <trkpt lat="50.0203008" lon="9.0354032">
                <ele>110.0</ele>
                <time>2020-08-30T07:43:18.000Z</time>
                <name>Trackpoint 783</name>
            </trkpt>
            <trkpt lat="50.0203936" lon="9.035328">
                <ele>110.0</ele>
                <time>2020-08-30T07:43:20.000Z</time>
                <name>Trackpoint 784</name>
            </trkpt>
            <trkpt lat="50.02048" lon="9.0352496">
                <ele>110.0</ele>
                <time>2020-08-30T07:43:22.000Z</time>
                <name>Trackpoint 785</name>
            </trkpt>
            <trkpt lat="50.0205664" lon="9.0351696">
                <ele>110.0</ele>
                <time>2020-08-30T07:43:24.000Z</time>
                <name>Trackpoint 786</name>
            </trkpt>
            <trkpt lat="50.020656" lon="9.0350912">
                <ele>110.0</ele>
                <time>2020-08-30T07:43:26.000Z</time>
                <name>Trackpoint 787</name>
            </trkpt>
            <trkpt lat="50.0207488" lon="9.0350304">
                <ele>110.0</ele>
                <time>2020-08-30T07:43:28.000Z</time>
                <name>Trackpoint 788</name>
            </trkpt>
            <trkpt lat="50.0208448" lon="9.03498">
                <ele>110.0</ele>
                <time>2020-08-30T07:43:30.000Z</time>
                <name>Trackpoint 789</name>
            </trkpt>
            <trkpt lat="50.0209376" lon="9.0349232">
                <ele>110.0</ele>
                <time>2020-08-30T07:43:32.000Z</time>
                <name>Trackpoint 790</name>
            </trkpt>
            <trkpt lat="50.0210336" lon="9.0348528">
                <ele>111.0</ele>
                <time>2020-08-30T07:43:34.000Z</time>
                <name>Trackpoint 791</name>
            </trkpt>
            <trkpt lat="50.0211264" lon="9.0347856">
                <ele>111.0</ele>
                <time>2020-08-30T07:43:36.000Z</time>
                <name>Trackpoint 792</name>
            </trkpt>
            <trkpt lat="50.0212224" lon="9.0347272">
                <ele>111.0</ele>
                <time>2020-08-30T07:43:38.000Z</time>
                <name>Trackpoint 793</name>
            </trkpt>
            <trkpt lat="50.0213152" lon="9.0346632">
                <ele>111.0</ele>
                <time>2020-08-30T07:43:40.000Z</time>
                <name>Trackpoint 794</name>
            </trkpt>
            <trkpt lat="50.0214112" lon="9.0345968">
                <ele>111.0</ele>
                <time>2020-08-30T07:43:42.000Z</time>
                <name>Trackpoint 795</name>
            </trkpt>
            <trkpt lat="50.021504" lon="9.0345296">
                <ele>111.0</ele>
                <time>2020-08-30T07:43:44.000Z</time>
                <name>Trackpoint 796</name>
            </trkpt>
            <trkpt lat="50.0215936" lon="9.0344696">
                <ele>111.0</ele>
                <time>2020-08-30T07:43:46.000Z</time>
                <name>Trackpoint 797</name>
            </trkpt>
            <trkpt lat="50.0216896" lon="9.0344064">
                <ele>111.0</ele>
                <time>2020-08-30T07:43:48.000Z</time>
                <name>Trackpoint 798</name>
            </trkpt>
            <trkpt lat="50.0217856" lon="9.0343488">
                <ele>111.0</ele>
                <time>2020-08-30T07:43:50.000Z</time>
                <name>Trackpoint 799</name>
            </trkpt>
            <trkpt lat="50.0218784" lon="9.0342888">
                <ele>111.0</ele>
                <time>2020-08-30T07:43:52.000Z</time>
                <name>Trackpoint 800</name>
            </trkpt>
            <trkpt lat="50.0219712" lon="9.0342256">
                <ele>111.0</ele>
                <time>2020-08-30T07:43:54.000Z</time>
                <name>Trackpoint 801</name>
            </trkpt>
            <trkpt lat="50.0220672" lon="9.034168">
                <ele>111.0</ele>
                <time>2020-08-30T07:43:56.000Z</time>
                <name>Trackpoint 802</name>
            </trkpt>
            <trkpt lat="50.0221664" lon="9.0341232">
                <ele>111.0</ele>
                <time>2020-08-30T07:43:58.000Z</time>
                <name>Trackpoint 803</name>
            </trkpt>
            <trkpt lat="50.0222688" lon="9.0340928">
                <ele>111.0</ele>
                <time>2020-08-30T07:44:00.000Z</time>
                <name>Trackpoint 804</name>
            </trkpt>
            <trkpt lat="50.022368" lon="9.0340616">
                <ele>111.0</ele>
                <time>2020-08-30T07:44:02.000Z</time>
                <name>Trackpoint 805</name>
            </trkpt>
            <trkpt lat="50.0224672" lon="9.034032">
                <ele>111.0</ele>
                <time>2020-08-30T07:44:04.000Z</time>
                <name>Trackpoint 806</name>
            </trkpt>
            <trkpt lat="50.022576" lon="9.0340072">
                <ele>110.0</ele>
                <time>2020-08-30T07:44:06.000Z</time>
                <name>Trackpoint 807</name>
            </trkpt>
            <trkpt lat="50.0226752" lon="9.0339816">
                <ele>110.0</ele>
                <time>2020-08-30T07:44:08.000Z</time>
                <name>Trackpoint 808</name>
            </trkpt>
            <trkpt lat="50.0227808" lon="9.0339696">
                <ele>110.0</ele>
                <time>2020-08-30T07:44:10.000Z</time>
                <name>Trackpoint 809</name>
            </trkpt>
            <trkpt lat="50.0228896" lon="9.0339544">
                <ele>110.0</ele>
                <time>2020-08-30T07:44:12.000Z</time>
                <name>Trackpoint 810</name>
            </trkpt>
            <trkpt lat="50.0229984" lon="9.0339448">
                <ele>109.0</ele>
                <time>2020-08-30T07:44:14.000Z</time>
                <name>Trackpoint 811</name>
            </trkpt>
            <trkpt lat="50.0231072" lon="9.0339272">
                <ele>109.0</ele>
                <time>2020-08-30T07:44:16.000Z</time>
                <name>Trackpoint 812</name>
            </trkpt>
            <trkpt lat="50.0232128" lon="9.0339096">
                <ele>108.0</ele>
                <time>2020-08-30T07:44:18.000Z</time>
                <name>Trackpoint 813</name>
            </trkpt>
            <trkpt lat="50.0233152" lon="9.0338872">
                <ele>108.0</ele>
                <time>2020-08-30T07:44:20.000Z</time>
                <name>Trackpoint 814</name>
            </trkpt>
            <trkpt lat="50.0234176" lon="9.0338648">
                <ele>108.0</ele>
                <time>2020-08-30T07:44:22.000Z</time>
                <name>Trackpoint 815</name>
            </trkpt>
            <trkpt lat="50.0235264" lon="9.0338496">
                <ele>108.0</ele>
                <time>2020-08-30T07:44:24.000Z</time>
                <name>Trackpoint 816</name>
            </trkpt>
            <trkpt lat="50.0236288" lon="9.0338384">
                <ele>108.0</ele>
                <time>2020-08-30T07:44:26.000Z</time>
                <name>Trackpoint 817</name>
            </trkpt>
            <trkpt lat="50.0237344" lon="9.0338224">
                <ele>108.0</ele>
                <time>2020-08-30T07:44:28.000Z</time>
                <name>Trackpoint 818</name>
            </trkpt>
            <trkpt lat="50.0238368" lon="9.0337984">
                <ele>107.0</ele>
                <time>2020-08-30T07:44:30.000Z</time>
                <name>Trackpoint 819</name>
            </trkpt>
            <trkpt lat="50.023936" lon="9.0337664">
                <ele>106.0</ele>
                <time>2020-08-30T07:44:32.000Z</time>
                <name>Trackpoint 820</name>
            </trkpt>
            <trkpt lat="50.0240416" lon="9.0337336">
                <ele>106.0</ele>
                <time>2020-08-30T07:44:34.000Z</time>
                <name>Trackpoint 821</name>
            </trkpt>
            <trkpt lat="50.0241344" lon="9.033704">
                <ele>106.0</ele>
                <time>2020-08-30T07:44:36.000Z</time>
                <name>Trackpoint 822</name>
            </trkpt>
            <trkpt lat="50.0242336" lon="9.0336768">
                <ele>106.0</ele>
                <time>2020-08-30T07:44:38.000Z</time>
                <name>Trackpoint 823</name>
            </trkpt>
            <trkpt lat="50.0243328" lon="9.0336488">
                <ele>106.0</ele>
                <time>2020-08-30T07:44:40.000Z</time>
                <name>Trackpoint 824</name>
            </trkpt>
            <trkpt lat="50.0244288" lon="9.0336288">
                <ele>106.0</ele>
                <time>2020-08-30T07:44:42.000Z</time>
                <name>Trackpoint 825</name>
            </trkpt>
            <trkpt lat="50.024528" lon="9.0336104">
                <ele>106.0</ele>
                <time>2020-08-30T07:44:44.000Z</time>
                <name>Trackpoint 826</name>
            </trkpt>
            <trkpt lat="50.0246272" lon="9.0335912">
                <ele>106.0</ele>
                <time>2020-08-30T07:44:46.000Z</time>
                <name>Trackpoint 827</name>
            </trkpt>
            <trkpt lat="50.0247264" lon="9.03358">
                <ele>105.0</ele>
                <time>2020-08-30T07:44:48.000Z</time>
                <name>Trackpoint 828</name>
            </trkpt>
            <trkpt lat="50.0248256" lon="9.0335664">
                <ele>106.0</ele>
                <time>2020-08-30T07:44:50.000Z</time>
                <name>Trackpoint 829</name>
            </trkpt>
            <trkpt lat="50.024928" lon="9.0335552">
                <ele>106.0</ele>
                <time>2020-08-30T07:44:52.000Z</time>
                <name>Trackpoint 830</name>
            </trkpt>
            <trkpt lat="50.0250272" lon="9.0335416">
                <ele>106.0</ele>
                <time>2020-08-30T07:44:54.000Z</time>
                <name>Trackpoint 831</name>
            </trkpt>
            <trkpt lat="50.0251264" lon="9.0335328">
                <ele>107.0</ele>
                <time>2020-08-30T07:44:56.000Z</time>
                <name>Trackpoint 832</name>
            </trkpt>
            <trkpt lat="50.0252256" lon="9.0335304">
                <ele>108.0</ele>
                <time>2020-08-30T07:44:58.000Z</time>
                <name>Trackpoint 833</name>
            </trkpt>
            <trkpt lat="50.0253248" lon="9.0335168">
                <ele>108.0</ele>
                <time>2020-08-30T07:45:00.000Z</time>
                <name>Trackpoint 834</name>
            </trkpt>
            <trkpt lat="50.025424" lon="9.0334968">
                <ele>108.0</ele>
                <time>2020-08-30T07:45:02.000Z</time>
                <name>Trackpoint 835</name>
            </trkpt>
            <trkpt lat="50.0255264" lon="9.0334816">
                <ele>109.0</ele>
                <time>2020-08-30T07:45:04.000Z</time>
                <name>Trackpoint 836</name>
            </trkpt>
            <trkpt lat="50.025632" lon="9.0334656">
                <ele>108.0</ele>
                <time>2020-08-30T07:45:06.000Z</time>
                <name>Trackpoint 837</name>
            </trkpt>
            <trkpt lat="50.0257312" lon="9.0334584">
                <ele>108.0</ele>
                <time>2020-08-30T07:45:08.000Z</time>
                <name>Trackpoint 838</name>
            </trkpt>
            <trkpt lat="50.0258336" lon="9.033448">
                <ele>108.0</ele>
                <time>2020-08-30T07:45:10.000Z</time>
                <name>Trackpoint 839</name>
            </trkpt>
            <trkpt lat="50.025936" lon="9.0334416">
                <ele>108.0</ele>
                <time>2020-08-30T07:45:12.000Z</time>
                <name>Trackpoint 840</name>
            </trkpt>
            <trkpt lat="50.026032" lon="9.0334384">
                <ele>107.0</ele>
                <time>2020-08-30T07:45:14.000Z</time>
                <name>Trackpoint 841</name>
            </trkpt>
            <trkpt lat="50.0261312" lon="9.0334368">
                <ele>107.0</ele>
                <time>2020-08-30T07:45:16.000Z</time>
                <name>Trackpoint 842</name>
            </trkpt>
            <trkpt lat="50.0262272" lon="9.0334368">
                <ele>107.0</ele>
                <time>2020-08-30T07:45:18.000Z</time>
                <name>Trackpoint 843</name>
            </trkpt>
            <trkpt lat="50.0263264" lon="9.03344">
                <ele>106.0</ele>
                <time>2020-08-30T07:45:20.000Z</time>
                <name>Trackpoint 844</name>
            </trkpt>
            <trkpt lat="50.0264672" lon="9.0334416">
                <ele>106.0</ele>
                <time>2020-08-30T07:45:23.000Z</time>
                <name>Trackpoint 845</name>
            </trkpt>
            <trkpt lat="50.0265568" lon="9.0334528">
                <ele>105.0</ele>
                <time>2020-08-30T07:45:25.000Z</time>
                <name>Trackpoint 846</name>
            </trkpt>
            <trkpt lat="50.026672" lon="9.033472">
                <ele>106.0</ele>
                <time>2020-08-30T07:45:28.000Z</time>
                <name>Trackpoint 847</name>
            </trkpt>
            <trkpt lat="50.026784" lon="9.0334968">
                <ele>106.0</ele>
                <time>2020-08-30T07:45:31.000Z</time>
                <name>Trackpoint 848</name>
            </trkpt>
            <trkpt lat="50.0268864" lon="9.0335304">
                <ele>107.0</ele>
                <time>2020-08-30T07:45:34.000Z</time>
                <name>Trackpoint 849</name>
            </trkpt>
            <trkpt lat="50.0269824" lon="9.0335568">
                <ele>109.0</ele>
                <time>2020-08-30T07:46:55.000Z</time>
                <name>Trackpoint 850</name>
            </trkpt>
            <trkpt lat="50.027088" lon="9.0336152">
                <ele>109.0</ele>
                <time>2020-08-30T07:46:58.000Z</time>
                <name>Trackpoint 851</name>
            </trkpt>
            <trkpt lat="50.027168" lon="9.0336704">
                <ele>109.0</ele>
                <time>2020-08-30T07:47:00.000Z</time>
                <name>Trackpoint 852</name>
            </trkpt>
            <trkpt lat="50.027248" lon="9.0337288">
                <ele>109.0</ele>
                <time>2020-08-30T07:47:02.000Z</time>
                <name>Trackpoint 853</name>
            </trkpt>
            <trkpt lat="50.027328" lon="9.0337832">
                <ele>109.0</ele>
                <time>2020-08-30T07:47:04.000Z</time>
                <name>Trackpoint 854</name>
            </trkpt>
            <trkpt lat="50.0274048" lon="9.03384">
                <ele>109.0</ele>
                <time>2020-08-30T07:47:06.000Z</time>
                <name>Trackpoint 855</name>
            </trkpt>
            <trkpt lat="50.027488" lon="9.0339">
                <ele>110.0</ele>
                <time>2020-08-30T07:47:08.000Z</time>
                <name>Trackpoint 856</name>
            </trkpt>
            <trkpt lat="50.0275712" lon="9.03396">
                <ele>110.0</ele>
                <time>2020-08-30T07:47:10.000Z</time>
                <name>Trackpoint 857</name>
            </trkpt>
            <trkpt lat="50.0276576" lon="9.0340184">
                <ele>110.0</ele>
                <time>2020-08-30T07:47:12.000Z</time>
                <name>Trackpoint 858</name>
            </trkpt>
            <trkpt lat="50.0277472" lon="9.0340784">
                <ele>110.0</ele>
                <time>2020-08-30T07:47:14.000Z</time>
                <name>Trackpoint 859</name>
            </trkpt>
            <trkpt lat="50.0278368" lon="9.0341304">
                <ele>109.0</ele>
                <time>2020-08-30T07:47:16.000Z</time>
                <name>Trackpoint 860</name>
            </trkpt>
            <trkpt lat="50.0279264" lon="9.034188">
                <ele>109.0</ele>
                <time>2020-08-30T07:47:18.000Z</time>
                <name>Trackpoint 861</name>
            </trkpt>
            <trkpt lat="50.0280192" lon="9.0342552">
                <ele>109.0</ele>
                <time>2020-08-30T07:47:20.000Z</time>
                <name>Trackpoint 862</name>
            </trkpt>
            <trkpt lat="50.028112" lon="9.0343152">
                <ele>109.0</ele>
                <time>2020-08-30T07:47:22.000Z</time>
                <name>Trackpoint 863</name>
            </trkpt>
            <trkpt lat="50.0281984" lon="9.0343688">
                <ele>110.0</ele>
                <time>2020-08-30T07:47:24.000Z</time>
                <name>Trackpoint 864</name>
            </trkpt>
            <trkpt lat="50.0282944" lon="9.0344136">
                <ele>110.0</ele>
                <time>2020-08-30T07:47:26.000Z</time>
                <name>Trackpoint 865</name>
            </trkpt>
            <trkpt lat="50.0283904" lon="9.0344448">
                <ele>110.0</ele>
                <time>2020-08-30T07:47:28.000Z</time>
                <name>Trackpoint 866</name>
            </trkpt>
            <trkpt lat="50.02848" lon="9.03448">
                <ele>109.0</ele>
                <time>2020-08-30T07:47:30.000Z</time>
                <name>Trackpoint 867</name>
            </trkpt>
            <trkpt lat="50.028576" lon="9.0345232">
                <ele>109.0</ele>
                <time>2020-08-30T07:47:32.000Z</time>
                <name>Trackpoint 868</name>
            </trkpt>
            <trkpt lat="50.0286752" lon="9.0345632">
                <ele>110.0</ele>
                <time>2020-08-30T07:47:34.000Z</time>
                <name>Trackpoint 869</name>
            </trkpt>
            <trkpt lat="50.0287712" lon="9.0345944">
                <ele>110.0</ele>
                <time>2020-08-30T07:47:36.000Z</time>
                <name>Trackpoint 870</name>
            </trkpt>
            <trkpt lat="50.0288672" lon="9.034612">
                <ele>110.0</ele>
                <time>2020-08-30T07:47:38.000Z</time>
                <name>Trackpoint 871</name>
            </trkpt>
            <trkpt lat="50.0289664" lon="9.034648">
                <ele>110.0</ele>
                <time>2020-08-30T07:47:40.000Z</time>
                <name>Trackpoint 872</name>
            </trkpt>
            <trkpt lat="50.0290688" lon="9.0346872">
                <ele>110.0</ele>
                <time>2020-08-30T07:47:42.000Z</time>
                <name>Trackpoint 873</name>
            </trkpt>
            <trkpt lat="50.029168" lon="9.0347232">
                <ele>110.0</ele>
                <time>2020-08-30T07:47:44.000Z</time>
                <name>Trackpoint 874</name>
            </trkpt>
            <trkpt lat="50.0292672" lon="9.0347616">
                <ele>110.0</ele>
                <time>2020-08-30T07:47:46.000Z</time>
                <name>Trackpoint 875</name>
            </trkpt>
            <trkpt lat="50.0293664" lon="9.0347928">
                <ele>110.0</ele>
                <time>2020-08-30T07:47:48.000Z</time>
                <name>Trackpoint 876</name>
            </trkpt>
            <trkpt lat="50.0294688" lon="9.0348256">
                <ele>110.0</ele>
                <time>2020-08-30T07:47:50.000Z</time>
                <name>Trackpoint 877</name>
            </trkpt>
            <trkpt lat="50.029568" lon="9.0348504">
                <ele>110.0</ele>
                <time>2020-08-30T07:47:52.000Z</time>
                <name>Trackpoint 878</name>
            </trkpt>
            <trkpt lat="50.0296704" lon="9.034868">
                <ele>110.0</ele>
                <time>2020-08-30T07:47:54.000Z</time>
                <name>Trackpoint 879</name>
            </trkpt>
            <trkpt lat="50.0297728" lon="9.0348904">
                <ele>110.0</ele>
                <time>2020-08-30T07:47:56.000Z</time>
                <name>Trackpoint 880</name>
            </trkpt>
            <trkpt lat="50.0298752" lon="9.034908">
                <ele>110.0</ele>
                <time>2020-08-30T07:47:58.000Z</time>
                <name>Trackpoint 881</name>
            </trkpt>
            <trkpt lat="50.0299808" lon="9.03492">
                <ele>110.0</ele>
                <time>2020-08-30T07:48:00.000Z</time>
                <name>Trackpoint 882</name>
            </trkpt>
            <trkpt lat="50.0300832" lon="9.034928">
                <ele>109.0</ele>
                <time>2020-08-30T07:48:02.000Z</time>
                <name>Trackpoint 883</name>
            </trkpt>
            <trkpt lat="50.0301856" lon="9.0349376">
                <ele>109.0</ele>
                <time>2020-08-30T07:48:04.000Z</time>
                <name>Trackpoint 884</name>
            </trkpt>
            <trkpt lat="50.030288" lon="9.0349464">
                <ele>109.0</ele>
                <time>2020-08-30T07:48:06.000Z</time>
                <name>Trackpoint 885</name>
            </trkpt>
            <trkpt lat="50.0303904" lon="9.0349528">
                <ele>109.0</ele>
                <time>2020-08-30T07:48:08.000Z</time>
                <name>Trackpoint 886</name>
            </trkpt>
            <trkpt lat="50.0304992" lon="9.034964">
                <ele>109.0</ele>
                <time>2020-08-30T07:48:10.000Z</time>
                <name>Trackpoint 887</name>
            </trkpt>
            <trkpt lat="50.0306016" lon="9.034968">
                <ele>109.0</ele>
                <time>2020-08-30T07:48:12.000Z</time>
                <name>Trackpoint 888</name>
            </trkpt>
            <trkpt lat="50.0307008" lon="9.0349712">
                <ele>109.0</ele>
                <time>2020-08-30T07:48:14.000Z</time>
                <name>Trackpoint 889</name>
            </trkpt>
            <trkpt lat="50.0308032" lon="9.0349664">
                <ele>109.0</ele>
                <time>2020-08-30T07:48:16.000Z</time>
                <name>Trackpoint 890</name>
            </trkpt>
            <trkpt lat="50.0309056" lon="9.0349616">
                <ele>109.0</ele>
                <time>2020-08-30T07:48:18.000Z</time>
                <name>Trackpoint 891</name>
            </trkpt>
            <trkpt lat="50.0310144" lon="9.0349512">
                <ele>109.0</ele>
                <time>2020-08-30T07:48:20.000Z</time>
                <name>Trackpoint 892</name>
            </trkpt>
            <trkpt lat="50.0311168" lon="9.0349448">
                <ele>109.0</ele>
                <time>2020-08-30T07:48:22.000Z</time>
                <name>Trackpoint 893</name>
            </trkpt>
            <trkpt lat="50.0312224" lon="9.0349432">
                <ele>109.0</ele>
                <time>2020-08-30T07:48:24.000Z</time>
                <name>Trackpoint 894</name>
            </trkpt>
            <trkpt lat="50.0313248" lon="9.0349376">
                <ele>109.0</ele>
                <time>2020-08-30T07:48:26.000Z</time>
                <name>Trackpoint 895</name>
            </trkpt>
            <trkpt lat="50.0314304" lon="9.0349432">
                <ele>109.0</ele>
                <time>2020-08-30T07:48:28.000Z</time>
                <name>Trackpoint 896</name>
            </trkpt>
            <trkpt lat="50.0315328" lon="9.0349464">
                <ele>109.0</ele>
                <time>2020-08-30T07:48:30.000Z</time>
                <name>Trackpoint 897</name>
            </trkpt>
            <trkpt lat="50.0316352" lon="9.0349528">
                <ele>108.0</ele>
                <time>2020-08-30T07:48:32.000Z</time>
                <name>Trackpoint 898</name>
            </trkpt>
            <trkpt lat="50.0317408" lon="9.03496">
                <ele>108.0</ele>
                <time>2020-08-30T07:48:34.000Z</time>
                <name>Trackpoint 899</name>
            </trkpt>
            <trkpt lat="50.0318464" lon="9.0349664">
                <ele>108.0</ele>
                <time>2020-08-30T07:48:36.000Z</time>
                <name>Trackpoint 900</name>
            </trkpt>
            <trkpt lat="50.0319904" lon="9.0349648">
                <ele>109.0</ele>
                <time>2020-08-30T07:48:39.000Z</time>
                <name>Trackpoint 901</name>
            </trkpt>
            <trkpt lat="50.0320864" lon="9.0349712">
                <ele>109.0</ele>
                <time>2020-08-30T07:48:41.000Z</time>
                <name>Trackpoint 902</name>
            </trkpt>
            <trkpt lat="50.0321888" lon="9.0349768">
                <ele>109.0</ele>
                <time>2020-08-30T07:48:43.000Z</time>
                <name>Trackpoint 903</name>
            </trkpt>
            <trkpt lat="50.032288" lon="9.0349952">
                <ele>109.0</ele>
                <time>2020-08-30T07:48:45.000Z</time>
                <name>Trackpoint 904</name>
            </trkpt>
            <trkpt lat="50.0323904" lon="9.0350104">
                <ele>109.0</ele>
                <time>2020-08-30T07:48:47.000Z</time>
                <name>Trackpoint 905</name>
            </trkpt>
            <trkpt lat="50.0324896" lon="9.035024">
                <ele>109.0</ele>
                <time>2020-08-30T07:48:49.000Z</time>
                <name>Trackpoint 906</name>
            </trkpt>
            <trkpt lat="50.032592" lon="9.0350376">
                <ele>109.0</ele>
                <time>2020-08-30T07:48:51.000Z</time>
                <name>Trackpoint 907</name>
            </trkpt>
            <trkpt lat="50.0326912" lon="9.0350504">
                <ele>109.0</ele>
                <time>2020-08-30T07:48:53.000Z</time>
                <name>Trackpoint 908</name>
            </trkpt>
            <trkpt lat="50.0327936" lon="9.0350616">
                <ele>109.0</ele>
                <time>2020-08-30T07:48:55.000Z</time>
                <name>Trackpoint 909</name>
            </trkpt>
            <trkpt lat="50.0328928" lon="9.0350736">
                <ele>109.0</ele>
                <time>2020-08-30T07:48:57.000Z</time>
                <name>Trackpoint 910</name>
            </trkpt>
            <trkpt lat="50.0329984" lon="9.0350968">
                <ele>109.0</ele>
                <time>2020-08-30T07:48:59.000Z</time>
                <name>Trackpoint 911</name>
            </trkpt>
            <trkpt lat="50.0331008" lon="9.0351184">
                <ele>109.0</ele>
                <time>2020-08-30T07:49:01.000Z</time>
                <name>Trackpoint 912</name>
            </trkpt>
            <trkpt lat="50.0332032" lon="9.035136">
                <ele>109.0</ele>
                <time>2020-08-30T07:49:03.000Z</time>
                <name>Trackpoint 913</name>
            </trkpt>
            <trkpt lat="50.0333056" lon="9.0351552">
                <ele>108.0</ele>
                <time>2020-08-30T07:49:05.000Z</time>
                <name>Trackpoint 914</name>
            </trkpt>
            <trkpt lat="50.033408" lon="9.0351688">
                <ele>108.0</ele>
                <time>2020-08-30T07:49:07.000Z</time>
                <name>Trackpoint 915</name>
            </trkpt>
            <trkpt lat="50.033504" lon="9.0351688">
                <ele>108.0</ele>
                <time>2020-08-30T07:49:09.000Z</time>
                <name>Trackpoint 916</name>
            </trkpt>
            <trkpt lat="50.0336" lon="9.0351696">
                <ele>108.0</ele>
                <time>2020-08-30T07:49:11.000Z</time>
                <name>Trackpoint 917</name>
            </trkpt>
            <trkpt lat="50.033696" lon="9.0351688">
                <ele>109.0</ele>
                <time>2020-08-30T07:49:13.000Z</time>
                <name>Trackpoint 918</name>
            </trkpt>
            <trkpt lat="50.0338016" lon="9.035176">
                <ele>108.0</ele>
                <time>2020-08-30T07:49:40.000Z</time>
                <name>Trackpoint 919</name>
            </trkpt>
            <trkpt lat="50.0339008" lon="9.0351888">
                <ele>109.0</ele>
                <time>2020-08-30T07:49:43.000Z</time>
                <name>Trackpoint 920</name>
            </trkpt>
            <trkpt lat="50.034016" lon="9.0351832">
                <ele>109.0</ele>
                <time>2020-08-30T07:49:46.000Z</time>
                <name>Trackpoint 921</name>
            </trkpt>
            <trkpt lat="50.034144" lon="9.0351736">
                <ele>108.0</ele>
                <time>2020-08-30T07:49:49.000Z</time>
                <name>Trackpoint 922</name>
            </trkpt>
            <trkpt lat="50.0342336" lon="9.03516">
                <ele>108.0</ele>
                <time>2020-08-30T07:49:51.000Z</time>
                <name>Trackpoint 923</name>
            </trkpt>
            <trkpt lat="50.0343296" lon="9.0351384">
                <ele>108.0</ele>
                <time>2020-08-30T07:49:53.000Z</time>
                <name>Trackpoint 924</name>
            </trkpt>
            <trkpt lat="50.0344192" lon="9.0351104">
                <ele>107.0</ele>
                <time>2020-08-30T07:49:55.000Z</time>
                <name>Trackpoint 925</name>
            </trkpt>
            <trkpt lat="50.0345088" lon="9.0350736">
                <ele>107.0</ele>
                <time>2020-08-30T07:49:57.000Z</time>
                <name>Trackpoint 926</name>
            </trkpt>
            <trkpt lat="50.034592" lon="9.0350312">
                <ele>108.0</ele>
                <time>2020-08-30T07:49:59.000Z</time>
                <name>Trackpoint 927</name>
            </trkpt>
            <trkpt lat="50.0346688" lon="9.0349768">
                <ele>108.0</ele>
                <time>2020-08-30T07:50:01.000Z</time>
                <name>Trackpoint 928</name>
            </trkpt>
            <trkpt lat="50.0347744" lon="9.0348968">
                <ele>109.0</ele>
                <time>2020-08-30T07:50:04.000Z</time>
                <name>Trackpoint 929</name>
            </trkpt>
            <trkpt lat="50.0348736" lon="9.0348104">
                <ele>109.0</ele>
                <time>2020-08-30T07:50:07.000Z</time>
                <name>Trackpoint 930</name>
            </trkpt>
            <trkpt lat="50.0349472" lon="9.0347584">
                <ele>109.0</ele>
                <time>2020-08-30T07:50:09.000Z</time>
                <name>Trackpoint 931</name>
            </trkpt>
            <trkpt lat="50.0350784" lon="9.034728">
                <ele>109.0</ele>
                <time>2020-08-30T07:50:12.000Z</time>
                <name>Trackpoint 932</name>
            </trkpt>
            <trkpt lat="50.0351712" lon="9.0347016">
                <ele>109.0</ele>
                <time>2020-08-30T07:50:14.000Z</time>
                <name>Trackpoint 933</name>
            </trkpt>
            <trkpt lat="50.035264" lon="9.034668">
                <ele>109.0</ele>
                <time>2020-08-30T07:50:16.000Z</time>
                <name>Trackpoint 934</name>
            </trkpt>
            <trkpt lat="50.0353536" lon="9.0346336">
                <ele>109.0</ele>
                <time>2020-08-30T07:50:18.000Z</time>
                <name>Trackpoint 935</name>
            </trkpt>
            <trkpt lat="50.0354464" lon="9.0346048">
                <ele>110.0</ele>
                <time>2020-08-30T07:50:20.000Z</time>
                <name>Trackpoint 936</name>
            </trkpt>
            <trkpt lat="50.0355744" lon="9.0345832">
                <ele>111.0</ele>
                <time>2020-08-30T07:50:23.000Z</time>
                <name>Trackpoint 937</name>
            </trkpt>
            <trkpt lat="50.0356864" lon="9.03456">
                <ele>111.0</ele>
                <time>2020-08-30T07:50:26.000Z</time>
                <name>Trackpoint 938</name>
            </trkpt>
            <trkpt lat="50.0357824" lon="9.0345352">
                <ele>111.0</ele>
                <time>2020-08-30T07:50:29.000Z</time>
                <name>Trackpoint 939</name>
            </trkpt>
            <trkpt lat="50.0358208" lon="9.0344312">
                <ele>109.0</ele>
                <time>2020-08-30T07:51:02.000Z</time>
                <name>Trackpoint 940</name>
            </trkpt>
            <trkpt lat="50.035808" lon="9.0343352">
                <ele>109.0</ele>
                <time>2020-08-30T07:51:04.000Z</time>
                <name>Trackpoint 941</name>
            </trkpt>
            <trkpt lat="50.0357888" lon="9.03424">
                <ele>109.0</ele>
                <time>2020-08-30T07:51:06.000Z</time>
                <name>Trackpoint 942</name>
            </trkpt>
            <trkpt lat="50.0357824" lon="9.0341056">
                <ele>109.0</ele>
                <time>2020-08-30T07:51:09.000Z</time>
                <name>Trackpoint 943</name>
            </trkpt>
            <trkpt lat="50.0357728" lon="9.0340016">
                <ele>109.0</ele>
                <time>2020-08-30T07:51:11.000Z</time>
                <name>Trackpoint 944</name>
            </trkpt>
            <trkpt lat="50.0357664" lon="9.033888">
                <ele>109.0</ele>
                <time>2020-08-30T07:51:13.000Z</time>
                <name>Trackpoint 945</name>
            </trkpt>
            <trkpt lat="50.0357696" lon="9.0337696">
                <ele>109.0</ele>
                <time>2020-08-30T07:51:15.000Z</time>
                <name>Trackpoint 946</name>
            </trkpt>
            <trkpt lat="50.0357728" lon="9.0336488">
                <ele>109.0</ele>
                <time>2020-08-30T07:51:17.000Z</time>
                <name>Trackpoint 947</name>
            </trkpt>
            <trkpt lat="50.0357792" lon="9.0335352">
                <ele>109.0</ele>
                <time>2020-08-30T07:51:19.000Z</time>
                <name>Trackpoint 948</name>
            </trkpt>
            <trkpt lat="50.0357728" lon="9.0334304">
                <ele>109.0</ele>
                <time>2020-08-30T07:51:21.000Z</time>
                <name>Trackpoint 949</name>
            </trkpt>
            <trkpt lat="50.0357888" lon="9.0333136">
                <ele>109.0</ele>
                <time>2020-08-30T07:51:23.000Z</time>
                <name>Trackpoint 950</name>
            </trkpt>
            <trkpt lat="50.0358048" lon="9.033192">
                <ele>109.0</ele>
                <time>2020-08-30T07:51:25.000Z</time>
                <name>Trackpoint 951</name>
            </trkpt>
            <trkpt lat="50.0358176" lon="9.0330688">
                <ele>109.0</ele>
                <time>2020-08-30T07:51:27.000Z</time>
                <name>Trackpoint 952</name>
            </trkpt>
            <trkpt lat="50.0358208" lon="9.0329384">
                <ele>109.0</ele>
                <time>2020-08-30T07:51:29.000Z</time>
                <name>Trackpoint 953</name>
            </trkpt>
            <trkpt lat="50.035824" lon="9.0328256">
                <ele>109.0</ele>
                <time>2020-08-30T07:51:31.000Z</time>
                <name>Trackpoint 954</name>
            </trkpt>
            <trkpt lat="50.035824" lon="9.032712">
                <ele>109.0</ele>
                <time>2020-08-30T07:51:33.000Z</time>
                <name>Trackpoint 955</name>
            </trkpt>
            <trkpt lat="50.0358208" lon="9.032608">
                <ele>109.0</ele>
                <time>2020-08-30T07:51:35.000Z</time>
                <name>Trackpoint 956</name>
            </trkpt>
            <trkpt lat="50.0358176" lon="9.0325016">
                <ele>110.0</ele>
                <time>2020-08-30T07:51:37.000Z</time>
                <name>Trackpoint 957</name>
            </trkpt>
            <trkpt lat="50.0358016" lon="9.0323888">
                <ele>110.0</ele>
                <time>2020-08-30T07:51:40.000Z</time>
                <name>Trackpoint 958</name>
            </trkpt>
            <trkpt lat="50.0358208" lon="9.0322752">
                <ele>111.0</ele>
                <time>2020-08-30T07:52:33.000Z</time>
                <name>Trackpoint 959</name>
            </trkpt>
            <trkpt lat="50.035824" lon="9.0321704">
                <ele>111.0</ele>
                <time>2020-08-30T07:52:36.000Z</time>
                <name>Trackpoint 960</name>
            </trkpt>
            <trkpt lat="50.035824" lon="9.0320768">
                <ele>111.0</ele>
                <time>2020-08-30T07:52:38.000Z</time>
                <name>Trackpoint 961</name>
            </trkpt>
            <trkpt lat="50.0358304" lon="9.0319832">
                <ele>112.0</ele>
                <time>2020-08-30T07:52:40.000Z</time>
                <name>Trackpoint 962</name>
            </trkpt>
            <trkpt lat="50.03584" lon="9.0318496">
                <ele>113.0</ele>
                <time>2020-08-30T07:52:43.000Z</time>
                <name>Trackpoint 963</name>
            </trkpt>
            <trkpt lat="50.0358496" lon="9.0317112">
                <ele>113.0</ele>
                <time>2020-08-30T07:52:46.000Z</time>
                <name>Trackpoint 964</name>
            </trkpt>
            <trkpt lat="50.0358592" lon="9.0316136">
                <ele>112.0</ele>
                <time>2020-08-30T07:52:48.000Z</time>
                <name>Trackpoint 965</name>
            </trkpt>
            <trkpt lat="50.0358624" lon="9.0315">
                <ele>112.0</ele>
                <time>2020-08-30T07:52:50.000Z</time>
                <name>Trackpoint 966</name>
            </trkpt>
            <trkpt lat="50.0358688" lon="9.0313752">
                <ele>113.0</ele>
                <time>2020-08-30T07:52:52.000Z</time>
                <name>Trackpoint 967</name>
            </trkpt>
            <trkpt lat="50.0358816" lon="9.0312416">
                <ele>113.0</ele>
                <time>2020-08-30T07:52:54.000Z</time>
                <name>Trackpoint 968</name>
            </trkpt>
            <trkpt lat="50.035888" lon="9.03112">
                <ele>114.0</ele>
                <time>2020-08-30T07:52:56.000Z</time>
                <name>Trackpoint 969</name>
            </trkpt>
            <trkpt lat="50.0358976" lon="9.0309936">
                <ele>113.0</ele>
                <time>2020-08-30T07:52:58.000Z</time>
                <name>Trackpoint 970</name>
            </trkpt>
            <trkpt lat="50.035904" lon="9.03086">
                <ele>112.0</ele>
                <time>2020-08-30T07:53:00.000Z</time>
                <name>Trackpoint 971</name>
            </trkpt>
            <trkpt lat="50.0359104" lon="9.0307416">
                <ele>112.0</ele>
                <time>2020-08-30T07:53:02.000Z</time>
                <name>Trackpoint 972</name>
            </trkpt>
            <trkpt lat="50.035904" lon="9.030648">
                <ele>112.0</ele>
                <time>2020-08-30T07:53:04.000Z</time>
                <name>Trackpoint 973</name>
            </trkpt>
            <trkpt lat="50.0358016" lon="9.0305992">
                <ele>112.0</ele>
                <time>2020-08-30T07:53:08.000Z</time>
                <name>Trackpoint 974</name>
            </trkpt>
            <trkpt lat="50.0357024" lon="9.0306032">
                <ele>112.0</ele>
                <time>2020-08-30T07:53:11.000Z</time>
                <name>Trackpoint 975</name>
            </trkpt>
            <trkpt lat="50.0356032" lon="9.0305968">
                <ele>112.0</ele>
                <time>2020-08-30T07:53:14.000Z</time>
                <name>Trackpoint 976</name>
            </trkpt>
            <trkpt lat="50.035504" lon="9.0306128">
                <ele>112.0</ele>
                <time>2020-08-30T07:53:17.000Z</time>
                <name>Trackpoint 977</name>
            </trkpt>
            <trkpt lat="50.0354208" lon="9.0305664">
                <ele>112.0</ele>
                <time>2020-08-30T07:53:21.000Z</time>
                <name>Trackpoint 978</name>
            </trkpt>
            <trkpt lat="50.035376" lon="9.030488">
                <ele>112.0</ele>
                <time>2020-08-30T07:53:29.000Z</time>
                <name>Trackpoint 979</name>
            </trkpt>
            <trkpt lat="50.0354752" lon="9.0305032">
                <ele>113.0</ele>
                <time>2020-08-30T07:54:21.000Z</time>
                <name>Trackpoint 980</name>
            </trkpt>
            <trkpt lat="50.0355744" lon="9.0305016">
                <ele>113.0</ele>
                <time>2020-08-30T07:54:24.000Z</time>
                <name>Trackpoint 981</name>
            </trkpt>
            <trkpt lat="50.0356864" lon="9.0305016">
                <ele>112.0</ele>
                <time>2020-08-30T07:54:27.000Z</time>
                <name>Trackpoint 982</name>
            </trkpt>
            <trkpt lat="50.0358176" lon="9.0304896">
                <ele>112.0</ele>
                <time>2020-08-30T07:54:30.000Z</time>
                <name>Trackpoint 983</name>
            </trkpt>
            <trkpt lat="50.0359424" lon="9.0304696">
                <ele>113.0</ele>
                <time>2020-08-30T07:54:33.000Z</time>
                <name>Trackpoint 984</name>
            </trkpt>
            <trkpt lat="50.0360288" lon="9.0304432">
                <ele>113.0</ele>
                <time>2020-08-30T07:54:35.000Z</time>
                <name>Trackpoint 985</name>
            </trkpt>
            <trkpt lat="50.0361184" lon="9.0304248">
                <ele>113.0</ele>
                <time>2020-08-30T07:54:37.000Z</time>
                <name>Trackpoint 986</name>
            </trkpt>
            <trkpt lat="50.0362144" lon="9.030412">
                <ele>113.0</ele>
                <time>2020-08-30T07:54:39.000Z</time>
                <name>Trackpoint 987</name>
            </trkpt>
            <trkpt lat="50.0363072" lon="9.030392">
                <ele>113.0</ele>
                <time>2020-08-30T07:54:41.000Z</time>
                <name>Trackpoint 988</name>
            </trkpt>
            <trkpt lat="50.0364" lon="9.0303744">
                <ele>113.0</ele>
                <time>2020-08-30T07:54:43.000Z</time>
                <name>Trackpoint 989</name>
            </trkpt>
            <trkpt lat="50.0365344" lon="9.0303496">
                <ele>112.0</ele>
                <time>2020-08-30T07:54:46.000Z</time>
                <name>Trackpoint 990</name>
            </trkpt>
            <trkpt lat="50.0366272" lon="9.030332">
                <ele>112.0</ele>
                <time>2020-08-30T07:54:48.000Z</time>
                <name>Trackpoint 991</name>
            </trkpt>
            <trkpt lat="50.0367232" lon="9.0303088">
                <ele>112.0</ele>
                <time>2020-08-30T07:54:50.000Z</time>
                <name>Trackpoint 992</name>
            </trkpt>
            <trkpt lat="50.0368224" lon="9.0302848">
                <ele>112.0</ele>
                <time>2020-08-30T07:54:52.000Z</time>
                <name>Trackpoint 993</name>
            </trkpt>
            <trkpt lat="50.0369248" lon="9.0302712">
                <ele>112.0</ele>
                <time>2020-08-30T07:54:54.000Z</time>
                <name>Trackpoint 994</name>
            </trkpt>
            <trkpt lat="50.037024" lon="9.0302584">
                <ele>112.0</ele>
                <time>2020-08-30T07:54:56.000Z</time>
                <name>Trackpoint 995</name>
            </trkpt>
            <trkpt lat="50.0371232" lon="9.0302432">
                <ele>112.0</ele>
                <time>2020-08-30T07:54:58.000Z</time>
                <name>Trackpoint 996</name>
            </trkpt>
            <trkpt lat="50.0372192" lon="9.0302096">
                <ele>112.0</ele>
                <time>2020-08-30T07:55:00.000Z</time>
                <name>Trackpoint 997</name>
            </trkpt>
            <trkpt lat="50.037312" lon="9.0301784">
                <ele>112.0</ele>
                <time>2020-08-30T07:55:02.000Z</time>
                <name>Trackpoint 998</name>
            </trkpt>
            <trkpt lat="50.037408" lon="9.0301568">
                <ele>112.0</ele>
                <time>2020-08-30T07:55:04.000Z</time>
                <name>Trackpoint 999</name>
            </trkpt>
            <trkpt lat="50.0375008" lon="9.0301264">
                <ele>112.0</ele>
                <time>2020-08-30T07:55:06.000Z</time>
                <name>Trackpoint 1000</name>
            </trkpt>
            <trkpt lat="50.0376" lon="9.0300864">
                <ele>112.0</ele>
                <time>2020-08-30T07:55:08.000Z</time>
                <name>Trackpoint 1001</name>
            </trkpt>
            <trkpt lat="50.0377056" lon="9.030048">
                <ele>112.0</ele>
                <time>2020-08-30T07:55:10.000Z</time>
                <name>Trackpoint 1002</name>
            </trkpt>
            <trkpt lat="50.037808" lon="9.0300152">
                <ele>112.0</ele>
                <time>2020-08-30T07:55:12.000Z</time>
                <name>Trackpoint 1003</name>
            </trkpt>
            <trkpt lat="50.0378976" lon="9.0299816">
                <ele>112.0</ele>
                <time>2020-08-30T07:55:14.000Z</time>
                <name>Trackpoint 1004</name>
            </trkpt>
            <trkpt lat="50.0379968" lon="9.0299456">
                <ele>112.0</ele>
                <time>2020-08-30T07:55:16.000Z</time>
                <name>Trackpoint 1005</name>
            </trkpt>
            <trkpt lat="50.0381024" lon="9.0299016">
                <ele>112.0</ele>
                <time>2020-08-30T07:55:18.000Z</time>
                <name>Trackpoint 1006</name>
            </trkpt>
            <trkpt lat="50.0381952" lon="9.0298464">
                <ele>112.0</ele>
                <time>2020-08-30T07:55:20.000Z</time>
                <name>Trackpoint 1007</name>
            </trkpt>
            <trkpt lat="50.0382944" lon="9.0298008">
                <ele>112.0</ele>
                <time>2020-08-30T07:55:22.000Z</time>
                <name>Trackpoint 1008</name>
            </trkpt>
            <trkpt lat="50.0383936" lon="9.029748">
                <ele>112.0</ele>
                <time>2020-08-30T07:55:24.000Z</time>
                <name>Trackpoint 1009</name>
            </trkpt>
            <trkpt lat="50.0384896" lon="9.0297048">
                <ele>112.0</ele>
                <time>2020-08-30T07:55:26.000Z</time>
                <name>Trackpoint 1010</name>
            </trkpt>
            <trkpt lat="50.0385824" lon="9.0296488">
                <ele>112.0</ele>
                <time>2020-08-30T07:55:28.000Z</time>
                <name>Trackpoint 1011</name>
            </trkpt>
            <trkpt lat="50.0386816" lon="9.0295832">
                <ele>112.0</ele>
                <time>2020-08-30T07:55:30.000Z</time>
                <name>Trackpoint 1012</name>
            </trkpt>
            <trkpt lat="50.0387712" lon="9.0295112">
                <ele>112.0</ele>
                <time>2020-08-30T07:55:32.000Z</time>
                <name>Trackpoint 1013</name>
            </trkpt>
            <trkpt lat="50.038864" lon="9.0294336">
                <ele>111.0</ele>
                <time>2020-08-30T07:55:34.000Z</time>
                <name>Trackpoint 1014</name>
            </trkpt>
            <trkpt lat="50.0389472" lon="9.0293568">
                <ele>111.0</ele>
                <time>2020-08-30T07:55:36.000Z</time>
                <name>Trackpoint 1015</name>
            </trkpt>
            <trkpt lat="50.0390432" lon="9.0292856">
                <ele>111.0</ele>
                <time>2020-08-30T07:55:38.000Z</time>
                <name>Trackpoint 1016</name>
            </trkpt>
            <trkpt lat="50.039136" lon="9.0292152">
                <ele>111.0</ele>
                <time>2020-08-30T07:55:40.000Z</time>
                <name>Trackpoint 1017</name>
            </trkpt>
            <trkpt lat="50.0392224" lon="9.0291384">
                <ele>111.0</ele>
                <time>2020-08-30T07:55:42.000Z</time>
                <name>Trackpoint 1018</name>
            </trkpt>
            <trkpt lat="50.0393024" lon="9.0290536">
                <ele>111.0</ele>
                <time>2020-08-30T07:55:44.000Z</time>
                <name>Trackpoint 1019</name>
            </trkpt>
            <trkpt lat="50.0393824" lon="9.0289632">
                <ele>111.0</ele>
                <time>2020-08-30T07:55:46.000Z</time>
                <name>Trackpoint 1020</name>
            </trkpt>
            <trkpt lat="50.0394624" lon="9.0288616">
                <ele>111.0</ele>
                <time>2020-08-30T07:55:48.000Z</time>
                <name>Trackpoint 1021</name>
            </trkpt>
            <trkpt lat="50.039536" lon="9.0287712">
                <ele>111.0</ele>
                <time>2020-08-30T07:55:50.000Z</time>
                <name>Trackpoint 1022</name>
            </trkpt>
            <trkpt lat="50.0396192" lon="9.0286912">
                <ele>111.0</ele>
                <time>2020-08-30T07:55:52.000Z</time>
                <name>Trackpoint 1023</name>
            </trkpt>
            <trkpt lat="50.0396896" lon="9.0286032">
                <ele>111.0</ele>
                <time>2020-08-30T07:55:54.000Z</time>
                <name>Trackpoint 1024</name>
            </trkpt>
            <trkpt lat="50.0397696" lon="9.028508">
                <ele>110.0</ele>
                <time>2020-08-30T07:55:56.000Z</time>
                <name>Trackpoint 1025</name>
            </trkpt>
            <trkpt lat="50.0398368" lon="9.0284048">
                <ele>111.0</ele>
                <time>2020-08-30T07:55:58.000Z</time>
                <name>Trackpoint 1026</name>
            </trkpt>
            <trkpt lat="50.0399104" lon="9.0282968">
                <ele>111.0</ele>
                <time>2020-08-30T07:56:00.000Z</time>
                <name>Trackpoint 1027</name>
            </trkpt>
            <trkpt lat="50.0399744" lon="9.0281888">
                <ele>111.0</ele>
                <time>2020-08-30T07:56:02.000Z</time>
                <name>Trackpoint 1028</name>
            </trkpt>
            <trkpt lat="50.040032" lon="9.0280736">
                <ele>111.0</ele>
                <time>2020-08-30T07:56:04.000Z</time>
                <name>Trackpoint 1029</name>
            </trkpt>
            <trkpt lat="50.0400928" lon="9.0279616">
                <ele>110.0</ele>
                <time>2020-08-30T07:56:06.000Z</time>
                <name>Trackpoint 1030</name>
            </trkpt>
            <trkpt lat="50.0401568" lon="9.0278432">
                <ele>110.0</ele>
                <time>2020-08-30T07:56:08.000Z</time>
                <name>Trackpoint 1031</name>
            </trkpt>
            <trkpt lat="50.0402208" lon="9.0277232">
                <ele>110.0</ele>
                <time>2020-08-30T07:56:10.000Z</time>
                <name>Trackpoint 1032</name>
            </trkpt>
            <trkpt lat="50.040288" lon="9.0276048">
                <ele>110.0</ele>
                <time>2020-08-30T07:56:12.000Z</time>
                <name>Trackpoint 1033</name>
            </trkpt>
            <trkpt lat="50.040352" lon="9.0274896">
                <ele>109.0</ele>
                <time>2020-08-30T07:56:14.000Z</time>
                <name>Trackpoint 1034</name>
            </trkpt>
            <trkpt lat="50.040416" lon="9.0273752">
                <ele>109.0</ele>
                <time>2020-08-30T07:56:16.000Z</time>
                <name>Trackpoint 1035</name>
            </trkpt>
            <trkpt lat="50.0404768" lon="9.0272504">
                <ele>109.0</ele>
                <time>2020-08-30T07:56:18.000Z</time>
                <name>Trackpoint 1036</name>
            </trkpt>
            <trkpt lat="50.0405344" lon="9.027132">
                <ele>109.0</ele>
                <time>2020-08-30T07:56:20.000Z</time>
                <name>Trackpoint 1037</name>
            </trkpt>
            <trkpt lat="50.0405952" lon="9.0270048">
                <ele>109.0</ele>
                <time>2020-08-30T07:56:22.000Z</time>
                <name>Trackpoint 1038</name>
            </trkpt>
            <trkpt lat="50.0406624" lon="9.0268848">
                <ele>109.0</ele>
                <time>2020-08-30T07:56:24.000Z</time>
                <name>Trackpoint 1039</name>
            </trkpt>
            <trkpt lat="50.0407264" lon="9.026756">
                <ele>109.0</ele>
                <time>2020-08-30T07:56:26.000Z</time>
                <name>Trackpoint 1040</name>
            </trkpt>
            <trkpt lat="50.0407872" lon="9.0266384">
                <ele>109.0</ele>
                <time>2020-08-30T07:56:28.000Z</time>
                <name>Trackpoint 1041</name>
            </trkpt>
            <trkpt lat="50.040848" lon="9.0265248">
                <ele>109.0</ele>
                <time>2020-08-30T07:56:30.000Z</time>
                <name>Trackpoint 1042</name>
            </trkpt>
            <trkpt lat="50.0409056" lon="9.0264032">
                <ele>109.0</ele>
                <time>2020-08-30T07:56:32.000Z</time>
                <name>Trackpoint 1043</name>
            </trkpt>
            <trkpt lat="50.0409696" lon="9.0262848">
                <ele>109.0</ele>
                <time>2020-08-30T07:56:34.000Z</time>
                <name>Trackpoint 1044</name>
            </trkpt>
            <trkpt lat="50.0410336" lon="9.0261672">
                <ele>109.0</ele>
                <time>2020-08-30T07:56:36.000Z</time>
                <name>Trackpoint 1045</name>
            </trkpt>
            <trkpt lat="50.0410912" lon="9.02604">
                <ele>109.0</ele>
                <time>2020-08-30T07:56:38.000Z</time>
                <name>Trackpoint 1046</name>
            </trkpt>
            <trkpt lat="50.041152" lon="9.02592">
                <ele>109.0</ele>
                <time>2020-08-30T07:56:40.000Z</time>
                <name>Trackpoint 1047</name>
            </trkpt>
            <trkpt lat="50.0412192" lon="9.0258">
                <ele>109.0</ele>
                <time>2020-08-30T07:56:42.000Z</time>
                <name>Trackpoint 1048</name>
            </trkpt>
            <trkpt lat="50.04128" lon="9.0256864">
                <ele>109.0</ele>
                <time>2020-08-30T07:56:44.000Z</time>
                <name>Trackpoint 1049</name>
            </trkpt>
            <trkpt lat="50.0413408" lon="9.0255632">
                <ele>109.0</ele>
                <time>2020-08-30T07:56:46.000Z</time>
                <name>Trackpoint 1050</name>
            </trkpt>
            <trkpt lat="50.0414016" lon="9.0254424">
                <ele>108.0</ele>
                <time>2020-08-30T07:56:48.000Z</time>
                <name>Trackpoint 1051</name>
            </trkpt>
            <trkpt lat="50.0414688" lon="9.0253264">
                <ele>108.0</ele>
                <time>2020-08-30T07:56:50.000Z</time>
                <name>Trackpoint 1052</name>
            </trkpt>
            <trkpt lat="50.041536" lon="9.0252088">
                <ele>108.0</ele>
                <time>2020-08-30T07:56:52.000Z</time>
                <name>Trackpoint 1053</name>
            </trkpt>
            <trkpt lat="50.0415904" lon="9.0250784">
                <ele>108.0</ele>
                <time>2020-08-30T07:56:54.000Z</time>
                <name>Trackpoint 1054</name>
            </trkpt>
            <trkpt lat="50.0416608" lon="9.0249456">
                <ele>109.0</ele>
                <time>2020-08-30T07:56:56.000Z</time>
                <name>Trackpoint 1055</name>
            </trkpt>
            <trkpt lat="50.0417248" lon="9.0248272">
                <ele>108.0</ele>
                <time>2020-08-30T07:56:58.000Z</time>
                <name>Trackpoint 1056</name>
            </trkpt>
            <trkpt lat="50.0417888" lon="9.0247136">
                <ele>108.0</ele>
                <time>2020-08-30T07:57:00.000Z</time>
                <name>Trackpoint 1057</name>
            </trkpt>
            <trkpt lat="50.0418496" lon="9.0245952">
                <ele>109.0</ele>
                <time>2020-08-30T07:57:02.000Z</time>
                <name>Trackpoint 1058</name>
            </trkpt>
            <trkpt lat="50.0419136" lon="9.02448">
                <ele>109.0</ele>
                <time>2020-08-30T07:57:04.000Z</time>
                <name>Trackpoint 1059</name>
            </trkpt>
            <trkpt lat="50.0419744" lon="9.0243568">
                <ele>108.0</ele>
                <time>2020-08-30T07:57:06.000Z</time>
                <name>Trackpoint 1060</name>
            </trkpt>
            <trkpt lat="50.0420384" lon="9.0242432">
                <ele>108.0</ele>
                <time>2020-08-30T07:57:08.000Z</time>
                <name>Trackpoint 1061</name>
            </trkpt>
            <trkpt lat="50.0420992" lon="9.024112">
                <ele>108.0</ele>
                <time>2020-08-30T07:57:10.000Z</time>
                <name>Trackpoint 1062</name>
            </trkpt>
            <trkpt lat="50.042144" lon="9.0239784">
                <ele>108.0</ele>
                <time>2020-08-30T07:57:12.000Z</time>
                <name>Trackpoint 1063</name>
            </trkpt>
            <trkpt lat="50.0421856" lon="9.0238336">
                <ele>108.0</ele>
                <time>2020-08-30T07:57:14.000Z</time>
                <name>Trackpoint 1064</name>
            </trkpt>
            <trkpt lat="50.0422336" lon="9.0237">
                <ele>108.0</ele>
                <time>2020-08-30T07:57:16.000Z</time>
                <name>Trackpoint 1065</name>
            </trkpt>
            <trkpt lat="50.0422912" lon="9.0235752">
                <ele>108.0</ele>
                <time>2020-08-30T07:57:18.000Z</time>
                <name>Trackpoint 1066</name>
            </trkpt>
            <trkpt lat="50.0423328" lon="9.0234384">
                <ele>108.0</ele>
                <time>2020-08-30T07:57:20.000Z</time>
                <name>Trackpoint 1067</name>
            </trkpt>
            <trkpt lat="50.0423648" lon="9.0233">
                <ele>108.0</ele>
                <time>2020-08-30T07:57:22.000Z</time>
                <name>Trackpoint 1068</name>
            </trkpt>
            <trkpt lat="50.0424128" lon="9.0231616">
                <ele>108.0</ele>
                <time>2020-08-30T07:57:24.000Z</time>
                <name>Trackpoint 1069</name>
            </trkpt>
            <trkpt lat="50.0424544" lon="9.0230328">
                <ele>108.0</ele>
                <time>2020-08-30T07:57:26.000Z</time>
                <name>Trackpoint 1070</name>
            </trkpt>
            <trkpt lat="50.0425024" lon="9.0229">
                <ele>108.0</ele>
                <time>2020-08-30T07:57:28.000Z</time>
                <name>Trackpoint 1071</name>
            </trkpt>
            <trkpt lat="50.0425536" lon="9.0227544">
                <ele>108.0</ele>
                <time>2020-08-30T07:57:30.000Z</time>
                <name>Trackpoint 1072</name>
            </trkpt>
            <trkpt lat="50.0425952" lon="9.022612">
                <ele>108.0</ele>
                <time>2020-08-30T07:57:32.000Z</time>
                <name>Trackpoint 1073</name>
            </trkpt>
            <trkpt lat="50.0426368" lon="9.0224688">
                <ele>108.0</ele>
                <time>2020-08-30T07:57:34.000Z</time>
                <name>Trackpoint 1074</name>
            </trkpt>
            <trkpt lat="50.0426784" lon="9.0223264">
                <ele>108.0</ele>
                <time>2020-08-30T07:57:36.000Z</time>
                <name>Trackpoint 1075</name>
            </trkpt>
            <trkpt lat="50.0427232" lon="9.0221856">
                <ele>108.0</ele>
                <time>2020-08-30T07:57:38.000Z</time>
                <name>Trackpoint 1076</name>
            </trkpt>
            <trkpt lat="50.0427584" lon="9.0220368">
                <ele>108.0</ele>
                <time>2020-08-30T07:57:40.000Z</time>
                <name>Trackpoint 1077</name>
            </trkpt>
            <trkpt lat="50.0427936" lon="9.0218896">
                <ele>108.0</ele>
                <time>2020-08-30T07:57:42.000Z</time>
                <name>Trackpoint 1078</name>
            </trkpt>
            <trkpt lat="50.0428384" lon="9.0217464">
                <ele>108.0</ele>
                <time>2020-08-30T07:57:44.000Z</time>
                <name>Trackpoint 1079</name>
            </trkpt>
            <trkpt lat="50.0428736" lon="9.0215928">
                <ele>109.0</ele>
                <time>2020-08-30T07:57:46.000Z</time>
                <name>Trackpoint 1080</name>
            </trkpt>
            <trkpt lat="50.0429088" lon="9.0214384">
                <ele>108.0</ele>
                <time>2020-08-30T07:57:48.000Z</time>
                <name>Trackpoint 1081</name>
            </trkpt>
            <trkpt lat="50.0429472" lon="9.0212832">
                <ele>109.0</ele>
                <time>2020-08-30T07:57:50.000Z</time>
                <name>Trackpoint 1082</name>
            </trkpt>
            <trkpt lat="50.0429888" lon="9.021136">
                <ele>109.0</ele>
                <time>2020-08-30T07:57:52.000Z</time>
                <name>Trackpoint 1083</name>
            </trkpt>
            <trkpt lat="50.0430272" lon="9.0209816">
                <ele>109.0</ele>
                <time>2020-08-30T07:57:54.000Z</time>
                <name>Trackpoint 1084</name>
            </trkpt>
            <trkpt lat="50.043056" lon="9.0208456">
                <ele>109.0</ele>
                <time>2020-08-30T07:57:56.000Z</time>
                <name>Trackpoint 1085</name>
            </trkpt>
            <trkpt lat="50.0430752" lon="9.0207032">
                <ele>108.0</ele>
                <time>2020-08-30T07:57:58.000Z</time>
                <name>Trackpoint 1086</name>
            </trkpt>
            <trkpt lat="50.0431104" lon="9.0205768">
                <ele>107.0</ele>
                <time>2020-08-30T07:58:00.000Z</time>
                <name>Trackpoint 1087</name>
            </trkpt>
            <trkpt lat="50.0431456" lon="9.0204352">
                <ele>106.0</ele>
                <time>2020-08-30T07:58:02.000Z</time>
                <name>Trackpoint 1088</name>
            </trkpt>
            <trkpt lat="50.0431776" lon="9.0202848">
                <ele>107.0</ele>
                <time>2020-08-30T07:58:04.000Z</time>
                <name>Trackpoint 1089</name>
            </trkpt>
            <trkpt lat="50.0432096" lon="9.0201232">
                <ele>107.0</ele>
                <time>2020-08-30T07:58:06.000Z</time>
                <name>Trackpoint 1090</name>
            </trkpt>
            <trkpt lat="50.043248" lon="9.0199584">
                <ele>107.0</ele>
                <time>2020-08-30T07:58:08.000Z</time>
                <name>Trackpoint 1091</name>
            </trkpt>
            <trkpt lat="50.0432896" lon="9.0197984">
                <ele>107.0</ele>
                <time>2020-08-30T07:58:10.000Z</time>
                <name>Trackpoint 1092</name>
            </trkpt>
            <trkpt lat="50.0433248" lon="9.0196336">
                <ele>108.0</ele>
                <time>2020-08-30T07:58:12.000Z</time>
                <name>Trackpoint 1093</name>
            </trkpt>
            <trkpt lat="50.0433632" lon="9.0194632">
                <ele>108.0</ele>
                <time>2020-08-30T07:58:14.000Z</time>
                <name>Trackpoint 1094</name>
            </trkpt>
            <trkpt lat="50.0433952" lon="9.019292">
                <ele>108.0</ele>
                <time>2020-08-30T07:58:16.000Z</time>
                <name>Trackpoint 1095</name>
            </trkpt>
            <trkpt lat="50.0434304" lon="9.01912">
                <ele>108.0</ele>
                <time>2020-08-30T07:58:18.000Z</time>
                <name>Trackpoint 1096</name>
            </trkpt>
            <trkpt lat="50.043472" lon="9.0189512">
                <ele>108.0</ele>
                <time>2020-08-30T07:58:20.000Z</time>
                <name>Trackpoint 1097</name>
            </trkpt>
            <trkpt lat="50.0435072" lon="9.018788">
                <ele>108.0</ele>
                <time>2020-08-30T07:58:22.000Z</time>
                <name>Trackpoint 1098</name>
            </trkpt>
            <trkpt lat="50.0435424" lon="9.0186192">
                <ele>107.0</ele>
                <time>2020-08-30T07:58:24.000Z</time>
                <name>Trackpoint 1099</name>
            </trkpt>
            <trkpt lat="50.0435712" lon="9.01846">
                <ele>108.0</ele>
                <time>2020-08-30T07:58:26.000Z</time>
                <name>Trackpoint 1100</name>
            </trkpt>
            <trkpt lat="50.0436096" lon="9.0183152">
                <ele>108.0</ele>
                <time>2020-08-30T07:58:28.000Z</time>
                <name>Trackpoint 1101</name>
            </trkpt>
            <trkpt lat="50.0436448" lon="9.0181776">
                <ele>108.0</ele>
                <time>2020-08-30T07:58:30.000Z</time>
                <name>Trackpoint 1102</name>
            </trkpt>
            <trkpt lat="50.0436736" lon="9.0180504">
                <ele>108.0</ele>
                <time>2020-08-30T07:58:32.000Z</time>
                <name>Trackpoint 1103</name>
            </trkpt>
            <trkpt lat="50.0437024" lon="9.017932">
                <ele>108.0</ele>
                <time>2020-08-30T07:58:34.000Z</time>
                <name>Trackpoint 1104</name>
            </trkpt>
            <trkpt lat="50.043728" lon="9.0178216">
                <ele>108.0</ele>
                <time>2020-08-30T07:58:36.000Z</time>
                <name>Trackpoint 1105</name>
            </trkpt>
            <trkpt lat="50.0437472" lon="9.017712">
                <ele>108.0</ele>
                <time>2020-08-30T07:58:38.000Z</time>
                <name>Trackpoint 1106</name>
            </trkpt>
            <trkpt lat="50.0437728" lon="9.017616">
                <ele>108.0</ele>
                <time>2020-08-30T07:58:40.000Z</time>
                <name>Trackpoint 1107</name>
            </trkpt>
            <trkpt lat="50.043792" lon="9.0175136">
                <ele>108.0</ele>
                <time>2020-08-30T07:58:59.000Z</time>
                <name>Trackpoint 1108</name>
            </trkpt>
            <trkpt lat="50.0438112" lon="9.0174168">
                <ele>108.0</ele>
                <time>2020-08-30T07:59:02.000Z</time>
                <name>Trackpoint 1109</name>
            </trkpt>
            <trkpt lat="50.0438336" lon="9.0173232">
                <ele>108.0</ele>
                <time>2020-08-30T07:59:04.000Z</time>
                <name>Trackpoint 1110</name>
            </trkpt>
            <trkpt lat="50.0438624" lon="9.017212">
                <ele>108.0</ele>
                <time>2020-08-30T07:59:06.000Z</time>
                <name>Trackpoint 1111</name>
            </trkpt>
            <trkpt lat="50.043888" lon="9.017092">
                <ele>108.0</ele>
                <time>2020-08-30T07:59:08.000Z</time>
                <name>Trackpoint 1112</name>
            </trkpt>
            <trkpt lat="50.0439136" lon="9.01696">
                <ele>108.0</ele>
                <time>2020-08-30T07:59:10.000Z</time>
                <name>Trackpoint 1113</name>
            </trkpt>
            <trkpt lat="50.0439456" lon="9.0168264">
                <ele>108.0</ele>
                <time>2020-08-30T07:59:12.000Z</time>
                <name>Trackpoint 1114</name>
            </trkpt>
            <trkpt lat="50.0439712" lon="9.016688">
                <ele>108.0</ele>
                <time>2020-08-30T07:59:14.000Z</time>
                <name>Trackpoint 1115</name>
            </trkpt>
            <trkpt lat="50.0440064" lon="9.0165504">
                <ele>108.0</ele>
                <time>2020-08-30T07:59:16.000Z</time>
                <name>Trackpoint 1116</name>
            </trkpt>
            <trkpt lat="50.0440448" lon="9.0164048">
                <ele>108.0</ele>
                <time>2020-08-30T07:59:18.000Z</time>
                <name>Trackpoint 1117</name>
            </trkpt>
            <trkpt lat="50.0440736" lon="9.0162512">
                <ele>107.0</ele>
                <time>2020-08-30T07:59:20.000Z</time>
                <name>Trackpoint 1118</name>
            </trkpt>
            <trkpt lat="50.0441056" lon="9.0160936">
                <ele>107.0</ele>
                <time>2020-08-30T07:59:22.000Z</time>
                <name>Trackpoint 1119</name>
            </trkpt>
            <trkpt lat="50.0441312" lon="9.015932">
                <ele>107.0</ele>
                <time>2020-08-30T07:59:24.000Z</time>
                <name>Trackpoint 1120</name>
            </trkpt>
            <trkpt lat="50.0441664" lon="9.0157696">
                <ele>107.0</ele>
                <time>2020-08-30T07:59:26.000Z</time>
                <name>Trackpoint 1121</name>
            </trkpt>
            <trkpt lat="50.0441984" lon="9.0156088">
                <ele>106.0</ele>
                <time>2020-08-30T07:59:28.000Z</time>
                <name>Trackpoint 1122</name>
            </trkpt>
            <trkpt lat="50.0442208" lon="9.0154416">
                <ele>106.0</ele>
                <time>2020-08-30T07:59:30.000Z</time>
                <name>Trackpoint 1123</name>
            </trkpt>
            <trkpt lat="50.0442464" lon="9.0152776">
                <ele>106.0</ele>
                <time>2020-08-30T07:59:32.000Z</time>
                <name>Trackpoint 1124</name>
            </trkpt>
            <trkpt lat="50.0442848" lon="9.0151128">
                <ele>106.0</ele>
                <time>2020-08-30T07:59:34.000Z</time>
                <name>Trackpoint 1125</name>
            </trkpt>
            <trkpt lat="50.0443104" lon="9.014948">
                <ele>106.0</ele>
                <time>2020-08-30T07:59:36.000Z</time>
                <name>Trackpoint 1126</name>
            </trkpt>
            <trkpt lat="50.0443392" lon="9.0147816">
                <ele>106.0</ele>
                <time>2020-08-30T07:59:38.000Z</time>
                <name>Trackpoint 1127</name>
            </trkpt>
            <trkpt lat="50.0443616" lon="9.0146176">
                <ele>106.0</ele>
                <time>2020-08-30T07:59:40.000Z</time>
                <name>Trackpoint 1128</name>
            </trkpt>
            <trkpt lat="50.044384" lon="9.0144552">
                <ele>105.0</ele>
                <time>2020-08-30T07:59:42.000Z</time>
                <name>Trackpoint 1129</name>
            </trkpt>
            <trkpt lat="50.044416" lon="9.0142936">
                <ele>105.0</ele>
                <time>2020-08-30T07:59:44.000Z</time>
                <name>Trackpoint 1130</name>
            </trkpt>
            <trkpt lat="50.0444384" lon="9.0141352">
                <ele>105.0</ele>
                <time>2020-08-30T07:59:46.000Z</time>
                <name>Trackpoint 1131</name>
            </trkpt>
            <trkpt lat="50.0444576" lon="9.0139704">
                <ele>105.0</ele>
                <time>2020-08-30T07:59:48.000Z</time>
                <name>Trackpoint 1132</name>
            </trkpt>
            <trkpt lat="50.0444768" lon="9.0138064">
                <ele>105.0</ele>
                <time>2020-08-30T07:59:50.000Z</time>
                <name>Trackpoint 1133</name>
            </trkpt>
            <trkpt lat="50.044496" lon="9.0136448">
                <ele>105.0</ele>
                <time>2020-08-30T07:59:52.000Z</time>
                <name>Trackpoint 1134</name>
            </trkpt>
            <trkpt lat="50.0445152" lon="9.01348">
                <ele>105.0</ele>
                <time>2020-08-30T07:59:54.000Z</time>
                <name>Trackpoint 1135</name>
            </trkpt>
            <trkpt lat="50.0445248" lon="9.0133168">
                <ele>105.0</ele>
                <time>2020-08-30T07:59:56.000Z</time>
                <name>Trackpoint 1136</name>
            </trkpt>
            <trkpt lat="50.0445472" lon="9.0131584">
                <ele>105.0</ele>
                <time>2020-08-30T07:59:58.000Z</time>
                <name>Trackpoint 1137</name>
            </trkpt>
            <trkpt lat="50.0445632" lon="9.0130056">
                <ele>105.0</ele>
                <time>2020-08-30T08:00:00.000Z</time>
                <name>Trackpoint 1138</name>
            </trkpt>
            <trkpt lat="50.0445824" lon="9.012852">
                <ele>105.0</ele>
                <time>2020-08-30T08:00:02.000Z</time>
                <name>Trackpoint 1139</name>
            </trkpt>
            <trkpt lat="50.0445952" lon="9.0126936">
                <ele>105.0</ele>
                <time>2020-08-30T08:00:04.000Z</time>
                <name>Trackpoint 1140</name>
            </trkpt>
            <trkpt lat="50.0446176" lon="9.0125352">
                <ele>105.0</ele>
                <time>2020-08-30T08:00:06.000Z</time>
                <name>Trackpoint 1141</name>
            </trkpt>
            <trkpt lat="50.0446432" lon="9.012372">
                <ele>105.0</ele>
                <time>2020-08-30T08:00:08.000Z</time>
                <name>Trackpoint 1142</name>
            </trkpt>
            <trkpt lat="50.044656" lon="9.0122048">
                <ele>105.0</ele>
                <time>2020-08-30T08:00:10.000Z</time>
                <name>Trackpoint 1143</name>
            </trkpt>
            <trkpt lat="50.0446688" lon="9.01204">
                <ele>105.0</ele>
                <time>2020-08-30T08:00:12.000Z</time>
                <name>Trackpoint 1144</name>
            </trkpt>
            <trkpt lat="50.0446816" lon="9.0118752">
                <ele>105.0</ele>
                <time>2020-08-30T08:00:14.000Z</time>
                <name>Trackpoint 1145</name>
            </trkpt>
            <trkpt lat="50.044688" lon="9.011708">
                <ele>105.0</ele>
                <time>2020-08-30T08:00:16.000Z</time>
                <name>Trackpoint 1146</name>
            </trkpt>
            <trkpt lat="50.0447008" lon="9.0115416">
                <ele>105.0</ele>
                <time>2020-08-30T08:00:18.000Z</time>
                <name>Trackpoint 1147</name>
            </trkpt>
            <trkpt lat="50.0447072" lon="9.0113752">
                <ele>105.0</ele>
                <time>2020-08-30T08:00:20.000Z</time>
                <name>Trackpoint 1148</name>
            </trkpt>
            <trkpt lat="50.0447136" lon="9.0112104">
                <ele>105.0</ele>
                <time>2020-08-30T08:00:22.000Z</time>
                <name>Trackpoint 1149</name>
            </trkpt>
            <trkpt lat="50.0447264" lon="9.011048">
                <ele>104.0</ele>
                <time>2020-08-30T08:00:24.000Z</time>
                <name>Trackpoint 1150</name>
            </trkpt>
            <trkpt lat="50.0447456" lon="9.0108816">
                <ele>105.0</ele>
                <time>2020-08-30T08:00:26.000Z</time>
                <name>Trackpoint 1151</name>
            </trkpt>
            <trkpt lat="50.0447552" lon="9.0107144">
                <ele>105.0</ele>
                <time>2020-08-30T08:00:28.000Z</time>
                <name>Trackpoint 1152</name>
            </trkpt>
            <trkpt lat="50.0447584" lon="9.0105448">
                <ele>104.0</ele>
                <time>2020-08-30T08:00:30.000Z</time>
                <name>Trackpoint 1153</name>
            </trkpt>
            <trkpt lat="50.0447648" lon="9.01038">
                <ele>105.0</ele>
                <time>2020-08-30T08:00:32.000Z</time>
                <name>Trackpoint 1154</name>
            </trkpt>
            <trkpt lat="50.0447744" lon="9.010212">
                <ele>105.0</ele>
                <time>2020-08-30T08:00:34.000Z</time>
                <name>Trackpoint 1155</name>
            </trkpt>
            <trkpt lat="50.044768" lon="9.0100448">
                <ele>104.0</ele>
                <time>2020-08-30T08:00:36.000Z</time>
                <name>Trackpoint 1156</name>
            </trkpt>
            <trkpt lat="50.044768" lon="9.0098784">
                <ele>104.0</ele>
                <time>2020-08-30T08:00:38.000Z</time>
                <name>Trackpoint 1157</name>
            </trkpt>
            <trkpt lat="50.0447648" lon="9.0097112">
                <ele>104.0</ele>
                <time>2020-08-30T08:00:40.000Z</time>
                <name>Trackpoint 1158</name>
            </trkpt>
            <trkpt lat="50.0447616" lon="9.0095432">
                <ele>104.0</ele>
                <time>2020-08-30T08:00:42.000Z</time>
                <name>Trackpoint 1159</name>
            </trkpt>
            <trkpt lat="50.0447552" lon="9.0093744">
                <ele>103.0</ele>
                <time>2020-08-30T08:00:44.000Z</time>
                <name>Trackpoint 1160</name>
            </trkpt>
            <trkpt lat="50.0447552" lon="9.0092112">
                <ele>103.0</ele>
                <time>2020-08-30T08:00:46.000Z</time>
                <name>Trackpoint 1161</name>
            </trkpt>
            <trkpt lat="50.0447456" lon="9.0090448">
                <ele>103.0</ele>
                <time>2020-08-30T08:00:48.000Z</time>
                <name>Trackpoint 1162</name>
            </trkpt>
            <trkpt lat="50.044736" lon="9.0088752">
                <ele>103.0</ele>
                <time>2020-08-30T08:00:50.000Z</time>
                <name>Trackpoint 1163</name>
            </trkpt>
            <trkpt lat="50.044736" lon="9.0087048">
                <ele>103.0</ele>
                <time>2020-08-30T08:00:52.000Z</time>
                <name>Trackpoint 1164</name>
            </trkpt>
            <trkpt lat="50.0447264" lon="9.0085424">
                <ele>103.0</ele>
                <time>2020-08-30T08:00:54.000Z</time>
                <name>Trackpoint 1165</name>
            </trkpt>
            <trkpt lat="50.0447168" lon="9.0083848">
                <ele>103.0</ele>
                <time>2020-08-30T08:00:56.000Z</time>
                <name>Trackpoint 1166</name>
            </trkpt>
            <trkpt lat="50.0447136" lon="9.008228">
                <ele>103.0</ele>
                <time>2020-08-30T08:00:58.000Z</time>
                <name>Trackpoint 1167</name>
            </trkpt>
            <trkpt lat="50.0447072" lon="9.008068">
                <ele>103.0</ele>
                <time>2020-08-30T08:01:00.000Z</time>
                <name>Trackpoint 1168</name>
            </trkpt>
            <trkpt lat="50.0447008" lon="9.0079144">
                <ele>103.0</ele>
                <time>2020-08-30T08:01:02.000Z</time>
                <name>Trackpoint 1169</name>
            </trkpt>
            <trkpt lat="50.0447008" lon="9.0077632">
                <ele>103.0</ele>
                <time>2020-08-30T08:01:04.000Z</time>
                <name>Trackpoint 1170</name>
            </trkpt>
            <trkpt lat="50.0447008" lon="9.0076112">
                <ele>103.0</ele>
                <time>2020-08-30T08:01:06.000Z</time>
                <name>Trackpoint 1171</name>
            </trkpt>
            <trkpt lat="50.0447008" lon="9.0074616">
                <ele>103.0</ele>
                <time>2020-08-30T08:01:08.000Z</time>
                <name>Trackpoint 1172</name>
            </trkpt>
            <trkpt lat="50.0446976" lon="9.0073272">
                <ele>103.0</ele>
                <time>2020-08-30T08:01:10.000Z</time>
                <name>Trackpoint 1173</name>
            </trkpt>
            <trkpt lat="50.0446944" lon="9.0072096">
                <ele>103.0</ele>
                <time>2020-08-30T08:01:12.000Z</time>
                <name>Trackpoint 1174</name>
            </trkpt>
            <trkpt lat="50.0446848" lon="9.0071064">
                <ele>103.0</ele>
                <time>2020-08-30T08:01:14.000Z</time>
                <name>Trackpoint 1175</name>
            </trkpt>
            <trkpt lat="50.0446784" lon="9.0070152">
                <ele>103.0</ele>
                <time>2020-08-30T08:01:16.000Z</time>
                <name>Trackpoint 1176</name>
            </trkpt>
            <trkpt lat="50.0446656" lon="9.0068952">
                <ele>103.0</ele>
                <time>2020-08-30T08:01:19.000Z</time>
                <name>Trackpoint 1177</name>
            </trkpt>
            <trkpt lat="50.0446432" lon="9.0067728">
                <ele>103.0</ele>
                <time>2020-08-30T08:01:22.000Z</time>
                <name>Trackpoint 1178</name>
            </trkpt>
            <trkpt lat="50.0446304" lon="9.0066792">
                <ele>104.0</ele>
                <time>2020-08-30T08:01:25.000Z</time>
                <name>Trackpoint 1179</name>
            </trkpt>
            <trkpt lat="50.0446176" lon="9.0065896">
                <ele>104.0</ele>
                <time>2020-08-30T08:01:28.000Z</time>
                <name>Trackpoint 1180</name>
            </trkpt>
            <trkpt lat="50.0446016" lon="9.0065008">
                <ele>104.0</ele>
                <time>2020-08-30T08:01:30.000Z</time>
                <name>Trackpoint 1181</name>
            </trkpt>
            <trkpt lat="50.0445792" lon="9.0064064">
                <ele>104.0</ele>
                <time>2020-08-30T08:01:32.000Z</time>
                <name>Trackpoint 1182</name>
            </trkpt>
            <trkpt lat="50.0445568" lon="9.0063136">
                <ele>103.0</ele>
                <time>2020-08-30T08:01:34.000Z</time>
                <name>Trackpoint 1183</name>
            </trkpt>
            <trkpt lat="50.0445408" lon="9.0062088">
                <ele>103.0</ele>
                <time>2020-08-30T08:01:36.000Z</time>
                <name>Trackpoint 1184</name>
            </trkpt>
            <trkpt lat="50.044528" lon="9.006092">
                <ele>103.0</ele>
                <time>2020-08-30T08:01:38.000Z</time>
                <name>Trackpoint 1185</name>
            </trkpt>
            <trkpt lat="50.0445056" lon="9.0059656">
                <ele>103.0</ele>
                <time>2020-08-30T08:01:40.000Z</time>
                <name>Trackpoint 1186</name>
            </trkpt>
            <trkpt lat="50.04448" lon="9.005848">
                <ele>103.0</ele>
                <time>2020-08-30T08:01:42.000Z</time>
                <name>Trackpoint 1187</name>
            </trkpt>
            <trkpt lat="50.0444512" lon="9.005736">
                <ele>103.0</ele>
                <time>2020-08-30T08:01:44.000Z</time>
                <name>Trackpoint 1188</name>
            </trkpt>
            <trkpt lat="50.0444256" lon="9.0056136">
                <ele>104.0</ele>
                <time>2020-08-30T08:01:46.000Z</time>
                <name>Trackpoint 1189</name>
            </trkpt>
            <trkpt lat="50.0444032" lon="9.0054728">
                <ele>104.0</ele>
                <time>2020-08-30T08:01:48.000Z</time>
                <name>Trackpoint 1190</name>
            </trkpt>
            <trkpt lat="50.0443808" lon="9.0053184">
                <ele>104.0</ele>
                <time>2020-08-30T08:01:50.000Z</time>
                <name>Trackpoint 1191</name>
            </trkpt>
            <trkpt lat="50.0443648" lon="9.005168">
                <ele>104.0</ele>
                <time>2020-08-30T08:01:52.000Z</time>
                <name>Trackpoint 1192</name>
            </trkpt>
            <trkpt lat="50.0443424" lon="9.005036">
                <ele>104.0</ele>
                <time>2020-08-30T08:01:54.000Z</time>
                <name>Trackpoint 1193</name>
            </trkpt>
            <trkpt lat="50.0443232" lon="9.0049016">
                <ele>104.0</ele>
                <time>2020-08-30T08:01:56.000Z</time>
                <name>Trackpoint 1194</name>
            </trkpt>
            <trkpt lat="50.0443008" lon="9.0047576">
                <ele>104.0</ele>
                <time>2020-08-30T08:01:58.000Z</time>
                <name>Trackpoint 1195</name>
            </trkpt>
            <trkpt lat="50.0442624" lon="9.004632">
                <ele>104.0</ele>
                <time>2020-08-30T08:02:00.000Z</time>
                <name>Trackpoint 1196</name>
            </trkpt>
            <trkpt lat="50.0442304" lon="9.0045048">
                <ele>104.0</ele>
                <time>2020-08-30T08:02:02.000Z</time>
                <name>Trackpoint 1197</name>
            </trkpt>
            <trkpt lat="50.044192" lon="9.0043688">
                <ele>104.0</ele>
                <time>2020-08-30T08:02:04.000Z</time>
                <name>Trackpoint 1198</name>
            </trkpt>
            <trkpt lat="50.04416" lon="9.00422">
                <ele>104.0</ele>
                <time>2020-08-30T08:02:06.000Z</time>
                <name>Trackpoint 1199</name>
            </trkpt>
            <trkpt lat="50.0441248" lon="9.0040568">
                <ele>104.0</ele>
                <time>2020-08-30T08:02:08.000Z</time>
                <name>Trackpoint 1200</name>
            </trkpt>
            <trkpt lat="50.0440896" lon="9.0038984">
                <ele>104.0</ele>
                <time>2020-08-30T08:02:10.000Z</time>
                <name>Trackpoint 1201</name>
            </trkpt>
            <trkpt lat="50.0440512" lon="9.0037448">
                <ele>104.0</ele>
                <time>2020-08-30T08:02:12.000Z</time>
                <name>Trackpoint 1202</name>
            </trkpt>
            <trkpt lat="50.0440224" lon="9.0036096">
                <ele>104.0</ele>
                <time>2020-08-30T08:02:14.000Z</time>
                <name>Trackpoint 1203</name>
            </trkpt>
            <trkpt lat="50.0439936" lon="9.0034504">
                <ele>104.0</ele>
                <time>2020-08-30T08:02:16.000Z</time>
                <name>Trackpoint 1204</name>
            </trkpt>
            <trkpt lat="50.0439552" lon="9.0032864">
                <ele>105.0</ele>
                <time>2020-08-30T08:02:18.000Z</time>
                <name>Trackpoint 1205</name>
            </trkpt>
            <trkpt lat="50.0439264" lon="9.0031472">
                <ele>105.0</ele>
                <time>2020-08-30T08:02:20.000Z</time>
                <name>Trackpoint 1206</name>
            </trkpt>
            <trkpt lat="50.0438912" lon="9.002988">
                <ele>105.0</ele>
                <time>2020-08-30T08:02:22.000Z</time>
                <name>Trackpoint 1207</name>
            </trkpt>
            <trkpt lat="50.0438656" lon="9.00284">
                <ele>105.0</ele>
                <time>2020-08-30T08:02:24.000Z</time>
                <name>Trackpoint 1208</name>
            </trkpt>
            <trkpt lat="50.0438208" lon="9.002704">
                <ele>105.0</ele>
                <time>2020-08-30T08:02:26.000Z</time>
                <name>Trackpoint 1209</name>
            </trkpt>
            <trkpt lat="50.0437696" lon="9.0025504">
                <ele>105.0</ele>
                <time>2020-08-30T08:02:28.000Z</time>
                <name>Trackpoint 1210</name>
            </trkpt>
            <trkpt lat="50.0437248" lon="9.002388">
                <ele>105.0</ele>
                <time>2020-08-30T08:02:30.000Z</time>
                <name>Trackpoint 1211</name>
            </trkpt>
            <trkpt lat="50.0436864" lon="9.0022336">
                <ele>105.0</ele>
                <time>2020-08-30T08:02:32.000Z</time>
                <name>Trackpoint 1212</name>
            </trkpt>
            <trkpt lat="50.0436512" lon="9.0020784">
                <ele>105.0</ele>
                <time>2020-08-30T08:02:34.000Z</time>
                <name>Trackpoint 1213</name>
            </trkpt>
            <trkpt lat="50.0436416" lon="9.0019888">
                <ele>105.0</ele>
                <time>2020-08-30T08:02:35.000Z</time>
                <name>Trackpoint 1214</name>
            </trkpt>
            <trkpt lat="50.0436256" lon="9.0019">
                <ele>105.0</ele>
                <time>2020-08-30T08:02:36.000Z</time>
                <name>Trackpoint 1215</name>
            </trkpt>
            <trkpt lat="50.0435904" lon="9.0017432">
                <ele>105.0</ele>
                <time>2020-08-30T08:02:38.000Z</time>
                <name>Trackpoint 1216</name>
            </trkpt>
            <trkpt lat="50.043536" lon="9.0015944">
                <ele>105.0</ele>
                <time>2020-08-30T08:02:40.000Z</time>
                <name>Trackpoint 1217</name>
            </trkpt>
            <trkpt lat="50.0435104" lon="9.0013984">
                <ele>105.0</ele>
                <time>2020-08-30T08:02:42.000Z</time>
                <name>Trackpoint 1218</name>
            </trkpt>
            <trkpt lat="50.0435072" lon="9.00122">
                <ele>105.0</ele>
                <time>2020-08-30T08:02:44.000Z</time>
                <name>Trackpoint 1219</name>
            </trkpt>
            <trkpt lat="50.043504" lon="9.0010704">
                <ele>105.0</ele>
                <time>2020-08-30T08:02:46.000Z</time>
                <name>Trackpoint 1220</name>
            </trkpt>
            <trkpt lat="50.0434624" lon="9.0009232">
                <ele>106.0</ele>
                <time>2020-08-30T08:02:48.000Z</time>
                <name>Trackpoint 1221</name>
            </trkpt>
            <trkpt lat="50.043408" lon="9.0007832">
                <ele>106.0</ele>
                <time>2020-08-30T08:02:50.000Z</time>
                <name>Trackpoint 1222</name>
            </trkpt>
            <trkpt lat="50.0433728" lon="9.0006352">
                <ele>106.0</ele>
                <time>2020-08-30T08:02:52.000Z</time>
                <name>Trackpoint 1223</name>
            </trkpt>
            <trkpt lat="50.0433376" lon="9.0004904">
                <ele>106.0</ele>
                <time>2020-08-30T08:02:54.000Z</time>
                <name>Trackpoint 1224</name>
            </trkpt>
            <trkpt lat="50.043296" lon="9.0003416">
                <ele>105.0</ele>
                <time>2020-08-30T08:02:56.000Z</time>
                <name>Trackpoint 1225</name>
            </trkpt>
            <trkpt lat="50.0432544" lon="9.0001936">
                <ele>105.0</ele>
                <time>2020-08-30T08:02:58.000Z</time>
                <name>Trackpoint 1226</name>
            </trkpt>
            <trkpt lat="50.043216" lon="9.0000432">
                <ele>105.0</ele>
                <time>2020-08-30T08:03:00.000Z</time>
                <name>Trackpoint 1227</name>
            </trkpt>
            <trkpt lat="50.0431808" lon="8.9998928">
                <ele>105.0</ele>
                <time>2020-08-30T08:03:02.000Z</time>
                <name>Trackpoint 1228</name>
            </trkpt>
            <trkpt lat="50.0431456" lon="8.9997432">
                <ele>104.0</ele>
                <time>2020-08-30T08:03:04.000Z</time>
                <name>Trackpoint 1229</name>
            </trkpt>
            <trkpt lat="50.0430976" lon="8.9995968">
                <ele>105.0</ele>
                <time>2020-08-30T08:03:06.000Z</time>
                <name>Trackpoint 1230</name>
            </trkpt>
            <trkpt lat="50.043056" lon="8.9994496">
                <ele>105.0</ele>
                <time>2020-08-30T08:03:08.000Z</time>
                <name>Trackpoint 1231</name>
            </trkpt>
            <trkpt lat="50.0430016" lon="8.999316">
                <ele>106.0</ele>
                <time>2020-08-30T08:03:10.000Z</time>
                <name>Trackpoint 1232</name>
            </trkpt>
            <trkpt lat="50.0429504" lon="8.9991816">
                <ele>106.0</ele>
                <time>2020-08-30T08:03:12.000Z</time>
                <name>Trackpoint 1233</name>
            </trkpt>
            <trkpt lat="50.042896" lon="8.99904">
                <ele>105.0</ele>
                <time>2020-08-30T08:03:14.000Z</time>
                <name>Trackpoint 1234</name>
            </trkpt>
            <trkpt lat="50.042848" lon="8.9988984">
                <ele>105.0</ele>
                <time>2020-08-30T08:03:16.000Z</time>
                <name>Trackpoint 1235</name>
            </trkpt>
            <trkpt lat="50.0428" lon="8.9987552">
                <ele>105.0</ele>
                <time>2020-08-30T08:03:18.000Z</time>
                <name>Trackpoint 1236</name>
            </trkpt>
            <trkpt lat="50.042768" lon="8.9986016">
                <ele>104.0</ele>
                <time>2020-08-30T08:03:20.000Z</time>
                <name>Trackpoint 1237</name>
            </trkpt>
            <trkpt lat="50.0427392" lon="8.998444">
                <ele>104.0</ele>
                <time>2020-08-30T08:03:22.000Z</time>
                <name>Trackpoint 1238</name>
            </trkpt>
            <trkpt lat="50.0426944" lon="8.9982952">
                <ele>104.0</ele>
                <time>2020-08-30T08:03:24.000Z</time>
                <name>Trackpoint 1239</name>
            </trkpt>
            <trkpt lat="50.0426432" lon="8.9981496">
                <ele>104.0</ele>
                <time>2020-08-30T08:03:26.000Z</time>
                <name>Trackpoint 1240</name>
            </trkpt>
            <trkpt lat="50.0425952" lon="8.9980048">
                <ele>104.0</ele>
                <time>2020-08-30T08:03:28.000Z</time>
                <name>Trackpoint 1241</name>
            </trkpt>
            <trkpt lat="50.0425536" lon="8.9978568">
                <ele>104.0</ele>
                <time>2020-08-30T08:03:30.000Z</time>
                <name>Trackpoint 1242</name>
            </trkpt>
            <trkpt lat="50.0425152" lon="8.997708">
                <ele>104.0</ele>
                <time>2020-08-30T08:03:32.000Z</time>
                <name>Trackpoint 1243</name>
            </trkpt>
            <trkpt lat="50.042464" lon="8.9975632">
                <ele>104.0</ele>
                <time>2020-08-30T08:03:34.000Z</time>
                <name>Trackpoint 1244</name>
            </trkpt>
            <trkpt lat="50.042416" lon="8.99742">
                <ele>104.0</ele>
                <time>2020-08-30T08:03:36.000Z</time>
                <name>Trackpoint 1245</name>
            </trkpt>
            <trkpt lat="50.0423648" lon="8.997276">
                <ele>104.0</ele>
                <time>2020-08-30T08:03:38.000Z</time>
                <name>Trackpoint 1246</name>
            </trkpt>
            <trkpt lat="50.0423168" lon="8.9971264">
                <ele>104.0</ele>
                <time>2020-08-30T08:03:40.000Z</time>
                <name>Trackpoint 1247</name>
            </trkpt>
            <trkpt lat="50.0422752" lon="8.9969752">
                <ele>105.0</ele>
                <time>2020-08-30T08:03:42.000Z</time>
                <name>Trackpoint 1248</name>
            </trkpt>
            <trkpt lat="50.042224" lon="8.9968272">
                <ele>105.0</ele>
                <time>2020-08-30T08:03:44.000Z</time>
                <name>Trackpoint 1249</name>
            </trkpt>
            <trkpt lat="50.042176" lon="8.9966744">
                <ele>104.0</ele>
                <time>2020-08-30T08:03:46.000Z</time>
                <name>Trackpoint 1250</name>
            </trkpt>
            <trkpt lat="50.042128" lon="8.9965264">
                <ele>105.0</ele>
                <time>2020-08-30T08:03:48.000Z</time>
                <name>Trackpoint 1251</name>
            </trkpt>
            <trkpt lat="50.0420832" lon="8.99638">
                <ele>105.0</ele>
                <time>2020-08-30T08:03:50.000Z</time>
                <name>Trackpoint 1252</name>
            </trkpt>
            <trkpt lat="50.0420384" lon="8.9962216">
                <ele>104.0</ele>
                <time>2020-08-30T08:03:52.000Z</time>
                <name>Trackpoint 1253</name>
            </trkpt>
            <trkpt lat="50.0419872" lon="8.996072">
                <ele>104.0</ele>
                <time>2020-08-30T08:03:54.000Z</time>
                <name>Trackpoint 1254</name>
            </trkpt>
            <trkpt lat="50.0419424" lon="8.9959232">
                <ele>104.0</ele>
                <time>2020-08-30T08:03:56.000Z</time>
                <name>Trackpoint 1255</name>
            </trkpt>
            <trkpt lat="50.0418976" lon="8.9957712">
                <ele>104.0</ele>
                <time>2020-08-30T08:03:58.000Z</time>
                <name>Trackpoint 1256</name>
            </trkpt>
            <trkpt lat="50.0418464" lon="8.9956264">
                <ele>104.0</ele>
                <time>2020-08-30T08:04:00.000Z</time>
                <name>Trackpoint 1257</name>
            </trkpt>
            <trkpt lat="50.0418016" lon="8.9954864">
                <ele>104.0</ele>
                <time>2020-08-30T08:04:02.000Z</time>
                <name>Trackpoint 1258</name>
            </trkpt>
            <trkpt lat="50.0417568" lon="8.995348">
                <ele>105.0</ele>
                <time>2020-08-30T08:04:04.000Z</time>
                <name>Trackpoint 1259</name>
            </trkpt>
            <trkpt lat="50.0417152" lon="8.995212">
                <ele>105.0</ele>
                <time>2020-08-30T08:04:06.000Z</time>
                <name>Trackpoint 1260</name>
            </trkpt>
            <trkpt lat="50.0416704" lon="8.9950784">
                <ele>104.0</ele>
                <time>2020-08-30T08:04:08.000Z</time>
                <name>Trackpoint 1261</name>
            </trkpt>
            <trkpt lat="50.0416288" lon="8.9949312">
                <ele>104.0</ele>
                <time>2020-08-30T08:04:10.000Z</time>
                <name>Trackpoint 1262</name>
            </trkpt>
            <trkpt lat="50.0416" lon="8.994772">
                <ele>104.0</ele>
                <time>2020-08-30T08:04:12.000Z</time>
                <name>Trackpoint 1263</name>
            </trkpt>
            <trkpt lat="50.041552" lon="8.9946096">
                <ele>104.0</ele>
                <time>2020-08-30T08:04:14.000Z</time>
                <name>Trackpoint 1264</name>
            </trkpt>
            <trkpt lat="50.0415072" lon="8.9944512">
                <ele>104.0</ele>
                <time>2020-08-30T08:04:16.000Z</time>
                <name>Trackpoint 1265</name>
            </trkpt>
            <trkpt lat="50.0414688" lon="8.9942864">
                <ele>104.0</ele>
                <time>2020-08-30T08:04:18.000Z</time>
                <name>Trackpoint 1266</name>
            </trkpt>
            <trkpt lat="50.0414304" lon="8.9941168">
                <ele>104.0</ele>
                <time>2020-08-30T08:04:20.000Z</time>
                <name>Trackpoint 1267</name>
            </trkpt>
            <trkpt lat="50.0413856" lon="8.9939472">
                <ele>104.0</ele>
                <time>2020-08-30T08:04:22.000Z</time>
                <name>Trackpoint 1268</name>
            </trkpt>
            <trkpt lat="50.041344" lon="8.9937752">
                <ele>104.0</ele>
                <time>2020-08-30T08:04:24.000Z</time>
                <name>Trackpoint 1269</name>
            </trkpt>
            <trkpt lat="50.041328" lon="8.9936864">
                <ele>104.0</ele>
                <time>2020-08-30T08:04:25.000Z</time>
                <name>Trackpoint 1270</name>
            </trkpt>
            <trkpt lat="50.0413056" lon="8.9935976">
                <ele>104.0</ele>
                <time>2020-08-30T08:04:26.000Z</time>
                <name>Trackpoint 1271</name>
            </trkpt>
            <trkpt lat="50.0412672" lon="8.993428">
                <ele>104.0</ele>
                <time>2020-08-30T08:04:28.000Z</time>
                <name>Trackpoint 1272</name>
            </trkpt>
            <trkpt lat="50.0412256" lon="8.9932616">
                <ele>103.0</ele>
                <time>2020-08-30T08:04:30.000Z</time>
                <name>Trackpoint 1273</name>
            </trkpt>
            <trkpt lat="50.041184" lon="8.9930984">
                <ele>104.0</ele>
                <time>2020-08-30T08:04:32.000Z</time>
                <name>Trackpoint 1274</name>
            </trkpt>
            <trkpt lat="50.0411424" lon="8.992944">
                <ele>104.0</ele>
                <time>2020-08-30T08:04:34.000Z</time>
                <name>Trackpoint 1275</name>
            </trkpt>
            <trkpt lat="50.041104" lon="8.9927928">
                <ele>103.0</ele>
                <time>2020-08-30T08:04:36.000Z</time>
                <name>Trackpoint 1276</name>
            </trkpt>
            <trkpt lat="50.041072" lon="8.9926504">
                <ele>103.0</ele>
                <time>2020-08-30T08:04:38.000Z</time>
                <name>Trackpoint 1277</name>
            </trkpt>
            <trkpt lat="50.04104" lon="8.9925144">
                <ele>104.0</ele>
                <time>2020-08-30T08:04:40.000Z</time>
                <name>Trackpoint 1278</name>
            </trkpt>
            <trkpt lat="50.0410112" lon="8.9923832">
                <ele>104.0</ele>
                <time>2020-08-30T08:04:42.000Z</time>
                <name>Trackpoint 1279</name>
            </trkpt>
            <trkpt lat="50.0409888" lon="8.9922512">
                <ele>105.0</ele>
                <time>2020-08-30T08:04:44.000Z</time>
                <name>Trackpoint 1280</name>
            </trkpt>
            <trkpt lat="50.0409856" lon="8.9921128">
                <ele>105.0</ele>
                <time>2020-08-30T08:04:46.000Z</time>
                <name>Trackpoint 1281</name>
            </trkpt>
            <trkpt lat="50.041008" lon="8.991968">
                <ele>105.0</ele>
                <time>2020-08-30T08:04:48.000Z</time>
                <name>Trackpoint 1282</name>
            </trkpt>
            <trkpt lat="50.0410432" lon="8.99182">
                <ele>105.0</ele>
                <time>2020-08-30T08:04:50.000Z</time>
                <name>Trackpoint 1283</name>
            </trkpt>
            <trkpt lat="50.0410816" lon="8.9916888">
                <ele>105.0</ele>
                <time>2020-08-30T08:04:52.000Z</time>
                <name>Trackpoint 1284</name>
            </trkpt>
            <trkpt lat="50.0410944" lon="8.99154">
                <ele>105.0</ele>
                <time>2020-08-30T08:04:54.000Z</time>
                <name>Trackpoint 1285</name>
            </trkpt>
            <trkpt lat="50.0410752" lon="8.9914048">
                <ele>105.0</ele>
                <time>2020-08-30T08:04:56.000Z</time>
                <name>Trackpoint 1286</name>
            </trkpt>
            <trkpt lat="50.0410496" lon="8.991292">
                <ele>105.0</ele>
                <time>2020-08-30T08:04:58.000Z</time>
                <name>Trackpoint 1287</name>
            </trkpt>
            <trkpt lat="50.0410272" lon="8.991188">
                <ele>105.0</ele>
                <time>2020-08-30T08:05:00.000Z</time>
                <name>Trackpoint 1288</name>
            </trkpt>
            <trkpt lat="50.0410112" lon="8.9910896">
                <ele>105.0</ele>
                <time>2020-08-30T08:05:02.000Z</time>
                <name>Trackpoint 1289</name>
            </trkpt>
            <trkpt lat="50.0409952" lon="8.9909584">
                <ele>105.0</ele>
                <time>2020-08-30T08:05:05.000Z</time>
                <name>Trackpoint 1290</name>
            </trkpt>
            <trkpt lat="50.0409664" lon="8.9908336">
                <ele>105.0</ele>
                <time>2020-08-30T08:05:08.000Z</time>
                <name>Trackpoint 1291</name>
            </trkpt>
            <trkpt lat="50.040944" lon="8.9907416">
                <ele>105.0</ele>
                <time>2020-08-30T08:05:10.000Z</time>
                <name>Trackpoint 1292</name>
            </trkpt>
            <trkpt lat="50.0409472" lon="8.9906304">
                <ele>105.0</ele>
                <time>2020-08-30T08:05:12.000Z</time>
                <name>Trackpoint 1293</name>
            </trkpt>
            <trkpt lat="50.0409536" lon="8.990492">
                <ele>105.0</ele>
                <time>2020-08-30T08:05:14.000Z</time>
                <name>Trackpoint 1294</name>
            </trkpt>
            <trkpt lat="50.0409536" lon="8.9903616">
                <ele>105.0</ele>
                <time>2020-08-30T08:05:16.000Z</time>
                <name>Trackpoint 1295</name>
            </trkpt>
            <trkpt lat="50.0409408" lon="8.990236">
                <ele>105.0</ele>
                <time>2020-08-30T08:05:18.000Z</time>
                <name>Trackpoint 1296</name>
            </trkpt>
            <trkpt lat="50.0409248" lon="8.9901048">
                <ele>105.0</ele>
                <time>2020-08-30T08:05:20.000Z</time>
                <name>Trackpoint 1297</name>
            </trkpt>
            <trkpt lat="50.0409152" lon="8.989972">
                <ele>105.0</ele>
                <time>2020-08-30T08:05:22.000Z</time>
                <name>Trackpoint 1298</name>
            </trkpt>
            <trkpt lat="50.0409056" lon="8.9898256">
                <ele>105.0</ele>
                <time>2020-08-30T08:05:24.000Z</time>
                <name>Trackpoint 1299</name>
            </trkpt>
            <trkpt lat="50.0408864" lon="8.9896768">
                <ele>105.0</ele>
                <time>2020-08-30T08:05:26.000Z</time>
                <name>Trackpoint 1300</name>
            </trkpt>
            <trkpt lat="50.0408704" lon="8.9895288">
                <ele>105.0</ele>
                <time>2020-08-30T08:05:28.000Z</time>
                <name>Trackpoint 1301</name>
            </trkpt>
            <trkpt lat="50.040864" lon="8.989384">
                <ele>105.0</ele>
                <time>2020-08-30T08:05:30.000Z</time>
                <name>Trackpoint 1302</name>
            </trkpt>
            <trkpt lat="50.0408512" lon="8.9892416">
                <ele>105.0</ele>
                <time>2020-08-30T08:05:32.000Z</time>
                <name>Trackpoint 1303</name>
            </trkpt>
            <trkpt lat="50.0408416" lon="8.989112">
                <ele>105.0</ele>
                <time>2020-08-30T08:05:34.000Z</time>
                <name>Trackpoint 1304</name>
            </trkpt>
            <trkpt lat="50.040832" lon="8.9889784">
                <ele>105.0</ele>
                <time>2020-08-30T08:05:36.000Z</time>
                <name>Trackpoint 1305</name>
            </trkpt>
            <trkpt lat="50.040816" lon="8.988876">
                <ele>105.0</ele>
                <time>2020-08-30T08:05:38.000Z</time>
                <name>Trackpoint 1306</name>
            </trkpt>
            <trkpt lat="50.040832" lon="8.9887584">
                <ele>105.0</ele>
                <time>2020-08-30T08:05:41.000Z</time>
                <name>Trackpoint 1307</name>
            </trkpt>
            <trkpt lat="50.0408288" lon="8.9886576">
                <ele>105.0</ele>
                <time>2020-08-30T08:05:43.000Z</time>
                <name>Trackpoint 1308</name>
            </trkpt>
            <trkpt lat="50.0408256" lon="8.98852">
                <ele>105.0</ele>
                <time>2020-08-30T08:05:46.000Z</time>
                <name>Trackpoint 1309</name>
            </trkpt>
            <trkpt lat="50.040832" lon="8.9883832">
                <ele>105.0</ele>
                <time>2020-08-30T08:05:48.000Z</time>
                <name>Trackpoint 1310</name>
            </trkpt>
            <trkpt lat="50.0408352" lon="8.9882496">
                <ele>106.0</ele>
                <time>2020-08-30T08:05:50.000Z</time>
                <name>Trackpoint 1311</name>
            </trkpt>
            <trkpt lat="50.040832" lon="8.9881288">
                <ele>106.0</ele>
                <time>2020-08-30T08:05:52.000Z</time>
                <name>Trackpoint 1312</name>
            </trkpt>
            <trkpt lat="50.0408032" lon="8.9880248">
                <ele>106.0</ele>
                <time>2020-08-30T08:05:54.000Z</time>
                <name>Trackpoint 1313</name>
            </trkpt>
            <trkpt lat="50.0407968" lon="8.987908">
                <ele>105.0</ele>
                <time>2020-08-30T08:05:56.000Z</time>
                <name>Trackpoint 1314</name>
            </trkpt>
            <trkpt lat="50.0408096" lon="8.9877816">
                <ele>106.0</ele>
                <time>2020-08-30T08:05:58.000Z</time>
                <name>Trackpoint 1315</name>
            </trkpt>
            <trkpt lat="50.040816" lon="8.9876432">
                <ele>106.0</ele>
                <time>2020-08-30T08:06:00.000Z</time>
                <name>Trackpoint 1316</name>
            </trkpt>
            <trkpt lat="50.0408352" lon="8.9875048">
                <ele>106.0</ele>
                <time>2020-08-30T08:06:02.000Z</time>
                <name>Trackpoint 1317</name>
            </trkpt>
            <trkpt lat="50.0408352" lon="8.98738">
                <ele>106.0</ele>
                <time>2020-08-30T08:06:04.000Z</time>
                <name>Trackpoint 1318</name>
            </trkpt>
            <trkpt lat="50.040848" lon="8.9872552">
                <ele>106.0</ele>
                <time>2020-08-30T08:06:06.000Z</time>
                <name>Trackpoint 1319</name>
            </trkpt>
            <trkpt lat="50.0408672" lon="8.9871352">
                <ele>106.0</ele>
                <time>2020-08-30T08:06:08.000Z</time>
                <name>Trackpoint 1320</name>
            </trkpt>
            <trkpt lat="50.0408672" lon="8.9870056">
                <ele>106.0</ele>
                <time>2020-08-30T08:06:10.000Z</time>
                <name>Trackpoint 1321</name>
            </trkpt>
            <trkpt lat="50.0408864" lon="8.986872">
                <ele>106.0</ele>
                <time>2020-08-30T08:06:12.000Z</time>
                <name>Trackpoint 1322</name>
            </trkpt>
            <trkpt lat="50.0408928" lon="8.98674">
                <ele>106.0</ele>
                <time>2020-08-30T08:06:14.000Z</time>
                <name>Trackpoint 1323</name>
            </trkpt>
            <trkpt lat="50.0409024" lon="8.986624">
                <ele>106.0</ele>
                <time>2020-08-30T08:06:16.000Z</time>
                <name>Trackpoint 1324</name>
            </trkpt>
            <trkpt lat="50.0409216" lon="8.9864752">
                <ele>106.0</ele>
                <time>2020-08-30T08:06:18.000Z</time>
                <name>Trackpoint 1325</name>
            </trkpt>
            <trkpt lat="50.0409312" lon="8.9863456">
                <ele>106.0</ele>
                <time>2020-08-30T08:06:20.000Z</time>
                <name>Trackpoint 1326</name>
            </trkpt>
            <trkpt lat="50.0409408" lon="8.986208">
                <ele>106.0</ele>
                <time>2020-08-30T08:06:22.000Z</time>
                <name>Trackpoint 1327</name>
            </trkpt>
            <trkpt lat="50.04096" lon="8.9860784">
                <ele>106.0</ele>
                <time>2020-08-30T08:06:24.000Z</time>
                <name>Trackpoint 1328</name>
            </trkpt>
            <trkpt lat="50.0409824" lon="8.9859512">
                <ele>107.0</ele>
                <time>2020-08-30T08:06:26.000Z</time>
                <name>Trackpoint 1329</name>
            </trkpt>
            <trkpt lat="50.0410016" lon="8.9858176">
                <ele>106.0</ele>
                <time>2020-08-30T08:06:28.000Z</time>
                <name>Trackpoint 1330</name>
            </trkpt>
            <trkpt lat="50.0410208" lon="8.9856816">
                <ele>107.0</ele>
                <time>2020-08-30T08:06:30.000Z</time>
                <name>Trackpoint 1331</name>
            </trkpt>
            <trkpt lat="50.0410336" lon="8.9855536">
                <ele>107.0</ele>
                <time>2020-08-30T08:06:32.000Z</time>
                <name>Trackpoint 1332</name>
            </trkpt>
            <trkpt lat="50.0410624" lon="8.9854136">
                <ele>107.0</ele>
                <time>2020-08-30T08:06:34.000Z</time>
                <name>Trackpoint 1333</name>
            </trkpt>
            <trkpt lat="50.0410848" lon="8.9852736">
                <ele>107.0</ele>
                <time>2020-08-30T08:06:36.000Z</time>
                <name>Trackpoint 1334</name>
            </trkpt>
            <trkpt lat="50.0411072" lon="8.9851416">
                <ele>108.0</ele>
                <time>2020-08-30T08:06:38.000Z</time>
                <name>Trackpoint 1335</name>
            </trkpt>
            <trkpt lat="50.0411392" lon="8.9850064">
                <ele>108.0</ele>
                <time>2020-08-30T08:06:40.000Z</time>
                <name>Trackpoint 1336</name>
            </trkpt>
            <trkpt lat="50.0411712" lon="8.9848536">
                <ele>108.0</ele>
                <time>2020-08-30T08:06:42.000Z</time>
                <name>Trackpoint 1337</name>
            </trkpt>
            <trkpt lat="50.0412096" lon="8.9847032">
                <ele>108.0</ele>
                <time>2020-08-30T08:06:44.000Z</time>
                <name>Trackpoint 1338</name>
            </trkpt>
            <trkpt lat="50.041248" lon="8.9845632">
                <ele>108.0</ele>
                <time>2020-08-30T08:06:46.000Z</time>
                <name>Trackpoint 1339</name>
            </trkpt>
            <trkpt lat="50.0412896" lon="8.984408">
                <ele>108.0</ele>
                <time>2020-08-30T08:06:48.000Z</time>
                <name>Trackpoint 1340</name>
            </trkpt>
            <trkpt lat="50.041328" lon="8.9842616">
                <ele>108.0</ele>
                <time>2020-08-30T08:06:50.000Z</time>
                <name>Trackpoint 1341</name>
            </trkpt>
            <trkpt lat="50.0413632" lon="8.9841096">
                <ele>108.0</ele>
                <time>2020-08-30T08:06:52.000Z</time>
                <name>Trackpoint 1342</name>
            </trkpt>
            <trkpt lat="50.0414048" lon="8.9839632">
                <ele>108.0</ele>
                <time>2020-08-30T08:06:54.000Z</time>
                <name>Trackpoint 1343</name>
            </trkpt>
            <trkpt lat="50.0414432" lon="8.9838136">
                <ele>108.0</ele>
                <time>2020-08-30T08:06:56.000Z</time>
                <name>Trackpoint 1344</name>
            </trkpt>
            <trkpt lat="50.0414784" lon="8.9836632">
                <ele>108.0</ele>
                <time>2020-08-30T08:06:58.000Z</time>
                <name>Trackpoint 1345</name>
            </trkpt>
            <trkpt lat="50.04152" lon="8.9835168">
                <ele>108.0</ele>
                <time>2020-08-30T08:07:00.000Z</time>
                <name>Trackpoint 1346</name>
            </trkpt>
            <trkpt lat="50.0415584" lon="8.9833672">
                <ele>107.0</ele>
                <time>2020-08-30T08:07:02.000Z</time>
                <name>Trackpoint 1347</name>
            </trkpt>
            <trkpt lat="50.0415904" lon="8.9832296">
                <ele>107.0</ele>
                <time>2020-08-30T08:07:04.000Z</time>
                <name>Trackpoint 1348</name>
            </trkpt>
            <trkpt lat="50.0416384" lon="8.9830952">
                <ele>107.0</ele>
                <time>2020-08-30T08:07:06.000Z</time>
                <name>Trackpoint 1349</name>
            </trkpt>
            <trkpt lat="50.0417024" lon="8.9829584">
                <ele>107.0</ele>
                <time>2020-08-30T08:07:08.000Z</time>
                <name>Trackpoint 1350</name>
            </trkpt>
            <trkpt lat="50.0417664" lon="8.9828232">
                <ele>107.0</ele>
                <time>2020-08-30T08:07:10.000Z</time>
                <name>Trackpoint 1351</name>
            </trkpt>
            <trkpt lat="50.0418272" lon="8.982688">
                <ele>106.0</ele>
                <time>2020-08-30T08:07:12.000Z</time>
                <name>Trackpoint 1352</name>
            </trkpt>
            <trkpt lat="50.0418784" lon="8.982556">
                <ele>106.0</ele>
                <time>2020-08-30T08:07:14.000Z</time>
                <name>Trackpoint 1353</name>
            </trkpt>
            <trkpt lat="50.0419264" lon="8.9824184">
                <ele>106.0</ele>
                <time>2020-08-30T08:07:16.000Z</time>
                <name>Trackpoint 1354</name>
            </trkpt>
            <trkpt lat="50.0419744" lon="8.9822912">
                <ele>106.0</ele>
                <time>2020-08-30T08:07:18.000Z</time>
                <name>Trackpoint 1355</name>
            </trkpt>
            <trkpt lat="50.0420192" lon="8.982152">
                <ele>106.0</ele>
                <time>2020-08-30T08:07:20.000Z</time>
                <name>Trackpoint 1356</name>
            </trkpt>
            <trkpt lat="50.0420672" lon="8.9820072">
                <ele>106.0</ele>
                <time>2020-08-30T08:07:22.000Z</time>
                <name>Trackpoint 1357</name>
            </trkpt>
            <trkpt lat="50.0421056" lon="8.9818536">
                <ele>106.0</ele>
                <time>2020-08-30T08:07:24.000Z</time>
                <name>Trackpoint 1358</name>
            </trkpt>
            <trkpt lat="50.04216" lon="8.9817112">
                <ele>106.0</ele>
                <time>2020-08-30T08:07:26.000Z</time>
                <name>Trackpoint 1359</name>
            </trkpt>
            <trkpt lat="50.0422208" lon="8.9815712">
                <ele>106.0</ele>
                <time>2020-08-30T08:07:28.000Z</time>
                <name>Trackpoint 1360</name>
            </trkpt>
            <trkpt lat="50.0422848" lon="8.9814264">
                <ele>106.0</ele>
                <time>2020-08-30T08:07:30.000Z</time>
                <name>Trackpoint 1361</name>
            </trkpt>
            <trkpt lat="50.0423392" lon="8.9812896">
                <ele>107.0</ele>
                <time>2020-08-30T08:07:32.000Z</time>
                <name>Trackpoint 1362</name>
            </trkpt>
            <trkpt lat="50.0423968" lon="8.9811672">
                <ele>107.0</ele>
                <time>2020-08-30T08:07:34.000Z</time>
                <name>Trackpoint 1363</name>
            </trkpt>
            <trkpt lat="50.0424416" lon="8.9810384">
                <ele>107.0</ele>
                <time>2020-08-30T08:07:36.000Z</time>
                <name>Trackpoint 1364</name>
            </trkpt>
            <trkpt lat="50.0424992" lon="8.9809328">
                <ele>107.0</ele>
                <time>2020-08-30T08:07:38.000Z</time>
                <name>Trackpoint 1365</name>
            </trkpt>
            <trkpt lat="50.0425408" lon="8.980852">
                <ele>107.0</ele>
                <time>2020-08-30T08:07:40.000Z</time>
                <name>Trackpoint 1366</name>
            </trkpt>
            <trkpt lat="50.0425888" lon="8.980748">
                <ele>107.0</ele>
                <time>2020-08-30T08:08:07.000Z</time>
                <name>Trackpoint 1367</name>
            </trkpt>
            <trkpt lat="50.0426336" lon="8.9806608">
                <ele>107.0</ele>
                <time>2020-08-30T08:08:10.000Z</time>
                <name>Trackpoint 1368</name>
            </trkpt>
            <trkpt lat="50.0426784" lon="8.9805568">
                <ele>107.0</ele>
                <time>2020-08-30T08:08:13.000Z</time>
                <name>Trackpoint 1369</name>
            </trkpt>
            <trkpt lat="50.0426976" lon="8.9804536">
                <ele>107.0</ele>
                <time>2020-08-30T08:08:16.000Z</time>
                <name>Trackpoint 1370</name>
            </trkpt>
            <trkpt lat="50.0426912" lon="8.9803464">
                <ele>107.0</ele>
                <time>2020-08-30T08:08:19.000Z</time>
                <name>Trackpoint 1371</name>
            </trkpt>
            <trkpt lat="50.042688" lon="8.9802376">
                <ele>107.0</ele>
                <time>2020-08-30T08:08:22.000Z</time>
                <name>Trackpoint 1372</name>
            </trkpt>
            <trkpt lat="50.0426944" lon="8.9801368">
                <ele>107.0</ele>
                <time>2020-08-30T08:08:26.000Z</time>
                <name>Trackpoint 1373</name>
            </trkpt>
            <trkpt lat="50.0427872" lon="8.980112">
                <ele>107.0</ele>
                <time>2020-08-30T08:08:42.000Z</time>
                <name>Trackpoint 1374</name>
            </trkpt>
            <trkpt lat="50.0428736" lon="8.9800816">
                <ele>107.0</ele>
                <time>2020-08-30T08:08:46.000Z</time>
                <name>Trackpoint 1375</name>
            </trkpt>
            <trkpt lat="50.0429376" lon="8.9800032">
                <ele>107.0</ele>
                <time>2020-08-30T08:08:48.000Z</time>
                <name>Trackpoint 1376</name>
            </trkpt>
            <trkpt lat="50.0429888" lon="8.979892">
                <ele>107.0</ele>
                <time>2020-08-30T08:08:50.000Z</time>
                <name>Trackpoint 1377</name>
            </trkpt>
            <trkpt lat="50.0430368" lon="8.979792">
                <ele>107.0</ele>
                <time>2020-08-30T08:08:52.000Z</time>
                <name>Trackpoint 1378</name>
            </trkpt>
            <trkpt lat="50.0430944" lon="8.9796848">
                <ele>107.0</ele>
                <time>2020-08-30T08:08:54.000Z</time>
                <name>Trackpoint 1379</name>
            </trkpt>
            <trkpt lat="50.0431552" lon="8.9795816">
                <ele>107.0</ele>
                <time>2020-08-30T08:08:56.000Z</time>
                <name>Trackpoint 1380</name>
            </trkpt>
            <trkpt lat="50.0432192" lon="8.9794776">
                <ele>107.0</ele>
                <time>2020-08-30T08:08:58.000Z</time>
                <name>Trackpoint 1381</name>
            </trkpt>
            <trkpt lat="50.0432768" lon="8.9793832">
                <ele>107.0</ele>
                <time>2020-08-30T08:09:00.000Z</time>
                <name>Trackpoint 1382</name>
            </trkpt>
            <trkpt lat="50.0433248" lon="8.9792984">
                <ele>107.0</ele>
                <time>2020-08-30T08:09:02.000Z</time>
                <name>Trackpoint 1383</name>
            </trkpt>
            <trkpt lat="50.043376" lon="8.9792232">
                <ele>107.0</ele>
                <time>2020-08-30T08:09:05.000Z</time>
                <name>Trackpoint 1384</name>
            </trkpt>
            <trkpt lat="50.0434176" lon="8.9791296">
                <ele>107.0</ele>
                <time>2020-08-30T08:09:23.000Z</time>
                <name>Trackpoint 1385</name>
            </trkpt>
            <trkpt lat="50.0434656" lon="8.9790512">
                <ele>107.0</ele>
                <time>2020-08-30T08:09:26.000Z</time>
                <name>Trackpoint 1386</name>
            </trkpt>
            <trkpt lat="50.0435232" lon="8.9789488">
                <ele>107.0</ele>
                <time>2020-08-30T08:09:29.000Z</time>
                <name>Trackpoint 1387</name>
            </trkpt>
            <trkpt lat="50.0435776" lon="8.9788288">
                <ele>107.0</ele>
                <time>2020-08-30T08:09:32.000Z</time>
                <name>Trackpoint 1388</name>
            </trkpt>
            <trkpt lat="50.0436448" lon="8.9787256">
                <ele>107.0</ele>
                <time>2020-08-30T08:09:35.000Z</time>
                <name>Trackpoint 1389</name>
            </trkpt>
            <trkpt lat="50.043712" lon="8.978652">
                <ele>107.0</ele>
                <time>2020-08-30T08:09:38.000Z</time>
                <name>Trackpoint 1390</name>
            </trkpt>
            <trkpt lat="50.0438016" lon="8.978632">
                <ele>107.0</ele>
                <time>2020-08-30T08:09:44.000Z</time>
                <name>Trackpoint 1391</name>
            </trkpt>
            <trkpt lat="50.0438112" lon="8.9786432">
                <ele>107.0</ele>
                <time>2020-08-30T08:10:05.000Z</time>
                <name>Trackpoint 1392</name>
            </trkpt>
            <trkpt lat="50.0438912" lon="8.9785968">
                <ele>107.0</ele>
                <time>2020-08-30T08:10:32.000Z</time>
                <name>Trackpoint 1393</name>
            </trkpt>
            <trkpt lat="50.0439744" lon="8.9785448">
                <ele>107.0</ele>
                <time>2020-08-30T08:10:36.000Z</time>
                <name>Trackpoint 1394</name>
            </trkpt>
            <trkpt lat="50.0440512" lon="8.9784744">
                <ele>108.0</ele>
                <time>2020-08-30T08:10:39.000Z</time>
                <name>Trackpoint 1395</name>
            </trkpt>
            <trkpt lat="50.0441056" lon="8.9783824">
                <ele>108.0</ele>
                <time>2020-08-30T08:10:42.000Z</time>
                <name>Trackpoint 1396</name>
            </trkpt>
            <trkpt lat="50.0441408" lon="8.9782832">
                <ele>108.0</ele>
                <time>2020-08-30T08:10:45.000Z</time>
                <name>Trackpoint 1397</name>
            </trkpt>
            <trkpt lat="50.044192" lon="8.9781888">
                <ele>108.0</ele>
                <time>2020-08-30T08:10:48.000Z</time>
                <name>Trackpoint 1398</name>
            </trkpt>
            <trkpt lat="50.044272" lon="8.97812">
                <ele>108.0</ele>
                <time>2020-08-30T08:10:51.000Z</time>
                <name>Trackpoint 1399</name>
            </trkpt>
            <trkpt lat="50.0443456" lon="8.9780664">
                <ele>108.0</ele>
                <time>2020-08-30T08:11:33.000Z</time>
                <name>Trackpoint 1400</name>
            </trkpt>
            <trkpt lat="50.0444288" lon="8.9779856">
                <ele>108.0</ele>
                <time>2020-08-30T08:11:36.000Z</time>
                <name>Trackpoint 1401</name>
            </trkpt>
            <trkpt lat="50.0444992" lon="8.977892">
                <ele>108.0</ele>
                <time>2020-08-30T08:11:40.000Z</time>
                <name>Trackpoint 1402</name>
            </trkpt>
            <trkpt lat="50.0446048" lon="8.9778072">
                <ele>108.0</ele>
                <time>2020-08-30T08:11:44.000Z</time>
                <name>Trackpoint 1403</name>
            </trkpt>
            <trkpt lat="50.0446624" lon="8.977732">
                <ele>107.0</ele>
                <time>2020-08-30T08:11:46.000Z</time>
                <name>Trackpoint 1404</name>
            </trkpt>
            <trkpt lat="50.04472" lon="8.9776496">
                <ele>107.0</ele>
                <time>2020-08-30T08:11:48.000Z</time>
                <name>Trackpoint 1405</name>
            </trkpt>
            <trkpt lat="50.044784" lon="8.97758">
                <ele>107.0</ele>
                <time>2020-08-30T08:11:50.000Z</time>
                <name>Trackpoint 1406</name>
            </trkpt>
            <trkpt lat="50.0448608" lon="8.9774952">
                <ele>107.0</ele>
                <time>2020-08-30T08:11:52.000Z</time>
                <name>Trackpoint 1407</name>
            </trkpt>
            <trkpt lat="50.0449248" lon="8.977404">
                <ele>107.0</ele>
                <time>2020-08-30T08:11:54.000Z</time>
                <name>Trackpoint 1408</name>
            </trkpt>
            <trkpt lat="50.0449952" lon="8.9773264">
                <ele>107.0</ele>
                <time>2020-08-30T08:11:56.000Z</time>
                <name>Trackpoint 1409</name>
            </trkpt>
            <trkpt lat="50.0450816" lon="8.9772264">
                <ele>108.0</ele>
                <time>2020-08-30T08:11:59.000Z</time>
                <name>Trackpoint 1410</name>
            </trkpt>
            <trkpt lat="50.0451424" lon="8.9771584">
                <ele>108.0</ele>
                <time>2020-08-30T08:12:01.000Z</time>
                <name>Trackpoint 1411</name>
            </trkpt>
            <trkpt lat="50.0452128" lon="8.9771">
                <ele>108.0</ele>
                <time>2020-08-30T08:12:03.000Z</time>
                <name>Trackpoint 1412</name>
            </trkpt>
            <trkpt lat="50.0453312" lon="8.9770216">
                <ele>108.0</ele>
                <time>2020-08-30T08:12:06.000Z</time>
                <name>Trackpoint 1413</name>
            </trkpt>
            <trkpt lat="50.0454176" lon="8.9769472">
                <ele>108.0</ele>
                <time>2020-08-30T08:12:08.000Z</time>
                <name>Trackpoint 1414</name>
            </trkpt>
            <trkpt lat="50.0455136" lon="8.9768888">
                <ele>107.0</ele>
                <time>2020-08-30T08:12:10.000Z</time>
                <name>Trackpoint 1415</name>
            </trkpt>
            <trkpt lat="50.0456096" lon="8.97682">
                <ele>107.0</ele>
                <time>2020-08-30T08:12:12.000Z</time>
                <name>Trackpoint 1416</name>
            </trkpt>
            <trkpt lat="50.0456928" lon="8.9767536">
                <ele>108.0</ele>
                <time>2020-08-30T08:12:14.000Z</time>
                <name>Trackpoint 1417</name>
            </trkpt>
            <trkpt lat="50.0457728" lon="8.97668">
                <ele>108.0</ele>
                <time>2020-08-30T08:12:16.000Z</time>
                <name>Trackpoint 1418</name>
            </trkpt>
            <trkpt lat="50.0458592" lon="8.97662">
                <ele>108.0</ele>
                <time>2020-08-30T08:12:18.000Z</time>
                <name>Trackpoint 1419</name>
            </trkpt>
            <trkpt lat="50.0459456" lon="8.9765728">
                <ele>107.0</ele>
                <time>2020-08-30T08:12:20.000Z</time>
                <name>Trackpoint 1420</name>
            </trkpt>
            <trkpt lat="50.046032" lon="8.9765168">
                <ele>107.0</ele>
                <time>2020-08-30T08:12:22.000Z</time>
                <name>Trackpoint 1421</name>
            </trkpt>
            <trkpt lat="50.0461184" lon="8.9764632">
                <ele>107.0</ele>
                <time>2020-08-30T08:12:24.000Z</time>
                <name>Trackpoint 1422</name>
            </trkpt>
            <trkpt lat="50.046208" lon="8.9763968">
                <ele>107.0</ele>
                <time>2020-08-30T08:12:26.000Z</time>
                <name>Trackpoint 1423</name>
            </trkpt>
            <trkpt lat="50.0462944" lon="8.9763496">
                <ele>107.0</ele>
                <time>2020-08-30T08:12:28.000Z</time>
                <name>Trackpoint 1424</name>
            </trkpt>
            <trkpt lat="50.0463936" lon="8.9763168">
                <ele>107.0</ele>
                <time>2020-08-30T08:12:30.000Z</time>
                <name>Trackpoint 1425</name>
            </trkpt>
            <trkpt lat="50.0465024" lon="8.9762672">
                <ele>107.0</ele>
                <time>2020-08-30T08:12:32.000Z</time>
                <name>Trackpoint 1426</name>
            </trkpt>
            <trkpt lat="50.046608" lon="8.9762088">
                <ele>107.0</ele>
                <time>2020-08-30T08:12:34.000Z</time>
                <name>Trackpoint 1427</name>
            </trkpt>
            <trkpt lat="50.046704" lon="8.9761488">
                <ele>107.0</ele>
                <time>2020-08-30T08:12:36.000Z</time>
                <name>Trackpoint 1428</name>
            </trkpt>
            <trkpt lat="50.0468064" lon="8.9760888">
                <ele>107.0</ele>
                <time>2020-08-30T08:12:38.000Z</time>
                <name>Trackpoint 1429</name>
            </trkpt>
            <trkpt lat="50.046912" lon="8.9760368">
                <ele>107.0</ele>
                <time>2020-08-30T08:12:40.000Z</time>
                <name>Trackpoint 1430</name>
            </trkpt>
            <trkpt lat="50.0470176" lon="8.9759904">
                <ele>107.0</ele>
                <time>2020-08-30T08:12:42.000Z</time>
                <name>Trackpoint 1431</name>
            </trkpt>
            <trkpt lat="50.04712" lon="8.9759456">
                <ele>107.0</ele>
                <time>2020-08-30T08:12:44.000Z</time>
                <name>Trackpoint 1432</name>
            </trkpt>
            <trkpt lat="50.0472192" lon="8.9759056">
                <ele>107.0</ele>
                <time>2020-08-30T08:12:46.000Z</time>
                <name>Trackpoint 1433</name>
            </trkpt>
            <trkpt lat="50.0473152" lon="8.9758616">
                <ele>107.0</ele>
                <time>2020-08-30T08:12:48.000Z</time>
                <name>Trackpoint 1434</name>
            </trkpt>
            <trkpt lat="50.0474176" lon="8.9758192">
                <ele>106.0</ele>
                <time>2020-08-30T08:12:50.000Z</time>
                <name>Trackpoint 1435</name>
            </trkpt>
            <trkpt lat="50.04752" lon="8.9757768">
                <ele>106.0</ele>
                <time>2020-08-30T08:12:52.000Z</time>
                <name>Trackpoint 1436</name>
            </trkpt>
            <trkpt lat="50.0476224" lon="8.9757456">
                <ele>106.0</ele>
                <time>2020-08-30T08:12:54.000Z</time>
                <name>Trackpoint 1437</name>
            </trkpt>
            <trkpt lat="50.0477248" lon="8.9757136">
                <ele>106.0</ele>
                <time>2020-08-30T08:12:56.000Z</time>
                <name>Trackpoint 1438</name>
            </trkpt>
            <trkpt lat="50.0478208" lon="8.9756936">
                <ele>107.0</ele>
                <time>2020-08-30T08:12:58.000Z</time>
                <name>Trackpoint 1439</name>
            </trkpt>
            <trkpt lat="50.0479232" lon="8.9756672">
                <ele>107.0</ele>
                <time>2020-08-30T08:13:00.000Z</time>
                <name>Trackpoint 1440</name>
            </trkpt>
            <trkpt lat="50.0480224" lon="8.9756448">
                <ele>107.0</ele>
                <time>2020-08-30T08:13:02.000Z</time>
                <name>Trackpoint 1441</name>
            </trkpt>
            <trkpt lat="50.0481312" lon="8.97562">
                <ele>106.0</ele>
                <time>2020-08-30T08:13:04.000Z</time>
                <name>Trackpoint 1442</name>
            </trkpt>
            <trkpt lat="50.04824" lon="8.9755984">
                <ele>106.0</ele>
                <time>2020-08-30T08:13:06.000Z</time>
                <name>Trackpoint 1443</name>
            </trkpt>
            <trkpt lat="50.0483424" lon="8.975572">
                <ele>106.0</ele>
                <time>2020-08-30T08:13:08.000Z</time>
                <name>Trackpoint 1444</name>
            </trkpt>
            <trkpt lat="50.0484672" lon="8.9755384">
                <ele>106.0</ele>
                <time>2020-08-30T08:13:10.000Z</time>
                <name>Trackpoint 1445</name>
            </trkpt>
            <trkpt lat="50.048592" lon="8.9755224">
                <ele>107.0</ele>
                <time>2020-08-30T08:13:12.000Z</time>
                <name>Trackpoint 1446</name>
            </trkpt>
            <trkpt lat="50.0487008" lon="8.9754984">
                <ele>107.0</ele>
                <time>2020-08-30T08:13:14.000Z</time>
                <name>Trackpoint 1447</name>
            </trkpt>
            <trkpt lat="50.0488128" lon="8.9754736">
                <ele>107.0</ele>
                <time>2020-08-30T08:13:16.000Z</time>
                <name>Trackpoint 1448</name>
            </trkpt>
            <trkpt lat="50.0489248" lon="8.9754552">
                <ele>107.0</ele>
                <time>2020-08-30T08:13:18.000Z</time>
                <name>Trackpoint 1449</name>
            </trkpt>
            <trkpt lat="50.0490304" lon="8.975436">
                <ele>107.0</ele>
                <time>2020-08-30T08:13:20.000Z</time>
                <name>Trackpoint 1450</name>
            </trkpt>
            <trkpt lat="50.0491328" lon="8.9754168">
                <ele>107.0</ele>
                <time>2020-08-30T08:13:22.000Z</time>
                <name>Trackpoint 1451</name>
            </trkpt>
            <trkpt lat="50.0492512" lon="8.9753904">
                <ele>107.0</ele>
                <time>2020-08-30T08:13:24.000Z</time>
                <name>Trackpoint 1452</name>
            </trkpt>
            <trkpt lat="50.0493536" lon="8.9753704">
                <ele>107.0</ele>
                <time>2020-08-30T08:13:26.000Z</time>
                <name>Trackpoint 1453</name>
            </trkpt>
            <trkpt lat="50.049456" lon="8.9753464">
                <ele>107.0</ele>
                <time>2020-08-30T08:13:28.000Z</time>
                <name>Trackpoint 1454</name>
            </trkpt>
            <trkpt lat="50.049568" lon="8.9753336">
                <ele>108.0</ele>
                <time>2020-08-30T08:13:30.000Z</time>
                <name>Trackpoint 1455</name>
            </trkpt>
            <trkpt lat="50.0496704" lon="8.9753128">
                <ele>108.0</ele>
                <time>2020-08-30T08:13:32.000Z</time>
                <name>Trackpoint 1456</name>
            </trkpt>
            <trkpt lat="50.0497728" lon="8.975304">
                <ele>108.0</ele>
                <time>2020-08-30T08:13:34.000Z</time>
                <name>Trackpoint 1457</name>
            </trkpt>
            <trkpt lat="50.0498656" lon="8.9752864">
                <ele>109.0</ele>
                <time>2020-08-30T08:13:36.000Z</time>
                <name>Trackpoint 1458</name>
            </trkpt>
            <trkpt lat="50.0499648" lon="8.9752712">
                <ele>109.0</ele>
                <time>2020-08-30T08:13:38.000Z</time>
                <name>Trackpoint 1459</name>
            </trkpt>
            <trkpt lat="50.0500576" lon="8.97526">
                <ele>109.0</ele>
                <time>2020-08-30T08:13:40.000Z</time>
                <name>Trackpoint 1460</name>
            </trkpt>
            <trkpt lat="50.0501792" lon="8.97526">
                <ele>110.0</ele>
                <time>2020-08-30T08:13:43.000Z</time>
                <name>Trackpoint 1461</name>
            </trkpt>
            <trkpt lat="50.0502976" lon="8.9752456">
                <ele>110.0</ele>
                <time>2020-08-30T08:13:46.000Z</time>
                <name>Trackpoint 1462</name>
            </trkpt>
            <trkpt lat="50.0504192" lon="8.9752568">
                <ele>110.0</ele>
                <time>2020-08-30T08:13:49.000Z</time>
                <name>Trackpoint 1463</name>
            </trkpt>
            <trkpt lat="50.0505376" lon="8.975284">
                <ele>110.0</ele>
                <time>2020-08-30T08:13:52.000Z</time>
                <name>Trackpoint 1464</name>
            </trkpt>
            <trkpt lat="50.0506336" lon="8.9752848">
                <ele>110.0</ele>
                <time>2020-08-30T08:13:54.000Z</time>
                <name>Trackpoint 1465</name>
            </trkpt>
            <trkpt lat="50.0507264" lon="8.9752968">
                <ele>110.0</ele>
                <time>2020-08-30T08:13:56.000Z</time>
                <name>Trackpoint 1466</name>
            </trkpt>
            <trkpt lat="50.0508576" lon="8.9753376">
                <ele>110.0</ele>
                <time>2020-08-30T08:13:58.000Z</time>
                <name>Trackpoint 1467</name>
            </trkpt>
            <trkpt lat="50.0509536" lon="8.9753504">
                <ele>110.0</ele>
                <time>2020-08-30T08:14:00.000Z</time>
                <name>Trackpoint 1468</name>
            </trkpt>
            <trkpt lat="50.051056" lon="8.9753752">
                <ele>110.0</ele>
                <time>2020-08-30T08:14:02.000Z</time>
                <name>Trackpoint 1469</name>
            </trkpt>
            <trkpt lat="50.0511584" lon="8.9754168">
                <ele>110.0</ele>
                <time>2020-08-30T08:14:04.000Z</time>
                <name>Trackpoint 1470</name>
            </trkpt>
            <trkpt lat="50.0512576" lon="8.9754584">
                <ele>110.0</ele>
                <time>2020-08-30T08:14:06.000Z</time>
                <name>Trackpoint 1471</name>
            </trkpt>
            <trkpt lat="50.0513536" lon="8.9754888">
                <ele>110.0</ele>
                <time>2020-08-30T08:14:08.000Z</time>
                <name>Trackpoint 1472</name>
            </trkpt>
            <trkpt lat="50.0514464" lon="8.9755136">
                <ele>110.0</ele>
                <time>2020-08-30T08:14:10.000Z</time>
                <name>Trackpoint 1473</name>
            </trkpt>
            <trkpt lat="50.0515488" lon="8.9755336">
                <ele>110.0</ele>
                <time>2020-08-30T08:14:12.000Z</time>
                <name>Trackpoint 1474</name>
            </trkpt>
            <trkpt lat="50.051648" lon="8.9755552">
                <ele>110.0</ele>
                <time>2020-08-30T08:14:14.000Z</time>
                <name>Trackpoint 1475</name>
            </trkpt>
            <trkpt lat="50.051744" lon="8.9755672">
                <ele>110.0</ele>
                <time>2020-08-30T08:14:16.000Z</time>
                <name>Trackpoint 1476</name>
            </trkpt>
            <trkpt lat="50.0518464" lon="8.9756136">
                <ele>110.0</ele>
                <time>2020-08-30T08:14:18.000Z</time>
                <name>Trackpoint 1477</name>
            </trkpt>
            <trkpt lat="50.0519488" lon="8.9756632">
                <ele>110.0</ele>
                <time>2020-08-30T08:14:20.000Z</time>
                <name>Trackpoint 1478</name>
            </trkpt>
            <trkpt lat="50.0520512" lon="8.9757272">
                <ele>110.0</ele>
                <time>2020-08-30T08:14:22.000Z</time>
                <name>Trackpoint 1479</name>
            </trkpt>
            <trkpt lat="50.0521632" lon="8.9757832">
                <ele>110.0</ele>
                <time>2020-08-30T08:14:24.000Z</time>
                <name>Trackpoint 1480</name>
            </trkpt>
            <trkpt lat="50.0522656" lon="8.9758416">
                <ele>110.0</ele>
                <time>2020-08-30T08:14:26.000Z</time>
                <name>Trackpoint 1481</name>
            </trkpt>
            <trkpt lat="50.0523712" lon="8.9759032">
                <ele>110.0</ele>
                <time>2020-08-30T08:14:28.000Z</time>
                <name>Trackpoint 1482</name>
            </trkpt>
            <trkpt lat="50.0524672" lon="8.9759848">
                <ele>109.0</ele>
                <time>2020-08-30T08:14:30.000Z</time>
                <name>Trackpoint 1483</name>
            </trkpt>
            <trkpt lat="50.0525632" lon="8.9760688">
                <ele>109.0</ele>
                <time>2020-08-30T08:14:32.000Z</time>
                <name>Trackpoint 1484</name>
            </trkpt>
            <trkpt lat="50.0526528" lon="8.9761448">
                <ele>110.0</ele>
                <time>2020-08-30T08:14:34.000Z</time>
                <name>Trackpoint 1485</name>
            </trkpt>
            <trkpt lat="50.0527424" lon="8.9762096">
                <ele>110.0</ele>
                <time>2020-08-30T08:14:36.000Z</time>
                <name>Trackpoint 1486</name>
            </trkpt>
            <trkpt lat="50.0528224" lon="8.9762584">
                <ele>110.0</ele>
                <time>2020-08-30T08:14:38.000Z</time>
                <name>Trackpoint 1487</name>
            </trkpt>
            <trkpt lat="50.0529184" lon="8.9763416">
                <ele>110.0</ele>
                <time>2020-08-30T08:14:41.000Z</time>
                <name>Trackpoint 1488</name>
            </trkpt>
            <trkpt lat="50.0530208" lon="8.976368">
                <ele>110.0</ele>
                <time>2020-08-30T08:15:33.000Z</time>
                <name>Trackpoint 1489</name>
            </trkpt>
            <trkpt lat="50.0530976" lon="8.9764368">
                <ele>110.0</ele>
                <time>2020-08-30T08:15:36.000Z</time>
                <name>Trackpoint 1490</name>
            </trkpt>
            <trkpt lat="50.0532" lon="8.9765128">
                <ele>110.0</ele>
                <time>2020-08-30T08:15:39.000Z</time>
                <name>Trackpoint 1491</name>
            </trkpt>
            <trkpt lat="50.0532736" lon="8.9765968">
                <ele>109.0</ele>
                <time>2020-08-30T08:15:41.000Z</time>
                <name>Trackpoint 1492</name>
            </trkpt>
            <trkpt lat="50.0533536" lon="8.9766776">
                <ele>109.0</ele>
                <time>2020-08-30T08:15:43.000Z</time>
                <name>Trackpoint 1493</name>
            </trkpt>
            <trkpt lat="50.0534368" lon="8.9767664">
                <ele>110.0</ele>
                <time>2020-08-30T08:15:45.000Z</time>
                <name>Trackpoint 1494</name>
            </trkpt>
            <trkpt lat="50.05352" lon="8.9768536">
                <ele>110.0</ele>
                <time>2020-08-30T08:15:47.000Z</time>
                <name>Trackpoint 1495</name>
            </trkpt>
            <trkpt lat="50.0536" lon="8.9769336">
                <ele>110.0</ele>
                <time>2020-08-30T08:15:49.000Z</time>
                <name>Trackpoint 1496</name>
            </trkpt>
            <trkpt lat="50.05368" lon="8.9770048">
                <ele>109.0</ele>
                <time>2020-08-30T08:15:51.000Z</time>
                <name>Trackpoint 1497</name>
            </trkpt>
            <trkpt lat="50.0537632" lon="8.977072">
                <ele>109.0</ele>
                <time>2020-08-30T08:15:53.000Z</time>
                <name>Trackpoint 1498</name>
            </trkpt>
            <trkpt lat="50.0538304" lon="8.977148">
                <ele>108.0</ele>
                <time>2020-08-30T08:15:55.000Z</time>
                <name>Trackpoint 1499</name>
            </trkpt>
            <trkpt lat="50.053904" lon="8.9772264">
                <ele>108.0</ele>
                <time>2020-08-30T08:15:57.000Z</time>
                <name>Trackpoint 1500</name>
            </trkpt>
            <trkpt lat="50.053984" lon="8.9773064">
                <ele>107.0</ele>
                <time>2020-08-30T08:15:59.000Z</time>
                <name>Trackpoint 1501</name>
            </trkpt>
            <trkpt lat="50.0540704" lon="8.9773976">
                <ele>107.0</ele>
                <time>2020-08-30T08:16:01.000Z</time>
                <name>Trackpoint 1502</name>
            </trkpt>
            <trkpt lat="50.0541504" lon="8.9774912">
                <ele>106.0</ele>
                <time>2020-08-30T08:16:03.000Z</time>
                <name>Trackpoint 1503</name>
            </trkpt>
            <trkpt lat="50.0542304" lon="8.9775888">
                <ele>106.0</ele>
                <time>2020-08-30T08:16:05.000Z</time>
                <name>Trackpoint 1504</name>
            </trkpt>
            <trkpt lat="50.0543072" lon="8.9777024">
                <ele>106.0</ele>
                <time>2020-08-30T08:16:07.000Z</time>
                <name>Trackpoint 1505</name>
            </trkpt>
            <trkpt lat="50.0543776" lon="8.9778248">
                <ele>105.0</ele>
                <time>2020-08-30T08:16:09.000Z</time>
                <name>Trackpoint 1506</name>
            </trkpt>
            <trkpt lat="50.0544576" lon="8.9779352">
                <ele>105.0</ele>
                <time>2020-08-30T08:16:11.000Z</time>
                <name>Trackpoint 1507</name>
            </trkpt>
            <trkpt lat="50.0545536" lon="8.9779928">
                <ele>105.0</ele>
                <time>2020-08-30T08:16:13.000Z</time>
                <name>Trackpoint 1508</name>
            </trkpt>
            <trkpt lat="50.0546496" lon="8.9779784">
                <ele>105.0</ele>
                <time>2020-08-30T08:16:15.000Z</time>
                <name>Trackpoint 1509</name>
            </trkpt>
            <trkpt lat="50.0547456" lon="8.977968">
                <ele>105.0</ele>
                <time>2020-08-30T08:16:17.000Z</time>
                <name>Trackpoint 1510</name>
            </trkpt>
            <trkpt lat="50.0548256" lon="8.9780568">
                <ele>105.0</ele>
                <time>2020-08-30T08:16:19.000Z</time>
                <name>Trackpoint 1511</name>
            </trkpt>
            <trkpt lat="50.0548864" lon="8.9781848">
                <ele>105.0</ele>
                <time>2020-08-30T08:16:21.000Z</time>
                <name>Trackpoint 1512</name>
            </trkpt>
            <trkpt lat="50.0549504" lon="8.9783112">
                <ele>104.0</ele>
                <time>2020-08-30T08:16:23.000Z</time>
                <name>Trackpoint 1513</name>
            </trkpt>
            <trkpt lat="50.055024" lon="8.978448">
                <ele>104.0</ele>
                <time>2020-08-30T08:16:25.000Z</time>
                <name>Trackpoint 1514</name>
            </trkpt>
            <trkpt lat="50.0550944" lon="8.9785864">
                <ele>104.0</ele>
                <time>2020-08-30T08:16:27.000Z</time>
                <name>Trackpoint 1515</name>
            </trkpt>
            <trkpt lat="50.055168" lon="8.9787184">
                <ele>104.0</ele>
                <time>2020-08-30T08:16:29.000Z</time>
                <name>Trackpoint 1516</name>
            </trkpt>
            <trkpt lat="50.0552448" lon="8.9788568">
                <ele>104.0</ele>
                <time>2020-08-30T08:16:31.000Z</time>
                <name>Trackpoint 1517</name>
            </trkpt>
            <trkpt lat="50.0553184" lon="8.9789936">
                <ele>104.0</ele>
                <time>2020-08-30T08:16:33.000Z</time>
                <name>Trackpoint 1518</name>
            </trkpt>
            <trkpt lat="50.055392" lon="8.979132">
                <ele>104.0</ele>
                <time>2020-08-30T08:16:35.000Z</time>
                <name>Trackpoint 1519</name>
            </trkpt>
            <trkpt lat="50.0554656" lon="8.9792736">
                <ele>104.0</ele>
                <time>2020-08-30T08:16:37.000Z</time>
                <name>Trackpoint 1520</name>
            </trkpt>
            <trkpt lat="50.0555328" lon="8.9794184">
                <ele>104.0</ele>
                <time>2020-08-30T08:16:39.000Z</time>
                <name>Trackpoint 1521</name>
            </trkpt>
            <trkpt lat="50.0555968" lon="8.9795688">
                <ele>104.0</ele>
                <time>2020-08-30T08:16:41.000Z</time>
                <name>Trackpoint 1522</name>
            </trkpt>
            <trkpt lat="50.0556576" lon="8.979716">
                <ele>104.0</ele>
                <time>2020-08-30T08:16:43.000Z</time>
                <name>Trackpoint 1523</name>
            </trkpt>
            <trkpt lat="50.0557152" lon="8.979868">
                <ele>104.0</ele>
                <time>2020-08-30T08:16:45.000Z</time>
                <name>Trackpoint 1524</name>
            </trkpt>
            <trkpt lat="50.0557696" lon="8.9800216">
                <ele>104.0</ele>
                <time>2020-08-30T08:16:47.000Z</time>
                <name>Trackpoint 1525</name>
            </trkpt>
            <trkpt lat="50.055824" lon="8.9801768">
                <ele>103.0</ele>
                <time>2020-08-30T08:16:49.000Z</time>
                <name>Trackpoint 1526</name>
            </trkpt>
            <trkpt lat="50.0558784" lon="8.9803312">
                <ele>103.0</ele>
                <time>2020-08-30T08:16:51.000Z</time>
                <name>Trackpoint 1527</name>
            </trkpt>
            <trkpt lat="50.055936" lon="8.9804888">
                <ele>103.0</ele>
                <time>2020-08-30T08:16:53.000Z</time>
                <name>Trackpoint 1528</name>
            </trkpt>
            <trkpt lat="50.0559968" lon="8.9806416">
                <ele>103.0</ele>
                <time>2020-08-30T08:16:55.000Z</time>
                <name>Trackpoint 1529</name>
            </trkpt>
            <trkpt lat="50.056064" lon="8.9807864">
                <ele>103.0</ele>
                <time>2020-08-30T08:16:57.000Z</time>
                <name>Trackpoint 1530</name>
            </trkpt>
            <trkpt lat="50.0561472" lon="8.9809112">
                <ele>104.0</ele>
                <time>2020-08-30T08:16:59.000Z</time>
                <name>Trackpoint 1531</name>
            </trkpt>
            <trkpt lat="50.0562336" lon="8.9810248">
                <ele>104.0</ele>
                <time>2020-08-30T08:17:01.000Z</time>
                <name>Trackpoint 1532</name>
            </trkpt>
            <trkpt lat="50.05632" lon="8.9811296">
                <ele>104.0</ele>
                <time>2020-08-30T08:17:03.000Z</time>
                <name>Trackpoint 1533</name>
            </trkpt>
            <trkpt lat="50.0564128" lon="8.9812248">
                <ele>104.0</ele>
                <time>2020-08-30T08:17:05.000Z</time>
                <name>Trackpoint 1534</name>
            </trkpt>
            <trkpt lat="50.0564928" lon="8.9813296">
                <ele>104.0</ele>
                <time>2020-08-30T08:17:07.000Z</time>
                <name>Trackpoint 1535</name>
            </trkpt>
            <trkpt lat="50.05656" lon="8.9814504">
                <ele>104.0</ele>
                <time>2020-08-30T08:17:09.000Z</time>
                <name>Trackpoint 1536</name>
            </trkpt>
            <trkpt lat="50.0566368" lon="8.9815632">
                <ele>104.0</ele>
                <time>2020-08-30T08:17:11.000Z</time>
                <name>Trackpoint 1537</name>
            </trkpt>
            <trkpt lat="50.0567232" lon="8.9816368">
                <ele>104.0</ele>
                <time>2020-08-30T08:17:13.000Z</time>
                <name>Trackpoint 1538</name>
            </trkpt>
            <trkpt lat="50.0568096" lon="8.9817064">
                <ele>104.0</ele>
                <time>2020-08-30T08:17:15.000Z</time>
                <name>Trackpoint 1539</name>
            </trkpt>
            <trkpt lat="50.0568928" lon="8.9817912">
                <ele>104.0</ele>
                <time>2020-08-30T08:17:17.000Z</time>
                <name>Trackpoint 1540</name>
            </trkpt>
            <trkpt lat="50.0569728" lon="8.9818832">
                <ele>104.0</ele>
                <time>2020-08-30T08:17:19.000Z</time>
                <name>Trackpoint 1541</name>
            </trkpt>
            <trkpt lat="50.057056" lon="8.9819768">
                <ele>104.0</ele>
                <time>2020-08-30T08:17:21.000Z</time>
                <name>Trackpoint 1542</name>
            </trkpt>
            <trkpt lat="50.057136" lon="8.982072">
                <ele>104.0</ele>
                <time>2020-08-30T08:17:23.000Z</time>
                <name>Trackpoint 1543</name>
            </trkpt>
            <trkpt lat="50.0572128" lon="8.982168">
                <ele>104.0</ele>
                <time>2020-08-30T08:17:25.000Z</time>
                <name>Trackpoint 1544</name>
            </trkpt>
            <trkpt lat="50.057296" lon="8.98226">
                <ele>104.0</ele>
                <time>2020-08-30T08:17:27.000Z</time>
                <name>Trackpoint 1545</name>
            </trkpt>
            <trkpt lat="50.057376" lon="8.9823488">
                <ele>104.0</ele>
                <time>2020-08-30T08:17:29.000Z</time>
                <name>Trackpoint 1546</name>
            </trkpt>
            <trkpt lat="50.0574592" lon="8.9824312">
                <ele>104.0</ele>
                <time>2020-08-30T08:17:31.000Z</time>
                <name>Trackpoint 1547</name>
            </trkpt>
            <trkpt lat="50.0575456" lon="8.982516">
                <ele>105.0</ele>
                <time>2020-08-30T08:17:33.000Z</time>
                <name>Trackpoint 1548</name>
            </trkpt>
            <trkpt lat="50.0576288" lon="8.9825832">
                <ele>105.0</ele>
                <time>2020-08-30T08:17:35.000Z</time>
                <name>Trackpoint 1549</name>
            </trkpt>
            <trkpt lat="50.0577152" lon="8.9826584">
                <ele>105.0</ele>
                <time>2020-08-30T08:17:37.000Z</time>
                <name>Trackpoint 1550</name>
            </trkpt>
            <trkpt lat="50.0578016" lon="8.982732">
                <ele>105.0</ele>
                <time>2020-08-30T08:17:39.000Z</time>
                <name>Trackpoint 1551</name>
            </trkpt>
            <trkpt lat="50.057888" lon="8.9828056">
                <ele>105.0</ele>
                <time>2020-08-30T08:17:41.000Z</time>
                <name>Trackpoint 1552</name>
            </trkpt>
            <trkpt lat="50.0579744" lon="8.9828656">
                <ele>106.0</ele>
                <time>2020-08-30T08:17:43.000Z</time>
                <name>Trackpoint 1553</name>
            </trkpt>
            <trkpt lat="50.0580704" lon="8.9829064">
                <ele>106.0</ele>
                <time>2020-08-30T08:17:45.000Z</time>
                <name>Trackpoint 1554</name>
            </trkpt>
            <trkpt lat="50.05816" lon="8.9829632">
                <ele>105.0</ele>
                <time>2020-08-30T08:17:47.000Z</time>
                <name>Trackpoint 1555</name>
            </trkpt>
            <trkpt lat="50.0582464" lon="8.9830264">
                <ele>106.0</ele>
                <time>2020-08-30T08:17:49.000Z</time>
                <name>Trackpoint 1556</name>
            </trkpt>
            <trkpt lat="50.0583392" lon="8.9830816">
                <ele>106.0</ele>
                <time>2020-08-30T08:17:51.000Z</time>
                <name>Trackpoint 1557</name>
            </trkpt>
            <trkpt lat="50.0584288" lon="8.9831416">
                <ele>106.0</ele>
                <time>2020-08-30T08:17:53.000Z</time>
                <name>Trackpoint 1558</name>
            </trkpt>
            <trkpt lat="50.0585216" lon="8.9831936">
                <ele>106.0</ele>
                <time>2020-08-30T08:17:55.000Z</time>
                <name>Trackpoint 1559</name>
            </trkpt>
            <trkpt lat="50.058608" lon="8.9832512">
                <ele>106.0</ele>
                <time>2020-08-30T08:17:57.000Z</time>
                <name>Trackpoint 1560</name>
            </trkpt>
            <trkpt lat="50.0587008" lon="8.9833032">
                <ele>106.0</ele>
                <time>2020-08-30T08:17:59.000Z</time>
                <name>Trackpoint 1561</name>
            </trkpt>
            <trkpt lat="50.0587936" lon="8.983368">
                <ele>106.0</ele>
                <time>2020-08-30T08:18:01.000Z</time>
                <name>Trackpoint 1562</name>
            </trkpt>
            <trkpt lat="50.05888" lon="8.9834272">
                <ele>106.0</ele>
                <time>2020-08-30T08:18:03.000Z</time>
                <name>Trackpoint 1563</name>
            </trkpt>
            <trkpt lat="50.058976" lon="8.983492">
                <ele>106.0</ele>
                <time>2020-08-30T08:18:05.000Z</time>
                <name>Trackpoint 1564</name>
            </trkpt>
            <trkpt lat="50.0590656" lon="8.98356">
                <ele>106.0</ele>
                <time>2020-08-30T08:18:07.000Z</time>
                <name>Trackpoint 1565</name>
            </trkpt>
            <trkpt lat="50.0591584" lon="8.9836232">
                <ele>106.0</ele>
                <time>2020-08-30T08:18:09.000Z</time>
                <name>Trackpoint 1566</name>
            </trkpt>
            <trkpt lat="50.0592448" lon="8.9836864">
                <ele>106.0</ele>
                <time>2020-08-30T08:18:11.000Z</time>
                <name>Trackpoint 1567</name>
            </trkpt>
            <trkpt lat="50.0593376" lon="8.9837448">
                <ele>106.0</ele>
                <time>2020-08-30T08:18:13.000Z</time>
                <name>Trackpoint 1568</name>
            </trkpt>
            <trkpt lat="50.059424" lon="8.9838016">
                <ele>106.0</ele>
                <time>2020-08-30T08:18:15.000Z</time>
                <name>Trackpoint 1569</name>
            </trkpt>
            <trkpt lat="50.0595136" lon="8.98386">
                <ele>106.0</ele>
                <time>2020-08-30T08:18:17.000Z</time>
                <name>Trackpoint 1570</name>
            </trkpt>
            <trkpt lat="50.0596" lon="8.9839224">
                <ele>106.0</ele>
                <time>2020-08-30T08:18:19.000Z</time>
                <name>Trackpoint 1571</name>
            </trkpt>
            <trkpt lat="50.0596896" lon="8.9839784">
                <ele>106.0</ele>
                <time>2020-08-30T08:18:21.000Z</time>
                <name>Trackpoint 1572</name>
            </trkpt>
            <trkpt lat="50.059776" lon="8.9840384">
                <ele>106.0</ele>
                <time>2020-08-30T08:18:23.000Z</time>
                <name>Trackpoint 1573</name>
            </trkpt>
            <trkpt lat="50.0598656" lon="8.9840936">
                <ele>106.0</ele>
                <time>2020-08-30T08:18:25.000Z</time>
                <name>Trackpoint 1574</name>
            </trkpt>
            <trkpt lat="50.059952" lon="8.984148">
                <ele>106.0</ele>
                <time>2020-08-30T08:18:27.000Z</time>
                <name>Trackpoint 1575</name>
            </trkpt>
            <trkpt lat="50.0600352" lon="8.9842064">
                <ele>106.0</ele>
                <time>2020-08-30T08:18:29.000Z</time>
                <name>Trackpoint 1576</name>
            </trkpt>
            <trkpt lat="50.060128" lon="8.9842656">
                <ele>106.0</ele>
                <time>2020-08-30T08:18:31.000Z</time>
                <name>Trackpoint 1577</name>
            </trkpt>
            <trkpt lat="50.0602144" lon="8.9843256">
                <ele>106.0</ele>
                <time>2020-08-30T08:18:33.000Z</time>
                <name>Trackpoint 1578</name>
            </trkpt>
            <trkpt lat="50.060304" lon="8.9843864">
                <ele>106.0</ele>
                <time>2020-08-30T08:18:35.000Z</time>
                <name>Trackpoint 1579</name>
            </trkpt>
            <trkpt lat="50.0603872" lon="8.9844504">
                <ele>106.0</ele>
                <time>2020-08-30T08:18:37.000Z</time>
                <name>Trackpoint 1580</name>
            </trkpt>
            <trkpt lat="50.0604736" lon="8.9845136">
                <ele>106.0</ele>
                <time>2020-08-30T08:18:39.000Z</time>
                <name>Trackpoint 1581</name>
            </trkpt>
            <trkpt lat="50.0605568" lon="8.98458">
                <ele>106.0</ele>
                <time>2020-08-30T08:18:41.000Z</time>
                <name>Trackpoint 1582</name>
            </trkpt>
            <trkpt lat="50.0606464" lon="8.9846448">
                <ele>106.0</ele>
                <time>2020-08-30T08:18:43.000Z</time>
                <name>Trackpoint 1583</name>
            </trkpt>
            <trkpt lat="50.0607328" lon="8.9847032">
                <ele>106.0</ele>
                <time>2020-08-30T08:18:45.000Z</time>
                <name>Trackpoint 1584</name>
            </trkpt>
            <trkpt lat="50.0608256" lon="8.984768">
                <ele>106.0</ele>
                <time>2020-08-30T08:18:47.000Z</time>
                <name>Trackpoint 1585</name>
            </trkpt>
            <trkpt lat="50.060912" lon="8.984832">
                <ele>106.0</ele>
                <time>2020-08-30T08:18:49.000Z</time>
                <name>Trackpoint 1586</name>
            </trkpt>
            <trkpt lat="50.0609984" lon="8.9849008">
                <ele>106.0</ele>
                <time>2020-08-30T08:18:51.000Z</time>
                <name>Trackpoint 1587</name>
            </trkpt>
            <trkpt lat="50.061088" lon="8.9849656">
                <ele>106.0</ele>
                <time>2020-08-30T08:18:53.000Z</time>
                <name>Trackpoint 1588</name>
            </trkpt>
            <trkpt lat="50.0611776" lon="8.9850352">
                <ele>106.0</ele>
                <time>2020-08-30T08:18:55.000Z</time>
                <name>Trackpoint 1589</name>
            </trkpt>
            <trkpt lat="50.061264" lon="8.9851064">
                <ele>106.0</ele>
                <time>2020-08-30T08:18:57.000Z</time>
                <name>Trackpoint 1590</name>
            </trkpt>
            <trkpt lat="50.0613504" lon="8.9851776">
                <ele>106.0</ele>
                <time>2020-08-30T08:18:59.000Z</time>
                <name>Trackpoint 1591</name>
            </trkpt>
            <trkpt lat="50.06144" lon="8.9852448">
                <ele>106.0</ele>
                <time>2020-08-30T08:19:01.000Z</time>
                <name>Trackpoint 1592</name>
            </trkpt>
            <trkpt lat="50.0615264" lon="8.9853152">
                <ele>106.0</ele>
                <time>2020-08-30T08:19:03.000Z</time>
                <name>Trackpoint 1593</name>
            </trkpt>
            <trkpt lat="50.061616" lon="8.9853872">
                <ele>106.0</ele>
                <time>2020-08-30T08:19:05.000Z</time>
                <name>Trackpoint 1594</name>
            </trkpt>
            <trkpt lat="50.0617024" lon="8.9854544">
                <ele>106.0</ele>
                <time>2020-08-30T08:19:07.000Z</time>
                <name>Trackpoint 1595</name>
            </trkpt>
            <trkpt lat="50.061792" lon="8.9855272">
                <ele>106.0</ele>
                <time>2020-08-30T08:19:09.000Z</time>
                <name>Trackpoint 1596</name>
            </trkpt>
            <trkpt lat="50.0618816" lon="8.9856008">
                <ele>106.0</ele>
                <time>2020-08-30T08:19:11.000Z</time>
                <name>Trackpoint 1597</name>
            </trkpt>
            <trkpt lat="50.0619744" lon="8.9856704">
                <ele>106.0</ele>
                <time>2020-08-30T08:19:13.000Z</time>
                <name>Trackpoint 1598</name>
            </trkpt>
            <trkpt lat="50.062064" lon="8.985748">
                <ele>106.0</ele>
                <time>2020-08-30T08:19:15.000Z</time>
                <name>Trackpoint 1599</name>
            </trkpt>
            <trkpt lat="50.0621536" lon="8.9858264">
                <ele>106.0</ele>
                <time>2020-08-30T08:19:17.000Z</time>
                <name>Trackpoint 1600</name>
            </trkpt>
            <trkpt lat="50.0622432" lon="8.985904">
                <ele>106.0</ele>
                <time>2020-08-30T08:19:19.000Z</time>
                <name>Trackpoint 1601</name>
            </trkpt>
            <trkpt lat="50.0623296" lon="8.9859816">
                <ele>106.0</ele>
                <time>2020-08-30T08:19:21.000Z</time>
                <name>Trackpoint 1602</name>
            </trkpt>
            <trkpt lat="50.062416" lon="8.9860648">
                <ele>105.0</ele>
                <time>2020-08-30T08:19:23.000Z</time>
                <name>Trackpoint 1603</name>
            </trkpt>
            <trkpt lat="50.0625024" lon="8.9861448">
                <ele>105.0</ele>
                <time>2020-08-30T08:19:25.000Z</time>
                <name>Trackpoint 1604</name>
            </trkpt>
            <trkpt lat="50.0625888" lon="8.9862216">
                <ele>105.0</ele>
                <time>2020-08-30T08:19:27.000Z</time>
                <name>Trackpoint 1605</name>
            </trkpt>
            <trkpt lat="50.062672" lon="8.9863032">
                <ele>105.0</ele>
                <time>2020-08-30T08:19:29.000Z</time>
                <name>Trackpoint 1606</name>
            </trkpt>
            <trkpt lat="50.0627552" lon="8.9863832">
                <ele>105.0</ele>
                <time>2020-08-30T08:19:31.000Z</time>
                <name>Trackpoint 1607</name>
            </trkpt>
            <trkpt lat="50.0628448" lon="8.9864552">
                <ele>105.0</ele>
                <time>2020-08-30T08:19:33.000Z</time>
                <name>Trackpoint 1608</name>
            </trkpt>
            <trkpt lat="50.062928" lon="8.9865376">
                <ele>105.0</ele>
                <time>2020-08-30T08:19:35.000Z</time>
                <name>Trackpoint 1609</name>
            </trkpt>
            <trkpt lat="50.0630112" lon="8.9866152">
                <ele>105.0</ele>
                <time>2020-08-30T08:19:37.000Z</time>
                <name>Trackpoint 1610</name>
            </trkpt>
            <trkpt lat="50.0630944" lon="8.9866936">
                <ele>105.0</ele>
                <time>2020-08-30T08:19:39.000Z</time>
                <name>Trackpoint 1611</name>
            </trkpt>
            <trkpt lat="50.063184" lon="8.9867696">
                <ele>105.0</ele>
                <time>2020-08-30T08:19:41.000Z</time>
                <name>Trackpoint 1612</name>
            </trkpt>
            <trkpt lat="50.0632672" lon="8.9868432">
                <ele>105.0</ele>
                <time>2020-08-30T08:19:43.000Z</time>
                <name>Trackpoint 1613</name>
            </trkpt>
            <trkpt lat="50.0633504" lon="8.9869184">
                <ele>105.0</ele>
                <time>2020-08-30T08:19:45.000Z</time>
                <name>Trackpoint 1614</name>
            </trkpt>
            <trkpt lat="50.06344" lon="8.986988">
                <ele>105.0</ele>
                <time>2020-08-30T08:19:47.000Z</time>
                <name>Trackpoint 1615</name>
            </trkpt>
            <trkpt lat="50.0635232" lon="8.9870704">
                <ele>105.0</ele>
                <time>2020-08-30T08:19:49.000Z</time>
                <name>Trackpoint 1616</name>
            </trkpt>
            <trkpt lat="50.0636096" lon="8.9871432">
                <ele>105.0</ele>
                <time>2020-08-30T08:19:51.000Z</time>
                <name>Trackpoint 1617</name>
            </trkpt>
            <trkpt lat="50.0636992" lon="8.98722">
                <ele>105.0</ele>
                <time>2020-08-30T08:19:53.000Z</time>
                <name>Trackpoint 1618</name>
            </trkpt>
            <trkpt lat="50.0637824" lon="8.9872968">
                <ele>105.0</ele>
                <time>2020-08-30T08:19:55.000Z</time>
                <name>Trackpoint 1619</name>
            </trkpt>
            <trkpt lat="50.0638688" lon="8.9873736">
                <ele>105.0</ele>
                <time>2020-08-30T08:19:57.000Z</time>
                <name>Trackpoint 1620</name>
            </trkpt>
            <trkpt lat="50.063952" lon="8.9874512">
                <ele>105.0</ele>
                <time>2020-08-30T08:19:59.000Z</time>
                <name>Trackpoint 1621</name>
            </trkpt>
            <trkpt lat="50.0640384" lon="8.9875272">
                <ele>105.0</ele>
                <time>2020-08-30T08:20:01.000Z</time>
                <name>Trackpoint 1622</name>
            </trkpt>
            <trkpt lat="50.0641248" lon="8.987592">
                <ele>105.0</ele>
                <time>2020-08-30T08:20:03.000Z</time>
                <name>Trackpoint 1623</name>
            </trkpt>
            <trkpt lat="50.064208" lon="8.9876632">
                <ele>105.0</ele>
                <time>2020-08-30T08:20:05.000Z</time>
                <name>Trackpoint 1624</name>
            </trkpt>
            <trkpt lat="50.0642944" lon="8.9877368">
                <ele>105.0</ele>
                <time>2020-08-30T08:20:07.000Z</time>
                <name>Trackpoint 1625</name>
            </trkpt>
            <trkpt lat="50.0643808" lon="8.9878032">
                <ele>105.0</ele>
                <time>2020-08-30T08:20:09.000Z</time>
                <name>Trackpoint 1626</name>
            </trkpt>
            <trkpt lat="50.064464" lon="8.9878816">
                <ele>105.0</ele>
                <time>2020-08-30T08:20:11.000Z</time>
                <name>Trackpoint 1627</name>
            </trkpt>
            <trkpt lat="50.0645472" lon="8.9879488">
                <ele>105.0</ele>
                <time>2020-08-30T08:20:13.000Z</time>
                <name>Trackpoint 1628</name>
            </trkpt>
            <trkpt lat="50.06464" lon="8.9880016">
                <ele>105.0</ele>
                <time>2020-08-30T08:20:15.000Z</time>
                <name>Trackpoint 1629</name>
            </trkpt>
            <trkpt lat="50.0647232" lon="8.9880632">
                <ele>105.0</ele>
                <time>2020-08-30T08:20:17.000Z</time>
                <name>Trackpoint 1630</name>
            </trkpt>
            <trkpt lat="50.0648064" lon="8.9881312">
                <ele>105.0</ele>
                <time>2020-08-30T08:20:19.000Z</time>
                <name>Trackpoint 1631</name>
            </trkpt>
            <trkpt lat="50.0648928" lon="8.9881888">
                <ele>105.0</ele>
                <time>2020-08-30T08:20:21.000Z</time>
                <name>Trackpoint 1632</name>
            </trkpt>
            <trkpt lat="50.0649696" lon="8.9882368">
                <ele>105.0</ele>
                <time>2020-08-30T08:20:23.000Z</time>
                <name>Trackpoint 1633</name>
            </trkpt>
            <trkpt lat="50.0650016" lon="8.9883272">
                <ele>105.0</ele>
                <time>2020-08-30T08:20:31.000Z</time>
                <name>Trackpoint 1634</name>
            </trkpt>
            <trkpt lat="50.0650912" lon="8.9883672">
                <ele>105.0</ele>
                <time>2020-08-30T08:37:33.000Z</time>
                <name>Trackpoint 1635</name>
            </trkpt>
            <trkpt lat="50.0651776" lon="8.988412">
                <ele>105.0</ele>
                <time>2020-08-30T08:37:37.000Z</time>
                <name>Trackpoint 1636</name>
            </trkpt>
            <trkpt lat="50.0652576" lon="8.9884632">
                <ele>105.0</ele>
                <time>2020-08-30T08:37:40.000Z</time>
                <name>Trackpoint 1637</name>
            </trkpt>
            <trkpt lat="50.0653376" lon="8.9885104">
                <ele>105.0</ele>
                <time>2020-08-30T08:37:43.000Z</time>
                <name>Trackpoint 1638</name>
            </trkpt>
            <trkpt lat="50.0654304" lon="8.988572">
                <ele>105.0</ele>
                <time>2020-08-30T08:37:46.000Z</time>
                <name>Trackpoint 1639</name>
            </trkpt>
            <trkpt lat="50.0655328" lon="8.9886368">
                <ele>105.0</ele>
                <time>2020-08-30T08:37:49.000Z</time>
                <name>Trackpoint 1640</name>
            </trkpt>
            <trkpt lat="50.065616" lon="8.988684">
                <ele>105.0</ele>
                <time>2020-08-30T08:37:51.000Z</time>
                <name>Trackpoint 1641</name>
            </trkpt>
            <trkpt lat="50.065728" lon="8.9887504">
                <ele>105.0</ele>
                <time>2020-08-30T08:37:54.000Z</time>
                <name>Trackpoint 1642</name>
            </trkpt>
            <trkpt lat="50.0658048" lon="8.9888016">
                <ele>105.0</ele>
                <time>2020-08-30T08:37:56.000Z</time>
                <name>Trackpoint 1643</name>
            </trkpt>
            <trkpt lat="50.0658848" lon="8.9888584">
                <ele>105.0</ele>
                <time>2020-08-30T08:37:58.000Z</time>
                <name>Trackpoint 1644</name>
            </trkpt>
            <trkpt lat="50.0659648" lon="8.9889096">
                <ele>105.0</ele>
                <time>2020-08-30T08:38:00.000Z</time>
                <name>Trackpoint 1645</name>
            </trkpt>
            <trkpt lat="50.066048" lon="8.9889648">
                <ele>105.0</ele>
                <time>2020-08-30T08:38:02.000Z</time>
                <name>Trackpoint 1646</name>
            </trkpt>
            <trkpt lat="50.066128" lon="8.9890232">
                <ele>105.0</ele>
                <time>2020-08-30T08:38:04.000Z</time>
                <name>Trackpoint 1647</name>
            </trkpt>
            <trkpt lat="50.066208" lon="8.9890744">
                <ele>105.0</ele>
                <time>2020-08-30T08:38:06.000Z</time>
                <name>Trackpoint 1648</name>
            </trkpt>
            <trkpt lat="50.066288" lon="8.9891264">
                <ele>105.0</ele>
                <time>2020-08-30T08:38:08.000Z</time>
                <name>Trackpoint 1649</name>
            </trkpt>
            <trkpt lat="50.0663648" lon="8.9891768">
                <ele>105.0</ele>
                <time>2020-08-30T08:38:10.000Z</time>
                <name>Trackpoint 1650</name>
            </trkpt>
            <trkpt lat="50.066448" lon="8.989232">
                <ele>105.0</ele>
                <time>2020-08-30T08:38:12.000Z</time>
                <name>Trackpoint 1651</name>
            </trkpt>
            <trkpt lat="50.0665312" lon="8.9892864">
                <ele>105.0</ele>
                <time>2020-08-30T08:38:14.000Z</time>
                <name>Trackpoint 1652</name>
            </trkpt>
            <trkpt lat="50.0666176" lon="8.9893488">
                <ele>105.0</ele>
                <time>2020-08-30T08:38:16.000Z</time>
                <name>Trackpoint 1653</name>
            </trkpt>
            <trkpt lat="50.0667008" lon="8.9894048">
                <ele>105.0</ele>
                <time>2020-08-30T08:38:18.000Z</time>
                <name>Trackpoint 1654</name>
            </trkpt>
            <trkpt lat="50.0667808" lon="8.9894712">
                <ele>105.0</ele>
                <time>2020-08-30T08:38:20.000Z</time>
                <name>Trackpoint 1655</name>
            </trkpt>
            <trkpt lat="50.066864" lon="8.9895248">
                <ele>105.0</ele>
                <time>2020-08-30T08:38:22.000Z</time>
                <name>Trackpoint 1656</name>
            </trkpt>
            <trkpt lat="50.066944" lon="8.9895872">
                <ele>105.0</ele>
                <time>2020-08-30T08:38:24.000Z</time>
                <name>Trackpoint 1657</name>
            </trkpt>
            <trkpt lat="50.0670272" lon="8.9896448">
                <ele>105.0</ele>
                <time>2020-08-30T08:38:26.000Z</time>
                <name>Trackpoint 1658</name>
            </trkpt>
            <trkpt lat="50.0671104" lon="8.9897032">
                <ele>105.0</ele>
                <time>2020-08-30T08:38:28.000Z</time>
                <name>Trackpoint 1659</name>
            </trkpt>
            <trkpt lat="50.0672" lon="8.9897632">
                <ele>105.0</ele>
                <time>2020-08-30T08:38:30.000Z</time>
                <name>Trackpoint 1660</name>
            </trkpt>
            <trkpt lat="50.0672832" lon="8.9898184">
                <ele>105.0</ele>
                <time>2020-08-30T08:38:32.000Z</time>
                <name>Trackpoint 1661</name>
            </trkpt>
            <trkpt lat="50.0673664" lon="8.9898704">
                <ele>105.0</ele>
                <time>2020-08-30T08:38:34.000Z</time>
                <name>Trackpoint 1662</name>
            </trkpt>
            <trkpt lat="50.0674784" lon="8.9899384">
                <ele>105.0</ele>
                <time>2020-08-30T08:38:37.000Z</time>
                <name>Trackpoint 1663</name>
            </trkpt>
            <trkpt lat="50.0676" lon="8.989992">
                <ele>105.0</ele>
                <time>2020-08-30T08:38:40.000Z</time>
                <name>Trackpoint 1664</name>
            </trkpt>
            <trkpt lat="50.0677248" lon="8.9900328">
                <ele>105.0</ele>
                <time>2020-08-30T08:38:43.000Z</time>
                <name>Trackpoint 1665</name>
            </trkpt>
            <trkpt lat="50.0678112" lon="8.99008">
                <ele>105.0</ele>
                <time>2020-08-30T08:38:45.000Z</time>
                <name>Trackpoint 1666</name>
            </trkpt>
            <trkpt lat="50.0678976" lon="8.9901264">
                <ele>105.0</ele>
                <time>2020-08-30T08:38:47.000Z</time>
                <name>Trackpoint 1667</name>
            </trkpt>
            <trkpt lat="50.067984" lon="8.9901568">
                <ele>105.0</ele>
                <time>2020-08-30T08:38:49.000Z</time>
                <name>Trackpoint 1668</name>
            </trkpt>
            <trkpt lat="50.0680672" lon="8.9901936">
                <ele>105.0</ele>
                <time>2020-08-30T08:38:51.000Z</time>
                <name>Trackpoint 1669</name>
            </trkpt>
            <trkpt lat="50.0681728" lon="8.9902312">
                <ele>105.0</ele>
                <time>2020-08-30T08:38:54.000Z</time>
                <name>Trackpoint 1670</name>
            </trkpt>
            <trkpt lat="50.0682784" lon="8.990276">
                <ele>105.0</ele>
                <time>2020-08-30T08:38:57.000Z</time>
                <name>Trackpoint 1671</name>
            </trkpt>
            <trkpt lat="50.0683776" lon="8.9903072">
                <ele>105.0</ele>
                <time>2020-08-30T08:39:01.000Z</time>
                <name>Trackpoint 1672</name>
            </trkpt>
            <trkpt lat="50.068416" lon="8.9903232">
                <ele>104.0</ele>
                <time>2020-08-30T08:39:31.000Z</time>
                <name>Trackpoint 1673</name>
            </trkpt>
            <trkpt lat="50.0685248" lon="8.9903272">
                <ele>104.0</ele>
                <time>2020-08-30T08:39:38.000Z</time>
                <name>Trackpoint 1674</name>
            </trkpt>
            <trkpt lat="50.068624" lon="8.9903352">
                <ele>104.0</ele>
                <time>2020-08-30T08:39:41.000Z</time>
                <name>Trackpoint 1675</name>
            </trkpt>
            <trkpt lat="50.0687296" lon="8.9903568">
                <ele>104.0</ele>
                <time>2020-08-30T08:39:44.000Z</time>
                <name>Trackpoint 1676</name>
            </trkpt>
            <trkpt lat="50.068848" lon="8.9903648">
                <ele>104.0</ele>
                <time>2020-08-30T08:39:47.000Z</time>
                <name>Trackpoint 1677</name>
            </trkpt>
            <trkpt lat="50.0689696" lon="8.9903736">
                <ele>104.0</ele>
                <time>2020-08-30T08:39:50.000Z</time>
                <name>Trackpoint 1678</name>
            </trkpt>
            <trkpt lat="50.0690944" lon="8.9903848">
                <ele>105.0</ele>
                <time>2020-08-30T08:39:53.000Z</time>
                <name>Trackpoint 1679</name>
            </trkpt>
            <trkpt lat="50.069184" lon="8.9903936">
                <ele>105.0</ele>
                <time>2020-08-30T08:39:55.000Z</time>
                <name>Trackpoint 1680</name>
            </trkpt>
            <trkpt lat="50.0693216" lon="8.990408">
                <ele>105.0</ele>
                <time>2020-08-30T08:39:58.000Z</time>
                <name>Trackpoint 1681</name>
            </trkpt>
            <trkpt lat="50.0694528" lon="8.990408">
                <ele>105.0</ele>
                <time>2020-08-30T08:40:01.000Z</time>
                <name>Trackpoint 1682</name>
            </trkpt>
            <trkpt lat="50.0695456" lon="8.9904016">
                <ele>105.0</ele>
                <time>2020-08-30T08:40:03.000Z</time>
                <name>Trackpoint 1683</name>
            </trkpt>
            <trkpt lat="50.0696768" lon="8.9903848">
                <ele>105.0</ele>
                <time>2020-08-30T08:40:06.000Z</time>
                <name>Trackpoint 1684</name>
            </trkpt>
            <trkpt lat="50.069808" lon="8.9903696">
                <ele>105.0</ele>
                <time>2020-08-30T08:40:09.000Z</time>
                <name>Trackpoint 1685</name>
            </trkpt>
            <trkpt lat="50.0698976" lon="8.99036">
                <ele>105.0</ele>
                <time>2020-08-30T08:40:11.000Z</time>
                <name>Trackpoint 1686</name>
            </trkpt>
            <trkpt lat="50.0699936" lon="8.9903472">
                <ele>105.0</ele>
                <time>2020-08-30T08:40:13.000Z</time>
                <name>Trackpoint 1687</name>
            </trkpt>
            <trkpt lat="50.0700864" lon="8.9903296">
                <ele>105.0</ele>
                <time>2020-08-30T08:40:15.000Z</time>
                <name>Trackpoint 1688</name>
            </trkpt>
            <trkpt lat="50.070176" lon="8.9903072">
                <ele>105.0</ele>
                <time>2020-08-30T08:40:17.000Z</time>
                <name>Trackpoint 1689</name>
            </trkpt>
            <trkpt lat="50.0702656" lon="8.99028">
                <ele>105.0</ele>
                <time>2020-08-30T08:40:19.000Z</time>
                <name>Trackpoint 1690</name>
            </trkpt>
            <trkpt lat="50.0703584" lon="8.9902488">
                <ele>105.0</ele>
                <time>2020-08-30T08:40:21.000Z</time>
                <name>Trackpoint 1691</name>
            </trkpt>
            <trkpt lat="50.0704448" lon="8.9902112">
                <ele>104.0</ele>
                <time>2020-08-30T08:40:23.000Z</time>
                <name>Trackpoint 1692</name>
            </trkpt>
            <trkpt lat="50.0705376" lon="8.9901784">
                <ele>104.0</ele>
                <time>2020-08-30T08:40:25.000Z</time>
                <name>Trackpoint 1693</name>
            </trkpt>
            <trkpt lat="50.0706304" lon="8.9901448">
                <ele>104.0</ele>
                <time>2020-08-30T08:40:27.000Z</time>
                <name>Trackpoint 1694</name>
            </trkpt>
            <trkpt lat="50.0707168" lon="8.9901048">
                <ele>104.0</ele>
                <time>2020-08-30T08:40:29.000Z</time>
                <name>Trackpoint 1695</name>
            </trkpt>
            <trkpt lat="50.0708096" lon="8.9900568">
                <ele>104.0</ele>
                <time>2020-08-30T08:40:31.000Z</time>
                <name>Trackpoint 1696</name>
            </trkpt>
            <trkpt lat="50.0708928" lon="8.9900112">
                <ele>104.0</ele>
                <time>2020-08-30T08:40:33.000Z</time>
                <name>Trackpoint 1697</name>
            </trkpt>
            <trkpt lat="50.0709792" lon="8.9899552">
                <ele>104.0</ele>
                <time>2020-08-30T08:40:35.000Z</time>
                <name>Trackpoint 1698</name>
            </trkpt>
            <trkpt lat="50.0710624" lon="8.9899064">
                <ele>104.0</ele>
                <time>2020-08-30T08:40:37.000Z</time>
                <name>Trackpoint 1699</name>
            </trkpt>
            <trkpt lat="50.071152" lon="8.9898616">
                <ele>104.0</ele>
                <time>2020-08-30T08:40:39.000Z</time>
                <name>Trackpoint 1700</name>
            </trkpt>
            <trkpt lat="50.0712384" lon="8.9898096">
                <ele>104.0</ele>
                <time>2020-08-30T08:40:41.000Z</time>
                <name>Trackpoint 1701</name>
            </trkpt>
            <trkpt lat="50.0713312" lon="8.989752">
                <ele>104.0</ele>
                <time>2020-08-30T08:40:43.000Z</time>
                <name>Trackpoint 1702</name>
            </trkpt>
            <trkpt lat="50.0714144" lon="8.9897016">
                <ele>104.0</ele>
                <time>2020-08-30T08:40:45.000Z</time>
                <name>Trackpoint 1703</name>
            </trkpt>
            <trkpt lat="50.071504" lon="8.9896448">
                <ele>104.0</ele>
                <time>2020-08-30T08:40:47.000Z</time>
                <name>Trackpoint 1704</name>
            </trkpt>
            <trkpt lat="50.0715872" lon="8.9895912">
                <ele>104.0</ele>
                <time>2020-08-30T08:40:49.000Z</time>
                <name>Trackpoint 1705</name>
            </trkpt>
            <trkpt lat="50.0716736" lon="8.989536">
                <ele>104.0</ele>
                <time>2020-08-30T08:40:51.000Z</time>
                <name>Trackpoint 1706</name>
            </trkpt>
            <trkpt lat="50.0717568" lon="8.9894784">
                <ele>104.0</ele>
                <time>2020-08-30T08:40:53.000Z</time>
                <name>Trackpoint 1707</name>
            </trkpt>
            <trkpt lat="50.0718368" lon="8.98942">
                <ele>104.0</ele>
                <time>2020-08-30T08:40:55.000Z</time>
                <name>Trackpoint 1708</name>
            </trkpt>
            <trkpt lat="50.07192" lon="8.9893512">
                <ele>105.0</ele>
                <time>2020-08-30T08:40:57.000Z</time>
                <name>Trackpoint 1709</name>
            </trkpt>
            <trkpt lat="50.072" lon="8.98928">
                <ele>105.0</ele>
                <time>2020-08-30T08:40:59.000Z</time>
                <name>Trackpoint 1710</name>
            </trkpt>
            <trkpt lat="50.0720736" lon="8.9892064">
                <ele>105.0</ele>
                <time>2020-08-30T08:41:01.000Z</time>
                <name>Trackpoint 1711</name>
            </trkpt>
            <trkpt lat="50.0721664" lon="8.9891344">
                <ele>106.0</ele>
                <time>2020-08-30T08:41:03.000Z</time>
                <name>Trackpoint 1712</name>
            </trkpt>
            <trkpt lat="50.0722464" lon="8.9890672">
                <ele>106.0</ele>
                <time>2020-08-30T08:41:05.000Z</time>
                <name>Trackpoint 1713</name>
            </trkpt>
            <trkpt lat="50.0723296" lon="8.9889944">
                <ele>106.0</ele>
                <time>2020-08-30T08:41:07.000Z</time>
                <name>Trackpoint 1714</name>
            </trkpt>
            <trkpt lat="50.0724096" lon="8.98892">
                <ele>106.0</ele>
                <time>2020-08-30T08:41:09.000Z</time>
                <name>Trackpoint 1715</name>
            </trkpt>
            <trkpt lat="50.0724864" lon="8.9888536">
                <ele>106.0</ele>
                <time>2020-08-30T08:41:11.000Z</time>
                <name>Trackpoint 1716</name>
            </trkpt>
            <trkpt lat="50.0725664" lon="8.98878">
                <ele>106.0</ele>
                <time>2020-08-30T08:41:13.000Z</time>
                <name>Trackpoint 1717</name>
            </trkpt>
            <trkpt lat="50.0726464" lon="8.988704">
                <ele>106.0</ele>
                <time>2020-08-30T08:41:15.000Z</time>
                <name>Trackpoint 1718</name>
            </trkpt>
            <trkpt lat="50.0727264" lon="8.9886304">
                <ele>106.0</ele>
                <time>2020-08-30T08:41:17.000Z</time>
                <name>Trackpoint 1719</name>
            </trkpt>
            <trkpt lat="50.0728064" lon="8.9885584">
                <ele>106.0</ele>
                <time>2020-08-30T08:41:19.000Z</time>
                <name>Trackpoint 1720</name>
            </trkpt>
            <trkpt lat="50.0728864" lon="8.9884904">
                <ele>106.0</ele>
                <time>2020-08-30T08:41:21.000Z</time>
                <name>Trackpoint 1721</name>
            </trkpt>
            <trkpt lat="50.0729664" lon="8.9884056">
                <ele>106.0</ele>
                <time>2020-08-30T08:41:23.000Z</time>
                <name>Trackpoint 1722</name>
            </trkpt>
            <trkpt lat="50.0730528" lon="8.9883296">
                <ele>106.0</ele>
                <time>2020-08-30T08:41:25.000Z</time>
                <name>Trackpoint 1723</name>
            </trkpt>
            <trkpt lat="50.073136" lon="8.9882432">
                <ele>106.0</ele>
                <time>2020-08-30T08:41:27.000Z</time>
                <name>Trackpoint 1724</name>
            </trkpt>
            <trkpt lat="50.0732128" lon="8.9881552">
                <ele>106.0</ele>
                <time>2020-08-30T08:41:29.000Z</time>
                <name>Trackpoint 1725</name>
            </trkpt>
            <trkpt lat="50.0732928" lon="8.98806">
                <ele>106.0</ele>
                <time>2020-08-30T08:41:31.000Z</time>
                <name>Trackpoint 1726</name>
            </trkpt>
            <trkpt lat="50.0733728" lon="8.9879664">
                <ele>105.0</ele>
                <time>2020-08-30T08:41:33.000Z</time>
                <name>Trackpoint 1727</name>
            </trkpt>
            <trkpt lat="50.0734528" lon="8.9878704">
                <ele>106.0</ele>
                <time>2020-08-30T08:41:35.000Z</time>
                <name>Trackpoint 1728</name>
            </trkpt>
            <trkpt lat="50.0735296" lon="8.9877752">
                <ele>105.0</ele>
                <time>2020-08-30T08:41:37.000Z</time>
                <name>Trackpoint 1729</name>
            </trkpt>
            <trkpt lat="50.0736096" lon="8.9876784">
                <ele>105.0</ele>
                <time>2020-08-30T08:41:39.000Z</time>
                <name>Trackpoint 1730</name>
            </trkpt>
            <trkpt lat="50.0736896" lon="8.9875848">
                <ele>105.0</ele>
                <time>2020-08-30T08:41:41.000Z</time>
                <name>Trackpoint 1731</name>
            </trkpt>
            <trkpt lat="50.0737696" lon="8.987492">
                <ele>105.0</ele>
                <time>2020-08-30T08:41:43.000Z</time>
                <name>Trackpoint 1732</name>
            </trkpt>
            <trkpt lat="50.0738464" lon="8.987396">
                <ele>105.0</ele>
                <time>2020-08-30T08:41:45.000Z</time>
                <name>Trackpoint 1733</name>
            </trkpt>
            <trkpt lat="50.0739168" lon="8.9872968">
                <ele>104.0</ele>
                <time>2020-08-30T08:41:47.000Z</time>
                <name>Trackpoint 1734</name>
            </trkpt>
            <trkpt lat="50.0739936" lon="8.9871976">
                <ele>104.0</ele>
                <time>2020-08-30T08:41:49.000Z</time>
                <name>Trackpoint 1735</name>
            </trkpt>
            <trkpt lat="50.0740608" lon="8.9870928">
                <ele>105.0</ele>
                <time>2020-08-30T08:41:51.000Z</time>
                <name>Trackpoint 1736</name>
            </trkpt>
            <trkpt lat="50.0741344" lon="8.9870008">
                <ele>105.0</ele>
                <time>2020-08-30T08:41:53.000Z</time>
                <name>Trackpoint 1737</name>
            </trkpt>
            <trkpt lat="50.074208" lon="8.9869072">
                <ele>105.0</ele>
                <time>2020-08-30T08:41:55.000Z</time>
                <name>Trackpoint 1738</name>
            </trkpt>
            <trkpt lat="50.0742784" lon="8.986812">
                <ele>104.0</ele>
                <time>2020-08-30T08:41:57.000Z</time>
                <name>Trackpoint 1739</name>
            </trkpt>
            <trkpt lat="50.0743456" lon="8.9867184">
                <ele>104.0</ele>
                <time>2020-08-30T08:41:59.000Z</time>
                <name>Trackpoint 1740</name>
            </trkpt>
            <trkpt lat="50.0744064" lon="8.9866288">
                <ele>105.0</ele>
                <time>2020-08-30T08:42:01.000Z</time>
                <name>Trackpoint 1741</name>
            </trkpt>
            <trkpt lat="50.0744672" lon="8.9865376">
                <ele>104.0</ele>
                <time>2020-08-30T08:42:03.000Z</time>
                <name>Trackpoint 1742</name>
            </trkpt>
            <trkpt lat="50.0745216" lon="8.9864528">
                <ele>104.0</ele>
                <time>2020-08-30T08:42:05.000Z</time>
                <name>Trackpoint 1743</name>
            </trkpt>
            <trkpt lat="50.0745728" lon="8.9863656">
                <ele>105.0</ele>
                <time>2020-08-30T08:42:07.000Z</time>
                <name>Trackpoint 1744</name>
            </trkpt>
            <trkpt lat="50.0746304" lon="8.9862784">
                <ele>105.0</ele>
                <time>2020-08-30T08:42:09.000Z</time>
                <name>Trackpoint 1745</name>
            </trkpt>
            <trkpt lat="50.0746912" lon="8.9861784">
                <ele>105.0</ele>
                <time>2020-08-30T08:42:11.000Z</time>
                <name>Trackpoint 1746</name>
            </trkpt>
            <trkpt lat="50.0747456" lon="8.9860712">
                <ele>105.0</ele>
                <time>2020-08-30T08:42:13.000Z</time>
                <name>Trackpoint 1747</name>
            </trkpt>
            <trkpt lat="50.0748096" lon="8.9859688">
                <ele>105.0</ele>
                <time>2020-08-30T08:42:15.000Z</time>
                <name>Trackpoint 1748</name>
            </trkpt>
            <trkpt lat="50.0748672" lon="8.9858568">
                <ele>105.0</ele>
                <time>2020-08-30T08:42:17.000Z</time>
                <name>Trackpoint 1749</name>
            </trkpt>
            <trkpt lat="50.0749248" lon="8.9857416">
                <ele>105.0</ele>
                <time>2020-08-30T08:42:19.000Z</time>
                <name>Trackpoint 1750</name>
            </trkpt>
            <trkpt lat="50.0749824" lon="8.9856304">
                <ele>105.0</ele>
                <time>2020-08-30T08:42:21.000Z</time>
                <name>Trackpoint 1751</name>
            </trkpt>
            <trkpt lat="50.0750304" lon="8.9855216">
                <ele>104.0</ele>
                <time>2020-08-30T08:42:23.000Z</time>
                <name>Trackpoint 1752</name>
            </trkpt>
            <trkpt lat="50.075088" lon="8.9854088">
                <ele>104.0</ele>
                <time>2020-08-30T08:42:25.000Z</time>
                <name>Trackpoint 1753</name>
            </trkpt>
            <trkpt lat="50.0751392" lon="8.9852816">
                <ele>104.0</ele>
                <time>2020-08-30T08:42:27.000Z</time>
                <name>Trackpoint 1754</name>
            </trkpt>
            <trkpt lat="50.075184" lon="8.9851512">
                <ele>105.0</ele>
                <time>2020-08-30T08:42:29.000Z</time>
                <name>Trackpoint 1755</name>
            </trkpt>
            <trkpt lat="50.0752288" lon="8.985028">
                <ele>105.0</ele>
                <time>2020-08-30T08:42:31.000Z</time>
                <name>Trackpoint 1756</name>
            </trkpt>
            <trkpt lat="50.0752832" lon="8.9849104">
                <ele>105.0</ele>
                <time>2020-08-30T08:42:33.000Z</time>
                <name>Trackpoint 1757</name>
            </trkpt>
            <trkpt lat="50.0753376" lon="8.9847832">
                <ele>105.0</ele>
                <time>2020-08-30T08:42:35.000Z</time>
                <name>Trackpoint 1758</name>
            </trkpt>
            <trkpt lat="50.0753952" lon="8.984656">
                <ele>105.0</ele>
                <time>2020-08-30T08:42:37.000Z</time>
                <name>Trackpoint 1759</name>
            </trkpt>
            <trkpt lat="50.0754464" lon="8.9845264">
                <ele>105.0</ele>
                <time>2020-08-30T08:42:39.000Z</time>
                <name>Trackpoint 1760</name>
            </trkpt>
            <trkpt lat="50.0754976" lon="8.9843976">
                <ele>105.0</ele>
                <time>2020-08-30T08:42:41.000Z</time>
                <name>Trackpoint 1761</name>
            </trkpt>
            <trkpt lat="50.0755456" lon="8.9842768">
                <ele>105.0</ele>
                <time>2020-08-30T08:42:43.000Z</time>
                <name>Trackpoint 1762</name>
            </trkpt>
            <trkpt lat="50.0756032" lon="8.984152">
                <ele>105.0</ele>
                <time>2020-08-30T08:42:45.000Z</time>
                <name>Trackpoint 1763</name>
            </trkpt>
            <trkpt lat="50.0756576" lon="8.9840248">
                <ele>106.0</ele>
                <time>2020-08-30T08:42:47.000Z</time>
                <name>Trackpoint 1764</name>
            </trkpt>
            <trkpt lat="50.0757056" lon="8.9838848">
                <ele>106.0</ele>
                <time>2020-08-30T08:42:49.000Z</time>
                <name>Trackpoint 1765</name>
            </trkpt>
            <trkpt lat="50.0757568" lon="8.9837488">
                <ele>106.0</ele>
                <time>2020-08-30T08:42:51.000Z</time>
                <name>Trackpoint 1766</name>
            </trkpt>
            <trkpt lat="50.0758016" lon="8.9836104">
                <ele>106.0</ele>
                <time>2020-08-30T08:42:53.000Z</time>
                <name>Trackpoint 1767</name>
            </trkpt>
            <trkpt lat="50.0758464" lon="8.9834736">
                <ele>106.0</ele>
                <time>2020-08-30T08:42:55.000Z</time>
                <name>Trackpoint 1768</name>
            </trkpt>
            <trkpt lat="50.0758848" lon="8.9833384">
                <ele>106.0</ele>
                <time>2020-08-30T08:42:57.000Z</time>
                <name>Trackpoint 1769</name>
            </trkpt>
            <trkpt lat="50.0759328" lon="8.9832088">
                <ele>106.0</ele>
                <time>2020-08-30T08:42:59.000Z</time>
                <name>Trackpoint 1770</name>
            </trkpt>
            <trkpt lat="50.0759744" lon="8.9830768">
                <ele>106.0</ele>
                <time>2020-08-30T08:43:01.000Z</time>
                <name>Trackpoint 1771</name>
            </trkpt>
            <trkpt lat="50.0760128" lon="8.9829368">
                <ele>106.0</ele>
                <time>2020-08-30T08:43:03.000Z</time>
                <name>Trackpoint 1772</name>
            </trkpt>
            <trkpt lat="50.0760544" lon="8.9827944">
                <ele>106.0</ele>
                <time>2020-08-30T08:43:05.000Z</time>
                <name>Trackpoint 1773</name>
            </trkpt>
            <trkpt lat="50.076096" lon="8.9826496">
                <ele>106.0</ele>
                <time>2020-08-30T08:43:07.000Z</time>
                <name>Trackpoint 1774</name>
            </trkpt>
            <trkpt lat="50.0761344" lon="8.9825032">
                <ele>106.0</ele>
                <time>2020-08-30T08:43:09.000Z</time>
                <name>Trackpoint 1775</name>
            </trkpt>
            <trkpt lat="50.076176" lon="8.98236">
                <ele>105.0</ele>
                <time>2020-08-30T08:43:11.000Z</time>
                <name>Trackpoint 1776</name>
            </trkpt>
            <trkpt lat="50.0762112" lon="8.9822128">
                <ele>105.0</ele>
                <time>2020-08-30T08:43:13.000Z</time>
                <name>Trackpoint 1777</name>
            </trkpt>
            <trkpt lat="50.0762496" lon="8.9820696">
                <ele>105.0</ele>
                <time>2020-08-30T08:43:15.000Z</time>
                <name>Trackpoint 1778</name>
            </trkpt>
            <trkpt lat="50.0762752" lon="8.981932">
                <ele>106.0</ele>
                <time>2020-08-30T08:43:17.000Z</time>
                <name>Trackpoint 1779</name>
            </trkpt>
            <trkpt lat="50.076304" lon="8.9817888">
                <ele>106.0</ele>
                <time>2020-08-30T08:43:19.000Z</time>
                <name>Trackpoint 1780</name>
            </trkpt>
            <trkpt lat="50.0763392" lon="8.9816464">
                <ele>106.0</ele>
                <time>2020-08-30T08:43:21.000Z</time>
                <name>Trackpoint 1781</name>
            </trkpt>
            <trkpt lat="50.0763776" lon="8.9815056">
                <ele>106.0</ele>
                <time>2020-08-30T08:43:23.000Z</time>
                <name>Trackpoint 1782</name>
            </trkpt>
            <trkpt lat="50.0764128" lon="8.981368">
                <ele>106.0</ele>
                <time>2020-08-30T08:43:25.000Z</time>
                <name>Trackpoint 1783</name>
            </trkpt>
            <trkpt lat="50.0764544" lon="8.9812272">
                <ele>106.0</ele>
                <time>2020-08-30T08:43:27.000Z</time>
                <name>Trackpoint 1784</name>
            </trkpt>
            <trkpt lat="50.0764896" lon="8.9810784">
                <ele>106.0</ele>
                <time>2020-08-30T08:43:29.000Z</time>
                <name>Trackpoint 1785</name>
            </trkpt>
            <trkpt lat="50.0765216" lon="8.9809368">
                <ele>105.0</ele>
                <time>2020-08-30T08:43:31.000Z</time>
                <name>Trackpoint 1786</name>
            </trkpt>
            <trkpt lat="50.0765536" lon="8.9807904">
                <ele>105.0</ele>
                <time>2020-08-30T08:43:33.000Z</time>
                <name>Trackpoint 1787</name>
            </trkpt>
            <trkpt lat="50.076592" lon="8.9806472">
                <ele>106.0</ele>
                <time>2020-08-30T08:43:35.000Z</time>
                <name>Trackpoint 1788</name>
            </trkpt>
            <trkpt lat="50.0766336" lon="8.9805168">
                <ele>106.0</ele>
                <time>2020-08-30T08:43:37.000Z</time>
                <name>Trackpoint 1789</name>
            </trkpt>
            <trkpt lat="50.0766624" lon="8.98038">
                <ele>106.0</ele>
                <time>2020-08-30T08:43:39.000Z</time>
                <name>Trackpoint 1790</name>
            </trkpt>
            <trkpt lat="50.0766944" lon="8.9802576">
                <ele>106.0</ele>
                <time>2020-08-30T08:43:41.000Z</time>
                <name>Trackpoint 1791</name>
            </trkpt>
            <trkpt lat="50.0767328" lon="8.9801232">
                <ele>106.0</ele>
                <time>2020-08-30T08:43:43.000Z</time>
                <name>Trackpoint 1792</name>
            </trkpt>
            <trkpt lat="50.0767712" lon="8.9799816">
                <ele>106.0</ele>
                <time>2020-08-30T08:43:45.000Z</time>
                <name>Trackpoint 1793</name>
            </trkpt>
            <trkpt lat="50.0768128" lon="8.9798416">
                <ele>106.0</ele>
                <time>2020-08-30T08:43:47.000Z</time>
                <name>Trackpoint 1794</name>
            </trkpt>
            <trkpt lat="50.0768544" lon="8.9796936">
                <ele>106.0</ele>
                <time>2020-08-30T08:43:49.000Z</time>
                <name>Trackpoint 1795</name>
            </trkpt>
            <trkpt lat="50.0769088" lon="8.9795648">
                <ele>106.0</ele>
                <time>2020-08-30T08:43:51.000Z</time>
                <name>Trackpoint 1796</name>
            </trkpt>
            <trkpt lat="50.0769568" lon="8.9794216">
                <ele>107.0</ele>
                <time>2020-08-30T08:43:53.000Z</time>
                <name>Trackpoint 1797</name>
            </trkpt>
            <trkpt lat="50.0770048" lon="8.9792816">
                <ele>107.0</ele>
                <time>2020-08-30T08:43:55.000Z</time>
                <name>Trackpoint 1798</name>
            </trkpt>
            <trkpt lat="50.077056" lon="8.9791544">
                <ele>107.0</ele>
                <time>2020-08-30T08:43:57.000Z</time>
                <name>Trackpoint 1799</name>
            </trkpt>
            <trkpt lat="50.077104" lon="8.9790232">
                <ele>107.0</ele>
                <time>2020-08-30T08:43:59.000Z</time>
                <name>Trackpoint 1800</name>
            </trkpt>
            <trkpt lat="50.0771552" lon="8.9788968">
                <ele>107.0</ele>
                <time>2020-08-30T08:44:01.000Z</time>
                <name>Trackpoint 1801</name>
            </trkpt>
            <trkpt lat="50.0772032" lon="8.9787632">
                <ele>106.0</ele>
                <time>2020-08-30T08:44:03.000Z</time>
                <name>Trackpoint 1802</name>
            </trkpt>
            <trkpt lat="50.077248" lon="8.9786328">
                <ele>106.0</ele>
                <time>2020-08-30T08:44:05.000Z</time>
                <name>Trackpoint 1803</name>
            </trkpt>
            <trkpt lat="50.077296" lon="8.9785032">
                <ele>106.0</ele>
                <time>2020-08-30T08:44:07.000Z</time>
                <name>Trackpoint 1804</name>
            </trkpt>
            <trkpt lat="50.0773504" lon="8.9783824">
                <ele>106.0</ele>
                <time>2020-08-30T08:44:09.000Z</time>
                <name>Trackpoint 1805</name>
            </trkpt>
            <trkpt lat="50.077392" lon="8.9782648">
                <ele>106.0</ele>
                <time>2020-08-30T08:44:11.000Z</time>
                <name>Trackpoint 1806</name>
            </trkpt>
            <trkpt lat="50.0774336" lon="8.9781616">
                <ele>106.0</ele>
                <time>2020-08-30T08:44:13.000Z</time>
                <name>Trackpoint 1807</name>
            </trkpt>
            <trkpt lat="50.077456" lon="8.978068">
                <ele>106.0</ele>
                <time>2020-08-30T08:44:15.000Z</time>
                <name>Trackpoint 1808</name>
            </trkpt>
            <trkpt lat="50.0774816" lon="8.9779728">
                <ele>106.0</ele>
                <time>2020-08-30T08:44:17.000Z</time>
                <name>Trackpoint 1809</name>
            </trkpt>
            <trkpt lat="50.0775232" lon="8.9778544">
                <ele>106.0</ele>
                <time>2020-08-30T08:44:20.000Z</time>
                <name>Trackpoint 1810</name>
            </trkpt>
            <trkpt lat="50.077552" lon="8.9777632">
                <ele>107.0</ele>
                <time>2020-08-30T08:44:22.000Z</time>
                <name>Trackpoint 1811</name>
            </trkpt>
            <trkpt lat="50.0776" lon="8.9776312">
                <ele>107.0</ele>
                <time>2020-08-30T08:44:25.000Z</time>
                <name>Trackpoint 1812</name>
            </trkpt>
            <trkpt lat="50.0776256" lon="8.9775296">
                <ele>107.0</ele>
                <time>2020-08-30T08:44:27.000Z</time>
                <name>Trackpoint 1813</name>
            </trkpt>
            <trkpt lat="50.0776544" lon="8.9773952">
                <ele>107.0</ele>
                <time>2020-08-30T08:44:30.000Z</time>
                <name>Trackpoint 1814</name>
            </trkpt>
            <trkpt lat="50.0776896" lon="8.9772568">
                <ele>107.0</ele>
                <time>2020-08-30T08:44:33.000Z</time>
                <name>Trackpoint 1815</name>
            </trkpt>
            <trkpt lat="50.077712" lon="8.9771616">
                <ele>107.0</ele>
                <time>2020-08-30T08:44:35.000Z</time>
                <name>Trackpoint 1816</name>
            </trkpt>
            <trkpt lat="50.077744" lon="8.9770632">
                <ele>107.0</ele>
                <time>2020-08-30T08:44:37.000Z</time>
                <name>Trackpoint 1817</name>
            </trkpt>
            <trkpt lat="50.0777696" lon="8.976936">
                <ele>107.0</ele>
                <time>2020-08-30T08:44:39.000Z</time>
                <name>Trackpoint 1818</name>
            </trkpt>
            <trkpt lat="50.0778016" lon="8.9768216">
                <ele>107.0</ele>
                <time>2020-08-30T08:44:41.000Z</time>
                <name>Trackpoint 1819</name>
            </trkpt>
            <trkpt lat="50.0778528" lon="8.9766648">
                <ele>107.0</ele>
                <time>2020-08-30T08:44:44.000Z</time>
                <name>Trackpoint 1820</name>
            </trkpt>
            <trkpt lat="50.0779072" lon="8.9765168">
                <ele>107.0</ele>
                <time>2020-08-30T08:44:46.000Z</time>
                <name>Trackpoint 1821</name>
            </trkpt>
            <trkpt lat="50.0779328" lon="8.976412">
                <ele>107.0</ele>
                <time>2020-08-30T08:44:48.000Z</time>
                <name>Trackpoint 1822</name>
            </trkpt>
            <trkpt lat="50.0779584" lon="8.9762696">
                <ele>107.0</ele>
                <time>2020-08-30T08:44:50.000Z</time>
                <name>Trackpoint 1823</name>
            </trkpt>
            <trkpt lat="50.0779872" lon="8.9761352">
                <ele>107.0</ele>
                <time>2020-08-30T08:44:52.000Z</time>
                <name>Trackpoint 1824</name>
            </trkpt>
            <trkpt lat="50.0780288" lon="8.9759848">
                <ele>107.0</ele>
                <time>2020-08-30T08:44:54.000Z</time>
                <name>Trackpoint 1825</name>
            </trkpt>
            <trkpt lat="50.078064" lon="8.9758456">
                <ele>107.0</ele>
                <time>2020-08-30T08:44:56.000Z</time>
                <name>Trackpoint 1826</name>
            </trkpt>
            <trkpt lat="50.078096" lon="8.9757016">
                <ele>107.0</ele>
                <time>2020-08-30T08:44:58.000Z</time>
                <name>Trackpoint 1827</name>
            </trkpt>
            <trkpt lat="50.0781248" lon="8.9755736">
                <ele>107.0</ele>
                <time>2020-08-30T08:45:00.000Z</time>
                <name>Trackpoint 1828</name>
            </trkpt>
            <trkpt lat="50.078144" lon="8.9754352">
                <ele>107.0</ele>
                <time>2020-08-30T08:45:02.000Z</time>
                <name>Trackpoint 1829</name>
            </trkpt>
            <trkpt lat="50.078176" lon="8.9752968">
                <ele>107.0</ele>
                <time>2020-08-30T08:45:04.000Z</time>
                <name>Trackpoint 1830</name>
            </trkpt>
            <trkpt lat="50.0781984" lon="8.9751528">
                <ele>107.0</ele>
                <time>2020-08-30T08:45:06.000Z</time>
                <name>Trackpoint 1831</name>
            </trkpt>
            <trkpt lat="50.0782112" lon="8.9750184">
                <ele>107.0</ele>
                <time>2020-08-30T08:45:08.000Z</time>
                <name>Trackpoint 1832</name>
            </trkpt>
            <trkpt lat="50.0782272" lon="8.9748888">
                <ele>107.0</ele>
                <time>2020-08-30T08:45:10.000Z</time>
                <name>Trackpoint 1833</name>
            </trkpt>
            <trkpt lat="50.0782592" lon="8.9747352">
                <ele>107.0</ele>
                <time>2020-08-30T08:45:12.000Z</time>
                <name>Trackpoint 1834</name>
            </trkpt>
            <trkpt lat="50.0782816" lon="8.9745704">
                <ele>108.0</ele>
                <time>2020-08-30T08:45:14.000Z</time>
                <name>Trackpoint 1835</name>
            </trkpt>
            <trkpt lat="50.078304" lon="8.9744232">
                <ele>108.0</ele>
                <time>2020-08-30T08:45:16.000Z</time>
                <name>Trackpoint 1836</name>
            </trkpt>
            <trkpt lat="50.0783232" lon="8.9742768">
                <ele>107.0</ele>
                <time>2020-08-30T08:45:18.000Z</time>
                <name>Trackpoint 1837</name>
            </trkpt>
            <trkpt lat="50.0783392" lon="8.9741296">
                <ele>107.0</ele>
                <time>2020-08-30T08:45:20.000Z</time>
                <name>Trackpoint 1838</name>
            </trkpt>
            <trkpt lat="50.0783552" lon="8.9739848">
                <ele>107.0</ele>
                <time>2020-08-30T08:45:22.000Z</time>
                <name>Trackpoint 1839</name>
            </trkpt>
            <trkpt lat="50.0783616" lon="8.97384">
                <ele>107.0</ele>
                <time>2020-08-30T08:45:24.000Z</time>
                <name>Trackpoint 1840</name>
            </trkpt>
            <trkpt lat="50.0783808" lon="8.9737016">
                <ele>107.0</ele>
                <time>2020-08-30T08:45:26.000Z</time>
                <name>Trackpoint 1841</name>
            </trkpt>
            <trkpt lat="50.0784064" lon="8.9735568">
                <ele>107.0</ele>
                <time>2020-08-30T08:45:28.000Z</time>
                <name>Trackpoint 1842</name>
            </trkpt>
            <trkpt lat="50.0784096" lon="8.9734248">
                <ele>106.0</ele>
                <time>2020-08-30T08:45:30.000Z</time>
                <name>Trackpoint 1843</name>
            </trkpt>
            <trkpt lat="50.078416" lon="8.9733016">
                <ele>106.0</ele>
                <time>2020-08-30T08:45:32.000Z</time>
                <name>Trackpoint 1844</name>
            </trkpt>
            <trkpt lat="50.0784224" lon="8.9731864">
                <ele>106.0</ele>
                <time>2020-08-30T08:45:34.000Z</time>
                <name>Trackpoint 1845</name>
            </trkpt>
            <trkpt lat="50.0784224" lon="8.9730816">
                <ele>106.0</ele>
                <time>2020-08-30T08:45:36.000Z</time>
                <name>Trackpoint 1846</name>
            </trkpt>
            <trkpt lat="50.0784288" lon="8.9729608">
                <ele>106.0</ele>
                <time>2020-08-30T08:45:39.000Z</time>
                <name>Trackpoint 1847</name>
            </trkpt>
            <trkpt lat="50.0784416" lon="8.9728696">
                <ele>106.0</ele>
                <time>2020-08-30T08:46:11.000Z</time>
                <name>Trackpoint 1848</name>
            </trkpt>
            <trkpt lat="50.0784288" lon="8.9727648">
                <ele>106.0</ele>
                <time>2020-08-30T08:46:15.000Z</time>
                <name>Trackpoint 1849</name>
            </trkpt>
            <trkpt lat="50.0784" lon="8.9726688">
                <ele>106.0</ele>
                <time>2020-08-30T08:46:19.000Z</time>
                <name>Trackpoint 1850</name>
            </trkpt>
            <trkpt lat="50.0783616" lon="8.9725704">
                <ele>106.0</ele>
                <time>2020-08-30T08:46:25.000Z</time>
                <name>Trackpoint 1851</name>
            </trkpt>
            <trkpt lat="50.078368" lon="8.9724712">
                <ele>107.0</ele>
                <time>2020-08-30T08:46:33.000Z</time>
                <name>Trackpoint 1852</name>
            </trkpt>
            <trkpt lat="50.078368" lon="8.972368">
                <ele>107.0</ele>
                <time>2020-08-30T08:46:36.000Z</time>
                <name>Trackpoint 1853</name>
            </trkpt>
            <trkpt lat="50.0783744" lon="8.9722664">
                <ele>107.0</ele>
                <time>2020-08-30T08:46:39.000Z</time>
                <name>Trackpoint 1854</name>
            </trkpt>
            <trkpt lat="50.0783456" lon="8.972168">
                <ele>107.0</ele>
                <time>2020-08-30T08:46:42.000Z</time>
                <name>Trackpoint 1855</name>
            </trkpt>
            <trkpt lat="50.0783296" lon="8.9720688">
                <ele>107.0</ele>
                <time>2020-08-30T08:46:44.000Z</time>
                <name>Trackpoint 1856</name>
            </trkpt>
            <trkpt lat="50.0783168" lon="8.9719512">
                <ele>107.0</ele>
                <time>2020-08-30T08:46:46.000Z</time>
                <name>Trackpoint 1857</name>
            </trkpt>
            <trkpt lat="50.0783168" lon="8.9718464">
                <ele>107.0</ele>
                <time>2020-08-30T08:46:48.000Z</time>
                <name>Trackpoint 1858</name>
            </trkpt>
            <trkpt lat="50.0783072" lon="8.9717512">
                <ele>107.0</ele>
                <time>2020-08-30T08:46:50.000Z</time>
                <name>Trackpoint 1859</name>
            </trkpt>
            <trkpt lat="50.078304" lon="8.9716504">
                <ele>107.0</ele>
                <time>2020-08-30T08:46:52.000Z</time>
                <name>Trackpoint 1860</name>
            </trkpt>
            <trkpt lat="50.078304" lon="8.9715216">
                <ele>107.0</ele>
                <time>2020-08-30T08:46:54.000Z</time>
                <name>Trackpoint 1861</name>
            </trkpt>
            <trkpt lat="50.0782976" lon="8.9713936">
                <ele>107.0</ele>
                <time>2020-08-30T08:46:56.000Z</time>
                <name>Trackpoint 1862</name>
            </trkpt>
            <trkpt lat="50.0783008" lon="8.9712752">
                <ele>107.0</ele>
                <time>2020-08-30T08:46:58.000Z</time>
                <name>Trackpoint 1863</name>
            </trkpt>
            <trkpt lat="50.0783008" lon="8.9711504">
                <ele>107.0</ele>
                <time>2020-08-30T08:47:00.000Z</time>
                <name>Trackpoint 1864</name>
            </trkpt>
            <trkpt lat="50.078288" lon="8.97102">
                <ele>107.0</ele>
                <time>2020-08-30T08:47:02.000Z</time>
                <name>Trackpoint 1865</name>
            </trkpt>
            <trkpt lat="50.0782624" lon="8.9708616">
                <ele>107.0</ele>
                <time>2020-08-30T08:47:04.000Z</time>
                <name>Trackpoint 1866</name>
            </trkpt>
            <trkpt lat="50.0782592" lon="8.9707672">
                <ele>107.0</ele>
                <time>2020-08-30T08:47:05.000Z</time>
                <name>Trackpoint 1867</name>
            </trkpt>
            <trkpt lat="50.0782496" lon="8.9706152">
                <ele>107.0</ele>
                <time>2020-08-30T08:47:07.000Z</time>
                <name>Trackpoint 1868</name>
            </trkpt>
            <trkpt lat="50.0782304" lon="8.97048">
                <ele>106.0</ele>
                <time>2020-08-30T08:47:09.000Z</time>
                <name>Trackpoint 1869</name>
            </trkpt>
            <trkpt lat="50.0782208" lon="8.9703616">
                <ele>106.0</ele>
                <time>2020-08-30T08:47:11.000Z</time>
                <name>Trackpoint 1870</name>
            </trkpt>
            <trkpt lat="50.078208" lon="8.9702632">
                <ele>106.0</ele>
                <time>2020-08-30T08:47:13.000Z</time>
                <name>Trackpoint 1871</name>
            </trkpt>
            <trkpt lat="50.0781888" lon="8.9701368">
                <ele>106.0</ele>
                <time>2020-08-30T08:47:16.000Z</time>
                <name>Trackpoint 1872</name>
            </trkpt>
            <trkpt lat="50.0781568" lon="8.9700232">
                <ele>106.0</ele>
                <time>2020-08-30T08:47:18.000Z</time>
                <name>Trackpoint 1873</name>
            </trkpt>
            <trkpt lat="50.078144" lon="8.9698832">
                <ele>106.0</ele>
                <time>2020-08-30T08:47:20.000Z</time>
                <name>Trackpoint 1874</name>
            </trkpt>
            <trkpt lat="50.0781312" lon="8.9697616">
                <ele>106.0</ele>
                <time>2020-08-30T08:47:22.000Z</time>
                <name>Trackpoint 1875</name>
            </trkpt>
            <trkpt lat="50.0781248" lon="8.9696448">
                <ele>105.0</ele>
                <time>2020-08-30T08:47:24.000Z</time>
                <name>Trackpoint 1876</name>
            </trkpt>
            <trkpt lat="50.078112" lon="8.9695304">
                <ele>106.0</ele>
                <time>2020-08-30T08:47:27.000Z</time>
                <name>Trackpoint 1877</name>
            </trkpt>
            <trkpt lat="50.0780768" lon="8.9693984">
                <ele>106.0</ele>
                <time>2020-08-30T08:47:30.000Z</time>
                <name>Trackpoint 1878</name>
            </trkpt>
            <trkpt lat="50.0780704" lon="8.9692768">
                <ele>106.0</ele>
                <time>2020-08-30T08:47:32.000Z</time>
                <name>Trackpoint 1879</name>
            </trkpt>
            <trkpt lat="50.078064" lon="8.9691448">
                <ele>106.0</ele>
                <time>2020-08-30T08:47:34.000Z</time>
                <name>Trackpoint 1880</name>
            </trkpt>
            <trkpt lat="50.078048" lon="8.969004">
                <ele>106.0</ele>
                <time>2020-08-30T08:47:36.000Z</time>
                <name>Trackpoint 1881</name>
            </trkpt>
            <trkpt lat="50.0780416" lon="8.9688552">
                <ele>106.0</ele>
                <time>2020-08-30T08:47:38.000Z</time>
                <name>Trackpoint 1882</name>
            </trkpt>
            <trkpt lat="50.0780448" lon="8.9687256">
                <ele>106.0</ele>
                <time>2020-08-30T08:47:40.000Z</time>
                <name>Trackpoint 1883</name>
            </trkpt>
            <trkpt lat="50.0780384" lon="8.9686072">
                <ele>106.0</ele>
                <time>2020-08-30T08:47:42.000Z</time>
                <name>Trackpoint 1884</name>
            </trkpt>
            <trkpt lat="50.078032" lon="8.968496">
                <ele>106.0</ele>
                <time>2020-08-30T08:47:44.000Z</time>
                <name>Trackpoint 1885</name>
            </trkpt>
            <trkpt lat="50.0780384" lon="8.9684048">
                <ele>106.0</ele>
                <time>2020-08-30T08:47:45.000Z</time>
                <name>Trackpoint 1886</name>
            </trkpt>
            <trkpt lat="50.0780448" lon="8.968212">
                <ele>106.0</ele>
                <time>2020-08-30T08:47:47.000Z</time>
                <name>Trackpoint 1887</name>
            </trkpt>
            <trkpt lat="50.0780416" lon="8.9681216">
                <ele>106.0</ele>
                <time>2020-08-30T08:47:48.000Z</time>
                <name>Trackpoint 1888</name>
            </trkpt>
            <trkpt lat="50.0780448" lon="8.9680136">
                <ele>106.0</ele>
                <time>2020-08-30T08:47:49.000Z</time>
                <name>Trackpoint 1889</name>
            </trkpt>
            <trkpt lat="50.0780512" lon="8.967852">
                <ele>106.0</ele>
                <time>2020-08-30T08:47:50.000Z</time>
                <name>Trackpoint 1890</name>
            </trkpt>
            <trkpt lat="50.0780608" lon="8.9677464">
                <ele>106.0</ele>
                <time>2020-08-30T08:47:51.000Z</time>
                <name>Trackpoint 1891</name>
            </trkpt>
            <trkpt lat="50.0780896" lon="8.96766">
                <ele>106.0</ele>
                <time>2020-08-30T08:47:52.000Z</time>
                <name>Trackpoint 1892</name>
            </trkpt>
            <trkpt lat="50.078112" lon="8.9675128">
                <ele>107.0</ele>
                <time>2020-08-30T08:47:54.000Z</time>
                <name>Trackpoint 1893</name>
            </trkpt>
            <trkpt lat="50.0781504" lon="8.9673416">
                <ele>107.0</ele>
                <time>2020-08-30T08:47:56.000Z</time>
                <name>Trackpoint 1894</name>
            </trkpt>
            <trkpt lat="50.0781504" lon="8.9672072">
                <ele>107.0</ele>
                <time>2020-08-30T08:47:58.000Z</time>
                <name>Trackpoint 1895</name>
            </trkpt>
            <trkpt lat="50.0781568" lon="8.9670712">
                <ele>107.0</ele>
                <time>2020-08-30T08:48:00.000Z</time>
                <name>Trackpoint 1896</name>
            </trkpt>
            <trkpt lat="50.0781472" lon="8.9669176">
                <ele>107.0</ele>
                <time>2020-08-30T08:48:02.000Z</time>
                <name>Trackpoint 1897</name>
            </trkpt>
            <trkpt lat="50.0781312" lon="8.9667728">
                <ele>108.0</ele>
                <time>2020-08-30T08:48:04.000Z</time>
                <name>Trackpoint 1898</name>
            </trkpt>
            <trkpt lat="50.0781024" lon="8.9666296">
                <ele>108.0</ele>
                <time>2020-08-30T08:48:06.000Z</time>
                <name>Trackpoint 1899</name>
            </trkpt>
            <trkpt lat="50.0780864" lon="8.9664736">
                <ele>108.0</ele>
                <time>2020-08-30T08:48:08.000Z</time>
                <name>Trackpoint 1900</name>
            </trkpt>
            <trkpt lat="50.0780832" lon="8.9663152">
                <ele>108.0</ele>
                <time>2020-08-30T08:48:10.000Z</time>
                <name>Trackpoint 1901</name>
            </trkpt>
            <trkpt lat="50.078112" lon="8.9661928">
                <ele>108.0</ele>
                <time>2020-08-30T08:48:11.000Z</time>
                <name>Trackpoint 1902</name>
            </trkpt>
            <trkpt lat="50.0781216" lon="8.9660456">
                <ele>108.0</ele>
                <time>2020-08-30T08:48:13.000Z</time>
                <name>Trackpoint 1903</name>
            </trkpt>
            <trkpt lat="50.0781312" lon="8.9658368">
                <ele>108.0</ele>
                <time>2020-08-30T08:48:15.000Z</time>
                <name>Trackpoint 1904</name>
            </trkpt>
            <trkpt lat="50.0781408" lon="8.9656912">
                <ele>108.0</ele>
                <time>2020-08-30T08:48:17.000Z</time>
                <name>Trackpoint 1905</name>
            </trkpt>
            <trkpt lat="50.0781504" lon="8.9655512">
                <ele>108.0</ele>
                <time>2020-08-30T08:48:19.000Z</time>
                <name>Trackpoint 1906</name>
            </trkpt>
            <trkpt lat="50.07816" lon="8.9654176">
                <ele>108.0</ele>
                <time>2020-08-30T08:48:21.000Z</time>
                <name>Trackpoint 1907</name>
            </trkpt>
            <trkpt lat="50.0781664" lon="8.9653">
                <ele>108.0</ele>
                <time>2020-08-30T08:48:23.000Z</time>
                <name>Trackpoint 1908</name>
            </trkpt>
            <trkpt lat="50.0781792" lon="8.9651896">
                <ele>109.0</ele>
                <time>2020-08-30T08:48:25.000Z</time>
                <name>Trackpoint 1909</name>
            </trkpt>
            <trkpt lat="50.0781888" lon="8.9651">
                <ele>109.0</ele>
                <time>2020-08-30T08:48:27.000Z</time>
                <name>Trackpoint 1910</name>
            </trkpt>
            <trkpt lat="50.0782176" lon="8.9649936">
                <ele>109.0</ele>
                <time>2020-08-30T08:48:32.000Z</time>
                <name>Trackpoint 1911</name>
            </trkpt>
            <trkpt lat="50.0781952" lon="8.9649048">
                <ele>108.0</ele>
                <time>2020-08-30T08:51:33.000Z</time>
                <name>Trackpoint 1912</name>
            </trkpt>
            <trkpt lat="50.0782016" lon="8.9647768">
                <ele>108.0</ele>
                <time>2020-08-30T08:52:06.000Z</time>
                <name>Trackpoint 1913</name>
            </trkpt>
            <trkpt lat="50.0781984" lon="8.96468">
                <ele>108.0</ele>
                <time>2020-08-30T08:52:08.000Z</time>
                <name>Trackpoint 1914</name>
            </trkpt>
            <trkpt lat="50.0781888" lon="8.9645752">
                <ele>108.0</ele>
                <time>2020-08-30T08:52:10.000Z</time>
                <name>Trackpoint 1915</name>
            </trkpt>
            <trkpt lat="50.0781888" lon="8.964468">
                <ele>108.0</ele>
                <time>2020-08-30T08:52:12.000Z</time>
                <name>Trackpoint 1916</name>
            </trkpt>
            <trkpt lat="50.0781824" lon="8.96434">
                <ele>108.0</ele>
                <time>2020-08-30T08:52:14.000Z</time>
                <name>Trackpoint 1917</name>
            </trkpt>
            <trkpt lat="50.078176" lon="8.9642248">
                <ele>108.0</ele>
                <time>2020-08-30T08:52:16.000Z</time>
                <name>Trackpoint 1918</name>
            </trkpt>
            <trkpt lat="50.0781632" lon="8.9641064">
                <ele>108.0</ele>
                <time>2020-08-30T08:52:19.000Z</time>
                <name>Trackpoint 1919</name>
            </trkpt>
            <trkpt lat="50.0781696" lon="8.9640056">
                <ele>108.0</ele>
                <time>2020-08-30T08:52:22.000Z</time>
                <name>Trackpoint 1920</name>
            </trkpt>
            <trkpt lat="50.0781824" lon="8.9638952">
                <ele>108.0</ele>
                <time>2020-08-30T08:52:50.000Z</time>
                <name>Trackpoint 1921</name>
            </trkpt>
            <trkpt lat="50.0781664" lon="8.963768">
                <ele>108.0</ele>
                <time>2020-08-30T08:52:53.000Z</time>
                <name>Trackpoint 1922</name>
            </trkpt>
            <trkpt lat="50.0781664" lon="8.9636536">
                <ele>108.0</ele>
                <time>2020-08-30T08:52:55.000Z</time>
                <name>Trackpoint 1923</name>
            </trkpt>
            <trkpt lat="50.0781696" lon="8.9635512">
                <ele>108.0</ele>
                <time>2020-08-30T08:52:57.000Z</time>
                <name>Trackpoint 1924</name>
            </trkpt>
            <trkpt lat="50.078176" lon="8.9634184">
                <ele>108.0</ele>
                <time>2020-08-30T08:52:59.000Z</time>
                <name>Trackpoint 1925</name>
            </trkpt>
            <trkpt lat="50.0781824" lon="8.9632928">
                <ele>108.0</ele>
                <time>2020-08-30T08:53:01.000Z</time>
                <name>Trackpoint 1926</name>
            </trkpt>
            <trkpt lat="50.0781792" lon="8.9631664">
                <ele>108.0</ele>
                <time>2020-08-30T08:53:03.000Z</time>
                <name>Trackpoint 1927</name>
            </trkpt>
            <trkpt lat="50.0781856" lon="8.9630416">
                <ele>108.0</ele>
                <time>2020-08-30T08:53:05.000Z</time>
                <name>Trackpoint 1928</name>
            </trkpt>
            <trkpt lat="50.0781888" lon="8.962916">
                <ele>108.0</ele>
                <time>2020-08-30T08:53:07.000Z</time>
                <name>Trackpoint 1929</name>
            </trkpt>
            <trkpt lat="50.0781952" lon="8.96276">
                <ele>108.0</ele>
                <time>2020-08-30T08:53:09.000Z</time>
                <name>Trackpoint 1930</name>
            </trkpt>
            <trkpt lat="50.0781888" lon="8.962608">
                <ele>108.0</ele>
                <time>2020-08-30T08:53:11.000Z</time>
                <name>Trackpoint 1931</name>
            </trkpt>
            <trkpt lat="50.0781696" lon="8.9624272">
                <ele>108.0</ele>
                <time>2020-08-30T08:53:13.000Z</time>
                <name>Trackpoint 1932</name>
            </trkpt>
            <trkpt lat="50.0781632" lon="8.9622984">
                <ele>108.0</ele>
                <time>2020-08-30T08:53:15.000Z</time>
                <name>Trackpoint 1933</name>
            </trkpt>
            <trkpt lat="50.0781632" lon="8.9621624">
                <ele>108.0</ele>
                <time>2020-08-30T08:53:17.000Z</time>
                <name>Trackpoint 1934</name>
            </trkpt>
            <trkpt lat="50.0781632" lon="8.9620416">
                <ele>108.0</ele>
                <time>2020-08-30T08:53:19.000Z</time>
                <name>Trackpoint 1935</name>
            </trkpt>
            <trkpt lat="50.0781664" lon="8.9619312">
                <ele>108.0</ele>
                <time>2020-08-30T08:53:21.000Z</time>
                <name>Trackpoint 1936</name>
            </trkpt>
            <trkpt lat="50.0781792" lon="8.961828">
                <ele>108.0</ele>
                <time>2020-08-30T08:53:23.000Z</time>
                <name>Trackpoint 1937</name>
            </trkpt>
            <trkpt lat="50.0781696" lon="8.961728">
                <ele>108.0</ele>
                <time>2020-08-30T08:53:44.000Z</time>
                <name>Trackpoint 1938</name>
            </trkpt>
            <trkpt lat="50.07816" lon="8.9616336">
                <ele>108.0</ele>
                <time>2020-08-30T08:53:46.000Z</time>
                <name>Trackpoint 1939</name>
            </trkpt>
            <trkpt lat="50.0781568" lon="8.961516">
                <ele>108.0</ele>
                <time>2020-08-30T08:53:48.000Z</time>
                <name>Trackpoint 1940</name>
            </trkpt>
            <trkpt lat="50.0781472" lon="8.9613936">
                <ele>108.0</ele>
                <time>2020-08-30T08:53:50.000Z</time>
                <name>Trackpoint 1941</name>
            </trkpt>
            <trkpt lat="50.0781376" lon="8.961244">
                <ele>108.0</ele>
                <time>2020-08-30T08:53:52.000Z</time>
                <name>Trackpoint 1942</name>
            </trkpt>
            <trkpt lat="50.0781312" lon="8.9611256">
                <ele>108.0</ele>
                <time>2020-08-30T08:53:54.000Z</time>
                <name>Trackpoint 1943</name>
            </trkpt>
            <trkpt lat="50.078128" lon="8.9610008">
                <ele>108.0</ele>
                <time>2020-08-30T08:53:56.000Z</time>
                <name>Trackpoint 1944</name>
            </trkpt>
            <trkpt lat="50.0781248" lon="8.9608768">
                <ele>108.0</ele>
                <time>2020-08-30T08:53:58.000Z</time>
                <name>Trackpoint 1945</name>
            </trkpt>
            <trkpt lat="50.078112" lon="8.96076">
                <ele>108.0</ele>
                <time>2020-08-30T08:54:00.000Z</time>
                <name>Trackpoint 1946</name>
            </trkpt>
            <trkpt lat="50.0781088" lon="8.9606536">
                <ele>108.0</ele>
                <time>2020-08-30T08:54:02.000Z</time>
                <name>Trackpoint 1947</name>
            </trkpt>
            <trkpt lat="50.0781024" lon="8.9605176">
                <ele>108.0</ele>
                <time>2020-08-30T08:54:04.000Z</time>
                <name>Trackpoint 1948</name>
            </trkpt>
            <trkpt lat="50.0780896" lon="8.9603528">
                <ele>108.0</ele>
                <time>2020-08-30T08:54:06.000Z</time>
                <name>Trackpoint 1949</name>
            </trkpt>
            <trkpt lat="50.0780864" lon="8.960188">
                <ele>108.0</ele>
                <time>2020-08-30T08:54:08.000Z</time>
                <name>Trackpoint 1950</name>
            </trkpt>
            <trkpt lat="50.0780864" lon="8.9600264">
                <ele>108.0</ele>
                <time>2020-08-30T08:54:10.000Z</time>
                <name>Trackpoint 1951</name>
            </trkpt>
            <trkpt lat="50.0780864" lon="8.9598704">
                <ele>108.0</ele>
                <time>2020-08-30T08:54:12.000Z</time>
                <name>Trackpoint 1952</name>
            </trkpt>
            <trkpt lat="50.0780896" lon="8.95972">
                <ele>108.0</ele>
                <time>2020-08-30T08:54:14.000Z</time>
                <name>Trackpoint 1953</name>
            </trkpt>
            <trkpt lat="50.078096" lon="8.959572">
                <ele>108.0</ele>
                <time>2020-08-30T08:54:16.000Z</time>
                <name>Trackpoint 1954</name>
            </trkpt>
            <trkpt lat="50.0780992" lon="8.95942">
                <ele>108.0</ele>
                <time>2020-08-30T08:54:18.000Z</time>
                <name>Trackpoint 1955</name>
            </trkpt>
            <trkpt lat="50.0780992" lon="8.9592736">
                <ele>108.0</ele>
                <time>2020-08-30T08:54:20.000Z</time>
                <name>Trackpoint 1956</name>
            </trkpt>
            <trkpt lat="50.0780992" lon="8.9591216">
                <ele>107.0</ele>
                <time>2020-08-30T08:54:22.000Z</time>
                <name>Trackpoint 1957</name>
            </trkpt>
            <trkpt lat="50.0780992" lon="8.9589704">
                <ele>107.0</ele>
                <time>2020-08-30T08:54:24.000Z</time>
                <name>Trackpoint 1958</name>
            </trkpt>
            <trkpt lat="50.0780864" lon="8.9588336">
                <ele>107.0</ele>
                <time>2020-08-30T08:54:26.000Z</time>
                <name>Trackpoint 1959</name>
            </trkpt>
            <trkpt lat="50.078064" lon="8.9587072">
                <ele>107.0</ele>
                <time>2020-08-30T08:54:28.000Z</time>
                <name>Trackpoint 1960</name>
            </trkpt>
            <trkpt lat="50.0780576" lon="8.9585616">
                <ele>107.0</ele>
                <time>2020-08-30T08:54:30.000Z</time>
                <name>Trackpoint 1961</name>
            </trkpt>
            <trkpt lat="50.078048" lon="8.958408">
                <ele>108.0</ele>
                <time>2020-08-30T08:54:32.000Z</time>
                <name>Trackpoint 1962</name>
            </trkpt>
            <trkpt lat="50.0780384" lon="8.9582456">
                <ele>108.0</ele>
                <time>2020-08-30T08:54:34.000Z</time>
                <name>Trackpoint 1963</name>
            </trkpt>
            <trkpt lat="50.0780192" lon="8.9581">
                <ele>108.0</ele>
                <time>2020-08-30T08:54:36.000Z</time>
                <name>Trackpoint 1964</name>
            </trkpt>
            <trkpt lat="50.0780064" lon="8.9579424">
                <ele>108.0</ele>
                <time>2020-08-30T08:54:38.000Z</time>
                <name>Trackpoint 1965</name>
            </trkpt>
            <trkpt lat="50.0780032" lon="8.9578512">
                <ele>108.0</ele>
                <time>2020-08-30T08:54:39.000Z</time>
                <name>Trackpoint 1966</name>
            </trkpt>
            <trkpt lat="50.0779904" lon="8.9576976">
                <ele>108.0</ele>
                <time>2020-08-30T08:54:41.000Z</time>
                <name>Trackpoint 1967</name>
            </trkpt>
            <trkpt lat="50.077984" lon="8.9575464">
                <ele>108.0</ele>
                <time>2020-08-30T08:54:43.000Z</time>
                <name>Trackpoint 1968</name>
            </trkpt>
            <trkpt lat="50.0779712" lon="8.9573984">
                <ele>108.0</ele>
                <time>2020-08-30T08:54:45.000Z</time>
                <name>Trackpoint 1969</name>
            </trkpt>
            <trkpt lat="50.0779648" lon="8.9572424">
                <ele>108.0</ele>
                <time>2020-08-30T08:54:47.000Z</time>
                <name>Trackpoint 1970</name>
            </trkpt>
            <trkpt lat="50.0779488" lon="8.9570984">
                <ele>108.0</ele>
                <time>2020-08-30T08:54:49.000Z</time>
                <name>Trackpoint 1971</name>
            </trkpt>
            <trkpt lat="50.0779456" lon="8.9569504">
                <ele>108.0</ele>
                <time>2020-08-30T08:54:51.000Z</time>
                <name>Trackpoint 1972</name>
            </trkpt>
            <trkpt lat="50.0779328" lon="8.9568232">
                <ele>108.0</ele>
                <time>2020-08-30T08:54:53.000Z</time>
                <name>Trackpoint 1973</name>
            </trkpt>
            <trkpt lat="50.0779232" lon="8.956692">
                <ele>108.0</ele>
                <time>2020-08-30T08:54:55.000Z</time>
                <name>Trackpoint 1974</name>
            </trkpt>
            <trkpt lat="50.0779136" lon="8.95654">
                <ele>108.0</ele>
                <time>2020-08-30T08:54:57.000Z</time>
                <name>Trackpoint 1975</name>
            </trkpt>
            <trkpt lat="50.0779072" lon="8.9563736">
                <ele>108.0</ele>
                <time>2020-08-30T08:54:59.000Z</time>
                <name>Trackpoint 1976</name>
            </trkpt>
            <trkpt lat="50.0779104" lon="8.95628">
                <ele>108.0</ele>
                <time>2020-08-30T08:55:00.000Z</time>
                <name>Trackpoint 1977</name>
            </trkpt>
            <trkpt lat="50.0779104" lon="8.9561168">
                <ele>108.0</ele>
                <time>2020-08-30T08:55:02.000Z</time>
                <name>Trackpoint 1978</name>
            </trkpt>
            <trkpt lat="50.07792" lon="8.9559568">
                <ele>108.0</ele>
                <time>2020-08-30T08:55:04.000Z</time>
                <name>Trackpoint 1979</name>
            </trkpt>
            <trkpt lat="50.07792" lon="8.9558048">
                <ele>108.0</ele>
                <time>2020-08-30T08:55:06.000Z</time>
                <name>Trackpoint 1980</name>
            </trkpt>
            <trkpt lat="50.0779232" lon="8.9557064">
                <ele>108.0</ele>
                <time>2020-08-30T08:55:07.000Z</time>
                <name>Trackpoint 1981</name>
            </trkpt>
            <trkpt lat="50.0779264" lon="8.9556112">
                <ele>108.0</ele>
                <time>2020-08-30T08:55:08.000Z</time>
                <name>Trackpoint 1982</name>
            </trkpt>
            <trkpt lat="50.0779328" lon="8.95552">
                <ele>108.0</ele>
                <time>2020-08-30T08:55:09.000Z</time>
                <name>Trackpoint 1983</name>
            </trkpt>
            <trkpt lat="50.0779392" lon="8.955352">
                <ele>108.0</ele>
                <time>2020-08-30T08:55:11.000Z</time>
                <name>Trackpoint 1984</name>
            </trkpt>
            <trkpt lat="50.0779424" lon="8.9551824">
                <ele>108.0</ele>
                <time>2020-08-30T08:55:13.000Z</time>
                <name>Trackpoint 1985</name>
            </trkpt>
            <trkpt lat="50.0779456" lon="8.9550152">
                <ele>108.0</ele>
                <time>2020-08-30T08:55:15.000Z</time>
                <name>Trackpoint 1986</name>
            </trkpt>
            <trkpt lat="50.0779456" lon="8.9548504">
                <ele>108.0</ele>
                <time>2020-08-30T08:55:17.000Z</time>
                <name>Trackpoint 1987</name>
            </trkpt>
            <trkpt lat="50.0779488" lon="8.9546808">
                <ele>108.0</ele>
                <time>2020-08-30T08:55:19.000Z</time>
                <name>Trackpoint 1988</name>
            </trkpt>
            <trkpt lat="50.077952" lon="8.9545072">
                <ele>108.0</ele>
                <time>2020-08-30T08:55:21.000Z</time>
                <name>Trackpoint 1989</name>
            </trkpt>
            <trkpt lat="50.0779648" lon="8.9544152">
                <ele>108.0</ele>
                <time>2020-08-30T08:55:22.000Z</time>
                <name>Trackpoint 1990</name>
            </trkpt>
            <trkpt lat="50.0779712" lon="8.9543216">
                <ele>108.0</ele>
                <time>2020-08-30T08:55:23.000Z</time>
                <name>Trackpoint 1991</name>
            </trkpt>
            <trkpt lat="50.0779776" lon="8.9542312">
                <ele>107.0</ele>
                <time>2020-08-30T08:55:24.000Z</time>
                <name>Trackpoint 1992</name>
            </trkpt>
            <trkpt lat="50.0779808" lon="8.9541384">
                <ele>108.0</ele>
                <time>2020-08-30T08:55:25.000Z</time>
                <name>Trackpoint 1993</name>
            </trkpt>
            <trkpt lat="50.077984" lon="8.9539616">
                <ele>108.0</ele>
                <time>2020-08-30T08:55:27.000Z</time>
                <name>Trackpoint 1994</name>
            </trkpt>
            <trkpt lat="50.0779904" lon="8.9537872">
                <ele>108.0</ele>
                <time>2020-08-30T08:55:29.000Z</time>
                <name>Trackpoint 1995</name>
            </trkpt>
            <trkpt lat="50.0779968" lon="8.953624">
                <ele>108.0</ele>
                <time>2020-08-30T08:55:31.000Z</time>
                <name>Trackpoint 1996</name>
            </trkpt>
            <trkpt lat="50.0780064" lon="8.953452">
                <ele>108.0</ele>
                <time>2020-08-30T08:55:33.000Z</time>
                <name>Trackpoint 1997</name>
            </trkpt>
            <trkpt lat="50.0780192" lon="8.9532816">
                <ele>107.0</ele>
                <time>2020-08-30T08:55:35.000Z</time>
                <name>Trackpoint 1998</name>
            </trkpt>
            <trkpt lat="50.0780288" lon="8.9531136">
                <ele>107.0</ele>
                <time>2020-08-30T08:55:37.000Z</time>
                <name>Trackpoint 1999</name>
            </trkpt>
            <trkpt lat="50.0780384" lon="8.95294">
                <ele>107.0</ele>
                <time>2020-08-30T08:55:39.000Z</time>
                <name>Trackpoint 2000</name>
            </trkpt>
            <trkpt lat="50.0780416" lon="8.9527768">
                <ele>107.0</ele>
                <time>2020-08-30T08:55:41.000Z</time>
                <name>Trackpoint 2001</name>
            </trkpt>
            <trkpt lat="50.078048" lon="8.9526168">
                <ele>108.0</ele>
                <time>2020-08-30T08:55:43.000Z</time>
                <name>Trackpoint 2002</name>
            </trkpt>
            <trkpt lat="50.0780512" lon="8.9524696">
                <ele>108.0</ele>
                <time>2020-08-30T08:55:45.000Z</time>
                <name>Trackpoint 2003</name>
            </trkpt>
            <trkpt lat="50.0780448" lon="8.9523248">
                <ele>107.0</ele>
                <time>2020-08-30T08:55:47.000Z</time>
                <name>Trackpoint 2004</name>
            </trkpt>
            <trkpt lat="50.0780512" lon="8.952164">
                <ele>107.0</ele>
                <time>2020-08-30T08:55:49.000Z</time>
                <name>Trackpoint 2005</name>
            </trkpt>
            <trkpt lat="50.0780608" lon="8.9520032">
                <ele>107.0</ele>
                <time>2020-08-30T08:55:51.000Z</time>
                <name>Trackpoint 2006</name>
            </trkpt>
            <trkpt lat="50.078064" lon="8.9518536">
                <ele>107.0</ele>
                <time>2020-08-30T08:55:53.000Z</time>
                <name>Trackpoint 2007</name>
            </trkpt>
            <trkpt lat="50.078064" lon="8.9517248">
                <ele>107.0</ele>
                <time>2020-08-30T08:55:55.000Z</time>
                <name>Trackpoint 2008</name>
            </trkpt>
            <trkpt lat="50.078096" lon="8.9516096">
                <ele>107.0</ele>
                <time>2020-08-30T08:55:57.000Z</time>
                <name>Trackpoint 2009</name>
            </trkpt>
            <trkpt lat="50.0781376" lon="8.9515112">
                <ele>107.0</ele>
                <time>2020-08-30T08:55:59.000Z</time>
                <name>Trackpoint 2010</name>
            </trkpt>
            <trkpt lat="50.0781888" lon="8.9514216">
                <ele>107.0</ele>
                <time>2020-08-30T08:56:01.000Z</time>
                <name>Trackpoint 2011</name>
            </trkpt>
            <trkpt lat="50.0782432" lon="8.9513056">
                <ele>107.0</ele>
                <time>2020-08-30T08:56:03.000Z</time>
                <name>Trackpoint 2012</name>
            </trkpt>
            <trkpt lat="50.0782624" lon="8.9511648">
                <ele>107.0</ele>
                <time>2020-08-30T08:56:05.000Z</time>
                <name>Trackpoint 2013</name>
            </trkpt>
            <trkpt lat="50.0782752" lon="8.9510184">
                <ele>107.0</ele>
                <time>2020-08-30T08:56:07.000Z</time>
                <name>Trackpoint 2014</name>
            </trkpt>
            <trkpt lat="50.0782752" lon="8.9508336">
                <ele>107.0</ele>
                <time>2020-08-30T08:56:09.000Z</time>
                <name>Trackpoint 2015</name>
            </trkpt>
            <trkpt lat="50.078288" lon="8.9507352">
                <ele>107.0</ele>
                <time>2020-08-30T08:56:10.000Z</time>
                <name>Trackpoint 2016</name>
            </trkpt>
            <trkpt lat="50.0783264" lon="8.9505384">
                <ele>107.0</ele>
                <time>2020-08-30T08:56:12.000Z</time>
                <name>Trackpoint 2017</name>
            </trkpt>
            <trkpt lat="50.0783488" lon="8.9503744">
                <ele>107.0</ele>
                <time>2020-08-30T08:56:14.000Z</time>
                <name>Trackpoint 2018</name>
            </trkpt>
            <trkpt lat="50.0783648" lon="8.9502432">
                <ele>107.0</ele>
                <time>2020-08-30T08:56:16.000Z</time>
                <name>Trackpoint 2019</name>
            </trkpt>
            <trkpt lat="50.0783936" lon="8.9501104">
                <ele>107.0</ele>
                <time>2020-08-30T08:56:18.000Z</time>
                <name>Trackpoint 2020</name>
            </trkpt>
            <trkpt lat="50.0784256" lon="8.9499416">
                <ele>107.0</ele>
                <time>2020-08-30T08:56:20.000Z</time>
                <name>Trackpoint 2021</name>
            </trkpt>
            <trkpt lat="50.0784352" lon="8.9498032">
                <ele>107.0</ele>
                <time>2020-08-30T08:56:22.000Z</time>
                <name>Trackpoint 2022</name>
            </trkpt>
            <trkpt lat="50.0784448" lon="8.9496696">
                <ele>108.0</ele>
                <time>2020-08-30T08:56:24.000Z</time>
                <name>Trackpoint 2023</name>
            </trkpt>
            <trkpt lat="50.07848" lon="8.9495448">
                <ele>108.0</ele>
                <time>2020-08-30T08:56:26.000Z</time>
                <name>Trackpoint 2024</name>
            </trkpt>
            <trkpt lat="50.078496" lon="8.9494496">
                <ele>108.0</ele>
                <time>2020-08-30T08:56:27.000Z</time>
                <name>Trackpoint 2025</name>
            </trkpt>
            <trkpt lat="50.0785152" lon="8.9492848">
                <ele>108.0</ele>
                <time>2020-08-30T08:56:29.000Z</time>
                <name>Trackpoint 2026</name>
            </trkpt>
            <trkpt lat="50.078544" lon="8.9491264">
                <ele>108.0</ele>
                <time>2020-08-30T08:56:31.000Z</time>
                <name>Trackpoint 2027</name>
            </trkpt>
            <trkpt lat="50.0785824" lon="8.9489848">
                <ele>107.0</ele>
                <time>2020-08-30T08:56:33.000Z</time>
                <name>Trackpoint 2028</name>
            </trkpt>
            <trkpt lat="50.0786144" lon="8.9488432">
                <ele>108.0</ele>
                <time>2020-08-30T08:56:35.000Z</time>
                <name>Trackpoint 2029</name>
            </trkpt>
            <trkpt lat="50.0786976" lon="8.9486904">
                <ele>108.0</ele>
                <time>2020-08-30T08:56:37.000Z</time>
                <name>Trackpoint 2030</name>
            </trkpt>
            <trkpt lat="50.0787392" lon="8.9485456">
                <ele>108.0</ele>
                <time>2020-08-30T08:56:39.000Z</time>
                <name>Trackpoint 2031</name>
            </trkpt>
            <trkpt lat="50.0787872" lon="8.9484016">
                <ele>108.0</ele>
                <time>2020-08-30T08:56:41.000Z</time>
                <name>Trackpoint 2032</name>
            </trkpt>
            <trkpt lat="50.0788256" lon="8.9482672">
                <ele>108.0</ele>
                <time>2020-08-30T08:56:43.000Z</time>
                <name>Trackpoint 2033</name>
            </trkpt>
            <trkpt lat="50.0788768" lon="8.9481248">
                <ele>108.0</ele>
                <time>2020-08-30T08:56:45.000Z</time>
                <name>Trackpoint 2034</name>
            </trkpt>
            <trkpt lat="50.0789248" lon="8.9479984">
                <ele>108.0</ele>
                <time>2020-08-30T08:56:47.000Z</time>
                <name>Trackpoint 2035</name>
            </trkpt>
            <trkpt lat="50.0789728" lon="8.9478632">
                <ele>108.0</ele>
                <time>2020-08-30T08:56:49.000Z</time>
                <name>Trackpoint 2036</name>
            </trkpt>
            <trkpt lat="50.0789824" lon="8.9477456">
                <ele>109.0</ele>
                <time>2020-08-30T08:56:51.000Z</time>
                <name>Trackpoint 2037</name>
            </trkpt>
            <trkpt lat="50.0789952" lon="8.947648">
                <ele>109.0</ele>
                <time>2020-08-30T08:56:53.000Z</time>
                <name>Trackpoint 2038</name>
            </trkpt>
            <trkpt lat="50.0790112" lon="8.947548">
                <ele>109.0</ele>
                <time>2020-08-30T08:56:55.000Z</time>
                <name>Trackpoint 2039</name>
            </trkpt>
            <trkpt lat="50.0790176" lon="8.9474352">
                <ele>110.0</ele>
                <time>2020-08-30T08:56:57.000Z</time>
                <name>Trackpoint 2040</name>
            </trkpt>
            <trkpt lat="50.0790496" lon="8.9473264">
                <ele>110.0</ele>
                <time>2020-08-30T08:56:59.000Z</time>
                <name>Trackpoint 2041</name>
            </trkpt>
            <trkpt lat="50.0790816" lon="8.9472176">
                <ele>110.0</ele>
                <time>2020-08-30T08:57:01.000Z</time>
                <name>Trackpoint 2042</name>
            </trkpt>
            <trkpt lat="50.07912" lon="8.9471152">
                <ele>111.0</ele>
                <time>2020-08-30T08:57:03.000Z</time>
                <name>Trackpoint 2043</name>
            </trkpt>
            <trkpt lat="50.0791744" lon="8.947012">
                <ele>111.0</ele>
                <time>2020-08-30T08:57:05.000Z</time>
                <name>Trackpoint 2044</name>
            </trkpt>
            <trkpt lat="50.0792224" lon="8.9469">
                <ele>111.0</ele>
                <time>2020-08-30T08:57:07.000Z</time>
                <name>Trackpoint 2045</name>
            </trkpt>
            <trkpt lat="50.0792768" lon="8.9467936">
                <ele>112.0</ele>
                <time>2020-08-30T08:57:09.000Z</time>
                <name>Trackpoint 2046</name>
            </trkpt>
            <trkpt lat="50.0793312" lon="8.946696">
                <ele>112.0</ele>
                <time>2020-08-30T08:57:11.000Z</time>
                <name>Trackpoint 2047</name>
            </trkpt>
            <trkpt lat="50.0793792" lon="8.9465952">
                <ele>113.0</ele>
                <time>2020-08-30T08:57:13.000Z</time>
                <name>Trackpoint 2048</name>
            </trkpt>
            <trkpt lat="50.0794112" lon="8.946488">
                <ele>115.0</ele>
                <time>2020-08-30T08:57:15.000Z</time>
                <name>Trackpoint 2049</name>
            </trkpt>
            <trkpt lat="50.0794496" lon="8.9464">
                <ele>116.0</ele>
                <time>2020-08-30T08:57:17.000Z</time>
                <name>Trackpoint 2050</name>
            </trkpt>
            <trkpt lat="50.0795136" lon="8.9463328">
                <ele>115.0</ele>
                <time>2020-08-30T08:57:19.000Z</time>
                <name>Trackpoint 2051</name>
            </trkpt>
            <trkpt lat="50.0795904" lon="8.946252">
                <ele>114.0</ele>
                <time>2020-08-30T08:57:21.000Z</time>
                <name>Trackpoint 2052</name>
            </trkpt>
            <trkpt lat="50.0796672" lon="8.9461448">
                <ele>113.0</ele>
                <time>2020-08-30T08:57:23.000Z</time>
                <name>Trackpoint 2053</name>
            </trkpt>
            <trkpt lat="50.0797376" lon="8.9460312">
                <ele>112.0</ele>
                <time>2020-08-30T08:57:25.000Z</time>
                <name>Trackpoint 2054</name>
            </trkpt>
            <trkpt lat="50.079824" lon="8.9459112">
                <ele>110.0</ele>
                <time>2020-08-30T08:57:27.000Z</time>
                <name>Trackpoint 2055</name>
            </trkpt>
            <trkpt lat="50.0799136" lon="8.9457848">
                <ele>110.0</ele>
                <time>2020-08-30T08:57:29.000Z</time>
                <name>Trackpoint 2056</name>
            </trkpt>
            <trkpt lat="50.0800032" lon="8.9456552">
                <ele>109.0</ele>
                <time>2020-08-30T08:57:31.000Z</time>
                <name>Trackpoint 2057</name>
            </trkpt>
            <trkpt lat="50.0800928" lon="8.9455272">
                <ele>108.0</ele>
                <time>2020-08-30T08:57:33.000Z</time>
                <name>Trackpoint 2058</name>
            </trkpt>
            <trkpt lat="50.0801856" lon="8.9453952">
                <ele>108.0</ele>
                <time>2020-08-30T08:57:35.000Z</time>
                <name>Trackpoint 2059</name>
            </trkpt>
            <trkpt lat="50.0802816" lon="8.9452648">
                <ele>108.0</ele>
                <time>2020-08-30T08:57:37.000Z</time>
                <name>Trackpoint 2060</name>
            </trkpt>
            <trkpt lat="50.0803744" lon="8.9451376">
                <ele>108.0</ele>
                <time>2020-08-30T08:57:39.000Z</time>
                <name>Trackpoint 2061</name>
            </trkpt>
            <trkpt lat="50.080464" lon="8.9449952">
                <ele>107.0</ele>
                <time>2020-08-30T08:57:41.000Z</time>
                <name>Trackpoint 2062</name>
            </trkpt>
            <trkpt lat="50.0805504" lon="8.944872">
                <ele>107.0</ele>
                <time>2020-08-30T08:57:43.000Z</time>
                <name>Trackpoint 2063</name>
            </trkpt>
            <trkpt lat="50.0806464" lon="8.9447544">
                <ele>108.0</ele>
                <time>2020-08-30T08:57:45.000Z</time>
                <name>Trackpoint 2064</name>
            </trkpt>
            <trkpt lat="50.0807296" lon="8.9446424">
                <ele>107.0</ele>
                <time>2020-08-30T08:57:47.000Z</time>
                <name>Trackpoint 2065</name>
            </trkpt>
            <trkpt lat="50.0808064" lon="8.9445312">
                <ele>106.0</ele>
                <time>2020-08-30T08:57:49.000Z</time>
                <name>Trackpoint 2066</name>
            </trkpt>
            <trkpt lat="50.080896" lon="8.9444288">
                <ele>106.0</ele>
                <time>2020-08-30T08:57:51.000Z</time>
                <name>Trackpoint 2067</name>
            </trkpt>
            <trkpt lat="50.0809856" lon="8.9443352">
                <ele>106.0</ele>
                <time>2020-08-30T08:57:53.000Z</time>
                <name>Trackpoint 2068</name>
            </trkpt>
            <trkpt lat="50.0810688" lon="8.94424">
                <ele>106.0</ele>
                <time>2020-08-30T08:57:55.000Z</time>
                <name>Trackpoint 2069</name>
            </trkpt>
            <trkpt lat="50.0811488" lon="8.9441416">
                <ele>106.0</ele>
                <time>2020-08-30T08:57:57.000Z</time>
                <name>Trackpoint 2070</name>
            </trkpt>
            <trkpt lat="50.0812416" lon="8.9440472">
                <ele>106.0</ele>
                <time>2020-08-30T08:57:59.000Z</time>
                <name>Trackpoint 2071</name>
            </trkpt>
            <trkpt lat="50.0813248" lon="8.943952">
                <ele>106.0</ele>
                <time>2020-08-30T08:58:01.000Z</time>
                <name>Trackpoint 2072</name>
            </trkpt>
            <trkpt lat="50.081408" lon="8.9438536">
                <ele>106.0</ele>
                <time>2020-08-30T08:58:03.000Z</time>
                <name>Trackpoint 2073</name>
            </trkpt>
            <trkpt lat="50.0815008" lon="8.9437648">
                <ele>105.0</ele>
                <time>2020-08-30T08:58:05.000Z</time>
                <name>Trackpoint 2074</name>
            </trkpt>
            <trkpt lat="50.0815936" lon="8.9436768">
                <ele>105.0</ele>
                <time>2020-08-30T08:58:07.000Z</time>
                <name>Trackpoint 2075</name>
            </trkpt>
            <trkpt lat="50.0816928" lon="8.943588">
                <ele>105.0</ele>
                <time>2020-08-30T08:58:09.000Z</time>
                <name>Trackpoint 2076</name>
            </trkpt>
            <trkpt lat="50.0817824" lon="8.9435056">
                <ele>105.0</ele>
                <time>2020-08-30T08:58:11.000Z</time>
                <name>Trackpoint 2077</name>
            </trkpt>
            <trkpt lat="50.081872" lon="8.9434208">
                <ele>105.0</ele>
                <time>2020-08-30T08:58:13.000Z</time>
                <name>Trackpoint 2078</name>
            </trkpt>
            <trkpt lat="50.0819616" lon="8.9433336">
                <ele>105.0</ele>
                <time>2020-08-30T08:58:15.000Z</time>
                <name>Trackpoint 2079</name>
            </trkpt>
            <trkpt lat="50.082048" lon="8.943252">
                <ele>105.0</ele>
                <time>2020-08-30T08:58:17.000Z</time>
                <name>Trackpoint 2080</name>
            </trkpt>
            <trkpt lat="50.0821152" lon="8.9431816">
                <ele>105.0</ele>
                <time>2020-08-30T08:58:19.000Z</time>
                <name>Trackpoint 2081</name>
            </trkpt>
            <trkpt lat="50.082176" lon="8.9431136">
                <ele>105.0</ele>
                <time>2020-08-30T08:58:21.000Z</time>
                <name>Trackpoint 2082</name>
            </trkpt>
            <trkpt lat="50.0822592" lon="8.9430104">
                <ele>105.0</ele>
                <time>2020-08-30T08:58:24.000Z</time>
                <name>Trackpoint 2083</name>
            </trkpt>
            <trkpt lat="50.0823456" lon="8.9429232">
                <ele>106.0</ele>
                <time>2020-08-30T08:58:27.000Z</time>
                <name>Trackpoint 2084</name>
            </trkpt>
            <trkpt lat="50.0824544" lon="8.9428568">
                <ele>106.0</ele>
                <time>2020-08-30T08:58:30.000Z</time>
                <name>Trackpoint 2085</name>
            </trkpt>
            <trkpt lat="50.0825312" lon="8.9427944">
                <ele>106.0</ele>
                <time>2020-08-30T08:58:32.000Z</time>
                <name>Trackpoint 2086</name>
            </trkpt>
            <trkpt lat="50.0826048" lon="8.9427416">
                <ele>106.0</ele>
                <time>2020-08-30T08:58:34.000Z</time>
                <name>Trackpoint 2087</name>
            </trkpt>
            <trkpt lat="50.0826912" lon="8.9426848">
                <ele>105.0</ele>
                <time>2020-08-30T08:58:36.000Z</time>
                <name>Trackpoint 2088</name>
            </trkpt>
            <trkpt lat="50.0827744" lon="8.9426144">
                <ele>105.0</ele>
                <time>2020-08-30T08:58:38.000Z</time>
                <name>Trackpoint 2089</name>
            </trkpt>
            <trkpt lat="50.0828544" lon="8.9425496">
                <ele>105.0</ele>
                <time>2020-08-30T08:58:40.000Z</time>
                <name>Trackpoint 2090</name>
            </trkpt>
            <trkpt lat="50.082944" lon="8.9424888">
                <ele>106.0</ele>
                <time>2020-08-30T08:58:42.000Z</time>
                <name>Trackpoint 2091</name>
            </trkpt>
            <trkpt lat="50.0830304" lon="8.9424288">
                <ele>106.0</ele>
                <time>2020-08-30T08:58:44.000Z</time>
                <name>Trackpoint 2092</name>
            </trkpt>
            <trkpt lat="50.0831232" lon="8.9423664">
                <ele>106.0</ele>
                <time>2020-08-30T08:58:46.000Z</time>
                <name>Trackpoint 2093</name>
            </trkpt>
            <trkpt lat="50.0832192" lon="8.9423048">
                <ele>106.0</ele>
                <time>2020-08-30T08:58:48.000Z</time>
                <name>Trackpoint 2094</name>
            </trkpt>
            <trkpt lat="50.083312" lon="8.942248">
                <ele>105.0</ele>
                <time>2020-08-30T08:58:50.000Z</time>
                <name>Trackpoint 2095</name>
            </trkpt>
            <trkpt lat="50.0834112" lon="8.9422016">
                <ele>105.0</ele>
                <time>2020-08-30T08:58:52.000Z</time>
                <name>Trackpoint 2096</name>
            </trkpt>
            <trkpt lat="50.0835104" lon="8.942152">
                <ele>105.0</ele>
                <time>2020-08-30T08:58:54.000Z</time>
                <name>Trackpoint 2097</name>
            </trkpt>
            <trkpt lat="50.0836064" lon="8.9421032">
                <ele>106.0</ele>
                <time>2020-08-30T08:58:56.000Z</time>
                <name>Trackpoint 2098</name>
            </trkpt>
            <trkpt lat="50.0837056" lon="8.9420568">
                <ele>103.0</ele>
                <time>2020-08-30T08:59:22.000Z</time>
                <name>Trackpoint 2099</name>
            </trkpt>
            <trkpt lat="50.0837856" lon="8.9420096">
                <ele>103.0</ele>
                <time>2020-08-30T08:59:25.000Z</time>
                <name>Trackpoint 2100</name>
            </trkpt>
            <trkpt lat="50.0838976" lon="8.94196">
                <ele>103.0</ele>
                <time>2020-08-30T08:59:28.000Z</time>
                <name>Trackpoint 2101</name>
            </trkpt>
            <trkpt lat="50.0839808" lon="8.9419136">
                <ele>103.0</ele>
                <time>2020-08-30T08:59:30.000Z</time>
                <name>Trackpoint 2102</name>
            </trkpt>
            <trkpt lat="50.0840672" lon="8.9418632">
                <ele>104.0</ele>
                <time>2020-08-30T08:59:32.000Z</time>
                <name>Trackpoint 2103</name>
            </trkpt>
            <trkpt lat="50.08416" lon="8.94182">
                <ele>104.0</ele>
                <time>2020-08-30T08:59:34.000Z</time>
                <name>Trackpoint 2104</name>
            </trkpt>
            <trkpt lat="50.0842592" lon="8.9417712">
                <ele>104.0</ele>
                <time>2020-08-30T08:59:36.000Z</time>
                <name>Trackpoint 2105</name>
            </trkpt>
            <trkpt lat="50.0843584" lon="8.9417216">
                <ele>104.0</ele>
                <time>2020-08-30T08:59:38.000Z</time>
                <name>Trackpoint 2106</name>
            </trkpt>
            <trkpt lat="50.084464" lon="8.94168">
                <ele>104.0</ele>
                <time>2020-08-30T08:59:40.000Z</time>
                <name>Trackpoint 2107</name>
            </trkpt>
            <trkpt lat="50.0845696" lon="8.9416464">
                <ele>104.0</ele>
                <time>2020-08-30T08:59:42.000Z</time>
                <name>Trackpoint 2108</name>
            </trkpt>
            <trkpt lat="50.084672" lon="8.9416128">
                <ele>104.0</ele>
                <time>2020-08-30T08:59:44.000Z</time>
                <name>Trackpoint 2109</name>
            </trkpt>
            <trkpt lat="50.0847968" lon="8.9416016">
                <ele>104.0</ele>
                <time>2020-08-30T08:59:47.000Z</time>
                <name>Trackpoint 2110</name>
            </trkpt>
            <trkpt lat="50.0848896" lon="8.9416816">
                <ele>105.0</ele>
                <time>2020-08-30T08:59:51.000Z</time>
                <name>Trackpoint 2111</name>
            </trkpt>
            <trkpt lat="50.084992" lon="8.94178">
                <ele>105.0</ele>
                <time>2020-08-30T08:59:54.000Z</time>
                <name>Trackpoint 2112</name>
            </trkpt>
            <trkpt lat="50.0850592" lon="8.941856">
                <ele>105.0</ele>
                <time>2020-08-30T08:59:56.000Z</time>
                <name>Trackpoint 2113</name>
            </trkpt>
            <trkpt lat="50.0851296" lon="8.941952">
                <ele>105.0</ele>
                <time>2020-08-30T08:59:58.000Z</time>
                <name>Trackpoint 2114</name>
            </trkpt>
            <trkpt lat="50.0852192" lon="8.942088">
                <ele>105.0</ele>
                <time>2020-08-30T09:00:00.000Z</time>
                <name>Trackpoint 2115</name>
            </trkpt>
            <trkpt lat="50.085296" lon="8.9422168">
                <ele>106.0</ele>
                <time>2020-08-30T09:00:02.000Z</time>
                <name>Trackpoint 2116</name>
            </trkpt>
            <trkpt lat="50.0853888" lon="8.9423128">
                <ele>106.0</ele>
                <time>2020-08-30T09:00:04.000Z</time>
                <name>Trackpoint 2117</name>
            </trkpt>
            <trkpt lat="50.085488" lon="8.942384">
                <ele>106.0</ele>
                <time>2020-08-30T09:00:06.000Z</time>
                <name>Trackpoint 2118</name>
            </trkpt>
            <trkpt lat="50.0855936" lon="8.9424184">
                <ele>106.0</ele>
                <time>2020-08-30T09:00:08.000Z</time>
                <name>Trackpoint 2119</name>
            </trkpt>
            <trkpt lat="50.0856928" lon="8.9424384">
                <ele>106.0</ele>
                <time>2020-08-30T09:00:10.000Z</time>
                <name>Trackpoint 2120</name>
            </trkpt>
            <trkpt lat="50.0857888" lon="8.942436">
                <ele>106.0</ele>
                <time>2020-08-30T09:00:12.000Z</time>
                <name>Trackpoint 2121</name>
            </trkpt>
            <trkpt lat="50.0858816" lon="8.9424232">
                <ele>106.0</ele>
                <time>2020-08-30T09:00:14.000Z</time>
                <name>Trackpoint 2122</name>
            </trkpt>
            <trkpt lat="50.0860096" lon="8.9424152">
                <ele>106.0</ele>
                <time>2020-08-30T09:00:17.000Z</time>
                <name>Trackpoint 2123</name>
            </trkpt>
            <trkpt lat="50.0861024" lon="8.9424">
                <ele>106.0</ele>
                <time>2020-08-30T09:00:19.000Z</time>
                <name>Trackpoint 2124</name>
            </trkpt>
            <trkpt lat="50.0861984" lon="8.94238">
                <ele>106.0</ele>
                <time>2020-08-30T09:00:21.000Z</time>
                <name>Trackpoint 2125</name>
            </trkpt>
            <trkpt lat="50.086288" lon="8.9423616">
                <ele>106.0</ele>
                <time>2020-08-30T09:00:23.000Z</time>
                <name>Trackpoint 2126</name>
            </trkpt>
            <trkpt lat="50.0863872" lon="8.9423376">
                <ele>106.0</ele>
                <time>2020-08-30T09:00:25.000Z</time>
                <name>Trackpoint 2127</name>
            </trkpt>
            <trkpt lat="50.0864864" lon="8.9423064">
                <ele>106.0</ele>
                <time>2020-08-30T09:00:27.000Z</time>
                <name>Trackpoint 2128</name>
            </trkpt>
            <trkpt lat="50.0865952" lon="8.9423064">
                <ele>106.0</ele>
                <time>2020-08-30T09:00:29.000Z</time>
                <name>Trackpoint 2129</name>
            </trkpt>
            <trkpt lat="50.086704" lon="8.9423152">
                <ele>106.0</ele>
                <time>2020-08-30T09:00:31.000Z</time>
                <name>Trackpoint 2130</name>
            </trkpt>
            <trkpt lat="50.0868096" lon="8.9423088">
                <ele>106.0</ele>
                <time>2020-08-30T09:00:33.000Z</time>
                <name>Trackpoint 2131</name>
            </trkpt>
            <trkpt lat="50.0869152" lon="8.9423048">
                <ele>106.0</ele>
                <time>2020-08-30T09:00:35.000Z</time>
                <name>Trackpoint 2132</name>
            </trkpt>
            <trkpt lat="50.0870144" lon="8.9422912">
                <ele>106.0</ele>
                <time>2020-08-30T09:00:37.000Z</time>
                <name>Trackpoint 2133</name>
            </trkpt>
            <trkpt lat="50.087104" lon="8.94228">
                <ele>106.0</ele>
                <time>2020-08-30T09:00:39.000Z</time>
                <name>Trackpoint 2134</name>
            </trkpt>
            <trkpt lat="50.0872" lon="8.9422776">
                <ele>106.0</ele>
                <time>2020-08-30T09:00:41.000Z</time>
                <name>Trackpoint 2135</name>
            </trkpt>
            <trkpt lat="50.0872992" lon="8.9422864">
                <ele>106.0</ele>
                <time>2020-08-30T09:00:43.000Z</time>
                <name>Trackpoint 2136</name>
            </trkpt>
            <trkpt lat="50.087392" lon="8.942284">
                <ele>106.0</ele>
                <time>2020-08-30T09:00:45.000Z</time>
                <name>Trackpoint 2137</name>
            </trkpt>
            <trkpt lat="50.0874912" lon="8.9423">
                <ele>107.0</ele>
                <time>2020-08-30T09:00:47.000Z</time>
                <name>Trackpoint 2138</name>
            </trkpt>
            <trkpt lat="50.0875808" lon="8.9423216">
                <ele>107.0</ele>
                <time>2020-08-30T09:00:49.000Z</time>
                <name>Trackpoint 2139</name>
            </trkpt>
            <trkpt lat="50.0876832" lon="8.9423336">
                <ele>107.0</ele>
                <time>2020-08-30T09:00:51.000Z</time>
                <name>Trackpoint 2140</name>
            </trkpt>
            <trkpt lat="50.0877824" lon="8.9423288">
                <ele>106.0</ele>
                <time>2020-08-30T09:00:53.000Z</time>
                <name>Trackpoint 2141</name>
            </trkpt>
            <trkpt lat="50.087888" lon="8.9423368">
                <ele>105.0</ele>
                <time>2020-08-30T09:00:55.000Z</time>
                <name>Trackpoint 2142</name>
            </trkpt>
            <trkpt lat="50.0879776" lon="8.9423464">
                <ele>105.0</ele>
                <time>2020-08-30T09:00:57.000Z</time>
                <name>Trackpoint 2143</name>
            </trkpt>
            <trkpt lat="50.08808" lon="8.9423504">
                <ele>106.0</ele>
                <time>2020-08-30T09:00:59.000Z</time>
                <name>Trackpoint 2144</name>
            </trkpt>
            <trkpt lat="50.0881728" lon="8.9423376">
                <ele>106.0</ele>
                <time>2020-08-30T09:01:01.000Z</time>
                <name>Trackpoint 2145</name>
            </trkpt>
            <trkpt lat="50.088272" lon="8.9423304">
                <ele>106.0</ele>
                <time>2020-08-30T09:01:03.000Z</time>
                <name>Trackpoint 2146</name>
            </trkpt>
            <trkpt lat="50.0883744" lon="8.9423128">
                <ele>107.0</ele>
                <time>2020-08-30T09:01:05.000Z</time>
                <name>Trackpoint 2147</name>
            </trkpt>
            <trkpt lat="50.0884736" lon="8.9423064">
                <ele>107.0</ele>
                <time>2020-08-30T09:01:07.000Z</time>
                <name>Trackpoint 2148</name>
            </trkpt>
            <trkpt lat="50.0885696" lon="8.9422968">
                <ele>107.0</ele>
                <time>2020-08-30T09:01:09.000Z</time>
                <name>Trackpoint 2149</name>
            </trkpt>
            <trkpt lat="50.0886624" lon="8.942288">
                <ele>106.0</ele>
                <time>2020-08-30T09:01:11.000Z</time>
                <name>Trackpoint 2150</name>
            </trkpt>
            <trkpt lat="50.0887616" lon="8.9422704">
                <ele>106.0</ele>
                <time>2020-08-30T09:01:13.000Z</time>
                <name>Trackpoint 2151</name>
            </trkpt>
            <trkpt lat="50.088864" lon="8.9422504">
                <ele>106.0</ele>
                <time>2020-08-30T09:01:15.000Z</time>
                <name>Trackpoint 2152</name>
            </trkpt>
            <trkpt lat="50.0889664" lon="8.94224">
                <ele>106.0</ele>
                <time>2020-08-30T09:01:17.000Z</time>
                <name>Trackpoint 2153</name>
            </trkpt>
            <trkpt lat="50.0890656" lon="8.9422352">
                <ele>106.0</ele>
                <time>2020-08-30T09:01:19.000Z</time>
                <name>Trackpoint 2154</name>
            </trkpt>
            <trkpt lat="50.0891808" lon="8.942232">
                <ele>105.0</ele>
                <time>2020-08-30T09:01:21.000Z</time>
                <name>Trackpoint 2155</name>
            </trkpt>
            <trkpt lat="50.08928" lon="8.9422168">
                <ele>105.0</ele>
                <time>2020-08-30T09:01:23.000Z</time>
                <name>Trackpoint 2156</name>
            </trkpt>
            <trkpt lat="50.0893696" lon="8.9422">
                <ele>106.0</ele>
                <time>2020-08-30T09:01:25.000Z</time>
                <name>Trackpoint 2157</name>
            </trkpt>
            <trkpt lat="50.0894688" lon="8.9421816">
                <ele>106.0</ele>
                <time>2020-08-30T09:01:27.000Z</time>
                <name>Trackpoint 2158</name>
            </trkpt>
            <trkpt lat="50.089568" lon="8.94216">
                <ele>107.0</ele>
                <time>2020-08-30T09:01:29.000Z</time>
                <name>Trackpoint 2159</name>
            </trkpt>
            <trkpt lat="50.0896672" lon="8.942132">
                <ele>107.0</ele>
                <time>2020-08-30T09:01:31.000Z</time>
                <name>Trackpoint 2160</name>
            </trkpt>
            <trkpt lat="50.0897728" lon="8.9421064">
                <ele>107.0</ele>
                <time>2020-08-30T09:01:33.000Z</time>
                <name>Trackpoint 2161</name>
            </trkpt>
            <trkpt lat="50.0898752" lon="8.9420904">
                <ele>106.0</ele>
                <time>2020-08-30T09:01:35.000Z</time>
                <name>Trackpoint 2162</name>
            </trkpt>
            <trkpt lat="50.0899744" lon="8.9420656">
                <ele>107.0</ele>
                <time>2020-08-30T09:01:37.000Z</time>
                <name>Trackpoint 2163</name>
            </trkpt>
            <trkpt lat="50.0900704" lon="8.9420416">
                <ele>107.0</ele>
                <time>2020-08-30T09:01:39.000Z</time>
                <name>Trackpoint 2164</name>
            </trkpt>
            <trkpt lat="50.0901664" lon="8.9420272">
                <ele>107.0</ele>
                <time>2020-08-30T09:01:41.000Z</time>
                <name>Trackpoint 2165</name>
            </trkpt>
            <trkpt lat="50.0902592" lon="8.9419936">
                <ele>106.0</ele>
                <time>2020-08-30T09:01:43.000Z</time>
                <name>Trackpoint 2166</name>
            </trkpt>
            <trkpt lat="50.0903552" lon="8.9419816">
                <ele>106.0</ele>
                <time>2020-08-30T09:01:45.000Z</time>
                <name>Trackpoint 2167</name>
            </trkpt>
            <trkpt lat="50.090448" lon="8.9419944">
                <ele>105.0</ele>
                <time>2020-08-30T09:01:47.000Z</time>
                <name>Trackpoint 2168</name>
            </trkpt>
            <trkpt lat="50.0905536" lon="8.94198">
                <ele>105.0</ele>
                <time>2020-08-30T09:01:49.000Z</time>
                <name>Trackpoint 2169</name>
            </trkpt>
            <trkpt lat="50.0906528" lon="8.9419696">
                <ele>105.0</ele>
                <time>2020-08-30T09:01:51.000Z</time>
                <name>Trackpoint 2170</name>
            </trkpt>
            <trkpt lat="50.090752" lon="8.9419584">
                <ele>104.0</ele>
                <time>2020-08-30T09:01:53.000Z</time>
                <name>Trackpoint 2171</name>
            </trkpt>
            <trkpt lat="50.0908544" lon="8.9419496">
                <ele>104.0</ele>
                <time>2020-08-30T09:01:55.000Z</time>
                <name>Trackpoint 2172</name>
            </trkpt>
            <trkpt lat="50.0909536" lon="8.9419384">
                <ele>104.0</ele>
                <time>2020-08-30T09:01:57.000Z</time>
                <name>Trackpoint 2173</name>
            </trkpt>
            <trkpt lat="50.0910528" lon="8.9419248">
                <ele>103.0</ele>
                <time>2020-08-30T09:01:59.000Z</time>
                <name>Trackpoint 2174</name>
            </trkpt>
            <trkpt lat="50.091152" lon="8.9419096">
                <ele>103.0</ele>
                <time>2020-08-30T09:02:01.000Z</time>
                <name>Trackpoint 2175</name>
            </trkpt>
            <trkpt lat="50.0912544" lon="8.9419">
                <ele>103.0</ele>
                <time>2020-08-30T09:02:03.000Z</time>
                <name>Trackpoint 2176</name>
            </trkpt>
            <trkpt lat="50.0913536" lon="8.9418848">
                <ele>102.0</ele>
                <time>2020-08-30T09:02:05.000Z</time>
                <name>Trackpoint 2177</name>
            </trkpt>
            <trkpt lat="50.0914528" lon="8.9418672">
                <ele>102.0</ele>
                <time>2020-08-30T09:02:07.000Z</time>
                <name>Trackpoint 2178</name>
            </trkpt>
            <trkpt lat="50.0915488" lon="8.9418472">
                <ele>102.0</ele>
                <time>2020-08-30T09:02:09.000Z</time>
                <name>Trackpoint 2179</name>
            </trkpt>
            <trkpt lat="50.091648" lon="8.9418224">
                <ele>102.0</ele>
                <time>2020-08-30T09:02:11.000Z</time>
                <name>Trackpoint 2180</name>
            </trkpt>
            <trkpt lat="50.0917472" lon="8.9418048">
                <ele>102.0</ele>
                <time>2020-08-30T09:02:13.000Z</time>
                <name>Trackpoint 2181</name>
            </trkpt>
            <trkpt lat="50.0918432" lon="8.941776">
                <ele>102.0</ele>
                <time>2020-08-30T09:02:15.000Z</time>
                <name>Trackpoint 2182</name>
            </trkpt>
            <trkpt lat="50.0919392" lon="8.9417552">
                <ele>102.0</ele>
                <time>2020-08-30T09:02:17.000Z</time>
                <name>Trackpoint 2183</name>
            </trkpt>
            <trkpt lat="50.092032" lon="8.9417336">
                <ele>103.0</ele>
                <time>2020-08-30T09:02:19.000Z</time>
                <name>Trackpoint 2184</name>
            </trkpt>
            <trkpt lat="50.092128" lon="8.9417112">
                <ele>103.0</ele>
                <time>2020-08-30T09:02:21.000Z</time>
                <name>Trackpoint 2185</name>
            </trkpt>
            <trkpt lat="50.0922272" lon="8.9416904">
                <ele>103.0</ele>
                <time>2020-08-30T09:02:23.000Z</time>
                <name>Trackpoint 2186</name>
            </trkpt>
            <trkpt lat="50.0923296" lon="8.9416712">
                <ele>103.0</ele>
                <time>2020-08-30T09:02:25.000Z</time>
                <name>Trackpoint 2187</name>
            </trkpt>
            <trkpt lat="50.0924288" lon="8.9416464">
                <ele>103.0</ele>
                <time>2020-08-30T09:02:27.000Z</time>
                <name>Trackpoint 2188</name>
            </trkpt>
            <trkpt lat="50.0925344" lon="8.9416176">
                <ele>103.0</ele>
                <time>2020-08-30T09:02:29.000Z</time>
                <name>Trackpoint 2189</name>
            </trkpt>
            <trkpt lat="50.0926336" lon="8.9415888">
                <ele>103.0</ele>
                <time>2020-08-30T09:02:31.000Z</time>
                <name>Trackpoint 2190</name>
            </trkpt>
            <trkpt lat="50.0927328" lon="8.9415712">
                <ele>103.0</ele>
                <time>2020-08-30T09:02:33.000Z</time>
                <name>Trackpoint 2191</name>
            </trkpt>
            <trkpt lat="50.0928384" lon="8.9415552">
                <ele>103.0</ele>
                <time>2020-08-30T09:02:35.000Z</time>
                <name>Trackpoint 2192</name>
            </trkpt>
            <trkpt lat="50.0929408" lon="8.941528">
                <ele>103.0</ele>
                <time>2020-08-30T09:02:37.000Z</time>
                <name>Trackpoint 2193</name>
            </trkpt>
            <trkpt lat="50.09304" lon="8.9415104">
                <ele>103.0</ele>
                <time>2020-08-30T09:02:39.000Z</time>
                <name>Trackpoint 2194</name>
            </trkpt>
            <trkpt lat="50.0931424" lon="8.9415">
                <ele>103.0</ele>
                <time>2020-08-30T09:02:41.000Z</time>
                <name>Trackpoint 2195</name>
            </trkpt>
            <trkpt lat="50.0932512" lon="8.9414904">
                <ele>103.0</ele>
                <time>2020-08-30T09:02:43.000Z</time>
                <name>Trackpoint 2196</name>
            </trkpt>
            <trkpt lat="50.0933536" lon="8.9414752">
                <ele>103.0</ele>
                <time>2020-08-30T09:02:45.000Z</time>
                <name>Trackpoint 2197</name>
            </trkpt>
            <trkpt lat="50.0934496" lon="8.9414616">
                <ele>102.0</ele>
                <time>2020-08-30T09:02:47.000Z</time>
                <name>Trackpoint 2198</name>
            </trkpt>
            <trkpt lat="50.0935872" lon="8.9414504">
                <ele>102.0</ele>
                <time>2020-08-30T09:02:50.000Z</time>
                <name>Trackpoint 2199</name>
            </trkpt>
            <trkpt lat="50.093712" lon="8.9414304">
                <ele>102.0</ele>
                <time>2020-08-30T09:02:53.000Z</time>
                <name>Trackpoint 2200</name>
            </trkpt>
            <trkpt lat="50.093824" lon="8.9414104">
                <ele>102.0</ele>
                <time>2020-08-30T09:02:56.000Z</time>
                <name>Trackpoint 2201</name>
            </trkpt>
            <trkpt lat="50.0939136" lon="8.9413832">
                <ele>102.0</ele>
                <time>2020-08-30T09:02:59.000Z</time>
                <name>Trackpoint 2202</name>
            </trkpt>
            <trkpt lat="50.0940064" lon="8.9414032">
                <ele>103.0</ele>
                <time>2020-08-30T09:03:54.000Z</time>
                <name>Trackpoint 2203</name>
            </trkpt>
            <trkpt lat="50.094112" lon="8.9413656">
                <ele>103.0</ele>
                <time>2020-08-30T09:03:58.000Z</time>
                <name>Trackpoint 2204</name>
            </trkpt>
            <trkpt lat="50.0942304" lon="8.9413296">
                <ele>103.0</ele>
                <time>2020-08-30T09:04:01.000Z</time>
                <name>Trackpoint 2205</name>
            </trkpt>
            <trkpt lat="50.094368" lon="8.9413016">
                <ele>103.0</ele>
                <time>2020-08-30T09:04:04.000Z</time>
                <name>Trackpoint 2206</name>
            </trkpt>
            <trkpt lat="50.0944512" lon="8.9412616">
                <ele>103.0</ele>
                <time>2020-08-30T09:04:06.000Z</time>
                <name>Trackpoint 2207</name>
            </trkpt>
            <trkpt lat="50.094544" lon="8.9412496">
                <ele>103.0</ele>
                <time>2020-08-30T09:04:08.000Z</time>
                <name>Trackpoint 2208</name>
            </trkpt>
            <trkpt lat="50.09464" lon="8.9412336">
                <ele>103.0</ele>
                <time>2020-08-30T09:04:10.000Z</time>
                <name>Trackpoint 2209</name>
            </trkpt>
            <trkpt lat="50.0947328" lon="8.9412048">
                <ele>103.0</ele>
                <time>2020-08-30T09:04:12.000Z</time>
                <name>Trackpoint 2210</name>
            </trkpt>
            <trkpt lat="50.0948288" lon="8.9411752">
                <ele>103.0</ele>
                <time>2020-08-30T09:04:14.000Z</time>
                <name>Trackpoint 2211</name>
            </trkpt>
            <trkpt lat="50.0949216" lon="8.9411496">
                <ele>103.0</ele>
                <time>2020-08-30T09:04:16.000Z</time>
                <name>Trackpoint 2212</name>
            </trkpt>
            <trkpt lat="50.0950176" lon="8.9411224">
                <ele>103.0</ele>
                <time>2020-08-30T09:04:18.000Z</time>
                <name>Trackpoint 2213</name>
            </trkpt>
            <trkpt lat="50.0951168" lon="8.941096">
                <ele>103.0</ele>
                <time>2020-08-30T09:04:20.000Z</time>
                <name>Trackpoint 2214</name>
            </trkpt>
            <trkpt lat="50.0952192" lon="8.9410712">
                <ele>103.0</ele>
                <time>2020-08-30T09:04:22.000Z</time>
                <name>Trackpoint 2215</name>
            </trkpt>
            <trkpt lat="50.0953152" lon="8.9410448">
                <ele>103.0</ele>
                <time>2020-08-30T09:04:24.000Z</time>
                <name>Trackpoint 2216</name>
            </trkpt>
            <trkpt lat="50.095408" lon="8.9410184">
                <ele>103.0</ele>
                <time>2020-08-30T09:04:26.000Z</time>
                <name>Trackpoint 2217</name>
            </trkpt>
            <trkpt lat="50.095504" lon="8.940984">
                <ele>103.0</ele>
                <time>2020-08-30T09:04:28.000Z</time>
                <name>Trackpoint 2218</name>
            </trkpt>
            <trkpt lat="50.0956" lon="8.9409552">
                <ele>103.0</ele>
                <time>2020-08-30T09:04:30.000Z</time>
                <name>Trackpoint 2219</name>
            </trkpt>
            <trkpt lat="50.0956928" lon="8.9409288">
                <ele>103.0</ele>
                <time>2020-08-30T09:04:32.000Z</time>
                <name>Trackpoint 2220</name>
            </trkpt>
            <trkpt lat="50.095792" lon="8.9409">
                <ele>103.0</ele>
                <time>2020-08-30T09:04:34.000Z</time>
                <name>Trackpoint 2221</name>
            </trkpt>
            <trkpt lat="50.0958848" lon="8.9408728">
                <ele>103.0</ele>
                <time>2020-08-30T09:04:36.000Z</time>
                <name>Trackpoint 2222</name>
            </trkpt>
            <trkpt lat="50.095984" lon="8.940848">
                <ele>103.0</ele>
                <time>2020-08-30T09:04:38.000Z</time>
                <name>Trackpoint 2223</name>
            </trkpt>
            <trkpt lat="50.0960832" lon="8.9408128">
                <ele>104.0</ele>
                <time>2020-08-30T09:04:40.000Z</time>
                <name>Trackpoint 2224</name>
            </trkpt>
            <trkpt lat="50.0961792" lon="8.940792">
                <ele>103.0</ele>
                <time>2020-08-30T09:04:42.000Z</time>
                <name>Trackpoint 2225</name>
            </trkpt>
            <trkpt lat="50.0962688" lon="8.9407656">
                <ele>104.0</ele>
                <time>2020-08-30T09:04:44.000Z</time>
                <name>Trackpoint 2226</name>
            </trkpt>
            <trkpt lat="50.096368" lon="8.940748">
                <ele>104.0</ele>
                <time>2020-08-30T09:04:46.000Z</time>
                <name>Trackpoint 2227</name>
            </trkpt>
            <trkpt lat="50.0964672" lon="8.940728">
                <ele>104.0</ele>
                <time>2020-08-30T09:04:48.000Z</time>
                <name>Trackpoint 2228</name>
            </trkpt>
            <trkpt lat="50.0965696" lon="8.940708">
                <ele>104.0</ele>
                <time>2020-08-30T09:04:50.000Z</time>
                <name>Trackpoint 2229</name>
            </trkpt>
            <trkpt lat="50.0966656" lon="8.9406856">
                <ele>104.0</ele>
                <time>2020-08-30T09:04:52.000Z</time>
                <name>Trackpoint 2230</name>
            </trkpt>
            <trkpt lat="50.096768" lon="8.9406664">
                <ele>104.0</ele>
                <time>2020-08-30T09:04:54.000Z</time>
                <name>Trackpoint 2231</name>
            </trkpt>
            <trkpt lat="50.0968576" lon="8.9406456">
                <ele>104.0</ele>
                <time>2020-08-30T09:04:56.000Z</time>
                <name>Trackpoint 2232</name>
            </trkpt>
            <trkpt lat="50.0969856" lon="8.9406208">
                <ele>104.0</ele>
                <time>2020-08-30T09:04:59.000Z</time>
                <name>Trackpoint 2233</name>
            </trkpt>
            <trkpt lat="50.0971104" lon="8.9406016">
                <ele>104.0</ele>
                <time>2020-08-30T09:05:02.000Z</time>
                <name>Trackpoint 2234</name>
            </trkpt>
            <trkpt lat="50.097232" lon="8.9405768">
                <ele>104.0</ele>
                <time>2020-08-30T09:05:05.000Z</time>
                <name>Trackpoint 2235</name>
            </trkpt>
            <trkpt lat="50.0973536" lon="8.9405544">
                <ele>104.0</ele>
                <time>2020-08-30T09:05:08.000Z</time>
                <name>Trackpoint 2236</name>
            </trkpt>
            <trkpt lat="50.0974688" lon="8.9405336">
                <ele>104.0</ele>
                <time>2020-08-30T09:05:11.000Z</time>
                <name>Trackpoint 2237</name>
            </trkpt>
            <trkpt lat="50.097584" lon="8.940508">
                <ele>104.0</ele>
                <time>2020-08-30T09:05:14.000Z</time>
                <name>Trackpoint 2238</name>
            </trkpt>
            <trkpt lat="50.0976768" lon="8.9404968">
                <ele>104.0</ele>
                <time>2020-08-30T09:05:16.000Z</time>
                <name>Trackpoint 2239</name>
            </trkpt>
            <trkpt lat="50.0977664" lon="8.9404848">
                <ele>103.0</ele>
                <time>2020-08-30T09:05:18.000Z</time>
                <name>Trackpoint 2240</name>
            </trkpt>
            <trkpt lat="50.0978592" lon="8.9404736">
                <ele>103.0</ele>
                <time>2020-08-30T09:05:20.000Z</time>
                <name>Trackpoint 2241</name>
            </trkpt>
            <trkpt lat="50.0979584" lon="8.9404624">
                <ele>103.0</ele>
                <time>2020-08-30T09:05:22.000Z</time>
                <name>Trackpoint 2242</name>
            </trkpt>
            <trkpt lat="50.0980672" lon="8.9404496">
                <ele>103.0</ele>
                <time>2020-08-30T09:05:24.000Z</time>
                <name>Trackpoint 2243</name>
            </trkpt>
            <trkpt lat="50.0981792" lon="8.9404352">
                <ele>104.0</ele>
                <time>2020-08-30T09:05:26.000Z</time>
                <name>Trackpoint 2244</name>
            </trkpt>
            <trkpt lat="50.0982816" lon="8.9404152">
                <ele>104.0</ele>
                <time>2020-08-30T09:05:28.000Z</time>
                <name>Trackpoint 2245</name>
            </trkpt>
            <trkpt lat="50.0983808" lon="8.9404096">
                <ele>104.0</ele>
                <time>2020-08-30T09:05:30.000Z</time>
                <name>Trackpoint 2246</name>
            </trkpt>
            <trkpt lat="50.0984832" lon="8.9404152">
                <ele>104.0</ele>
                <time>2020-08-30T09:05:33.000Z</time>
                <name>Trackpoint 2247</name>
            </trkpt>
            <trkpt lat="50.0985792" lon="8.94042">
                <ele>104.0</ele>
                <time>2020-08-30T09:05:35.000Z</time>
                <name>Trackpoint 2248</name>
            </trkpt>
            <trkpt lat="50.0986912" lon="8.9404336">
                <ele>104.0</ele>
                <time>2020-08-30T09:05:37.000Z</time>
                <name>Trackpoint 2249</name>
            </trkpt>
            <trkpt lat="50.0988032" lon="8.94046">
                <ele>104.0</ele>
                <time>2020-08-30T09:05:39.000Z</time>
                <name>Trackpoint 2250</name>
            </trkpt>
            <trkpt lat="50.098912" lon="8.9404736">
                <ele>104.0</ele>
                <time>2020-08-30T09:05:41.000Z</time>
                <name>Trackpoint 2251</name>
            </trkpt>
            <trkpt lat="50.0990144" lon="8.940488">
                <ele>105.0</ele>
                <time>2020-08-30T09:05:43.000Z</time>
                <name>Trackpoint 2252</name>
            </trkpt>
            <trkpt lat="50.0991264" lon="8.940508">
                <ele>105.0</ele>
                <time>2020-08-30T09:05:45.000Z</time>
                <name>Trackpoint 2253</name>
            </trkpt>
            <trkpt lat="50.0992256" lon="8.9405032">
                <ele>105.0</ele>
                <time>2020-08-30T09:05:47.000Z</time>
                <name>Trackpoint 2254</name>
            </trkpt>
            <trkpt lat="50.0993152" lon="8.940492">
                <ele>106.0</ele>
                <time>2020-08-30T09:05:49.000Z</time>
                <name>Trackpoint 2255</name>
            </trkpt>
            <trkpt lat="50.0994272" lon="8.9405696">
                <ele>105.0</ele>
                <time>2020-08-30T09:05:52.000Z</time>
                <name>Trackpoint 2256</name>
            </trkpt>
            <trkpt lat="50.0995072" lon="8.9406472">
                <ele>105.0</ele>
                <time>2020-08-30T09:05:54.000Z</time>
                <name>Trackpoint 2257</name>
            </trkpt>
            <trkpt lat="50.0995968" lon="8.940708">
                <ele>106.0</ele>
                <time>2020-08-30T09:05:56.000Z</time>
                <name>Trackpoint 2258</name>
            </trkpt>
            <trkpt lat="50.0997056" lon="8.940768">
                <ele>106.0</ele>
                <time>2020-08-30T09:05:58.000Z</time>
                <name>Trackpoint 2259</name>
            </trkpt>
            <trkpt lat="50.0998176" lon="8.9407968">
                <ele>106.0</ele>
                <time>2020-08-30T09:06:00.000Z</time>
                <name>Trackpoint 2260</name>
            </trkpt>
            <trkpt lat="50.0999296" lon="8.940788">
                <ele>106.0</ele>
                <time>2020-08-30T09:06:02.000Z</time>
                <name>Trackpoint 2261</name>
            </trkpt>
            <trkpt lat="50.100048" lon="8.9407768">
                <ele>106.0</ele>
                <time>2020-08-30T09:06:04.000Z</time>
                <name>Trackpoint 2262</name>
            </trkpt>
            <trkpt lat="50.1001696" lon="8.9407704">
                <ele>106.0</ele>
                <time>2020-08-30T09:06:06.000Z</time>
                <name>Trackpoint 2263</name>
            </trkpt>
            <trkpt lat="50.1002816" lon="8.9407616">
                <ele>106.0</ele>
                <time>2020-08-30T09:06:08.000Z</time>
                <name>Trackpoint 2264</name>
            </trkpt>
            <trkpt lat="50.1003968" lon="8.9407616">
                <ele>106.0</ele>
                <time>2020-08-30T09:06:10.000Z</time>
                <name>Trackpoint 2265</name>
            </trkpt>
            <trkpt lat="50.1005088" lon="8.9407456">
                <ele>106.0</ele>
                <time>2020-08-30T09:06:12.000Z</time>
                <name>Trackpoint 2266</name>
            </trkpt>
            <trkpt lat="50.1006176" lon="8.9407416">
                <ele>105.0</ele>
                <time>2020-08-30T09:06:14.000Z</time>
                <name>Trackpoint 2267</name>
            </trkpt>
            <trkpt lat="50.1007232" lon="8.940752">
                <ele>106.0</ele>
                <time>2020-08-30T09:06:16.000Z</time>
                <name>Trackpoint 2268</name>
            </trkpt>
            <trkpt lat="50.1008224" lon="8.9407704">
                <ele>106.0</ele>
                <time>2020-08-30T09:06:18.000Z</time>
                <name>Trackpoint 2269</name>
            </trkpt>
            <trkpt lat="50.1009344" lon="8.9408168">
                <ele>106.0</ele>
                <time>2020-08-30T09:06:20.000Z</time>
                <name>Trackpoint 2270</name>
            </trkpt>
            <trkpt lat="50.1010528" lon="8.940864">
                <ele>106.0</ele>
                <time>2020-08-30T09:06:22.000Z</time>
                <name>Trackpoint 2271</name>
            </trkpt>
            <trkpt lat="50.1011616" lon="8.9408864">
                <ele>106.0</ele>
                <time>2020-08-30T09:06:24.000Z</time>
                <name>Trackpoint 2272</name>
            </trkpt>
            <trkpt lat="50.1012672" lon="8.9408752">
                <ele>106.0</ele>
                <time>2020-08-30T09:06:26.000Z</time>
                <name>Trackpoint 2273</name>
            </trkpt>
            <trkpt lat="50.101392" lon="8.9408528">
                <ele>106.0</ele>
                <time>2020-08-30T09:06:28.000Z</time>
                <name>Trackpoint 2274</name>
            </trkpt>
            <trkpt lat="50.1015008" lon="8.9408368">
                <ele>106.0</ele>
                <time>2020-08-30T09:06:30.000Z</time>
                <name>Trackpoint 2275</name>
            </trkpt>
            <trkpt lat="50.1016" lon="8.9408368">
                <ele>106.0</ele>
                <time>2020-08-30T09:06:32.000Z</time>
                <name>Trackpoint 2276</name>
            </trkpt>
            <trkpt lat="50.1017152" lon="8.940832">
                <ele>106.0</ele>
                <time>2020-08-30T09:06:34.000Z</time>
                <name>Trackpoint 2277</name>
            </trkpt>
            <trkpt lat="50.1018304" lon="8.9408032">
                <ele>106.0</ele>
                <time>2020-08-30T09:06:36.000Z</time>
                <name>Trackpoint 2278</name>
            </trkpt>
            <trkpt lat="50.1019424" lon="8.9407704">
                <ele>106.0</ele>
                <time>2020-08-30T09:06:38.000Z</time>
                <name>Trackpoint 2279</name>
            </trkpt>
            <trkpt lat="50.1020544" lon="8.94074">
                <ele>107.0</ele>
                <time>2020-08-30T09:06:40.000Z</time>
                <name>Trackpoint 2280</name>
            </trkpt>
            <trkpt lat="50.1021536" lon="8.9407016">
                <ele>107.0</ele>
                <time>2020-08-30T09:06:42.000Z</time>
                <name>Trackpoint 2281</name>
            </trkpt>
            <trkpt lat="50.1022656" lon="8.9406608">
                <ele>107.0</ele>
                <time>2020-08-30T09:06:44.000Z</time>
                <name>Trackpoint 2282</name>
            </trkpt>
            <trkpt lat="50.1023584" lon="8.9406136">
                <ele>106.0</ele>
                <time>2020-08-30T09:06:46.000Z</time>
                <name>Trackpoint 2283</name>
            </trkpt>
            <trkpt lat="50.1024576" lon="8.94056">
                <ele>106.0</ele>
                <time>2020-08-30T09:06:48.000Z</time>
                <name>Trackpoint 2284</name>
            </trkpt>
            <trkpt lat="50.1025568" lon="8.940492">
                <ele>106.0</ele>
                <time>2020-08-30T09:06:50.000Z</time>
                <name>Trackpoint 2285</name>
            </trkpt>
            <trkpt lat="50.1026528" lon="8.940436">
                <ele>107.0</ele>
                <time>2020-08-30T09:06:52.000Z</time>
                <name>Trackpoint 2286</name>
            </trkpt>
            <trkpt lat="50.1027488" lon="8.9403984">
                <ele>107.0</ele>
                <time>2020-08-30T09:06:54.000Z</time>
                <name>Trackpoint 2287</name>
            </trkpt>
            <trkpt lat="50.102864" lon="8.940356">
                <ele>107.0</ele>
                <time>2020-08-30T09:06:56.000Z</time>
                <name>Trackpoint 2288</name>
            </trkpt>
            <trkpt lat="50.1029664" lon="8.940304">
                <ele>107.0</ele>
                <time>2020-08-30T09:06:58.000Z</time>
                <name>Trackpoint 2289</name>
            </trkpt>
            <trkpt lat="50.1030656" lon="8.9402448">
                <ele>107.0</ele>
                <time>2020-08-30T09:07:00.000Z</time>
                <name>Trackpoint 2290</name>
            </trkpt>
            <trkpt lat="50.1031648" lon="8.9401912">
                <ele>107.0</ele>
                <time>2020-08-30T09:07:02.000Z</time>
                <name>Trackpoint 2291</name>
            </trkpt>
            <trkpt lat="50.1032608" lon="8.9401304">
                <ele>107.0</ele>
                <time>2020-08-30T09:07:04.000Z</time>
                <name>Trackpoint 2292</name>
            </trkpt>
            <trkpt lat="50.1033504" lon="8.94006">
                <ele>107.0</ele>
                <time>2020-08-30T09:07:06.000Z</time>
                <name>Trackpoint 2293</name>
            </trkpt>
            <trkpt lat="50.1034496" lon="8.9399832">
                <ele>107.0</ele>
                <time>2020-08-30T09:07:08.000Z</time>
                <name>Trackpoint 2294</name>
            </trkpt>
            <trkpt lat="50.1035424" lon="8.9399016">
                <ele>107.0</ele>
                <time>2020-08-30T09:07:10.000Z</time>
                <name>Trackpoint 2295</name>
            </trkpt>
            <trkpt lat="50.1036224" lon="8.9398248">
                <ele>107.0</ele>
                <time>2020-08-30T09:07:12.000Z</time>
                <name>Trackpoint 2296</name>
            </trkpt>
            <trkpt lat="50.1037056" lon="8.93976">
                <ele>107.0</ele>
                <time>2020-08-30T09:07:14.000Z</time>
                <name>Trackpoint 2297</name>
            </trkpt>
            <trkpt lat="50.1037952" lon="8.9396696">
                <ele>107.0</ele>
                <time>2020-08-30T09:07:16.000Z</time>
                <name>Trackpoint 2298</name>
            </trkpt>
            <trkpt lat="50.1038784" lon="8.9395912">
                <ele>107.0</ele>
                <time>2020-08-30T09:07:18.000Z</time>
                <name>Trackpoint 2299</name>
            </trkpt>
            <trkpt lat="50.1039744" lon="8.9395112">
                <ele>107.0</ele>
                <time>2020-08-30T09:07:20.000Z</time>
                <name>Trackpoint 2300</name>
            </trkpt>
            <trkpt lat="50.104064" lon="8.9394264">
                <ele>107.0</ele>
                <time>2020-08-30T09:07:22.000Z</time>
                <name>Trackpoint 2301</name>
            </trkpt>
            <trkpt lat="50.1041504" lon="8.939332">
                <ele>107.0</ele>
                <time>2020-08-30T09:07:24.000Z</time>
                <name>Trackpoint 2302</name>
            </trkpt>
            <trkpt lat="50.1042368" lon="8.9392344">
                <ele>107.0</ele>
                <time>2020-08-30T09:07:26.000Z</time>
                <name>Trackpoint 2303</name>
            </trkpt>
            <trkpt lat="50.1043008" lon="8.9391368">
                <ele>106.0</ele>
                <time>2020-08-30T09:07:28.000Z</time>
                <name>Trackpoint 2304</name>
            </trkpt>
            <trkpt lat="50.104384" lon="8.9390232">
                <ele>106.0</ele>
                <time>2020-08-30T09:07:30.000Z</time>
                <name>Trackpoint 2305</name>
            </trkpt>
            <trkpt lat="50.104464" lon="8.9389112">
                <ele>106.0</ele>
                <time>2020-08-30T09:07:32.000Z</time>
                <name>Trackpoint 2306</name>
            </trkpt>
            <trkpt lat="50.1045536" lon="8.9388152">
                <ele>106.0</ele>
                <time>2020-08-30T09:07:34.000Z</time>
                <name>Trackpoint 2307</name>
            </trkpt>
            <trkpt lat="50.1046368" lon="8.9387152">
                <ele>106.0</ele>
                <time>2020-08-30T09:07:36.000Z</time>
                <name>Trackpoint 2308</name>
            </trkpt>
            <trkpt lat="50.1047072" lon="8.9386168">
                <ele>105.0</ele>
                <time>2020-08-30T09:07:38.000Z</time>
                <name>Trackpoint 2309</name>
            </trkpt>
            <trkpt lat="50.1047808" lon="8.9385048">
                <ele>105.0</ele>
                <time>2020-08-30T09:07:40.000Z</time>
                <name>Trackpoint 2310</name>
            </trkpt>
            <trkpt lat="50.1048512" lon="8.9383944">
                <ele>106.0</ele>
                <time>2020-08-30T09:07:42.000Z</time>
                <name>Trackpoint 2311</name>
            </trkpt>
            <trkpt lat="50.1049088" lon="8.9383048">
                <ele>106.0</ele>
                <time>2020-08-30T09:07:44.000Z</time>
                <name>Trackpoint 2312</name>
            </trkpt>
            <trkpt lat="50.1049888" lon="8.9382496">
                <ele>106.0</ele>
                <time>2020-08-30T09:07:48.000Z</time>
                <name>Trackpoint 2313</name>
            </trkpt>
            <trkpt lat="50.1050336" lon="8.9381552">
                <ele>105.0</ele>
                <time>2020-08-30T09:08:23.000Z</time>
                <name>Trackpoint 2314</name>
            </trkpt>
            <trkpt lat="50.1051072" lon="8.9380504">
                <ele>105.0</ele>
                <time>2020-08-30T09:08:26.000Z</time>
                <name>Trackpoint 2315</name>
            </trkpt>
            <trkpt lat="50.1051584" lon="8.9379704">
                <ele>105.0</ele>
                <time>2020-08-30T09:08:28.000Z</time>
                <name>Trackpoint 2316</name>
            </trkpt>
            <trkpt lat="50.1052128" lon="8.9378768">
                <ele>105.0</ele>
                <time>2020-08-30T09:08:30.000Z</time>
                <name>Trackpoint 2317</name>
            </trkpt>
            <trkpt lat="50.1052736" lon="8.9377784">
                <ele>105.0</ele>
                <time>2020-08-30T09:08:32.000Z</time>
                <name>Trackpoint 2318</name>
            </trkpt>
            <trkpt lat="50.1053344" lon="8.9376752">
                <ele>105.0</ele>
                <time>2020-08-30T09:08:34.000Z</time>
                <name>Trackpoint 2319</name>
            </trkpt>
            <trkpt lat="50.1054016" lon="8.9375736">
                <ele>105.0</ele>
                <time>2020-08-30T09:08:36.000Z</time>
                <name>Trackpoint 2320</name>
            </trkpt>
            <trkpt lat="50.105456" lon="8.9374648">
                <ele>105.0</ele>
                <time>2020-08-30T09:08:38.000Z</time>
                <name>Trackpoint 2321</name>
            </trkpt>
            <trkpt lat="50.1055168" lon="8.9373512">
                <ele>105.0</ele>
                <time>2020-08-30T09:08:40.000Z</time>
                <name>Trackpoint 2322</name>
            </trkpt>
            <trkpt lat="50.1055744" lon="8.9372352">
                <ele>105.0</ele>
                <time>2020-08-30T09:08:42.000Z</time>
                <name>Trackpoint 2323</name>
            </trkpt>
            <trkpt lat="50.1056288" lon="8.9370968">
                <ele>105.0</ele>
                <time>2020-08-30T09:08:44.000Z</time>
                <name>Trackpoint 2324</name>
            </trkpt>
            <trkpt lat="50.1056896" lon="8.9369568">
                <ele>106.0</ele>
                <time>2020-08-30T09:08:46.000Z</time>
                <name>Trackpoint 2325</name>
            </trkpt>
            <trkpt lat="50.1057632" lon="8.9368216">
                <ele>105.0</ele>
                <time>2020-08-30T09:08:48.000Z</time>
                <name>Trackpoint 2326</name>
            </trkpt>
            <trkpt lat="50.1058272" lon="8.9366776">
                <ele>106.0</ele>
                <time>2020-08-30T09:08:50.000Z</time>
                <name>Trackpoint 2327</name>
            </trkpt>
            <trkpt lat="50.105888" lon="8.9365464">
                <ele>105.0</ele>
                <time>2020-08-30T09:08:52.000Z</time>
                <name>Trackpoint 2328</name>
            </trkpt>
            <trkpt lat="50.1059424" lon="8.9364208">
                <ele>105.0</ele>
                <time>2020-08-30T09:08:54.000Z</time>
                <name>Trackpoint 2329</name>
            </trkpt>
            <trkpt lat="50.1059904" lon="8.9362968">
                <ele>105.0</ele>
                <time>2020-08-30T09:08:56.000Z</time>
                <name>Trackpoint 2330</name>
            </trkpt>
            <trkpt lat="50.1060256" lon="8.936176">
                <ele>105.0</ele>
                <time>2020-08-30T09:08:58.000Z</time>
                <name>Trackpoint 2331</name>
            </trkpt>
            <trkpt lat="50.1060704" lon="8.9360768">
                <ele>105.0</ele>
                <time>2020-08-30T09:09:00.000Z</time>
                <name>Trackpoint 2332</name>
            </trkpt>
            <trkpt lat="50.106112" lon="8.9359904">
                <ele>104.0</ele>
                <time>2020-08-30T09:09:02.000Z</time>
                <name>Trackpoint 2333</name>
            </trkpt>
            <trkpt lat="50.1061504" lon="8.9358928">
                <ele>104.0</ele>
                <time>2020-08-30T09:09:04.000Z</time>
                <name>Trackpoint 2334</name>
            </trkpt>
            <trkpt lat="50.106192" lon="8.935788">
                <ele>104.0</ele>
                <time>2020-08-30T09:09:06.000Z</time>
                <name>Trackpoint 2335</name>
            </trkpt>
            <trkpt lat="50.1062304" lon="8.935688">
                <ele>103.0</ele>
                <time>2020-08-30T09:09:08.000Z</time>
                <name>Trackpoint 2336</name>
            </trkpt>
            <trkpt lat="50.1062688" lon="8.93558">
                <ele>103.0</ele>
                <time>2020-08-30T09:09:10.000Z</time>
                <name>Trackpoint 2337</name>
            </trkpt>
            <trkpt lat="50.1063104" lon="8.935456">
                <ele>104.0</ele>
                <time>2020-08-30T09:09:12.000Z</time>
                <name>Trackpoint 2338</name>
            </trkpt>
            <trkpt lat="50.1063424" lon="8.9353448">
                <ele>104.0</ele>
                <time>2020-08-30T09:09:14.000Z</time>
                <name>Trackpoint 2339</name>
            </trkpt>
            <trkpt lat="50.106368" lon="8.9352352">
                <ele>104.0</ele>
                <time>2020-08-30T09:09:16.000Z</time>
                <name>Trackpoint 2340</name>
            </trkpt>
            <trkpt lat="50.1064" lon="8.9351352">
                <ele>104.0</ele>
                <time>2020-08-30T09:09:18.000Z</time>
                <name>Trackpoint 2341</name>
            </trkpt>
            <trkpt lat="50.1064416" lon="8.935012">
                <ele>105.0</ele>
                <time>2020-08-30T09:09:21.000Z</time>
                <name>Trackpoint 2342</name>
            </trkpt>
            <trkpt lat="50.106464" lon="8.934892">
                <ele>105.0</ele>
                <time>2020-08-30T09:09:24.000Z</time>
                <name>Trackpoint 2343</name>
            </trkpt>
            <trkpt lat="50.1065024" lon="8.9347696">
                <ele>105.0</ele>
                <time>2020-08-30T09:09:27.000Z</time>
                <name>Trackpoint 2344</name>
            </trkpt>
            <trkpt lat="50.1065344" lon="8.9346488">
                <ele>105.0</ele>
                <time>2020-08-30T09:09:29.000Z</time>
                <name>Trackpoint 2345</name>
            </trkpt>
            <trkpt lat="50.1065632" lon="8.9345176">
                <ele>105.0</ele>
                <time>2020-08-30T09:09:31.000Z</time>
                <name>Trackpoint 2346</name>
            </trkpt>
            <trkpt lat="50.1065952" lon="8.9343832">
                <ele>105.0</ele>
                <time>2020-08-30T09:09:33.000Z</time>
                <name>Trackpoint 2347</name>
            </trkpt>
            <trkpt lat="50.1066272" lon="8.93424">
                <ele>106.0</ele>
                <time>2020-08-30T09:09:35.000Z</time>
                <name>Trackpoint 2348</name>
            </trkpt>
            <trkpt lat="50.1066592" lon="8.9340984">
                <ele>106.0</ele>
                <time>2020-08-30T09:09:37.000Z</time>
                <name>Trackpoint 2349</name>
            </trkpt>
            <trkpt lat="50.1066848" lon="8.9339512">
                <ele>106.0</ele>
                <time>2020-08-30T09:09:39.000Z</time>
                <name>Trackpoint 2350</name>
            </trkpt>
            <trkpt lat="50.1067072" lon="8.9338104">
                <ele>106.0</ele>
                <time>2020-08-30T09:09:41.000Z</time>
                <name>Trackpoint 2351</name>
            </trkpt>
            <trkpt lat="50.1067424" lon="8.9336792">
                <ele>106.0</ele>
                <time>2020-08-30T09:09:43.000Z</time>
                <name>Trackpoint 2352</name>
            </trkpt>
            <trkpt lat="50.1067744" lon="8.9335672">
                <ele>106.0</ele>
                <time>2020-08-30T09:09:45.000Z</time>
                <name>Trackpoint 2353</name>
            </trkpt>
            <trkpt lat="50.1067616" lon="8.9334632">
                <ele>106.0</ele>
                <time>2020-08-30T09:09:47.000Z</time>
                <name>Trackpoint 2354</name>
            </trkpt>
            <trkpt lat="50.1066592" lon="8.9333952">
                <ele>107.0</ele>
                <time>2020-08-30T09:09:49.000Z</time>
                <name>Trackpoint 2355</name>
            </trkpt>
            <trkpt lat="50.106576" lon="8.9333136">
                <ele>107.0</ele>
                <time>2020-08-30T09:09:51.000Z</time>
                <name>Trackpoint 2356</name>
            </trkpt>
            <trkpt lat="50.10648" lon="8.9332288">
                <ele>107.0</ele>
                <time>2020-08-30T09:09:53.000Z</time>
                <name>Trackpoint 2357</name>
            </trkpt>
            <trkpt lat="50.1063872" lon="8.9331552">
                <ele>107.0</ele>
                <time>2020-08-30T09:09:55.000Z</time>
                <name>Trackpoint 2358</name>
            </trkpt>
            <trkpt lat="50.1063104" lon="8.9330664">
                <ele>107.0</ele>
                <time>2020-08-30T09:09:57.000Z</time>
                <name>Trackpoint 2359</name>
            </trkpt>
            <trkpt lat="50.1062688" lon="8.9329816">
                <ele>107.0</ele>
                <time>2020-08-30T09:09:59.000Z</time>
                <name>Trackpoint 2360</name>
            </trkpt>
            <trkpt lat="50.1062432" lon="8.932848">
                <ele>107.0</ele>
                <time>2020-08-30T09:10:02.000Z</time>
                <name>Trackpoint 2361</name>
            </trkpt>
            <trkpt lat="50.10624" lon="8.93274">
                <ele>107.0</ele>
                <time>2020-08-30T09:10:04.000Z</time>
                <name>Trackpoint 2362</name>
            </trkpt>
            <trkpt lat="50.1062496" lon="8.93264">
                <ele>106.0</ele>
                <time>2020-08-30T09:10:05.000Z</time>
                <name>Trackpoint 2363</name>
            </trkpt>
            <trkpt lat="50.106256" lon="8.9324888">
                <ele>106.0</ele>
                <time>2020-08-30T09:10:07.000Z</time>
                <name>Trackpoint 2364</name>
            </trkpt>
            <trkpt lat="50.1062432" lon="8.9323656">
                <ele>106.0</ele>
                <time>2020-08-30T09:10:09.000Z</time>
                <name>Trackpoint 2365</name>
            </trkpt>
            <trkpt lat="50.1062368" lon="8.932212">
                <ele>106.0</ele>
                <time>2020-08-30T09:10:11.000Z</time>
                <name>Trackpoint 2366</name>
            </trkpt>
            <trkpt lat="50.106224" lon="8.9321016">
                <ele>106.0</ele>
                <time>2020-08-30T09:10:13.000Z</time>
                <name>Trackpoint 2367</name>
            </trkpt>
            <trkpt lat="50.1062176" lon="8.9319696">
                <ele>106.0</ele>
                <time>2020-08-30T09:10:15.000Z</time>
                <name>Trackpoint 2368</name>
            </trkpt>
            <trkpt lat="50.1062048" lon="8.9318264">
                <ele>106.0</ele>
                <time>2020-08-30T09:10:17.000Z</time>
                <name>Trackpoint 2369</name>
            </trkpt>
            <trkpt lat="50.106192" lon="8.9317016">
                <ele>106.0</ele>
                <time>2020-08-30T09:10:19.000Z</time>
                <name>Trackpoint 2370</name>
            </trkpt>
            <trkpt lat="50.1061696" lon="8.931568">
                <ele>105.0</ele>
                <time>2020-08-30T09:10:21.000Z</time>
                <name>Trackpoint 2371</name>
            </trkpt>
            <trkpt lat="50.10616" lon="8.9314368">
                <ele>105.0</ele>
                <time>2020-08-30T09:10:23.000Z</time>
                <name>Trackpoint 2372</name>
            </trkpt>
            <trkpt lat="50.1061408" lon="8.931316">
                <ele>105.0</ele>
                <time>2020-08-30T09:10:25.000Z</time>
                <name>Trackpoint 2373</name>
            </trkpt>
            <trkpt lat="50.1061184" lon="8.9311864">
                <ele>105.0</ele>
                <time>2020-08-30T09:10:27.000Z</time>
                <name>Trackpoint 2374</name>
            </trkpt>
            <trkpt lat="50.106112" lon="8.9310616">
                <ele>105.0</ele>
                <time>2020-08-30T09:10:29.000Z</time>
                <name>Trackpoint 2375</name>
            </trkpt>
            <trkpt lat="50.1061696" lon="8.9309728">
                <ele>105.0</ele>
                <time>2020-08-30T09:10:31.000Z</time>
                <name>Trackpoint 2376</name>
            </trkpt>
            <trkpt lat="50.1062592" lon="8.930932">
                <ele>104.0</ele>
                <time>2020-08-30T09:10:33.000Z</time>
                <name>Trackpoint 2377</name>
            </trkpt>
            <trkpt lat="50.1063488" lon="8.9309128">
                <ele>105.0</ele>
                <time>2020-08-30T09:10:35.000Z</time>
                <name>Trackpoint 2378</name>
            </trkpt>
            <trkpt lat="50.1064416" lon="8.9308784">
                <ele>105.0</ele>
                <time>2020-08-30T09:10:37.000Z</time>
                <name>Trackpoint 2379</name>
            </trkpt>
            <trkpt lat="50.1065184" lon="8.9307944">
                <ele>105.0</ele>
                <time>2020-08-30T09:10:39.000Z</time>
                <name>Trackpoint 2380</name>
            </trkpt>
            <trkpt lat="50.1065568" lon="8.9306544">
                <ele>104.0</ele>
                <time>2020-08-30T09:10:41.000Z</time>
                <name>Trackpoint 2381</name>
            </trkpt>
            <trkpt lat="50.1065568" lon="8.9304984">
                <ele>104.0</ele>
                <time>2020-08-30T09:10:43.000Z</time>
                <name>Trackpoint 2382</name>
            </trkpt>
            <trkpt lat="50.1065568" lon="8.9303528">
                <ele>104.0</ele>
                <time>2020-08-30T09:10:45.000Z</time>
                <name>Trackpoint 2383</name>
            </trkpt>
            <trkpt lat="50.1065632" lon="8.9302152">
                <ele>104.0</ele>
                <time>2020-08-30T09:10:47.000Z</time>
                <name>Trackpoint 2384</name>
            </trkpt>
            <trkpt lat="50.1065664" lon="8.9300808">
                <ele>104.0</ele>
                <time>2020-08-30T09:10:49.000Z</time>
                <name>Trackpoint 2385</name>
            </trkpt>
            <trkpt lat="50.1066016" lon="8.9299536">
                <ele>105.0</ele>
                <time>2020-08-30T09:10:52.000Z</time>
                <name>Trackpoint 2386</name>
            </trkpt>
            <trkpt lat="50.1066784" lon="8.9298624">
                <ele>105.0</ele>
                <time>2020-08-30T09:10:54.000Z</time>
                <name>Trackpoint 2387</name>
            </trkpt>
            <trkpt lat="50.1067808" lon="8.9297064">
                <ele>105.0</ele>
                <time>2020-08-30T09:10:56.000Z</time>
                <name>Trackpoint 2388</name>
            </trkpt>
            <trkpt lat="50.1068384" lon="8.929548">
                <ele>105.0</ele>
                <time>2020-08-30T09:10:58.000Z</time>
                <name>Trackpoint 2389</name>
            </trkpt>
            <trkpt lat="50.106864" lon="8.9294008">
                <ele>105.0</ele>
                <time>2020-08-30T09:11:00.000Z</time>
                <name>Trackpoint 2390</name>
            </trkpt>
            <trkpt lat="50.106864" lon="8.9292536">
                <ele>105.0</ele>
                <time>2020-08-30T09:11:02.000Z</time>
                <name>Trackpoint 2391</name>
            </trkpt>
            <trkpt lat="50.1068672" lon="8.9290816">
                <ele>105.0</ele>
                <time>2020-08-30T09:11:04.000Z</time>
                <name>Trackpoint 2392</name>
            </trkpt>
            <trkpt lat="50.106864" lon="8.9289264">
                <ele>104.0</ele>
                <time>2020-08-30T09:11:06.000Z</time>
                <name>Trackpoint 2393</name>
            </trkpt>
            <trkpt lat="50.1068768" lon="8.928752">
                <ele>104.0</ele>
                <time>2020-08-30T09:11:08.000Z</time>
                <name>Trackpoint 2394</name>
            </trkpt>
            <trkpt lat="50.1068928" lon="8.9286584">
                <ele>104.0</ele>
                <time>2020-08-30T09:11:09.000Z</time>
                <name>Trackpoint 2395</name>
            </trkpt>
            <trkpt lat="50.106896" lon="8.9284832">
                <ele>104.0</ele>
                <time>2020-08-30T09:11:11.000Z</time>
                <name>Trackpoint 2396</name>
            </trkpt>
            <trkpt lat="50.1069056" lon="8.9283104">
                <ele>104.0</ele>
                <time>2020-08-30T09:11:13.000Z</time>
                <name>Trackpoint 2397</name>
            </trkpt>
            <trkpt lat="50.1069056" lon="8.9281432">
                <ele>104.0</ele>
                <time>2020-08-30T09:11:15.000Z</time>
                <name>Trackpoint 2398</name>
            </trkpt>
            <trkpt lat="50.1069056" lon="8.927972">
                <ele>104.0</ele>
                <time>2020-08-30T09:11:17.000Z</time>
                <name>Trackpoint 2399</name>
            </trkpt>
            <trkpt lat="50.1069152" lon="8.9278">
                <ele>104.0</ele>
                <time>2020-08-30T09:11:19.000Z</time>
                <name>Trackpoint 2400</name>
            </trkpt>
            <trkpt lat="50.1069184" lon="8.9276352">
                <ele>104.0</ele>
                <time>2020-08-30T09:11:21.000Z</time>
                <name>Trackpoint 2401</name>
            </trkpt>
            <trkpt lat="50.1069216" lon="8.9274664">
                <ele>104.0</ele>
                <time>2020-08-30T09:11:23.000Z</time>
                <name>Trackpoint 2402</name>
            </trkpt>
            <trkpt lat="50.1069344" lon="8.9272968">
                <ele>104.0</ele>
                <time>2020-08-30T09:11:25.000Z</time>
                <name>Trackpoint 2403</name>
            </trkpt>
            <trkpt lat="50.106944" lon="8.9271272">
                <ele>103.0</ele>
                <time>2020-08-30T09:11:27.000Z</time>
                <name>Trackpoint 2404</name>
            </trkpt>
            <trkpt lat="50.1069568" lon="8.92696">
                <ele>104.0</ele>
                <time>2020-08-30T09:11:29.000Z</time>
                <name>Trackpoint 2405</name>
            </trkpt>
            <trkpt lat="50.1069632" lon="8.9267976">
                <ele>104.0</ele>
                <time>2020-08-30T09:11:31.000Z</time>
                <name>Trackpoint 2406</name>
            </trkpt>
            <trkpt lat="50.1069824" lon="8.9266328">
                <ele>104.0</ele>
                <time>2020-08-30T09:11:33.000Z</time>
                <name>Trackpoint 2407</name>
            </trkpt>
            <trkpt lat="50.1069984" lon="8.9264696">
                <ele>104.0</ele>
                <time>2020-08-30T09:11:35.000Z</time>
                <name>Trackpoint 2408</name>
            </trkpt>
            <trkpt lat="50.1070144" lon="8.9263064">
                <ele>104.0</ele>
                <time>2020-08-30T09:11:37.000Z</time>
                <name>Trackpoint 2409</name>
            </trkpt>
            <trkpt lat="50.1070336" lon="8.9261416">
                <ele>104.0</ele>
                <time>2020-08-30T09:11:39.000Z</time>
                <name>Trackpoint 2410</name>
            </trkpt>
            <trkpt lat="50.1070496" lon="8.9259752">
                <ele>104.0</ele>
                <time>2020-08-30T09:11:41.000Z</time>
                <name>Trackpoint 2411</name>
            </trkpt>
            <trkpt lat="50.1070656" lon="8.925808">
                <ele>104.0</ele>
                <time>2020-08-30T09:11:43.000Z</time>
                <name>Trackpoint 2412</name>
            </trkpt>
            <trkpt lat="50.1070848" lon="8.9256424">
                <ele>104.0</ele>
                <time>2020-08-30T09:11:45.000Z</time>
                <name>Trackpoint 2413</name>
            </trkpt>
            <trkpt lat="50.107104" lon="8.9254768">
                <ele>104.0</ele>
                <time>2020-08-30T09:11:47.000Z</time>
                <name>Trackpoint 2414</name>
            </trkpt>
            <trkpt lat="50.1071296" lon="8.925312">
                <ele>104.0</ele>
                <time>2020-08-30T09:11:49.000Z</time>
                <name>Trackpoint 2415</name>
            </trkpt>
            <trkpt lat="50.1071552" lon="8.9251448">
                <ele>104.0</ele>
                <time>2020-08-30T09:11:51.000Z</time>
                <name>Trackpoint 2416</name>
            </trkpt>
            <trkpt lat="50.1071808" lon="8.9249824">
                <ele>104.0</ele>
                <time>2020-08-30T09:11:53.000Z</time>
                <name>Trackpoint 2417</name>
            </trkpt>
            <trkpt lat="50.1072096" lon="8.92482">
                <ele>104.0</ele>
                <time>2020-08-30T09:11:55.000Z</time>
                <name>Trackpoint 2418</name>
            </trkpt>
            <trkpt lat="50.1072384" lon="8.9246616">
                <ele>104.0</ele>
                <time>2020-08-30T09:11:57.000Z</time>
                <name>Trackpoint 2419</name>
            </trkpt>
            <trkpt lat="50.107264" lon="8.924528">
                <ele>104.0</ele>
                <time>2020-08-30T09:11:59.000Z</time>
                <name>Trackpoint 2420</name>
            </trkpt>
            <trkpt lat="50.1071616" lon="8.9244808">
                <ele>104.0</ele>
                <time>2020-08-30T09:12:04.000Z</time>
                <name>Trackpoint 2421</name>
            </trkpt>
            <trkpt lat="50.1072704" lon="8.924512">
                <ele>104.0</ele>
                <time>2020-08-30T09:12:14.000Z</time>
                <name>Trackpoint 2422</name>
            </trkpt>
            <trkpt lat="50.107184" lon="8.9244632">
                <ele>103.0</ele>
                <time>2020-08-30T09:15:29.000Z</time>
                <name>Trackpoint 2423</name>
            </trkpt>
            <trkpt lat="50.1070912" lon="8.9244648">
                <ele>103.0</ele>
                <time>2020-08-30T09:15:32.000Z</time>
                <name>Trackpoint 2424</name>
            </trkpt>
            <trkpt lat="50.1069984" lon="8.9244544">
                <ele>103.0</ele>
                <time>2020-08-30T09:15:35.000Z</time>
                <name>Trackpoint 2425</name>
            </trkpt>
            <trkpt lat="50.1068864" lon="8.92444">
                <ele>103.0</ele>
                <time>2020-08-30T09:15:47.000Z</time>
                <name>Trackpoint 2426</name>
            </trkpt>
            <trkpt lat="50.106768" lon="8.9244432">
                <ele>103.0</ele>
                <time>2020-08-30T09:15:51.000Z</time>
                <name>Trackpoint 2427</name>
            </trkpt>
            <trkpt lat="50.1066656" lon="8.9244248">
                <ele>103.0</ele>
                <time>2020-08-30T09:15:54.000Z</time>
                <name>Trackpoint 2428</name>
            </trkpt>
            <trkpt lat="50.1065472" lon="8.9244">
                <ele>103.0</ele>
                <time>2020-08-30T09:15:57.000Z</time>
                <name>Trackpoint 2429</name>
            </trkpt>
            <trkpt lat="50.1064192" lon="8.9243872">
                <ele>103.0</ele>
                <time>2020-08-30T09:16:00.000Z</time>
                <name>Trackpoint 2430</name>
            </trkpt>
            <trkpt lat="50.106288" lon="8.9243696">
                <ele>103.0</ele>
                <time>2020-08-30T09:16:03.000Z</time>
                <name>Trackpoint 2431</name>
            </trkpt>
            <trkpt lat="50.10616" lon="8.9243432">
                <ele>103.0</ele>
                <time>2020-08-30T09:16:06.000Z</time>
                <name>Trackpoint 2432</name>
            </trkpt>
            <trkpt lat="50.1060896" lon="8.924276">
                <ele>104.0</ele>
                <time>2020-08-30T09:16:08.000Z</time>
                <name>Trackpoint 2433</name>
            </trkpt>
            <trkpt lat="50.1060448" lon="8.9241664">
                <ele>104.0</ele>
                <time>2020-08-30T09:16:10.000Z</time>
                <name>Trackpoint 2434</name>
            </trkpt>
            <trkpt lat="50.106032" lon="8.9240376">
                <ele>103.0</ele>
                <time>2020-08-30T09:16:12.000Z</time>
                <name>Trackpoint 2435</name>
            </trkpt>
            <trkpt lat="50.1060448" lon="8.923908">
                <ele>103.0</ele>
                <time>2020-08-30T09:16:14.000Z</time>
                <name>Trackpoint 2436</name>
            </trkpt>
            <trkpt lat="50.1060448" lon="8.9237736">
                <ele>103.0</ele>
                <time>2020-08-30T09:16:16.000Z</time>
                <name>Trackpoint 2437</name>
            </trkpt>
            <trkpt lat="50.1060448" lon="8.9236368">
                <ele>103.0</ele>
                <time>2020-08-30T09:16:18.000Z</time>
                <name>Trackpoint 2438</name>
            </trkpt>
            <trkpt lat="50.1060448" lon="8.9235136">
                <ele>103.0</ele>
                <time>2020-08-30T09:16:20.000Z</time>
                <name>Trackpoint 2439</name>
            </trkpt>
            <trkpt lat="50.1060448" lon="8.9233752">
                <ele>103.0</ele>
                <time>2020-08-30T09:16:22.000Z</time>
                <name>Trackpoint 2440</name>
            </trkpt>
            <trkpt lat="50.1060448" lon="8.9232304">
                <ele>103.0</ele>
                <time>2020-08-30T09:16:24.000Z</time>
                <name>Trackpoint 2441</name>
            </trkpt>
            <trkpt lat="50.1060512" lon="8.9230936">
                <ele>103.0</ele>
                <time>2020-08-30T09:16:26.000Z</time>
                <name>Trackpoint 2442</name>
            </trkpt>
            <trkpt lat="50.1060608" lon="8.9229496">
                <ele>103.0</ele>
                <time>2020-08-30T09:16:28.000Z</time>
                <name>Trackpoint 2443</name>
            </trkpt>
            <trkpt lat="50.1060608" lon="8.9228032">
                <ele>103.0</ele>
                <time>2020-08-30T09:16:30.000Z</time>
                <name>Trackpoint 2444</name>
            </trkpt>
            <trkpt lat="50.1060768" lon="8.92266">
                <ele>103.0</ele>
                <time>2020-08-30T09:16:32.000Z</time>
                <name>Trackpoint 2445</name>
            </trkpt>
            <trkpt lat="50.1060768" lon="8.922512">
                <ele>103.0</ele>
                <time>2020-08-30T09:16:34.000Z</time>
                <name>Trackpoint 2446</name>
            </trkpt>
            <trkpt lat="50.10608" lon="8.9223584">
                <ele>103.0</ele>
                <time>2020-08-30T09:16:36.000Z</time>
                <name>Trackpoint 2447</name>
            </trkpt>
            <trkpt lat="50.10608" lon="8.9222184">
                <ele>103.0</ele>
                <time>2020-08-30T09:16:38.000Z</time>
                <name>Trackpoint 2448</name>
            </trkpt>
            <trkpt lat="50.106112" lon="8.9220784">
                <ele>103.0</ele>
                <time>2020-08-30T09:16:40.000Z</time>
                <name>Trackpoint 2449</name>
            </trkpt>
            <trkpt lat="50.1061216" lon="8.9219288">
                <ele>103.0</ele>
                <time>2020-08-30T09:16:42.000Z</time>
                <name>Trackpoint 2450</name>
            </trkpt>
            <trkpt lat="50.1061216" lon="8.9217664">
                <ele>103.0</ele>
                <time>2020-08-30T09:16:44.000Z</time>
                <name>Trackpoint 2451</name>
            </trkpt>
            <trkpt lat="50.1061376" lon="8.9216048">
                <ele>103.0</ele>
                <time>2020-08-30T09:16:46.000Z</time>
                <name>Trackpoint 2452</name>
            </trkpt>
            <trkpt lat="50.1061472" lon="8.9214224">
                <ele>103.0</ele>
                <time>2020-08-30T09:16:48.000Z</time>
                <name>Trackpoint 2453</name>
            </trkpt>
            <trkpt lat="50.106144" lon="8.9213168">
                <ele>103.0</ele>
                <time>2020-08-30T09:16:49.000Z</time>
                <name>Trackpoint 2454</name>
            </trkpt>
            <trkpt lat="50.1061472" lon="8.92122">
                <ele>103.0</ele>
                <time>2020-08-30T09:16:50.000Z</time>
                <name>Trackpoint 2455</name>
            </trkpt>
            <trkpt lat="50.1061504" lon="8.9211216">
                <ele>103.0</ele>
                <time>2020-08-30T09:16:51.000Z</time>
                <name>Trackpoint 2456</name>
            </trkpt>
            <trkpt lat="50.1061664" lon="8.9209536">
                <ele>103.0</ele>
                <time>2020-08-30T09:16:53.000Z</time>
                <name>Trackpoint 2457</name>
            </trkpt>
            <trkpt lat="50.1061792" lon="8.9208616">
                <ele>103.0</ele>
                <time>2020-08-30T09:16:54.000Z</time>
                <name>Trackpoint 2458</name>
            </trkpt>
            <trkpt lat="50.1061888" lon="8.9207712">
                <ele>103.0</ele>
                <time>2020-08-30T09:16:55.000Z</time>
                <name>Trackpoint 2459</name>
            </trkpt>
            <trkpt lat="50.1062016" lon="8.9205968">
                <ele>103.0</ele>
                <time>2020-08-30T09:16:57.000Z</time>
                <name>Trackpoint 2460</name>
            </trkpt>
            <trkpt lat="50.1062016" lon="8.9205064">
                <ele>103.0</ele>
                <time>2020-08-30T09:16:58.000Z</time>
                <name>Trackpoint 2461</name>
            </trkpt>
            <trkpt lat="50.1062112" lon="8.9203352">
                <ele>102.0</ele>
                <time>2020-08-30T09:17:00.000Z</time>
                <name>Trackpoint 2462</name>
            </trkpt>
            <trkpt lat="50.1062208" lon="8.920172">
                <ele>103.0</ele>
                <time>2020-08-30T09:17:02.000Z</time>
                <name>Trackpoint 2463</name>
            </trkpt>
            <trkpt lat="50.10624" lon="8.9200112">
                <ele>103.0</ele>
                <time>2020-08-30T09:17:04.000Z</time>
                <name>Trackpoint 2464</name>
            </trkpt>
            <trkpt lat="50.106256" lon="8.919844">
                <ele>103.0</ele>
                <time>2020-08-30T09:17:06.000Z</time>
                <name>Trackpoint 2465</name>
            </trkpt>
            <trkpt lat="50.1062784" lon="8.9197264">
                <ele>103.0</ele>
                <time>2020-08-30T09:17:08.000Z</time>
                <name>Trackpoint 2466</name>
            </trkpt>
            <trkpt lat="50.106304" lon="8.9195784">
                <ele>103.0</ele>
                <time>2020-08-30T09:17:10.000Z</time>
                <name>Trackpoint 2467</name>
            </trkpt>
            <trkpt lat="50.1063104" lon="8.9194448">
                <ele>103.0</ele>
                <time>2020-08-30T09:17:12.000Z</time>
                <name>Trackpoint 2468</name>
            </trkpt>
            <trkpt lat="50.1063392" lon="8.9192216">
                <ele>102.0</ele>
                <time>2020-08-30T09:17:15.000Z</time>
                <name>Trackpoint 2469</name>
            </trkpt>
            <trkpt lat="50.1063552" lon="8.9190752">
                <ele>102.0</ele>
                <time>2020-08-30T09:17:17.000Z</time>
                <name>Trackpoint 2470</name>
            </trkpt>
            <trkpt lat="50.106336" lon="8.9189264">
                <ele>102.0</ele>
                <time>2020-08-30T09:17:19.000Z</time>
                <name>Trackpoint 2471</name>
            </trkpt>
            <trkpt lat="50.1063104" lon="8.9187784">
                <ele>102.0</ele>
                <time>2020-08-30T09:17:21.000Z</time>
                <name>Trackpoint 2472</name>
            </trkpt>
            <trkpt lat="50.1062976" lon="8.9186312">
                <ele>102.0</ele>
                <time>2020-08-30T09:17:23.000Z</time>
                <name>Trackpoint 2473</name>
            </trkpt>
            <trkpt lat="50.106288" lon="8.91848">
                <ele>102.0</ele>
                <time>2020-08-30T09:17:25.000Z</time>
                <name>Trackpoint 2474</name>
            </trkpt>
            <trkpt lat="50.1062976" lon="8.9183352">
                <ele>102.0</ele>
                <time>2020-08-30T09:17:27.000Z</time>
                <name>Trackpoint 2475</name>
            </trkpt>
            <trkpt lat="50.1063296" lon="8.9181944">
                <ele>102.0</ele>
                <time>2020-08-30T09:17:29.000Z</time>
                <name>Trackpoint 2476</name>
            </trkpt>
            <trkpt lat="50.1063552" lon="8.9180744">
                <ele>102.0</ele>
                <time>2020-08-30T09:17:31.000Z</time>
                <name>Trackpoint 2477</name>
            </trkpt>
            <trkpt lat="50.1064" lon="8.9179752">
                <ele>102.0</ele>
                <time>2020-08-30T09:17:33.000Z</time>
                <name>Trackpoint 2478</name>
            </trkpt>
            <trkpt lat="50.1064544" lon="8.917896">
                <ele>102.0</ele>
                <time>2020-08-30T09:17:35.000Z</time>
                <name>Trackpoint 2479</name>
            </trkpt>
            <trkpt lat="50.106528" lon="8.9177952">
                <ele>102.0</ele>
                <time>2020-08-30T09:17:38.000Z</time>
                <name>Trackpoint 2480</name>
            </trkpt>
            <trkpt lat="50.1065792" lon="8.9177168">
                <ele>101.0</ele>
                <time>2020-08-30T09:18:03.000Z</time>
                <name>Trackpoint 2481</name>
            </trkpt>
            <trkpt lat="50.10664" lon="8.9176304">
                <ele>101.0</ele>
                <time>2020-08-30T09:18:08.000Z</time>
                <name>Trackpoint 2482</name>
            </trkpt>
            <trkpt lat="50.1066976" lon="8.9175552">
                <ele>101.0</ele>
                <time>2020-08-30T09:18:11.000Z</time>
                <name>Trackpoint 2483</name>
            </trkpt>
            <trkpt lat="50.1067808" lon="8.9174656">
                <ele>101.0</ele>
                <time>2020-08-30T09:18:14.000Z</time>
                <name>Trackpoint 2484</name>
            </trkpt>
            <trkpt lat="50.10688" lon="8.9173832">
                <ele>101.0</ele>
                <time>2020-08-30T09:18:17.000Z</time>
                <name>Trackpoint 2485</name>
            </trkpt>
            <trkpt lat="50.1069856" lon="8.9173024">
                <ele>101.0</ele>
                <time>2020-08-30T09:18:20.000Z</time>
                <name>Trackpoint 2486</name>
            </trkpt>
            <trkpt lat="50.1070752" lon="8.9172512">
                <ele>101.0</ele>
                <time>2020-08-30T09:18:22.000Z</time>
                <name>Trackpoint 2487</name>
            </trkpt>
            <trkpt lat="50.1071808" lon="8.91716">
                <ele>101.0</ele>
                <time>2020-08-30T09:18:25.000Z</time>
                <name>Trackpoint 2488</name>
            </trkpt>
            <trkpt lat="50.1072896" lon="8.9170864">
                <ele>101.0</ele>
                <time>2020-08-30T09:18:28.000Z</time>
                <name>Trackpoint 2489</name>
            </trkpt>
            <trkpt lat="50.1073888" lon="8.9170264">
                <ele>101.0</ele>
                <time>2020-08-30T09:18:31.000Z</time>
                <name>Trackpoint 2490</name>
            </trkpt>
            <trkpt lat="50.1074976" lon="8.9169776">
                <ele>101.0</ele>
                <time>2020-08-30T09:18:34.000Z</time>
                <name>Trackpoint 2491</name>
            </trkpt>
            <trkpt lat="50.1076256" lon="8.916952">
                <ele>101.0</ele>
                <time>2020-08-30T09:18:37.000Z</time>
                <name>Trackpoint 2492</name>
            </trkpt>
            <trkpt lat="50.1077152" lon="8.9169328">
                <ele>101.0</ele>
                <time>2020-08-30T09:18:39.000Z</time>
                <name>Trackpoint 2493</name>
            </trkpt>
            <trkpt lat="50.1078144" lon="8.9169264">
                <ele>101.0</ele>
                <time>2020-08-30T09:18:41.000Z</time>
                <name>Trackpoint 2494</name>
            </trkpt>
            <trkpt lat="50.1079104" lon="8.916928">
                <ele>101.0</ele>
                <time>2020-08-30T09:18:43.000Z</time>
                <name>Trackpoint 2495</name>
            </trkpt>
            <trkpt lat="50.1080064" lon="8.9169184">
                <ele>101.0</ele>
                <time>2020-08-30T09:18:45.000Z</time>
                <name>Trackpoint 2496</name>
            </trkpt>
            <trkpt lat="50.1081472" lon="8.9169304">
                <ele>102.0</ele>
                <time>2020-08-30T09:18:48.000Z</time>
                <name>Trackpoint 2497</name>
            </trkpt>
            <trkpt lat="50.1082464" lon="8.9169264">
                <ele>102.0</ele>
                <time>2020-08-30T09:18:50.000Z</time>
                <name>Trackpoint 2498</name>
            </trkpt>
            <trkpt lat="50.1083648" lon="8.9169368">
                <ele>102.0</ele>
                <time>2020-08-30T09:18:54.000Z</time>
                <name>Trackpoint 2499</name>
            </trkpt>
            <trkpt lat="50.1084864" lon="8.9168816">
                <ele>102.0</ele>
                <time>2020-08-30T09:18:57.000Z</time>
                <name>Trackpoint 2500</name>
            </trkpt>
            <trkpt lat="50.1085824" lon="8.9168616">
                <ele>102.0</ele>
                <time>2020-08-30T09:18:59.000Z</time>
                <name>Trackpoint 2501</name>
            </trkpt>
            <trkpt lat="50.1086688" lon="8.9168352">
                <ele>102.0</ele>
                <time>2020-08-30T09:19:01.000Z</time>
                <name>Trackpoint 2502</name>
            </trkpt>
            <trkpt lat="50.108768" lon="8.9168368">
                <ele>102.0</ele>
                <time>2020-08-30T09:19:04.000Z</time>
                <name>Trackpoint 2503</name>
            </trkpt>
            <trkpt lat="50.1088832" lon="8.9168904">
                <ele>102.0</ele>
                <time>2020-08-30T09:19:07.000Z</time>
                <name>Trackpoint 2504</name>
            </trkpt>
            <trkpt lat="50.1089856" lon="8.916968">
                <ele>102.0</ele>
                <time>2020-08-30T09:19:10.000Z</time>
                <name>Trackpoint 2505</name>
            </trkpt>
            <trkpt lat="50.109088" lon="8.9170104">
                <ele>102.0</ele>
                <time>2020-08-30T09:19:13.000Z</time>
                <name>Trackpoint 2506</name>
            </trkpt>
            <trkpt lat="50.1091648" lon="8.91694">
                <ele>102.0</ele>
                <time>2020-08-30T09:19:17.000Z</time>
                <name>Trackpoint 2507</name>
            </trkpt>
            <trkpt lat="50.1092544" lon="8.9169232">
                <ele>102.0</ele>
                <time>2020-08-30T09:19:20.000Z</time>
                <name>Trackpoint 2508</name>
            </trkpt>
            <trkpt lat="50.1093472" lon="8.9169168">
                <ele>102.0</ele>
                <time>2020-08-30T09:19:23.000Z</time>
                <name>Trackpoint 2509</name>
            </trkpt>
            <trkpt lat="50.109456" lon="8.9168856">
                <ele>102.0</ele>
                <time>2020-08-30T09:19:27.000Z</time>
                <name>Trackpoint 2510</name>
            </trkpt>
            <trkpt lat="50.109584" lon="8.9168704">
                <ele>102.0</ele>
                <time>2020-08-30T09:19:30.000Z</time>
                <name>Trackpoint 2511</name>
            </trkpt>
            <trkpt lat="50.1096864" lon="8.9168632">
                <ele>102.0</ele>
                <time>2020-08-30T09:19:32.000Z</time>
                <name>Trackpoint 2512</name>
            </trkpt>
            <trkpt lat="50.1097856" lon="8.9168552">
                <ele>102.0</ele>
                <time>2020-08-30T09:19:34.000Z</time>
                <name>Trackpoint 2513</name>
            </trkpt>
            <trkpt lat="50.10992" lon="8.9168528">
                <ele>101.0</ele>
                <time>2020-08-30T09:19:36.000Z</time>
                <name>Trackpoint 2514</name>
            </trkpt>
            <trkpt lat="50.1100224" lon="8.916848">
                <ele>101.0</ele>
                <time>2020-08-30T09:19:38.000Z</time>
                <name>Trackpoint 2515</name>
            </trkpt>
            <trkpt lat="50.1101184" lon="8.916848">
                <ele>101.0</ele>
                <time>2020-08-30T09:19:40.000Z</time>
                <name>Trackpoint 2516</name>
            </trkpt>
            <trkpt lat="50.1102304" lon="8.9168304">
                <ele>101.0</ele>
                <time>2020-08-30T09:19:42.000Z</time>
                <name>Trackpoint 2517</name>
            </trkpt>
            <trkpt lat="50.1103392" lon="8.9168128">
                <ele>101.0</ele>
                <time>2020-08-30T09:19:44.000Z</time>
                <name>Trackpoint 2518</name>
            </trkpt>
            <trkpt lat="50.1104384" lon="8.916788">
                <ele>101.0</ele>
                <time>2020-08-30T09:19:47.000Z</time>
                <name>Trackpoint 2519</name>
            </trkpt>
            <trkpt lat="50.1105312" lon="8.916752">
                <ele>101.0</ele>
                <time>2020-08-30T09:19:49.000Z</time>
                <name>Trackpoint 2520</name>
            </trkpt>
            <trkpt lat="50.1106304" lon="8.9167272">
                <ele>101.0</ele>
                <time>2020-08-30T09:19:51.000Z</time>
                <name>Trackpoint 2521</name>
            </trkpt>
            <trkpt lat="50.110736" lon="8.9167048">
                <ele>101.0</ele>
                <time>2020-08-30T09:19:53.000Z</time>
                <name>Trackpoint 2522</name>
            </trkpt>
            <trkpt lat="50.1108576" lon="8.91668">
                <ele>101.0</ele>
                <time>2020-08-30T09:19:56.000Z</time>
                <name>Trackpoint 2523</name>
            </trkpt>
            <trkpt lat="50.1110048" lon="8.9166696">
                <ele>101.0</ele>
                <time>2020-08-30T09:19:59.000Z</time>
                <name>Trackpoint 2524</name>
            </trkpt>
            <trkpt lat="50.1111072" lon="8.9166632">
                <ele>101.0</ele>
                <time>2020-08-30T09:20:01.000Z</time>
                <name>Trackpoint 2525</name>
            </trkpt>
            <trkpt lat="50.1112096" lon="8.916648">
                <ele>101.0</ele>
                <time>2020-08-30T09:20:03.000Z</time>
                <name>Trackpoint 2526</name>
            </trkpt>
            <trkpt lat="50.1113024" lon="8.916608">
                <ele>101.0</ele>
                <time>2020-08-30T09:20:05.000Z</time>
                <name>Trackpoint 2527</name>
            </trkpt>
            <trkpt lat="50.1113952" lon="8.9165624">
                <ele>101.0</ele>
                <time>2020-08-30T09:20:07.000Z</time>
                <name>Trackpoint 2528</name>
            </trkpt>
            <trkpt lat="50.1115072" lon="8.9165096">
                <ele>101.0</ele>
                <time>2020-08-30T09:20:10.000Z</time>
                <name>Trackpoint 2529</name>
            </trkpt>
            <trkpt lat="50.1116" lon="8.9164736">
                <ele>101.0</ele>
                <time>2020-08-30T09:20:12.000Z</time>
                <name>Trackpoint 2530</name>
            </trkpt>
            <trkpt lat="50.1116896" lon="8.9164488">
                <ele>101.0</ele>
                <time>2020-08-30T09:20:14.000Z</time>
                <name>Trackpoint 2531</name>
            </trkpt>
            <trkpt lat="50.1118208" lon="8.9164488">
                <ele>101.0</ele>
                <time>2020-08-30T09:20:17.000Z</time>
                <name>Trackpoint 2532</name>
            </trkpt>
            <trkpt lat="50.1119488" lon="8.9164488">
                <ele>101.0</ele>
                <time>2020-08-30T09:20:20.000Z</time>
                <name>Trackpoint 2533</name>
            </trkpt>
            <trkpt lat="50.1120384" lon="8.9164312">
                <ele>101.0</ele>
                <time>2020-08-30T09:20:22.000Z</time>
                <name>Trackpoint 2534</name>
            </trkpt>
            <trkpt lat="50.112128" lon="8.9164064">
                <ele>101.0</ele>
                <time>2020-08-30T09:20:24.000Z</time>
                <name>Trackpoint 2535</name>
            </trkpt>
            <trkpt lat="50.1122144" lon="8.9163752">
                <ele>101.0</ele>
                <time>2020-08-30T09:20:26.000Z</time>
                <name>Trackpoint 2536</name>
            </trkpt>
            <trkpt lat="50.1123072" lon="8.9163464">
                <ele>101.0</ele>
                <time>2020-08-30T09:20:28.000Z</time>
                <name>Trackpoint 2537</name>
            </trkpt>
            <trkpt lat="50.1124" lon="8.9163104">
                <ele>101.0</ele>
                <time>2020-08-30T09:20:30.000Z</time>
                <name>Trackpoint 2538</name>
            </trkpt>
            <trkpt lat="50.112496" lon="8.91624">
                <ele>101.0</ele>
                <time>2020-08-30T09:20:33.000Z</time>
                <name>Trackpoint 2539</name>
            </trkpt>
            <trkpt lat="50.1125984" lon="8.9161768">
                <ele>101.0</ele>
                <time>2020-08-30T09:20:36.000Z</time>
                <name>Trackpoint 2540</name>
            </trkpt>
            <trkpt lat="50.1126816" lon="8.9161192">
                <ele>101.0</ele>
                <time>2020-08-30T09:20:39.000Z</time>
                <name>Trackpoint 2541</name>
            </trkpt>
            <trkpt lat="50.1127904" lon="8.9160544">
                <ele>101.0</ele>
                <time>2020-08-30T09:20:42.000Z</time>
                <name>Trackpoint 2542</name>
            </trkpt>
            <trkpt lat="50.1128928" lon="8.916">
                <ele>100.0</ele>
                <time>2020-08-30T09:20:45.000Z</time>
                <name>Trackpoint 2543</name>
            </trkpt>
            <trkpt lat="50.1130208" lon="8.9159672">
                <ele>100.0</ele>
                <time>2020-08-30T09:20:47.000Z</time>
                <name>Trackpoint 2544</name>
            </trkpt>
            <trkpt lat="50.1131488" lon="8.9159472">
                <ele>100.0</ele>
                <time>2020-08-30T09:20:49.000Z</time>
                <name>Trackpoint 2545</name>
            </trkpt>
            <trkpt lat="50.1132768" lon="8.9159272">
                <ele>100.0</ele>
                <time>2020-08-30T09:20:51.000Z</time>
                <name>Trackpoint 2546</name>
            </trkpt>
            <trkpt lat="50.1134144" lon="8.9159136">
                <ele>100.0</ele>
                <time>2020-08-30T09:20:53.000Z</time>
                <name>Trackpoint 2547</name>
            </trkpt>
            <trkpt lat="50.113536" lon="8.91588">
                <ele>101.0</ele>
                <time>2020-08-30T09:20:55.000Z</time>
                <name>Trackpoint 2548</name>
            </trkpt>
            <trkpt lat="50.113648" lon="8.91584">
                <ele>101.0</ele>
                <time>2020-08-30T09:20:57.000Z</time>
                <name>Trackpoint 2549</name>
            </trkpt>
            <trkpt lat="50.1137344" lon="8.9158032">
                <ele>101.0</ele>
                <time>2020-08-30T09:20:59.000Z</time>
                <name>Trackpoint 2550</name>
            </trkpt>
            <trkpt lat="50.1138304" lon="8.9157512">
                <ele>101.0</ele>
                <time>2020-08-30T09:21:01.000Z</time>
                <name>Trackpoint 2551</name>
            </trkpt>
            <trkpt lat="50.1139168" lon="8.9156968">
                <ele>101.0</ele>
                <time>2020-08-30T09:21:03.000Z</time>
                <name>Trackpoint 2552</name>
            </trkpt>
            <trkpt lat="50.114" lon="8.91566">
                <ele>101.0</ele>
                <time>2020-08-30T09:21:05.000Z</time>
                <name>Trackpoint 2553</name>
            </trkpt>
            <trkpt lat="50.114112" lon="8.9156168">
                <ele>101.0</ele>
                <time>2020-08-30T09:21:08.000Z</time>
                <name>Trackpoint 2554</name>
            </trkpt>
            <trkpt lat="50.114208" lon="8.9155928">
                <ele>101.0</ele>
                <time>2020-08-30T09:21:10.000Z</time>
                <name>Trackpoint 2555</name>
            </trkpt>
            <trkpt lat="50.1143296" lon="8.915552">
                <ele>101.0</ele>
                <time>2020-08-30T09:21:13.000Z</time>
                <name>Trackpoint 2556</name>
            </trkpt>
            <trkpt lat="50.114432" lon="8.9155352">
                <ele>101.0</ele>
                <time>2020-08-30T09:21:16.000Z</time>
                <name>Trackpoint 2557</name>
            </trkpt>
            <trkpt lat="50.1145312" lon="8.915588">
                <ele>101.0</ele>
                <time>2020-08-30T09:21:48.000Z</time>
                <name>Trackpoint 2558</name>
            </trkpt>
            <trkpt lat="50.1146208" lon="8.9155128">
                <ele>101.0</ele>
                <time>2020-08-30T09:21:55.000Z</time>
                <name>Trackpoint 2559</name>
            </trkpt>
            <trkpt lat="50.1147168" lon="8.9154952">
                <ele>101.0</ele>
                <time>2020-08-30T09:21:58.000Z</time>
                <name>Trackpoint 2560</name>
            </trkpt>
            <trkpt lat="50.1148032" lon="8.9154568">
                <ele>101.0</ele>
                <time>2020-08-30T09:22:00.000Z</time>
                <name>Trackpoint 2561</name>
            </trkpt>
            <trkpt lat="50.1149056" lon="8.9154168">
                <ele>101.0</ele>
                <time>2020-08-30T09:22:02.000Z</time>
                <name>Trackpoint 2562</name>
            </trkpt>
            <trkpt lat="50.1150048" lon="8.9153864">
                <ele>101.0</ele>
                <time>2020-08-30T09:22:04.000Z</time>
                <name>Trackpoint 2563</name>
            </trkpt>
            <trkpt lat="50.1151136" lon="8.9153536">
                <ele>101.0</ele>
                <time>2020-08-30T09:22:06.000Z</time>
                <name>Trackpoint 2564</name>
            </trkpt>
            <trkpt lat="50.1152224" lon="8.9153144">
                <ele>101.0</ele>
                <time>2020-08-30T09:22:08.000Z</time>
                <name>Trackpoint 2565</name>
            </trkpt>
            <trkpt lat="50.1153312" lon="8.9152848">
                <ele>101.0</ele>
                <time>2020-08-30T09:22:10.000Z</time>
                <name>Trackpoint 2566</name>
            </trkpt>
            <trkpt lat="50.1154336" lon="8.9152496">
                <ele>101.0</ele>
                <time>2020-08-30T09:22:12.000Z</time>
                <name>Trackpoint 2567</name>
            </trkpt>
            <trkpt lat="50.1155648" lon="8.915212">
                <ele>101.0</ele>
                <time>2020-08-30T09:22:14.000Z</time>
                <name>Trackpoint 2568</name>
            </trkpt>
            <trkpt lat="50.1156768" lon="8.9151648">
                <ele>101.0</ele>
                <time>2020-08-30T09:22:16.000Z</time>
                <name>Trackpoint 2569</name>
            </trkpt>
            <trkpt lat="50.1157888" lon="8.9151352">
                <ele>101.0</ele>
                <time>2020-08-30T09:22:18.000Z</time>
                <name>Trackpoint 2570</name>
            </trkpt>
            <trkpt lat="50.1158976" lon="8.9151024">
                <ele>101.0</ele>
                <time>2020-08-30T09:22:20.000Z</time>
                <name>Trackpoint 2571</name>
            </trkpt>
            <trkpt lat="50.1159936" lon="8.9150664">
                <ele>101.0</ele>
                <time>2020-08-30T09:22:22.000Z</time>
                <name>Trackpoint 2572</name>
            </trkpt>
            <trkpt lat="50.11608" lon="8.9150288">
                <ele>101.0</ele>
                <time>2020-08-30T09:22:24.000Z</time>
                <name>Trackpoint 2573</name>
            </trkpt>
            <trkpt lat="50.1161728" lon="8.915">
                <ele>101.0</ele>
                <time>2020-08-30T09:22:26.000Z</time>
                <name>Trackpoint 2574</name>
            </trkpt>
            <trkpt lat="50.116288" lon="8.9149616">
                <ele>101.0</ele>
                <time>2020-08-30T09:22:29.000Z</time>
                <name>Trackpoint 2575</name>
            </trkpt>
            <trkpt lat="50.1163744" lon="8.9149216">
                <ele>101.0</ele>
                <time>2020-08-30T09:22:33.000Z</time>
                <name>Trackpoint 2576</name>
            </trkpt>
            <trkpt lat="50.1164672" lon="8.9149088">
                <ele>101.0</ele>
                <time>2020-08-30T09:23:28.000Z</time>
                <name>Trackpoint 2577</name>
            </trkpt>
            <trkpt lat="50.1165888" lon="8.9148664">
                <ele>101.0</ele>
                <time>2020-08-30T09:23:32.000Z</time>
                <name>Trackpoint 2578</name>
            </trkpt>
            <trkpt lat="50.1166944" lon="8.9148264">
                <ele>101.0</ele>
                <time>2020-08-30T09:23:35.000Z</time>
                <name>Trackpoint 2579</name>
            </trkpt>
            <trkpt lat="50.1168224" lon="8.914792">
                <ele>101.0</ele>
                <time>2020-08-30T09:23:38.000Z</time>
                <name>Trackpoint 2580</name>
            </trkpt>
            <trkpt lat="50.1169216" lon="8.9147504">
                <ele>101.0</ele>
                <time>2020-08-30T09:23:41.000Z</time>
                <name>Trackpoint 2581</name>
            </trkpt>
            <trkpt lat="50.1170272" lon="8.9146928">
                <ele>101.0</ele>
                <time>2020-08-30T09:23:44.000Z</time>
                <name>Trackpoint 2582</name>
            </trkpt>
            <trkpt lat="50.1171136" lon="8.9146568">
                <ele>101.0</ele>
                <time>2020-08-30T09:23:47.000Z</time>
                <name>Trackpoint 2583</name>
            </trkpt>
            <trkpt lat="50.1172224" lon="8.9146096">
                <ele>101.0</ele>
                <time>2020-08-30T09:23:50.000Z</time>
                <name>Trackpoint 2584</name>
            </trkpt>
            <trkpt lat="50.1173472" lon="8.91456">
                <ele>101.0</ele>
                <time>2020-08-30T09:23:53.000Z</time>
                <name>Trackpoint 2585</name>
            </trkpt>
            <trkpt lat="50.11744" lon="8.914548">
                <ele>101.0</ele>
                <time>2020-08-30T09:23:56.000Z</time>
                <name>Trackpoint 2586</name>
            </trkpt>
            <trkpt lat="50.1175296" lon="8.914512">
                <ele>101.0</ele>
                <time>2020-08-30T09:23:59.000Z</time>
                <name>Trackpoint 2587</name>
            </trkpt>
            <trkpt lat="50.117616" lon="8.9144624">
                <ele>101.0</ele>
                <time>2020-08-30T09:24:02.000Z</time>
                <name>Trackpoint 2588</name>
            </trkpt>
            <trkpt lat="50.1177344" lon="8.9144032">
                <ele>101.0</ele>
                <time>2020-08-30T09:24:05.000Z</time>
                <name>Trackpoint 2589</name>
            </trkpt>
            <trkpt lat="50.11784" lon="8.9143712">
                <ele>101.0</ele>
                <time>2020-08-30T09:24:08.000Z</time>
                <name>Trackpoint 2590</name>
            </trkpt>
            <trkpt lat="50.1179552" lon="8.9143584">
                <ele>101.0</ele>
                <time>2020-08-30T09:24:11.000Z</time>
                <name>Trackpoint 2591</name>
            </trkpt>
            <trkpt lat="50.1180768" lon="8.9143264">
                <ele>101.0</ele>
                <time>2020-08-30T09:24:14.000Z</time>
                <name>Trackpoint 2592</name>
            </trkpt>
            <trkpt lat="50.1181984" lon="8.91424">
                <ele>101.0</ele>
                <time>2020-08-30T09:24:17.000Z</time>
                <name>Trackpoint 2593</name>
            </trkpt>
            <trkpt lat="50.1182784" lon="8.9141816">
                <ele>101.0</ele>
                <time>2020-08-30T09:24:19.000Z</time>
                <name>Trackpoint 2594</name>
            </trkpt>
            <trkpt lat="50.1184" lon="8.9141232">
                <ele>101.0</ele>
                <time>2020-08-30T09:24:21.000Z</time>
                <name>Trackpoint 2595</name>
            </trkpt>
            <trkpt lat="50.1184896" lon="8.9140656">
                <ele>101.0</ele>
                <time>2020-08-30T09:24:23.000Z</time>
                <name>Trackpoint 2596</name>
            </trkpt>
            <trkpt lat="50.1185792" lon="8.9140216">
                <ele>101.0</ele>
                <time>2020-08-30T09:24:25.000Z</time>
                <name>Trackpoint 2597</name>
            </trkpt>
            <trkpt lat="50.1186688" lon="8.9139832">
                <ele>101.0</ele>
                <time>2020-08-30T09:24:27.000Z</time>
                <name>Trackpoint 2598</name>
            </trkpt>
            <trkpt lat="50.1187552" lon="8.9139344">
                <ele>101.0</ele>
                <time>2020-08-30T09:24:29.000Z</time>
                <name>Trackpoint 2599</name>
            </trkpt>
            <trkpt lat="50.118848" lon="8.913872">
                <ele>101.0</ele>
                <time>2020-08-30T09:24:31.000Z</time>
                <name>Trackpoint 2600</name>
            </trkpt>
            <trkpt lat="50.1189472" lon="8.9138144">
                <ele>101.0</ele>
                <time>2020-08-30T09:24:33.000Z</time>
                <name>Trackpoint 2601</name>
            </trkpt>
            <trkpt lat="50.1190336" lon="8.9137488">
                <ele>101.0</ele>
                <time>2020-08-30T09:24:35.000Z</time>
                <name>Trackpoint 2602</name>
            </trkpt>
            <trkpt lat="50.1191488" lon="8.9136936">
                <ele>101.0</ele>
                <time>2020-08-30T09:24:37.000Z</time>
                <name>Trackpoint 2603</name>
            </trkpt>
            <trkpt lat="50.1192448" lon="8.9136384">
                <ele>101.0</ele>
                <time>2020-08-30T09:24:39.000Z</time>
                <name>Trackpoint 2604</name>
            </trkpt>
            <trkpt lat="50.1193344" lon="8.9135688">
                <ele>101.0</ele>
                <time>2020-08-30T09:24:41.000Z</time>
                <name>Trackpoint 2605</name>
            </trkpt>
            <trkpt lat="50.1194432" lon="8.9134968">
                <ele>101.0</ele>
                <time>2020-08-30T09:24:43.000Z</time>
                <name>Trackpoint 2606</name>
            </trkpt>
            <trkpt lat="50.1195296" lon="8.9134384">
                <ele>101.0</ele>
                <time>2020-08-30T09:24:45.000Z</time>
                <name>Trackpoint 2607</name>
            </trkpt>
            <trkpt lat="50.119616" lon="8.9133768">
                <ele>101.0</ele>
                <time>2020-08-30T09:24:47.000Z</time>
                <name>Trackpoint 2608</name>
            </trkpt>
            <trkpt lat="50.1197088" lon="8.913308">
                <ele>101.0</ele>
                <time>2020-08-30T09:24:49.000Z</time>
                <name>Trackpoint 2609</name>
            </trkpt>
            <trkpt lat="50.119824" lon="8.9132456">
                <ele>102.0</ele>
                <time>2020-08-30T09:24:51.000Z</time>
                <name>Trackpoint 2610</name>
            </trkpt>
            <trkpt lat="50.1199136" lon="8.9131672">
                <ele>102.0</ele>
                <time>2020-08-30T09:24:53.000Z</time>
                <name>Trackpoint 2611</name>
            </trkpt>
            <trkpt lat="50.12" lon="8.9131">
                <ele>102.0</ele>
                <time>2020-08-30T09:24:55.000Z</time>
                <name>Trackpoint 2612</name>
            </trkpt>
            <trkpt lat="50.1200864" lon="8.9130384">
                <ele>102.0</ele>
                <time>2020-08-30T09:24:57.000Z</time>
                <name>Trackpoint 2613</name>
            </trkpt>
            <trkpt lat="50.1201888" lon="8.91296">
                <ele>102.0</ele>
                <time>2020-08-30T09:25:00.000Z</time>
                <name>Trackpoint 2614</name>
            </trkpt>
            <trkpt lat="50.1203072" lon="8.912884">
                <ele>102.0</ele>
                <time>2020-08-30T09:25:03.000Z</time>
                <name>Trackpoint 2615</name>
            </trkpt>
            <trkpt lat="50.1203776" lon="8.9128216">
                <ele>102.0</ele>
                <time>2020-08-30T09:25:05.000Z</time>
                <name>Trackpoint 2616</name>
            </trkpt>
            <trkpt lat="50.1204704" lon="8.9127256">
                <ele>102.0</ele>
                <time>2020-08-30T09:25:08.000Z</time>
                <name>Trackpoint 2617</name>
            </trkpt>
            <trkpt lat="50.1205568" lon="8.9126216">
                <ele>102.0</ele>
                <time>2020-08-30T09:25:10.000Z</time>
                <name>Trackpoint 2618</name>
            </trkpt>
            <trkpt lat="50.1206656" lon="8.9125496">
                <ele>102.0</ele>
                <time>2020-08-30T09:25:12.000Z</time>
                <name>Trackpoint 2619</name>
            </trkpt>
            <trkpt lat="50.1208" lon="8.9124696">
                <ele>102.0</ele>
                <time>2020-08-30T09:25:14.000Z</time>
                <name>Trackpoint 2620</name>
            </trkpt>
            <trkpt lat="50.1208832" lon="8.912392">
                <ele>102.0</ele>
                <time>2020-08-30T09:25:16.000Z</time>
                <name>Trackpoint 2621</name>
            </trkpt>
            <trkpt lat="50.1209728" lon="8.91232">
                <ele>103.0</ele>
                <time>2020-08-30T09:25:18.000Z</time>
                <name>Trackpoint 2622</name>
            </trkpt>
            <trkpt lat="50.121056" lon="8.912256">
                <ele>103.0</ele>
                <time>2020-08-30T09:25:20.000Z</time>
                <name>Trackpoint 2623</name>
            </trkpt>
            <trkpt lat="50.121152" lon="8.9121784">
                <ele>103.0</ele>
                <time>2020-08-30T09:25:22.000Z</time>
                <name>Trackpoint 2624</name>
            </trkpt>
            <trkpt lat="50.1212224" lon="8.9121064">
                <ele>103.0</ele>
                <time>2020-08-30T09:25:24.000Z</time>
                <name>Trackpoint 2625</name>
            </trkpt>
            <trkpt lat="50.1213024" lon="8.9120448">
                <ele>103.0</ele>
                <time>2020-08-30T09:25:26.000Z</time>
                <name>Trackpoint 2626</name>
            </trkpt>
            <trkpt lat="50.1213984" lon="8.911948">
                <ele>103.0</ele>
                <time>2020-08-30T09:25:29.000Z</time>
                <name>Trackpoint 2627</name>
            </trkpt>
            <trkpt lat="50.1214592" lon="8.9118792">
                <ele>103.0</ele>
                <time>2020-08-30T09:25:31.000Z</time>
                <name>Trackpoint 2628</name>
            </trkpt>
            <trkpt lat="50.1215392" lon="8.9117984">
                <ele>103.0</ele>
                <time>2020-08-30T09:25:33.000Z</time>
                <name>Trackpoint 2629</name>
            </trkpt>
            <trkpt lat="50.1216224" lon="8.911712">
                <ele>103.0</ele>
                <time>2020-08-30T09:25:35.000Z</time>
                <name>Trackpoint 2630</name>
            </trkpt>
            <trkpt lat="50.1217184" lon="8.9116272">
                <ele>103.0</ele>
                <time>2020-08-30T09:25:37.000Z</time>
                <name>Trackpoint 2631</name>
            </trkpt>
            <trkpt lat="50.1217696" lon="8.9115512">
                <ele>103.0</ele>
                <time>2020-08-30T09:25:38.000Z</time>
                <name>Trackpoint 2632</name>
            </trkpt>
            <trkpt lat="50.1218848" lon="8.9114536">
                <ele>103.0</ele>
                <time>2020-08-30T09:25:40.000Z</time>
                <name>Trackpoint 2633</name>
            </trkpt>
            <trkpt lat="50.121968" lon="8.9113712">
                <ele>103.0</ele>
                <time>2020-08-30T09:25:42.000Z</time>
                <name>Trackpoint 2634</name>
            </trkpt>
            <trkpt lat="50.1220544" lon="8.9112856">
                <ele>103.0</ele>
                <time>2020-08-30T09:25:44.000Z</time>
                <name>Trackpoint 2635</name>
            </trkpt>
            <trkpt lat="50.1221344" lon="8.9111904">
                <ele>103.0</ele>
                <time>2020-08-30T09:25:46.000Z</time>
                <name>Trackpoint 2636</name>
            </trkpt>
            <trkpt lat="50.1222304" lon="8.9111072">
                <ele>103.0</ele>
                <time>2020-08-30T09:25:48.000Z</time>
                <name>Trackpoint 2637</name>
            </trkpt>
            <trkpt lat="50.1223296" lon="8.911052">
                <ele>103.0</ele>
                <time>2020-08-30T09:25:50.000Z</time>
                <name>Trackpoint 2638</name>
            </trkpt>
            <trkpt lat="50.1222752" lon="8.911132">
                <ele>103.0</ele>
                <time>2020-08-30T09:26:06.000Z</time>
                <name>Trackpoint 2639</name>
            </trkpt>
            <trkpt lat="50.1223712" lon="8.9110648">
                <ele>104.0</ele>
                <time>2020-08-30T09:26:11.000Z</time>
                <name>Trackpoint 2640</name>
            </trkpt>
            <trkpt lat="50.1224416" lon="8.9109984">
                <ele>103.0</ele>
                <time>2020-08-30T09:26:14.000Z</time>
                <name>Trackpoint 2641</name>
            </trkpt>
            <trkpt lat="50.1225248" lon="8.9109384">
                <ele>103.0</ele>
                <time>2020-08-30T09:26:18.000Z</time>
                <name>Trackpoint 2642</name>
            </trkpt>
            <trkpt lat="50.122592" lon="8.9108712">
                <ele>102.0</ele>
                <time>2020-08-30T09:26:22.000Z</time>
                <name>Trackpoint 2643</name>
            </trkpt>
            <trkpt lat="50.1226624" lon="8.9107984">
                <ele>102.0</ele>
                <time>2020-08-30T09:26:25.000Z</time>
                <name>Trackpoint 2644</name>
            </trkpt>
            <trkpt lat="50.1227328" lon="8.9106952">
                <ele>102.0</ele>
                <time>2020-08-30T09:26:28.000Z</time>
                <name>Trackpoint 2645</name>
            </trkpt>
            <trkpt lat="50.1228224" lon="8.9106256">
                <ele>102.0</ele>
                <time>2020-08-30T09:26:31.000Z</time>
                <name>Trackpoint 2646</name>
            </trkpt>
            <trkpt lat="50.122912" lon="8.91056">
                <ele>102.0</ele>
                <time>2020-08-30T09:26:35.000Z</time>
                <name>Trackpoint 2647</name>
            </trkpt>
            <trkpt lat="50.1229504" lon="8.9104536">
                <ele>103.0</ele>
                <time>2020-08-30T09:26:39.000Z</time>
                <name>Trackpoint 2648</name>
            </trkpt>
            <trkpt lat="50.1230304" lon="8.9103536">
                <ele>104.0</ele>
                <time>2020-08-30T09:26:43.000Z</time>
                <name>Trackpoint 2649</name>
            </trkpt>
            <trkpt lat="50.123104" lon="8.9102152">
                <ele>103.0</ele>
                <time>2020-08-30T09:26:45.000Z</time>
                <name>Trackpoint 2650</name>
            </trkpt>
            <trkpt lat="50.1231712" lon="8.9101536">
                <ele>103.0</ele>
                <time>2020-08-30T09:26:46.000Z</time>
                <name>Trackpoint 2651</name>
            </trkpt>
            <trkpt lat="50.1232896" lon="8.910044">
                <ele>103.0</ele>
                <time>2020-08-30T09:26:48.000Z</time>
                <name>Trackpoint 2652</name>
            </trkpt>
            <trkpt lat="50.1233888" lon="8.9099376">
                <ele>103.0</ele>
                <time>2020-08-30T09:26:50.000Z</time>
                <name>Trackpoint 2653</name>
            </trkpt>
            <trkpt lat="50.1234752" lon="8.9098264">
                <ele>103.0</ele>
                <time>2020-08-30T09:26:52.000Z</time>
                <name>Trackpoint 2654</name>
            </trkpt>
            <trkpt lat="50.1235616" lon="8.909708">
                <ele>103.0</ele>
                <time>2020-08-30T09:26:54.000Z</time>
                <name>Trackpoint 2655</name>
            </trkpt>
            <trkpt lat="50.1236352" lon="8.9095944">
                <ele>103.0</ele>
                <time>2020-08-30T09:26:56.000Z</time>
                <name>Trackpoint 2656</name>
            </trkpt>
            <trkpt lat="50.123712" lon="8.9094896">
                <ele>103.0</ele>
                <time>2020-08-30T09:26:58.000Z</time>
                <name>Trackpoint 2657</name>
            </trkpt>
            <trkpt lat="50.123792" lon="8.9093952">
                <ele>103.0</ele>
                <time>2020-08-30T09:27:00.000Z</time>
                <name>Trackpoint 2658</name>
            </trkpt>
            <trkpt lat="50.1238624" lon="8.9092864">
                <ele>103.0</ele>
                <time>2020-08-30T09:27:02.000Z</time>
                <name>Trackpoint 2659</name>
            </trkpt>
            <trkpt lat="50.1239392" lon="8.909188">
                <ele>103.0</ele>
                <time>2020-08-30T09:27:04.000Z</time>
                <name>Trackpoint 2660</name>
            </trkpt>
            <trkpt lat="50.1240096" lon="8.9090968">
                <ele>103.0</ele>
                <time>2020-08-30T09:27:06.000Z</time>
                <name>Trackpoint 2661</name>
            </trkpt>
            <trkpt lat="50.1240608" lon="8.90896">
                <ele>103.0</ele>
                <time>2020-08-30T09:27:08.000Z</time>
                <name>Trackpoint 2662</name>
            </trkpt>
            <trkpt lat="50.1240992" lon="8.908836">
                <ele>103.0</ele>
                <time>2020-08-30T09:27:10.000Z</time>
                <name>Trackpoint 2663</name>
            </trkpt>
            <trkpt lat="50.1241536" lon="8.9087312">
                <ele>103.0</ele>
                <time>2020-08-30T09:27:12.000Z</time>
                <name>Trackpoint 2664</name>
            </trkpt>
            <trkpt lat="50.1242176" lon="8.9086336">
                <ele>103.0</ele>
                <time>2020-08-30T09:27:14.000Z</time>
                <name>Trackpoint 2665</name>
            </trkpt>
            <trkpt lat="50.1243072" lon="8.9085432">
                <ele>103.0</ele>
                <time>2020-08-30T09:27:16.000Z</time>
                <name>Trackpoint 2666</name>
            </trkpt>
            <trkpt lat="50.1243872" lon="8.9084632">
                <ele>103.0</ele>
                <time>2020-08-30T09:27:18.000Z</time>
                <name>Trackpoint 2667</name>
            </trkpt>
            <trkpt lat="50.1244704" lon="8.9083744">
                <ele>103.0</ele>
                <time>2020-08-30T09:27:20.000Z</time>
                <name>Trackpoint 2668</name>
            </trkpt>
            <trkpt lat="50.1245472" lon="8.908288">
                <ele>103.0</ele>
                <time>2020-08-30T09:27:22.000Z</time>
                <name>Trackpoint 2669</name>
            </trkpt>
            <trkpt lat="50.1246272" lon="8.9082016">
                <ele>103.0</ele>
                <time>2020-08-30T09:27:24.000Z</time>
                <name>Trackpoint 2670</name>
            </trkpt>
            <trkpt lat="50.12472" lon="8.9081048">
                <ele>103.0</ele>
                <time>2020-08-30T09:27:26.000Z</time>
                <name>Trackpoint 2671</name>
            </trkpt>
            <trkpt lat="50.1248128" lon="8.9080152">
                <ele>103.0</ele>
                <time>2020-08-30T09:27:28.000Z</time>
                <name>Trackpoint 2672</name>
            </trkpt>
            <trkpt lat="50.1249024" lon="8.9079336">
                <ele>103.0</ele>
                <time>2020-08-30T09:27:30.000Z</time>
                <name>Trackpoint 2673</name>
            </trkpt>
            <trkpt lat="50.1249888" lon="8.907848">
                <ele>103.0</ele>
                <time>2020-08-30T09:27:32.000Z</time>
                <name>Trackpoint 2674</name>
            </trkpt>
            <trkpt lat="50.125072" lon="8.9077528">
                <ele>103.0</ele>
                <time>2020-08-30T09:27:34.000Z</time>
                <name>Trackpoint 2675</name>
            </trkpt>
            <trkpt lat="50.1251552" lon="8.907648">
                <ele>103.0</ele>
                <time>2020-08-30T09:27:36.000Z</time>
                <name>Trackpoint 2676</name>
            </trkpt>
            <trkpt lat="50.125216" lon="8.9075616">
                <ele>103.0</ele>
                <time>2020-08-30T09:27:38.000Z</time>
                <name>Trackpoint 2677</name>
            </trkpt>
            <trkpt lat="50.12528" lon="8.9074696">
                <ele>103.0</ele>
                <time>2020-08-30T09:27:40.000Z</time>
                <name>Trackpoint 2678</name>
            </trkpt>
            <trkpt lat="50.1253696" lon="8.9073784">
                <ele>103.0</ele>
                <time>2020-08-30T09:27:42.000Z</time>
                <name>Trackpoint 2679</name>
            </trkpt>
            <trkpt lat="50.12544" lon="8.9072864">
                <ele>103.0</ele>
                <time>2020-08-30T09:27:44.000Z</time>
                <name>Trackpoint 2680</name>
            </trkpt>
            <trkpt lat="50.1254944" lon="8.9071952">
                <ele>103.0</ele>
                <time>2020-08-30T09:27:46.000Z</time>
                <name>Trackpoint 2681</name>
            </trkpt>
            <trkpt lat="50.1255776" lon="8.9070728">
                <ele>102.0</ele>
                <time>2020-08-30T09:27:48.000Z</time>
                <name>Trackpoint 2682</name>
            </trkpt>
            <trkpt lat="50.1256672" lon="8.9069368">
                <ele>103.0</ele>
                <time>2020-08-30T09:27:50.000Z</time>
                <name>Trackpoint 2683</name>
            </trkpt>
            <trkpt lat="50.1257184" lon="8.9067944">
                <ele>102.0</ele>
                <time>2020-08-30T09:27:52.000Z</time>
                <name>Trackpoint 2684</name>
            </trkpt>
            <trkpt lat="50.1257184" lon="8.9066464">
                <ele>102.0</ele>
                <time>2020-08-30T09:27:54.000Z</time>
                <name>Trackpoint 2685</name>
            </trkpt>
            <trkpt lat="50.1257408" lon="8.9065088">
                <ele>102.0</ele>
                <time>2020-08-30T09:27:56.000Z</time>
                <name>Trackpoint 2686</name>
            </trkpt>
            <trkpt lat="50.125824" lon="8.9064016">
                <ele>103.0</ele>
                <time>2020-08-30T09:27:58.000Z</time>
                <name>Trackpoint 2687</name>
            </trkpt>
            <trkpt lat="50.12592" lon="8.906312">
                <ele>103.0</ele>
                <time>2020-08-30T09:28:00.000Z</time>
                <name>Trackpoint 2688</name>
            </trkpt>
            <trkpt lat="50.1260032" lon="8.9062208">
                <ele>103.0</ele>
                <time>2020-08-30T09:28:02.000Z</time>
                <name>Trackpoint 2689</name>
            </trkpt>
            <trkpt lat="50.1260864" lon="8.9061384">
                <ele>103.0</ele>
                <time>2020-08-30T09:28:04.000Z</time>
                <name>Trackpoint 2690</name>
            </trkpt>
            <trkpt lat="50.1261696" lon="8.9060384">
                <ele>103.0</ele>
                <time>2020-08-30T09:28:06.000Z</time>
                <name>Trackpoint 2691</name>
            </trkpt>
            <trkpt lat="50.1262464" lon="8.90594">
                <ele>103.0</ele>
                <time>2020-08-30T09:28:08.000Z</time>
                <name>Trackpoint 2692</name>
            </trkpt>
            <trkpt lat="50.1263232" lon="8.9058352">
                <ele>103.0</ele>
                <time>2020-08-30T09:28:10.000Z</time>
                <name>Trackpoint 2693</name>
            </trkpt>
            <trkpt lat="50.1263968" lon="8.9057192">
                <ele>103.0</ele>
                <time>2020-08-30T09:28:12.000Z</time>
                <name>Trackpoint 2694</name>
            </trkpt>
            <trkpt lat="50.1264768" lon="8.9056056">
                <ele>103.0</ele>
                <time>2020-08-30T09:28:14.000Z</time>
                <name>Trackpoint 2695</name>
            </trkpt>
            <trkpt lat="50.1265536" lon="8.905492">
                <ele>103.0</ele>
                <time>2020-08-30T09:28:16.000Z</time>
                <name>Trackpoint 2696</name>
            </trkpt>
            <trkpt lat="50.1266368" lon="8.9053896">
                <ele>103.0</ele>
                <time>2020-08-30T09:28:18.000Z</time>
                <name>Trackpoint 2697</name>
            </trkpt>
            <trkpt lat="50.1267104" lon="8.9052736">
                <ele>103.0</ele>
                <time>2020-08-30T09:28:20.000Z</time>
                <name>Trackpoint 2698</name>
            </trkpt>
            <trkpt lat="50.1267808" lon="8.9051552">
                <ele>103.0</ele>
                <time>2020-08-30T09:28:22.000Z</time>
                <name>Trackpoint 2699</name>
            </trkpt>
            <trkpt lat="50.1268576" lon="8.9050328">
                <ele>104.0</ele>
                <time>2020-08-30T09:28:24.000Z</time>
                <name>Trackpoint 2700</name>
            </trkpt>
            <trkpt lat="50.1269216" lon="8.904912">
                <ele>104.0</ele>
                <time>2020-08-30T09:28:26.000Z</time>
                <name>Trackpoint 2701</name>
            </trkpt>
            <trkpt lat="50.1269824" lon="8.9047816">
                <ele>104.0</ele>
                <time>2020-08-30T09:28:28.000Z</time>
                <name>Trackpoint 2702</name>
            </trkpt>
            <trkpt lat="50.1270304" lon="8.9046472">
                <ele>104.0</ele>
                <time>2020-08-30T09:28:30.000Z</time>
                <name>Trackpoint 2703</name>
            </trkpt>
            <trkpt lat="50.127072" lon="8.9045216">
                <ele>104.0</ele>
                <time>2020-08-30T09:28:32.000Z</time>
                <name>Trackpoint 2704</name>
            </trkpt>
            <trkpt lat="50.12712" lon="8.9044152">
                <ele>103.0</ele>
                <time>2020-08-30T09:28:34.000Z</time>
                <name>Trackpoint 2705</name>
            </trkpt>
            <trkpt lat="50.1271744" lon="8.90432">
                <ele>104.0</ele>
                <time>2020-08-30T09:28:36.000Z</time>
                <name>Trackpoint 2706</name>
            </trkpt>
            <trkpt lat="50.1272064" lon="8.9042232">
                <ele>104.0</ele>
                <time>2020-08-30T09:28:38.000Z</time>
                <name>Trackpoint 2707</name>
            </trkpt>
            <trkpt lat="50.1272224" lon="8.904128">
                <ele>104.0</ele>
                <time>2020-08-30T09:28:40.000Z</time>
                <name>Trackpoint 2708</name>
            </trkpt>
            <trkpt lat="50.1272384" lon="8.904012">
                <ele>104.0</ele>
                <time>2020-08-30T09:28:42.000Z</time>
                <name>Trackpoint 2709</name>
            </trkpt>
            <trkpt lat="50.1272672" lon="8.9038952">
                <ele>104.0</ele>
                <time>2020-08-30T09:28:44.000Z</time>
                <name>Trackpoint 2710</name>
            </trkpt>
            <trkpt lat="50.1272864" lon="8.9037648">
                <ele>104.0</ele>
                <time>2020-08-30T09:28:46.000Z</time>
                <name>Trackpoint 2711</name>
            </trkpt>
            <trkpt lat="50.1273088" lon="8.903644">
                <ele>104.0</ele>
                <time>2020-08-30T09:28:48.000Z</time>
                <name>Trackpoint 2712</name>
            </trkpt>
            <trkpt lat="50.1273152" lon="8.9035168">
                <ele>104.0</ele>
                <time>2020-08-30T09:28:50.000Z</time>
                <name>Trackpoint 2713</name>
            </trkpt>
            <trkpt lat="50.127328" lon="8.90338">
                <ele>104.0</ele>
                <time>2020-08-30T09:28:52.000Z</time>
                <name>Trackpoint 2714</name>
            </trkpt>
            <trkpt lat="50.1273344" lon="8.9032488">
                <ele>104.0</ele>
                <time>2020-08-30T09:28:54.000Z</time>
                <name>Trackpoint 2715</name>
            </trkpt>
            <trkpt lat="50.1273472" lon="8.903116">
                <ele>104.0</ele>
                <time>2020-08-30T09:28:56.000Z</time>
                <name>Trackpoint 2716</name>
            </trkpt>
            <trkpt lat="50.1273664" lon="8.9030048">
                <ele>104.0</ele>
                <time>2020-08-30T09:28:58.000Z</time>
                <name>Trackpoint 2717</name>
            </trkpt>
            <trkpt lat="50.1273664" lon="8.9029032">
                <ele>104.0</ele>
                <time>2020-08-30T09:29:00.000Z</time>
                <name>Trackpoint 2718</name>
            </trkpt>
            <trkpt lat="50.1274368" lon="8.9028384">
                <ele>104.0</ele>
                <time>2020-08-30T09:29:04.000Z</time>
                <name>Trackpoint 2719</name>
            </trkpt>
            <trkpt lat="50.127552" lon="8.9028456">
                <ele>104.0</ele>
                <time>2020-08-30T09:29:08.000Z</time>
                <name>Trackpoint 2720</name>
            </trkpt>
            <trkpt lat="50.1276672" lon="8.90288">
                <ele>104.0</ele>
                <time>2020-08-30T09:29:11.000Z</time>
                <name>Trackpoint 2721</name>
            </trkpt>
            <trkpt lat="50.1277376" lon="8.9029504">
                <ele>104.0</ele>
                <time>2020-08-30T09:29:13.000Z</time>
                <name>Trackpoint 2722</name>
            </trkpt>
            <trkpt lat="50.127824" lon="8.903004">
                <ele>103.0</ele>
                <time>2020-08-30T09:29:15.000Z</time>
                <name>Trackpoint 2723</name>
            </trkpt>
            <trkpt lat="50.1278848" lon="8.9030712">
                <ele>103.0</ele>
                <time>2020-08-30T09:29:18.000Z</time>
                <name>Trackpoint 2724</name>
            </trkpt>
            <trkpt lat="50.1279872" lon="8.9031536">
                <ele>103.0</ele>
                <time>2020-08-30T09:29:21.000Z</time>
                <name>Trackpoint 2725</name>
            </trkpt>
            <trkpt lat="50.1280832" lon="8.9031896">
                <ele>103.0</ele>
                <time>2020-08-30T09:29:24.000Z</time>
                <name>Trackpoint 2726</name>
            </trkpt>
            <trkpt lat="50.1281504" lon="8.9031288">
                <ele>103.0</ele>
                <time>2020-08-30T09:29:26.000Z</time>
                <name>Trackpoint 2727</name>
            </trkpt>
            <trkpt lat="50.128224" lon="8.903064">
                <ele>103.0</ele>
                <time>2020-08-30T09:29:28.000Z</time>
                <name>Trackpoint 2728</name>
            </trkpt>
            <trkpt lat="50.1282848" lon="8.9029704">
                <ele>103.0</ele>
                <time>2020-08-30T09:29:31.000Z</time>
                <name>Trackpoint 2729</name>
            </trkpt>
            <trkpt lat="50.1283296" lon="8.9028752">
                <ele>102.0</ele>
                <time>2020-08-30T09:30:19.000Z</time>
                <name>Trackpoint 2730</name>
            </trkpt>
            <trkpt lat="50.1283648" lon="8.9027864">
                <ele>102.0</ele>
                <time>2020-08-30T09:31:42.000Z</time>
                <name>Trackpoint 2731</name>
            </trkpt>
            <trkpt lat="50.1283808" lon="8.9026768">
                <ele>102.0</ele>
                <time>2020-08-30T09:31:47.000Z</time>
                <name>Trackpoint 2732</name>
            </trkpt>
            <trkpt lat="50.1283936" lon="8.9025872">
                <ele>102.0</ele>
                <time>2020-08-30T09:31:49.000Z</time>
                <name>Trackpoint 2733</name>
            </trkpt>
            <trkpt lat="50.1284064" lon="8.90248">
                <ele>102.0</ele>
                <time>2020-08-30T09:31:51.000Z</time>
                <name>Trackpoint 2734</name>
            </trkpt>
            <trkpt lat="50.1284064" lon="8.9023704">
                <ele>102.0</ele>
                <time>2020-08-30T09:31:53.000Z</time>
                <name>Trackpoint 2735</name>
            </trkpt>
            <trkpt lat="50.1284064" lon="8.902228">
                <ele>102.0</ele>
                <time>2020-08-30T09:31:56.000Z</time>
                <name>Trackpoint 2736</name>
            </trkpt>
            <trkpt lat="50.1284064" lon="8.9021216">
                <ele>102.0</ele>
                <time>2020-08-30T09:31:58.000Z</time>
                <name>Trackpoint 2737</name>
            </trkpt>
            <trkpt lat="50.1283808" lon="8.901992">
                <ele>102.0</ele>
                <time>2020-08-30T09:32:00.000Z</time>
                <name>Trackpoint 2738</name>
            </trkpt>
            <trkpt lat="50.1283616" lon="8.9018736">
                <ele>102.0</ele>
                <time>2020-08-30T09:32:02.000Z</time>
                <name>Trackpoint 2739</name>
            </trkpt>
            <trkpt lat="50.1283584" lon="8.9017696">
                <ele>102.0</ele>
                <time>2020-08-30T09:32:04.000Z</time>
                <name>Trackpoint 2740</name>
            </trkpt>
            <trkpt lat="50.1283584" lon="8.9016568">
                <ele>102.0</ele>
                <time>2020-08-30T09:32:06.000Z</time>
                <name>Trackpoint 2741</name>
            </trkpt>
            <trkpt lat="50.1283712" lon="8.9015368">
                <ele>102.0</ele>
                <time>2020-08-30T09:32:08.000Z</time>
                <name>Trackpoint 2742</name>
            </trkpt>
            <trkpt lat="50.1283456" lon="8.9014056">
                <ele>102.0</ele>
                <time>2020-08-30T09:32:10.000Z</time>
                <name>Trackpoint 2743</name>
            </trkpt>
            <trkpt lat="50.1282944" lon="8.9012672">
                <ele>102.0</ele>
                <time>2020-08-30T09:32:12.000Z</time>
                <name>Trackpoint 2744</name>
            </trkpt>
            <trkpt lat="50.1282784" lon="8.901152">
                <ele>102.0</ele>
                <time>2020-08-30T09:32:14.000Z</time>
                <name>Trackpoint 2745</name>
            </trkpt>
            <trkpt lat="50.1282624" lon="8.9010112">
                <ele>102.0</ele>
                <time>2020-08-30T09:32:16.000Z</time>
                <name>Trackpoint 2746</name>
            </trkpt>
            <trkpt lat="50.1282464" lon="8.9008976">
                <ele>102.0</ele>
                <time>2020-08-30T09:32:18.000Z</time>
                <name>Trackpoint 2747</name>
            </trkpt>
            <trkpt lat="50.1282144" lon="8.9007664">
                <ele>102.0</ele>
                <time>2020-08-30T09:32:20.000Z</time>
                <name>Trackpoint 2748</name>
            </trkpt>
            <trkpt lat="50.1281856" lon="8.9006296">
                <ele>102.0</ele>
                <time>2020-08-30T09:32:22.000Z</time>
                <name>Trackpoint 2749</name>
            </trkpt>
            <trkpt lat="50.1281344" lon="8.9004936">
                <ele>102.0</ele>
                <time>2020-08-30T09:32:24.000Z</time>
                <name>Trackpoint 2750</name>
            </trkpt>
            <trkpt lat="50.1280864" lon="8.9003624">
                <ele>102.0</ele>
                <time>2020-08-30T09:32:26.000Z</time>
                <name>Trackpoint 2751</name>
            </trkpt>
            <trkpt lat="50.128032" lon="8.900224">
                <ele>102.0</ele>
                <time>2020-08-30T09:32:28.000Z</time>
                <name>Trackpoint 2752</name>
            </trkpt>
            <trkpt lat="50.127984" lon="8.9000856">
                <ele>102.0</ele>
                <time>2020-08-30T09:32:30.000Z</time>
                <name>Trackpoint 2753</name>
            </trkpt>
            <trkpt lat="50.1279648" lon="8.8999752">
                <ele>102.0</ele>
                <time>2020-08-30T09:32:32.000Z</time>
                <name>Trackpoint 2754</name>
            </trkpt>
            <trkpt lat="50.1279136" lon="8.8998784">
                <ele>102.0</ele>
                <time>2020-08-30T09:33:16.000Z</time>
                <name>Trackpoint 2755</name>
            </trkpt>
            <trkpt lat="50.1278912" lon="8.8997784">
                <ele>102.0</ele>
                <time>2020-08-30T09:33:19.000Z</time>
                <name>Trackpoint 2756</name>
            </trkpt>
            <trkpt lat="50.1278624" lon="8.8996736">
                <ele>102.0</ele>
                <time>2020-08-30T09:33:22.000Z</time>
                <name>Trackpoint 2757</name>
            </trkpt>
            <trkpt lat="50.127824" lon="8.8995832">
                <ele>102.0</ele>
                <time>2020-08-30T09:33:24.000Z</time>
                <name>Trackpoint 2758</name>
            </trkpt>
            <trkpt lat="50.1277856" lon="8.8994648">
                <ele>102.0</ele>
                <time>2020-08-30T09:33:26.000Z</time>
                <name>Trackpoint 2759</name>
            </trkpt>
            <trkpt lat="50.1277536" lon="8.8993328">
                <ele>102.0</ele>
                <time>2020-08-30T09:33:28.000Z</time>
                <name>Trackpoint 2760</name>
            </trkpt>
            <trkpt lat="50.1277152" lon="8.899212">
                <ele>102.0</ele>
                <time>2020-08-30T09:33:30.000Z</time>
                <name>Trackpoint 2761</name>
            </trkpt>
            <trkpt lat="50.1276832" lon="8.8990944">
                <ele>102.0</ele>
                <time>2020-08-30T09:33:32.000Z</time>
                <name>Trackpoint 2762</name>
            </trkpt>
            <trkpt lat="50.1276384" lon="8.8989736">
                <ele>102.0</ele>
                <time>2020-08-30T09:33:34.000Z</time>
                <name>Trackpoint 2763</name>
            </trkpt>
            <trkpt lat="50.1276032" lon="8.8988648">
                <ele>102.0</ele>
                <time>2020-08-30T09:33:36.000Z</time>
                <name>Trackpoint 2764</name>
            </trkpt>
            <trkpt lat="50.1275584" lon="8.898708">
                <ele>102.0</ele>
                <time>2020-08-30T09:33:38.000Z</time>
                <name>Trackpoint 2765</name>
            </trkpt>
            <trkpt lat="50.1275136" lon="8.8985616">
                <ele>102.0</ele>
                <time>2020-08-30T09:33:40.000Z</time>
                <name>Trackpoint 2766</name>
            </trkpt>
            <trkpt lat="50.1274688" lon="8.8984168">
                <ele>102.0</ele>
                <time>2020-08-30T09:33:42.000Z</time>
                <name>Trackpoint 2767</name>
            </trkpt>
            <trkpt lat="50.1274272" lon="8.8983032">
                <ele>102.0</ele>
                <time>2020-08-30T09:33:44.000Z</time>
                <name>Trackpoint 2768</name>
            </trkpt>
            <trkpt lat="50.1273664" lon="8.8981832">
                <ele>102.0</ele>
                <time>2020-08-30T09:33:46.000Z</time>
                <name>Trackpoint 2769</name>
            </trkpt>
            <trkpt lat="50.1273088" lon="8.8980464">
                <ele>102.0</ele>
                <time>2020-08-30T09:33:48.000Z</time>
                <name>Trackpoint 2770</name>
            </trkpt>
            <trkpt lat="50.1272544" lon="8.8979032">
                <ele>102.0</ele>
                <time>2020-08-30T09:33:50.000Z</time>
                <name>Trackpoint 2771</name>
            </trkpt>
            <trkpt lat="50.1271808" lon="8.8977648">
                <ele>102.0</ele>
                <time>2020-08-30T09:33:52.000Z</time>
                <name>Trackpoint 2772</name>
            </trkpt>
            <trkpt lat="50.1271296" lon="8.8976384">
                <ele>102.0</ele>
                <time>2020-08-30T09:33:54.000Z</time>
                <name>Trackpoint 2773</name>
            </trkpt>
            <trkpt lat="50.127072" lon="8.8975064">
                <ele>102.0</ele>
                <time>2020-08-30T09:33:56.000Z</time>
                <name>Trackpoint 2774</name>
            </trkpt>
            <trkpt lat="50.1270016" lon="8.8974312">
                <ele>102.0</ele>
                <time>2020-08-30T09:33:57.000Z</time>
                <name>Trackpoint 2775</name>
            </trkpt>
            <trkpt lat="50.126912" lon="8.8973264">
                <ele>102.0</ele>
                <time>2020-08-30T09:33:59.000Z</time>
                <name>Trackpoint 2776</name>
            </trkpt>
            <trkpt lat="50.1268032" lon="8.8972128">
                <ele>102.0</ele>
                <time>2020-08-30T09:34:01.000Z</time>
                <name>Trackpoint 2777</name>
            </trkpt>
            <trkpt lat="50.126704" lon="8.8971168">
                <ele>102.0</ele>
                <time>2020-08-30T09:34:03.000Z</time>
                <name>Trackpoint 2778</name>
            </trkpt>
            <trkpt lat="50.1266016" lon="8.897028">
                <ele>103.0</ele>
                <time>2020-08-30T09:34:05.000Z</time>
                <name>Trackpoint 2779</name>
            </trkpt>
            <trkpt lat="50.1265184" lon="8.8969336">
                <ele>103.0</ele>
                <time>2020-08-30T09:34:07.000Z</time>
                <name>Trackpoint 2780</name>
            </trkpt>
            <trkpt lat="50.126464" lon="8.8968032">
                <ele>103.0</ele>
                <time>2020-08-30T09:34:09.000Z</time>
                <name>Trackpoint 2781</name>
            </trkpt>
            <trkpt lat="50.1264192" lon="8.8966528">
                <ele>103.0</ele>
                <time>2020-08-30T09:34:11.000Z</time>
                <name>Trackpoint 2782</name>
            </trkpt>
            <trkpt lat="50.1263616" lon="8.8965152">
                <ele>104.0</ele>
                <time>2020-08-30T09:34:13.000Z</time>
                <name>Trackpoint 2783</name>
            </trkpt>
            <trkpt lat="50.126304" lon="8.8963768">
                <ele>104.0</ele>
                <time>2020-08-30T09:34:15.000Z</time>
                <name>Trackpoint 2784</name>
            </trkpt>
            <trkpt lat="50.1262464" lon="8.896252">
                <ele>104.0</ele>
                <time>2020-08-30T09:34:17.000Z</time>
                <name>Trackpoint 2785</name>
            </trkpt>
            <trkpt lat="50.1261888" lon="8.8961264">
                <ele>105.0</ele>
                <time>2020-08-30T09:34:19.000Z</time>
                <name>Trackpoint 2786</name>
            </trkpt>
            <trkpt lat="50.1261344" lon="8.896">
                <ele>104.0</ele>
                <time>2020-08-30T09:34:21.000Z</time>
                <name>Trackpoint 2787</name>
            </trkpt>
            <trkpt lat="50.1260704" lon="8.895872">
                <ele>104.0</ele>
                <time>2020-08-30T09:34:23.000Z</time>
                <name>Trackpoint 2788</name>
            </trkpt>
            <trkpt lat="50.1260064" lon="8.8957456">
                <ele>104.0</ele>
                <time>2020-08-30T09:34:25.000Z</time>
                <name>Trackpoint 2789</name>
            </trkpt>
            <trkpt lat="50.1259392" lon="8.8956184">
                <ele>104.0</ele>
                <time>2020-08-30T09:34:27.000Z</time>
                <name>Trackpoint 2790</name>
            </trkpt>
            <trkpt lat="50.125872" lon="8.8954872">
                <ele>104.0</ele>
                <time>2020-08-30T09:34:29.000Z</time>
                <name>Trackpoint 2791</name>
            </trkpt>
            <trkpt lat="50.1258048" lon="8.8953568">
                <ele>104.0</ele>
                <time>2020-08-30T09:34:31.000Z</time>
                <name>Trackpoint 2792</name>
            </trkpt>
            <trkpt lat="50.125728" lon="8.8952416">
                <ele>105.0</ele>
                <time>2020-08-30T09:34:33.000Z</time>
                <name>Trackpoint 2793</name>
            </trkpt>
            <trkpt lat="50.125648" lon="8.8951168">
                <ele>104.0</ele>
                <time>2020-08-30T09:34:35.000Z</time>
                <name>Trackpoint 2794</name>
            </trkpt>
            <trkpt lat="50.125568" lon="8.8949816">
                <ele>104.0</ele>
                <time>2020-08-30T09:34:37.000Z</time>
                <name>Trackpoint 2795</name>
            </trkpt>
            <trkpt lat="50.1255008" lon="8.8948336">
                <ele>104.0</ele>
                <time>2020-08-30T09:34:39.000Z</time>
                <name>Trackpoint 2796</name>
            </trkpt>
            <trkpt lat="50.1254336" lon="8.8946896">
                <ele>104.0</ele>
                <time>2020-08-30T09:34:41.000Z</time>
                <name>Trackpoint 2797</name>
            </trkpt>
            <trkpt lat="50.1253728" lon="8.8945464">
                <ele>104.0</ele>
                <time>2020-08-30T09:34:43.000Z</time>
                <name>Trackpoint 2798</name>
            </trkpt>
            <trkpt lat="50.1253088" lon="8.8944032">
                <ele>104.0</ele>
                <time>2020-08-30T09:34:45.000Z</time>
                <name>Trackpoint 2799</name>
            </trkpt>
            <trkpt lat="50.1252448" lon="8.8942568">
                <ele>104.0</ele>
                <time>2020-08-30T09:34:47.000Z</time>
                <name>Trackpoint 2800</name>
            </trkpt>
            <trkpt lat="50.1251808" lon="8.894112">
                <ele>104.0</ele>
                <time>2020-08-30T09:34:49.000Z</time>
                <name>Trackpoint 2801</name>
            </trkpt>
            <trkpt lat="50.1251168" lon="8.8939584">
                <ele>103.0</ele>
                <time>2020-08-30T09:34:51.000Z</time>
                <name>Trackpoint 2802</name>
            </trkpt>
            <trkpt lat="50.125056" lon="8.8938032">
                <ele>103.0</ele>
                <time>2020-08-30T09:34:53.000Z</time>
                <name>Trackpoint 2803</name>
            </trkpt>
            <trkpt lat="50.124992" lon="8.8936528">
                <ele>103.0</ele>
                <time>2020-08-30T09:34:55.000Z</time>
                <name>Trackpoint 2804</name>
            </trkpt>
            <trkpt lat="50.124928" lon="8.893508">
                <ele>103.0</ele>
                <time>2020-08-30T09:34:57.000Z</time>
                <name>Trackpoint 2805</name>
            </trkpt>
            <trkpt lat="50.1248544" lon="8.8933624">
                <ele>103.0</ele>
                <time>2020-08-30T09:34:59.000Z</time>
                <name>Trackpoint 2806</name>
            </trkpt>
            <trkpt lat="50.1247744" lon="8.8932304">
                <ele>103.0</ele>
                <time>2020-08-30T09:35:01.000Z</time>
                <name>Trackpoint 2807</name>
            </trkpt>
            <trkpt lat="50.1246848" lon="8.8931104">
                <ele>103.0</ele>
                <time>2020-08-30T09:35:03.000Z</time>
                <name>Trackpoint 2808</name>
            </trkpt>
            <trkpt lat="50.1245792" lon="8.8930232">
                <ele>103.0</ele>
                <time>2020-08-30T09:35:05.000Z</time>
                <name>Trackpoint 2809</name>
            </trkpt>
            <trkpt lat="50.1244736" lon="8.8929704">
                <ele>104.0</ele>
                <time>2020-08-30T09:35:07.000Z</time>
                <name>Trackpoint 2810</name>
            </trkpt>
            <trkpt lat="50.1243808" lon="8.8929328">
                <ele>105.0</ele>
                <time>2020-08-30T09:35:09.000Z</time>
                <name>Trackpoint 2811</name>
            </trkpt>
            <trkpt lat="50.1242816" lon="8.8928544">
                <ele>105.0</ele>
                <time>2020-08-30T09:35:12.000Z</time>
                <name>Trackpoint 2812</name>
            </trkpt>
            <trkpt lat="50.1242432" lon="8.8927296">
                <ele>104.0</ele>
                <time>2020-08-30T09:35:15.000Z</time>
                <name>Trackpoint 2813</name>
            </trkpt>
            <trkpt lat="50.1242528" lon="8.8926032">
                <ele>103.0</ele>
                <time>2020-08-30T09:35:17.000Z</time>
                <name>Trackpoint 2814</name>
            </trkpt>
            <trkpt lat="50.1242336" lon="8.8924848">
                <ele>103.0</ele>
                <time>2020-08-30T09:35:19.000Z</time>
                <name>Trackpoint 2815</name>
            </trkpt>
            <trkpt lat="50.1242144" lon="8.8923728">
                <ele>102.0</ele>
                <time>2020-08-30T09:35:21.000Z</time>
                <name>Trackpoint 2816</name>
            </trkpt>
            <trkpt lat="50.1242144" lon="8.8922384">
                <ele>102.0</ele>
                <time>2020-08-30T09:35:23.000Z</time>
                <name>Trackpoint 2817</name>
            </trkpt>
            <trkpt lat="50.1241984" lon="8.892112">
                <ele>102.0</ele>
                <time>2020-08-30T09:35:25.000Z</time>
                <name>Trackpoint 2818</name>
            </trkpt>
            <trkpt lat="50.1241696" lon="8.8919496">
                <ele>102.0</ele>
                <time>2020-08-30T09:35:27.000Z</time>
                <name>Trackpoint 2819</name>
            </trkpt>
            <trkpt lat="50.1241568" lon="8.8918368">
                <ele>101.0</ele>
                <time>2020-08-30T09:35:28.000Z</time>
                <name>Trackpoint 2820</name>
            </trkpt>
            <trkpt lat="50.124128" lon="8.8916904">
                <ele>101.0</ele>
                <time>2020-08-30T09:35:30.000Z</time>
                <name>Trackpoint 2821</name>
            </trkpt>
            <trkpt lat="50.1240896" lon="8.8915568">
                <ele>101.0</ele>
                <time>2020-08-30T09:35:32.000Z</time>
                <name>Trackpoint 2822</name>
            </trkpt>
            <trkpt lat="50.124064" lon="8.8914416">
                <ele>101.0</ele>
                <time>2020-08-30T09:35:34.000Z</time>
                <name>Trackpoint 2823</name>
            </trkpt>
            <trkpt lat="50.1240416" lon="8.8913472">
                <ele>101.0</ele>
                <time>2020-08-30T09:35:36.000Z</time>
                <name>Trackpoint 2824</name>
            </trkpt>
            <trkpt lat="50.1240352" lon="8.8912464">
                <ele>101.0</ele>
                <time>2020-08-30T09:35:38.000Z</time>
                <name>Trackpoint 2825</name>
            </trkpt>
            <trkpt lat="50.1240128" lon="8.8911168">
                <ele>101.0</ele>
                <time>2020-08-30T09:35:41.000Z</time>
                <name>Trackpoint 2826</name>
            </trkpt>
            <trkpt lat="50.1239744" lon="8.8910216">
                <ele>101.0</ele>
                <time>2020-08-30T09:35:43.000Z</time>
                <name>Trackpoint 2827</name>
            </trkpt>
            <trkpt lat="50.1239328" lon="8.8909304">
                <ele>101.0</ele>
                <time>2020-08-30T09:35:45.000Z</time>
                <name>Trackpoint 2828</name>
            </trkpt>
            <trkpt lat="50.1238912" lon="8.8908216">
                <ele>102.0</ele>
                <time>2020-08-30T09:35:48.000Z</time>
                <name>Trackpoint 2829</name>
            </trkpt>
            <trkpt lat="50.1238592" lon="8.8907216">
                <ele>102.0</ele>
                <time>2020-08-30T09:36:29.000Z</time>
                <name>Trackpoint 2830</name>
            </trkpt>
            <trkpt lat="50.123856" lon="8.8906224">
                <ele>102.0</ele>
                <time>2020-08-30T09:37:22.000Z</time>
                <name>Trackpoint 2831</name>
            </trkpt>
            <trkpt lat="50.1238528" lon="8.8905">
                <ele>102.0</ele>
                <time>2020-08-30T09:37:25.000Z</time>
                <name>Trackpoint 2832</name>
            </trkpt>
            <trkpt lat="50.1238432" lon="8.8903984">
                <ele>102.0</ele>
                <time>2020-08-30T09:37:27.000Z</time>
                <name>Trackpoint 2833</name>
            </trkpt>
            <trkpt lat="50.1238336" lon="8.8902816">
                <ele>102.0</ele>
                <time>2020-08-30T09:37:29.000Z</time>
                <name>Trackpoint 2834</name>
            </trkpt>
            <trkpt lat="50.1238368" lon="8.890172">
                <ele>102.0</ele>
                <time>2020-08-30T09:37:31.000Z</time>
                <name>Trackpoint 2835</name>
            </trkpt>
            <trkpt lat="50.123792" lon="8.8900296">
                <ele>102.0</ele>
                <time>2020-08-30T09:37:33.000Z</time>
                <name>Trackpoint 2836</name>
            </trkpt>
            <trkpt lat="50.1237792" lon="8.88994">
                <ele>102.0</ele>
                <time>2020-08-30T09:37:34.000Z</time>
                <name>Trackpoint 2837</name>
            </trkpt>
            <trkpt lat="50.1237728" lon="8.8898136">
                <ele>101.0</ele>
                <time>2020-08-30T09:37:36.000Z</time>
                <name>Trackpoint 2838</name>
            </trkpt>
            <trkpt lat="50.12376" lon="8.889684">
                <ele>102.0</ele>
                <time>2020-08-30T09:37:38.000Z</time>
                <name>Trackpoint 2839</name>
            </trkpt>
            <trkpt lat="50.1237536" lon="8.889552">
                <ele>102.0</ele>
                <time>2020-08-30T09:37:40.000Z</time>
                <name>Trackpoint 2840</name>
            </trkpt>
            <trkpt lat="50.1237344" lon="8.889412">
                <ele>102.0</ele>
                <time>2020-08-30T09:37:42.000Z</time>
                <name>Trackpoint 2841</name>
            </trkpt>
            <trkpt lat="50.1237248" lon="8.8892984">
                <ele>102.0</ele>
                <time>2020-08-30T09:37:44.000Z</time>
                <name>Trackpoint 2842</name>
            </trkpt>
            <trkpt lat="50.1237152" lon="8.88918">
                <ele>102.0</ele>
                <time>2020-08-30T09:37:46.000Z</time>
                <name>Trackpoint 2843</name>
            </trkpt>
            <trkpt lat="50.1237152" lon="8.88904">
                <ele>102.0</ele>
                <time>2020-08-30T09:37:48.000Z</time>
                <name>Trackpoint 2844</name>
            </trkpt>
            <trkpt lat="50.1237152" lon="8.8889">
                <ele>101.0</ele>
                <time>2020-08-30T09:37:50.000Z</time>
                <name>Trackpoint 2845</name>
            </trkpt>
            <trkpt lat="50.1237152" lon="8.8887352">
                <ele>101.0</ele>
                <time>2020-08-30T09:37:52.000Z</time>
                <name>Trackpoint 2846</name>
            </trkpt>
            <trkpt lat="50.1237312" lon="8.888608">
                <ele>101.0</ele>
                <time>2020-08-30T09:37:54.000Z</time>
                <name>Trackpoint 2847</name>
            </trkpt>
            <trkpt lat="50.1237056" lon="8.8884352">
                <ele>101.0</ele>
                <time>2020-08-30T09:37:56.000Z</time>
                <name>Trackpoint 2848</name>
            </trkpt>
            <trkpt lat="50.123712" lon="8.8882936">
                <ele>101.0</ele>
                <time>2020-08-30T09:37:58.000Z</time>
                <name>Trackpoint 2849</name>
            </trkpt>
            <trkpt lat="50.1237024" lon="8.8881184">
                <ele>101.0</ele>
                <time>2020-08-30T09:38:00.000Z</time>
                <name>Trackpoint 2850</name>
            </trkpt>
            <trkpt lat="50.123696" lon="8.8879584">
                <ele>101.0</ele>
                <time>2020-08-30T09:38:02.000Z</time>
                <name>Trackpoint 2851</name>
            </trkpt>
            <trkpt lat="50.1237024" lon="8.8878632">
                <ele>101.0</ele>
                <time>2020-08-30T09:38:03.000Z</time>
                <name>Trackpoint 2852</name>
            </trkpt>
            <trkpt lat="50.123712" lon="8.8877672">
                <ele>101.0</ele>
                <time>2020-08-30T09:38:04.000Z</time>
                <name>Trackpoint 2853</name>
            </trkpt>
            <trkpt lat="50.1237152" lon="8.8876752">
                <ele>101.0</ele>
                <time>2020-08-30T09:38:05.000Z</time>
                <name>Trackpoint 2854</name>
            </trkpt>
            <trkpt lat="50.1237408" lon="8.8875128">
                <ele>101.0</ele>
                <time>2020-08-30T09:38:07.000Z</time>
                <name>Trackpoint 2855</name>
            </trkpt>
            <trkpt lat="50.1237472" lon="8.8873632">
                <ele>101.0</ele>
                <time>2020-08-30T09:38:09.000Z</time>
                <name>Trackpoint 2856</name>
            </trkpt>
            <trkpt lat="50.1237568" lon="8.8871936">
                <ele>101.0</ele>
                <time>2020-08-30T09:38:11.000Z</time>
                <name>Trackpoint 2857</name>
            </trkpt>
            <trkpt lat="50.1237664" lon="8.8870296">
                <ele>101.0</ele>
                <time>2020-08-30T09:38:13.000Z</time>
                <name>Trackpoint 2858</name>
            </trkpt>
            <trkpt lat="50.1237728" lon="8.8868648">
                <ele>101.0</ele>
                <time>2020-08-30T09:38:15.000Z</time>
                <name>Trackpoint 2859</name>
            </trkpt>
            <trkpt lat="50.1237728" lon="8.8867128">
                <ele>101.0</ele>
                <time>2020-08-30T09:38:17.000Z</time>
                <name>Trackpoint 2860</name>
            </trkpt>
            <trkpt lat="50.1237824" lon="8.8865496">
                <ele>101.0</ele>
                <time>2020-08-30T09:38:19.000Z</time>
                <name>Trackpoint 2861</name>
            </trkpt>
            <trkpt lat="50.1237984" lon="8.8863848">
                <ele>101.0</ele>
                <time>2020-08-30T09:38:21.000Z</time>
                <name>Trackpoint 2862</name>
            </trkpt>
            <trkpt lat="50.1238048" lon="8.886224">
                <ele>101.0</ele>
                <time>2020-08-30T09:38:23.000Z</time>
                <name>Trackpoint 2863</name>
            </trkpt>
            <trkpt lat="50.1238208" lon="8.8860768">
                <ele>101.0</ele>
                <time>2020-08-30T09:38:25.000Z</time>
                <name>Trackpoint 2864</name>
            </trkpt>
            <trkpt lat="50.1238336" lon="8.885928">
                <ele>101.0</ele>
                <time>2020-08-30T09:38:27.000Z</time>
                <name>Trackpoint 2865</name>
            </trkpt>
            <trkpt lat="50.1238432" lon="8.8857736">
                <ele>101.0</ele>
                <time>2020-08-30T09:38:29.000Z</time>
                <name>Trackpoint 2866</name>
            </trkpt>
            <trkpt lat="50.1238784" lon="8.8856288">
                <ele>101.0</ele>
                <time>2020-08-30T09:38:31.000Z</time>
                <name>Trackpoint 2867</name>
            </trkpt>
            <trkpt lat="50.1238848" lon="8.8854704">
                <ele>101.0</ele>
                <time>2020-08-30T09:38:33.000Z</time>
                <name>Trackpoint 2868</name>
            </trkpt>
            <trkpt lat="50.123904" lon="8.8853816">
                <ele>101.0</ele>
                <time>2020-08-30T09:38:34.000Z</time>
                <name>Trackpoint 2869</name>
            </trkpt>
            <trkpt lat="50.123904" lon="8.8852168">
                <ele>102.0</ele>
                <time>2020-08-30T09:38:36.000Z</time>
                <name>Trackpoint 2870</name>
            </trkpt>
            <trkpt lat="50.1239232" lon="8.8850544">
                <ele>102.0</ele>
                <time>2020-08-30T09:38:38.000Z</time>
                <name>Trackpoint 2871</name>
            </trkpt>
            <trkpt lat="50.12392" lon="8.8849584">
                <ele>102.0</ele>
                <time>2020-08-30T09:38:39.000Z</time>
                <name>Trackpoint 2872</name>
            </trkpt>
            <trkpt lat="50.1239168" lon="8.8848616">
                <ele>102.0</ele>
                <time>2020-08-30T09:38:40.000Z</time>
                <name>Trackpoint 2873</name>
            </trkpt>
            <trkpt lat="50.123936" lon="8.8847112">
                <ele>102.0</ele>
                <time>2020-08-30T09:38:42.000Z</time>
                <name>Trackpoint 2874</name>
            </trkpt>
            <trkpt lat="50.1239616" lon="8.8845568">
                <ele>103.0</ele>
                <time>2020-08-30T09:38:44.000Z</time>
                <name>Trackpoint 2875</name>
            </trkpt>
            <trkpt lat="50.1239744" lon="8.8843896">
                <ele>103.0</ele>
                <time>2020-08-30T09:38:46.000Z</time>
                <name>Trackpoint 2876</name>
            </trkpt>
            <trkpt lat="50.1239808" lon="8.8842296">
                <ele>103.0</ele>
                <time>2020-08-30T09:38:48.000Z</time>
                <name>Trackpoint 2877</name>
            </trkpt>
            <trkpt lat="50.1239744" lon="8.8840616">
                <ele>103.0</ele>
                <time>2020-08-30T09:38:50.000Z</time>
                <name>Trackpoint 2878</name>
            </trkpt>
            <trkpt lat="50.1239808" lon="8.8839032">
                <ele>103.0</ele>
                <time>2020-08-30T09:38:52.000Z</time>
                <name>Trackpoint 2879</name>
            </trkpt>
            <trkpt lat="50.1240096" lon="8.8837368">
                <ele>103.0</ele>
                <time>2020-08-30T09:38:54.000Z</time>
                <name>Trackpoint 2880</name>
            </trkpt>
            <trkpt lat="50.1240352" lon="8.8835952">
                <ele>103.0</ele>
                <time>2020-08-30T09:38:56.000Z</time>
                <name>Trackpoint 2881</name>
            </trkpt>
            <trkpt lat="50.1240288" lon="8.8835032">
                <ele>103.0</ele>
                <time>2020-08-30T09:38:57.000Z</time>
                <name>Trackpoint 2882</name>
            </trkpt>
            <trkpt lat="50.1240096" lon="8.8833464">
                <ele>103.0</ele>
                <time>2020-08-30T09:38:59.000Z</time>
                <name>Trackpoint 2883</name>
            </trkpt>
            <trkpt lat="50.1240032" lon="8.8831904">
                <ele>103.0</ele>
                <time>2020-08-30T09:39:01.000Z</time>
                <name>Trackpoint 2884</name>
            </trkpt>
            <trkpt lat="50.1239904" lon="8.8830368">
                <ele>103.0</ele>
                <time>2020-08-30T09:39:03.000Z</time>
                <name>Trackpoint 2885</name>
            </trkpt>
            <trkpt lat="50.1239936" lon="8.8828872">
                <ele>102.0</ele>
                <time>2020-08-30T09:39:05.000Z</time>
                <name>Trackpoint 2886</name>
            </trkpt>
            <trkpt lat="50.1240128" lon="8.88276">
                <ele>103.0</ele>
                <time>2020-08-30T09:39:07.000Z</time>
                <name>Trackpoint 2887</name>
            </trkpt>
            <trkpt lat="50.1240352" lon="8.8826376">
                <ele>103.0</ele>
                <time>2020-08-30T09:39:09.000Z</time>
                <name>Trackpoint 2888</name>
            </trkpt>
            <trkpt lat="50.1240576" lon="8.8824864">
                <ele>103.0</ele>
                <time>2020-08-30T09:39:11.000Z</time>
                <name>Trackpoint 2889</name>
            </trkpt>
            <trkpt lat="50.1240768" lon="8.8823496">
                <ele>103.0</ele>
                <time>2020-08-30T09:39:13.000Z</time>
                <name>Trackpoint 2890</name>
            </trkpt>
            <trkpt lat="50.1240608" lon="8.88226">
                <ele>103.0</ele>
                <time>2020-08-30T09:39:14.000Z</time>
                <name>Trackpoint 2891</name>
            </trkpt>
            <trkpt lat="50.1240608" lon="8.8821032">
                <ele>103.0</ele>
                <time>2020-08-30T09:39:16.000Z</time>
                <name>Trackpoint 2892</name>
            </trkpt>
            <trkpt lat="50.1240736" lon="8.8819368">
                <ele>103.0</ele>
                <time>2020-08-30T09:39:18.000Z</time>
                <name>Trackpoint 2893</name>
            </trkpt>
            <trkpt lat="50.1240928" lon="8.8817816">
                <ele>103.0</ele>
                <time>2020-08-30T09:39:20.000Z</time>
                <name>Trackpoint 2894</name>
            </trkpt>
            <trkpt lat="50.1241152" lon="8.8816536">
                <ele>103.0</ele>
                <time>2020-08-30T09:39:22.000Z</time>
                <name>Trackpoint 2895</name>
            </trkpt>
            <trkpt lat="50.124128" lon="8.8814984">
                <ele>103.0</ele>
                <time>2020-08-30T09:39:24.000Z</time>
                <name>Trackpoint 2896</name>
            </trkpt>
            <trkpt lat="50.1241312" lon="8.8813352">
                <ele>103.0</ele>
                <time>2020-08-30T09:39:26.000Z</time>
                <name>Trackpoint 2897</name>
            </trkpt>
            <trkpt lat="50.124144" lon="8.8811904">
                <ele>103.0</ele>
                <time>2020-08-30T09:39:28.000Z</time>
                <name>Trackpoint 2898</name>
            </trkpt>
            <trkpt lat="50.1241216" lon="8.8810056">
                <ele>103.0</ele>
                <time>2020-08-30T09:39:30.000Z</time>
                <name>Trackpoint 2899</name>
            </trkpt>
            <trkpt lat="50.124128" lon="8.8809144">
                <ele>102.0</ele>
                <time>2020-08-30T09:39:31.000Z</time>
                <name>Trackpoint 2900</name>
            </trkpt>
            <trkpt lat="50.1241312" lon="8.8807384">
                <ele>102.0</ele>
                <time>2020-08-30T09:39:33.000Z</time>
                <name>Trackpoint 2901</name>
            </trkpt>
            <trkpt lat="50.1241376" lon="8.8805664">
                <ele>102.0</ele>
                <time>2020-08-30T09:39:35.000Z</time>
                <name>Trackpoint 2902</name>
            </trkpt>
            <trkpt lat="50.1241408" lon="8.8804">
                <ele>102.0</ele>
                <time>2020-08-30T09:39:37.000Z</time>
                <name>Trackpoint 2903</name>
            </trkpt>
            <trkpt lat="50.1241504" lon="8.8802408">
                <ele>102.0</ele>
                <time>2020-08-30T09:39:39.000Z</time>
                <name>Trackpoint 2904</name>
            </trkpt>
            <trkpt lat="50.12416" lon="8.880072">
                <ele>102.0</ele>
                <time>2020-08-30T09:39:41.000Z</time>
                <name>Trackpoint 2905</name>
            </trkpt>
            <trkpt lat="50.12416" lon="8.8799784">
                <ele>102.0</ele>
                <time>2020-08-30T09:39:42.000Z</time>
                <name>Trackpoint 2906</name>
            </trkpt>
            <trkpt lat="50.1241696" lon="8.8798064">
                <ele>102.0</ele>
                <time>2020-08-30T09:39:44.000Z</time>
                <name>Trackpoint 2907</name>
            </trkpt>
            <trkpt lat="50.1241824" lon="8.8796328">
                <ele>102.0</ele>
                <time>2020-08-30T09:39:46.000Z</time>
                <name>Trackpoint 2908</name>
            </trkpt>
            <trkpt lat="50.1241984" lon="8.8794696">
                <ele>102.0</ele>
                <time>2020-08-30T09:39:48.000Z</time>
                <name>Trackpoint 2909</name>
            </trkpt>
            <trkpt lat="50.124208" lon="8.8793032">
                <ele>102.0</ele>
                <time>2020-08-30T09:39:50.000Z</time>
                <name>Trackpoint 2910</name>
            </trkpt>
            <trkpt lat="50.1242112" lon="8.87914">
                <ele>101.0</ele>
                <time>2020-08-30T09:39:52.000Z</time>
                <name>Trackpoint 2911</name>
            </trkpt>
            <trkpt lat="50.1242176" lon="8.8789752">
                <ele>101.0</ele>
                <time>2020-08-30T09:39:54.000Z</time>
                <name>Trackpoint 2912</name>
            </trkpt>
            <trkpt lat="50.1242304" lon="8.8788136">
                <ele>101.0</ele>
                <time>2020-08-30T09:39:56.000Z</time>
                <name>Trackpoint 2913</name>
            </trkpt>
            <trkpt lat="50.1242368" lon="8.878652">
                <ele>101.0</ele>
                <time>2020-08-30T09:39:58.000Z</time>
                <name>Trackpoint 2914</name>
            </trkpt>
            <trkpt lat="50.1242496" lon="8.8784936">
                <ele>101.0</ele>
                <time>2020-08-30T09:40:00.000Z</time>
                <name>Trackpoint 2915</name>
            </trkpt>
            <trkpt lat="50.124256" lon="8.878332">
                <ele>101.0</ele>
                <time>2020-08-30T09:40:02.000Z</time>
                <name>Trackpoint 2916</name>
            </trkpt>
            <trkpt lat="50.1242624" lon="8.878172">
                <ele>101.0</ele>
                <time>2020-08-30T09:40:04.000Z</time>
                <name>Trackpoint 2917</name>
            </trkpt>
            <trkpt lat="50.1242752" lon="8.8780136">
                <ele>101.0</ele>
                <time>2020-08-30T09:40:06.000Z</time>
                <name>Trackpoint 2918</name>
            </trkpt>
            <trkpt lat="50.124288" lon="8.8778536">
                <ele>101.0</ele>
                <time>2020-08-30T09:40:08.000Z</time>
                <name>Trackpoint 2919</name>
            </trkpt>
            <trkpt lat="50.1242944" lon="8.8776928">
                <ele>101.0</ele>
                <time>2020-08-30T09:40:10.000Z</time>
                <name>Trackpoint 2920</name>
            </trkpt>
            <trkpt lat="50.1242976" lon="8.8775328">
                <ele>101.0</ele>
                <time>2020-08-30T09:40:12.000Z</time>
                <name>Trackpoint 2921</name>
            </trkpt>
            <trkpt lat="50.1243008" lon="8.8773736">
                <ele>102.0</ele>
                <time>2020-08-30T09:40:14.000Z</time>
                <name>Trackpoint 2922</name>
            </trkpt>
            <trkpt lat="50.1243136" lon="8.877216">
                <ele>102.0</ele>
                <time>2020-08-30T09:40:16.000Z</time>
                <name>Trackpoint 2923</name>
            </trkpt>
            <trkpt lat="50.1243232" lon="8.8770616">
                <ele>102.0</ele>
                <time>2020-08-30T09:40:18.000Z</time>
                <name>Trackpoint 2924</name>
            </trkpt>
            <trkpt lat="50.1243392" lon="8.8769128">
                <ele>102.0</ele>
                <time>2020-08-30T09:40:20.000Z</time>
                <name>Trackpoint 2925</name>
            </trkpt>
            <trkpt lat="50.1243424" lon="8.8767584">
                <ele>102.0</ele>
                <time>2020-08-30T09:40:22.000Z</time>
                <name>Trackpoint 2926</name>
            </trkpt>
            <trkpt lat="50.1243552" lon="8.876608">
                <ele>102.0</ele>
                <time>2020-08-30T09:40:24.000Z</time>
                <name>Trackpoint 2927</name>
            </trkpt>
            <trkpt lat="50.1243744" lon="8.8764648">
                <ele>102.0</ele>
                <time>2020-08-30T09:40:26.000Z</time>
                <name>Trackpoint 2928</name>
            </trkpt>
            <trkpt lat="50.1243808" lon="8.8763248">
                <ele>102.0</ele>
                <time>2020-08-30T09:40:28.000Z</time>
                <name>Trackpoint 2929</name>
            </trkpt>
            <trkpt lat="50.1243712" lon="8.8761856">
                <ele>102.0</ele>
                <time>2020-08-30T09:40:30.000Z</time>
                <name>Trackpoint 2930</name>
            </trkpt>
            <trkpt lat="50.124352" lon="8.8760456">
                <ele>102.0</ele>
                <time>2020-08-30T09:40:32.000Z</time>
                <name>Trackpoint 2931</name>
            </trkpt>
            <trkpt lat="50.1243424" lon="8.8758944">
                <ele>102.0</ele>
                <time>2020-08-30T09:40:34.000Z</time>
                <name>Trackpoint 2932</name>
            </trkpt>
            <trkpt lat="50.1243488" lon="8.875736">
                <ele>102.0</ele>
                <time>2020-08-30T09:40:36.000Z</time>
                <name>Trackpoint 2933</name>
            </trkpt>
            <trkpt lat="50.1243424" lon="8.8755728">
                <ele>102.0</ele>
                <time>2020-08-30T09:40:38.000Z</time>
                <name>Trackpoint 2934</name>
            </trkpt>
            <trkpt lat="50.124352" lon="8.8754184">
                <ele>102.0</ele>
                <time>2020-08-30T09:40:40.000Z</time>
                <name>Trackpoint 2935</name>
            </trkpt>
            <trkpt lat="50.124368" lon="8.87526">
                <ele>102.0</ele>
                <time>2020-08-30T09:40:42.000Z</time>
                <name>Trackpoint 2936</name>
            </trkpt>
            <trkpt lat="50.1243776" lon="8.8751">
                <ele>102.0</ele>
                <time>2020-08-30T09:40:44.000Z</time>
                <name>Trackpoint 2937</name>
            </trkpt>
            <trkpt lat="50.1243936" lon="8.8749448">
                <ele>102.0</ele>
                <time>2020-08-30T09:40:46.000Z</time>
                <name>Trackpoint 2938</name>
            </trkpt>
            <trkpt lat="50.1244064" lon="8.8748">
                <ele>102.0</ele>
                <time>2020-08-30T09:40:48.000Z</time>
                <name>Trackpoint 2939</name>
            </trkpt>
            <trkpt lat="50.124416" lon="8.8746568">
                <ele>102.0</ele>
                <time>2020-08-30T09:40:50.000Z</time>
                <name>Trackpoint 2940</name>
            </trkpt>
            <trkpt lat="50.124432" lon="8.8745144">
                <ele>102.0</ele>
                <time>2020-08-30T09:40:52.000Z</time>
                <name>Trackpoint 2941</name>
            </trkpt>
            <trkpt lat="50.1244576" lon="8.8743736">
                <ele>102.0</ele>
                <time>2020-08-30T09:40:54.000Z</time>
                <name>Trackpoint 2942</name>
            </trkpt>
            <trkpt lat="50.1244736" lon="8.8742288">
                <ele>102.0</ele>
                <time>2020-08-30T09:40:56.000Z</time>
                <name>Trackpoint 2943</name>
            </trkpt>
            <trkpt lat="50.1244896" lon="8.8740832">
                <ele>102.0</ele>
                <time>2020-08-30T09:40:58.000Z</time>
                <name>Trackpoint 2944</name>
            </trkpt>
            <trkpt lat="50.1245056" lon="8.8739272">
                <ele>102.0</ele>
                <time>2020-08-30T09:41:00.000Z</time>
                <name>Trackpoint 2945</name>
            </trkpt>
            <trkpt lat="50.1245184" lon="8.8737736">
                <ele>102.0</ele>
                <time>2020-08-30T09:41:02.000Z</time>
                <name>Trackpoint 2946</name>
            </trkpt>
            <trkpt lat="50.1245344" lon="8.8736216">
                <ele>102.0</ele>
                <time>2020-08-30T09:41:04.000Z</time>
                <name>Trackpoint 2947</name>
            </trkpt>
            <trkpt lat="50.1245408" lon="8.8734616">
                <ele>101.0</ele>
                <time>2020-08-30T09:41:06.000Z</time>
                <name>Trackpoint 2948</name>
            </trkpt>
            <trkpt lat="50.1245504" lon="8.8732992">
                <ele>101.0</ele>
                <time>2020-08-30T09:41:08.000Z</time>
                <name>Trackpoint 2949</name>
            </trkpt>
            <trkpt lat="50.1245664" lon="8.8731432">
                <ele>101.0</ele>
                <time>2020-08-30T09:41:10.000Z</time>
                <name>Trackpoint 2950</name>
            </trkpt>
            <trkpt lat="50.124576" lon="8.8729984">
                <ele>101.0</ele>
                <time>2020-08-30T09:41:12.000Z</time>
                <name>Trackpoint 2951</name>
            </trkpt>
            <trkpt lat="50.1245888" lon="8.8728616">
                <ele>101.0</ele>
                <time>2020-08-30T09:41:14.000Z</time>
                <name>Trackpoint 2952</name>
            </trkpt>
            <trkpt lat="50.1246048" lon="8.87276">
                <ele>101.0</ele>
                <time>2020-08-30T09:41:16.000Z</time>
                <name>Trackpoint 2953</name>
            </trkpt>
            <trkpt lat="50.1246112" lon="8.8726568">
                <ele>101.0</ele>
                <time>2020-08-30T09:41:19.000Z</time>
                <name>Trackpoint 2954</name>
            </trkpt>
            <trkpt lat="50.1245984" lon="8.872552">
                <ele>101.0</ele>
                <time>2020-08-30T09:41:22.000Z</time>
                <name>Trackpoint 2955</name>
            </trkpt>
            <trkpt lat="50.124592" lon="8.8724344">
                <ele>101.0</ele>
                <time>2020-08-30T09:41:24.000Z</time>
                <name>Trackpoint 2956</name>
            </trkpt>
            <trkpt lat="50.124592" lon="8.8723096">
                <ele>100.0</ele>
                <time>2020-08-30T09:41:26.000Z</time>
                <name>Trackpoint 2957</name>
            </trkpt>
            <trkpt lat="50.1245952" lon="8.8721752">
                <ele>100.0</ele>
                <time>2020-08-30T09:41:28.000Z</time>
                <name>Trackpoint 2958</name>
            </trkpt>
            <trkpt lat="50.1246048" lon="8.8720464">
                <ele>100.0</ele>
                <time>2020-08-30T09:41:30.000Z</time>
                <name>Trackpoint 2959</name>
            </trkpt>
            <trkpt lat="50.124608" lon="8.8719056">
                <ele>100.0</ele>
                <time>2020-08-30T09:41:32.000Z</time>
                <name>Trackpoint 2960</name>
            </trkpt>
            <trkpt lat="50.124608" lon="8.8717616">
                <ele>101.0</ele>
                <time>2020-08-30T09:41:34.000Z</time>
                <name>Trackpoint 2961</name>
            </trkpt>
            <trkpt lat="50.1246176" lon="8.8716336">
                <ele>101.0</ele>
                <time>2020-08-30T09:41:36.000Z</time>
                <name>Trackpoint 2962</name>
            </trkpt>
            <trkpt lat="50.1246176" lon="8.8715152">
                <ele>101.0</ele>
                <time>2020-08-30T09:41:38.000Z</time>
                <name>Trackpoint 2963</name>
            </trkpt>
            <trkpt lat="50.1246176" lon="8.8714112">
                <ele>101.0</ele>
                <time>2020-08-30T09:41:41.000Z</time>
                <name>Trackpoint 2964</name>
            </trkpt>
            <trkpt lat="50.1246176" lon="8.871288">
                <ele>100.0</ele>
                <time>2020-08-30T09:42:37.000Z</time>
                <name>Trackpoint 2965</name>
            </trkpt>
            <trkpt lat="50.1246272" lon="8.8711984">
                <ele>100.0</ele>
                <time>2020-08-30T09:42:39.000Z</time>
                <name>Trackpoint 2966</name>
            </trkpt>
            <trkpt lat="50.12464" lon="8.8710968">
                <ele>100.0</ele>
                <time>2020-08-30T09:42:41.000Z</time>
                <name>Trackpoint 2967</name>
            </trkpt>
            <trkpt lat="50.124656" lon="8.8709896">
                <ele>100.0</ele>
                <time>2020-08-30T09:42:43.000Z</time>
                <name>Trackpoint 2968</name>
            </trkpt>
            <trkpt lat="50.124672" lon="8.8708912">
                <ele>100.0</ele>
                <time>2020-08-30T09:42:45.000Z</time>
                <name>Trackpoint 2969</name>
            </trkpt>
            <trkpt lat="50.1246912" lon="8.870784">
                <ele>100.0</ele>
                <time>2020-08-30T09:42:47.000Z</time>
                <name>Trackpoint 2970</name>
            </trkpt>
            <trkpt lat="50.124704" lon="8.8706776">
                <ele>100.0</ele>
                <time>2020-08-30T09:42:49.000Z</time>
                <name>Trackpoint 2971</name>
            </trkpt>
            <trkpt lat="50.1247072" lon="8.8705456">
                <ele>100.0</ele>
                <time>2020-08-30T09:42:51.000Z</time>
                <name>Trackpoint 2972</name>
            </trkpt>
            <trkpt lat="50.124704" lon="8.8704048">
                <ele>100.0</ele>
                <time>2020-08-30T09:42:53.000Z</time>
                <name>Trackpoint 2973</name>
            </trkpt>
            <trkpt lat="50.1246752" lon="8.8702784">
                <ele>100.0</ele>
                <time>2020-08-30T09:42:55.000Z</time>
                <name>Trackpoint 2974</name>
            </trkpt>
            <trkpt lat="50.1246592" lon="8.870176">
                <ele>100.0</ele>
                <time>2020-08-30T09:42:57.000Z</time>
                <name>Trackpoint 2975</name>
            </trkpt>
            <trkpt lat="50.124656" lon="8.8700736">
                <ele>99.0</ele>
                <time>2020-08-30T09:42:59.000Z</time>
                <name>Trackpoint 2976</name>
            </trkpt>
            <trkpt lat="50.124656" lon="8.8699648">
                <ele>99.0</ele>
                <time>2020-08-30T09:43:01.000Z</time>
                <name>Trackpoint 2977</name>
            </trkpt>
            <trkpt lat="50.124656" lon="8.8698456">
                <ele>99.0</ele>
                <time>2020-08-30T09:43:03.000Z</time>
                <name>Trackpoint 2978</name>
            </trkpt>
            <trkpt lat="50.1246464" lon="8.8697384">
                <ele>99.0</ele>
                <time>2020-08-30T09:43:05.000Z</time>
                <name>Trackpoint 2979</name>
            </trkpt>
            <trkpt lat="50.1246464" lon="8.869632">
                <ele>99.0</ele>
                <time>2020-08-30T09:43:07.000Z</time>
                <name>Trackpoint 2980</name>
            </trkpt>
            <trkpt lat="50.12464" lon="8.8695288">
                <ele>99.0</ele>
                <time>2020-08-30T09:43:10.000Z</time>
                <name>Trackpoint 2981</name>
            </trkpt>
            <trkpt lat="50.1246464" lon="8.8694032">
                <ele>99.0</ele>
                <time>2020-08-30T09:43:49.000Z</time>
                <name>Trackpoint 2982</name>
            </trkpt>
            <trkpt lat="50.1246464" lon="8.8693016">
                <ele>99.0</ele>
                <time>2020-08-30T09:43:51.000Z</time>
                <name>Trackpoint 2983</name>
            </trkpt>
            <trkpt lat="50.1246464" lon="8.8691816">
                <ele>99.0</ele>
                <time>2020-08-30T09:43:53.000Z</time>
                <name>Trackpoint 2984</name>
            </trkpt>
            <trkpt lat="50.1246464" lon="8.8690568">
                <ele>99.0</ele>
                <time>2020-08-30T09:43:55.000Z</time>
                <name>Trackpoint 2985</name>
            </trkpt>
            <trkpt lat="50.1246464" lon="8.868928">
                <ele>99.0</ele>
                <time>2020-08-30T09:43:57.000Z</time>
                <name>Trackpoint 2986</name>
            </trkpt>
            <trkpt lat="50.12464" lon="8.8687936">
                <ele>99.0</ele>
                <time>2020-08-30T09:43:59.000Z</time>
                <name>Trackpoint 2987</name>
            </trkpt>
            <trkpt lat="50.12464" lon="8.8686704">
                <ele>99.0</ele>
                <time>2020-08-30T09:44:01.000Z</time>
                <name>Trackpoint 2988</name>
            </trkpt>
            <trkpt lat="50.1246656" lon="8.8685616">
                <ele>99.0</ele>
                <time>2020-08-30T09:44:03.000Z</time>
                <name>Trackpoint 2989</name>
            </trkpt>
            <trkpt lat="50.1246976" lon="8.8684768">
                <ele>100.0</ele>
                <time>2020-08-30T09:44:05.000Z</time>
                <name>Trackpoint 2990</name>
            </trkpt>
            <trkpt lat="50.124752" lon="8.8683504">
                <ele>100.0</ele>
                <time>2020-08-30T09:44:08.000Z</time>
                <name>Trackpoint 2991</name>
            </trkpt>
            <trkpt lat="50.1247904" lon="8.868232">
                <ele>100.0</ele>
                <time>2020-08-30T09:44:10.000Z</time>
                <name>Trackpoint 2992</name>
            </trkpt>
            <trkpt lat="50.124816" lon="8.8680912">
                <ele>100.0</ele>
                <time>2020-08-30T09:44:12.000Z</time>
                <name>Trackpoint 2993</name>
            </trkpt>
            <trkpt lat="50.1248192" lon="8.8679488">
                <ele>100.0</ele>
                <time>2020-08-30T09:44:14.000Z</time>
                <name>Trackpoint 2994</name>
            </trkpt>
            <trkpt lat="50.124832" lon="8.8678064">
                <ele>100.0</ele>
                <time>2020-08-30T09:44:16.000Z</time>
                <name>Trackpoint 2995</name>
            </trkpt>
            <trkpt lat="50.1248384" lon="8.867652">
                <ele>100.0</ele>
                <time>2020-08-30T09:44:18.000Z</time>
                <name>Trackpoint 2996</name>
            </trkpt>
            <trkpt lat="50.1248512" lon="8.8674968">
                <ele>100.0</ele>
                <time>2020-08-30T09:44:20.000Z</time>
                <name>Trackpoint 2997</name>
            </trkpt>
            <trkpt lat="50.1248576" lon="8.867336">
                <ele>100.0</ele>
                <time>2020-08-30T09:44:22.000Z</time>
                <name>Trackpoint 2998</name>
            </trkpt>
            <trkpt lat="50.1248704" lon="8.8671776">
                <ele>100.0</ele>
                <time>2020-08-30T09:44:24.000Z</time>
                <name>Trackpoint 2999</name>
            </trkpt>
            <trkpt lat="50.1248768" lon="8.86702">
                <ele>100.0</ele>
                <time>2020-08-30T09:44:26.000Z</time>
                <name>Trackpoint 3000</name>
            </trkpt>
            <trkpt lat="50.1248832" lon="8.8668616">
                <ele>101.0</ele>
                <time>2020-08-30T09:44:28.000Z</time>
                <name>Trackpoint 3001</name>
            </trkpt>
            <trkpt lat="50.124896" lon="8.8667032">
                <ele>100.0</ele>
                <time>2020-08-30T09:44:30.000Z</time>
                <name>Trackpoint 3002</name>
            </trkpt>
            <trkpt lat="50.1249056" lon="8.8665464">
                <ele>101.0</ele>
                <time>2020-08-30T09:44:32.000Z</time>
                <name>Trackpoint 3003</name>
            </trkpt>
            <trkpt lat="50.124912" lon="8.8663904">
                <ele>101.0</ele>
                <time>2020-08-30T09:44:34.000Z</time>
                <name>Trackpoint 3004</name>
            </trkpt>
            <trkpt lat="50.1249248" lon="8.8662368">
                <ele>101.0</ele>
                <time>2020-08-30T09:44:36.000Z</time>
                <name>Trackpoint 3005</name>
            </trkpt>
            <trkpt lat="50.1249344" lon="8.8660784">
                <ele>101.0</ele>
                <time>2020-08-30T09:44:38.000Z</time>
                <name>Trackpoint 3006</name>
            </trkpt>
            <trkpt lat="50.1249504" lon="8.8659264">
                <ele>101.0</ele>
                <time>2020-08-30T09:44:40.000Z</time>
                <name>Trackpoint 3007</name>
            </trkpt>
            <trkpt lat="50.1249664" lon="8.8657712">
                <ele>101.0</ele>
                <time>2020-08-30T09:44:42.000Z</time>
                <name>Trackpoint 3008</name>
            </trkpt>
            <trkpt lat="50.1249728" lon="8.8656104">
                <ele>101.0</ele>
                <time>2020-08-30T09:44:44.000Z</time>
                <name>Trackpoint 3009</name>
            </trkpt>
            <trkpt lat="50.1249856" lon="8.8654432">
                <ele>101.0</ele>
                <time>2020-08-30T09:44:46.000Z</time>
                <name>Trackpoint 3010</name>
            </trkpt>
            <trkpt lat="50.1249888" lon="8.8652736">
                <ele>101.0</ele>
                <time>2020-08-30T09:44:48.000Z</time>
                <name>Trackpoint 3011</name>
            </trkpt>
            <trkpt lat="50.1249952" lon="8.8651088">
                <ele>101.0</ele>
                <time>2020-08-30T09:44:50.000Z</time>
                <name>Trackpoint 3012</name>
            </trkpt>
            <trkpt lat="50.125008" lon="8.86494">
                <ele>102.0</ele>
                <time>2020-08-30T09:44:52.000Z</time>
                <name>Trackpoint 3013</name>
            </trkpt>
            <trkpt lat="50.1250112" lon="8.8647744">
                <ele>102.0</ele>
                <time>2020-08-30T09:44:54.000Z</time>
                <name>Trackpoint 3014</name>
            </trkpt>
            <trkpt lat="50.1250176" lon="8.8646096">
                <ele>102.0</ele>
                <time>2020-08-30T09:44:56.000Z</time>
                <name>Trackpoint 3015</name>
            </trkpt>
            <trkpt lat="50.1250272" lon="8.8644464">
                <ele>102.0</ele>
                <time>2020-08-30T09:44:58.000Z</time>
                <name>Trackpoint 3016</name>
            </trkpt>
            <trkpt lat="50.1250368" lon="8.8642784">
                <ele>102.0</ele>
                <time>2020-08-30T09:45:00.000Z</time>
                <name>Trackpoint 3017</name>
            </trkpt>
            <trkpt lat="50.1250496" lon="8.864112">
                <ele>102.0</ele>
                <time>2020-08-30T09:45:02.000Z</time>
                <name>Trackpoint 3018</name>
            </trkpt>
            <trkpt lat="50.1250656" lon="8.863952">
                <ele>102.0</ele>
                <time>2020-08-30T09:45:04.000Z</time>
                <name>Trackpoint 3019</name>
            </trkpt>
            <trkpt lat="50.1250848" lon="8.8637984">
                <ele>102.0</ele>
                <time>2020-08-30T09:45:06.000Z</time>
                <name>Trackpoint 3020</name>
            </trkpt>
            <trkpt lat="50.1250976" lon="8.86364">
                <ele>102.0</ele>
                <time>2020-08-30T09:45:08.000Z</time>
                <name>Trackpoint 3021</name>
            </trkpt>
            <trkpt lat="50.1251072" lon="8.8634816">
                <ele>102.0</ele>
                <time>2020-08-30T09:45:10.000Z</time>
                <name>Trackpoint 3022</name>
            </trkpt>
            <trkpt lat="50.1251136" lon="8.8633248">
                <ele>102.0</ele>
                <time>2020-08-30T09:45:12.000Z</time>
                <name>Trackpoint 3023</name>
            </trkpt>
            <trkpt lat="50.1251232" lon="8.8631632">
                <ele>102.0</ele>
                <time>2020-08-30T09:45:14.000Z</time>
                <name>Trackpoint 3024</name>
            </trkpt>
            <trkpt lat="50.1251296" lon="8.8630712">
                <ele>101.0</ele>
                <time>2020-08-30T09:45:15.000Z</time>
                <name>Trackpoint 3025</name>
            </trkpt>
            <trkpt lat="50.1251424" lon="8.8628952">
                <ele>101.0</ele>
                <time>2020-08-30T09:45:17.000Z</time>
                <name>Trackpoint 3026</name>
            </trkpt>
            <trkpt lat="50.1251456" lon="8.8628">
                <ele>102.0</ele>
                <time>2020-08-30T09:45:18.000Z</time>
                <name>Trackpoint 3027</name>
            </trkpt>
            <trkpt lat="50.1251552" lon="8.8626216">
                <ele>102.0</ele>
                <time>2020-08-30T09:45:20.000Z</time>
                <name>Trackpoint 3028</name>
            </trkpt>
            <trkpt lat="50.125168" lon="8.8624424">
                <ele>101.0</ele>
                <time>2020-08-30T09:45:22.000Z</time>
                <name>Trackpoint 3029</name>
            </trkpt>
            <trkpt lat="50.125184" lon="8.8622648">
                <ele>101.0</ele>
                <time>2020-08-30T09:45:24.000Z</time>
                <name>Trackpoint 3030</name>
            </trkpt>
            <trkpt lat="50.1251968" lon="8.862088">
                <ele>101.0</ele>
                <time>2020-08-30T09:45:26.000Z</time>
                <name>Trackpoint 3031</name>
            </trkpt>
            <trkpt lat="50.1252096" lon="8.8619096">
                <ele>102.0</ele>
                <time>2020-08-30T09:45:28.000Z</time>
                <name>Trackpoint 3032</name>
            </trkpt>
            <trkpt lat="50.1252256" lon="8.8617312">
                <ele>101.0</ele>
                <time>2020-08-30T09:45:30.000Z</time>
                <name>Trackpoint 3033</name>
            </trkpt>
            <trkpt lat="50.1252416" lon="8.86156">
                <ele>102.0</ele>
                <time>2020-08-30T09:45:32.000Z</time>
                <name>Trackpoint 3034</name>
            </trkpt>
            <trkpt lat="50.125264" lon="8.8613952">
                <ele>102.0</ele>
                <time>2020-08-30T09:45:34.000Z</time>
                <name>Trackpoint 3035</name>
            </trkpt>
            <trkpt lat="50.1252864" lon="8.861228">
                <ele>102.0</ele>
                <time>2020-08-30T09:45:36.000Z</time>
                <name>Trackpoint 3036</name>
            </trkpt>
            <trkpt lat="50.1253088" lon="8.8610624">
                <ele>101.0</ele>
                <time>2020-08-30T09:45:38.000Z</time>
                <name>Trackpoint 3037</name>
            </trkpt>
            <trkpt lat="50.125328" lon="8.8608912">
                <ele>101.0</ele>
                <time>2020-08-30T09:45:40.000Z</time>
                <name>Trackpoint 3038</name>
            </trkpt>
            <trkpt lat="50.1253504" lon="8.8607264">
                <ele>101.0</ele>
                <time>2020-08-30T09:45:42.000Z</time>
                <name>Trackpoint 3039</name>
            </trkpt>
            <trkpt lat="50.1253696" lon="8.8605608">
                <ele>101.0</ele>
                <time>2020-08-30T09:45:44.000Z</time>
                <name>Trackpoint 3040</name>
            </trkpt>
            <trkpt lat="50.1253952" lon="8.8604">
                <ele>101.0</ele>
                <time>2020-08-30T09:45:46.000Z</time>
                <name>Trackpoint 3041</name>
            </trkpt>
            <trkpt lat="50.125424" lon="8.86024">
                <ele>101.0</ele>
                <time>2020-08-30T09:45:48.000Z</time>
                <name>Trackpoint 3042</name>
            </trkpt>
            <trkpt lat="50.1254464" lon="8.86008">
                <ele>101.0</ele>
                <time>2020-08-30T09:45:50.000Z</time>
                <name>Trackpoint 3043</name>
            </trkpt>
            <trkpt lat="50.125472" lon="8.8599304">
                <ele>101.0</ele>
                <time>2020-08-30T09:45:52.000Z</time>
                <name>Trackpoint 3044</name>
            </trkpt>
            <trkpt lat="50.125504" lon="8.8597872">
                <ele>101.0</ele>
                <time>2020-08-30T09:45:54.000Z</time>
                <name>Trackpoint 3045</name>
            </trkpt>
            <trkpt lat="50.1255136" lon="8.8596296">
                <ele>101.0</ele>
                <time>2020-08-30T09:45:56.000Z</time>
                <name>Trackpoint 3046</name>
            </trkpt>
            <trkpt lat="50.1255424" lon="8.8594664">
                <ele>101.0</ele>
                <time>2020-08-30T09:45:58.000Z</time>
                <name>Trackpoint 3047</name>
            </trkpt>
            <trkpt lat="50.125568" lon="8.85932">
                <ele>101.0</ele>
                <time>2020-08-30T09:46:00.000Z</time>
                <name>Trackpoint 3048</name>
            </trkpt>
            <trkpt lat="50.125584" lon="8.8591544">
                <ele>102.0</ele>
                <time>2020-08-30T09:46:02.000Z</time>
                <name>Trackpoint 3049</name>
            </trkpt>
            <trkpt lat="50.1256032" lon="8.8589824">
                <ele>102.0</ele>
                <time>2020-08-30T09:46:04.000Z</time>
                <name>Trackpoint 3050</name>
            </trkpt>
            <trkpt lat="50.1256288" lon="8.8588136">
                <ele>102.0</ele>
                <time>2020-08-30T09:46:06.000Z</time>
                <name>Trackpoint 3051</name>
            </trkpt>
            <trkpt lat="50.1256512" lon="8.8586416">
                <ele>102.0</ele>
                <time>2020-08-30T09:46:08.000Z</time>
                <name>Trackpoint 3052</name>
            </trkpt>
            <trkpt lat="50.1256832" lon="8.858472">
                <ele>102.0</ele>
                <time>2020-08-30T09:46:10.000Z</time>
                <name>Trackpoint 3053</name>
            </trkpt>
            <trkpt lat="50.1257184" lon="8.8583032">
                <ele>102.0</ele>
                <time>2020-08-30T09:46:12.000Z</time>
                <name>Trackpoint 3054</name>
            </trkpt>
            <trkpt lat="50.12576" lon="8.8581384">
                <ele>103.0</ele>
                <time>2020-08-30T09:46:14.000Z</time>
                <name>Trackpoint 3055</name>
            </trkpt>
            <trkpt lat="50.1257984" lon="8.8579664">
                <ele>103.0</ele>
                <time>2020-08-30T09:46:16.000Z</time>
                <name>Trackpoint 3056</name>
            </trkpt>
            <trkpt lat="50.1258432" lon="8.8577992">
                <ele>103.0</ele>
                <time>2020-08-30T09:46:18.000Z</time>
                <name>Trackpoint 3057</name>
            </trkpt>
            <trkpt lat="50.1258816" lon="8.857632">
                <ele>103.0</ele>
                <time>2020-08-30T09:46:20.000Z</time>
                <name>Trackpoint 3058</name>
            </trkpt>
            <trkpt lat="50.12592" lon="8.8574632">
                <ele>104.0</ele>
                <time>2020-08-30T09:46:22.000Z</time>
                <name>Trackpoint 3059</name>
            </trkpt>
            <trkpt lat="50.1259552" lon="8.8572952">
                <ele>104.0</ele>
                <time>2020-08-30T09:46:24.000Z</time>
                <name>Trackpoint 3060</name>
            </trkpt>
            <trkpt lat="50.1259904" lon="8.8571352">
                <ele>104.0</ele>
                <time>2020-08-30T09:46:26.000Z</time>
                <name>Trackpoint 3061</name>
            </trkpt>
            <trkpt lat="50.1260288" lon="8.8569648">
                <ele>105.0</ele>
                <time>2020-08-30T09:46:28.000Z</time>
                <name>Trackpoint 3062</name>
            </trkpt>
            <trkpt lat="50.1260672" lon="8.8568">
                <ele>105.0</ele>
                <time>2020-08-30T09:46:30.000Z</time>
                <name>Trackpoint 3063</name>
            </trkpt>
            <trkpt lat="50.1261056" lon="8.8566416">
                <ele>105.0</ele>
                <time>2020-08-30T09:46:32.000Z</time>
                <name>Trackpoint 3064</name>
            </trkpt>
            <trkpt lat="50.126128" lon="8.8565064">
                <ele>106.0</ele>
                <time>2020-08-30T09:46:34.000Z</time>
                <name>Trackpoint 3065</name>
            </trkpt>
            <trkpt lat="50.1261472" lon="8.8563968">
                <ele>106.0</ele>
                <time>2020-08-30T09:46:37.000Z</time>
                <name>Trackpoint 3066</name>
            </trkpt>
            <trkpt lat="50.1261472" lon="8.85628">
                <ele>105.0</ele>
                <time>2020-08-30T09:47:09.000Z</time>
                <name>Trackpoint 3067</name>
            </trkpt>
            <trkpt lat="50.1261376" lon="8.8561832">
                <ele>105.0</ele>
                <time>2020-08-30T09:47:11.000Z</time>
                <name>Trackpoint 3068</name>
            </trkpt>
            <trkpt lat="50.1261472" lon="8.8560664">
                <ele>105.0</ele>
                <time>2020-08-30T09:47:13.000Z</time>
                <name>Trackpoint 3069</name>
            </trkpt>
            <trkpt lat="50.1261696" lon="8.8559368">
                <ele>105.0</ele>
                <time>2020-08-30T09:47:15.000Z</time>
                <name>Trackpoint 3070</name>
            </trkpt>
            <trkpt lat="50.1262176" lon="8.8558032">
                <ele>105.0</ele>
                <time>2020-08-30T09:47:17.000Z</time>
                <name>Trackpoint 3071</name>
            </trkpt>
            <trkpt lat="50.126256" lon="8.8556568">
                <ele>105.0</ele>
                <time>2020-08-30T09:47:19.000Z</time>
                <name>Trackpoint 3072</name>
            </trkpt>
            <trkpt lat="50.126288" lon="8.8555072">
                <ele>106.0</ele>
                <time>2020-08-30T09:47:21.000Z</time>
                <name>Trackpoint 3073</name>
            </trkpt>
            <trkpt lat="50.1263232" lon="8.8553616">
                <ele>106.0</ele>
                <time>2020-08-30T09:47:23.000Z</time>
                <name>Trackpoint 3074</name>
            </trkpt>
            <trkpt lat="50.1263648" lon="8.8552016">
                <ele>106.0</ele>
                <time>2020-08-30T09:47:25.000Z</time>
                <name>Trackpoint 3075</name>
            </trkpt>
            <trkpt lat="50.1264128" lon="8.8550552">
                <ele>106.0</ele>
                <time>2020-08-30T09:47:27.000Z</time>
                <name>Trackpoint 3076</name>
            </trkpt>
            <trkpt lat="50.1264576" lon="8.8548848">
                <ele>105.0</ele>
                <time>2020-08-30T09:47:29.000Z</time>
                <name>Trackpoint 3077</name>
            </trkpt>
            <trkpt lat="50.1264832" lon="8.8547096">
                <ele>105.0</ele>
                <time>2020-08-30T09:47:31.000Z</time>
                <name>Trackpoint 3078</name>
            </trkpt>
            <trkpt lat="50.1265056" lon="8.8545312">
                <ele>105.0</ele>
                <time>2020-08-30T09:47:33.000Z</time>
                <name>Trackpoint 3079</name>
            </trkpt>
            <trkpt lat="50.1265216" lon="8.8543584">
                <ele>105.0</ele>
                <time>2020-08-30T09:47:35.000Z</time>
                <name>Trackpoint 3080</name>
            </trkpt>
            <trkpt lat="50.126544" lon="8.8541848">
                <ele>105.0</ele>
                <time>2020-08-30T09:47:37.000Z</time>
                <name>Trackpoint 3081</name>
            </trkpt>
            <trkpt lat="50.1265792" lon="8.8540152">
                <ele>105.0</ele>
                <time>2020-08-30T09:47:39.000Z</time>
                <name>Trackpoint 3082</name>
            </trkpt>
            <trkpt lat="50.1266016" lon="8.8538448">
                <ele>105.0</ele>
                <time>2020-08-30T09:47:41.000Z</time>
                <name>Trackpoint 3083</name>
            </trkpt>
            <trkpt lat="50.126624" lon="8.8536816">
                <ele>105.0</ele>
                <time>2020-08-30T09:47:43.000Z</time>
                <name>Trackpoint 3084</name>
            </trkpt>
            <trkpt lat="50.1266528" lon="8.8535272">
                <ele>106.0</ele>
                <time>2020-08-30T09:47:45.000Z</time>
                <name>Trackpoint 3085</name>
            </trkpt>
            <trkpt lat="50.1266848" lon="8.8533736">
                <ele>105.0</ele>
                <time>2020-08-30T09:47:47.000Z</time>
                <name>Trackpoint 3086</name>
            </trkpt>
            <trkpt lat="50.1267168" lon="8.8532104">
                <ele>106.0</ele>
                <time>2020-08-30T09:47:49.000Z</time>
                <name>Trackpoint 3087</name>
            </trkpt>
            <trkpt lat="50.1267424" lon="8.8530464">
                <ele>106.0</ele>
                <time>2020-08-30T09:47:51.000Z</time>
                <name>Trackpoint 3088</name>
            </trkpt>
            <trkpt lat="50.1267744" lon="8.8528832">
                <ele>106.0</ele>
                <time>2020-08-30T09:47:53.000Z</time>
                <name>Trackpoint 3089</name>
            </trkpt>
            <trkpt lat="50.1268128" lon="8.85272">
                <ele>106.0</ele>
                <time>2020-08-30T09:47:55.000Z</time>
                <name>Trackpoint 3090</name>
            </trkpt>
            <trkpt lat="50.1268416" lon="8.8525536">
                <ele>106.0</ele>
                <time>2020-08-30T09:47:57.000Z</time>
                <name>Trackpoint 3091</name>
            </trkpt>
            <trkpt lat="50.12688" lon="8.8523904">
                <ele>106.0</ele>
                <time>2020-08-30T09:47:59.000Z</time>
                <name>Trackpoint 3092</name>
            </trkpt>
            <trkpt lat="50.126912" lon="8.8522232">
                <ele>106.0</ele>
                <time>2020-08-30T09:48:01.000Z</time>
                <name>Trackpoint 3093</name>
            </trkpt>
            <trkpt lat="50.1269504" lon="8.8520584">
                <ele>106.0</ele>
                <time>2020-08-30T09:48:03.000Z</time>
                <name>Trackpoint 3094</name>
            </trkpt>
            <trkpt lat="50.126992" lon="8.8518896">
                <ele>106.0</ele>
                <time>2020-08-30T09:48:05.000Z</time>
                <name>Trackpoint 3095</name>
            </trkpt>
            <trkpt lat="50.1270304" lon="8.851724">
                <ele>105.0</ele>
                <time>2020-08-30T09:48:07.000Z</time>
                <name>Trackpoint 3096</name>
            </trkpt>
            <trkpt lat="50.1270496" lon="8.8515504">
                <ele>106.0</ele>
                <time>2020-08-30T09:48:09.000Z</time>
                <name>Trackpoint 3097</name>
            </trkpt>
            <trkpt lat="50.1270752" lon="8.8513784">
                <ele>106.0</ele>
                <time>2020-08-30T09:48:11.000Z</time>
                <name>Trackpoint 3098</name>
            </trkpt>
            <trkpt lat="50.1271328" lon="8.8512248">
                <ele>104.0</ele>
                <time>2020-08-30T09:48:13.000Z</time>
                <name>Trackpoint 3099</name>
            </trkpt>
            <trkpt lat="50.1271776" lon="8.8510688">
                <ele>104.0</ele>
                <time>2020-08-30T09:48:15.000Z</time>
                <name>Trackpoint 3100</name>
            </trkpt>
            <trkpt lat="50.127216" lon="8.850908">
                <ele>104.0</ele>
                <time>2020-08-30T09:48:17.000Z</time>
                <name>Trackpoint 3101</name>
            </trkpt>
            <trkpt lat="50.1272288" lon="8.8508152">
                <ele>104.0</ele>
                <time>2020-08-30T09:48:18.000Z</time>
                <name>Trackpoint 3102</name>
            </trkpt>
            <trkpt lat="50.1272576" lon="8.8506584">
                <ele>104.0</ele>
                <time>2020-08-30T09:48:20.000Z</time>
                <name>Trackpoint 3103</name>
            </trkpt>
            <trkpt lat="50.127296" lon="8.8504896">
                <ele>103.0</ele>
                <time>2020-08-30T09:48:22.000Z</time>
                <name>Trackpoint 3104</name>
            </trkpt>
            <trkpt lat="50.1273312" lon="8.8503312">
                <ele>103.0</ele>
                <time>2020-08-30T09:48:24.000Z</time>
                <name>Trackpoint 3105</name>
            </trkpt>
            <trkpt lat="50.1273696" lon="8.8501632">
                <ele>103.0</ele>
                <time>2020-08-30T09:48:26.000Z</time>
                <name>Trackpoint 3106</name>
            </trkpt>
            <trkpt lat="50.1274112" lon="8.849992">
                <ele>104.0</ele>
                <time>2020-08-30T09:48:28.000Z</time>
                <name>Trackpoint 3107</name>
            </trkpt>
            <trkpt lat="50.127456" lon="8.8498296">
                <ele>103.0</ele>
                <time>2020-08-30T09:48:30.000Z</time>
                <name>Trackpoint 3108</name>
            </trkpt>
            <trkpt lat="50.1274912" lon="8.8496616">
                <ele>103.0</ele>
                <time>2020-08-30T09:48:32.000Z</time>
                <name>Trackpoint 3109</name>
            </trkpt>
            <trkpt lat="50.12752" lon="8.8494968">
                <ele>103.0</ele>
                <time>2020-08-30T09:48:34.000Z</time>
                <name>Trackpoint 3110</name>
            </trkpt>
            <trkpt lat="50.1275488" lon="8.849328">
                <ele>103.0</ele>
                <time>2020-08-30T09:48:36.000Z</time>
                <name>Trackpoint 3111</name>
            </trkpt>
            <trkpt lat="50.1275776" lon="8.849156">
                <ele>103.0</ele>
                <time>2020-08-30T09:48:38.000Z</time>
                <name>Trackpoint 3112</name>
            </trkpt>
            <trkpt lat="50.127616" lon="8.8489864">
                <ele>103.0</ele>
                <time>2020-08-30T09:48:40.000Z</time>
                <name>Trackpoint 3113</name>
            </trkpt>
            <trkpt lat="50.127664" lon="8.8488264">
                <ele>102.0</ele>
                <time>2020-08-30T09:48:42.000Z</time>
                <name>Trackpoint 3114</name>
            </trkpt>
            <trkpt lat="50.1277056" lon="8.8486664">
                <ele>102.0</ele>
                <time>2020-08-30T09:48:44.000Z</time>
                <name>Trackpoint 3115</name>
            </trkpt>
            <trkpt lat="50.1277472" lon="8.8485032">
                <ele>103.0</ele>
                <time>2020-08-30T09:48:46.000Z</time>
                <name>Trackpoint 3116</name>
            </trkpt>
            <trkpt lat="50.1277984" lon="8.8483448">
                <ele>102.0</ele>
                <time>2020-08-30T09:48:48.000Z</time>
                <name>Trackpoint 3117</name>
            </trkpt>
            <trkpt lat="50.1278464" lon="8.84818">
                <ele>102.0</ele>
                <time>2020-08-30T09:48:50.000Z</time>
                <name>Trackpoint 3118</name>
            </trkpt>
            <trkpt lat="50.1278912" lon="8.8480128">
                <ele>102.0</ele>
                <time>2020-08-30T09:48:52.000Z</time>
                <name>Trackpoint 3119</name>
            </trkpt>
            <trkpt lat="50.1279328" lon="8.8478496">
                <ele>102.0</ele>
                <time>2020-08-30T09:48:54.000Z</time>
                <name>Trackpoint 3120</name>
            </trkpt>
            <trkpt lat="50.1279648" lon="8.8476736">
                <ele>102.0</ele>
                <time>2020-08-30T09:48:56.000Z</time>
                <name>Trackpoint 3121</name>
            </trkpt>
            <trkpt lat="50.1279968" lon="8.8475064">
                <ele>102.0</ele>
                <time>2020-08-30T09:48:58.000Z</time>
                <name>Trackpoint 3122</name>
            </trkpt>
            <trkpt lat="50.128032" lon="8.84734">
                <ele>102.0</ele>
                <time>2020-08-30T09:49:00.000Z</time>
                <name>Trackpoint 3123</name>
            </trkpt>
            <trkpt lat="50.1280672" lon="8.847172">
                <ele>103.0</ele>
                <time>2020-08-30T09:49:02.000Z</time>
                <name>Trackpoint 3124</name>
            </trkpt>
            <trkpt lat="50.12808" lon="8.84708">
                <ele>103.0</ele>
                <time>2020-08-30T09:49:03.000Z</time>
                <name>Trackpoint 3125</name>
            </trkpt>
            <trkpt lat="50.128112" lon="8.8469104">
                <ele>103.0</ele>
                <time>2020-08-30T09:49:05.000Z</time>
                <name>Trackpoint 3126</name>
            </trkpt>
            <trkpt lat="50.128144" lon="8.84674">
                <ele>103.0</ele>
                <time>2020-08-30T09:49:07.000Z</time>
                <name>Trackpoint 3127</name>
            </trkpt>
            <trkpt lat="50.1281696" lon="8.8465656">
                <ele>104.0</ele>
                <time>2020-08-30T09:49:09.000Z</time>
                <name>Trackpoint 3128</name>
            </trkpt>
            <trkpt lat="50.1281952" lon="8.8463984">
                <ele>104.0</ele>
                <time>2020-08-30T09:49:11.000Z</time>
                <name>Trackpoint 3129</name>
            </trkpt>
            <trkpt lat="50.1282336" lon="8.8462336">
                <ele>104.0</ele>
                <time>2020-08-30T09:49:13.000Z</time>
                <name>Trackpoint 3130</name>
            </trkpt>
            <trkpt lat="50.1282656" lon="8.8460616">
                <ele>104.0</ele>
                <time>2020-08-30T09:49:15.000Z</time>
                <name>Trackpoint 3131</name>
            </trkpt>
            <trkpt lat="50.1282944" lon="8.8458968">
                <ele>103.0</ele>
                <time>2020-08-30T09:49:17.000Z</time>
                <name>Trackpoint 3132</name>
            </trkpt>
            <trkpt lat="50.1283264" lon="8.8457296">
                <ele>103.0</ele>
                <time>2020-08-30T09:49:19.000Z</time>
                <name>Trackpoint 3133</name>
            </trkpt>
            <trkpt lat="50.1283584" lon="8.8455712">
                <ele>102.0</ele>
                <time>2020-08-30T09:49:21.000Z</time>
                <name>Trackpoint 3134</name>
            </trkpt>
            <trkpt lat="50.1283872" lon="8.8454064">
                <ele>102.0</ele>
                <time>2020-08-30T09:49:23.000Z</time>
                <name>Trackpoint 3135</name>
            </trkpt>
            <trkpt lat="50.1284224" lon="8.8452456">
                <ele>102.0</ele>
                <time>2020-08-30T09:49:25.000Z</time>
                <name>Trackpoint 3136</name>
            </trkpt>
            <trkpt lat="50.1284448" lon="8.8450736">
                <ele>102.0</ele>
                <time>2020-08-30T09:49:27.000Z</time>
                <name>Trackpoint 3137</name>
            </trkpt>
            <trkpt lat="50.1284704" lon="8.8449048">
                <ele>102.0</ele>
                <time>2020-08-30T09:49:29.000Z</time>
                <name>Trackpoint 3138</name>
            </trkpt>
            <trkpt lat="50.1284992" lon="8.8447352">
                <ele>103.0</ele>
                <time>2020-08-30T09:49:31.000Z</time>
                <name>Trackpoint 3139</name>
            </trkpt>
            <trkpt lat="50.1285216" lon="8.8445656">
                <ele>103.0</ele>
                <time>2020-08-30T09:49:33.000Z</time>
                <name>Trackpoint 3140</name>
            </trkpt>
            <trkpt lat="50.1285472" lon="8.844392">
                <ele>102.0</ele>
                <time>2020-08-30T09:49:35.000Z</time>
                <name>Trackpoint 3141</name>
            </trkpt>
            <trkpt lat="50.1285728" lon="8.84422">
                <ele>102.0</ele>
                <time>2020-08-30T09:49:37.000Z</time>
                <name>Trackpoint 3142</name>
            </trkpt>
            <trkpt lat="50.1285984" lon="8.8440512">
                <ele>102.0</ele>
                <time>2020-08-30T09:49:39.000Z</time>
                <name>Trackpoint 3143</name>
            </trkpt>
            <trkpt lat="50.1286176" lon="8.8438752">
                <ele>102.0</ele>
                <time>2020-08-30T09:49:41.000Z</time>
                <name>Trackpoint 3144</name>
            </trkpt>
            <trkpt lat="50.1286464" lon="8.8437136">
                <ele>102.0</ele>
                <time>2020-08-30T09:49:43.000Z</time>
                <name>Trackpoint 3145</name>
            </trkpt>
            <trkpt lat="50.1286592" lon="8.8435384">
                <ele>103.0</ele>
                <time>2020-08-30T09:49:45.000Z</time>
                <name>Trackpoint 3146</name>
            </trkpt>
            <trkpt lat="50.1286848" lon="8.8433712">
                <ele>103.0</ele>
                <time>2020-08-30T09:49:47.000Z</time>
                <name>Trackpoint 3147</name>
            </trkpt>
            <trkpt lat="50.1287296" lon="8.8432152">
                <ele>103.0</ele>
                <time>2020-08-30T09:49:49.000Z</time>
                <name>Trackpoint 3148</name>
            </trkpt>
            <trkpt lat="50.1287648" lon="8.8430504">
                <ele>103.0</ele>
                <time>2020-08-30T09:49:51.000Z</time>
                <name>Trackpoint 3149</name>
            </trkpt>
            <trkpt lat="50.1287776" lon="8.8429536">
                <ele>103.0</ele>
                <time>2020-08-30T09:49:52.000Z</time>
                <name>Trackpoint 3150</name>
            </trkpt>
            <trkpt lat="50.1288032" lon="8.8427824">
                <ele>103.0</ele>
                <time>2020-08-30T09:49:54.000Z</time>
                <name>Trackpoint 3151</name>
            </trkpt>
            <trkpt lat="50.1288288" lon="8.8426064">
                <ele>103.0</ele>
                <time>2020-08-30T09:49:56.000Z</time>
                <name>Trackpoint 3152</name>
            </trkpt>
            <trkpt lat="50.128848" lon="8.8424384">
                <ele>104.0</ele>
                <time>2020-08-30T09:49:58.000Z</time>
                <name>Trackpoint 3153</name>
            </trkpt>
            <trkpt lat="50.128864" lon="8.8422672">
                <ele>104.0</ele>
                <time>2020-08-30T09:50:00.000Z</time>
                <name>Trackpoint 3154</name>
            </trkpt>
            <trkpt lat="50.12888" lon="8.8421">
                <ele>104.0</ele>
                <time>2020-08-30T09:50:02.000Z</time>
                <name>Trackpoint 3155</name>
            </trkpt>
            <trkpt lat="50.1289088" lon="8.8419488">
                <ele>103.0</ele>
                <time>2020-08-30T09:50:04.000Z</time>
                <name>Trackpoint 3156</name>
            </trkpt>
            <trkpt lat="50.1289248" lon="8.8417816">
                <ele>103.0</ele>
                <time>2020-08-30T09:50:06.000Z</time>
                <name>Trackpoint 3157</name>
            </trkpt>
            <trkpt lat="50.1289472" lon="8.8416168">
                <ele>102.0</ele>
                <time>2020-08-30T09:50:08.000Z</time>
                <name>Trackpoint 3158</name>
            </trkpt>
            <trkpt lat="50.1289632" lon="8.8414496">
                <ele>102.0</ele>
                <time>2020-08-30T09:50:10.000Z</time>
                <name>Trackpoint 3159</name>
            </trkpt>
            <trkpt lat="50.128976" lon="8.8412736">
                <ele>103.0</ele>
                <time>2020-08-30T09:50:12.000Z</time>
                <name>Trackpoint 3160</name>
            </trkpt>
            <trkpt lat="50.1289824" lon="8.841112">
                <ele>103.0</ele>
                <time>2020-08-30T09:50:14.000Z</time>
                <name>Trackpoint 3161</name>
            </trkpt>
            <trkpt lat="50.1290016" lon="8.840952">
                <ele>103.0</ele>
                <time>2020-08-30T09:50:16.000Z</time>
                <name>Trackpoint 3162</name>
            </trkpt>
            <trkpt lat="50.1290592" lon="8.84082">
                <ele>104.0</ele>
                <time>2020-08-30T09:50:18.000Z</time>
                <name>Trackpoint 3163</name>
            </trkpt>
            <trkpt lat="50.1291328" lon="8.8407096">
                <ele>104.0</ele>
                <time>2020-08-30T09:50:20.000Z</time>
                <name>Trackpoint 3164</name>
            </trkpt>
            <trkpt lat="50.1291872" lon="8.8405912">
                <ele>104.0</ele>
                <time>2020-08-30T09:50:22.000Z</time>
                <name>Trackpoint 3165</name>
            </trkpt>
            <trkpt lat="50.1292064" lon="8.8404368">
                <ele>104.0</ele>
                <time>2020-08-30T09:50:24.000Z</time>
                <name>Trackpoint 3166</name>
            </trkpt>
            <trkpt lat="50.129216" lon="8.8402728">
                <ele>104.0</ele>
                <time>2020-08-30T09:50:26.000Z</time>
                <name>Trackpoint 3167</name>
            </trkpt>
            <trkpt lat="50.1292256" lon="8.84012">
                <ele>103.0</ele>
                <time>2020-08-30T09:50:28.000Z</time>
                <name>Trackpoint 3168</name>
            </trkpt>
            <trkpt lat="50.1292384" lon="8.8399624">
                <ele>104.0</ele>
                <time>2020-08-30T09:50:30.000Z</time>
                <name>Trackpoint 3169</name>
            </trkpt>
            <trkpt lat="50.1292448" lon="8.8398104">
                <ele>103.0</ele>
                <time>2020-08-30T09:50:32.000Z</time>
                <name>Trackpoint 3170</name>
            </trkpt>
            <trkpt lat="50.1292576" lon="8.839652">
                <ele>104.0</ele>
                <time>2020-08-30T09:50:34.000Z</time>
                <name>Trackpoint 3171</name>
            </trkpt>
            <trkpt lat="50.1292576" lon="8.8394936">
                <ele>105.0</ele>
                <time>2020-08-30T09:50:36.000Z</time>
                <name>Trackpoint 3172</name>
            </trkpt>
            <trkpt lat="50.1292544" lon="8.8393448">
                <ele>105.0</ele>
                <time>2020-08-30T09:50:38.000Z</time>
                <name>Trackpoint 3173</name>
            </trkpt>
            <trkpt lat="50.129248" lon="8.839216">
                <ele>106.0</ele>
                <time>2020-08-30T09:50:40.000Z</time>
                <name>Trackpoint 3174</name>
            </trkpt>
            <trkpt lat="50.1292448" lon="8.8391016">
                <ele>106.0</ele>
                <time>2020-08-30T09:50:43.000Z</time>
                <name>Trackpoint 3175</name>
            </trkpt>
            <trkpt lat="50.1292608" lon="8.8390104">
                <ele>107.0</ele>
                <time>2020-08-30T09:51:32.000Z</time>
                <name>Trackpoint 3176</name>
            </trkpt>
            <trkpt lat="50.1292576" lon="8.8389016">
                <ele>106.0</ele>
                <time>2020-08-30T10:03:04.000Z</time>
                <name>Trackpoint 3177</name>
            </trkpt>
            <trkpt lat="50.1292608" lon="8.838808">
                <ele>106.0</ele>
                <time>2020-08-30T10:03:06.000Z</time>
                <name>Trackpoint 3178</name>
            </trkpt>
            <trkpt lat="50.1292608" lon="8.8386936">
                <ele>106.0</ele>
                <time>2020-08-30T10:03:08.000Z</time>
                <name>Trackpoint 3179</name>
            </trkpt>
            <trkpt lat="50.129264" lon="8.8385688">
                <ele>106.0</ele>
                <time>2020-08-30T10:03:10.000Z</time>
                <name>Trackpoint 3180</name>
            </trkpt>
            <trkpt lat="50.1292672" lon="8.8384336">
                <ele>106.0</ele>
                <time>2020-08-30T10:03:12.000Z</time>
                <name>Trackpoint 3181</name>
            </trkpt>
            <trkpt lat="50.1292672" lon="8.838292">
                <ele>106.0</ele>
                <time>2020-08-30T10:03:14.000Z</time>
                <name>Trackpoint 3182</name>
            </trkpt>
            <trkpt lat="50.129264" lon="8.8381544">
                <ele>105.0</ele>
                <time>2020-08-30T10:03:16.000Z</time>
                <name>Trackpoint 3183</name>
            </trkpt>
            <trkpt lat="50.1292672" lon="8.8380248">
                <ele>105.0</ele>
                <time>2020-08-30T10:03:18.000Z</time>
                <name>Trackpoint 3184</name>
            </trkpt>
            <trkpt lat="50.1292736" lon="8.8378984">
                <ele>105.0</ele>
                <time>2020-08-30T10:03:20.000Z</time>
                <name>Trackpoint 3185</name>
            </trkpt>
            <trkpt lat="50.1292736" lon="8.837764">
                <ele>104.0</ele>
                <time>2020-08-30T10:03:22.000Z</time>
                <name>Trackpoint 3186</name>
            </trkpt>
            <trkpt lat="50.1292768" lon="8.8376176">
                <ele>104.0</ele>
                <time>2020-08-30T10:03:24.000Z</time>
                <name>Trackpoint 3187</name>
            </trkpt>
            <trkpt lat="50.12928" lon="8.8374664">
                <ele>103.0</ele>
                <time>2020-08-30T10:03:26.000Z</time>
                <name>Trackpoint 3188</name>
            </trkpt>
            <trkpt lat="50.1292832" lon="8.8373096">
                <ele>103.0</ele>
                <time>2020-08-30T10:03:28.000Z</time>
                <name>Trackpoint 3189</name>
            </trkpt>
            <trkpt lat="50.1292928" lon="8.8371536">
                <ele>102.0</ele>
                <time>2020-08-30T10:03:30.000Z</time>
                <name>Trackpoint 3190</name>
            </trkpt>
            <trkpt lat="50.1292832" lon="8.8370048">
                <ele>102.0</ele>
                <time>2020-08-30T10:03:32.000Z</time>
                <name>Trackpoint 3191</name>
            </trkpt>
            <trkpt lat="50.1292736" lon="8.836908">
                <ele>102.0</ele>
                <time>2020-08-30T10:03:34.000Z</time>
                <name>Trackpoint 3192</name>
            </trkpt>
            <trkpt lat="50.129264" lon="8.8368184">
                <ele>101.0</ele>
                <time>2020-08-30T10:04:22.000Z</time>
                <name>Trackpoint 3193</name>
            </trkpt>
            <trkpt lat="50.1292416" lon="8.8367256">
                <ele>101.0</ele>
                <time>2020-08-30T10:04:26.000Z</time>
                <name>Trackpoint 3194</name>
            </trkpt>
            <trkpt lat="50.1292576" lon="8.836608">
                <ele>101.0</ele>
                <time>2020-08-30T10:04:29.000Z</time>
                <name>Trackpoint 3195</name>
            </trkpt>
            <trkpt lat="50.12928" lon="8.836496">
                <ele>101.0</ele>
                <time>2020-08-30T10:04:31.000Z</time>
                <name>Trackpoint 3196</name>
            </trkpt>
            <trkpt lat="50.1293056" lon="8.8363752">
                <ele>101.0</ele>
                <time>2020-08-30T10:04:33.000Z</time>
                <name>Trackpoint 3197</name>
            </trkpt>
            <trkpt lat="50.129344" lon="8.8362376">
                <ele>100.0</ele>
                <time>2020-08-30T10:04:35.000Z</time>
                <name>Trackpoint 3198</name>
            </trkpt>
            <trkpt lat="50.1293792" lon="8.8360856">
                <ele>100.0</ele>
                <time>2020-08-30T10:04:37.000Z</time>
                <name>Trackpoint 3199</name>
            </trkpt>
            <trkpt lat="50.1293984" lon="8.8359248">
                <ele>100.0</ele>
                <time>2020-08-30T10:04:39.000Z</time>
                <name>Trackpoint 3200</name>
            </trkpt>
            <trkpt lat="50.1294208" lon="8.8357632">
                <ele>100.0</ele>
                <time>2020-08-30T10:04:41.000Z</time>
                <name>Trackpoint 3201</name>
            </trkpt>
            <trkpt lat="50.129456" lon="8.8355952">
                <ele>100.0</ele>
                <time>2020-08-30T10:04:43.000Z</time>
                <name>Trackpoint 3202</name>
            </trkpt>
            <trkpt lat="50.1294752" lon="8.835432">
                <ele>100.0</ele>
                <time>2020-08-30T10:04:45.000Z</time>
                <name>Trackpoint 3203</name>
            </trkpt>
            <trkpt lat="50.1294976" lon="8.835268">
                <ele>100.0</ele>
                <time>2020-08-30T10:04:47.000Z</time>
                <name>Trackpoint 3204</name>
            </trkpt>
            <trkpt lat="50.1295232" lon="8.8351">
                <ele>100.0</ele>
                <time>2020-08-30T10:04:49.000Z</time>
                <name>Trackpoint 3205</name>
            </trkpt>
            <trkpt lat="50.1295552" lon="8.8349336">
                <ele>100.0</ele>
                <time>2020-08-30T10:04:51.000Z</time>
                <name>Trackpoint 3206</name>
            </trkpt>
            <trkpt lat="50.1295936" lon="8.8347768">
                <ele>100.0</ele>
                <time>2020-08-30T10:04:53.000Z</time>
                <name>Trackpoint 3207</name>
            </trkpt>
            <trkpt lat="50.1296288" lon="8.8346256">
                <ele>99.0</ele>
                <time>2020-08-30T10:04:55.000Z</time>
                <name>Trackpoint 3208</name>
            </trkpt>
            <trkpt lat="50.1296608" lon="8.8344744">
                <ele>99.0</ele>
                <time>2020-08-30T10:04:57.000Z</time>
                <name>Trackpoint 3209</name>
            </trkpt>
            <trkpt lat="50.1296928" lon="8.834316">
                <ele>99.0</ele>
                <time>2020-08-30T10:04:59.000Z</time>
                <name>Trackpoint 3210</name>
            </trkpt>
            <trkpt lat="50.1297216" lon="8.83416">
                <ele>99.0</ele>
                <time>2020-08-30T10:05:01.000Z</time>
                <name>Trackpoint 3211</name>
            </trkpt>
            <trkpt lat="50.1297536" lon="8.8340032">
                <ele>99.0</ele>
                <time>2020-08-30T10:05:03.000Z</time>
                <name>Trackpoint 3212</name>
            </trkpt>
            <trkpt lat="50.1297792" lon="8.8338384">
                <ele>99.0</ele>
                <time>2020-08-30T10:05:05.000Z</time>
                <name>Trackpoint 3213</name>
            </trkpt>
            <trkpt lat="50.1298144" lon="8.8336848">
                <ele>99.0</ele>
                <time>2020-08-30T10:05:07.000Z</time>
                <name>Trackpoint 3214</name>
            </trkpt>
            <trkpt lat="50.1298496" lon="8.8335248">
                <ele>99.0</ele>
                <time>2020-08-30T10:05:09.000Z</time>
                <name>Trackpoint 3215</name>
            </trkpt>
            <trkpt lat="50.1298816" lon="8.8333632">
                <ele>99.0</ele>
                <time>2020-08-30T10:05:11.000Z</time>
                <name>Trackpoint 3216</name>
            </trkpt>
            <trkpt lat="50.1299136" lon="8.833212">
                <ele>99.0</ele>
                <time>2020-08-30T10:05:13.000Z</time>
                <name>Trackpoint 3217</name>
            </trkpt>
            <trkpt lat="50.1299488" lon="8.83306">
                <ele>98.0</ele>
                <time>2020-08-30T10:05:15.000Z</time>
                <name>Trackpoint 3218</name>
            </trkpt>
            <trkpt lat="50.1299808" lon="8.8329088">
                <ele>99.0</ele>
                <time>2020-08-30T10:05:17.000Z</time>
                <name>Trackpoint 3219</name>
            </trkpt>
            <trkpt lat="50.1300096" lon="8.8327648">
                <ele>98.0</ele>
                <time>2020-08-30T10:05:19.000Z</time>
                <name>Trackpoint 3220</name>
            </trkpt>
            <trkpt lat="50.1300352" lon="8.8326064">
                <ele>97.0</ele>
                <time>2020-08-30T10:05:21.000Z</time>
                <name>Trackpoint 3221</name>
            </trkpt>
            <trkpt lat="50.1300576" lon="8.8324432">
                <ele>97.0</ele>
                <time>2020-08-30T10:05:23.000Z</time>
                <name>Trackpoint 3222</name>
            </trkpt>
            <trkpt lat="50.1300736" lon="8.8322872">
                <ele>97.0</ele>
                <time>2020-08-30T10:05:25.000Z</time>
                <name>Trackpoint 3223</name>
            </trkpt>
            <trkpt lat="50.1301056" lon="8.8321464">
                <ele>97.0</ele>
                <time>2020-08-30T10:05:27.000Z</time>
                <name>Trackpoint 3224</name>
            </trkpt>
            <trkpt lat="50.1301344" lon="8.832">
                <ele>97.0</ele>
                <time>2020-08-30T10:05:29.000Z</time>
                <name>Trackpoint 3225</name>
            </trkpt>
            <trkpt lat="50.13016" lon="8.8318584">
                <ele>97.0</ele>
                <time>2020-08-30T10:05:31.000Z</time>
                <name>Trackpoint 3226</name>
            </trkpt>
            <trkpt lat="50.1301856" lon="8.831712">
                <ele>97.0</ele>
                <time>2020-08-30T10:05:33.000Z</time>
                <name>Trackpoint 3227</name>
            </trkpt>
            <trkpt lat="50.130208" lon="8.8315512">
                <ele>97.0</ele>
                <time>2020-08-30T10:05:35.000Z</time>
                <name>Trackpoint 3228</name>
            </trkpt>
            <trkpt lat="50.1302528" lon="8.8313952">
                <ele>96.0</ele>
                <time>2020-08-30T10:05:37.000Z</time>
                <name>Trackpoint 3229</name>
            </trkpt>
            <trkpt lat="50.1302784" lon="8.8312304">
                <ele>96.0</ele>
                <time>2020-08-30T10:05:39.000Z</time>
                <name>Trackpoint 3230</name>
            </trkpt>
            <trkpt lat="50.1303104" lon="8.8310616">
                <ele>97.0</ele>
                <time>2020-08-30T10:05:41.000Z</time>
                <name>Trackpoint 3231</name>
            </trkpt>
            <trkpt lat="50.1303456" lon="8.8308896">
                <ele>97.0</ele>
                <time>2020-08-30T10:05:43.000Z</time>
                <name>Trackpoint 3232</name>
            </trkpt>
            <trkpt lat="50.130368" lon="8.8307048">
                <ele>98.0</ele>
                <time>2020-08-30T10:05:45.000Z</time>
                <name>Trackpoint 3233</name>
            </trkpt>
            <trkpt lat="50.1303968" lon="8.8305432">
                <ele>98.0</ele>
                <time>2020-08-30T10:05:47.000Z</time>
                <name>Trackpoint 3234</name>
            </trkpt>
            <trkpt lat="50.1304288" lon="8.8303808">
                <ele>98.0</ele>
                <time>2020-08-30T10:05:49.000Z</time>
                <name>Trackpoint 3235</name>
            </trkpt>
            <trkpt lat="50.1304672" lon="8.8302224">
                <ele>98.0</ele>
                <time>2020-08-30T10:05:51.000Z</time>
                <name>Trackpoint 3236</name>
            </trkpt>
            <trkpt lat="50.130496" lon="8.830056">
                <ele>98.0</ele>
                <time>2020-08-30T10:05:53.000Z</time>
                <name>Trackpoint 3237</name>
            </trkpt>
            <trkpt lat="50.1305184" lon="8.8298912">
                <ele>98.0</ele>
                <time>2020-08-30T10:05:55.000Z</time>
                <name>Trackpoint 3238</name>
            </trkpt>
            <trkpt lat="50.1305472" lon="8.829712">
                <ele>99.0</ele>
                <time>2020-08-30T10:05:57.000Z</time>
                <name>Trackpoint 3239</name>
            </trkpt>
            <trkpt lat="50.1305856" lon="8.8295448">
                <ele>99.0</ele>
                <time>2020-08-30T10:05:59.000Z</time>
                <name>Trackpoint 3240</name>
            </trkpt>
            <trkpt lat="50.1306176" lon="8.82938">
                <ele>99.0</ele>
                <time>2020-08-30T10:06:01.000Z</time>
                <name>Trackpoint 3241</name>
            </trkpt>
            <trkpt lat="50.1306464" lon="8.8292128">
                <ele>99.0</ele>
                <time>2020-08-30T10:06:03.000Z</time>
                <name>Trackpoint 3242</name>
            </trkpt>
            <trkpt lat="50.1306336" lon="8.8290432">
                <ele>98.0</ele>
                <time>2020-08-30T10:06:05.000Z</time>
                <name>Trackpoint 3243</name>
            </trkpt>
            <trkpt lat="50.130592" lon="8.8288816">
                <ele>99.0</ele>
                <time>2020-08-30T10:06:07.000Z</time>
                <name>Trackpoint 3244</name>
            </trkpt>
            <trkpt lat="50.1305504" lon="8.82872">
                <ele>99.0</ele>
                <time>2020-08-30T10:06:09.000Z</time>
                <name>Trackpoint 3245</name>
            </trkpt>
            <trkpt lat="50.1305088" lon="8.8285576">
                <ele>99.0</ele>
                <time>2020-08-30T10:06:11.000Z</time>
                <name>Trackpoint 3246</name>
            </trkpt>
            <trkpt lat="50.1304736" lon="8.8284064">
                <ele>99.0</ele>
                <time>2020-08-30T10:06:13.000Z</time>
                <name>Trackpoint 3247</name>
            </trkpt>
            <trkpt lat="50.1304352" lon="8.8282784">
                <ele>100.0</ele>
                <time>2020-08-30T10:06:15.000Z</time>
                <name>Trackpoint 3248</name>
            </trkpt>
            <trkpt lat="50.1304064" lon="8.8281736">
                <ele>100.0</ele>
                <time>2020-08-30T10:06:17.000Z</time>
                <name>Trackpoint 3249</name>
            </trkpt>
            <trkpt lat="50.1303744" lon="8.8280712">
                <ele>100.0</ele>
                <time>2020-08-30T10:06:19.000Z</time>
                <name>Trackpoint 3250</name>
            </trkpt>
            <trkpt lat="50.130352" lon="8.8279616">
                <ele>100.0</ele>
                <time>2020-08-30T10:06:21.000Z</time>
                <name>Trackpoint 3251</name>
            </trkpt>
            <trkpt lat="50.130336" lon="8.8278328">
                <ele>99.0</ele>
                <time>2020-08-30T10:06:23.000Z</time>
                <name>Trackpoint 3252</name>
            </trkpt>
            <trkpt lat="50.1303488" lon="8.8277016">
                <ele>99.0</ele>
                <time>2020-08-30T10:06:25.000Z</time>
                <name>Trackpoint 3253</name>
            </trkpt>
            <trkpt lat="50.1303648" lon="8.8275672">
                <ele>99.0</ele>
                <time>2020-08-30T10:06:27.000Z</time>
                <name>Trackpoint 3254</name>
            </trkpt>
            <trkpt lat="50.1303744" lon="8.827448">
                <ele>98.0</ele>
                <time>2020-08-30T10:06:29.000Z</time>
                <name>Trackpoint 3255</name>
            </trkpt>
            <trkpt lat="50.1304064" lon="8.8273624">
                <ele>99.0</ele>
                <time>2020-08-30T10:06:31.000Z</time>
                <name>Trackpoint 3256</name>
            </trkpt>
            <trkpt lat="50.1305056" lon="8.8273032">
                <ele>98.0</ele>
                <time>2020-08-30T10:06:34.000Z</time>
                <name>Trackpoint 3257</name>
            </trkpt>
            <trkpt lat="50.1305824" lon="8.827256">
                <ele>99.0</ele>
                <time>2020-08-30T10:06:36.000Z</time>
                <name>Trackpoint 3258</name>
            </trkpt>
            <trkpt lat="50.1306656" lon="8.8271912">
                <ele>98.0</ele>
                <time>2020-08-30T10:06:38.000Z</time>
                <name>Trackpoint 3259</name>
            </trkpt>
            <trkpt lat="50.1307328" lon="8.827088">
                <ele>98.0</ele>
                <time>2020-08-30T10:06:40.000Z</time>
                <name>Trackpoint 3260</name>
            </trkpt>
            <trkpt lat="50.1307872" lon="8.826972">
                <ele>98.0</ele>
                <time>2020-08-30T10:06:42.000Z</time>
                <name>Trackpoint 3261</name>
            </trkpt>
            <trkpt lat="50.1308352" lon="8.8268544">
                <ele>98.0</ele>
                <time>2020-08-30T10:06:44.000Z</time>
                <name>Trackpoint 3262</name>
            </trkpt>
            <trkpt lat="50.1308736" lon="8.8267336">
                <ele>97.0</ele>
                <time>2020-08-30T10:06:46.000Z</time>
                <name>Trackpoint 3263</name>
            </trkpt>
            <trkpt lat="50.130896" lon="8.8266">
                <ele>98.0</ele>
                <time>2020-08-30T10:06:48.000Z</time>
                <name>Trackpoint 3264</name>
            </trkpt>
            <trkpt lat="50.130912" lon="8.8264576">
                <ele>98.0</ele>
                <time>2020-08-30T10:06:50.000Z</time>
                <name>Trackpoint 3265</name>
            </trkpt>
            <trkpt lat="50.1309248" lon="8.8263064">
                <ele>98.0</ele>
                <time>2020-08-30T10:06:52.000Z</time>
                <name>Trackpoint 3266</name>
            </trkpt>
            <trkpt lat="50.130944" lon="8.826152">
                <ele>98.0</ele>
                <time>2020-08-30T10:06:54.000Z</time>
                <name>Trackpoint 3267</name>
            </trkpt>
            <trkpt lat="50.1309696" lon="8.825996">
                <ele>98.0</ele>
                <time>2020-08-30T10:06:56.000Z</time>
                <name>Trackpoint 3268</name>
            </trkpt>
            <trkpt lat="50.1310048" lon="8.8258416">
                <ele>98.0</ele>
                <time>2020-08-30T10:06:58.000Z</time>
                <name>Trackpoint 3269</name>
            </trkpt>
            <trkpt lat="50.1310304" lon="8.8256864">
                <ele>98.0</ele>
                <time>2020-08-30T10:07:00.000Z</time>
                <name>Trackpoint 3270</name>
            </trkpt>
            <trkpt lat="50.13104" lon="8.8255256">
                <ele>98.0</ele>
                <time>2020-08-30T10:07:02.000Z</time>
                <name>Trackpoint 3271</name>
            </trkpt>
            <trkpt lat="50.1310624" lon="8.8253648">
                <ele>98.0</ele>
                <time>2020-08-30T10:07:04.000Z</time>
                <name>Trackpoint 3272</name>
            </trkpt>
            <trkpt lat="50.131088" lon="8.8252032">
                <ele>98.0</ele>
                <time>2020-08-30T10:07:06.000Z</time>
                <name>Trackpoint 3273</name>
            </trkpt>
            <trkpt lat="50.1311232" lon="8.8250504">
                <ele>99.0</ele>
                <time>2020-08-30T10:07:08.000Z</time>
                <name>Trackpoint 3274</name>
            </trkpt>
            <trkpt lat="50.131152" lon="8.8248928">
                <ele>99.0</ele>
                <time>2020-08-30T10:07:10.000Z</time>
                <name>Trackpoint 3275</name>
            </trkpt>
            <trkpt lat="50.1311808" lon="8.8247368">
                <ele>98.0</ele>
                <time>2020-08-30T10:07:12.000Z</time>
                <name>Trackpoint 3276</name>
            </trkpt>
            <trkpt lat="50.1312032" lon="8.824572">
                <ele>98.0</ele>
                <time>2020-08-30T10:07:14.000Z</time>
                <name>Trackpoint 3277</name>
            </trkpt>
            <trkpt lat="50.131232" lon="8.8244112">
                <ele>98.0</ele>
                <time>2020-08-30T10:07:16.000Z</time>
                <name>Trackpoint 3278</name>
            </trkpt>
            <trkpt lat="50.1312576" lon="8.824252">
                <ele>98.0</ele>
                <time>2020-08-30T10:07:18.000Z</time>
                <name>Trackpoint 3279</name>
            </trkpt>
            <trkpt lat="50.1312832" lon="8.824088">
                <ele>99.0</ele>
                <time>2020-08-30T10:07:20.000Z</time>
                <name>Trackpoint 3280</name>
            </trkpt>
            <trkpt lat="50.131312" lon="8.8239096">
                <ele>99.0</ele>
                <time>2020-08-30T10:07:22.000Z</time>
                <name>Trackpoint 3281</name>
            </trkpt>
            <trkpt lat="50.131328" lon="8.82382">
                <ele>99.0</ele>
                <time>2020-08-30T10:07:23.000Z</time>
                <name>Trackpoint 3282</name>
            </trkpt>
            <trkpt lat="50.131344" lon="8.8237216">
                <ele>99.0</ele>
                <time>2020-08-30T10:07:24.000Z</time>
                <name>Trackpoint 3283</name>
            </trkpt>
            <trkpt lat="50.1313632" lon="8.8236304">
                <ele>98.0</ele>
                <time>2020-08-30T10:07:25.000Z</time>
                <name>Trackpoint 3284</name>
            </trkpt>
            <trkpt lat="50.1313824" lon="8.8235352">
                <ele>99.0</ele>
                <time>2020-08-30T10:07:26.000Z</time>
                <name>Trackpoint 3285</name>
            </trkpt>
            <trkpt lat="50.1314048" lon="8.8234432">
                <ele>98.0</ele>
                <time>2020-08-30T10:07:27.000Z</time>
                <name>Trackpoint 3286</name>
            </trkpt>
            <trkpt lat="50.131424" lon="8.8233496">
                <ele>98.0</ele>
                <time>2020-08-30T10:07:28.000Z</time>
                <name>Trackpoint 3287</name>
            </trkpt>
            <trkpt lat="50.1314464" lon="8.8232544">
                <ele>98.0</ele>
                <time>2020-08-30T10:07:29.000Z</time>
                <name>Trackpoint 3288</name>
            </trkpt>
            <trkpt lat="50.1314656" lon="8.8231632">
                <ele>98.0</ele>
                <time>2020-08-30T10:07:30.000Z</time>
                <name>Trackpoint 3289</name>
            </trkpt>
            <trkpt lat="50.1314912" lon="8.823076">
                <ele>97.0</ele>
                <time>2020-08-30T10:07:31.000Z</time>
                <name>Trackpoint 3290</name>
            </trkpt>
            <trkpt lat="50.13152" lon="8.8229888">
                <ele>97.0</ele>
                <time>2020-08-30T10:07:32.000Z</time>
                <name>Trackpoint 3291</name>
            </trkpt>
            <trkpt lat="50.131584" lon="8.8228216">
                <ele>97.0</ele>
                <time>2020-08-30T10:07:34.000Z</time>
                <name>Trackpoint 3292</name>
            </trkpt>
            <trkpt lat="50.1316064" lon="8.8227328">
                <ele>97.0</ele>
                <time>2020-08-30T10:07:35.000Z</time>
                <name>Trackpoint 3293</name>
            </trkpt>
            <trkpt lat="50.1316288" lon="8.8226448">
                <ele>97.0</ele>
                <time>2020-08-30T10:07:36.000Z</time>
                <name>Trackpoint 3294</name>
            </trkpt>
            <trkpt lat="50.131648" lon="8.8225536">
                <ele>97.0</ele>
                <time>2020-08-30T10:07:37.000Z</time>
                <name>Trackpoint 3295</name>
            </trkpt>
            <trkpt lat="50.131664" lon="8.8224624">
                <ele>97.0</ele>
                <time>2020-08-30T10:07:38.000Z</time>
                <name>Trackpoint 3296</name>
            </trkpt>
            <trkpt lat="50.13168" lon="8.8223664">
                <ele>97.0</ele>
                <time>2020-08-30T10:07:39.000Z</time>
                <name>Trackpoint 3297</name>
            </trkpt>
            <trkpt lat="50.131696" lon="8.8222648">
                <ele>97.0</ele>
                <time>2020-08-30T10:07:40.000Z</time>
                <name>Trackpoint 3298</name>
            </trkpt>
            <trkpt lat="50.1317088" lon="8.8221632">
                <ele>97.0</ele>
                <time>2020-08-30T10:07:41.000Z</time>
                <name>Trackpoint 3299</name>
            </trkpt>
            <trkpt lat="50.1317248" lon="8.8220568">
                <ele>97.0</ele>
                <time>2020-08-30T10:07:42.000Z</time>
                <name>Trackpoint 3300</name>
            </trkpt>
            <trkpt lat="50.1317472" lon="8.821948">
                <ele>97.0</ele>
                <time>2020-08-30T10:07:43.000Z</time>
                <name>Trackpoint 3301</name>
            </trkpt>
            <trkpt lat="50.1317664" lon="8.8218416">
                <ele>96.0</ele>
                <time>2020-08-30T10:07:44.000Z</time>
                <name>Trackpoint 3302</name>
            </trkpt>
            <trkpt lat="50.1317824" lon="8.8217312">
                <ele>97.0</ele>
                <time>2020-08-30T10:07:45.000Z</time>
                <name>Trackpoint 3303</name>
            </trkpt>
            <trkpt lat="50.1318016" lon="8.82162">
                <ele>97.0</ele>
                <time>2020-08-30T10:07:46.000Z</time>
                <name>Trackpoint 3304</name>
            </trkpt>
            <trkpt lat="50.1318208" lon="8.8215128">
                <ele>97.0</ele>
                <time>2020-08-30T10:07:47.000Z</time>
                <name>Trackpoint 3305</name>
            </trkpt>
            <trkpt lat="50.1318432" lon="8.8214016">
                <ele>96.0</ele>
                <time>2020-08-30T10:07:48.000Z</time>
                <name>Trackpoint 3306</name>
            </trkpt>
            <trkpt lat="50.1318656" lon="8.8212864">
                <ele>96.0</ele>
                <time>2020-08-30T10:07:49.000Z</time>
                <name>Trackpoint 3307</name>
            </trkpt>
            <trkpt lat="50.131888" lon="8.821168">
                <ele>96.0</ele>
                <time>2020-08-30T10:07:50.000Z</time>
                <name>Trackpoint 3308</name>
            </trkpt>
            <trkpt lat="50.1319072" lon="8.8210472">
                <ele>95.0</ele>
                <time>2020-08-30T10:07:51.000Z</time>
                <name>Trackpoint 3309</name>
            </trkpt>
            <trkpt lat="50.1319328" lon="8.8209264">
                <ele>95.0</ele>
                <time>2020-08-30T10:07:52.000Z</time>
                <name>Trackpoint 3310</name>
            </trkpt>
            <trkpt lat="50.1319552" lon="8.8208104">
                <ele>95.0</ele>
                <time>2020-08-30T10:07:53.000Z</time>
                <name>Trackpoint 3311</name>
            </trkpt>
            <trkpt lat="50.1319808" lon="8.8206952">
                <ele>94.0</ele>
                <time>2020-08-30T10:07:54.000Z</time>
                <name>Trackpoint 3312</name>
            </trkpt>
            <trkpt lat="50.132" lon="8.8205736">
                <ele>94.0</ele>
                <time>2020-08-30T10:07:55.000Z</time>
                <name>Trackpoint 3313</name>
            </trkpt>
            <trkpt lat="50.132016" lon="8.8204432">
                <ele>95.0</ele>
                <time>2020-08-30T10:07:56.000Z</time>
                <name>Trackpoint 3314</name>
            </trkpt>
            <trkpt lat="50.132032" lon="8.8203224">
                <ele>95.0</ele>
                <time>2020-08-30T10:07:57.000Z</time>
                <name>Trackpoint 3315</name>
            </trkpt>
            <trkpt lat="50.132048" lon="8.8202048">
                <ele>95.0</ele>
                <time>2020-08-30T10:07:58.000Z</time>
                <name>Trackpoint 3316</name>
            </trkpt>
            <trkpt lat="50.1320672" lon="8.8200904">
                <ele>95.0</ele>
                <time>2020-08-30T10:07:59.000Z</time>
                <name>Trackpoint 3317</name>
            </trkpt>
            <trkpt lat="50.1320928" lon="8.81998">
                <ele>95.0</ele>
                <time>2020-08-30T10:08:00.000Z</time>
                <name>Trackpoint 3318</name>
            </trkpt>
            <trkpt lat="50.1321056" lon="8.819872">
                <ele>95.0</ele>
                <time>2020-08-30T10:08:01.000Z</time>
                <name>Trackpoint 3319</name>
            </trkpt>
            <trkpt lat="50.1321216" lon="8.81976">
                <ele>96.0</ele>
                <time>2020-08-30T10:08:02.000Z</time>
                <name>Trackpoint 3320</name>
            </trkpt>
            <trkpt lat="50.132144" lon="8.819656">
                <ele>96.0</ele>
                <time>2020-08-30T10:08:03.000Z</time>
                <name>Trackpoint 3321</name>
            </trkpt>
            <trkpt lat="50.1321664" lon="8.8195584">
                <ele>96.0</ele>
                <time>2020-08-30T10:08:04.000Z</time>
                <name>Trackpoint 3322</name>
            </trkpt>
            <trkpt lat="50.1321952" lon="8.8194536">
                <ele>97.0</ele>
                <time>2020-08-30T10:08:05.000Z</time>
                <name>Trackpoint 3323</name>
            </trkpt>
            <trkpt lat="50.1322304" lon="8.8193568">
                <ele>96.0</ele>
                <time>2020-08-30T10:08:06.000Z</time>
                <name>Trackpoint 3324</name>
            </trkpt>
            <trkpt lat="50.1322592" lon="8.8192528">
                <ele>96.0</ele>
                <time>2020-08-30T10:08:07.000Z</time>
                <name>Trackpoint 3325</name>
            </trkpt>
            <trkpt lat="50.1322816" lon="8.8191496">
                <ele>96.0</ele>
                <time>2020-08-30T10:08:08.000Z</time>
                <name>Trackpoint 3326</name>
            </trkpt>
            <trkpt lat="50.132304" lon="8.8190432">
                <ele>96.0</ele>
                <time>2020-08-30T10:08:09.000Z</time>
                <name>Trackpoint 3327</name>
            </trkpt>
            <trkpt lat="50.1323296" lon="8.81894">
                <ele>96.0</ele>
                <time>2020-08-30T10:08:10.000Z</time>
                <name>Trackpoint 3328</name>
            </trkpt>
            <trkpt lat="50.132352" lon="8.8188416">
                <ele>96.0</ele>
                <time>2020-08-30T10:08:11.000Z</time>
                <name>Trackpoint 3329</name>
            </trkpt>
            <trkpt lat="50.1323712" lon="8.8187376">
                <ele>96.0</ele>
                <time>2020-08-30T10:08:12.000Z</time>
                <name>Trackpoint 3330</name>
            </trkpt>
            <trkpt lat="50.1323904" lon="8.8186352">
                <ele>96.0</ele>
                <time>2020-08-30T10:08:13.000Z</time>
                <name>Trackpoint 3331</name>
            </trkpt>
            <trkpt lat="50.1324096" lon="8.8185384">
                <ele>97.0</ele>
                <time>2020-08-30T10:08:14.000Z</time>
                <name>Trackpoint 3332</name>
            </trkpt>
            <trkpt lat="50.1324288" lon="8.8184432">
                <ele>97.0</ele>
                <time>2020-08-30T10:08:15.000Z</time>
                <name>Trackpoint 3333</name>
            </trkpt>
            <trkpt lat="50.1324512" lon="8.818352">
                <ele>96.0</ele>
                <time>2020-08-30T10:08:16.000Z</time>
                <name>Trackpoint 3334</name>
            </trkpt>
            <trkpt lat="50.1324768" lon="8.8181784">
                <ele>96.0</ele>
                <time>2020-08-30T10:08:18.000Z</time>
                <name>Trackpoint 3335</name>
            </trkpt>
            <trkpt lat="50.1324544" lon="8.8180152">
                <ele>96.0</ele>
                <time>2020-08-30T10:08:20.000Z</time>
                <name>Trackpoint 3336</name>
            </trkpt>
            <trkpt lat="50.1324352" lon="8.8178664">
                <ele>96.0</ele>
                <time>2020-08-30T10:08:22.000Z</time>
                <name>Trackpoint 3337</name>
            </trkpt>
            <trkpt lat="50.1324448" lon="8.817728">
                <ele>96.0</ele>
                <time>2020-08-30T10:08:24.000Z</time>
                <name>Trackpoint 3338</name>
            </trkpt>
            <trkpt lat="50.1324576" lon="8.8175824">
                <ele>96.0</ele>
                <time>2020-08-30T10:08:26.000Z</time>
                <name>Trackpoint 3339</name>
            </trkpt>
            <trkpt lat="50.1324736" lon="8.8174448">
                <ele>96.0</ele>
                <time>2020-08-30T10:08:28.000Z</time>
                <name>Trackpoint 3340</name>
            </trkpt>
            <trkpt lat="50.1324928" lon="8.8172952">
                <ele>96.0</ele>
                <time>2020-08-30T10:08:30.000Z</time>
                <name>Trackpoint 3341</name>
            </trkpt>
            <trkpt lat="50.1325024" lon="8.8171328">
                <ele>95.0</ele>
                <time>2020-08-30T10:08:32.000Z</time>
                <name>Trackpoint 3342</name>
            </trkpt>
            <trkpt lat="50.1325312" lon="8.8169648">
                <ele>94.0</ele>
                <time>2020-08-30T10:08:34.000Z</time>
                <name>Trackpoint 3343</name>
            </trkpt>
            <trkpt lat="50.1325536" lon="8.8167912">
                <ele>94.0</ele>
                <time>2020-08-30T10:08:36.000Z</time>
                <name>Trackpoint 3344</name>
            </trkpt>
            <trkpt lat="50.1325696" lon="8.8166248">
                <ele>93.0</ele>
                <time>2020-08-30T10:08:38.000Z</time>
                <name>Trackpoint 3345</name>
            </trkpt>
            <trkpt lat="50.1325824" lon="8.8164504">
                <ele>94.0</ele>
                <time>2020-08-30T10:08:40.000Z</time>
                <name>Trackpoint 3346</name>
            </trkpt>
            <trkpt lat="50.1325824" lon="8.816268">
                <ele>95.0</ele>
                <time>2020-08-30T10:08:42.000Z</time>
                <name>Trackpoint 3347</name>
            </trkpt>
            <trkpt lat="50.132608" lon="8.8160936">
                <ele>94.0</ele>
                <time>2020-08-30T10:08:44.000Z</time>
                <name>Trackpoint 3348</name>
            </trkpt>
            <trkpt lat="50.1326144" lon="8.8159168">
                <ele>95.0</ele>
                <time>2020-08-30T10:08:46.000Z</time>
                <name>Trackpoint 3349</name>
            </trkpt>
            <trkpt lat="50.1326304" lon="8.8157464">
                <ele>95.0</ele>
                <time>2020-08-30T10:08:48.000Z</time>
                <name>Trackpoint 3350</name>
            </trkpt>
            <trkpt lat="50.1326336" lon="8.815572">
                <ele>96.0</ele>
                <time>2020-08-30T10:08:50.000Z</time>
                <name>Trackpoint 3351</name>
            </trkpt>
            <trkpt lat="50.1326368" lon="8.8154032">
                <ele>96.0</ele>
                <time>2020-08-30T10:08:52.000Z</time>
                <name>Trackpoint 3352</name>
            </trkpt>
            <trkpt lat="50.1326528" lon="8.8152264">
                <ele>96.0</ele>
                <time>2020-08-30T10:08:54.000Z</time>
                <name>Trackpoint 3353</name>
            </trkpt>
            <trkpt lat="50.1326592" lon="8.8150584">
                <ele>96.0</ele>
                <time>2020-08-30T10:08:56.000Z</time>
                <name>Trackpoint 3354</name>
            </trkpt>
            <trkpt lat="50.1326752" lon="8.8148944">
                <ele>97.0</ele>
                <time>2020-08-30T10:08:58.000Z</time>
                <name>Trackpoint 3355</name>
            </trkpt>
            <trkpt lat="50.1326816" lon="8.8147248">
                <ele>97.0</ele>
                <time>2020-08-30T10:09:00.000Z</time>
                <name>Trackpoint 3356</name>
            </trkpt>
            <trkpt lat="50.1326944" lon="8.8145504">
                <ele>97.0</ele>
                <time>2020-08-30T10:09:02.000Z</time>
                <name>Trackpoint 3357</name>
            </trkpt>
            <trkpt lat="50.1326944" lon="8.8143768">
                <ele>97.0</ele>
                <time>2020-08-30T10:09:04.000Z</time>
                <name>Trackpoint 3358</name>
            </trkpt>
            <trkpt lat="50.1327008" lon="8.8142048">
                <ele>97.0</ele>
                <time>2020-08-30T10:09:06.000Z</time>
                <name>Trackpoint 3359</name>
            </trkpt>
            <trkpt lat="50.1327136" lon="8.814036">
                <ele>97.0</ele>
                <time>2020-08-30T10:09:08.000Z</time>
                <name>Trackpoint 3360</name>
            </trkpt>
            <trkpt lat="50.13272" lon="8.8138736">
                <ele>97.0</ele>
                <time>2020-08-30T10:09:10.000Z</time>
                <name>Trackpoint 3361</name>
            </trkpt>
            <trkpt lat="50.132736" lon="8.8137152">
                <ele>97.0</ele>
                <time>2020-08-30T10:09:12.000Z</time>
                <name>Trackpoint 3362</name>
            </trkpt>
            <trkpt lat="50.1327488" lon="8.8135536">
                <ele>96.0</ele>
                <time>2020-08-30T10:09:14.000Z</time>
                <name>Trackpoint 3363</name>
            </trkpt>
            <trkpt lat="50.1327584" lon="8.8133896">
                <ele>96.0</ele>
                <time>2020-08-30T10:09:16.000Z</time>
                <name>Trackpoint 3364</name>
            </trkpt>
            <trkpt lat="50.1327776" lon="8.8132352">
                <ele>96.0</ele>
                <time>2020-08-30T10:09:18.000Z</time>
                <name>Trackpoint 3365</name>
            </trkpt>
            <trkpt lat="50.1327968" lon="8.8130928">
                <ele>96.0</ele>
                <time>2020-08-30T10:09:20.000Z</time>
                <name>Trackpoint 3366</name>
            </trkpt>
            <trkpt lat="50.132816" lon="8.8129456">
                <ele>96.0</ele>
                <time>2020-08-30T10:09:22.000Z</time>
                <name>Trackpoint 3367</name>
            </trkpt>
            <trkpt lat="50.1328416" lon="8.812788">
                <ele>96.0</ele>
                <time>2020-08-30T10:09:24.000Z</time>
                <name>Trackpoint 3368</name>
            </trkpt>
            <trkpt lat="50.1328416" lon="8.8126944">
                <ele>96.0</ele>
                <time>2020-08-30T10:09:25.000Z</time>
                <name>Trackpoint 3369</name>
            </trkpt>
            <trkpt lat="50.1328544" lon="8.8125312">
                <ele>96.0</ele>
                <time>2020-08-30T10:09:27.000Z</time>
                <name>Trackpoint 3370</name>
            </trkpt>
            <trkpt lat="50.1328672" lon="8.8123552">
                <ele>96.0</ele>
                <time>2020-08-30T10:09:29.000Z</time>
                <name>Trackpoint 3371</name>
            </trkpt>
            <trkpt lat="50.1328608" lon="8.8122632">
                <ele>96.0</ele>
                <time>2020-08-30T10:09:30.000Z</time>
                <name>Trackpoint 3372</name>
            </trkpt>
            <trkpt lat="50.1328544" lon="8.8121632">
                <ele>97.0</ele>
                <time>2020-08-30T10:09:31.000Z</time>
                <name>Trackpoint 3373</name>
            </trkpt>
            <trkpt lat="50.1328672" lon="8.812">
                <ele>97.0</ele>
                <time>2020-08-30T10:09:33.000Z</time>
                <name>Trackpoint 3374</name>
            </trkpt>
            <trkpt lat="50.1328736" lon="8.8118384">
                <ele>97.0</ele>
                <time>2020-08-30T10:09:35.000Z</time>
                <name>Trackpoint 3375</name>
            </trkpt>
            <trkpt lat="50.1328768" lon="8.811684">
                <ele>97.0</ele>
                <time>2020-08-30T10:09:37.000Z</time>
                <name>Trackpoint 3376</name>
            </trkpt>
            <trkpt lat="50.1328864" lon="8.811532">
                <ele>98.0</ele>
                <time>2020-08-30T10:09:39.000Z</time>
                <name>Trackpoint 3377</name>
            </trkpt>
            <trkpt lat="50.1328928" lon="8.8113784">
                <ele>98.0</ele>
                <time>2020-08-30T10:09:41.000Z</time>
                <name>Trackpoint 3378</name>
            </trkpt>
            <trkpt lat="50.1328992" lon="8.8112224">
                <ele>98.0</ele>
                <time>2020-08-30T10:09:43.000Z</time>
                <name>Trackpoint 3379</name>
            </trkpt>
            <trkpt lat="50.132912" lon="8.8110648">
                <ele>98.0</ele>
                <time>2020-08-30T10:09:45.000Z</time>
                <name>Trackpoint 3380</name>
            </trkpt>
            <trkpt lat="50.1329216" lon="8.8109056">
                <ele>98.0</ele>
                <time>2020-08-30T10:09:47.000Z</time>
                <name>Trackpoint 3381</name>
            </trkpt>
            <trkpt lat="50.1329312" lon="8.8107432">
                <ele>98.0</ele>
                <time>2020-08-30T10:09:49.000Z</time>
                <name>Trackpoint 3382</name>
            </trkpt>
            <trkpt lat="50.1329408" lon="8.8105832">
                <ele>98.0</ele>
                <time>2020-08-30T10:09:51.000Z</time>
                <name>Trackpoint 3383</name>
            </trkpt>
            <trkpt lat="50.1329408" lon="8.8104248">
                <ele>99.0</ele>
                <time>2020-08-30T10:09:53.000Z</time>
                <name>Trackpoint 3384</name>
            </trkpt>
            <trkpt lat="50.1329504" lon="8.8102688">
                <ele>99.0</ele>
                <time>2020-08-30T10:09:55.000Z</time>
                <name>Trackpoint 3385</name>
            </trkpt>
            <trkpt lat="50.13296" lon="8.810112">
                <ele>98.0</ele>
                <time>2020-08-30T10:09:57.000Z</time>
                <name>Trackpoint 3386</name>
            </trkpt>
            <trkpt lat="50.1329696" lon="8.809948">
                <ele>98.0</ele>
                <time>2020-08-30T10:09:59.000Z</time>
                <name>Trackpoint 3387</name>
            </trkpt>
            <trkpt lat="50.132976" lon="8.8097848">
                <ele>99.0</ele>
                <time>2020-08-30T10:10:01.000Z</time>
                <name>Trackpoint 3388</name>
            </trkpt>
            <trkpt lat="50.1329696" lon="8.8096248">
                <ele>99.0</ele>
                <time>2020-08-30T10:10:03.000Z</time>
                <name>Trackpoint 3389</name>
            </trkpt>
            <trkpt lat="50.1329504" lon="8.8094568">
                <ele>99.0</ele>
                <time>2020-08-30T10:10:05.000Z</time>
                <name>Trackpoint 3390</name>
            </trkpt>
            <trkpt lat="50.1329312" lon="8.8092968">
                <ele>99.0</ele>
                <time>2020-08-30T10:10:07.000Z</time>
                <name>Trackpoint 3391</name>
            </trkpt>
            <trkpt lat="50.1329088" lon="8.8091384">
                <ele>99.0</ele>
                <time>2020-08-30T10:10:09.000Z</time>
                <name>Trackpoint 3392</name>
            </trkpt>
            <trkpt lat="50.1328928" lon="8.808984">
                <ele>99.0</ele>
                <time>2020-08-30T10:10:11.000Z</time>
                <name>Trackpoint 3393</name>
            </trkpt>
            <trkpt lat="50.1328768" lon="8.8088264">
                <ele>99.0</ele>
                <time>2020-08-30T10:10:13.000Z</time>
                <name>Trackpoint 3394</name>
            </trkpt>
            <trkpt lat="50.1328608" lon="8.8086728">
                <ele>99.0</ele>
                <time>2020-08-30T10:10:15.000Z</time>
                <name>Trackpoint 3395</name>
            </trkpt>
            <trkpt lat="50.132848" lon="8.8085216">
                <ele>99.0</ele>
                <time>2020-08-30T10:10:17.000Z</time>
                <name>Trackpoint 3396</name>
            </trkpt>
            <trkpt lat="50.132832" lon="8.8083664">
                <ele>99.0</ele>
                <time>2020-08-30T10:10:19.000Z</time>
                <name>Trackpoint 3397</name>
            </trkpt>
            <trkpt lat="50.132816" lon="8.8082112">
                <ele>99.0</ele>
                <time>2020-08-30T10:10:21.000Z</time>
                <name>Trackpoint 3398</name>
            </trkpt>
            <trkpt lat="50.1327936" lon="8.8080528">
                <ele>98.0</ele>
                <time>2020-08-30T10:10:23.000Z</time>
                <name>Trackpoint 3399</name>
            </trkpt>
            <trkpt lat="50.1327776" lon="8.8078944">
                <ele>98.0</ele>
                <time>2020-08-30T10:10:25.000Z</time>
                <name>Trackpoint 3400</name>
            </trkpt>
            <trkpt lat="50.1327584" lon="8.8077384">
                <ele>98.0</ele>
                <time>2020-08-30T10:10:27.000Z</time>
                <name>Trackpoint 3401</name>
            </trkpt>
            <trkpt lat="50.1327424" lon="8.80758">
                <ele>98.0</ele>
                <time>2020-08-30T10:10:29.000Z</time>
                <name>Trackpoint 3402</name>
            </trkpt>
            <trkpt lat="50.1327232" lon="8.8074264">
                <ele>98.0</ele>
                <time>2020-08-30T10:10:31.000Z</time>
                <name>Trackpoint 3403</name>
            </trkpt>
            <trkpt lat="50.1327104" lon="8.8072728">
                <ele>98.0</ele>
                <time>2020-08-30T10:10:33.000Z</time>
                <name>Trackpoint 3404</name>
            </trkpt>
            <trkpt lat="50.1326976" lon="8.80714">
                <ele>99.0</ele>
                <time>2020-08-30T10:10:35.000Z</time>
                <name>Trackpoint 3405</name>
            </trkpt>
            <trkpt lat="50.1326816" lon="8.8070032">
                <ele>98.0</ele>
                <time>2020-08-30T10:10:37.000Z</time>
                <name>Trackpoint 3406</name>
            </trkpt>
            <trkpt lat="50.132656" lon="8.8068568">
                <ele>98.0</ele>
                <time>2020-08-30T10:10:39.000Z</time>
                <name>Trackpoint 3407</name>
            </trkpt>
            <trkpt lat="50.1326368" lon="8.8066968">
                <ele>98.0</ele>
                <time>2020-08-30T10:10:41.000Z</time>
                <name>Trackpoint 3408</name>
            </trkpt>
            <trkpt lat="50.1326112" lon="8.8065368">
                <ele>98.0</ele>
                <time>2020-08-30T10:10:43.000Z</time>
                <name>Trackpoint 3409</name>
            </trkpt>
            <trkpt lat="50.132592" lon="8.8063984">
                <ele>99.0</ele>
                <time>2020-08-30T10:10:45.000Z</time>
                <name>Trackpoint 3410</name>
            </trkpt>
            <trkpt lat="50.132592" lon="8.8062688">
                <ele>98.0</ele>
                <time>2020-08-30T10:10:47.000Z</time>
                <name>Trackpoint 3411</name>
            </trkpt>
            <trkpt lat="50.132608" lon="8.8061464">
                <ele>99.0</ele>
                <time>2020-08-30T10:10:49.000Z</time>
                <name>Trackpoint 3412</name>
            </trkpt>
            <trkpt lat="50.1326208" lon="8.8060376">
                <ele>99.0</ele>
                <time>2020-08-30T10:10:51.000Z</time>
                <name>Trackpoint 3413</name>
            </trkpt>
            <trkpt lat="50.1326432" lon="8.8059168">
                <ele>99.0</ele>
                <time>2020-08-30T10:10:54.000Z</time>
                <name>Trackpoint 3414</name>
            </trkpt>
            <trkpt lat="50.1326496" lon="8.8058056">
                <ele>99.0</ele>
                <time>2020-08-30T10:10:57.000Z</time>
                <name>Trackpoint 3415</name>
            </trkpt>
            <trkpt lat="50.1326496" lon="8.8056984">
                <ele>100.0</ele>
                <time>2020-08-30T10:10:59.000Z</time>
                <name>Trackpoint 3416</name>
            </trkpt>
            <trkpt lat="50.1326592" lon="8.8055832">
                <ele>100.0</ele>
                <time>2020-08-30T10:11:01.000Z</time>
                <name>Trackpoint 3417</name>
            </trkpt>
            <trkpt lat="50.1326784" lon="8.8054784">
                <ele>101.0</ele>
                <time>2020-08-30T10:11:03.000Z</time>
                <name>Trackpoint 3418</name>
            </trkpt>
            <trkpt lat="50.1326976" lon="8.8053688">
                <ele>101.0</ele>
                <time>2020-08-30T10:11:05.000Z</time>
                <name>Trackpoint 3419</name>
            </trkpt>
            <trkpt lat="50.1327104" lon="8.8052584">
                <ele>101.0</ele>
                <time>2020-08-30T10:11:07.000Z</time>
                <name>Trackpoint 3420</name>
            </trkpt>
            <trkpt lat="50.1327296" lon="8.8051368">
                <ele>101.0</ele>
                <time>2020-08-30T10:11:09.000Z</time>
                <name>Trackpoint 3421</name>
            </trkpt>
            <trkpt lat="50.1327488" lon="8.8050048">
                <ele>101.0</ele>
                <time>2020-08-30T10:11:11.000Z</time>
                <name>Trackpoint 3422</name>
            </trkpt>
            <trkpt lat="50.132768" lon="8.8048736">
                <ele>101.0</ele>
                <time>2020-08-30T10:11:13.000Z</time>
                <name>Trackpoint 3423</name>
            </trkpt>
            <trkpt lat="50.1327808" lon="8.8047488">
                <ele>101.0</ele>
                <time>2020-08-30T10:11:15.000Z</time>
                <name>Trackpoint 3424</name>
            </trkpt>
            <trkpt lat="50.1328192" lon="8.8046128">
                <ele>101.0</ele>
                <time>2020-08-30T10:11:17.000Z</time>
                <name>Trackpoint 3425</name>
            </trkpt>
            <trkpt lat="50.1328576" lon="8.8044784">
                <ele>101.0</ele>
                <time>2020-08-30T10:11:19.000Z</time>
                <name>Trackpoint 3426</name>
            </trkpt>
            <trkpt lat="50.1329344" lon="8.8043736">
                <ele>100.0</ele>
                <time>2020-08-30T10:11:21.000Z</time>
                <name>Trackpoint 3427</name>
            </trkpt>
            <trkpt lat="50.1330144" lon="8.8042648">
                <ele>100.0</ele>
                <time>2020-08-30T10:11:23.000Z</time>
                <name>Trackpoint 3428</name>
            </trkpt>
            <trkpt lat="50.133056" lon="8.8041184">
                <ele>100.0</ele>
                <time>2020-08-30T10:11:25.000Z</time>
                <name>Trackpoint 3429</name>
            </trkpt>
            <trkpt lat="50.1330848" lon="8.8039752">
                <ele>100.0</ele>
                <time>2020-08-30T10:11:27.000Z</time>
                <name>Trackpoint 3430</name>
            </trkpt>
            <trkpt lat="50.1331072" lon="8.80382">
                <ele>100.0</ele>
                <time>2020-08-30T10:11:29.000Z</time>
                <name>Trackpoint 3431</name>
            </trkpt>
            <trkpt lat="50.1331296" lon="8.80366">
                <ele>100.0</ele>
                <time>2020-08-30T10:11:31.000Z</time>
                <name>Trackpoint 3432</name>
            </trkpt>
            <trkpt lat="50.1331488" lon="8.8035032">
                <ele>100.0</ele>
                <time>2020-08-30T10:11:33.000Z</time>
                <name>Trackpoint 3433</name>
            </trkpt>
            <trkpt lat="50.1331552" lon="8.8033448">
                <ele>100.0</ele>
                <time>2020-08-30T10:11:35.000Z</time>
                <name>Trackpoint 3434</name>
            </trkpt>
            <trkpt lat="50.133168" lon="8.8032168">
                <ele>100.0</ele>
                <time>2020-08-30T10:11:37.000Z</time>
                <name>Trackpoint 3435</name>
            </trkpt>
            <trkpt lat="50.1331872" lon="8.8030928">
                <ele>100.0</ele>
                <time>2020-08-30T10:11:39.000Z</time>
                <name>Trackpoint 3436</name>
            </trkpt>
            <trkpt lat="50.133232" lon="8.8029784">
                <ele>100.0</ele>
                <time>2020-08-30T10:11:41.000Z</time>
                <name>Trackpoint 3437</name>
            </trkpt>
            <trkpt lat="50.1332736" lon="8.8028568">
                <ele>100.0</ele>
                <time>2020-08-30T10:11:43.000Z</time>
                <name>Trackpoint 3438</name>
            </trkpt>
            <trkpt lat="50.1332992" lon="8.8027336">
                <ele>100.0</ele>
                <time>2020-08-30T10:11:45.000Z</time>
                <name>Trackpoint 3439</name>
            </trkpt>
            <trkpt lat="50.1333568" lon="8.80262">
                <ele>100.0</ele>
                <time>2020-08-30T10:11:47.000Z</time>
                <name>Trackpoint 3440</name>
            </trkpt>
            <trkpt lat="50.1334048" lon="8.802508">
                <ele>100.0</ele>
                <time>2020-08-30T10:11:49.000Z</time>
                <name>Trackpoint 3441</name>
            </trkpt>
            <trkpt lat="50.1334112" lon="8.8023728">
                <ele>100.0</ele>
                <time>2020-08-30T10:11:51.000Z</time>
                <name>Trackpoint 3442</name>
            </trkpt>
            <trkpt lat="50.1334112" lon="8.8022168">
                <ele>99.0</ele>
                <time>2020-08-30T10:11:53.000Z</time>
                <name>Trackpoint 3443</name>
            </trkpt>
            <trkpt lat="50.1333952" lon="8.80208">
                <ele>100.0</ele>
                <time>2020-08-30T10:11:55.000Z</time>
                <name>Trackpoint 3444</name>
            </trkpt>
            <trkpt lat="50.133408" lon="8.8019736">
                <ele>100.0</ele>
                <time>2020-08-30T10:11:57.000Z</time>
                <name>Trackpoint 3445</name>
            </trkpt>
            <trkpt lat="50.1334336" lon="8.8018616">
                <ele>99.0</ele>
                <time>2020-08-30T10:11:59.000Z</time>
                <name>Trackpoint 3446</name>
            </trkpt>
            <trkpt lat="50.1334336" lon="8.80176">
                <ele>99.0</ele>
                <time>2020-08-30T10:12:01.000Z</time>
                <name>Trackpoint 3447</name>
            </trkpt>
            <trkpt lat="50.1334464" lon="8.801668">
                <ele>99.0</ele>
                <time>2020-08-30T10:12:03.000Z</time>
                <name>Trackpoint 3448</name>
            </trkpt>
            <trkpt lat="50.1334656" lon="8.8015448">
                <ele>99.0</ele>
                <time>2020-08-30T10:12:06.000Z</time>
                <name>Trackpoint 3449</name>
            </trkpt>
            <trkpt lat="50.1335488" lon="8.8012896">
                <ele>99.0</ele>
                <time>2020-08-30T10:32:27.000Z</time>
                <name>Trackpoint 3631</name>
            </trkpt>
            <trkpt lat="50.1335488" lon="8.8011984">
                <ele>99.0</ele>
                <time>2020-08-30T10:32:32.000Z</time>
                <name>Trackpoint 3632</name>
            </trkpt>
            <trkpt lat="50.1335648" lon="8.8011">
                <ele>99.0</ele>
                <time>2020-08-30T10:32:35.000Z</time>
                <name>Trackpoint 3633</name>
            </trkpt>
            <trkpt lat="50.1335552" lon="8.8010032">
                <ele>99.0</ele>
                <time>2020-08-30T10:32:38.000Z</time>
                <name>Trackpoint 3634</name>
            </trkpt>
            <trkpt lat="50.1335552" lon="8.8009016">
                <ele>99.0</ele>
                <time>2020-08-30T10:32:41.000Z</time>
                <name>Trackpoint 3635</name>
            </trkpt>
            <trkpt lat="50.133568" lon="8.8007696">
                <ele>99.0</ele>
                <time>2020-08-30T10:32:44.000Z</time>
                <name>Trackpoint 3636</name>
            </trkpt>
            <trkpt lat="50.133584" lon="8.8006584">
                <ele>99.0</ele>
                <time>2020-08-30T10:32:46.000Z</time>
                <name>Trackpoint 3637</name>
            </trkpt>
            <trkpt lat="50.1336032" lon="8.8005384">
                <ele>99.0</ele>
                <time>2020-08-30T10:32:48.000Z</time>
                <name>Trackpoint 3638</name>
            </trkpt>
            <trkpt lat="50.1336096" lon="8.8004048">
                <ele>99.0</ele>
                <time>2020-08-30T10:32:50.000Z</time>
                <name>Trackpoint 3639</name>
            </trkpt>
            <trkpt lat="50.1336352" lon="8.8002664">
                <ele>99.0</ele>
                <time>2020-08-30T10:32:52.000Z</time>
                <name>Trackpoint 3640</name>
            </trkpt>
            <trkpt lat="50.133664" lon="8.8001232">
                <ele>100.0</ele>
                <time>2020-08-30T10:32:54.000Z</time>
                <name>Trackpoint 3641</name>
            </trkpt>
            <trkpt lat="50.1336864" lon="8.7999832">
                <ele>100.0</ele>
                <time>2020-08-30T10:32:56.000Z</time>
                <name>Trackpoint 3642</name>
            </trkpt>
            <trkpt lat="50.133712" lon="8.7998416">
                <ele>100.0</ele>
                <time>2020-08-30T10:32:58.000Z</time>
                <name>Trackpoint 3643</name>
            </trkpt>
            <trkpt lat="50.1337472" lon="8.7997104">
                <ele>100.0</ele>
                <time>2020-08-30T10:33:00.000Z</time>
                <name>Trackpoint 3644</name>
            </trkpt>
            <trkpt lat="50.1337504" lon="8.7996">
                <ele>100.0</ele>
                <time>2020-08-30T10:33:02.000Z</time>
                <name>Trackpoint 3645</name>
            </trkpt>
            <trkpt lat="50.1337824" lon="8.7995032">
                <ele>100.0</ele>
                <time>2020-08-30T10:33:05.000Z</time>
                <name>Trackpoint 3646</name>
            </trkpt>
            <trkpt lat="50.133808" lon="8.7994072">
                <ele>100.0</ele>
                <time>2020-08-30T10:33:08.000Z</time>
                <name>Trackpoint 3647</name>
            </trkpt>
            <trkpt lat="50.1338144" lon="8.7993096">
                <ele>100.0</ele>
                <time>2020-08-30T10:33:10.000Z</time>
                <name>Trackpoint 3648</name>
            </trkpt>
            <trkpt lat="50.1338464" lon="8.7991816">
                <ele>100.0</ele>
                <time>2020-08-30T10:33:12.000Z</time>
                <name>Trackpoint 3649</name>
            </trkpt>
            <trkpt lat="50.1338656" lon="8.799064">
                <ele>100.0</ele>
                <time>2020-08-30T10:33:14.000Z</time>
                <name>Trackpoint 3650</name>
            </trkpt>
            <trkpt lat="50.1338912" lon="8.7989264">
                <ele>100.0</ele>
                <time>2020-08-30T10:33:16.000Z</time>
                <name>Trackpoint 3651</name>
            </trkpt>
            <trkpt lat="50.1339008" lon="8.798832">
                <ele>100.0</ele>
                <time>2020-08-30T10:33:17.000Z</time>
                <name>Trackpoint 3652</name>
            </trkpt>
            <trkpt lat="50.1339424" lon="8.798688">
                <ele>100.0</ele>
                <time>2020-08-30T10:33:19.000Z</time>
                <name>Trackpoint 3653</name>
            </trkpt>
            <trkpt lat="50.1339616" lon="8.7985352">
                <ele>100.0</ele>
                <time>2020-08-30T10:33:21.000Z</time>
                <name>Trackpoint 3654</name>
            </trkpt>
            <trkpt lat="50.1339936" lon="8.7983848">
                <ele>100.0</ele>
                <time>2020-08-30T10:33:23.000Z</time>
                <name>Trackpoint 3655</name>
            </trkpt>
            <trkpt lat="50.1340224" lon="8.7982368">
                <ele>100.0</ele>
                <time>2020-08-30T10:33:25.000Z</time>
                <name>Trackpoint 3656</name>
            </trkpt>
            <trkpt lat="50.134048" lon="8.7981368">
                <ele>100.0</ele>
                <time>2020-08-30T10:33:26.000Z</time>
                <name>Trackpoint 3657</name>
            </trkpt>
            <trkpt lat="50.1340832" lon="8.7979784">
                <ele>100.0</ele>
                <time>2020-08-30T10:33:28.000Z</time>
                <name>Trackpoint 3658</name>
            </trkpt>
            <trkpt lat="50.1341312" lon="8.7978264">
                <ele>100.0</ele>
                <time>2020-08-30T10:33:30.000Z</time>
                <name>Trackpoint 3659</name>
            </trkpt>
            <trkpt lat="50.1341664" lon="8.7976848">
                <ele>100.0</ele>
                <time>2020-08-30T10:33:32.000Z</time>
                <name>Trackpoint 3660</name>
            </trkpt>
            <trkpt lat="50.1341984" lon="8.797548">
                <ele>100.0</ele>
                <time>2020-08-30T10:33:34.000Z</time>
                <name>Trackpoint 3661</name>
            </trkpt>
            <trkpt lat="50.1342304" lon="8.797392">
                <ele>100.0</ele>
                <time>2020-08-30T10:33:36.000Z</time>
                <name>Trackpoint 3662</name>
            </trkpt>
            <trkpt lat="50.1342592" lon="8.7973016">
                <ele>100.0</ele>
                <time>2020-08-30T10:33:37.000Z</time>
                <name>Trackpoint 3663</name>
            </trkpt>
            <trkpt lat="50.1342816" lon="8.7972088">
                <ele>100.0</ele>
                <time>2020-08-30T10:33:38.000Z</time>
                <name>Trackpoint 3664</name>
            </trkpt>
            <trkpt lat="50.1343232" lon="8.7970304">
                <ele>100.0</ele>
                <time>2020-08-30T10:33:40.000Z</time>
                <name>Trackpoint 3665</name>
            </trkpt>
            <trkpt lat="50.1343616" lon="8.79686">
                <ele>100.0</ele>
                <time>2020-08-30T10:33:42.000Z</time>
                <name>Trackpoint 3666</name>
            </trkpt>
            <trkpt lat="50.134384" lon="8.7967616">
                <ele>100.0</ele>
                <time>2020-08-30T10:33:43.000Z</time>
                <name>Trackpoint 3667</name>
            </trkpt>
            <trkpt lat="50.1344192" lon="8.7965872">
                <ele>100.0</ele>
                <time>2020-08-30T10:33:45.000Z</time>
                <name>Trackpoint 3668</name>
            </trkpt>
            <trkpt lat="50.1344544" lon="8.7964112">
                <ele>100.0</ele>
                <time>2020-08-30T10:33:47.000Z</time>
                <name>Trackpoint 3669</name>
            </trkpt>
            <trkpt lat="50.134464" lon="8.7963216">
                <ele>100.0</ele>
                <time>2020-08-30T10:33:48.000Z</time>
                <name>Trackpoint 3670</name>
            </trkpt>
            <trkpt lat="50.1344832" lon="8.7962304">
                <ele>100.0</ele>
                <time>2020-08-30T10:33:49.000Z</time>
                <name>Trackpoint 3671</name>
            </trkpt>
            <trkpt lat="50.1345248" lon="8.7960664">
                <ele>100.0</ele>
                <time>2020-08-30T10:33:51.000Z</time>
                <name>Trackpoint 3672</name>
            </trkpt>
            <trkpt lat="50.1345472" lon="8.7959784">
                <ele>100.0</ele>
                <time>2020-08-30T10:33:52.000Z</time>
                <name>Trackpoint 3673</name>
            </trkpt>
            <trkpt lat="50.1345664" lon="8.7958896">
                <ele>100.0</ele>
                <time>2020-08-30T10:33:53.000Z</time>
                <name>Trackpoint 3674</name>
            </trkpt>
            <trkpt lat="50.1346048" lon="8.795716">
                <ele>100.0</ele>
                <time>2020-08-30T10:33:55.000Z</time>
                <name>Trackpoint 3675</name>
            </trkpt>
            <trkpt lat="50.1346176" lon="8.7956264">
                <ele>100.0</ele>
                <time>2020-08-30T10:33:56.000Z</time>
                <name>Trackpoint 3676</name>
            </trkpt>
            <trkpt lat="50.134656" lon="8.7954632">
                <ele>100.0</ele>
                <time>2020-08-30T10:33:58.000Z</time>
                <name>Trackpoint 3677</name>
            </trkpt>
            <trkpt lat="50.134656" lon="8.7953192">
                <ele>100.0</ele>
                <time>2020-08-30T10:34:00.000Z</time>
                <name>Trackpoint 3678</name>
            </trkpt>
            <trkpt lat="50.1345984" lon="8.7952472">
                <ele>100.0</ele>
                <time>2020-08-30T10:34:02.000Z</time>
                <name>Trackpoint 3679</name>
            </trkpt>
            <trkpt lat="50.1344992" lon="8.7951848">
                <ele>100.0</ele>
                <time>2020-08-30T10:34:05.000Z</time>
                <name>Trackpoint 3680</name>
            </trkpt>
            <trkpt lat="50.1343872" lon="8.7951416">
                <ele>100.0</ele>
                <time>2020-08-30T10:34:08.000Z</time>
                <name>Trackpoint 3681</name>
            </trkpt>
            <trkpt lat="50.1343168" lon="8.7950784">
                <ele>100.0</ele>
                <time>2020-08-30T10:34:11.000Z</time>
                <name>Trackpoint 3682</name>
            </trkpt>
            <trkpt lat="50.134336" lon="8.794976">
                <ele>100.0</ele>
                <time>2020-08-30T10:34:13.000Z</time>
                <name>Trackpoint 3683</name>
            </trkpt>
            <trkpt lat="50.1343584" lon="8.794864">
                <ele>100.0</ele>
                <time>2020-08-30T10:34:15.000Z</time>
                <name>Trackpoint 3684</name>
            </trkpt>
            <trkpt lat="50.1343776" lon="8.7947328">
                <ele>100.0</ele>
                <time>2020-08-30T10:34:17.000Z</time>
                <name>Trackpoint 3685</name>
            </trkpt>
            <trkpt lat="50.1344032" lon="8.7946064">
                <ele>100.0</ele>
                <time>2020-08-30T10:34:19.000Z</time>
                <name>Trackpoint 3686</name>
            </trkpt>
            <trkpt lat="50.1344352" lon="8.7944832">
                <ele>100.0</ele>
                <time>2020-08-30T10:34:21.000Z</time>
                <name>Trackpoint 3687</name>
            </trkpt>
            <trkpt lat="50.1344608" lon="8.7943624">
                <ele>100.0</ele>
                <time>2020-08-30T10:34:23.000Z</time>
                <name>Trackpoint 3688</name>
            </trkpt>
            <trkpt lat="50.134496" lon="8.7942336">
                <ele>100.0</ele>
                <time>2020-08-30T10:34:25.000Z</time>
                <name>Trackpoint 3689</name>
            </trkpt>
            <trkpt lat="50.1345216" lon="8.7940952">
                <ele>100.0</ele>
                <time>2020-08-30T10:34:27.000Z</time>
                <name>Trackpoint 3690</name>
            </trkpt>
            <trkpt lat="50.13456" lon="8.7939632">
                <ele>101.0</ele>
                <time>2020-08-30T10:34:29.000Z</time>
                <name>Trackpoint 3691</name>
            </trkpt>
            <trkpt lat="50.1346016" lon="8.7938096">
                <ele>101.0</ele>
                <time>2020-08-30T10:34:31.000Z</time>
                <name>Trackpoint 3692</name>
            </trkpt>
            <trkpt lat="50.1346464" lon="8.7936632">
                <ele>101.0</ele>
                <time>2020-08-30T10:34:33.000Z</time>
                <name>Trackpoint 3693</name>
            </trkpt>
            <trkpt lat="50.134688" lon="8.7935136">
                <ele>101.0</ele>
                <time>2020-08-30T10:34:35.000Z</time>
                <name>Trackpoint 3694</name>
            </trkpt>
            <trkpt lat="50.1347584" lon="8.7933504">
                <ele>101.0</ele>
                <time>2020-08-30T10:34:37.000Z</time>
                <name>Trackpoint 3695</name>
            </trkpt>
            <trkpt lat="50.1347744" lon="8.7932568">
                <ele>101.0</ele>
                <time>2020-08-30T10:34:38.000Z</time>
                <name>Trackpoint 3696</name>
            </trkpt>
            <trkpt lat="50.1348032" lon="8.793168">
                <ele>100.0</ele>
                <time>2020-08-30T10:34:39.000Z</time>
                <name>Trackpoint 3697</name>
            </trkpt>
            <trkpt lat="50.1348576" lon="8.7930088">
                <ele>100.0</ele>
                <time>2020-08-30T10:34:41.000Z</time>
                <name>Trackpoint 3698</name>
            </trkpt>
            <trkpt lat="50.1348992" lon="8.7928584">
                <ele>101.0</ele>
                <time>2020-08-30T10:34:43.000Z</time>
                <name>Trackpoint 3699</name>
            </trkpt>
            <trkpt lat="50.134944" lon="8.7927152">
                <ele>101.0</ele>
                <time>2020-08-30T10:34:45.000Z</time>
                <name>Trackpoint 3700</name>
            </trkpt>
            <trkpt lat="50.134976" lon="8.7925856">
                <ele>100.0</ele>
                <time>2020-08-30T10:34:47.000Z</time>
                <name>Trackpoint 3701</name>
            </trkpt>
            <trkpt lat="50.1350144" lon="8.7924496">
                <ele>100.0</ele>
                <time>2020-08-30T10:34:49.000Z</time>
                <name>Trackpoint 3702</name>
            </trkpt>
            <trkpt lat="50.135056" lon="8.7923072">
                <ele>100.0</ele>
                <time>2020-08-30T10:34:51.000Z</time>
                <name>Trackpoint 3703</name>
            </trkpt>
            <trkpt lat="50.1350944" lon="8.7921552">
                <ele>100.0</ele>
                <time>2020-08-30T10:34:53.000Z</time>
                <name>Trackpoint 3704</name>
            </trkpt>
            <trkpt lat="50.135136" lon="8.7919952">
                <ele>99.0</ele>
                <time>2020-08-30T10:34:55.000Z</time>
                <name>Trackpoint 3705</name>
            </trkpt>
            <trkpt lat="50.1351744" lon="8.7918368">
                <ele>99.0</ele>
                <time>2020-08-30T10:34:57.000Z</time>
                <name>Trackpoint 3706</name>
            </trkpt>
            <trkpt lat="50.1352128" lon="8.7916784">
                <ele>99.0</ele>
                <time>2020-08-30T10:34:59.000Z</time>
                <name>Trackpoint 3707</name>
            </trkpt>
            <trkpt lat="50.1352448" lon="8.7915152">
                <ele>99.0</ele>
                <time>2020-08-30T10:35:01.000Z</time>
                <name>Trackpoint 3708</name>
            </trkpt>
            <trkpt lat="50.1352832" lon="8.7913552">
                <ele>99.0</ele>
                <time>2020-08-30T10:35:03.000Z</time>
                <name>Trackpoint 3709</name>
            </trkpt>
            <trkpt lat="50.1353152" lon="8.7911904">
                <ele>100.0</ele>
                <time>2020-08-30T10:35:05.000Z</time>
                <name>Trackpoint 3710</name>
            </trkpt>
            <trkpt lat="50.135344" lon="8.7910272">
                <ele>100.0</ele>
                <time>2020-08-30T10:35:07.000Z</time>
                <name>Trackpoint 3711</name>
            </trkpt>
            <trkpt lat="50.135376" lon="8.7908672">
                <ele>100.0</ele>
                <time>2020-08-30T10:35:09.000Z</time>
                <name>Trackpoint 3712</name>
            </trkpt>
            <trkpt lat="50.1354016" lon="8.7907016">
                <ele>99.0</ele>
                <time>2020-08-30T10:35:11.000Z</time>
                <name>Trackpoint 3713</name>
            </trkpt>
            <trkpt lat="50.1354336" lon="8.7905328">
                <ele>100.0</ele>
                <time>2020-08-30T10:35:13.000Z</time>
                <name>Trackpoint 3714</name>
            </trkpt>
            <trkpt lat="50.135472" lon="8.7903616">
                <ele>100.0</ele>
                <time>2020-08-30T10:35:15.000Z</time>
                <name>Trackpoint 3715</name>
            </trkpt>
            <trkpt lat="50.135488" lon="8.790272">
                <ele>100.0</ele>
                <time>2020-08-30T10:35:16.000Z</time>
                <name>Trackpoint 3716</name>
            </trkpt>
            <trkpt lat="50.1355008" lon="8.7901784">
                <ele>100.0</ele>
                <time>2020-08-30T10:35:17.000Z</time>
                <name>Trackpoint 3717</name>
            </trkpt>
            <trkpt lat="50.1355136" lon="8.7900888">
                <ele>100.0</ele>
                <time>2020-08-30T10:35:18.000Z</time>
                <name>Trackpoint 3718</name>
            </trkpt>
            <trkpt lat="50.1355296" lon="8.79">
                <ele>100.0</ele>
                <time>2020-08-30T10:35:19.000Z</time>
                <name>Trackpoint 3719</name>
            </trkpt>
            <trkpt lat="50.1355424" lon="8.7899104">
                <ele>100.0</ele>
                <time>2020-08-30T10:35:20.000Z</time>
                <name>Trackpoint 3720</name>
            </trkpt>
            <trkpt lat="50.135568" lon="8.7897352">
                <ele>100.0</ele>
                <time>2020-08-30T10:35:22.000Z</time>
                <name>Trackpoint 3721</name>
            </trkpt>
            <trkpt lat="50.1355968" lon="8.7895632">
                <ele>100.0</ele>
                <time>2020-08-30T10:35:24.000Z</time>
                <name>Trackpoint 3722</name>
            </trkpt>
            <trkpt lat="50.1356224" lon="8.7893952">
                <ele>99.0</ele>
                <time>2020-08-30T10:35:26.000Z</time>
                <name>Trackpoint 3723</name>
            </trkpt>
            <trkpt lat="50.1356512" lon="8.7892352">
                <ele>99.0</ele>
                <time>2020-08-30T10:35:28.000Z</time>
                <name>Trackpoint 3724</name>
            </trkpt>
            <trkpt lat="50.13568" lon="8.7890784">
                <ele>99.0</ele>
                <time>2020-08-30T10:35:30.000Z</time>
                <name>Trackpoint 3725</name>
            </trkpt>
            <trkpt lat="50.1357152" lon="8.7889296">
                <ele>98.0</ele>
                <time>2020-08-30T10:35:32.000Z</time>
                <name>Trackpoint 3726</name>
            </trkpt>
            <trkpt lat="50.1357536" lon="8.7887888">
                <ele>98.0</ele>
                <time>2020-08-30T10:35:34.000Z</time>
                <name>Trackpoint 3727</name>
            </trkpt>
            <trkpt lat="50.135776" lon="8.7886416">
                <ele>99.0</ele>
                <time>2020-08-30T10:35:36.000Z</time>
                <name>Trackpoint 3728</name>
            </trkpt>
            <trkpt lat="50.1358176" lon="8.7885288">
                <ele>99.0</ele>
                <time>2020-08-30T10:35:38.000Z</time>
                <name>Trackpoint 3729</name>
            </trkpt>
            <trkpt lat="50.1359072" lon="8.7885016">
                <ele>98.0</ele>
                <time>2020-08-30T10:35:40.000Z</time>
                <name>Trackpoint 3730</name>
            </trkpt>
            <trkpt lat="50.1360064" lon="8.7884776">
                <ele>97.0</ele>
                <time>2020-08-30T10:35:42.000Z</time>
                <name>Trackpoint 3731</name>
            </trkpt>
            <trkpt lat="50.1360672" lon="8.7883664">
                <ele>97.0</ele>
                <time>2020-08-30T10:35:44.000Z</time>
                <name>Trackpoint 3732</name>
            </trkpt>
            <trkpt lat="50.1360928" lon="8.7882208">
                <ele>97.0</ele>
                <time>2020-08-30T10:35:46.000Z</time>
                <name>Trackpoint 3733</name>
            </trkpt>
            <trkpt lat="50.1361184" lon="8.7880688">
                <ele>97.0</ele>
                <time>2020-08-30T10:35:48.000Z</time>
                <name>Trackpoint 3734</name>
            </trkpt>
            <trkpt lat="50.1361472" lon="8.7879104">
                <ele>97.0</ele>
                <time>2020-08-30T10:35:50.000Z</time>
                <name>Trackpoint 3735</name>
            </trkpt>
            <trkpt lat="50.136176" lon="8.7877512">
                <ele>98.0</ele>
                <time>2020-08-30T10:35:52.000Z</time>
                <name>Trackpoint 3736</name>
            </trkpt>
            <trkpt lat="50.1362048" lon="8.7875928">
                <ele>98.0</ele>
                <time>2020-08-30T10:35:54.000Z</time>
                <name>Trackpoint 3737</name>
            </trkpt>
            <trkpt lat="50.1362304" lon="8.787432">
                <ele>98.0</ele>
                <time>2020-08-30T10:35:56.000Z</time>
                <name>Trackpoint 3738</name>
            </trkpt>
            <trkpt lat="50.1362656" lon="8.7872736">
                <ele>98.0</ele>
                <time>2020-08-30T10:35:58.000Z</time>
                <name>Trackpoint 3739</name>
            </trkpt>
            <trkpt lat="50.1362912" lon="8.7871168">
                <ele>98.0</ele>
                <time>2020-08-30T10:36:00.000Z</time>
                <name>Trackpoint 3740</name>
            </trkpt>
            <trkpt lat="50.1363232" lon="8.78696">
                <ele>98.0</ele>
                <time>2020-08-30T10:36:02.000Z</time>
                <name>Trackpoint 3741</name>
            </trkpt>
            <trkpt lat="50.136336" lon="8.786792">
                <ele>99.0</ele>
                <time>2020-08-30T10:36:04.000Z</time>
                <name>Trackpoint 3742</name>
            </trkpt>
            <trkpt lat="50.1363488" lon="8.7866296">
                <ele>98.0</ele>
                <time>2020-08-30T10:36:06.000Z</time>
                <name>Trackpoint 3743</name>
            </trkpt>
            <trkpt lat="50.1363648" lon="8.7864712">
                <ele>98.0</ele>
                <time>2020-08-30T10:36:08.000Z</time>
                <name>Trackpoint 3744</name>
            </trkpt>
            <trkpt lat="50.1363872" lon="8.7863104">
                <ele>98.0</ele>
                <time>2020-08-30T10:36:10.000Z</time>
                <name>Trackpoint 3745</name>
            </trkpt>
            <trkpt lat="50.1364032" lon="8.786152">
                <ele>98.0</ele>
                <time>2020-08-30T10:36:12.000Z</time>
                <name>Trackpoint 3746</name>
            </trkpt>
            <trkpt lat="50.136416" lon="8.7859888">
                <ele>98.0</ele>
                <time>2020-08-30T10:36:14.000Z</time>
                <name>Trackpoint 3747</name>
            </trkpt>
            <trkpt lat="50.1364352" lon="8.7858296">
                <ele>99.0</ele>
                <time>2020-08-30T10:36:16.000Z</time>
                <name>Trackpoint 3748</name>
            </trkpt>
            <trkpt lat="50.1364608" lon="8.7856728">
                <ele>99.0</ele>
                <time>2020-08-30T10:36:18.000Z</time>
                <name>Trackpoint 3749</name>
            </trkpt>
            <trkpt lat="50.13648" lon="8.7855152">
                <ele>99.0</ele>
                <time>2020-08-30T10:36:20.000Z</time>
                <name>Trackpoint 3750</name>
            </trkpt>
            <trkpt lat="50.1364864" lon="8.7853584">
                <ele>99.0</ele>
                <time>2020-08-30T10:36:22.000Z</time>
                <name>Trackpoint 3751</name>
            </trkpt>
            <trkpt lat="50.136496" lon="8.7851984">
                <ele>100.0</ele>
                <time>2020-08-30T10:36:24.000Z</time>
                <name>Trackpoint 3752</name>
            </trkpt>
            <trkpt lat="50.1365056" lon="8.785044">
                <ele>100.0</ele>
                <time>2020-08-30T10:36:26.000Z</time>
                <name>Trackpoint 3753</name>
            </trkpt>
            <trkpt lat="50.1365152" lon="8.7848768">
                <ele>101.0</ele>
                <time>2020-08-30T10:36:28.000Z</time>
                <name>Trackpoint 3754</name>
            </trkpt>
            <trkpt lat="50.1365408" lon="8.784708">
                <ele>101.0</ele>
                <time>2020-08-30T10:36:30.000Z</time>
                <name>Trackpoint 3755</name>
            </trkpt>
            <trkpt lat="50.1365536" lon="8.78454">
                <ele>102.0</ele>
                <time>2020-08-30T10:36:32.000Z</time>
                <name>Trackpoint 3756</name>
            </trkpt>
            <trkpt lat="50.1365632" lon="8.7843688">
                <ele>101.0</ele>
                <time>2020-08-30T10:36:34.000Z</time>
                <name>Trackpoint 3757</name>
            </trkpt>
            <trkpt lat="50.1365632" lon="8.7841928">
                <ele>102.0</ele>
                <time>2020-08-30T10:36:36.000Z</time>
                <name>Trackpoint 3758</name>
            </trkpt>
            <trkpt lat="50.1365728" lon="8.7840096">
                <ele>102.0</ele>
                <time>2020-08-30T10:36:38.000Z</time>
                <name>Trackpoint 3759</name>
            </trkpt>
            <trkpt lat="50.1365888" lon="8.7838384">
                <ele>102.0</ele>
                <time>2020-08-30T10:36:40.000Z</time>
                <name>Trackpoint 3760</name>
            </trkpt>
            <trkpt lat="50.1366048" lon="8.7836648">
                <ele>103.0</ele>
                <time>2020-08-30T10:36:42.000Z</time>
                <name>Trackpoint 3761</name>
            </trkpt>
            <trkpt lat="50.1366112" lon="8.7834984">
                <ele>101.0</ele>
                <time>2020-08-30T10:36:44.000Z</time>
                <name>Trackpoint 3762</name>
            </trkpt>
            <trkpt lat="50.1366208" lon="8.783328">
                <ele>100.0</ele>
                <time>2020-08-30T10:36:46.000Z</time>
                <name>Trackpoint 3763</name>
            </trkpt>
            <trkpt lat="50.136624" lon="8.783152">
                <ele>101.0</ele>
                <time>2020-08-30T10:36:48.000Z</time>
                <name>Trackpoint 3764</name>
            </trkpt>
            <trkpt lat="50.136624" lon="8.78306">
                <ele>101.0</ele>
                <time>2020-08-30T10:36:49.000Z</time>
                <name>Trackpoint 3765</name>
            </trkpt>
            <trkpt lat="50.1366304" lon="8.7828904">
                <ele>101.0</ele>
                <time>2020-08-30T10:36:51.000Z</time>
                <name>Trackpoint 3766</name>
            </trkpt>
            <trkpt lat="50.1366432" lon="8.7827264">
                <ele>102.0</ele>
                <time>2020-08-30T10:36:53.000Z</time>
                <name>Trackpoint 3767</name>
            </trkpt>
            <trkpt lat="50.1366496" lon="8.7825568">
                <ele>101.0</ele>
                <time>2020-08-30T10:36:55.000Z</time>
                <name>Trackpoint 3768</name>
            </trkpt>
            <trkpt lat="50.1366624" lon="8.7823888">
                <ele>101.0</ele>
                <time>2020-08-30T10:36:57.000Z</time>
                <name>Trackpoint 3769</name>
            </trkpt>
            <trkpt lat="50.1366656" lon="8.7822168">
                <ele>101.0</ele>
                <time>2020-08-30T10:36:59.000Z</time>
                <name>Trackpoint 3770</name>
            </trkpt>
            <trkpt lat="50.136672" lon="8.7820552">
                <ele>101.0</ele>
                <time>2020-08-30T10:37:01.000Z</time>
                <name>Trackpoint 3771</name>
            </trkpt>
            <trkpt lat="50.1366656" lon="8.7819584">
                <ele>100.0</ele>
                <time>2020-08-30T10:37:02.000Z</time>
                <name>Trackpoint 3772</name>
            </trkpt>
            <trkpt lat="50.1366592" lon="8.781868">
                <ele>100.0</ele>
                <time>2020-08-30T10:37:03.000Z</time>
                <name>Trackpoint 3773</name>
            </trkpt>
            <trkpt lat="50.1366624" lon="8.781696">
                <ele>100.0</ele>
                <time>2020-08-30T10:37:05.000Z</time>
                <name>Trackpoint 3774</name>
            </trkpt>
            <trkpt lat="50.1366624" lon="8.7815168">
                <ele>100.0</ele>
                <time>2020-08-30T10:37:07.000Z</time>
                <name>Trackpoint 3775</name>
            </trkpt>
            <trkpt lat="50.1366592" lon="8.78134">
                <ele>100.0</ele>
                <time>2020-08-30T10:37:09.000Z</time>
                <name>Trackpoint 3776</name>
            </trkpt>
            <trkpt lat="50.1366624" lon="8.7811696">
                <ele>100.0</ele>
                <time>2020-08-30T10:37:11.000Z</time>
                <name>Trackpoint 3777</name>
            </trkpt>
            <trkpt lat="50.1366624" lon="8.780996">
                <ele>99.0</ele>
                <time>2020-08-30T10:37:13.000Z</time>
                <name>Trackpoint 3778</name>
            </trkpt>
            <trkpt lat="50.1366496" lon="8.7808216">
                <ele>99.0</ele>
                <time>2020-08-30T10:37:15.000Z</time>
                <name>Trackpoint 3779</name>
            </trkpt>
            <trkpt lat="50.1366464" lon="8.7807312">
                <ele>99.0</ele>
                <time>2020-08-30T10:37:16.000Z</time>
                <name>Trackpoint 3780</name>
            </trkpt>
            <trkpt lat="50.1366336" lon="8.7805544">
                <ele>98.0</ele>
                <time>2020-08-30T10:37:18.000Z</time>
                <name>Trackpoint 3781</name>
            </trkpt>
            <trkpt lat="50.136624" lon="8.780372">
                <ele>98.0</ele>
                <time>2020-08-30T10:37:20.000Z</time>
                <name>Trackpoint 3782</name>
            </trkpt>
            <trkpt lat="50.1366208" lon="8.7802784">
                <ele>98.0</ele>
                <time>2020-08-30T10:37:21.000Z</time>
                <name>Trackpoint 3783</name>
            </trkpt>
            <trkpt lat="50.1366144" lon="8.7801848">
                <ele>98.0</ele>
                <time>2020-08-30T10:37:22.000Z</time>
                <name>Trackpoint 3784</name>
            </trkpt>
            <trkpt lat="50.136592" lon="8.78">
                <ele>98.0</ele>
                <time>2020-08-30T10:37:24.000Z</time>
                <name>Trackpoint 3785</name>
            </trkpt>
            <trkpt lat="50.1365856" lon="8.779908">
                <ele>98.0</ele>
                <time>2020-08-30T10:37:25.000Z</time>
                <name>Trackpoint 3786</name>
            </trkpt>
            <trkpt lat="50.1365696" lon="8.7797336">
                <ele>97.0</ele>
                <time>2020-08-30T10:37:27.000Z</time>
                <name>Trackpoint 3787</name>
            </trkpt>
            <trkpt lat="50.1365664" lon="8.7795632">
                <ele>95.0</ele>
                <time>2020-08-30T10:37:29.000Z</time>
                <name>Trackpoint 3788</name>
            </trkpt>
            <trkpt lat="50.136544" lon="8.7793864">
                <ele>95.0</ele>
                <time>2020-08-30T10:37:31.000Z</time>
                <name>Trackpoint 3789</name>
            </trkpt>
            <trkpt lat="50.1365344" lon="8.779212">
                <ele>94.0</ele>
                <time>2020-08-30T10:37:33.000Z</time>
                <name>Trackpoint 3790</name>
            </trkpt>
            <trkpt lat="50.136512" lon="8.7790344">
                <ele>94.0</ele>
                <time>2020-08-30T10:37:35.000Z</time>
                <name>Trackpoint 3791</name>
            </trkpt>
            <trkpt lat="50.1364864" lon="8.7788616">
                <ele>94.0</ele>
                <time>2020-08-30T10:37:37.000Z</time>
                <name>Trackpoint 3792</name>
            </trkpt>
            <trkpt lat="50.136464" lon="8.7787736">
                <ele>94.0</ele>
                <time>2020-08-30T10:37:38.000Z</time>
                <name>Trackpoint 3793</name>
            </trkpt>
            <trkpt lat="50.1364416" lon="8.7786032">
                <ele>93.0</ele>
                <time>2020-08-30T10:37:40.000Z</time>
                <name>Trackpoint 3794</name>
            </trkpt>
            <trkpt lat="50.1364128" lon="8.7784368">
                <ele>93.0</ele>
                <time>2020-08-30T10:37:42.000Z</time>
                <name>Trackpoint 3795</name>
            </trkpt>
            <trkpt lat="50.1363712" lon="8.7782696">
                <ele>92.0</ele>
                <time>2020-08-30T10:37:44.000Z</time>
                <name>Trackpoint 3796</name>
            </trkpt>
            <trkpt lat="50.1363328" lon="8.7781">
                <ele>93.0</ele>
                <time>2020-08-30T10:37:46.000Z</time>
                <name>Trackpoint 3797</name>
            </trkpt>
            <trkpt lat="50.136288" lon="8.7779328">
                <ele>93.0</ele>
                <time>2020-08-30T10:37:48.000Z</time>
                <name>Trackpoint 3798</name>
            </trkpt>
            <trkpt lat="50.136256" lon="8.7777704">
                <ele>93.0</ele>
                <time>2020-08-30T10:37:50.000Z</time>
                <name>Trackpoint 3799</name>
            </trkpt>
            <trkpt lat="50.1362176" lon="8.7776032">
                <ele>93.0</ele>
                <time>2020-08-30T10:37:52.000Z</time>
                <name>Trackpoint 3800</name>
            </trkpt>
            <trkpt lat="50.1361856" lon="8.777436">
                <ele>93.0</ele>
                <time>2020-08-30T10:37:54.000Z</time>
                <name>Trackpoint 3801</name>
            </trkpt>
            <trkpt lat="50.1361472" lon="8.7772712">
                <ele>93.0</ele>
                <time>2020-08-30T10:37:56.000Z</time>
                <name>Trackpoint 3802</name>
            </trkpt>
            <trkpt lat="50.1361056" lon="8.7771032">
                <ele>93.0</ele>
                <time>2020-08-30T10:37:58.000Z</time>
                <name>Trackpoint 3803</name>
            </trkpt>
            <trkpt lat="50.136064" lon="8.7769368">
                <ele>93.0</ele>
                <time>2020-08-30T10:38:00.000Z</time>
                <name>Trackpoint 3804</name>
            </trkpt>
            <trkpt lat="50.136016" lon="8.7767736">
                <ele>94.0</ele>
                <time>2020-08-30T10:38:02.000Z</time>
                <name>Trackpoint 3805</name>
            </trkpt>
            <trkpt lat="50.1359712" lon="8.7766112">
                <ele>94.0</ele>
                <time>2020-08-30T10:38:04.000Z</time>
                <name>Trackpoint 3806</name>
            </trkpt>
            <trkpt lat="50.13592" lon="8.7764504">
                <ele>94.0</ele>
                <time>2020-08-30T10:38:06.000Z</time>
                <name>Trackpoint 3807</name>
            </trkpt>
            <trkpt lat="50.1358752" lon="8.7762872">
                <ele>94.0</ele>
                <time>2020-08-30T10:38:08.000Z</time>
                <name>Trackpoint 3808</name>
            </trkpt>
            <trkpt lat="50.1358304" lon="8.7761288">
                <ele>94.0</ele>
                <time>2020-08-30T10:38:10.000Z</time>
                <name>Trackpoint 3809</name>
            </trkpt>
            <trkpt lat="50.1357856" lon="8.7759704">
                <ele>94.0</ele>
                <time>2020-08-30T10:38:12.000Z</time>
                <name>Trackpoint 3810</name>
            </trkpt>
            <trkpt lat="50.1357504" lon="8.7758176">
                <ele>94.0</ele>
                <time>2020-08-30T10:38:14.000Z</time>
                <name>Trackpoint 3811</name>
            </trkpt>
            <trkpt lat="50.1357056" lon="8.7756632">
                <ele>95.0</ele>
                <time>2020-08-30T10:38:16.000Z</time>
                <name>Trackpoint 3812</name>
            </trkpt>
            <trkpt lat="50.1356512" lon="8.7755168">
                <ele>95.0</ele>
                <time>2020-08-30T10:38:18.000Z</time>
                <name>Trackpoint 3813</name>
            </trkpt>
            <trkpt lat="50.1355968" lon="8.7753736">
                <ele>95.0</ele>
                <time>2020-08-30T10:38:20.000Z</time>
                <name>Trackpoint 3814</name>
            </trkpt>
            <trkpt lat="50.1355392" lon="8.7752216">
                <ele>95.0</ele>
                <time>2020-08-30T10:38:22.000Z</time>
                <name>Trackpoint 3815</name>
            </trkpt>
            <trkpt lat="50.135488" lon="8.7750752">
                <ele>95.0</ele>
                <time>2020-08-30T10:38:24.000Z</time>
                <name>Trackpoint 3816</name>
            </trkpt>
            <trkpt lat="50.1354368" lon="8.7749232">
                <ele>95.0</ele>
                <time>2020-08-30T10:38:26.000Z</time>
                <name>Trackpoint 3817</name>
            </trkpt>
            <trkpt lat="50.1353824" lon="8.7747736">
                <ele>95.0</ele>
                <time>2020-08-30T10:38:28.000Z</time>
                <name>Trackpoint 3818</name>
            </trkpt>
            <trkpt lat="50.1353312" lon="8.77462">
                <ele>96.0</ele>
                <time>2020-08-30T10:38:30.000Z</time>
                <name>Trackpoint 3819</name>
            </trkpt>
            <trkpt lat="50.1352736" lon="8.7744776">
                <ele>95.0</ele>
                <time>2020-08-30T10:38:32.000Z</time>
                <name>Trackpoint 3820</name>
            </trkpt>
            <trkpt lat="50.1352128" lon="8.7743416">
                <ele>95.0</ele>
                <time>2020-08-30T10:38:34.000Z</time>
                <name>Trackpoint 3821</name>
            </trkpt>
            <trkpt lat="50.1351616" lon="8.7741968">
                <ele>94.0</ele>
                <time>2020-08-30T10:38:36.000Z</time>
                <name>Trackpoint 3822</name>
            </trkpt>
            <trkpt lat="50.1351008" lon="8.7740568">
                <ele>95.0</ele>
                <time>2020-08-30T10:38:38.000Z</time>
                <name>Trackpoint 3823</name>
            </trkpt>
            <trkpt lat="50.1350336" lon="8.7739152">
                <ele>95.0</ele>
                <time>2020-08-30T10:38:40.000Z</time>
                <name>Trackpoint 3824</name>
            </trkpt>
            <trkpt lat="50.1349632" lon="8.77378">
                <ele>95.0</ele>
                <time>2020-08-30T10:38:42.000Z</time>
                <name>Trackpoint 3825</name>
            </trkpt>
            <trkpt lat="50.1348928" lon="8.773652">
                <ele>94.0</ele>
                <time>2020-08-30T10:38:44.000Z</time>
                <name>Trackpoint 3826</name>
            </trkpt>
            <trkpt lat="50.134816" lon="8.7735232">
                <ele>94.0</ele>
                <time>2020-08-30T10:38:46.000Z</time>
                <name>Trackpoint 3827</name>
            </trkpt>
            <trkpt lat="50.134736" lon="8.7733944">
                <ele>95.0</ele>
                <time>2020-08-30T10:38:48.000Z</time>
                <name>Trackpoint 3828</name>
            </trkpt>
            <trkpt lat="50.1346592" lon="8.7732696">
                <ele>95.0</ele>
                <time>2020-08-30T10:38:50.000Z</time>
                <name>Trackpoint 3829</name>
            </trkpt>
            <trkpt lat="50.1345792" lon="8.7731448">
                <ele>95.0</ele>
                <time>2020-08-30T10:38:52.000Z</time>
                <name>Trackpoint 3830</name>
            </trkpt>
            <trkpt lat="50.1344992" lon="8.7730216">
                <ele>95.0</ele>
                <time>2020-08-30T10:38:54.000Z</time>
                <name>Trackpoint 3831</name>
            </trkpt>
            <trkpt lat="50.1344096" lon="8.7728984">
                <ele>96.0</ele>
                <time>2020-08-30T10:38:56.000Z</time>
                <name>Trackpoint 3832</name>
            </trkpt>
            <trkpt lat="50.13432" lon="8.7727744">
                <ele>96.0</ele>
                <time>2020-08-30T10:38:58.000Z</time>
                <name>Trackpoint 3833</name>
            </trkpt>
            <trkpt lat="50.134224" lon="8.7726536">
                <ele>96.0</ele>
                <time>2020-08-30T10:39:00.000Z</time>
                <name>Trackpoint 3834</name>
            </trkpt>
            <trkpt lat="50.134128" lon="8.7725296">
                <ele>96.0</ele>
                <time>2020-08-30T10:39:02.000Z</time>
                <name>Trackpoint 3835</name>
            </trkpt>
            <trkpt lat="50.134032" lon="8.7724104">
                <ele>96.0</ele>
                <time>2020-08-30T10:39:04.000Z</time>
                <name>Trackpoint 3836</name>
            </trkpt>
            <trkpt lat="50.1339424" lon="8.772292">
                <ele>97.0</ele>
                <time>2020-08-30T10:39:06.000Z</time>
                <name>Trackpoint 3837</name>
            </trkpt>
            <trkpt lat="50.1338432" lon="8.7721752">
                <ele>97.0</ele>
                <time>2020-08-30T10:39:08.000Z</time>
                <name>Trackpoint 3838</name>
            </trkpt>
            <trkpt lat="50.1337472" lon="8.7720568">
                <ele>97.0</ele>
                <time>2020-08-30T10:39:10.000Z</time>
                <name>Trackpoint 3839</name>
            </trkpt>
            <trkpt lat="50.1336512" lon="8.77194">
                <ele>97.0</ele>
                <time>2020-08-30T10:39:12.000Z</time>
                <name>Trackpoint 3840</name>
            </trkpt>
            <trkpt lat="50.1335552" lon="8.7718248">
                <ele>98.0</ele>
                <time>2020-08-30T10:39:14.000Z</time>
                <name>Trackpoint 3841</name>
            </trkpt>
            <trkpt lat="50.1334656" lon="8.7717104">
                <ele>97.0</ele>
                <time>2020-08-30T10:39:16.000Z</time>
                <name>Trackpoint 3842</name>
            </trkpt>
            <trkpt lat="50.133376" lon="8.7716032">
                <ele>97.0</ele>
                <time>2020-08-30T10:39:18.000Z</time>
                <name>Trackpoint 3843</name>
            </trkpt>
            <trkpt lat="50.1332864" lon="8.7715056">
                <ele>97.0</ele>
                <time>2020-08-30T10:39:20.000Z</time>
                <name>Trackpoint 3844</name>
            </trkpt>
            <trkpt lat="50.1332" lon="8.7714184">
                <ele>97.0</ele>
                <time>2020-08-30T10:39:22.000Z</time>
                <name>Trackpoint 3845</name>
            </trkpt>
            <trkpt lat="50.1331168" lon="8.7713384">
                <ele>97.0</ele>
                <time>2020-08-30T10:39:24.000Z</time>
                <name>Trackpoint 3846</name>
            </trkpt>
            <trkpt lat="50.1330336" lon="8.7712648">
                <ele>98.0</ele>
                <time>2020-08-30T10:39:26.000Z</time>
                <name>Trackpoint 3847</name>
            </trkpt>
            <trkpt lat="50.1329568" lon="8.7712">
                <ele>98.0</ele>
                <time>2020-08-30T10:39:28.000Z</time>
                <name>Trackpoint 3848</name>
            </trkpt>
            <trkpt lat="50.1328864" lon="8.771136">
                <ele>98.0</ele>
                <time>2020-08-30T10:39:30.000Z</time>
                <name>Trackpoint 3849</name>
            </trkpt>
            <trkpt lat="50.1328064" lon="8.7710784">
                <ele>98.0</ele>
                <time>2020-08-30T10:39:32.000Z</time>
                <name>Trackpoint 3850</name>
            </trkpt>
            <trkpt lat="50.1327232" lon="8.7710216">
                <ele>98.0</ele>
                <time>2020-08-30T10:39:34.000Z</time>
                <name>Trackpoint 3851</name>
            </trkpt>
            <trkpt lat="50.1326432" lon="8.7709712">
                <ele>98.0</ele>
                <time>2020-08-30T10:39:36.000Z</time>
                <name>Trackpoint 3852</name>
            </trkpt>
            <trkpt lat="50.1325696" lon="8.770908">
                <ele>98.0</ele>
                <time>2020-08-30T10:39:38.000Z</time>
                <name>Trackpoint 3853</name>
            </trkpt>
            <trkpt lat="50.1324896" lon="8.770848">
                <ele>98.0</ele>
                <time>2020-08-30T10:39:40.000Z</time>
                <name>Trackpoint 3854</name>
            </trkpt>
            <trkpt lat="50.1324" lon="8.770792">
                <ele>98.0</ele>
                <time>2020-08-30T10:39:42.000Z</time>
                <name>Trackpoint 3855</name>
            </trkpt>
            <trkpt lat="50.13232" lon="8.770728">
                <ele>98.0</ele>
                <time>2020-08-30T10:39:44.000Z</time>
                <name>Trackpoint 3856</name>
            </trkpt>
            <trkpt lat="50.1322368" lon="8.7706648">
                <ele>98.0</ele>
                <time>2020-08-30T10:39:46.000Z</time>
                <name>Trackpoint 3857</name>
            </trkpt>
            <trkpt lat="50.1321472" lon="8.7706">
                <ele>98.0</ele>
                <time>2020-08-30T10:39:48.000Z</time>
                <name>Trackpoint 3858</name>
            </trkpt>
            <trkpt lat="50.132064" lon="8.7705368">
                <ele>98.0</ele>
                <time>2020-08-30T10:39:50.000Z</time>
                <name>Trackpoint 3859</name>
            </trkpt>
            <trkpt lat="50.1319744" lon="8.7704736">
                <ele>98.0</ele>
                <time>2020-08-30T10:39:52.000Z</time>
                <name>Trackpoint 3860</name>
            </trkpt>
            <trkpt lat="50.1318784" lon="8.7704088">
                <ele>98.0</ele>
                <time>2020-08-30T10:39:54.000Z</time>
                <name>Trackpoint 3861</name>
            </trkpt>
            <trkpt lat="50.1317792" lon="8.7703464">
                <ele>98.0</ele>
                <time>2020-08-30T10:39:56.000Z</time>
                <name>Trackpoint 3862</name>
            </trkpt>
            <trkpt lat="50.13168" lon="8.7702912">
                <ele>98.0</ele>
                <time>2020-08-30T10:39:58.000Z</time>
                <name>Trackpoint 3863</name>
            </trkpt>
            <trkpt lat="50.131568" lon="8.7702376">
                <ele>98.0</ele>
                <time>2020-08-30T10:40:00.000Z</time>
                <name>Trackpoint 3864</name>
            </trkpt>
            <trkpt lat="50.1314592" lon="8.7701856">
                <ele>98.0</ele>
                <time>2020-08-30T10:40:02.000Z</time>
                <name>Trackpoint 3865</name>
            </trkpt>
            <trkpt lat="50.1313504" lon="8.7701328">
                <ele>98.0</ele>
                <time>2020-08-30T10:40:04.000Z</time>
                <name>Trackpoint 3866</name>
            </trkpt>
            <trkpt lat="50.1312416" lon="8.7700768">
                <ele>98.0</ele>
                <time>2020-08-30T10:40:06.000Z</time>
                <name>Trackpoint 3867</name>
            </trkpt>
            <trkpt lat="50.1311296" lon="8.7700344">
                <ele>99.0</ele>
                <time>2020-08-30T10:40:08.000Z</time>
                <name>Trackpoint 3868</name>
            </trkpt>
            <trkpt lat="50.1310208" lon="8.7699968">
                <ele>99.0</ele>
                <time>2020-08-30T10:40:10.000Z</time>
                <name>Trackpoint 3869</name>
            </trkpt>
            <trkpt lat="50.1309088" lon="8.7699672">
                <ele>99.0</ele>
                <time>2020-08-30T10:40:12.000Z</time>
                <name>Trackpoint 3870</name>
            </trkpt>
            <trkpt lat="50.1307968" lon="8.7699448">
                <ele>99.0</ele>
                <time>2020-08-30T10:40:14.000Z</time>
                <name>Trackpoint 3871</name>
            </trkpt>
            <trkpt lat="50.1306912" lon="8.7699048">
                <ele>99.0</ele>
                <time>2020-08-30T10:40:16.000Z</time>
                <name>Trackpoint 3872</name>
            </trkpt>
            <trkpt lat="50.130576" lon="8.7698968">
                <ele>99.0</ele>
                <time>2020-08-30T10:40:18.000Z</time>
                <name>Trackpoint 3873</name>
            </trkpt>
            <trkpt lat="50.130464" lon="8.7698896">
                <ele>99.0</ele>
                <time>2020-08-30T10:40:20.000Z</time>
                <name>Trackpoint 3874</name>
            </trkpt>
            <trkpt lat="50.1303488" lon="8.7698816">
                <ele>99.0</ele>
                <time>2020-08-30T10:40:22.000Z</time>
                <name>Trackpoint 3875</name>
            </trkpt>
            <trkpt lat="50.1302336" lon="8.7698848">
                <ele>99.0</ele>
                <time>2020-08-30T10:40:24.000Z</time>
                <name>Trackpoint 3876</name>
            </trkpt>
            <trkpt lat="50.1301216" lon="8.7698848">
                <ele>99.0</ele>
                <time>2020-08-30T10:40:26.000Z</time>
                <name>Trackpoint 3877</name>
            </trkpt>
            <trkpt lat="50.130016" lon="8.7698936">
                <ele>99.0</ele>
                <time>2020-08-30T10:40:28.000Z</time>
                <name>Trackpoint 3878</name>
            </trkpt>
            <trkpt lat="50.1299008" lon="8.7699016">
                <ele>98.0</ele>
                <time>2020-08-30T10:40:30.000Z</time>
                <name>Trackpoint 3879</name>
            </trkpt>
            <trkpt lat="50.1297952" lon="8.769908">
                <ele>97.0</ele>
                <time>2020-08-30T10:40:32.000Z</time>
                <name>Trackpoint 3880</name>
            </trkpt>
            <trkpt lat="50.1296896" lon="8.7699248">
                <ele>97.0</ele>
                <time>2020-08-30T10:40:34.000Z</time>
                <name>Trackpoint 3881</name>
            </trkpt>
            <trkpt lat="50.1295776" lon="8.7699368">
                <ele>97.0</ele>
                <time>2020-08-30T10:40:36.000Z</time>
                <name>Trackpoint 3882</name>
            </trkpt>
            <trkpt lat="50.1294656" lon="8.7699536">
                <ele>97.0</ele>
                <time>2020-08-30T10:40:38.000Z</time>
                <name>Trackpoint 3883</name>
            </trkpt>
            <trkpt lat="50.1293536" lon="8.7699648">
                <ele>97.0</ele>
                <time>2020-08-30T10:40:40.000Z</time>
                <name>Trackpoint 3884</name>
            </trkpt>
            <trkpt lat="50.1292416" lon="8.7699832">
                <ele>97.0</ele>
                <time>2020-08-30T10:40:42.000Z</time>
                <name>Trackpoint 3885</name>
            </trkpt>
            <trkpt lat="50.1291264" lon="8.7700008">
                <ele>97.0</ele>
                <time>2020-08-30T10:40:44.000Z</time>
                <name>Trackpoint 3886</name>
            </trkpt>
            <trkpt lat="50.1290176" lon="8.7700144">
                <ele>97.0</ele>
                <time>2020-08-30T10:40:46.000Z</time>
                <name>Trackpoint 3887</name>
            </trkpt>
            <trkpt lat="50.1289024" lon="8.7700384">
                <ele>97.0</ele>
                <time>2020-08-30T10:40:48.000Z</time>
                <name>Trackpoint 3888</name>
            </trkpt>
            <trkpt lat="50.1287904" lon="8.7700584">
                <ele>97.0</ele>
                <time>2020-08-30T10:40:50.000Z</time>
                <name>Trackpoint 3889</name>
            </trkpt>
            <trkpt lat="50.1286816" lon="8.7700864">
                <ele>97.0</ele>
                <time>2020-08-30T10:40:52.000Z</time>
                <name>Trackpoint 3890</name>
            </trkpt>
            <trkpt lat="50.1285728" lon="8.7701184">
                <ele>97.0</ele>
                <time>2020-08-30T10:40:54.000Z</time>
                <name>Trackpoint 3891</name>
            </trkpt>
            <trkpt lat="50.128464" lon="8.7701328">
                <ele>97.0</ele>
                <time>2020-08-30T10:40:56.000Z</time>
                <name>Trackpoint 3892</name>
            </trkpt>
            <trkpt lat="50.1283456" lon="8.7701568">
                <ele>97.0</ele>
                <time>2020-08-30T10:40:58.000Z</time>
                <name>Trackpoint 3893</name>
            </trkpt>
            <trkpt lat="50.1282336" lon="8.7701904">
                <ele>98.0</ele>
                <time>2020-08-30T10:41:00.000Z</time>
                <name>Trackpoint 3894</name>
            </trkpt>
            <trkpt lat="50.1281408" lon="8.770224">
                <ele>97.0</ele>
                <time>2020-08-30T10:41:02.000Z</time>
                <name>Trackpoint 3895</name>
            </trkpt>
            <trkpt lat="50.12808" lon="8.7701456">
                <ele>98.0</ele>
                <time>2020-08-30T10:41:06.000Z</time>
                <name>Trackpoint 3896</name>
            </trkpt>
            <trkpt lat="50.1280256" lon="8.7702248">
                <ele>98.0</ele>
                <time>2020-08-30T10:41:53.000Z</time>
                <name>Trackpoint 3897</name>
            </trkpt>
            <trkpt lat="50.1279168" lon="8.7702648">
                <ele>98.0</ele>
                <time>2020-08-30T10:41:57.000Z</time>
                <name>Trackpoint 3898</name>
            </trkpt>
            <trkpt lat="50.1277952" lon="8.7703064">
                <ele>97.0</ele>
                <time>2020-08-30T10:42:00.000Z</time>
                <name>Trackpoint 3899</name>
            </trkpt>
            <trkpt lat="50.1276832" lon="8.7703512">
                <ele>97.0</ele>
                <time>2020-08-30T10:42:03.000Z</time>
                <name>Trackpoint 3900</name>
            </trkpt>
            <trkpt lat="50.1275968" lon="8.7703912">
                <ele>97.0</ele>
                <time>2020-08-30T10:42:05.000Z</time>
                <name>Trackpoint 3901</name>
            </trkpt>
            <trkpt lat="50.127504" lon="8.7704352">
                <ele>98.0</ele>
                <time>2020-08-30T10:42:07.000Z</time>
                <name>Trackpoint 3902</name>
            </trkpt>
            <trkpt lat="50.127408" lon="8.7704832">
                <ele>98.0</ele>
                <time>2020-08-30T10:42:09.000Z</time>
                <name>Trackpoint 3903</name>
            </trkpt>
            <trkpt lat="50.1273152" lon="8.7705384">
                <ele>98.0</ele>
                <time>2020-08-30T10:42:11.000Z</time>
                <name>Trackpoint 3904</name>
            </trkpt>
            <trkpt lat="50.1272192" lon="8.770592">
                <ele>98.0</ele>
                <time>2020-08-30T10:42:13.000Z</time>
                <name>Trackpoint 3905</name>
            </trkpt>
            <trkpt lat="50.1271232" lon="8.770648">
                <ele>98.0</ele>
                <time>2020-08-30T10:42:15.000Z</time>
                <name>Trackpoint 3906</name>
            </trkpt>
            <trkpt lat="50.1270304" lon="8.7707136">
                <ele>98.0</ele>
                <time>2020-08-30T10:42:17.000Z</time>
                <name>Trackpoint 3907</name>
            </trkpt>
            <trkpt lat="50.1269408" lon="8.7707616">
                <ele>98.0</ele>
                <time>2020-08-30T10:42:19.000Z</time>
                <name>Trackpoint 3908</name>
            </trkpt>
            <trkpt lat="50.1268576" lon="8.7708168">
                <ele>98.0</ele>
                <time>2020-08-30T10:42:21.000Z</time>
                <name>Trackpoint 3909</name>
            </trkpt>
            <trkpt lat="50.1267712" lon="8.7708552">
                <ele>99.0</ele>
                <time>2020-08-30T10:42:23.000Z</time>
                <name>Trackpoint 3910</name>
            </trkpt>
            <trkpt lat="50.1266528" lon="8.7709304">
                <ele>99.0</ele>
                <time>2020-08-30T10:42:26.000Z</time>
                <name>Trackpoint 3911</name>
            </trkpt>
            <trkpt lat="50.12656" lon="8.7709904">
                <ele>98.0</ele>
                <time>2020-08-30T10:42:28.000Z</time>
                <name>Trackpoint 3912</name>
            </trkpt>
            <trkpt lat="50.126448" lon="8.771044">
                <ele>98.0</ele>
                <time>2020-08-30T10:42:30.000Z</time>
                <name>Trackpoint 3913</name>
            </trkpt>
            <trkpt lat="50.1263456" lon="8.7711">
                <ele>98.0</ele>
                <time>2020-08-30T10:42:32.000Z</time>
                <name>Trackpoint 3914</name>
            </trkpt>
            <trkpt lat="50.1262464" lon="8.7711336">
                <ele>98.0</ele>
                <time>2020-08-30T10:42:34.000Z</time>
                <name>Trackpoint 3915</name>
            </trkpt>
            <trkpt lat="50.1261408" lon="8.7711672">
                <ele>99.0</ele>
                <time>2020-08-30T10:42:36.000Z</time>
                <name>Trackpoint 3916</name>
            </trkpt>
            <trkpt lat="50.1260448" lon="8.7712096">
                <ele>99.0</ele>
                <time>2020-08-30T10:42:38.000Z</time>
                <name>Trackpoint 3917</name>
            </trkpt>
            <trkpt lat="50.1259456" lon="8.7712768">
                <ele>99.0</ele>
                <time>2020-08-30T10:42:40.000Z</time>
                <name>Trackpoint 3918</name>
            </trkpt>
            <trkpt lat="50.1258496" lon="8.771352">
                <ele>99.0</ele>
                <time>2020-08-30T10:42:42.000Z</time>
                <name>Trackpoint 3919</name>
            </trkpt>
            <trkpt lat="50.1257664" lon="8.7714256">
                <ele>99.0</ele>
                <time>2020-08-30T10:42:44.000Z</time>
                <name>Trackpoint 3920</name>
            </trkpt>
            <trkpt lat="50.1256928" lon="8.7714968">
                <ele>99.0</ele>
                <time>2020-08-30T10:42:46.000Z</time>
                <name>Trackpoint 3921</name>
            </trkpt>
            <trkpt lat="50.1256064" lon="8.7715656">
                <ele>99.0</ele>
                <time>2020-08-30T10:42:49.000Z</time>
                <name>Trackpoint 3922</name>
            </trkpt>
            <trkpt lat="50.12552" lon="8.7716448">
                <ele>99.0</ele>
                <time>2020-08-30T10:42:52.000Z</time>
                <name>Trackpoint 3923</name>
            </trkpt>
            <trkpt lat="50.1254496" lon="8.7717368">
                <ele>99.0</ele>
                <time>2020-08-30T10:42:54.000Z</time>
                <name>Trackpoint 3924</name>
            </trkpt>
            <trkpt lat="50.1253696" lon="8.7718464">
                <ele>99.0</ele>
                <time>2020-08-30T10:42:56.000Z</time>
                <name>Trackpoint 3925</name>
            </trkpt>
            <trkpt lat="50.1252832" lon="8.7719616">
                <ele>99.0</ele>
                <time>2020-08-30T10:42:58.000Z</time>
                <name>Trackpoint 3926</name>
            </trkpt>
            <trkpt lat="50.125184" lon="8.7720872">
                <ele>99.0</ele>
                <time>2020-08-30T10:43:00.000Z</time>
                <name>Trackpoint 3927</name>
            </trkpt>
            <trkpt lat="50.125072" lon="8.7721856">
                <ele>99.0</ele>
                <time>2020-08-30T10:43:02.000Z</time>
                <name>Trackpoint 3928</name>
            </trkpt>
            <trkpt lat="50.1249536" lon="8.772292">
                <ele>100.0</ele>
                <time>2020-08-30T10:43:04.000Z</time>
                <name>Trackpoint 3929</name>
            </trkpt>
            <trkpt lat="50.124848" lon="8.7724048">
                <ele>100.0</ele>
                <time>2020-08-30T10:43:06.000Z</time>
                <name>Trackpoint 3930</name>
            </trkpt>
            <trkpt lat="50.1247456" lon="8.7725096">
                <ele>100.0</ele>
                <time>2020-08-30T10:43:08.000Z</time>
                <name>Trackpoint 3931</name>
            </trkpt>
            <trkpt lat="50.12464" lon="8.7726152">
                <ele>100.0</ele>
                <time>2020-08-30T10:43:10.000Z</time>
                <name>Trackpoint 3932</name>
            </trkpt>
            <trkpt lat="50.1245376" lon="8.7727168">
                <ele>100.0</ele>
                <time>2020-08-30T10:43:12.000Z</time>
                <name>Trackpoint 3933</name>
            </trkpt>
            <trkpt lat="50.124448" lon="8.772812">
                <ele>99.0</ele>
                <time>2020-08-30T10:43:14.000Z</time>
                <name>Trackpoint 3934</name>
            </trkpt>
            <trkpt lat="50.1243552" lon="8.7729056">
                <ele>100.0</ele>
                <time>2020-08-30T10:43:16.000Z</time>
                <name>Trackpoint 3935</name>
            </trkpt>
            <trkpt lat="50.1242592" lon="8.7729992">
                <ele>99.0</ele>
                <time>2020-08-30T10:43:18.000Z</time>
                <name>Trackpoint 3936</name>
            </trkpt>
            <trkpt lat="50.1241728" lon="8.7730968">
                <ele>99.0</ele>
                <time>2020-08-30T10:43:20.000Z</time>
                <name>Trackpoint 3937</name>
            </trkpt>
            <trkpt lat="50.12408" lon="8.7731888">
                <ele>99.0</ele>
                <time>2020-08-30T10:43:22.000Z</time>
                <name>Trackpoint 3938</name>
            </trkpt>
            <trkpt lat="50.1239968" lon="8.77328">
                <ele>99.0</ele>
                <time>2020-08-30T10:43:24.000Z</time>
                <name>Trackpoint 3939</name>
            </trkpt>
            <trkpt lat="50.123904" lon="8.7733696">
                <ele>99.0</ele>
                <time>2020-08-30T10:43:26.000Z</time>
                <name>Trackpoint 3940</name>
            </trkpt>
            <trkpt lat="50.1238048" lon="8.7734632">
                <ele>98.0</ele>
                <time>2020-08-30T10:43:28.000Z</time>
                <name>Trackpoint 3941</name>
            </trkpt>
            <trkpt lat="50.1237056" lon="8.7735592">
                <ele>98.0</ele>
                <time>2020-08-30T10:43:30.000Z</time>
                <name>Trackpoint 3942</name>
            </trkpt>
            <trkpt lat="50.1236128" lon="8.7736552">
                <ele>97.0</ele>
                <time>2020-08-30T10:43:32.000Z</time>
                <name>Trackpoint 3943</name>
            </trkpt>
            <trkpt lat="50.1235072" lon="8.7737552">
                <ele>97.0</ele>
                <time>2020-08-30T10:43:34.000Z</time>
                <name>Trackpoint 3944</name>
            </trkpt>
            <trkpt lat="50.1234176" lon="8.7738648">
                <ele>97.0</ele>
                <time>2020-08-30T10:43:36.000Z</time>
                <name>Trackpoint 3945</name>
            </trkpt>
            <trkpt lat="50.1233184" lon="8.7739832">
                <ele>97.0</ele>
                <time>2020-08-30T10:43:38.000Z</time>
                <name>Trackpoint 3946</name>
            </trkpt>
            <trkpt lat="50.1232064" lon="8.7740744">
                <ele>97.0</ele>
                <time>2020-08-30T10:43:40.000Z</time>
                <name>Trackpoint 3947</name>
            </trkpt>
            <trkpt lat="50.1230976" lon="8.7741736">
                <ele>97.0</ele>
                <time>2020-08-30T10:43:42.000Z</time>
                <name>Trackpoint 3948</name>
            </trkpt>
            <trkpt lat="50.122992" lon="8.7742832">
                <ele>97.0</ele>
                <time>2020-08-30T10:43:44.000Z</time>
                <name>Trackpoint 3949</name>
            </trkpt>
            <trkpt lat="50.1228928" lon="8.774388">
                <ele>97.0</ele>
                <time>2020-08-30T10:43:46.000Z</time>
                <name>Trackpoint 3950</name>
            </trkpt>
            <trkpt lat="50.1227904" lon="8.77448">
                <ele>97.0</ele>
                <time>2020-08-30T10:43:48.000Z</time>
                <name>Trackpoint 3951</name>
            </trkpt>
            <trkpt lat="50.1227008" lon="8.7745752">
                <ele>97.0</ele>
                <time>2020-08-30T10:43:50.000Z</time>
                <name>Trackpoint 3952</name>
            </trkpt>
            <trkpt lat="50.1225952" lon="8.774676">
                <ele>97.0</ele>
                <time>2020-08-30T10:43:52.000Z</time>
                <name>Trackpoint 3953</name>
            </trkpt>
            <trkpt lat="50.1225024" lon="8.774772">
                <ele>96.0</ele>
                <time>2020-08-30T10:43:54.000Z</time>
                <name>Trackpoint 3954</name>
            </trkpt>
            <trkpt lat="50.1224032" lon="8.7748584">
                <ele>95.0</ele>
                <time>2020-08-30T10:43:56.000Z</time>
                <name>Trackpoint 3955</name>
            </trkpt>
            <trkpt lat="50.122304" lon="8.7749592">
                <ele>95.0</ele>
                <time>2020-08-30T10:43:58.000Z</time>
                <name>Trackpoint 3956</name>
            </trkpt>
            <trkpt lat="50.1222048" lon="8.7750656">
                <ele>95.0</ele>
                <time>2020-08-30T10:44:00.000Z</time>
                <name>Trackpoint 3957</name>
            </trkpt>
            <trkpt lat="50.1221056" lon="8.7751712">
                <ele>96.0</ele>
                <time>2020-08-30T10:44:02.000Z</time>
                <name>Trackpoint 3958</name>
            </trkpt>
            <trkpt lat="50.1220064" lon="8.7752736">
                <ele>97.0</ele>
                <time>2020-08-30T10:44:04.000Z</time>
                <name>Trackpoint 3959</name>
            </trkpt>
            <trkpt lat="50.1219104" lon="8.7753824">
                <ele>97.0</ele>
                <time>2020-08-30T10:44:06.000Z</time>
                <name>Trackpoint 3960</name>
            </trkpt>
            <trkpt lat="50.1218144" lon="8.7754848">
                <ele>97.0</ele>
                <time>2020-08-30T10:44:08.000Z</time>
                <name>Trackpoint 3961</name>
            </trkpt>
            <trkpt lat="50.1217184" lon="8.7755848">
                <ele>97.0</ele>
                <time>2020-08-30T10:44:10.000Z</time>
                <name>Trackpoint 3962</name>
            </trkpt>
            <trkpt lat="50.1216224" lon="8.7756864">
                <ele>97.0</ele>
                <time>2020-08-30T10:44:12.000Z</time>
                <name>Trackpoint 3963</name>
            </trkpt>
            <trkpt lat="50.1215296" lon="8.7757904">
                <ele>97.0</ele>
                <time>2020-08-30T10:44:14.000Z</time>
                <name>Trackpoint 3964</name>
            </trkpt>
            <trkpt lat="50.1214368" lon="8.7758848">
                <ele>97.0</ele>
                <time>2020-08-30T10:44:16.000Z</time>
                <name>Trackpoint 3965</name>
            </trkpt>
            <trkpt lat="50.121344" lon="8.7759848">
                <ele>97.0</ele>
                <time>2020-08-30T10:44:18.000Z</time>
                <name>Trackpoint 3966</name>
            </trkpt>
            <trkpt lat="50.1212576" lon="8.7760784">
                <ele>97.0</ele>
                <time>2020-08-30T10:44:20.000Z</time>
                <name>Trackpoint 3967</name>
            </trkpt>
            <trkpt lat="50.1211744" lon="8.7761744">
                <ele>97.0</ele>
                <time>2020-08-30T10:44:22.000Z</time>
                <name>Trackpoint 3968</name>
            </trkpt>
            <trkpt lat="50.1210944" lon="8.7762648">
                <ele>97.0</ele>
                <time>2020-08-30T10:44:24.000Z</time>
                <name>Trackpoint 3969</name>
            </trkpt>
            <trkpt lat="50.1210176" lon="8.7763656">
                <ele>97.0</ele>
                <time>2020-08-30T10:44:26.000Z</time>
                <name>Trackpoint 3970</name>
            </trkpt>
            <trkpt lat="50.1209376" lon="8.7764528">
                <ele>98.0</ele>
                <time>2020-08-30T10:44:28.000Z</time>
                <name>Trackpoint 3971</name>
            </trkpt>
            <trkpt lat="50.1208448" lon="8.7765328">
                <ele>98.0</ele>
                <time>2020-08-30T10:44:30.000Z</time>
                <name>Trackpoint 3972</name>
            </trkpt>
            <trkpt lat="50.1207584" lon="8.7766264">
                <ele>98.0</ele>
                <time>2020-08-30T10:44:32.000Z</time>
                <name>Trackpoint 3973</name>
            </trkpt>
            <trkpt lat="50.1206624" lon="8.7767288">
                <ele>98.0</ele>
                <time>2020-08-30T10:44:34.000Z</time>
                <name>Trackpoint 3974</name>
            </trkpt>
            <trkpt lat="50.120576" lon="8.7768432">
                <ele>98.0</ele>
                <time>2020-08-30T10:44:36.000Z</time>
                <name>Trackpoint 3975</name>
            </trkpt>
            <trkpt lat="50.120496" lon="8.7769616">
                <ele>98.0</ele>
                <time>2020-08-30T10:44:38.000Z</time>
                <name>Trackpoint 3976</name>
            </trkpt>
            <trkpt lat="50.1204096" lon="8.7770816">
                <ele>97.0</ele>
                <time>2020-08-30T10:44:40.000Z</time>
                <name>Trackpoint 3977</name>
            </trkpt>
            <trkpt lat="50.1203392" lon="8.7772056">
                <ele>97.0</ele>
                <time>2020-08-30T10:44:42.000Z</time>
                <name>Trackpoint 3978</name>
            </trkpt>
            <trkpt lat="50.120272" lon="8.7772816">
                <ele>97.0</ele>
                <time>2020-08-30T10:44:44.000Z</time>
                <name>Trackpoint 3979</name>
            </trkpt>
            <trkpt lat="50.1202464" lon="8.7773448">
                <ele>95.0</ele>
                <time>2020-08-30T10:45:49.000Z</time>
                <name>Trackpoint 3980</name>
            </trkpt>
            <trkpt lat="50.1202176" lon="8.7774336">
                <ele>95.0</ele>
                <time>2020-08-30T10:46:00.000Z</time>
                <name>Trackpoint 3981</name>
            </trkpt>
            <trkpt lat="50.120176" lon="8.7775184">
                <ele>95.0</ele>
                <time>2020-08-30T10:46:02.000Z</time>
                <name>Trackpoint 3982</name>
            </trkpt>
            <trkpt lat="50.1200992" lon="8.7776384">
                <ele>95.0</ele>
                <time>2020-08-30T10:46:05.000Z</time>
                <name>Trackpoint 3983</name>
            </trkpt>
            <trkpt lat="50.120048" lon="8.7777296">
                <ele>95.0</ele>
                <time>2020-08-30T10:46:07.000Z</time>
                <name>Trackpoint 3984</name>
            </trkpt>
            <trkpt lat="50.119984" lon="8.7778256">
                <ele>95.0</ele>
                <time>2020-08-30T10:46:09.000Z</time>
                <name>Trackpoint 3985</name>
            </trkpt>
            <trkpt lat="50.1199008" lon="8.777908">
                <ele>95.0</ele>
                <time>2020-08-30T10:46:11.000Z</time>
                <name>Trackpoint 3986</name>
            </trkpt>
            <trkpt lat="50.1198336" lon="8.777984">
                <ele>95.0</ele>
                <time>2020-08-30T10:46:13.000Z</time>
                <name>Trackpoint 3987</name>
            </trkpt>
            <trkpt lat="50.1197696" lon="8.7780712">
                <ele>95.0</ele>
                <time>2020-08-30T10:46:15.000Z</time>
                <name>Trackpoint 3988</name>
            </trkpt>
            <trkpt lat="50.1197152" lon="8.7781648">
                <ele>95.0</ele>
                <time>2020-08-30T10:46:17.000Z</time>
                <name>Trackpoint 3989</name>
            </trkpt>
            <trkpt lat="50.1196608" lon="8.7782488">
                <ele>95.0</ele>
                <time>2020-08-30T10:46:19.000Z</time>
                <name>Trackpoint 3990</name>
            </trkpt>
            <trkpt lat="50.1195936" lon="8.7783568">
                <ele>95.0</ele>
                <time>2020-08-30T10:46:22.000Z</time>
                <name>Trackpoint 3991</name>
            </trkpt>
            <trkpt lat="50.1195424" lon="8.7784504">
                <ele>95.0</ele>
                <time>2020-08-30T10:46:24.000Z</time>
                <name>Trackpoint 3992</name>
            </trkpt>
            <trkpt lat="50.119488" lon="8.7785352">
                <ele>95.0</ele>
                <time>2020-08-30T10:46:26.000Z</time>
                <name>Trackpoint 3993</name>
            </trkpt>
            <trkpt lat="50.1194016" lon="8.7786304">
                <ele>95.0</ele>
                <time>2020-08-30T10:46:28.000Z</time>
                <name>Trackpoint 3994</name>
            </trkpt>
            <trkpt lat="50.1193184" lon="8.77874">
                <ele>95.0</ele>
                <time>2020-08-30T10:46:30.000Z</time>
                <name>Trackpoint 3995</name>
            </trkpt>
            <trkpt lat="50.1192544" lon="8.77884">
                <ele>95.0</ele>
                <time>2020-08-30T10:46:32.000Z</time>
                <name>Trackpoint 3996</name>
            </trkpt>
            <trkpt lat="50.1191712" lon="8.7789472">
                <ele>95.0</ele>
                <time>2020-08-30T10:46:34.000Z</time>
                <name>Trackpoint 3997</name>
            </trkpt>
            <trkpt lat="50.1190912" lon="8.7790472">
                <ele>95.0</ele>
                <time>2020-08-30T10:46:36.000Z</time>
                <name>Trackpoint 3998</name>
            </trkpt>
            <trkpt lat="50.1189952" lon="8.7791408">
                <ele>95.0</ele>
                <time>2020-08-30T10:46:38.000Z</time>
                <name>Trackpoint 3999</name>
            </trkpt>
            <trkpt lat="50.1189152" lon="8.7792368">
                <ele>95.0</ele>
                <time>2020-08-30T10:46:40.000Z</time>
                <name>Trackpoint 4000</name>
            </trkpt>
            <trkpt lat="50.118832" lon="8.7793448">
                <ele>95.0</ele>
                <time>2020-08-30T10:46:42.000Z</time>
                <name>Trackpoint 4001</name>
            </trkpt>
            <trkpt lat="50.1187392" lon="8.7794352">
                <ele>95.0</ele>
                <time>2020-08-30T10:46:44.000Z</time>
                <name>Trackpoint 4002</name>
            </trkpt>
            <trkpt lat="50.1186368" lon="8.7795152">
                <ele>95.0</ele>
                <time>2020-08-30T10:46:46.000Z</time>
                <name>Trackpoint 4003</name>
            </trkpt>
            <trkpt lat="50.1185408" lon="8.7795984">
                <ele>95.0</ele>
                <time>2020-08-30T10:46:48.000Z</time>
                <name>Trackpoint 4004</name>
            </trkpt>
            <trkpt lat="50.1184384" lon="8.779688">
                <ele>95.0</ele>
                <time>2020-08-30T10:46:50.000Z</time>
                <name>Trackpoint 4005</name>
            </trkpt>
            <trkpt lat="50.1183424" lon="8.7797672">
                <ele>95.0</ele>
                <time>2020-08-30T10:46:52.000Z</time>
                <name>Trackpoint 4006</name>
            </trkpt>
            <trkpt lat="50.118256" lon="8.7798344">
                <ele>95.0</ele>
                <time>2020-08-30T10:46:54.000Z</time>
                <name>Trackpoint 4007</name>
            </trkpt>
            <trkpt lat="50.1181664" lon="8.7798984">
                <ele>95.0</ele>
                <time>2020-08-30T10:46:56.000Z</time>
                <name>Trackpoint 4008</name>
            </trkpt>
            <trkpt lat="50.11808" lon="8.7799704">
                <ele>95.0</ele>
                <time>2020-08-30T10:46:58.000Z</time>
                <name>Trackpoint 4009</name>
            </trkpt>
            <trkpt lat="50.118" lon="8.7800304">
                <ele>95.0</ele>
                <time>2020-08-30T10:47:00.000Z</time>
                <name>Trackpoint 4010</name>
            </trkpt>
            <trkpt lat="50.117904" lon="8.7801048">
                <ele>95.0</ele>
                <time>2020-08-30T10:47:32.000Z</time>
                <name>Trackpoint 4011</name>
            </trkpt>
            <trkpt lat="50.1178272" lon="8.780164">
                <ele>94.0</ele>
                <time>2020-08-30T10:47:37.000Z</time>
                <name>Trackpoint 4012</name>
            </trkpt>
            <trkpt lat="50.11776" lon="8.7802264">
                <ele>94.0</ele>
                <time>2020-08-30T10:47:40.000Z</time>
                <name>Trackpoint 4013</name>
            </trkpt>
            <trkpt lat="50.1176768" lon="8.7802864">
                <ele>94.0</ele>
                <time>2020-08-30T10:47:43.000Z</time>
                <name>Trackpoint 4014</name>
            </trkpt>
            <trkpt lat="50.1175872" lon="8.7803568">
                <ele>94.0</ele>
                <time>2020-08-30T10:47:46.000Z</time>
                <name>Trackpoint 4015</name>
            </trkpt>
            <trkpt lat="50.117504" lon="8.7804184">
                <ele>95.0</ele>
                <time>2020-08-30T10:47:49.000Z</time>
                <name>Trackpoint 4016</name>
            </trkpt>
            <trkpt lat="50.1174304" lon="8.7804744">
                <ele>95.0</ele>
                <time>2020-08-30T10:47:52.000Z</time>
                <name>Trackpoint 4017</name>
            </trkpt>
            <trkpt lat="50.1173632" lon="8.7805408">
                <ele>95.0</ele>
                <time>2020-08-30T10:48:30.000Z</time>
                <name>Trackpoint 4018</name>
            </trkpt>
            <trkpt lat="50.1173568" lon="8.78064">
                <ele>95.0</ele>
                <time>2020-08-30T10:48:35.000Z</time>
                <name>Trackpoint 4019</name>
            </trkpt>
            <trkpt lat="50.117344" lon="8.7807312">
                <ele>95.0</ele>
                <time>2020-08-30T10:49:01.000Z</time>
                <name>Trackpoint 4020</name>
            </trkpt>
            <trkpt lat="50.1173248" lon="8.7808248">
                <ele>95.0</ele>
                <time>2020-08-30T10:49:04.000Z</time>
                <name>Trackpoint 4021</name>
            </trkpt>
            <trkpt lat="50.117232" lon="8.7809096">
                <ele>95.0</ele>
                <time>2020-08-30T10:49:07.000Z</time>
                <name>Trackpoint 4022</name>
            </trkpt>
            <trkpt lat="50.11712" lon="8.7809832">
                <ele>95.0</ele>
                <time>2020-08-30T10:49:10.000Z</time>
                <name>Trackpoint 4023</name>
            </trkpt>
            <trkpt lat="50.117024" lon="8.7810424">
                <ele>95.0</ele>
                <time>2020-08-30T10:49:12.000Z</time>
                <name>Trackpoint 4024</name>
            </trkpt>
            <trkpt lat="50.1169312" lon="8.7810736">
                <ele>95.0</ele>
                <time>2020-08-30T10:49:14.000Z</time>
                <name>Trackpoint 4025</name>
            </trkpt>
            <trkpt lat="50.1168416" lon="8.7810968">
                <ele>95.0</ele>
                <time>2020-08-30T10:49:16.000Z</time>
                <name>Trackpoint 4026</name>
            </trkpt>
            <trkpt lat="50.116736" lon="8.781132">
                <ele>95.0</ele>
                <time>2020-08-30T10:49:18.000Z</time>
                <name>Trackpoint 4027</name>
            </trkpt>
            <trkpt lat="50.1166368" lon="8.78116">
                <ele>96.0</ele>
                <time>2020-08-30T10:49:20.000Z</time>
                <name>Trackpoint 4028</name>
            </trkpt>
            <trkpt lat="50.1165472" lon="8.7811896">
                <ele>96.0</ele>
                <time>2020-08-30T10:49:22.000Z</time>
                <name>Trackpoint 4029</name>
            </trkpt>
            <trkpt lat="50.116448" lon="8.7812272">
                <ele>96.0</ele>
                <time>2020-08-30T10:49:24.000Z</time>
                <name>Trackpoint 4030</name>
            </trkpt>
            <trkpt lat="50.1163552" lon="8.7812728">
                <ele>96.0</ele>
                <time>2020-08-30T10:49:26.000Z</time>
                <name>Trackpoint 4031</name>
            </trkpt>
            <trkpt lat="50.1162592" lon="8.7813104">
                <ele>96.0</ele>
                <time>2020-08-30T10:49:28.000Z</time>
                <name>Trackpoint 4032</name>
            </trkpt>
            <trkpt lat="50.1161504" lon="8.7813416">
                <ele>96.0</ele>
                <time>2020-08-30T10:49:30.000Z</time>
                <name>Trackpoint 4033</name>
            </trkpt>
            <trkpt lat="50.116048" lon="8.78138">
                <ele>96.0</ele>
                <time>2020-08-30T10:49:32.000Z</time>
                <name>Trackpoint 4034</name>
            </trkpt>
            <trkpt lat="50.115936" lon="8.781408">
                <ele>96.0</ele>
                <time>2020-08-30T10:49:34.000Z</time>
                <name>Trackpoint 4035</name>
            </trkpt>
            <trkpt lat="50.1158304" lon="8.7814416">
                <ele>96.0</ele>
                <time>2020-08-30T10:49:36.000Z</time>
                <name>Trackpoint 4036</name>
            </trkpt>
            <trkpt lat="50.1157184" lon="8.78148">
                <ele>96.0</ele>
                <time>2020-08-30T10:49:38.000Z</time>
                <name>Trackpoint 4037</name>
            </trkpt>
            <trkpt lat="50.1156096" lon="8.7815176">
                <ele>96.0</ele>
                <time>2020-08-30T10:49:40.000Z</time>
                <name>Trackpoint 4038</name>
            </trkpt>
            <trkpt lat="50.1155008" lon="8.7815464">
                <ele>96.0</ele>
                <time>2020-08-30T10:49:42.000Z</time>
                <name>Trackpoint 4039</name>
            </trkpt>
            <trkpt lat="50.1153952" lon="8.7815752">
                <ele>96.0</ele>
                <time>2020-08-30T10:49:44.000Z</time>
                <name>Trackpoint 4040</name>
            </trkpt>
            <trkpt lat="50.115296" lon="8.7815968">
                <ele>96.0</ele>
                <time>2020-08-30T10:49:46.000Z</time>
                <name>Trackpoint 4041</name>
            </trkpt>
            <trkpt lat="50.1151968" lon="8.7816096">
                <ele>96.0</ele>
                <time>2020-08-30T10:49:48.000Z</time>
                <name>Trackpoint 4042</name>
            </trkpt>
            <trkpt lat="50.1150816" lon="8.7816336">
                <ele>96.0</ele>
                <time>2020-08-30T10:49:50.000Z</time>
                <name>Trackpoint 4043</name>
            </trkpt>
            <trkpt lat="50.1149696" lon="8.7816584">
                <ele>96.0</ele>
                <time>2020-08-30T10:49:52.000Z</time>
                <name>Trackpoint 4044</name>
            </trkpt>
            <trkpt lat="50.1148576" lon="8.7816896">
                <ele>96.0</ele>
                <time>2020-08-30T10:49:54.000Z</time>
                <name>Trackpoint 4045</name>
            </trkpt>
            <trkpt lat="50.1147424" lon="8.7817232">
                <ele>96.0</ele>
                <time>2020-08-30T10:49:56.000Z</time>
                <name>Trackpoint 4046</name>
            </trkpt>
            <trkpt lat="50.1146432" lon="8.7817352">
                <ele>97.0</ele>
                <time>2020-08-30T10:49:58.000Z</time>
                <name>Trackpoint 4047</name>
            </trkpt>
            <trkpt lat="50.1145216" lon="8.781752">
                <ele>98.0</ele>
                <time>2020-08-30T10:50:01.000Z</time>
                <name>Trackpoint 4048</name>
            </trkpt>
            <trkpt lat="50.1143936" lon="8.7817784">
                <ele>97.0</ele>
                <time>2020-08-30T10:50:04.000Z</time>
                <name>Trackpoint 4049</name>
            </trkpt>
            <trkpt lat="50.1142656" lon="8.7817984">
                <ele>97.0</ele>
                <time>2020-08-30T10:50:07.000Z</time>
                <name>Trackpoint 4050</name>
            </trkpt>
            <trkpt lat="50.1141696" lon="8.781812">
                <ele>96.0</ele>
                <time>2020-08-30T10:50:09.000Z</time>
                <name>Trackpoint 4051</name>
            </trkpt>
            <trkpt lat="50.11408" lon="8.7818232">
                <ele>96.0</ele>
                <time>2020-08-30T10:50:11.000Z</time>
                <name>Trackpoint 4052</name>
            </trkpt>
            <trkpt lat="50.1139744" lon="8.781828">
                <ele>96.0</ele>
                <time>2020-08-30T10:50:13.000Z</time>
                <name>Trackpoint 4053</name>
            </trkpt>
            <trkpt lat="50.1138688" lon="8.7818344">
                <ele>96.0</ele>
                <time>2020-08-30T10:50:15.000Z</time>
                <name>Trackpoint 4054</name>
            </trkpt>
            <trkpt lat="50.1137664" lon="8.781852">
                <ele>96.0</ele>
                <time>2020-08-30T10:50:17.000Z</time>
                <name>Trackpoint 4055</name>
            </trkpt>
            <trkpt lat="50.1136544" lon="8.7818536">
                <ele>97.0</ele>
                <time>2020-08-30T10:50:19.000Z</time>
                <name>Trackpoint 4056</name>
            </trkpt>
            <trkpt lat="50.1135392" lon="8.7818648">
                <ele>97.0</ele>
                <time>2020-08-30T10:50:21.000Z</time>
                <name>Trackpoint 4057</name>
            </trkpt>
            <trkpt lat="50.1134304" lon="8.7818816">
                <ele>98.0</ele>
                <time>2020-08-30T10:50:23.000Z</time>
                <name>Trackpoint 4058</name>
            </trkpt>
            <trkpt lat="50.1133184" lon="8.7818816">
                <ele>98.0</ele>
                <time>2020-08-30T10:50:25.000Z</time>
                <name>Trackpoint 4059</name>
            </trkpt>
            <trkpt lat="50.1132064" lon="8.781888">
                <ele>98.0</ele>
                <time>2020-08-30T10:50:27.000Z</time>
                <name>Trackpoint 4060</name>
            </trkpt>
            <trkpt lat="50.1130976" lon="8.7819048">
                <ele>99.0</ele>
                <time>2020-08-30T10:50:29.000Z</time>
                <name>Trackpoint 4061</name>
            </trkpt>
            <trkpt lat="50.1129888" lon="8.7819408">
                <ele>99.0</ele>
                <time>2020-08-30T10:50:31.000Z</time>
                <name>Trackpoint 4062</name>
            </trkpt>
            <trkpt lat="50.1128896" lon="8.781988">
                <ele>99.0</ele>
                <time>2020-08-30T10:50:33.000Z</time>
                <name>Trackpoint 4063</name>
            </trkpt>
            <trkpt lat="50.1128" lon="8.7820328">
                <ele>99.0</ele>
                <time>2020-08-30T10:50:35.000Z</time>
                <name>Trackpoint 4064</name>
            </trkpt>
            <trkpt lat="50.1127168" lon="8.7820816">
                <ele>99.0</ele>
                <time>2020-08-30T10:50:37.000Z</time>
                <name>Trackpoint 4065</name>
            </trkpt>
            <trkpt lat="50.1126016" lon="8.7821032">
                <ele>99.0</ele>
                <time>2020-08-30T10:50:40.000Z</time>
                <name>Trackpoint 4066</name>
            </trkpt>
            <trkpt lat="50.1125024" lon="8.7820432">
                <ele>98.0</ele>
                <time>2020-08-30T10:50:43.000Z</time>
                <name>Trackpoint 4067</name>
            </trkpt>
            <trkpt lat="50.1124256" lon="8.7819768">
                <ele>99.0</ele>
                <time>2020-08-30T10:50:45.000Z</time>
                <name>Trackpoint 4068</name>
            </trkpt>
            <trkpt lat="50.112336" lon="8.7819216">
                <ele>99.0</ele>
                <time>2020-08-30T10:50:47.000Z</time>
                <name>Trackpoint 4069</name>
            </trkpt>
            <trkpt lat="50.11224" lon="8.7818448">
                <ele>99.0</ele>
                <time>2020-08-30T10:50:49.000Z</time>
                <name>Trackpoint 4070</name>
            </trkpt>
            <trkpt lat="50.112144" lon="8.7817696">
                <ele>99.0</ele>
                <time>2020-08-30T10:50:51.000Z</time>
                <name>Trackpoint 4071</name>
            </trkpt>
            <trkpt lat="50.1120544" lon="8.7817024">
                <ele>99.0</ele>
                <time>2020-08-30T10:50:53.000Z</time>
                <name>Trackpoint 4072</name>
            </trkpt>
            <trkpt lat="50.1119488" lon="8.78164">
                <ele>100.0</ele>
                <time>2020-08-30T10:50:55.000Z</time>
                <name>Trackpoint 4073</name>
            </trkpt>
            <trkpt lat="50.1118464" lon="8.7815736">
                <ele>100.0</ele>
                <time>2020-08-30T10:50:57.000Z</time>
                <name>Trackpoint 4074</name>
            </trkpt>
            <trkpt lat="50.1117504" lon="8.7815088">
                <ele>100.0</ele>
                <time>2020-08-30T10:50:59.000Z</time>
                <name>Trackpoint 4075</name>
            </trkpt>
            <trkpt lat="50.111664" lon="8.7814368">
                <ele>100.0</ele>
                <time>2020-08-30T10:51:01.000Z</time>
                <name>Trackpoint 4076</name>
            </trkpt>
            <trkpt lat="50.1115712" lon="8.7813752">
                <ele>100.0</ele>
                <time>2020-08-30T10:51:03.000Z</time>
                <name>Trackpoint 4077</name>
            </trkpt>
            <trkpt lat="50.1114816" lon="8.7813168">
                <ele>100.0</ele>
                <time>2020-08-30T10:51:05.000Z</time>
                <name>Trackpoint 4078</name>
            </trkpt>
            <trkpt lat="50.1113952" lon="8.7812632">
                <ele>100.0</ele>
                <time>2020-08-30T10:51:07.000Z</time>
                <name>Trackpoint 4079</name>
            </trkpt>
            <trkpt lat="50.1113056" lon="8.7812208">
                <ele>100.0</ele>
                <time>2020-08-30T10:51:09.000Z</time>
                <name>Trackpoint 4080</name>
            </trkpt>
            <trkpt lat="50.111216" lon="8.7811616">
                <ele>99.0</ele>
                <time>2020-08-30T10:51:11.000Z</time>
                <name>Trackpoint 4081</name>
            </trkpt>
            <trkpt lat="50.1111264" lon="8.7810848">
                <ele>99.0</ele>
                <time>2020-08-30T10:51:13.000Z</time>
                <name>Trackpoint 4082</name>
            </trkpt>
            <trkpt lat="50.111024" lon="8.7810048">
                <ele>99.0</ele>
                <time>2020-08-30T10:51:15.000Z</time>
                <name>Trackpoint 4083</name>
            </trkpt>
            <trkpt lat="50.110928" lon="8.7809432">
                <ele>98.0</ele>
                <time>2020-08-30T10:51:17.000Z</time>
                <name>Trackpoint 4084</name>
            </trkpt>
            <trkpt lat="50.110832" lon="8.7808904">
                <ele>99.0</ele>
                <time>2020-08-30T10:51:19.000Z</time>
                <name>Trackpoint 4085</name>
            </trkpt>
            <trkpt lat="50.1107296" lon="8.7808368">
                <ele>99.0</ele>
                <time>2020-08-30T10:51:21.000Z</time>
                <name>Trackpoint 4086</name>
            </trkpt>
            <trkpt lat="50.1106304" lon="8.7807512">
                <ele>100.0</ele>
                <time>2020-08-30T10:51:23.000Z</time>
                <name>Trackpoint 4087</name>
            </trkpt>
            <trkpt lat="50.1105376" lon="8.7806568">
                <ele>100.0</ele>
                <time>2020-08-30T10:51:25.000Z</time>
                <name>Trackpoint 4088</name>
            </trkpt>
            <trkpt lat="50.1104576" lon="8.7805272">
                <ele>99.0</ele>
                <time>2020-08-30T10:51:27.000Z</time>
                <name>Trackpoint 4089</name>
            </trkpt>
            <trkpt lat="50.1104" lon="8.7803632">
                <ele>99.0</ele>
                <time>2020-08-30T10:51:29.000Z</time>
                <name>Trackpoint 4090</name>
            </trkpt>
            <trkpt lat="50.1103808" lon="8.7802752">
                <ele>99.0</ele>
                <time>2020-08-30T10:51:30.000Z</time>
                <name>Trackpoint 4091</name>
            </trkpt>
            <trkpt lat="50.110352" lon="8.7801864">
                <ele>98.0</ele>
                <time>2020-08-30T10:51:31.000Z</time>
                <name>Trackpoint 4092</name>
            </trkpt>
            <trkpt lat="50.1102912" lon="8.7800328">
                <ele>98.0</ele>
                <time>2020-08-30T10:51:33.000Z</time>
                <name>Trackpoint 4093</name>
            </trkpt>
            <trkpt lat="50.1102272" lon="8.7798992">
                <ele>98.0</ele>
                <time>2020-08-30T10:51:35.000Z</time>
                <name>Trackpoint 4094</name>
            </trkpt>
            <trkpt lat="50.1101568" lon="8.7797768">
                <ele>98.0</ele>
                <time>2020-08-30T10:51:37.000Z</time>
                <name>Trackpoint 4095</name>
            </trkpt>
            <trkpt lat="50.110096" lon="8.7796568">
                <ele>98.0</ele>
                <time>2020-08-30T10:51:39.000Z</time>
                <name>Trackpoint 4096</name>
            </trkpt>
            <trkpt lat="50.1100448" lon="8.77952">
                <ele>99.0</ele>
                <time>2020-08-30T10:51:41.000Z</time>
                <name>Trackpoint 4097</name>
            </trkpt>
            <trkpt lat="50.109984" lon="8.7793848">
                <ele>98.0</ele>
                <time>2020-08-30T10:51:43.000Z</time>
                <name>Trackpoint 4098</name>
            </trkpt>
            <trkpt lat="50.1099232" lon="8.77926">
                <ele>98.0</ele>
                <time>2020-08-30T10:51:45.000Z</time>
                <name>Trackpoint 4099</name>
            </trkpt>
            <trkpt lat="50.1098656" lon="8.7791272">
                <ele>99.0</ele>
                <time>2020-08-30T10:51:47.000Z</time>
                <name>Trackpoint 4100</name>
            </trkpt>
            <trkpt lat="50.1098144" lon="8.7790048">
                <ele>99.0</ele>
                <time>2020-08-30T10:51:49.000Z</time>
                <name>Trackpoint 4101</name>
            </trkpt>
            <trkpt lat="50.1097664" lon="8.7788832">
                <ele>99.0</ele>
                <time>2020-08-30T10:51:51.000Z</time>
                <name>Trackpoint 4102</name>
            </trkpt>
            <trkpt lat="50.1097056" lon="8.7787536">
                <ele>99.0</ele>
                <time>2020-08-30T10:51:53.000Z</time>
                <name>Trackpoint 4103</name>
            </trkpt>
            <trkpt lat="50.1096512" lon="8.7786216">
                <ele>99.0</ele>
                <time>2020-08-30T10:51:55.000Z</time>
                <name>Trackpoint 4104</name>
            </trkpt>
            <trkpt lat="50.1095776" lon="8.7784864">
                <ele>99.0</ele>
                <time>2020-08-30T10:51:57.000Z</time>
                <name>Trackpoint 4105</name>
            </trkpt>
            <trkpt lat="50.1095072" lon="8.7783432">
                <ele>99.0</ele>
                <time>2020-08-30T10:51:59.000Z</time>
                <name>Trackpoint 4106</name>
            </trkpt>
            <trkpt lat="50.10944" lon="8.7782024">
                <ele>99.0</ele>
                <time>2020-08-30T10:52:01.000Z</time>
                <name>Trackpoint 4107</name>
            </trkpt>
            <trkpt lat="50.1093664" lon="8.7780584">
                <ele>99.0</ele>
                <time>2020-08-30T10:52:03.000Z</time>
                <name>Trackpoint 4108</name>
            </trkpt>
            <trkpt lat="50.1092832" lon="8.7779152">
                <ele>99.0</ele>
                <time>2020-08-30T10:52:05.000Z</time>
                <name>Trackpoint 4109</name>
            </trkpt>
            <trkpt lat="50.1092064" lon="8.7777768">
                <ele>98.0</ele>
                <time>2020-08-30T10:52:07.000Z</time>
                <name>Trackpoint 4110</name>
            </trkpt>
            <trkpt lat="50.1091264" lon="8.7776336">
                <ele>98.0</ele>
                <time>2020-08-30T10:52:09.000Z</time>
                <name>Trackpoint 4111</name>
            </trkpt>
            <trkpt lat="50.1090496" lon="8.7775">
                <ele>98.0</ele>
                <time>2020-08-30T10:52:11.000Z</time>
                <name>Trackpoint 4112</name>
            </trkpt>
            <trkpt lat="50.108976" lon="8.7773688">
                <ele>98.0</ele>
                <time>2020-08-30T10:52:13.000Z</time>
                <name>Trackpoint 4113</name>
            </trkpt>
            <trkpt lat="50.1089056" lon="8.7772328">
                <ele>98.0</ele>
                <time>2020-08-30T10:52:15.000Z</time>
                <name>Trackpoint 4114</name>
            </trkpt>
            <trkpt lat="50.108832" lon="8.7771032">
                <ele>98.0</ele>
                <time>2020-08-30T10:52:17.000Z</time>
                <name>Trackpoint 4115</name>
            </trkpt>
            <trkpt lat="50.1087808" lon="8.7769648">
                <ele>98.0</ele>
                <time>2020-08-30T10:52:19.000Z</time>
                <name>Trackpoint 4116</name>
            </trkpt>
            <trkpt lat="50.1087328" lon="8.7768432">
                <ele>98.0</ele>
                <time>2020-08-30T10:52:21.000Z</time>
                <name>Trackpoint 4117</name>
            </trkpt>
            <trkpt lat="50.1087296" lon="8.7767512">
                <ele>98.0</ele>
                <time>2020-08-30T10:52:23.000Z</time>
                <name>Trackpoint 4118</name>
            </trkpt>
            <trkpt lat="50.1086496" lon="8.7766888">
                <ele>99.0</ele>
                <time>2020-08-30T10:53:01.000Z</time>
                <name>Trackpoint 4119</name>
            </trkpt>
            <trkpt lat="50.1085984" lon="8.7765904">
                <ele>99.0</ele>
                <time>2020-08-30T10:53:04.000Z</time>
                <name>Trackpoint 4120</name>
            </trkpt>
            <trkpt lat="50.1085536" lon="8.7765032">
                <ele>99.0</ele>
                <time>2020-08-30T10:53:06.000Z</time>
                <name>Trackpoint 4121</name>
            </trkpt>
            <trkpt lat="50.1085056" lon="8.776412">
                <ele>99.0</ele>
                <time>2020-08-30T10:53:08.000Z</time>
                <name>Trackpoint 4122</name>
            </trkpt>
            <trkpt lat="50.1084544" lon="8.7763144">
                <ele>99.0</ele>
                <time>2020-08-30T10:53:10.000Z</time>
                <name>Trackpoint 4123</name>
            </trkpt>
            <trkpt lat="50.1084" lon="8.7762184">
                <ele>99.0</ele>
                <time>2020-08-30T10:53:12.000Z</time>
                <name>Trackpoint 4124</name>
            </trkpt>
            <trkpt lat="50.1083456" lon="8.7761136">
                <ele>99.0</ele>
                <time>2020-08-30T10:53:14.000Z</time>
                <name>Trackpoint 4125</name>
            </trkpt>
            <trkpt lat="50.108288" lon="8.7760032">
                <ele>99.0</ele>
                <time>2020-08-30T10:53:16.000Z</time>
                <name>Trackpoint 4126</name>
            </trkpt>
            <trkpt lat="50.1082304" lon="8.7758864">
                <ele>98.0</ele>
                <time>2020-08-30T10:53:18.000Z</time>
                <name>Trackpoint 4127</name>
            </trkpt>
            <trkpt lat="50.1081696" lon="8.7757656">
                <ele>98.0</ele>
                <time>2020-08-30T10:53:20.000Z</time>
                <name>Trackpoint 4128</name>
            </trkpt>
            <trkpt lat="50.108112" lon="8.7756384">
                <ele>98.0</ele>
                <time>2020-08-30T10:53:22.000Z</time>
                <name>Trackpoint 4129</name>
            </trkpt>
            <trkpt lat="50.1080576" lon="8.7755168">
                <ele>97.0</ele>
                <time>2020-08-30T10:53:24.000Z</time>
                <name>Trackpoint 4130</name>
            </trkpt>
            <trkpt lat="50.1080032" lon="8.7753936">
                <ele>98.0</ele>
                <time>2020-08-30T10:53:26.000Z</time>
                <name>Trackpoint 4131</name>
            </trkpt>
            <trkpt lat="50.1079456" lon="8.7752648">
                <ele>98.0</ele>
                <time>2020-08-30T10:53:28.000Z</time>
                <name>Trackpoint 4132</name>
            </trkpt>
            <trkpt lat="50.1078912" lon="8.7751312">
                <ele>98.0</ele>
                <time>2020-08-30T10:53:30.000Z</time>
                <name>Trackpoint 4133</name>
            </trkpt>
            <trkpt lat="50.1078368" lon="8.774992">
                <ele>99.0</ele>
                <time>2020-08-30T10:53:32.000Z</time>
                <name>Trackpoint 4134</name>
            </trkpt>
            <trkpt lat="50.107792" lon="8.774852">
                <ele>99.0</ele>
                <time>2020-08-30T10:53:34.000Z</time>
                <name>Trackpoint 4135</name>
            </trkpt>
            <trkpt lat="50.1077504" lon="8.7747048">
                <ele>99.0</ele>
                <time>2020-08-30T10:53:36.000Z</time>
                <name>Trackpoint 4136</name>
            </trkpt>
            <trkpt lat="50.1077152" lon="8.7745552">
                <ele>99.0</ele>
                <time>2020-08-30T10:53:38.000Z</time>
                <name>Trackpoint 4137</name>
            </trkpt>
            <trkpt lat="50.10768" lon="8.7744048">
                <ele>99.0</ele>
                <time>2020-08-30T10:53:40.000Z</time>
                <name>Trackpoint 4138</name>
            </trkpt>
            <trkpt lat="50.107648" lon="8.7742464">
                <ele>99.0</ele>
                <time>2020-08-30T10:53:42.000Z</time>
                <name>Trackpoint 4139</name>
            </trkpt>
            <trkpt lat="50.1076096" lon="8.7740816">
                <ele>99.0</ele>
                <time>2020-08-30T10:53:44.000Z</time>
                <name>Trackpoint 4140</name>
            </trkpt>
            <trkpt lat="50.1075744" lon="8.7739232">
                <ele>99.0</ele>
                <time>2020-08-30T10:53:46.000Z</time>
                <name>Trackpoint 4141</name>
            </trkpt>
            <trkpt lat="50.1075488" lon="8.7737688">
                <ele>98.0</ele>
                <time>2020-08-30T10:53:48.000Z</time>
                <name>Trackpoint 4142</name>
            </trkpt>
            <trkpt lat="50.1075136" lon="8.7736256">
                <ele>98.0</ele>
                <time>2020-08-30T10:53:50.000Z</time>
                <name>Trackpoint 4143</name>
            </trkpt>
            <trkpt lat="50.1074816" lon="8.7734736">
                <ele>98.0</ele>
                <time>2020-08-30T10:53:52.000Z</time>
                <name>Trackpoint 4144</name>
            </trkpt>
            <trkpt lat="50.107456" lon="8.773316">
                <ele>98.0</ele>
                <time>2020-08-30T10:53:54.000Z</time>
                <name>Trackpoint 4145</name>
            </trkpt>
            <trkpt lat="50.1074336" lon="8.7731552">
                <ele>98.0</ele>
                <time>2020-08-30T10:53:56.000Z</time>
                <name>Trackpoint 4146</name>
            </trkpt>
            <trkpt lat="50.1074112" lon="8.7729904">
                <ele>98.0</ele>
                <time>2020-08-30T10:53:58.000Z</time>
                <name>Trackpoint 4147</name>
            </trkpt>
            <trkpt lat="50.1073792" lon="8.7728264">
                <ele>99.0</ele>
                <time>2020-08-30T10:54:00.000Z</time>
                <name>Trackpoint 4148</name>
            </trkpt>
            <trkpt lat="50.1073536" lon="8.772668">
                <ele>99.0</ele>
                <time>2020-08-30T10:54:02.000Z</time>
                <name>Trackpoint 4149</name>
            </trkpt>
            <trkpt lat="50.1073312" lon="8.7725088">
                <ele>99.0</ele>
                <time>2020-08-30T10:54:04.000Z</time>
                <name>Trackpoint 4150</name>
            </trkpt>
            <trkpt lat="50.107312" lon="8.7723368">
                <ele>99.0</ele>
                <time>2020-08-30T10:54:06.000Z</time>
                <name>Trackpoint 4151</name>
            </trkpt>
            <trkpt lat="50.107296" lon="8.7721704">
                <ele>100.0</ele>
                <time>2020-08-30T10:54:08.000Z</time>
                <name>Trackpoint 4152</name>
            </trkpt>
            <trkpt lat="50.1072736" lon="8.7719968">
                <ele>100.0</ele>
                <time>2020-08-30T10:54:10.000Z</time>
                <name>Trackpoint 4153</name>
            </trkpt>
            <trkpt lat="50.1072704" lon="8.77182">
                <ele>100.0</ele>
                <time>2020-08-30T10:54:12.000Z</time>
                <name>Trackpoint 4154</name>
            </trkpt>
            <trkpt lat="50.1072736" lon="8.771644">
                <ele>101.0</ele>
                <time>2020-08-30T10:54:14.000Z</time>
                <name>Trackpoint 4155</name>
            </trkpt>
            <trkpt lat="50.10728" lon="8.771468">
                <ele>101.0</ele>
                <time>2020-08-30T10:54:16.000Z</time>
                <name>Trackpoint 4156</name>
            </trkpt>
            <trkpt lat="50.1072896" lon="8.7712968">
                <ele>101.0</ele>
                <time>2020-08-30T10:54:18.000Z</time>
                <name>Trackpoint 4157</name>
            </trkpt>
            <trkpt lat="50.1072992" lon="8.7711232">
                <ele>101.0</ele>
                <time>2020-08-30T10:54:20.000Z</time>
                <name>Trackpoint 4158</name>
            </trkpt>
            <trkpt lat="50.1073088" lon="8.7709488">
                <ele>102.0</ele>
                <time>2020-08-30T10:54:22.000Z</time>
                <name>Trackpoint 4159</name>
            </trkpt>
            <trkpt lat="50.107312" lon="8.7707768">
                <ele>102.0</ele>
                <time>2020-08-30T10:54:24.000Z</time>
                <name>Trackpoint 4160</name>
            </trkpt>
            <trkpt lat="50.1073152" lon="8.7706136">
                <ele>102.0</ele>
                <time>2020-08-30T10:54:26.000Z</time>
                <name>Trackpoint 4161</name>
            </trkpt>
            <trkpt lat="50.107328" lon="8.770456">
                <ele>102.0</ele>
                <time>2020-08-30T10:54:28.000Z</time>
                <name>Trackpoint 4162</name>
            </trkpt>
            <trkpt lat="50.1073312" lon="8.7702936">
                <ele>102.0</ele>
                <time>2020-08-30T10:54:30.000Z</time>
                <name>Trackpoint 4163</name>
            </trkpt>
            <trkpt lat="50.1073408" lon="8.7701368">
                <ele>102.0</ele>
                <time>2020-08-30T10:54:32.000Z</time>
                <name>Trackpoint 4164</name>
            </trkpt>
            <trkpt lat="50.10736" lon="8.7699848">
                <ele>102.0</ele>
                <time>2020-08-30T10:54:34.000Z</time>
                <name>Trackpoint 4165</name>
            </trkpt>
            <trkpt lat="50.1073792" lon="8.7698408">
                <ele>102.0</ele>
                <time>2020-08-30T10:54:36.000Z</time>
                <name>Trackpoint 4166</name>
            </trkpt>
            <trkpt lat="50.107392" lon="8.7697032">
                <ele>102.0</ele>
                <time>2020-08-30T10:54:38.000Z</time>
                <name>Trackpoint 4167</name>
            </trkpt>
            <trkpt lat="50.1074112" lon="8.7695952">
                <ele>101.0</ele>
                <time>2020-08-30T10:54:40.000Z</time>
                <name>Trackpoint 4168</name>
            </trkpt>
            <trkpt lat="50.10744" lon="8.7696888">
                <ele>101.0</ele>
                <time>2020-08-30T10:54:54.000Z</time>
                <name>Trackpoint 4169</name>
            </trkpt>
            <trkpt lat="50.1074304" lon="8.7695952">
                <ele>101.0</ele>
                <time>2020-08-30T10:55:27.000Z</time>
                <name>Trackpoint 4170</name>
            </trkpt>
            <trkpt lat="50.10744" lon="8.7694552">
                <ele>100.0</ele>
                <time>2020-08-30T10:55:30.000Z</time>
                <name>Trackpoint 4171</name>
            </trkpt>
            <trkpt lat="50.1074496" lon="8.7693344">
                <ele>100.0</ele>
                <time>2020-08-30T10:55:32.000Z</time>
                <name>Trackpoint 4172</name>
            </trkpt>
            <trkpt lat="50.1074624" lon="8.7691984">
                <ele>101.0</ele>
                <time>2020-08-30T10:55:34.000Z</time>
                <name>Trackpoint 4173</name>
            </trkpt>
            <trkpt lat="50.107488" lon="8.7690584">
                <ele>101.0</ele>
                <time>2020-08-30T10:55:36.000Z</time>
                <name>Trackpoint 4174</name>
            </trkpt>
            <trkpt lat="50.1075168" lon="8.7689048">
                <ele>101.0</ele>
                <time>2020-08-30T10:55:38.000Z</time>
                <name>Trackpoint 4175</name>
            </trkpt>
            <trkpt lat="50.1075424" lon="8.768748">
                <ele>101.0</ele>
                <time>2020-08-30T10:55:40.000Z</time>
                <name>Trackpoint 4176</name>
            </trkpt>
            <trkpt lat="50.1075744" lon="8.768592">
                <ele>102.0</ele>
                <time>2020-08-30T10:55:42.000Z</time>
                <name>Trackpoint 4177</name>
            </trkpt>
            <trkpt lat="50.1076" lon="8.7684288">
                <ele>102.0</ele>
                <time>2020-08-30T10:55:44.000Z</time>
                <name>Trackpoint 4178</name>
            </trkpt>
            <trkpt lat="50.1076352" lon="8.7682688">
                <ele>102.0</ele>
                <time>2020-08-30T10:55:46.000Z</time>
                <name>Trackpoint 4179</name>
            </trkpt>
            <trkpt lat="50.1076672" lon="8.7681104">
                <ele>102.0</ele>
                <time>2020-08-30T10:55:48.000Z</time>
                <name>Trackpoint 4180</name>
            </trkpt>
            <trkpt lat="50.1076992" lon="8.7679552">
                <ele>102.0</ele>
                <time>2020-08-30T10:55:50.000Z</time>
                <name>Trackpoint 4181</name>
            </trkpt>
            <trkpt lat="50.107728" lon="8.7677944">
                <ele>102.0</ele>
                <time>2020-08-30T10:55:52.000Z</time>
                <name>Trackpoint 4182</name>
            </trkpt>
            <trkpt lat="50.1077536" lon="8.7676296">
                <ele>102.0</ele>
                <time>2020-08-30T10:55:54.000Z</time>
                <name>Trackpoint 4183</name>
            </trkpt>
            <trkpt lat="50.1077856" lon="8.7674704">
                <ele>101.0</ele>
                <time>2020-08-30T10:55:56.000Z</time>
                <name>Trackpoint 4184</name>
            </trkpt>
            <trkpt lat="50.1078144" lon="8.7673128">
                <ele>102.0</ele>
                <time>2020-08-30T10:55:58.000Z</time>
                <name>Trackpoint 4185</name>
            </trkpt>
            <trkpt lat="50.1078464" lon="8.7671616">
                <ele>102.0</ele>
                <time>2020-08-30T10:56:00.000Z</time>
                <name>Trackpoint 4186</name>
            </trkpt>
            <trkpt lat="50.107872" lon="8.7670072">
                <ele>102.0</ele>
                <time>2020-08-30T10:56:02.000Z</time>
                <name>Trackpoint 4187</name>
            </trkpt>
            <trkpt lat="50.107904" lon="8.76686">
                <ele>102.0</ele>
                <time>2020-08-30T10:56:04.000Z</time>
                <name>Trackpoint 4188</name>
            </trkpt>
            <trkpt lat="50.107936" lon="8.76672">
                <ele>102.0</ele>
                <time>2020-08-30T10:56:06.000Z</time>
                <name>Trackpoint 4189</name>
            </trkpt>
            <trkpt lat="50.1079648" lon="8.766572">
                <ele>102.0</ele>
                <time>2020-08-30T10:56:08.000Z</time>
                <name>Trackpoint 4190</name>
            </trkpt>
            <trkpt lat="50.1079904" lon="8.7664248">
                <ele>102.0</ele>
                <time>2020-08-30T10:56:10.000Z</time>
                <name>Trackpoint 4191</name>
            </trkpt>
            <trkpt lat="50.1080192" lon="8.7662784">
                <ele>102.0</ele>
                <time>2020-08-30T10:56:12.000Z</time>
                <name>Trackpoint 4192</name>
            </trkpt>
            <trkpt lat="50.1080512" lon="8.7661384">
                <ele>102.0</ele>
                <time>2020-08-30T10:56:14.000Z</time>
                <name>Trackpoint 4193</name>
            </trkpt>
            <trkpt lat="50.1080768" lon="8.7660216">
                <ele>102.0</ele>
                <time>2020-08-30T10:56:16.000Z</time>
                <name>Trackpoint 4194</name>
            </trkpt>
            <trkpt lat="50.1081088" lon="8.7659304">
                <ele>102.0</ele>
                <time>2020-08-30T10:56:18.000Z</time>
                <name>Trackpoint 4195</name>
            </trkpt>
            <trkpt lat="50.108128" lon="8.7658368">
                <ele>100.0</ele>
                <time>2020-08-30T10:56:55.000Z</time>
                <name>Trackpoint 4196</name>
            </trkpt>
            <trkpt lat="50.1081632" lon="8.765752">
                <ele>100.0</ele>
                <time>2020-08-30T10:57:14.000Z</time>
                <name>Trackpoint 4197</name>
            </trkpt>
            <trkpt lat="50.1081696" lon="8.7656568">
                <ele>100.0</ele>
                <time>2020-08-30T10:57:25.000Z</time>
                <name>Trackpoint 4198</name>
            </trkpt>
            <trkpt lat="50.1082016" lon="8.7655648">
                <ele>100.0</ele>
                <time>2020-08-30T10:57:34.000Z</time>
                <name>Trackpoint 4199</name>
            </trkpt>
            <trkpt lat="50.1082112" lon="8.7654512">
                <ele>99.0</ele>
                <time>2020-08-30T10:58:13.000Z</time>
                <name>Trackpoint 4200</name>
            </trkpt>
            <trkpt lat="50.1082336" lon="8.7653352">
                <ele>99.0</ele>
                <time>2020-08-30T10:58:16.000Z</time>
                <name>Trackpoint 4201</name>
            </trkpt>
            <trkpt lat="50.1082624" lon="8.7652368">
                <ele>99.0</ele>
                <time>2020-08-30T10:58:18.000Z</time>
                <name>Trackpoint 4202</name>
            </trkpt>
            <trkpt lat="50.1082912" lon="8.7651256">
                <ele>99.0</ele>
                <time>2020-08-30T10:58:20.000Z</time>
                <name>Trackpoint 4203</name>
            </trkpt>
            <trkpt lat="50.1083232" lon="8.765012">
                <ele>98.0</ele>
                <time>2020-08-30T10:58:22.000Z</time>
                <name>Trackpoint 4204</name>
            </trkpt>
            <trkpt lat="50.1083648" lon="8.7649024">
                <ele>98.0</ele>
                <time>2020-08-30T10:58:24.000Z</time>
                <name>Trackpoint 4205</name>
            </trkpt>
            <trkpt lat="50.108416" lon="8.7647936">
                <ele>98.0</ele>
                <time>2020-08-30T10:58:26.000Z</time>
                <name>Trackpoint 4206</name>
            </trkpt>
            <trkpt lat="50.1084672" lon="8.7646784">
                <ele>98.0</ele>
                <time>2020-08-30T10:58:28.000Z</time>
                <name>Trackpoint 4207</name>
            </trkpt>
            <trkpt lat="50.1085088" lon="8.7645552">
                <ele>98.0</ele>
                <time>2020-08-30T10:58:30.000Z</time>
                <name>Trackpoint 4208</name>
            </trkpt>
            <trkpt lat="50.108544" lon="8.7644264">
                <ele>98.0</ele>
                <time>2020-08-30T10:58:32.000Z</time>
                <name>Trackpoint 4209</name>
            </trkpt>
            <trkpt lat="50.1085728" lon="8.7642984">
                <ele>98.0</ele>
                <time>2020-08-30T10:58:34.000Z</time>
                <name>Trackpoint 4210</name>
            </trkpt>
            <trkpt lat="50.1086112" lon="8.76418">
                <ele>98.0</ele>
                <time>2020-08-30T10:58:36.000Z</time>
                <name>Trackpoint 4211</name>
            </trkpt>
            <trkpt lat="50.1086496" lon="8.7640688">
                <ele>98.0</ele>
                <time>2020-08-30T10:58:38.000Z</time>
                <name>Trackpoint 4212</name>
            </trkpt>
            <trkpt lat="50.1086784" lon="8.7639512">
                <ele>97.0</ele>
                <time>2020-08-30T10:58:40.000Z</time>
                <name>Trackpoint 4213</name>
            </trkpt>
            <trkpt lat="50.10872" lon="8.76384">
                <ele>97.0</ele>
                <time>2020-08-30T10:58:42.000Z</time>
                <name>Trackpoint 4214</name>
            </trkpt>
            <trkpt lat="50.1087648" lon="8.7637328">
                <ele>97.0</ele>
                <time>2020-08-30T10:58:44.000Z</time>
                <name>Trackpoint 4215</name>
            </trkpt>
            <trkpt lat="50.1088032" lon="8.7636336">
                <ele>97.0</ele>
                <time>2020-08-30T10:58:46.000Z</time>
                <name>Trackpoint 4216</name>
            </trkpt>
            <trkpt lat="50.108832" lon="8.7635336">
                <ele>97.0</ele>
                <time>2020-08-30T10:58:48.000Z</time>
                <name>Trackpoint 4217</name>
            </trkpt>
            <trkpt lat="50.1088704" lon="8.7634232">
                <ele>97.0</ele>
                <time>2020-08-30T10:58:51.000Z</time>
                <name>Trackpoint 4218</name>
            </trkpt>
            <trkpt lat="50.1088992" lon="8.7633264">
                <ele>97.0</ele>
                <time>2020-08-30T10:59:30.000Z</time>
                <name>Trackpoint 4219</name>
            </trkpt>
            <trkpt lat="50.1089216" lon="8.7632368">
                <ele>98.0</ele>
                <time>2020-08-30T10:59:35.000Z</time>
                <name>Trackpoint 4220</name>
            </trkpt>
            <trkpt lat="50.1089472" lon="8.7631456">
                <ele>97.0</ele>
                <time>2020-08-30T10:59:39.000Z</time>
                <name>Trackpoint 4221</name>
            </trkpt>
            <trkpt lat="50.1089824" lon="8.76306">
                <ele>97.0</ele>
                <time>2020-08-30T10:59:43.000Z</time>
                <name>Trackpoint 4222</name>
            </trkpt>
            <trkpt lat="50.1090048" lon="8.7629584">
                <ele>98.0</ele>
                <time>2020-08-30T10:59:46.000Z</time>
                <name>Trackpoint 4223</name>
            </trkpt>
            <trkpt lat="50.1090304" lon="8.762852">
                <ele>98.0</ele>
                <time>2020-08-30T10:59:48.000Z</time>
                <name>Trackpoint 4224</name>
            </trkpt>
            <trkpt lat="50.1090656" lon="8.7627552">
                <ele>98.0</ele>
                <time>2020-08-30T10:59:50.000Z</time>
                <name>Trackpoint 4225</name>
            </trkpt>
            <trkpt lat="50.109104" lon="8.76266">
                <ele>98.0</ele>
                <time>2020-08-30T10:59:52.000Z</time>
                <name>Trackpoint 4226</name>
            </trkpt>
            <trkpt lat="50.1091456" lon="8.7625536">
                <ele>98.0</ele>
                <time>2020-08-30T10:59:54.000Z</time>
                <name>Trackpoint 4227</name>
            </trkpt>
            <trkpt lat="50.109184" lon="8.76244">
                <ele>98.0</ele>
                <time>2020-08-30T10:59:56.000Z</time>
                <name>Trackpoint 4228</name>
            </trkpt>
            <trkpt lat="50.1092416" lon="8.7623464">
                <ele>98.0</ele>
                <time>2020-08-30T10:59:58.000Z</time>
                <name>Trackpoint 4229</name>
            </trkpt>
            <trkpt lat="50.1093216" lon="8.7622736">
                <ele>98.0</ele>
                <time>2020-08-30T11:00:00.000Z</time>
                <name>Trackpoint 4230</name>
            </trkpt>
            <trkpt lat="50.1093984" lon="8.7621968">
                <ele>98.0</ele>
                <time>2020-08-30T11:00:02.000Z</time>
                <name>Trackpoint 4231</name>
            </trkpt>
            <trkpt lat="50.1094592" lon="8.7620896">
                <ele>98.0</ele>
                <time>2020-08-30T11:00:04.000Z</time>
                <name>Trackpoint 4232</name>
            </trkpt>
            <trkpt lat="50.10952" lon="8.761976">
                <ele>98.0</ele>
                <time>2020-08-30T11:00:06.000Z</time>
                <name>Trackpoint 4233</name>
            </trkpt>
            <trkpt lat="50.1095776" lon="8.7618568">
                <ele>98.0</ele>
                <time>2020-08-30T11:00:08.000Z</time>
                <name>Trackpoint 4234</name>
            </trkpt>
            <trkpt lat="50.1096384" lon="8.7617352">
                <ele>98.0</ele>
                <time>2020-08-30T11:00:10.000Z</time>
                <name>Trackpoint 4235</name>
            </trkpt>
            <trkpt lat="50.109696" lon="8.761608">
                <ele>98.0</ele>
                <time>2020-08-30T11:00:12.000Z</time>
                <name>Trackpoint 4236</name>
            </trkpt>
            <trkpt lat="50.1097568" lon="8.761488">
                <ele>98.0</ele>
                <time>2020-08-30T11:00:14.000Z</time>
                <name>Trackpoint 4237</name>
            </trkpt>
            <trkpt lat="50.1098144" lon="8.7613688">
                <ele>98.0</ele>
                <time>2020-08-30T11:00:16.000Z</time>
                <name>Trackpoint 4238</name>
            </trkpt>
            <trkpt lat="50.1098784" lon="8.7612464">
                <ele>99.0</ele>
                <time>2020-08-30T11:00:18.000Z</time>
                <name>Trackpoint 4239</name>
            </trkpt>
            <trkpt lat="50.1099392" lon="8.7611288">
                <ele>99.0</ele>
                <time>2020-08-30T11:00:20.000Z</time>
                <name>Trackpoint 4240</name>
            </trkpt>
            <trkpt lat="50.1099968" lon="8.7610032">
                <ele>99.0</ele>
                <time>2020-08-30T11:00:22.000Z</time>
                <name>Trackpoint 4241</name>
            </trkpt>
            <trkpt lat="50.1100576" lon="8.7608768">
                <ele>99.0</ele>
                <time>2020-08-30T11:00:24.000Z</time>
                <name>Trackpoint 4242</name>
            </trkpt>
            <trkpt lat="50.1101184" lon="8.7607496">
                <ele>99.0</ele>
                <time>2020-08-30T11:00:26.000Z</time>
                <name>Trackpoint 4243</name>
            </trkpt>
            <trkpt lat="50.1101728" lon="8.7606232">
                <ele>99.0</ele>
                <time>2020-08-30T11:00:28.000Z</time>
                <name>Trackpoint 4244</name>
            </trkpt>
            <trkpt lat="50.1102272" lon="8.7604888">
                <ele>100.0</ele>
                <time>2020-08-30T11:00:30.000Z</time>
                <name>Trackpoint 4245</name>
            </trkpt>
            <trkpt lat="50.110272" lon="8.7603616">
                <ele>99.0</ele>
                <time>2020-08-30T11:00:32.000Z</time>
                <name>Trackpoint 4246</name>
            </trkpt>
            <trkpt lat="50.11032" lon="8.7602368">
                <ele>99.0</ele>
                <time>2020-08-30T11:00:34.000Z</time>
                <name>Trackpoint 4247</name>
            </trkpt>
            <trkpt lat="50.1103712" lon="8.76012">
                <ele>99.0</ele>
                <time>2020-08-30T11:00:36.000Z</time>
                <name>Trackpoint 4248</name>
            </trkpt>
            <trkpt lat="50.110432" lon="8.76">
                <ele>100.0</ele>
                <time>2020-08-30T11:00:38.000Z</time>
                <name>Trackpoint 4249</name>
            </trkpt>
            <trkpt lat="50.1104928" lon="8.7598784">
                <ele>100.0</ele>
                <time>2020-08-30T11:00:40.000Z</time>
                <name>Trackpoint 4250</name>
            </trkpt>
            <trkpt lat="50.1105504" lon="8.7597512">
                <ele>100.0</ele>
                <time>2020-08-30T11:00:42.000Z</time>
                <name>Trackpoint 4251</name>
            </trkpt>
            <trkpt lat="50.1106048" lon="8.7596352">
                <ele>100.0</ele>
                <time>2020-08-30T11:00:44.000Z</time>
                <name>Trackpoint 4252</name>
            </trkpt>
            <trkpt lat="50.110656" lon="8.7595128">
                <ele>99.0</ele>
                <time>2020-08-30T11:00:46.000Z</time>
                <name>Trackpoint 4253</name>
            </trkpt>
            <trkpt lat="50.1107168" lon="8.7593984">
                <ele>99.0</ele>
                <time>2020-08-30T11:00:48.000Z</time>
                <name>Trackpoint 4254</name>
            </trkpt>
            <trkpt lat="50.1107744" lon="8.7592888">
                <ele>99.0</ele>
                <time>2020-08-30T11:00:50.000Z</time>
                <name>Trackpoint 4255</name>
            </trkpt>
            <trkpt lat="50.1108288" lon="8.7591696">
                <ele>99.0</ele>
                <time>2020-08-30T11:00:52.000Z</time>
                <name>Trackpoint 4256</name>
            </trkpt>
            <trkpt lat="50.1108864" lon="8.7590448">
                <ele>99.0</ele>
                <time>2020-08-30T11:00:54.000Z</time>
                <name>Trackpoint 4257</name>
            </trkpt>
            <trkpt lat="50.110944" lon="8.758912">
                <ele>99.0</ele>
                <time>2020-08-30T11:00:56.000Z</time>
                <name>Trackpoint 4258</name>
            </trkpt>
            <trkpt lat="50.110992" lon="8.7587856">
                <ele>99.0</ele>
                <time>2020-08-30T11:00:58.000Z</time>
                <name>Trackpoint 4259</name>
            </trkpt>
            <trkpt lat="50.1110464" lon="8.7586632">
                <ele>99.0</ele>
                <time>2020-08-30T11:01:00.000Z</time>
                <name>Trackpoint 4260</name>
            </trkpt>
            <trkpt lat="50.1111072" lon="8.7585352">
                <ele>99.0</ele>
                <time>2020-08-30T11:01:02.000Z</time>
                <name>Trackpoint 4261</name>
            </trkpt>
            <trkpt lat="50.1111616" lon="8.7584152">
                <ele>99.0</ele>
                <time>2020-08-30T11:01:04.000Z</time>
                <name>Trackpoint 4262</name>
            </trkpt>
            <trkpt lat="50.1112256" lon="8.7583016">
                <ele>99.0</ele>
                <time>2020-08-30T11:01:06.000Z</time>
                <name>Trackpoint 4263</name>
            </trkpt>
            <trkpt lat="50.1112864" lon="8.7582016">
                <ele>99.0</ele>
                <time>2020-08-30T11:01:08.000Z</time>
                <name>Trackpoint 4264</name>
            </trkpt>
            <trkpt lat="50.111344" lon="8.7581216">
                <ele>99.0</ele>
                <time>2020-08-30T11:01:10.000Z</time>
                <name>Trackpoint 4265</name>
            </trkpt>
            <trkpt lat="50.1114464" lon="8.7580568">
                <ele>99.0</ele>
                <time>2020-08-30T11:01:13.000Z</time>
                <name>Trackpoint 4266</name>
            </trkpt>
            <trkpt lat="50.1115296" lon="8.7579944">
                <ele>99.0</ele>
                <time>2020-08-30T11:01:16.000Z</time>
                <name>Trackpoint 4267</name>
            </trkpt>
            <trkpt lat="50.1115936" lon="8.7579032">
                <ele>98.0</ele>
                <time>2020-08-30T11:01:20.000Z</time>
                <name>Trackpoint 4268</name>
            </trkpt>
            <trkpt lat="50.1116512" lon="8.7578296">
                <ele>99.0</ele>
                <time>2020-08-30T11:02:02.000Z</time>
                <name>Trackpoint 4269</name>
            </trkpt>
            <trkpt lat="50.1117216" lon="8.7577264">
                <ele>99.0</ele>
                <time>2020-08-30T11:02:05.000Z</time>
                <name>Trackpoint 4270</name>
            </trkpt>
            <trkpt lat="50.1117792" lon="8.7576464">
                <ele>99.0</ele>
                <time>2020-08-30T11:02:07.000Z</time>
                <name>Trackpoint 4271</name>
            </trkpt>
            <trkpt lat="50.1118432" lon="8.757568">
                <ele>99.0</ele>
                <time>2020-08-30T11:02:09.000Z</time>
                <name>Trackpoint 4272</name>
            </trkpt>
            <trkpt lat="50.1119104" lon="8.7575016">
                <ele>99.0</ele>
                <time>2020-08-30T11:02:11.000Z</time>
                <name>Trackpoint 4273</name>
            </trkpt>
            <trkpt lat="50.1120064" lon="8.757412">
                <ele>99.0</ele>
                <time>2020-08-30T11:02:13.000Z</time>
                <name>Trackpoint 4274</name>
            </trkpt>
            <trkpt lat="50.1120704" lon="8.7573168">
                <ele>99.0</ele>
                <time>2020-08-30T11:02:15.000Z</time>
                <name>Trackpoint 4275</name>
            </trkpt>
            <trkpt lat="50.1121376" lon="8.7572184">
                <ele>99.0</ele>
                <time>2020-08-30T11:02:17.000Z</time>
                <name>Trackpoint 4276</name>
            </trkpt>
            <trkpt lat="50.1121952" lon="8.7571136">
                <ele>99.0</ele>
                <time>2020-08-30T11:02:19.000Z</time>
                <name>Trackpoint 4277</name>
            </trkpt>
            <trkpt lat="50.112256" lon="8.7570016">
                <ele>99.0</ele>
                <time>2020-08-30T11:02:21.000Z</time>
                <name>Trackpoint 4278</name>
            </trkpt>
            <trkpt lat="50.1123136" lon="8.7569">
                <ele>99.0</ele>
                <time>2020-08-30T11:02:23.000Z</time>
                <name>Trackpoint 4279</name>
            </trkpt>
            <trkpt lat="50.1123616" lon="8.7567984">
                <ele>99.0</ele>
                <time>2020-08-30T11:02:25.000Z</time>
                <name>Trackpoint 4280</name>
            </trkpt>
            <trkpt lat="50.1124128" lon="8.7567032">
                <ele>99.0</ele>
                <time>2020-08-30T11:02:27.000Z</time>
                <name>Trackpoint 4281</name>
            </trkpt>
            <trkpt lat="50.1124512" lon="8.7566032">
                <ele>99.0</ele>
                <time>2020-08-30T11:02:29.000Z</time>
                <name>Trackpoint 4282</name>
            </trkpt>
            <trkpt lat="50.1124736" lon="8.7564952">
                <ele>99.0</ele>
                <time>2020-08-30T11:02:31.000Z</time>
                <name>Trackpoint 4283</name>
            </trkpt>
            <trkpt lat="50.1124768" lon="8.7563648">
                <ele>99.0</ele>
                <time>2020-08-30T11:02:33.000Z</time>
                <name>Trackpoint 4284</name>
            </trkpt>
            <trkpt lat="50.1124768" lon="8.7562376">
                <ele>99.0</ele>
                <time>2020-08-30T11:02:35.000Z</time>
                <name>Trackpoint 4285</name>
            </trkpt>
            <trkpt lat="50.1124736" lon="8.7561184">
                <ele>98.0</ele>
                <time>2020-08-30T11:02:37.000Z</time>
                <name>Trackpoint 4286</name>
            </trkpt>
            <trkpt lat="50.1124832" lon="8.7560184">
                <ele>98.0</ele>
                <time>2020-08-30T11:02:39.000Z</time>
                <name>Trackpoint 4287</name>
            </trkpt>
            <trkpt lat="50.1124992" lon="8.7559248">
                <ele>98.0</ele>
                <time>2020-08-30T11:02:41.000Z</time>
                <name>Trackpoint 4288</name>
            </trkpt>
            <trkpt lat="50.1125152" lon="8.755832">
                <ele>99.0</ele>
                <time>2020-08-30T11:02:44.000Z</time>
                <name>Trackpoint 4289</name>
            </trkpt>
            <trkpt lat="50.112544" lon="8.755736">
                <ele>99.0</ele>
                <time>2020-08-30T11:02:58.000Z</time>
                <name>Trackpoint 4290</name>
            </trkpt>
            <trkpt lat="50.1125664" lon="8.75564">
                <ele>99.0</ele>
                <time>2020-08-30T11:03:01.000Z</time>
                <name>Trackpoint 4291</name>
            </trkpt>
            <trkpt lat="50.1125856" lon="8.7555416">
                <ele>99.0</ele>
                <time>2020-08-30T11:03:04.000Z</time>
                <name>Trackpoint 4292</name>
            </trkpt>
            <trkpt lat="50.112624" lon="8.7554448">
                <ele>99.0</ele>
                <time>2020-08-30T11:03:07.000Z</time>
                <name>Trackpoint 4293</name>
            </trkpt>
            <trkpt lat="50.1126432" lon="8.7553416">
                <ele>99.0</ele>
                <time>2020-08-30T11:03:09.000Z</time>
                <name>Trackpoint 4294</name>
            </trkpt>
            <trkpt lat="50.1126592" lon="8.7552368">
                <ele>99.0</ele>
                <time>2020-08-30T11:03:11.000Z</time>
                <name>Trackpoint 4295</name>
            </trkpt>
            <trkpt lat="50.1126624" lon="8.7551144">
                <ele>99.0</ele>
                <time>2020-08-30T11:03:13.000Z</time>
                <name>Trackpoint 4296</name>
            </trkpt>
            <trkpt lat="50.1126976" lon="8.7550048">
                <ele>99.0</ele>
                <time>2020-08-30T11:03:15.000Z</time>
                <name>Trackpoint 4297</name>
            </trkpt>
            <trkpt lat="50.112736" lon="8.7548952">
                <ele>99.0</ele>
                <time>2020-08-30T11:03:17.000Z</time>
                <name>Trackpoint 4298</name>
            </trkpt>
            <trkpt lat="50.1127616" lon="8.7547912">
                <ele>99.0</ele>
                <time>2020-08-30T11:03:19.000Z</time>
                <name>Trackpoint 4299</name>
            </trkpt>
            <trkpt lat="50.1127712" lon="8.7546864">
                <ele>99.0</ele>
                <time>2020-08-30T11:03:21.000Z</time>
                <name>Trackpoint 4300</name>
            </trkpt>
            <trkpt lat="50.1127808" lon="8.754592">
                <ele>100.0</ele>
                <time>2020-08-30T11:03:23.000Z</time>
                <name>Trackpoint 4301</name>
            </trkpt>
            <trkpt lat="50.1128096" lon="8.7544944">
                <ele>100.0</ele>
                <time>2020-08-30T11:03:26.000Z</time>
                <name>Trackpoint 4302</name>
            </trkpt>
            <trkpt lat="50.112816" lon="8.7543968">
                <ele>101.0</ele>
                <time>2020-08-30T11:03:33.000Z</time>
                <name>Trackpoint 4303</name>
            </trkpt>
            <trkpt lat="50.1127968" lon="8.7542864">
                <ele>101.0</ele>
                <time>2020-08-30T11:04:26.000Z</time>
                <name>Trackpoint 4304</name>
            </trkpt>
            <trkpt lat="50.1127392" lon="8.7541984">
                <ele>101.0</ele>
                <time>2020-08-30T11:04:31.000Z</time>
                <name>Trackpoint 4305</name>
            </trkpt>
            <trkpt lat="50.1126944" lon="8.7540928">
                <ele>101.0</ele>
                <time>2020-08-30T11:04:35.000Z</time>
                <name>Trackpoint 4306</name>
            </trkpt>
            <trkpt lat="50.1126912" lon="8.7539752">
                <ele>101.0</ele>
                <time>2020-08-30T11:04:38.000Z</time>
                <name>Trackpoint 4307</name>
            </trkpt>
            <trkpt lat="50.112704" lon="8.7538632">
                <ele>101.0</ele>
                <time>2020-08-30T11:04:40.000Z</time>
                <name>Trackpoint 4308</name>
            </trkpt>
            <trkpt lat="50.11272" lon="8.7537336">
                <ele>102.0</ele>
                <time>2020-08-30T11:04:42.000Z</time>
                <name>Trackpoint 4309</name>
            </trkpt>
            <trkpt lat="50.1127424" lon="8.7536024">
                <ele>102.0</ele>
                <time>2020-08-30T11:04:44.000Z</time>
                <name>Trackpoint 4310</name>
            </trkpt>
            <trkpt lat="50.1127552" lon="8.7534648">
                <ele>102.0</ele>
                <time>2020-08-30T11:04:46.000Z</time>
                <name>Trackpoint 4311</name>
            </trkpt>
            <trkpt lat="50.1127936" lon="8.753328">
                <ele>102.0</ele>
                <time>2020-08-30T11:04:48.000Z</time>
                <name>Trackpoint 4312</name>
            </trkpt>
            <trkpt lat="50.1128192" lon="8.7531992">
                <ele>102.0</ele>
                <time>2020-08-30T11:04:50.000Z</time>
                <name>Trackpoint 4313</name>
            </trkpt>
            <trkpt lat="50.1128384" lon="8.753072">
                <ele>102.0</ele>
                <time>2020-08-30T11:04:52.000Z</time>
                <name>Trackpoint 4314</name>
            </trkpt>
            <trkpt lat="50.1128576" lon="8.7529488">
                <ele>102.0</ele>
                <time>2020-08-30T11:04:54.000Z</time>
                <name>Trackpoint 4315</name>
            </trkpt>
            <trkpt lat="50.11288" lon="8.7528232">
                <ele>102.0</ele>
                <time>2020-08-30T11:04:56.000Z</time>
                <name>Trackpoint 4316</name>
            </trkpt>
            <trkpt lat="50.1128928" lon="8.7527176">
                <ele>102.0</ele>
                <time>2020-08-30T11:04:58.000Z</time>
                <name>Trackpoint 4317</name>
            </trkpt>
            <trkpt lat="50.112912" lon="8.7526184">
                <ele>102.0</ele>
                <time>2020-08-30T11:05:01.000Z</time>
                <name>Trackpoint 4318</name>
            </trkpt>
            <trkpt lat="50.1129536" lon="8.7525328">
                <ele>103.0</ele>
                <time>2020-08-30T11:05:22.000Z</time>
                <name>Trackpoint 4319</name>
            </trkpt>
            <trkpt lat="50.1129216" lon="8.7524248">
                <ele>103.0</ele>
                <time>2020-08-30T11:05:26.000Z</time>
                <name>Trackpoint 4320</name>
            </trkpt>
            <trkpt lat="50.1129152" lon="8.7523168">
                <ele>103.0</ele>
                <time>2020-08-30T11:05:30.000Z</time>
                <name>Trackpoint 4321</name>
            </trkpt>
            <trkpt lat="50.112928" lon="8.7522224">
                <ele>105.0</ele>
                <time>2020-08-30T11:05:48.000Z</time>
                <name>Trackpoint 4322</name>
            </trkpt>
            <trkpt lat="50.1129408" lon="8.7521096">
                <ele>105.0</ele>
                <time>2020-08-30T11:05:53.000Z</time>
                <name>Trackpoint 4323</name>
            </trkpt>
            <trkpt lat="50.1129728" lon="8.7520088">
                <ele>105.0</ele>
                <time>2020-08-30T11:05:56.000Z</time>
                <name>Trackpoint 4324</name>
            </trkpt>
            <trkpt lat="50.112992" lon="8.7519152">
                <ele>105.0</ele>
                <time>2020-08-30T11:05:58.000Z</time>
                <name>Trackpoint 4325</name>
            </trkpt>
            <trkpt lat="50.1130112" lon="8.7517992">
                <ele>105.0</ele>
                <time>2020-08-30T11:06:00.000Z</time>
                <name>Trackpoint 4326</name>
            </trkpt>
            <trkpt lat="50.1130144" lon="8.7516744">
                <ele>105.0</ele>
                <time>2020-08-30T11:06:02.000Z</time>
                <name>Trackpoint 4327</name>
            </trkpt>
            <trkpt lat="50.1130432" lon="8.751552">
                <ele>105.0</ele>
                <time>2020-08-30T11:06:04.000Z</time>
                <name>Trackpoint 4328</name>
            </trkpt>
            <trkpt lat="50.1130624" lon="8.7514296">
                <ele>105.0</ele>
                <time>2020-08-30T11:06:06.000Z</time>
                <name>Trackpoint 4329</name>
            </trkpt>
            <trkpt lat="50.1130528" lon="8.7512952">
                <ele>105.0</ele>
                <time>2020-08-30T11:06:08.000Z</time>
                <name>Trackpoint 4330</name>
            </trkpt>
            <trkpt lat="50.1130592" lon="8.7511584">
                <ele>106.0</ele>
                <time>2020-08-30T11:06:10.000Z</time>
                <name>Trackpoint 4331</name>
            </trkpt>
            <trkpt lat="50.1130624" lon="8.75098">
                <ele>106.0</ele>
                <time>2020-08-30T11:06:12.000Z</time>
                <name>Trackpoint 4332</name>
            </trkpt>
            <trkpt lat="50.1130368" lon="8.7508672">
                <ele>106.0</ele>
                <time>2020-08-30T11:06:13.000Z</time>
                <name>Trackpoint 4333</name>
            </trkpt>
            <trkpt lat="50.1130592" lon="8.7507">
                <ele>106.0</ele>
                <time>2020-08-30T11:06:15.000Z</time>
                <name>Trackpoint 4334</name>
            </trkpt>
            <trkpt lat="50.1130976" lon="8.7505464">
                <ele>106.0</ele>
                <time>2020-08-30T11:06:17.000Z</time>
                <name>Trackpoint 4335</name>
            </trkpt>
            <trkpt lat="50.1130976" lon="8.7503784">
                <ele>106.0</ele>
                <time>2020-08-30T11:06:19.000Z</time>
                <name>Trackpoint 4336</name>
            </trkpt>
            <trkpt lat="50.1130976" lon="8.750288">
                <ele>106.0</ele>
                <time>2020-08-30T11:06:20.000Z</time>
                <name>Trackpoint 4337</name>
            </trkpt>
            <trkpt lat="50.1131104" lon="8.7501096">
                <ele>106.0</ele>
                <time>2020-08-30T11:06:22.000Z</time>
                <name>Trackpoint 4338</name>
            </trkpt>
            <trkpt lat="50.1131136" lon="8.750016">
                <ele>106.0</ele>
                <time>2020-08-30T11:06:23.000Z</time>
                <name>Trackpoint 4339</name>
            </trkpt>
            <trkpt lat="50.1131264" lon="8.7498376">
                <ele>106.0</ele>
                <time>2020-08-30T11:06:25.000Z</time>
                <name>Trackpoint 4340</name>
            </trkpt>
            <trkpt lat="50.1131424" lon="8.749672">
                <ele>106.0</ele>
                <time>2020-08-30T11:06:27.000Z</time>
                <name>Trackpoint 4341</name>
            </trkpt>
            <trkpt lat="50.1131584" lon="8.7495">
                <ele>106.0</ele>
                <time>2020-08-30T11:06:29.000Z</time>
                <name>Trackpoint 4342</name>
            </trkpt>
            <trkpt lat="50.1131744" lon="8.7493336">
                <ele>106.0</ele>
                <time>2020-08-30T11:06:31.000Z</time>
                <name>Trackpoint 4343</name>
            </trkpt>
            <trkpt lat="50.1131904" lon="8.7491712">
                <ele>106.0</ele>
                <time>2020-08-30T11:06:33.000Z</time>
                <name>Trackpoint 4344</name>
            </trkpt>
            <trkpt lat="50.1132096" lon="8.7489984">
                <ele>106.0</ele>
                <time>2020-08-30T11:06:35.000Z</time>
                <name>Trackpoint 4345</name>
            </trkpt>
            <trkpt lat="50.113216" lon="8.7488472">
                <ele>105.0</ele>
                <time>2020-08-30T11:06:37.000Z</time>
                <name>Trackpoint 4346</name>
            </trkpt>
            <trkpt lat="50.1132288" lon="8.7487432">
                <ele>105.0</ele>
                <time>2020-08-30T11:06:39.000Z</time>
                <name>Trackpoint 4347</name>
            </trkpt>
            <trkpt lat="50.1131904" lon="8.748828">
                <ele>104.0</ele>
                <time>2020-08-30T11:06:49.000Z</time>
                <name>Trackpoint 4348</name>
            </trkpt>
            <trkpt lat="50.1132384" lon="8.74874">
                <ele>103.0</ele>
                <time>2020-08-30T11:08:39.000Z</time>
                <name>Trackpoint 4349</name>
            </trkpt>
            <trkpt lat="50.1132416" lon="8.74864">
                <ele>103.0</ele>
                <time>2020-08-30T11:08:41.000Z</time>
                <name>Trackpoint 4350</name>
            </trkpt>
            <trkpt lat="50.1132576" lon="8.7485176">
                <ele>103.0</ele>
                <time>2020-08-30T11:08:43.000Z</time>
                <name>Trackpoint 4351</name>
            </trkpt>
            <trkpt lat="50.1132672" lon="8.7483832">
                <ele>103.0</ele>
                <time>2020-08-30T11:08:45.000Z</time>
                <name>Trackpoint 4352</name>
            </trkpt>
            <trkpt lat="50.1132864" lon="8.7482416">
                <ele>103.0</ele>
                <time>2020-08-30T11:08:47.000Z</time>
                <name>Trackpoint 4353</name>
            </trkpt>
            <trkpt lat="50.1132992" lon="8.7480968">
                <ele>103.0</ele>
                <time>2020-08-30T11:08:49.000Z</time>
                <name>Trackpoint 4354</name>
            </trkpt>
            <trkpt lat="50.113312" lon="8.7479512">
                <ele>103.0</ele>
                <time>2020-08-30T11:08:51.000Z</time>
                <name>Trackpoint 4355</name>
            </trkpt>
            <trkpt lat="50.113312" lon="8.7478152">
                <ele>103.0</ele>
                <time>2020-08-30T11:08:53.000Z</time>
                <name>Trackpoint 4356</name>
            </trkpt>
            <trkpt lat="50.1133088" lon="8.7476752">
                <ele>103.0</ele>
                <time>2020-08-30T11:08:55.000Z</time>
                <name>Trackpoint 4357</name>
            </trkpt>
            <trkpt lat="50.113312" lon="8.7475408">
                <ele>103.0</ele>
                <time>2020-08-30T11:08:57.000Z</time>
                <name>Trackpoint 4358</name>
            </trkpt>
            <trkpt lat="50.1133248" lon="8.7473936">
                <ele>103.0</ele>
                <time>2020-08-30T11:08:59.000Z</time>
                <name>Trackpoint 4359</name>
            </trkpt>
            <trkpt lat="50.1133184" lon="8.7472448">
                <ele>103.0</ele>
                <time>2020-08-30T11:09:01.000Z</time>
                <name>Trackpoint 4360</name>
            </trkpt>
            <trkpt lat="50.1133056" lon="8.7470912">
                <ele>103.0</ele>
                <time>2020-08-30T11:09:03.000Z</time>
                <name>Trackpoint 4361</name>
            </trkpt>
            <trkpt lat="50.1132896" lon="8.7469456">
                <ele>103.0</ele>
                <time>2020-08-30T11:09:05.000Z</time>
                <name>Trackpoint 4362</name>
            </trkpt>
            <trkpt lat="50.1132672" lon="8.7467936">
                <ele>103.0</ele>
                <time>2020-08-30T11:09:07.000Z</time>
                <name>Trackpoint 4363</name>
            </trkpt>
            <trkpt lat="50.1132544" lon="8.7467032">
                <ele>103.0</ele>
                <time>2020-08-30T11:09:08.000Z</time>
                <name>Trackpoint 4364</name>
            </trkpt>
            <trkpt lat="50.1132416" lon="8.7466136">
                <ele>103.0</ele>
                <time>2020-08-30T11:09:09.000Z</time>
                <name>Trackpoint 4365</name>
            </trkpt>
            <trkpt lat="50.1132352" lon="8.74652">
                <ele>103.0</ele>
                <time>2020-08-30T11:09:10.000Z</time>
                <name>Trackpoint 4366</name>
            </trkpt>
            <trkpt lat="50.113232" lon="8.746424">
                <ele>103.0</ele>
                <time>2020-08-30T11:09:11.000Z</time>
                <name>Trackpoint 4367</name>
            </trkpt>
            <trkpt lat="50.1132256" lon="8.7463248">
                <ele>103.0</ele>
                <time>2020-08-30T11:09:12.000Z</time>
                <name>Trackpoint 4368</name>
            </trkpt>
            <trkpt lat="50.113216" lon="8.7462304">
                <ele>103.0</ele>
                <time>2020-08-30T11:09:13.000Z</time>
                <name>Trackpoint 4369</name>
            </trkpt>
            <trkpt lat="50.1132096" lon="8.7461336">
                <ele>103.0</ele>
                <time>2020-08-30T11:09:14.000Z</time>
                <name>Trackpoint 4370</name>
            </trkpt>
            <trkpt lat="50.1132" lon="8.7460416">
                <ele>103.0</ele>
                <time>2020-08-30T11:09:15.000Z</time>
                <name>Trackpoint 4371</name>
            </trkpt>
            <trkpt lat="50.1131808" lon="8.7458664">
                <ele>103.0</ele>
                <time>2020-08-30T11:09:17.000Z</time>
                <name>Trackpoint 4372</name>
            </trkpt>
            <trkpt lat="50.1131712" lon="8.7457088">
                <ele>102.0</ele>
                <time>2020-08-30T11:09:19.000Z</time>
                <name>Trackpoint 4373</name>
            </trkpt>
            <trkpt lat="50.1131584" lon="8.74556">
                <ele>102.0</ele>
                <time>2020-08-30T11:09:21.000Z</time>
                <name>Trackpoint 4374</name>
            </trkpt>
            <trkpt lat="50.1131552" lon="8.745448">
                <ele>102.0</ele>
                <time>2020-08-30T11:09:23.000Z</time>
                <name>Trackpoint 4375</name>
            </trkpt>
            <trkpt lat="50.1131776" lon="8.7453416">
                <ele>102.0</ele>
                <time>2020-08-30T11:09:26.000Z</time>
                <name>Trackpoint 4376</name>
            </trkpt>
            <trkpt lat="50.1131744" lon="8.74524">
                <ele>101.0</ele>
                <time>2020-08-30T11:09:51.000Z</time>
                <name>Trackpoint 4377</name>
            </trkpt>
            <trkpt lat="50.113168" lon="8.7451432">
                <ele>101.0</ele>
                <time>2020-08-30T11:09:54.000Z</time>
                <name>Trackpoint 4378</name>
            </trkpt>
            <trkpt lat="50.1131072" lon="8.7450552">
                <ele>101.0</ele>
                <time>2020-08-30T11:09:57.000Z</time>
                <name>Trackpoint 4379</name>
            </trkpt>
            <trkpt lat="50.113008" lon="8.7450688">
                <ele>101.0</ele>
                <time>2020-08-30T11:10:00.000Z</time>
                <name>Trackpoint 4380</name>
            </trkpt>
            <trkpt lat="50.112896" lon="8.7451384">
                <ele>101.0</ele>
                <time>2020-08-30T11:10:03.000Z</time>
                <name>Trackpoint 4381</name>
            </trkpt>
            <trkpt lat="50.112816" lon="8.745196">
                <ele>101.0</ele>
                <time>2020-08-30T11:10:05.000Z</time>
                <name>Trackpoint 4382</name>
            </trkpt>
            <trkpt lat="50.112736" lon="8.7452472">
                <ele>101.0</ele>
                <time>2020-08-30T11:10:07.000Z</time>
                <name>Trackpoint 4383</name>
            </trkpt>
            <trkpt lat="50.1126208" lon="8.7453032">
                <ele>101.0</ele>
                <time>2020-08-30T11:10:10.000Z</time>
                <name>Trackpoint 4384</name>
            </trkpt>
            <trkpt lat="50.1125184" lon="8.7453272">
                <ele>101.0</ele>
                <time>2020-08-30T11:10:13.000Z</time>
                <name>Trackpoint 4385</name>
            </trkpt>
            <trkpt lat="50.1124576" lon="8.7452096">
                <ele>101.0</ele>
                <time>2020-08-30T11:10:16.000Z</time>
                <name>Trackpoint 4386</name>
            </trkpt>
            <trkpt lat="50.1124384" lon="8.7450848">
                <ele>102.0</ele>
                <time>2020-08-30T11:10:18.000Z</time>
                <name>Trackpoint 4387</name>
            </trkpt>
            <trkpt lat="50.1124352" lon="8.7449512">
                <ele>101.0</ele>
                <time>2020-08-30T11:10:20.000Z</time>
                <name>Trackpoint 4388</name>
            </trkpt>
            <trkpt lat="50.1124064" lon="8.7448104">
                <ele>101.0</ele>
                <time>2020-08-30T11:10:22.000Z</time>
                <name>Trackpoint 4389</name>
            </trkpt>
            <trkpt lat="50.1123872" lon="8.744652">
                <ele>101.0</ele>
                <time>2020-08-30T11:10:24.000Z</time>
                <name>Trackpoint 4390</name>
            </trkpt>
            <trkpt lat="50.1123776" lon="8.74448">
                <ele>101.0</ele>
                <time>2020-08-30T11:10:26.000Z</time>
                <name>Trackpoint 4391</name>
            </trkpt>
            <trkpt lat="50.1123616" lon="8.7443104">
                <ele>101.0</ele>
                <time>2020-08-30T11:10:28.000Z</time>
                <name>Trackpoint 4392</name>
            </trkpt>
            <trkpt lat="50.1123456" lon="8.74416">
                <ele>100.0</ele>
                <time>2020-08-30T11:10:30.000Z</time>
                <name>Trackpoint 4393</name>
            </trkpt>
            <trkpt lat="50.1123328" lon="8.7440184">
                <ele>100.0</ele>
                <time>2020-08-30T11:10:32.000Z</time>
                <name>Trackpoint 4394</name>
            </trkpt>
            <trkpt lat="50.11232" lon="8.7438848">
                <ele>100.0</ele>
                <time>2020-08-30T11:10:34.000Z</time>
                <name>Trackpoint 4395</name>
            </trkpt>
            <trkpt lat="50.1123072" lon="8.7437448">
                <ele>100.0</ele>
                <time>2020-08-30T11:10:36.000Z</time>
                <name>Trackpoint 4396</name>
            </trkpt>
            <trkpt lat="50.112288" lon="8.7436">
                <ele>99.0</ele>
                <time>2020-08-30T11:10:38.000Z</time>
                <name>Trackpoint 4397</name>
            </trkpt>
            <trkpt lat="50.1122688" lon="8.7434616">
                <ele>99.0</ele>
                <time>2020-08-30T11:10:40.000Z</time>
                <name>Trackpoint 4398</name>
            </trkpt>
            <trkpt lat="50.1122592" lon="8.7433272">
                <ele>99.0</ele>
                <time>2020-08-30T11:10:42.000Z</time>
                <name>Trackpoint 4399</name>
            </trkpt>
            <trkpt lat="50.1122464" lon="8.7431984">
                <ele>99.0</ele>
                <time>2020-08-30T11:10:44.000Z</time>
                <name>Trackpoint 4400</name>
            </trkpt>
            <trkpt lat="50.1122336" lon="8.74306">
                <ele>99.0</ele>
                <time>2020-08-30T11:10:46.000Z</time>
                <name>Trackpoint 4401</name>
            </trkpt>
            <trkpt lat="50.1122176" lon="8.7429112">
                <ele>99.0</ele>
                <time>2020-08-30T11:10:48.000Z</time>
                <name>Trackpoint 4402</name>
            </trkpt>
            <trkpt lat="50.1122016" lon="8.7427528">
                <ele>99.0</ele>
                <time>2020-08-30T11:10:50.000Z</time>
                <name>Trackpoint 4403</name>
            </trkpt>
            <trkpt lat="50.1121856" lon="8.742592">
                <ele>98.0</ele>
                <time>2020-08-30T11:10:52.000Z</time>
                <name>Trackpoint 4404</name>
            </trkpt>
            <trkpt lat="50.1121664" lon="8.7424272">
                <ele>99.0</ele>
                <time>2020-08-30T11:10:54.000Z</time>
                <name>Trackpoint 4405</name>
            </trkpt>
            <trkpt lat="50.1121472" lon="8.742264">
                <ele>99.0</ele>
                <time>2020-08-30T11:10:56.000Z</time>
                <name>Trackpoint 4406</name>
            </trkpt>
            <trkpt lat="50.1121344" lon="8.7421048">
                <ele>99.0</ele>
                <time>2020-08-30T11:10:58.000Z</time>
                <name>Trackpoint 4407</name>
            </trkpt>
            <trkpt lat="50.1121152" lon="8.7419528">
                <ele>99.0</ele>
                <time>2020-08-30T11:11:00.000Z</time>
                <name>Trackpoint 4408</name>
            </trkpt>
            <trkpt lat="50.1120672" lon="8.7418168">
                <ele>99.0</ele>
                <time>2020-08-30T11:11:02.000Z</time>
                <name>Trackpoint 4409</name>
            </trkpt>
            <trkpt lat="50.1120064" lon="8.7417032">
                <ele>99.0</ele>
                <time>2020-08-30T11:11:04.000Z</time>
                <name>Trackpoint 4410</name>
            </trkpt>
            <trkpt lat="50.1119552" lon="8.74158">
                <ele>99.0</ele>
                <time>2020-08-30T11:11:06.000Z</time>
                <name>Trackpoint 4411</name>
            </trkpt>
            <trkpt lat="50.1119072" lon="8.7414528">
                <ele>98.0</ele>
                <time>2020-08-30T11:11:08.000Z</time>
                <name>Trackpoint 4412</name>
            </trkpt>
            <trkpt lat="50.1118592" lon="8.741332">
                <ele>99.0</ele>
                <time>2020-08-30T11:11:10.000Z</time>
                <name>Trackpoint 4413</name>
            </trkpt>
            <trkpt lat="50.1118272" lon="8.7411968">
                <ele>99.0</ele>
                <time>2020-08-30T11:11:12.000Z</time>
                <name>Trackpoint 4414</name>
            </trkpt>
            <trkpt lat="50.111808" lon="8.7410568">
                <ele>99.0</ele>
                <time>2020-08-30T11:11:14.000Z</time>
                <name>Trackpoint 4415</name>
            </trkpt>
            <trkpt lat="50.1118016" lon="8.7409424">
                <ele>100.0</ele>
                <time>2020-08-30T11:11:16.000Z</time>
                <name>Trackpoint 4416</name>
            </trkpt>
            <trkpt lat="50.111792" lon="8.7408504">
                <ele>100.0</ele>
                <time>2020-08-30T11:11:18.000Z</time>
                <name>Trackpoint 4417</name>
            </trkpt>
            <trkpt lat="50.1117792" lon="8.7407312">
                <ele>98.0</ele>
                <time>2020-08-30T11:11:21.000Z</time>
                <name>Trackpoint 4418</name>
            </trkpt>
            <trkpt lat="50.1117664" lon="8.7406416">
                <ele>99.0</ele>
                <time>2020-08-30T11:11:23.000Z</time>
                <name>Trackpoint 4419</name>
            </trkpt>
            <trkpt lat="50.1117568" lon="8.7405368">
                <ele>99.0</ele>
                <time>2020-08-30T11:11:25.000Z</time>
                <name>Trackpoint 4420</name>
            </trkpt>
            <trkpt lat="50.1117472" lon="8.7404144">
                <ele>100.0</ele>
                <time>2020-08-30T11:11:27.000Z</time>
                <name>Trackpoint 4421</name>
            </trkpt>
            <trkpt lat="50.1117312" lon="8.74028">
                <ele>100.0</ele>
                <time>2020-08-30T11:11:29.000Z</time>
                <name>Trackpoint 4422</name>
            </trkpt>
            <trkpt lat="50.111712" lon="8.7401336">
                <ele>100.0</ele>
                <time>2020-08-30T11:11:31.000Z</time>
                <name>Trackpoint 4423</name>
            </trkpt>
            <trkpt lat="50.1116928" lon="8.7399816">
                <ele>100.0</ele>
                <time>2020-08-30T11:11:33.000Z</time>
                <name>Trackpoint 4424</name>
            </trkpt>
            <trkpt lat="50.1116768" lon="8.739828">
                <ele>100.0</ele>
                <time>2020-08-30T11:11:35.000Z</time>
                <name>Trackpoint 4425</name>
            </trkpt>
            <trkpt lat="50.1116608" lon="8.739668">
                <ele>100.0</ele>
                <time>2020-08-30T11:11:37.000Z</time>
                <name>Trackpoint 4426</name>
            </trkpt>
            <trkpt lat="50.1116384" lon="8.7395088">
                <ele>100.0</ele>
                <time>2020-08-30T11:11:39.000Z</time>
                <name>Trackpoint 4427</name>
            </trkpt>
            <trkpt lat="50.1116064" lon="8.7393528">
                <ele>100.0</ele>
                <time>2020-08-30T11:11:41.000Z</time>
                <name>Trackpoint 4428</name>
            </trkpt>
            <trkpt lat="50.111568" lon="8.7391952">
                <ele>100.0</ele>
                <time>2020-08-30T11:11:43.000Z</time>
                <name>Trackpoint 4429</name>
            </trkpt>
            <trkpt lat="50.1115264" lon="8.73904">
                <ele>100.0</ele>
                <time>2020-08-30T11:11:45.000Z</time>
                <name>Trackpoint 4430</name>
            </trkpt>
            <trkpt lat="50.1114848" lon="8.7388984">
                <ele>100.0</ele>
                <time>2020-08-30T11:11:47.000Z</time>
                <name>Trackpoint 4431</name>
            </trkpt>
            <trkpt lat="50.11144" lon="8.7387552">
                <ele>100.0</ele>
                <time>2020-08-30T11:11:49.000Z</time>
                <name>Trackpoint 4432</name>
            </trkpt>
            <trkpt lat="50.1113856" lon="8.7386128">
                <ele>100.0</ele>
                <time>2020-08-30T11:11:51.000Z</time>
                <name>Trackpoint 4433</name>
            </trkpt>
            <trkpt lat="50.111328" lon="8.7384816">
                <ele>101.0</ele>
                <time>2020-08-30T11:11:53.000Z</time>
                <name>Trackpoint 4434</name>
            </trkpt>
            <trkpt lat="50.1112736" lon="8.7383336">
                <ele>100.0</ele>
                <time>2020-08-30T11:11:55.000Z</time>
                <name>Trackpoint 4435</name>
            </trkpt>
            <trkpt lat="50.1112224" lon="8.7381896">
                <ele>100.0</ele>
                <time>2020-08-30T11:11:57.000Z</time>
                <name>Trackpoint 4436</name>
            </trkpt>
            <trkpt lat="50.1111552" lon="8.7380568">
                <ele>100.0</ele>
                <time>2020-08-30T11:11:59.000Z</time>
                <name>Trackpoint 4437</name>
            </trkpt>
            <trkpt lat="50.111088" lon="8.7379248">
                <ele>100.0</ele>
                <time>2020-08-30T11:12:01.000Z</time>
                <name>Trackpoint 4438</name>
            </trkpt>
            <trkpt lat="50.111024" lon="8.7378">
                <ele>100.0</ele>
                <time>2020-08-30T11:12:03.000Z</time>
                <name>Trackpoint 4439</name>
            </trkpt>
            <trkpt lat="50.1109632" lon="8.7376768">
                <ele>99.0</ele>
                <time>2020-08-30T11:12:05.000Z</time>
                <name>Trackpoint 4440</name>
            </trkpt>
            <trkpt lat="50.1109088" lon="8.7375584">
                <ele>99.0</ele>
                <time>2020-08-30T11:12:07.000Z</time>
                <name>Trackpoint 4441</name>
            </trkpt>
            <trkpt lat="50.1108576" lon="8.7374584">
                <ele>98.0</ele>
                <time>2020-08-30T11:12:09.000Z</time>
                <name>Trackpoint 4442</name>
            </trkpt>
            <trkpt lat="50.1108128" lon="8.7373384">
                <ele>98.0</ele>
                <time>2020-08-30T11:12:11.000Z</time>
                <name>Trackpoint 4443</name>
            </trkpt>
            <trkpt lat="50.1107744" lon="8.7372104">
                <ele>98.0</ele>
                <time>2020-08-30T11:12:13.000Z</time>
                <name>Trackpoint 4444</name>
            </trkpt>
            <trkpt lat="50.11072" lon="8.7370928">
                <ele>98.0</ele>
                <time>2020-08-30T11:12:15.000Z</time>
                <name>Trackpoint 4445</name>
            </trkpt>
            <trkpt lat="50.110672" lon="8.7369872">
                <ele>98.0</ele>
                <time>2020-08-30T11:12:17.000Z</time>
                <name>Trackpoint 4446</name>
            </trkpt>
            <trkpt lat="50.1106304" lon="8.7368832">
                <ele>98.0</ele>
                <time>2020-08-30T11:12:19.000Z</time>
                <name>Trackpoint 4447</name>
            </trkpt>
            <trkpt lat="50.1105888" lon="8.7367832">
                <ele>97.0</ele>
                <time>2020-08-30T11:12:21.000Z</time>
                <name>Trackpoint 4448</name>
            </trkpt>
            <trkpt lat="50.1105408" lon="8.7366752">
                <ele>97.0</ele>
                <time>2020-08-30T11:12:24.000Z</time>
                <name>Trackpoint 4449</name>
            </trkpt>
            <trkpt lat="50.1104928" lon="8.7365768">
                <ele>97.0</ele>
                <time>2020-08-30T11:12:29.000Z</time>
                <name>Trackpoint 4450</name>
            </trkpt>
            <trkpt lat="50.1104512" lon="8.7364832">
                <ele>97.0</ele>
                <time>2020-08-30T11:13:02.000Z</time>
                <name>Trackpoint 4451</name>
            </trkpt>
            <trkpt lat="50.1103936" lon="8.7363928">
                <ele>98.0</ele>
                <time>2020-08-30T11:13:05.000Z</time>
                <name>Trackpoint 4452</name>
            </trkpt>
            <trkpt lat="50.110352" lon="8.7362744">
                <ele>98.0</ele>
                <time>2020-08-30T11:13:08.000Z</time>
                <name>Trackpoint 4453</name>
            </trkpt>
            <trkpt lat="50.1103104" lon="8.7361496">
                <ele>98.0</ele>
                <time>2020-08-30T11:13:10.000Z</time>
                <name>Trackpoint 4454</name>
            </trkpt>
            <trkpt lat="50.1102816" lon="8.7360288">
                <ele>98.0</ele>
                <time>2020-08-30T11:13:12.000Z</time>
                <name>Trackpoint 4455</name>
            </trkpt>
            <trkpt lat="50.1102752" lon="8.7359312">
                <ele>98.0</ele>
                <time>2020-08-30T11:13:14.000Z</time>
                <name>Trackpoint 4456</name>
            </trkpt>
            <trkpt lat="50.1102368" lon="8.7357584">
                <ele>98.0</ele>
                <time>2020-08-30T11:13:16.000Z</time>
                <name>Trackpoint 4457</name>
            </trkpt>
            <trkpt lat="50.110192" lon="8.7356128">
                <ele>97.0</ele>
                <time>2020-08-30T11:13:17.000Z</time>
                <name>Trackpoint 4458</name>
            </trkpt>
            <trkpt lat="50.110128" lon="8.7354544">
                <ele>97.0</ele>
                <time>2020-08-30T11:13:19.000Z</time>
                <name>Trackpoint 4459</name>
            </trkpt>
            <trkpt lat="50.1100608" lon="8.735296">
                <ele>97.0</ele>
                <time>2020-08-30T11:13:21.000Z</time>
                <name>Trackpoint 4460</name>
            </trkpt>
            <trkpt lat="50.1100128" lon="8.7351616">
                <ele>97.0</ele>
                <time>2020-08-30T11:13:23.000Z</time>
                <name>Trackpoint 4461</name>
            </trkpt>
            <trkpt lat="50.109952" lon="8.7350328">
                <ele>97.0</ele>
                <time>2020-08-30T11:13:25.000Z</time>
                <name>Trackpoint 4462</name>
            </trkpt>
            <trkpt lat="50.10992" lon="8.7349456">
                <ele>97.0</ele>
                <time>2020-08-30T11:13:26.000Z</time>
                <name>Trackpoint 4463</name>
            </trkpt>
            <trkpt lat="50.1098592" lon="8.7348096">
                <ele>97.0</ele>
                <time>2020-08-30T11:13:28.000Z</time>
                <name>Trackpoint 4464</name>
            </trkpt>
            <trkpt lat="50.1098112" lon="8.73468">
                <ele>97.0</ele>
                <time>2020-08-30T11:13:30.000Z</time>
                <name>Trackpoint 4465</name>
            </trkpt>
            <trkpt lat="50.1097824" lon="8.7345816">
                <ele>97.0</ele>
                <time>2020-08-30T11:13:31.000Z</time>
                <name>Trackpoint 4466</name>
            </trkpt>
            <trkpt lat="50.1097248" lon="8.7344368">
                <ele>97.0</ele>
                <time>2020-08-30T11:13:33.000Z</time>
                <name>Trackpoint 4467</name>
            </trkpt>
            <trkpt lat="50.1096768" lon="8.7342968">
                <ele>97.0</ele>
                <time>2020-08-30T11:13:35.000Z</time>
                <name>Trackpoint 4468</name>
            </trkpt>
            <trkpt lat="50.1096256" lon="8.7341584">
                <ele>97.0</ele>
                <time>2020-08-30T11:13:37.000Z</time>
                <name>Trackpoint 4469</name>
            </trkpt>
            <trkpt lat="50.1095808" lon="8.7340136">
                <ele>97.0</ele>
                <time>2020-08-30T11:13:39.000Z</time>
                <name>Trackpoint 4470</name>
            </trkpt>
            <trkpt lat="50.1095392" lon="8.7338688">
                <ele>97.0</ele>
                <time>2020-08-30T11:13:41.000Z</time>
                <name>Trackpoint 4471</name>
            </trkpt>
            <trkpt lat="50.1095072" lon="8.7337288">
                <ele>97.0</ele>
                <time>2020-08-30T11:13:43.000Z</time>
                <name>Trackpoint 4472</name>
            </trkpt>
            <trkpt lat="50.1094656" lon="8.733592">
                <ele>97.0</ele>
                <time>2020-08-30T11:13:45.000Z</time>
                <name>Trackpoint 4473</name>
            </trkpt>
            <trkpt lat="50.109424" lon="8.7334696">
                <ele>97.0</ele>
                <time>2020-08-30T11:13:47.000Z</time>
                <name>Trackpoint 4474</name>
            </trkpt>
            <trkpt lat="50.109376" lon="8.7333208">
                <ele>97.0</ele>
                <time>2020-08-30T11:13:49.000Z</time>
                <name>Trackpoint 4475</name>
            </trkpt>
            <trkpt lat="50.1093376" lon="8.73318">
                <ele>97.0</ele>
                <time>2020-08-30T11:13:51.000Z</time>
                <name>Trackpoint 4476</name>
            </trkpt>
            <trkpt lat="50.109296" lon="8.7330416">
                <ele>97.0</ele>
                <time>2020-08-30T11:13:53.000Z</time>
                <name>Trackpoint 4477</name>
            </trkpt>
            <trkpt lat="50.1092544" lon="8.732912">
                <ele>97.0</ele>
                <time>2020-08-30T11:13:55.000Z</time>
                <name>Trackpoint 4478</name>
            </trkpt>
            <trkpt lat="50.109216" lon="8.7328016">
                <ele>97.0</ele>
                <time>2020-08-30T11:13:57.000Z</time>
                <name>Trackpoint 4479</name>
            </trkpt>
            <trkpt lat="50.1091872" lon="8.7326784">
                <ele>98.0</ele>
                <time>2020-08-30T11:13:59.000Z</time>
                <name>Trackpoint 4480</name>
            </trkpt>
            <trkpt lat="50.1091584" lon="8.7325496">
                <ele>98.0</ele>
                <time>2020-08-30T11:14:01.000Z</time>
                <name>Trackpoint 4481</name>
            </trkpt>
            <trkpt lat="50.1091072" lon="8.7324064">
                <ele>98.0</ele>
                <time>2020-08-30T11:14:03.000Z</time>
                <name>Trackpoint 4482</name>
            </trkpt>
            <trkpt lat="50.1090592" lon="8.7322816">
                <ele>98.0</ele>
                <time>2020-08-30T11:14:05.000Z</time>
                <name>Trackpoint 4483</name>
            </trkpt>
            <trkpt lat="50.1090176" lon="8.732148">
                <ele>98.0</ele>
                <time>2020-08-30T11:14:07.000Z</time>
                <name>Trackpoint 4484</name>
            </trkpt>
            <trkpt lat="50.108976" lon="8.73202">
                <ele>98.0</ele>
                <time>2020-08-30T11:14:09.000Z</time>
                <name>Trackpoint 4485</name>
            </trkpt>
            <trkpt lat="50.1089312" lon="8.7318888">
                <ele>99.0</ele>
                <time>2020-08-30T11:14:11.000Z</time>
                <name>Trackpoint 4486</name>
            </trkpt>
            <trkpt lat="50.1088864" lon="8.7317416">
                <ele>99.0</ele>
                <time>2020-08-30T11:14:13.000Z</time>
                <name>Trackpoint 4487</name>
            </trkpt>
            <trkpt lat="50.108832" lon="8.7315912">
                <ele>99.0</ele>
                <time>2020-08-30T11:14:15.000Z</time>
                <name>Trackpoint 4488</name>
            </trkpt>
            <trkpt lat="50.108784" lon="8.7314328">
                <ele>99.0</ele>
                <time>2020-08-30T11:14:17.000Z</time>
                <name>Trackpoint 4489</name>
            </trkpt>
            <trkpt lat="50.1087424" lon="8.731272">
                <ele>99.0</ele>
                <time>2020-08-30T11:14:19.000Z</time>
                <name>Trackpoint 4490</name>
            </trkpt>
            <trkpt lat="50.1087072" lon="8.7311096">
                <ele>99.0</ele>
                <time>2020-08-30T11:14:21.000Z</time>
                <name>Trackpoint 4491</name>
            </trkpt>
            <trkpt lat="50.1086528" lon="8.7309464">
                <ele>99.0</ele>
                <time>2020-08-30T11:14:23.000Z</time>
                <name>Trackpoint 4492</name>
            </trkpt>
            <trkpt lat="50.108592" lon="8.73078">
                <ele>100.0</ele>
                <time>2020-08-30T11:14:25.000Z</time>
                <name>Trackpoint 4493</name>
            </trkpt>
            <trkpt lat="50.108544" lon="8.7306248">
                <ele>100.0</ele>
                <time>2020-08-30T11:14:27.000Z</time>
                <name>Trackpoint 4494</name>
            </trkpt>
            <trkpt lat="50.1085024" lon="8.7304832">
                <ele>100.0</ele>
                <time>2020-08-30T11:14:29.000Z</time>
                <name>Trackpoint 4495</name>
            </trkpt>
            <trkpt lat="50.1084736" lon="8.7303496">
                <ele>100.0</ele>
                <time>2020-08-30T11:14:31.000Z</time>
                <name>Trackpoint 4496</name>
            </trkpt>
            <trkpt lat="50.1084512" lon="8.7301928">
                <ele>100.0</ele>
                <time>2020-08-30T11:14:33.000Z</time>
                <name>Trackpoint 4497</name>
            </trkpt>
            <trkpt lat="50.108432" lon="8.7300984">
                <ele>100.0</ele>
                <time>2020-08-30T11:14:34.000Z</time>
                <name>Trackpoint 4498</name>
            </trkpt>
            <trkpt lat="50.1084096" lon="8.7300104">
                <ele>100.0</ele>
                <time>2020-08-30T11:14:35.000Z</time>
                <name>Trackpoint 4499</name>
            </trkpt>
            <trkpt lat="50.1083872" lon="8.7299216">
                <ele>100.0</ele>
                <time>2020-08-30T11:14:36.000Z</time>
                <name>Trackpoint 4500</name>
            </trkpt>
            <trkpt lat="50.1083456" lon="8.7297672">
                <ele>100.0</ele>
                <time>2020-08-30T11:14:38.000Z</time>
                <name>Trackpoint 4501</name>
            </trkpt>
            <trkpt lat="50.108272" lon="8.7296288">
                <ele>101.0</ele>
                <time>2020-08-30T11:14:40.000Z</time>
                <name>Trackpoint 4502</name>
            </trkpt>
            <trkpt lat="50.1081952" lon="8.7295304">
                <ele>100.0</ele>
                <time>2020-08-30T11:14:42.000Z</time>
                <name>Trackpoint 4503</name>
            </trkpt>
            <trkpt lat="50.108128" lon="8.7294264">
                <ele>100.0</ele>
                <time>2020-08-30T11:14:44.000Z</time>
                <name>Trackpoint 4504</name>
            </trkpt>
            <trkpt lat="50.1080512" lon="8.7293304">
                <ele>100.0</ele>
                <time>2020-08-30T11:14:46.000Z</time>
                <name>Trackpoint 4505</name>
            </trkpt>
            <trkpt lat="50.107968" lon="8.7292672">
                <ele>100.0</ele>
                <time>2020-08-30T11:14:48.000Z</time>
                <name>Trackpoint 4506</name>
            </trkpt>
            <trkpt lat="50.1078464" lon="8.729192">
                <ele>101.0</ele>
                <time>2020-08-30T11:14:51.000Z</time>
                <name>Trackpoint 4507</name>
            </trkpt>
            <trkpt lat="50.107776" lon="8.7291024">
                <ele>101.0</ele>
                <time>2020-08-30T11:14:53.000Z</time>
                <name>Trackpoint 4508</name>
            </trkpt>
            <trkpt lat="50.1077408" lon="8.7289816">
                <ele>101.0</ele>
                <time>2020-08-30T11:14:55.000Z</time>
                <name>Trackpoint 4509</name>
            </trkpt>
            <trkpt lat="50.1077248" lon="8.7288312">
                <ele>101.0</ele>
                <time>2020-08-30T11:14:57.000Z</time>
                <name>Trackpoint 4510</name>
            </trkpt>
            <trkpt lat="50.1077056" lon="8.728668">
                <ele>101.0</ele>
                <time>2020-08-30T11:14:59.000Z</time>
                <name>Trackpoint 4511</name>
            </trkpt>
            <trkpt lat="50.10768" lon="8.728508">
                <ele>100.0</ele>
                <time>2020-08-30T11:15:01.000Z</time>
                <name>Trackpoint 4512</name>
            </trkpt>
            <trkpt lat="50.1076576" lon="8.7283496">
                <ele>100.0</ele>
                <time>2020-08-30T11:15:03.000Z</time>
                <name>Trackpoint 4513</name>
            </trkpt>
            <trkpt lat="50.1076352" lon="8.7281912">
                <ele>100.0</ele>
                <time>2020-08-30T11:15:05.000Z</time>
                <name>Trackpoint 4514</name>
            </trkpt>
            <trkpt lat="50.1076256" lon="8.72804">
                <ele>100.0</ele>
                <time>2020-08-30T11:15:07.000Z</time>
                <name>Trackpoint 4515</name>
            </trkpt>
            <trkpt lat="50.1076064" lon="8.7278984">
                <ele>100.0</ele>
                <time>2020-08-30T11:15:09.000Z</time>
                <name>Trackpoint 4516</name>
            </trkpt>
            <trkpt lat="50.1075776" lon="8.7277672">
                <ele>100.0</ele>
                <time>2020-08-30T11:15:11.000Z</time>
                <name>Trackpoint 4517</name>
            </trkpt>
            <trkpt lat="50.1075328" lon="8.727656">
                <ele>100.0</ele>
                <time>2020-08-30T11:15:13.000Z</time>
                <name>Trackpoint 4518</name>
            </trkpt>
            <trkpt lat="50.1074784" lon="8.7275752">
                <ele>100.0</ele>
                <time>2020-08-30T11:15:15.000Z</time>
                <name>Trackpoint 4519</name>
            </trkpt>
            <trkpt lat="50.1074176" lon="8.7274864">
                <ele>100.0</ele>
                <time>2020-08-30T11:15:17.000Z</time>
                <name>Trackpoint 4520</name>
            </trkpt>
            <trkpt lat="50.1073408" lon="8.7273952">
                <ele>100.0</ele>
                <time>2020-08-30T11:15:19.000Z</time>
                <name>Trackpoint 4521</name>
            </trkpt>
            <trkpt lat="50.107264" lon="8.7272928">
                <ele>99.0</ele>
                <time>2020-08-30T11:15:21.000Z</time>
                <name>Trackpoint 4522</name>
            </trkpt>
            <trkpt lat="50.107184" lon="8.727208">
                <ele>100.0</ele>
                <time>2020-08-30T11:15:23.000Z</time>
                <name>Trackpoint 4523</name>
            </trkpt>
            <trkpt lat="50.1071168" lon="8.7271048">
                <ele>100.0</ele>
                <time>2020-08-30T11:15:25.000Z</time>
                <name>Trackpoint 4524</name>
            </trkpt>
            <trkpt lat="50.1070784" lon="8.7269672">
                <ele>100.0</ele>
                <time>2020-08-30T11:15:27.000Z</time>
                <name>Trackpoint 4525</name>
            </trkpt>
            <trkpt lat="50.1070848" lon="8.7268064">
                <ele>100.0</ele>
                <time>2020-08-30T11:15:29.000Z</time>
                <name>Trackpoint 4526</name>
            </trkpt>
            <trkpt lat="50.107152" lon="8.7266848">
                <ele>100.0</ele>
                <time>2020-08-30T11:15:31.000Z</time>
                <name>Trackpoint 4527</name>
            </trkpt>
            <trkpt lat="50.1072352" lon="8.7265664">
                <ele>99.0</ele>
                <time>2020-08-30T11:15:33.000Z</time>
                <name>Trackpoint 4528</name>
            </trkpt>
            <trkpt lat="50.1073152" lon="8.7264184">
                <ele>99.0</ele>
                <time>2020-08-30T11:15:35.000Z</time>
                <name>Trackpoint 4529</name>
            </trkpt>
            <trkpt lat="50.107328" lon="8.7262496">
                <ele>99.0</ele>
                <time>2020-08-30T11:15:37.000Z</time>
                <name>Trackpoint 4530</name>
            </trkpt>
            <trkpt lat="50.1073088" lon="8.7261616">
                <ele>99.0</ele>
                <time>2020-08-30T11:15:38.000Z</time>
                <name>Trackpoint 4531</name>
            </trkpt>
            <trkpt lat="50.1072704" lon="8.7260712">
                <ele>99.0</ele>
                <time>2020-08-30T11:15:39.000Z</time>
                <name>Trackpoint 4532</name>
            </trkpt>
            <trkpt lat="50.1072416" lon="8.7259776">
                <ele>99.0</ele>
                <time>2020-08-30T11:15:40.000Z</time>
                <name>Trackpoint 4533</name>
            </trkpt>
            <trkpt lat="50.1072224" lon="8.7258864">
                <ele>99.0</ele>
                <time>2020-08-30T11:15:41.000Z</time>
                <name>Trackpoint 4534</name>
            </trkpt>
            <trkpt lat="50.1071968" lon="8.7257904">
                <ele>99.0</ele>
                <time>2020-08-30T11:15:42.000Z</time>
                <name>Trackpoint 4535</name>
            </trkpt>
            <trkpt lat="50.1071712" lon="8.7257032">
                <ele>99.0</ele>
                <time>2020-08-30T11:15:43.000Z</time>
                <name>Trackpoint 4536</name>
            </trkpt>
            <trkpt lat="50.1071424" lon="8.725608">
                <ele>99.0</ele>
                <time>2020-08-30T11:15:44.000Z</time>
                <name>Trackpoint 4537</name>
            </trkpt>
            <trkpt lat="50.10712" lon="8.72552">
                <ele>99.0</ele>
                <time>2020-08-30T11:15:45.000Z</time>
                <name>Trackpoint 4538</name>
            </trkpt>
            <trkpt lat="50.1070944" lon="8.7254296">
                <ele>99.0</ele>
                <time>2020-08-30T11:15:46.000Z</time>
                <name>Trackpoint 4539</name>
            </trkpt>
            <trkpt lat="50.1070656" lon="8.725344">
                <ele>99.0</ele>
                <time>2020-08-30T11:15:47.000Z</time>
                <name>Trackpoint 4540</name>
            </trkpt>
            <trkpt lat="50.1070432" lon="8.7252528">
                <ele>98.0</ele>
                <time>2020-08-30T11:15:48.000Z</time>
                <name>Trackpoint 4541</name>
            </trkpt>
            <trkpt lat="50.1070176" lon="8.7251616">
                <ele>99.0</ele>
                <time>2020-08-30T11:15:49.000Z</time>
                <name>Trackpoint 4542</name>
            </trkpt>
            <trkpt lat="50.1069952" lon="8.725072">
                <ele>98.0</ele>
                <time>2020-08-30T11:15:50.000Z</time>
                <name>Trackpoint 4543</name>
            </trkpt>
            <trkpt lat="50.106944" lon="8.7249">
                <ele>98.0</ele>
                <time>2020-08-30T11:15:52.000Z</time>
                <name>Trackpoint 4544</name>
            </trkpt>
            <trkpt lat="50.1068928" lon="8.7247384">
                <ele>98.0</ele>
                <time>2020-08-30T11:15:54.000Z</time>
                <name>Trackpoint 4545</name>
            </trkpt>
            <trkpt lat="50.1068384" lon="8.7245704">
                <ele>98.0</ele>
                <time>2020-08-30T11:15:56.000Z</time>
                <name>Trackpoint 4546</name>
            </trkpt>
            <trkpt lat="50.106784" lon="8.7243944">
                <ele>98.0</ele>
                <time>2020-08-30T11:15:58.000Z</time>
                <name>Trackpoint 4547</name>
            </trkpt>
            <trkpt lat="50.106736" lon="8.724228">
                <ele>98.0</ele>
                <time>2020-08-30T11:16:00.000Z</time>
                <name>Trackpoint 4548</name>
            </trkpt>
            <trkpt lat="50.1066848" lon="8.7240632">
                <ele>98.0</ele>
                <time>2020-08-30T11:16:02.000Z</time>
                <name>Trackpoint 4549</name>
            </trkpt>
            <trkpt lat="50.1066432" lon="8.7238816">
                <ele>97.0</ele>
                <time>2020-08-30T11:16:04.000Z</time>
                <name>Trackpoint 4550</name>
            </trkpt>
            <trkpt lat="50.1066272" lon="8.72378">
                <ele>97.0</ele>
                <time>2020-08-30T11:16:05.000Z</time>
                <name>Trackpoint 4551</name>
            </trkpt>
            <trkpt lat="50.1066048" lon="8.7236856">
                <ele>97.0</ele>
                <time>2020-08-30T11:16:06.000Z</time>
                <name>Trackpoint 4552</name>
            </trkpt>
            <trkpt lat="50.1065856" lon="8.7235936">
                <ele>97.0</ele>
                <time>2020-08-30T11:16:07.000Z</time>
                <name>Trackpoint 4553</name>
            </trkpt>
            <trkpt lat="50.1065664" lon="8.7235032">
                <ele>97.0</ele>
                <time>2020-08-30T11:16:08.000Z</time>
                <name>Trackpoint 4554</name>
            </trkpt>
            <trkpt lat="50.1065472" lon="8.7234112">
                <ele>97.0</ele>
                <time>2020-08-30T11:16:09.000Z</time>
                <name>Trackpoint 4555</name>
            </trkpt>
            <trkpt lat="50.1065376" lon="8.7233216">
                <ele>97.0</ele>
                <time>2020-08-30T11:16:10.000Z</time>
                <name>Trackpoint 4556</name>
            </trkpt>
            <trkpt lat="50.1065216" lon="8.7232312">
                <ele>97.0</ele>
                <time>2020-08-30T11:16:11.000Z</time>
                <name>Trackpoint 4557</name>
            </trkpt>
            <trkpt lat="50.1064896" lon="8.7230616">
                <ele>97.0</ele>
                <time>2020-08-30T11:16:13.000Z</time>
                <name>Trackpoint 4558</name>
            </trkpt>
            <trkpt lat="50.1064576" lon="8.7229">
                <ele>98.0</ele>
                <time>2020-08-30T11:16:15.000Z</time>
                <name>Trackpoint 4559</name>
            </trkpt>
            <trkpt lat="50.106416" lon="8.722756">
                <ele>98.0</ele>
                <time>2020-08-30T11:16:17.000Z</time>
                <name>Trackpoint 4560</name>
            </trkpt>
            <trkpt lat="50.1063776" lon="8.7226064">
                <ele>97.0</ele>
                <time>2020-08-30T11:16:19.000Z</time>
                <name>Trackpoint 4561</name>
            </trkpt>
            <trkpt lat="50.1063488" lon="8.722448">
                <ele>98.0</ele>
                <time>2020-08-30T11:16:21.000Z</time>
                <name>Trackpoint 4562</name>
            </trkpt>
            <trkpt lat="50.1063232" lon="8.7223568">
                <ele>98.0</ele>
                <time>2020-08-30T11:16:22.000Z</time>
                <name>Trackpoint 4563</name>
            </trkpt>
            <trkpt lat="50.1062912" lon="8.7222616">
                <ele>98.0</ele>
                <time>2020-08-30T11:16:23.000Z</time>
                <name>Trackpoint 4564</name>
            </trkpt>
            <trkpt lat="50.1062816" lon="8.7221032">
                <ele>98.0</ele>
                <time>2020-08-30T11:16:25.000Z</time>
                <name>Trackpoint 4565</name>
            </trkpt>
            <trkpt lat="50.1063232" lon="8.7219584">
                <ele>97.0</ele>
                <time>2020-08-30T11:16:27.000Z</time>
                <name>Trackpoint 4566</name>
            </trkpt>
            <trkpt lat="50.1063616" lon="8.7218352">
                <ele>97.0</ele>
                <time>2020-08-30T11:16:29.000Z</time>
                <name>Trackpoint 4567</name>
            </trkpt>
            <trkpt lat="50.1063424" lon="8.7217032">
                <ele>97.0</ele>
                <time>2020-08-30T11:16:31.000Z</time>
                <name>Trackpoint 4568</name>
            </trkpt>
            <trkpt lat="50.10632" lon="8.721548">
                <ele>97.0</ele>
                <time>2020-08-30T11:16:33.000Z</time>
                <name>Trackpoint 4569</name>
            </trkpt>
            <trkpt lat="50.1063008" lon="8.7214536">
                <ele>96.0</ele>
                <time>2020-08-30T11:16:34.000Z</time>
                <name>Trackpoint 4570</name>
            </trkpt>
            <trkpt lat="50.1062688" lon="8.7212952">
                <ele>97.0</ele>
                <time>2020-08-30T11:16:36.000Z</time>
                <name>Trackpoint 4571</name>
            </trkpt>
            <trkpt lat="50.1062496" lon="8.7211512">
                <ele>98.0</ele>
                <time>2020-08-30T11:16:38.000Z</time>
                <name>Trackpoint 4572</name>
            </trkpt>
            <trkpt lat="50.1062432" lon="8.721032">
                <ele>97.0</ele>
                <time>2020-08-30T11:16:40.000Z</time>
                <name>Trackpoint 4573</name>
            </trkpt>
            <trkpt lat="50.1062176" lon="8.7209032">
                <ele>96.0</ele>
                <time>2020-08-30T11:16:42.000Z</time>
                <name>Trackpoint 4574</name>
            </trkpt>
            <trkpt lat="50.1061632" lon="8.7208248">
                <ele>96.0</ele>
                <time>2020-08-30T11:16:44.000Z</time>
                <name>Trackpoint 4575</name>
            </trkpt>
            <trkpt lat="50.1061024" lon="8.720752">
                <ele>96.0</ele>
                <time>2020-08-30T11:17:55.000Z</time>
                <name>Trackpoint 4576</name>
            </trkpt>
            <trkpt lat="50.10608" lon="8.7206624">
                <ele>97.0</ele>
                <time>2020-08-30T11:17:59.000Z</time>
                <name>Trackpoint 4577</name>
            </trkpt>
            <trkpt lat="50.1060512" lon="8.7205232">
                <ele>97.0</ele>
                <time>2020-08-30T11:18:02.000Z</time>
                <name>Trackpoint 4578</name>
            </trkpt>
            <trkpt lat="50.106032" lon="8.7204088">
                <ele>97.0</ele>
                <time>2020-08-30T11:18:04.000Z</time>
                <name>Trackpoint 4579</name>
            </trkpt>
            <trkpt lat="50.1060288" lon="8.7202864">
                <ele>97.0</ele>
                <time>2020-08-30T11:18:06.000Z</time>
                <name>Trackpoint 4580</name>
            </trkpt>
            <trkpt lat="50.1060224" lon="8.7201656">
                <ele>97.0</ele>
                <time>2020-08-30T11:18:08.000Z</time>
                <name>Trackpoint 4581</name>
            </trkpt>
            <trkpt lat="50.1060096" lon="8.7200416">
                <ele>97.0</ele>
                <time>2020-08-30T11:18:10.000Z</time>
                <name>Trackpoint 4582</name>
            </trkpt>
            <trkpt lat="50.1059872" lon="8.7199032">
                <ele>97.0</ele>
                <time>2020-08-30T11:18:12.000Z</time>
                <name>Trackpoint 4583</name>
            </trkpt>
            <trkpt lat="50.1059712" lon="8.719744">
                <ele>97.0</ele>
                <time>2020-08-30T11:18:14.000Z</time>
                <name>Trackpoint 4584</name>
            </trkpt>
            <trkpt lat="50.105952" lon="8.7195856">
                <ele>97.0</ele>
                <time>2020-08-30T11:18:16.000Z</time>
                <name>Trackpoint 4585</name>
            </trkpt>
            <trkpt lat="50.1059424" lon="8.7194864">
                <ele>97.0</ele>
                <time>2020-08-30T11:18:17.000Z</time>
                <name>Trackpoint 4586</name>
            </trkpt>
            <trkpt lat="50.1059136" lon="8.719312">
                <ele>97.0</ele>
                <time>2020-08-30T11:18:19.000Z</time>
                <name>Trackpoint 4587</name>
            </trkpt>
            <trkpt lat="50.1059072" lon="8.7191512">
                <ele>97.0</ele>
                <time>2020-08-30T11:18:21.000Z</time>
                <name>Trackpoint 4588</name>
            </trkpt>
            <trkpt lat="50.1058944" lon="8.71902">
                <ele>97.0</ele>
                <time>2020-08-30T11:18:23.000Z</time>
                <name>Trackpoint 4589</name>
            </trkpt>
            <trkpt lat="50.1058816" lon="8.7188704">
                <ele>97.0</ele>
                <time>2020-08-30T11:18:25.000Z</time>
                <name>Trackpoint 4590</name>
            </trkpt>
            <trkpt lat="50.1058656" lon="8.7187296">
                <ele>97.0</ele>
                <time>2020-08-30T11:18:27.000Z</time>
                <name>Trackpoint 4591</name>
            </trkpt>
            <trkpt lat="50.1058528" lon="8.718592">
                <ele>97.0</ele>
                <time>2020-08-30T11:18:29.000Z</time>
                <name>Trackpoint 4592</name>
            </trkpt>
            <trkpt lat="50.1058336" lon="8.71846">
                <ele>97.0</ele>
                <time>2020-08-30T11:18:31.000Z</time>
                <name>Trackpoint 4593</name>
            </trkpt>
            <trkpt lat="50.1058112" lon="8.7183304">
                <ele>97.0</ele>
                <time>2020-08-30T11:18:33.000Z</time>
                <name>Trackpoint 4594</name>
            </trkpt>
            <trkpt lat="50.1057984" lon="8.7182064">
                <ele>97.0</ele>
                <time>2020-08-30T11:18:35.000Z</time>
                <name>Trackpoint 4595</name>
            </trkpt>
            <trkpt lat="50.1057888" lon="8.7180744">
                <ele>97.0</ele>
                <time>2020-08-30T11:18:37.000Z</time>
                <name>Trackpoint 4596</name>
            </trkpt>
            <trkpt lat="50.1057856" lon="8.7179416">
                <ele>97.0</ele>
                <time>2020-08-30T11:18:39.000Z</time>
                <name>Trackpoint 4597</name>
            </trkpt>
            <trkpt lat="50.1057536" lon="8.7177888">
                <ele>96.0</ele>
                <time>2020-08-30T11:18:41.000Z</time>
                <name>Trackpoint 4598</name>
            </trkpt>
            <trkpt lat="50.105744" lon="8.7176568">
                <ele>96.0</ele>
                <time>2020-08-30T11:18:43.000Z</time>
                <name>Trackpoint 4599</name>
            </trkpt>
            <trkpt lat="50.105728" lon="8.7175168">
                <ele>96.0</ele>
                <time>2020-08-30T11:18:45.000Z</time>
                <name>Trackpoint 4600</name>
            </trkpt>
            <trkpt lat="50.1057024" lon="8.7173704">
                <ele>96.0</ele>
                <time>2020-08-30T11:18:47.000Z</time>
                <name>Trackpoint 4601</name>
            </trkpt>
            <trkpt lat="50.1056832" lon="8.717228">
                <ele>96.0</ele>
                <time>2020-08-30T11:18:49.000Z</time>
                <name>Trackpoint 4602</name>
            </trkpt>
            <trkpt lat="50.105664" lon="8.7170832">
                <ele>95.0</ele>
                <time>2020-08-30T11:18:51.000Z</time>
                <name>Trackpoint 4603</name>
            </trkpt>
            <trkpt lat="50.1056544" lon="8.7169584">
                <ele>95.0</ele>
                <time>2020-08-30T11:18:53.000Z</time>
                <name>Trackpoint 4604</name>
            </trkpt>
            <trkpt lat="50.1056608" lon="8.7168232">
                <ele>95.0</ele>
                <time>2020-08-30T11:18:55.000Z</time>
                <name>Trackpoint 4605</name>
            </trkpt>
            <trkpt lat="50.1056704" lon="8.716688">
                <ele>95.0</ele>
                <time>2020-08-30T11:18:57.000Z</time>
                <name>Trackpoint 4606</name>
            </trkpt>
            <trkpt lat="50.10568" lon="8.7165696">
                <ele>95.0</ele>
                <time>2020-08-30T11:18:59.000Z</time>
                <name>Trackpoint 4607</name>
            </trkpt>
            <trkpt lat="50.1056896" lon="8.7164736">
                <ele>95.0</ele>
                <time>2020-08-30T11:19:02.000Z</time>
                <name>Trackpoint 4608</name>
            </trkpt>
            <trkpt lat="50.10568" lon="8.7163696">
                <ele>95.0</ele>
                <time>2020-08-30T11:19:43.000Z</time>
                <name>Trackpoint 4609</name>
            </trkpt>
            <trkpt lat="50.1056704" lon="8.7162384">
                <ele>95.0</ele>
                <time>2020-08-30T11:19:46.000Z</time>
                <name>Trackpoint 4610</name>
            </trkpt>
            <trkpt lat="50.1056704" lon="8.7161232">
                <ele>95.0</ele>
                <time>2020-08-30T11:19:48.000Z</time>
                <name>Trackpoint 4611</name>
            </trkpt>
            <trkpt lat="50.1056736" lon="8.7159928">
                <ele>95.0</ele>
                <time>2020-08-30T11:19:50.000Z</time>
                <name>Trackpoint 4612</name>
            </trkpt>
            <trkpt lat="50.10568" lon="8.7158536">
                <ele>95.0</ele>
                <time>2020-08-30T11:19:52.000Z</time>
                <name>Trackpoint 4613</name>
            </trkpt>
            <trkpt lat="50.10568" lon="8.7157112">
                <ele>94.0</ele>
                <time>2020-08-30T11:19:54.000Z</time>
                <name>Trackpoint 4614</name>
            </trkpt>
            <trkpt lat="50.1056864" lon="8.7155736">
                <ele>95.0</ele>
                <time>2020-08-30T11:19:56.000Z</time>
                <name>Trackpoint 4615</name>
            </trkpt>
            <trkpt lat="50.1056896" lon="8.715428">
                <ele>95.0</ele>
                <time>2020-08-30T11:19:58.000Z</time>
                <name>Trackpoint 4616</name>
            </trkpt>
            <trkpt lat="50.1056992" lon="8.7152864">
                <ele>95.0</ele>
                <time>2020-08-30T11:20:00.000Z</time>
                <name>Trackpoint 4617</name>
            </trkpt>
            <trkpt lat="50.1057024" lon="8.7151368">
                <ele>96.0</ele>
                <time>2020-08-30T11:20:02.000Z</time>
                <name>Trackpoint 4618</name>
            </trkpt>
            <trkpt lat="50.1057024" lon="8.7149888">
                <ele>95.0</ele>
                <time>2020-08-30T11:20:04.000Z</time>
                <name>Trackpoint 4619</name>
            </trkpt>
            <trkpt lat="50.1057056" lon="8.7148352">
                <ele>95.0</ele>
                <time>2020-08-30T11:20:06.000Z</time>
                <name>Trackpoint 4620</name>
            </trkpt>
            <trkpt lat="50.1057088" lon="8.7146856">
                <ele>95.0</ele>
                <time>2020-08-30T11:20:08.000Z</time>
                <name>Trackpoint 4621</name>
            </trkpt>
            <trkpt lat="50.1057152" lon="8.7145368">
                <ele>96.0</ele>
                <time>2020-08-30T11:20:10.000Z</time>
                <name>Trackpoint 4622</name>
            </trkpt>
            <trkpt lat="50.1057216" lon="8.71438">
                <ele>96.0</ele>
                <time>2020-08-30T11:20:12.000Z</time>
                <name>Trackpoint 4623</name>
            </trkpt>
            <trkpt lat="50.1057248" lon="8.7142">
                <ele>96.0</ele>
                <time>2020-08-30T11:20:14.000Z</time>
                <name>Trackpoint 4624</name>
            </trkpt>
            <trkpt lat="50.1057312" lon="8.7140312">
                <ele>96.0</ele>
                <time>2020-08-30T11:20:16.000Z</time>
                <name>Trackpoint 4625</name>
            </trkpt>
            <trkpt lat="50.1057472" lon="8.7138792">
                <ele>96.0</ele>
                <time>2020-08-30T11:20:18.000Z</time>
                <name>Trackpoint 4626</name>
            </trkpt>
            <trkpt lat="50.1057664" lon="8.7137232">
                <ele>96.0</ele>
                <time>2020-08-30T11:20:20.000Z</time>
                <name>Trackpoint 4627</name>
            </trkpt>
            <trkpt lat="50.1057792" lon="8.7135632">
                <ele>96.0</ele>
                <time>2020-08-30T11:20:22.000Z</time>
                <name>Trackpoint 4628</name>
            </trkpt>
            <trkpt lat="50.1057888" lon="8.7134112">
                <ele>96.0</ele>
                <time>2020-08-30T11:20:24.000Z</time>
                <name>Trackpoint 4629</name>
            </trkpt>
            <trkpt lat="50.1058016" lon="8.7132552">
                <ele>96.0</ele>
                <time>2020-08-30T11:20:26.000Z</time>
                <name>Trackpoint 4630</name>
            </trkpt>
            <trkpt lat="50.1058048" lon="8.7130896">
                <ele>97.0</ele>
                <time>2020-08-30T11:20:28.000Z</time>
                <name>Trackpoint 4631</name>
            </trkpt>
            <trkpt lat="50.105808" lon="8.7129984">
                <ele>97.0</ele>
                <time>2020-08-30T11:20:29.000Z</time>
                <name>Trackpoint 4632</name>
            </trkpt>
            <trkpt lat="50.105808" lon="8.7129072">
                <ele>96.0</ele>
                <time>2020-08-30T11:20:30.000Z</time>
                <name>Trackpoint 4633</name>
            </trkpt>
            <trkpt lat="50.1058112" lon="8.7128112">
                <ele>97.0</ele>
                <time>2020-08-30T11:20:31.000Z</time>
                <name>Trackpoint 4634</name>
            </trkpt>
            <trkpt lat="50.1058144" lon="8.7126464">
                <ele>97.0</ele>
                <time>2020-08-30T11:20:33.000Z</time>
                <name>Trackpoint 4635</name>
            </trkpt>
            <trkpt lat="50.105824" lon="8.7124816">
                <ele>97.0</ele>
                <time>2020-08-30T11:20:35.000Z</time>
                <name>Trackpoint 4636</name>
            </trkpt>
            <trkpt lat="50.1058304" lon="8.7123096">
                <ele>97.0</ele>
                <time>2020-08-30T11:20:37.000Z</time>
                <name>Trackpoint 4637</name>
            </trkpt>
            <trkpt lat="50.1058304" lon="8.7121432">
                <ele>97.0</ele>
                <time>2020-08-30T11:20:39.000Z</time>
                <name>Trackpoint 4638</name>
            </trkpt>
            <trkpt lat="50.1058272" lon="8.7120512">
                <ele>97.0</ele>
                <time>2020-08-30T11:20:40.000Z</time>
                <name>Trackpoint 4639</name>
            </trkpt>
            <trkpt lat="50.105824" lon="8.7118832">
                <ele>97.0</ele>
                <time>2020-08-30T11:20:42.000Z</time>
                <name>Trackpoint 4640</name>
            </trkpt>
            <trkpt lat="50.1058304" lon="8.7117168">
                <ele>97.0</ele>
                <time>2020-08-30T11:20:44.000Z</time>
                <name>Trackpoint 4641</name>
            </trkpt>
            <trkpt lat="50.1058336" lon="8.7115472">
                <ele>97.0</ele>
                <time>2020-08-30T11:20:46.000Z</time>
                <name>Trackpoint 4642</name>
            </trkpt>
            <trkpt lat="50.1058496" lon="8.7114032">
                <ele>97.0</ele>
                <time>2020-08-30T11:20:48.000Z</time>
                <name>Trackpoint 4643</name>
            </trkpt>
            <trkpt lat="50.1058656" lon="8.7112912">
                <ele>97.0</ele>
                <time>2020-08-30T11:20:50.000Z</time>
                <name>Trackpoint 4644</name>
            </trkpt>
            <trkpt lat="50.1058656" lon="8.7111304">
                <ele>97.0</ele>
                <time>2020-08-30T11:20:52.000Z</time>
                <name>Trackpoint 4645</name>
            </trkpt>
            <trkpt lat="50.105872" lon="8.7110368">
                <ele>96.0</ele>
                <time>2020-08-30T11:20:53.000Z</time>
                <name>Trackpoint 4646</name>
            </trkpt>
            <trkpt lat="50.1058848" lon="8.710868">
                <ele>96.0</ele>
                <time>2020-08-30T11:20:55.000Z</time>
                <name>Trackpoint 4647</name>
            </trkpt>
            <trkpt lat="50.105888" lon="8.7106984">
                <ele>96.0</ele>
                <time>2020-08-30T11:20:57.000Z</time>
                <name>Trackpoint 4648</name>
            </trkpt>
            <trkpt lat="50.105888" lon="8.710604">
                <ele>97.0</ele>
                <time>2020-08-30T11:20:58.000Z</time>
                <name>Trackpoint 4649</name>
            </trkpt>
            <trkpt lat="50.1058944" lon="8.7104456">
                <ele>97.0</ele>
                <time>2020-08-30T11:21:00.000Z</time>
                <name>Trackpoint 4650</name>
            </trkpt>
            <trkpt lat="50.1059008" lon="8.7102768">
                <ele>97.0</ele>
                <time>2020-08-30T11:21:02.000Z</time>
                <name>Trackpoint 4651</name>
            </trkpt>
            <trkpt lat="50.1059104" lon="8.7101088">
                <ele>97.0</ele>
                <time>2020-08-30T11:21:04.000Z</time>
                <name>Trackpoint 4652</name>
            </trkpt>
            <trkpt lat="50.1059136" lon="8.7100184">
                <ele>97.0</ele>
                <time>2020-08-30T11:21:05.000Z</time>
                <name>Trackpoint 4653</name>
            </trkpt>
            <trkpt lat="50.10592" lon="8.7098176">
                <ele>97.0</ele>
                <time>2020-08-30T11:21:07.000Z</time>
                <name>Trackpoint 4654</name>
            </trkpt>
            <trkpt lat="50.1059296" lon="8.7096552">
                <ele>97.0</ele>
                <time>2020-08-30T11:21:09.000Z</time>
                <name>Trackpoint 4655</name>
            </trkpt>
            <trkpt lat="50.1059264" lon="8.7095616">
                <ele>97.0</ele>
                <time>2020-08-30T11:21:10.000Z</time>
                <name>Trackpoint 4656</name>
            </trkpt>
            <trkpt lat="50.1059424" lon="8.7093936">
                <ele>97.0</ele>
                <time>2020-08-30T11:21:12.000Z</time>
                <name>Trackpoint 4657</name>
            </trkpt>
            <trkpt lat="50.1059616" lon="8.7092336">
                <ele>97.0</ele>
                <time>2020-08-30T11:21:14.000Z</time>
                <name>Trackpoint 4658</name>
            </trkpt>
            <trkpt lat="50.105968" lon="8.709068">
                <ele>97.0</ele>
                <time>2020-08-30T11:21:16.000Z</time>
                <name>Trackpoint 4659</name>
            </trkpt>
            <trkpt lat="50.1059808" lon="8.7089008">
                <ele>97.0</ele>
                <time>2020-08-30T11:21:18.000Z</time>
                <name>Trackpoint 4660</name>
            </trkpt>
            <trkpt lat="50.1059872" lon="8.7087352">
                <ele>97.0</ele>
                <time>2020-08-30T11:21:20.000Z</time>
                <name>Trackpoint 4661</name>
            </trkpt>
            <trkpt lat="50.1059904" lon="8.708564">
                <ele>97.0</ele>
                <time>2020-08-30T11:21:22.000Z</time>
                <name>Trackpoint 4662</name>
            </trkpt>
            <trkpt lat="50.1059936" lon="8.7084736">
                <ele>97.0</ele>
                <time>2020-08-30T11:21:23.000Z</time>
                <name>Trackpoint 4663</name>
            </trkpt>
            <trkpt lat="50.1060064" lon="8.7083">
                <ele>97.0</ele>
                <time>2020-08-30T11:21:25.000Z</time>
                <name>Trackpoint 4664</name>
            </trkpt>
            <trkpt lat="50.1060128" lon="8.708128">
                <ele>97.0</ele>
                <time>2020-08-30T11:21:27.000Z</time>
                <name>Trackpoint 4665</name>
            </trkpt>
            <trkpt lat="50.1060288" lon="8.7079584">
                <ele>97.0</ele>
                <time>2020-08-30T11:21:29.000Z</time>
                <name>Trackpoint 4666</name>
            </trkpt>
            <trkpt lat="50.1060384" lon="8.707784">
                <ele>97.0</ele>
                <time>2020-08-30T11:21:31.000Z</time>
                <name>Trackpoint 4667</name>
            </trkpt>
            <trkpt lat="50.1060384" lon="8.7076184">
                <ele>97.0</ele>
                <time>2020-08-30T11:21:33.000Z</time>
                <name>Trackpoint 4668</name>
            </trkpt>
            <trkpt lat="50.1060448" lon="8.7074536">
                <ele>97.0</ele>
                <time>2020-08-30T11:21:35.000Z</time>
                <name>Trackpoint 4669</name>
            </trkpt>
            <trkpt lat="50.106048" lon="8.707316">
                <ele>97.0</ele>
                <time>2020-08-30T11:21:37.000Z</time>
                <name>Trackpoint 4670</name>
            </trkpt>
            <trkpt lat="50.1060416" lon="8.7071952">
                <ele>97.0</ele>
                <time>2020-08-30T11:21:39.000Z</time>
                <name>Trackpoint 4671</name>
            </trkpt>
            <trkpt lat="50.106032" lon="8.7070888">
                <ele>97.0</ele>
                <time>2020-08-30T11:21:41.000Z</time>
                <name>Trackpoint 4672</name>
            </trkpt>
            <trkpt lat="50.106032" lon="8.7069856">
                <ele>97.0</ele>
                <time>2020-08-30T11:21:43.000Z</time>
                <name>Trackpoint 4673</name>
            </trkpt>
            <trkpt lat="50.1060416" lon="8.7068552">
                <ele>96.0</ele>
                <time>2020-08-30T11:21:45.000Z</time>
                <name>Trackpoint 4674</name>
            </trkpt>
            <trkpt lat="50.1060448" lon="8.7067016">
                <ele>96.0</ele>
                <time>2020-08-30T11:21:47.000Z</time>
                <name>Trackpoint 4675</name>
            </trkpt>
            <trkpt lat="50.1060448" lon="8.7065432">
                <ele>96.0</ele>
                <time>2020-08-30T11:21:49.000Z</time>
                <name>Trackpoint 4676</name>
            </trkpt>
            <trkpt lat="50.1060448" lon="8.70638">
                <ele>97.0</ele>
                <time>2020-08-30T11:21:51.000Z</time>
                <name>Trackpoint 4677</name>
            </trkpt>
            <trkpt lat="50.1060576" lon="8.706232">
                <ele>97.0</ele>
                <time>2020-08-30T11:21:53.000Z</time>
                <name>Trackpoint 4678</name>
            </trkpt>
            <trkpt lat="50.1060608" lon="8.7060648">
                <ele>97.0</ele>
                <time>2020-08-30T11:21:55.000Z</time>
                <name>Trackpoint 4679</name>
            </trkpt>
            <trkpt lat="50.1060768" lon="8.705912">
                <ele>97.0</ele>
                <time>2020-08-30T11:21:57.000Z</time>
                <name>Trackpoint 4680</name>
            </trkpt>
            <trkpt lat="50.1060864" lon="8.7057648">
                <ele>97.0</ele>
                <time>2020-08-30T11:21:59.000Z</time>
                <name>Trackpoint 4681</name>
            </trkpt>
            <trkpt lat="50.1060992" lon="8.7056064">
                <ele>97.0</ele>
                <time>2020-08-30T11:22:01.000Z</time>
                <name>Trackpoint 4682</name>
            </trkpt>
            <trkpt lat="50.1061184" lon="8.7054592">
                <ele>97.0</ele>
                <time>2020-08-30T11:22:03.000Z</time>
                <name>Trackpoint 4683</name>
            </trkpt>
            <trkpt lat="50.1061312" lon="8.705272">
                <ele>97.0</ele>
                <time>2020-08-30T11:22:05.000Z</time>
                <name>Trackpoint 4684</name>
            </trkpt>
            <trkpt lat="50.1061248" lon="8.7051712">
                <ele>97.0</ele>
                <time>2020-08-30T11:22:06.000Z</time>
                <name>Trackpoint 4685</name>
            </trkpt>
            <trkpt lat="50.1061024" lon="8.705056">
                <ele>96.0</ele>
                <time>2020-08-30T11:22:07.000Z</time>
                <name>Trackpoint 4686</name>
            </trkpt>
            <trkpt lat="50.1060992" lon="8.7049016">
                <ele>96.0</ele>
                <time>2020-08-30T11:22:09.000Z</time>
                <name>Trackpoint 4687</name>
            </trkpt>
            <trkpt lat="50.1060896" lon="8.704728">
                <ele>97.0</ele>
                <time>2020-08-30T11:22:11.000Z</time>
                <name>Trackpoint 4688</name>
            </trkpt>
            <trkpt lat="50.1060864" lon="8.704628">
                <ele>97.0</ele>
                <time>2020-08-30T11:22:12.000Z</time>
                <name>Trackpoint 4689</name>
            </trkpt>
            <trkpt lat="50.1060704" lon="8.7045368">
                <ele>97.0</ele>
                <time>2020-08-30T11:22:13.000Z</time>
                <name>Trackpoint 4690</name>
            </trkpt>
            <trkpt lat="50.1060448" lon="8.7043712">
                <ele>97.0</ele>
                <time>2020-08-30T11:22:15.000Z</time>
                <name>Trackpoint 4691</name>
            </trkpt>
            <trkpt lat="50.106032" lon="8.7042248">
                <ele>97.0</ele>
                <time>2020-08-30T11:22:17.000Z</time>
                <name>Trackpoint 4692</name>
            </trkpt>
            <trkpt lat="50.1060256" lon="8.7040904">
                <ele>97.0</ele>
                <time>2020-08-30T11:22:19.000Z</time>
                <name>Trackpoint 4693</name>
            </trkpt>
            <trkpt lat="50.1060256" lon="8.7039368">
                <ele>97.0</ele>
                <time>2020-08-30T11:22:21.000Z</time>
                <name>Trackpoint 4694</name>
            </trkpt>
            <trkpt lat="50.1060224" lon="8.7038088">
                <ele>97.0</ele>
                <time>2020-08-30T11:22:23.000Z</time>
                <name>Trackpoint 4695</name>
            </trkpt>
            <trkpt lat="50.1060224" lon="8.703716">
                <ele>97.0</ele>
                <time>2020-08-30T11:22:57.000Z</time>
                <name>Trackpoint 4696</name>
            </trkpt>
            <trkpt lat="50.1060064" lon="8.7035952">
                <ele>97.0</ele>
                <time>2020-08-30T11:23:40.000Z</time>
                <name>Trackpoint 4697</name>
            </trkpt>
            <trkpt lat="50.106032" lon="8.7034864">
                <ele>97.0</ele>
                <time>2020-08-30T11:23:42.000Z</time>
                <name>Trackpoint 4698</name>
            </trkpt>
            <trkpt lat="50.1060512" lon="8.7033656">
                <ele>97.0</ele>
                <time>2020-08-30T11:23:44.000Z</time>
                <name>Trackpoint 4699</name>
            </trkpt>
            <trkpt lat="50.106064" lon="8.7032296">
                <ele>97.0</ele>
                <time>2020-08-30T11:23:46.000Z</time>
                <name>Trackpoint 4700</name>
            </trkpt>
            <trkpt lat="50.1060832" lon="8.7030952">
                <ele>97.0</ele>
                <time>2020-08-30T11:23:48.000Z</time>
                <name>Trackpoint 4701</name>
            </trkpt>
            <trkpt lat="50.1060928" lon="8.7029368">
                <ele>97.0</ele>
                <time>2020-08-30T11:23:50.000Z</time>
                <name>Trackpoint 4702</name>
            </trkpt>
            <trkpt lat="50.1061248" lon="8.7027816">
                <ele>97.0</ele>
                <time>2020-08-30T11:23:52.000Z</time>
                <name>Trackpoint 4703</name>
            </trkpt>
            <trkpt lat="50.1061472" lon="8.7026184">
                <ele>97.0</ele>
                <time>2020-08-30T11:23:54.000Z</time>
                <name>Trackpoint 4704</name>
            </trkpt>
            <trkpt lat="50.1061568" lon="8.7024536">
                <ele>97.0</ele>
                <time>2020-08-30T11:23:56.000Z</time>
                <name>Trackpoint 4705</name>
            </trkpt>
            <trkpt lat="50.1061632" lon="8.7022936">
                <ele>97.0</ele>
                <time>2020-08-30T11:23:58.000Z</time>
                <name>Trackpoint 4706</name>
            </trkpt>
            <trkpt lat="50.1061664" lon="8.7021368">
                <ele>97.0</ele>
                <time>2020-08-30T11:24:00.000Z</time>
                <name>Trackpoint 4707</name>
            </trkpt>
            <trkpt lat="50.1061792" lon="8.701988">
                <ele>97.0</ele>
                <time>2020-08-30T11:24:02.000Z</time>
                <name>Trackpoint 4708</name>
            </trkpt>
            <trkpt lat="50.106192" lon="8.7018496">
                <ele>97.0</ele>
                <time>2020-08-30T11:24:04.000Z</time>
                <name>Trackpoint 4709</name>
            </trkpt>
            <trkpt lat="50.1062112" lon="8.701712">
                <ele>97.0</ele>
                <time>2020-08-30T11:24:06.000Z</time>
                <name>Trackpoint 4710</name>
            </trkpt>
            <trkpt lat="50.1062368" lon="8.7015496">
                <ele>98.0</ele>
                <time>2020-08-30T11:24:08.000Z</time>
                <name>Trackpoint 4711</name>
            </trkpt>
            <trkpt lat="50.1062912" lon="8.7014104">
                <ele>97.0</ele>
                <time>2020-08-30T11:24:10.000Z</time>
                <name>Trackpoint 4712</name>
            </trkpt>
            <trkpt lat="50.1063424" lon="8.7012656">
                <ele>97.0</ele>
                <time>2020-08-30T11:24:12.000Z</time>
                <name>Trackpoint 4713</name>
            </trkpt>
            <trkpt lat="50.1063424" lon="8.7011584">
                <ele>97.0</ele>
                <time>2020-08-30T11:24:13.000Z</time>
                <name>Trackpoint 4714</name>
            </trkpt>
            <trkpt lat="50.1063584" lon="8.7009936">
                <ele>97.0</ele>
                <time>2020-08-30T11:24:15.000Z</time>
                <name>Trackpoint 4715</name>
            </trkpt>
            <trkpt lat="50.1063744" lon="8.7008304">
                <ele>98.0</ele>
                <time>2020-08-30T11:24:17.000Z</time>
                <name>Trackpoint 4716</name>
            </trkpt>
            <trkpt lat="50.106384" lon="8.70066">
                <ele>98.0</ele>
                <time>2020-08-30T11:24:19.000Z</time>
                <name>Trackpoint 4717</name>
            </trkpt>
            <trkpt lat="50.1063968" lon="8.7005032">
                <ele>97.0</ele>
                <time>2020-08-30T11:24:21.000Z</time>
                <name>Trackpoint 4718</name>
            </trkpt>
            <trkpt lat="50.1064064" lon="8.7003584">
                <ele>97.0</ele>
                <time>2020-08-30T11:24:23.000Z</time>
                <name>Trackpoint 4719</name>
            </trkpt>
            <trkpt lat="50.1064192" lon="8.7002248">
                <ele>97.0</ele>
                <time>2020-08-30T11:24:25.000Z</time>
                <name>Trackpoint 4720</name>
            </trkpt>
            <trkpt lat="50.1064288" lon="8.7001">
                <ele>96.0</ele>
                <time>2020-08-30T11:24:27.000Z</time>
                <name>Trackpoint 4721</name>
            </trkpt>
            <trkpt lat="50.1064416" lon="8.6999848">
                <ele>96.0</ele>
                <time>2020-08-30T11:24:29.000Z</time>
                <name>Trackpoint 4722</name>
            </trkpt>
            <trkpt lat="50.1064544" lon="8.6998904">
                <ele>96.0</ele>
                <time>2020-08-30T11:24:31.000Z</time>
                <name>Trackpoint 4723</name>
            </trkpt>
            <trkpt lat="50.10648" lon="8.6997992">
                <ele>95.0</ele>
                <time>2020-08-30T11:24:35.000Z</time>
                <name>Trackpoint 4724</name>
            </trkpt>
            <trkpt lat="50.1064832" lon="8.6998216">
                <ele>95.0</ele>
                <time>2020-08-30T12:10:59.000Z</time>
                <name>Trackpoint 4725</name>
            </trkpt>
            <trkpt lat="50.1064768" lon="8.6997144">
                <ele>95.0</ele>
                <time>2020-08-30T12:11:44.000Z</time>
                <name>Trackpoint 4726</name>
            </trkpt>
            <trkpt lat="50.1064672" lon="8.699612">
                <ele>95.0</ele>
                <time>2020-08-30T12:11:50.000Z</time>
                <name>Trackpoint 4727</name>
            </trkpt>
            <trkpt lat="50.1064896" lon="8.6994984">
                <ele>95.0</ele>
                <time>2020-08-30T12:11:53.000Z</time>
                <name>Trackpoint 4728</name>
            </trkpt>
            <trkpt lat="50.1065024" lon="8.6994064">
                <ele>95.0</ele>
                <time>2020-08-30T12:11:55.000Z</time>
                <name>Trackpoint 4729</name>
            </trkpt>
            <trkpt lat="50.1065248" lon="8.6992712">
                <ele>95.0</ele>
                <time>2020-08-30T12:11:58.000Z</time>
                <name>Trackpoint 4730</name>
            </trkpt>
            <trkpt lat="50.1065376" lon="8.6991728">
                <ele>95.0</ele>
                <time>2020-08-30T12:12:00.000Z</time>
                <name>Trackpoint 4731</name>
            </trkpt>
            <trkpt lat="50.1065472" lon="8.6990808">
                <ele>95.0</ele>
                <time>2020-08-30T12:12:02.000Z</time>
                <name>Trackpoint 4732</name>
            </trkpt>
            <trkpt lat="50.1065568" lon="8.6989872">
                <ele>94.0</ele>
                <time>2020-08-30T12:12:04.000Z</time>
                <name>Trackpoint 4733</name>
            </trkpt>
            <trkpt lat="50.1065664" lon="8.6988936">
                <ele>95.0</ele>
                <time>2020-08-30T12:12:06.000Z</time>
                <name>Trackpoint 4734</name>
            </trkpt>
            <trkpt lat="50.1065792" lon="8.698796">
                <ele>95.0</ele>
                <time>2020-08-30T12:12:08.000Z</time>
                <name>Trackpoint 4735</name>
            </trkpt>
            <trkpt lat="50.1065888" lon="8.6986888">
                <ele>94.0</ele>
                <time>2020-08-30T12:12:10.000Z</time>
                <name>Trackpoint 4736</name>
            </trkpt>
            <trkpt lat="50.1065984" lon="8.6985768">
                <ele>94.0</ele>
                <time>2020-08-30T12:12:12.000Z</time>
                <name>Trackpoint 4737</name>
            </trkpt>
            <trkpt lat="50.106608" lon="8.6984664">
                <ele>94.0</ele>
                <time>2020-08-30T12:12:14.000Z</time>
                <name>Trackpoint 4738</name>
            </trkpt>
            <trkpt lat="50.1066208" lon="8.6983632">
                <ele>94.0</ele>
                <time>2020-08-30T12:12:16.000Z</time>
                <name>Trackpoint 4739</name>
            </trkpt>
            <trkpt lat="50.1066272" lon="8.6982616">
                <ele>94.0</ele>
                <time>2020-08-30T12:12:18.000Z</time>
                <name>Trackpoint 4740</name>
            </trkpt>
            <trkpt lat="50.10664" lon="8.6981672">
                <ele>94.0</ele>
                <time>2020-08-30T12:12:20.000Z</time>
                <name>Trackpoint 4741</name>
            </trkpt>
            <trkpt lat="50.1066464" lon="8.6980432">
                <ele>93.0</ele>
                <time>2020-08-30T12:12:23.000Z</time>
                <name>Trackpoint 4742</name>
            </trkpt>
            <trkpt lat="50.1066592" lon="8.6979288">
                <ele>92.0</ele>
                <time>2020-08-30T12:12:26.000Z</time>
                <name>Trackpoint 4743</name>
            </trkpt>
            <trkpt lat="50.1066624" lon="8.6978264">
                <ele>93.0</ele>
                <time>2020-08-30T12:13:27.000Z</time>
                <name>Trackpoint 4744</name>
            </trkpt>
            <trkpt lat="50.1066656" lon="8.697732">
                <ele>92.0</ele>
                <time>2020-08-30T12:13:30.000Z</time>
                <name>Trackpoint 4745</name>
            </trkpt>
            <trkpt lat="50.1066816" lon="8.6976032">
                <ele>92.0</ele>
                <time>2020-08-30T12:13:33.000Z</time>
                <name>Trackpoint 4746</name>
            </trkpt>
            <trkpt lat="50.1066944" lon="8.6975024">
                <ele>92.0</ele>
                <time>2020-08-30T12:13:35.000Z</time>
                <name>Trackpoint 4747</name>
            </trkpt>
            <trkpt lat="50.106704" lon="8.6974024">
                <ele>92.0</ele>
                <time>2020-08-30T12:13:37.000Z</time>
                <name>Trackpoint 4748</name>
            </trkpt>
            <trkpt lat="50.1067136" lon="8.6973048">
                <ele>92.0</ele>
                <time>2020-08-30T12:13:39.000Z</time>
                <name>Trackpoint 4749</name>
            </trkpt>
            <trkpt lat="50.1067264" lon="8.6971712">
                <ele>92.0</ele>
                <time>2020-08-30T12:13:42.000Z</time>
                <name>Trackpoint 4750</name>
            </trkpt>
            <trkpt lat="50.1067392" lon="8.6970504">
                <ele>92.0</ele>
                <time>2020-08-30T12:13:45.000Z</time>
                <name>Trackpoint 4751</name>
            </trkpt>
            <trkpt lat="50.1067264" lon="8.6969544">
                <ele>92.0</ele>
                <time>2020-08-30T12:13:59.000Z</time>
                <name>Trackpoint 4752</name>
            </trkpt>
            <trkpt lat="50.1067328" lon="8.6968584">
                <ele>92.0</ele>
                <time>2020-08-30T12:14:17.000Z</time>
                <name>Trackpoint 4753</name>
            </trkpt>
            <trkpt lat="50.1067456" lon="8.6967336">
                <ele>92.0</ele>
                <time>2020-08-30T12:14:20.000Z</time>
                <name>Trackpoint 4754</name>
            </trkpt>
            <trkpt lat="50.1067616" lon="8.6966184">
                <ele>92.0</ele>
                <time>2020-08-30T12:14:23.000Z</time>
                <name>Trackpoint 4755</name>
            </trkpt>
            <trkpt lat="50.1067744" lon="8.69652">
                <ele>92.0</ele>
                <time>2020-08-30T12:14:53.000Z</time>
                <name>Trackpoint 4756</name>
            </trkpt>
            <trkpt lat="50.1067968" lon="8.6963832">
                <ele>92.0</ele>
                <time>2020-08-30T12:14:56.000Z</time>
                <name>Trackpoint 4757</name>
            </trkpt>
            <trkpt lat="50.1068128" lon="8.6962568">
                <ele>92.0</ele>
                <time>2020-08-30T12:14:58.000Z</time>
                <name>Trackpoint 4758</name>
            </trkpt>
            <trkpt lat="50.1068256" lon="8.6961216">
                <ele>92.0</ele>
                <time>2020-08-30T12:15:00.000Z</time>
                <name>Trackpoint 4759</name>
            </trkpt>
            <trkpt lat="50.1068416" lon="8.6959816">
                <ele>92.0</ele>
                <time>2020-08-30T12:15:02.000Z</time>
                <name>Trackpoint 4760</name>
            </trkpt>
            <trkpt lat="50.1068544" lon="8.6958416">
                <ele>92.0</ele>
                <time>2020-08-30T12:15:04.000Z</time>
                <name>Trackpoint 4761</name>
            </trkpt>
            <trkpt lat="50.1068672" lon="8.6957016">
                <ele>91.0</ele>
                <time>2020-08-30T12:15:06.000Z</time>
                <name>Trackpoint 4762</name>
            </trkpt>
            <trkpt lat="50.1068928" lon="8.6955632">
                <ele>92.0</ele>
                <time>2020-08-30T12:15:08.000Z</time>
                <name>Trackpoint 4763</name>
            </trkpt>
            <trkpt lat="50.1069056" lon="8.69542">
                <ele>92.0</ele>
                <time>2020-08-30T12:15:10.000Z</time>
                <name>Trackpoint 4764</name>
            </trkpt>
            <trkpt lat="50.1069152" lon="8.6952784">
                <ele>92.0</ele>
                <time>2020-08-30T12:15:12.000Z</time>
                <name>Trackpoint 4765</name>
            </trkpt>
            <trkpt lat="50.1069216" lon="8.6951336">
                <ele>92.0</ele>
                <time>2020-08-30T12:15:14.000Z</time>
                <name>Trackpoint 4766</name>
            </trkpt>
            <trkpt lat="50.1069312" lon="8.6949816">
                <ele>92.0</ele>
                <time>2020-08-30T12:15:16.000Z</time>
                <name>Trackpoint 4767</name>
            </trkpt>
            <trkpt lat="50.1069504" lon="8.694848">
                <ele>91.0</ele>
                <time>2020-08-30T12:15:18.000Z</time>
                <name>Trackpoint 4768</name>
            </trkpt>
            <trkpt lat="50.1069664" lon="8.6947336">
                <ele>92.0</ele>
                <time>2020-08-30T12:15:20.000Z</time>
                <name>Trackpoint 4769</name>
            </trkpt>
            <trkpt lat="50.1069856" lon="8.6945952">
                <ele>92.0</ele>
                <time>2020-08-30T12:15:22.000Z</time>
                <name>Trackpoint 4770</name>
            </trkpt>
            <trkpt lat="50.1070016" lon="8.6944512">
                <ele>92.0</ele>
                <time>2020-08-30T12:15:24.000Z</time>
                <name>Trackpoint 4771</name>
            </trkpt>
            <trkpt lat="50.1070208" lon="8.6943216">
                <ele>92.0</ele>
                <time>2020-08-30T12:15:26.000Z</time>
                <name>Trackpoint 4772</name>
            </trkpt>
            <trkpt lat="50.1070336" lon="8.6941768">
                <ele>92.0</ele>
                <time>2020-08-30T12:15:28.000Z</time>
                <name>Trackpoint 4773</name>
            </trkpt>
            <trkpt lat="50.1070432" lon="8.694028">
                <ele>91.0</ele>
                <time>2020-08-30T12:15:30.000Z</time>
                <name>Trackpoint 4774</name>
            </trkpt>
            <trkpt lat="50.107056" lon="8.6938816">
                <ele>91.0</ele>
                <time>2020-08-30T12:15:32.000Z</time>
                <name>Trackpoint 4775</name>
            </trkpt>
            <trkpt lat="50.107072" lon="8.6937368">
                <ele>91.0</ele>
                <time>2020-08-30T12:15:34.000Z</time>
                <name>Trackpoint 4776</name>
            </trkpt>
            <trkpt lat="50.1070848" lon="8.6936">
                <ele>91.0</ele>
                <time>2020-08-30T12:15:36.000Z</time>
                <name>Trackpoint 4777</name>
            </trkpt>
            <trkpt lat="50.1070976" lon="8.6934608">
                <ele>91.0</ele>
                <time>2020-08-30T12:15:38.000Z</time>
                <name>Trackpoint 4778</name>
            </trkpt>
            <trkpt lat="50.107104" lon="8.6933184">
                <ele>91.0</ele>
                <time>2020-08-30T12:15:40.000Z</time>
                <name>Trackpoint 4779</name>
            </trkpt>
            <trkpt lat="50.1071168" lon="8.6932">
                <ele>91.0</ele>
                <time>2020-08-30T12:15:42.000Z</time>
                <name>Trackpoint 4780</name>
            </trkpt>
            <trkpt lat="50.1071328" lon="8.6930784">
                <ele>91.0</ele>
                <time>2020-08-30T12:15:44.000Z</time>
                <name>Trackpoint 4781</name>
            </trkpt>
            <trkpt lat="50.1071424" lon="8.6929528">
                <ele>91.0</ele>
                <time>2020-08-30T12:15:46.000Z</time>
                <name>Trackpoint 4782</name>
            </trkpt>
            <trkpt lat="50.1071552" lon="8.692832">
                <ele>91.0</ele>
                <time>2020-08-30T12:15:48.000Z</time>
                <name>Trackpoint 4783</name>
            </trkpt>
            <trkpt lat="50.1071616" lon="8.6927184">
                <ele>91.0</ele>
                <time>2020-08-30T12:15:50.000Z</time>
                <name>Trackpoint 4784</name>
            </trkpt>
            <trkpt lat="50.1071712" lon="8.69262">
                <ele>91.0</ele>
                <time>2020-08-30T12:15:52.000Z</time>
                <name>Trackpoint 4785</name>
            </trkpt>
            <trkpt lat="50.1071936" lon="8.6925272">
                <ele>91.0</ele>
                <time>2020-08-30T12:15:54.000Z</time>
                <name>Trackpoint 4786</name>
            </trkpt>
            <trkpt lat="50.107216" lon="8.6924312">
                <ele>91.0</ele>
                <time>2020-08-30T12:15:56.000Z</time>
                <name>Trackpoint 4787</name>
            </trkpt>
            <trkpt lat="50.1072128" lon="8.69234">
                <ele>91.0</ele>
                <time>2020-08-30T12:15:59.000Z</time>
                <name>Trackpoint 4788</name>
            </trkpt>
            <trkpt lat="50.1072128" lon="8.6922464">
                <ele>91.0</ele>
                <time>2020-08-30T12:16:02.000Z</time>
                <name>Trackpoint 4789</name>
            </trkpt>
            <trkpt lat="50.1072224" lon="8.692132">
                <ele>90.0</ele>
                <time>2020-08-30T12:16:06.000Z</time>
                <name>Trackpoint 4790</name>
            </trkpt>
            <trkpt lat="50.107232" lon="8.6920344">
                <ele>90.0</ele>
                <time>2020-08-30T12:16:10.000Z</time>
                <name>Trackpoint 4791</name>
            </trkpt>
            <trkpt lat="50.1072384" lon="8.6919136">
                <ele>89.0</ele>
                <time>2020-08-30T12:17:33.000Z</time>
                <name>Trackpoint 4792</name>
            </trkpt>
            <trkpt lat="50.1072448" lon="8.6918184">
                <ele>89.0</ele>
                <time>2020-08-30T12:17:35.000Z</time>
                <name>Trackpoint 4793</name>
            </trkpt>
            <trkpt lat="50.1072576" lon="8.6917064">
                <ele>89.0</ele>
                <time>2020-08-30T12:17:37.000Z</time>
                <name>Trackpoint 4794</name>
            </trkpt>
            <trkpt lat="50.1072704" lon="8.6915816">
                <ele>89.0</ele>
                <time>2020-08-30T12:17:39.000Z</time>
                <name>Trackpoint 4795</name>
            </trkpt>
            <trkpt lat="50.1072896" lon="8.6914456">
                <ele>89.0</ele>
                <time>2020-08-30T12:17:41.000Z</time>
                <name>Trackpoint 4796</name>
            </trkpt>
            <trkpt lat="50.1072992" lon="8.6913096">
                <ele>89.0</ele>
                <time>2020-08-30T12:17:43.000Z</time>
                <name>Trackpoint 4797</name>
            </trkpt>
            <trkpt lat="50.1073152" lon="8.6911768">
                <ele>90.0</ele>
                <time>2020-08-30T12:17:45.000Z</time>
                <name>Trackpoint 4798</name>
            </trkpt>
            <trkpt lat="50.1073216" lon="8.6910536">
                <ele>90.0</ele>
                <time>2020-08-30T12:17:47.000Z</time>
                <name>Trackpoint 4799</name>
            </trkpt>
            <trkpt lat="50.1073344" lon="8.6909248">
                <ele>90.0</ele>
                <time>2020-08-30T12:17:49.000Z</time>
                <name>Trackpoint 4800</name>
            </trkpt>
            <trkpt lat="50.107344" lon="8.6907856">
                <ele>90.0</ele>
                <time>2020-08-30T12:17:51.000Z</time>
                <name>Trackpoint 4801</name>
            </trkpt>
            <trkpt lat="50.1073568" lon="8.6906456">
                <ele>91.0</ele>
                <time>2020-08-30T12:17:53.000Z</time>
                <name>Trackpoint 4802</name>
            </trkpt>
            <trkpt lat="50.1073728" lon="8.690512">
                <ele>91.0</ele>
                <time>2020-08-30T12:17:55.000Z</time>
                <name>Trackpoint 4803</name>
            </trkpt>
            <trkpt lat="50.1073824" lon="8.6903848">
                <ele>91.0</ele>
                <time>2020-08-30T12:17:57.000Z</time>
                <name>Trackpoint 4804</name>
            </trkpt>
            <trkpt lat="50.107392" lon="8.6902664">
                <ele>92.0</ele>
                <time>2020-08-30T12:17:59.000Z</time>
                <name>Trackpoint 4805</name>
            </trkpt>
            <trkpt lat="50.1073984" lon="8.6901576">
                <ele>92.0</ele>
                <time>2020-08-30T12:18:01.000Z</time>
                <name>Trackpoint 4806</name>
            </trkpt>
            <trkpt lat="50.107408" lon="8.690048">
                <ele>92.0</ele>
                <time>2020-08-30T12:18:03.000Z</time>
                <name>Trackpoint 4807</name>
            </trkpt>
            <trkpt lat="50.1074112" lon="8.6899456">
                <ele>92.0</ele>
                <time>2020-08-30T12:18:05.000Z</time>
                <name>Trackpoint 4808</name>
            </trkpt>
            <trkpt lat="50.1074208" lon="8.68984">
                <ele>91.0</ele>
                <time>2020-08-30T12:18:07.000Z</time>
                <name>Trackpoint 4809</name>
            </trkpt>
            <trkpt lat="50.1074304" lon="8.6897336">
                <ele>91.0</ele>
                <time>2020-08-30T12:18:09.000Z</time>
                <name>Trackpoint 4810</name>
            </trkpt>
            <trkpt lat="50.1074496" lon="8.689636">
                <ele>91.0</ele>
                <time>2020-08-30T12:18:11.000Z</time>
                <name>Trackpoint 4811</name>
            </trkpt>
            <trkpt lat="50.1074688" lon="8.6895312">
                <ele>91.0</ele>
                <time>2020-08-30T12:18:13.000Z</time>
                <name>Trackpoint 4812</name>
            </trkpt>
            <trkpt lat="50.107472" lon="8.6894128">
                <ele>91.0</ele>
                <time>2020-08-30T12:18:15.000Z</time>
                <name>Trackpoint 4813</name>
            </trkpt>
            <trkpt lat="50.107488" lon="8.6892904">
                <ele>91.0</ele>
                <time>2020-08-30T12:18:17.000Z</time>
                <name>Trackpoint 4814</name>
            </trkpt>
            <trkpt lat="50.1074976" lon="8.6891536">
                <ele>91.0</ele>
                <time>2020-08-30T12:18:19.000Z</time>
                <name>Trackpoint 4815</name>
            </trkpt>
            <trkpt lat="50.1075072" lon="8.6890112">
                <ele>92.0</ele>
                <time>2020-08-30T12:18:21.000Z</time>
                <name>Trackpoint 4816</name>
            </trkpt>
            <trkpt lat="50.1075072" lon="8.68888">
                <ele>92.0</ele>
                <time>2020-08-30T12:18:23.000Z</time>
                <name>Trackpoint 4817</name>
            </trkpt>
            <trkpt lat="50.1075104" lon="8.68876">
                <ele>91.0</ele>
                <time>2020-08-30T12:18:25.000Z</time>
                <name>Trackpoint 4818</name>
            </trkpt>
            <trkpt lat="50.1075136" lon="8.6886416">
                <ele>92.0</ele>
                <time>2020-08-30T12:18:27.000Z</time>
                <name>Trackpoint 4819</name>
            </trkpt>
            <trkpt lat="50.1075136" lon="8.6885248">
                <ele>92.0</ele>
                <time>2020-08-30T12:18:29.000Z</time>
                <name>Trackpoint 4820</name>
            </trkpt>
            <trkpt lat="50.1075072" lon="8.688408">
                <ele>92.0</ele>
                <time>2020-08-30T12:18:31.000Z</time>
                <name>Trackpoint 4821</name>
            </trkpt>
            <trkpt lat="50.107488" lon="8.6882912">
                <ele>92.0</ele>
                <time>2020-08-30T12:18:33.000Z</time>
                <name>Trackpoint 4822</name>
            </trkpt>
            <trkpt lat="50.1074624" lon="8.6881864">
                <ele>92.0</ele>
                <time>2020-08-30T12:18:35.000Z</time>
                <name>Trackpoint 4823</name>
            </trkpt>
            <trkpt lat="50.1074528" lon="8.6880928">
                <ele>92.0</ele>
                <time>2020-08-30T12:18:37.000Z</time>
                <name>Trackpoint 4824</name>
            </trkpt>
            <trkpt lat="50.1074336" lon="8.687968">
                <ele>92.0</ele>
                <time>2020-08-30T12:18:40.000Z</time>
                <name>Trackpoint 4825</name>
            </trkpt>
            <trkpt lat="50.10744" lon="8.6878616">
                <ele>92.0</ele>
                <time>2020-08-30T12:18:43.000Z</time>
                <name>Trackpoint 4826</name>
            </trkpt>
            <trkpt lat="50.1074496" lon="8.6877336">
                <ele>92.0</ele>
                <time>2020-08-30T12:18:45.000Z</time>
                <name>Trackpoint 4827</name>
            </trkpt>
            <trkpt lat="50.107472" lon="8.6876">
                <ele>92.0</ele>
                <time>2020-08-30T12:18:47.000Z</time>
                <name>Trackpoint 4828</name>
            </trkpt>
            <trkpt lat="50.1074912" lon="8.6874864">
                <ele>92.0</ele>
                <time>2020-08-30T12:18:49.000Z</time>
                <name>Trackpoint 4829</name>
            </trkpt>
            <trkpt lat="50.107488" lon="8.68736">
                <ele>92.0</ele>
                <time>2020-08-30T12:18:51.000Z</time>
                <name>Trackpoint 4830</name>
            </trkpt>
            <trkpt lat="50.1074976" lon="8.6872216">
                <ele>93.0</ele>
                <time>2020-08-30T12:18:53.000Z</time>
                <name>Trackpoint 4831</name>
            </trkpt>
            <trkpt lat="50.10752" lon="8.6870848">
                <ele>92.0</ele>
                <time>2020-08-30T12:18:55.000Z</time>
                <name>Trackpoint 4832</name>
            </trkpt>
            <trkpt lat="50.107552" lon="8.6869448">
                <ele>92.0</ele>
                <time>2020-08-30T12:18:57.000Z</time>
                <name>Trackpoint 4833</name>
            </trkpt>
            <trkpt lat="50.1075776" lon="8.6868088">
                <ele>92.0</ele>
                <time>2020-08-30T12:18:59.000Z</time>
                <name>Trackpoint 4834</name>
            </trkpt>
            <trkpt lat="50.1075968" lon="8.6866648">
                <ele>92.0</ele>
                <time>2020-08-30T12:19:01.000Z</time>
                <name>Trackpoint 4835</name>
            </trkpt>
            <trkpt lat="50.107616" lon="8.686512">
                <ele>93.0</ele>
                <time>2020-08-30T12:19:03.000Z</time>
                <name>Trackpoint 4836</name>
            </trkpt>
            <trkpt lat="50.107632" lon="8.6863568">
                <ele>93.0</ele>
                <time>2020-08-30T12:19:05.000Z</time>
                <name>Trackpoint 4837</name>
            </trkpt>
            <trkpt lat="50.1076544" lon="8.6862024">
                <ele>93.0</ele>
                <time>2020-08-30T12:19:07.000Z</time>
                <name>Trackpoint 4838</name>
            </trkpt>
            <trkpt lat="50.1076608" lon="8.6860536">
                <ele>94.0</ele>
                <time>2020-08-30T12:19:09.000Z</time>
                <name>Trackpoint 4839</name>
            </trkpt>
            <trkpt lat="50.1076704" lon="8.6859032">
                <ele>94.0</ele>
                <time>2020-08-30T12:19:11.000Z</time>
                <name>Trackpoint 4840</name>
            </trkpt>
            <trkpt lat="50.1076864" lon="8.6857504">
                <ele>94.0</ele>
                <time>2020-08-30T12:19:13.000Z</time>
                <name>Trackpoint 4841</name>
            </trkpt>
            <trkpt lat="50.1076896" lon="8.6855944">
                <ele>94.0</ele>
                <time>2020-08-30T12:19:15.000Z</time>
                <name>Trackpoint 4842</name>
            </trkpt>
            <trkpt lat="50.1076928" lon="8.6854552">
                <ele>94.0</ele>
                <time>2020-08-30T12:19:17.000Z</time>
                <name>Trackpoint 4843</name>
            </trkpt>
            <trkpt lat="50.1077056" lon="8.68532">
                <ele>94.0</ele>
                <time>2020-08-30T12:19:19.000Z</time>
                <name>Trackpoint 4844</name>
            </trkpt>
            <trkpt lat="50.1077152" lon="8.6851864">
                <ele>94.0</ele>
                <time>2020-08-30T12:19:21.000Z</time>
                <name>Trackpoint 4845</name>
            </trkpt>
            <trkpt lat="50.1077152" lon="8.6850544">
                <ele>94.0</ele>
                <time>2020-08-30T12:19:23.000Z</time>
                <name>Trackpoint 4846</name>
            </trkpt>
            <trkpt lat="50.107712" lon="8.6849272">
                <ele>94.0</ele>
                <time>2020-08-30T12:19:25.000Z</time>
                <name>Trackpoint 4847</name>
            </trkpt>
            <trkpt lat="50.1077088" lon="8.6848072">
                <ele>94.0</ele>
                <time>2020-08-30T12:19:27.000Z</time>
                <name>Trackpoint 4848</name>
            </trkpt>
            <trkpt lat="50.1076992" lon="8.6846912">
                <ele>94.0</ele>
                <time>2020-08-30T12:19:29.000Z</time>
                <name>Trackpoint 4849</name>
            </trkpt>
            <trkpt lat="50.107696" lon="8.6845848">
                <ele>94.0</ele>
                <time>2020-08-30T12:19:31.000Z</time>
                <name>Trackpoint 4850</name>
            </trkpt>
            <trkpt lat="50.10768" lon="8.6844832">
                <ele>94.0</ele>
                <time>2020-08-30T12:19:33.000Z</time>
                <name>Trackpoint 4851</name>
            </trkpt>
            <trkpt lat="50.1076704" lon="8.6843928">
                <ele>93.0</ele>
                <time>2020-08-30T12:19:35.000Z</time>
                <name>Trackpoint 4852</name>
            </trkpt>
            <trkpt lat="50.10768" lon="8.6843008">
                <ele>94.0</ele>
                <time>2020-08-30T12:20:56.000Z</time>
                <name>Trackpoint 4853</name>
            </trkpt>
            <trkpt lat="50.1076672" lon="8.6842016">
                <ele>93.0</ele>
                <time>2020-08-30T12:21:00.000Z</time>
                <name>Trackpoint 4854</name>
            </trkpt>
            <trkpt lat="50.1076416" lon="8.6840712">
                <ele>93.0</ele>
                <time>2020-08-30T12:21:03.000Z</time>
                <name>Trackpoint 4855</name>
            </trkpt>
            <trkpt lat="50.107632" lon="8.6839736">
                <ele>93.0</ele>
                <time>2020-08-30T12:21:05.000Z</time>
                <name>Trackpoint 4856</name>
            </trkpt>
            <trkpt lat="50.107616" lon="8.6838688">
                <ele>93.0</ele>
                <time>2020-08-30T12:21:07.000Z</time>
                <name>Trackpoint 4857</name>
            </trkpt>
            <trkpt lat="50.1076" lon="8.6837568">
                <ele>93.0</ele>
                <time>2020-08-30T12:21:09.000Z</time>
                <name>Trackpoint 4858</name>
            </trkpt>
            <trkpt lat="50.1075936" lon="8.6836416">
                <ele>93.0</ele>
                <time>2020-08-30T12:21:11.000Z</time>
                <name>Trackpoint 4859</name>
            </trkpt>
            <trkpt lat="50.1075712" lon="8.6835184">
                <ele>93.0</ele>
                <time>2020-08-30T12:21:13.000Z</time>
                <name>Trackpoint 4860</name>
            </trkpt>
            <trkpt lat="50.107552" lon="8.6834032">
                <ele>93.0</ele>
                <time>2020-08-30T12:21:15.000Z</time>
                <name>Trackpoint 4861</name>
            </trkpt>
            <trkpt lat="50.1075392" lon="8.6832952">
                <ele>93.0</ele>
                <time>2020-08-30T12:21:17.000Z</time>
                <name>Trackpoint 4862</name>
            </trkpt>
            <trkpt lat="50.1075296" lon="8.6831776">
                <ele>93.0</ele>
                <time>2020-08-30T12:21:19.000Z</time>
                <name>Trackpoint 4863</name>
            </trkpt>
            <trkpt lat="50.1075168" lon="8.6830584">
                <ele>92.0</ele>
                <time>2020-08-30T12:21:21.000Z</time>
                <name>Trackpoint 4864</name>
            </trkpt>
            <trkpt lat="50.1075136" lon="8.6829392">
                <ele>93.0</ele>
                <time>2020-08-30T12:21:23.000Z</time>
                <name>Trackpoint 4865</name>
            </trkpt>
            <trkpt lat="50.1075008" lon="8.6828248">
                <ele>93.0</ele>
                <time>2020-08-30T12:21:25.000Z</time>
                <name>Trackpoint 4866</name>
            </trkpt>
            <trkpt lat="50.107488" lon="8.6827224">
                <ele>93.0</ele>
                <time>2020-08-30T12:21:27.000Z</time>
                <name>Trackpoint 4867</name>
            </trkpt>
            <trkpt lat="50.107472" lon="8.6826264">
                <ele>93.0</ele>
                <time>2020-08-30T12:21:29.000Z</time>
                <name>Trackpoint 4868</name>
            </trkpt>
            <trkpt lat="50.1074592" lon="8.6825304">
                <ele>93.0</ele>
                <time>2020-08-30T12:21:31.000Z</time>
                <name>Trackpoint 4869</name>
            </trkpt>
            <trkpt lat="50.1074336" lon="8.682428">
                <ele>92.0</ele>
                <time>2020-08-30T12:21:33.000Z</time>
                <name>Trackpoint 4870</name>
            </trkpt>
            <trkpt lat="50.1074144" lon="8.6823304">
                <ele>93.0</ele>
                <time>2020-08-30T12:21:35.000Z</time>
                <name>Trackpoint 4871</name>
            </trkpt>
            <trkpt lat="50.1073952" lon="8.6822384">
                <ele>92.0</ele>
                <time>2020-08-30T12:21:37.000Z</time>
                <name>Trackpoint 4872</name>
            </trkpt>
            <trkpt lat="50.1073696" lon="8.6821472">
                <ele>92.0</ele>
                <time>2020-08-30T12:21:39.000Z</time>
                <name>Trackpoint 4873</name>
            </trkpt>
            <trkpt lat="50.1073312" lon="8.6820424">
                <ele>92.0</ele>
                <time>2020-08-30T12:21:42.000Z</time>
                <name>Trackpoint 4874</name>
            </trkpt>
            <trkpt lat="50.1073184" lon="8.6819448">
                <ele>93.0</ele>
                <time>2020-08-30T12:21:49.000Z</time>
                <name>Trackpoint 4875</name>
            </trkpt>
            <trkpt lat="50.1073152" lon="8.6818304">
                <ele>92.0</ele>
                <time>2020-08-30T12:21:53.000Z</time>
                <name>Trackpoint 4876</name>
            </trkpt>
            <trkpt lat="50.1072992" lon="8.6817376">
                <ele>92.0</ele>
                <time>2020-08-30T12:21:55.000Z</time>
                <name>Trackpoint 4877</name>
            </trkpt>
            <trkpt lat="50.10728" lon="8.6816152">
                <ele>91.0</ele>
                <time>2020-08-30T12:21:57.000Z</time>
                <name>Trackpoint 4878</name>
            </trkpt>
            <trkpt lat="50.1072544" lon="8.6814872">
                <ele>91.0</ele>
                <time>2020-08-30T12:21:59.000Z</time>
                <name>Trackpoint 4879</name>
            </trkpt>
            <trkpt lat="50.107232" lon="8.6813536">
                <ele>91.0</ele>
                <time>2020-08-30T12:22:01.000Z</time>
                <name>Trackpoint 4880</name>
            </trkpt>
            <trkpt lat="50.1071968" lon="8.6812096">
                <ele>91.0</ele>
                <time>2020-08-30T12:22:03.000Z</time>
                <name>Trackpoint 4881</name>
            </trkpt>
            <trkpt lat="50.1071584" lon="8.6810664">
                <ele>91.0</ele>
                <time>2020-08-30T12:22:05.000Z</time>
                <name>Trackpoint 4882</name>
            </trkpt>
            <trkpt lat="50.1071232" lon="8.680932">
                <ele>91.0</ele>
                <time>2020-08-30T12:22:07.000Z</time>
                <name>Trackpoint 4883</name>
            </trkpt>
            <trkpt lat="50.1070848" lon="8.6807984">
                <ele>91.0</ele>
                <time>2020-08-30T12:22:09.000Z</time>
                <name>Trackpoint 4884</name>
            </trkpt>
            <trkpt lat="50.1070528" lon="8.6806672">
                <ele>90.0</ele>
                <time>2020-08-30T12:22:11.000Z</time>
                <name>Trackpoint 4885</name>
            </trkpt>
            <trkpt lat="50.1070112" lon="8.6805384">
                <ele>90.0</ele>
                <time>2020-08-30T12:22:13.000Z</time>
                <name>Trackpoint 4886</name>
            </trkpt>
            <trkpt lat="50.1069664" lon="8.6804112">
                <ele>90.0</ele>
                <time>2020-08-30T12:22:15.000Z</time>
                <name>Trackpoint 4887</name>
            </trkpt>
            <trkpt lat="50.1069312" lon="8.680288">
                <ele>91.0</ele>
                <time>2020-08-30T12:22:17.000Z</time>
                <name>Trackpoint 4888</name>
            </trkpt>
            <trkpt lat="50.1068864" lon="8.680172">
                <ele>91.0</ele>
                <time>2020-08-30T12:22:19.000Z</time>
                <name>Trackpoint 4889</name>
            </trkpt>
            <trkpt lat="50.1068512" lon="8.68006">
                <ele>91.0</ele>
                <time>2020-08-30T12:22:21.000Z</time>
                <name>Trackpoint 4890</name>
            </trkpt>
            <trkpt lat="50.1068128" lon="8.6799544">
                <ele>90.0</ele>
                <time>2020-08-30T12:22:23.000Z</time>
                <name>Trackpoint 4891</name>
            </trkpt>
            <trkpt lat="50.1067744" lon="8.67986">
                <ele>90.0</ele>
                <time>2020-08-30T12:22:25.000Z</time>
                <name>Trackpoint 4892</name>
            </trkpt>
            <trkpt lat="50.1067392" lon="8.6797712">
                <ele>90.0</ele>
                <time>2020-08-30T12:22:28.000Z</time>
                <name>Trackpoint 4893</name>
            </trkpt>
            <trkpt lat="50.106688" lon="8.679664">
                <ele>89.0</ele>
                <time>2020-08-30T12:23:23.000Z</time>
                <name>Trackpoint 4894</name>
            </trkpt>
            <trkpt lat="50.10664" lon="8.6795384">
                <ele>89.0</ele>
                <time>2020-08-30T12:23:26.000Z</time>
                <name>Trackpoint 4895</name>
            </trkpt>
            <trkpt lat="50.1065984" lon="8.6794456">
                <ele>89.0</ele>
                <time>2020-08-30T12:23:28.000Z</time>
                <name>Trackpoint 4896</name>
            </trkpt>
            <trkpt lat="50.1065536" lon="8.6793416">
                <ele>89.0</ele>
                <time>2020-08-30T12:23:30.000Z</time>
                <name>Trackpoint 4897</name>
            </trkpt>
            <trkpt lat="50.1065152" lon="8.6792296">
                <ele>89.0</ele>
                <time>2020-08-30T12:23:32.000Z</time>
                <name>Trackpoint 4898</name>
            </trkpt>
            <trkpt lat="50.1064672" lon="8.6791184">
                <ele>89.0</ele>
                <time>2020-08-30T12:23:34.000Z</time>
                <name>Trackpoint 4899</name>
            </trkpt>
            <trkpt lat="50.1064288" lon="8.6790216">
                <ele>89.0</ele>
                <time>2020-08-30T12:23:36.000Z</time>
                <name>Trackpoint 4900</name>
            </trkpt>
            <trkpt lat="50.1063904" lon="8.6789312">
                <ele>89.0</ele>
                <time>2020-08-30T12:23:38.000Z</time>
                <name>Trackpoint 4901</name>
            </trkpt>
            <trkpt lat="50.1063488" lon="8.6788432">
                <ele>89.0</ele>
                <time>2020-08-30T12:23:40.000Z</time>
                <name>Trackpoint 4902</name>
            </trkpt>
            <trkpt lat="50.1063008" lon="8.678752">
                <ele>89.0</ele>
                <time>2020-08-30T12:23:42.000Z</time>
                <name>Trackpoint 4903</name>
            </trkpt>
            <trkpt lat="50.1062656" lon="8.6786416">
                <ele>89.0</ele>
                <time>2020-08-30T12:23:44.000Z</time>
                <name>Trackpoint 4904</name>
            </trkpt>
            <trkpt lat="50.1062304" lon="8.6785432">
                <ele>89.0</ele>
                <time>2020-08-30T12:23:46.000Z</time>
                <name>Trackpoint 4905</name>
            </trkpt>
            <trkpt lat="50.106192" lon="8.6784488">
                <ele>90.0</ele>
                <time>2020-08-30T12:23:48.000Z</time>
                <name>Trackpoint 4906</name>
            </trkpt>
            <trkpt lat="50.1061568" lon="8.67836">
                <ele>90.0</ele>
                <time>2020-08-30T12:23:50.000Z</time>
                <name>Trackpoint 4907</name>
            </trkpt>
            <trkpt lat="50.106112" lon="8.678264">
                <ele>89.0</ele>
                <time>2020-08-30T12:23:53.000Z</time>
                <name>Trackpoint 4908</name>
            </trkpt>
            <trkpt lat="50.1060672" lon="8.6781568">
                <ele>89.0</ele>
                <time>2020-08-30T12:23:58.000Z</time>
                <name>Trackpoint 4909</name>
            </trkpt>
            <trkpt lat="50.1060416" lon="8.678052">
                <ele>89.0</ele>
                <time>2020-08-30T12:24:01.000Z</time>
                <name>Trackpoint 4910</name>
            </trkpt>
            <trkpt lat="50.1060032" lon="8.6779472">
                <ele>90.0</ele>
                <time>2020-08-30T12:24:04.000Z</time>
                <name>Trackpoint 4911</name>
            </trkpt>
            <trkpt lat="50.1059488" lon="8.6778224">
                <ele>89.0</ele>
                <time>2020-08-30T12:24:07.000Z</time>
                <name>Trackpoint 4912</name>
            </trkpt>
            <trkpt lat="50.1059072" lon="8.6777264">
                <ele>89.0</ele>
                <time>2020-08-30T12:24:09.000Z</time>
                <name>Trackpoint 4913</name>
            </trkpt>
            <trkpt lat="50.105872" lon="8.6776304">
                <ele>89.0</ele>
                <time>2020-08-30T12:24:11.000Z</time>
                <name>Trackpoint 4914</name>
            </trkpt>
            <trkpt lat="50.1058432" lon="8.6775448">
                <ele>90.0</ele>
                <time>2020-08-30T12:24:13.000Z</time>
                <name>Trackpoint 4915</name>
            </trkpt>
            <trkpt lat="50.1058016" lon="8.677452">
                <ele>90.0</ele>
                <time>2020-08-30T12:24:15.000Z</time>
                <name>Trackpoint 4916</name>
            </trkpt>
            <trkpt lat="50.1057504" lon="8.6773656">
                <ele>90.0</ele>
                <time>2020-08-30T12:24:17.000Z</time>
                <name>Trackpoint 4917</name>
            </trkpt>
            <trkpt lat="50.1056992" lon="8.6772648">
                <ele>91.0</ele>
                <time>2020-08-30T12:24:20.000Z</time>
                <name>Trackpoint 4918</name>
            </trkpt>
            <trkpt lat="50.105664" lon="8.6771632">
                <ele>91.0</ele>
                <time>2020-08-30T12:24:22.000Z</time>
                <name>Trackpoint 4919</name>
            </trkpt>
            <trkpt lat="50.1056096" lon="8.6770648">
                <ele>91.0</ele>
                <time>2020-08-30T12:24:24.000Z</time>
                <name>Trackpoint 4920</name>
            </trkpt>
            <trkpt lat="50.1055648" lon="8.6769448">
                <ele>91.0</ele>
                <time>2020-08-30T12:24:26.000Z</time>
                <name>Trackpoint 4921</name>
            </trkpt>
            <trkpt lat="50.1055136" lon="8.6768176">
                <ele>91.0</ele>
                <time>2020-08-30T12:24:28.000Z</time>
                <name>Trackpoint 4922</name>
            </trkpt>
            <trkpt lat="50.1054624" lon="8.676688">
                <ele>91.0</ele>
                <time>2020-08-30T12:24:30.000Z</time>
                <name>Trackpoint 4923</name>
            </trkpt>
            <trkpt lat="50.1054112" lon="8.676572">
                <ele>91.0</ele>
                <time>2020-08-30T12:24:32.000Z</time>
                <name>Trackpoint 4924</name>
            </trkpt>
            <trkpt lat="50.1053632" lon="8.67644">
                <ele>91.0</ele>
                <time>2020-08-30T12:24:34.000Z</time>
                <name>Trackpoint 4925</name>
            </trkpt>
            <trkpt lat="50.1053152" lon="8.67632">
                <ele>91.0</ele>
                <time>2020-08-30T12:24:36.000Z</time>
                <name>Trackpoint 4926</name>
            </trkpt>
            <trkpt lat="50.1052672" lon="8.6761936">
                <ele>91.0</ele>
                <time>2020-08-30T12:24:38.000Z</time>
                <name>Trackpoint 4927</name>
            </trkpt>
            <trkpt lat="50.1052256" lon="8.676068">
                <ele>91.0</ele>
                <time>2020-08-30T12:24:40.000Z</time>
                <name>Trackpoint 4928</name>
            </trkpt>
            <trkpt lat="50.1051744" lon="8.6759528">
                <ele>91.0</ele>
                <time>2020-08-30T12:24:42.000Z</time>
                <name>Trackpoint 4929</name>
            </trkpt>
            <trkpt lat="50.1051328" lon="8.6758416">
                <ele>91.0</ele>
                <time>2020-08-30T12:24:44.000Z</time>
                <name>Trackpoint 4930</name>
            </trkpt>
            <trkpt lat="50.1050784" lon="8.6757224">
                <ele>91.0</ele>
                <time>2020-08-30T12:24:46.000Z</time>
                <name>Trackpoint 4931</name>
            </trkpt>
            <trkpt lat="50.1050336" lon="8.6756">
                <ele>91.0</ele>
                <time>2020-08-30T12:24:48.000Z</time>
                <name>Trackpoint 4932</name>
            </trkpt>
            <trkpt lat="50.1049856" lon="8.6754768">
                <ele>91.0</ele>
                <time>2020-08-30T12:24:50.000Z</time>
                <name>Trackpoint 4933</name>
            </trkpt>
            <trkpt lat="50.1049376" lon="8.6753464">
                <ele>91.0</ele>
                <time>2020-08-30T12:24:52.000Z</time>
                <name>Trackpoint 4934</name>
            </trkpt>
            <trkpt lat="50.1048928" lon="8.6752416">
                <ele>91.0</ele>
                <time>2020-08-30T12:24:54.000Z</time>
                <name>Trackpoint 4935</name>
            </trkpt>
            <trkpt lat="50.1048576" lon="8.6751496">
                <ele>91.0</ele>
                <time>2020-08-30T12:24:56.000Z</time>
                <name>Trackpoint 4936</name>
            </trkpt>
            <trkpt lat="50.104816" lon="8.6750568">
                <ele>90.0</ele>
                <time>2020-08-30T12:25:33.000Z</time>
                <name>Trackpoint 4937</name>
            </trkpt>
            <trkpt lat="50.1047488" lon="8.6749624">
                <ele>90.0</ele>
                <time>2020-08-30T12:25:37.000Z</time>
                <name>Trackpoint 4938</name>
            </trkpt>
            <trkpt lat="50.1047264" lon="8.6748696">
                <ele>90.0</ele>
                <time>2020-08-30T12:25:39.000Z</time>
                <name>Trackpoint 4939</name>
            </trkpt>
            <trkpt lat="50.1046912" lon="8.6747648">
                <ele>91.0</ele>
                <time>2020-08-30T12:25:41.000Z</time>
                <name>Trackpoint 4940</name>
            </trkpt>
            <trkpt lat="50.1046496" lon="8.6746584">
                <ele>91.0</ele>
                <time>2020-08-30T12:25:43.000Z</time>
                <name>Trackpoint 4941</name>
            </trkpt>
            <trkpt lat="50.1045984" lon="8.674552">
                <ele>91.0</ele>
                <time>2020-08-30T12:25:45.000Z</time>
                <name>Trackpoint 4942</name>
            </trkpt>
            <trkpt lat="50.1045536" lon="8.6744432">
                <ele>91.0</ele>
                <time>2020-08-30T12:25:47.000Z</time>
                <name>Trackpoint 4943</name>
            </trkpt>
            <trkpt lat="50.1044928" lon="8.6743248">
                <ele>91.0</ele>
                <time>2020-08-30T12:25:49.000Z</time>
                <name>Trackpoint 4944</name>
            </trkpt>
            <trkpt lat="50.1044352" lon="8.6742064">
                <ele>91.0</ele>
                <time>2020-08-30T12:25:51.000Z</time>
                <name>Trackpoint 4945</name>
            </trkpt>
            <trkpt lat="50.104384" lon="8.6740984">
                <ele>91.0</ele>
                <time>2020-08-30T12:25:53.000Z</time>
                <name>Trackpoint 4946</name>
            </trkpt>
            <trkpt lat="50.1043296" lon="8.6739928">
                <ele>91.0</ele>
                <time>2020-08-30T12:25:55.000Z</time>
                <name>Trackpoint 4947</name>
            </trkpt>
            <trkpt lat="50.1042848" lon="8.6738952">
                <ele>91.0</ele>
                <time>2020-08-30T12:25:57.000Z</time>
                <name>Trackpoint 4948</name>
            </trkpt>
            <trkpt lat="50.10424" lon="8.673808">
                <ele>91.0</ele>
                <time>2020-08-30T12:25:59.000Z</time>
                <name>Trackpoint 4949</name>
            </trkpt>
            <trkpt lat="50.1041824" lon="8.6737336">
                <ele>91.0</ele>
                <time>2020-08-30T12:26:01.000Z</time>
                <name>Trackpoint 4950</name>
            </trkpt>
            <trkpt lat="50.1041376" lon="8.6736544">
                <ele>91.0</ele>
                <time>2020-08-30T12:26:03.000Z</time>
                <name>Trackpoint 4951</name>
            </trkpt>
            <trkpt lat="50.1040832" lon="8.6735688">
                <ele>91.0</ele>
                <time>2020-08-30T12:26:05.000Z</time>
                <name>Trackpoint 4952</name>
            </trkpt>
            <trkpt lat="50.1040416" lon="8.6734688">
                <ele>91.0</ele>
                <time>2020-08-30T12:26:07.000Z</time>
                <name>Trackpoint 4953</name>
            </trkpt>
            <trkpt lat="50.1039968" lon="8.6733664">
                <ele>91.0</ele>
                <time>2020-08-30T12:26:09.000Z</time>
                <name>Trackpoint 4954</name>
            </trkpt>
            <trkpt lat="50.1039424" lon="8.673272">
                <ele>91.0</ele>
                <time>2020-08-30T12:26:11.000Z</time>
                <name>Trackpoint 4955</name>
            </trkpt>
            <trkpt lat="50.1038848" lon="8.6731752">
                <ele>91.0</ele>
                <time>2020-08-30T12:26:13.000Z</time>
                <name>Trackpoint 4956</name>
            </trkpt>
            <trkpt lat="50.1038272" lon="8.673088">
                <ele>91.0</ele>
                <time>2020-08-30T12:26:15.000Z</time>
                <name>Trackpoint 4957</name>
            </trkpt>
            <trkpt lat="50.1037632" lon="8.673">
                <ele>91.0</ele>
                <time>2020-08-30T12:26:17.000Z</time>
                <name>Trackpoint 4958</name>
            </trkpt>
            <trkpt lat="50.1037056" lon="8.6729184">
                <ele>91.0</ele>
                <time>2020-08-30T12:26:19.000Z</time>
                <name>Trackpoint 4959</name>
            </trkpt>
            <trkpt lat="50.103664" lon="8.6728232">
                <ele>91.0</ele>
                <time>2020-08-30T12:26:21.000Z</time>
                <name>Trackpoint 4960</name>
            </trkpt>
            <trkpt lat="50.1036192" lon="8.6727264">
                <ele>91.0</ele>
                <time>2020-08-30T12:26:23.000Z</time>
                <name>Trackpoint 4961</name>
            </trkpt>
            <trkpt lat="50.1035552" lon="8.6726488">
                <ele>91.0</ele>
                <time>2020-08-30T12:26:25.000Z</time>
                <name>Trackpoint 4962</name>
            </trkpt>
            <trkpt lat="50.1034784" lon="8.6725728">
                <ele>91.0</ele>
                <time>2020-08-30T12:26:27.000Z</time>
                <name>Trackpoint 4963</name>
            </trkpt>
            <trkpt lat="50.1034112" lon="8.6724656">
                <ele>91.0</ele>
                <time>2020-08-30T12:26:29.000Z</time>
                <name>Trackpoint 4964</name>
            </trkpt>
            <trkpt lat="50.10336" lon="8.6723416">
                <ele>91.0</ele>
                <time>2020-08-30T12:26:31.000Z</time>
                <name>Trackpoint 4965</name>
            </trkpt>
            <trkpt lat="50.1032864" lon="8.6722272">
                <ele>91.0</ele>
                <time>2020-08-30T12:26:33.000Z</time>
                <name>Trackpoint 4966</name>
            </trkpt>
            <trkpt lat="50.1032128" lon="8.6721048">
                <ele>91.0</ele>
                <time>2020-08-30T12:26:35.000Z</time>
                <name>Trackpoint 4967</name>
            </trkpt>
            <trkpt lat="50.1031424" lon="8.67198">
                <ele>91.0</ele>
                <time>2020-08-30T12:26:37.000Z</time>
                <name>Trackpoint 4968</name>
            </trkpt>
            <trkpt lat="50.1030656" lon="8.6718584">
                <ele>91.0</ele>
                <time>2020-08-30T12:26:39.000Z</time>
                <name>Trackpoint 4969</name>
            </trkpt>
            <trkpt lat="50.1029856" lon="8.671748">
                <ele>91.0</ele>
                <time>2020-08-30T12:26:41.000Z</time>
                <name>Trackpoint 4970</name>
            </trkpt>
            <trkpt lat="50.1029088" lon="8.6716496">
                <ele>91.0</ele>
                <time>2020-08-30T12:26:43.000Z</time>
                <name>Trackpoint 4971</name>
            </trkpt>
            <trkpt lat="50.102848" lon="8.671552">
                <ele>91.0</ele>
                <time>2020-08-30T12:26:45.000Z</time>
                <name>Trackpoint 4972</name>
            </trkpt>
            <trkpt lat="50.1027936" lon="8.6714648">
                <ele>91.0</ele>
                <time>2020-08-30T12:26:47.000Z</time>
                <name>Trackpoint 4973</name>
            </trkpt>
            <trkpt lat="50.1027296" lon="8.6713584">
                <ele>91.0</ele>
                <time>2020-08-30T12:26:50.000Z</time>
                <name>Trackpoint 4974</name>
            </trkpt>
            <trkpt lat="50.1026848" lon="8.6712688">
                <ele>91.0</ele>
                <time>2020-08-30T12:26:52.000Z</time>
                <name>Trackpoint 4975</name>
            </trkpt>
            <trkpt lat="50.102624" lon="8.67118">
                <ele>90.0</ele>
                <time>2020-08-30T12:26:54.000Z</time>
                <name>Trackpoint 4976</name>
            </trkpt>
            <trkpt lat="50.1025504" lon="8.6711168">
                <ele>90.0</ele>
                <time>2020-08-30T12:26:56.000Z</time>
                <name>Trackpoint 4977</name>
            </trkpt>
            <trkpt lat="50.1024288" lon="8.6710656">
                <ele>90.0</ele>
                <time>2020-08-30T12:26:59.000Z</time>
                <name>Trackpoint 4978</name>
            </trkpt>
            <trkpt lat="50.1023488" lon="8.6710016">
                <ele>90.0</ele>
                <time>2020-08-30T12:27:01.000Z</time>
                <name>Trackpoint 4979</name>
            </trkpt>
            <trkpt lat="50.1022784" lon="8.6709032">
                <ele>91.0</ele>
                <time>2020-08-30T12:27:03.000Z</time>
                <name>Trackpoint 4980</name>
            </trkpt>
            <trkpt lat="50.1021984" lon="8.670792">
                <ele>91.0</ele>
                <time>2020-08-30T12:27:05.000Z</time>
                <name>Trackpoint 4981</name>
            </trkpt>
            <trkpt lat="50.1021248" lon="8.6706816">
                <ele>91.0</ele>
                <time>2020-08-30T12:27:07.000Z</time>
                <name>Trackpoint 4982</name>
            </trkpt>
            <trkpt lat="50.102048" lon="8.6705752">
                <ele>91.0</ele>
                <time>2020-08-30T12:27:09.000Z</time>
                <name>Trackpoint 4983</name>
            </trkpt>
            <trkpt lat="50.1019744" lon="8.670468">
                <ele>91.0</ele>
                <time>2020-08-30T12:27:11.000Z</time>
                <name>Trackpoint 4984</name>
            </trkpt>
            <trkpt lat="50.1019136" lon="8.6703656">
                <ele>91.0</ele>
                <time>2020-08-30T12:27:13.000Z</time>
                <name>Trackpoint 4985</name>
            </trkpt>
            <trkpt lat="50.1018496" lon="8.6702416">
                <ele>91.0</ele>
                <time>2020-08-30T12:27:15.000Z</time>
                <name>Trackpoint 4986</name>
            </trkpt>
            <trkpt lat="50.1017792" lon="8.670112">
                <ele>91.0</ele>
                <time>2020-08-30T12:27:17.000Z</time>
                <name>Trackpoint 4987</name>
            </trkpt>
            <trkpt lat="50.101712" lon="8.6699952">
                <ele>91.0</ele>
                <time>2020-08-30T12:27:19.000Z</time>
                <name>Trackpoint 4988</name>
            </trkpt>
            <trkpt lat="50.1016384" lon="8.6698784">
                <ele>91.0</ele>
                <time>2020-08-30T12:27:21.000Z</time>
                <name>Trackpoint 4989</name>
            </trkpt>
            <trkpt lat="50.1015744" lon="8.6697664">
                <ele>91.0</ele>
                <time>2020-08-30T12:27:23.000Z</time>
                <name>Trackpoint 4990</name>
            </trkpt>
            <trkpt lat="50.1015168" lon="8.66966">
                <ele>91.0</ele>
                <time>2020-08-30T12:27:25.000Z</time>
                <name>Trackpoint 4991</name>
            </trkpt>
            <trkpt lat="50.1014656" lon="8.6695536">
                <ele>91.0</ele>
                <time>2020-08-30T12:27:27.000Z</time>
                <name>Trackpoint 4992</name>
            </trkpt>
            <trkpt lat="50.1014304" lon="8.6694696">
                <ele>91.0</ele>
                <time>2020-08-30T12:27:29.000Z</time>
                <name>Trackpoint 4993</name>
            </trkpt>
            <trkpt lat="50.101376" lon="8.669376">
                <ele>91.0</ele>
                <time>2020-08-30T12:28:09.000Z</time>
                <name>Trackpoint 4994</name>
            </trkpt>
            <trkpt lat="50.1012992" lon="8.6692784">
                <ele>91.0</ele>
                <time>2020-08-30T12:28:12.000Z</time>
                <name>Trackpoint 4995</name>
            </trkpt>
            <trkpt lat="50.1012576" lon="8.6691752">
                <ele>91.0</ele>
                <time>2020-08-30T12:28:14.000Z</time>
                <name>Trackpoint 4996</name>
            </trkpt>
            <trkpt lat="50.1012128" lon="8.6690768">
                <ele>91.0</ele>
                <time>2020-08-30T12:28:16.000Z</time>
                <name>Trackpoint 4997</name>
            </trkpt>
            <trkpt lat="50.1011648" lon="8.6689768">
                <ele>91.0</ele>
                <time>2020-08-30T12:28:18.000Z</time>
                <name>Trackpoint 4998</name>
            </trkpt>
            <trkpt lat="50.101136" lon="8.6688744">
                <ele>91.0</ele>
                <time>2020-08-30T12:28:20.000Z</time>
                <name>Trackpoint 4999</name>
            </trkpt>
            <trkpt lat="50.101088" lon="8.6687544">
                <ele>92.0</ele>
                <time>2020-08-30T12:28:23.000Z</time>
                <name>Trackpoint 5000</name>
            </trkpt>
            <trkpt lat="50.1010464" lon="8.6686472">
                <ele>92.0</ele>
                <time>2020-08-30T12:28:25.000Z</time>
                <name>Trackpoint 5001</name>
            </trkpt>
            <trkpt lat="50.1010048" lon="8.6685616">
                <ele>92.0</ele>
                <time>2020-08-30T12:28:27.000Z</time>
                <name>Trackpoint 5002</name>
            </trkpt>
            <trkpt lat="50.1009248" lon="8.6684864">
                <ele>92.0</ele>
                <time>2020-08-30T12:28:30.000Z</time>
                <name>Trackpoint 5003</name>
            </trkpt>
            <trkpt lat="50.1008608" lon="8.6684104">
                <ele>92.0</ele>
                <time>2020-08-30T12:28:33.000Z</time>
                <name>Trackpoint 5004</name>
            </trkpt>
            <trkpt lat="50.1008" lon="8.6683184">
                <ele>92.0</ele>
                <time>2020-08-30T12:28:36.000Z</time>
                <name>Trackpoint 5005</name>
            </trkpt>
            <trkpt lat="50.1007296" lon="8.6682352">
                <ele>92.0</ele>
                <time>2020-08-30T12:28:39.000Z</time>
                <name>Trackpoint 5006</name>
            </trkpt>
            <trkpt lat="50.1006592" lon="8.6681696">
                <ele>92.0</ele>
                <time>2020-08-30T12:28:42.000Z</time>
                <name>Trackpoint 5007</name>
            </trkpt>
            <trkpt lat="50.100576" lon="8.6681032">
                <ele>92.0</ele>
                <time>2020-08-30T12:28:44.000Z</time>
                <name>Trackpoint 5008</name>
            </trkpt>
            <trkpt lat="50.100512" lon="8.6680184">
                <ele>93.0</ele>
                <time>2020-08-30T12:28:46.000Z</time>
                <name>Trackpoint 5009</name>
            </trkpt>
            <trkpt lat="50.1004512" lon="8.66794">
                <ele>93.0</ele>
                <time>2020-08-30T12:28:48.000Z</time>
                <name>Trackpoint 5010</name>
            </trkpt>
            <trkpt lat="50.1004256" lon="8.6678512">
                <ele>93.0</ele>
                <time>2020-08-30T12:28:50.000Z</time>
                <name>Trackpoint 5011</name>
            </trkpt>
            <trkpt lat="50.1003968" lon="8.667744">
                <ele>93.0</ele>
                <time>2020-08-30T12:28:52.000Z</time>
                <name>Trackpoint 5012</name>
            </trkpt>
            <trkpt lat="50.1003808" lon="8.6676264">
                <ele>93.0</ele>
                <time>2020-08-30T12:28:54.000Z</time>
                <name>Trackpoint 5013</name>
            </trkpt>
            <trkpt lat="50.10032" lon="8.6675216">
                <ele>93.0</ele>
                <time>2020-08-30T12:28:56.000Z</time>
                <name>Trackpoint 5014</name>
            </trkpt>
            <trkpt lat="50.1001856" lon="8.667432">
                <ele>94.0</ele>
                <time>2020-08-30T12:28:58.000Z</time>
                <name>Trackpoint 5015</name>
            </trkpt>
            <trkpt lat="50.1000896" lon="8.667292">
                <ele>94.0</ele>
                <time>2020-08-30T12:29:00.000Z</time>
                <name>Trackpoint 5016</name>
            </trkpt>
            <trkpt lat="50.1000096" lon="8.6671648">
                <ele>94.0</ele>
                <time>2020-08-30T12:29:02.000Z</time>
                <name>Trackpoint 5017</name>
            </trkpt>
            <trkpt lat="50.0999456" lon="8.6670328">
                <ele>94.0</ele>
                <time>2020-08-30T12:29:04.000Z</time>
                <name>Trackpoint 5018</name>
            </trkpt>
            <trkpt lat="50.0998752" lon="8.6669152">
                <ele>94.0</ele>
                <time>2020-08-30T12:29:06.000Z</time>
                <name>Trackpoint 5019</name>
            </trkpt>
            <trkpt lat="50.0998016" lon="8.6668032">
                <ele>95.0</ele>
                <time>2020-08-30T12:29:08.000Z</time>
                <name>Trackpoint 5020</name>
            </trkpt>
            <trkpt lat="50.0997248" lon="8.666688">
                <ele>95.0</ele>
                <time>2020-08-30T12:29:10.000Z</time>
                <name>Trackpoint 5021</name>
            </trkpt>
            <trkpt lat="50.0996544" lon="8.6665696">
                <ele>95.0</ele>
                <time>2020-08-30T12:29:12.000Z</time>
                <name>Trackpoint 5022</name>
            </trkpt>
            <trkpt lat="50.0995904" lon="8.6664584">
                <ele>95.0</ele>
                <time>2020-08-30T12:29:14.000Z</time>
                <name>Trackpoint 5023</name>
            </trkpt>
            <trkpt lat="50.0995232" lon="8.666344">
                <ele>95.0</ele>
                <time>2020-08-30T12:29:16.000Z</time>
                <name>Trackpoint 5024</name>
            </trkpt>
            <trkpt lat="50.0994528" lon="8.6662232">
                <ele>95.0</ele>
                <time>2020-08-30T12:29:18.000Z</time>
                <name>Trackpoint 5025</name>
            </trkpt>
            <trkpt lat="50.099376" lon="8.666092">
                <ele>95.0</ele>
                <time>2020-08-30T12:29:20.000Z</time>
                <name>Trackpoint 5026</name>
            </trkpt>
            <trkpt lat="50.0992992" lon="8.6659648">
                <ele>95.0</ele>
                <time>2020-08-30T12:29:22.000Z</time>
                <name>Trackpoint 5027</name>
            </trkpt>
            <trkpt lat="50.0992256" lon="8.6658496">
                <ele>95.0</ele>
                <time>2020-08-30T12:29:24.000Z</time>
                <name>Trackpoint 5028</name>
            </trkpt>
            <trkpt lat="50.099152" lon="8.6657416">
                <ele>95.0</ele>
                <time>2020-08-30T12:29:26.000Z</time>
                <name>Trackpoint 5029</name>
            </trkpt>
            <trkpt lat="50.099088" lon="8.6656416">
                <ele>95.0</ele>
                <time>2020-08-30T12:29:28.000Z</time>
                <name>Trackpoint 5030</name>
            </trkpt>
            <trkpt lat="50.0990304" lon="8.6655352">
                <ele>95.0</ele>
                <time>2020-08-30T12:29:30.000Z</time>
                <name>Trackpoint 5031</name>
            </trkpt>
            <trkpt lat="50.0989728" lon="8.6654352">
                <ele>96.0</ele>
                <time>2020-08-30T12:29:32.000Z</time>
                <name>Trackpoint 5032</name>
            </trkpt>
            <trkpt lat="50.0989184" lon="8.6653448">
                <ele>96.0</ele>
                <time>2020-08-30T12:29:34.000Z</time>
                <name>Trackpoint 5033</name>
            </trkpt>
            <trkpt lat="50.0988704" lon="8.6652496">
                <ele>96.0</ele>
                <time>2020-08-30T12:29:36.000Z</time>
                <name>Trackpoint 5034</name>
            </trkpt>
            <trkpt lat="50.0988224" lon="8.6651624">
                <ele>96.0</ele>
                <time>2020-08-30T12:29:38.000Z</time>
                <name>Trackpoint 5035</name>
            </trkpt>
            <trkpt lat="50.0987776" lon="8.6650784">
                <ele>97.0</ele>
                <time>2020-08-30T12:29:40.000Z</time>
                <name>Trackpoint 5036</name>
            </trkpt>
            <trkpt lat="50.0987168" lon="8.6649584">
                <ele>98.0</ele>
                <time>2020-08-30T12:29:43.000Z</time>
                <name>Trackpoint 5037</name>
            </trkpt>
            <trkpt lat="50.0986752" lon="8.6648648">
                <ele>98.0</ele>
                <time>2020-08-30T12:29:45.000Z</time>
                <name>Trackpoint 5038</name>
            </trkpt>
            <trkpt lat="50.098624" lon="8.6647616">
                <ele>98.0</ele>
                <time>2020-08-30T12:29:47.000Z</time>
                <name>Trackpoint 5039</name>
            </trkpt>
            <trkpt lat="50.0985728" lon="8.6646536">
                <ele>98.0</ele>
                <time>2020-08-30T12:29:49.000Z</time>
                <name>Trackpoint 5040</name>
            </trkpt>
            <trkpt lat="50.0985216" lon="8.6645336">
                <ele>100.0</ele>
                <time>2020-08-30T12:29:51.000Z</time>
                <name>Trackpoint 5041</name>
            </trkpt>
            <trkpt lat="50.0984608" lon="8.6644136">
                <ele>100.0</ele>
                <time>2020-08-30T12:29:53.000Z</time>
                <name>Trackpoint 5042</name>
            </trkpt>
            <trkpt lat="50.0983968" lon="8.6642848">
                <ele>100.0</ele>
                <time>2020-08-30T12:29:55.000Z</time>
                <name>Trackpoint 5043</name>
            </trkpt>
            <trkpt lat="50.0983328" lon="8.6641504">
                <ele>99.0</ele>
                <time>2020-08-30T12:29:57.000Z</time>
                <name>Trackpoint 5044</name>
            </trkpt>
            <trkpt lat="50.0982656" lon="8.6640128">
                <ele>99.0</ele>
                <time>2020-08-30T12:29:59.000Z</time>
                <name>Trackpoint 5045</name>
            </trkpt>
            <trkpt lat="50.0982048" lon="8.663868">
                <ele>98.0</ele>
                <time>2020-08-30T12:30:01.000Z</time>
                <name>Trackpoint 5046</name>
            </trkpt>
            <trkpt lat="50.09816" lon="8.6637152">
                <ele>97.0</ele>
                <time>2020-08-30T12:30:03.000Z</time>
                <name>Trackpoint 5047</name>
            </trkpt>
            <trkpt lat="50.0981056" lon="8.6635712">
                <ele>98.0</ele>
                <time>2020-08-30T12:30:05.000Z</time>
                <name>Trackpoint 5048</name>
            </trkpt>
            <trkpt lat="50.0980448" lon="8.6634304">
                <ele>97.0</ele>
                <time>2020-08-30T12:30:07.000Z</time>
                <name>Trackpoint 5049</name>
            </trkpt>
            <trkpt lat="50.0979808" lon="8.663292">
                <ele>97.0</ele>
                <time>2020-08-30T12:30:09.000Z</time>
                <name>Trackpoint 5050</name>
            </trkpt>
            <trkpt lat="50.0979232" lon="8.6631584">
                <ele>97.0</ele>
                <time>2020-08-30T12:30:11.000Z</time>
                <name>Trackpoint 5051</name>
            </trkpt>
            <trkpt lat="50.0978656" lon="8.6630272">
                <ele>97.0</ele>
                <time>2020-08-30T12:30:13.000Z</time>
                <name>Trackpoint 5052</name>
            </trkpt>
            <trkpt lat="50.097808" lon="8.6628912">
                <ele>97.0</ele>
                <time>2020-08-30T12:30:15.000Z</time>
                <name>Trackpoint 5053</name>
            </trkpt>
            <trkpt lat="50.0977504" lon="8.662748">
                <ele>96.0</ele>
                <time>2020-08-30T12:30:17.000Z</time>
                <name>Trackpoint 5054</name>
            </trkpt>
            <trkpt lat="50.0976896" lon="8.6626104">
                <ele>96.0</ele>
                <time>2020-08-30T12:30:19.000Z</time>
                <name>Trackpoint 5055</name>
            </trkpt>
            <trkpt lat="50.0976288" lon="8.6624632">
                <ele>96.0</ele>
                <time>2020-08-30T12:30:21.000Z</time>
                <name>Trackpoint 5056</name>
            </trkpt>
            <trkpt lat="50.097568" lon="8.6623224">
                <ele>95.0</ele>
                <time>2020-08-30T12:30:23.000Z</time>
                <name>Trackpoint 5057</name>
            </trkpt>
            <trkpt lat="50.0975104" lon="8.6621904">
                <ele>96.0</ele>
                <time>2020-08-30T12:30:25.000Z</time>
                <name>Trackpoint 5058</name>
            </trkpt>
            <trkpt lat="50.0974528" lon="8.6620704">
                <ele>96.0</ele>
                <time>2020-08-30T12:30:27.000Z</time>
                <name>Trackpoint 5059</name>
            </trkpt>
            <trkpt lat="50.0973888" lon="8.6619616">
                <ele>97.0</ele>
                <time>2020-08-30T12:30:29.000Z</time>
                <name>Trackpoint 5060</name>
            </trkpt>
            <trkpt lat="50.0973312" lon="8.6618408">
                <ele>96.0</ele>
                <time>2020-08-30T12:30:31.000Z</time>
                <name>Trackpoint 5061</name>
            </trkpt>
            <trkpt lat="50.0972896" lon="8.6617016">
                <ele>97.0</ele>
                <time>2020-08-30T12:30:33.000Z</time>
                <name>Trackpoint 5062</name>
            </trkpt>
            <trkpt lat="50.0972416" lon="8.6615632">
                <ele>96.0</ele>
                <time>2020-08-30T12:30:35.000Z</time>
                <name>Trackpoint 5063</name>
            </trkpt>
            <trkpt lat="50.097184" lon="8.6614288">
                <ele>95.0</ele>
                <time>2020-08-30T12:30:37.000Z</time>
                <name>Trackpoint 5064</name>
            </trkpt>
            <trkpt lat="50.0971232" lon="8.6612928">
                <ele>95.0</ele>
                <time>2020-08-30T12:30:39.000Z</time>
                <name>Trackpoint 5065</name>
            </trkpt>
            <trkpt lat="50.0970656" lon="8.6611632">
                <ele>95.0</ele>
                <time>2020-08-30T12:30:41.000Z</time>
                <name>Trackpoint 5066</name>
            </trkpt>
            <trkpt lat="50.097008" lon="8.6610296">
                <ele>95.0</ele>
                <time>2020-08-30T12:30:43.000Z</time>
                <name>Trackpoint 5067</name>
            </trkpt>
            <trkpt lat="50.0969472" lon="8.6608952">
                <ele>95.0</ele>
                <time>2020-08-30T12:30:45.000Z</time>
                <name>Trackpoint 5068</name>
            </trkpt>
            <trkpt lat="50.0968896" lon="8.6607616">
                <ele>95.0</ele>
                <time>2020-08-30T12:30:47.000Z</time>
                <name>Trackpoint 5069</name>
            </trkpt>
            <trkpt lat="50.0968288" lon="8.6606256">
                <ele>94.0</ele>
                <time>2020-08-30T12:30:49.000Z</time>
                <name>Trackpoint 5070</name>
            </trkpt>
            <trkpt lat="50.0967712" lon="8.6604864">
                <ele>94.0</ele>
                <time>2020-08-30T12:30:51.000Z</time>
                <name>Trackpoint 5071</name>
            </trkpt>
            <trkpt lat="50.0967104" lon="8.6603472">
                <ele>94.0</ele>
                <time>2020-08-30T12:30:53.000Z</time>
                <name>Trackpoint 5072</name>
            </trkpt>
            <trkpt lat="50.0966496" lon="8.6602064">
                <ele>94.0</ele>
                <time>2020-08-30T12:30:55.000Z</time>
                <name>Trackpoint 5073</name>
            </trkpt>
            <trkpt lat="50.0965888" lon="8.6600688">
                <ele>94.0</ele>
                <time>2020-08-30T12:30:57.000Z</time>
                <name>Trackpoint 5074</name>
            </trkpt>
            <trkpt lat="50.0965312" lon="8.6599328">
                <ele>94.0</ele>
                <time>2020-08-30T12:30:59.000Z</time>
                <name>Trackpoint 5075</name>
            </trkpt>
            <trkpt lat="50.0964704" lon="8.6597984">
                <ele>94.0</ele>
                <time>2020-08-30T12:31:01.000Z</time>
                <name>Trackpoint 5076</name>
            </trkpt>
            <trkpt lat="50.0963968" lon="8.6596648">
                <ele>94.0</ele>
                <time>2020-08-30T12:31:03.000Z</time>
                <name>Trackpoint 5077</name>
            </trkpt>
            <trkpt lat="50.0963136" lon="8.6595632">
                <ele>94.0</ele>
                <time>2020-08-30T12:31:05.000Z</time>
                <name>Trackpoint 5078</name>
            </trkpt>
            <trkpt lat="50.0962368" lon="8.6594512">
                <ele>94.0</ele>
                <time>2020-08-30T12:31:07.000Z</time>
                <name>Trackpoint 5079</name>
            </trkpt>
            <trkpt lat="50.096176" lon="8.6593312">
                <ele>94.0</ele>
                <time>2020-08-30T12:31:09.000Z</time>
                <name>Trackpoint 5080</name>
            </trkpt>
            <trkpt lat="50.096128" lon="8.6592216">
                <ele>94.0</ele>
                <time>2020-08-30T12:31:11.000Z</time>
                <name>Trackpoint 5081</name>
            </trkpt>
            <trkpt lat="50.0960768" lon="8.6591152">
                <ele>95.0</ele>
                <time>2020-08-30T12:31:13.000Z</time>
                <name>Trackpoint 5082</name>
            </trkpt>
            <trkpt lat="50.0960352" lon="8.6590144">
                <ele>97.0</ele>
                <time>2020-08-30T12:31:15.000Z</time>
                <name>Trackpoint 5083</name>
            </trkpt>
            <trkpt lat="50.0959968" lon="8.6589232">
                <ele>97.0</ele>
                <time>2020-08-30T12:31:17.000Z</time>
                <name>Trackpoint 5084</name>
            </trkpt>
            <trkpt lat="50.0959424" lon="8.6588384">
                <ele>98.0</ele>
                <time>2020-08-30T12:31:20.000Z</time>
                <name>Trackpoint 5085</name>
            </trkpt>
            <trkpt lat="50.0958816" lon="8.6587648">
                <ele>98.0</ele>
                <time>2020-08-30T12:31:23.000Z</time>
                <name>Trackpoint 5086</name>
            </trkpt>
            <trkpt lat="50.0957984" lon="8.6586448">
                <ele>99.0</ele>
                <time>2020-08-30T12:31:26.000Z</time>
                <name>Trackpoint 5087</name>
            </trkpt>
            <trkpt lat="50.0957632" lon="8.658528">
                <ele>99.0</ele>
                <time>2020-08-30T12:31:28.000Z</time>
                <name>Trackpoint 5088</name>
            </trkpt>
            <trkpt lat="50.0957024" lon="8.6584256">
                <ele>99.0</ele>
                <time>2020-08-30T12:31:30.000Z</time>
                <name>Trackpoint 5089</name>
            </trkpt>
            <trkpt lat="50.0956448" lon="8.6583136">
                <ele>99.0</ele>
                <time>2020-08-30T12:31:32.000Z</time>
                <name>Trackpoint 5090</name>
            </trkpt>
            <trkpt lat="50.0956256" lon="8.6582184">
                <ele>98.0</ele>
                <time>2020-08-30T12:31:33.000Z</time>
                <name>Trackpoint 5091</name>
            </trkpt>
            <trkpt lat="50.095584" lon="8.6580448">
                <ele>98.0</ele>
                <time>2020-08-30T12:31:35.000Z</time>
                <name>Trackpoint 5092</name>
            </trkpt>
            <trkpt lat="50.0955392" lon="8.6578752">
                <ele>98.0</ele>
                <time>2020-08-30T12:31:37.000Z</time>
                <name>Trackpoint 5093</name>
            </trkpt>
            <trkpt lat="50.0954944" lon="8.6577352">
                <ele>98.0</ele>
                <time>2020-08-30T12:31:39.000Z</time>
                <name>Trackpoint 5094</name>
            </trkpt>
            <trkpt lat="50.0954528" lon="8.6575744">
                <ele>98.0</ele>
                <time>2020-08-30T12:31:41.000Z</time>
                <name>Trackpoint 5095</name>
            </trkpt>
            <trkpt lat="50.0954272" lon="8.65748">
                <ele>98.0</ele>
                <time>2020-08-30T12:31:42.000Z</time>
                <name>Trackpoint 5096</name>
            </trkpt>
            <trkpt lat="50.0954016" lon="8.6573064">
                <ele>98.0</ele>
                <time>2020-08-30T12:31:44.000Z</time>
                <name>Trackpoint 5097</name>
            </trkpt>
            <trkpt lat="50.0953824" lon="8.6571888">
                <ele>98.0</ele>
                <time>2020-08-30T12:31:45.000Z</time>
                <name>Trackpoint 5098</name>
            </trkpt>
            <trkpt lat="50.09536" lon="8.6570784">
                <ele>98.0</ele>
                <time>2020-08-30T12:31:46.000Z</time>
                <name>Trackpoint 5099</name>
            </trkpt>
            <trkpt lat="50.0953344" lon="8.6569744">
                <ele>99.0</ele>
                <time>2020-08-30T12:31:47.000Z</time>
                <name>Trackpoint 5100</name>
            </trkpt>
            <trkpt lat="50.0953152" lon="8.6568672">
                <ele>99.0</ele>
                <time>2020-08-30T12:31:48.000Z</time>
                <name>Trackpoint 5101</name>
            </trkpt>
            <trkpt lat="50.0952864" lon="8.6566752">
                <ele>99.0</ele>
                <time>2020-08-30T12:31:50.000Z</time>
                <name>Trackpoint 5102</name>
            </trkpt>
            <trkpt lat="50.0952768" lon="8.6565816">
                <ele>99.0</ele>
                <time>2020-08-30T12:31:51.000Z</time>
                <name>Trackpoint 5103</name>
            </trkpt>
            <trkpt lat="50.0952544" lon="8.6564848">
                <ele>99.0</ele>
                <time>2020-08-30T12:31:52.000Z</time>
                <name>Trackpoint 5104</name>
            </trkpt>
            <trkpt lat="50.0952352" lon="8.6563928">
                <ele>99.0</ele>
                <time>2020-08-30T12:31:53.000Z</time>
                <name>Trackpoint 5105</name>
            </trkpt>
            <trkpt lat="50.0951968" lon="8.6562296">
                <ele>98.0</ele>
                <time>2020-08-30T12:31:55.000Z</time>
                <name>Trackpoint 5106</name>
            </trkpt>
            <trkpt lat="50.0951776" lon="8.6560496">
                <ele>98.0</ele>
                <time>2020-08-30T12:31:57.000Z</time>
                <name>Trackpoint 5107</name>
            </trkpt>
            <trkpt lat="50.0951616" lon="8.6559536">
                <ele>98.0</ele>
                <time>2020-08-30T12:31:58.000Z</time>
                <name>Trackpoint 5108</name>
            </trkpt>
            <trkpt lat="50.0951488" lon="8.65586">
                <ele>98.0</ele>
                <time>2020-08-30T12:31:59.000Z</time>
                <name>Trackpoint 5109</name>
            </trkpt>
            <trkpt lat="50.0951264" lon="8.6556816">
                <ele>98.0</ele>
                <time>2020-08-30T12:32:01.000Z</time>
                <name>Trackpoint 5110</name>
            </trkpt>
            <trkpt lat="50.095088" lon="8.655512">
                <ele>98.0</ele>
                <time>2020-08-30T12:32:03.000Z</time>
                <name>Trackpoint 5111</name>
            </trkpt>
            <trkpt lat="50.0950656" lon="8.6554168">
                <ele>98.0</ele>
                <time>2020-08-30T12:32:04.000Z</time>
                <name>Trackpoint 5112</name>
            </trkpt>
            <trkpt lat="50.0950432" lon="8.6553232">
                <ele>98.0</ele>
                <time>2020-08-30T12:32:05.000Z</time>
                <name>Trackpoint 5113</name>
            </trkpt>
            <trkpt lat="50.095024" lon="8.6552288">
                <ele>98.0</ele>
                <time>2020-08-30T12:32:06.000Z</time>
                <name>Trackpoint 5114</name>
            </trkpt>
            <trkpt lat="50.0950112" lon="8.6550848">
                <ele>98.0</ele>
                <time>2020-08-30T12:32:08.000Z</time>
                <name>Trackpoint 5115</name>
            </trkpt>
            <trkpt lat="50.0949888" lon="8.65494">
                <ele>98.0</ele>
                <time>2020-08-30T12:32:11.000Z</time>
                <name>Trackpoint 5116</name>
            </trkpt>
            <trkpt lat="50.0949248" lon="8.6547616">
                <ele>98.0</ele>
                <time>2020-08-30T12:32:13.000Z</time>
                <name>Trackpoint 5117</name>
            </trkpt>
            <trkpt lat="50.0948832" lon="8.65462">
                <ele>98.0</ele>
                <time>2020-08-30T12:32:15.000Z</time>
                <name>Trackpoint 5118</name>
            </trkpt>
            <trkpt lat="50.0948608" lon="8.6544648">
                <ele>98.0</ele>
                <time>2020-08-30T12:32:17.000Z</time>
                <name>Trackpoint 5119</name>
            </trkpt>
            <trkpt lat="50.094848" lon="8.6543664">
                <ele>98.0</ele>
                <time>2020-08-30T12:32:18.000Z</time>
                <name>Trackpoint 5120</name>
            </trkpt>
            <trkpt lat="50.0948256" lon="8.65422">
                <ele>99.0</ele>
                <time>2020-08-30T12:32:19.000Z</time>
                <name>Trackpoint 5121</name>
            </trkpt>
            <trkpt lat="50.0948064" lon="8.6541032">
                <ele>99.0</ele>
                <time>2020-08-30T12:32:20.000Z</time>
                <name>Trackpoint 5122</name>
            </trkpt>
            <trkpt lat="50.0947808" lon="8.6540096">
                <ele>98.0</ele>
                <time>2020-08-30T12:32:21.000Z</time>
                <name>Trackpoint 5123</name>
            </trkpt>
            <trkpt lat="50.0947328" lon="8.6539048">
                <ele>98.0</ele>
                <time>2020-08-30T12:32:22.000Z</time>
                <name>Trackpoint 5124</name>
            </trkpt>
            <trkpt lat="50.0947232" lon="8.6538032">
                <ele>98.0</ele>
                <time>2020-08-30T12:32:23.000Z</time>
                <name>Trackpoint 5125</name>
            </trkpt>
            <trkpt lat="50.0946976" lon="8.6536304">
                <ele>98.0</ele>
                <time>2020-08-30T12:32:25.000Z</time>
                <name>Trackpoint 5126</name>
            </trkpt>
            <trkpt lat="50.0946624" lon="8.6534768">
                <ele>99.0</ele>
                <time>2020-08-30T12:32:27.000Z</time>
                <name>Trackpoint 5127</name>
            </trkpt>
            <trkpt lat="50.0946432" lon="8.6533384">
                <ele>99.0</ele>
                <time>2020-08-30T12:32:29.000Z</time>
                <name>Trackpoint 5128</name>
            </trkpt>
            <trkpt lat="50.094608" lon="8.653196">
                <ele>99.0</ele>
                <time>2020-08-30T12:32:31.000Z</time>
                <name>Trackpoint 5129</name>
            </trkpt>
            <trkpt lat="50.0945664" lon="8.6530664">
                <ele>100.0</ele>
                <time>2020-08-30T12:32:33.000Z</time>
                <name>Trackpoint 5130</name>
            </trkpt>
            <trkpt lat="50.0945152" lon="8.6529304">
                <ele>99.0</ele>
                <time>2020-08-30T12:32:35.000Z</time>
                <name>Trackpoint 5131</name>
            </trkpt>
            <trkpt lat="50.094464" lon="8.6527864">
                <ele>100.0</ele>
                <time>2020-08-30T12:32:37.000Z</time>
                <name>Trackpoint 5132</name>
            </trkpt>
            <trkpt lat="50.094416" lon="8.652648">
                <ele>99.0</ele>
                <time>2020-08-30T12:32:39.000Z</time>
                <name>Trackpoint 5133</name>
            </trkpt>
            <trkpt lat="50.0943712" lon="8.6525336">
                <ele>100.0</ele>
                <time>2020-08-30T12:32:41.000Z</time>
                <name>Trackpoint 5134</name>
            </trkpt>
            <trkpt lat="50.0943232" lon="8.652396">
                <ele>100.0</ele>
                <time>2020-08-30T12:32:43.000Z</time>
                <name>Trackpoint 5135</name>
            </trkpt>
            <trkpt lat="50.0942816" lon="8.6522712">
                <ele>100.0</ele>
                <time>2020-08-30T12:32:45.000Z</time>
                <name>Trackpoint 5136</name>
            </trkpt>
            <trkpt lat="50.0942528" lon="8.6521528">
                <ele>100.0</ele>
                <time>2020-08-30T12:32:47.000Z</time>
                <name>Trackpoint 5137</name>
            </trkpt>
            <trkpt lat="50.0942304" lon="8.6520216">
                <ele>100.0</ele>
                <time>2020-08-30T12:32:49.000Z</time>
                <name>Trackpoint 5138</name>
            </trkpt>
            <trkpt lat="50.094192" lon="8.6518984">
                <ele>100.0</ele>
                <time>2020-08-30T12:32:51.000Z</time>
                <name>Trackpoint 5139</name>
            </trkpt>
            <trkpt lat="50.0941664" lon="8.6517448">
                <ele>100.0</ele>
                <time>2020-08-30T12:32:53.000Z</time>
                <name>Trackpoint 5140</name>
            </trkpt>
            <trkpt lat="50.0941312" lon="8.6515936">
                <ele>100.0</ele>
                <time>2020-08-30T12:32:55.000Z</time>
                <name>Trackpoint 5141</name>
            </trkpt>
            <trkpt lat="50.0941056" lon="8.6514504">
                <ele>100.0</ele>
                <time>2020-08-30T12:32:57.000Z</time>
                <name>Trackpoint 5142</name>
            </trkpt>
            <trkpt lat="50.0940704" lon="8.651292">
                <ele>101.0</ele>
                <time>2020-08-30T12:32:59.000Z</time>
                <name>Trackpoint 5143</name>
            </trkpt>
            <trkpt lat="50.0940256" lon="8.6511496">
                <ele>101.0</ele>
                <time>2020-08-30T12:33:01.000Z</time>
                <name>Trackpoint 5144</name>
            </trkpt>
            <trkpt lat="50.0939584" lon="8.6510064">
                <ele>101.0</ele>
                <time>2020-08-30T12:33:03.000Z</time>
                <name>Trackpoint 5145</name>
            </trkpt>
            <trkpt lat="50.0939072" lon="8.650864">
                <ele>101.0</ele>
                <time>2020-08-30T12:33:05.000Z</time>
                <name>Trackpoint 5146</name>
            </trkpt>
            <trkpt lat="50.0938656" lon="8.65072">
                <ele>101.0</ele>
                <time>2020-08-30T12:33:07.000Z</time>
                <name>Trackpoint 5147</name>
            </trkpt>
            <trkpt lat="50.0938176" lon="8.6505784">
                <ele>101.0</ele>
                <time>2020-08-30T12:33:09.000Z</time>
                <name>Trackpoint 5148</name>
            </trkpt>
            <trkpt lat="50.093776" lon="8.6504232">
                <ele>101.0</ele>
                <time>2020-08-30T12:33:11.000Z</time>
                <name>Trackpoint 5149</name>
            </trkpt>
            <trkpt lat="50.0937504" lon="8.65028">
                <ele>101.0</ele>
                <time>2020-08-30T12:33:13.000Z</time>
                <name>Trackpoint 5150</name>
            </trkpt>
            <trkpt lat="50.0937344" lon="8.6501512">
                <ele>102.0</ele>
                <time>2020-08-30T12:33:15.000Z</time>
                <name>Trackpoint 5151</name>
            </trkpt>
            <trkpt lat="50.0937088" lon="8.6500032">
                <ele>102.0</ele>
                <time>2020-08-30T12:33:17.000Z</time>
                <name>Trackpoint 5152</name>
            </trkpt>
            <trkpt lat="50.0936576" lon="8.6498696">
                <ele>102.0</ele>
                <time>2020-08-30T12:33:19.000Z</time>
                <name>Trackpoint 5153</name>
            </trkpt>
            <trkpt lat="50.0936192" lon="8.64972">
                <ele>102.0</ele>
                <time>2020-08-30T12:33:21.000Z</time>
                <name>Trackpoint 5154</name>
            </trkpt>
            <trkpt lat="50.0935776" lon="8.6495648">
                <ele>102.0</ele>
                <time>2020-08-30T12:33:23.000Z</time>
                <name>Trackpoint 5155</name>
            </trkpt>
            <trkpt lat="50.0935136" lon="8.6494032">
                <ele>102.0</ele>
                <time>2020-08-30T12:33:25.000Z</time>
                <name>Trackpoint 5156</name>
            </trkpt>
            <trkpt lat="50.093488" lon="8.6492984">
                <ele>102.0</ele>
                <time>2020-08-30T12:33:26.000Z</time>
                <name>Trackpoint 5157</name>
            </trkpt>
            <trkpt lat="50.0934624" lon="8.6491968">
                <ele>103.0</ele>
                <time>2020-08-30T12:33:27.000Z</time>
                <name>Trackpoint 5158</name>
            </trkpt>
            <trkpt lat="50.0934496" lon="8.6491032">
                <ele>103.0</ele>
                <time>2020-08-30T12:33:28.000Z</time>
                <name>Trackpoint 5159</name>
            </trkpt>
            <trkpt lat="50.0934368" lon="8.649012">
                <ele>103.0</ele>
                <time>2020-08-30T12:33:29.000Z</time>
                <name>Trackpoint 5160</name>
            </trkpt>
            <trkpt lat="50.0933984" lon="8.64884">
                <ele>103.0</ele>
                <time>2020-08-30T12:33:31.000Z</time>
                <name>Trackpoint 5161</name>
            </trkpt>
            <trkpt lat="50.09336" lon="8.6486816">
                <ele>103.0</ele>
                <time>2020-08-30T12:33:33.000Z</time>
                <name>Trackpoint 5162</name>
            </trkpt>
            <trkpt lat="50.0933376" lon="8.6484968">
                <ele>103.0</ele>
                <time>2020-08-30T12:33:35.000Z</time>
                <name>Trackpoint 5163</name>
            </trkpt>
            <trkpt lat="50.0933152" lon="8.648408">
                <ele>103.0</ele>
                <time>2020-08-30T12:33:36.000Z</time>
                <name>Trackpoint 5164</name>
            </trkpt>
            <trkpt lat="50.0932896" lon="8.6482464">
                <ele>103.0</ele>
                <time>2020-08-30T12:33:38.000Z</time>
                <name>Trackpoint 5165</name>
            </trkpt>
            <trkpt lat="50.0932224" lon="8.6480952">
                <ele>103.0</ele>
                <time>2020-08-30T12:33:40.000Z</time>
                <name>Trackpoint 5166</name>
            </trkpt>
            <trkpt lat="50.0931904" lon="8.6480048">
                <ele>103.0</ele>
                <time>2020-08-30T12:33:41.000Z</time>
                <name>Trackpoint 5167</name>
            </trkpt>
            <trkpt lat="50.0931616" lon="8.647912">
                <ele>103.0</ele>
                <time>2020-08-30T12:33:42.000Z</time>
                <name>Trackpoint 5168</name>
            </trkpt>
            <trkpt lat="50.0931392" lon="8.6478208">
                <ele>104.0</ele>
                <time>2020-08-30T12:33:43.000Z</time>
                <name>Trackpoint 5169</name>
            </trkpt>
            <trkpt lat="50.0931168" lon="8.6477144">
                <ele>104.0</ele>
                <time>2020-08-30T12:33:44.000Z</time>
                <name>Trackpoint 5170</name>
            </trkpt>
            <trkpt lat="50.0930848" lon="8.6476296">
                <ele>104.0</ele>
                <time>2020-08-30T12:33:45.000Z</time>
                <name>Trackpoint 5171</name>
            </trkpt>
            <trkpt lat="50.0930624" lon="8.6475416">
                <ele>104.0</ele>
                <time>2020-08-30T12:33:46.000Z</time>
                <name>Trackpoint 5172</name>
            </trkpt>
            <trkpt lat="50.0930368" lon="8.6474512">
                <ele>104.0</ele>
                <time>2020-08-30T12:33:47.000Z</time>
                <name>Trackpoint 5173</name>
            </trkpt>
            <trkpt lat="50.0930208" lon="8.6473568">
                <ele>104.0</ele>
                <time>2020-08-30T12:33:48.000Z</time>
                <name>Trackpoint 5174</name>
            </trkpt>
            <trkpt lat="50.092976" lon="8.647188">
                <ele>104.0</ele>
                <time>2020-08-30T12:33:50.000Z</time>
                <name>Trackpoint 5175</name>
            </trkpt>
            <trkpt lat="50.092944" lon="8.647012">
                <ele>104.0</ele>
                <time>2020-08-30T12:33:52.000Z</time>
                <name>Trackpoint 5176</name>
            </trkpt>
            <trkpt lat="50.0929184" lon="8.6469072">
                <ele>104.0</ele>
                <time>2020-08-30T12:33:53.000Z</time>
                <name>Trackpoint 5177</name>
            </trkpt>
            <trkpt lat="50.0928832" lon="8.6467936">
                <ele>104.0</ele>
                <time>2020-08-30T12:33:54.000Z</time>
                <name>Trackpoint 5178</name>
            </trkpt>
            <trkpt lat="50.0928576" lon="8.6467016">
                <ele>104.0</ele>
                <time>2020-08-30T12:33:55.000Z</time>
                <name>Trackpoint 5179</name>
            </trkpt>
            <trkpt lat="50.0928" lon="8.6465464">
                <ele>104.0</ele>
                <time>2020-08-30T12:33:57.000Z</time>
                <name>Trackpoint 5180</name>
            </trkpt>
            <trkpt lat="50.0927424" lon="8.6463872">
                <ele>103.0</ele>
                <time>2020-08-30T12:33:59.000Z</time>
                <name>Trackpoint 5181</name>
            </trkpt>
            <trkpt lat="50.092688" lon="8.6462368">
                <ele>103.0</ele>
                <time>2020-08-30T12:34:01.000Z</time>
                <name>Trackpoint 5182</name>
            </trkpt>
            <trkpt lat="50.09264" lon="8.6460712">
                <ele>103.0</ele>
                <time>2020-08-30T12:34:03.000Z</time>
                <name>Trackpoint 5183</name>
            </trkpt>
            <trkpt lat="50.0925856" lon="8.6459064">
                <ele>103.0</ele>
                <time>2020-08-30T12:34:05.000Z</time>
                <name>Trackpoint 5184</name>
            </trkpt>
            <trkpt lat="50.09256" lon="8.6458184">
                <ele>103.0</ele>
                <time>2020-08-30T12:34:06.000Z</time>
                <name>Trackpoint 5185</name>
            </trkpt>
            <trkpt lat="50.0925344" lon="8.6457304">
                <ele>103.0</ele>
                <time>2020-08-30T12:34:07.000Z</time>
                <name>Trackpoint 5186</name>
            </trkpt>
            <trkpt lat="50.0925056" lon="8.645632">
                <ele>103.0</ele>
                <time>2020-08-30T12:34:08.000Z</time>
                <name>Trackpoint 5187</name>
            </trkpt>
            <trkpt lat="50.0924832" lon="8.6455432">
                <ele>103.0</ele>
                <time>2020-08-30T12:34:09.000Z</time>
                <name>Trackpoint 5188</name>
            </trkpt>
            <trkpt lat="50.0924544" lon="8.6454464">
                <ele>103.0</ele>
                <time>2020-08-30T12:34:10.000Z</time>
                <name>Trackpoint 5189</name>
            </trkpt>
            <trkpt lat="50.0924288" lon="8.6453584">
                <ele>103.0</ele>
                <time>2020-08-30T12:34:11.000Z</time>
                <name>Trackpoint 5190</name>
            </trkpt>
            <trkpt lat="50.0924064" lon="8.6452704">
                <ele>103.0</ele>
                <time>2020-08-30T12:34:12.000Z</time>
                <name>Trackpoint 5191</name>
            </trkpt>
            <trkpt lat="50.0923808" lon="8.6451832">
                <ele>103.0</ele>
                <time>2020-08-30T12:34:13.000Z</time>
                <name>Trackpoint 5192</name>
            </trkpt>
            <trkpt lat="50.0923552" lon="8.6450968">
                <ele>103.0</ele>
                <time>2020-08-30T12:34:14.000Z</time>
                <name>Trackpoint 5193</name>
            </trkpt>
            <trkpt lat="50.0923296" lon="8.6450056">
                <ele>103.0</ele>
                <time>2020-08-30T12:34:15.000Z</time>
                <name>Trackpoint 5194</name>
            </trkpt>
            <trkpt lat="50.0923104" lon="8.6449096">
                <ele>103.0</ele>
                <time>2020-08-30T12:34:16.000Z</time>
                <name>Trackpoint 5195</name>
            </trkpt>
            <trkpt lat="50.0922752" lon="8.6447584">
                <ele>103.0</ele>
                <time>2020-08-30T12:34:18.000Z</time>
                <name>Trackpoint 5196</name>
            </trkpt>
            <trkpt lat="50.0922176" lon="8.6446112">
                <ele>103.0</ele>
                <time>2020-08-30T12:34:20.000Z</time>
                <name>Trackpoint 5197</name>
            </trkpt>
            <trkpt lat="50.0921568" lon="8.64446">
                <ele>103.0</ele>
                <time>2020-08-30T12:34:22.000Z</time>
                <name>Trackpoint 5198</name>
            </trkpt>
            <trkpt lat="50.0920992" lon="8.6443192">
                <ele>103.0</ele>
                <time>2020-08-30T12:34:24.000Z</time>
                <name>Trackpoint 5199</name>
            </trkpt>
            <trkpt lat="50.0920448" lon="8.6441696">
                <ele>103.0</ele>
                <time>2020-08-30T12:34:26.000Z</time>
                <name>Trackpoint 5200</name>
            </trkpt>
            <trkpt lat="50.0919648" lon="8.6440632">
                <ele>103.0</ele>
                <time>2020-08-30T12:34:28.000Z</time>
                <name>Trackpoint 5201</name>
            </trkpt>
            <trkpt lat="50.091904" lon="8.64392">
                <ele>103.0</ele>
                <time>2020-08-30T12:34:30.000Z</time>
                <name>Trackpoint 5202</name>
            </trkpt>
            <trkpt lat="50.0918304" lon="8.6437864">
                <ele>103.0</ele>
                <time>2020-08-30T12:34:32.000Z</time>
                <name>Trackpoint 5203</name>
            </trkpt>
            <trkpt lat="50.09176" lon="8.6436584">
                <ele>103.0</ele>
                <time>2020-08-30T12:34:34.000Z</time>
                <name>Trackpoint 5204</name>
            </trkpt>
            <trkpt lat="50.0916896" lon="8.6435344">
                <ele>103.0</ele>
                <time>2020-08-30T12:34:36.000Z</time>
                <name>Trackpoint 5205</name>
            </trkpt>
            <trkpt lat="50.0916256" lon="8.6434">
                <ele>103.0</ele>
                <time>2020-08-30T12:34:38.000Z</time>
                <name>Trackpoint 5206</name>
            </trkpt>
            <trkpt lat="50.091584" lon="8.6433184">
                <ele>103.0</ele>
                <time>2020-08-30T12:34:39.000Z</time>
                <name>Trackpoint 5207</name>
            </trkpt>
            <trkpt lat="50.09152" lon="8.6431888">
                <ele>103.0</ele>
                <time>2020-08-30T12:34:41.000Z</time>
                <name>Trackpoint 5208</name>
            </trkpt>
            <trkpt lat="50.0914336" lon="8.64306">
                <ele>102.0</ele>
                <time>2020-08-30T12:34:43.000Z</time>
                <name>Trackpoint 5209</name>
            </trkpt>
            <trkpt lat="50.0913664" lon="8.6429144">
                <ele>102.0</ele>
                <time>2020-08-30T12:34:45.000Z</time>
                <name>Trackpoint 5210</name>
            </trkpt>
            <trkpt lat="50.0913056" lon="8.6427848">
                <ele>102.0</ele>
                <time>2020-08-30T12:34:47.000Z</time>
                <name>Trackpoint 5211</name>
            </trkpt>
            <trkpt lat="50.091248" lon="8.6426536">
                <ele>102.0</ele>
                <time>2020-08-30T12:34:49.000Z</time>
                <name>Trackpoint 5212</name>
            </trkpt>
            <trkpt lat="50.0911776" lon="8.6425384">
                <ele>102.0</ele>
                <time>2020-08-30T12:34:51.000Z</time>
                <name>Trackpoint 5213</name>
            </trkpt>
            <trkpt lat="50.0911232" lon="8.6424128">
                <ele>101.0</ele>
                <time>2020-08-30T12:34:53.000Z</time>
                <name>Trackpoint 5214</name>
            </trkpt>
            <trkpt lat="50.0910784" lon="8.6422704">
                <ele>101.0</ele>
                <time>2020-08-30T12:34:55.000Z</time>
                <name>Trackpoint 5215</name>
            </trkpt>
            <trkpt lat="50.0910272" lon="8.6421">
                <ele>101.0</ele>
                <time>2020-08-30T12:34:57.000Z</time>
                <name>Trackpoint 5216</name>
            </trkpt>
            <trkpt lat="50.0909888" lon="8.6420168">
                <ele>101.0</ele>
                <time>2020-08-30T12:34:58.000Z</time>
                <name>Trackpoint 5217</name>
            </trkpt>
            <trkpt lat="50.09096" lon="8.6419264">
                <ele>101.0</ele>
                <time>2020-08-30T12:34:59.000Z</time>
                <name>Trackpoint 5218</name>
            </trkpt>
            <trkpt lat="50.0909312" lon="8.6418368">
                <ele>101.0</ele>
                <time>2020-08-30T12:35:00.000Z</time>
                <name>Trackpoint 5219</name>
            </trkpt>
            <trkpt lat="50.090896" lon="8.6417488">
                <ele>101.0</ele>
                <time>2020-08-30T12:35:01.000Z</time>
                <name>Trackpoint 5220</name>
            </trkpt>
            <trkpt lat="50.0908672" lon="8.6416584">
                <ele>101.0</ele>
                <time>2020-08-30T12:35:02.000Z</time>
                <name>Trackpoint 5221</name>
            </trkpt>
            <trkpt lat="50.0908448" lon="8.6415632">
                <ele>101.0</ele>
                <time>2020-08-30T12:35:03.000Z</time>
                <name>Trackpoint 5222</name>
            </trkpt>
            <trkpt lat="50.0908128" lon="8.6414744">
                <ele>101.0</ele>
                <time>2020-08-30T12:35:04.000Z</time>
                <name>Trackpoint 5223</name>
            </trkpt>
            <trkpt lat="50.0907744" lon="8.6413872">
                <ele>101.0</ele>
                <time>2020-08-30T12:35:05.000Z</time>
                <name>Trackpoint 5224</name>
            </trkpt>
            <trkpt lat="50.0907392" lon="8.6413032">
                <ele>101.0</ele>
                <time>2020-08-30T12:35:06.000Z</time>
                <name>Trackpoint 5225</name>
            </trkpt>
            <trkpt lat="50.0906688" lon="8.6411512">
                <ele>101.0</ele>
                <time>2020-08-30T12:35:08.000Z</time>
                <name>Trackpoint 5226</name>
            </trkpt>
            <trkpt lat="50.090608" lon="8.6410016">
                <ele>101.0</ele>
                <time>2020-08-30T12:35:10.000Z</time>
                <name>Trackpoint 5227</name>
            </trkpt>
            <trkpt lat="50.0905408" lon="8.6408368">
                <ele>101.0</ele>
                <time>2020-08-30T12:35:12.000Z</time>
                <name>Trackpoint 5228</name>
            </trkpt>
            <trkpt lat="50.0905024" lon="8.6407544">
                <ele>101.0</ele>
                <time>2020-08-30T12:35:13.000Z</time>
                <name>Trackpoint 5229</name>
            </trkpt>
            <trkpt lat="50.0904352" lon="8.6405984">
                <ele>100.0</ele>
                <time>2020-08-30T12:35:15.000Z</time>
                <name>Trackpoint 5230</name>
            </trkpt>
            <trkpt lat="50.0903424" lon="8.6404464">
                <ele>100.0</ele>
                <time>2020-08-30T12:35:17.000Z</time>
                <name>Trackpoint 5231</name>
            </trkpt>
            <trkpt lat="50.0901632" lon="8.640212">
                <ele>100.0</ele>
                <time>2020-08-30T12:35:18.000Z</time>
                <name>Trackpoint 5232</name>
            </trkpt>
            <trkpt lat="50.0901152" lon="8.6401304">
                <ele>100.0</ele>
                <time>2020-08-30T12:35:20.000Z</time>
                <name>Trackpoint 5233</name>
            </trkpt>
            <trkpt lat="50.0900704" lon="8.6400016">
                <ele>101.0</ele>
                <time>2020-08-30T12:35:22.000Z</time>
                <name>Trackpoint 5234</name>
            </trkpt>
            <trkpt lat="50.0900384" lon="8.6399">
                <ele>101.0</ele>
                <time>2020-08-30T12:35:24.000Z</time>
                <name>Trackpoint 5235</name>
            </trkpt>
            <trkpt lat="50.0899584" lon="8.63978">
                <ele>100.0</ele>
                <time>2020-08-30T12:35:27.000Z</time>
                <name>Trackpoint 5236</name>
            </trkpt>
            <trkpt lat="50.0899008" lon="8.6396888">
                <ele>100.0</ele>
                <time>2020-08-30T12:35:29.000Z</time>
                <name>Trackpoint 5237</name>
            </trkpt>
            <trkpt lat="50.089856" lon="8.6395864">
                <ele>100.0</ele>
                <time>2020-08-30T12:35:31.000Z</time>
                <name>Trackpoint 5238</name>
            </trkpt>
            <trkpt lat="50.0898176" lon="8.6395">
                <ele>100.0</ele>
                <time>2020-08-30T12:35:33.000Z</time>
                <name>Trackpoint 5239</name>
            </trkpt>
            <trkpt lat="50.0897728" lon="8.6394104">
                <ele>100.0</ele>
                <time>2020-08-30T12:35:35.000Z</time>
                <name>Trackpoint 5240</name>
            </trkpt>
            <trkpt lat="50.0897216" lon="8.639312">
                <ele>101.0</ele>
                <time>2020-08-30T12:35:37.000Z</time>
                <name>Trackpoint 5241</name>
            </trkpt>
            <trkpt lat="50.0896288" lon="8.6391736">
                <ele>101.0</ele>
                <time>2020-08-30T12:35:39.000Z</time>
                <name>Trackpoint 5242</name>
            </trkpt>
            <trkpt lat="50.089568" lon="8.6390736">
                <ele>102.0</ele>
                <time>2020-08-30T12:35:41.000Z</time>
                <name>Trackpoint 5243</name>
            </trkpt>
            <trkpt lat="50.0895296" lon="8.6389864">
                <ele>103.0</ele>
                <time>2020-08-30T12:35:43.000Z</time>
                <name>Trackpoint 5244</name>
            </trkpt>
            <trkpt lat="50.089504" lon="8.6388968">
                <ele>103.0</ele>
                <time>2020-08-30T12:35:45.000Z</time>
                <name>Trackpoint 5245</name>
            </trkpt>
            <trkpt lat="50.0894912" lon="8.6387752">
                <ele>102.0</ele>
                <time>2020-08-30T12:35:47.000Z</time>
                <name>Trackpoint 5246</name>
            </trkpt>
            <trkpt lat="50.089456" lon="8.638688">
                <ele>100.0</ele>
                <time>2020-08-30T12:35:49.000Z</time>
                <name>Trackpoint 5247</name>
            </trkpt>
            <trkpt lat="50.0893984" lon="8.6385872">
                <ele>100.0</ele>
                <time>2020-08-30T12:35:52.000Z</time>
                <name>Trackpoint 5248</name>
            </trkpt>
            <trkpt lat="50.0893632" lon="8.6384888">
                <ele>101.0</ele>
                <time>2020-08-30T12:35:54.000Z</time>
                <name>Trackpoint 5249</name>
            </trkpt>
            <trkpt lat="50.0893376" lon="8.6383864">
                <ele>102.0</ele>
                <time>2020-08-30T12:35:56.000Z</time>
                <name>Trackpoint 5250</name>
            </trkpt>
            <trkpt lat="50.0892992" lon="8.6382576">
                <ele>102.0</ele>
                <time>2020-08-30T12:35:58.000Z</time>
                <name>Trackpoint 5251</name>
            </trkpt>
            <trkpt lat="50.0892704" lon="8.6381256">
                <ele>102.0</ele>
                <time>2020-08-30T12:36:00.000Z</time>
                <name>Trackpoint 5252</name>
            </trkpt>
            <trkpt lat="50.089248" lon="8.6379816">
                <ele>101.0</ele>
                <time>2020-08-30T12:36:02.000Z</time>
                <name>Trackpoint 5253</name>
            </trkpt>
            <trkpt lat="50.0892" lon="8.63782">
                <ele>102.0</ele>
                <time>2020-08-30T12:36:04.000Z</time>
                <name>Trackpoint 5254</name>
            </trkpt>
            <trkpt lat="50.0891616" lon="8.6376712">
                <ele>102.0</ele>
                <time>2020-08-30T12:36:06.000Z</time>
                <name>Trackpoint 5255</name>
            </trkpt>
            <trkpt lat="50.0891328" lon="8.6375248">
                <ele>101.0</ele>
                <time>2020-08-30T12:36:08.000Z</time>
                <name>Trackpoint 5256</name>
            </trkpt>
            <trkpt lat="50.0891008" lon="8.63738">
                <ele>101.0</ele>
                <time>2020-08-30T12:36:10.000Z</time>
                <name>Trackpoint 5257</name>
            </trkpt>
            <trkpt lat="50.0890688" lon="8.6372384">
                <ele>101.0</ele>
                <time>2020-08-30T12:36:12.000Z</time>
                <name>Trackpoint 5258</name>
            </trkpt>
            <trkpt lat="50.0890464" lon="8.6370896">
                <ele>101.0</ele>
                <time>2020-08-30T12:36:14.000Z</time>
                <name>Trackpoint 5259</name>
            </trkpt>
            <trkpt lat="50.089024" lon="8.6369936">
                <ele>101.0</ele>
                <time>2020-08-30T12:36:15.000Z</time>
                <name>Trackpoint 5260</name>
            </trkpt>
            <trkpt lat="50.0890144" lon="8.636904">
                <ele>101.0</ele>
                <time>2020-08-30T12:36:16.000Z</time>
                <name>Trackpoint 5261</name>
            </trkpt>
            <trkpt lat="50.0889824" lon="8.6367368">
                <ele>100.0</ele>
                <time>2020-08-30T12:36:18.000Z</time>
                <name>Trackpoint 5262</name>
            </trkpt>
            <trkpt lat="50.0889472" lon="8.6365672">
                <ele>99.0</ele>
                <time>2020-08-30T12:36:20.000Z</time>
                <name>Trackpoint 5263</name>
            </trkpt>
            <trkpt lat="50.0889152" lon="8.6363936">
                <ele>98.0</ele>
                <time>2020-08-30T12:36:22.000Z</time>
                <name>Trackpoint 5264</name>
            </trkpt>
            <trkpt lat="50.0888896" lon="8.6362312">
                <ele>98.0</ele>
                <time>2020-08-30T12:36:24.000Z</time>
                <name>Trackpoint 5265</name>
            </trkpt>
            <trkpt lat="50.088864" lon="8.6360768">
                <ele>98.0</ele>
                <time>2020-08-30T12:36:26.000Z</time>
                <name>Trackpoint 5266</name>
            </trkpt>
            <trkpt lat="50.088848" lon="8.6359856">
                <ele>97.0</ele>
                <time>2020-08-30T12:36:27.000Z</time>
                <name>Trackpoint 5267</name>
            </trkpt>
            <trkpt lat="50.088848" lon="8.63582">
                <ele>96.0</ele>
                <time>2020-08-30T12:36:29.000Z</time>
                <name>Trackpoint 5268</name>
            </trkpt>
            <trkpt lat="50.0888224" lon="8.6356552">
                <ele>96.0</ele>
                <time>2020-08-30T12:36:31.000Z</time>
                <name>Trackpoint 5269</name>
            </trkpt>
            <trkpt lat="50.0887936" lon="8.6354952">
                <ele>96.0</ele>
                <time>2020-08-30T12:36:33.000Z</time>
                <name>Trackpoint 5270</name>
            </trkpt>
            <trkpt lat="50.0887616" lon="8.6353168">
                <ele>95.0</ele>
                <time>2020-08-30T12:36:35.000Z</time>
                <name>Trackpoint 5271</name>
            </trkpt>
            <trkpt lat="50.0887424" lon="8.635168">
                <ele>95.0</ele>
                <time>2020-08-30T12:36:37.000Z</time>
                <name>Trackpoint 5272</name>
            </trkpt>
            <trkpt lat="50.0887232" lon="8.6350048">
                <ele>95.0</ele>
                <time>2020-08-30T12:36:39.000Z</time>
                <name>Trackpoint 5273</name>
            </trkpt>
            <trkpt lat="50.0887104" lon="8.6348496">
                <ele>95.0</ele>
                <time>2020-08-30T12:36:41.000Z</time>
                <name>Trackpoint 5274</name>
            </trkpt>
            <trkpt lat="50.088704" lon="8.6346864">
                <ele>96.0</ele>
                <time>2020-08-30T12:36:43.000Z</time>
                <name>Trackpoint 5275</name>
            </trkpt>
            <trkpt lat="50.0886848" lon="8.6345184">
                <ele>96.0</ele>
                <time>2020-08-30T12:36:45.000Z</time>
                <name>Trackpoint 5276</name>
            </trkpt>
            <trkpt lat="50.0886624" lon="8.6343544">
                <ele>95.0</ele>
                <time>2020-08-30T12:36:47.000Z</time>
                <name>Trackpoint 5277</name>
            </trkpt>
            <trkpt lat="50.0886368" lon="8.6341936">
                <ele>96.0</ele>
                <time>2020-08-30T12:36:49.000Z</time>
                <name>Trackpoint 5278</name>
            </trkpt>
            <trkpt lat="50.088624" lon="8.6340368">
                <ele>96.0</ele>
                <time>2020-08-30T12:36:51.000Z</time>
                <name>Trackpoint 5279</name>
            </trkpt>
            <trkpt lat="50.0886048" lon="8.6338928">
                <ele>96.0</ele>
                <time>2020-08-30T12:36:53.000Z</time>
                <name>Trackpoint 5280</name>
            </trkpt>
            <trkpt lat="50.0885888" lon="8.6337632">
                <ele>96.0</ele>
                <time>2020-08-30T12:36:55.000Z</time>
                <name>Trackpoint 5281</name>
            </trkpt>
            <trkpt lat="50.088576" lon="8.6336616">
                <ele>96.0</ele>
                <time>2020-08-30T12:36:56.000Z</time>
                <name>Trackpoint 5282</name>
            </trkpt>
            <trkpt lat="50.0885472" lon="8.6335152">
                <ele>96.0</ele>
                <time>2020-08-30T12:36:58.000Z</time>
                <name>Trackpoint 5283</name>
            </trkpt>
            <trkpt lat="50.0885216" lon="8.6333888">
                <ele>96.0</ele>
                <time>2020-08-30T12:37:00.000Z</time>
                <name>Trackpoint 5284</name>
            </trkpt>
            <trkpt lat="50.088496" lon="8.6332712">
                <ele>96.0</ele>
                <time>2020-08-30T12:37:02.000Z</time>
                <name>Trackpoint 5285</name>
            </trkpt>
            <trkpt lat="50.0884736" lon="8.6331464">
                <ele>96.0</ele>
                <time>2020-08-30T12:37:04.000Z</time>
                <name>Trackpoint 5286</name>
            </trkpt>
            <trkpt lat="50.0884448" lon="8.6330016">
                <ele>96.0</ele>
                <time>2020-08-30T12:37:06.000Z</time>
                <name>Trackpoint 5287</name>
            </trkpt>
            <trkpt lat="50.0884096" lon="8.6328952">
                <ele>96.0</ele>
                <time>2020-08-30T12:37:08.000Z</time>
                <name>Trackpoint 5288</name>
            </trkpt>
            <trkpt lat="50.0883872" lon="8.6327952">
                <ele>96.0</ele>
                <time>2020-08-30T12:37:10.000Z</time>
                <name>Trackpoint 5289</name>
            </trkpt>
            <trkpt lat="50.0883936" lon="8.632644">
                <ele>96.0</ele>
                <time>2020-08-30T12:37:11.000Z</time>
                <name>Trackpoint 5290</name>
            </trkpt>
            <trkpt lat="50.0883584" lon="8.6325184">
                <ele>96.0</ele>
                <time>2020-08-30T12:37:13.000Z</time>
                <name>Trackpoint 5291</name>
            </trkpt>
            <trkpt lat="50.088352" lon="8.6324056">
                <ele>96.0</ele>
                <time>2020-08-30T12:37:16.000Z</time>
                <name>Trackpoint 5292</name>
            </trkpt>
            <trkpt lat="50.0883584" lon="8.6321896">
                <ele>96.0</ele>
                <time>2020-08-30T12:37:19.000Z</time>
                <name>Trackpoint 5293</name>
            </trkpt>
            <trkpt lat="50.088384" lon="8.6320952">
                <ele>97.0</ele>
                <time>2020-08-30T12:37:24.000Z</time>
                <name>Trackpoint 5294</name>
            </trkpt>
            <trkpt lat="50.0884864" lon="8.6321488">
                <ele>96.0</ele>
                <time>2020-08-30T12:37:29.000Z</time>
                <name>Trackpoint 5295</name>
            </trkpt>
            <trkpt lat="50.0885088" lon="8.6320296">
                <ele>96.0</ele>
                <time>2020-08-30T12:37:33.000Z</time>
                <name>Trackpoint 5296</name>
            </trkpt>
            <trkpt lat="50.0885152" lon="8.6319248">
                <ele>96.0</ele>
                <time>2020-08-30T12:37:35.000Z</time>
                <name>Trackpoint 5297</name>
            </trkpt>
            <trkpt lat="50.0884864" lon="8.631788">
                <ele>96.0</ele>
                <time>2020-08-30T12:37:38.000Z</time>
                <name>Trackpoint 5298</name>
            </trkpt>
            <trkpt lat="50.0884768" lon="8.631688">
                <ele>97.0</ele>
                <time>2020-08-30T12:37:39.000Z</time>
                <name>Trackpoint 5299</name>
            </trkpt>
            <trkpt lat="50.0884448" lon="8.63156">
                <ele>97.0</ele>
                <time>2020-08-30T12:37:41.000Z</time>
                <name>Trackpoint 5300</name>
            </trkpt>
            <trkpt lat="50.0884128" lon="8.6313888">
                <ele>96.0</ele>
                <time>2020-08-30T12:37:43.000Z</time>
                <name>Trackpoint 5301</name>
            </trkpt>
            <trkpt lat="50.088384" lon="8.6312216">
                <ele>96.0</ele>
                <time>2020-08-30T12:37:45.000Z</time>
                <name>Trackpoint 5302</name>
            </trkpt>
            <trkpt lat="50.0883584" lon="8.6310664">
                <ele>95.0</ele>
                <time>2020-08-30T12:37:47.000Z</time>
                <name>Trackpoint 5303</name>
            </trkpt>
            <trkpt lat="50.0883456" lon="8.6309336">
                <ele>94.0</ele>
                <time>2020-08-30T12:37:49.000Z</time>
                <name>Trackpoint 5304</name>
            </trkpt>
            <trkpt lat="50.0883136" lon="8.6307944">
                <ele>94.0</ele>
                <time>2020-08-30T12:37:51.000Z</time>
                <name>Trackpoint 5305</name>
            </trkpt>
            <trkpt lat="50.0882848" lon="8.6306152">
                <ele>94.0</ele>
                <time>2020-08-30T12:37:53.000Z</time>
                <name>Trackpoint 5306</name>
            </trkpt>
            <trkpt lat="50.0882592" lon="8.6304528">
                <ele>94.0</ele>
                <time>2020-08-30T12:37:55.000Z</time>
                <name>Trackpoint 5307</name>
            </trkpt>
            <trkpt lat="50.08824" lon="8.6303064">
                <ele>93.0</ele>
                <time>2020-08-30T12:37:57.000Z</time>
                <name>Trackpoint 5308</name>
            </trkpt>
            <trkpt lat="50.088224" lon="8.6301568">
                <ele>94.0</ele>
                <time>2020-08-30T12:37:59.000Z</time>
                <name>Trackpoint 5309</name>
            </trkpt>
            <trkpt lat="50.088192" lon="8.6300136">
                <ele>93.0</ele>
                <time>2020-08-30T12:38:01.000Z</time>
                <name>Trackpoint 5310</name>
            </trkpt>
            <trkpt lat="50.088176" lon="8.6298904">
                <ele>93.0</ele>
                <time>2020-08-30T12:38:03.000Z</time>
                <name>Trackpoint 5311</name>
            </trkpt>
            <trkpt lat="50.0881664" lon="8.629784">
                <ele>93.0</ele>
                <time>2020-08-30T12:38:05.000Z</time>
                <name>Trackpoint 5312</name>
            </trkpt>
            <trkpt lat="50.08816" lon="8.6296728">
                <ele>93.0</ele>
                <time>2020-08-30T12:38:07.000Z</time>
                <name>Trackpoint 5313</name>
            </trkpt>
            <trkpt lat="50.0881504" lon="8.6295568">
                <ele>93.0</ele>
                <time>2020-08-30T12:38:09.000Z</time>
                <name>Trackpoint 5314</name>
            </trkpt>
            <trkpt lat="50.088128" lon="8.6294368">
                <ele>93.0</ele>
                <time>2020-08-30T12:38:11.000Z</time>
                <name>Trackpoint 5315</name>
            </trkpt>
            <trkpt lat="50.0881056" lon="8.6293152">
                <ele>93.0</ele>
                <time>2020-08-30T12:38:13.000Z</time>
                <name>Trackpoint 5316</name>
            </trkpt>
            <trkpt lat="50.0880928" lon="8.6292048">
                <ele>93.0</ele>
                <time>2020-08-30T12:38:15.000Z</time>
                <name>Trackpoint 5317</name>
            </trkpt>
            <trkpt lat="50.0880864" lon="8.6290648">
                <ele>93.0</ele>
                <time>2020-08-30T12:38:17.000Z</time>
                <name>Trackpoint 5318</name>
            </trkpt>
            <trkpt lat="50.0880544" lon="8.6289168">
                <ele>93.0</ele>
                <time>2020-08-30T12:38:19.000Z</time>
                <name>Trackpoint 5319</name>
            </trkpt>
            <trkpt lat="50.0880288" lon="8.628748">
                <ele>94.0</ele>
                <time>2020-08-30T12:38:21.000Z</time>
                <name>Trackpoint 5320</name>
            </trkpt>
            <trkpt lat="50.088016" lon="8.6286112">
                <ele>94.0</ele>
                <time>2020-08-30T12:38:23.000Z</time>
                <name>Trackpoint 5321</name>
            </trkpt>
            <trkpt lat="50.0880064" lon="8.6284904">
                <ele>94.0</ele>
                <time>2020-08-30T12:38:25.000Z</time>
                <name>Trackpoint 5322</name>
            </trkpt>
            <trkpt lat="50.0880064" lon="8.6283616">
                <ele>94.0</ele>
                <time>2020-08-30T12:38:27.000Z</time>
                <name>Trackpoint 5323</name>
            </trkpt>
            <trkpt lat="50.0879904" lon="8.6282304">
                <ele>93.0</ele>
                <time>2020-08-30T12:38:29.000Z</time>
                <name>Trackpoint 5324</name>
            </trkpt>
            <trkpt lat="50.0879872" lon="8.6281096">
                <ele>93.0</ele>
                <time>2020-08-30T12:38:31.000Z</time>
                <name>Trackpoint 5325</name>
            </trkpt>
            <trkpt lat="50.0879808" lon="8.6279896">
                <ele>92.0</ele>
                <time>2020-08-30T12:38:33.000Z</time>
                <name>Trackpoint 5326</name>
            </trkpt>
            <trkpt lat="50.0879808" lon="8.62786">
                <ele>92.0</ele>
                <time>2020-08-30T12:38:35.000Z</time>
                <name>Trackpoint 5327</name>
            </trkpt>
            <trkpt lat="50.0879712" lon="8.6277376">
                <ele>92.0</ele>
                <time>2020-08-30T12:38:37.000Z</time>
                <name>Trackpoint 5328</name>
            </trkpt>
            <trkpt lat="50.0879712" lon="8.6276304">
                <ele>92.0</ele>
                <time>2020-08-30T12:38:39.000Z</time>
                <name>Trackpoint 5329</name>
            </trkpt>
            <trkpt lat="50.0879744" lon="8.6275168">
                <ele>91.0</ele>
                <time>2020-08-30T12:38:41.000Z</time>
                <name>Trackpoint 5330</name>
            </trkpt>
            <trkpt lat="50.0879712" lon="8.6274048">
                <ele>91.0</ele>
                <time>2020-08-30T12:38:43.000Z</time>
                <name>Trackpoint 5331</name>
            </trkpt>
            <trkpt lat="50.0879616" lon="8.6272832">
                <ele>91.0</ele>
                <time>2020-08-30T12:38:45.000Z</time>
                <name>Trackpoint 5332</name>
            </trkpt>
            <trkpt lat="50.087968" lon="8.6271752">
                <ele>92.0</ele>
                <time>2020-08-30T12:38:47.000Z</time>
                <name>Trackpoint 5333</name>
            </trkpt>
            <trkpt lat="50.087968" lon="8.6270488">
                <ele>92.0</ele>
                <time>2020-08-30T12:38:49.000Z</time>
                <name>Trackpoint 5334</name>
            </trkpt>
            <trkpt lat="50.0879584" lon="8.626928">
                <ele>91.0</ele>
                <time>2020-08-30T12:38:51.000Z</time>
                <name>Trackpoint 5335</name>
            </trkpt>
            <trkpt lat="50.087952" lon="8.6268184">
                <ele>91.0</ele>
                <time>2020-08-30T12:38:53.000Z</time>
                <name>Trackpoint 5336</name>
            </trkpt>
            <trkpt lat="50.0879584" lon="8.626712">
                <ele>91.0</ele>
                <time>2020-08-30T12:38:55.000Z</time>
                <name>Trackpoint 5337</name>
            </trkpt>
            <trkpt lat="50.0879552" lon="8.626592">
                <ele>91.0</ele>
                <time>2020-08-30T12:38:57.000Z</time>
                <name>Trackpoint 5338</name>
            </trkpt>
            <trkpt lat="50.087952" lon="8.6264584">
                <ele>91.0</ele>
                <time>2020-08-30T12:38:59.000Z</time>
                <name>Trackpoint 5339</name>
            </trkpt>
            <trkpt lat="50.0879552" lon="8.6262968">
                <ele>90.0</ele>
                <time>2020-08-30T12:39:01.000Z</time>
                <name>Trackpoint 5340</name>
            </trkpt>
            <trkpt lat="50.087952" lon="8.6261304">
                <ele>91.0</ele>
                <time>2020-08-30T12:39:03.000Z</time>
                <name>Trackpoint 5341</name>
            </trkpt>
            <trkpt lat="50.087952" lon="8.6259568">
                <ele>91.0</ele>
                <time>2020-08-30T12:39:05.000Z</time>
                <name>Trackpoint 5342</name>
            </trkpt>
            <trkpt lat="50.0879488" lon="8.62586">
                <ele>92.0</ele>
                <time>2020-08-30T12:39:06.000Z</time>
                <name>Trackpoint 5343</name>
            </trkpt>
            <trkpt lat="50.0879488" lon="8.6257632">
                <ele>92.0</ele>
                <time>2020-08-30T12:39:07.000Z</time>
                <name>Trackpoint 5344</name>
            </trkpt>
            <trkpt lat="50.0879488" lon="8.6256688">
                <ele>92.0</ele>
                <time>2020-08-30T12:39:08.000Z</time>
                <name>Trackpoint 5345</name>
            </trkpt>
            <trkpt lat="50.0879488" lon="8.6255704">
                <ele>92.0</ele>
                <time>2020-08-30T12:39:09.000Z</time>
                <name>Trackpoint 5346</name>
            </trkpt>
            <trkpt lat="50.087952" lon="8.6254704">
                <ele>92.0</ele>
                <time>2020-08-30T12:39:10.000Z</time>
                <name>Trackpoint 5347</name>
            </trkpt>
            <trkpt lat="50.087952" lon="8.625372">
                <ele>92.0</ele>
                <time>2020-08-30T12:39:11.000Z</time>
                <name>Trackpoint 5348</name>
            </trkpt>
            <trkpt lat="50.0879552" lon="8.625268">
                <ele>92.0</ele>
                <time>2020-08-30T12:39:12.000Z</time>
                <name>Trackpoint 5349</name>
            </trkpt>
            <trkpt lat="50.0879552" lon="8.6251648">
                <ele>92.0</ele>
                <time>2020-08-30T12:39:13.000Z</time>
                <name>Trackpoint 5350</name>
            </trkpt>
            <trkpt lat="50.0879584" lon="8.6250632">
                <ele>92.0</ele>
                <time>2020-08-30T12:39:14.000Z</time>
                <name>Trackpoint 5351</name>
            </trkpt>
            <trkpt lat="50.0879584" lon="8.6249616">
                <ele>92.0</ele>
                <time>2020-08-30T12:39:15.000Z</time>
                <name>Trackpoint 5352</name>
            </trkpt>
            <trkpt lat="50.0879616" lon="8.6248568">
                <ele>92.0</ele>
                <time>2020-08-30T12:39:16.000Z</time>
                <name>Trackpoint 5353</name>
            </trkpt>
            <trkpt lat="50.0879616" lon="8.6247528">
                <ele>92.0</ele>
                <time>2020-08-30T12:39:17.000Z</time>
                <name>Trackpoint 5354</name>
            </trkpt>
            <trkpt lat="50.0879616" lon="8.6246472">
                <ele>92.0</ele>
                <time>2020-08-30T12:39:18.000Z</time>
                <name>Trackpoint 5355</name>
            </trkpt>
            <trkpt lat="50.0879584" lon="8.62454">
                <ele>92.0</ele>
                <time>2020-08-30T12:39:19.000Z</time>
                <name>Trackpoint 5356</name>
            </trkpt>
            <trkpt lat="50.0879552" lon="8.6244432">
                <ele>92.0</ele>
                <time>2020-08-30T12:39:20.000Z</time>
                <name>Trackpoint 5357</name>
            </trkpt>
            <trkpt lat="50.0879616" lon="8.6243448">
                <ele>92.0</ele>
                <time>2020-08-30T12:39:21.000Z</time>
                <name>Trackpoint 5358</name>
            </trkpt>
            <trkpt lat="50.087968" lon="8.624244">
                <ele>92.0</ele>
                <time>2020-08-30T12:39:22.000Z</time>
                <name>Trackpoint 5359</name>
            </trkpt>
            <trkpt lat="50.0879712" lon="8.62414">
                <ele>92.0</ele>
                <time>2020-08-30T12:39:23.000Z</time>
                <name>Trackpoint 5360</name>
            </trkpt>
            <trkpt lat="50.0879776" lon="8.6240328">
                <ele>92.0</ele>
                <time>2020-08-30T12:39:24.000Z</time>
                <name>Trackpoint 5361</name>
            </trkpt>
            <trkpt lat="50.0879744" lon="8.6239232">
                <ele>92.0</ele>
                <time>2020-08-30T12:39:25.000Z</time>
                <name>Trackpoint 5362</name>
            </trkpt>
            <trkpt lat="50.0879776" lon="8.6238168">
                <ele>92.0</ele>
                <time>2020-08-30T12:39:26.000Z</time>
                <name>Trackpoint 5363</name>
            </trkpt>
            <trkpt lat="50.0879776" lon="8.6237096">
                <ele>91.0</ele>
                <time>2020-08-30T12:39:27.000Z</time>
                <name>Trackpoint 5364</name>
            </trkpt>
            <trkpt lat="50.0879808" lon="8.6236016">
                <ele>91.0</ele>
                <time>2020-08-30T12:39:28.000Z</time>
                <name>Trackpoint 5365</name>
            </trkpt>
            <trkpt lat="50.0879904" lon="8.6234928">
                <ele>91.0</ele>
                <time>2020-08-30T12:39:29.000Z</time>
                <name>Trackpoint 5366</name>
            </trkpt>
            <trkpt lat="50.0879936" lon="8.6233864">
                <ele>91.0</ele>
                <time>2020-08-30T12:39:30.000Z</time>
                <name>Trackpoint 5367</name>
            </trkpt>
            <trkpt lat="50.0879968" lon="8.6232792">
                <ele>91.0</ele>
                <time>2020-08-30T12:39:31.000Z</time>
                <name>Trackpoint 5368</name>
            </trkpt>
            <trkpt lat="50.0880064" lon="8.6231736">
                <ele>91.0</ele>
                <time>2020-08-30T12:39:32.000Z</time>
                <name>Trackpoint 5369</name>
            </trkpt>
            <trkpt lat="50.0880064" lon="8.6230648">
                <ele>90.0</ele>
                <time>2020-08-30T12:39:33.000Z</time>
                <name>Trackpoint 5370</name>
            </trkpt>
            <trkpt lat="50.088016" lon="8.6229632">
                <ele>90.0</ele>
                <time>2020-08-30T12:39:34.000Z</time>
                <name>Trackpoint 5371</name>
            </trkpt>
            <trkpt lat="50.0880192" lon="8.62286">
                <ele>90.0</ele>
                <time>2020-08-30T12:39:35.000Z</time>
                <name>Trackpoint 5372</name>
            </trkpt>
            <trkpt lat="50.0880288" lon="8.62276">
                <ele>90.0</ele>
                <time>2020-08-30T12:39:36.000Z</time>
                <name>Trackpoint 5373</name>
            </trkpt>
            <trkpt lat="50.0880288" lon="8.62266">
                <ele>90.0</ele>
                <time>2020-08-30T12:39:37.000Z</time>
                <name>Trackpoint 5374</name>
            </trkpt>
            <trkpt lat="50.088032" lon="8.6225616">
                <ele>89.0</ele>
                <time>2020-08-30T12:39:38.000Z</time>
                <name>Trackpoint 5375</name>
            </trkpt>
            <trkpt lat="50.088032" lon="8.6224648">
                <ele>90.0</ele>
                <time>2020-08-30T12:39:39.000Z</time>
                <name>Trackpoint 5376</name>
            </trkpt>
            <trkpt lat="50.0880384" lon="8.622372">
                <ele>90.0</ele>
                <time>2020-08-30T12:39:40.000Z</time>
                <name>Trackpoint 5377</name>
            </trkpt>
            <trkpt lat="50.0880448" lon="8.6221984">
                <ele>90.0</ele>
                <time>2020-08-30T12:39:42.000Z</time>
                <name>Trackpoint 5378</name>
            </trkpt>
            <trkpt lat="50.0880448" lon="8.6220368">
                <ele>90.0</ele>
                <time>2020-08-30T12:39:44.000Z</time>
                <name>Trackpoint 5379</name>
            </trkpt>
            <trkpt lat="50.0880608" lon="8.6218904">
                <ele>89.0</ele>
                <time>2020-08-30T12:39:46.000Z</time>
                <name>Trackpoint 5380</name>
            </trkpt>
            <trkpt lat="50.0880736" lon="8.621748">
                <ele>90.0</ele>
                <time>2020-08-30T12:39:48.000Z</time>
                <name>Trackpoint 5381</name>
            </trkpt>
            <trkpt lat="50.0880864" lon="8.6216152">
                <ele>90.0</ele>
                <time>2020-08-30T12:39:50.000Z</time>
                <name>Trackpoint 5382</name>
            </trkpt>
            <trkpt lat="50.0880928" lon="8.6214712">
                <ele>89.0</ele>
                <time>2020-08-30T12:39:52.000Z</time>
                <name>Trackpoint 5383</name>
            </trkpt>
            <trkpt lat="50.088112" lon="8.6213216">
                <ele>89.0</ele>
                <time>2020-08-30T12:39:54.000Z</time>
                <name>Trackpoint 5384</name>
            </trkpt>
            <trkpt lat="50.0881376" lon="8.6211592">
                <ele>88.0</ele>
                <time>2020-08-30T12:39:56.000Z</time>
                <name>Trackpoint 5385</name>
            </trkpt>
            <trkpt lat="50.0881568" lon="8.6209936">
                <ele>89.0</ele>
                <time>2020-08-30T12:39:58.000Z</time>
                <name>Trackpoint 5386</name>
            </trkpt>
            <trkpt lat="50.0881664" lon="8.6209032">
                <ele>89.0</ele>
                <time>2020-08-30T12:39:59.000Z</time>
                <name>Trackpoint 5387</name>
            </trkpt>
            <trkpt lat="50.088176" lon="8.62072">
                <ele>89.0</ele>
                <time>2020-08-30T12:40:01.000Z</time>
                <name>Trackpoint 5388</name>
            </trkpt>
            <trkpt lat="50.0881888" lon="8.6205528">
                <ele>90.0</ele>
                <time>2020-08-30T12:40:03.000Z</time>
                <name>Trackpoint 5389</name>
            </trkpt>
            <trkpt lat="50.0881952" lon="8.6204096">
                <ele>90.0</ele>
                <time>2020-08-30T12:40:05.000Z</time>
                <name>Trackpoint 5390</name>
            </trkpt>
            <trkpt lat="50.0882048" lon="8.6202488">
                <ele>90.0</ele>
                <time>2020-08-30T12:40:07.000Z</time>
                <name>Trackpoint 5391</name>
            </trkpt>
            <trkpt lat="50.0882112" lon="8.6200912">
                <ele>90.0</ele>
                <time>2020-08-30T12:40:09.000Z</time>
                <name>Trackpoint 5392</name>
            </trkpt>
            <trkpt lat="50.0882176" lon="8.6199304">
                <ele>90.0</ele>
                <time>2020-08-30T12:40:11.000Z</time>
                <name>Trackpoint 5393</name>
            </trkpt>
            <trkpt lat="50.0882304" lon="8.6197656">
                <ele>89.0</ele>
                <time>2020-08-30T12:40:13.000Z</time>
                <name>Trackpoint 5394</name>
            </trkpt>
            <trkpt lat="50.0882368" lon="8.6195968">
                <ele>90.0</ele>
                <time>2020-08-30T12:40:15.000Z</time>
                <name>Trackpoint 5395</name>
            </trkpt>
            <trkpt lat="50.08824" lon="8.6195048">
                <ele>90.0</ele>
                <time>2020-08-30T12:40:16.000Z</time>
                <name>Trackpoint 5396</name>
            </trkpt>
            <trkpt lat="50.08824" lon="8.6193288">
                <ele>90.0</ele>
                <time>2020-08-30T12:40:18.000Z</time>
                <name>Trackpoint 5397</name>
            </trkpt>
            <trkpt lat="50.0882496" lon="8.6192232">
                <ele>90.0</ele>
                <time>2020-08-30T12:40:19.000Z</time>
                <name>Trackpoint 5398</name>
            </trkpt>
            <trkpt lat="50.0882528" lon="8.6191232">
                <ele>90.0</ele>
                <time>2020-08-30T12:40:20.000Z</time>
                <name>Trackpoint 5399</name>
            </trkpt>
            <trkpt lat="50.0882528" lon="8.6190272">
                <ele>90.0</ele>
                <time>2020-08-30T12:40:21.000Z</time>
                <name>Trackpoint 5400</name>
            </trkpt>
            <trkpt lat="50.0882592" lon="8.6188568">
                <ele>90.0</ele>
                <time>2020-08-30T12:40:23.000Z</time>
                <name>Trackpoint 5401</name>
            </trkpt>
            <trkpt lat="50.0882688" lon="8.6186984">
                <ele>90.0</ele>
                <time>2020-08-30T12:40:25.000Z</time>
                <name>Trackpoint 5402</name>
            </trkpt>
            <trkpt lat="50.0882752" lon="8.6185248">
                <ele>90.0</ele>
                <time>2020-08-30T12:40:27.000Z</time>
                <name>Trackpoint 5403</name>
            </trkpt>
            <trkpt lat="50.088288" lon="8.618372">
                <ele>90.0</ele>
                <time>2020-08-30T12:40:29.000Z</time>
                <name>Trackpoint 5404</name>
            </trkpt>
            <trkpt lat="50.0882976" lon="8.6182536">
                <ele>90.0</ele>
                <time>2020-08-30T12:40:31.000Z</time>
                <name>Trackpoint 5405</name>
            </trkpt>
            <trkpt lat="50.0883072" lon="8.6181088">
                <ele>90.0</ele>
                <time>2020-08-30T12:40:33.000Z</time>
                <name>Trackpoint 5406</name>
            </trkpt>
            <trkpt lat="50.0883232" lon="8.6179832">
                <ele>90.0</ele>
                <time>2020-08-30T12:40:35.000Z</time>
                <name>Trackpoint 5407</name>
            </trkpt>
            <trkpt lat="50.0883264" lon="8.617844">
                <ele>90.0</ele>
                <time>2020-08-30T12:40:37.000Z</time>
                <name>Trackpoint 5408</name>
            </trkpt>
            <trkpt lat="50.0883072" lon="8.6177216">
                <ele>90.0</ele>
                <time>2020-08-30T12:40:39.000Z</time>
                <name>Trackpoint 5409</name>
            </trkpt>
            <trkpt lat="50.0882688" lon="8.6176232">
                <ele>90.0</ele>
                <time>2020-08-30T12:40:42.000Z</time>
                <name>Trackpoint 5410</name>
            </trkpt>
            <trkpt lat="50.0882464" lon="8.6175272">
                <ele>90.0</ele>
                <time>2020-08-30T12:40:50.000Z</time>
                <name>Trackpoint 5411</name>
            </trkpt>
            <trkpt lat="50.0882688" lon="8.6174296">
                <ele>90.0</ele>
                <time>2020-08-30T12:40:56.000Z</time>
                <name>Trackpoint 5412</name>
            </trkpt>
            <trkpt lat="50.0883232" lon="8.6173552">
                <ele>90.0</ele>
                <time>2020-08-30T12:41:09.000Z</time>
                <name>Trackpoint 5413</name>
            </trkpt>
            <trkpt lat="50.0883072" lon="8.61726">
                <ele>91.0</ele>
                <time>2020-08-30T12:41:37.000Z</time>
                <name>Trackpoint 5414</name>
            </trkpt>
            <trkpt lat="50.0883392" lon="8.617356">
                <ele>91.0</ele>
                <time>2020-08-30T12:43:18.000Z</time>
                <name>Trackpoint 5415</name>
            </trkpt>
            <trkpt lat="50.0883232" lon="8.6172664">
                <ele>92.0</ele>
                <time>2020-08-30T12:43:30.000Z</time>
                <name>Trackpoint 5416</name>
            </trkpt>
            <trkpt lat="50.0883392" lon="8.6173624">
                <ele>92.0</ele>
                <time>2020-08-30T12:43:48.000Z</time>
                <name>Trackpoint 5417</name>
            </trkpt>
            <trkpt lat="50.0883904" lon="8.61744">
                <ele>92.0</ele>
                <time>2020-08-30T12:43:57.000Z</time>
                <name>Trackpoint 5418</name>
            </trkpt>
            <trkpt lat="50.088464" lon="8.6173824">
                <ele>92.0</ele>
                <time>2020-08-30T12:47:04.000Z</time>
                <name>Trackpoint 5419</name>
            </trkpt>
            <trkpt lat="50.0885216" lon="8.6172952">
                <ele>92.0</ele>
                <time>2020-08-30T12:47:07.000Z</time>
                <name>Trackpoint 5420</name>
            </trkpt>
            <trkpt lat="50.0885568" lon="8.6171968">
                <ele>92.0</ele>
                <time>2020-08-30T12:47:09.000Z</time>
                <name>Trackpoint 5421</name>
            </trkpt>
            <trkpt lat="50.0885728" lon="8.6170128">
                <ele>92.0</ele>
                <time>2020-08-30T12:47:11.000Z</time>
                <name>Trackpoint 5422</name>
            </trkpt>
            <trkpt lat="50.0885824" lon="8.6168832">
                <ele>92.0</ele>
                <time>2020-08-30T12:47:13.000Z</time>
                <name>Trackpoint 5423</name>
            </trkpt>
            <trkpt lat="50.0885856" lon="8.616792">
                <ele>92.0</ele>
                <time>2020-08-30T12:47:14.000Z</time>
                <name>Trackpoint 5424</name>
            </trkpt>
            <trkpt lat="50.0886016" lon="8.6167">
                <ele>92.0</ele>
                <time>2020-08-30T12:47:15.000Z</time>
                <name>Trackpoint 5425</name>
            </trkpt>
            <trkpt lat="50.0886112" lon="8.61654">
                <ele>92.0</ele>
                <time>2020-08-30T12:47:17.000Z</time>
                <name>Trackpoint 5426</name>
            </trkpt>
            <trkpt lat="50.0886208" lon="8.6163832">
                <ele>92.0</ele>
                <time>2020-08-30T12:47:19.000Z</time>
                <name>Trackpoint 5427</name>
            </trkpt>
            <trkpt lat="50.0886112" lon="8.6162432">
                <ele>92.0</ele>
                <time>2020-08-30T12:47:21.000Z</time>
                <name>Trackpoint 5428</name>
            </trkpt>
            <trkpt lat="50.0886144" lon="8.6161032">
                <ele>92.0</ele>
                <time>2020-08-30T12:47:23.000Z</time>
                <name>Trackpoint 5429</name>
            </trkpt>
            <trkpt lat="50.0886272" lon="8.6159448">
                <ele>92.0</ele>
                <time>2020-08-30T12:47:25.000Z</time>
                <name>Trackpoint 5430</name>
            </trkpt>
            <trkpt lat="50.0886304" lon="8.6157976">
                <ele>91.0</ele>
                <time>2020-08-30T12:47:27.000Z</time>
                <name>Trackpoint 5431</name>
            </trkpt>
            <trkpt lat="50.0886336" lon="8.6156552">
                <ele>91.0</ele>
                <time>2020-08-30T12:47:29.000Z</time>
                <name>Trackpoint 5432</name>
            </trkpt>
            <trkpt lat="50.0886336" lon="8.6155144">
                <ele>91.0</ele>
                <time>2020-08-30T12:47:31.000Z</time>
                <name>Trackpoint 5433</name>
            </trkpt>
            <trkpt lat="50.0886272" lon="8.6153816">
                <ele>91.0</ele>
                <time>2020-08-30T12:47:33.000Z</time>
                <name>Trackpoint 5434</name>
            </trkpt>
            <trkpt lat="50.0886272" lon="8.61524">
                <ele>91.0</ele>
                <time>2020-08-30T12:47:35.000Z</time>
                <name>Trackpoint 5435</name>
            </trkpt>
            <trkpt lat="50.0886272" lon="8.6150912">
                <ele>91.0</ele>
                <time>2020-08-30T12:47:37.000Z</time>
                <name>Trackpoint 5436</name>
            </trkpt>
            <trkpt lat="50.0886208" lon="8.614948">
                <ele>92.0</ele>
                <time>2020-08-30T12:47:39.000Z</time>
                <name>Trackpoint 5437</name>
            </trkpt>
            <trkpt lat="50.088608" lon="8.6148032">
                <ele>92.0</ele>
                <time>2020-08-30T12:47:41.000Z</time>
                <name>Trackpoint 5438</name>
            </trkpt>
            <trkpt lat="50.0886016" lon="8.6146536">
                <ele>92.0</ele>
                <time>2020-08-30T12:47:43.000Z</time>
                <name>Trackpoint 5439</name>
            </trkpt>
            <trkpt lat="50.0885952" lon="8.6144816">
                <ele>92.0</ele>
                <time>2020-08-30T12:47:45.000Z</time>
                <name>Trackpoint 5440</name>
            </trkpt>
            <trkpt lat="50.088592" lon="8.6143912">
                <ele>92.0</ele>
                <time>2020-08-30T12:47:46.000Z</time>
                <name>Trackpoint 5441</name>
            </trkpt>
            <trkpt lat="50.0885888" lon="8.6142128">
                <ele>92.0</ele>
                <time>2020-08-30T12:47:48.000Z</time>
                <name>Trackpoint 5442</name>
            </trkpt>
            <trkpt lat="50.0885856" lon="8.6141216">
                <ele>92.0</ele>
                <time>2020-08-30T12:47:49.000Z</time>
                <name>Trackpoint 5443</name>
            </trkpt>
            <trkpt lat="50.0885856" lon="8.6140272">
                <ele>92.0</ele>
                <time>2020-08-30T12:47:50.000Z</time>
                <name>Trackpoint 5444</name>
            </trkpt>
            <trkpt lat="50.0885824" lon="8.613932">
                <ele>92.0</ele>
                <time>2020-08-30T12:47:51.000Z</time>
                <name>Trackpoint 5445</name>
            </trkpt>
            <trkpt lat="50.0885824" lon="8.613836">
                <ele>92.0</ele>
                <time>2020-08-30T12:47:52.000Z</time>
                <name>Trackpoint 5446</name>
            </trkpt>
            <trkpt lat="50.0885824" lon="8.6137448">
                <ele>92.0</ele>
                <time>2020-08-30T12:47:53.000Z</time>
                <name>Trackpoint 5447</name>
            </trkpt>
            <trkpt lat="50.088576" lon="8.6135616">
                <ele>92.0</ele>
                <time>2020-08-30T12:47:55.000Z</time>
                <name>Trackpoint 5448</name>
            </trkpt>
            <trkpt lat="50.0885728" lon="8.613468">
                <ele>91.0</ele>
                <time>2020-08-30T12:47:56.000Z</time>
                <name>Trackpoint 5449</name>
            </trkpt>
            <trkpt lat="50.0885664" lon="8.6132872">
                <ele>91.0</ele>
                <time>2020-08-30T12:47:58.000Z</time>
                <name>Trackpoint 5450</name>
            </trkpt>
            <trkpt lat="50.0885632" lon="8.613192">
                <ele>91.0</ele>
                <time>2020-08-30T12:47:59.000Z</time>
                <name>Trackpoint 5451</name>
            </trkpt>
            <trkpt lat="50.0885568" lon="8.6130104">
                <ele>91.0</ele>
                <time>2020-08-30T12:48:01.000Z</time>
                <name>Trackpoint 5452</name>
            </trkpt>
            <trkpt lat="50.0885536" lon="8.6129152">
                <ele>91.0</ele>
                <time>2020-08-30T12:48:02.000Z</time>
                <name>Trackpoint 5453</name>
            </trkpt>
            <trkpt lat="50.0885504" lon="8.6128216">
                <ele>91.0</ele>
                <time>2020-08-30T12:48:03.000Z</time>
                <name>Trackpoint 5454</name>
            </trkpt>
            <trkpt lat="50.0885472" lon="8.6127216">
                <ele>91.0</ele>
                <time>2020-08-30T12:48:04.000Z</time>
                <name>Trackpoint 5455</name>
            </trkpt>
            <trkpt lat="50.0885344" lon="8.6126136">
                <ele>91.0</ele>
                <time>2020-08-30T12:48:05.000Z</time>
                <name>Trackpoint 5456</name>
            </trkpt>
            <trkpt lat="50.0885312" lon="8.6125096">
                <ele>91.0</ele>
                <time>2020-08-30T12:48:06.000Z</time>
                <name>Trackpoint 5457</name>
            </trkpt>
            <trkpt lat="50.0885216" lon="8.6123248">
                <ele>91.0</ele>
                <time>2020-08-30T12:48:08.000Z</time>
                <name>Trackpoint 5458</name>
            </trkpt>
            <trkpt lat="50.0885088" lon="8.61216">
                <ele>91.0</ele>
                <time>2020-08-30T12:48:10.000Z</time>
                <name>Trackpoint 5459</name>
            </trkpt>
            <trkpt lat="50.0884832" lon="8.6119816">
                <ele>91.0</ele>
                <time>2020-08-30T12:48:12.000Z</time>
                <name>Trackpoint 5460</name>
            </trkpt>
            <trkpt lat="50.088464" lon="8.6118048">
                <ele>91.0</ele>
                <time>2020-08-30T12:48:14.000Z</time>
                <name>Trackpoint 5461</name>
            </trkpt>
            <trkpt lat="50.0884544" lon="8.6116312">
                <ele>91.0</ele>
                <time>2020-08-30T12:48:16.000Z</time>
                <name>Trackpoint 5462</name>
            </trkpt>
            <trkpt lat="50.0884352" lon="8.6114552">
                <ele>91.0</ele>
                <time>2020-08-30T12:48:18.000Z</time>
                <name>Trackpoint 5463</name>
            </trkpt>
            <trkpt lat="50.0884128" lon="8.611292">
                <ele>91.0</ele>
                <time>2020-08-30T12:48:20.000Z</time>
                <name>Trackpoint 5464</name>
            </trkpt>
            <trkpt lat="50.0884032" lon="8.6112">
                <ele>91.0</ele>
                <time>2020-08-30T12:48:21.000Z</time>
                <name>Trackpoint 5465</name>
            </trkpt>
            <trkpt lat="50.0883904" lon="8.6111096">
                <ele>91.0</ele>
                <time>2020-08-30T12:48:22.000Z</time>
                <name>Trackpoint 5466</name>
            </trkpt>
            <trkpt lat="50.0883744" lon="8.61096">
                <ele>91.0</ele>
                <time>2020-08-30T12:48:24.000Z</time>
                <name>Trackpoint 5467</name>
            </trkpt>
            <trkpt lat="50.0883488" lon="8.6107976">
                <ele>91.0</ele>
                <time>2020-08-30T12:48:26.000Z</time>
                <name>Trackpoint 5468</name>
            </trkpt>
            <trkpt lat="50.0883296" lon="8.6106456">
                <ele>91.0</ele>
                <time>2020-08-30T12:48:28.000Z</time>
                <name>Trackpoint 5469</name>
            </trkpt>
            <trkpt lat="50.0883104" lon="8.610488">
                <ele>91.0</ele>
                <time>2020-08-30T12:48:30.000Z</time>
                <name>Trackpoint 5470</name>
            </trkpt>
            <trkpt lat="50.0882912" lon="8.6103216">
                <ele>91.0</ele>
                <time>2020-08-30T12:48:32.000Z</time>
                <name>Trackpoint 5471</name>
            </trkpt>
            <trkpt lat="50.0882592" lon="8.6101504">
                <ele>90.0</ele>
                <time>2020-08-30T12:48:34.000Z</time>
                <name>Trackpoint 5472</name>
            </trkpt>
            <trkpt lat="50.08824" lon="8.610052">
                <ele>90.0</ele>
                <time>2020-08-30T12:48:35.000Z</time>
                <name>Trackpoint 5473</name>
            </trkpt>
            <trkpt lat="50.0882272" lon="8.6099584">
                <ele>91.0</ele>
                <time>2020-08-30T12:48:36.000Z</time>
                <name>Trackpoint 5474</name>
            </trkpt>
            <trkpt lat="50.0882112" lon="8.6098616">
                <ele>91.0</ele>
                <time>2020-08-30T12:48:37.000Z</time>
                <name>Trackpoint 5475</name>
            </trkpt>
            <trkpt lat="50.0881984" lon="8.6097672">
                <ele>91.0</ele>
                <time>2020-08-30T12:48:38.000Z</time>
                <name>Trackpoint 5476</name>
            </trkpt>
            <trkpt lat="50.0881888" lon="8.6096712">
                <ele>91.0</ele>
                <time>2020-08-30T12:48:39.000Z</time>
                <name>Trackpoint 5477</name>
            </trkpt>
            <trkpt lat="50.088176" lon="8.6095016">
                <ele>91.0</ele>
                <time>2020-08-30T12:48:41.000Z</time>
                <name>Trackpoint 5478</name>
            </trkpt>
            <trkpt lat="50.088176" lon="8.6094104">
                <ele>91.0</ele>
                <time>2020-08-30T12:48:42.000Z</time>
                <name>Trackpoint 5479</name>
            </trkpt>
            <trkpt lat="50.0881696" lon="8.6093184">
                <ele>91.0</ele>
                <time>2020-08-30T12:48:43.000Z</time>
                <name>Trackpoint 5480</name>
            </trkpt>
            <trkpt lat="50.08816" lon="8.609228">
                <ele>91.0</ele>
                <time>2020-08-30T12:48:44.000Z</time>
                <name>Trackpoint 5481</name>
            </trkpt>
            <trkpt lat="50.0881504" lon="8.6091368">
                <ele>90.0</ele>
                <time>2020-08-30T12:48:45.000Z</time>
                <name>Trackpoint 5482</name>
            </trkpt>
            <trkpt lat="50.0881472" lon="8.6089624">
                <ele>90.0</ele>
                <time>2020-08-30T12:48:47.000Z</time>
                <name>Trackpoint 5483</name>
            </trkpt>
            <trkpt lat="50.0881504" lon="8.6088688">
                <ele>90.0</ele>
                <time>2020-08-30T12:48:48.000Z</time>
                <name>Trackpoint 5484</name>
            </trkpt>
            <trkpt lat="50.0881568" lon="8.6087768">
                <ele>90.0</ele>
                <time>2020-08-30T12:48:49.000Z</time>
                <name>Trackpoint 5485</name>
            </trkpt>
            <trkpt lat="50.0881664" lon="8.60868">
                <ele>90.0</ele>
                <time>2020-08-30T12:48:50.000Z</time>
                <name>Trackpoint 5486</name>
            </trkpt>
            <trkpt lat="50.0881664" lon="8.608588">
                <ele>90.0</ele>
                <time>2020-08-30T12:48:51.000Z</time>
                <name>Trackpoint 5487</name>
            </trkpt>
            <trkpt lat="50.0881664" lon="8.6084968">
                <ele>90.0</ele>
                <time>2020-08-30T12:48:52.000Z</time>
                <name>Trackpoint 5488</name>
            </trkpt>
            <trkpt lat="50.08816" lon="8.6084032">
                <ele>90.0</ele>
                <time>2020-08-30T12:48:53.000Z</time>
                <name>Trackpoint 5489</name>
            </trkpt>
            <trkpt lat="50.0881568" lon="8.6083048">
                <ele>90.0</ele>
                <time>2020-08-30T12:48:54.000Z</time>
                <name>Trackpoint 5490</name>
            </trkpt>
            <trkpt lat="50.0881504" lon="8.6082064">
                <ele>90.0</ele>
                <time>2020-08-30T12:48:55.000Z</time>
                <name>Trackpoint 5491</name>
            </trkpt>
            <trkpt lat="50.0881472" lon="8.6081112">
                <ele>90.0</ele>
                <time>2020-08-30T12:48:56.000Z</time>
                <name>Trackpoint 5492</name>
            </trkpt>
            <trkpt lat="50.0881344" lon="8.6080176">
                <ele>90.0</ele>
                <time>2020-08-30T12:48:57.000Z</time>
                <name>Trackpoint 5493</name>
            </trkpt>
            <trkpt lat="50.0881312" lon="8.6079264">
                <ele>90.0</ele>
                <time>2020-08-30T12:48:58.000Z</time>
                <name>Trackpoint 5494</name>
            </trkpt>
            <trkpt lat="50.0881152" lon="8.6077408">
                <ele>90.0</ele>
                <time>2020-08-30T12:49:00.000Z</time>
                <name>Trackpoint 5495</name>
            </trkpt>
            <trkpt lat="50.0881088" lon="8.6076472">
                <ele>90.0</ele>
                <time>2020-08-30T12:49:01.000Z</time>
                <name>Trackpoint 5496</name>
            </trkpt>
            <trkpt lat="50.0881056" lon="8.6075536">
                <ele>90.0</ele>
                <time>2020-08-30T12:49:02.000Z</time>
                <name>Trackpoint 5497</name>
            </trkpt>
            <trkpt lat="50.0880896" lon="8.6073768">
                <ele>90.0</ele>
                <time>2020-08-30T12:49:04.000Z</time>
                <name>Trackpoint 5498</name>
            </trkpt>
            <trkpt lat="50.0880736" lon="8.6072832">
                <ele>90.0</ele>
                <time>2020-08-30T12:49:05.000Z</time>
                <name>Trackpoint 5499</name>
            </trkpt>
            <trkpt lat="50.0880704" lon="8.6071928">
                <ele>90.0</ele>
                <time>2020-08-30T12:49:06.000Z</time>
                <name>Trackpoint 5500</name>
            </trkpt>
            <trkpt lat="50.0880608" lon="8.6070984">
                <ele>90.0</ele>
                <time>2020-08-30T12:49:07.000Z</time>
                <name>Trackpoint 5501</name>
            </trkpt>
            <trkpt lat="50.0880576" lon="8.6070032">
                <ele>91.0</ele>
                <time>2020-08-30T12:49:08.000Z</time>
                <name>Trackpoint 5502</name>
            </trkpt>
            <trkpt lat="50.088048" lon="8.606912">
                <ele>91.0</ele>
                <time>2020-08-30T12:49:09.000Z</time>
                <name>Trackpoint 5503</name>
            </trkpt>
            <trkpt lat="50.0880448" lon="8.6067536">
                <ele>91.0</ele>
                <time>2020-08-30T12:49:11.000Z</time>
                <name>Trackpoint 5504</name>
            </trkpt>
            <trkpt lat="50.0880384" lon="8.6065816">
                <ele>91.0</ele>
                <time>2020-08-30T12:49:13.000Z</time>
                <name>Trackpoint 5505</name>
            </trkpt>
            <trkpt lat="50.0880448" lon="8.6064384">
                <ele>91.0</ele>
                <time>2020-08-30T12:49:15.000Z</time>
                <name>Trackpoint 5506</name>
            </trkpt>
            <trkpt lat="50.0880352" lon="8.6063032">
                <ele>91.0</ele>
                <time>2020-08-30T12:49:17.000Z</time>
                <name>Trackpoint 5507</name>
            </trkpt>
            <trkpt lat="50.0880384" lon="8.6061688">
                <ele>91.0</ele>
                <time>2020-08-30T12:49:19.000Z</time>
                <name>Trackpoint 5508</name>
            </trkpt>
            <trkpt lat="50.0880512" lon="8.6060584">
                <ele>91.0</ele>
                <time>2020-08-30T12:49:21.000Z</time>
                <name>Trackpoint 5509</name>
            </trkpt>
            <trkpt lat="50.0880544" lon="8.6059576">
                <ele>91.0</ele>
                <time>2020-08-30T12:49:23.000Z</time>
                <name>Trackpoint 5510</name>
            </trkpt>
            <trkpt lat="50.0880512" lon="8.6058216">
                <ele>90.0</ele>
                <time>2020-08-30T12:49:25.000Z</time>
                <name>Trackpoint 5511</name>
            </trkpt>
            <trkpt lat="50.088048" lon="8.6056656">
                <ele>90.0</ele>
                <time>2020-08-30T12:49:27.000Z</time>
                <name>Trackpoint 5512</name>
            </trkpt>
            <trkpt lat="50.0880352" lon="8.6055072">
                <ele>90.0</ele>
                <time>2020-08-30T12:49:29.000Z</time>
                <name>Trackpoint 5513</name>
            </trkpt>
            <trkpt lat="50.088016" lon="8.6053368">
                <ele>90.0</ele>
                <time>2020-08-30T12:49:31.000Z</time>
                <name>Trackpoint 5514</name>
            </trkpt>
            <trkpt lat="50.0880064" lon="8.605168">
                <ele>90.0</ele>
                <time>2020-08-30T12:49:33.000Z</time>
                <name>Trackpoint 5515</name>
            </trkpt>
            <trkpt lat="50.0879904" lon="8.6049904">
                <ele>90.0</ele>
                <time>2020-08-30T12:49:35.000Z</time>
                <name>Trackpoint 5516</name>
            </trkpt>
            <trkpt lat="50.0879872" lon="8.6049">
                <ele>90.0</ele>
                <time>2020-08-30T12:49:36.000Z</time>
                <name>Trackpoint 5517</name>
            </trkpt>
            <trkpt lat="50.0879776" lon="8.6047032">
                <ele>90.0</ele>
                <time>2020-08-30T12:49:38.000Z</time>
                <name>Trackpoint 5518</name>
            </trkpt>
            <trkpt lat="50.0879744" lon="8.6045352">
                <ele>90.0</ele>
                <time>2020-08-30T12:49:40.000Z</time>
                <name>Trackpoint 5519</name>
            </trkpt>
            <trkpt lat="50.0879712" lon="8.6043632">
                <ele>90.0</ele>
                <time>2020-08-30T12:49:42.000Z</time>
                <name>Trackpoint 5520</name>
            </trkpt>
            <trkpt lat="50.087968" lon="8.604188">
                <ele>90.0</ele>
                <time>2020-08-30T12:49:44.000Z</time>
                <name>Trackpoint 5521</name>
            </trkpt>
            <trkpt lat="50.087968" lon="8.6040312">
                <ele>90.0</ele>
                <time>2020-08-30T12:49:46.000Z</time>
                <name>Trackpoint 5522</name>
            </trkpt>
            <trkpt lat="50.0879776" lon="8.6038736">
                <ele>90.0</ele>
                <time>2020-08-30T12:49:48.000Z</time>
                <name>Trackpoint 5523</name>
            </trkpt>
            <trkpt lat="50.0879776" lon="8.6037232">
                <ele>90.0</ele>
                <time>2020-08-30T12:49:50.000Z</time>
                <name>Trackpoint 5524</name>
            </trkpt>
            <trkpt lat="50.087968" lon="8.603552">
                <ele>90.0</ele>
                <time>2020-08-30T12:49:52.000Z</time>
                <name>Trackpoint 5525</name>
            </trkpt>
            <trkpt lat="50.0879776" lon="8.6033896">
                <ele>90.0</ele>
                <time>2020-08-30T12:49:54.000Z</time>
                <name>Trackpoint 5526</name>
            </trkpt>
            <trkpt lat="50.0879776" lon="8.60324">
                <ele>90.0</ele>
                <time>2020-08-30T12:49:56.000Z</time>
                <name>Trackpoint 5527</name>
            </trkpt>
            <trkpt lat="50.0879744" lon="8.6030752">
                <ele>90.0</ele>
                <time>2020-08-30T12:49:58.000Z</time>
                <name>Trackpoint 5528</name>
            </trkpt>
            <trkpt lat="50.0879744" lon="8.602968">
                <ele>90.0</ele>
                <time>2020-08-30T12:49:59.000Z</time>
                <name>Trackpoint 5529</name>
            </trkpt>
            <trkpt lat="50.0879776" lon="8.6028072">
                <ele>90.0</ele>
                <time>2020-08-30T12:50:01.000Z</time>
                <name>Trackpoint 5530</name>
            </trkpt>
            <trkpt lat="50.0879872" lon="8.6026432">
                <ele>90.0</ele>
                <time>2020-08-30T12:50:03.000Z</time>
                <name>Trackpoint 5531</name>
            </trkpt>
            <trkpt lat="50.0880064" lon="8.6025">
                <ele>90.0</ele>
                <time>2020-08-30T12:50:05.000Z</time>
                <name>Trackpoint 5532</name>
            </trkpt>
            <trkpt lat="50.0880064" lon="8.6023768">
                <ele>91.0</ele>
                <time>2020-08-30T12:50:07.000Z</time>
                <name>Trackpoint 5533</name>
            </trkpt>
            <trkpt lat="50.0880064" lon="8.6022032">
                <ele>91.0</ele>
                <time>2020-08-30T12:50:09.000Z</time>
                <name>Trackpoint 5534</name>
            </trkpt>
            <trkpt lat="50.088" lon="8.6020296">
                <ele>91.0</ele>
                <time>2020-08-30T12:50:11.000Z</time>
                <name>Trackpoint 5535</name>
            </trkpt>
            <trkpt lat="50.088" lon="8.6019336">
                <ele>91.0</ele>
                <time>2020-08-30T12:50:12.000Z</time>
                <name>Trackpoint 5536</name>
            </trkpt>
            <trkpt lat="50.0879968" lon="8.6018384">
                <ele>91.0</ele>
                <time>2020-08-30T12:50:13.000Z</time>
                <name>Trackpoint 5537</name>
            </trkpt>
            <trkpt lat="50.0879936" lon="8.601684">
                <ele>91.0</ele>
                <time>2020-08-30T12:50:15.000Z</time>
                <name>Trackpoint 5538</name>
            </trkpt>
            <trkpt lat="50.0879936" lon="8.6015928">
                <ele>91.0</ele>
                <time>2020-08-30T12:50:16.000Z</time>
                <name>Trackpoint 5539</name>
            </trkpt>
            <trkpt lat="50.0879904" lon="8.6014248">
                <ele>91.0</ele>
                <time>2020-08-30T12:50:18.000Z</time>
                <name>Trackpoint 5540</name>
            </trkpt>
            <trkpt lat="50.0879904" lon="8.6012424">
                <ele>91.0</ele>
                <time>2020-08-30T12:50:20.000Z</time>
                <name>Trackpoint 5541</name>
            </trkpt>
            <trkpt lat="50.0879904" lon="8.60114">
                <ele>91.0</ele>
                <time>2020-08-30T12:50:21.000Z</time>
                <name>Trackpoint 5542</name>
            </trkpt>
            <trkpt lat="50.0879904" lon="8.60104">
                <ele>91.0</ele>
                <time>2020-08-30T12:50:22.000Z</time>
                <name>Trackpoint 5543</name>
            </trkpt>
            <trkpt lat="50.0879808" lon="8.6009016">
                <ele>92.0</ele>
                <time>2020-08-30T12:50:24.000Z</time>
                <name>Trackpoint 5544</name>
            </trkpt>
            <trkpt lat="50.0879744" lon="8.6007336">
                <ele>92.0</ele>
                <time>2020-08-30T12:50:26.000Z</time>
                <name>Trackpoint 5545</name>
            </trkpt>
            <trkpt lat="50.0879712" lon="8.6005672">
                <ele>92.0</ele>
                <time>2020-08-30T12:50:28.000Z</time>
                <name>Trackpoint 5546</name>
            </trkpt>
            <trkpt lat="50.087968" lon="8.6004712">
                <ele>92.0</ele>
                <time>2020-08-30T12:50:29.000Z</time>
                <name>Trackpoint 5547</name>
            </trkpt>
            <trkpt lat="50.0879616" lon="8.60038">
                <ele>92.0</ele>
                <time>2020-08-30T12:50:30.000Z</time>
                <name>Trackpoint 5548</name>
            </trkpt>
            <trkpt lat="50.0879584" lon="8.600288">
                <ele>92.0</ele>
                <time>2020-08-30T12:50:31.000Z</time>
                <name>Trackpoint 5549</name>
            </trkpt>
            <trkpt lat="50.0879584" lon="8.6001968">
                <ele>92.0</ele>
                <time>2020-08-30T12:50:32.000Z</time>
                <name>Trackpoint 5550</name>
            </trkpt>
            <trkpt lat="50.0879616" lon="8.6001064">
                <ele>92.0</ele>
                <time>2020-08-30T12:50:33.000Z</time>
                <name>Trackpoint 5551</name>
            </trkpt>
            <trkpt lat="50.0879616" lon="8.6000096">
                <ele>92.0</ele>
                <time>2020-08-30T12:50:34.000Z</time>
                <name>Trackpoint 5552</name>
            </trkpt>
            <trkpt lat="50.0879616" lon="8.5999144">
                <ele>92.0</ele>
                <time>2020-08-30T12:50:35.000Z</time>
                <name>Trackpoint 5553</name>
            </trkpt>
            <trkpt lat="50.0879616" lon="8.5997352">
                <ele>92.0</ele>
                <time>2020-08-30T12:50:37.000Z</time>
                <name>Trackpoint 5554</name>
            </trkpt>
            <trkpt lat="50.0879584" lon="8.5996448">
                <ele>92.0</ele>
                <time>2020-08-30T12:50:38.000Z</time>
                <name>Trackpoint 5555</name>
            </trkpt>
            <trkpt lat="50.087952" lon="8.5995432">
                <ele>93.0</ele>
                <time>2020-08-30T12:50:39.000Z</time>
                <name>Trackpoint 5556</name>
            </trkpt>
            <trkpt lat="50.087952" lon="8.5994464">
                <ele>93.0</ele>
                <time>2020-08-30T12:50:40.000Z</time>
                <name>Trackpoint 5557</name>
            </trkpt>
            <trkpt lat="50.0879552" lon="8.599348">
                <ele>93.0</ele>
                <time>2020-08-30T12:50:41.000Z</time>
                <name>Trackpoint 5558</name>
            </trkpt>
            <trkpt lat="50.087952" lon="8.5992472">
                <ele>93.0</ele>
                <time>2020-08-30T12:50:42.000Z</time>
                <name>Trackpoint 5559</name>
            </trkpt>
            <trkpt lat="50.087952" lon="8.5991472">
                <ele>93.0</ele>
                <time>2020-08-30T12:50:43.000Z</time>
                <name>Trackpoint 5560</name>
            </trkpt>
            <trkpt lat="50.0879552" lon="8.5990496">
                <ele>93.0</ele>
                <time>2020-08-30T12:50:44.000Z</time>
                <name>Trackpoint 5561</name>
            </trkpt>
            <trkpt lat="50.0879552" lon="8.5988752">
                <ele>93.0</ele>
                <time>2020-08-30T12:50:46.000Z</time>
                <name>Trackpoint 5562</name>
            </trkpt>
            <trkpt lat="50.0879552" lon="8.5987832">
                <ele>93.0</ele>
                <time>2020-08-30T12:50:47.000Z</time>
                <name>Trackpoint 5563</name>
            </trkpt>
            <trkpt lat="50.0879392" lon="8.5986208">
                <ele>93.0</ele>
                <time>2020-08-30T12:50:49.000Z</time>
                <name>Trackpoint 5564</name>
            </trkpt>
            <trkpt lat="50.0879328" lon="8.5984472">
                <ele>93.0</ele>
                <time>2020-08-30T12:50:51.000Z</time>
                <name>Trackpoint 5565</name>
            </trkpt>
            <trkpt lat="50.0879296" lon="8.5982888">
                <ele>93.0</ele>
                <time>2020-08-30T12:50:53.000Z</time>
                <name>Trackpoint 5566</name>
            </trkpt>
            <trkpt lat="50.0879328" lon="8.5981168">
                <ele>93.0</ele>
                <time>2020-08-30T12:50:55.000Z</time>
                <name>Trackpoint 5567</name>
            </trkpt>
            <trkpt lat="50.0879328" lon="8.5980264">
                <ele>93.0</ele>
                <time>2020-08-30T12:50:56.000Z</time>
                <name>Trackpoint 5568</name>
            </trkpt>
            <trkpt lat="50.0879328" lon="8.5978432">
                <ele>93.0</ele>
                <time>2020-08-30T12:50:58.000Z</time>
                <name>Trackpoint 5569</name>
            </trkpt>
            <trkpt lat="50.087936" lon="8.597752">
                <ele>93.0</ele>
                <time>2020-08-30T12:50:59.000Z</time>
                <name>Trackpoint 5570</name>
            </trkpt>
            <trkpt lat="50.0879392" lon="8.5976536">
                <ele>93.0</ele>
                <time>2020-08-30T12:51:00.000Z</time>
                <name>Trackpoint 5571</name>
            </trkpt>
            <trkpt lat="50.0879392" lon="8.5974752">
                <ele>93.0</ele>
                <time>2020-08-30T12:51:02.000Z</time>
                <name>Trackpoint 5572</name>
            </trkpt>
            <trkpt lat="50.087936" lon="8.5972928">
                <ele>93.0</ele>
                <time>2020-08-30T12:51:04.000Z</time>
                <name>Trackpoint 5573</name>
            </trkpt>
            <trkpt lat="50.087936" lon="8.5971984">
                <ele>93.0</ele>
                <time>2020-08-30T12:51:05.000Z</time>
                <name>Trackpoint 5574</name>
            </trkpt>
            <trkpt lat="50.0879392" lon="8.597108">
                <ele>93.0</ele>
                <time>2020-08-30T12:51:06.000Z</time>
                <name>Trackpoint 5575</name>
            </trkpt>
            <trkpt lat="50.087936" lon="8.5969288">
                <ele>93.0</ele>
                <time>2020-08-30T12:51:08.000Z</time>
                <name>Trackpoint 5576</name>
            </trkpt>
            <trkpt lat="50.087936" lon="8.5968304">
                <ele>93.0</ele>
                <time>2020-08-30T12:51:09.000Z</time>
                <name>Trackpoint 5577</name>
            </trkpt>
            <trkpt lat="50.0879328" lon="8.5967352">
                <ele>93.0</ele>
                <time>2020-08-30T12:51:10.000Z</time>
                <name>Trackpoint 5578</name>
            </trkpt>
            <trkpt lat="50.0879328" lon="8.5966304">
                <ele>93.0</ele>
                <time>2020-08-30T12:51:11.000Z</time>
                <name>Trackpoint 5579</name>
            </trkpt>
            <trkpt lat="50.0879328" lon="8.5965368">
                <ele>93.0</ele>
                <time>2020-08-30T12:51:12.000Z</time>
                <name>Trackpoint 5580</name>
            </trkpt>
            <trkpt lat="50.0879296" lon="8.5964448">
                <ele>92.0</ele>
                <time>2020-08-30T12:51:13.000Z</time>
                <name>Trackpoint 5581</name>
            </trkpt>
            <trkpt lat="50.087936" lon="8.5962696">
                <ele>93.0</ele>
                <time>2020-08-30T12:51:15.000Z</time>
                <name>Trackpoint 5582</name>
            </trkpt>
            <trkpt lat="50.0879296" lon="8.5960888">
                <ele>93.0</ele>
                <time>2020-08-30T12:51:17.000Z</time>
                <name>Trackpoint 5583</name>
            </trkpt>
            <trkpt lat="50.0879264" lon="8.5959952">
                <ele>93.0</ele>
                <time>2020-08-30T12:51:18.000Z</time>
                <name>Trackpoint 5584</name>
            </trkpt>
            <trkpt lat="50.08792" lon="8.5959016">
                <ele>93.0</ele>
                <time>2020-08-30T12:51:19.000Z</time>
                <name>Trackpoint 5585</name>
            </trkpt>
            <trkpt lat="50.0879136" lon="8.595808">
                <ele>93.0</ele>
                <time>2020-08-30T12:51:20.000Z</time>
                <name>Trackpoint 5586</name>
            </trkpt>
            <trkpt lat="50.0879136" lon="8.5957144">
                <ele>93.0</ele>
                <time>2020-08-30T12:51:21.000Z</time>
                <name>Trackpoint 5587</name>
            </trkpt>
            <trkpt lat="50.0878976" lon="8.59554">
                <ele>93.0</ele>
                <time>2020-08-30T12:51:23.000Z</time>
                <name>Trackpoint 5588</name>
            </trkpt>
            <trkpt lat="50.0878912" lon="8.59536">
                <ele>93.0</ele>
                <time>2020-08-30T12:51:25.000Z</time>
                <name>Trackpoint 5589</name>
            </trkpt>
            <trkpt lat="50.0878784" lon="8.5951904">
                <ele>93.0</ele>
                <time>2020-08-30T12:51:27.000Z</time>
                <name>Trackpoint 5590</name>
            </trkpt>
            <trkpt lat="50.087872" lon="8.5950432">
                <ele>93.0</ele>
                <time>2020-08-30T12:51:29.000Z</time>
                <name>Trackpoint 5591</name>
            </trkpt>
            <trkpt lat="50.0878592" lon="8.5948632">
                <ele>93.0</ele>
                <time>2020-08-30T12:51:31.000Z</time>
                <name>Trackpoint 5592</name>
            </trkpt>
            <trkpt lat="50.0878624" lon="8.594684">
                <ele>93.0</ele>
                <time>2020-08-30T12:51:33.000Z</time>
                <name>Trackpoint 5593</name>
            </trkpt>
            <trkpt lat="50.087872" lon="8.5945184">
                <ele>93.0</ele>
                <time>2020-08-30T12:51:35.000Z</time>
                <name>Trackpoint 5594</name>
            </trkpt>
            <trkpt lat="50.0878752" lon="8.594368">
                <ele>93.0</ele>
                <time>2020-08-30T12:51:37.000Z</time>
                <name>Trackpoint 5595</name>
            </trkpt>
            <trkpt lat="50.087872" lon="8.5942184">
                <ele>93.0</ele>
                <time>2020-08-30T12:51:39.000Z</time>
                <name>Trackpoint 5596</name>
            </trkpt>
            <trkpt lat="50.0878624" lon="8.5940536">
                <ele>93.0</ele>
                <time>2020-08-30T12:51:41.000Z</time>
                <name>Trackpoint 5597</name>
            </trkpt>
            <trkpt lat="50.0878592" lon="8.5938968">
                <ele>93.0</ele>
                <time>2020-08-30T12:51:43.000Z</time>
                <name>Trackpoint 5598</name>
            </trkpt>
            <trkpt lat="50.087872" lon="8.5937704">
                <ele>92.0</ele>
                <time>2020-08-30T12:51:45.000Z</time>
                <name>Trackpoint 5599</name>
            </trkpt>
            <trkpt lat="50.0878752" lon="8.5936496">
                <ele>92.0</ele>
                <time>2020-08-30T12:51:47.000Z</time>
                <name>Trackpoint 5600</name>
            </trkpt>
            <trkpt lat="50.0878688" lon="8.593532">
                <ele>92.0</ele>
                <time>2020-08-30T12:51:48.000Z</time>
                <name>Trackpoint 5601</name>
            </trkpt>
            <trkpt lat="50.0878592" lon="8.593364">
                <ele>91.0</ele>
                <time>2020-08-30T12:51:50.000Z</time>
                <name>Trackpoint 5602</name>
            </trkpt>
            <trkpt lat="50.0878624" lon="8.59322">
                <ele>91.0</ele>
                <time>2020-08-30T12:51:52.000Z</time>
                <name>Trackpoint 5603</name>
            </trkpt>
            <trkpt lat="50.0878688" lon="8.593088">
                <ele>91.0</ele>
                <time>2020-08-30T12:51:54.000Z</time>
                <name>Trackpoint 5604</name>
            </trkpt>
            <trkpt lat="50.0878624" lon="8.5929968">
                <ele>91.0</ele>
                <time>2020-08-30T12:51:55.000Z</time>
                <name>Trackpoint 5605</name>
            </trkpt>
            <trkpt lat="50.0878624" lon="8.592892">
                <ele>90.0</ele>
                <time>2020-08-30T12:51:56.000Z</time>
                <name>Trackpoint 5606</name>
            </trkpt>
            <trkpt lat="50.0878624" lon="8.5927232">
                <ele>90.0</ele>
                <time>2020-08-30T12:51:58.000Z</time>
                <name>Trackpoint 5607</name>
            </trkpt>
            <trkpt lat="50.0878592" lon="8.5926248">
                <ele>90.0</ele>
                <time>2020-08-30T12:51:59.000Z</time>
                <name>Trackpoint 5608</name>
            </trkpt>
            <trkpt lat="50.087856" lon="8.5925216">
                <ele>90.0</ele>
                <time>2020-08-30T12:52:00.000Z</time>
                <name>Trackpoint 5609</name>
            </trkpt>
            <trkpt lat="50.0878496" lon="8.59242">
                <ele>90.0</ele>
                <time>2020-08-30T12:52:01.000Z</time>
                <name>Trackpoint 5610</name>
            </trkpt>
            <trkpt lat="50.0878464" lon="8.5923256">
                <ele>90.0</ele>
                <time>2020-08-30T12:52:02.000Z</time>
                <name>Trackpoint 5611</name>
            </trkpt>
            <trkpt lat="50.0878464" lon="8.5922296">
                <ele>90.0</ele>
                <time>2020-08-30T12:52:03.000Z</time>
                <name>Trackpoint 5612</name>
            </trkpt>
            <trkpt lat="50.087856" lon="8.5920688">
                <ele>90.0</ele>
                <time>2020-08-30T12:52:05.000Z</time>
                <name>Trackpoint 5613</name>
            </trkpt>
            <trkpt lat="50.0878592" lon="8.591904">
                <ele>90.0</ele>
                <time>2020-08-30T12:52:07.000Z</time>
                <name>Trackpoint 5614</name>
            </trkpt>
            <trkpt lat="50.087856" lon="8.5917504">
                <ele>89.0</ele>
                <time>2020-08-30T12:52:09.000Z</time>
                <name>Trackpoint 5615</name>
            </trkpt>
            <trkpt lat="50.0878592" lon="8.591588">
                <ele>89.0</ele>
                <time>2020-08-30T12:52:11.000Z</time>
                <name>Trackpoint 5616</name>
            </trkpt>
            <trkpt lat="50.0878592" lon="8.5914336">
                <ele>88.0</ele>
                <time>2020-08-30T12:52:13.000Z</time>
                <name>Trackpoint 5617</name>
            </trkpt>
            <trkpt lat="50.0878592" lon="8.5912736">
                <ele>87.0</ele>
                <time>2020-08-30T12:52:15.000Z</time>
                <name>Trackpoint 5618</name>
            </trkpt>
            <trkpt lat="50.087856" lon="8.5911104">
                <ele>87.0</ele>
                <time>2020-08-30T12:52:17.000Z</time>
                <name>Trackpoint 5619</name>
            </trkpt>
            <trkpt lat="50.0878496" lon="8.5910032">
                <ele>87.0</ele>
                <time>2020-08-30T12:52:18.000Z</time>
                <name>Trackpoint 5620</name>
            </trkpt>
            <trkpt lat="50.0878496" lon="8.5909072">
                <ele>87.0</ele>
                <time>2020-08-30T12:52:19.000Z</time>
                <name>Trackpoint 5621</name>
            </trkpt>
            <trkpt lat="50.0878528" lon="8.5907488">
                <ele>86.0</ele>
                <time>2020-08-30T12:52:21.000Z</time>
                <name>Trackpoint 5622</name>
            </trkpt>
            <trkpt lat="50.0878464" lon="8.5906416">
                <ele>86.0</ele>
                <time>2020-08-30T12:52:22.000Z</time>
                <name>Trackpoint 5623</name>
            </trkpt>
            <trkpt lat="50.0878464" lon="8.5905368">
                <ele>86.0</ele>
                <time>2020-08-30T12:52:23.000Z</time>
                <name>Trackpoint 5624</name>
            </trkpt>
            <trkpt lat="50.0878464" lon="8.5904328">
                <ele>86.0</ele>
                <time>2020-08-30T12:52:24.000Z</time>
                <name>Trackpoint 5625</name>
            </trkpt>
            <trkpt lat="50.08784" lon="8.5903328">
                <ele>86.0</ele>
                <time>2020-08-30T12:52:25.000Z</time>
                <name>Trackpoint 5626</name>
            </trkpt>
            <trkpt lat="50.0878368" lon="8.5902256">
                <ele>86.0</ele>
                <time>2020-08-30T12:52:26.000Z</time>
                <name>Trackpoint 5627</name>
            </trkpt>
            <trkpt lat="50.0878336" lon="8.5901272">
                <ele>86.0</ele>
                <time>2020-08-30T12:52:27.000Z</time>
                <name>Trackpoint 5628</name>
            </trkpt>
            <trkpt lat="50.0878304" lon="8.59002">
                <ele>86.0</ele>
                <time>2020-08-30T12:52:28.000Z</time>
                <name>Trackpoint 5629</name>
            </trkpt>
            <trkpt lat="50.0878304" lon="8.589916">
                <ele>86.0</ele>
                <time>2020-08-30T12:52:29.000Z</time>
                <name>Trackpoint 5630</name>
            </trkpt>
            <trkpt lat="50.0878272" lon="8.5898184">
                <ele>86.0</ele>
                <time>2020-08-30T12:52:30.000Z</time>
                <name>Trackpoint 5631</name>
            </trkpt>
            <trkpt lat="50.0878272" lon="8.58972">
                <ele>86.0</ele>
                <time>2020-08-30T12:52:31.000Z</time>
                <name>Trackpoint 5632</name>
            </trkpt>
            <trkpt lat="50.0878272" lon="8.5896184">
                <ele>86.0</ele>
                <time>2020-08-30T12:52:32.000Z</time>
                <name>Trackpoint 5633</name>
            </trkpt>
            <trkpt lat="50.0878208" lon="8.5895272">
                <ele>87.0</ele>
                <time>2020-08-30T12:52:33.000Z</time>
                <name>Trackpoint 5634</name>
            </trkpt>
            <trkpt lat="50.0878208" lon="8.5894248">
                <ele>87.0</ele>
                <time>2020-08-30T12:52:34.000Z</time>
                <name>Trackpoint 5635</name>
            </trkpt>
            <trkpt lat="50.0878208" lon="8.5893288">
                <ele>87.0</ele>
                <time>2020-08-30T12:52:35.000Z</time>
                <name>Trackpoint 5636</name>
            </trkpt>
            <trkpt lat="50.0878112" lon="8.5891488">
                <ele>87.0</ele>
                <time>2020-08-30T12:52:37.000Z</time>
                <name>Trackpoint 5637</name>
            </trkpt>
            <trkpt lat="50.087808" lon="8.5889832">
                <ele>87.0</ele>
                <time>2020-08-30T12:52:39.000Z</time>
                <name>Trackpoint 5638</name>
            </trkpt>
            <trkpt lat="50.0878016" lon="8.5888368">
                <ele>87.0</ele>
                <time>2020-08-30T12:52:41.000Z</time>
                <name>Trackpoint 5639</name>
            </trkpt>
            <trkpt lat="50.087808" lon="8.5886816">
                <ele>87.0</ele>
                <time>2020-08-30T12:52:43.000Z</time>
                <name>Trackpoint 5640</name>
            </trkpt>
            <trkpt lat="50.087808" lon="8.5885088">
                <ele>87.0</ele>
                <time>2020-08-30T12:52:45.000Z</time>
                <name>Trackpoint 5641</name>
            </trkpt>
            <trkpt lat="50.0878112" lon="8.588328">
                <ele>87.0</ele>
                <time>2020-08-30T12:52:47.000Z</time>
                <name>Trackpoint 5642</name>
            </trkpt>
            <trkpt lat="50.087808" lon="8.5881568">
                <ele>87.0</ele>
                <time>2020-08-30T12:52:49.000Z</time>
                <name>Trackpoint 5643</name>
            </trkpt>
            <trkpt lat="50.087808" lon="8.5879896">
                <ele>87.0</ele>
                <time>2020-08-30T12:52:51.000Z</time>
                <name>Trackpoint 5644</name>
            </trkpt>
            <trkpt lat="50.0878176" lon="8.5878624">
                <ele>87.0</ele>
                <time>2020-08-30T12:52:53.000Z</time>
                <name>Trackpoint 5645</name>
            </trkpt>
            <trkpt lat="50.0878272" lon="8.5877688">
                <ele>87.0</ele>
                <time>2020-08-30T12:52:54.000Z</time>
                <name>Trackpoint 5646</name>
            </trkpt>
            <trkpt lat="50.08784" lon="8.5876104">
                <ele>87.0</ele>
                <time>2020-08-30T12:52:56.000Z</time>
                <name>Trackpoint 5647</name>
            </trkpt>
            <trkpt lat="50.0878528" lon="8.5874584">
                <ele>87.0</ele>
                <time>2020-08-30T12:52:58.000Z</time>
                <name>Trackpoint 5648</name>
            </trkpt>
            <trkpt lat="50.0878752" lon="8.5873336">
                <ele>87.0</ele>
                <time>2020-08-30T12:53:00.000Z</time>
                <name>Trackpoint 5649</name>
            </trkpt>
            <trkpt lat="50.0878688" lon="8.5872032">
                <ele>86.0</ele>
                <time>2020-08-30T12:53:02.000Z</time>
                <name>Trackpoint 5650</name>
            </trkpt>
            <trkpt lat="50.0878624" lon="8.5870464">
                <ele>86.0</ele>
                <time>2020-08-30T12:53:04.000Z</time>
                <name>Trackpoint 5651</name>
            </trkpt>
            <trkpt lat="50.0878752" lon="8.5868816">
                <ele>86.0</ele>
                <time>2020-08-30T12:53:06.000Z</time>
                <name>Trackpoint 5652</name>
            </trkpt>
            <trkpt lat="50.0878784" lon="8.5867456">
                <ele>85.0</ele>
                <time>2020-08-30T12:53:08.000Z</time>
                <name>Trackpoint 5653</name>
            </trkpt>
            <trkpt lat="50.0878624" lon="8.586652">
                <ele>85.0</ele>
                <time>2020-08-30T12:54:03.000Z</time>
                <name>Trackpoint 5654</name>
            </trkpt>
            <trkpt lat="50.087872" lon="8.58656">
                <ele>85.0</ele>
                <time>2020-08-30T12:54:06.000Z</time>
                <name>Trackpoint 5655</name>
            </trkpt>
            <trkpt lat="50.087872" lon="8.5864152">
                <ele>85.0</ele>
                <time>2020-08-30T12:54:09.000Z</time>
                <name>Trackpoint 5656</name>
            </trkpt>
            <trkpt lat="50.0878752" lon="8.5862864">
                <ele>85.0</ele>
                <time>2020-08-30T12:54:11.000Z</time>
                <name>Trackpoint 5657</name>
            </trkpt>
            <trkpt lat="50.0878784" lon="8.5861568">
                <ele>85.0</ele>
                <time>2020-08-30T12:54:13.000Z</time>
                <name>Trackpoint 5658</name>
            </trkpt>
            <trkpt lat="50.0878912" lon="8.5860056">
                <ele>85.0</ele>
                <time>2020-08-30T12:54:15.000Z</time>
                <name>Trackpoint 5659</name>
            </trkpt>
            <trkpt lat="50.0879072" lon="8.5858488">
                <ele>85.0</ele>
                <time>2020-08-30T12:54:17.000Z</time>
                <name>Trackpoint 5660</name>
            </trkpt>
            <trkpt lat="50.0879328" lon="8.5856912">
                <ele>85.0</ele>
                <time>2020-08-30T12:54:19.000Z</time>
                <name>Trackpoint 5661</name>
            </trkpt>
            <trkpt lat="50.0879552" lon="8.58556">
                <ele>85.0</ele>
                <time>2020-08-30T12:54:21.000Z</time>
                <name>Trackpoint 5662</name>
            </trkpt>
            <trkpt lat="50.0879712" lon="8.5854128">
                <ele>85.0</ele>
                <time>2020-08-30T12:54:23.000Z</time>
                <name>Trackpoint 5663</name>
            </trkpt>
            <trkpt lat="50.0879968" lon="8.585288">
                <ele>85.0</ele>
                <time>2020-08-30T12:54:25.000Z</time>
                <name>Trackpoint 5664</name>
            </trkpt>
            <trkpt lat="50.0880288" lon="8.5851632">
                <ele>86.0</ele>
                <time>2020-08-30T12:54:27.000Z</time>
                <name>Trackpoint 5665</name>
            </trkpt>
            <trkpt lat="50.0880576" lon="8.58506">
                <ele>86.0</ele>
                <time>2020-08-30T12:54:29.000Z</time>
                <name>Trackpoint 5666</name>
            </trkpt>
            <trkpt lat="50.0880992" lon="8.5849368">
                <ele>86.0</ele>
                <time>2020-08-30T12:54:31.000Z</time>
                <name>Trackpoint 5667</name>
            </trkpt>
            <trkpt lat="50.0881184" lon="8.5848464">
                <ele>85.0</ele>
                <time>2020-08-30T12:54:32.000Z</time>
                <name>Trackpoint 5668</name>
            </trkpt>
            <trkpt lat="50.0881408" lon="8.5846856">
                <ele>85.0</ele>
                <time>2020-08-30T12:54:34.000Z</time>
                <name>Trackpoint 5669</name>
            </trkpt>
            <trkpt lat="50.08816" lon="8.5845032">
                <ele>86.0</ele>
                <time>2020-08-30T12:54:36.000Z</time>
                <name>Trackpoint 5670</name>
            </trkpt>
            <trkpt lat="50.0881696" lon="8.584412">
                <ele>86.0</ele>
                <time>2020-08-30T12:54:37.000Z</time>
                <name>Trackpoint 5671</name>
            </trkpt>
            <trkpt lat="50.0881952" lon="8.58424">
                <ele>86.0</ele>
                <time>2020-08-30T12:54:39.000Z</time>
                <name>Trackpoint 5672</name>
            </trkpt>
            <trkpt lat="50.0882176" lon="8.5840704">
                <ele>86.0</ele>
                <time>2020-08-30T12:54:41.000Z</time>
                <name>Trackpoint 5673</name>
            </trkpt>
            <trkpt lat="50.0882176" lon="8.583968">
                <ele>87.0</ele>
                <time>2020-08-30T12:54:42.000Z</time>
                <name>Trackpoint 5674</name>
            </trkpt>
            <trkpt lat="50.0882464" lon="8.5837984">
                <ele>88.0</ele>
                <time>2020-08-30T12:54:44.000Z</time>
                <name>Trackpoint 5675</name>
            </trkpt>
            <trkpt lat="50.088256" lon="8.5837088">
                <ele>88.0</ele>
                <time>2020-08-30T12:54:45.000Z</time>
                <name>Trackpoint 5676</name>
            </trkpt>
            <trkpt lat="50.0882848" lon="8.5835504">
                <ele>88.0</ele>
                <time>2020-08-30T12:54:47.000Z</time>
                <name>Trackpoint 5677</name>
            </trkpt>
            <trkpt lat="50.0883072" lon="8.583392">
                <ele>89.0</ele>
                <time>2020-08-30T12:54:49.000Z</time>
                <name>Trackpoint 5678</name>
            </trkpt>
            <trkpt lat="50.0883296" lon="8.5832368">
                <ele>88.0</ele>
                <time>2020-08-30T12:54:51.000Z</time>
                <name>Trackpoint 5679</name>
            </trkpt>
            <trkpt lat="50.0883456" lon="8.5830816">
                <ele>89.0</ele>
                <time>2020-08-30T12:54:53.000Z</time>
                <name>Trackpoint 5680</name>
            </trkpt>
            <trkpt lat="50.0883648" lon="8.5829232">
                <ele>89.0</ele>
                <time>2020-08-30T12:54:55.000Z</time>
                <name>Trackpoint 5681</name>
            </trkpt>
            <trkpt lat="50.0883872" lon="8.58276">
                <ele>90.0</ele>
                <time>2020-08-30T12:54:57.000Z</time>
                <name>Trackpoint 5682</name>
            </trkpt>
            <trkpt lat="50.0884128" lon="8.5825928">
                <ele>90.0</ele>
                <time>2020-08-30T12:54:59.000Z</time>
                <name>Trackpoint 5683</name>
            </trkpt>
            <trkpt lat="50.088448" lon="8.582432">
                <ele>90.0</ele>
                <time>2020-08-30T12:55:01.000Z</time>
                <name>Trackpoint 5684</name>
            </trkpt>
            <trkpt lat="50.0884832" lon="8.5822632">
                <ele>91.0</ele>
                <time>2020-08-30T12:55:03.000Z</time>
                <name>Trackpoint 5685</name>
            </trkpt>
            <trkpt lat="50.088528" lon="8.5820984">
                <ele>91.0</ele>
                <time>2020-08-30T12:55:05.000Z</time>
                <name>Trackpoint 5686</name>
            </trkpt>
            <trkpt lat="50.0885824" lon="8.5819416">
                <ele>91.0</ele>
                <time>2020-08-30T12:55:07.000Z</time>
                <name>Trackpoint 5687</name>
            </trkpt>
            <trkpt lat="50.0886304" lon="8.5817832">
                <ele>91.0</ele>
                <time>2020-08-30T12:55:09.000Z</time>
                <name>Trackpoint 5688</name>
            </trkpt>
            <trkpt lat="50.088672" lon="8.5816224">
                <ele>91.0</ele>
                <time>2020-08-30T12:55:11.000Z</time>
                <name>Trackpoint 5689</name>
            </trkpt>
            <trkpt lat="50.0887072" lon="8.5814584">
                <ele>90.0</ele>
                <time>2020-08-30T12:55:13.000Z</time>
                <name>Trackpoint 5690</name>
            </trkpt>
            <trkpt lat="50.0887296" lon="8.581288">
                <ele>90.0</ele>
                <time>2020-08-30T12:55:15.000Z</time>
                <name>Trackpoint 5691</name>
            </trkpt>
            <trkpt lat="50.0887488" lon="8.5811232">
                <ele>90.0</ele>
                <time>2020-08-30T12:55:17.000Z</time>
                <name>Trackpoint 5692</name>
            </trkpt>
            <trkpt lat="50.088768" lon="8.5809696">
                <ele>91.0</ele>
                <time>2020-08-30T12:55:19.000Z</time>
                <name>Trackpoint 5693</name>
            </trkpt>
            <trkpt lat="50.0888" lon="8.5808264">
                <ele>91.0</ele>
                <time>2020-08-30T12:55:21.000Z</time>
                <name>Trackpoint 5694</name>
            </trkpt>
            <trkpt lat="50.088832" lon="8.580684">
                <ele>91.0</ele>
                <time>2020-08-30T12:55:23.000Z</time>
                <name>Trackpoint 5695</name>
            </trkpt>
            <trkpt lat="50.088864" lon="8.5805304">
                <ele>91.0</ele>
                <time>2020-08-30T12:55:25.000Z</time>
                <name>Trackpoint 5696</name>
            </trkpt>
            <trkpt lat="50.0888992" lon="8.5803768">
                <ele>91.0</ele>
                <time>2020-08-30T12:55:27.000Z</time>
                <name>Trackpoint 5697</name>
            </trkpt>
            <trkpt lat="50.0889216" lon="8.580232">
                <ele>91.0</ele>
                <time>2020-08-30T12:55:29.000Z</time>
                <name>Trackpoint 5698</name>
            </trkpt>
            <trkpt lat="50.0889408" lon="8.5801384">
                <ele>91.0</ele>
                <time>2020-08-30T12:55:31.000Z</time>
                <name>Trackpoint 5699</name>
            </trkpt>
            <trkpt lat="50.0889472" lon="8.5800464">
                <ele>92.0</ele>
                <time>2020-08-30T12:55:52.000Z</time>
                <name>Trackpoint 5700</name>
            </trkpt>
            <trkpt lat="50.0889728" lon="8.57992">
                <ele>92.0</ele>
                <time>2020-08-30T12:55:55.000Z</time>
                <name>Trackpoint 5701</name>
            </trkpt>
            <trkpt lat="50.0890016" lon="8.5798128">
                <ele>92.0</ele>
                <time>2020-08-30T12:55:57.000Z</time>
                <name>Trackpoint 5702</name>
            </trkpt>
            <trkpt lat="50.089024" lon="8.5797064">
                <ele>92.0</ele>
                <time>2020-08-30T12:55:59.000Z</time>
                <name>Trackpoint 5703</name>
            </trkpt>
            <trkpt lat="50.0890592" lon="8.5795736">
                <ele>92.0</ele>
                <time>2020-08-30T12:56:01.000Z</time>
                <name>Trackpoint 5704</name>
            </trkpt>
            <trkpt lat="50.089104" lon="8.5794384">
                <ele>92.0</ele>
                <time>2020-08-30T12:56:03.000Z</time>
                <name>Trackpoint 5705</name>
            </trkpt>
            <trkpt lat="50.0891488" lon="8.5792888">
                <ele>92.0</ele>
                <time>2020-08-30T12:56:05.000Z</time>
                <name>Trackpoint 5706</name>
            </trkpt>
            <trkpt lat="50.0891968" lon="8.579148">
                <ele>92.0</ele>
                <time>2020-08-30T12:56:07.000Z</time>
                <name>Trackpoint 5707</name>
            </trkpt>
            <trkpt lat="50.0892384" lon="8.5790128">
                <ele>92.0</ele>
                <time>2020-08-30T12:56:09.000Z</time>
                <name>Trackpoint 5708</name>
            </trkpt>
            <trkpt lat="50.08928" lon="8.5788744">
                <ele>92.0</ele>
                <time>2020-08-30T12:56:11.000Z</time>
                <name>Trackpoint 5709</name>
            </trkpt>
            <trkpt lat="50.0893184" lon="8.5787296">
                <ele>92.0</ele>
                <time>2020-08-30T12:56:13.000Z</time>
                <name>Trackpoint 5710</name>
            </trkpt>
            <trkpt lat="50.0893568" lon="8.57858">
                <ele>92.0</ele>
                <time>2020-08-30T12:56:15.000Z</time>
                <name>Trackpoint 5711</name>
            </trkpt>
            <trkpt lat="50.0893952" lon="8.5784568">
                <ele>92.0</ele>
                <time>2020-08-30T12:56:17.000Z</time>
                <name>Trackpoint 5712</name>
            </trkpt>
            <trkpt lat="50.0894432" lon="8.5783232">
                <ele>92.0</ele>
                <time>2020-08-30T12:56:19.000Z</time>
                <name>Trackpoint 5713</name>
            </trkpt>
            <trkpt lat="50.0894656" lon="8.5782296">
                <ele>92.0</ele>
                <time>2020-08-30T12:56:20.000Z</time>
                <name>Trackpoint 5714</name>
            </trkpt>
            <trkpt lat="50.089488" lon="8.5781384">
                <ele>92.0</ele>
                <time>2020-08-30T12:56:21.000Z</time>
                <name>Trackpoint 5715</name>
            </trkpt>
            <trkpt lat="50.089536" lon="8.5779936">
                <ele>91.0</ele>
                <time>2020-08-30T12:56:23.000Z</time>
                <name>Trackpoint 5716</name>
            </trkpt>
            <trkpt lat="50.0895904" lon="8.5778488">
                <ele>91.0</ele>
                <time>2020-08-30T12:56:25.000Z</time>
                <name>Trackpoint 5717</name>
            </trkpt>
            <trkpt lat="50.0896416" lon="8.5776968">
                <ele>92.0</ele>
                <time>2020-08-30T12:56:27.000Z</time>
                <name>Trackpoint 5718</name>
            </trkpt>
            <trkpt lat="50.0896864" lon="8.5775416">
                <ele>91.0</ele>
                <time>2020-08-30T12:56:29.000Z</time>
                <name>Trackpoint 5719</name>
            </trkpt>
            <trkpt lat="50.0897408" lon="8.5773936">
                <ele>92.0</ele>
                <time>2020-08-30T12:56:31.000Z</time>
                <name>Trackpoint 5720</name>
            </trkpt>
            <trkpt lat="50.0897888" lon="8.5772304">
                <ele>92.0</ele>
                <time>2020-08-30T12:56:33.000Z</time>
                <name>Trackpoint 5721</name>
            </trkpt>
            <trkpt lat="50.0898208" lon="8.5771416">
                <ele>92.0</ele>
                <time>2020-08-30T12:56:34.000Z</time>
                <name>Trackpoint 5722</name>
            </trkpt>
            <trkpt lat="50.0898752" lon="8.5769664">
                <ele>93.0</ele>
                <time>2020-08-30T12:56:36.000Z</time>
                <name>Trackpoint 5723</name>
            </trkpt>
            <trkpt lat="50.0898976" lon="8.5768632">
                <ele>93.0</ele>
                <time>2020-08-30T12:56:37.000Z</time>
                <name>Trackpoint 5724</name>
            </trkpt>
            <trkpt lat="50.0899264" lon="8.5767744">
                <ele>93.0</ele>
                <time>2020-08-30T12:56:38.000Z</time>
                <name>Trackpoint 5725</name>
            </trkpt>
            <trkpt lat="50.0899968" lon="8.5766096">
                <ele>92.0</ele>
                <time>2020-08-30T12:56:40.000Z</time>
                <name>Trackpoint 5726</name>
            </trkpt>
            <trkpt lat="50.090032" lon="8.5765248">
                <ele>92.0</ele>
                <time>2020-08-30T12:56:41.000Z</time>
                <name>Trackpoint 5727</name>
            </trkpt>
            <trkpt lat="50.0900832" lon="8.5763528">
                <ele>93.0</ele>
                <time>2020-08-30T12:56:43.000Z</time>
                <name>Trackpoint 5728</name>
            </trkpt>
            <trkpt lat="50.0901152" lon="8.5762664">
                <ele>93.0</ele>
                <time>2020-08-30T12:56:44.000Z</time>
                <name>Trackpoint 5729</name>
            </trkpt>
            <trkpt lat="50.0901664" lon="8.5761016">
                <ele>93.0</ele>
                <time>2020-08-30T12:56:46.000Z</time>
                <name>Trackpoint 5730</name>
            </trkpt>
            <trkpt lat="50.0901984" lon="8.5760088">
                <ele>93.0</ele>
                <time>2020-08-30T12:56:47.000Z</time>
                <name>Trackpoint 5731</name>
            </trkpt>
            <trkpt lat="50.090256" lon="8.5758304">
                <ele>92.0</ele>
                <time>2020-08-30T12:56:49.000Z</time>
                <name>Trackpoint 5732</name>
            </trkpt>
            <trkpt lat="50.0902816" lon="8.5757376">
                <ele>92.0</ele>
                <time>2020-08-30T12:56:50.000Z</time>
                <name>Trackpoint 5733</name>
            </trkpt>
            <trkpt lat="50.0903488" lon="8.575568">
                <ele>92.0</ele>
                <time>2020-08-30T12:56:52.000Z</time>
                <name>Trackpoint 5734</name>
            </trkpt>
            <trkpt lat="50.0903808" lon="8.5754832">
                <ele>92.0</ele>
                <time>2020-08-30T12:56:53.000Z</time>
                <name>Trackpoint 5735</name>
            </trkpt>
            <trkpt lat="50.0904192" lon="8.5754016">
                <ele>91.0</ele>
                <time>2020-08-30T12:56:54.000Z</time>
                <name>Trackpoint 5736</name>
            </trkpt>
            <trkpt lat="50.0904928" lon="8.5752488">
                <ele>91.0</ele>
                <time>2020-08-30T12:56:56.000Z</time>
                <name>Trackpoint 5737</name>
            </trkpt>
            <trkpt lat="50.0905568" lon="8.5750864">
                <ele>91.0</ele>
                <time>2020-08-30T12:56:58.000Z</time>
                <name>Trackpoint 5738</name>
            </trkpt>
            <trkpt lat="50.0906336" lon="8.5749368">
                <ele>91.0</ele>
                <time>2020-08-30T12:57:00.000Z</time>
                <name>Trackpoint 5739</name>
            </trkpt>
            <trkpt lat="50.0907008" lon="8.5747856">
                <ele>90.0</ele>
                <time>2020-08-30T12:57:02.000Z</time>
                <name>Trackpoint 5740</name>
            </trkpt>
            <trkpt lat="50.090768" lon="8.5746296">
                <ele>90.0</ele>
                <time>2020-08-30T12:57:04.000Z</time>
                <name>Trackpoint 5741</name>
            </trkpt>
            <trkpt lat="50.0908288" lon="8.5744664">
                <ele>90.0</ele>
                <time>2020-08-30T12:57:06.000Z</time>
                <name>Trackpoint 5742</name>
            </trkpt>
            <trkpt lat="50.0908864" lon="8.574324">
                <ele>91.0</ele>
                <time>2020-08-30T12:57:08.000Z</time>
                <name>Trackpoint 5743</name>
            </trkpt>
            <trkpt lat="50.0909408" lon="8.5741984">
                <ele>90.0</ele>
                <time>2020-08-30T12:57:10.000Z</time>
                <name>Trackpoint 5744</name>
            </trkpt>
            <trkpt lat="50.090992" lon="8.5740808">
                <ele>91.0</ele>
                <time>2020-08-30T12:57:12.000Z</time>
                <name>Trackpoint 5745</name>
            </trkpt>
            <trkpt lat="50.09104" lon="8.57398">
                <ele>92.0</ele>
                <time>2020-08-30T12:57:14.000Z</time>
                <name>Trackpoint 5746</name>
            </trkpt>
            <trkpt lat="50.091088" lon="8.5738672">
                <ele>91.0</ele>
                <time>2020-08-30T12:57:16.000Z</time>
                <name>Trackpoint 5747</name>
            </trkpt>
            <trkpt lat="50.0911392" lon="8.5737536">
                <ele>91.0</ele>
                <time>2020-08-30T12:57:18.000Z</time>
                <name>Trackpoint 5748</name>
            </trkpt>
            <trkpt lat="50.0911872" lon="8.5736312">
                <ele>91.0</ele>
                <time>2020-08-30T12:57:20.000Z</time>
                <name>Trackpoint 5749</name>
            </trkpt>
            <trkpt lat="50.0912288" lon="8.5735168">
                <ele>92.0</ele>
                <time>2020-08-30T12:57:22.000Z</time>
                <name>Trackpoint 5750</name>
            </trkpt>
            <trkpt lat="50.0912704" lon="8.5734104">
                <ele>93.0</ele>
                <time>2020-08-30T12:57:24.000Z</time>
                <name>Trackpoint 5751</name>
            </trkpt>
            <trkpt lat="50.091312" lon="8.5733144">
                <ele>93.0</ele>
                <time>2020-08-30T12:57:26.000Z</time>
                <name>Trackpoint 5752</name>
            </trkpt>
            <trkpt lat="50.091344" lon="8.5732024">
                <ele>93.0</ele>
                <time>2020-08-30T12:57:28.000Z</time>
                <name>Trackpoint 5753</name>
            </trkpt>
            <trkpt lat="50.091376" lon="8.5730632">
                <ele>92.0</ele>
                <time>2020-08-30T12:57:30.000Z</time>
                <name>Trackpoint 5754</name>
            </trkpt>
            <trkpt lat="50.0914208" lon="8.5729264">
                <ele>93.0</ele>
                <time>2020-08-30T12:57:32.000Z</time>
                <name>Trackpoint 5755</name>
            </trkpt>
            <trkpt lat="50.0914432" lon="8.57278">
                <ele>93.0</ele>
                <time>2020-08-30T12:57:34.000Z</time>
                <name>Trackpoint 5756</name>
            </trkpt>
            <trkpt lat="50.091472" lon="8.5726544">
                <ele>93.0</ele>
                <time>2020-08-30T12:57:36.000Z</time>
                <name>Trackpoint 5757</name>
            </trkpt>
            <trkpt lat="50.0915104" lon="8.5725544">
                <ele>94.0</ele>
                <time>2020-08-30T12:57:38.000Z</time>
                <name>Trackpoint 5758</name>
            </trkpt>
            <trkpt lat="50.091552" lon="8.5724432">
                <ele>94.0</ele>
                <time>2020-08-30T12:57:40.000Z</time>
                <name>Trackpoint 5759</name>
            </trkpt>
            <trkpt lat="50.0915936" lon="8.5723184">
                <ele>94.0</ele>
                <time>2020-08-30T12:57:42.000Z</time>
                <name>Trackpoint 5760</name>
            </trkpt>
            <trkpt lat="50.0916352" lon="8.5721952">
                <ele>94.0</ele>
                <time>2020-08-30T12:57:44.000Z</time>
                <name>Trackpoint 5761</name>
            </trkpt>
            <trkpt lat="50.0916832" lon="8.5720552">
                <ele>95.0</ele>
                <time>2020-08-30T12:57:46.000Z</time>
                <name>Trackpoint 5762</name>
            </trkpt>
            <trkpt lat="50.091728" lon="8.5719136">
                <ele>95.0</ele>
                <time>2020-08-30T12:57:48.000Z</time>
                <name>Trackpoint 5763</name>
            </trkpt>
            <trkpt lat="50.0917824" lon="8.5717736">
                <ele>95.0</ele>
                <time>2020-08-30T12:57:50.000Z</time>
                <name>Trackpoint 5764</name>
            </trkpt>
            <trkpt lat="50.0918336" lon="8.5716352">
                <ele>95.0</ele>
                <time>2020-08-30T12:57:52.000Z</time>
                <name>Trackpoint 5765</name>
            </trkpt>
            <trkpt lat="50.0918816" lon="8.5714968">
                <ele>94.0</ele>
                <time>2020-08-30T12:57:54.000Z</time>
                <name>Trackpoint 5766</name>
            </trkpt>
            <trkpt lat="50.0919296" lon="8.571368">
                <ele>94.0</ele>
                <time>2020-08-30T12:57:56.000Z</time>
                <name>Trackpoint 5767</name>
            </trkpt>
            <trkpt lat="50.091984" lon="8.5712216">
                <ele>95.0</ele>
                <time>2020-08-30T12:57:58.000Z</time>
                <name>Trackpoint 5768</name>
            </trkpt>
            <trkpt lat="50.092032" lon="8.5710848">
                <ele>94.0</ele>
                <time>2020-08-30T12:58:00.000Z</time>
                <name>Trackpoint 5769</name>
            </trkpt>
            <trkpt lat="50.0920416" lon="8.5709912">
                <ele>94.0</ele>
                <time>2020-08-30T12:58:02.000Z</time>
                <name>Trackpoint 5770</name>
            </trkpt>
            <trkpt lat="50.091952" lon="8.5709312">
                <ele>96.0</ele>
                <time>2020-08-30T12:58:05.000Z</time>
                <name>Trackpoint 5771</name>
            </trkpt>
            <trkpt lat="50.0918784" lon="8.5708752">
                <ele>97.0</ele>
                <time>2020-08-30T12:58:07.000Z</time>
                <name>Trackpoint 5772</name>
            </trkpt>
            <trkpt lat="50.0917888" lon="8.570788">
                <ele>98.0</ele>
                <time>2020-08-30T12:58:09.000Z</time>
                <name>Trackpoint 5773</name>
            </trkpt>
            <trkpt lat="50.0917152" lon="8.5707032">
                <ele>98.0</ele>
                <time>2020-08-30T12:58:11.000Z</time>
                <name>Trackpoint 5774</name>
            </trkpt>
            <trkpt lat="50.091632" lon="8.570612">
                <ele>99.0</ele>
                <time>2020-08-30T12:58:13.000Z</time>
                <name>Trackpoint 5775</name>
            </trkpt>
            <trkpt lat="50.0915552" lon="8.5705344">
                <ele>99.0</ele>
                <time>2020-08-30T12:58:15.000Z</time>
                <name>Trackpoint 5776</name>
            </trkpt>
            <trkpt lat="50.091472" lon="8.570448">
                <ele>99.0</ele>
                <time>2020-08-30T12:58:17.000Z</time>
                <name>Trackpoint 5777</name>
            </trkpt>
            <trkpt lat="50.0914016" lon="8.5703624">
                <ele>99.0</ele>
                <time>2020-08-30T12:58:19.000Z</time>
                <name>Trackpoint 5778</name>
            </trkpt>
            <trkpt lat="50.0913376" lon="8.5702712">
                <ele>99.0</ele>
                <time>2020-08-30T12:58:21.000Z</time>
                <name>Trackpoint 5779</name>
            </trkpt>
            <trkpt lat="50.0912736" lon="8.5701816">
                <ele>100.0</ele>
                <time>2020-08-30T12:58:23.000Z</time>
                <name>Trackpoint 5780</name>
            </trkpt>
            <trkpt lat="50.0912288" lon="8.5700904">
                <ele>99.0</ele>
                <time>2020-08-30T12:58:25.000Z</time>
                <name>Trackpoint 5781</name>
            </trkpt>
            <trkpt lat="50.0911904" lon="8.56998">
                <ele>98.0</ele>
                <time>2020-08-30T12:58:28.000Z</time>
                <name>Trackpoint 5782</name>
            </trkpt>
            <trkpt lat="50.0911328" lon="8.5698984">
                <ele>99.0</ele>
                <time>2020-08-30T12:58:34.000Z</time>
                <name>Trackpoint 5783</name>
            </trkpt>
            <trkpt lat="50.091056" lon="8.5698272">
                <ele>98.0</ele>
                <time>2020-08-30T12:58:38.000Z</time>
                <name>Trackpoint 5784</name>
            </trkpt>
            <trkpt lat="50.091008" lon="8.5697432">
                <ele>98.0</ele>
                <time>2020-08-30T12:58:41.000Z</time>
                <name>Trackpoint 5785</name>
            </trkpt>
            <trkpt lat="50.0908896" lon="8.5697472">
                <ele>97.0</ele>
                <time>2020-08-30T12:59:23.000Z</time>
                <name>Trackpoint 5786</name>
            </trkpt>
            <trkpt lat="50.0907904" lon="8.5697232">
                <ele>97.0</ele>
                <time>2020-08-30T12:59:26.000Z</time>
                <name>Trackpoint 5787</name>
            </trkpt>
            <trkpt lat="50.0906752" lon="8.56968">
                <ele>97.0</ele>
                <time>2020-08-30T12:59:29.000Z</time>
                <name>Trackpoint 5788</name>
            </trkpt>
            <trkpt lat="50.0905536" lon="8.5696184">
                <ele>97.0</ele>
                <time>2020-08-30T12:59:32.000Z</time>
                <name>Trackpoint 5789</name>
            </trkpt>
            <trkpt lat="50.090464" lon="8.5695648">
                <ele>97.0</ele>
                <time>2020-08-30T12:59:34.000Z</time>
                <name>Trackpoint 5790</name>
            </trkpt>
            <trkpt lat="50.0903776" lon="8.5695168">
                <ele>97.0</ele>
                <time>2020-08-30T12:59:36.000Z</time>
                <name>Trackpoint 5791</name>
            </trkpt>
            <trkpt lat="50.0902976" lon="8.5694704">
                <ele>97.0</ele>
                <time>2020-08-30T12:59:38.000Z</time>
                <name>Trackpoint 5792</name>
            </trkpt>
            <trkpt lat="50.0902176" lon="8.5694128">
                <ele>97.0</ele>
                <time>2020-08-30T12:59:40.000Z</time>
                <name>Trackpoint 5793</name>
            </trkpt>
            <trkpt lat="50.0901312" lon="8.569368">
                <ele>97.0</ele>
                <time>2020-08-30T12:59:42.000Z</time>
                <name>Trackpoint 5794</name>
            </trkpt>
            <trkpt lat="50.0900416" lon="8.5693264">
                <ele>97.0</ele>
                <time>2020-08-30T12:59:44.000Z</time>
                <name>Trackpoint 5795</name>
            </trkpt>
            <trkpt lat="50.0899552" lon="8.56928">
                <ele>97.0</ele>
                <time>2020-08-30T12:59:46.000Z</time>
                <name>Trackpoint 5796</name>
            </trkpt>
            <trkpt lat="50.0898624" lon="8.5692416">
                <ele>97.0</ele>
                <time>2020-08-30T12:59:48.000Z</time>
                <name>Trackpoint 5797</name>
            </trkpt>
            <trkpt lat="50.089776" lon="8.5692032">
                <ele>97.0</ele>
                <time>2020-08-30T12:59:50.000Z</time>
                <name>Trackpoint 5798</name>
            </trkpt>
            <trkpt lat="50.0896864" lon="8.5691816">
                <ele>97.0</ele>
                <time>2020-08-30T12:59:52.000Z</time>
                <name>Trackpoint 5799</name>
            </trkpt>
            <trkpt lat="50.0895968" lon="8.5691616">
                <ele>97.0</ele>
                <time>2020-08-30T12:59:54.000Z</time>
                <name>Trackpoint 5800</name>
            </trkpt>
            <trkpt lat="50.0894656" lon="8.5692016">
                <ele>97.0</ele>
                <time>2020-08-30T12:59:57.000Z</time>
                <name>Trackpoint 5801</name>
            </trkpt>
            <trkpt lat="50.0893472" lon="8.5692632">
                <ele>97.0</ele>
                <time>2020-08-30T13:00:00.000Z</time>
                <name>Trackpoint 5802</name>
            </trkpt>
            <trkpt lat="50.0892672" lon="8.5693184">
                <ele>97.0</ele>
                <time>2020-08-30T13:00:02.000Z</time>
                <name>Trackpoint 5803</name>
            </trkpt>
            <trkpt lat="50.0891904" lon="8.5693752">
                <ele>97.0</ele>
                <time>2020-08-30T13:00:04.000Z</time>
                <name>Trackpoint 5804</name>
            </trkpt>
            <trkpt lat="50.089104" lon="8.5694064">
                <ele>97.0</ele>
                <time>2020-08-30T13:00:06.000Z</time>
                <name>Trackpoint 5805</name>
            </trkpt>
            <trkpt lat="50.0890144" lon="8.5694584">
                <ele>97.0</ele>
                <time>2020-08-30T13:00:08.000Z</time>
                <name>Trackpoint 5806</name>
            </trkpt>
            <trkpt lat="50.088912" lon="8.569484">
                <ele>97.0</ele>
                <time>2020-08-30T13:00:10.000Z</time>
                <name>Trackpoint 5807</name>
            </trkpt>
            <trkpt lat="50.0888064" lon="8.5694736">
                <ele>97.0</ele>
                <time>2020-08-30T13:00:12.000Z</time>
                <name>Trackpoint 5808</name>
            </trkpt>
            <trkpt lat="50.0887104" lon="8.5694176">
                <ele>97.0</ele>
                <time>2020-08-30T13:00:14.000Z</time>
                <name>Trackpoint 5809</name>
            </trkpt>
            <trkpt lat="50.088624" lon="8.5693712">
                <ele>97.0</ele>
                <time>2020-08-30T13:00:16.000Z</time>
                <name>Trackpoint 5810</name>
            </trkpt>
            <trkpt lat="50.0885344" lon="8.5693032">
                <ele>97.0</ele>
                <time>2020-08-30T13:00:18.000Z</time>
                <name>Trackpoint 5811</name>
            </trkpt>
            <trkpt lat="50.0884352" lon="8.5692232">
                <ele>97.0</ele>
                <time>2020-08-30T13:00:20.000Z</time>
                <name>Trackpoint 5812</name>
            </trkpt>
            <trkpt lat="50.0883296" lon="8.5691472">
                <ele>97.0</ele>
                <time>2020-08-30T13:00:22.000Z</time>
                <name>Trackpoint 5813</name>
            </trkpt>
            <trkpt lat="50.0882304" lon="8.5690896">
                <ele>97.0</ele>
                <time>2020-08-30T13:00:24.000Z</time>
                <name>Trackpoint 5814</name>
            </trkpt>
            <trkpt lat="50.088128" lon="8.5690032">
                <ele>97.0</ele>
                <time>2020-08-30T13:00:26.000Z</time>
                <name>Trackpoint 5815</name>
            </trkpt>
            <trkpt lat="50.088032" lon="8.5689224">
                <ele>97.0</ele>
                <time>2020-08-30T13:00:28.000Z</time>
                <name>Trackpoint 5816</name>
            </trkpt>
            <trkpt lat="50.0879392" lon="8.5688352">
                <ele>96.0</ele>
                <time>2020-08-30T13:00:30.000Z</time>
                <name>Trackpoint 5817</name>
            </trkpt>
            <trkpt lat="50.0878336" lon="8.5687448">
                <ele>96.0</ele>
                <time>2020-08-30T13:00:32.000Z</time>
                <name>Trackpoint 5818</name>
            </trkpt>
            <trkpt lat="50.0877312" lon="8.5686432">
                <ele>96.0</ele>
                <time>2020-08-30T13:00:34.000Z</time>
                <name>Trackpoint 5819</name>
            </trkpt>
            <trkpt lat="50.0876192" lon="8.568552">
                <ele>96.0</ele>
                <time>2020-08-30T13:00:36.000Z</time>
                <name>Trackpoint 5820</name>
            </trkpt>
            <trkpt lat="50.0875168" lon="8.5684544">
                <ele>96.0</ele>
                <time>2020-08-30T13:00:38.000Z</time>
                <name>Trackpoint 5821</name>
            </trkpt>
            <trkpt lat="50.0874112" lon="8.5683584">
                <ele>96.0</ele>
                <time>2020-08-30T13:00:40.000Z</time>
                <name>Trackpoint 5822</name>
            </trkpt>
            <trkpt lat="50.0873024" lon="8.5682584">
                <ele>96.0</ele>
                <time>2020-08-30T13:00:42.000Z</time>
                <name>Trackpoint 5823</name>
            </trkpt>
            <trkpt lat="50.0871968" lon="8.5681664">
                <ele>96.0</ele>
                <time>2020-08-30T13:00:44.000Z</time>
                <name>Trackpoint 5824</name>
            </trkpt>
            <trkpt lat="50.0870976" lon="8.5680848">
                <ele>96.0</ele>
                <time>2020-08-30T13:00:46.000Z</time>
                <name>Trackpoint 5825</name>
            </trkpt>
            <trkpt lat="50.0869952" lon="8.5679848">
                <ele>96.0</ele>
                <time>2020-08-30T13:00:48.000Z</time>
                <name>Trackpoint 5826</name>
            </trkpt>
            <trkpt lat="50.086896" lon="8.5679016">
                <ele>96.0</ele>
                <time>2020-08-30T13:00:50.000Z</time>
                <name>Trackpoint 5827</name>
            </trkpt>
            <trkpt lat="50.0867904" lon="8.5678232">
                <ele>96.0</ele>
                <time>2020-08-30T13:00:52.000Z</time>
                <name>Trackpoint 5828</name>
            </trkpt>
            <trkpt lat="50.086688" lon="8.5677416">
                <ele>96.0</ele>
                <time>2020-08-30T13:00:54.000Z</time>
                <name>Trackpoint 5829</name>
            </trkpt>
            <trkpt lat="50.0865888" lon="8.5676584">
                <ele>96.0</ele>
                <time>2020-08-30T13:00:56.000Z</time>
                <name>Trackpoint 5830</name>
            </trkpt>
            <trkpt lat="50.0864832" lon="8.5675752">
                <ele>96.0</ele>
                <time>2020-08-30T13:00:58.000Z</time>
                <name>Trackpoint 5831</name>
            </trkpt>
            <trkpt lat="50.0864" lon="8.567476">
                <ele>96.0</ele>
                <time>2020-08-30T13:01:00.000Z</time>
                <name>Trackpoint 5832</name>
            </trkpt>
            <trkpt lat="50.0863808" lon="8.5673416">
                <ele>96.0</ele>
                <time>2020-08-30T13:01:02.000Z</time>
                <name>Trackpoint 5833</name>
            </trkpt>
            <trkpt lat="50.0863872" lon="8.5671864">
                <ele>96.0</ele>
                <time>2020-08-30T13:01:04.000Z</time>
                <name>Trackpoint 5834</name>
            </trkpt>
            <trkpt lat="50.0863968" lon="8.5670968">
                <ele>96.0</ele>
                <time>2020-08-30T13:01:05.000Z</time>
                <name>Trackpoint 5835</name>
            </trkpt>
            <trkpt lat="50.0864096" lon="8.5669232">
                <ele>96.0</ele>
                <time>2020-08-30T13:01:07.000Z</time>
                <name>Trackpoint 5836</name>
            </trkpt>
            <trkpt lat="50.0864128" lon="8.5668296">
                <ele>96.0</ele>
                <time>2020-08-30T13:01:08.000Z</time>
                <name>Trackpoint 5837</name>
            </trkpt>
            <trkpt lat="50.0864192" lon="8.5666512">
                <ele>96.0</ele>
                <time>2020-08-30T13:01:10.000Z</time>
                <name>Trackpoint 5838</name>
            </trkpt>
            <trkpt lat="50.0864256" lon="8.5664816">
                <ele>96.0</ele>
                <time>2020-08-30T13:01:12.000Z</time>
                <name>Trackpoint 5839</name>
            </trkpt>
            <trkpt lat="50.0864192" lon="8.5663144">
                <ele>96.0</ele>
                <time>2020-08-30T13:01:14.000Z</time>
                <name>Trackpoint 5840</name>
            </trkpt>
            <trkpt lat="50.0864128" lon="8.5661488">
                <ele>96.0</ele>
                <time>2020-08-30T13:01:16.000Z</time>
                <name>Trackpoint 5841</name>
            </trkpt>
            <trkpt lat="50.0864032" lon="8.5659864">
                <ele>96.0</ele>
                <time>2020-08-30T13:01:18.000Z</time>
                <name>Trackpoint 5842</name>
            </trkpt>
            <trkpt lat="50.086384" lon="8.5658232">
                <ele>96.0</ele>
                <time>2020-08-30T13:01:20.000Z</time>
                <name>Trackpoint 5843</name>
            </trkpt>
            <trkpt lat="50.0863616" lon="8.5656568">
                <ele>96.0</ele>
                <time>2020-08-30T13:01:22.000Z</time>
                <name>Trackpoint 5844</name>
            </trkpt>
            <trkpt lat="50.0863264" lon="8.565492">
                <ele>96.0</ele>
                <time>2020-08-30T13:01:24.000Z</time>
                <name>Trackpoint 5845</name>
            </trkpt>
            <trkpt lat="50.0863008" lon="8.56534">
                <ele>96.0</ele>
                <time>2020-08-30T13:01:26.000Z</time>
                <name>Trackpoint 5846</name>
            </trkpt>
            <trkpt lat="50.0862624" lon="8.5651952">
                <ele>96.0</ele>
                <time>2020-08-30T13:01:28.000Z</time>
                <name>Trackpoint 5847</name>
            </trkpt>
            <trkpt lat="50.086224" lon="8.5650664">
                <ele>96.0</ele>
                <time>2020-08-30T13:01:30.000Z</time>
                <name>Trackpoint 5848</name>
            </trkpt>
            <trkpt lat="50.0861824" lon="8.5649496">
                <ele>96.0</ele>
                <time>2020-08-30T13:01:32.000Z</time>
                <name>Trackpoint 5849</name>
            </trkpt>
            <trkpt lat="50.086144" lon="8.5648384">
                <ele>96.0</ele>
                <time>2020-08-30T13:01:34.000Z</time>
                <name>Trackpoint 5850</name>
            </trkpt>
            <trkpt lat="50.086112" lon="8.5647184">
                <ele>96.0</ele>
                <time>2020-08-30T13:01:36.000Z</time>
                <name>Trackpoint 5851</name>
            </trkpt>
            <trkpt lat="50.0860896" lon="8.5645616">
                <ele>96.0</ele>
                <time>2020-08-30T13:01:38.000Z</time>
                <name>Trackpoint 5852</name>
            </trkpt>
            <trkpt lat="50.0860608" lon="8.564392">
                <ele>96.0</ele>
                <time>2020-08-30T13:01:40.000Z</time>
                <name>Trackpoint 5853</name>
            </trkpt>
            <trkpt lat="50.0860352" lon="8.5643032">
                <ele>96.0</ele>
                <time>2020-08-30T13:01:41.000Z</time>
                <name>Trackpoint 5854</name>
            </trkpt>
            <trkpt lat="50.0860096" lon="8.564208">
                <ele>96.0</ele>
                <time>2020-08-30T13:01:42.000Z</time>
                <name>Trackpoint 5855</name>
            </trkpt>
            <trkpt lat="50.085984" lon="8.56412">
                <ele>96.0</ele>
                <time>2020-08-30T13:01:43.000Z</time>
                <name>Trackpoint 5856</name>
            </trkpt>
            <trkpt lat="50.0859456" lon="8.5639552">
                <ele>96.0</ele>
                <time>2020-08-30T13:01:45.000Z</time>
                <name>Trackpoint 5857</name>
            </trkpt>
            <trkpt lat="50.0859072" lon="8.5637968">
                <ele>96.0</ele>
                <time>2020-08-30T13:01:47.000Z</time>
                <name>Trackpoint 5858</name>
            </trkpt>
            <trkpt lat="50.085872" lon="8.5636528">
                <ele>96.0</ele>
                <time>2020-08-30T13:01:49.000Z</time>
                <name>Trackpoint 5859</name>
            </trkpt>
            <trkpt lat="50.0858272" lon="8.5634984">
                <ele>96.0</ele>
                <time>2020-08-30T13:01:51.000Z</time>
                <name>Trackpoint 5860</name>
            </trkpt>
            <trkpt lat="50.0857856" lon="8.5633672">
                <ele>96.0</ele>
                <time>2020-08-30T13:01:53.000Z</time>
                <name>Trackpoint 5861</name>
            </trkpt>
            <trkpt lat="50.0857472" lon="8.56324">
                <ele>96.0</ele>
                <time>2020-08-30T13:01:55.000Z</time>
                <name>Trackpoint 5862</name>
            </trkpt>
            <trkpt lat="50.0857056" lon="8.563084">
                <ele>96.0</ele>
                <time>2020-08-30T13:01:57.000Z</time>
                <name>Trackpoint 5863</name>
            </trkpt>
            <trkpt lat="50.0856576" lon="8.5629232">
                <ele>96.0</ele>
                <time>2020-08-30T13:01:59.000Z</time>
                <name>Trackpoint 5864</name>
            </trkpt>
            <trkpt lat="50.085616" lon="8.56276">
                <ele>96.0</ele>
                <time>2020-08-30T13:02:01.000Z</time>
                <name>Trackpoint 5865</name>
            </trkpt>
            <trkpt lat="50.0855712" lon="8.5625936">
                <ele>96.0</ele>
                <time>2020-08-30T13:02:03.000Z</time>
                <name>Trackpoint 5866</name>
            </trkpt>
            <trkpt lat="50.0855392" lon="8.5624968">
                <ele>96.0</ele>
                <time>2020-08-30T13:02:04.000Z</time>
                <name>Trackpoint 5867</name>
            </trkpt>
            <trkpt lat="50.0854848" lon="8.5623512">
                <ele>96.0</ele>
                <time>2020-08-30T13:02:06.000Z</time>
                <name>Trackpoint 5868</name>
            </trkpt>
            <trkpt lat="50.0854272" lon="8.5621992">
                <ele>96.0</ele>
                <time>2020-08-30T13:02:08.000Z</time>
                <name>Trackpoint 5869</name>
            </trkpt>
            <trkpt lat="50.0853504" lon="8.5620336">
                <ele>95.0</ele>
                <time>2020-08-30T13:02:10.000Z</time>
                <name>Trackpoint 5870</name>
            </trkpt>
            <trkpt lat="50.0852928" lon="8.5618736">
                <ele>96.0</ele>
                <time>2020-08-30T13:02:12.000Z</time>
                <name>Trackpoint 5871</name>
            </trkpt>
            <trkpt lat="50.085232" lon="8.56172">
                <ele>96.0</ele>
                <time>2020-08-30T13:02:14.000Z</time>
                <name>Trackpoint 5872</name>
            </trkpt>
            <trkpt lat="50.0851712" lon="8.5615664">
                <ele>96.0</ele>
                <time>2020-08-30T13:02:16.000Z</time>
                <name>Trackpoint 5873</name>
            </trkpt>
            <trkpt lat="50.0851008" lon="8.5614168">
                <ele>96.0</ele>
                <time>2020-08-30T13:02:18.000Z</time>
                <name>Trackpoint 5874</name>
            </trkpt>
            <trkpt lat="50.0850336" lon="8.5612672">
                <ele>96.0</ele>
                <time>2020-08-30T13:02:20.000Z</time>
                <name>Trackpoint 5875</name>
            </trkpt>
            <trkpt lat="50.0849632" lon="8.5611288">
                <ele>96.0</ele>
                <time>2020-08-30T13:02:22.000Z</time>
                <name>Trackpoint 5876</name>
            </trkpt>
            <trkpt lat="50.084896" lon="8.5609888">
                <ele>96.0</ele>
                <time>2020-08-30T13:02:24.000Z</time>
                <name>Trackpoint 5877</name>
            </trkpt>
            <trkpt lat="50.0848224" lon="8.5608528">
                <ele>95.0</ele>
                <time>2020-08-30T13:02:26.000Z</time>
                <name>Trackpoint 5878</name>
            </trkpt>
            <trkpt lat="50.084752" lon="8.5607232">
                <ele>95.0</ele>
                <time>2020-08-30T13:02:28.000Z</time>
                <name>Trackpoint 5879</name>
            </trkpt>
            <trkpt lat="50.0846784" lon="8.560588">
                <ele>95.0</ele>
                <time>2020-08-30T13:02:30.000Z</time>
                <name>Trackpoint 5880</name>
            </trkpt>
            <trkpt lat="50.0846144" lon="8.56046">
                <ele>95.0</ele>
                <time>2020-08-30T13:02:32.000Z</time>
                <name>Trackpoint 5881</name>
            </trkpt>
            <trkpt lat="50.0845536" lon="8.5603464">
                <ele>95.0</ele>
                <time>2020-08-30T13:02:34.000Z</time>
                <name>Trackpoint 5882</name>
            </trkpt>
            <trkpt lat="50.0844992" lon="8.5602448">
                <ele>95.0</ele>
                <time>2020-08-30T13:02:36.000Z</time>
                <name>Trackpoint 5883</name>
            </trkpt>
            <trkpt lat="50.084432" lon="8.560128">
                <ele>95.0</ele>
                <time>2020-08-30T13:02:38.000Z</time>
                <name>Trackpoint 5884</name>
            </trkpt>
            <trkpt lat="50.0843648" lon="8.5600032">
                <ele>95.0</ele>
                <time>2020-08-30T13:02:40.000Z</time>
                <name>Trackpoint 5885</name>
            </trkpt>
            <trkpt lat="50.0842976" lon="8.5598648">
                <ele>95.0</ele>
                <time>2020-08-30T13:02:42.000Z</time>
                <name>Trackpoint 5886</name>
            </trkpt>
            <trkpt lat="50.0842272" lon="8.5597336">
                <ele>95.0</ele>
                <time>2020-08-30T13:02:44.000Z</time>
                <name>Trackpoint 5887</name>
            </trkpt>
            <trkpt lat="50.08416" lon="8.5596">
                <ele>95.0</ele>
                <time>2020-08-30T13:02:46.000Z</time>
                <name>Trackpoint 5888</name>
            </trkpt>
            <trkpt lat="50.084096" lon="8.5594728">
                <ele>95.0</ele>
                <time>2020-08-30T13:02:48.000Z</time>
                <name>Trackpoint 5889</name>
            </trkpt>
            <trkpt lat="50.0840288" lon="8.559348">
                <ele>95.0</ele>
                <time>2020-08-30T13:02:50.000Z</time>
                <name>Trackpoint 5890</name>
            </trkpt>
            <trkpt lat="50.0839808" lon="8.5592184">
                <ele>95.0</ele>
                <time>2020-08-30T13:02:52.000Z</time>
                <name>Trackpoint 5891</name>
            </trkpt>
            <trkpt lat="50.0839296" lon="8.5590832">
                <ele>95.0</ele>
                <time>2020-08-30T13:02:54.000Z</time>
                <name>Trackpoint 5892</name>
            </trkpt>
            <trkpt lat="50.0838816" lon="8.5589552">
                <ele>95.0</ele>
                <time>2020-08-30T13:02:56.000Z</time>
                <name>Trackpoint 5893</name>
            </trkpt>
            <trkpt lat="50.0838304" lon="8.55882">
                <ele>96.0</ele>
                <time>2020-08-30T13:02:58.000Z</time>
                <name>Trackpoint 5894</name>
            </trkpt>
            <trkpt lat="50.0837856" lon="8.5586792">
                <ele>96.0</ele>
                <time>2020-08-30T13:03:00.000Z</time>
                <name>Trackpoint 5895</name>
            </trkpt>
            <trkpt lat="50.0837248" lon="8.5585472">
                <ele>96.0</ele>
                <time>2020-08-30T13:03:02.000Z</time>
                <name>Trackpoint 5896</name>
            </trkpt>
            <trkpt lat="50.0836704" lon="8.5584024">
                <ele>96.0</ele>
                <time>2020-08-30T13:03:04.000Z</time>
                <name>Trackpoint 5897</name>
            </trkpt>
            <trkpt lat="50.0836128" lon="8.5582552">
                <ele>96.0</ele>
                <time>2020-08-30T13:03:06.000Z</time>
                <name>Trackpoint 5898</name>
            </trkpt>
            <trkpt lat="50.0835584" lon="8.5581128">
                <ele>97.0</ele>
                <time>2020-08-30T13:03:08.000Z</time>
                <name>Trackpoint 5899</name>
            </trkpt>
            <trkpt lat="50.0835008" lon="8.5579656">
                <ele>97.0</ele>
                <time>2020-08-30T13:03:10.000Z</time>
                <name>Trackpoint 5900</name>
            </trkpt>
            <trkpt lat="50.08344" lon="8.5578168">
                <ele>97.0</ele>
                <time>2020-08-30T13:03:12.000Z</time>
                <name>Trackpoint 5901</name>
            </trkpt>
            <trkpt lat="50.0833824" lon="8.5576664">
                <ele>96.0</ele>
                <time>2020-08-30T13:03:14.000Z</time>
                <name>Trackpoint 5902</name>
            </trkpt>
            <trkpt lat="50.0833184" lon="8.5575168">
                <ele>96.0</ele>
                <time>2020-08-30T13:03:16.000Z</time>
                <name>Trackpoint 5903</name>
            </trkpt>
            <trkpt lat="50.0832512" lon="8.5573552">
                <ele>97.0</ele>
                <time>2020-08-30T13:03:18.000Z</time>
                <name>Trackpoint 5904</name>
            </trkpt>
            <trkpt lat="50.0831872" lon="8.5571944">
                <ele>97.0</ele>
                <time>2020-08-30T13:03:20.000Z</time>
                <name>Trackpoint 5905</name>
            </trkpt>
            <trkpt lat="50.08312" lon="8.5570384">
                <ele>97.0</ele>
                <time>2020-08-30T13:03:22.000Z</time>
                <name>Trackpoint 5906</name>
            </trkpt>
            <trkpt lat="50.0830432" lon="8.5568816">
                <ele>97.0</ele>
                <time>2020-08-30T13:03:24.000Z</time>
                <name>Trackpoint 5907</name>
            </trkpt>
            <trkpt lat="50.0829696" lon="8.5567312">
                <ele>97.0</ele>
                <time>2020-08-30T13:03:26.000Z</time>
                <name>Trackpoint 5908</name>
            </trkpt>
            <trkpt lat="50.0828928" lon="8.5565728">
                <ele>97.0</ele>
                <time>2020-08-30T13:03:28.000Z</time>
                <name>Trackpoint 5909</name>
            </trkpt>
            <trkpt lat="50.0828128" lon="8.5564248">
                <ele>96.0</ele>
                <time>2020-08-30T13:03:30.000Z</time>
                <name>Trackpoint 5910</name>
            </trkpt>
            <trkpt lat="50.0827328" lon="8.5562832">
                <ele>96.0</ele>
                <time>2020-08-30T13:03:32.000Z</time>
                <name>Trackpoint 5911</name>
            </trkpt>
            <trkpt lat="50.0826464" lon="8.55614">
                <ele>96.0</ele>
                <time>2020-08-30T13:03:34.000Z</time>
                <name>Trackpoint 5912</name>
            </trkpt>
            <trkpt lat="50.0825568" lon="8.5560048">
                <ele>96.0</ele>
                <time>2020-08-30T13:03:36.000Z</time>
                <name>Trackpoint 5913</name>
            </trkpt>
            <trkpt lat="50.0824736" lon="8.5558768">
                <ele>96.0</ele>
                <time>2020-08-30T13:03:38.000Z</time>
                <name>Trackpoint 5914</name>
            </trkpt>
            <trkpt lat="50.0823968" lon="8.555748">
                <ele>96.0</ele>
                <time>2020-08-30T13:03:40.000Z</time>
                <name>Trackpoint 5915</name>
            </trkpt>
            <trkpt lat="50.0823264" lon="8.5556336">
                <ele>96.0</ele>
                <time>2020-08-30T13:03:42.000Z</time>
                <name>Trackpoint 5916</name>
            </trkpt>
            <trkpt lat="50.0822528" lon="8.5555248">
                <ele>96.0</ele>
                <time>2020-08-30T13:03:44.000Z</time>
                <name>Trackpoint 5917</name>
            </trkpt>
            <trkpt lat="50.0821888" lon="8.5554216">
                <ele>96.0</ele>
                <time>2020-08-30T13:03:46.000Z</time>
                <name>Trackpoint 5918</name>
            </trkpt>
            <trkpt lat="50.082128" lon="8.5553168">
                <ele>96.0</ele>
                <time>2020-08-30T13:03:48.000Z</time>
                <name>Trackpoint 5919</name>
            </trkpt>
            <trkpt lat="50.0820832" lon="8.5552256">
                <ele>96.0</ele>
                <time>2020-08-30T13:03:50.000Z</time>
                <name>Trackpoint 5920</name>
            </trkpt>
            <trkpt lat="50.0820096" lon="8.5551168">
                <ele>96.0</ele>
                <time>2020-08-30T13:03:53.000Z</time>
                <name>Trackpoint 5921</name>
            </trkpt>
            <trkpt lat="50.081952" lon="8.5550344">
                <ele>96.0</ele>
                <time>2020-08-30T13:03:55.000Z</time>
                <name>Trackpoint 5922</name>
            </trkpt>
            <trkpt lat="50.0819104" lon="8.5549544">
                <ele>96.0</ele>
                <time>2020-08-30T13:03:57.000Z</time>
                <name>Trackpoint 5923</name>
            </trkpt>
            <trkpt lat="50.081856" lon="8.554856">
                <ele>95.0</ele>
                <time>2020-08-30T13:04:01.000Z</time>
                <name>Trackpoint 5924</name>
            </trkpt>
            <trkpt lat="50.0817856" lon="8.5547784">
                <ele>96.0</ele>
                <time>2020-08-30T13:04:04.000Z</time>
                <name>Trackpoint 5925</name>
            </trkpt>
            <trkpt lat="50.0817344" lon="8.5546776">
                <ele>96.0</ele>
                <time>2020-08-30T13:04:07.000Z</time>
                <name>Trackpoint 5926</name>
            </trkpt>
            <trkpt lat="50.0816864" lon="8.5545752">
                <ele>96.0</ele>
                <time>2020-08-30T13:04:10.000Z</time>
                <name>Trackpoint 5927</name>
            </trkpt>
            <trkpt lat="50.0816384" lon="8.5545464">
                <ele>92.0</ele>
                <time>2020-08-30T13:32:22.000Z</time>
                <name>Trackpoint 6269</name>
            </trkpt>
            <trkpt lat="50.0817056" lon="8.5544784">
                <ele>91.0</ele>
                <time>2020-08-30T13:32:28.000Z</time>
                <name>Trackpoint 6270</name>
            </trkpt>
            <trkpt lat="50.0817696" lon="8.5543936">
                <ele>92.0</ele>
                <time>2020-08-30T13:33:31.000Z</time>
                <name>Trackpoint 6271</name>
            </trkpt>
            <trkpt lat="50.0818368" lon="8.5543296">
                <ele>92.0</ele>
                <time>2020-08-30T13:33:34.000Z</time>
                <name>Trackpoint 6272</name>
            </trkpt>
            <trkpt lat="50.0819296" lon="8.5542584">
                <ele>92.0</ele>
                <time>2020-08-30T13:33:37.000Z</time>
                <name>Trackpoint 6273</name>
            </trkpt>
            <trkpt lat="50.0820224" lon="8.5541784">
                <ele>92.0</ele>
                <time>2020-08-30T13:33:40.000Z</time>
                <name>Trackpoint 6274</name>
            </trkpt>
            <trkpt lat="50.082112" lon="8.5540952">
                <ele>92.0</ele>
                <time>2020-08-30T13:33:43.000Z</time>
                <name>Trackpoint 6275</name>
            </trkpt>
            <trkpt lat="50.0821792" lon="8.554024">
                <ele>92.0</ele>
                <time>2020-08-30T13:33:45.000Z</time>
                <name>Trackpoint 6276</name>
            </trkpt>
            <trkpt lat="50.0822592" lon="8.5539512">
                <ele>92.0</ele>
                <time>2020-08-30T13:33:47.000Z</time>
                <name>Trackpoint 6277</name>
            </trkpt>
            <trkpt lat="50.0823488" lon="8.5538752">
                <ele>92.0</ele>
                <time>2020-08-30T13:33:49.000Z</time>
                <name>Trackpoint 6278</name>
            </trkpt>
            <trkpt lat="50.0824352" lon="8.5538016">
                <ele>92.0</ele>
                <time>2020-08-30T13:33:51.000Z</time>
                <name>Trackpoint 6279</name>
            </trkpt>
            <trkpt lat="50.082528" lon="8.553728">
                <ele>92.0</ele>
                <time>2020-08-30T13:33:53.000Z</time>
                <name>Trackpoint 6280</name>
            </trkpt>
            <trkpt lat="50.0826144" lon="8.55366">
                <ele>92.0</ele>
                <time>2020-08-30T13:33:55.000Z</time>
                <name>Trackpoint 6281</name>
            </trkpt>
            <trkpt lat="50.0827072" lon="8.5535848">
                <ele>91.0</ele>
                <time>2020-08-30T13:33:57.000Z</time>
                <name>Trackpoint 6282</name>
            </trkpt>
            <trkpt lat="50.0828032" lon="8.5535">
                <ele>91.0</ele>
                <time>2020-08-30T13:33:59.000Z</time>
                <name>Trackpoint 6283</name>
            </trkpt>
            <trkpt lat="50.082896" lon="8.5534096">
                <ele>91.0</ele>
                <time>2020-08-30T13:34:01.000Z</time>
                <name>Trackpoint 6284</name>
            </trkpt>
            <trkpt lat="50.0829952" lon="8.553324">
                <ele>90.0</ele>
                <time>2020-08-30T13:34:03.000Z</time>
                <name>Trackpoint 6285</name>
            </trkpt>
            <trkpt lat="50.0830816" lon="8.5532488">
                <ele>90.0</ele>
                <time>2020-08-30T13:34:05.000Z</time>
                <name>Trackpoint 6286</name>
            </trkpt>
            <trkpt lat="50.0831136" lon="8.5531328">
                <ele>90.0</ele>
                <time>2020-08-30T13:34:07.000Z</time>
                <name>Trackpoint 6287</name>
            </trkpt>
            <trkpt lat="50.0830944" lon="8.5530008">
                <ele>90.0</ele>
                <time>2020-08-30T13:34:09.000Z</time>
                <name>Trackpoint 6288</name>
            </trkpt>
            <trkpt lat="50.083072" lon="8.5528472">
                <ele>90.0</ele>
                <time>2020-08-30T13:34:11.000Z</time>
                <name>Trackpoint 6289</name>
            </trkpt>
            <trkpt lat="50.0830432" lon="8.5526912">
                <ele>90.0</ele>
                <time>2020-08-30T13:34:13.000Z</time>
                <name>Trackpoint 6290</name>
            </trkpt>
            <trkpt lat="50.0830208" lon="8.552544">
                <ele>90.0</ele>
                <time>2020-08-30T13:34:15.000Z</time>
                <name>Trackpoint 6291</name>
            </trkpt>
            <trkpt lat="50.0829952" lon="8.5524056">
                <ele>90.0</ele>
                <time>2020-08-30T13:34:17.000Z</time>
                <name>Trackpoint 6292</name>
            </trkpt>
            <trkpt lat="50.0829664" lon="8.5522696">
                <ele>90.0</ele>
                <time>2020-08-30T13:34:19.000Z</time>
                <name>Trackpoint 6293</name>
            </trkpt>
            <trkpt lat="50.082944" lon="8.5521448">
                <ele>90.0</ele>
                <time>2020-08-30T13:34:21.000Z</time>
                <name>Trackpoint 6294</name>
            </trkpt>
            <trkpt lat="50.0829216" lon="8.5520264">
                <ele>91.0</ele>
                <time>2020-08-30T13:34:23.000Z</time>
                <name>Trackpoint 6295</name>
            </trkpt>
            <trkpt lat="50.0829024" lon="8.5519248">
                <ele>91.0</ele>
                <time>2020-08-30T13:34:25.000Z</time>
                <name>Trackpoint 6296</name>
            </trkpt>
            <trkpt lat="50.0828832" lon="8.5518168">
                <ele>91.0</ele>
                <time>2020-08-30T13:34:27.000Z</time>
                <name>Trackpoint 6297</name>
            </trkpt>
            <trkpt lat="50.0828544" lon="8.5516952">
                <ele>91.0</ele>
                <time>2020-08-30T13:34:29.000Z</time>
                <name>Trackpoint 6298</name>
            </trkpt>
            <trkpt lat="50.0828288" lon="8.5515696">
                <ele>91.0</ele>
                <time>2020-08-30T13:34:31.000Z</time>
                <name>Trackpoint 6299</name>
            </trkpt>
            <trkpt lat="50.0828032" lon="8.5514296">
                <ele>91.0</ele>
                <time>2020-08-30T13:34:33.000Z</time>
                <name>Trackpoint 6300</name>
            </trkpt>
            <trkpt lat="50.0827744" lon="8.5512912">
                <ele>92.0</ele>
                <time>2020-08-30T13:34:35.000Z</time>
                <name>Trackpoint 6301</name>
            </trkpt>
            <trkpt lat="50.0827488" lon="8.55116">
                <ele>91.0</ele>
                <time>2020-08-30T13:34:37.000Z</time>
                <name>Trackpoint 6302</name>
            </trkpt>
            <trkpt lat="50.0827232" lon="8.5510352">
                <ele>91.0</ele>
                <time>2020-08-30T13:34:39.000Z</time>
                <name>Trackpoint 6303</name>
            </trkpt>
            <trkpt lat="50.0826912" lon="8.5509216">
                <ele>91.0</ele>
                <time>2020-08-30T13:34:41.000Z</time>
                <name>Trackpoint 6304</name>
            </trkpt>
            <trkpt lat="50.082656" lon="8.550812">
                <ele>91.0</ele>
                <time>2020-08-30T13:34:43.000Z</time>
                <name>Trackpoint 6305</name>
            </trkpt>
            <trkpt lat="50.082624" lon="8.5506848">
                <ele>91.0</ele>
                <time>2020-08-30T13:34:45.000Z</time>
                <name>Trackpoint 6306</name>
            </trkpt>
            <trkpt lat="50.0825888" lon="8.5505448">
                <ele>91.0</ele>
                <time>2020-08-30T13:34:47.000Z</time>
                <name>Trackpoint 6307</name>
            </trkpt>
            <trkpt lat="50.0825568" lon="8.5504032">
                <ele>91.0</ele>
                <time>2020-08-30T13:34:49.000Z</time>
                <name>Trackpoint 6308</name>
            </trkpt>
            <trkpt lat="50.0825152" lon="8.5502504">
                <ele>91.0</ele>
                <time>2020-08-30T13:34:51.000Z</time>
                <name>Trackpoint 6309</name>
            </trkpt>
            <trkpt lat="50.0824608" lon="8.5500832">
                <ele>91.0</ele>
                <time>2020-08-30T13:34:53.000Z</time>
                <name>Trackpoint 6310</name>
            </trkpt>
            <trkpt lat="50.0824256" lon="8.5499232">
                <ele>91.0</ele>
                <time>2020-08-30T13:34:55.000Z</time>
                <name>Trackpoint 6311</name>
            </trkpt>
            <trkpt lat="50.0823776" lon="8.5497648">
                <ele>91.0</ele>
                <time>2020-08-30T13:34:57.000Z</time>
                <name>Trackpoint 6312</name>
            </trkpt>
            <trkpt lat="50.082336" lon="8.5495904">
                <ele>92.0</ele>
                <time>2020-08-30T13:34:59.000Z</time>
                <name>Trackpoint 6313</name>
            </trkpt>
            <trkpt lat="50.0822976" lon="8.5494384">
                <ele>91.0</ele>
                <time>2020-08-30T13:35:01.000Z</time>
                <name>Trackpoint 6314</name>
            </trkpt>
            <trkpt lat="50.082272" lon="8.5492832">
                <ele>91.0</ele>
                <time>2020-08-30T13:35:03.000Z</time>
                <name>Trackpoint 6315</name>
            </trkpt>
            <trkpt lat="50.0822336" lon="8.54912">
                <ele>92.0</ele>
                <time>2020-08-30T13:35:05.000Z</time>
                <name>Trackpoint 6316</name>
            </trkpt>
            <trkpt lat="50.0821984" lon="8.548952">
                <ele>92.0</ele>
                <time>2020-08-30T13:35:07.000Z</time>
                <name>Trackpoint 6317</name>
            </trkpt>
            <trkpt lat="50.0821792" lon="8.5488632">
                <ele>92.0</ele>
                <time>2020-08-30T13:35:08.000Z</time>
                <name>Trackpoint 6318</name>
            </trkpt>
            <trkpt lat="50.0821504" lon="8.5486984">
                <ele>92.0</ele>
                <time>2020-08-30T13:35:10.000Z</time>
                <name>Trackpoint 6319</name>
            </trkpt>
            <trkpt lat="50.0821184" lon="8.5485336">
                <ele>92.0</ele>
                <time>2020-08-30T13:35:12.000Z</time>
                <name>Trackpoint 6320</name>
            </trkpt>
            <trkpt lat="50.0820896" lon="8.5483648">
                <ele>92.0</ele>
                <time>2020-08-30T13:35:14.000Z</time>
                <name>Trackpoint 6321</name>
            </trkpt>
            <trkpt lat="50.0820544" lon="8.5482032">
                <ele>92.0</ele>
                <time>2020-08-30T13:35:16.000Z</time>
                <name>Trackpoint 6322</name>
            </trkpt>
            <trkpt lat="50.0820192" lon="8.5480344">
                <ele>91.0</ele>
                <time>2020-08-30T13:35:18.000Z</time>
                <name>Trackpoint 6323</name>
            </trkpt>
            <trkpt lat="50.0819808" lon="8.5478712">
                <ele>92.0</ele>
                <time>2020-08-30T13:35:20.000Z</time>
                <name>Trackpoint 6324</name>
            </trkpt>
            <trkpt lat="50.0819296" lon="8.5477104">
                <ele>91.0</ele>
                <time>2020-08-30T13:35:22.000Z</time>
                <name>Trackpoint 6325</name>
            </trkpt>
            <trkpt lat="50.0818912" lon="8.5475456">
                <ele>91.0</ele>
                <time>2020-08-30T13:35:24.000Z</time>
                <name>Trackpoint 6326</name>
            </trkpt>
            <trkpt lat="50.0818208" lon="8.5473896">
                <ele>91.0</ele>
                <time>2020-08-30T13:35:26.000Z</time>
                <name>Trackpoint 6327</name>
            </trkpt>
            <trkpt lat="50.0817408" lon="8.547252">
                <ele>91.0</ele>
                <time>2020-08-30T13:35:28.000Z</time>
                <name>Trackpoint 6328</name>
            </trkpt>
            <trkpt lat="50.0816448" lon="8.5471432">
                <ele>91.0</ele>
                <time>2020-08-30T13:35:30.000Z</time>
                <name>Trackpoint 6329</name>
            </trkpt>
            <trkpt lat="50.0815456" lon="8.5470616">
                <ele>91.0</ele>
                <time>2020-08-30T13:35:32.000Z</time>
                <name>Trackpoint 6330</name>
            </trkpt>
            <trkpt lat="50.0814432" lon="8.5469968">
                <ele>91.0</ele>
                <time>2020-08-30T13:35:34.000Z</time>
                <name>Trackpoint 6331</name>
            </trkpt>
            <trkpt lat="50.0813408" lon="8.5469352">
                <ele>92.0</ele>
                <time>2020-08-30T13:35:36.000Z</time>
                <name>Trackpoint 6332</name>
            </trkpt>
            <trkpt lat="50.081248" lon="8.546872">
                <ele>92.0</ele>
                <time>2020-08-30T13:35:38.000Z</time>
                <name>Trackpoint 6333</name>
            </trkpt>
            <trkpt lat="50.0811616" lon="8.5468064">
                <ele>91.0</ele>
                <time>2020-08-30T13:35:40.000Z</time>
                <name>Trackpoint 6334</name>
            </trkpt>
            <trkpt lat="50.0810848" lon="8.5467528">
                <ele>91.0</ele>
                <time>2020-08-30T13:35:42.000Z</time>
                <name>Trackpoint 6335</name>
            </trkpt>
            <trkpt lat="50.080976" lon="8.5467192">
                <ele>91.0</ele>
                <time>2020-08-30T13:35:45.000Z</time>
                <name>Trackpoint 6336</name>
            </trkpt>
            <trkpt lat="50.0808832" lon="8.5467192">
                <ele>91.0</ele>
                <time>2020-08-30T13:35:48.000Z</time>
                <name>Trackpoint 6337</name>
            </trkpt>
            <trkpt lat="50.0808384" lon="8.5466232">
                <ele>91.0</ele>
                <time>2020-08-30T13:35:52.000Z</time>
                <name>Trackpoint 6338</name>
            </trkpt>
            <trkpt lat="50.0807904" lon="8.5465416">
                <ele>92.0</ele>
                <time>2020-08-30T13:36:55.000Z</time>
                <name>Trackpoint 6339</name>
            </trkpt>
            <trkpt lat="50.0806976" lon="8.5464648">
                <ele>92.0</ele>
                <time>2020-08-30T13:36:59.000Z</time>
                <name>Trackpoint 6340</name>
            </trkpt>
            <trkpt lat="50.0806432" lon="8.5463864">
                <ele>92.0</ele>
                <time>2020-08-30T13:37:03.000Z</time>
                <name>Trackpoint 6341</name>
            </trkpt>
            <trkpt lat="50.0805504" lon="8.5464312">
                <ele>91.0</ele>
                <time>2020-08-30T13:37:25.000Z</time>
                <name>Trackpoint 6342</name>
            </trkpt>
            <trkpt lat="50.0804864" lon="8.5463248">
                <ele>92.0</ele>
                <time>2020-08-30T13:37:28.000Z</time>
                <name>Trackpoint 6343</name>
            </trkpt>
            <trkpt lat="50.0804288" lon="8.5462448">
                <ele>92.0</ele>
                <time>2020-08-30T13:37:30.000Z</time>
                <name>Trackpoint 6344</name>
            </trkpt>
            <trkpt lat="50.0803616" lon="8.5461752">
                <ele>92.0</ele>
                <time>2020-08-30T13:37:32.000Z</time>
                <name>Trackpoint 6345</name>
            </trkpt>
            <trkpt lat="50.080288" lon="8.5461032">
                <ele>92.0</ele>
                <time>2020-08-30T13:37:34.000Z</time>
                <name>Trackpoint 6346</name>
            </trkpt>
            <trkpt lat="50.0802144" lon="8.5460216">
                <ele>92.0</ele>
                <time>2020-08-30T13:37:36.000Z</time>
                <name>Trackpoint 6347</name>
            </trkpt>
            <trkpt lat="50.0801472" lon="8.5459248">
                <ele>92.0</ele>
                <time>2020-08-30T13:37:38.000Z</time>
                <name>Trackpoint 6348</name>
            </trkpt>
            <trkpt lat="50.0800928" lon="8.5458088">
                <ele>92.0</ele>
                <time>2020-08-30T13:37:40.000Z</time>
                <name>Trackpoint 6349</name>
            </trkpt>
            <trkpt lat="50.0800384" lon="8.5456832">
                <ele>92.0</ele>
                <time>2020-08-30T13:37:42.000Z</time>
                <name>Trackpoint 6350</name>
            </trkpt>
            <trkpt lat="50.0799968" lon="8.5455512">
                <ele>92.0</ele>
                <time>2020-08-30T13:37:44.000Z</time>
                <name>Trackpoint 6351</name>
            </trkpt>
            <trkpt lat="50.0799488" lon="8.5454168">
                <ele>92.0</ele>
                <time>2020-08-30T13:37:46.000Z</time>
                <name>Trackpoint 6352</name>
            </trkpt>
            <trkpt lat="50.0798944" lon="8.5452832">
                <ele>92.0</ele>
                <time>2020-08-30T13:37:48.000Z</time>
                <name>Trackpoint 6353</name>
            </trkpt>
            <trkpt lat="50.0798368" lon="8.5451536">
                <ele>92.0</ele>
                <time>2020-08-30T13:37:50.000Z</time>
                <name>Trackpoint 6354</name>
            </trkpt>
            <trkpt lat="50.0797664" lon="8.5450296">
                <ele>92.0</ele>
                <time>2020-08-30T13:37:52.000Z</time>
                <name>Trackpoint 6355</name>
            </trkpt>
            <trkpt lat="50.07968" lon="8.5449184">
                <ele>92.0</ele>
                <time>2020-08-30T13:37:54.000Z</time>
                <name>Trackpoint 6356</name>
            </trkpt>
            <trkpt lat="50.0795872" lon="8.5448216">
                <ele>92.0</ele>
                <time>2020-08-30T13:37:56.000Z</time>
                <name>Trackpoint 6357</name>
            </trkpt>
            <trkpt lat="50.079488" lon="8.5447416">
                <ele>92.0</ele>
                <time>2020-08-30T13:37:58.000Z</time>
                <name>Trackpoint 6358</name>
            </trkpt>
            <trkpt lat="50.0793792" lon="8.5446816">
                <ele>93.0</ele>
                <time>2020-08-30T13:38:00.000Z</time>
                <name>Trackpoint 6359</name>
            </trkpt>
            <trkpt lat="50.0792704" lon="8.5446432">
                <ele>93.0</ele>
                <time>2020-08-30T13:38:02.000Z</time>
                <name>Trackpoint 6360</name>
            </trkpt>
            <trkpt lat="50.0791584" lon="8.5445896">
                <ele>93.0</ele>
                <time>2020-08-30T13:38:04.000Z</time>
                <name>Trackpoint 6361</name>
            </trkpt>
            <trkpt lat="50.079056" lon="8.54452">
                <ele>93.0</ele>
                <time>2020-08-30T13:38:06.000Z</time>
                <name>Trackpoint 6362</name>
            </trkpt>
            <trkpt lat="50.07896" lon="8.544428">
                <ele>93.0</ele>
                <time>2020-08-30T13:38:08.000Z</time>
                <name>Trackpoint 6363</name>
            </trkpt>
            <trkpt lat="50.0788768" lon="8.5443136">
                <ele>93.0</ele>
                <time>2020-08-30T13:38:10.000Z</time>
                <name>Trackpoint 6364</name>
            </trkpt>
            <trkpt lat="50.0787968" lon="8.5441864">
                <ele>93.0</ele>
                <time>2020-08-30T13:38:12.000Z</time>
                <name>Trackpoint 6365</name>
            </trkpt>
            <trkpt lat="50.0787264" lon="8.544052">
                <ele>93.0</ele>
                <time>2020-08-30T13:38:14.000Z</time>
                <name>Trackpoint 6366</name>
            </trkpt>
            <trkpt lat="50.0786656" lon="8.5439216">
                <ele>93.0</ele>
                <time>2020-08-30T13:38:16.000Z</time>
                <name>Trackpoint 6367</name>
            </trkpt>
            <trkpt lat="50.0786048" lon="8.5438016">
                <ele>93.0</ele>
                <time>2020-08-30T13:38:18.000Z</time>
                <name>Trackpoint 6368</name>
            </trkpt>
            <trkpt lat="50.0785472" lon="8.5436832">
                <ele>93.0</ele>
                <time>2020-08-30T13:38:20.000Z</time>
                <name>Trackpoint 6369</name>
            </trkpt>
            <trkpt lat="50.078496" lon="8.5435712">
                <ele>93.0</ele>
                <time>2020-08-30T13:38:22.000Z</time>
                <name>Trackpoint 6370</name>
            </trkpt>
            <trkpt lat="50.0784416" lon="8.5434704">
                <ele>93.0</ele>
                <time>2020-08-30T13:38:24.000Z</time>
                <name>Trackpoint 6371</name>
            </trkpt>
            <trkpt lat="50.0783968" lon="8.5433704">
                <ele>93.0</ele>
                <time>2020-08-30T13:38:26.000Z</time>
                <name>Trackpoint 6372</name>
            </trkpt>
            <trkpt lat="50.0783552" lon="8.5432784">
                <ele>93.0</ele>
                <time>2020-08-30T13:38:28.000Z</time>
                <name>Trackpoint 6373</name>
            </trkpt>
            <trkpt lat="50.0783072" lon="8.5431832">
                <ele>93.0</ele>
                <time>2020-08-30T13:38:31.000Z</time>
                <name>Trackpoint 6374</name>
            </trkpt>
            <trkpt lat="50.0782624" lon="8.5430896">
                <ele>93.0</ele>
                <time>2020-08-30T13:39:16.000Z</time>
                <name>Trackpoint 6375</name>
            </trkpt>
            <trkpt lat="50.0782048" lon="8.5429696">
                <ele>93.0</ele>
                <time>2020-08-30T13:39:19.000Z</time>
                <name>Trackpoint 6376</name>
            </trkpt>
            <trkpt lat="50.07816" lon="8.5428752">
                <ele>92.0</ele>
                <time>2020-08-30T13:39:21.000Z</time>
                <name>Trackpoint 6377</name>
            </trkpt>
            <trkpt lat="50.0781056" lon="8.5427768">
                <ele>92.0</ele>
                <time>2020-08-30T13:39:23.000Z</time>
                <name>Trackpoint 6378</name>
            </trkpt>
            <trkpt lat="50.0780576" lon="8.5426728">
                <ele>92.0</ele>
                <time>2020-08-30T13:39:25.000Z</time>
                <name>Trackpoint 6379</name>
            </trkpt>
            <trkpt lat="50.0780096" lon="8.5425752">
                <ele>92.0</ele>
                <time>2020-08-30T13:39:27.000Z</time>
                <name>Trackpoint 6380</name>
            </trkpt>
            <trkpt lat="50.0779648" lon="8.5424816">
                <ele>92.0</ele>
                <time>2020-08-30T13:39:29.000Z</time>
                <name>Trackpoint 6381</name>
            </trkpt>
            <trkpt lat="50.0779136" lon="8.5423984">
                <ele>92.0</ele>
                <time>2020-08-30T13:39:31.000Z</time>
                <name>Trackpoint 6382</name>
            </trkpt>
            <trkpt lat="50.0778208" lon="8.5423816">
                <ele>92.0</ele>
                <time>2020-08-30T13:39:34.000Z</time>
                <name>Trackpoint 6383</name>
            </trkpt>
            <trkpt lat="50.077744" lon="8.5424584">
                <ele>92.0</ele>
                <time>2020-08-30T13:39:37.000Z</time>
                <name>Trackpoint 6384</name>
            </trkpt>
            <trkpt lat="50.0776416" lon="8.542472">
                <ele>92.0</ele>
                <time>2020-08-30T13:39:40.000Z</time>
                <name>Trackpoint 6385</name>
            </trkpt>
            <trkpt lat="50.0775424" lon="8.5423984">
                <ele>92.0</ele>
                <time>2020-08-30T13:39:43.000Z</time>
                <name>Trackpoint 6386</name>
            </trkpt>
            <trkpt lat="50.0774944" lon="8.5423">
                <ele>92.0</ele>
                <time>2020-08-30T13:39:45.000Z</time>
                <name>Trackpoint 6387</name>
            </trkpt>
            <trkpt lat="50.0774496" lon="8.5421848">
                <ele>93.0</ele>
                <time>2020-08-30T13:39:47.000Z</time>
                <name>Trackpoint 6388</name>
            </trkpt>
            <trkpt lat="50.077408" lon="8.5420552">
                <ele>93.0</ele>
                <time>2020-08-30T13:39:49.000Z</time>
                <name>Trackpoint 6389</name>
            </trkpt>
            <trkpt lat="50.0773824" lon="8.5419352">
                <ele>93.0</ele>
                <time>2020-08-30T13:39:51.000Z</time>
                <name>Trackpoint 6390</name>
            </trkpt>
            <trkpt lat="50.0773504" lon="8.541812">
                <ele>93.0</ele>
                <time>2020-08-30T13:39:53.000Z</time>
                <name>Trackpoint 6391</name>
            </trkpt>
            <trkpt lat="50.0773152" lon="8.5416872">
                <ele>93.0</ele>
                <time>2020-08-30T13:39:55.000Z</time>
                <name>Trackpoint 6392</name>
            </trkpt>
            <trkpt lat="50.0772768" lon="8.5415472">
                <ele>93.0</ele>
                <time>2020-08-30T13:39:57.000Z</time>
                <name>Trackpoint 6393</name>
            </trkpt>
            <trkpt lat="50.077232" lon="8.5414064">
                <ele>93.0</ele>
                <time>2020-08-30T13:39:59.000Z</time>
                <name>Trackpoint 6394</name>
            </trkpt>
            <trkpt lat="50.0771936" lon="8.5412576">
                <ele>93.0</ele>
                <time>2020-08-30T13:40:01.000Z</time>
                <name>Trackpoint 6395</name>
            </trkpt>
            <trkpt lat="50.077152" lon="8.541108">
                <ele>93.0</ele>
                <time>2020-08-30T13:40:03.000Z</time>
                <name>Trackpoint 6396</name>
            </trkpt>
            <trkpt lat="50.0771104" lon="8.5409544">
                <ele>93.0</ele>
                <time>2020-08-30T13:40:05.000Z</time>
                <name>Trackpoint 6397</name>
            </trkpt>
            <trkpt lat="50.077072" lon="8.5407936">
                <ele>93.0</ele>
                <time>2020-08-30T13:40:07.000Z</time>
                <name>Trackpoint 6398</name>
            </trkpt>
            <trkpt lat="50.0770336" lon="8.5406248">
                <ele>93.0</ele>
                <time>2020-08-30T13:40:09.000Z</time>
                <name>Trackpoint 6399</name>
            </trkpt>
            <trkpt lat="50.0769952" lon="8.5404552">
                <ele>93.0</ele>
                <time>2020-08-30T13:40:11.000Z</time>
                <name>Trackpoint 6400</name>
            </trkpt>
            <trkpt lat="50.0769664" lon="8.5403032">
                <ele>92.0</ele>
                <time>2020-08-30T13:40:13.000Z</time>
                <name>Trackpoint 6401</name>
            </trkpt>
            <trkpt lat="50.076944" lon="8.5401552">
                <ele>92.0</ele>
                <time>2020-08-30T13:40:15.000Z</time>
                <name>Trackpoint 6402</name>
            </trkpt>
            <trkpt lat="50.0769248" lon="8.5400088">
                <ele>92.0</ele>
                <time>2020-08-30T13:40:17.000Z</time>
                <name>Trackpoint 6403</name>
            </trkpt>
            <trkpt lat="50.076912" lon="8.539852">
                <ele>93.0</ele>
                <time>2020-08-30T13:40:19.000Z</time>
                <name>Trackpoint 6404</name>
            </trkpt>
            <trkpt lat="50.0769088" lon="8.5396968">
                <ele>93.0</ele>
                <time>2020-08-30T13:40:21.000Z</time>
                <name>Trackpoint 6405</name>
            </trkpt>
            <trkpt lat="50.0769088" lon="8.5395384">
                <ele>93.0</ele>
                <time>2020-08-30T13:40:23.000Z</time>
                <name>Trackpoint 6406</name>
            </trkpt>
            <trkpt lat="50.0769088" lon="8.5393752">
                <ele>93.0</ele>
                <time>2020-08-30T13:40:25.000Z</time>
                <name>Trackpoint 6407</name>
            </trkpt>
            <trkpt lat="50.0769152" lon="8.5392112">
                <ele>93.0</ele>
                <time>2020-08-30T13:40:27.000Z</time>
                <name>Trackpoint 6408</name>
            </trkpt>
            <trkpt lat="50.0769344" lon="8.5390464">
                <ele>93.0</ele>
                <time>2020-08-30T13:40:29.000Z</time>
                <name>Trackpoint 6409</name>
            </trkpt>
            <trkpt lat="50.0769536" lon="8.5388768">
                <ele>93.0</ele>
                <time>2020-08-30T13:40:31.000Z</time>
                <name>Trackpoint 6410</name>
            </trkpt>
            <trkpt lat="50.076976" lon="8.5387088">
                <ele>93.0</ele>
                <time>2020-08-30T13:40:33.000Z</time>
                <name>Trackpoint 6411</name>
            </trkpt>
            <trkpt lat="50.0770048" lon="8.5385312">
                <ele>93.0</ele>
                <time>2020-08-30T13:40:35.000Z</time>
                <name>Trackpoint 6412</name>
            </trkpt>
            <trkpt lat="50.0770304" lon="8.5383616">
                <ele>93.0</ele>
                <time>2020-08-30T13:40:37.000Z</time>
                <name>Trackpoint 6413</name>
            </trkpt>
            <trkpt lat="50.0770496" lon="8.5381968">
                <ele>93.0</ele>
                <time>2020-08-30T13:40:39.000Z</time>
                <name>Trackpoint 6414</name>
            </trkpt>
            <trkpt lat="50.0770688" lon="8.5380496">
                <ele>93.0</ele>
                <time>2020-08-30T13:40:41.000Z</time>
                <name>Trackpoint 6415</name>
            </trkpt>
            <trkpt lat="50.077088" lon="8.5379112">
                <ele>93.0</ele>
                <time>2020-08-30T13:40:43.000Z</time>
                <name>Trackpoint 6416</name>
            </trkpt>
            <trkpt lat="50.0771072" lon="8.537784">
                <ele>93.0</ele>
                <time>2020-08-30T13:40:45.000Z</time>
                <name>Trackpoint 6417</name>
            </trkpt>
            <trkpt lat="50.0771264" lon="8.5376616">
                <ele>93.0</ele>
                <time>2020-08-30T13:40:47.000Z</time>
                <name>Trackpoint 6418</name>
            </trkpt>
            <trkpt lat="50.0771424" lon="8.537552">
                <ele>93.0</ele>
                <time>2020-08-30T13:40:49.000Z</time>
                <name>Trackpoint 6419</name>
            </trkpt>
            <trkpt lat="50.0771552" lon="8.5374496">
                <ele>93.0</ele>
                <time>2020-08-30T13:40:51.000Z</time>
                <name>Trackpoint 6420</name>
            </trkpt>
            <trkpt lat="50.0771744" lon="8.5373552">
                <ele>94.0</ele>
                <time>2020-08-30T13:40:53.000Z</time>
                <name>Trackpoint 6421</name>
            </trkpt>
            <trkpt lat="50.0771904" lon="8.5372464">
                <ele>94.0</ele>
                <time>2020-08-30T13:40:55.000Z</time>
                <name>Trackpoint 6422</name>
            </trkpt>
            <trkpt lat="50.0772096" lon="8.5371416">
                <ele>94.0</ele>
                <time>2020-08-30T13:40:57.000Z</time>
                <name>Trackpoint 6423</name>
            </trkpt>
            <trkpt lat="50.0772288" lon="8.537048">
                <ele>94.0</ele>
                <time>2020-08-30T13:40:59.000Z</time>
                <name>Trackpoint 6424</name>
            </trkpt>
            <trkpt lat="50.0772512" lon="8.5369584">
                <ele>94.0</ele>
                <time>2020-08-30T13:41:01.000Z</time>
                <name>Trackpoint 6425</name>
            </trkpt>
            <trkpt lat="50.0772768" lon="8.5368456">
                <ele>94.0</ele>
                <time>2020-08-30T13:41:03.000Z</time>
                <name>Trackpoint 6426</name>
            </trkpt>
            <trkpt lat="50.0773216" lon="8.5367136">
                <ele>94.0</ele>
                <time>2020-08-30T13:41:05.000Z</time>
                <name>Trackpoint 6427</name>
            </trkpt>
            <trkpt lat="50.0773664" lon="8.5365784">
                <ele>94.0</ele>
                <time>2020-08-30T13:41:07.000Z</time>
                <name>Trackpoint 6428</name>
            </trkpt>
            <trkpt lat="50.077424" lon="8.5364488">
                <ele>94.0</ele>
                <time>2020-08-30T13:41:09.000Z</time>
                <name>Trackpoint 6429</name>
            </trkpt>
            <trkpt lat="50.0774752" lon="8.5363232">
                <ele>94.0</ele>
                <time>2020-08-30T13:41:11.000Z</time>
                <name>Trackpoint 6430</name>
            </trkpt>
            <trkpt lat="50.0775456" lon="8.536208">
                <ele>94.0</ele>
                <time>2020-08-30T13:41:13.000Z</time>
                <name>Trackpoint 6431</name>
            </trkpt>
            <trkpt lat="50.0776096" lon="8.5361032">
                <ele>94.0</ele>
                <time>2020-08-30T13:41:15.000Z</time>
                <name>Trackpoint 6432</name>
            </trkpt>
            <trkpt lat="50.077664" lon="8.5360032">
                <ele>93.0</ele>
                <time>2020-08-30T13:41:17.000Z</time>
                <name>Trackpoint 6433</name>
            </trkpt>
            <trkpt lat="50.0777248" lon="8.53592">
                <ele>93.0</ele>
                <time>2020-08-30T13:41:19.000Z</time>
                <name>Trackpoint 6434</name>
            </trkpt>
            <trkpt lat="50.077792" lon="8.53584">
                <ele>94.0</ele>
                <time>2020-08-30T13:41:21.000Z</time>
                <name>Trackpoint 6435</name>
            </trkpt>
            <trkpt lat="50.0778624" lon="8.5357568">
                <ele>93.0</ele>
                <time>2020-08-30T13:41:23.000Z</time>
                <name>Trackpoint 6436</name>
            </trkpt>
            <trkpt lat="50.0779328" lon="8.5356728">
                <ele>93.0</ele>
                <time>2020-08-30T13:41:25.000Z</time>
                <name>Trackpoint 6437</name>
            </trkpt>
            <trkpt lat="50.0780064" lon="8.5355856">
                <ele>93.0</ele>
                <time>2020-08-30T13:41:27.000Z</time>
                <name>Trackpoint 6438</name>
            </trkpt>
            <trkpt lat="50.0780896" lon="8.5354792">
                <ele>93.0</ele>
                <time>2020-08-30T13:41:29.000Z</time>
                <name>Trackpoint 6439</name>
            </trkpt>
            <trkpt lat="50.07816" lon="8.5353744">
                <ele>93.0</ele>
                <time>2020-08-30T13:41:31.000Z</time>
                <name>Trackpoint 6440</name>
            </trkpt>
            <trkpt lat="50.0782272" lon="8.5352648">
                <ele>92.0</ele>
                <time>2020-08-30T13:41:33.000Z</time>
                <name>Trackpoint 6441</name>
            </trkpt>
            <trkpt lat="50.078288" lon="8.5351584">
                <ele>92.0</ele>
                <time>2020-08-30T13:41:35.000Z</time>
                <name>Trackpoint 6442</name>
            </trkpt>
            <trkpt lat="50.0783424" lon="8.5350464">
                <ele>92.0</ele>
                <time>2020-08-30T13:41:37.000Z</time>
                <name>Trackpoint 6443</name>
            </trkpt>
            <trkpt lat="50.0783872" lon="8.5349352">
                <ele>92.0</ele>
                <time>2020-08-30T13:41:39.000Z</time>
                <name>Trackpoint 6444</name>
            </trkpt>
            <trkpt lat="50.0784288" lon="8.5348168">
                <ele>92.0</ele>
                <time>2020-08-30T13:41:41.000Z</time>
                <name>Trackpoint 6445</name>
            </trkpt>
            <trkpt lat="50.0784672" lon="8.5346832">
                <ele>93.0</ele>
                <time>2020-08-30T13:41:43.000Z</time>
                <name>Trackpoint 6446</name>
            </trkpt>
            <trkpt lat="50.0785088" lon="8.5345448">
                <ele>93.0</ele>
                <time>2020-08-30T13:41:45.000Z</time>
                <name>Trackpoint 6447</name>
            </trkpt>
            <trkpt lat="50.0785408" lon="8.534404">
                <ele>93.0</ele>
                <time>2020-08-30T13:41:47.000Z</time>
                <name>Trackpoint 6448</name>
            </trkpt>
            <trkpt lat="50.078576" lon="8.534268">
                <ele>93.0</ele>
                <time>2020-08-30T13:41:49.000Z</time>
                <name>Trackpoint 6449</name>
            </trkpt>
            <trkpt lat="50.0785888" lon="8.5341352">
                <ele>93.0</ele>
                <time>2020-08-30T13:41:51.000Z</time>
                <name>Trackpoint 6450</name>
            </trkpt>
            <trkpt lat="50.078608" lon="8.5340144">
                <ele>93.0</ele>
                <time>2020-08-30T13:41:53.000Z</time>
                <name>Trackpoint 6451</name>
            </trkpt>
            <trkpt lat="50.078624" lon="8.5339032">
                <ele>92.0</ele>
                <time>2020-08-30T13:41:55.000Z</time>
                <name>Trackpoint 6452</name>
            </trkpt>
            <trkpt lat="50.07864" lon="8.5337824">
                <ele>92.0</ele>
                <time>2020-08-30T13:41:57.000Z</time>
                <name>Trackpoint 6453</name>
            </trkpt>
            <trkpt lat="50.0786528" lon="8.5336568">
                <ele>93.0</ele>
                <time>2020-08-30T13:41:59.000Z</time>
                <name>Trackpoint 6454</name>
            </trkpt>
            <trkpt lat="50.0786528" lon="8.5335168">
                <ele>93.0</ele>
                <time>2020-08-30T13:42:01.000Z</time>
                <name>Trackpoint 6455</name>
            </trkpt>
            <trkpt lat="50.078656" lon="8.533368">
                <ele>93.0</ele>
                <time>2020-08-30T13:42:03.000Z</time>
                <name>Trackpoint 6456</name>
            </trkpt>
            <trkpt lat="50.0786624" lon="8.5332072">
                <ele>93.0</ele>
                <time>2020-08-30T13:42:05.000Z</time>
                <name>Trackpoint 6457</name>
            </trkpt>
            <trkpt lat="50.0786624" lon="8.5330384">
                <ele>93.0</ele>
                <time>2020-08-30T13:42:07.000Z</time>
                <name>Trackpoint 6458</name>
            </trkpt>
            <trkpt lat="50.0786656" lon="8.5328664">
                <ele>93.0</ele>
                <time>2020-08-30T13:42:09.000Z</time>
                <name>Trackpoint 6459</name>
            </trkpt>
            <trkpt lat="50.0786592" lon="8.5326984">
                <ele>94.0</ele>
                <time>2020-08-30T13:42:11.000Z</time>
                <name>Trackpoint 6460</name>
            </trkpt>
            <trkpt lat="50.0786528" lon="8.5325248">
                <ele>94.0</ele>
                <time>2020-08-30T13:42:13.000Z</time>
                <name>Trackpoint 6461</name>
            </trkpt>
            <trkpt lat="50.0786464" lon="8.532432">
                <ele>93.0</ele>
                <time>2020-08-30T13:42:14.000Z</time>
                <name>Trackpoint 6462</name>
            </trkpt>
            <trkpt lat="50.0786432" lon="8.5322616">
                <ele>93.0</ele>
                <time>2020-08-30T13:42:16.000Z</time>
                <name>Trackpoint 6463</name>
            </trkpt>
            <trkpt lat="50.0786432" lon="8.5321016">
                <ele>93.0</ele>
                <time>2020-08-30T13:42:18.000Z</time>
                <name>Trackpoint 6464</name>
            </trkpt>
            <trkpt lat="50.0786432" lon="8.531952">
                <ele>93.0</ele>
                <time>2020-08-30T13:42:20.000Z</time>
                <name>Trackpoint 6465</name>
            </trkpt>
            <trkpt lat="50.0786464" lon="8.5317944">
                <ele>93.0</ele>
                <time>2020-08-30T13:42:22.000Z</time>
                <name>Trackpoint 6466</name>
            </trkpt>
            <trkpt lat="50.0786528" lon="8.5316416">
                <ele>93.0</ele>
                <time>2020-08-30T13:42:24.000Z</time>
                <name>Trackpoint 6467</name>
            </trkpt>
            <trkpt lat="50.0786624" lon="8.5314928">
                <ele>93.0</ele>
                <time>2020-08-30T13:42:26.000Z</time>
                <name>Trackpoint 6468</name>
            </trkpt>
            <trkpt lat="50.0786752" lon="8.5313416">
                <ele>93.0</ele>
                <time>2020-08-30T13:42:28.000Z</time>
                <name>Trackpoint 6469</name>
            </trkpt>
            <trkpt lat="50.0786656" lon="8.5311896">
                <ele>93.0</ele>
                <time>2020-08-30T13:42:30.000Z</time>
                <name>Trackpoint 6470</name>
            </trkpt>
            <trkpt lat="50.0786464" lon="8.5310352">
                <ele>94.0</ele>
                <time>2020-08-30T13:42:32.000Z</time>
                <name>Trackpoint 6471</name>
            </trkpt>
            <trkpt lat="50.07864" lon="8.5308848">
                <ele>94.0</ele>
                <time>2020-08-30T13:42:34.000Z</time>
                <name>Trackpoint 6472</name>
            </trkpt>
            <trkpt lat="50.0786272" lon="8.5307232">
                <ele>94.0</ele>
                <time>2020-08-30T13:42:36.000Z</time>
                <name>Trackpoint 6473</name>
            </trkpt>
            <trkpt lat="50.0786048" lon="8.5305584">
                <ele>94.0</ele>
                <time>2020-08-30T13:42:38.000Z</time>
                <name>Trackpoint 6474</name>
            </trkpt>
            <trkpt lat="50.0785856" lon="8.53046">
                <ele>94.0</ele>
                <time>2020-08-30T13:42:39.000Z</time>
                <name>Trackpoint 6475</name>
            </trkpt>
            <trkpt lat="50.0785568" lon="8.5302784">
                <ele>94.0</ele>
                <time>2020-08-30T13:42:41.000Z</time>
                <name>Trackpoint 6476</name>
            </trkpt>
            <trkpt lat="50.078544" lon="8.5301216">
                <ele>94.0</ele>
                <time>2020-08-30T13:42:43.000Z</time>
                <name>Trackpoint 6477</name>
            </trkpt>
            <trkpt lat="50.078528" lon="8.5299528">
                <ele>94.0</ele>
                <time>2020-08-30T13:42:45.000Z</time>
                <name>Trackpoint 6478</name>
            </trkpt>
            <trkpt lat="50.0785152" lon="8.5297936">
                <ele>95.0</ele>
                <time>2020-08-30T13:42:47.000Z</time>
                <name>Trackpoint 6479</name>
            </trkpt>
            <trkpt lat="50.0784992" lon="8.5296248">
                <ele>95.0</ele>
                <time>2020-08-30T13:42:49.000Z</time>
                <name>Trackpoint 6480</name>
            </trkpt>
            <trkpt lat="50.0784832" lon="8.5294616">
                <ele>95.0</ele>
                <time>2020-08-30T13:42:51.000Z</time>
                <name>Trackpoint 6481</name>
            </trkpt>
            <trkpt lat="50.0784672" lon="8.5293056">
                <ele>94.0</ele>
                <time>2020-08-30T13:42:53.000Z</time>
                <name>Trackpoint 6482</name>
            </trkpt>
            <trkpt lat="50.0784576" lon="8.529172">
                <ele>94.0</ele>
                <time>2020-08-30T13:42:55.000Z</time>
                <name>Trackpoint 6483</name>
            </trkpt>
            <trkpt lat="50.0784544" lon="8.5290432">
                <ele>95.0</ele>
                <time>2020-08-30T13:42:57.000Z</time>
                <name>Trackpoint 6484</name>
            </trkpt>
            <trkpt lat="50.0784448" lon="8.5289072">
                <ele>95.0</ele>
                <time>2020-08-30T13:42:59.000Z</time>
                <name>Trackpoint 6485</name>
            </trkpt>
            <trkpt lat="50.0784416" lon="8.5287616">
                <ele>95.0</ele>
                <time>2020-08-30T13:43:01.000Z</time>
                <name>Trackpoint 6486</name>
            </trkpt>
            <trkpt lat="50.0784352" lon="8.528612">
                <ele>95.0</ele>
                <time>2020-08-30T13:43:03.000Z</time>
                <name>Trackpoint 6487</name>
            </trkpt>
            <trkpt lat="50.0784352" lon="8.528468">
                <ele>95.0</ele>
                <time>2020-08-30T13:43:05.000Z</time>
                <name>Trackpoint 6488</name>
            </trkpt>
            <trkpt lat="50.0784384" lon="8.5283216">
                <ele>95.0</ele>
                <time>2020-08-30T13:43:07.000Z</time>
                <name>Trackpoint 6489</name>
            </trkpt>
            <trkpt lat="50.078448" lon="8.5281784">
                <ele>95.0</ele>
                <time>2020-08-30T13:43:09.000Z</time>
                <name>Trackpoint 6490</name>
            </trkpt>
            <trkpt lat="50.0784736" lon="8.52804">
                <ele>95.0</ele>
                <time>2020-08-30T13:43:11.000Z</time>
                <name>Trackpoint 6491</name>
            </trkpt>
            <trkpt lat="50.0784992" lon="8.5279176">
                <ele>95.0</ele>
                <time>2020-08-30T13:43:13.000Z</time>
                <name>Trackpoint 6492</name>
            </trkpt>
            <trkpt lat="50.0785216" lon="8.5277968">
                <ele>96.0</ele>
                <time>2020-08-30T13:43:15.000Z</time>
                <name>Trackpoint 6493</name>
            </trkpt>
            <trkpt lat="50.0785536" lon="8.5276816">
                <ele>96.0</ele>
                <time>2020-08-30T13:43:17.000Z</time>
                <name>Trackpoint 6494</name>
            </trkpt>
            <trkpt lat="50.0785824" lon="8.5275736">
                <ele>96.0</ele>
                <time>2020-08-30T13:43:19.000Z</time>
                <name>Trackpoint 6495</name>
            </trkpt>
            <trkpt lat="50.0786176" lon="8.5274848">
                <ele>97.0</ele>
                <time>2020-08-30T13:43:21.000Z</time>
                <name>Trackpoint 6496</name>
            </trkpt>
            <trkpt lat="50.0786624" lon="8.5273896">
                <ele>97.0</ele>
                <time>2020-08-30T13:43:24.000Z</time>
                <name>Trackpoint 6497</name>
            </trkpt>
            <trkpt lat="50.0787232" lon="8.5272704">
                <ele>97.0</ele>
                <time>2020-08-30T13:43:45.000Z</time>
                <name>Trackpoint 6498</name>
            </trkpt>
            <trkpt lat="50.0787616" lon="8.5271664">
                <ele>97.0</ele>
                <time>2020-08-30T13:43:47.000Z</time>
                <name>Trackpoint 6499</name>
            </trkpt>
            <trkpt lat="50.0788032" lon="8.5270568">
                <ele>97.0</ele>
                <time>2020-08-30T13:43:49.000Z</time>
                <name>Trackpoint 6500</name>
            </trkpt>
            <trkpt lat="50.0788512" lon="8.5269416">
                <ele>98.0</ele>
                <time>2020-08-30T13:43:51.000Z</time>
                <name>Trackpoint 6501</name>
            </trkpt>
            <trkpt lat="50.0789024" lon="8.5268232">
                <ele>98.0</ele>
                <time>2020-08-30T13:43:53.000Z</time>
                <name>Trackpoint 6502</name>
            </trkpt>
            <trkpt lat="50.0789568" lon="8.5267048">
                <ele>98.0</ele>
                <time>2020-08-30T13:43:55.000Z</time>
                <name>Trackpoint 6503</name>
            </trkpt>
            <trkpt lat="50.0790048" lon="8.5265848">
                <ele>98.0</ele>
                <time>2020-08-30T13:43:57.000Z</time>
                <name>Trackpoint 6504</name>
            </trkpt>
            <trkpt lat="50.0790528" lon="8.5264728">
                <ele>97.0</ele>
                <time>2020-08-30T13:43:59.000Z</time>
                <name>Trackpoint 6505</name>
            </trkpt>
            <trkpt lat="50.0791008" lon="8.5263656">
                <ele>97.0</ele>
                <time>2020-08-30T13:44:01.000Z</time>
                <name>Trackpoint 6506</name>
            </trkpt>
            <trkpt lat="50.0791488" lon="8.5262536">
                <ele>97.0</ele>
                <time>2020-08-30T13:44:03.000Z</time>
                <name>Trackpoint 6507</name>
            </trkpt>
            <trkpt lat="50.0791968" lon="8.5261384">
                <ele>97.0</ele>
                <time>2020-08-30T13:44:05.000Z</time>
                <name>Trackpoint 6508</name>
            </trkpt>
            <trkpt lat="50.079248" lon="8.526016">
                <ele>97.0</ele>
                <time>2020-08-30T13:44:07.000Z</time>
                <name>Trackpoint 6509</name>
            </trkpt>
            <trkpt lat="50.0792896" lon="8.5258968">
                <ele>97.0</ele>
                <time>2020-08-30T13:44:09.000Z</time>
                <name>Trackpoint 6510</name>
            </trkpt>
            <trkpt lat="50.0793472" lon="8.5257816">
                <ele>97.0</ele>
                <time>2020-08-30T13:44:11.000Z</time>
                <name>Trackpoint 6511</name>
            </trkpt>
            <trkpt lat="50.079392" lon="8.5256656">
                <ele>97.0</ele>
                <time>2020-08-30T13:44:13.000Z</time>
                <name>Trackpoint 6512</name>
            </trkpt>
            <trkpt lat="50.0794336" lon="8.5255616">
                <ele>97.0</ele>
                <time>2020-08-30T13:44:15.000Z</time>
                <name>Trackpoint 6513</name>
            </trkpt>
            <trkpt lat="50.0794752" lon="8.5254672">
                <ele>97.0</ele>
                <time>2020-08-30T13:44:17.000Z</time>
                <name>Trackpoint 6514</name>
            </trkpt>
            <trkpt lat="50.0795264" lon="8.5253488">
                <ele>97.0</ele>
                <time>2020-08-30T13:44:20.000Z</time>
                <name>Trackpoint 6515</name>
            </trkpt>
            <trkpt lat="50.0795744" lon="8.5252264">
                <ele>97.0</ele>
                <time>2020-08-30T13:44:23.000Z</time>
                <name>Trackpoint 6516</name>
            </trkpt>
            <trkpt lat="50.0796064" lon="8.5251328">
                <ele>97.0</ele>
                <time>2020-08-30T13:44:25.000Z</time>
                <name>Trackpoint 6517</name>
            </trkpt>
            <trkpt lat="50.0796448" lon="8.5250328">
                <ele>97.0</ele>
                <time>2020-08-30T13:44:27.000Z</time>
                <name>Trackpoint 6518</name>
            </trkpt>
            <trkpt lat="50.0796864" lon="8.5249328">
                <ele>97.0</ele>
                <time>2020-08-30T13:44:29.000Z</time>
                <name>Trackpoint 6519</name>
            </trkpt>
            <trkpt lat="50.079728" lon="8.524832">
                <ele>98.0</ele>
                <time>2020-08-30T13:44:31.000Z</time>
                <name>Trackpoint 6520</name>
            </trkpt>
            <trkpt lat="50.079776" lon="8.5247296">
                <ele>98.0</ele>
                <time>2020-08-30T13:44:33.000Z</time>
                <name>Trackpoint 6521</name>
            </trkpt>
            <trkpt lat="50.0798176" lon="8.5246264">
                <ele>99.0</ele>
                <time>2020-08-30T13:44:35.000Z</time>
                <name>Trackpoint 6522</name>
            </trkpt>
            <trkpt lat="50.079856" lon="8.5245368">
                <ele>99.0</ele>
                <time>2020-08-30T13:44:37.000Z</time>
                <name>Trackpoint 6523</name>
            </trkpt>
            <trkpt lat="50.0798848" lon="8.5244512">
                <ele>98.0</ele>
                <time>2020-08-30T13:44:39.000Z</time>
                <name>Trackpoint 6524</name>
            </trkpt>
            <trkpt lat="50.0799168" lon="8.5243432">
                <ele>99.0</ele>
                <time>2020-08-30T13:44:42.000Z</time>
                <name>Trackpoint 6525</name>
            </trkpt>
            <trkpt lat="50.0799328" lon="8.5242256">
                <ele>100.0</ele>
                <time>2020-08-30T13:44:46.000Z</time>
                <name>Trackpoint 6526</name>
            </trkpt>
            <trkpt lat="50.0799648" lon="8.524128">
                <ele>101.0</ele>
                <time>2020-08-30T13:45:38.000Z</time>
                <name>Trackpoint 6527</name>
            </trkpt>
            <trkpt lat="50.0800352" lon="8.5240248">
                <ele>100.0</ele>
                <time>2020-08-30T13:45:42.000Z</time>
                <name>Trackpoint 6528</name>
            </trkpt>
            <trkpt lat="50.0801088" lon="8.5239136">
                <ele>100.0</ele>
                <time>2020-08-30T13:45:45.000Z</time>
                <name>Trackpoint 6529</name>
            </trkpt>
            <trkpt lat="50.0801504" lon="8.5238104">
                <ele>101.0</ele>
                <time>2020-08-30T13:45:47.000Z</time>
                <name>Trackpoint 6530</name>
            </trkpt>
            <trkpt lat="50.0801952" lon="8.5237">
                <ele>101.0</ele>
                <time>2020-08-30T13:45:49.000Z</time>
                <name>Trackpoint 6531</name>
            </trkpt>
            <trkpt lat="50.0802464" lon="8.5235864">
                <ele>101.0</ele>
                <time>2020-08-30T13:45:51.000Z</time>
                <name>Trackpoint 6532</name>
            </trkpt>
            <trkpt lat="50.0802944" lon="8.523468">
                <ele>100.0</ele>
                <time>2020-08-30T13:45:53.000Z</time>
                <name>Trackpoint 6533</name>
            </trkpt>
            <trkpt lat="50.0803488" lon="8.5233488">
                <ele>99.0</ele>
                <time>2020-08-30T13:45:55.000Z</time>
                <name>Trackpoint 6534</name>
            </trkpt>
            <trkpt lat="50.0804032" lon="8.5232296">
                <ele>99.0</ele>
                <time>2020-08-30T13:45:57.000Z</time>
                <name>Trackpoint 6535</name>
            </trkpt>
            <trkpt lat="50.0804544" lon="8.5230976">
                <ele>99.0</ele>
                <time>2020-08-30T13:45:59.000Z</time>
                <name>Trackpoint 6536</name>
            </trkpt>
            <trkpt lat="50.0805184" lon="8.5229704">
                <ele>100.0</ele>
                <time>2020-08-30T13:46:01.000Z</time>
                <name>Trackpoint 6537</name>
            </trkpt>
            <trkpt lat="50.0805696" lon="8.5228344">
                <ele>100.0</ele>
                <time>2020-08-30T13:46:03.000Z</time>
                <name>Trackpoint 6538</name>
            </trkpt>
            <trkpt lat="50.0806272" lon="8.5226984">
                <ele>99.0</ele>
                <time>2020-08-30T13:46:05.000Z</time>
                <name>Trackpoint 6539</name>
            </trkpt>
            <trkpt lat="50.0806816" lon="8.522556">
                <ele>99.0</ele>
                <time>2020-08-30T13:46:07.000Z</time>
                <name>Trackpoint 6540</name>
            </trkpt>
            <trkpt lat="50.0807328" lon="8.5224248">
                <ele>99.0</ele>
                <time>2020-08-30T13:46:09.000Z</time>
                <name>Trackpoint 6541</name>
            </trkpt>
            <trkpt lat="50.0807808" lon="8.5222968">
                <ele>99.0</ele>
                <time>2020-08-30T13:46:11.000Z</time>
                <name>Trackpoint 6542</name>
            </trkpt>
            <trkpt lat="50.0808256" lon="8.5221704">
                <ele>99.0</ele>
                <time>2020-08-30T13:46:13.000Z</time>
                <name>Trackpoint 6543</name>
            </trkpt>
            <trkpt lat="50.0808832" lon="8.5220472">
                <ele>98.0</ele>
                <time>2020-08-30T13:46:15.000Z</time>
                <name>Trackpoint 6544</name>
            </trkpt>
            <trkpt lat="50.080944" lon="8.5219224">
                <ele>98.0</ele>
                <time>2020-08-30T13:46:17.000Z</time>
                <name>Trackpoint 6545</name>
            </trkpt>
            <trkpt lat="50.0809984" lon="8.5217832">
                <ele>98.0</ele>
                <time>2020-08-30T13:46:19.000Z</time>
                <name>Trackpoint 6546</name>
            </trkpt>
            <trkpt lat="50.081056" lon="8.5216448">
                <ele>98.0</ele>
                <time>2020-08-30T13:46:21.000Z</time>
                <name>Trackpoint 6547</name>
            </trkpt>
            <trkpt lat="50.0811104" lon="8.5215032">
                <ele>98.0</ele>
                <time>2020-08-30T13:46:23.000Z</time>
                <name>Trackpoint 6548</name>
            </trkpt>
            <trkpt lat="50.0811776" lon="8.5213672">
                <ele>98.0</ele>
                <time>2020-08-30T13:46:25.000Z</time>
                <name>Trackpoint 6549</name>
            </trkpt>
            <trkpt lat="50.0812416" lon="8.5212232">
                <ele>98.0</ele>
                <time>2020-08-30T13:46:27.000Z</time>
                <name>Trackpoint 6550</name>
            </trkpt>
            <trkpt lat="50.081296" lon="8.5210736">
                <ele>98.0</ele>
                <time>2020-08-30T13:46:29.000Z</time>
                <name>Trackpoint 6551</name>
            </trkpt>
            <trkpt lat="50.0813472" lon="8.5209176">
                <ele>99.0</ele>
                <time>2020-08-30T13:46:31.000Z</time>
                <name>Trackpoint 6552</name>
            </trkpt>
            <trkpt lat="50.0813888" lon="8.5207568">
                <ele>98.0</ele>
                <time>2020-08-30T13:46:33.000Z</time>
                <name>Trackpoint 6553</name>
            </trkpt>
            <trkpt lat="50.08144" lon="8.5205968">
                <ele>98.0</ele>
                <time>2020-08-30T13:46:35.000Z</time>
                <name>Trackpoint 6554</name>
            </trkpt>
            <trkpt lat="50.0814976" lon="8.5204432">
                <ele>98.0</ele>
                <time>2020-08-30T13:46:37.000Z</time>
                <name>Trackpoint 6555</name>
            </trkpt>
            <trkpt lat="50.0815616" lon="8.5202968">
                <ele>98.0</ele>
                <time>2020-08-30T13:46:39.000Z</time>
                <name>Trackpoint 6556</name>
            </trkpt>
            <trkpt lat="50.081632" lon="8.5201568">
                <ele>97.0</ele>
                <time>2020-08-30T13:46:41.000Z</time>
                <name>Trackpoint 6557</name>
            </trkpt>
            <trkpt lat="50.0817024" lon="8.520028">
                <ele>97.0</ele>
                <time>2020-08-30T13:46:43.000Z</time>
                <name>Trackpoint 6558</name>
            </trkpt>
            <trkpt lat="50.081776" lon="8.5199032">
                <ele>96.0</ele>
                <time>2020-08-30T13:46:45.000Z</time>
                <name>Trackpoint 6559</name>
            </trkpt>
            <trkpt lat="50.0818496" lon="8.5197832">
                <ele>95.0</ele>
                <time>2020-08-30T13:46:47.000Z</time>
                <name>Trackpoint 6560</name>
            </trkpt>
            <trkpt lat="50.0819296" lon="8.5196632">
                <ele>95.0</ele>
                <time>2020-08-30T13:46:49.000Z</time>
                <name>Trackpoint 6561</name>
            </trkpt>
            <trkpt lat="50.0820032" lon="8.5195488">
                <ele>94.0</ele>
                <time>2020-08-30T13:46:51.000Z</time>
                <name>Trackpoint 6562</name>
            </trkpt>
            <trkpt lat="50.0820832" lon="8.5194384">
                <ele>95.0</ele>
                <time>2020-08-30T13:46:53.000Z</time>
                <name>Trackpoint 6563</name>
            </trkpt>
            <trkpt lat="50.0821632" lon="8.5193328">
                <ele>96.0</ele>
                <time>2020-08-30T13:46:55.000Z</time>
                <name>Trackpoint 6564</name>
            </trkpt>
            <trkpt lat="50.0822176" lon="8.5192">
                <ele>96.0</ele>
                <time>2020-08-30T13:46:57.000Z</time>
                <name>Trackpoint 6565</name>
            </trkpt>
            <trkpt lat="50.0822368" lon="8.5190584">
                <ele>96.0</ele>
                <time>2020-08-30T13:46:59.000Z</time>
                <name>Trackpoint 6566</name>
            </trkpt>
            <trkpt lat="50.0822112" lon="8.518924">
                <ele>96.0</ele>
                <time>2020-08-30T13:47:01.000Z</time>
                <name>Trackpoint 6567</name>
            </trkpt>
            <trkpt lat="50.0821408" lon="8.5188168">
                <ele>96.0</ele>
                <time>2020-08-30T13:47:03.000Z</time>
                <name>Trackpoint 6568</name>
            </trkpt>
            <trkpt lat="50.0820384" lon="8.5187664">
                <ele>96.0</ele>
                <time>2020-08-30T13:47:05.000Z</time>
                <name>Trackpoint 6569</name>
            </trkpt>
            <trkpt lat="50.0819552" lon="8.5188112">
                <ele>95.0</ele>
                <time>2020-08-30T13:47:07.000Z</time>
                <name>Trackpoint 6570</name>
            </trkpt>
            <trkpt lat="50.0818496" lon="8.5188552">
                <ele>94.0</ele>
                <time>2020-08-30T13:47:10.000Z</time>
                <name>Trackpoint 6571</name>
            </trkpt>
            <trkpt lat="50.08176" lon="8.518904">
                <ele>94.0</ele>
                <time>2020-08-30T13:47:14.000Z</time>
                <name>Trackpoint 6572</name>
            </trkpt>
            <trkpt lat="50.081792" lon="8.5189888">
                <ele>94.0</ele>
                <time>2020-08-30T13:47:18.000Z</time>
                <name>Trackpoint 6573</name>
            </trkpt>
            <trkpt lat="50.0819008" lon="8.5190136">
                <ele>94.0</ele>
                <time>2020-08-30T13:47:22.000Z</time>
                <name>Trackpoint 6574</name>
            </trkpt>
            <trkpt lat="50.0819776" lon="8.5190888">
                <ele>93.0</ele>
                <time>2020-08-30T13:47:25.000Z</time>
                <name>Trackpoint 6575</name>
            </trkpt>
            <trkpt lat="50.0820352" lon="8.5191632">
                <ele>93.0</ele>
                <time>2020-08-30T13:47:28.000Z</time>
                <name>Trackpoint 6576</name>
            </trkpt>
            <trkpt lat="50.082" lon="8.5192568">
                <ele>93.0</ele>
                <time>2020-08-30T13:47:33.000Z</time>
                <name>Trackpoint 6577</name>
            </trkpt>
            <trkpt lat="50.0819296" lon="8.5193456">
                <ele>93.0</ele>
                <time>2020-08-30T13:47:37.000Z</time>
                <name>Trackpoint 6578</name>
            </trkpt>
            <trkpt lat="50.0818752" lon="8.5194256">
                <ele>93.0</ele>
                <time>2020-08-30T13:47:41.000Z</time>
                <name>Trackpoint 6579</name>
            </trkpt>
            <trkpt lat="50.0818208" lon="8.5195152">
                <ele>93.0</ele>
                <time>2020-08-30T13:47:43.000Z</time>
                <name>Trackpoint 6580</name>
            </trkpt>
            <trkpt lat="50.0817536" lon="8.5196136">
                <ele>93.0</ele>
                <time>2020-08-30T13:47:46.000Z</time>
                <name>Trackpoint 6581</name>
            </trkpt>
            <trkpt lat="50.0816928" lon="8.5196816">
                <ele>92.0</ele>
                <time>2020-08-30T13:47:48.000Z</time>
                <name>Trackpoint 6582</name>
            </trkpt>
            <trkpt lat="50.0816128" lon="8.5197784">
                <ele>92.0</ele>
                <time>2020-08-30T13:47:51.000Z</time>
                <name>Trackpoint 6583</name>
            </trkpt>
            <trkpt lat="50.0815328" lon="8.5199184">
                <ele>92.0</ele>
                <time>2020-08-30T13:47:53.000Z</time>
                <name>Trackpoint 6584</name>
            </trkpt>
            <trkpt lat="50.0814784" lon="8.5200304">
                <ele>92.0</ele>
                <time>2020-08-30T13:47:55.000Z</time>
                <name>Trackpoint 6585</name>
            </trkpt>
            <trkpt lat="50.0814368" lon="8.5201304">
                <ele>91.0</ele>
                <time>2020-08-30T13:47:57.000Z</time>
                <name>Trackpoint 6586</name>
            </trkpt>
            <trkpt lat="50.0813952" lon="8.520228">
                <ele>91.0</ele>
                <time>2020-08-30T13:47:59.000Z</time>
                <name>Trackpoint 6587</name>
            </trkpt>
            <trkpt lat="50.0813088" lon="8.5203896">
                <ele>91.0</ele>
                <time>2020-08-30T13:48:01.000Z</time>
                <name>Trackpoint 6588</name>
            </trkpt>
            <trkpt lat="50.0812416" lon="8.5205296">
                <ele>91.0</ele>
                <time>2020-08-30T13:48:03.000Z</time>
                <name>Trackpoint 6589</name>
            </trkpt>
            <trkpt lat="50.0811872" lon="8.5206696">
                <ele>91.0</ele>
                <time>2020-08-30T13:48:05.000Z</time>
                <name>Trackpoint 6590</name>
            </trkpt>
            <trkpt lat="50.0811296" lon="8.5208128">
                <ele>91.0</ele>
                <time>2020-08-30T13:48:07.000Z</time>
                <name>Trackpoint 6591</name>
            </trkpt>
            <trkpt lat="50.0810752" lon="8.5209568">
                <ele>90.0</ele>
                <time>2020-08-30T13:48:09.000Z</time>
                <name>Trackpoint 6592</name>
            </trkpt>
            <trkpt lat="50.0810304" lon="8.5210752">
                <ele>90.0</ele>
                <time>2020-08-30T13:48:11.000Z</time>
                <name>Trackpoint 6593</name>
            </trkpt>
            <trkpt lat="50.0809888" lon="8.5211632">
                <ele>89.0</ele>
                <time>2020-08-30T13:48:13.000Z</time>
                <name>Trackpoint 6594</name>
            </trkpt>
            <trkpt lat="50.0809632" lon="8.521252">
                <ele>89.0</ele>
                <time>2020-08-30T13:48:15.000Z</time>
                <name>Trackpoint 6595</name>
            </trkpt>
            <trkpt lat="50.0809312" lon="8.5213432">
                <ele>89.0</ele>
                <time>2020-08-30T13:48:17.000Z</time>
                <name>Trackpoint 6596</name>
            </trkpt>
            <trkpt lat="50.080896" lon="8.5214344">
                <ele>90.0</ele>
                <time>2020-08-30T13:48:20.000Z</time>
                <name>Trackpoint 6597</name>
            </trkpt>
            <trkpt lat="50.0808608" lon="8.5215264">
                <ele>90.0</ele>
                <time>2020-08-30T13:49:12.000Z</time>
                <name>Trackpoint 6598</name>
            </trkpt>
            <trkpt lat="50.0808192" lon="8.5216376">
                <ele>90.0</ele>
                <time>2020-08-30T13:49:16.000Z</time>
                <name>Trackpoint 6599</name>
            </trkpt>
            <trkpt lat="50.0808032" lon="8.5217264">
                <ele>90.0</ele>
                <time>2020-08-30T13:49:19.000Z</time>
                <name>Trackpoint 6600</name>
            </trkpt>
            <trkpt lat="50.0807584" lon="8.5218248">
                <ele>90.0</ele>
                <time>2020-08-30T13:49:22.000Z</time>
                <name>Trackpoint 6601</name>
            </trkpt>
            <trkpt lat="50.0806336" lon="8.5218432">
                <ele>90.0</ele>
                <time>2020-08-30T13:49:25.000Z</time>
                <name>Trackpoint 6602</name>
            </trkpt>
            <trkpt lat="50.080544" lon="8.5218312">
                <ele>90.0</ele>
                <time>2020-08-30T13:49:27.000Z</time>
                <name>Trackpoint 6603</name>
            </trkpt>
            <trkpt lat="50.0804416" lon="8.5218112">
                <ele>89.0</ele>
                <time>2020-08-30T13:49:29.000Z</time>
                <name>Trackpoint 6604</name>
            </trkpt>
            <trkpt lat="50.0803264" lon="8.5218232">
                <ele>89.0</ele>
                <time>2020-08-30T13:49:31.000Z</time>
                <name>Trackpoint 6605</name>
            </trkpt>
            <trkpt lat="50.0802304" lon="8.5218184">
                <ele>89.0</ele>
                <time>2020-08-30T13:49:33.000Z</time>
                <name>Trackpoint 6606</name>
            </trkpt>
            <trkpt lat="50.0801152" lon="8.5218">
                <ele>89.0</ele>
                <time>2020-08-30T13:49:36.000Z</time>
                <name>Trackpoint 6607</name>
            </trkpt>
            <trkpt lat="50.0800256" lon="8.52178">
                <ele>89.0</ele>
                <time>2020-08-30T13:50:11.000Z</time>
                <name>Trackpoint 6608</name>
            </trkpt>
            <trkpt lat="50.0799328" lon="8.521776">
                <ele>89.0</ele>
                <time>2020-08-30T13:50:14.000Z</time>
                <name>Trackpoint 6609</name>
            </trkpt>
            <trkpt lat="50.0798144" lon="8.5217712">
                <ele>89.0</ele>
                <time>2020-08-30T13:50:17.000Z</time>
                <name>Trackpoint 6610</name>
            </trkpt>
            <trkpt lat="50.0796896" lon="8.521764">
                <ele>88.0</ele>
                <time>2020-08-30T13:50:20.000Z</time>
                <name>Trackpoint 6611</name>
            </trkpt>
            <trkpt lat="50.0796" lon="8.5217552">
                <ele>89.0</ele>
                <time>2020-08-30T13:50:22.000Z</time>
                <name>Trackpoint 6612</name>
            </trkpt>
            <trkpt lat="50.079472" lon="8.5217416">
                <ele>89.0</ele>
                <time>2020-08-30T13:50:25.000Z</time>
                <name>Trackpoint 6613</name>
            </trkpt>
            <trkpt lat="50.0793504" lon="8.5217152">
                <ele>88.0</ele>
                <time>2020-08-30T13:50:28.000Z</time>
                <name>Trackpoint 6614</name>
            </trkpt>
            <trkpt lat="50.0792768" lon="8.5216112">
                <ele>87.0</ele>
                <time>2020-08-30T13:50:31.000Z</time>
                <name>Trackpoint 6615</name>
            </trkpt>
            <trkpt lat="50.0792832" lon="8.5215">
                <ele>87.0</ele>
                <time>2020-08-30T13:50:33.000Z</time>
                <name>Trackpoint 6616</name>
            </trkpt>
            <trkpt lat="50.0792896" lon="8.5213816">
                <ele>87.0</ele>
                <time>2020-08-30T13:50:35.000Z</time>
                <name>Trackpoint 6617</name>
            </trkpt>
            <trkpt lat="50.0792896" lon="8.5212536">
                <ele>87.0</ele>
                <time>2020-08-30T13:50:37.000Z</time>
                <name>Trackpoint 6618</name>
            </trkpt>
            <trkpt lat="50.0792928" lon="8.5211248">
                <ele>88.0</ele>
                <time>2020-08-30T13:50:39.000Z</time>
                <name>Trackpoint 6619</name>
            </trkpt>
            <trkpt lat="50.079296" lon="8.5210048">
                <ele>88.0</ele>
                <time>2020-08-30T13:50:41.000Z</time>
                <name>Trackpoint 6620</name>
            </trkpt>
            <trkpt lat="50.0792992" lon="8.5208976">
                <ele>88.0</ele>
                <time>2020-08-30T13:50:43.000Z</time>
                <name>Trackpoint 6621</name>
            </trkpt>
            <trkpt lat="50.0793024" lon="8.5207752">
                <ele>88.0</ele>
                <time>2020-08-30T13:50:46.000Z</time>
                <name>Trackpoint 6622</name>
            </trkpt>
            <trkpt lat="50.0792352" lon="8.5206968">
                <ele>88.0</ele>
                <time>2020-08-30T13:50:50.000Z</time>
                <name>Trackpoint 6623</name>
            </trkpt>
            <trkpt lat="50.0791232" lon="8.5207032">
                <ele>88.0</ele>
                <time>2020-08-30T13:50:53.000Z</time>
                <name>Trackpoint 6624</name>
            </trkpt>
            <trkpt lat="50.078992" lon="8.5207184">
                <ele>88.0</ele>
                <time>2020-08-30T13:50:56.000Z</time>
                <name>Trackpoint 6625</name>
            </trkpt>
            <trkpt lat="50.0788544" lon="8.5207232">
                <ele>88.0</ele>
                <time>2020-08-30T13:50:59.000Z</time>
                <name>Trackpoint 6626</name>
            </trkpt>
            <trkpt lat="50.0787392" lon="8.5207184">
                <ele>88.0</ele>
                <time>2020-08-30T13:51:02.000Z</time>
                <name>Trackpoint 6627</name>
            </trkpt>
            <trkpt lat="50.0786336" lon="8.5207032">
                <ele>88.0</ele>
                <time>2020-08-30T13:51:07.000Z</time>
                <name>Trackpoint 6628</name>
            </trkpt>
            <trkpt lat="50.0785536" lon="8.5206584">
                <ele>89.0</ele>
                <time>2020-08-30T13:51:34.000Z</time>
                <name>Trackpoint 6629</name>
            </trkpt>
            <trkpt lat="50.0784416" lon="8.520672">
                <ele>89.0</ele>
                <time>2020-08-30T13:51:38.000Z</time>
                <name>Trackpoint 6630</name>
            </trkpt>
            <trkpt lat="50.0783296" lon="8.5206848">
                <ele>89.0</ele>
                <time>2020-08-30T13:51:41.000Z</time>
                <name>Trackpoint 6631</name>
            </trkpt>
            <trkpt lat="50.0781984" lon="8.5207392">
                <ele>89.0</ele>
                <time>2020-08-30T13:51:44.000Z</time>
                <name>Trackpoint 6632</name>
            </trkpt>
            <trkpt lat="50.0780896" lon="8.5207728">
                <ele>89.0</ele>
                <time>2020-08-30T13:51:46.000Z</time>
                <name>Trackpoint 6633</name>
            </trkpt>
            <trkpt lat="50.0779872" lon="8.5207856">
                <ele>89.0</ele>
                <time>2020-08-30T13:51:48.000Z</time>
                <name>Trackpoint 6634</name>
            </trkpt>
            <trkpt lat="50.077872" lon="8.5207984">
                <ele>89.0</ele>
                <time>2020-08-30T13:51:50.000Z</time>
                <name>Trackpoint 6635</name>
            </trkpt>
            <trkpt lat="50.0777696" lon="8.5208128">
                <ele>89.0</ele>
                <time>2020-08-30T13:51:52.000Z</time>
                <name>Trackpoint 6636</name>
            </trkpt>
            <trkpt lat="50.077664" lon="8.520832">
                <ele>89.0</ele>
                <time>2020-08-30T13:51:54.000Z</time>
                <name>Trackpoint 6637</name>
            </trkpt>
            <trkpt lat="50.077552" lon="8.5208368">
                <ele>89.0</ele>
                <time>2020-08-30T13:51:56.000Z</time>
                <name>Trackpoint 6638</name>
            </trkpt>
            <trkpt lat="50.0774464" lon="8.5208504">
                <ele>89.0</ele>
                <time>2020-08-30T13:51:58.000Z</time>
                <name>Trackpoint 6639</name>
            </trkpt>
            <trkpt lat="50.0773376" lon="8.520868">
                <ele>89.0</ele>
                <time>2020-08-30T13:52:00.000Z</time>
                <name>Trackpoint 6640</name>
            </trkpt>
            <trkpt lat="50.0772288" lon="8.5208904">
                <ele>89.0</ele>
                <time>2020-08-30T13:52:02.000Z</time>
                <name>Trackpoint 6641</name>
            </trkpt>
            <trkpt lat="50.0771232" lon="8.5208928">
                <ele>89.0</ele>
                <time>2020-08-30T13:52:04.000Z</time>
                <name>Trackpoint 6642</name>
            </trkpt>
            <trkpt lat="50.077008" lon="8.5209104">
                <ele>89.0</ele>
                <time>2020-08-30T13:52:06.000Z</time>
                <name>Trackpoint 6643</name>
            </trkpt>
            <trkpt lat="50.0768928" lon="8.5209528">
                <ele>89.0</ele>
                <time>2020-08-30T13:52:08.000Z</time>
                <name>Trackpoint 6644</name>
            </trkpt>
            <trkpt lat="50.0767744" lon="8.5209936">
                <ele>89.0</ele>
                <time>2020-08-30T13:52:10.000Z</time>
                <name>Trackpoint 6645</name>
            </trkpt>
            <trkpt lat="50.076656" lon="8.5210248">
                <ele>89.0</ele>
                <time>2020-08-30T13:52:12.000Z</time>
                <name>Trackpoint 6646</name>
            </trkpt>
            <trkpt lat="50.0765376" lon="8.5210696">
                <ele>89.0</ele>
                <time>2020-08-30T13:52:14.000Z</time>
                <name>Trackpoint 6647</name>
            </trkpt>
            <trkpt lat="50.0764192" lon="8.5211048">
                <ele>89.0</ele>
                <time>2020-08-30T13:52:16.000Z</time>
                <name>Trackpoint 6648</name>
            </trkpt>
            <trkpt lat="50.076304" lon="8.5211264">
                <ele>88.0</ele>
                <time>2020-08-30T13:52:18.000Z</time>
                <name>Trackpoint 6649</name>
            </trkpt>
            <trkpt lat="50.0762016" lon="8.5211648">
                <ele>88.0</ele>
                <time>2020-08-30T13:52:20.000Z</time>
                <name>Trackpoint 6650</name>
            </trkpt>
            <trkpt lat="50.0761056" lon="8.5211936">
                <ele>88.0</ele>
                <time>2020-08-30T13:52:22.000Z</time>
                <name>Trackpoint 6651</name>
            </trkpt>
            <trkpt lat="50.076016" lon="8.5212136">
                <ele>88.0</ele>
                <time>2020-08-30T13:52:24.000Z</time>
                <name>Trackpoint 6652</name>
            </trkpt>
            <trkpt lat="50.07592" lon="8.5212336">
                <ele>89.0</ele>
                <time>2020-08-30T13:52:26.000Z</time>
                <name>Trackpoint 6653</name>
            </trkpt>
            <trkpt lat="50.0758208" lon="8.5212616">
                <ele>88.0</ele>
                <time>2020-08-30T13:52:28.000Z</time>
                <name>Trackpoint 6654</name>
            </trkpt>
            <trkpt lat="50.0757216" lon="8.5212768">
                <ele>88.0</ele>
                <time>2020-08-30T13:52:30.000Z</time>
                <name>Trackpoint 6655</name>
            </trkpt>
            <trkpt lat="50.0756192" lon="8.5212968">
                <ele>88.0</ele>
                <time>2020-08-30T13:52:32.000Z</time>
                <name>Trackpoint 6656</name>
            </trkpt>
            <trkpt lat="50.0755168" lon="8.5213168">
                <ele>88.0</ele>
                <time>2020-08-30T13:52:34.000Z</time>
                <name>Trackpoint 6657</name>
            </trkpt>
            <trkpt lat="50.075408" lon="8.5213272">
                <ele>88.0</ele>
                <time>2020-08-30T13:52:36.000Z</time>
                <name>Trackpoint 6658</name>
            </trkpt>
            <trkpt lat="50.0753024" lon="8.5213384">
                <ele>88.0</ele>
                <time>2020-08-30T13:52:38.000Z</time>
                <name>Trackpoint 6659</name>
            </trkpt>
            <trkpt lat="50.0751968" lon="8.5213536">
                <ele>89.0</ele>
                <time>2020-08-30T13:52:40.000Z</time>
                <name>Trackpoint 6660</name>
            </trkpt>
            <trkpt lat="50.0750976" lon="8.5213672">
                <ele>89.0</ele>
                <time>2020-08-30T13:52:42.000Z</time>
                <name>Trackpoint 6661</name>
            </trkpt>
            <trkpt lat="50.0749824" lon="8.5213744">
                <ele>88.0</ele>
                <time>2020-08-30T13:52:44.000Z</time>
                <name>Trackpoint 6662</name>
            </trkpt>
            <trkpt lat="50.0748832" lon="8.5213968">
                <ele>88.0</ele>
                <time>2020-08-30T13:52:46.000Z</time>
                <name>Trackpoint 6663</name>
            </trkpt>
            <trkpt lat="50.0747872" lon="8.5214232">
                <ele>88.0</ele>
                <time>2020-08-30T13:52:48.000Z</time>
                <name>Trackpoint 6664</name>
            </trkpt>
            <trkpt lat="50.0746816" lon="8.521452">
                <ele>88.0</ele>
                <time>2020-08-30T13:52:50.000Z</time>
                <name>Trackpoint 6665</name>
            </trkpt>
            <trkpt lat="50.0745632" lon="8.5214968">
                <ele>88.0</ele>
                <time>2020-08-30T13:52:52.000Z</time>
                <name>Trackpoint 6666</name>
            </trkpt>
            <trkpt lat="50.0744512" lon="8.5215456">
                <ele>89.0</ele>
                <time>2020-08-30T13:52:54.000Z</time>
                <name>Trackpoint 6667</name>
            </trkpt>
            <trkpt lat="50.0743424" lon="8.5215856">
                <ele>90.0</ele>
                <time>2020-08-30T13:52:56.000Z</time>
                <name>Trackpoint 6668</name>
            </trkpt>
            <trkpt lat="50.0742304" lon="8.5216248">
                <ele>90.0</ele>
                <time>2020-08-30T13:52:58.000Z</time>
                <name>Trackpoint 6669</name>
            </trkpt>
            <trkpt lat="50.074112" lon="8.5216736">
                <ele>91.0</ele>
                <time>2020-08-30T13:53:00.000Z</time>
                <name>Trackpoint 6670</name>
            </trkpt>
            <trkpt lat="50.0739968" lon="8.5217168">
                <ele>90.0</ele>
                <time>2020-08-30T13:53:02.000Z</time>
                <name>Trackpoint 6671</name>
            </trkpt>
            <trkpt lat="50.0738816" lon="8.52176">
                <ele>90.0</ele>
                <time>2020-08-30T13:53:04.000Z</time>
                <name>Trackpoint 6672</name>
            </trkpt>
            <trkpt lat="50.0737696" lon="8.5217984">
                <ele>91.0</ele>
                <time>2020-08-30T13:53:06.000Z</time>
                <name>Trackpoint 6673</name>
            </trkpt>
            <trkpt lat="50.0736608" lon="8.5218448">
                <ele>90.0</ele>
                <time>2020-08-30T13:53:08.000Z</time>
                <name>Trackpoint 6674</name>
            </trkpt>
            <trkpt lat="50.073552" lon="8.5218888">
                <ele>90.0</ele>
                <time>2020-08-30T13:53:10.000Z</time>
                <name>Trackpoint 6675</name>
            </trkpt>
            <trkpt lat="50.07344" lon="8.5219384">
                <ele>90.0</ele>
                <time>2020-08-30T13:53:12.000Z</time>
                <name>Trackpoint 6676</name>
            </trkpt>
            <trkpt lat="50.0733376" lon="8.521988">
                <ele>89.0</ele>
                <time>2020-08-30T13:53:14.000Z</time>
                <name>Trackpoint 6677</name>
            </trkpt>
            <trkpt lat="50.0732384" lon="8.5220384">
                <ele>88.0</ele>
                <time>2020-08-30T13:53:16.000Z</time>
                <name>Trackpoint 6678</name>
            </trkpt>
            <trkpt lat="50.0731328" lon="8.522092">
                <ele>88.0</ele>
                <time>2020-08-30T13:53:18.000Z</time>
                <name>Trackpoint 6679</name>
            </trkpt>
            <trkpt lat="50.073024" lon="8.5221528">
                <ele>88.0</ele>
                <time>2020-08-30T13:53:20.000Z</time>
                <name>Trackpoint 6680</name>
            </trkpt>
            <trkpt lat="50.0729216" lon="8.5222168">
                <ele>88.0</ele>
                <time>2020-08-30T13:53:22.000Z</time>
                <name>Trackpoint 6681</name>
            </trkpt>
            <trkpt lat="50.0728192" lon="8.5222864">
                <ele>89.0</ele>
                <time>2020-08-30T13:53:24.000Z</time>
                <name>Trackpoint 6682</name>
            </trkpt>
            <trkpt lat="50.07272" lon="8.5223464">
                <ele>89.0</ele>
                <time>2020-08-30T13:53:26.000Z</time>
                <name>Trackpoint 6683</name>
            </trkpt>
            <trkpt lat="50.0726176" lon="8.5224048">
                <ele>89.0</ele>
                <time>2020-08-30T13:53:28.000Z</time>
                <name>Trackpoint 6684</name>
            </trkpt>
            <trkpt lat="50.0725088" lon="8.5224816">
                <ele>89.0</ele>
                <time>2020-08-30T13:53:30.000Z</time>
                <name>Trackpoint 6685</name>
            </trkpt>
            <trkpt lat="50.0724096" lon="8.5225432">
                <ele>89.0</ele>
                <time>2020-08-30T13:53:32.000Z</time>
                <name>Trackpoint 6686</name>
            </trkpt>
            <trkpt lat="50.0723104" lon="8.5226088">
                <ele>89.0</ele>
                <time>2020-08-30T13:53:34.000Z</time>
                <name>Trackpoint 6687</name>
            </trkpt>
            <trkpt lat="50.0722112" lon="8.522672">
                <ele>89.0</ele>
                <time>2020-08-30T13:53:36.000Z</time>
                <name>Trackpoint 6688</name>
            </trkpt>
            <trkpt lat="50.0721184" lon="8.522732">
                <ele>88.0</ele>
                <time>2020-08-30T13:53:38.000Z</time>
                <name>Trackpoint 6689</name>
            </trkpt>
            <trkpt lat="50.0720192" lon="8.5227944">
                <ele>88.0</ele>
                <time>2020-08-30T13:53:40.000Z</time>
                <name>Trackpoint 6690</name>
            </trkpt>
            <trkpt lat="50.0719328" lon="8.5229">
                <ele>89.0</ele>
                <time>2020-08-30T13:53:42.000Z</time>
                <name>Trackpoint 6691</name>
            </trkpt>
            <trkpt lat="50.0718912" lon="8.5230464">
                <ele>89.0</ele>
                <time>2020-08-30T13:53:44.000Z</time>
                <name>Trackpoint 6692</name>
            </trkpt>
            <trkpt lat="50.0718624" lon="8.5232064">
                <ele>88.0</ele>
                <time>2020-08-30T13:53:46.000Z</time>
                <name>Trackpoint 6693</name>
            </trkpt>
            <trkpt lat="50.0718304" lon="8.523352">
                <ele>88.0</ele>
                <time>2020-08-30T13:53:48.000Z</time>
                <name>Trackpoint 6694</name>
            </trkpt>
            <trkpt lat="50.0717856" lon="8.5234984">
                <ele>88.0</ele>
                <time>2020-08-30T13:53:50.000Z</time>
                <name>Trackpoint 6695</name>
            </trkpt>
            <trkpt lat="50.0717312" lon="8.5236464">
                <ele>88.0</ele>
                <time>2020-08-30T13:53:52.000Z</time>
                <name>Trackpoint 6696</name>
            </trkpt>
            <trkpt lat="50.0716832" lon="8.5237888">
                <ele>88.0</ele>
                <time>2020-08-30T13:53:54.000Z</time>
                <name>Trackpoint 6697</name>
            </trkpt>
            <trkpt lat="50.0716288" lon="8.5239216">
                <ele>88.0</ele>
                <time>2020-08-30T13:53:56.000Z</time>
                <name>Trackpoint 6698</name>
            </trkpt>
            <trkpt lat="50.0715488" lon="8.5240272">
                <ele>87.0</ele>
                <time>2020-08-30T13:53:58.000Z</time>
                <name>Trackpoint 6699</name>
            </trkpt>
            <trkpt lat="50.0714592" lon="8.524108">
                <ele>87.0</ele>
                <time>2020-08-30T13:54:00.000Z</time>
                <name>Trackpoint 6700</name>
            </trkpt>
            <trkpt lat="50.0713696" lon="8.5241872">
                <ele>88.0</ele>
                <time>2020-08-30T13:54:02.000Z</time>
                <name>Trackpoint 6701</name>
            </trkpt>
            <trkpt lat="50.0712704" lon="8.5242544">
                <ele>88.0</ele>
                <time>2020-08-30T13:54:04.000Z</time>
                <name>Trackpoint 6702</name>
            </trkpt>
            <trkpt lat="50.0711616" lon="8.5243128">
                <ele>87.0</ele>
                <time>2020-08-30T13:54:06.000Z</time>
                <name>Trackpoint 6703</name>
            </trkpt>
            <trkpt lat="50.071072" lon="8.5243768">
                <ele>87.0</ele>
                <time>2020-08-30T13:54:08.000Z</time>
                <name>Trackpoint 6704</name>
            </trkpt>
            <trkpt lat="50.0709888" lon="8.5244304">
                <ele>87.0</ele>
                <time>2020-08-30T13:54:10.000Z</time>
                <name>Trackpoint 6705</name>
            </trkpt>
            <trkpt lat="50.0708992" lon="8.5244976">
                <ele>87.0</ele>
                <time>2020-08-30T13:54:12.000Z</time>
                <name>Trackpoint 6706</name>
            </trkpt>
            <trkpt lat="50.0708032" lon="8.5245584">
                <ele>87.0</ele>
                <time>2020-08-30T13:54:14.000Z</time>
                <name>Trackpoint 6707</name>
            </trkpt>
            <trkpt lat="50.0707008" lon="8.524616">
                <ele>87.0</ele>
                <time>2020-08-30T13:54:16.000Z</time>
                <name>Trackpoint 6708</name>
            </trkpt>
            <trkpt lat="50.0706016" lon="8.5246872">
                <ele>87.0</ele>
                <time>2020-08-30T13:54:18.000Z</time>
                <name>Trackpoint 6709</name>
            </trkpt>
            <trkpt lat="50.070512" lon="8.5247568">
                <ele>88.0</ele>
                <time>2020-08-30T13:54:20.000Z</time>
                <name>Trackpoint 6710</name>
            </trkpt>
            <trkpt lat="50.0704192" lon="8.5248248">
                <ele>87.0</ele>
                <time>2020-08-30T13:54:22.000Z</time>
                <name>Trackpoint 6711</name>
            </trkpt>
            <trkpt lat="50.0703232" lon="8.5249056">
                <ele>87.0</ele>
                <time>2020-08-30T13:54:24.000Z</time>
                <name>Trackpoint 6712</name>
            </trkpt>
            <trkpt lat="50.070224" lon="8.5249752">
                <ele>87.0</ele>
                <time>2020-08-30T13:54:26.000Z</time>
                <name>Trackpoint 6713</name>
            </trkpt>
            <trkpt lat="50.0701344" lon="8.52504">
                <ele>87.0</ele>
                <time>2020-08-30T13:54:28.000Z</time>
                <name>Trackpoint 6714</name>
            </trkpt>
            <trkpt lat="50.0700352" lon="8.5251">
                <ele>87.0</ele>
                <time>2020-08-30T13:54:30.000Z</time>
                <name>Trackpoint 6715</name>
            </trkpt>
            <trkpt lat="50.069936" lon="8.5251616">
                <ele>88.0</ele>
                <time>2020-08-30T13:54:32.000Z</time>
                <name>Trackpoint 6716</name>
            </trkpt>
            <trkpt lat="50.069824" lon="8.52522">
                <ele>88.0</ele>
                <time>2020-08-30T13:54:34.000Z</time>
                <name>Trackpoint 6717</name>
            </trkpt>
            <trkpt lat="50.0697216" lon="8.5252704">
                <ele>88.0</ele>
                <time>2020-08-30T13:54:36.000Z</time>
                <name>Trackpoint 6718</name>
            </trkpt>
            <trkpt lat="50.0696192" lon="8.52532">
                <ele>88.0</ele>
                <time>2020-08-30T13:54:38.000Z</time>
                <name>Trackpoint 6719</name>
            </trkpt>
            <trkpt lat="50.0695104" lon="8.5253712">
                <ele>88.0</ele>
                <time>2020-08-30T13:54:40.000Z</time>
                <name>Trackpoint 6720</name>
            </trkpt>
            <trkpt lat="50.069408" lon="8.525416">
                <ele>88.0</ele>
                <time>2020-08-30T13:54:42.000Z</time>
                <name>Trackpoint 6721</name>
            </trkpt>
            <trkpt lat="50.0693088" lon="8.5254568">
                <ele>88.0</ele>
                <time>2020-08-30T13:54:44.000Z</time>
                <name>Trackpoint 6722</name>
            </trkpt>
            <trkpt lat="50.0692" lon="8.5255032">
                <ele>88.0</ele>
                <time>2020-08-30T13:54:46.000Z</time>
                <name>Trackpoint 6723</name>
            </trkpt>
            <trkpt lat="50.0691008" lon="8.525548">
                <ele>88.0</ele>
                <time>2020-08-30T13:54:48.000Z</time>
                <name>Trackpoint 6724</name>
            </trkpt>
            <trkpt lat="50.0690016" lon="8.5255968">
                <ele>88.0</ele>
                <time>2020-08-30T13:54:50.000Z</time>
                <name>Trackpoint 6725</name>
            </trkpt>
            <trkpt lat="50.0689024" lon="8.5256456">
                <ele>88.0</ele>
                <time>2020-08-30T13:54:52.000Z</time>
                <name>Trackpoint 6726</name>
            </trkpt>
            <trkpt lat="50.0687968" lon="8.5256968">
                <ele>88.0</ele>
                <time>2020-08-30T13:54:54.000Z</time>
                <name>Trackpoint 6727</name>
            </trkpt>
            <trkpt lat="50.0686944" lon="8.525752">
                <ele>88.0</ele>
                <time>2020-08-30T13:54:56.000Z</time>
                <name>Trackpoint 6728</name>
            </trkpt>
            <trkpt lat="50.068592" lon="8.5258032">
                <ele>88.0</ele>
                <time>2020-08-30T13:54:58.000Z</time>
                <name>Trackpoint 6729</name>
            </trkpt>
            <trkpt lat="50.0684928" lon="8.5258552">
                <ele>88.0</ele>
                <time>2020-08-30T13:55:00.000Z</time>
                <name>Trackpoint 6730</name>
            </trkpt>
            <trkpt lat="50.0683872" lon="8.5258976">
                <ele>88.0</ele>
                <time>2020-08-30T13:55:02.000Z</time>
                <name>Trackpoint 6731</name>
            </trkpt>
            <trkpt lat="50.0682816" lon="8.5259488">
                <ele>88.0</ele>
                <time>2020-08-30T13:55:04.000Z</time>
                <name>Trackpoint 6732</name>
            </trkpt>
            <trkpt lat="50.0681792" lon="8.5259952">
                <ele>88.0</ele>
                <time>2020-08-30T13:55:06.000Z</time>
                <name>Trackpoint 6733</name>
            </trkpt>
            <trkpt lat="50.0680896" lon="8.5260288">
                <ele>86.0</ele>
                <time>2020-08-30T13:55:45.000Z</time>
                <name>Trackpoint 6734</name>
            </trkpt>
            <trkpt lat="50.067968" lon="8.5260632">
                <ele>86.0</ele>
                <time>2020-08-30T13:55:49.000Z</time>
                <name>Trackpoint 6735</name>
            </trkpt>
            <trkpt lat="50.0678784" lon="8.52608">
                <ele>86.0</ele>
                <time>2020-08-30T13:55:51.000Z</time>
                <name>Trackpoint 6736</name>
            </trkpt>
            <trkpt lat="50.0677824" lon="8.5261">
                <ele>86.0</ele>
                <time>2020-08-30T13:55:53.000Z</time>
                <name>Trackpoint 6737</name>
            </trkpt>
            <trkpt lat="50.0676864" lon="8.5261288">
                <ele>86.0</ele>
                <time>2020-08-30T13:55:55.000Z</time>
                <name>Trackpoint 6738</name>
            </trkpt>
            <trkpt lat="50.0675904" lon="8.5261496">
                <ele>86.0</ele>
                <time>2020-08-30T13:55:57.000Z</time>
                <name>Trackpoint 6739</name>
            </trkpt>
            <trkpt lat="50.0674848" lon="8.5261632">
                <ele>86.0</ele>
                <time>2020-08-30T13:55:59.000Z</time>
                <name>Trackpoint 6740</name>
            </trkpt>
            <trkpt lat="50.0673856" lon="8.5261648">
                <ele>86.0</ele>
                <time>2020-08-30T13:56:01.000Z</time>
                <name>Trackpoint 6741</name>
            </trkpt>
            <trkpt lat="50.0672928" lon="8.5261696">
                <ele>86.0</ele>
                <time>2020-08-30T13:56:03.000Z</time>
                <name>Trackpoint 6742</name>
            </trkpt>
            <trkpt lat="50.0671936" lon="8.5261696">
                <ele>86.0</ele>
                <time>2020-08-30T13:56:05.000Z</time>
                <name>Trackpoint 6743</name>
            </trkpt>
            <trkpt lat="50.0670848" lon="8.5261848">
                <ele>86.0</ele>
                <time>2020-08-30T13:56:07.000Z</time>
                <name>Trackpoint 6744</name>
            </trkpt>
            <trkpt lat="50.0669856" lon="8.5261848">
                <ele>86.0</ele>
                <time>2020-08-30T13:56:09.000Z</time>
                <name>Trackpoint 6745</name>
            </trkpt>
            <trkpt lat="50.0668864" lon="8.5261768">
                <ele>87.0</ele>
                <time>2020-08-30T13:56:11.000Z</time>
                <name>Trackpoint 6746</name>
            </trkpt>
            <trkpt lat="50.0667872" lon="8.526172">
                <ele>87.0</ele>
                <time>2020-08-30T13:56:13.000Z</time>
                <name>Trackpoint 6747</name>
            </trkpt>
            <trkpt lat="50.0666784" lon="8.5261584">
                <ele>87.0</ele>
                <time>2020-08-30T13:56:15.000Z</time>
                <name>Trackpoint 6748</name>
            </trkpt>
            <trkpt lat="50.0665696" lon="8.52614">
                <ele>87.0</ele>
                <time>2020-08-30T13:56:17.000Z</time>
                <name>Trackpoint 6749</name>
            </trkpt>
            <trkpt lat="50.066464" lon="8.5261184">
                <ele>87.0</ele>
                <time>2020-08-30T13:56:19.000Z</time>
                <name>Trackpoint 6750</name>
            </trkpt>
            <trkpt lat="50.0663552" lon="8.5260984">
                <ele>87.0</ele>
                <time>2020-08-30T13:56:21.000Z</time>
                <name>Trackpoint 6751</name>
            </trkpt>
            <trkpt lat="50.0662496" lon="8.5260784">
                <ele>87.0</ele>
                <time>2020-08-30T13:56:23.000Z</time>
                <name>Trackpoint 6752</name>
            </trkpt>
            <trkpt lat="50.066144" lon="8.526056">
                <ele>87.0</ele>
                <time>2020-08-30T13:56:25.000Z</time>
                <name>Trackpoint 6753</name>
            </trkpt>
            <trkpt lat="50.0660416" lon="8.5260152">
                <ele>87.0</ele>
                <time>2020-08-30T13:56:27.000Z</time>
                <name>Trackpoint 6754</name>
            </trkpt>
            <trkpt lat="50.0659488" lon="8.5259488">
                <ele>87.0</ele>
                <time>2020-08-30T13:56:29.000Z</time>
                <name>Trackpoint 6755</name>
            </trkpt>
            <trkpt lat="50.0658688" lon="8.5258576">
                <ele>87.0</ele>
                <time>2020-08-30T13:56:31.000Z</time>
                <name>Trackpoint 6756</name>
            </trkpt>
            <trkpt lat="50.0657952" lon="8.5257456">
                <ele>87.0</ele>
                <time>2020-08-30T13:56:33.000Z</time>
                <name>Trackpoint 6757</name>
            </trkpt>
            <trkpt lat="50.0657088" lon="8.5256456">
                <ele>87.0</ele>
                <time>2020-08-30T13:56:35.000Z</time>
                <name>Trackpoint 6758</name>
            </trkpt>
            <trkpt lat="50.0656064" lon="8.5255816">
                <ele>87.0</ele>
                <time>2020-08-30T13:56:37.000Z</time>
                <name>Trackpoint 6759</name>
            </trkpt>
            <trkpt lat="50.0654944" lon="8.5255384">
                <ele>88.0</ele>
                <time>2020-08-30T13:56:39.000Z</time>
                <name>Trackpoint 6760</name>
            </trkpt>
            <trkpt lat="50.0653824" lon="8.525488">
                <ele>88.0</ele>
                <time>2020-08-30T13:56:41.000Z</time>
                <name>Trackpoint 6761</name>
            </trkpt>
            <trkpt lat="50.0652768" lon="8.5254632">
                <ele>87.0</ele>
                <time>2020-08-30T13:56:43.000Z</time>
                <name>Trackpoint 6762</name>
            </trkpt>
            <trkpt lat="50.0651904" lon="8.5254152">
                <ele>88.0</ele>
                <time>2020-08-30T13:56:45.000Z</time>
                <name>Trackpoint 6763</name>
            </trkpt>
            <trkpt lat="50.0651008" lon="8.5253632">
                <ele>88.0</ele>
                <time>2020-08-30T13:56:47.000Z</time>
                <name>Trackpoint 6764</name>
            </trkpt>
            <trkpt lat="50.0650304" lon="8.5252912">
                <ele>88.0</ele>
                <time>2020-08-30T13:56:49.000Z</time>
                <name>Trackpoint 6765</name>
            </trkpt>
            <trkpt lat="50.0649568" lon="8.5252112">
                <ele>89.0</ele>
                <time>2020-08-30T13:56:51.000Z</time>
                <name>Trackpoint 6766</name>
            </trkpt>
            <trkpt lat="50.064896" lon="8.5251304">
                <ele>89.0</ele>
                <time>2020-08-30T13:56:53.000Z</time>
                <name>Trackpoint 6767</name>
            </trkpt>
            <trkpt lat="50.0648416" lon="8.5250456">
                <ele>89.0</ele>
                <time>2020-08-30T13:56:55.000Z</time>
                <name>Trackpoint 6768</name>
            </trkpt>
            <trkpt lat="50.0648064" lon="8.524932">
                <ele>89.0</ele>
                <time>2020-08-30T13:56:57.000Z</time>
                <name>Trackpoint 6769</name>
            </trkpt>
            <trkpt lat="50.0647776" lon="8.524808">
                <ele>89.0</ele>
                <time>2020-08-30T13:56:59.000Z</time>
                <name>Trackpoint 6770</name>
            </trkpt>
            <trkpt lat="50.0647616" lon="8.52468">
                <ele>89.0</ele>
                <time>2020-08-30T13:57:01.000Z</time>
                <name>Trackpoint 6771</name>
            </trkpt>
            <trkpt lat="50.064752" lon="8.5245384">
                <ele>89.0</ele>
                <time>2020-08-30T13:57:03.000Z</time>
                <name>Trackpoint 6772</name>
            </trkpt>
            <trkpt lat="50.0647424" lon="8.5244016">
                <ele>89.0</ele>
                <time>2020-08-30T13:57:05.000Z</time>
                <name>Trackpoint 6773</name>
            </trkpt>
            <trkpt lat="50.0647328" lon="8.5242616">
                <ele>89.0</ele>
                <time>2020-08-30T13:57:07.000Z</time>
                <name>Trackpoint 6774</name>
            </trkpt>
            <trkpt lat="50.0647232" lon="8.5241232">
                <ele>89.0</ele>
                <time>2020-08-30T13:57:09.000Z</time>
                <name>Trackpoint 6775</name>
            </trkpt>
            <trkpt lat="50.0647232" lon="8.524">
                <ele>89.0</ele>
                <time>2020-08-30T13:57:11.000Z</time>
                <name>Trackpoint 6776</name>
            </trkpt>
            <trkpt lat="50.06472" lon="8.5238688">
                <ele>89.0</ele>
                <time>2020-08-30T13:57:13.000Z</time>
                <name>Trackpoint 6777</name>
            </trkpt>
            <trkpt lat="50.0647232" lon="8.52374">
                <ele>89.0</ele>
                <time>2020-08-30T13:57:15.000Z</time>
                <name>Trackpoint 6778</name>
            </trkpt>
            <trkpt lat="50.064704" lon="8.523612">
                <ele>89.0</ele>
                <time>2020-08-30T13:57:17.000Z</time>
                <name>Trackpoint 6779</name>
            </trkpt>
            <trkpt lat="50.064656" lon="8.523488">
                <ele>89.0</ele>
                <time>2020-08-30T13:57:19.000Z</time>
                <name>Trackpoint 6780</name>
            </trkpt>
            <trkpt lat="50.0645792" lon="8.5234016">
                <ele>89.0</ele>
                <time>2020-08-30T13:57:21.000Z</time>
                <name>Trackpoint 6781</name>
            </trkpt>
            <trkpt lat="50.064496" lon="8.52332">
                <ele>89.0</ele>
                <time>2020-08-30T13:57:23.000Z</time>
                <name>Trackpoint 6782</name>
            </trkpt>
            <trkpt lat="50.0644096" lon="8.5232312">
                <ele>89.0</ele>
                <time>2020-08-30T13:57:25.000Z</time>
                <name>Trackpoint 6783</name>
            </trkpt>
            <trkpt lat="50.064336" lon="8.523124">
                <ele>89.0</ele>
                <time>2020-08-30T13:57:27.000Z</time>
                <name>Trackpoint 6784</name>
            </trkpt>
            <trkpt lat="50.0642592" lon="8.5230016">
                <ele>89.0</ele>
                <time>2020-08-30T13:57:29.000Z</time>
                <name>Trackpoint 6785</name>
            </trkpt>
            <trkpt lat="50.0641824" lon="8.5228784">
                <ele>89.0</ele>
                <time>2020-08-30T13:57:31.000Z</time>
                <name>Trackpoint 6786</name>
            </trkpt>
            <trkpt lat="50.0641152" lon="8.5227536">
                <ele>89.0</ele>
                <time>2020-08-30T13:57:33.000Z</time>
                <name>Trackpoint 6787</name>
            </trkpt>
            <trkpt lat="50.064048" lon="8.522632">
                <ele>89.0</ele>
                <time>2020-08-30T13:57:35.000Z</time>
                <name>Trackpoint 6788</name>
            </trkpt>
            <trkpt lat="50.0639776" lon="8.5225152">
                <ele>89.0</ele>
                <time>2020-08-30T13:57:37.000Z</time>
                <name>Trackpoint 6789</name>
            </trkpt>
            <trkpt lat="50.0639072" lon="8.5223936">
                <ele>89.0</ele>
                <time>2020-08-30T13:57:39.000Z</time>
                <name>Trackpoint 6790</name>
            </trkpt>
            <trkpt lat="50.0638432" lon="8.522268">
                <ele>89.0</ele>
                <time>2020-08-30T13:57:41.000Z</time>
                <name>Trackpoint 6791</name>
            </trkpt>
            <trkpt lat="50.0637664" lon="8.5221552">
                <ele>89.0</ele>
                <time>2020-08-30T13:57:43.000Z</time>
                <name>Trackpoint 6792</name>
            </trkpt>
            <trkpt lat="50.0636896" lon="8.5220472">
                <ele>89.0</ele>
                <time>2020-08-30T13:57:45.000Z</time>
                <name>Trackpoint 6793</name>
            </trkpt>
            <trkpt lat="50.0636096" lon="8.5219296">
                <ele>89.0</ele>
                <time>2020-08-30T13:57:47.000Z</time>
                <name>Trackpoint 6794</name>
            </trkpt>
            <trkpt lat="50.063536" lon="8.5217952">
                <ele>89.0</ele>
                <time>2020-08-30T13:57:49.000Z</time>
                <name>Trackpoint 6795</name>
            </trkpt>
            <trkpt lat="50.063472" lon="8.5216504">
                <ele>89.0</ele>
                <time>2020-08-30T13:57:51.000Z</time>
                <name>Trackpoint 6796</name>
            </trkpt>
            <trkpt lat="50.0634144" lon="8.5215032">
                <ele>89.0</ele>
                <time>2020-08-30T13:57:53.000Z</time>
                <name>Trackpoint 6797</name>
            </trkpt>
            <trkpt lat="50.0633568" lon="8.5213584">
                <ele>89.0</ele>
                <time>2020-08-30T13:57:55.000Z</time>
                <name>Trackpoint 6798</name>
            </trkpt>
            <trkpt lat="50.0633024" lon="8.52122">
                <ele>89.0</ele>
                <time>2020-08-30T13:57:57.000Z</time>
                <name>Trackpoint 6799</name>
            </trkpt>
            <trkpt lat="50.0632416" lon="8.5210888">
                <ele>89.0</ele>
                <time>2020-08-30T13:57:59.000Z</time>
                <name>Trackpoint 6800</name>
            </trkpt>
            <trkpt lat="50.0631872" lon="8.5209504">
                <ele>89.0</ele>
                <time>2020-08-30T13:58:01.000Z</time>
                <name>Trackpoint 6801</name>
            </trkpt>
            <trkpt lat="50.0631424" lon="8.520808">
                <ele>89.0</ele>
                <time>2020-08-30T13:58:03.000Z</time>
                <name>Trackpoint 6802</name>
            </trkpt>
            <trkpt lat="50.0630976" lon="8.5206608">
                <ele>89.0</ele>
                <time>2020-08-30T13:58:05.000Z</time>
                <name>Trackpoint 6803</name>
            </trkpt>
            <trkpt lat="50.063056" lon="8.5205088">
                <ele>89.0</ele>
                <time>2020-08-30T13:58:07.000Z</time>
                <name>Trackpoint 6804</name>
            </trkpt>
            <trkpt lat="50.0630112" lon="8.52036">
                <ele>89.0</ele>
                <time>2020-08-30T13:58:09.000Z</time>
                <name>Trackpoint 6805</name>
            </trkpt>
            <trkpt lat="50.0629664" lon="8.5202104">
                <ele>89.0</ele>
                <time>2020-08-30T13:58:11.000Z</time>
                <name>Trackpoint 6806</name>
            </trkpt>
            <trkpt lat="50.0629248" lon="8.5200592">
                <ele>89.0</ele>
                <time>2020-08-30T13:58:13.000Z</time>
                <name>Trackpoint 6807</name>
            </trkpt>
            <trkpt lat="50.0628736" lon="8.5199168">
                <ele>89.0</ele>
                <time>2020-08-30T13:58:15.000Z</time>
                <name>Trackpoint 6808</name>
            </trkpt>
            <trkpt lat="50.0628192" lon="8.519776">
                <ele>89.0</ele>
                <time>2020-08-30T13:58:17.000Z</time>
                <name>Trackpoint 6809</name>
            </trkpt>
            <trkpt lat="50.062768" lon="8.5196384">
                <ele>89.0</ele>
                <time>2020-08-30T13:58:19.000Z</time>
                <name>Trackpoint 6810</name>
            </trkpt>
            <trkpt lat="50.0627168" lon="8.5194968">
                <ele>89.0</ele>
                <time>2020-08-30T13:58:21.000Z</time>
                <name>Trackpoint 6811</name>
            </trkpt>
            <trkpt lat="50.0626752" lon="8.519352">
                <ele>89.0</ele>
                <time>2020-08-30T13:58:23.000Z</time>
                <name>Trackpoint 6812</name>
            </trkpt>
            <trkpt lat="50.0626368" lon="8.5192168">
                <ele>89.0</ele>
                <time>2020-08-30T13:58:25.000Z</time>
                <name>Trackpoint 6813</name>
            </trkpt>
            <trkpt lat="50.062608" lon="8.51908">
                <ele>88.0</ele>
                <time>2020-08-30T13:58:27.000Z</time>
                <name>Trackpoint 6814</name>
            </trkpt>
            <trkpt lat="50.0625792" lon="8.5189416">
                <ele>88.0</ele>
                <time>2020-08-30T13:58:29.000Z</time>
                <name>Trackpoint 6815</name>
            </trkpt>
            <trkpt lat="50.0625504" lon="8.5187864">
                <ele>88.0</ele>
                <time>2020-08-30T13:58:31.000Z</time>
                <name>Trackpoint 6816</name>
            </trkpt>
            <trkpt lat="50.0625184" lon="8.5186456">
                <ele>88.0</ele>
                <time>2020-08-30T13:58:33.000Z</time>
                <name>Trackpoint 6817</name>
            </trkpt>
            <trkpt lat="50.0624832" lon="8.5185072">
                <ele>88.0</ele>
                <time>2020-08-30T13:58:35.000Z</time>
                <name>Trackpoint 6818</name>
            </trkpt>
            <trkpt lat="50.0624544" lon="8.51838">
                <ele>88.0</ele>
                <time>2020-08-30T13:58:37.000Z</time>
                <name>Trackpoint 6819</name>
            </trkpt>
            <trkpt lat="50.0624224" lon="8.5182416">
                <ele>88.0</ele>
                <time>2020-08-30T13:58:39.000Z</time>
                <name>Trackpoint 6820</name>
            </trkpt>
            <trkpt lat="50.0623936" lon="8.5181064">
                <ele>88.0</ele>
                <time>2020-08-30T13:58:41.000Z</time>
                <name>Trackpoint 6821</name>
            </trkpt>
            <trkpt lat="50.062368" lon="8.517972">
                <ele>87.0</ele>
                <time>2020-08-30T13:58:43.000Z</time>
                <name>Trackpoint 6822</name>
            </trkpt>
            <trkpt lat="50.0623296" lon="8.5178416">
                <ele>87.0</ele>
                <time>2020-08-30T13:58:45.000Z</time>
                <name>Trackpoint 6823</name>
            </trkpt>
            <trkpt lat="50.0622912" lon="8.517712">
                <ele>87.0</ele>
                <time>2020-08-30T13:58:47.000Z</time>
                <name>Trackpoint 6824</name>
            </trkpt>
            <trkpt lat="50.06224" lon="8.5175752">
                <ele>87.0</ele>
                <time>2020-08-30T13:58:49.000Z</time>
                <name>Trackpoint 6825</name>
            </trkpt>
            <trkpt lat="50.0621984" lon="8.5174576">
                <ele>87.0</ele>
                <time>2020-08-30T13:58:51.000Z</time>
                <name>Trackpoint 6826</name>
            </trkpt>
            <trkpt lat="50.062144" lon="8.5173184">
                <ele>87.0</ele>
                <time>2020-08-30T13:58:53.000Z</time>
                <name>Trackpoint 6827</name>
            </trkpt>
            <trkpt lat="50.0620992" lon="8.5171936">
                <ele>87.0</ele>
                <time>2020-08-30T13:58:55.000Z</time>
                <name>Trackpoint 6828</name>
            </trkpt>
            <trkpt lat="50.0620416" lon="8.5170784">
                <ele>88.0</ele>
                <time>2020-08-30T13:58:57.000Z</time>
                <name>Trackpoint 6829</name>
            </trkpt>
            <trkpt lat="50.0619744" lon="8.5169336">
                <ele>87.0</ele>
                <time>2020-08-30T13:58:59.000Z</time>
                <name>Trackpoint 6830</name>
            </trkpt>
            <trkpt lat="50.0619232" lon="8.5168288">
                <ele>87.0</ele>
                <time>2020-08-30T13:59:01.000Z</time>
                <name>Trackpoint 6831</name>
            </trkpt>
            <trkpt lat="50.0618656" lon="8.5167176">
                <ele>87.0</ele>
                <time>2020-08-30T13:59:03.000Z</time>
                <name>Trackpoint 6832</name>
            </trkpt>
            <trkpt lat="50.0618016" lon="8.5166128">
                <ele>87.0</ele>
                <time>2020-08-30T13:59:05.000Z</time>
                <name>Trackpoint 6833</name>
            </trkpt>
            <trkpt lat="50.0617376" lon="8.5165056">
                <ele>87.0</ele>
                <time>2020-08-30T13:59:07.000Z</time>
                <name>Trackpoint 6834</name>
            </trkpt>
            <trkpt lat="50.0616768" lon="8.5163984">
                <ele>87.0</ele>
                <time>2020-08-30T13:59:09.000Z</time>
                <name>Trackpoint 6835</name>
            </trkpt>
            <trkpt lat="50.0616096" lon="8.5162824">
                <ele>87.0</ele>
                <time>2020-08-30T13:59:11.000Z</time>
                <name>Trackpoint 6836</name>
            </trkpt>
            <trkpt lat="50.061536" lon="8.5161536">
                <ele>86.0</ele>
                <time>2020-08-30T13:59:13.000Z</time>
                <name>Trackpoint 6837</name>
            </trkpt>
            <trkpt lat="50.0614688" lon="8.5160448">
                <ele>86.0</ele>
                <time>2020-08-30T13:59:15.000Z</time>
                <name>Trackpoint 6838</name>
            </trkpt>
            <trkpt lat="50.0613952" lon="8.5159264">
                <ele>86.0</ele>
                <time>2020-08-30T13:59:17.000Z</time>
                <name>Trackpoint 6839</name>
            </trkpt>
            <trkpt lat="50.0613248" lon="8.515808">
                <ele>87.0</ele>
                <time>2020-08-30T13:59:19.000Z</time>
                <name>Trackpoint 6840</name>
            </trkpt>
            <trkpt lat="50.0612512" lon="8.515692">
                <ele>87.0</ele>
                <time>2020-08-30T13:59:21.000Z</time>
                <name>Trackpoint 6841</name>
            </trkpt>
            <trkpt lat="50.0611808" lon="8.5156">
                <ele>87.0</ele>
                <time>2020-08-30T13:59:23.000Z</time>
                <name>Trackpoint 6842</name>
            </trkpt>
            <trkpt lat="50.0611072" lon="8.5155">
                <ele>88.0</ele>
                <time>2020-08-30T13:59:25.000Z</time>
                <name>Trackpoint 6843</name>
            </trkpt>
            <trkpt lat="50.0610304" lon="8.515384">
                <ele>88.0</ele>
                <time>2020-08-30T13:59:27.000Z</time>
                <name>Trackpoint 6844</name>
            </trkpt>
            <trkpt lat="50.0609536" lon="8.5152816">
                <ele>88.0</ele>
                <time>2020-08-30T13:59:29.000Z</time>
                <name>Trackpoint 6845</name>
            </trkpt>
            <trkpt lat="50.0608896" lon="8.5151968">
                <ele>87.0</ele>
                <time>2020-08-30T13:59:31.000Z</time>
                <name>Trackpoint 6846</name>
            </trkpt>
            <trkpt lat="50.0608288" lon="8.5151192">
                <ele>87.0</ele>
                <time>2020-08-30T13:59:33.000Z</time>
                <name>Trackpoint 6847</name>
            </trkpt>
            <trkpt lat="50.0607712" lon="8.5150448">
                <ele>88.0</ele>
                <time>2020-08-30T13:59:35.000Z</time>
                <name>Trackpoint 6848</name>
            </trkpt>
            <trkpt lat="50.0607136" lon="8.5149696">
                <ele>87.0</ele>
                <time>2020-08-30T13:59:37.000Z</time>
                <name>Trackpoint 6849</name>
            </trkpt>
            <trkpt lat="50.0606496" lon="8.5148888">
                <ele>88.0</ele>
                <time>2020-08-30T13:59:39.000Z</time>
                <name>Trackpoint 6850</name>
            </trkpt>
            <trkpt lat="50.0605856" lon="8.5148016">
                <ele>87.0</ele>
                <time>2020-08-30T13:59:41.000Z</time>
                <name>Trackpoint 6851</name>
            </trkpt>
            <trkpt lat="50.0605216" lon="8.514724">
                <ele>87.0</ele>
                <time>2020-08-30T13:59:43.000Z</time>
                <name>Trackpoint 6852</name>
            </trkpt>
            <trkpt lat="50.0604416" lon="8.5146176">
                <ele>87.0</ele>
                <time>2020-08-30T13:59:46.000Z</time>
                <name>Trackpoint 6853</name>
            </trkpt>
            <trkpt lat="50.0603776" lon="8.51454">
                <ele>87.0</ele>
                <time>2020-08-30T13:59:48.000Z</time>
                <name>Trackpoint 6854</name>
            </trkpt>
            <trkpt lat="50.0603072" lon="8.514452">
                <ele>87.0</ele>
                <time>2020-08-30T13:59:50.000Z</time>
                <name>Trackpoint 6855</name>
            </trkpt>
            <trkpt lat="50.0602336" lon="8.5143584">
                <ele>88.0</ele>
                <time>2020-08-30T13:59:52.000Z</time>
                <name>Trackpoint 6856</name>
            </trkpt>
            <trkpt lat="50.0601504" lon="8.514252">
                <ele>88.0</ele>
                <time>2020-08-30T13:59:54.000Z</time>
                <name>Trackpoint 6857</name>
            </trkpt>
            <trkpt lat="50.0600768" lon="8.5141648">
                <ele>88.0</ele>
                <time>2020-08-30T13:59:56.000Z</time>
                <name>Trackpoint 6858</name>
            </trkpt>
            <trkpt lat="50.0600096" lon="8.5140864">
                <ele>87.0</ele>
                <time>2020-08-30T13:59:58.000Z</time>
                <name>Trackpoint 6859</name>
            </trkpt>
            <trkpt lat="50.0599392" lon="8.514004">
                <ele>88.0</ele>
                <time>2020-08-30T14:00:00.000Z</time>
                <name>Trackpoint 6860</name>
            </trkpt>
            <trkpt lat="50.0598816" lon="8.51392">
                <ele>88.0</ele>
                <time>2020-08-30T14:00:02.000Z</time>
                <name>Trackpoint 6861</name>
            </trkpt>
            <trkpt lat="50.0598176" lon="8.513828">
                <ele>88.0</ele>
                <time>2020-08-30T14:00:04.000Z</time>
                <name>Trackpoint 6862</name>
            </trkpt>
            <trkpt lat="50.0597536" lon="8.5137144">
                <ele>88.0</ele>
                <time>2020-08-30T14:00:06.000Z</time>
                <name>Trackpoint 6863</name>
            </trkpt>
            <trkpt lat="50.0596832" lon="8.513612">
                <ele>88.0</ele>
                <time>2020-08-30T14:00:08.000Z</time>
                <name>Trackpoint 6864</name>
            </trkpt>
            <trkpt lat="50.059616" lon="8.5135088">
                <ele>88.0</ele>
                <time>2020-08-30T14:00:10.000Z</time>
                <name>Trackpoint 6865</name>
            </trkpt>
            <trkpt lat="50.0595552" lon="8.513416">
                <ele>88.0</ele>
                <time>2020-08-30T14:00:12.000Z</time>
                <name>Trackpoint 6866</name>
            </trkpt>
            <trkpt lat="50.059472" lon="8.5132888">
                <ele>87.0</ele>
                <time>2020-08-30T14:00:14.000Z</time>
                <name>Trackpoint 6867</name>
            </trkpt>
            <trkpt lat="50.0593952" lon="8.5131712">
                <ele>87.0</ele>
                <time>2020-08-30T14:00:16.000Z</time>
                <name>Trackpoint 6868</name>
            </trkpt>
            <trkpt lat="50.0593184" lon="8.5130616">
                <ele>87.0</ele>
                <time>2020-08-30T14:00:18.000Z</time>
                <name>Trackpoint 6869</name>
            </trkpt>
            <trkpt lat="50.0592416" lon="8.5129472">
                <ele>87.0</ele>
                <time>2020-08-30T14:00:20.000Z</time>
                <name>Trackpoint 6870</name>
            </trkpt>
            <trkpt lat="50.0591712" lon="8.5128416">
                <ele>86.0</ele>
                <time>2020-08-30T14:00:22.000Z</time>
                <name>Trackpoint 6871</name>
            </trkpt>
            <trkpt lat="50.059104" lon="8.512736">
                <ele>87.0</ele>
                <time>2020-08-30T14:00:24.000Z</time>
                <name>Trackpoint 6872</name>
            </trkpt>
            <trkpt lat="50.0590368" lon="8.5126368">
                <ele>86.0</ele>
                <time>2020-08-30T14:00:26.000Z</time>
                <name>Trackpoint 6873</name>
            </trkpt>
            <trkpt lat="50.05896" lon="8.5125288">
                <ele>84.0</ele>
                <time>2020-08-30T14:00:28.000Z</time>
                <name>Trackpoint 6874</name>
            </trkpt>
            <trkpt lat="50.0588864" lon="8.5124184">
                <ele>83.0</ele>
                <time>2020-08-30T14:00:30.000Z</time>
                <name>Trackpoint 6875</name>
            </trkpt>
            <trkpt lat="50.0588096" lon="8.5122992">
                <ele>83.0</ele>
                <time>2020-08-30T14:00:32.000Z</time>
                <name>Trackpoint 6876</name>
            </trkpt>
            <trkpt lat="50.0587296" lon="8.5121736">
                <ele>85.0</ele>
                <time>2020-08-30T14:00:34.000Z</time>
                <name>Trackpoint 6877</name>
            </trkpt>
            <trkpt lat="50.0586688" lon="8.5120496">
                <ele>84.0</ele>
                <time>2020-08-30T14:00:36.000Z</time>
                <name>Trackpoint 6878</name>
            </trkpt>
            <trkpt lat="50.0585952" lon="8.5119304">
                <ele>84.0</ele>
                <time>2020-08-30T14:00:38.000Z</time>
                <name>Trackpoint 6879</name>
            </trkpt>
            <trkpt lat="50.0585248" lon="8.5117928">
                <ele>86.0</ele>
                <time>2020-08-30T14:00:40.000Z</time>
                <name>Trackpoint 6880</name>
            </trkpt>
            <trkpt lat="50.058464" lon="8.5116856">
                <ele>85.0</ele>
                <time>2020-08-30T14:00:42.000Z</time>
                <name>Trackpoint 6881</name>
            </trkpt>
            <trkpt lat="50.0583904" lon="8.5115672">
                <ele>86.0</ele>
                <time>2020-08-30T14:00:44.000Z</time>
                <name>Trackpoint 6882</name>
            </trkpt>
            <trkpt lat="50.0583328" lon="8.5114536">
                <ele>86.0</ele>
                <time>2020-08-30T14:00:46.000Z</time>
                <name>Trackpoint 6883</name>
            </trkpt>
            <trkpt lat="50.0583104" lon="8.5113384">
                <ele>87.0</ele>
                <time>2020-08-30T14:00:48.000Z</time>
                <name>Trackpoint 6884</name>
            </trkpt>
            <trkpt lat="50.058304" lon="8.5112288">
                <ele>86.0</ele>
                <time>2020-08-30T14:00:51.000Z</time>
                <name>Trackpoint 6885</name>
            </trkpt>
            <trkpt lat="50.0583104" lon="8.5111352">
                <ele>87.0</ele>
                <time>2020-08-30T14:00:54.000Z</time>
                <name>Trackpoint 6886</name>
            </trkpt>
            <trkpt lat="50.0582688" lon="8.5112168">
                <ele>87.0</ele>
                <time>2020-08-30T14:01:06.000Z</time>
                <name>Trackpoint 6887</name>
            </trkpt>
            <trkpt lat="50.0582336" lon="8.5113">
                <ele>87.0</ele>
                <time>2020-08-30T14:01:09.000Z</time>
                <name>Trackpoint 6888</name>
            </trkpt>
            <trkpt lat="50.0582656" lon="8.5111864">
                <ele>87.0</ele>
                <time>2020-08-30T14:01:56.000Z</time>
                <name>Trackpoint 6889</name>
            </trkpt>
            <trkpt lat="50.0583008" lon="8.5110928">
                <ele>87.0</ele>
                <time>2020-08-30T14:01:58.000Z</time>
                <name>Trackpoint 6890</name>
            </trkpt>
            <trkpt lat="50.0583424" lon="8.5109984">
                <ele>86.0</ele>
                <time>2020-08-30T14:02:00.000Z</time>
                <name>Trackpoint 6891</name>
            </trkpt>
            <trkpt lat="50.0584096" lon="8.5109216">
                <ele>86.0</ele>
                <time>2020-08-30T14:02:02.000Z</time>
                <name>Trackpoint 6892</name>
            </trkpt>
            <trkpt lat="50.0584992" lon="8.5108544">
                <ele>86.0</ele>
                <time>2020-08-30T14:02:04.000Z</time>
                <name>Trackpoint 6893</name>
            </trkpt>
            <trkpt lat="50.0585632" lon="8.5107744">
                <ele>87.0</ele>
                <time>2020-08-30T14:02:06.000Z</time>
                <name>Trackpoint 6894</name>
            </trkpt>
            <trkpt lat="50.0585888" lon="8.51066">
                <ele>87.0</ele>
                <time>2020-08-30T14:02:08.000Z</time>
                <name>Trackpoint 6895</name>
            </trkpt>
            <trkpt lat="50.0585664" lon="8.510556">
                <ele>87.0</ele>
                <time>2020-08-30T14:02:10.000Z</time>
                <name>Trackpoint 6896</name>
            </trkpt>
            <trkpt lat="50.0585216" lon="8.5104704">
                <ele>87.0</ele>
                <time>2020-08-30T14:02:12.000Z</time>
                <name>Trackpoint 6897</name>
            </trkpt>
            <trkpt lat="50.058464" lon="8.5103816">
                <ele>87.0</ele>
                <time>2020-08-30T14:02:14.000Z</time>
                <name>Trackpoint 6898</name>
            </trkpt>
            <trkpt lat="50.0584032" lon="8.5102952">
                <ele>88.0</ele>
                <time>2020-08-30T14:02:16.000Z</time>
                <name>Trackpoint 6899</name>
            </trkpt>
            <trkpt lat="50.0583392" lon="8.5102016">
                <ele>88.0</ele>
                <time>2020-08-30T14:02:18.000Z</time>
                <name>Trackpoint 6900</name>
            </trkpt>
            <trkpt lat="50.0582816" lon="8.5101136">
                <ele>88.0</ele>
                <time>2020-08-30T14:02:20.000Z</time>
                <name>Trackpoint 6901</name>
            </trkpt>
            <trkpt lat="50.0582176" lon="8.5100296">
                <ele>87.0</ele>
                <time>2020-08-30T14:02:22.000Z</time>
                <name>Trackpoint 6902</name>
            </trkpt>
            <trkpt lat="50.0581664" lon="8.5099472">
                <ele>87.0</ele>
                <time>2020-08-30T14:02:24.000Z</time>
                <name>Trackpoint 6903</name>
            </trkpt>
            <trkpt lat="50.0580864" lon="8.5098336">
                <ele>87.0</ele>
                <time>2020-08-30T14:02:27.000Z</time>
                <name>Trackpoint 6904</name>
            </trkpt>
            <trkpt lat="50.0580384" lon="8.5097416">
                <ele>88.0</ele>
                <time>2020-08-30T14:02:29.000Z</time>
                <name>Trackpoint 6905</name>
            </trkpt>
            <trkpt lat="50.0579904" lon="8.5096616">
                <ele>89.0</ele>
                <time>2020-08-30T14:02:31.000Z</time>
                <name>Trackpoint 6906</name>
            </trkpt>
            <trkpt lat="50.0579136" lon="8.50954">
                <ele>90.0</ele>
                <time>2020-08-30T14:02:34.000Z</time>
                <name>Trackpoint 6907</name>
            </trkpt>
            <trkpt lat="50.0578688" lon="8.5094544">
                <ele>90.0</ele>
                <time>2020-08-30T14:02:36.000Z</time>
                <name>Trackpoint 6908</name>
            </trkpt>
            <trkpt lat="50.0578112" lon="8.5093544">
                <ele>90.0</ele>
                <time>2020-08-30T14:02:39.000Z</time>
                <name>Trackpoint 6909</name>
            </trkpt>
            <trkpt lat="50.0577536" lon="8.5092624">
                <ele>90.0</ele>
                <time>2020-08-30T14:02:56.000Z</time>
                <name>Trackpoint 6910</name>
            </trkpt>
            <trkpt lat="50.057696" lon="8.5091632">
                <ele>90.0</ele>
                <time>2020-08-30T14:02:59.000Z</time>
                <name>Trackpoint 6911</name>
            </trkpt>
            <trkpt lat="50.057648" lon="8.5090712">
                <ele>89.0</ele>
                <time>2020-08-30T14:03:01.000Z</time>
                <name>Trackpoint 6912</name>
            </trkpt>
            <trkpt lat="50.0575904" lon="8.508988">
                <ele>89.0</ele>
                <time>2020-08-30T14:03:03.000Z</time>
                <name>Trackpoint 6913</name>
            </trkpt>
            <trkpt lat="50.0575328" lon="8.5089032">
                <ele>89.0</ele>
                <time>2020-08-30T14:03:05.000Z</time>
                <name>Trackpoint 6914</name>
            </trkpt>
            <trkpt lat="50.0574752" lon="8.508812">
                <ele>89.0</ele>
                <time>2020-08-30T14:03:07.000Z</time>
                <name>Trackpoint 6915</name>
            </trkpt>
            <trkpt lat="50.057424" lon="8.5087272">
                <ele>89.0</ele>
                <time>2020-08-30T14:03:09.000Z</time>
                <name>Trackpoint 6916</name>
            </trkpt>
            <trkpt lat="50.0573568" lon="8.5086384">
                <ele>89.0</ele>
                <time>2020-08-30T14:03:11.000Z</time>
                <name>Trackpoint 6917</name>
            </trkpt>
            <trkpt lat="50.0572864" lon="8.5085232">
                <ele>89.0</ele>
                <time>2020-08-30T14:03:13.000Z</time>
                <name>Trackpoint 6918</name>
            </trkpt>
            <trkpt lat="50.0572192" lon="8.5084088">
                <ele>89.0</ele>
                <time>2020-08-30T14:03:15.000Z</time>
                <name>Trackpoint 6919</name>
            </trkpt>
            <trkpt lat="50.0571648" lon="8.5083048">
                <ele>88.0</ele>
                <time>2020-08-30T14:03:17.000Z</time>
                <name>Trackpoint 6920</name>
            </trkpt>
            <trkpt lat="50.057088" lon="8.5081664">
                <ele>88.0</ele>
                <time>2020-08-30T14:03:19.000Z</time>
                <name>Trackpoint 6921</name>
            </trkpt>
            <trkpt lat="50.0570336" lon="8.5080608">
                <ele>88.0</ele>
                <time>2020-08-30T14:03:21.000Z</time>
                <name>Trackpoint 6922</name>
            </trkpt>
            <trkpt lat="50.0569728" lon="8.5079448">
                <ele>88.0</ele>
                <time>2020-08-30T14:03:23.000Z</time>
                <name>Trackpoint 6923</name>
            </trkpt>
            <trkpt lat="50.0569088" lon="8.50782">
                <ele>88.0</ele>
                <time>2020-08-30T14:03:25.000Z</time>
                <name>Trackpoint 6924</name>
            </trkpt>
            <trkpt lat="50.0568512" lon="8.507704">
                <ele>88.0</ele>
                <time>2020-08-30T14:03:27.000Z</time>
                <name>Trackpoint 6925</name>
            </trkpt>
            <trkpt lat="50.0567712" lon="8.5075712">
                <ele>89.0</ele>
                <time>2020-08-30T14:03:29.000Z</time>
                <name>Trackpoint 6926</name>
            </trkpt>
            <trkpt lat="50.0567104" lon="8.5074568">
                <ele>89.0</ele>
                <time>2020-08-30T14:03:31.000Z</time>
                <name>Trackpoint 6927</name>
            </trkpt>
            <trkpt lat="50.0566592" lon="8.5073672">
                <ele>88.0</ele>
                <time>2020-08-30T14:03:33.000Z</time>
                <name>Trackpoint 6928</name>
            </trkpt>
            <trkpt lat="50.0566048" lon="8.5072768">
                <ele>88.0</ele>
                <time>2020-08-30T14:03:35.000Z</time>
                <name>Trackpoint 6929</name>
            </trkpt>
            <trkpt lat="50.0565216" lon="8.5072032">
                <ele>89.0</ele>
                <time>2020-08-30T14:03:37.000Z</time>
                <name>Trackpoint 6930</name>
            </trkpt>
            <trkpt lat="50.0564448" lon="8.50714">
                <ele>89.0</ele>
                <time>2020-08-30T14:03:39.000Z</time>
                <name>Trackpoint 6931</name>
            </trkpt>
            <trkpt lat="50.0563712" lon="8.507076">
                <ele>89.0</ele>
                <time>2020-08-30T14:03:41.000Z</time>
                <name>Trackpoint 6932</name>
            </trkpt>
            <trkpt lat="50.0562976" lon="8.50702">
                <ele>89.0</ele>
                <time>2020-08-30T14:03:43.000Z</time>
                <name>Trackpoint 6933</name>
            </trkpt>
            <trkpt lat="50.0562144" lon="8.50698">
                <ele>89.0</ele>
                <time>2020-08-30T14:03:45.000Z</time>
                <name>Trackpoint 6934</name>
            </trkpt>
            <trkpt lat="50.0561248" lon="8.5069288">
                <ele>89.0</ele>
                <time>2020-08-30T14:03:47.000Z</time>
                <name>Trackpoint 6935</name>
            </trkpt>
            <trkpt lat="50.056016" lon="8.5068464">
                <ele>89.0</ele>
                <time>2020-08-30T14:03:50.000Z</time>
                <name>Trackpoint 6936</name>
            </trkpt>
            <trkpt lat="50.0559424" lon="8.5067752">
                <ele>89.0</ele>
                <time>2020-08-30T14:03:52.000Z</time>
                <name>Trackpoint 6937</name>
            </trkpt>
            <trkpt lat="50.055888" lon="8.5066816">
                <ele>89.0</ele>
                <time>2020-08-30T14:03:54.000Z</time>
                <name>Trackpoint 6938</name>
            </trkpt>
            <trkpt lat="50.0558208" lon="8.506588">
                <ele>89.0</ele>
                <time>2020-08-30T14:03:57.000Z</time>
                <name>Trackpoint 6939</name>
            </trkpt>
            <trkpt lat="50.0557632" lon="8.5064888">
                <ele>89.0</ele>
                <time>2020-08-30T14:04:00.000Z</time>
                <name>Trackpoint 6940</name>
            </trkpt>
            <trkpt lat="50.0557088" lon="8.5063984">
                <ele>89.0</ele>
                <time>2020-08-30T14:04:04.000Z</time>
                <name>Trackpoint 6941</name>
            </trkpt>
            <trkpt lat="50.0556576" lon="8.5063168">
                <ele>89.0</ele>
                <time>2020-08-30T14:04:30.000Z</time>
                <name>Trackpoint 6942</name>
            </trkpt>
            <trkpt lat="50.0555712" lon="8.5063616">
                <ele>89.0</ele>
                <time>2020-08-30T14:04:56.000Z</time>
                <name>Trackpoint 6943</name>
            </trkpt>
            <trkpt lat="50.0554976" lon="8.5064448">
                <ele>89.0</ele>
                <time>2020-08-30T14:05:06.000Z</time>
                <name>Trackpoint 6944</name>
            </trkpt>
            <trkpt lat="50.0554464" lon="8.50654">
                <ele>89.0</ele>
                <time>2020-08-30T14:05:11.000Z</time>
                <name>Trackpoint 6945</name>
            </trkpt>
            <trkpt lat="50.055408" lon="8.5066272">
                <ele>89.0</ele>
                <time>2020-08-30T14:05:14.000Z</time>
                <name>Trackpoint 6946</name>
            </trkpt>
            <trkpt lat="50.0553408" lon="8.506692">
                <ele>89.0</ele>
                <time>2020-08-30T14:05:16.000Z</time>
                <name>Trackpoint 6947</name>
            </trkpt>
            <trkpt lat="50.0552864" lon="8.5067768">
                <ele>89.0</ele>
                <time>2020-08-30T14:05:18.000Z</time>
                <name>Trackpoint 6948</name>
            </trkpt>
            <trkpt lat="50.0552224" lon="8.5068456">
                <ele>89.0</ele>
                <time>2020-08-30T14:05:21.000Z</time>
                <name>Trackpoint 6949</name>
            </trkpt>
            <trkpt lat="50.055168" lon="8.5069216">
                <ele>89.0</ele>
                <time>2020-08-30T14:05:25.000Z</time>
                <name>Trackpoint 6950</name>
            </trkpt>
            <trkpt lat="50.0551296" lon="8.5070488">
                <ele>89.0</ele>
                <time>2020-08-30T14:05:29.000Z</time>
                <name>Trackpoint 6951</name>
            </trkpt>
            <trkpt lat="50.0550752" lon="8.50716">
                <ele>89.0</ele>
                <time>2020-08-30T14:05:31.000Z</time>
                <name>Trackpoint 6952</name>
            </trkpt>
            <trkpt lat="50.0550304" lon="8.5072616">
                <ele>89.0</ele>
                <time>2020-08-30T14:05:33.000Z</time>
                <name>Trackpoint 6953</name>
            </trkpt>
            <trkpt lat="50.0549952" lon="8.5073536">
                <ele>89.0</ele>
                <time>2020-08-30T14:05:35.000Z</time>
                <name>Trackpoint 6954</name>
            </trkpt>
            <trkpt lat="50.0549632" lon="8.5074464">
                <ele>89.0</ele>
                <time>2020-08-30T14:05:37.000Z</time>
                <name>Trackpoint 6955</name>
            </trkpt>
            <trkpt lat="50.054896" lon="8.507568">
                <ele>88.0</ele>
                <time>2020-08-30T14:05:40.000Z</time>
                <name>Trackpoint 6956</name>
            </trkpt>
            <trkpt lat="50.0547744" lon="8.5077064">
                <ele>88.0</ele>
                <time>2020-08-30T14:05:42.000Z</time>
                <name>Trackpoint 6957</name>
            </trkpt>
            <trkpt lat="50.0546976" lon="8.5078152">
                <ele>88.0</ele>
                <time>2020-08-30T14:05:44.000Z</time>
                <name>Trackpoint 6958</name>
            </trkpt>
            <trkpt lat="50.0546496" lon="8.5079">
                <ele>88.0</ele>
                <time>2020-08-30T14:05:46.000Z</time>
                <name>Trackpoint 6959</name>
            </trkpt>
            <trkpt lat="50.0546048" lon="8.5079936">
                <ele>88.0</ele>
                <time>2020-08-30T14:05:48.000Z</time>
                <name>Trackpoint 6960</name>
            </trkpt>
            <trkpt lat="50.0545376" lon="8.5080968">
                <ele>88.0</ele>
                <time>2020-08-30T14:05:51.000Z</time>
                <name>Trackpoint 6961</name>
            </trkpt>
            <trkpt lat="50.0544672" lon="8.5081552">
                <ele>88.0</ele>
                <time>2020-08-30T14:05:54.000Z</time>
                <name>Trackpoint 6962</name>
            </trkpt>
            <trkpt lat="50.054368" lon="8.5082">
                <ele>88.0</ele>
                <time>2020-08-30T14:05:58.000Z</time>
                <name>Trackpoint 6963</name>
            </trkpt>
            <trkpt lat="50.0542784" lon="8.508188">
                <ele>88.0</ele>
                <time>2020-08-30T14:06:01.000Z</time>
                <name>Trackpoint 6964</name>
            </trkpt>
            <trkpt lat="50.0541792" lon="8.5081456">
                <ele>88.0</ele>
                <time>2020-08-30T14:06:04.000Z</time>
                <name>Trackpoint 6965</name>
            </trkpt>
            <trkpt lat="50.0540896" lon="8.5081032">
                <ele>88.0</ele>
                <time>2020-08-30T14:06:07.000Z</time>
                <name>Trackpoint 6966</name>
            </trkpt>
            <trkpt lat="50.0540192" lon="8.5080408">
                <ele>88.0</ele>
                <time>2020-08-30T14:06:10.000Z</time>
                <name>Trackpoint 6967</name>
            </trkpt>
            <trkpt lat="50.0539488" lon="8.5079816">
                <ele>88.0</ele>
                <time>2020-08-30T14:06:13.000Z</time>
                <name>Trackpoint 6968</name>
            </trkpt>
            <trkpt lat="50.0538624" lon="8.5079072">
                <ele>88.0</ele>
                <time>2020-08-30T14:06:16.000Z</time>
                <name>Trackpoint 6969</name>
            </trkpt>
            <trkpt lat="50.0537632" lon="8.5078232">
                <ele>88.0</ele>
                <time>2020-08-30T14:06:19.000Z</time>
                <name>Trackpoint 6970</name>
            </trkpt>
            <trkpt lat="50.0536576" lon="8.5077464">
                <ele>88.0</ele>
                <time>2020-08-30T14:06:22.000Z</time>
                <name>Trackpoint 6971</name>
            </trkpt>
            <trkpt lat="50.0535968" lon="8.5076752">
                <ele>88.0</ele>
                <time>2020-08-30T14:06:24.000Z</time>
                <name>Trackpoint 6972</name>
            </trkpt>
            <trkpt lat="50.0535072" lon="8.5076">
                <ele>88.0</ele>
                <time>2020-08-30T14:06:26.000Z</time>
                <name>Trackpoint 6973</name>
            </trkpt>
            <trkpt lat="50.053424" lon="8.50752">
                <ele>88.0</ele>
                <time>2020-08-30T14:06:28.000Z</time>
                <name>Trackpoint 6974</name>
            </trkpt>
            <trkpt lat="50.0533472" lon="8.5074256">
                <ele>88.0</ele>
                <time>2020-08-30T14:06:30.000Z</time>
                <name>Trackpoint 6975</name>
            </trkpt>
            <trkpt lat="50.0532672" lon="8.5073448">
                <ele>88.0</ele>
                <time>2020-08-30T14:06:32.000Z</time>
                <name>Trackpoint 6976</name>
            </trkpt>
            <trkpt lat="50.0531872" lon="8.5072848">
                <ele>88.0</ele>
                <time>2020-08-30T14:06:34.000Z</time>
                <name>Trackpoint 6977</name>
            </trkpt>
            <trkpt lat="50.0531136" lon="8.507208">
                <ele>88.0</ele>
                <time>2020-08-30T14:06:36.000Z</time>
                <name>Trackpoint 6978</name>
            </trkpt>
            <trkpt lat="50.0530496" lon="8.507136">
                <ele>88.0</ele>
                <time>2020-08-30T14:06:38.000Z</time>
                <name>Trackpoint 6979</name>
            </trkpt>
            <trkpt lat="50.0529888" lon="8.50704">
                <ele>88.0</ele>
                <time>2020-08-30T14:06:40.000Z</time>
                <name>Trackpoint 6980</name>
            </trkpt>
            <trkpt lat="50.0529152" lon="8.506944">
                <ele>88.0</ele>
                <time>2020-08-30T14:06:42.000Z</time>
                <name>Trackpoint 6981</name>
            </trkpt>
            <trkpt lat="50.052832" lon="8.5068184">
                <ele>88.0</ele>
                <time>2020-08-30T14:06:44.000Z</time>
                <name>Trackpoint 6982</name>
            </trkpt>
            <trkpt lat="50.052768" lon="8.5066928">
                <ele>88.0</ele>
                <time>2020-08-30T14:06:46.000Z</time>
                <name>Trackpoint 6983</name>
            </trkpt>
            <trkpt lat="50.0527424" lon="8.5066016">
                <ele>88.0</ele>
                <time>2020-08-30T14:06:47.000Z</time>
                <name>Trackpoint 6984</name>
            </trkpt>
            <trkpt lat="50.0526912" lon="8.5064672">
                <ele>88.0</ele>
                <time>2020-08-30T14:06:49.000Z</time>
                <name>Trackpoint 6985</name>
            </trkpt>
            <trkpt lat="50.0526432" lon="8.5063552">
                <ele>88.0</ele>
                <time>2020-08-30T14:06:51.000Z</time>
                <name>Trackpoint 6986</name>
            </trkpt>
            <trkpt lat="50.0525888" lon="8.5062376">
                <ele>88.0</ele>
                <time>2020-08-30T14:06:53.000Z</time>
                <name>Trackpoint 6987</name>
            </trkpt>
            <trkpt lat="50.0525376" lon="8.5061216">
                <ele>88.0</ele>
                <time>2020-08-30T14:06:55.000Z</time>
                <name>Trackpoint 6988</name>
            </trkpt>
            <trkpt lat="50.0524896" lon="8.5060128">
                <ele>88.0</ele>
                <time>2020-08-30T14:06:57.000Z</time>
                <name>Trackpoint 6989</name>
            </trkpt>
            <trkpt lat="50.052448" lon="8.5059096">
                <ele>88.0</ele>
                <time>2020-08-30T14:06:59.000Z</time>
                <name>Trackpoint 6990</name>
            </trkpt>
            <trkpt lat="50.0524096" lon="8.5058136">
                <ele>88.0</ele>
                <time>2020-08-30T14:07:01.000Z</time>
                <name>Trackpoint 6991</name>
            </trkpt>
            <trkpt lat="50.0523712" lon="8.5057248">
                <ele>88.0</ele>
                <time>2020-08-30T14:07:03.000Z</time>
                <name>Trackpoint 6992</name>
            </trkpt>
            <trkpt lat="50.0523264" lon="8.5056">
                <ele>88.0</ele>
                <time>2020-08-30T14:07:05.000Z</time>
                <name>Trackpoint 6993</name>
            </trkpt>
            <trkpt lat="50.0522752" lon="8.505504">
                <ele>88.0</ele>
                <time>2020-08-30T14:07:07.000Z</time>
                <name>Trackpoint 6994</name>
            </trkpt>
            <trkpt lat="50.0522432" lon="8.505392">
                <ele>88.0</ele>
                <time>2020-08-30T14:07:09.000Z</time>
                <name>Trackpoint 6995</name>
            </trkpt>
            <trkpt lat="50.0522016" lon="8.505272">
                <ele>87.0</ele>
                <time>2020-08-30T14:07:11.000Z</time>
                <name>Trackpoint 6996</name>
            </trkpt>
            <trkpt lat="50.0521824" lon="8.505152">
                <ele>87.0</ele>
                <time>2020-08-30T14:07:13.000Z</time>
                <name>Trackpoint 6997</name>
            </trkpt>
            <trkpt lat="50.0521568" lon="8.505052">
                <ele>87.0</ele>
                <time>2020-08-30T14:07:15.000Z</time>
                <name>Trackpoint 6998</name>
            </trkpt>
            <trkpt lat="50.0521216" lon="8.5049512">
                <ele>87.0</ele>
                <time>2020-08-30T14:07:17.000Z</time>
                <name>Trackpoint 6999</name>
            </trkpt>
            <trkpt lat="50.0520736" lon="8.504844">
                <ele>87.0</ele>
                <time>2020-08-30T14:07:20.000Z</time>
                <name>Trackpoint 7000</name>
            </trkpt>
            <trkpt lat="50.052032" lon="8.5047568">
                <ele>87.0</ele>
                <time>2020-08-30T14:07:22.000Z</time>
                <name>Trackpoint 7001</name>
            </trkpt>
            <trkpt lat="50.0519968" lon="8.5046616">
                <ele>87.0</ele>
                <time>2020-08-30T14:07:24.000Z</time>
                <name>Trackpoint 7002</name>
            </trkpt>
            <trkpt lat="50.0519552" lon="8.5045432">
                <ele>87.0</ele>
                <time>2020-08-30T14:07:27.000Z</time>
                <name>Trackpoint 7003</name>
            </trkpt>
            <trkpt lat="50.0519328" lon="8.5044344">
                <ele>87.0</ele>
                <time>2020-08-30T14:07:29.000Z</time>
                <name>Trackpoint 7004</name>
            </trkpt>
            <trkpt lat="50.0518944" lon="8.504296">
                <ele>87.0</ele>
                <time>2020-08-30T14:07:32.000Z</time>
                <name>Trackpoint 7005</name>
            </trkpt>
            <trkpt lat="50.0518688" lon="8.5041912">
                <ele>86.0</ele>
                <time>2020-08-30T14:07:35.000Z</time>
                <name>Trackpoint 7006</name>
            </trkpt>
            <trkpt lat="50.0517984" lon="8.5040448">
                <ele>85.0</ele>
                <time>2020-08-30T14:08:22.000Z</time>
                <name>Trackpoint 7007</name>
            </trkpt>
            <trkpt lat="50.0517984" lon="8.5041664">
                <ele>85.0</ele>
                <time>2020-08-30T14:08:28.000Z</time>
                <name>Trackpoint 7008</name>
            </trkpt>
            <trkpt lat="50.0518336" lon="8.5042936">
                <ele>85.0</ele>
                <time>2020-08-30T14:08:31.000Z</time>
                <name>Trackpoint 7009</name>
            </trkpt>
            <trkpt lat="50.0518528" lon="8.5043848">
                <ele>85.0</ele>
                <time>2020-08-30T14:08:33.000Z</time>
                <name>Trackpoint 7010</name>
            </trkpt>
            <trkpt lat="50.0518848" lon="8.5044744">
                <ele>85.0</ele>
                <time>2020-08-30T14:08:35.000Z</time>
                <name>Trackpoint 7011</name>
            </trkpt>
            <trkpt lat="50.0519136" lon="8.5045664">
                <ele>85.0</ele>
                <time>2020-08-30T14:08:37.000Z</time>
                <name>Trackpoint 7012</name>
            </trkpt>
            <trkpt lat="50.0519488" lon="8.50466">
                <ele>85.0</ele>
                <time>2020-08-30T14:08:39.000Z</time>
                <name>Trackpoint 7013</name>
            </trkpt>
            <trkpt lat="50.0519872" lon="8.5047664">
                <ele>86.0</ele>
                <time>2020-08-30T14:08:42.000Z</time>
                <name>Trackpoint 7014</name>
            </trkpt>
            <trkpt lat="50.052016" lon="8.5048552">
                <ele>88.0</ele>
                <time>2020-08-30T14:08:51.000Z</time>
                <name>Trackpoint 7015</name>
            </trkpt>
            <trkpt lat="50.0519904" lon="8.5047648">
                <ele>89.0</ele>
                <time>2020-08-30T14:17:15.000Z</time>
                <name>Trackpoint 7016</name>
            </trkpt>
            <trkpt lat="50.0519456" lon="8.5046864">
                <ele>88.0</ele>
                <time>2020-08-30T14:17:21.000Z</time>
                <name>Trackpoint 7017</name>
            </trkpt>
            <trkpt lat="50.0518944" lon="8.5046064">
                <ele>87.0</ele>
                <time>2020-08-30T14:24:33.000Z</time>
                <name>Trackpoint 7018</name>
            </trkpt>
            <trkpt lat="50.0518944" lon="8.504508">
                <ele>87.0</ele>
                <time>2020-08-30T14:25:13.000Z</time>
                <name>Trackpoint 7019</name>
            </trkpt>
            <trkpt lat="50.0518656" lon="8.5044136">
                <ele>88.0</ele>
                <time>2020-08-30T14:25:18.000Z</time>
                <name>Trackpoint 7020</name>
            </trkpt>
            <trkpt lat="50.0518368" lon="8.5043184">
                <ele>87.0</ele>
                <time>2020-08-30T14:25:21.000Z</time>
                <name>Trackpoint 7021</name>
            </trkpt>
            <trkpt lat="50.051824" lon="8.5042216">
                <ele>87.0</ele>
                <time>2020-08-30T14:25:23.000Z</time>
                <name>Trackpoint 7022</name>
            </trkpt>
            <trkpt lat="50.0518112" lon="8.5041176">
                <ele>87.0</ele>
                <time>2020-08-30T14:25:25.000Z</time>
                <name>Trackpoint 7023</name>
            </trkpt>
            <trkpt lat="50.0517792" lon="8.504028">
                <ele>87.0</ele>
                <time>2020-08-30T14:25:27.000Z</time>
                <name>Trackpoint 7024</name>
            </trkpt>
            <trkpt lat="50.0517504" lon="8.5039328">
                <ele>87.0</ele>
                <time>2020-08-30T14:25:29.000Z</time>
                <name>Trackpoint 7025</name>
            </trkpt>
            <trkpt lat="50.051728" lon="8.5038432">
                <ele>87.0</ele>
                <time>2020-08-30T14:25:31.000Z</time>
                <name>Trackpoint 7026</name>
            </trkpt>
            <trkpt lat="50.0516928" lon="8.5037472">
                <ele>87.0</ele>
                <time>2020-08-30T14:25:33.000Z</time>
                <name>Trackpoint 7027</name>
            </trkpt>
            <trkpt lat="50.0516672" lon="8.5036248">
                <ele>87.0</ele>
                <time>2020-08-30T14:25:35.000Z</time>
                <name>Trackpoint 7028</name>
            </trkpt>
            <trkpt lat="50.0516256" lon="8.5035104">
                <ele>87.0</ele>
                <time>2020-08-30T14:25:37.000Z</time>
                <name>Trackpoint 7029</name>
            </trkpt>
            <trkpt lat="50.0515904" lon="8.5033864">
                <ele>86.0</ele>
                <time>2020-08-30T14:25:39.000Z</time>
                <name>Trackpoint 7030</name>
            </trkpt>
            <trkpt lat="50.0515552" lon="8.5032584">
                <ele>86.0</ele>
                <time>2020-08-30T14:25:41.000Z</time>
                <name>Trackpoint 7031</name>
            </trkpt>
            <trkpt lat="50.05152" lon="8.5031296">
                <ele>86.0</ele>
                <time>2020-08-30T14:25:43.000Z</time>
                <name>Trackpoint 7032</name>
            </trkpt>
            <trkpt lat="50.051488" lon="8.503">
                <ele>86.0</ele>
                <time>2020-08-30T14:25:45.000Z</time>
                <name>Trackpoint 7033</name>
            </trkpt>
            <trkpt lat="50.0514592" lon="8.5028664">
                <ele>86.0</ele>
                <time>2020-08-30T14:25:47.000Z</time>
                <name>Trackpoint 7034</name>
            </trkpt>
            <trkpt lat="50.0514208" lon="8.5027312">
                <ele>85.0</ele>
                <time>2020-08-30T14:25:49.000Z</time>
                <name>Trackpoint 7035</name>
            </trkpt>
            <trkpt lat="50.051392" lon="8.5026128">
                <ele>85.0</ele>
                <time>2020-08-30T14:25:51.000Z</time>
                <name>Trackpoint 7036</name>
            </trkpt>
            <trkpt lat="50.0513664" lon="8.5025056">
                <ele>86.0</ele>
                <time>2020-08-30T14:25:53.000Z</time>
                <name>Trackpoint 7037</name>
            </trkpt>
            <trkpt lat="50.0513408" lon="8.5024016">
                <ele>86.0</ele>
                <time>2020-08-30T14:25:55.000Z</time>
                <name>Trackpoint 7038</name>
            </trkpt>
            <trkpt lat="50.0513216" lon="8.5023048">
                <ele>86.0</ele>
                <time>2020-08-30T14:25:57.000Z</time>
                <name>Trackpoint 7039</name>
            </trkpt>
            <trkpt lat="50.0513024" lon="8.5021864">
                <ele>85.0</ele>
                <time>2020-08-30T14:26:00.000Z</time>
                <name>Trackpoint 7040</name>
            </trkpt>
            <trkpt lat="50.0512928" lon="8.5020552">
                <ele>85.0</ele>
                <time>2020-08-30T14:26:03.000Z</time>
                <name>Trackpoint 7041</name>
            </trkpt>
            <trkpt lat="50.0512608" lon="8.5019352">
                <ele>85.0</ele>
                <time>2020-08-30T14:26:06.000Z</time>
                <name>Trackpoint 7042</name>
            </trkpt>
            <trkpt lat="50.0512192" lon="8.5018504">
                <ele>85.0</ele>
                <time>2020-08-30T14:26:11.000Z</time>
                <name>Trackpoint 7043</name>
            </trkpt>
            <trkpt lat="50.0511936" lon="8.5017632">
                <ele>86.0</ele>
                <time>2020-08-30T14:26:36.000Z</time>
                <name>Trackpoint 7044</name>
            </trkpt>
            <trkpt lat="50.0512384" lon="8.5016696">
                <ele>86.0</ele>
                <time>2020-08-30T14:26:39.000Z</time>
                <name>Trackpoint 7045</name>
            </trkpt>
            <trkpt lat="50.051312" lon="8.5015944">
                <ele>86.0</ele>
                <time>2020-08-30T14:26:42.000Z</time>
                <name>Trackpoint 7046</name>
            </trkpt>
            <trkpt lat="50.0513792" lon="8.5015072">
                <ele>86.0</ele>
                <time>2020-08-30T14:26:46.000Z</time>
                <name>Trackpoint 7047</name>
            </trkpt>
            <trkpt lat="50.0514464" lon="8.5014264">
                <ele>86.0</ele>
                <time>2020-08-30T14:26:50.000Z</time>
                <name>Trackpoint 7048</name>
            </trkpt>
            <trkpt lat="50.0515008" lon="8.50132">
                <ele>86.0</ele>
                <time>2020-08-30T14:26:54.000Z</time>
                <name>Trackpoint 7049</name>
            </trkpt>
            <trkpt lat="50.0514976" lon="8.5012264">
                <ele>86.0</ele>
                <time>2020-08-30T14:26:56.000Z</time>
                <name>Trackpoint 7050</name>
            </trkpt>
            <trkpt lat="50.051472" lon="8.5011264">
                <ele>86.0</ele>
                <time>2020-08-30T14:26:58.000Z</time>
                <name>Trackpoint 7051</name>
            </trkpt>
            <trkpt lat="50.0514144" lon="8.5010136">
                <ele>86.0</ele>
                <time>2020-08-30T14:27:01.000Z</time>
                <name>Trackpoint 7052</name>
            </trkpt>
            <trkpt lat="50.0513792" lon="8.5009248">
                <ele>86.0</ele>
                <time>2020-08-30T14:27:03.000Z</time>
                <name>Trackpoint 7053</name>
            </trkpt>
            <trkpt lat="50.0513408" lon="8.5008384">
                <ele>86.0</ele>
                <time>2020-08-30T14:27:05.000Z</time>
                <name>Trackpoint 7054</name>
            </trkpt>
            <trkpt lat="50.0512992" lon="8.5007432">
                <ele>86.0</ele>
                <time>2020-08-30T14:27:07.000Z</time>
                <name>Trackpoint 7055</name>
            </trkpt>
            <trkpt lat="50.0512512" lon="8.5006488">
                <ele>86.0</ele>
                <time>2020-08-30T14:27:09.000Z</time>
                <name>Trackpoint 7056</name>
            </trkpt>
            <trkpt lat="50.0511808" lon="8.5005432">
                <ele>86.0</ele>
                <time>2020-08-30T14:27:11.000Z</time>
                <name>Trackpoint 7057</name>
            </trkpt>
            <trkpt lat="50.0511232" lon="8.500428">
                <ele>86.0</ele>
                <time>2020-08-30T14:27:13.000Z</time>
                <name>Trackpoint 7058</name>
            </trkpt>
            <trkpt lat="50.0510624" lon="8.5003272">
                <ele>86.0</ele>
                <time>2020-08-30T14:27:15.000Z</time>
                <name>Trackpoint 7059</name>
            </trkpt>
            <trkpt lat="50.0509984" lon="8.5002232">
                <ele>85.0</ele>
                <time>2020-08-30T14:27:17.000Z</time>
                <name>Trackpoint 7060</name>
            </trkpt>
            <trkpt lat="50.0509536" lon="8.50012">
                <ele>85.0</ele>
                <time>2020-08-30T14:27:19.000Z</time>
                <name>Trackpoint 7061</name>
            </trkpt>
            <trkpt lat="50.050896" lon="8.50002">
                <ele>85.0</ele>
                <time>2020-08-30T14:27:21.000Z</time>
                <name>Trackpoint 7062</name>
            </trkpt>
            <trkpt lat="50.0508416" lon="8.4999216">
                <ele>85.0</ele>
                <time>2020-08-30T14:27:23.000Z</time>
                <name>Trackpoint 7063</name>
            </trkpt>
            <trkpt lat="50.050784" lon="8.499812">
                <ele>85.0</ele>
                <time>2020-08-30T14:27:25.000Z</time>
                <name>Trackpoint 7064</name>
            </trkpt>
            <trkpt lat="50.0507392" lon="8.4996968">
                <ele>85.0</ele>
                <time>2020-08-30T14:27:27.000Z</time>
                <name>Trackpoint 7065</name>
            </trkpt>
            <trkpt lat="50.0506816" lon="8.4995872">
                <ele>85.0</ele>
                <time>2020-08-30T14:27:29.000Z</time>
                <name>Trackpoint 7066</name>
            </trkpt>
            <trkpt lat="50.0506208" lon="8.4994784">
                <ele>85.0</ele>
                <time>2020-08-30T14:27:31.000Z</time>
                <name>Trackpoint 7067</name>
            </trkpt>
            <trkpt lat="50.0505664" lon="8.4993632">
                <ele>85.0</ele>
                <time>2020-08-30T14:27:33.000Z</time>
                <name>Trackpoint 7068</name>
            </trkpt>
            <trkpt lat="50.0505056" lon="8.4992616">
                <ele>85.0</ele>
                <time>2020-08-30T14:27:35.000Z</time>
                <name>Trackpoint 7069</name>
            </trkpt>
            <trkpt lat="50.0504768" lon="8.4991616">
                <ele>85.0</ele>
                <time>2020-08-30T14:27:37.000Z</time>
                <name>Trackpoint 7070</name>
            </trkpt>
            <trkpt lat="50.0504288" lon="8.499072">
                <ele>85.0</ele>
                <time>2020-08-30T14:27:39.000Z</time>
                <name>Trackpoint 7071</name>
            </trkpt>
            <trkpt lat="50.0503776" lon="8.4989784">
                <ele>85.0</ele>
                <time>2020-08-30T14:27:41.000Z</time>
                <name>Trackpoint 7072</name>
            </trkpt>
            <trkpt lat="50.0503232" lon="8.498888">
                <ele>85.0</ele>
                <time>2020-08-30T14:27:43.000Z</time>
                <name>Trackpoint 7073</name>
            </trkpt>
            <trkpt lat="50.0502848" lon="8.4988016">
                <ele>85.0</ele>
                <time>2020-08-30T14:27:46.000Z</time>
                <name>Trackpoint 7074</name>
            </trkpt>
            <trkpt lat="50.0502272" lon="8.4987184">
                <ele>85.0</ele>
                <time>2020-08-30T14:28:16.000Z</time>
                <name>Trackpoint 7075</name>
            </trkpt>
            <trkpt lat="50.0502144" lon="8.4985912">
                <ele>85.0</ele>
                <time>2020-08-30T14:28:19.000Z</time>
                <name>Trackpoint 7076</name>
            </trkpt>
            <trkpt lat="50.050256" lon="8.4985112">
                <ele>85.0</ele>
                <time>2020-08-30T14:28:21.000Z</time>
                <name>Trackpoint 7077</name>
            </trkpt>
            <trkpt lat="50.050304" lon="8.4984312">
                <ele>85.0</ele>
                <time>2020-08-30T14:28:23.000Z</time>
                <name>Trackpoint 7078</name>
            </trkpt>
            <trkpt lat="50.0503552" lon="8.498348">
                <ele>85.0</ele>
                <time>2020-08-30T14:28:25.000Z</time>
                <name>Trackpoint 7079</name>
            </trkpt>
            <trkpt lat="50.0504128" lon="8.4982728">
                <ele>85.0</ele>
                <time>2020-08-30T14:28:27.000Z</time>
                <name>Trackpoint 7080</name>
            </trkpt>
            <trkpt lat="50.0505024" lon="8.4982096">
                <ele>85.0</ele>
                <time>2020-08-30T14:28:31.000Z</time>
                <name>Trackpoint 7081</name>
            </trkpt>
            <trkpt lat="50.0505952" lon="8.498132">
                <ele>85.0</ele>
                <time>2020-08-30T14:28:34.000Z</time>
                <name>Trackpoint 7082</name>
            </trkpt>
            <trkpt lat="50.0506784" lon="8.4980448">
                <ele>85.0</ele>
                <time>2020-08-30T14:28:37.000Z</time>
                <name>Trackpoint 7083</name>
            </trkpt>
            <trkpt lat="50.0507584" lon="8.4979784">
                <ele>85.0</ele>
                <time>2020-08-30T14:28:39.000Z</time>
                <name>Trackpoint 7084</name>
            </trkpt>
            <trkpt lat="50.0508384" lon="8.4978752">
                <ele>85.0</ele>
                <time>2020-08-30T14:28:41.000Z</time>
                <name>Trackpoint 7085</name>
            </trkpt>
            <trkpt lat="50.050896" lon="8.4977648">
                <ele>85.0</ele>
                <time>2020-08-30T14:28:43.000Z</time>
                <name>Trackpoint 7086</name>
            </trkpt>
            <trkpt lat="50.0509696" lon="8.4976464">
                <ele>85.0</ele>
                <time>2020-08-30T14:28:45.000Z</time>
                <name>Trackpoint 7087</name>
            </trkpt>
            <trkpt lat="50.0510304" lon="8.4975752">
                <ele>85.0</ele>
                <time>2020-08-30T14:28:47.000Z</time>
                <name>Trackpoint 7088</name>
            </trkpt>
            <trkpt lat="50.0511296" lon="8.4975816">
                <ele>85.0</ele>
                <time>2020-08-30T14:28:48.000Z</time>
                <name>Trackpoint 7089</name>
            </trkpt>
            <trkpt lat="50.0512352" lon="8.4975032">
                <ele>85.0</ele>
                <time>2020-08-30T14:28:51.000Z</time>
                <name>Trackpoint 7090</name>
            </trkpt>
            <trkpt lat="50.0513216" lon="8.4974368">
                <ele>85.0</ele>
                <time>2020-08-30T14:28:54.000Z</time>
                <name>Trackpoint 7091</name>
            </trkpt>
            <trkpt lat="50.0513952" lon="8.4973744">
                <ele>85.0</ele>
                <time>2020-08-30T14:28:57.000Z</time>
                <name>Trackpoint 7092</name>
            </trkpt>
            <trkpt lat="50.051456" lon="8.49728">
                <ele>85.0</ele>
                <time>2020-08-30T14:29:00.000Z</time>
                <name>Trackpoint 7093</name>
            </trkpt>
            <trkpt lat="50.051472" lon="8.4971488">
                <ele>85.0</ele>
                <time>2020-08-30T14:29:03.000Z</time>
                <name>Trackpoint 7094</name>
            </trkpt>
            <trkpt lat="50.0514496" lon="8.497048">
                <ele>85.0</ele>
                <time>2020-08-30T14:29:05.000Z</time>
                <name>Trackpoint 7095</name>
            </trkpt>
            <trkpt lat="50.0514112" lon="8.496932">
                <ele>85.0</ele>
                <time>2020-08-30T14:29:08.000Z</time>
                <name>Trackpoint 7096</name>
            </trkpt>
            <trkpt lat="50.0513728" lon="8.4968464">
                <ele>85.0</ele>
                <time>2020-08-30T14:29:11.000Z</time>
                <name>Trackpoint 7097</name>
            </trkpt>
            <trkpt lat="50.0513376" lon="8.496728">
                <ele>85.0</ele>
                <time>2020-08-30T14:29:23.000Z</time>
                <name>Trackpoint 7098</name>
            </trkpt>
            <trkpt lat="50.0512928" lon="8.4966072">
                <ele>85.0</ele>
                <time>2020-08-30T14:29:26.000Z</time>
                <name>Trackpoint 7099</name>
            </trkpt>
            <trkpt lat="50.0512544" lon="8.4965016">
                <ele>85.0</ele>
                <time>2020-08-30T14:29:28.000Z</time>
                <name>Trackpoint 7100</name>
            </trkpt>
            <trkpt lat="50.0512096" lon="8.4963912">
                <ele>85.0</ele>
                <time>2020-08-30T14:29:30.000Z</time>
                <name>Trackpoint 7101</name>
            </trkpt>
            <trkpt lat="50.0511616" lon="8.4962656">
                <ele>85.0</ele>
                <time>2020-08-30T14:29:32.000Z</time>
                <name>Trackpoint 7102</name>
            </trkpt>
            <trkpt lat="50.0511168" lon="8.4961416">
                <ele>86.0</ele>
                <time>2020-08-30T14:29:34.000Z</time>
                <name>Trackpoint 7103</name>
            </trkpt>
            <trkpt lat="50.0510752" lon="8.4960184">
                <ele>86.0</ele>
                <time>2020-08-30T14:29:36.000Z</time>
                <name>Trackpoint 7104</name>
            </trkpt>
            <trkpt lat="50.051024" lon="8.4958912">
                <ele>86.0</ele>
                <time>2020-08-30T14:29:38.000Z</time>
                <name>Trackpoint 7105</name>
            </trkpt>
            <trkpt lat="50.0509792" lon="8.4957664">
                <ele>86.0</ele>
                <time>2020-08-30T14:29:40.000Z</time>
                <name>Trackpoint 7106</name>
            </trkpt>
            <trkpt lat="50.0509344" lon="8.4956328">
                <ele>86.0</ele>
                <time>2020-08-30T14:29:42.000Z</time>
                <name>Trackpoint 7107</name>
            </trkpt>
            <trkpt lat="50.0508928" lon="8.495508">
                <ele>85.0</ele>
                <time>2020-08-30T14:29:44.000Z</time>
                <name>Trackpoint 7108</name>
            </trkpt>
            <trkpt lat="50.0508448" lon="8.4953808">
                <ele>86.0</ele>
                <time>2020-08-30T14:29:46.000Z</time>
                <name>Trackpoint 7109</name>
            </trkpt>
            <trkpt lat="50.0508064" lon="8.4952472">
                <ele>86.0</ele>
                <time>2020-08-30T14:29:48.000Z</time>
                <name>Trackpoint 7110</name>
            </trkpt>
            <trkpt lat="50.0507584" lon="8.495116">
                <ele>86.0</ele>
                <time>2020-08-30T14:29:50.000Z</time>
                <name>Trackpoint 7111</name>
            </trkpt>
            <trkpt lat="50.0507136" lon="8.4949936">
                <ele>86.0</ele>
                <time>2020-08-30T14:29:52.000Z</time>
                <name>Trackpoint 7112</name>
            </trkpt>
            <trkpt lat="50.0506656" lon="8.4948616">
                <ele>86.0</ele>
                <time>2020-08-30T14:29:54.000Z</time>
                <name>Trackpoint 7113</name>
            </trkpt>
            <trkpt lat="50.0506208" lon="8.4947216">
                <ele>86.0</ele>
                <time>2020-08-30T14:29:56.000Z</time>
                <name>Trackpoint 7114</name>
            </trkpt>
            <trkpt lat="50.05056" lon="8.494588">
                <ele>86.0</ele>
                <time>2020-08-30T14:29:58.000Z</time>
                <name>Trackpoint 7115</name>
            </trkpt>
            <trkpt lat="50.0504992" lon="8.4944624">
                <ele>86.0</ele>
                <time>2020-08-30T14:30:00.000Z</time>
                <name>Trackpoint 7116</name>
            </trkpt>
            <trkpt lat="50.0504448" lon="8.4943288">
                <ele>86.0</ele>
                <time>2020-08-30T14:30:02.000Z</time>
                <name>Trackpoint 7117</name>
            </trkpt>
            <trkpt lat="50.0503872" lon="8.4941984">
                <ele>87.0</ele>
                <time>2020-08-30T14:30:04.000Z</time>
                <name>Trackpoint 7118</name>
            </trkpt>
            <trkpt lat="50.0503456" lon="8.4940632">
                <ele>87.0</ele>
                <time>2020-08-30T14:30:06.000Z</time>
                <name>Trackpoint 7119</name>
            </trkpt>
            <trkpt lat="50.0502976" lon="8.4939248">
                <ele>87.0</ele>
                <time>2020-08-30T14:30:08.000Z</time>
                <name>Trackpoint 7120</name>
            </trkpt>
            <trkpt lat="50.0502464" lon="8.493796">
                <ele>88.0</ele>
                <time>2020-08-30T14:30:10.000Z</time>
                <name>Trackpoint 7121</name>
            </trkpt>
            <trkpt lat="50.0501984" lon="8.4936712">
                <ele>88.0</ele>
                <time>2020-08-30T14:30:12.000Z</time>
                <name>Trackpoint 7122</name>
            </trkpt>
            <trkpt lat="50.0501472" lon="8.4935448">
                <ele>88.0</ele>
                <time>2020-08-30T14:30:14.000Z</time>
                <name>Trackpoint 7123</name>
            </trkpt>
            <trkpt lat="50.0500992" lon="8.4934184">
                <ele>88.0</ele>
                <time>2020-08-30T14:30:16.000Z</time>
                <name>Trackpoint 7124</name>
            </trkpt>
            <trkpt lat="50.0500448" lon="8.4933016">
                <ele>88.0</ele>
                <time>2020-08-30T14:30:18.000Z</time>
                <name>Trackpoint 7125</name>
            </trkpt>
            <trkpt lat="50.0499904" lon="8.4931816">
                <ele>88.0</ele>
                <time>2020-08-30T14:30:20.000Z</time>
                <name>Trackpoint 7126</name>
            </trkpt>
            <trkpt lat="50.0499456" lon="8.4930632">
                <ele>88.0</ele>
                <time>2020-08-30T14:30:22.000Z</time>
                <name>Trackpoint 7127</name>
            </trkpt>
            <trkpt lat="50.049904" lon="8.4929384">
                <ele>88.0</ele>
                <time>2020-08-30T14:30:24.000Z</time>
                <name>Trackpoint 7128</name>
            </trkpt>
            <trkpt lat="50.0498496" lon="8.4928112">
                <ele>88.0</ele>
                <time>2020-08-30T14:30:26.000Z</time>
                <name>Trackpoint 7129</name>
            </trkpt>
            <trkpt lat="50.0498016" lon="8.4926816">
                <ele>88.0</ele>
                <time>2020-08-30T14:30:28.000Z</time>
                <name>Trackpoint 7130</name>
            </trkpt>
            <trkpt lat="50.0497504" lon="8.4925472">
                <ele>88.0</ele>
                <time>2020-08-30T14:30:30.000Z</time>
                <name>Trackpoint 7131</name>
            </trkpt>
            <trkpt lat="50.0496992" lon="8.4924096">
                <ele>88.0</ele>
                <time>2020-08-30T14:30:32.000Z</time>
                <name>Trackpoint 7132</name>
            </trkpt>
            <trkpt lat="50.0496416" lon="8.4922688">
                <ele>88.0</ele>
                <time>2020-08-30T14:30:34.000Z</time>
                <name>Trackpoint 7133</name>
            </trkpt>
            <trkpt lat="50.049584" lon="8.4921264">
                <ele>88.0</ele>
                <time>2020-08-30T14:30:36.000Z</time>
                <name>Trackpoint 7134</name>
            </trkpt>
            <trkpt lat="50.0495264" lon="8.4919856">
                <ele>88.0</ele>
                <time>2020-08-30T14:30:38.000Z</time>
                <name>Trackpoint 7135</name>
            </trkpt>
            <trkpt lat="50.0494752" lon="8.4918496">
                <ele>88.0</ele>
                <time>2020-08-30T14:30:40.000Z</time>
                <name>Trackpoint 7136</name>
            </trkpt>
            <trkpt lat="50.0494304" lon="8.491712">
                <ele>88.0</ele>
                <time>2020-08-30T14:30:42.000Z</time>
                <name>Trackpoint 7137</name>
            </trkpt>
            <trkpt lat="50.049376" lon="8.4915848">
                <ele>87.0</ele>
                <time>2020-08-30T14:30:44.000Z</time>
                <name>Trackpoint 7138</name>
            </trkpt>
            <trkpt lat="50.049328" lon="8.4914648">
                <ele>87.0</ele>
                <time>2020-08-30T14:30:46.000Z</time>
                <name>Trackpoint 7139</name>
            </trkpt>
            <trkpt lat="50.0492832" lon="8.491352">
                <ele>87.0</ele>
                <time>2020-08-30T14:30:48.000Z</time>
                <name>Trackpoint 7140</name>
            </trkpt>
            <trkpt lat="50.0492416" lon="8.4912456">
                <ele>87.0</ele>
                <time>2020-08-30T14:30:50.000Z</time>
                <name>Trackpoint 7141</name>
            </trkpt>
            <trkpt lat="50.0492096" lon="8.4911584">
                <ele>88.0</ele>
                <time>2020-08-30T14:30:52.000Z</time>
                <name>Trackpoint 7142</name>
            </trkpt>
            <trkpt lat="50.0492032" lon="8.49102">
                <ele>88.0</ele>
                <time>2020-08-30T14:30:55.000Z</time>
                <name>Trackpoint 7143</name>
            </trkpt>
            <trkpt lat="50.0492096" lon="8.490896">
                <ele>88.0</ele>
                <time>2020-08-30T14:30:57.000Z</time>
                <name>Trackpoint 7144</name>
            </trkpt>
            <trkpt lat="50.049248" lon="8.4907752">
                <ele>89.0</ele>
                <time>2020-08-30T14:30:59.000Z</time>
                <name>Trackpoint 7145</name>
            </trkpt>
            <trkpt lat="50.049312" lon="8.4906664">
                <ele>89.0</ele>
                <time>2020-08-30T14:31:01.000Z</time>
                <name>Trackpoint 7146</name>
            </trkpt>
            <trkpt lat="50.049408" lon="8.49058">
                <ele>89.0</ele>
                <time>2020-08-30T14:31:03.000Z</time>
                <name>Trackpoint 7147</name>
            </trkpt>
            <trkpt lat="50.0495136" lon="8.4905168">
                <ele>89.0</ele>
                <time>2020-08-30T14:31:05.000Z</time>
                <name>Trackpoint 7148</name>
            </trkpt>
            <trkpt lat="50.0496128" lon="8.4904544">
                <ele>89.0</ele>
                <time>2020-08-30T14:31:07.000Z</time>
                <name>Trackpoint 7149</name>
            </trkpt>
            <trkpt lat="50.049712" lon="8.4903936">
                <ele>90.0</ele>
                <time>2020-08-30T14:31:09.000Z</time>
                <name>Trackpoint 7150</name>
            </trkpt>
            <trkpt lat="50.049792" lon="8.490332">
                <ele>91.0</ele>
                <time>2020-08-30T14:31:11.000Z</time>
                <name>Trackpoint 7151</name>
            </trkpt>
            <trkpt lat="50.0498784" lon="8.4902736">
                <ele>90.0</ele>
                <time>2020-08-30T14:31:13.000Z</time>
                <name>Trackpoint 7152</name>
            </trkpt>
            <trkpt lat="50.049952" lon="8.4902088">
                <ele>91.0</ele>
                <time>2020-08-30T14:31:15.000Z</time>
                <name>Trackpoint 7153</name>
            </trkpt>
            <trkpt lat="50.0499776" lon="8.4900904">
                <ele>90.0</ele>
                <time>2020-08-30T14:31:17.000Z</time>
                <name>Trackpoint 7154</name>
            </trkpt>
            <trkpt lat="50.0499488" lon="8.489952">
                <ele>90.0</ele>
                <time>2020-08-30T14:31:19.000Z</time>
                <name>Trackpoint 7155</name>
            </trkpt>
            <trkpt lat="50.0499008" lon="8.4898168">
                <ele>90.0</ele>
                <time>2020-08-30T14:31:21.000Z</time>
                <name>Trackpoint 7156</name>
            </trkpt>
            <trkpt lat="50.0498432" lon="8.4896848">
                <ele>90.0</ele>
                <time>2020-08-30T14:31:23.000Z</time>
                <name>Trackpoint 7157</name>
            </trkpt>
            <trkpt lat="50.0497824" lon="8.4895496">
                <ele>90.0</ele>
                <time>2020-08-30T14:31:25.000Z</time>
                <name>Trackpoint 7158</name>
            </trkpt>
            <trkpt lat="50.0497216" lon="8.4894168">
                <ele>90.0</ele>
                <time>2020-08-30T14:31:27.000Z</time>
                <name>Trackpoint 7159</name>
            </trkpt>
            <trkpt lat="50.049664" lon="8.4892864">
                <ele>90.0</ele>
                <time>2020-08-30T14:31:29.000Z</time>
                <name>Trackpoint 7160</name>
            </trkpt>
            <trkpt lat="50.0496096" lon="8.4891568">
                <ele>90.0</ele>
                <time>2020-08-30T14:31:31.000Z</time>
                <name>Trackpoint 7161</name>
            </trkpt>
            <trkpt lat="50.049552" lon="8.4890296">
                <ele>90.0</ele>
                <time>2020-08-30T14:31:33.000Z</time>
                <name>Trackpoint 7162</name>
            </trkpt>
            <trkpt lat="50.0495072" lon="8.488892">
                <ele>90.0</ele>
                <time>2020-08-30T14:31:35.000Z</time>
                <name>Trackpoint 7163</name>
            </trkpt>
            <trkpt lat="50.0494496" lon="8.4887648">
                <ele>90.0</ele>
                <time>2020-08-30T14:31:37.000Z</time>
                <name>Trackpoint 7164</name>
            </trkpt>
            <trkpt lat="50.0494016" lon="8.4886352">
                <ele>90.0</ele>
                <time>2020-08-30T14:31:39.000Z</time>
                <name>Trackpoint 7165</name>
            </trkpt>
            <trkpt lat="50.0493472" lon="8.4885032">
                <ele>90.0</ele>
                <time>2020-08-30T14:31:41.000Z</time>
                <name>Trackpoint 7166</name>
            </trkpt>
            <trkpt lat="50.0492928" lon="8.4883744">
                <ele>90.0</ele>
                <time>2020-08-30T14:31:43.000Z</time>
                <name>Trackpoint 7167</name>
            </trkpt>
            <trkpt lat="50.0492416" lon="8.4882432">
                <ele>89.0</ele>
                <time>2020-08-30T14:31:45.000Z</time>
                <name>Trackpoint 7168</name>
            </trkpt>
            <trkpt lat="50.049184" lon="8.4881184">
                <ele>89.0</ele>
                <time>2020-08-30T14:31:47.000Z</time>
                <name>Trackpoint 7169</name>
            </trkpt>
            <trkpt lat="50.0491296" lon="8.4879936">
                <ele>88.0</ele>
                <time>2020-08-30T14:31:49.000Z</time>
                <name>Trackpoint 7170</name>
            </trkpt>
            <trkpt lat="50.0490784" lon="8.48788">
                <ele>88.0</ele>
                <time>2020-08-30T14:31:51.000Z</time>
                <name>Trackpoint 7171</name>
            </trkpt>
            <trkpt lat="50.0490336" lon="8.4877656">
                <ele>88.0</ele>
                <time>2020-08-30T14:31:53.000Z</time>
                <name>Trackpoint 7172</name>
            </trkpt>
            <trkpt lat="50.048992" lon="8.487648">
                <ele>88.0</ele>
                <time>2020-08-30T14:31:55.000Z</time>
                <name>Trackpoint 7173</name>
            </trkpt>
            <trkpt lat="50.0489344" lon="8.4875432">
                <ele>88.0</ele>
                <time>2020-08-30T14:31:57.000Z</time>
                <name>Trackpoint 7174</name>
            </trkpt>
            <trkpt lat="50.0488864" lon="8.4874312">
                <ele>88.0</ele>
                <time>2020-08-30T14:31:59.000Z</time>
                <name>Trackpoint 7175</name>
            </trkpt>
            <trkpt lat="50.048832" lon="8.4873248">
                <ele>89.0</ele>
                <time>2020-08-30T14:32:01.000Z</time>
                <name>Trackpoint 7176</name>
            </trkpt>
            <trkpt lat="50.0488" lon="8.4872168">
                <ele>90.0</ele>
                <time>2020-08-30T14:32:03.000Z</time>
                <name>Trackpoint 7177</name>
            </trkpt>
            <trkpt lat="50.0488192" lon="8.4871184">
                <ele>89.0</ele>
                <time>2020-08-30T14:32:05.000Z</time>
                <name>Trackpoint 7178</name>
            </trkpt>
            <trkpt lat="50.0488512" lon="8.4870256">
                <ele>89.0</ele>
                <time>2020-08-30T14:32:07.000Z</time>
                <name>Trackpoint 7179</name>
            </trkpt>
            <trkpt lat="50.0488448" lon="8.4869168">
                <ele>90.0</ele>
                <time>2020-08-30T14:32:09.000Z</time>
                <name>Trackpoint 7180</name>
            </trkpt>
            <trkpt lat="50.0488064" lon="8.4868096">
                <ele>90.0</ele>
                <time>2020-08-30T14:32:11.000Z</time>
                <name>Trackpoint 7181</name>
            </trkpt>
            <trkpt lat="50.0487552" lon="8.4866912">
                <ele>90.0</ele>
                <time>2020-08-30T14:32:13.000Z</time>
                <name>Trackpoint 7182</name>
            </trkpt>
            <trkpt lat="50.0487072" lon="8.4865648">
                <ele>89.0</ele>
                <time>2020-08-30T14:32:15.000Z</time>
                <name>Trackpoint 7183</name>
            </trkpt>
            <trkpt lat="50.048656" lon="8.4864368">
                <ele>89.0</ele>
                <time>2020-08-30T14:32:17.000Z</time>
                <name>Trackpoint 7184</name>
            </trkpt>
            <trkpt lat="50.0486112" lon="8.4863144">
                <ele>89.0</ele>
                <time>2020-08-30T14:32:19.000Z</time>
                <name>Trackpoint 7185</name>
            </trkpt>
            <trkpt lat="50.0485568" lon="8.486188">
                <ele>89.0</ele>
                <time>2020-08-30T14:32:21.000Z</time>
                <name>Trackpoint 7186</name>
            </trkpt>
            <trkpt lat="50.0484992" lon="8.4860624">
                <ele>90.0</ele>
                <time>2020-08-30T14:32:23.000Z</time>
                <name>Trackpoint 7187</name>
            </trkpt>
            <trkpt lat="50.0484576" lon="8.4859384">
                <ele>90.0</ele>
                <time>2020-08-30T14:32:25.000Z</time>
                <name>Trackpoint 7188</name>
            </trkpt>
            <trkpt lat="50.0484128" lon="8.4858064">
                <ele>90.0</ele>
                <time>2020-08-30T14:32:27.000Z</time>
                <name>Trackpoint 7189</name>
            </trkpt>
            <trkpt lat="50.048352" lon="8.485688">
                <ele>90.0</ele>
                <time>2020-08-30T14:32:29.000Z</time>
                <name>Trackpoint 7190</name>
            </trkpt>
            <trkpt lat="50.0483104" lon="8.4855648">
                <ele>89.0</ele>
                <time>2020-08-30T14:32:31.000Z</time>
                <name>Trackpoint 7191</name>
            </trkpt>
            <trkpt lat="50.0482592" lon="8.4854344">
                <ele>89.0</ele>
                <time>2020-08-30T14:32:33.000Z</time>
                <name>Trackpoint 7192</name>
            </trkpt>
            <trkpt lat="50.0482048" lon="8.4853088">
                <ele>88.0</ele>
                <time>2020-08-30T14:32:35.000Z</time>
                <name>Trackpoint 7193</name>
            </trkpt>
            <trkpt lat="50.0481568" lon="8.4851768">
                <ele>88.0</ele>
                <time>2020-08-30T14:32:37.000Z</time>
                <name>Trackpoint 7194</name>
            </trkpt>
            <trkpt lat="50.0481056" lon="8.4850464">
                <ele>88.0</ele>
                <time>2020-08-30T14:32:39.000Z</time>
                <name>Trackpoint 7195</name>
            </trkpt>
            <trkpt lat="50.0480608" lon="8.4849216">
                <ele>88.0</ele>
                <time>2020-08-30T14:32:41.000Z</time>
                <name>Trackpoint 7196</name>
            </trkpt>
            <trkpt lat="50.0480064" lon="8.484792">
                <ele>88.0</ele>
                <time>2020-08-30T14:32:43.000Z</time>
                <name>Trackpoint 7197</name>
            </trkpt>
            <trkpt lat="50.0479584" lon="8.4846784">
                <ele>88.0</ele>
                <time>2020-08-30T14:32:45.000Z</time>
                <name>Trackpoint 7198</name>
            </trkpt>
            <trkpt lat="50.0479328" lon="8.4845736">
                <ele>88.0</ele>
                <time>2020-08-30T14:32:47.000Z</time>
                <name>Trackpoint 7199</name>
            </trkpt>
            <trkpt lat="50.0479744" lon="8.4844552">
                <ele>88.0</ele>
                <time>2020-08-30T14:32:50.000Z</time>
                <name>Trackpoint 7200</name>
            </trkpt>
            <trkpt lat="50.0480736" lon="8.48438">
                <ele>88.0</ele>
                <time>2020-08-30T14:32:53.000Z</time>
                <name>Trackpoint 7201</name>
            </trkpt>
            <trkpt lat="50.0481056" lon="8.4842856">
                <ele>88.0</ele>
                <time>2020-08-30T14:32:55.000Z</time>
                <name>Trackpoint 7202</name>
            </trkpt>
            <trkpt lat="50.0480896" lon="8.4841616">
                <ele>89.0</ele>
                <time>2020-08-30T14:32:57.000Z</time>
                <name>Trackpoint 7203</name>
            </trkpt>
            <trkpt lat="50.0480416" lon="8.4840384">
                <ele>89.0</ele>
                <time>2020-08-30T14:32:59.000Z</time>
                <name>Trackpoint 7204</name>
            </trkpt>
            <trkpt lat="50.048" lon="8.4839064">
                <ele>90.0</ele>
                <time>2020-08-30T14:33:01.000Z</time>
                <name>Trackpoint 7205</name>
            </trkpt>
            <trkpt lat="50.0479616" lon="8.4837768">
                <ele>89.0</ele>
                <time>2020-08-30T14:33:03.000Z</time>
                <name>Trackpoint 7206</name>
            </trkpt>
            <trkpt lat="50.04792" lon="8.4836504">
                <ele>89.0</ele>
                <time>2020-08-30T14:33:05.000Z</time>
                <name>Trackpoint 7207</name>
            </trkpt>
            <trkpt lat="50.0478784" lon="8.4835168">
                <ele>89.0</ele>
                <time>2020-08-30T14:33:07.000Z</time>
                <name>Trackpoint 7208</name>
            </trkpt>
            <trkpt lat="50.04784" lon="8.4834048">
                <ele>90.0</ele>
                <time>2020-08-30T14:33:09.000Z</time>
                <name>Trackpoint 7209</name>
            </trkpt>
            <trkpt lat="50.047792" lon="8.4832872">
                <ele>89.0</ele>
                <time>2020-08-30T14:33:12.000Z</time>
                <name>Trackpoint 7210</name>
            </trkpt>
            <trkpt lat="50.0477472" lon="8.4832064">
                <ele>89.0</ele>
                <time>2020-08-30T14:33:14.000Z</time>
                <name>Trackpoint 7211</name>
            </trkpt>
            <trkpt lat="50.0476992" lon="8.4830952">
                <ele>88.0</ele>
                <time>2020-08-30T14:33:16.000Z</time>
                <name>Trackpoint 7212</name>
            </trkpt>
            <trkpt lat="50.0476384" lon="8.4829712">
                <ele>88.0</ele>
                <time>2020-08-30T14:33:18.000Z</time>
                <name>Trackpoint 7213</name>
            </trkpt>
            <trkpt lat="50.047568" lon="8.4828528">
                <ele>88.0</ele>
                <time>2020-08-30T14:33:20.000Z</time>
                <name>Trackpoint 7214</name>
            </trkpt>
            <trkpt lat="50.0475008" lon="8.482732">
                <ele>89.0</ele>
                <time>2020-08-30T14:33:22.000Z</time>
                <name>Trackpoint 7215</name>
            </trkpt>
            <trkpt lat="50.0474368" lon="8.4826208">
                <ele>89.0</ele>
                <time>2020-08-30T14:33:24.000Z</time>
                <name>Trackpoint 7216</name>
            </trkpt>
            <trkpt lat="50.0473792" lon="8.4825112">
                <ele>90.0</ele>
                <time>2020-08-30T14:33:27.000Z</time>
                <name>Trackpoint 7217</name>
            </trkpt>
            <trkpt lat="50.0473184" lon="8.4824416">
                <ele>92.0</ele>
                <time>2020-08-30T14:33:33.000Z</time>
                <name>Trackpoint 7218</name>
            </trkpt>
            <trkpt lat="50.04728" lon="8.4823536">
                <ele>91.0</ele>
                <time>2020-08-30T14:34:19.000Z</time>
                <name>Trackpoint 7219</name>
            </trkpt>
            <trkpt lat="50.0472288" lon="8.4822728">
                <ele>90.0</ele>
                <time>2020-08-30T14:34:21.000Z</time>
                <name>Trackpoint 7220</name>
            </trkpt>
            <trkpt lat="50.047168" lon="8.48216">
                <ele>89.0</ele>
                <time>2020-08-30T14:34:23.000Z</time>
                <name>Trackpoint 7221</name>
            </trkpt>
            <trkpt lat="50.0471072" lon="8.4820432">
                <ele>89.0</ele>
                <time>2020-08-30T14:34:25.000Z</time>
                <name>Trackpoint 7222</name>
            </trkpt>
            <trkpt lat="50.04704" lon="8.4819344">
                <ele>88.0</ele>
                <time>2020-08-30T14:34:27.000Z</time>
                <name>Trackpoint 7223</name>
            </trkpt>
            <trkpt lat="50.0469632" lon="8.4818312">
                <ele>89.0</ele>
                <time>2020-08-30T14:34:29.000Z</time>
                <name>Trackpoint 7224</name>
            </trkpt>
            <trkpt lat="50.0468832" lon="8.4817384">
                <ele>89.0</ele>
                <time>2020-08-30T14:34:31.000Z</time>
                <name>Trackpoint 7225</name>
            </trkpt>
            <trkpt lat="50.0467936" lon="8.4816504">
                <ele>89.0</ele>
                <time>2020-08-30T14:34:33.000Z</time>
                <name>Trackpoint 7226</name>
            </trkpt>
            <trkpt lat="50.0467136" lon="8.4815656">
                <ele>89.0</ele>
                <time>2020-08-30T14:34:35.000Z</time>
                <name>Trackpoint 7227</name>
            </trkpt>
            <trkpt lat="50.0466304" lon="8.4814752">
                <ele>89.0</ele>
                <time>2020-08-30T14:34:37.000Z</time>
                <name>Trackpoint 7228</name>
            </trkpt>
            <trkpt lat="50.0465504" lon="8.481388">
                <ele>89.0</ele>
                <time>2020-08-30T14:34:39.000Z</time>
                <name>Trackpoint 7229</name>
            </trkpt>
            <trkpt lat="50.0464672" lon="8.4813016">
                <ele>89.0</ele>
                <time>2020-08-30T14:34:41.000Z</time>
                <name>Trackpoint 7230</name>
            </trkpt>
            <trkpt lat="50.046384" lon="8.4812136">
                <ele>89.0</ele>
                <time>2020-08-30T14:34:43.000Z</time>
                <name>Trackpoint 7231</name>
            </trkpt>
            <trkpt lat="50.0462976" lon="8.4811264">
                <ele>89.0</ele>
                <time>2020-08-30T14:34:45.000Z</time>
                <name>Trackpoint 7232</name>
            </trkpt>
            <trkpt lat="50.0462176" lon="8.4810464">
                <ele>89.0</ele>
                <time>2020-08-30T14:34:47.000Z</time>
                <name>Trackpoint 7233</name>
            </trkpt>
            <trkpt lat="50.0461376" lon="8.4809664">
                <ele>90.0</ele>
                <time>2020-08-30T14:34:49.000Z</time>
                <name>Trackpoint 7234</name>
            </trkpt>
            <trkpt lat="50.0460576" lon="8.4808928">
                <ele>90.0</ele>
                <time>2020-08-30T14:34:51.000Z</time>
                <name>Trackpoint 7235</name>
            </trkpt>
            <trkpt lat="50.0459968" lon="8.480808">
                <ele>90.0</ele>
                <time>2020-08-30T14:34:53.000Z</time>
                <name>Trackpoint 7236</name>
            </trkpt>
            <trkpt lat="50.0459456" lon="8.480728">
                <ele>90.0</ele>
                <time>2020-08-30T14:34:55.000Z</time>
                <name>Trackpoint 7237</name>
            </trkpt>
            <trkpt lat="50.0458976" lon="8.4806344">
                <ele>90.0</ele>
                <time>2020-08-30T14:34:57.000Z</time>
                <name>Trackpoint 7238</name>
            </trkpt>
            <trkpt lat="50.0458688" lon="8.4805336">
                <ele>89.0</ele>
                <time>2020-08-30T14:34:59.000Z</time>
                <name>Trackpoint 7239</name>
            </trkpt>
            <trkpt lat="50.0458336" lon="8.4804264">
                <ele>89.0</ele>
                <time>2020-08-30T14:35:01.000Z</time>
                <name>Trackpoint 7240</name>
            </trkpt>
            <trkpt lat="50.0457888" lon="8.4803184">
                <ele>89.0</ele>
                <time>2020-08-30T14:35:03.000Z</time>
                <name>Trackpoint 7241</name>
            </trkpt>
            <trkpt lat="50.0457472" lon="8.4802104">
                <ele>89.0</ele>
                <time>2020-08-30T14:35:05.000Z</time>
                <name>Trackpoint 7242</name>
            </trkpt>
            <trkpt lat="50.0457024" lon="8.480108">
                <ele>89.0</ele>
                <time>2020-08-30T14:35:07.000Z</time>
                <name>Trackpoint 7243</name>
            </trkpt>
            <trkpt lat="50.0456576" lon="8.4800064">
                <ele>89.0</ele>
                <time>2020-08-30T14:35:09.000Z</time>
                <name>Trackpoint 7244</name>
            </trkpt>
            <trkpt lat="50.0455936" lon="8.4799184">
                <ele>89.0</ele>
                <time>2020-08-30T14:35:11.000Z</time>
                <name>Trackpoint 7245</name>
            </trkpt>
            <trkpt lat="50.045536" lon="8.4798368">
                <ele>89.0</ele>
                <time>2020-08-30T14:35:13.000Z</time>
                <name>Trackpoint 7246</name>
            </trkpt>
            <trkpt lat="50.0454784" lon="8.4797424">
                <ele>89.0</ele>
                <time>2020-08-30T14:35:15.000Z</time>
                <name>Trackpoint 7247</name>
            </trkpt>
            <trkpt lat="50.0454176" lon="8.4796336">
                <ele>89.0</ele>
                <time>2020-08-30T14:35:17.000Z</time>
                <name>Trackpoint 7248</name>
            </trkpt>
            <trkpt lat="50.0453568" lon="8.4795168">
                <ele>89.0</ele>
                <time>2020-08-30T14:35:19.000Z</time>
                <name>Trackpoint 7249</name>
            </trkpt>
            <trkpt lat="50.0453056" lon="8.4793832">
                <ele>89.0</ele>
                <time>2020-08-30T14:35:21.000Z</time>
                <name>Trackpoint 7250</name>
            </trkpt>
            <trkpt lat="50.0452512" lon="8.4792536">
                <ele>90.0</ele>
                <time>2020-08-30T14:35:23.000Z</time>
                <name>Trackpoint 7251</name>
            </trkpt>
            <trkpt lat="50.0451936" lon="8.4791136">
                <ele>90.0</ele>
                <time>2020-08-30T14:35:25.000Z</time>
                <name>Trackpoint 7252</name>
            </trkpt>
            <trkpt lat="50.0451328" lon="8.4789784">
                <ele>90.0</ele>
                <time>2020-08-30T14:35:27.000Z</time>
                <name>Trackpoint 7253</name>
            </trkpt>
            <trkpt lat="50.0450752" lon="8.4788448">
                <ele>90.0</ele>
                <time>2020-08-30T14:35:29.000Z</time>
                <name>Trackpoint 7254</name>
            </trkpt>
            <trkpt lat="50.0450176" lon="8.478708">
                <ele>90.0</ele>
                <time>2020-08-30T14:35:31.000Z</time>
                <name>Trackpoint 7255</name>
            </trkpt>
            <trkpt lat="50.04496" lon="8.4785832">
                <ele>90.0</ele>
                <time>2020-08-30T14:35:33.000Z</time>
                <name>Trackpoint 7256</name>
            </trkpt>
            <trkpt lat="50.0448864" lon="8.4784816">
                <ele>90.0</ele>
                <time>2020-08-30T14:35:35.000Z</time>
                <name>Trackpoint 7257</name>
            </trkpt>
            <trkpt lat="50.0448032" lon="8.4784">
                <ele>90.0</ele>
                <time>2020-08-30T14:35:37.000Z</time>
                <name>Trackpoint 7258</name>
            </trkpt>
            <trkpt lat="50.0447168" lon="8.4783248">
                <ele>90.0</ele>
                <time>2020-08-30T14:35:39.000Z</time>
                <name>Trackpoint 7259</name>
            </trkpt>
            <trkpt lat="50.0446304" lon="8.4782304">
                <ele>90.0</ele>
                <time>2020-08-30T14:35:41.000Z</time>
                <name>Trackpoint 7260</name>
            </trkpt>
            <trkpt lat="50.044544" lon="8.4781376">
                <ele>90.0</ele>
                <time>2020-08-30T14:35:43.000Z</time>
                <name>Trackpoint 7261</name>
            </trkpt>
            <trkpt lat="50.0444512" lon="8.4780464">
                <ele>90.0</ele>
                <time>2020-08-30T14:35:45.000Z</time>
                <name>Trackpoint 7262</name>
            </trkpt>
            <trkpt lat="50.0443584" lon="8.4779656">
                <ele>90.0</ele>
                <time>2020-08-30T14:35:47.000Z</time>
                <name>Trackpoint 7263</name>
            </trkpt>
            <trkpt lat="50.0442656" lon="8.4778784">
                <ele>90.0</ele>
                <time>2020-08-30T14:35:49.000Z</time>
                <name>Trackpoint 7264</name>
            </trkpt>
            <trkpt lat="50.0441824" lon="8.4777736">
                <ele>90.0</ele>
                <time>2020-08-30T14:35:51.000Z</time>
                <name>Trackpoint 7265</name>
            </trkpt>
            <trkpt lat="50.0440992" lon="8.477676">
                <ele>90.0</ele>
                <time>2020-08-30T14:35:53.000Z</time>
                <name>Trackpoint 7266</name>
            </trkpt>
            <trkpt lat="50.0440096" lon="8.4775952">
                <ele>90.0</ele>
                <time>2020-08-30T14:35:55.000Z</time>
                <name>Trackpoint 7267</name>
            </trkpt>
            <trkpt lat="50.0439328" lon="8.4775136">
                <ele>90.0</ele>
                <time>2020-08-30T14:35:57.000Z</time>
                <name>Trackpoint 7268</name>
            </trkpt>
            <trkpt lat="50.0438656" lon="8.477444">
                <ele>90.0</ele>
                <time>2020-08-30T14:35:59.000Z</time>
                <name>Trackpoint 7269</name>
            </trkpt>
            <trkpt lat="50.0437888" lon="8.4773528">
                <ele>89.0</ele>
                <time>2020-08-30T14:36:02.000Z</time>
                <name>Trackpoint 7270</name>
            </trkpt>
            <trkpt lat="50.0437088" lon="8.477292">
                <ele>88.0</ele>
                <time>2020-08-30T14:36:37.000Z</time>
                <name>Trackpoint 7271</name>
            </trkpt>
            <trkpt lat="50.0436352" lon="8.477192">
                <ele>88.0</ele>
                <time>2020-08-30T14:36:41.000Z</time>
                <name>Trackpoint 7272</name>
            </trkpt>
            <trkpt lat="50.0435488" lon="8.4770984">
                <ele>88.0</ele>
                <time>2020-08-30T14:36:44.000Z</time>
                <name>Trackpoint 7273</name>
            </trkpt>
            <trkpt lat="50.043472" lon="8.477012">
                <ele>88.0</ele>
                <time>2020-08-30T14:36:46.000Z</time>
                <name>Trackpoint 7274</name>
            </trkpt>
            <trkpt lat="50.0433952" lon="8.4769152">
                <ele>88.0</ele>
                <time>2020-08-30T14:36:48.000Z</time>
                <name>Trackpoint 7275</name>
            </trkpt>
            <trkpt lat="50.043312" lon="8.476824">
                <ele>88.0</ele>
                <time>2020-08-30T14:36:50.000Z</time>
                <name>Trackpoint 7276</name>
            </trkpt>
            <trkpt lat="50.0432288" lon="8.4767504">
                <ele>88.0</ele>
                <time>2020-08-30T14:36:52.000Z</time>
                <name>Trackpoint 7277</name>
            </trkpt>
            <trkpt lat="50.0431456" lon="8.47662">
                <ele>88.0</ele>
                <time>2020-08-30T14:36:54.000Z</time>
                <name>Trackpoint 7278</name>
            </trkpt>
            <trkpt lat="50.0430464" lon="8.4765184">
                <ele>88.0</ele>
                <time>2020-08-30T14:36:56.000Z</time>
                <name>Trackpoint 7279</name>
            </trkpt>
            <trkpt lat="50.0429536" lon="8.4764">
                <ele>88.0</ele>
                <time>2020-08-30T14:36:58.000Z</time>
                <name>Trackpoint 7280</name>
            </trkpt>
            <trkpt lat="50.0428512" lon="8.4762872">
                <ele>88.0</ele>
                <time>2020-08-30T14:37:00.000Z</time>
                <name>Trackpoint 7281</name>
            </trkpt>
            <trkpt lat="50.0427552" lon="8.47618">
                <ele>88.0</ele>
                <time>2020-08-30T14:37:02.000Z</time>
                <name>Trackpoint 7282</name>
            </trkpt>
            <trkpt lat="50.0426496" lon="8.4760864">
                <ele>88.0</ele>
                <time>2020-08-30T14:37:04.000Z</time>
                <name>Trackpoint 7283</name>
            </trkpt>
            <trkpt lat="50.0425376" lon="8.476024">
                <ele>88.0</ele>
                <time>2020-08-30T14:37:06.000Z</time>
                <name>Trackpoint 7284</name>
            </trkpt>
            <trkpt lat="50.0424416" lon="8.475948">
                <ele>88.0</ele>
                <time>2020-08-30T14:37:08.000Z</time>
                <name>Trackpoint 7285</name>
            </trkpt>
            <trkpt lat="50.0423456" lon="8.47586">
                <ele>88.0</ele>
                <time>2020-08-30T14:37:10.000Z</time>
                <name>Trackpoint 7286</name>
            </trkpt>
            <trkpt lat="50.0422528" lon="8.4757544">
                <ele>88.0</ele>
                <time>2020-08-30T14:37:12.000Z</time>
                <name>Trackpoint 7287</name>
            </trkpt>
            <trkpt lat="50.0421472" lon="8.47564">
                <ele>88.0</ele>
                <time>2020-08-30T14:37:14.000Z</time>
                <name>Trackpoint 7288</name>
            </trkpt>
            <trkpt lat="50.0420544" lon="8.4755312">
                <ele>88.0</ele>
                <time>2020-08-30T14:37:16.000Z</time>
                <name>Trackpoint 7289</name>
            </trkpt>
            <trkpt lat="50.0419552" lon="8.4754136">
                <ele>88.0</ele>
                <time>2020-08-30T14:37:18.000Z</time>
                <name>Trackpoint 7290</name>
            </trkpt>
            <trkpt lat="50.0418496" lon="8.4753064">
                <ele>88.0</ele>
                <time>2020-08-30T14:37:20.000Z</time>
                <name>Trackpoint 7291</name>
            </trkpt>
            <trkpt lat="50.0417504" lon="8.4752064">
                <ele>88.0</ele>
                <time>2020-08-30T14:37:22.000Z</time>
                <name>Trackpoint 7292</name>
            </trkpt>
            <trkpt lat="50.041648" lon="8.4751032">
                <ele>88.0</ele>
                <time>2020-08-30T14:37:24.000Z</time>
                <name>Trackpoint 7293</name>
            </trkpt>
            <trkpt lat="50.041552" lon="8.475008">
                <ele>88.0</ele>
                <time>2020-08-30T14:37:26.000Z</time>
                <name>Trackpoint 7294</name>
            </trkpt>
            <trkpt lat="50.0414592" lon="8.4749072">
                <ele>88.0</ele>
                <time>2020-08-30T14:37:28.000Z</time>
                <name>Trackpoint 7295</name>
            </trkpt>
            <trkpt lat="50.0413888" lon="8.4748336">
                <ele>88.0</ele>
                <time>2020-08-30T14:37:30.000Z</time>
                <name>Trackpoint 7296</name>
            </trkpt>
            <trkpt lat="50.0412928" lon="8.4747248">
                <ele>88.0</ele>
                <time>2020-08-30T14:37:33.000Z</time>
                <name>Trackpoint 7297</name>
            </trkpt>
            <trkpt lat="50.0412096" lon="8.4746368">
                <ele>88.0</ele>
                <time>2020-08-30T14:37:35.000Z</time>
                <name>Trackpoint 7298</name>
            </trkpt>
            <trkpt lat="50.04112" lon="8.4745328">
                <ele>88.0</ele>
                <time>2020-08-30T14:37:37.000Z</time>
                <name>Trackpoint 7299</name>
            </trkpt>
            <trkpt lat="50.041024" lon="8.4744304">
                <ele>88.0</ele>
                <time>2020-08-30T14:37:39.000Z</time>
                <name>Trackpoint 7300</name>
            </trkpt>
            <trkpt lat="50.040928" lon="8.4743296">
                <ele>88.0</ele>
                <time>2020-08-30T14:37:41.000Z</time>
                <name>Trackpoint 7301</name>
            </trkpt>
            <trkpt lat="50.0408416" lon="8.4742336">
                <ele>88.0</ele>
                <time>2020-08-30T14:37:43.000Z</time>
                <name>Trackpoint 7302</name>
            </trkpt>
            <trkpt lat="50.040752" lon="8.474136">
                <ele>88.0</ele>
                <time>2020-08-30T14:37:45.000Z</time>
                <name>Trackpoint 7303</name>
            </trkpt>
            <trkpt lat="50.0406656" lon="8.474056">
                <ele>88.0</ele>
                <time>2020-08-30T14:37:47.000Z</time>
                <name>Trackpoint 7304</name>
            </trkpt>
            <trkpt lat="50.040576" lon="8.4739568">
                <ele>88.0</ele>
                <time>2020-08-30T14:37:49.000Z</time>
                <name>Trackpoint 7305</name>
            </trkpt>
            <trkpt lat="50.0404992" lon="8.47386">
                <ele>88.0</ele>
                <time>2020-08-30T14:37:51.000Z</time>
                <name>Trackpoint 7306</name>
            </trkpt>
            <trkpt lat="50.0404192" lon="8.4737856">
                <ele>88.0</ele>
                <time>2020-08-30T14:37:53.000Z</time>
                <name>Trackpoint 7307</name>
            </trkpt>
            <trkpt lat="50.0403584" lon="8.4737184">
                <ele>88.0</ele>
                <time>2020-08-30T14:37:55.000Z</time>
                <name>Trackpoint 7308</name>
            </trkpt>
            <trkpt lat="50.0402528" lon="8.4737216">
                <ele>88.0</ele>
                <time>2020-08-30T14:37:57.000Z</time>
                <name>Trackpoint 7309</name>
            </trkpt>
            <trkpt lat="50.0401664" lon="8.4736784">
                <ele>88.0</ele>
                <time>2020-08-30T14:37:59.000Z</time>
                <name>Trackpoint 7310</name>
            </trkpt>
            <trkpt lat="50.0401088" lon="8.4735968">
                <ele>88.0</ele>
                <time>2020-08-30T14:38:01.000Z</time>
                <name>Trackpoint 7311</name>
            </trkpt>
            <trkpt lat="50.0400352" lon="8.4735184">
                <ele>88.0</ele>
                <time>2020-08-30T14:38:03.000Z</time>
                <name>Trackpoint 7312</name>
            </trkpt>
            <trkpt lat="50.03992" lon="8.4734224">
                <ele>88.0</ele>
                <time>2020-08-30T14:38:05.000Z</time>
                <name>Trackpoint 7313</name>
            </trkpt>
            <trkpt lat="50.0398368" lon="8.473316">
                <ele>88.0</ele>
                <time>2020-08-30T14:38:07.000Z</time>
                <name>Trackpoint 7314</name>
            </trkpt>
            <trkpt lat="50.0397504" lon="8.4732104">
                <ele>88.0</ele>
                <time>2020-08-30T14:38:09.000Z</time>
                <name>Trackpoint 7315</name>
            </trkpt>
            <trkpt lat="50.0396768" lon="8.473112">
                <ele>88.0</ele>
                <time>2020-08-30T14:38:11.000Z</time>
                <name>Trackpoint 7316</name>
            </trkpt>
            <trkpt lat="50.0395936" lon="8.4730232">
                <ele>88.0</ele>
                <time>2020-08-30T14:38:13.000Z</time>
                <name>Trackpoint 7317</name>
            </trkpt>
            <trkpt lat="50.0395008" lon="8.4729136">
                <ele>88.0</ele>
                <time>2020-08-30T14:38:15.000Z</time>
                <name>Trackpoint 7318</name>
            </trkpt>
            <trkpt lat="50.039424" lon="8.472792">
                <ele>88.0</ele>
                <time>2020-08-30T14:38:17.000Z</time>
                <name>Trackpoint 7319</name>
            </trkpt>
            <trkpt lat="50.0393408" lon="8.47268">
                <ele>88.0</ele>
                <time>2020-08-30T14:38:19.000Z</time>
                <name>Trackpoint 7320</name>
            </trkpt>
            <trkpt lat="50.0392544" lon="8.4725816">
                <ele>88.0</ele>
                <time>2020-08-30T14:38:21.000Z</time>
                <name>Trackpoint 7321</name>
            </trkpt>
            <trkpt lat="50.0391616" lon="8.4725048">
                <ele>88.0</ele>
                <time>2020-08-30T14:38:23.000Z</time>
                <name>Trackpoint 7322</name>
            </trkpt>
            <trkpt lat="50.039056" lon="8.4724128">
                <ele>88.0</ele>
                <time>2020-08-30T14:38:25.000Z</time>
                <name>Trackpoint 7323</name>
            </trkpt>
            <trkpt lat="50.0389664" lon="8.4723184">
                <ele>88.0</ele>
                <time>2020-08-30T14:38:27.000Z</time>
                <name>Trackpoint 7324</name>
            </trkpt>
            <trkpt lat="50.0388672" lon="8.4722096">
                <ele>88.0</ele>
                <time>2020-08-30T14:38:29.000Z</time>
                <name>Trackpoint 7325</name>
            </trkpt>
            <trkpt lat="50.038784" lon="8.4720936">
                <ele>88.0</ele>
                <time>2020-08-30T14:38:31.000Z</time>
                <name>Trackpoint 7326</name>
            </trkpt>
            <trkpt lat="50.0386816" lon="8.4719824">
                <ele>88.0</ele>
                <time>2020-08-30T14:38:33.000Z</time>
                <name>Trackpoint 7327</name>
            </trkpt>
            <trkpt lat="50.0385984" lon="8.4718688">
                <ele>88.0</ele>
                <time>2020-08-30T14:38:35.000Z</time>
                <name>Trackpoint 7328</name>
            </trkpt>
            <trkpt lat="50.038512" lon="8.4717664">
                <ele>88.0</ele>
                <time>2020-08-30T14:38:37.000Z</time>
                <name>Trackpoint 7329</name>
            </trkpt>
            <trkpt lat="50.0384288" lon="8.4716704">
                <ele>88.0</ele>
                <time>2020-08-30T14:38:39.000Z</time>
                <name>Trackpoint 7330</name>
            </trkpt>
            <trkpt lat="50.038352" lon="8.4715664">
                <ele>88.0</ele>
                <time>2020-08-30T14:38:41.000Z</time>
                <name>Trackpoint 7331</name>
            </trkpt>
            <trkpt lat="50.038272" lon="8.4714648">
                <ele>88.0</ele>
                <time>2020-08-30T14:38:43.000Z</time>
                <name>Trackpoint 7332</name>
            </trkpt>
            <trkpt lat="50.0382048" lon="8.47136">
                <ele>88.0</ele>
                <time>2020-08-30T14:38:45.000Z</time>
                <name>Trackpoint 7333</name>
            </trkpt>
            <trkpt lat="50.0381312" lon="8.47126">
                <ele>88.0</ele>
                <time>2020-08-30T14:38:47.000Z</time>
                <name>Trackpoint 7334</name>
            </trkpt>
            <trkpt lat="50.0380512" lon="8.4711816">
                <ele>88.0</ele>
                <time>2020-08-30T14:38:49.000Z</time>
                <name>Trackpoint 7335</name>
            </trkpt>
            <trkpt lat="50.037968" lon="8.4710912">
                <ele>88.0</ele>
                <time>2020-08-30T14:38:51.000Z</time>
                <name>Trackpoint 7336</name>
            </trkpt>
            <trkpt lat="50.0379072" lon="8.470988">
                <ele>88.0</ele>
                <time>2020-08-30T14:38:53.000Z</time>
                <name>Trackpoint 7337</name>
            </trkpt>
            <trkpt lat="50.0378368" lon="8.4708816">
                <ele>88.0</ele>
                <time>2020-08-30T14:38:55.000Z</time>
                <name>Trackpoint 7338</name>
            </trkpt>
            <trkpt lat="50.0377664" lon="8.4707832">
                <ele>88.0</ele>
                <time>2020-08-30T14:38:57.000Z</time>
                <name>Trackpoint 7339</name>
            </trkpt>
            <trkpt lat="50.0376992" lon="8.4706984">
                <ele>87.0</ele>
                <time>2020-08-30T14:38:59.000Z</time>
                <name>Trackpoint 7340</name>
            </trkpt>
            <trkpt lat="50.0376288" lon="8.4706088">
                <ele>88.0</ele>
                <time>2020-08-30T14:39:01.000Z</time>
                <name>Trackpoint 7341</name>
            </trkpt>
            <trkpt lat="50.0375552" lon="8.4705232">
                <ele>87.0</ele>
                <time>2020-08-30T14:39:03.000Z</time>
                <name>Trackpoint 7342</name>
            </trkpt>
            <trkpt lat="50.0374688" lon="8.4704168">
                <ele>87.0</ele>
                <time>2020-08-30T14:39:05.000Z</time>
                <name>Trackpoint 7343</name>
            </trkpt>
            <trkpt lat="50.0373536" lon="8.4703168">
                <ele>87.0</ele>
                <time>2020-08-30T14:39:07.000Z</time>
                <name>Trackpoint 7344</name>
            </trkpt>
            <trkpt lat="50.0372736" lon="8.4701928">
                <ele>87.0</ele>
                <time>2020-08-30T14:39:09.000Z</time>
                <name>Trackpoint 7345</name>
            </trkpt>
            <trkpt lat="50.0371872" lon="8.4701168">
                <ele>87.0</ele>
                <time>2020-08-30T14:39:11.000Z</time>
                <name>Trackpoint 7346</name>
            </trkpt>
            <trkpt lat="50.037104" lon="8.47004">
                <ele>87.0</ele>
                <time>2020-08-30T14:39:13.000Z</time>
                <name>Trackpoint 7347</name>
            </trkpt>
            <trkpt lat="50.0370336" lon="8.4699552">
                <ele>86.0</ele>
                <time>2020-08-30T14:39:15.000Z</time>
                <name>Trackpoint 7348</name>
            </trkpt>
            <trkpt lat="50.0369504" lon="8.4698864">
                <ele>86.0</ele>
                <time>2020-08-30T14:39:17.000Z</time>
                <name>Trackpoint 7349</name>
            </trkpt>
            <trkpt lat="50.0368608" lon="8.4697984">
                <ele>86.0</ele>
                <time>2020-08-30T14:39:19.000Z</time>
                <name>Trackpoint 7350</name>
            </trkpt>
            <trkpt lat="50.036784" lon="8.4697">
                <ele>86.0</ele>
                <time>2020-08-30T14:39:21.000Z</time>
                <name>Trackpoint 7351</name>
            </trkpt>
            <trkpt lat="50.0367104" lon="8.4695968">
                <ele>87.0</ele>
                <time>2020-08-30T14:39:23.000Z</time>
                <name>Trackpoint 7352</name>
            </trkpt>
            <trkpt lat="50.036624" lon="8.4694984">
                <ele>87.0</ele>
                <time>2020-08-30T14:39:25.000Z</time>
                <name>Trackpoint 7353</name>
            </trkpt>
            <trkpt lat="50.036544" lon="8.4694136">
                <ele>88.0</ele>
                <time>2020-08-30T14:39:27.000Z</time>
                <name>Trackpoint 7354</name>
            </trkpt>
            <trkpt lat="50.0364672" lon="8.4693344">
                <ele>87.0</ele>
                <time>2020-08-30T14:39:29.000Z</time>
                <name>Trackpoint 7355</name>
            </trkpt>
            <trkpt lat="50.0363776" lon="8.4692448">
                <ele>86.0</ele>
                <time>2020-08-30T14:39:32.000Z</time>
                <name>Trackpoint 7356</name>
            </trkpt>
            <trkpt lat="50.0362944" lon="8.4691536">
                <ele>84.0</ele>
                <time>2020-08-30T14:39:35.000Z</time>
                <name>Trackpoint 7357</name>
            </trkpt>
            <trkpt lat="50.0361984" lon="8.4691232">
                <ele>83.0</ele>
                <time>2020-08-30T14:39:38.000Z</time>
                <name>Trackpoint 7358</name>
            </trkpt>
            <trkpt lat="50.0361088" lon="8.4691016">
                <ele>86.0</ele>
                <time>2020-08-30T14:39:41.000Z</time>
                <name>Trackpoint 7359</name>
            </trkpt>
            <trkpt lat="50.0360032" lon="8.4690984">
                <ele>90.0</ele>
                <time>2020-08-30T14:39:45.000Z</time>
                <name>Trackpoint 7360</name>
            </trkpt>
            <trkpt lat="50.0359072" lon="8.4691352">
                <ele>91.0</ele>
                <time>2020-08-30T14:39:48.000Z</time>
                <name>Trackpoint 7361</name>
            </trkpt>
            <trkpt lat="50.0358272" lon="8.4691784">
                <ele>92.0</ele>
                <time>2020-08-30T14:39:50.000Z</time>
                <name>Trackpoint 7362</name>
            </trkpt>
            <trkpt lat="50.0357376" lon="8.4692136">
                <ele>92.0</ele>
                <time>2020-08-30T14:39:52.000Z</time>
                <name>Trackpoint 7363</name>
            </trkpt>
            <trkpt lat="50.0356384" lon="8.4692248">
                <ele>92.0</ele>
                <time>2020-08-30T14:39:54.000Z</time>
                <name>Trackpoint 7364</name>
            </trkpt>
            <trkpt lat="50.0355424" lon="8.4692088">
                <ele>91.0</ele>
                <time>2020-08-30T14:39:56.000Z</time>
                <name>Trackpoint 7365</name>
            </trkpt>
            <trkpt lat="50.0354496" lon="8.4691688">
                <ele>91.0</ele>
                <time>2020-08-30T14:39:58.000Z</time>
                <name>Trackpoint 7366</name>
            </trkpt>
            <trkpt lat="50.0353312" lon="8.4691112">
                <ele>92.0</ele>
                <time>2020-08-30T14:40:01.000Z</time>
                <name>Trackpoint 7367</name>
            </trkpt>
            <trkpt lat="50.0352256" lon="8.4690536">
                <ele>92.0</ele>
                <time>2020-08-30T14:40:04.000Z</time>
                <name>Trackpoint 7368</name>
            </trkpt>
            <trkpt lat="50.0351072" lon="8.4689928">
                <ele>92.0</ele>
                <time>2020-08-30T14:40:07.000Z</time>
                <name>Trackpoint 7369</name>
            </trkpt>
            <trkpt lat="50.0350048" lon="8.4689376">
                <ele>92.0</ele>
                <time>2020-08-30T14:40:10.000Z</time>
                <name>Trackpoint 7370</name>
            </trkpt>
            <trkpt lat="50.0348928" lon="8.4688832">
                <ele>92.0</ele>
                <time>2020-08-30T14:40:13.000Z</time>
                <name>Trackpoint 7371</name>
            </trkpt>
            <trkpt lat="50.0347872" lon="8.4688384">
                <ele>92.0</ele>
                <time>2020-08-30T14:40:16.000Z</time>
                <name>Trackpoint 7372</name>
            </trkpt>
            <trkpt lat="50.0346784" lon="8.4687816">
                <ele>92.0</ele>
                <time>2020-08-30T14:40:19.000Z</time>
                <name>Trackpoint 7373</name>
            </trkpt>
            <trkpt lat="50.0345952" lon="8.4687344">
                <ele>92.0</ele>
                <time>2020-08-30T14:40:21.000Z</time>
                <name>Trackpoint 7374</name>
            </trkpt>
            <trkpt lat="50.0345088" lon="8.4686936">
                <ele>92.0</ele>
                <time>2020-08-30T14:40:23.000Z</time>
                <name>Trackpoint 7375</name>
            </trkpt>
            <trkpt lat="50.034416" lon="8.4686496">
                <ele>92.0</ele>
                <time>2020-08-30T14:40:25.000Z</time>
                <name>Trackpoint 7376</name>
            </trkpt>
            <trkpt lat="50.0343232" lon="8.4686048">
                <ele>92.0</ele>
                <time>2020-08-30T14:40:27.000Z</time>
                <name>Trackpoint 7377</name>
            </trkpt>
            <trkpt lat="50.0342304" lon="8.46856">
                <ele>92.0</ele>
                <time>2020-08-30T14:40:29.000Z</time>
                <name>Trackpoint 7378</name>
            </trkpt>
            <trkpt lat="50.0341344" lon="8.468516">
                <ele>92.0</ele>
                <time>2020-08-30T14:40:31.000Z</time>
                <name>Trackpoint 7379</name>
            </trkpt>
            <trkpt lat="50.0340384" lon="8.4684664">
                <ele>93.0</ele>
                <time>2020-08-30T14:40:33.000Z</time>
                <name>Trackpoint 7380</name>
            </trkpt>
            <trkpt lat="50.0339424" lon="8.4684184">
                <ele>92.0</ele>
                <time>2020-08-30T14:40:35.000Z</time>
                <name>Trackpoint 7381</name>
            </trkpt>
            <trkpt lat="50.03384" lon="8.4683712">
                <ele>93.0</ele>
                <time>2020-08-30T14:40:37.000Z</time>
                <name>Trackpoint 7382</name>
            </trkpt>
            <trkpt lat="50.0337408" lon="8.4683248">
                <ele>92.0</ele>
                <time>2020-08-30T14:40:39.000Z</time>
                <name>Trackpoint 7383</name>
            </trkpt>
            <trkpt lat="50.0336416" lon="8.4682768">
                <ele>92.0</ele>
                <time>2020-08-30T14:40:41.000Z</time>
                <name>Trackpoint 7384</name>
            </trkpt>
            <trkpt lat="50.0335456" lon="8.4682312">
                <ele>92.0</ele>
                <time>2020-08-30T14:40:43.000Z</time>
                <name>Trackpoint 7385</name>
            </trkpt>
            <trkpt lat="50.0334432" lon="8.4681832">
                <ele>92.0</ele>
                <time>2020-08-30T14:40:45.000Z</time>
                <name>Trackpoint 7386</name>
            </trkpt>
            <trkpt lat="50.0333472" lon="8.4681416">
                <ele>92.0</ele>
                <time>2020-08-30T14:40:47.000Z</time>
                <name>Trackpoint 7387</name>
            </trkpt>
            <trkpt lat="50.0332576" lon="8.4680992">
                <ele>92.0</ele>
                <time>2020-08-30T14:40:49.000Z</time>
                <name>Trackpoint 7388</name>
            </trkpt>
            <trkpt lat="50.0331648" lon="8.4680504">
                <ele>92.0</ele>
                <time>2020-08-30T14:40:51.000Z</time>
                <name>Trackpoint 7389</name>
            </trkpt>
            <trkpt lat="50.0330656" lon="8.4680016">
                <ele>92.0</ele>
                <time>2020-08-30T14:40:53.000Z</time>
                <name>Trackpoint 7390</name>
            </trkpt>
            <trkpt lat="50.0329664" lon="8.467952">
                <ele>92.0</ele>
                <time>2020-08-30T14:40:55.000Z</time>
                <name>Trackpoint 7391</name>
            </trkpt>
            <trkpt lat="50.0328672" lon="8.4678984">
                <ele>93.0</ele>
                <time>2020-08-30T14:40:57.000Z</time>
                <name>Trackpoint 7392</name>
            </trkpt>
            <trkpt lat="50.032768" lon="8.4678496">
                <ele>93.0</ele>
                <time>2020-08-30T14:40:59.000Z</time>
                <name>Trackpoint 7393</name>
            </trkpt>
            <trkpt lat="50.0326656" lon="8.4678032">
                <ele>93.0</ele>
                <time>2020-08-30T14:41:01.000Z</time>
                <name>Trackpoint 7394</name>
            </trkpt>
            <trkpt lat="50.0325664" lon="8.4677552">
                <ele>93.0</ele>
                <time>2020-08-30T14:41:03.000Z</time>
                <name>Trackpoint 7395</name>
            </trkpt>
            <trkpt lat="50.0324672" lon="8.4677048">
                <ele>93.0</ele>
                <time>2020-08-30T14:41:05.000Z</time>
                <name>Trackpoint 7396</name>
            </trkpt>
            <trkpt lat="50.0323648" lon="8.4676568">
                <ele>93.0</ele>
                <time>2020-08-30T14:41:07.000Z</time>
                <name>Trackpoint 7397</name>
            </trkpt>
            <trkpt lat="50.0322624" lon="8.4676104">
                <ele>93.0</ele>
                <time>2020-08-30T14:41:09.000Z</time>
                <name>Trackpoint 7398</name>
            </trkpt>
            <trkpt lat="50.0321568" lon="8.4675616">
                <ele>92.0</ele>
                <time>2020-08-30T14:41:11.000Z</time>
                <name>Trackpoint 7399</name>
            </trkpt>
            <trkpt lat="50.0320544" lon="8.467512">
                <ele>93.0</ele>
                <time>2020-08-30T14:41:13.000Z</time>
                <name>Trackpoint 7400</name>
            </trkpt>
            <trkpt lat="50.031952" lon="8.4674616">
                <ele>93.0</ele>
                <time>2020-08-30T14:41:15.000Z</time>
                <name>Trackpoint 7401</name>
            </trkpt>
            <trkpt lat="50.0318496" lon="8.467412">
                <ele>93.0</ele>
                <time>2020-08-30T14:41:17.000Z</time>
                <name>Trackpoint 7402</name>
            </trkpt>
            <trkpt lat="50.0317472" lon="8.4673616">
                <ele>93.0</ele>
                <time>2020-08-30T14:41:19.000Z</time>
                <name>Trackpoint 7403</name>
            </trkpt>
            <trkpt lat="50.031648" lon="8.467312">
                <ele>93.0</ele>
                <time>2020-08-30T14:41:21.000Z</time>
                <name>Trackpoint 7404</name>
            </trkpt>
            <trkpt lat="50.0315424" lon="8.46726">
                <ele>93.0</ele>
                <time>2020-08-30T14:41:23.000Z</time>
                <name>Trackpoint 7405</name>
            </trkpt>
            <trkpt lat="50.0314368" lon="8.4672144">
                <ele>93.0</ele>
                <time>2020-08-30T14:41:25.000Z</time>
                <name>Trackpoint 7406</name>
            </trkpt>
            <trkpt lat="50.0313344" lon="8.4671648">
                <ele>93.0</ele>
                <time>2020-08-30T14:41:27.000Z</time>
                <name>Trackpoint 7407</name>
            </trkpt>
            <trkpt lat="50.0312352" lon="8.46712">
                <ele>93.0</ele>
                <time>2020-08-30T14:41:29.000Z</time>
                <name>Trackpoint 7408</name>
            </trkpt>
            <trkpt lat="50.0311328" lon="8.4670688">
                <ele>93.0</ele>
                <time>2020-08-30T14:41:31.000Z</time>
                <name>Trackpoint 7409</name>
            </trkpt>
            <trkpt lat="50.0310368" lon="8.467016">
                <ele>93.0</ele>
                <time>2020-08-30T14:41:33.000Z</time>
                <name>Trackpoint 7410</name>
            </trkpt>
            <trkpt lat="50.0309344" lon="8.4669688">
                <ele>93.0</ele>
                <time>2020-08-30T14:41:35.000Z</time>
                <name>Trackpoint 7411</name>
            </trkpt>
            <trkpt lat="50.0308352" lon="8.46692">
                <ele>93.0</ele>
                <time>2020-08-30T14:41:37.000Z</time>
                <name>Trackpoint 7412</name>
            </trkpt>
            <trkpt lat="50.0307328" lon="8.4668704">
                <ele>93.0</ele>
                <time>2020-08-30T14:41:39.000Z</time>
                <name>Trackpoint 7413</name>
            </trkpt>
            <trkpt lat="50.0306272" lon="8.46682">
                <ele>93.0</ele>
                <time>2020-08-30T14:41:41.000Z</time>
                <name>Trackpoint 7414</name>
            </trkpt>
            <trkpt lat="50.0305344" lon="8.466772">
                <ele>93.0</ele>
                <time>2020-08-30T14:41:43.000Z</time>
                <name>Trackpoint 7415</name>
            </trkpt>
            <trkpt lat="50.0304352" lon="8.4667232">
                <ele>93.0</ele>
                <time>2020-08-30T14:41:45.000Z</time>
                <name>Trackpoint 7416</name>
            </trkpt>
            <trkpt lat="50.0303296" lon="8.4666784">
                <ele>93.0</ele>
                <time>2020-08-30T14:41:47.000Z</time>
                <name>Trackpoint 7417</name>
            </trkpt>
            <trkpt lat="50.0302304" lon="8.466628">
                <ele>93.0</ele>
                <time>2020-08-30T14:41:49.000Z</time>
                <name>Trackpoint 7418</name>
            </trkpt>
            <trkpt lat="50.0301312" lon="8.4665784">
                <ele>93.0</ele>
                <time>2020-08-30T14:41:51.000Z</time>
                <name>Trackpoint 7419</name>
            </trkpt>
            <trkpt lat="50.030032" lon="8.466532">
                <ele>93.0</ele>
                <time>2020-08-30T14:41:53.000Z</time>
                <name>Trackpoint 7420</name>
            </trkpt>
            <trkpt lat="50.0299392" lon="8.4664832">
                <ele>93.0</ele>
                <time>2020-08-30T14:41:55.000Z</time>
                <name>Trackpoint 7421</name>
            </trkpt>
            <trkpt lat="50.02984" lon="8.46644">
                <ele>93.0</ele>
                <time>2020-08-30T14:41:57.000Z</time>
                <name>Trackpoint 7422</name>
            </trkpt>
            <trkpt lat="50.0297408" lon="8.4663912">
                <ele>92.0</ele>
                <time>2020-08-30T14:41:59.000Z</time>
                <name>Trackpoint 7423</name>
            </trkpt>
            <trkpt lat="50.0296416" lon="8.46634">
                <ele>93.0</ele>
                <time>2020-08-30T14:42:01.000Z</time>
                <name>Trackpoint 7424</name>
            </trkpt>
            <trkpt lat="50.0295456" lon="8.4662912">
                <ele>93.0</ele>
                <time>2020-08-30T14:42:03.000Z</time>
                <name>Trackpoint 7425</name>
            </trkpt>
            <trkpt lat="50.0294528" lon="8.4662488">
                <ele>92.0</ele>
                <time>2020-08-30T14:42:05.000Z</time>
                <name>Trackpoint 7426</name>
            </trkpt>
            <trkpt lat="50.0293664" lon="8.4662">
                <ele>92.0</ele>
                <time>2020-08-30T14:42:07.000Z</time>
                <name>Trackpoint 7427</name>
            </trkpt>
            <trkpt lat="50.0292704" lon="8.46616">
                <ele>92.0</ele>
                <time>2020-08-30T14:42:09.000Z</time>
                <name>Trackpoint 7428</name>
            </trkpt>
            <trkpt lat="50.0291776" lon="8.4661168">
                <ele>93.0</ele>
                <time>2020-08-30T14:42:11.000Z</time>
                <name>Trackpoint 7429</name>
            </trkpt>
            <trkpt lat="50.0290752" lon="8.4660664">
                <ele>93.0</ele>
                <time>2020-08-30T14:42:14.000Z</time>
                <name>Trackpoint 7430</name>
            </trkpt>
            <trkpt lat="50.0289696" lon="8.46606">
                <ele>93.0</ele>
                <time>2020-08-30T14:42:17.000Z</time>
                <name>Trackpoint 7431</name>
            </trkpt>
            <trkpt lat="50.0289088" lon="8.4659832">
                <ele>93.0</ele>
                <time>2020-08-30T14:42:21.000Z</time>
                <name>Trackpoint 7432</name>
            </trkpt>
            <trkpt lat="50.0288352" lon="8.4660384">
                <ele>93.0</ele>
                <time>2020-08-30T14:42:27.000Z</time>
                <name>Trackpoint 7433</name>
            </trkpt>
            <trkpt lat="50.0287936" lon="8.4661304">
                <ele>94.0</ele>
                <time>2020-08-30T14:42:35.000Z</time>
                <name>Trackpoint 7434</name>
            </trkpt>
            <trkpt lat="50.0287424" lon="8.4662384">
                <ele>94.0</ele>
                <time>2020-08-30T14:42:42.000Z</time>
                <name>Trackpoint 7435</name>
            </trkpt>
            <trkpt lat="50.0287392" lon="8.466336">
                <ele>93.0</ele>
                <time>2020-08-30T14:42:51.000Z</time>
                <name>Trackpoint 7436</name>
            </trkpt>
            <trkpt lat="50.0288128" lon="8.4664">
                <ele>93.0</ele>
                <time>2020-08-30T14:42:59.000Z</time>
                <name>Trackpoint 7437</name>
            </trkpt>
            <trkpt lat="50.0287968" lon="8.4664968">
                <ele>93.0</ele>
                <time>2020-08-30T14:43:03.000Z</time>
                <name>Trackpoint 7438</name>
            </trkpt>
            <trkpt lat="50.028768" lon="8.4665896">
                <ele>92.0</ele>
                <time>2020-08-30T14:43:09.000Z</time>
                <name>Trackpoint 7439</name>
            </trkpt>
            <trkpt lat="50.0287136" lon="8.4666768">
                <ele>92.0</ele>
                <time>2020-08-30T14:43:13.000Z</time>
                <name>Trackpoint 7440</name>
            </trkpt>
            <trkpt lat="50.0286528" lon="8.4667632">
                <ele>92.0</ele>
                <time>2020-08-30T14:43:16.000Z</time>
                <name>Trackpoint 7441</name>
            </trkpt>
            <trkpt lat="50.0285888" lon="8.466828">
                <ele>92.0</ele>
                <time>2020-08-30T14:43:19.000Z</time>
                <name>Trackpoint 7442</name>
            </trkpt>
            <trkpt lat="50.0284992" lon="8.4668616">
                <ele>92.0</ele>
                <time>2020-08-30T14:43:22.000Z</time>
                <name>Trackpoint 7443</name>
            </trkpt>
            <trkpt lat="50.0284" lon="8.4668752">
                <ele>92.0</ele>
                <time>2020-08-30T14:43:32.000Z</time>
                <name>Trackpoint 7444</name>
            </trkpt>
            <trkpt lat="50.0283136" lon="8.4668328">
                <ele>92.0</ele>
                <time>2020-08-30T14:43:37.000Z</time>
                <name>Trackpoint 7445</name>
            </trkpt>
            <trkpt lat="50.0282432" lon="8.466748">
                <ele>92.0</ele>
                <time>2020-08-30T14:43:41.000Z</time>
                <name>Trackpoint 7446</name>
            </trkpt>
            <trkpt lat="50.0281728" lon="8.466652">
                <ele>92.0</ele>
                <time>2020-08-30T14:43:44.000Z</time>
                <name>Trackpoint 7447</name>
            </trkpt>
            <trkpt lat="50.0280832" lon="8.466612">
                <ele>92.0</ele>
                <time>2020-08-30T14:43:47.000Z</time>
                <name>Trackpoint 7448</name>
            </trkpt>
            <trkpt lat="50.028" lon="8.466548">
                <ele>92.0</ele>
                <time>2020-08-30T14:43:51.000Z</time>
                <name>Trackpoint 7449</name>
            </trkpt>
            <trkpt lat="50.0279232" lon="8.46648">
                <ele>92.0</ele>
                <time>2020-08-30T14:43:53.000Z</time>
                <name>Trackpoint 7450</name>
            </trkpt>
            <trkpt lat="50.0278656" lon="8.4663448">
                <ele>92.0</ele>
                <time>2020-08-30T14:44:37.000Z</time>
                <name>Trackpoint 7451</name>
            </trkpt>
            <trkpt lat="50.0278496" lon="8.4661504">
                <ele>92.0</ele>
                <time>2020-08-30T14:44:39.000Z</time>
                <name>Trackpoint 7452</name>
            </trkpt>
            <trkpt lat="50.0278624" lon="8.4659968">
                <ele>92.0</ele>
                <time>2020-08-30T14:44:41.000Z</time>
                <name>Trackpoint 7453</name>
            </trkpt>
            <trkpt lat="50.0278464" lon="8.4658544">
                <ele>92.0</ele>
                <time>2020-08-30T14:44:43.000Z</time>
                <name>Trackpoint 7454</name>
            </trkpt>
            <trkpt lat="50.0278432" lon="8.4657184">
                <ele>93.0</ele>
                <time>2020-08-30T14:44:45.000Z</time>
                <name>Trackpoint 7455</name>
            </trkpt>
            <trkpt lat="50.0278272" lon="8.4656016">
                <ele>93.0</ele>
                <time>2020-08-30T14:44:47.000Z</time>
                <name>Trackpoint 7456</name>
            </trkpt>
            <trkpt lat="50.0278176" lon="8.465484">
                <ele>92.0</ele>
                <time>2020-08-30T14:44:49.000Z</time>
                <name>Trackpoint 7457</name>
            </trkpt>
            <trkpt lat="50.0277856" lon="8.4653784">
                <ele>93.0</ele>
                <time>2020-08-30T14:44:51.000Z</time>
                <name>Trackpoint 7458</name>
            </trkpt>
            <trkpt lat="50.0277472" lon="8.4652816">
                <ele>93.0</ele>
                <time>2020-08-30T14:44:53.000Z</time>
                <name>Trackpoint 7459</name>
            </trkpt>
            <trkpt lat="50.0277024" lon="8.4651816">
                <ele>93.0</ele>
                <time>2020-08-30T14:44:55.000Z</time>
                <name>Trackpoint 7460</name>
            </trkpt>
            <trkpt lat="50.027648" lon="8.46508">
                <ele>93.0</ele>
                <time>2020-08-30T14:44:57.000Z</time>
                <name>Trackpoint 7461</name>
            </trkpt>
            <trkpt lat="50.0275872" lon="8.4649752">
                <ele>93.0</ele>
                <time>2020-08-30T14:44:59.000Z</time>
                <name>Trackpoint 7462</name>
            </trkpt>
            <trkpt lat="50.0275264" lon="8.4648752">
                <ele>93.0</ele>
                <time>2020-08-30T14:45:01.000Z</time>
                <name>Trackpoint 7463</name>
            </trkpt>
            <trkpt lat="50.0274624" lon="8.4647728">
                <ele>93.0</ele>
                <time>2020-08-30T14:45:03.000Z</time>
                <name>Trackpoint 7464</name>
            </trkpt>
            <trkpt lat="50.027392" lon="8.4646752">
                <ele>93.0</ele>
                <time>2020-08-30T14:45:05.000Z</time>
                <name>Trackpoint 7465</name>
            </trkpt>
            <trkpt lat="50.027328" lon="8.4645768">
                <ele>94.0</ele>
                <time>2020-08-30T14:45:07.000Z</time>
                <name>Trackpoint 7466</name>
            </trkpt>
            <trkpt lat="50.0272576" lon="8.4644768">
                <ele>93.0</ele>
                <time>2020-08-30T14:45:09.000Z</time>
                <name>Trackpoint 7467</name>
            </trkpt>
            <trkpt lat="50.0271872" lon="8.4643784">
                <ele>93.0</ele>
                <time>2020-08-30T14:45:11.000Z</time>
                <name>Trackpoint 7468</name>
            </trkpt>
            <trkpt lat="50.0271136" lon="8.46428">
                <ele>93.0</ele>
                <time>2020-08-30T14:45:13.000Z</time>
                <name>Trackpoint 7469</name>
            </trkpt>
            <trkpt lat="50.0270432" lon="8.464184">
                <ele>94.0</ele>
                <time>2020-08-30T14:45:15.000Z</time>
                <name>Trackpoint 7470</name>
            </trkpt>
            <trkpt lat="50.0269664" lon="8.4640864">
                <ele>93.0</ele>
                <time>2020-08-30T14:45:17.000Z</time>
                <name>Trackpoint 7471</name>
            </trkpt>
            <trkpt lat="50.026896" lon="8.463992">
                <ele>93.0</ele>
                <time>2020-08-30T14:45:19.000Z</time>
                <name>Trackpoint 7472</name>
            </trkpt>
            <trkpt lat="50.0268256" lon="8.4638984">
                <ele>93.0</ele>
                <time>2020-08-30T14:45:21.000Z</time>
                <name>Trackpoint 7473</name>
            </trkpt>
            <trkpt lat="50.0267616" lon="8.463812">
                <ele>93.0</ele>
                <time>2020-08-30T14:45:23.000Z</time>
                <name>Trackpoint 7474</name>
            </trkpt>
            <trkpt lat="50.0266912" lon="8.4637248">
                <ele>93.0</ele>
                <time>2020-08-30T14:45:25.000Z</time>
                <name>Trackpoint 7475</name>
            </trkpt>
            <trkpt lat="50.0266272" lon="8.46364">
                <ele>93.0</ele>
                <time>2020-08-30T14:45:27.000Z</time>
                <name>Trackpoint 7476</name>
            </trkpt>
            <trkpt lat="50.0265632" lon="8.463556">
                <ele>93.0</ele>
                <time>2020-08-30T14:45:29.000Z</time>
                <name>Trackpoint 7477</name>
            </trkpt>
            <trkpt lat="50.026496" lon="8.4634664">
                <ele>93.0</ele>
                <time>2020-08-30T14:45:31.000Z</time>
                <name>Trackpoint 7478</name>
            </trkpt>
            <trkpt lat="50.0264256" lon="8.4633768">
                <ele>93.0</ele>
                <time>2020-08-30T14:45:33.000Z</time>
                <name>Trackpoint 7479</name>
            </trkpt>
            <trkpt lat="50.0263488" lon="8.4632856">
                <ele>93.0</ele>
                <time>2020-08-30T14:45:35.000Z</time>
                <name>Trackpoint 7480</name>
            </trkpt>
            <trkpt lat="50.0262784" lon="8.4631928">
                <ele>94.0</ele>
                <time>2020-08-30T14:45:37.000Z</time>
                <name>Trackpoint 7481</name>
            </trkpt>
            <trkpt lat="50.0262016" lon="8.4631016">
                <ele>94.0</ele>
                <time>2020-08-30T14:45:39.000Z</time>
                <name>Trackpoint 7482</name>
            </trkpt>
            <trkpt lat="50.0261312" lon="8.463008">
                <ele>94.0</ele>
                <time>2020-08-30T14:45:41.000Z</time>
                <name>Trackpoint 7483</name>
            </trkpt>
            <trkpt lat="50.0260544" lon="8.4629136">
                <ele>94.0</ele>
                <time>2020-08-30T14:45:43.000Z</time>
                <name>Trackpoint 7484</name>
            </trkpt>
            <trkpt lat="50.0259776" lon="8.4628184">
                <ele>94.0</ele>
                <time>2020-08-30T14:45:45.000Z</time>
                <name>Trackpoint 7485</name>
            </trkpt>
            <trkpt lat="50.0259008" lon="8.462724">
                <ele>94.0</ele>
                <time>2020-08-30T14:45:47.000Z</time>
                <name>Trackpoint 7486</name>
            </trkpt>
            <trkpt lat="50.0258208" lon="8.462628">
                <ele>94.0</ele>
                <time>2020-08-30T14:45:49.000Z</time>
                <name>Trackpoint 7487</name>
            </trkpt>
            <trkpt lat="50.0257536" lon="8.4625264">
                <ele>94.0</ele>
                <time>2020-08-30T14:45:51.000Z</time>
                <name>Trackpoint 7488</name>
            </trkpt>
            <trkpt lat="50.02568" lon="8.4624304">
                <ele>94.0</ele>
                <time>2020-08-30T14:45:53.000Z</time>
                <name>Trackpoint 7489</name>
            </trkpt>
            <trkpt lat="50.025616" lon="8.462328">
                <ele>94.0</ele>
                <time>2020-08-30T14:45:55.000Z</time>
                <name>Trackpoint 7490</name>
            </trkpt>
            <trkpt lat="50.0255392" lon="8.462232">
                <ele>93.0</ele>
                <time>2020-08-30T14:45:57.000Z</time>
                <name>Trackpoint 7491</name>
            </trkpt>
            <trkpt lat="50.0254624" lon="8.4621336">
                <ele>93.0</ele>
                <time>2020-08-30T14:45:59.000Z</time>
                <name>Trackpoint 7492</name>
            </trkpt>
            <trkpt lat="50.025392" lon="8.4620312">
                <ele>93.0</ele>
                <time>2020-08-30T14:46:01.000Z</time>
                <name>Trackpoint 7493</name>
            </trkpt>
            <trkpt lat="50.0253152" lon="8.461928">
                <ele>93.0</ele>
                <time>2020-08-30T14:46:03.000Z</time>
                <name>Trackpoint 7494</name>
            </trkpt>
            <trkpt lat="50.0252416" lon="8.461828">
                <ele>93.0</ele>
                <time>2020-08-30T14:46:05.000Z</time>
                <name>Trackpoint 7495</name>
            </trkpt>
            <trkpt lat="50.0251648" lon="8.4617272">
                <ele>93.0</ele>
                <time>2020-08-30T14:46:07.000Z</time>
                <name>Trackpoint 7496</name>
            </trkpt>
            <trkpt lat="50.0250976" lon="8.4616232">
                <ele>93.0</ele>
                <time>2020-08-30T14:46:09.000Z</time>
                <name>Trackpoint 7497</name>
            </trkpt>
            <trkpt lat="50.025024" lon="8.4615184">
                <ele>93.0</ele>
                <time>2020-08-30T14:46:11.000Z</time>
                <name>Trackpoint 7498</name>
            </trkpt>
            <trkpt lat="50.0249568" lon="8.4614096">
                <ele>92.0</ele>
                <time>2020-08-30T14:46:13.000Z</time>
                <name>Trackpoint 7499</name>
            </trkpt>
            <trkpt lat="50.0248864" lon="8.4613016">
                <ele>92.0</ele>
                <time>2020-08-30T14:46:15.000Z</time>
                <name>Trackpoint 7500</name>
            </trkpt>
            <trkpt lat="50.0248192" lon="8.4611904">
                <ele>92.0</ele>
                <time>2020-08-30T14:46:17.000Z</time>
                <name>Trackpoint 7501</name>
            </trkpt>
            <trkpt lat="50.024752" lon="8.4610792">
                <ele>92.0</ele>
                <time>2020-08-30T14:46:19.000Z</time>
                <name>Trackpoint 7502</name>
            </trkpt>
            <trkpt lat="50.024688" lon="8.4609696">
                <ele>92.0</ele>
                <time>2020-08-30T14:46:21.000Z</time>
                <name>Trackpoint 7503</name>
            </trkpt>
            <trkpt lat="50.0246272" lon="8.4608584">
                <ele>92.0</ele>
                <time>2020-08-30T14:46:23.000Z</time>
                <name>Trackpoint 7504</name>
            </trkpt>
            <trkpt lat="50.0245632" lon="8.4607488">
                <ele>92.0</ele>
                <time>2020-08-30T14:46:25.000Z</time>
                <name>Trackpoint 7505</name>
            </trkpt>
            <trkpt lat="50.0245024" lon="8.4606352">
                <ele>92.0</ele>
                <time>2020-08-30T14:46:27.000Z</time>
                <name>Trackpoint 7506</name>
            </trkpt>
            <trkpt lat="50.0244384" lon="8.4605216">
                <ele>92.0</ele>
                <time>2020-08-30T14:46:29.000Z</time>
                <name>Trackpoint 7507</name>
            </trkpt>
            <trkpt lat="50.0243712" lon="8.4604104">
                <ele>92.0</ele>
                <time>2020-08-30T14:46:31.000Z</time>
                <name>Trackpoint 7508</name>
            </trkpt>
            <trkpt lat="50.0243072" lon="8.4603016">
                <ele>92.0</ele>
                <time>2020-08-30T14:46:33.000Z</time>
                <name>Trackpoint 7509</name>
            </trkpt>
            <trkpt lat="50.0242464" lon="8.460192">
                <ele>92.0</ele>
                <time>2020-08-30T14:46:35.000Z</time>
                <name>Trackpoint 7510</name>
            </trkpt>
            <trkpt lat="50.0241856" lon="8.4600824">
                <ele>92.0</ele>
                <time>2020-08-30T14:46:37.000Z</time>
                <name>Trackpoint 7511</name>
            </trkpt>
            <trkpt lat="50.0241216" lon="8.4599704">
                <ele>92.0</ele>
                <time>2020-08-30T14:46:39.000Z</time>
                <name>Trackpoint 7512</name>
            </trkpt>
            <trkpt lat="50.0240544" lon="8.4598552">
                <ele>91.0</ele>
                <time>2020-08-30T14:46:41.000Z</time>
                <name>Trackpoint 7513</name>
            </trkpt>
            <trkpt lat="50.0239936" lon="8.4597416">
                <ele>91.0</ele>
                <time>2020-08-30T14:46:43.000Z</time>
                <name>Trackpoint 7514</name>
            </trkpt>
            <trkpt lat="50.0239264" lon="8.459628">
                <ele>91.0</ele>
                <time>2020-08-30T14:46:45.000Z</time>
                <name>Trackpoint 7515</name>
            </trkpt>
            <trkpt lat="50.0238624" lon="8.4595136">
                <ele>91.0</ele>
                <time>2020-08-30T14:46:47.000Z</time>
                <name>Trackpoint 7516</name>
            </trkpt>
            <trkpt lat="50.023792" lon="8.4593984">
                <ele>91.0</ele>
                <time>2020-08-30T14:46:49.000Z</time>
                <name>Trackpoint 7517</name>
            </trkpt>
            <trkpt lat="50.023728" lon="8.4592832">
                <ele>91.0</ele>
                <time>2020-08-30T14:46:51.000Z</time>
                <name>Trackpoint 7518</name>
            </trkpt>
            <trkpt lat="50.023664" lon="8.4591704">
                <ele>91.0</ele>
                <time>2020-08-30T14:46:53.000Z</time>
                <name>Trackpoint 7519</name>
            </trkpt>
            <trkpt lat="50.0235904" lon="8.45906">
                <ele>91.0</ele>
                <time>2020-08-30T14:46:55.000Z</time>
                <name>Trackpoint 7520</name>
            </trkpt>
            <trkpt lat="50.0235264" lon="8.4589416">
                <ele>91.0</ele>
                <time>2020-08-30T14:46:57.000Z</time>
                <name>Trackpoint 7521</name>
            </trkpt>
            <trkpt lat="50.0234528" lon="8.4588232">
                <ele>91.0</ele>
                <time>2020-08-30T14:46:59.000Z</time>
                <name>Trackpoint 7522</name>
            </trkpt>
            <trkpt lat="50.0233856" lon="8.4586952">
                <ele>90.0</ele>
                <time>2020-08-30T14:47:01.000Z</time>
                <name>Trackpoint 7523</name>
            </trkpt>
            <trkpt lat="50.0233152" lon="8.4585648">
                <ele>90.0</ele>
                <time>2020-08-30T14:47:03.000Z</time>
                <name>Trackpoint 7524</name>
            </trkpt>
            <trkpt lat="50.023248" lon="8.4584352">
                <ele>90.0</ele>
                <time>2020-08-30T14:47:05.000Z</time>
                <name>Trackpoint 7525</name>
            </trkpt>
            <trkpt lat="50.0231712" lon="8.458308">
                <ele>90.0</ele>
                <time>2020-08-30T14:47:07.000Z</time>
                <name>Trackpoint 7526</name>
            </trkpt>
            <trkpt lat="50.0230976" lon="8.4581832">
                <ele>91.0</ele>
                <time>2020-08-30T14:47:09.000Z</time>
                <name>Trackpoint 7527</name>
            </trkpt>
            <trkpt lat="50.023024" lon="8.4580568">
                <ele>90.0</ele>
                <time>2020-08-30T14:47:11.000Z</time>
                <name>Trackpoint 7528</name>
            </trkpt>
            <trkpt lat="50.0229504" lon="8.4579264">
                <ele>91.0</ele>
                <time>2020-08-30T14:47:13.000Z</time>
                <name>Trackpoint 7529</name>
            </trkpt>
            <trkpt lat="50.0228768" lon="8.4577936">
                <ele>91.0</ele>
                <time>2020-08-30T14:47:15.000Z</time>
                <name>Trackpoint 7530</name>
            </trkpt>
            <trkpt lat="50.0227968" lon="8.45766">
                <ele>91.0</ele>
                <time>2020-08-30T14:47:17.000Z</time>
                <name>Trackpoint 7531</name>
            </trkpt>
            <trkpt lat="50.0227232" lon="8.4575264">
                <ele>91.0</ele>
                <time>2020-08-30T14:47:19.000Z</time>
                <name>Trackpoint 7532</name>
            </trkpt>
            <trkpt lat="50.0226528" lon="8.4573944">
                <ele>90.0</ele>
                <time>2020-08-30T14:47:21.000Z</time>
                <name>Trackpoint 7533</name>
            </trkpt>
            <trkpt lat="50.022576" lon="8.4572672">
                <ele>90.0</ele>
                <time>2020-08-30T14:47:23.000Z</time>
                <name>Trackpoint 7534</name>
            </trkpt>
            <trkpt lat="50.0225024" lon="8.4571384">
                <ele>90.0</ele>
                <time>2020-08-30T14:47:25.000Z</time>
                <name>Trackpoint 7535</name>
            </trkpt>
            <trkpt lat="50.0224256" lon="8.4570112">
                <ele>90.0</ele>
                <time>2020-08-30T14:47:27.000Z</time>
                <name>Trackpoint 7536</name>
            </trkpt>
            <trkpt lat="50.0223552" lon="8.4568864">
                <ele>90.0</ele>
                <time>2020-08-30T14:47:29.000Z</time>
                <name>Trackpoint 7537</name>
            </trkpt>
            <trkpt lat="50.0222848" lon="8.4567568">
                <ele>90.0</ele>
                <time>2020-08-30T14:47:31.000Z</time>
                <name>Trackpoint 7538</name>
            </trkpt>
            <trkpt lat="50.0222176" lon="8.4566296">
                <ele>90.0</ele>
                <time>2020-08-30T14:47:33.000Z</time>
                <name>Trackpoint 7539</name>
            </trkpt>
            <trkpt lat="50.0221472" lon="8.4565032">
                <ele>90.0</ele>
                <time>2020-08-30T14:47:35.000Z</time>
                <name>Trackpoint 7540</name>
            </trkpt>
            <trkpt lat="50.0220832" lon="8.4563752">
                <ele>90.0</ele>
                <time>2020-08-30T14:47:37.000Z</time>
                <name>Trackpoint 7541</name>
            </trkpt>
            <trkpt lat="50.0220224" lon="8.456248">
                <ele>90.0</ele>
                <time>2020-08-30T14:47:39.000Z</time>
                <name>Trackpoint 7542</name>
            </trkpt>
            <trkpt lat="50.0219616" lon="8.4561216">
                <ele>90.0</ele>
                <time>2020-08-30T14:47:41.000Z</time>
                <name>Trackpoint 7543</name>
            </trkpt>
            <trkpt lat="50.0219008" lon="8.4559968">
                <ele>90.0</ele>
                <time>2020-08-30T14:47:43.000Z</time>
                <name>Trackpoint 7544</name>
            </trkpt>
            <trkpt lat="50.02184" lon="8.4558736">
                <ele>90.0</ele>
                <time>2020-08-30T14:47:45.000Z</time>
                <name>Trackpoint 7545</name>
            </trkpt>
            <trkpt lat="50.0217824" lon="8.4557464">
                <ele>91.0</ele>
                <time>2020-08-30T14:47:47.000Z</time>
                <name>Trackpoint 7546</name>
            </trkpt>
            <trkpt lat="50.0217248" lon="8.455624">
                <ele>90.0</ele>
                <time>2020-08-30T14:47:49.000Z</time>
                <name>Trackpoint 7547</name>
            </trkpt>
            <trkpt lat="50.0216672" lon="8.4554984">
                <ele>90.0</ele>
                <time>2020-08-30T14:47:51.000Z</time>
                <name>Trackpoint 7548</name>
            </trkpt>
            <trkpt lat="50.0216096" lon="8.4553744">
                <ele>90.0</ele>
                <time>2020-08-30T14:47:53.000Z</time>
                <name>Trackpoint 7549</name>
            </trkpt>
            <trkpt lat="50.0215584" lon="8.4552544">
                <ele>90.0</ele>
                <time>2020-08-30T14:47:55.000Z</time>
                <name>Trackpoint 7550</name>
            </trkpt>
            <trkpt lat="50.0215008" lon="8.455136">
                <ele>90.0</ele>
                <time>2020-08-30T14:47:57.000Z</time>
                <name>Trackpoint 7551</name>
            </trkpt>
            <trkpt lat="50.0214432" lon="8.4550184">
                <ele>90.0</ele>
                <time>2020-08-30T14:47:59.000Z</time>
                <name>Trackpoint 7552</name>
            </trkpt>
            <trkpt lat="50.0213888" lon="8.4548968">
                <ele>90.0</ele>
                <time>2020-08-30T14:48:01.000Z</time>
                <name>Trackpoint 7553</name>
            </trkpt>
            <trkpt lat="50.0213344" lon="8.4547784">
                <ele>90.0</ele>
                <time>2020-08-30T14:48:03.000Z</time>
                <name>Trackpoint 7554</name>
            </trkpt>
            <trkpt lat="50.0212768" lon="8.4546544">
                <ele>90.0</ele>
                <time>2020-08-30T14:48:05.000Z</time>
                <name>Trackpoint 7555</name>
            </trkpt>
            <trkpt lat="50.0212224" lon="8.4545344">
                <ele>90.0</ele>
                <time>2020-08-30T14:48:07.000Z</time>
                <name>Trackpoint 7556</name>
            </trkpt>
            <trkpt lat="50.0211648" lon="8.4544184">
                <ele>90.0</ele>
                <time>2020-08-30T14:48:09.000Z</time>
                <name>Trackpoint 7557</name>
            </trkpt>
            <trkpt lat="50.0211072" lon="8.4543">
                <ele>90.0</ele>
                <time>2020-08-30T14:48:11.000Z</time>
                <name>Trackpoint 7558</name>
            </trkpt>
            <trkpt lat="50.0210528" lon="8.4541768">
                <ele>90.0</ele>
                <time>2020-08-30T14:48:13.000Z</time>
                <name>Trackpoint 7559</name>
            </trkpt>
            <trkpt lat="50.020992" lon="8.4540528">
                <ele>90.0</ele>
                <time>2020-08-30T14:48:15.000Z</time>
                <name>Trackpoint 7560</name>
            </trkpt>
            <trkpt lat="50.0209344" lon="8.453928">
                <ele>91.0</ele>
                <time>2020-08-30T14:48:17.000Z</time>
                <name>Trackpoint 7561</name>
            </trkpt>
            <trkpt lat="50.0208768" lon="8.4538048">
                <ele>91.0</ele>
                <time>2020-08-30T14:48:19.000Z</time>
                <name>Trackpoint 7562</name>
            </trkpt>
            <trkpt lat="50.020816" lon="8.4536752">
                <ele>90.0</ele>
                <time>2020-08-30T14:48:21.000Z</time>
                <name>Trackpoint 7563</name>
            </trkpt>
            <trkpt lat="50.020752" lon="8.4535448">
                <ele>91.0</ele>
                <time>2020-08-30T14:48:23.000Z</time>
                <name>Trackpoint 7564</name>
            </trkpt>
            <trkpt lat="50.0206944" lon="8.4534128">
                <ele>90.0</ele>
                <time>2020-08-30T14:48:25.000Z</time>
                <name>Trackpoint 7565</name>
            </trkpt>
            <trkpt lat="50.0206304" lon="8.4532784">
                <ele>91.0</ele>
                <time>2020-08-30T14:48:27.000Z</time>
                <name>Trackpoint 7566</name>
            </trkpt>
            <trkpt lat="50.0205664" lon="8.45314">
                <ele>90.0</ele>
                <time>2020-08-30T14:48:29.000Z</time>
                <name>Trackpoint 7567</name>
            </trkpt>
            <trkpt lat="50.0204992" lon="8.4529984">
                <ele>90.0</ele>
                <time>2020-08-30T14:48:31.000Z</time>
                <name>Trackpoint 7568</name>
            </trkpt>
            <trkpt lat="50.020432" lon="8.4528552">
                <ele>90.0</ele>
                <time>2020-08-30T14:48:33.000Z</time>
                <name>Trackpoint 7569</name>
            </trkpt>
            <trkpt lat="50.0203616" lon="8.452712">
                <ele>91.0</ele>
                <time>2020-08-30T14:48:35.000Z</time>
                <name>Trackpoint 7570</name>
            </trkpt>
            <trkpt lat="50.0202944" lon="8.4525672">
                <ele>91.0</ele>
                <time>2020-08-30T14:48:37.000Z</time>
                <name>Trackpoint 7571</name>
            </trkpt>
            <trkpt lat="50.0202304" lon="8.4524248">
                <ele>91.0</ele>
                <time>2020-08-30T14:48:39.000Z</time>
                <name>Trackpoint 7572</name>
            </trkpt>
            <trkpt lat="50.0201568" lon="8.4522912">
                <ele>90.0</ele>
                <time>2020-08-30T14:48:41.000Z</time>
                <name>Trackpoint 7573</name>
            </trkpt>
            <trkpt lat="50.020096" lon="8.4521536">
                <ele>90.0</ele>
                <time>2020-08-30T14:48:43.000Z</time>
                <name>Trackpoint 7574</name>
            </trkpt>
            <trkpt lat="50.0200416" lon="8.4520216">
                <ele>90.0</ele>
                <time>2020-08-30T14:48:45.000Z</time>
                <name>Trackpoint 7575</name>
            </trkpt>
            <trkpt lat="50.0199936" lon="8.4518984">
                <ele>91.0</ele>
                <time>2020-08-30T14:48:47.000Z</time>
                <name>Trackpoint 7576</name>
            </trkpt>
            <trkpt lat="50.019952" lon="8.451788">
                <ele>90.0</ele>
                <time>2020-08-30T14:48:49.000Z</time>
                <name>Trackpoint 7577</name>
            </trkpt>
            <trkpt lat="50.0199136" lon="8.4516832">
                <ele>90.0</ele>
                <time>2020-08-30T14:48:51.000Z</time>
                <name>Trackpoint 7578</name>
            </trkpt>
            <trkpt lat="50.0198784" lon="8.4515888">
                <ele>90.0</ele>
                <time>2020-08-30T14:48:53.000Z</time>
                <name>Trackpoint 7579</name>
            </trkpt>
            <trkpt lat="50.0198464" lon="8.4515016">
                <ele>90.0</ele>
                <time>2020-08-30T14:48:55.000Z</time>
                <name>Trackpoint 7580</name>
            </trkpt>
            <trkpt lat="50.0197856" lon="8.4514312">
                <ele>90.0</ele>
                <time>2020-08-30T14:48:59.000Z</time>
                <name>Trackpoint 7581</name>
            </trkpt>
            <trkpt lat="50.0197984" lon="8.4515496">
                <ele>90.0</ele>
                <time>2020-08-30T14:49:02.000Z</time>
                <name>Trackpoint 7582</name>
            </trkpt>
            <trkpt lat="50.0198272" lon="8.4516584">
                <ele>89.0</ele>
                <time>2020-08-30T14:49:04.000Z</time>
                <name>Trackpoint 7583</name>
            </trkpt>
            <trkpt lat="50.019872" lon="8.4517744">
                <ele>89.0</ele>
                <time>2020-08-30T14:49:06.000Z</time>
                <name>Trackpoint 7584</name>
            </trkpt>
            <trkpt lat="50.0199008" lon="8.451892">
                <ele>88.0</ele>
                <time>2020-08-30T14:49:08.000Z</time>
                <name>Trackpoint 7585</name>
            </trkpt>
            <trkpt lat="50.019904" lon="8.4519984">
                <ele>88.0</ele>
                <time>2020-08-30T14:49:10.000Z</time>
                <name>Trackpoint 7586</name>
            </trkpt>
            <trkpt lat="50.0197952" lon="8.452052">
                <ele>88.0</ele>
                <time>2020-08-30T14:49:13.000Z</time>
                <name>Trackpoint 7587</name>
            </trkpt>
            <trkpt lat="50.0196992" lon="8.451948">
                <ele>88.0</ele>
                <time>2020-08-30T14:49:15.000Z</time>
                <name>Trackpoint 7588</name>
            </trkpt>
            <trkpt lat="50.0196" lon="8.4518416">
                <ele>87.0</ele>
                <time>2020-08-30T14:49:17.000Z</time>
                <name>Trackpoint 7589</name>
            </trkpt>
            <trkpt lat="50.0195168" lon="8.4517232">
                <ele>87.0</ele>
                <time>2020-08-30T14:49:19.000Z</time>
                <name>Trackpoint 7590</name>
            </trkpt>
            <trkpt lat="50.0194368" lon="8.4516064">
                <ele>87.0</ele>
                <time>2020-08-30T14:49:21.000Z</time>
                <name>Trackpoint 7591</name>
            </trkpt>
            <trkpt lat="50.0193632" lon="8.451484">
                <ele>87.0</ele>
                <time>2020-08-30T14:49:23.000Z</time>
                <name>Trackpoint 7592</name>
            </trkpt>
            <trkpt lat="50.0192992" lon="8.4513584">
                <ele>87.0</ele>
                <time>2020-08-30T14:49:25.000Z</time>
                <name>Trackpoint 7593</name>
            </trkpt>
            <trkpt lat="50.0192416" lon="8.4512416">
                <ele>87.0</ele>
                <time>2020-08-30T14:49:27.000Z</time>
                <name>Trackpoint 7594</name>
            </trkpt>
            <trkpt lat="50.0191968" lon="8.451128">
                <ele>87.0</ele>
                <time>2020-08-30T14:49:29.000Z</time>
                <name>Trackpoint 7595</name>
            </trkpt>
            <trkpt lat="50.0191584" lon="8.4510136">
                <ele>86.0</ele>
                <time>2020-08-30T14:49:31.000Z</time>
                <name>Trackpoint 7596</name>
            </trkpt>
            <trkpt lat="50.01912" lon="8.45088">
                <ele>86.0</ele>
                <time>2020-08-30T14:49:33.000Z</time>
                <name>Trackpoint 7597</name>
            </trkpt>
            <trkpt lat="50.0190816" lon="8.45074">
                <ele>86.0</ele>
                <time>2020-08-30T14:49:35.000Z</time>
                <name>Trackpoint 7598</name>
            </trkpt>
            <trkpt lat="50.01904" lon="8.4505928">
                <ele>86.0</ele>
                <time>2020-08-30T14:49:37.000Z</time>
                <name>Trackpoint 7599</name>
            </trkpt>
            <trkpt lat="50.018992" lon="8.4504432">
                <ele>86.0</ele>
                <time>2020-08-30T14:49:39.000Z</time>
                <name>Trackpoint 7600</name>
            </trkpt>
            <trkpt lat="50.0189504" lon="8.4502896">
                <ele>87.0</ele>
                <time>2020-08-30T14:49:41.000Z</time>
                <name>Trackpoint 7601</name>
            </trkpt>
            <trkpt lat="50.0188992" lon="8.45014">
                <ele>87.0</ele>
                <time>2020-08-30T14:49:43.000Z</time>
                <name>Trackpoint 7602</name>
            </trkpt>
            <trkpt lat="50.0188448" lon="8.4499864">
                <ele>87.0</ele>
                <time>2020-08-30T14:49:45.000Z</time>
                <name>Trackpoint 7603</name>
            </trkpt>
            <trkpt lat="50.0187904" lon="8.449832">
                <ele>87.0</ele>
                <time>2020-08-30T14:49:47.000Z</time>
                <name>Trackpoint 7604</name>
            </trkpt>
            <trkpt lat="50.0187424" lon="8.4496744">
                <ele>87.0</ele>
                <time>2020-08-30T14:49:49.000Z</time>
                <name>Trackpoint 7605</name>
            </trkpt>
            <trkpt lat="50.0186848" lon="8.449516">
                <ele>87.0</ele>
                <time>2020-08-30T14:49:51.000Z</time>
                <name>Trackpoint 7606</name>
            </trkpt>
            <trkpt lat="50.0186304" lon="8.44936">
                <ele>87.0</ele>
                <time>2020-08-30T14:49:53.000Z</time>
                <name>Trackpoint 7607</name>
            </trkpt>
            <trkpt lat="50.018576" lon="8.4492064">
                <ele>87.0</ele>
                <time>2020-08-30T14:49:55.000Z</time>
                <name>Trackpoint 7608</name>
            </trkpt>
            <trkpt lat="50.0185216" lon="8.4490616">
                <ele>87.0</ele>
                <time>2020-08-30T14:49:57.000Z</time>
                <name>Trackpoint 7609</name>
            </trkpt>
            <trkpt lat="50.018464" lon="8.4489136">
                <ele>86.0</ele>
                <time>2020-08-30T14:49:59.000Z</time>
                <name>Trackpoint 7610</name>
            </trkpt>
            <trkpt lat="50.0184032" lon="8.4487688">
                <ele>87.0</ele>
                <time>2020-08-30T14:50:01.000Z</time>
                <name>Trackpoint 7611</name>
            </trkpt>
            <trkpt lat="50.0183456" lon="8.4486248">
                <ele>87.0</ele>
                <time>2020-08-30T14:50:03.000Z</time>
                <name>Trackpoint 7612</name>
            </trkpt>
            <trkpt lat="50.0182848" lon="8.4484832">
                <ele>87.0</ele>
                <time>2020-08-30T14:50:05.000Z</time>
                <name>Trackpoint 7613</name>
            </trkpt>
            <trkpt lat="50.0182272" lon="8.4483416">
                <ele>86.0</ele>
                <time>2020-08-30T14:50:07.000Z</time>
                <name>Trackpoint 7614</name>
            </trkpt>
            <trkpt lat="50.0181696" lon="8.4481984">
                <ele>86.0</ele>
                <time>2020-08-30T14:50:09.000Z</time>
                <name>Trackpoint 7615</name>
            </trkpt>
            <trkpt lat="50.0181088" lon="8.448056">
                <ele>86.0</ele>
                <time>2020-08-30T14:50:11.000Z</time>
                <name>Trackpoint 7616</name>
            </trkpt>
            <trkpt lat="50.0180512" lon="8.4479152">
                <ele>86.0</ele>
                <time>2020-08-30T14:50:13.000Z</time>
                <name>Trackpoint 7617</name>
            </trkpt>
            <trkpt lat="50.0179904" lon="8.447768">
                <ele>86.0</ele>
                <time>2020-08-30T14:50:15.000Z</time>
                <name>Trackpoint 7618</name>
            </trkpt>
            <trkpt lat="50.0179264" lon="8.44762">
                <ele>86.0</ele>
                <time>2020-08-30T14:50:17.000Z</time>
                <name>Trackpoint 7619</name>
            </trkpt>
            <trkpt lat="50.0178656" lon="8.4474632">
                <ele>86.0</ele>
                <time>2020-08-30T14:50:19.000Z</time>
                <name>Trackpoint 7620</name>
            </trkpt>
            <trkpt lat="50.0177984" lon="8.4473048">
                <ele>86.0</ele>
                <time>2020-08-30T14:50:21.000Z</time>
                <name>Trackpoint 7621</name>
            </trkpt>
            <trkpt lat="50.0177376" lon="8.4471464">
                <ele>86.0</ele>
                <time>2020-08-30T14:50:23.000Z</time>
                <name>Trackpoint 7622</name>
            </trkpt>
            <trkpt lat="50.01768" lon="8.4469856">
                <ele>85.0</ele>
                <time>2020-08-30T14:50:25.000Z</time>
                <name>Trackpoint 7623</name>
            </trkpt>
            <trkpt lat="50.0176192" lon="8.4468272">
                <ele>85.0</ele>
                <time>2020-08-30T14:50:27.000Z</time>
                <name>Trackpoint 7624</name>
            </trkpt>
            <trkpt lat="50.017568" lon="8.4466632">
                <ele>86.0</ele>
                <time>2020-08-30T14:50:29.000Z</time>
                <name>Trackpoint 7625</name>
            </trkpt>
            <trkpt lat="50.0175296" lon="8.4464912">
                <ele>86.0</ele>
                <time>2020-08-30T14:50:31.000Z</time>
                <name>Trackpoint 7626</name>
            </trkpt>
            <trkpt lat="50.0174816" lon="8.4463192">
                <ele>86.0</ele>
                <time>2020-08-30T14:50:33.000Z</time>
                <name>Trackpoint 7627</name>
            </trkpt>
            <trkpt lat="50.0174336" lon="8.4461568">
                <ele>85.0</ele>
                <time>2020-08-30T14:50:35.000Z</time>
                <name>Trackpoint 7628</name>
            </trkpt>
            <trkpt lat="50.017376" lon="8.4459896">
                <ele>86.0</ele>
                <time>2020-08-30T14:50:37.000Z</time>
                <name>Trackpoint 7629</name>
            </trkpt>
            <trkpt lat="50.0172928" lon="8.4458584">
                <ele>86.0</ele>
                <time>2020-08-30T14:50:39.000Z</time>
                <name>Trackpoint 7630</name>
            </trkpt>
            <trkpt lat="50.0171968" lon="8.4457416">
                <ele>86.0</ele>
                <time>2020-08-30T14:50:41.000Z</time>
                <name>Trackpoint 7631</name>
            </trkpt>
            <trkpt lat="50.0170976" lon="8.4456264">
                <ele>87.0</ele>
                <time>2020-08-30T14:50:43.000Z</time>
                <name>Trackpoint 7632</name>
            </trkpt>
            <trkpt lat="50.0169952" lon="8.4455072">
                <ele>87.0</ele>
                <time>2020-08-30T14:50:45.000Z</time>
                <name>Trackpoint 7633</name>
            </trkpt>
            <trkpt lat="50.0168992" lon="8.44538">
                <ele>88.0</ele>
                <time>2020-08-30T14:50:47.000Z</time>
                <name>Trackpoint 7634</name>
            </trkpt>
            <trkpt lat="50.016816" lon="8.44524">
                <ele>89.0</ele>
                <time>2020-08-30T14:50:49.000Z</time>
                <name>Trackpoint 7635</name>
            </trkpt>
            <trkpt lat="50.0167488" lon="8.4450768">
                <ele>89.0</ele>
                <time>2020-08-30T14:50:51.000Z</time>
                <name>Trackpoint 7636</name>
            </trkpt>
            <trkpt lat="50.0167232" lon="8.444988">
                <ele>89.0</ele>
                <time>2020-08-30T14:50:52.000Z</time>
                <name>Trackpoint 7637</name>
            </trkpt>
            <trkpt lat="50.0167008" lon="8.4448984">
                <ele>89.0</ele>
                <time>2020-08-30T14:50:53.000Z</time>
                <name>Trackpoint 7638</name>
            </trkpt>
            <trkpt lat="50.0166752" lon="8.444808">
                <ele>89.0</ele>
                <time>2020-08-30T14:50:54.000Z</time>
                <name>Trackpoint 7639</name>
            </trkpt>
            <trkpt lat="50.0166208" lon="8.44464">
                <ele>90.0</ele>
                <time>2020-08-30T14:50:56.000Z</time>
                <name>Trackpoint 7640</name>
            </trkpt>
            <trkpt lat="50.0165664" lon="8.4444864">
                <ele>89.0</ele>
                <time>2020-08-30T14:50:58.000Z</time>
                <name>Trackpoint 7641</name>
            </trkpt>
            <trkpt lat="50.0165216" lon="8.4443384">
                <ele>89.0</ele>
                <time>2020-08-30T14:51:00.000Z</time>
                <name>Trackpoint 7642</name>
            </trkpt>
            <trkpt lat="50.016464" lon="8.4441904">
                <ele>89.0</ele>
                <time>2020-08-30T14:51:02.000Z</time>
                <name>Trackpoint 7643</name>
            </trkpt>
            <trkpt lat="50.0164064" lon="8.4440432">
                <ele>89.0</ele>
                <time>2020-08-30T14:51:04.000Z</time>
                <name>Trackpoint 7644</name>
            </trkpt>
            <trkpt lat="50.0163456" lon="8.4438552">
                <ele>89.0</ele>
                <time>2020-08-30T14:51:06.000Z</time>
                <name>Trackpoint 7645</name>
            </trkpt>
            <trkpt lat="50.016288" lon="8.4436904">
                <ele>89.0</ele>
                <time>2020-08-30T14:51:08.000Z</time>
                <name>Trackpoint 7646</name>
            </trkpt>
            <trkpt lat="50.0162304" lon="8.4435456">
                <ele>88.0</ele>
                <time>2020-08-30T14:51:10.000Z</time>
                <name>Trackpoint 7647</name>
            </trkpt>
            <trkpt lat="50.0161824" lon="8.4433968">
                <ele>88.0</ele>
                <time>2020-08-30T14:51:12.000Z</time>
                <name>Trackpoint 7648</name>
            </trkpt>
            <trkpt lat="50.0161376" lon="8.4432496">
                <ele>88.0</ele>
                <time>2020-08-30T14:51:14.000Z</time>
                <name>Trackpoint 7649</name>
            </trkpt>
            <trkpt lat="50.0160864" lon="8.4431104">
                <ele>88.0</ele>
                <time>2020-08-30T14:51:16.000Z</time>
                <name>Trackpoint 7650</name>
            </trkpt>
            <trkpt lat="50.0160384" lon="8.4429664">
                <ele>88.0</ele>
                <time>2020-08-30T14:51:18.000Z</time>
                <name>Trackpoint 7651</name>
            </trkpt>
            <trkpt lat="50.0159872" lon="8.4428304">
                <ele>89.0</ele>
                <time>2020-08-30T14:51:20.000Z</time>
                <name>Trackpoint 7652</name>
            </trkpt>
            <trkpt lat="50.015968" lon="8.4426832">
                <ele>89.0</ele>
                <time>2020-08-30T14:51:22.000Z</time>
                <name>Trackpoint 7653</name>
            </trkpt>
            <trkpt lat="50.015952" lon="8.44254">
                <ele>89.0</ele>
                <time>2020-08-30T14:51:24.000Z</time>
                <name>Trackpoint 7654</name>
            </trkpt>
            <trkpt lat="50.0159136" lon="8.4423952">
                <ele>89.0</ele>
                <time>2020-08-30T14:51:26.000Z</time>
                <name>Trackpoint 7655</name>
            </trkpt>
            <trkpt lat="50.0158592" lon="8.4422528">
                <ele>89.0</ele>
                <time>2020-08-30T14:51:28.000Z</time>
                <name>Trackpoint 7656</name>
            </trkpt>
            <trkpt lat="50.015792" lon="8.4421232">
                <ele>89.0</ele>
                <time>2020-08-30T14:51:30.000Z</time>
                <name>Trackpoint 7657</name>
            </trkpt>
            <trkpt lat="50.0157248" lon="8.4419984">
                <ele>89.0</ele>
                <time>2020-08-30T14:51:32.000Z</time>
                <name>Trackpoint 7658</name>
            </trkpt>
            <trkpt lat="50.0156512" lon="8.441872">
                <ele>89.0</ele>
                <time>2020-08-30T14:51:34.000Z</time>
                <name>Trackpoint 7659</name>
            </trkpt>
            <trkpt lat="50.0155712" lon="8.4417496">
                <ele>88.0</ele>
                <time>2020-08-30T14:51:36.000Z</time>
                <name>Trackpoint 7660</name>
            </trkpt>
            <trkpt lat="50.0154912" lon="8.4416248">
                <ele>88.0</ele>
                <time>2020-08-30T14:51:38.000Z</time>
                <name>Trackpoint 7661</name>
            </trkpt>
            <trkpt lat="50.0154112" lon="8.4414968">
                <ele>88.0</ele>
                <time>2020-08-30T14:51:40.000Z</time>
                <name>Trackpoint 7662</name>
            </trkpt>
            <trkpt lat="50.015344" lon="8.441352">
                <ele>88.0</ele>
                <time>2020-08-30T14:51:42.000Z</time>
                <name>Trackpoint 7663</name>
            </trkpt>
            <trkpt lat="50.0152832" lon="8.4411984">
                <ele>88.0</ele>
                <time>2020-08-30T14:51:44.000Z</time>
                <name>Trackpoint 7664</name>
            </trkpt>
            <trkpt lat="50.015216" lon="8.4410488">
                <ele>88.0</ele>
                <time>2020-08-30T14:51:46.000Z</time>
                <name>Trackpoint 7665</name>
            </trkpt>
            <trkpt lat="50.0151552" lon="8.4408976">
                <ele>88.0</ele>
                <time>2020-08-30T14:51:48.000Z</time>
                <name>Trackpoint 7666</name>
            </trkpt>
            <trkpt lat="50.0150912" lon="8.4407552">
                <ele>88.0</ele>
                <time>2020-08-30T14:51:50.000Z</time>
                <name>Trackpoint 7667</name>
            </trkpt>
            <trkpt lat="50.0150176" lon="8.440628">
                <ele>88.0</ele>
                <time>2020-08-30T14:51:52.000Z</time>
                <name>Trackpoint 7668</name>
            </trkpt>
            <trkpt lat="50.0149472" lon="8.4404984">
                <ele>88.0</ele>
                <time>2020-08-30T14:51:54.000Z</time>
                <name>Trackpoint 7669</name>
            </trkpt>
            <trkpt lat="50.0148768" lon="8.440356">
                <ele>88.0</ele>
                <time>2020-08-30T14:51:56.000Z</time>
                <name>Trackpoint 7670</name>
            </trkpt>
            <trkpt lat="50.0148224" lon="8.4402016">
                <ele>88.0</ele>
                <time>2020-08-30T14:51:58.000Z</time>
                <name>Trackpoint 7671</name>
            </trkpt>
            <trkpt lat="50.0147808" lon="8.4400384">
                <ele>88.0</ele>
                <time>2020-08-30T14:52:00.000Z</time>
                <name>Trackpoint 7672</name>
            </trkpt>
            <trkpt lat="50.0147424" lon="8.4398768">
                <ele>87.0</ele>
                <time>2020-08-30T14:52:02.000Z</time>
                <name>Trackpoint 7673</name>
            </trkpt>
            <trkpt lat="50.0147072" lon="8.439716">
                <ele>88.0</ele>
                <time>2020-08-30T14:52:04.000Z</time>
                <name>Trackpoint 7674</name>
            </trkpt>
            <trkpt lat="50.0146688" lon="8.43956">
                <ele>88.0</ele>
                <time>2020-08-30T14:52:06.000Z</time>
                <name>Trackpoint 7675</name>
            </trkpt>
            <trkpt lat="50.014624" lon="8.4394032">
                <ele>88.0</ele>
                <time>2020-08-30T14:52:08.000Z</time>
                <name>Trackpoint 7676</name>
            </trkpt>
            <trkpt lat="50.0145792" lon="8.439252">
                <ele>88.0</ele>
                <time>2020-08-30T14:52:10.000Z</time>
                <name>Trackpoint 7677</name>
            </trkpt>
            <trkpt lat="50.0145216" lon="8.4391072">
                <ele>88.0</ele>
                <time>2020-08-30T14:52:12.000Z</time>
                <name>Trackpoint 7678</name>
            </trkpt>
            <trkpt lat="50.0144608" lon="8.4389616">
                <ele>88.0</ele>
                <time>2020-08-30T14:52:14.000Z</time>
                <name>Trackpoint 7679</name>
            </trkpt>
            <trkpt lat="50.0143968" lon="8.4388216">
                <ele>88.0</ele>
                <time>2020-08-30T14:52:16.000Z</time>
                <name>Trackpoint 7680</name>
            </trkpt>
            <trkpt lat="50.0143296" lon="8.4386856">
                <ele>88.0</ele>
                <time>2020-08-30T14:52:18.000Z</time>
                <name>Trackpoint 7681</name>
            </trkpt>
            <trkpt lat="50.0142624" lon="8.4385496">
                <ele>88.0</ele>
                <time>2020-08-30T14:52:20.000Z</time>
                <name>Trackpoint 7682</name>
            </trkpt>
            <trkpt lat="50.0142048" lon="8.4383984">
                <ele>88.0</ele>
                <time>2020-08-30T14:52:22.000Z</time>
                <name>Trackpoint 7683</name>
            </trkpt>
            <trkpt lat="50.0141472" lon="8.4382448">
                <ele>88.0</ele>
                <time>2020-08-30T14:52:24.000Z</time>
                <name>Trackpoint 7684</name>
            </trkpt>
            <trkpt lat="50.0140928" lon="8.4380976">
                <ele>88.0</ele>
                <time>2020-08-30T14:52:26.000Z</time>
                <name>Trackpoint 7685</name>
            </trkpt>
            <trkpt lat="50.0140256" lon="8.437952">
                <ele>88.0</ele>
                <time>2020-08-30T14:52:28.000Z</time>
                <name>Trackpoint 7686</name>
            </trkpt>
            <trkpt lat="50.0139616" lon="8.4378168">
                <ele>88.0</ele>
                <time>2020-08-30T14:52:30.000Z</time>
                <name>Trackpoint 7687</name>
            </trkpt>
            <trkpt lat="50.0138816" lon="8.437692">
                <ele>88.0</ele>
                <time>2020-08-30T14:52:32.000Z</time>
                <name>Trackpoint 7688</name>
            </trkpt>
            <trkpt lat="50.0138016" lon="8.4375664">
                <ele>88.0</ele>
                <time>2020-08-30T14:52:34.000Z</time>
                <name>Trackpoint 7689</name>
            </trkpt>
            <trkpt lat="50.0137216" lon="8.4374488">
                <ele>88.0</ele>
                <time>2020-08-30T14:52:36.000Z</time>
                <name>Trackpoint 7690</name>
            </trkpt>
            <trkpt lat="50.0136416" lon="8.4373328">
                <ele>87.0</ele>
                <time>2020-08-30T14:52:38.000Z</time>
                <name>Trackpoint 7691</name>
            </trkpt>
            <trkpt lat="50.0135616" lon="8.4372256">
                <ele>87.0</ele>
                <time>2020-08-30T14:52:40.000Z</time>
                <name>Trackpoint 7692</name>
            </trkpt>
            <trkpt lat="50.0134816" lon="8.4371144">
                <ele>87.0</ele>
                <time>2020-08-30T14:52:42.000Z</time>
                <name>Trackpoint 7693</name>
            </trkpt>
            <trkpt lat="50.013408" lon="8.436988">
                <ele>87.0</ele>
                <time>2020-08-30T14:52:44.000Z</time>
                <name>Trackpoint 7694</name>
            </trkpt>
            <trkpt lat="50.0133504" lon="8.4368352">
                <ele>87.0</ele>
                <time>2020-08-30T14:52:46.000Z</time>
                <name>Trackpoint 7695</name>
            </trkpt>
            <trkpt lat="50.0133024" lon="8.4366816">
                <ele>87.0</ele>
                <time>2020-08-30T14:52:48.000Z</time>
                <name>Trackpoint 7696</name>
            </trkpt>
            <trkpt lat="50.0132576" lon="8.4365328">
                <ele>86.0</ele>
                <time>2020-08-30T14:52:50.000Z</time>
                <name>Trackpoint 7697</name>
            </trkpt>
            <trkpt lat="50.0132064" lon="8.4363848">
                <ele>87.0</ele>
                <time>2020-08-30T14:52:52.000Z</time>
                <name>Trackpoint 7698</name>
            </trkpt>
            <trkpt lat="50.0131456" lon="8.4362672">
                <ele>87.0</ele>
                <time>2020-08-30T14:52:54.000Z</time>
                <name>Trackpoint 7699</name>
            </trkpt>
            <trkpt lat="50.0130624" lon="8.4361688">
                <ele>87.0</ele>
                <time>2020-08-30T14:52:56.000Z</time>
                <name>Trackpoint 7700</name>
            </trkpt>
            <trkpt lat="50.0129856" lon="8.4360584">
                <ele>86.0</ele>
                <time>2020-08-30T14:52:58.000Z</time>
                <name>Trackpoint 7701</name>
            </trkpt>
            <trkpt lat="50.012928" lon="8.4359232">
                <ele>86.0</ele>
                <time>2020-08-30T14:53:00.000Z</time>
                <name>Trackpoint 7702</name>
            </trkpt>
            <trkpt lat="50.0128896" lon="8.4357792">
                <ele>86.0</ele>
                <time>2020-08-30T14:53:02.000Z</time>
                <name>Trackpoint 7703</name>
            </trkpt>
            <trkpt lat="50.0128512" lon="8.4356368">
                <ele>86.0</ele>
                <time>2020-08-30T14:53:04.000Z</time>
                <name>Trackpoint 7704</name>
            </trkpt>
            <trkpt lat="50.0127968" lon="8.4354984">
                <ele>86.0</ele>
                <time>2020-08-30T14:53:06.000Z</time>
                <name>Trackpoint 7705</name>
            </trkpt>
            <trkpt lat="50.012752" lon="8.4353464">
                <ele>85.0</ele>
                <time>2020-08-30T14:53:08.000Z</time>
                <name>Trackpoint 7706</name>
            </trkpt>
            <trkpt lat="50.0127264" lon="8.4352504">
                <ele>85.0</ele>
                <time>2020-08-30T14:53:09.000Z</time>
                <name>Trackpoint 7707</name>
            </trkpt>
            <trkpt lat="50.0126816" lon="8.4350856">
                <ele>86.0</ele>
                <time>2020-08-30T14:53:11.000Z</time>
                <name>Trackpoint 7708</name>
            </trkpt>
            <trkpt lat="50.0126304" lon="8.4349296">
                <ele>86.0</ele>
                <time>2020-08-30T14:53:13.000Z</time>
                <name>Trackpoint 7709</name>
            </trkpt>
            <trkpt lat="50.012576" lon="8.434776">
                <ele>87.0</ele>
                <time>2020-08-30T14:53:15.000Z</time>
                <name>Trackpoint 7710</name>
            </trkpt>
            <trkpt lat="50.0125344" lon="8.4346304">
                <ele>87.0</ele>
                <time>2020-08-30T14:53:17.000Z</time>
                <name>Trackpoint 7711</name>
            </trkpt>
            <trkpt lat="50.0124864" lon="8.4344904">
                <ele>87.0</ele>
                <time>2020-08-30T14:53:19.000Z</time>
                <name>Trackpoint 7712</name>
            </trkpt>
            <trkpt lat="50.0124384" lon="8.4343432">
                <ele>86.0</ele>
                <time>2020-08-30T14:53:21.000Z</time>
                <name>Trackpoint 7713</name>
            </trkpt>
            <trkpt lat="50.0123968" lon="8.4342072">
                <ele>86.0</ele>
                <time>2020-08-30T14:53:23.000Z</time>
                <name>Trackpoint 7714</name>
            </trkpt>
            <trkpt lat="50.0123552" lon="8.4340648">
                <ele>86.0</ele>
                <time>2020-08-30T14:53:25.000Z</time>
                <name>Trackpoint 7715</name>
            </trkpt>
            <trkpt lat="50.0123104" lon="8.4339112">
                <ele>86.0</ele>
                <time>2020-08-30T14:53:27.000Z</time>
                <name>Trackpoint 7716</name>
            </trkpt>
            <trkpt lat="50.0122592" lon="8.4337632">
                <ele>85.0</ele>
                <time>2020-08-30T14:53:29.000Z</time>
                <name>Trackpoint 7717</name>
            </trkpt>
            <trkpt lat="50.0122112" lon="8.4335944">
                <ele>85.0</ele>
                <time>2020-08-30T14:53:31.000Z</time>
                <name>Trackpoint 7718</name>
            </trkpt>
            <trkpt lat="50.01216" lon="8.4334432">
                <ele>84.0</ele>
                <time>2020-08-30T14:53:33.000Z</time>
                <name>Trackpoint 7719</name>
            </trkpt>
            <trkpt lat="50.0121152" lon="8.4332952">
                <ele>84.0</ele>
                <time>2020-08-30T14:53:35.000Z</time>
                <name>Trackpoint 7720</name>
            </trkpt>
            <trkpt lat="50.0120672" lon="8.43314">
                <ele>85.0</ele>
                <time>2020-08-30T14:53:37.000Z</time>
                <name>Trackpoint 7721</name>
            </trkpt>
            <trkpt lat="50.0120192" lon="8.4329904">
                <ele>85.0</ele>
                <time>2020-08-30T14:53:39.000Z</time>
                <name>Trackpoint 7722</name>
            </trkpt>
            <trkpt lat="50.0119744" lon="8.4328336">
                <ele>86.0</ele>
                <time>2020-08-30T14:53:41.000Z</time>
                <name>Trackpoint 7723</name>
            </trkpt>
            <trkpt lat="50.0119232" lon="8.432676">
                <ele>86.0</ele>
                <time>2020-08-30T14:53:43.000Z</time>
                <name>Trackpoint 7724</name>
            </trkpt>
            <trkpt lat="50.0118752" lon="8.4325216">
                <ele>86.0</ele>
                <time>2020-08-30T14:53:45.000Z</time>
                <name>Trackpoint 7725</name>
            </trkpt>
            <trkpt lat="50.0118336" lon="8.4323728">
                <ele>86.0</ele>
                <time>2020-08-30T14:53:47.000Z</time>
                <name>Trackpoint 7726</name>
            </trkpt>
            <trkpt lat="50.0117952" lon="8.432232">
                <ele>86.0</ele>
                <time>2020-08-30T14:53:49.000Z</time>
                <name>Trackpoint 7727</name>
            </trkpt>
            <trkpt lat="50.0117568" lon="8.4321">
                <ele>86.0</ele>
                <time>2020-08-30T14:53:51.000Z</time>
                <name>Trackpoint 7728</name>
            </trkpt>
            <trkpt lat="50.0117312" lon="8.4319936">
                <ele>86.0</ele>
                <time>2020-08-30T14:53:53.000Z</time>
                <name>Trackpoint 7729</name>
            </trkpt>
            <trkpt lat="50.0117088" lon="8.4319064">
                <ele>86.0</ele>
                <time>2020-08-30T14:53:55.000Z</time>
                <name>Trackpoint 7730</name>
            </trkpt>
            <trkpt lat="50.0117344" lon="8.4318">
                <ele>86.0</ele>
                <time>2020-08-30T14:54:39.000Z</time>
                <name>Trackpoint 7731</name>
            </trkpt>
            <trkpt lat="50.0117504" lon="8.4316704">
                <ele>86.0</ele>
                <time>2020-08-30T14:54:42.000Z</time>
                <name>Trackpoint 7732</name>
            </trkpt>
            <trkpt lat="50.0118336" lon="8.431592">
                <ele>86.0</ele>
                <time>2020-08-30T14:54:45.000Z</time>
                <name>Trackpoint 7733</name>
            </trkpt>
            <trkpt lat="50.0119488" lon="8.4315768">
                <ele>86.0</ele>
                <time>2020-08-30T14:54:49.000Z</time>
                <name>Trackpoint 7734</name>
            </trkpt>
            <trkpt lat="50.0120512" lon="8.4315392">
                <ele>86.0</ele>
                <time>2020-08-30T14:54:53.000Z</time>
                <name>Trackpoint 7735</name>
            </trkpt>
            <trkpt lat="50.0120704" lon="8.4314384">
                <ele>86.0</ele>
                <time>2020-08-30T14:54:56.000Z</time>
                <name>Trackpoint 7736</name>
            </trkpt>
            <trkpt lat="50.0120576" lon="8.431332">
                <ele>86.0</ele>
                <time>2020-08-30T14:54:59.000Z</time>
                <name>Trackpoint 7737</name>
            </trkpt>
            <trkpt lat="50.0120128" lon="8.4312152">
                <ele>86.0</ele>
                <time>2020-08-30T14:55:02.000Z</time>
                <name>Trackpoint 7738</name>
            </trkpt>
            <trkpt lat="50.011968" lon="8.4311168">
                <ele>86.0</ele>
                <time>2020-08-30T14:55:05.000Z</time>
                <name>Trackpoint 7739</name>
            </trkpt>
            <trkpt lat="50.0119168" lon="8.431028">
                <ele>86.0</ele>
                <time>2020-08-30T14:55:36.000Z</time>
                <name>Trackpoint 7740</name>
            </trkpt>
            <trkpt lat="50.0118624" lon="8.4309304">
                <ele>86.0</ele>
                <time>2020-08-30T14:55:39.000Z</time>
                <name>Trackpoint 7741</name>
            </trkpt>
            <trkpt lat="50.0118208" lon="8.4308504">
                <ele>86.0</ele>
                <time>2020-08-30T14:55:41.000Z</time>
                <name>Trackpoint 7742</name>
            </trkpt>
            <trkpt lat="50.011776" lon="8.4307584">
                <ele>86.0</ele>
                <time>2020-08-30T14:55:43.000Z</time>
                <name>Trackpoint 7743</name>
            </trkpt>
            <trkpt lat="50.0117312" lon="8.4306744">
                <ele>86.0</ele>
                <time>2020-08-30T14:55:45.000Z</time>
                <name>Trackpoint 7744</name>
            </trkpt>
            <trkpt lat="50.0116832" lon="8.4305952">
                <ele>86.0</ele>
                <time>2020-08-30T14:55:47.000Z</time>
                <name>Trackpoint 7745</name>
            </trkpt>
            <trkpt lat="50.0116384" lon="8.4305096">
                <ele>86.0</ele>
                <time>2020-08-30T14:55:49.000Z</time>
                <name>Trackpoint 7746</name>
            </trkpt>
            <trkpt lat="50.0116" lon="8.4304264">
                <ele>86.0</ele>
                <time>2020-08-30T14:55:51.000Z</time>
                <name>Trackpoint 7747</name>
            </trkpt>
            <trkpt lat="50.0115584" lon="8.430324">
                <ele>86.0</ele>
                <time>2020-08-30T14:55:55.000Z</time>
                <name>Trackpoint 7748</name>
            </trkpt>
            <trkpt lat="50.011504" lon="8.4302352">
                <ele>86.0</ele>
                <time>2020-08-30T14:55:59.000Z</time>
                <name>Trackpoint 7749</name>
            </trkpt>
            <trkpt lat="50.01152" lon="8.4301616">
                <ele>87.0</ele>
                <time>2020-08-30T14:57:03.000Z</time>
                <name>Trackpoint 7756</name>
            </trkpt>
            <trkpt lat="50.011472" lon="8.4300808">
                <ele>87.0</ele>
                <time>2020-08-30T14:57:05.000Z</time>
                <name>Trackpoint 7757</name>
            </trkpt>
            <trkpt lat="50.0114208" lon="8.4299832">
                <ele>87.0</ele>
                <time>2020-08-30T14:57:07.000Z</time>
                <name>Trackpoint 7758</name>
            </trkpt>
            <trkpt lat="50.01136" lon="8.4298912">
                <ele>87.0</ele>
                <time>2020-08-30T14:57:09.000Z</time>
                <name>Trackpoint 7759</name>
            </trkpt>
            <trkpt lat="50.0113056" lon="8.4297896">
                <ele>87.0</ele>
                <time>2020-08-30T14:57:11.000Z</time>
                <name>Trackpoint 7760</name>
            </trkpt>
            <trkpt lat="50.0112768" lon="8.4296752">
                <ele>87.0</ele>
                <time>2020-08-30T14:57:13.000Z</time>
                <name>Trackpoint 7761</name>
            </trkpt>
            <trkpt lat="50.0112064" lon="8.4295784">
                <ele>87.0</ele>
                <time>2020-08-30T14:57:15.000Z</time>
                <name>Trackpoint 7762</name>
            </trkpt>
            <trkpt lat="50.0111648" lon="8.4294816">
                <ele>88.0</ele>
                <time>2020-08-30T14:57:17.000Z</time>
                <name>Trackpoint 7763</name>
            </trkpt>
            <trkpt lat="50.0111264" lon="8.429388">
                <ele>88.0</ele>
                <time>2020-08-30T14:57:19.000Z</time>
                <name>Trackpoint 7764</name>
            </trkpt>
            <trkpt lat="50.011088" lon="8.4292936">
                <ele>88.0</ele>
                <time>2020-08-30T14:57:21.000Z</time>
                <name>Trackpoint 7765</name>
            </trkpt>
            <trkpt lat="50.0110432" lon="8.4291752">
                <ele>89.0</ele>
                <time>2020-08-30T14:57:24.000Z</time>
                <name>Trackpoint 7766</name>
            </trkpt>
            <trkpt lat="50.0109984" lon="8.4290936">
                <ele>87.0</ele>
                <time>2020-08-30T14:57:27.000Z</time>
                <name>Trackpoint 7767</name>
            </trkpt>
            <trkpt lat="50.0109472" lon="8.4289864">
                <ele>88.0</ele>
                <time>2020-08-30T14:57:31.000Z</time>
                <name>Trackpoint 7768</name>
            </trkpt>
            <trkpt lat="50.0108992" lon="8.428888">
                <ele>88.0</ele>
                <time>2020-08-30T14:57:34.000Z</time>
                <name>Trackpoint 7769</name>
            </trkpt>
            <trkpt lat="50.010864" lon="8.4288016">
                <ele>87.0</ele>
                <time>2020-08-30T14:57:36.000Z</time>
                <name>Trackpoint 7770</name>
            </trkpt>
            <trkpt lat="50.0108224" lon="8.4287144">
                <ele>88.0</ele>
                <time>2020-08-30T14:57:38.000Z</time>
                <name>Trackpoint 7771</name>
            </trkpt>
            <trkpt lat="50.0107776" lon="8.4286232">
                <ele>87.0</ele>
                <time>2020-08-30T14:57:40.000Z</time>
                <name>Trackpoint 7772</name>
            </trkpt>
            <trkpt lat="50.010736" lon="8.428512">
                <ele>87.0</ele>
                <time>2020-08-30T14:57:42.000Z</time>
                <name>Trackpoint 7773</name>
            </trkpt>
            <trkpt lat="50.0106848" lon="8.4284016">
                <ele>87.0</ele>
                <time>2020-08-30T14:57:44.000Z</time>
                <name>Trackpoint 7774</name>
            </trkpt>
            <trkpt lat="50.010624" lon="8.4282616">
                <ele>88.0</ele>
                <time>2020-08-30T14:57:46.000Z</time>
                <name>Trackpoint 7775</name>
            </trkpt>
            <trkpt lat="50.0105856" lon="8.4281368">
                <ele>88.0</ele>
                <time>2020-08-30T14:57:48.000Z</time>
                <name>Trackpoint 7776</name>
            </trkpt>
            <trkpt lat="50.0105248" lon="8.4280192">
                <ele>88.0</ele>
                <time>2020-08-30T14:57:50.000Z</time>
                <name>Trackpoint 7777</name>
            </trkpt>
            <trkpt lat="50.0104608" lon="8.4279168">
                <ele>87.0</ele>
                <time>2020-08-30T14:57:52.000Z</time>
                <name>Trackpoint 7778</name>
            </trkpt>
            <trkpt lat="50.0104096" lon="8.4278088">
                <ele>88.0</ele>
                <time>2020-08-30T14:57:54.000Z</time>
                <name>Trackpoint 7779</name>
            </trkpt>
            <trkpt lat="50.0103584" lon="8.4277064">
                <ele>88.0</ele>
                <time>2020-08-30T14:57:56.000Z</time>
                <name>Trackpoint 7780</name>
            </trkpt>
            <trkpt lat="50.0103104" lon="8.427604">
                <ele>88.0</ele>
                <time>2020-08-30T14:57:58.000Z</time>
                <name>Trackpoint 7781</name>
            </trkpt>
            <trkpt lat="50.0102592" lon="8.4275104">
                <ele>88.0</ele>
                <time>2020-08-30T14:58:00.000Z</time>
                <name>Trackpoint 7782</name>
            </trkpt>
            <trkpt lat="50.0102144" lon="8.4274128">
                <ele>88.0</ele>
                <time>2020-08-30T14:58:02.000Z</time>
                <name>Trackpoint 7783</name>
            </trkpt>
            <trkpt lat="50.0101792" lon="8.4273232">
                <ele>88.0</ele>
                <time>2020-08-30T14:58:04.000Z</time>
                <name>Trackpoint 7784</name>
            </trkpt>
            <trkpt lat="50.0101248" lon="8.4272144">
                <ele>88.0</ele>
                <time>2020-08-30T14:58:07.000Z</time>
                <name>Trackpoint 7785</name>
            </trkpt>
            <trkpt lat="50.010064" lon="8.427148">
                <ele>89.0</ele>
                <time>2020-08-30T14:58:10.000Z</time>
                <name>Trackpoint 7786</name>
            </trkpt>
            <trkpt lat="50.0100704" lon="8.4270896">
                <ele>89.0</ele>
                <time>2020-08-30T14:58:55.000Z</time>
                <name>Trackpoint 7787</name>
            </trkpt>
            <trkpt lat="50.0100448" lon="8.4269896">
                <ele>89.0</ele>
                <time>2020-08-30T15:00:02.000Z</time>
                <name>Trackpoint 7788</name>
            </trkpt>
            <trkpt lat="50.0100064" lon="8.4268984">
                <ele>89.0</ele>
                <time>2020-08-30T15:00:05.000Z</time>
                <name>Trackpoint 7789</name>
            </trkpt>
            <trkpt lat="50.0099552" lon="8.4267784">
                <ele>89.0</ele>
                <time>2020-08-30T15:00:08.000Z</time>
                <name>Trackpoint 7790</name>
            </trkpt>
            <trkpt lat="50.0099072" lon="8.4266864">
                <ele>89.0</ele>
                <time>2020-08-30T15:00:10.000Z</time>
                <name>Trackpoint 7791</name>
            </trkpt>
            <trkpt lat="50.0098624" lon="8.4265984">
                <ele>89.0</ele>
                <time>2020-08-30T15:00:12.000Z</time>
                <name>Trackpoint 7792</name>
            </trkpt>
            <trkpt lat="50.0098144" lon="8.426508">
                <ele>89.0</ele>
                <time>2020-08-30T15:00:14.000Z</time>
                <name>Trackpoint 7793</name>
            </trkpt>
            <trkpt lat="50.0097632" lon="8.4264048">
                <ele>90.0</ele>
                <time>2020-08-30T15:00:16.000Z</time>
                <name>Trackpoint 7794</name>
            </trkpt>
            <trkpt lat="50.0097056" lon="8.4263032">
                <ele>90.0</ele>
                <time>2020-08-30T15:00:18.000Z</time>
                <name>Trackpoint 7795</name>
            </trkpt>
            <trkpt lat="50.0096448" lon="8.4262112">
                <ele>89.0</ele>
                <time>2020-08-30T15:00:20.000Z</time>
                <name>Trackpoint 7796</name>
            </trkpt>
            <trkpt lat="50.0096" lon="8.4261248">
                <ele>89.0</ele>
                <time>2020-08-30T15:00:22.000Z</time>
                <name>Trackpoint 7797</name>
            </trkpt>
            <trkpt lat="50.0095488" lon="8.42604">
                <ele>89.0</ele>
                <time>2020-08-30T15:00:24.000Z</time>
                <name>Trackpoint 7798</name>
            </trkpt>
            <trkpt lat="50.0094944" lon="8.4259504">
                <ele>89.0</ele>
                <time>2020-08-30T15:00:26.000Z</time>
                <name>Trackpoint 7799</name>
            </trkpt>
            <trkpt lat="50.0094528" lon="8.4258696">
                <ele>89.0</ele>
                <time>2020-08-30T15:00:28.000Z</time>
                <name>Trackpoint 7800</name>
            </trkpt>
            <trkpt lat="50.0093984" lon="8.4257768">
                <ele>89.0</ele>
                <time>2020-08-30T15:00:30.000Z</time>
                <name>Trackpoint 7801</name>
            </trkpt>
            <trkpt lat="50.0093376" lon="8.4256784">
                <ele>89.0</ele>
                <time>2020-08-30T15:00:32.000Z</time>
                <name>Trackpoint 7802</name>
            </trkpt>
            <trkpt lat="50.0092864" lon="8.4255752">
                <ele>89.0</ele>
                <time>2020-08-30T15:00:34.000Z</time>
                <name>Trackpoint 7803</name>
            </trkpt>
            <trkpt lat="50.0092288" lon="8.4254848">
                <ele>89.0</ele>
                <time>2020-08-30T15:00:36.000Z</time>
                <name>Trackpoint 7804</name>
            </trkpt>
            <trkpt lat="50.0091712" lon="8.4253952">
                <ele>89.0</ele>
                <time>2020-08-30T15:00:38.000Z</time>
                <name>Trackpoint 7805</name>
            </trkpt>
            <trkpt lat="50.0091232" lon="8.4253056">
                <ele>89.0</ele>
                <time>2020-08-30T15:00:40.000Z</time>
                <name>Trackpoint 7806</name>
            </trkpt>
            <trkpt lat="50.0090752" lon="8.4252016">
                <ele>89.0</ele>
                <time>2020-08-30T15:00:42.000Z</time>
                <name>Trackpoint 7807</name>
            </trkpt>
            <trkpt lat="50.0090304" lon="8.4250944">
                <ele>89.0</ele>
                <time>2020-08-30T15:00:44.000Z</time>
                <name>Trackpoint 7808</name>
            </trkpt>
            <trkpt lat="50.0089728" lon="8.424996">
                <ele>90.0</ele>
                <time>2020-08-30T15:00:46.000Z</time>
                <name>Trackpoint 7809</name>
            </trkpt>
            <trkpt lat="50.0089088" lon="8.4248888">
                <ele>91.0</ele>
                <time>2020-08-30T15:00:48.000Z</time>
                <name>Trackpoint 7810</name>
            </trkpt>
            <trkpt lat="50.0088384" lon="8.4247848">
                <ele>91.0</ele>
                <time>2020-08-30T15:00:50.000Z</time>
                <name>Trackpoint 7811</name>
            </trkpt>
            <trkpt lat="50.0087776" lon="8.4247016">
                <ele>91.0</ele>
                <time>2020-08-30T15:00:52.000Z</time>
                <name>Trackpoint 7812</name>
            </trkpt>
            <trkpt lat="50.0087136" lon="8.4246232">
                <ele>91.0</ele>
                <time>2020-08-30T15:00:54.000Z</time>
                <name>Trackpoint 7813</name>
            </trkpt>
            <trkpt lat="50.0086528" lon="8.4245392">
                <ele>91.0</ele>
                <time>2020-08-30T15:00:56.000Z</time>
                <name>Trackpoint 7814</name>
            </trkpt>
            <trkpt lat="50.008592" lon="8.424452">
                <ele>90.0</ele>
                <time>2020-08-30T15:00:58.000Z</time>
                <name>Trackpoint 7815</name>
            </trkpt>
            <trkpt lat="50.0085408" lon="8.424368">
                <ele>90.0</ele>
                <time>2020-08-30T15:01:00.000Z</time>
                <name>Trackpoint 7816</name>
            </trkpt>
            <trkpt lat="50.00848" lon="8.4242952">
                <ele>90.0</ele>
                <time>2020-08-30T15:01:02.000Z</time>
                <name>Trackpoint 7817</name>
            </trkpt>
            <trkpt lat="50.0084352" lon="8.4242048">
                <ele>89.0</ele>
                <time>2020-08-30T15:01:04.000Z</time>
                <name>Trackpoint 7818</name>
            </trkpt>
            <trkpt lat="50.0083808" lon="8.4241112">
                <ele>89.0</ele>
                <time>2020-08-30T15:01:06.000Z</time>
                <name>Trackpoint 7819</name>
            </trkpt>
            <trkpt lat="50.00832" lon="8.4240248">
                <ele>89.0</ele>
                <time>2020-08-30T15:01:08.000Z</time>
                <name>Trackpoint 7820</name>
            </trkpt>
            <trkpt lat="50.0082592" lon="8.4239432">
                <ele>89.0</ele>
                <time>2020-08-30T15:01:10.000Z</time>
                <name>Trackpoint 7821</name>
            </trkpt>
            <trkpt lat="50.0081888" lon="8.4238456">
                <ele>89.0</ele>
                <time>2020-08-30T15:01:12.000Z</time>
                <name>Trackpoint 7822</name>
            </trkpt>
            <trkpt lat="50.0081184" lon="8.4237384">
                <ele>89.0</ele>
                <time>2020-08-30T15:01:14.000Z</time>
                <name>Trackpoint 7823</name>
            </trkpt>
            <trkpt lat="50.008048" lon="8.4236336">
                <ele>88.0</ele>
                <time>2020-08-30T15:01:16.000Z</time>
                <name>Trackpoint 7824</name>
            </trkpt>
            <trkpt lat="50.0079776" lon="8.42352">
                <ele>89.0</ele>
                <time>2020-08-30T15:01:18.000Z</time>
                <name>Trackpoint 7825</name>
            </trkpt>
            <trkpt lat="50.0079104" lon="8.4234088">
                <ele>89.0</ele>
                <time>2020-08-30T15:01:20.000Z</time>
                <name>Trackpoint 7826</name>
            </trkpt>
            <trkpt lat="50.0078464" lon="8.4233152">
                <ele>89.0</ele>
                <time>2020-08-30T15:01:22.000Z</time>
                <name>Trackpoint 7827</name>
            </trkpt>
            <trkpt lat="50.0077696" lon="8.42322">
                <ele>88.0</ele>
                <time>2020-08-30T15:01:24.000Z</time>
                <name>Trackpoint 7828</name>
            </trkpt>
            <trkpt lat="50.0077056" lon="8.4231128">
                <ele>89.0</ele>
                <time>2020-08-30T15:01:26.000Z</time>
                <name>Trackpoint 7829</name>
            </trkpt>
            <trkpt lat="50.0076384" lon="8.4230232">
                <ele>89.0</ele>
                <time>2020-08-30T15:01:28.000Z</time>
                <name>Trackpoint 7830</name>
            </trkpt>
            <trkpt lat="50.007568" lon="8.4229224">
                <ele>89.0</ele>
                <time>2020-08-30T15:01:30.000Z</time>
                <name>Trackpoint 7831</name>
            </trkpt>
            <trkpt lat="50.007504" lon="8.4228248">
                <ele>89.0</ele>
                <time>2020-08-30T15:01:32.000Z</time>
                <name>Trackpoint 7832</name>
            </trkpt>
            <trkpt lat="50.0074496" lon="8.4227264">
                <ele>89.0</ele>
                <time>2020-08-30T15:01:34.000Z</time>
                <name>Trackpoint 7833</name>
            </trkpt>
            <trkpt lat="50.0073888" lon="8.4226328">
                <ele>89.0</ele>
                <time>2020-08-30T15:01:36.000Z</time>
                <name>Trackpoint 7834</name>
            </trkpt>
            <trkpt lat="50.0073152" lon="8.4225456">
                <ele>89.0</ele>
                <time>2020-08-30T15:01:38.000Z</time>
                <name>Trackpoint 7835</name>
            </trkpt>
            <trkpt lat="50.0072448" lon="8.4224416">
                <ele>89.0</ele>
                <time>2020-08-30T15:01:40.000Z</time>
                <name>Trackpoint 7836</name>
            </trkpt>
            <trkpt lat="50.0071712" lon="8.4223416">
                <ele>88.0</ele>
                <time>2020-08-30T15:01:42.000Z</time>
                <name>Trackpoint 7837</name>
            </trkpt>
            <trkpt lat="50.007104" lon="8.4222368">
                <ele>89.0</ele>
                <time>2020-08-30T15:01:44.000Z</time>
                <name>Trackpoint 7838</name>
            </trkpt>
            <trkpt lat="50.0070304" lon="8.4221336">
                <ele>89.0</ele>
                <time>2020-08-30T15:01:46.000Z</time>
                <name>Trackpoint 7839</name>
            </trkpt>
            <trkpt lat="50.0069504" lon="8.4220288">
                <ele>89.0</ele>
                <time>2020-08-30T15:01:48.000Z</time>
                <name>Trackpoint 7840</name>
            </trkpt>
            <trkpt lat="50.0068704" lon="8.4219168">
                <ele>89.0</ele>
                <time>2020-08-30T15:01:50.000Z</time>
                <name>Trackpoint 7841</name>
            </trkpt>
            <trkpt lat="50.0067936" lon="8.4217984">
                <ele>89.0</ele>
                <time>2020-08-30T15:01:52.000Z</time>
                <name>Trackpoint 7842</name>
            </trkpt>
            <trkpt lat="50.0067104" lon="8.4216768">
                <ele>88.0</ele>
                <time>2020-08-30T15:01:54.000Z</time>
                <name>Trackpoint 7843</name>
            </trkpt>
            <trkpt lat="50.0066272" lon="8.4215616">
                <ele>89.0</ele>
                <time>2020-08-30T15:01:56.000Z</time>
                <name>Trackpoint 7844</name>
            </trkpt>
            <trkpt lat="50.0065472" lon="8.4214536">
                <ele>89.0</ele>
                <time>2020-08-30T15:01:58.000Z</time>
                <name>Trackpoint 7845</name>
            </trkpt>
            <trkpt lat="50.0064736" lon="8.4213552">
                <ele>89.0</ele>
                <time>2020-08-30T15:02:00.000Z</time>
                <name>Trackpoint 7846</name>
            </trkpt>
            <trkpt lat="50.0064064" lon="8.4212552">
                <ele>89.0</ele>
                <time>2020-08-30T15:02:02.000Z</time>
                <name>Trackpoint 7847</name>
            </trkpt>
            <trkpt lat="50.0063392" lon="8.4211568">
                <ele>89.0</ele>
                <time>2020-08-30T15:02:04.000Z</time>
                <name>Trackpoint 7848</name>
            </trkpt>
            <trkpt lat="50.006272" lon="8.4210632">
                <ele>89.0</ele>
                <time>2020-08-30T15:02:06.000Z</time>
                <name>Trackpoint 7849</name>
            </trkpt>
            <trkpt lat="50.0061952" lon="8.4209744">
                <ele>89.0</ele>
                <time>2020-08-30T15:02:08.000Z</time>
                <name>Trackpoint 7850</name>
            </trkpt>
            <trkpt lat="50.0061312" lon="8.4208816">
                <ele>89.0</ele>
                <time>2020-08-30T15:02:10.000Z</time>
                <name>Trackpoint 7851</name>
            </trkpt>
            <trkpt lat="50.00608" lon="8.4207952">
                <ele>89.0</ele>
                <time>2020-08-30T15:02:12.000Z</time>
                <name>Trackpoint 7852</name>
            </trkpt>
            <trkpt lat="50.006016" lon="8.4207296">
                <ele>88.0</ele>
                <time>2020-08-30T15:02:15.000Z</time>
                <name>Trackpoint 7853</name>
            </trkpt>
            <trkpt lat="50.0059424" lon="8.4206712">
                <ele>88.0</ele>
                <time>2020-08-30T15:02:19.000Z</time>
                <name>Trackpoint 7854</name>
            </trkpt>
            <trkpt lat="50.0058912" lon="8.4205848">
                <ele>88.0</ele>
                <time>2020-08-30T15:02:22.000Z</time>
                <name>Trackpoint 7855</name>
            </trkpt>
            <trkpt lat="50.0058528" lon="8.4204952">
                <ele>88.0</ele>
                <time>2020-08-30T15:02:25.000Z</time>
                <name>Trackpoint 7856</name>
            </trkpt>
            <trkpt lat="50.0057728" lon="8.4204">
                <ele>88.0</ele>
                <time>2020-08-30T15:02:29.000Z</time>
                <name>Trackpoint 7857</name>
            </trkpt>
            <trkpt lat="50.0056864" lon="8.4203064">
                <ele>88.0</ele>
                <time>2020-08-30T15:02:32.000Z</time>
                <name>Trackpoint 7858</name>
            </trkpt>
            <trkpt lat="50.0056128" lon="8.4202232">
                <ele>88.0</ele>
                <time>2020-08-30T15:02:34.000Z</time>
                <name>Trackpoint 7859</name>
            </trkpt>
            <trkpt lat="50.0055168" lon="8.4201032">
                <ele>88.0</ele>
                <time>2020-08-30T15:02:36.000Z</time>
                <name>Trackpoint 7860</name>
            </trkpt>
            <trkpt lat="50.0054368" lon="8.4200048">
                <ele>88.0</ele>
                <time>2020-08-30T15:02:38.000Z</time>
                <name>Trackpoint 7861</name>
            </trkpt>
            <trkpt lat="50.0053472" lon="8.41992">
                <ele>88.0</ele>
                <time>2020-08-30T15:02:40.000Z</time>
                <name>Trackpoint 7862</name>
            </trkpt>
            <trkpt lat="50.0052608" lon="8.4198168">
                <ele>88.0</ele>
                <time>2020-08-30T15:02:42.000Z</time>
                <name>Trackpoint 7863</name>
            </trkpt>
            <trkpt lat="50.0051808" lon="8.4196864">
                <ele>88.0</ele>
                <time>2020-08-30T15:02:44.000Z</time>
                <name>Trackpoint 7864</name>
            </trkpt>
            <trkpt lat="50.0051104" lon="8.4195568">
                <ele>88.0</ele>
                <time>2020-08-30T15:02:46.000Z</time>
                <name>Trackpoint 7865</name>
            </trkpt>
            <trkpt lat="50.00504" lon="8.4194344">
                <ele>88.0</ele>
                <time>2020-08-30T15:02:48.000Z</time>
                <name>Trackpoint 7866</name>
            </trkpt>
            <trkpt lat="50.00496" lon="8.4193264">
                <ele>88.0</ele>
                <time>2020-08-30T15:02:50.000Z</time>
                <name>Trackpoint 7867</name>
            </trkpt>
            <trkpt lat="50.0048704" lon="8.4192312">
                <ele>88.0</ele>
                <time>2020-08-30T15:02:52.000Z</time>
                <name>Trackpoint 7868</name>
            </trkpt>
            <trkpt lat="50.0047904" lon="8.4191368">
                <ele>88.0</ele>
                <time>2020-08-30T15:02:54.000Z</time>
                <name>Trackpoint 7869</name>
            </trkpt>
            <trkpt lat="50.004704" lon="8.4190416">
                <ele>88.0</ele>
                <time>2020-08-30T15:02:56.000Z</time>
                <name>Trackpoint 7870</name>
            </trkpt>
            <trkpt lat="50.0046272" lon="8.4189392">
                <ele>88.0</ele>
                <time>2020-08-30T15:02:58.000Z</time>
                <name>Trackpoint 7871</name>
            </trkpt>
            <trkpt lat="50.0045472" lon="8.4188448">
                <ele>88.0</ele>
                <time>2020-08-30T15:03:00.000Z</time>
                <name>Trackpoint 7872</name>
            </trkpt>
            <trkpt lat="50.004464" lon="8.4187536">
                <ele>88.0</ele>
                <time>2020-08-30T15:03:02.000Z</time>
                <name>Trackpoint 7873</name>
            </trkpt>
            <trkpt lat="50.0043808" lon="8.4186632">
                <ele>88.0</ele>
                <time>2020-08-30T15:03:04.000Z</time>
                <name>Trackpoint 7874</name>
            </trkpt>
            <trkpt lat="50.0042976" lon="8.4185696">
                <ele>88.0</ele>
                <time>2020-08-30T15:03:06.000Z</time>
                <name>Trackpoint 7875</name>
            </trkpt>
            <trkpt lat="50.0042144" lon="8.4184768">
                <ele>88.0</ele>
                <time>2020-08-30T15:03:08.000Z</time>
                <name>Trackpoint 7876</name>
            </trkpt>
            <trkpt lat="50.0041376" lon="8.4183864">
                <ele>88.0</ele>
                <time>2020-08-30T15:03:10.000Z</time>
                <name>Trackpoint 7877</name>
            </trkpt>
            <trkpt lat="50.0040576" lon="8.4182952">
                <ele>88.0</ele>
                <time>2020-08-30T15:03:12.000Z</time>
                <name>Trackpoint 7878</name>
            </trkpt>
            <trkpt lat="50.003984" lon="8.4182064">
                <ele>88.0</ele>
                <time>2020-08-30T15:03:14.000Z</time>
                <name>Trackpoint 7879</name>
            </trkpt>
            <trkpt lat="50.0039104" lon="8.4181216">
                <ele>88.0</ele>
                <time>2020-08-30T15:03:16.000Z</time>
                <name>Trackpoint 7880</name>
            </trkpt>
            <trkpt lat="50.00384" lon="8.4180384">
                <ele>88.0</ele>
                <time>2020-08-30T15:03:18.000Z</time>
                <name>Trackpoint 7881</name>
            </trkpt>
            <trkpt lat="50.0037728" lon="8.417956">
                <ele>88.0</ele>
                <time>2020-08-30T15:03:20.000Z</time>
                <name>Trackpoint 7882</name>
            </trkpt>
            <trkpt lat="50.003696" lon="8.417876">
                <ele>88.0</ele>
                <time>2020-08-30T15:03:22.000Z</time>
                <name>Trackpoint 7883</name>
            </trkpt>
            <trkpt lat="50.0036096" lon="8.4178064">
                <ele>88.0</ele>
                <time>2020-08-30T15:03:24.000Z</time>
                <name>Trackpoint 7884</name>
            </trkpt>
            <trkpt lat="50.0035488" lon="8.4177152">
                <ele>88.0</ele>
                <time>2020-08-30T15:03:26.000Z</time>
                <name>Trackpoint 7885</name>
            </trkpt>
            <trkpt lat="50.0034816" lon="8.4176064">
                <ele>88.0</ele>
                <time>2020-08-30T15:03:28.000Z</time>
                <name>Trackpoint 7886</name>
            </trkpt>
            <trkpt lat="50.0034176" lon="8.4174992">
                <ele>89.0</ele>
                <time>2020-08-30T15:03:30.000Z</time>
                <name>Trackpoint 7887</name>
            </trkpt>
            <trkpt lat="50.003344" lon="8.4174">
                <ele>89.0</ele>
                <time>2020-08-30T15:03:32.000Z</time>
                <name>Trackpoint 7888</name>
            </trkpt>
            <trkpt lat="50.0032704" lon="8.4173144">
                <ele>89.0</ele>
                <time>2020-08-30T15:03:34.000Z</time>
                <name>Trackpoint 7889</name>
            </trkpt>
            <trkpt lat="50.0031968" lon="8.4172032">
                <ele>89.0</ele>
                <time>2020-08-30T15:03:36.000Z</time>
                <name>Trackpoint 7890</name>
            </trkpt>
            <trkpt lat="50.0031328" lon="8.4170952">
                <ele>89.0</ele>
                <time>2020-08-30T15:03:38.000Z</time>
                <name>Trackpoint 7891</name>
            </trkpt>
            <trkpt lat="50.0030656" lon="8.4169704">
                <ele>89.0</ele>
                <time>2020-08-30T15:03:40.000Z</time>
                <name>Trackpoint 7892</name>
            </trkpt>
            <trkpt lat="50.0030048" lon="8.4168616">
                <ele>89.0</ele>
                <time>2020-08-30T15:03:42.000Z</time>
                <name>Trackpoint 7893</name>
            </trkpt>
            <trkpt lat="50.0029376" lon="8.4167584">
                <ele>89.0</ele>
                <time>2020-08-30T15:03:44.000Z</time>
                <name>Trackpoint 7894</name>
            </trkpt>
            <trkpt lat="50.0028768" lon="8.4166672">
                <ele>89.0</ele>
                <time>2020-08-30T15:03:46.000Z</time>
                <name>Trackpoint 7895</name>
            </trkpt>
            <trkpt lat="50.0028" lon="8.4165736">
                <ele>89.0</ele>
                <time>2020-08-30T15:03:48.000Z</time>
                <name>Trackpoint 7896</name>
            </trkpt>
            <trkpt lat="50.0027328" lon="8.4164752">
                <ele>89.0</ele>
                <time>2020-08-30T15:03:50.000Z</time>
                <name>Trackpoint 7897</name>
            </trkpt>
            <trkpt lat="50.0026656" lon="8.4163664">
                <ele>89.0</ele>
                <time>2020-08-30T15:03:52.000Z</time>
                <name>Trackpoint 7898</name>
            </trkpt>
            <trkpt lat="50.0025984" lon="8.4162632">
                <ele>89.0</ele>
                <time>2020-08-30T15:03:54.000Z</time>
                <name>Trackpoint 7899</name>
            </trkpt>
            <trkpt lat="50.0025376" lon="8.416172">
                <ele>88.0</ele>
                <time>2020-08-30T15:03:56.000Z</time>
                <name>Trackpoint 7900</name>
            </trkpt>
            <trkpt lat="50.0024768" lon="8.4160856">
                <ele>88.0</ele>
                <time>2020-08-30T15:03:58.000Z</time>
                <name>Trackpoint 7901</name>
            </trkpt>
            <trkpt lat="50.0024192" lon="8.4160016">
                <ele>88.0</ele>
                <time>2020-08-30T15:04:00.000Z</time>
                <name>Trackpoint 7902</name>
            </trkpt>
            <trkpt lat="50.0023552" lon="8.4159248">
                <ele>88.0</ele>
                <time>2020-08-30T15:04:02.000Z</time>
                <name>Trackpoint 7903</name>
            </trkpt>
            <trkpt lat="50.002288" lon="8.4158448">
                <ele>88.0</ele>
                <time>2020-08-30T15:04:04.000Z</time>
                <name>Trackpoint 7904</name>
            </trkpt>
            <trkpt lat="50.0022368" lon="8.4157512">
                <ele>88.0</ele>
                <time>2020-08-30T15:04:06.000Z</time>
                <name>Trackpoint 7905</name>
            </trkpt>
            <trkpt lat="50.0021856" lon="8.41566">
                <ele>89.0</ele>
                <time>2020-08-30T15:04:08.000Z</time>
                <name>Trackpoint 7906</name>
            </trkpt>
            <trkpt lat="50.002128" lon="8.41556">
                <ele>89.0</ele>
                <time>2020-08-30T15:04:10.000Z</time>
                <name>Trackpoint 7907</name>
            </trkpt>
            <trkpt lat="50.0021184" lon="8.4154432">
                <ele>89.0</ele>
                <time>2020-08-30T15:04:12.000Z</time>
                <name>Trackpoint 7908</name>
            </trkpt>
            <trkpt lat="50.0021664" lon="8.4153496">
                <ele>90.0</ele>
                <time>2020-08-30T15:04:14.000Z</time>
                <name>Trackpoint 7909</name>
            </trkpt>
            <trkpt lat="50.0022496" lon="8.4152744">
                <ele>90.0</ele>
                <time>2020-08-30T15:04:16.000Z</time>
                <name>Trackpoint 7910</name>
            </trkpt>
            <trkpt lat="50.0023456" lon="8.4152072">
                <ele>91.0</ele>
                <time>2020-08-30T15:04:18.000Z</time>
                <name>Trackpoint 7911</name>
            </trkpt>
            <trkpt lat="50.0024416" lon="8.4151232">
                <ele>92.0</ele>
                <time>2020-08-30T15:04:20.000Z</time>
                <name>Trackpoint 7912</name>
            </trkpt>
            <trkpt lat="50.0025376" lon="8.4150496">
                <ele>93.0</ele>
                <time>2020-08-30T15:04:22.000Z</time>
                <name>Trackpoint 7913</name>
            </trkpt>
            <trkpt lat="50.0026432" lon="8.4149712">
                <ele>95.0</ele>
                <time>2020-08-30T15:04:24.000Z</time>
                <name>Trackpoint 7914</name>
            </trkpt>
            <trkpt lat="50.0027552" lon="8.4148768">
                <ele>95.0</ele>
                <time>2020-08-30T15:04:26.000Z</time>
                <name>Trackpoint 7915</name>
            </trkpt>
            <trkpt lat="50.002864" lon="8.4147832">
                <ele>95.0</ele>
                <time>2020-08-30T15:04:28.000Z</time>
                <name>Trackpoint 7916</name>
            </trkpt>
            <trkpt lat="50.0029728" lon="8.4147056">
                <ele>95.0</ele>
                <time>2020-08-30T15:04:30.000Z</time>
                <name>Trackpoint 7917</name>
            </trkpt>
            <trkpt lat="50.0030784" lon="8.4146336">
                <ele>96.0</ele>
                <time>2020-08-30T15:04:32.000Z</time>
                <name>Trackpoint 7918</name>
            </trkpt>
            <trkpt lat="50.0031968" lon="8.4145472">
                <ele>96.0</ele>
                <time>2020-08-30T15:04:34.000Z</time>
                <name>Trackpoint 7919</name>
            </trkpt>
            <trkpt lat="50.0033024" lon="8.4144648">
                <ele>96.0</ele>
                <time>2020-08-30T15:04:36.000Z</time>
                <name>Trackpoint 7920</name>
            </trkpt>
            <trkpt lat="50.0034176" lon="8.4143832">
                <ele>97.0</ele>
                <time>2020-08-30T15:04:38.000Z</time>
                <name>Trackpoint 7921</name>
            </trkpt>
            <trkpt lat="50.0035232" lon="8.4143">
                <ele>97.0</ele>
                <time>2020-08-30T15:04:40.000Z</time>
                <name>Trackpoint 7922</name>
            </trkpt>
            <trkpt lat="50.0036416" lon="8.4142112">
                <ele>97.0</ele>
                <time>2020-08-30T15:04:42.000Z</time>
                <name>Trackpoint 7923</name>
            </trkpt>
            <trkpt lat="50.0037536" lon="8.41412">
                <ele>98.0</ele>
                <time>2020-08-30T15:04:44.000Z</time>
                <name>Trackpoint 7924</name>
            </trkpt>
            <trkpt lat="50.003872" lon="8.4140328">
                <ele>99.0</ele>
                <time>2020-08-30T15:04:46.000Z</time>
                <name>Trackpoint 7925</name>
            </trkpt>
            <trkpt lat="50.003984" lon="8.4139432">
                <ele>99.0</ele>
                <time>2020-08-30T15:04:48.000Z</time>
                <name>Trackpoint 7926</name>
            </trkpt>
            <trkpt lat="50.0040896" lon="8.4138496">
                <ele>99.0</ele>
                <time>2020-08-30T15:04:50.000Z</time>
                <name>Trackpoint 7927</name>
            </trkpt>
            <trkpt lat="50.004192" lon="8.4137736">
                <ele>99.0</ele>
                <time>2020-08-30T15:04:52.000Z</time>
                <name>Trackpoint 7928</name>
            </trkpt>
            <trkpt lat="50.0042848" lon="8.4137024">
                <ele>98.0</ele>
                <time>2020-08-30T15:04:54.000Z</time>
                <name>Trackpoint 7929</name>
            </trkpt>
            <trkpt lat="50.0043712" lon="8.413624">
                <ele>98.0</ele>
                <time>2020-08-30T15:04:56.000Z</time>
                <name>Trackpoint 7930</name>
            </trkpt>
            <trkpt lat="50.00448" lon="8.4135504">
                <ele>98.0</ele>
                <time>2020-08-30T15:04:58.000Z</time>
                <name>Trackpoint 7931</name>
            </trkpt>
            <trkpt lat="50.0045792" lon="8.4134976">
                <ele>97.0</ele>
                <time>2020-08-30T15:05:00.000Z</time>
                <name>Trackpoint 7932</name>
            </trkpt>
            <trkpt lat="50.0047008" lon="8.4134216">
                <ele>97.0</ele>
                <time>2020-08-30T15:05:03.000Z</time>
                <name>Trackpoint 7933</name>
            </trkpt>
            <trkpt lat="50.0047584" lon="8.413328">
                <ele>97.0</ele>
                <time>2020-08-30T15:05:05.000Z</time>
                <name>Trackpoint 7934</name>
            </trkpt>
            <trkpt lat="50.004768" lon="8.4132032">
                <ele>97.0</ele>
                <time>2020-08-30T15:05:07.000Z</time>
                <name>Trackpoint 7935</name>
            </trkpt>
            <trkpt lat="50.0047456" lon="8.413092">
                <ele>96.0</ele>
                <time>2020-08-30T15:05:09.000Z</time>
                <name>Trackpoint 7936</name>
            </trkpt>
            <trkpt lat="50.0047008" lon="8.4129712">
                <ele>96.0</ele>
                <time>2020-08-30T15:05:12.000Z</time>
                <name>Trackpoint 7937</name>
            </trkpt>
            <trkpt lat="50.0047648" lon="8.4128912">
                <ele>95.0</ele>
                <time>2020-08-30T15:05:16.000Z</time>
                <name>Trackpoint 7938</name>
            </trkpt>
            <trkpt lat="50.0048736" lon="8.41282">
                <ele>95.0</ele>
                <time>2020-08-30T15:05:19.000Z</time>
                <name>Trackpoint 7939</name>
            </trkpt>
            <trkpt lat="50.0049728" lon="8.4127704">
                <ele>95.0</ele>
                <time>2020-08-30T15:05:21.000Z</time>
                <name>Trackpoint 7940</name>
            </trkpt>
            <trkpt lat="50.0050592" lon="8.4127184">
                <ele>95.0</ele>
                <time>2020-08-30T15:05:23.000Z</time>
                <name>Trackpoint 7941</name>
            </trkpt>
            <trkpt lat="50.0051712" lon="8.4126632">
                <ele>94.0</ele>
                <time>2020-08-30T15:05:26.000Z</time>
                <name>Trackpoint 7942</name>
            </trkpt>
            <trkpt lat="50.0052448" lon="8.4126032">
                <ele>94.0</ele>
                <time>2020-08-30T15:05:28.000Z</time>
                <name>Trackpoint 7943</name>
            </trkpt>
            <trkpt lat="50.0052608" lon="8.412472">
                <ele>94.0</ele>
                <time>2020-08-30T15:05:31.000Z</time>
                <name>Trackpoint 7944</name>
            </trkpt>
            <trkpt lat="50.0052096" lon="8.4123632">
                <ele>94.0</ele>
                <time>2020-08-30T15:05:33.000Z</time>
                <name>Trackpoint 7945</name>
            </trkpt>
            <trkpt lat="50.0051456" lon="8.4122232">
                <ele>95.0</ele>
                <time>2020-08-30T15:05:35.000Z</time>
                <name>Trackpoint 7946</name>
            </trkpt>
            <trkpt lat="50.005072" lon="8.4120664">
                <ele>94.0</ele>
                <time>2020-08-30T15:05:37.000Z</time>
                <name>Trackpoint 7947</name>
            </trkpt>
            <trkpt lat="50.0050048" lon="8.4118992">
                <ele>94.0</ele>
                <time>2020-08-30T15:05:39.000Z</time>
                <name>Trackpoint 7948</name>
            </trkpt>
            <trkpt lat="50.0049792" lon="8.4118096">
                <ele>94.0</ele>
                <time>2020-08-30T15:05:40.000Z</time>
                <name>Trackpoint 7949</name>
            </trkpt>
            <trkpt lat="50.0049504" lon="8.4117168">
                <ele>94.0</ele>
                <time>2020-08-30T15:05:41.000Z</time>
                <name>Trackpoint 7950</name>
            </trkpt>
            <trkpt lat="50.0049216" lon="8.41162">
                <ele>94.0</ele>
                <time>2020-08-30T15:05:42.000Z</time>
                <name>Trackpoint 7951</name>
            </trkpt>
            <trkpt lat="50.0048896" lon="8.4115264">
                <ele>94.0</ele>
                <time>2020-08-30T15:05:43.000Z</time>
                <name>Trackpoint 7952</name>
            </trkpt>
            <trkpt lat="50.0048576" lon="8.4114336">
                <ele>94.0</ele>
                <time>2020-08-30T15:05:44.000Z</time>
                <name>Trackpoint 7953</name>
            </trkpt>
            <trkpt lat="50.0048192" lon="8.4113416">
                <ele>93.0</ele>
                <time>2020-08-30T15:05:45.000Z</time>
                <name>Trackpoint 7954</name>
            </trkpt>
            <trkpt lat="50.0047808" lon="8.4112504">
                <ele>93.0</ele>
                <time>2020-08-30T15:05:46.000Z</time>
                <name>Trackpoint 7955</name>
            </trkpt>
            <trkpt lat="50.0047424" lon="8.4111584">
                <ele>94.0</ele>
                <time>2020-08-30T15:05:47.000Z</time>
                <name>Trackpoint 7956</name>
            </trkpt>
            <trkpt lat="50.0047072" lon="8.41106">
                <ele>94.0</ele>
                <time>2020-08-30T15:05:48.000Z</time>
                <name>Trackpoint 7957</name>
            </trkpt>
            <trkpt lat="50.0046688" lon="8.4109624">
                <ele>94.0</ele>
                <time>2020-08-30T15:05:49.000Z</time>
                <name>Trackpoint 7958</name>
            </trkpt>
            <trkpt lat="50.0046336" lon="8.41086">
                <ele>93.0</ele>
                <time>2020-08-30T15:05:50.000Z</time>
                <name>Trackpoint 7959</name>
            </trkpt>
            <trkpt lat="50.0046048" lon="8.4107584">
                <ele>93.0</ele>
                <time>2020-08-30T15:05:51.000Z</time>
                <name>Trackpoint 7960</name>
            </trkpt>
            <trkpt lat="50.0045664" lon="8.4106568">
                <ele>93.0</ele>
                <time>2020-08-30T15:05:52.000Z</time>
                <name>Trackpoint 7961</name>
            </trkpt>
            <trkpt lat="50.0045312" lon="8.4105584">
                <ele>93.0</ele>
                <time>2020-08-30T15:05:53.000Z</time>
                <name>Trackpoint 7962</name>
            </trkpt>
            <trkpt lat="50.0044928" lon="8.4104568">
                <ele>94.0</ele>
                <time>2020-08-30T15:05:54.000Z</time>
                <name>Trackpoint 7963</name>
            </trkpt>
            <trkpt lat="50.0044544" lon="8.41036">
                <ele>94.0</ele>
                <time>2020-08-30T15:05:55.000Z</time>
                <name>Trackpoint 7964</name>
            </trkpt>
            <trkpt lat="50.0044224" lon="8.4102632">
                <ele>94.0</ele>
                <time>2020-08-30T15:05:56.000Z</time>
                <name>Trackpoint 7965</name>
            </trkpt>
            <trkpt lat="50.0043872" lon="8.4101688">
                <ele>94.0</ele>
                <time>2020-08-30T15:05:57.000Z</time>
                <name>Trackpoint 7966</name>
            </trkpt>
            <trkpt lat="50.0043616" lon="8.4100664">
                <ele>94.0</ele>
                <time>2020-08-30T15:05:58.000Z</time>
                <name>Trackpoint 7967</name>
            </trkpt>
            <trkpt lat="50.004336" lon="8.409964">
                <ele>94.0</ele>
                <time>2020-08-30T15:05:59.000Z</time>
                <name>Trackpoint 7968</name>
            </trkpt>
            <trkpt lat="50.0043136" lon="8.4098568">
                <ele>94.0</ele>
                <time>2020-08-30T15:06:00.000Z</time>
                <name>Trackpoint 7969</name>
            </trkpt>
            <trkpt lat="50.0042912" lon="8.409748">
                <ele>94.0</ele>
                <time>2020-08-30T15:06:01.000Z</time>
                <name>Trackpoint 7970</name>
            </trkpt>
            <trkpt lat="50.0042656" lon="8.4096416">
                <ele>94.0</ele>
                <time>2020-08-30T15:06:02.000Z</time>
                <name>Trackpoint 7971</name>
            </trkpt>
            <trkpt lat="50.0042432" lon="8.4095312">
                <ele>94.0</ele>
                <time>2020-08-30T15:06:03.000Z</time>
                <name>Trackpoint 7972</name>
            </trkpt>
            <trkpt lat="50.0042144" lon="8.4094264">
                <ele>94.0</ele>
                <time>2020-08-30T15:06:04.000Z</time>
                <name>Trackpoint 7973</name>
            </trkpt>
            <trkpt lat="50.0041888" lon="8.409324">
                <ele>94.0</ele>
                <time>2020-08-30T15:06:05.000Z</time>
                <name>Trackpoint 7974</name>
            </trkpt>
            <trkpt lat="50.0041568" lon="8.4092216">
                <ele>94.0</ele>
                <time>2020-08-30T15:06:06.000Z</time>
                <name>Trackpoint 7975</name>
            </trkpt>
            <trkpt lat="50.0041184" lon="8.4091256">
                <ele>94.0</ele>
                <time>2020-08-30T15:06:07.000Z</time>
                <name>Trackpoint 7976</name>
            </trkpt>
            <trkpt lat="50.0040832" lon="8.4090344">
                <ele>94.0</ele>
                <time>2020-08-30T15:06:08.000Z</time>
                <name>Trackpoint 7977</name>
            </trkpt>
            <trkpt lat="50.0040384" lon="8.4089472">
                <ele>94.0</ele>
                <time>2020-08-30T15:06:09.000Z</time>
                <name>Trackpoint 7978</name>
            </trkpt>
            <trkpt lat="50.0039744" lon="8.4087888">
                <ele>94.0</ele>
                <time>2020-08-30T15:06:11.000Z</time>
                <name>Trackpoint 7979</name>
            </trkpt>
            <trkpt lat="50.0039936" lon="8.4086568">
                <ele>94.0</ele>
                <time>2020-08-30T15:06:13.000Z</time>
                <name>Trackpoint 7980</name>
            </trkpt>
            <trkpt lat="50.0040928" lon="8.4085952">
                <ele>94.0</ele>
                <time>2020-08-30T15:06:15.000Z</time>
                <name>Trackpoint 7981</name>
            </trkpt>
            <trkpt lat="50.0042112" lon="8.4085376">
                <ele>94.0</ele>
                <time>2020-08-30T15:06:17.000Z</time>
                <name>Trackpoint 7982</name>
            </trkpt>
            <trkpt lat="50.004336" lon="8.40848">
                <ele>94.0</ele>
                <time>2020-08-30T15:06:19.000Z</time>
                <name>Trackpoint 7983</name>
            </trkpt>
            <trkpt lat="50.0044512" lon="8.4084032">
                <ele>94.0</ele>
                <time>2020-08-30T15:06:21.000Z</time>
                <name>Trackpoint 7984</name>
            </trkpt>
            <trkpt lat="50.00456" lon="8.408332">
                <ele>94.0</ele>
                <time>2020-08-30T15:06:23.000Z</time>
                <name>Trackpoint 7985</name>
            </trkpt>
            <trkpt lat="50.0046656" lon="8.4082696">
                <ele>93.0</ele>
                <time>2020-08-30T15:06:25.000Z</time>
                <name>Trackpoint 7986</name>
            </trkpt>
            <trkpt lat="50.0047488" lon="8.4081784">
                <ele>93.0</ele>
                <time>2020-08-30T15:06:27.000Z</time>
                <name>Trackpoint 7987</name>
            </trkpt>
            <trkpt lat="50.0047392" lon="8.4080336">
                <ele>93.0</ele>
                <time>2020-08-30T15:06:29.000Z</time>
                <name>Trackpoint 7988</name>
            </trkpt>
            <trkpt lat="50.0047296" lon="8.407884">
                <ele>93.0</ele>
                <time>2020-08-30T15:06:31.000Z</time>
                <name>Trackpoint 7989</name>
            </trkpt>
            <trkpt lat="50.0048064" lon="8.4077952">
                <ele>93.0</ele>
                <time>2020-08-30T15:06:33.000Z</time>
                <name>Trackpoint 7990</name>
            </trkpt>
            <trkpt lat="50.0049088" lon="8.407732">
                <ele>93.0</ele>
                <time>2020-08-30T15:06:35.000Z</time>
                <name>Trackpoint 7991</name>
            </trkpt>
            <trkpt lat="50.005024" lon="8.4076496">
                <ele>93.0</ele>
                <time>2020-08-30T15:06:37.000Z</time>
                <name>Trackpoint 7992</name>
            </trkpt>
            <trkpt lat="50.0051232" lon="8.4075472">
                <ele>93.0</ele>
                <time>2020-08-30T15:06:39.000Z</time>
                <name>Trackpoint 7993</name>
            </trkpt>
            <trkpt lat="50.0052288" lon="8.4074488">
                <ele>93.0</ele>
                <time>2020-08-30T15:06:41.000Z</time>
                <name>Trackpoint 7994</name>
            </trkpt>
            <trkpt lat="50.005328" lon="8.4073352">
                <ele>93.0</ele>
                <time>2020-08-30T15:06:43.000Z</time>
                <name>Trackpoint 7995</name>
            </trkpt>
            <trkpt lat="50.0054272" lon="8.4072304">
                <ele>93.0</ele>
                <time>2020-08-30T15:06:45.000Z</time>
                <name>Trackpoint 7996</name>
            </trkpt>
            <trkpt lat="50.0055136" lon="8.4071128">
                <ele>93.0</ele>
                <time>2020-08-30T15:06:47.000Z</time>
                <name>Trackpoint 7997</name>
            </trkpt>
            <trkpt lat="50.0055232" lon="8.4069336">
                <ele>93.0</ele>
                <time>2020-08-30T15:06:49.000Z</time>
                <name>Trackpoint 7998</name>
            </trkpt>
            <trkpt lat="50.0055136" lon="8.4068344">
                <ele>93.0</ele>
                <time>2020-08-30T15:06:50.000Z</time>
                <name>Trackpoint 7999</name>
            </trkpt>
            <trkpt lat="50.0055008" lon="8.4067336">
                <ele>93.0</ele>
                <time>2020-08-30T15:06:51.000Z</time>
                <name>Trackpoint 8000</name>
            </trkpt>
            <trkpt lat="50.0054848" lon="8.4066312">
                <ele>93.0</ele>
                <time>2020-08-30T15:06:52.000Z</time>
                <name>Trackpoint 8001</name>
            </trkpt>
            <trkpt lat="50.0054656" lon="8.4065336">
                <ele>93.0</ele>
                <time>2020-08-30T15:06:53.000Z</time>
                <name>Trackpoint 8002</name>
            </trkpt>
            <trkpt lat="50.0054528" lon="8.4064352">
                <ele>93.0</ele>
                <time>2020-08-30T15:06:54.000Z</time>
                <name>Trackpoint 8003</name>
            </trkpt>
            <trkpt lat="50.0054336" lon="8.4063328">
                <ele>93.0</ele>
                <time>2020-08-30T15:06:55.000Z</time>
                <name>Trackpoint 8004</name>
            </trkpt>
            <trkpt lat="50.0054144" lon="8.4062344">
                <ele>93.0</ele>
                <time>2020-08-30T15:06:56.000Z</time>
                <name>Trackpoint 8005</name>
            </trkpt>
            <trkpt lat="50.0053856" lon="8.40614">
                <ele>93.0</ele>
                <time>2020-08-30T15:06:57.000Z</time>
                <name>Trackpoint 8006</name>
            </trkpt>
            <trkpt lat="50.0053632" lon="8.4060472">
                <ele>93.0</ele>
                <time>2020-08-30T15:06:58.000Z</time>
                <name>Trackpoint 8007</name>
            </trkpt>
            <trkpt lat="50.0053344" lon="8.4059552">
                <ele>93.0</ele>
                <time>2020-08-30T15:06:59.000Z</time>
                <name>Trackpoint 8008</name>
            </trkpt>
            <trkpt lat="50.0053024" lon="8.4058688">
                <ele>93.0</ele>
                <time>2020-08-30T15:07:00.000Z</time>
                <name>Trackpoint 8009</name>
            </trkpt>
            <trkpt lat="50.0052704" lon="8.4057776">
                <ele>93.0</ele>
                <time>2020-08-30T15:07:01.000Z</time>
                <name>Trackpoint 8010</name>
            </trkpt>
            <trkpt lat="50.0052416" lon="8.405688">
                <ele>93.0</ele>
                <time>2020-08-30T15:07:02.000Z</time>
                <name>Trackpoint 8011</name>
            </trkpt>
            <trkpt lat="50.0052064" lon="8.4056016">
                <ele>93.0</ele>
                <time>2020-08-30T15:07:03.000Z</time>
                <name>Trackpoint 8012</name>
            </trkpt>
            <trkpt lat="50.0051712" lon="8.4055136">
                <ele>93.0</ele>
                <time>2020-08-30T15:07:04.000Z</time>
                <name>Trackpoint 8013</name>
            </trkpt>
            <trkpt lat="50.0051424" lon="8.4054248">
                <ele>93.0</ele>
                <time>2020-08-30T15:07:05.000Z</time>
                <name>Trackpoint 8014</name>
            </trkpt>
            <trkpt lat="50.0051104" lon="8.4053296">
                <ele>93.0</ele>
                <time>2020-08-30T15:07:06.000Z</time>
                <name>Trackpoint 8015</name>
            </trkpt>
            <trkpt lat="50.0050816" lon="8.4052352">
                <ele>93.0</ele>
                <time>2020-08-30T15:07:07.000Z</time>
                <name>Trackpoint 8016</name>
            </trkpt>
            <trkpt lat="50.0050592" lon="8.4051416">
                <ele>93.0</ele>
                <time>2020-08-30T15:07:08.000Z</time>
                <name>Trackpoint 8017</name>
            </trkpt>
            <trkpt lat="50.0050368" lon="8.4050448">
                <ele>93.0</ele>
                <time>2020-08-30T15:07:09.000Z</time>
                <name>Trackpoint 8018</name>
            </trkpt>
            <trkpt lat="50.0050112" lon="8.404948">
                <ele>93.0</ele>
                <time>2020-08-30T15:07:10.000Z</time>
                <name>Trackpoint 8019</name>
            </trkpt>
            <trkpt lat="50.0049888" lon="8.404852">
                <ele>93.0</ele>
                <time>2020-08-30T15:07:11.000Z</time>
                <name>Trackpoint 8020</name>
            </trkpt>
            <trkpt lat="50.0049664" lon="8.4047536">
                <ele>93.0</ele>
                <time>2020-08-30T15:07:12.000Z</time>
                <name>Trackpoint 8021</name>
            </trkpt>
            <trkpt lat="50.0049472" lon="8.4046536">
                <ele>93.0</ele>
                <time>2020-08-30T15:07:13.000Z</time>
                <name>Trackpoint 8022</name>
            </trkpt>
            <trkpt lat="50.004928" lon="8.4045512">
                <ele>93.0</ele>
                <time>2020-08-30T15:07:14.000Z</time>
                <name>Trackpoint 8023</name>
            </trkpt>
            <trkpt lat="50.0049088" lon="8.4044488">
                <ele>93.0</ele>
                <time>2020-08-30T15:07:15.000Z</time>
                <name>Trackpoint 8024</name>
            </trkpt>
            <trkpt lat="50.0048928" lon="8.4043464">
                <ele>93.0</ele>
                <time>2020-08-30T15:07:16.000Z</time>
                <name>Trackpoint 8025</name>
            </trkpt>
            <trkpt lat="50.0048832" lon="8.4042504">
                <ele>93.0</ele>
                <time>2020-08-30T15:07:17.000Z</time>
                <name>Trackpoint 8026</name>
            </trkpt>
            <trkpt lat="50.0048736" lon="8.4041544">
                <ele>93.0</ele>
                <time>2020-08-30T15:07:18.000Z</time>
                <name>Trackpoint 8027</name>
            </trkpt>
            <trkpt lat="50.004864" lon="8.4040568">
                <ele>93.0</ele>
                <time>2020-08-30T15:07:19.000Z</time>
                <name>Trackpoint 8028</name>
            </trkpt>
            <trkpt lat="50.0048512" lon="8.40396">
                <ele>93.0</ele>
                <time>2020-08-30T15:07:20.000Z</time>
                <name>Trackpoint 8029</name>
            </trkpt>
            <trkpt lat="50.0048384" lon="8.4038664">
                <ele>93.0</ele>
                <time>2020-08-30T15:07:21.000Z</time>
                <name>Trackpoint 8030</name>
            </trkpt>
            <trkpt lat="50.0048256" lon="8.4037712">
                <ele>93.0</ele>
                <time>2020-08-30T15:07:22.000Z</time>
                <name>Trackpoint 8031</name>
            </trkpt>
            <trkpt lat="50.0048096" lon="8.4036776">
                <ele>93.0</ele>
                <time>2020-08-30T15:07:23.000Z</time>
                <name>Trackpoint 8032</name>
            </trkpt>
            <trkpt lat="50.0047936" lon="8.4035864">
                <ele>93.0</ele>
                <time>2020-08-30T15:07:24.000Z</time>
                <name>Trackpoint 8033</name>
            </trkpt>
            <trkpt lat="50.0047808" lon="8.4034952">
                <ele>93.0</ele>
                <time>2020-08-30T15:07:25.000Z</time>
                <name>Trackpoint 8034</name>
            </trkpt>
            <trkpt lat="50.004752" lon="8.4033216">
                <ele>93.0</ele>
                <time>2020-08-30T15:07:27.000Z</time>
                <name>Trackpoint 8035</name>
            </trkpt>
            <trkpt lat="50.0047424" lon="8.4031584">
                <ele>93.0</ele>
                <time>2020-08-30T15:07:29.000Z</time>
                <name>Trackpoint 8036</name>
            </trkpt>
            <trkpt lat="50.0047328" lon="8.4029888">
                <ele>93.0</ele>
                <time>2020-08-30T15:07:31.000Z</time>
                <name>Trackpoint 8037</name>
            </trkpt>
            <trkpt lat="50.0047104" lon="8.402828">
                <ele>93.0</ele>
                <time>2020-08-30T15:07:33.000Z</time>
                <name>Trackpoint 8038</name>
            </trkpt>
            <trkpt lat="50.004688" lon="8.4026936">
                <ele>93.0</ele>
                <time>2020-08-30T15:07:35.000Z</time>
                <name>Trackpoint 8039</name>
            </trkpt>
            <trkpt lat="50.004608" lon="8.4026448">
                <ele>93.0</ele>
                <time>2020-08-30T15:07:37.000Z</time>
                <name>Trackpoint 8040</name>
            </trkpt>
            <trkpt lat="50.0045248" lon="8.402692">
                <ele>93.0</ele>
                <time>2020-08-30T15:07:39.000Z</time>
                <name>Trackpoint 8041</name>
            </trkpt>
            <trkpt lat="50.0044256" lon="8.402768">
                <ele>93.0</ele>
                <time>2020-08-30T15:07:41.000Z</time>
                <name>Trackpoint 8042</name>
            </trkpt>
            <trkpt lat="50.0043168" lon="8.4028584">
                <ele>93.0</ele>
                <time>2020-08-30T15:07:43.000Z</time>
                <name>Trackpoint 8043</name>
            </trkpt>
            <trkpt lat="50.0041984" lon="8.40294">
                <ele>93.0</ele>
                <time>2020-08-30T15:07:45.000Z</time>
                <name>Trackpoint 8044</name>
            </trkpt>
            <trkpt lat="50.0040832" lon="8.4030016">
                <ele>93.0</ele>
                <time>2020-08-30T15:07:47.000Z</time>
                <name>Trackpoint 8045</name>
            </trkpt>
            <trkpt lat="50.0039552" lon="8.4030512">
                <ele>93.0</ele>
                <time>2020-08-30T15:07:49.000Z</time>
                <name>Trackpoint 8046</name>
            </trkpt>
            <trkpt lat="50.0038208" lon="8.4031136">
                <ele>93.0</ele>
                <time>2020-08-30T15:07:51.000Z</time>
                <name>Trackpoint 8047</name>
            </trkpt>
            <trkpt lat="50.0036928" lon="8.403156">
                <ele>93.0</ele>
                <time>2020-08-30T15:07:53.000Z</time>
                <name>Trackpoint 8048</name>
            </trkpt>
            <trkpt lat="50.0035552" lon="8.4032">
                <ele>93.0</ele>
                <time>2020-08-30T15:07:55.000Z</time>
                <name>Trackpoint 8049</name>
            </trkpt>
            <trkpt lat="50.0034208" lon="8.403236">
                <ele>93.0</ele>
                <time>2020-08-30T15:07:57.000Z</time>
                <name>Trackpoint 8050</name>
            </trkpt>
            <trkpt lat="50.003296" lon="8.4032536">
                <ele>93.0</ele>
                <time>2020-08-30T15:07:59.000Z</time>
                <name>Trackpoint 8051</name>
            </trkpt>
            <trkpt lat="50.0031776" lon="8.4032">
                <ele>92.0</ele>
                <time>2020-08-30T15:08:01.000Z</time>
                <name>Trackpoint 8052</name>
            </trkpt>
            <trkpt lat="50.00304" lon="8.4031296">
                <ele>92.0</ele>
                <time>2020-08-30T15:08:03.000Z</time>
                <name>Trackpoint 8053</name>
            </trkpt>
            <trkpt lat="50.0029056" lon="8.403064">
                <ele>92.0</ele>
                <time>2020-08-30T15:08:05.000Z</time>
                <name>Trackpoint 8054</name>
            </trkpt>
            <trkpt lat="50.0027648" lon="8.4029904">
                <ele>92.0</ele>
                <time>2020-08-30T15:08:07.000Z</time>
                <name>Trackpoint 8055</name>
            </trkpt>
            <trkpt lat="50.002624" lon="8.4029056">
                <ele>92.0</ele>
                <time>2020-08-30T15:08:09.000Z</time>
                <name>Trackpoint 8056</name>
            </trkpt>
            <trkpt lat="50.0024896" lon="8.4027968">
                <ele>92.0</ele>
                <time>2020-08-30T15:08:11.000Z</time>
                <name>Trackpoint 8057</name>
            </trkpt>
            <trkpt lat="50.0023648" lon="8.402672">
                <ele>92.0</ele>
                <time>2020-08-30T15:08:13.000Z</time>
                <name>Trackpoint 8058</name>
            </trkpt>
            <trkpt lat="50.0022432" lon="8.4025432">
                <ele>92.0</ele>
                <time>2020-08-30T15:08:15.000Z</time>
                <name>Trackpoint 8059</name>
            </trkpt>
            <trkpt lat="50.0021024" lon="8.4024936">
                <ele>92.0</ele>
                <time>2020-08-30T15:08:17.000Z</time>
                <name>Trackpoint 8060</name>
            </trkpt>
            <trkpt lat="50.0019584" lon="8.4025296">
                <ele>92.0</ele>
                <time>2020-08-30T15:08:19.000Z</time>
                <name>Trackpoint 8061</name>
            </trkpt>
            <trkpt lat="50.0018048" lon="8.4026">
                <ele>92.0</ele>
                <time>2020-08-30T15:08:21.000Z</time>
                <name>Trackpoint 8062</name>
            </trkpt>
            <trkpt lat="50.0016672" lon="8.402688">
                <ele>92.0</ele>
                <time>2020-08-30T15:08:23.000Z</time>
                <name>Trackpoint 8063</name>
            </trkpt>
            <trkpt lat="50.0015264" lon="8.4027768">
                <ele>92.0</ele>
                <time>2020-08-30T15:08:25.000Z</time>
                <name>Trackpoint 8064</name>
            </trkpt>
            <trkpt lat="50.0013984" lon="8.402868">
                <ele>92.0</ele>
                <time>2020-08-30T15:08:27.000Z</time>
                <name>Trackpoint 8065</name>
            </trkpt>
            <trkpt lat="50.0013184" lon="8.4029176">
                <ele>92.0</ele>
                <time>2020-08-30T15:08:28.000Z</time>
                <name>Trackpoint 8066</name>
            </trkpt>
            <trkpt lat="50.0011776" lon="8.4029968">
                <ele>92.0</ele>
                <time>2020-08-30T15:08:30.000Z</time>
                <name>Trackpoint 8067</name>
            </trkpt>
            <trkpt lat="50.0010464" lon="8.40304">
                <ele>92.0</ele>
                <time>2020-08-30T15:08:32.000Z</time>
                <name>Trackpoint 8068</name>
            </trkpt>
            <trkpt lat="50.0009408" lon="8.4029528">
                <ele>92.0</ele>
                <time>2020-08-30T15:08:34.000Z</time>
                <name>Trackpoint 8069</name>
            </trkpt>
            <trkpt lat="50.0009056" lon="8.4027816">
                <ele>92.0</ele>
                <time>2020-08-30T15:08:36.000Z</time>
                <name>Trackpoint 8070</name>
            </trkpt>
            <trkpt lat="50.0008928" lon="8.4025936">
                <ele>92.0</ele>
                <time>2020-08-30T15:08:38.000Z</time>
                <name>Trackpoint 8071</name>
            </trkpt>
            <trkpt lat="50.0008992" lon="8.4024872">
                <ele>92.0</ele>
                <time>2020-08-30T15:08:39.000Z</time>
                <name>Trackpoint 8072</name>
            </trkpt>
            <trkpt lat="50.0009152" lon="8.4023816">
                <ele>92.0</ele>
                <time>2020-08-30T15:08:40.000Z</time>
                <name>Trackpoint 8073</name>
            </trkpt>
            <trkpt lat="50.0009312" lon="8.4022848">
                <ele>92.0</ele>
                <time>2020-08-30T15:08:41.000Z</time>
                <name>Trackpoint 8074</name>
            </trkpt>
            <trkpt lat="50.0009376" lon="8.4021864">
                <ele>92.0</ele>
                <time>2020-08-30T15:08:42.000Z</time>
                <name>Trackpoint 8075</name>
            </trkpt>
            <trkpt lat="50.0009536" lon="8.4020928">
                <ele>91.0</ele>
                <time>2020-08-30T15:08:43.000Z</time>
                <name>Trackpoint 8076</name>
            </trkpt>
            <trkpt lat="50.0009664" lon="8.401988">
                <ele>91.0</ele>
                <time>2020-08-30T15:08:44.000Z</time>
                <name>Trackpoint 8077</name>
            </trkpt>
            <trkpt lat="50.0009728" lon="8.40188">
                <ele>91.0</ele>
                <time>2020-08-30T15:08:45.000Z</time>
                <name>Trackpoint 8078</name>
            </trkpt>
            <trkpt lat="50.0009728" lon="8.4017696">
                <ele>91.0</ele>
                <time>2020-08-30T15:08:46.000Z</time>
                <name>Trackpoint 8079</name>
            </trkpt>
            <trkpt lat="50.0009728" lon="8.4016648">
                <ele>91.0</ele>
                <time>2020-08-30T15:08:47.000Z</time>
                <name>Trackpoint 8080</name>
            </trkpt>
            <trkpt lat="50.0009696" lon="8.4015712">
                <ele>91.0</ele>
                <time>2020-08-30T15:08:48.000Z</time>
                <name>Trackpoint 8081</name>
            </trkpt>
            <trkpt lat="50.00096" lon="8.401468">
                <ele>92.0</ele>
                <time>2020-08-30T15:08:49.000Z</time>
                <name>Trackpoint 8082</name>
            </trkpt>
            <trkpt lat="50.0009536" lon="8.4013704">
                <ele>92.0</ele>
                <time>2020-08-30T15:08:50.000Z</time>
                <name>Trackpoint 8083</name>
            </trkpt>
            <trkpt lat="50.0009536" lon="8.4012672">
                <ele>92.0</ele>
                <time>2020-08-30T15:08:51.000Z</time>
                <name>Trackpoint 8084</name>
            </trkpt>
            <trkpt lat="50.0009536" lon="8.4011648">
                <ele>92.0</ele>
                <time>2020-08-30T15:08:52.000Z</time>
                <name>Trackpoint 8085</name>
            </trkpt>
            <trkpt lat="50.0009504" lon="8.4010536">
                <ele>92.0</ele>
                <time>2020-08-30T15:08:53.000Z</time>
                <name>Trackpoint 8086</name>
            </trkpt>
            <trkpt lat="50.0009472" lon="8.4009448">
                <ele>92.0</ele>
                <time>2020-08-30T15:08:54.000Z</time>
                <name>Trackpoint 8087</name>
            </trkpt>
            <trkpt lat="50.0009408" lon="8.4008376">
                <ele>92.0</ele>
                <time>2020-08-30T15:08:55.000Z</time>
                <name>Trackpoint 8088</name>
            </trkpt>
            <trkpt lat="50.0009408" lon="8.400732">
                <ele>92.0</ele>
                <time>2020-08-30T15:08:56.000Z</time>
                <name>Trackpoint 8089</name>
            </trkpt>
            <trkpt lat="50.0009408" lon="8.4006136">
                <ele>92.0</ele>
                <time>2020-08-30T15:08:57.000Z</time>
                <name>Trackpoint 8090</name>
            </trkpt>
            <trkpt lat="50.0009472" lon="8.4005016">
                <ele>92.0</ele>
                <time>2020-08-30T15:08:58.000Z</time>
                <name>Trackpoint 8091</name>
            </trkpt>
            <trkpt lat="50.0009504" lon="8.4003984">
                <ele>92.0</ele>
                <time>2020-08-30T15:08:59.000Z</time>
                <name>Trackpoint 8092</name>
            </trkpt>
            <trkpt lat="50.0009472" lon="8.4003">
                <ele>92.0</ele>
                <time>2020-08-30T15:09:00.000Z</time>
                <name>Trackpoint 8093</name>
            </trkpt>
            <trkpt lat="50.0009504" lon="8.4002">
                <ele>92.0</ele>
                <time>2020-08-30T15:09:01.000Z</time>
                <name>Trackpoint 8094</name>
            </trkpt>
            <trkpt lat="50.0009536" lon="8.4001032">
                <ele>92.0</ele>
                <time>2020-08-30T15:09:02.000Z</time>
                <name>Trackpoint 8095</name>
            </trkpt>
            <trkpt lat="50.0009696" lon="8.400012">
                <ele>92.0</ele>
                <time>2020-08-30T15:09:03.000Z</time>
                <name>Trackpoint 8096</name>
            </trkpt>
            <trkpt lat="50.000992" lon="8.399848">
                <ele>92.0</ele>
                <time>2020-08-30T15:09:05.000Z</time>
                <name>Trackpoint 8097</name>
            </trkpt>
            <trkpt lat="50.0010048" lon="8.3997584">
                <ele>92.0</ele>
                <time>2020-08-30T15:09:06.000Z</time>
                <name>Trackpoint 8098</name>
            </trkpt>
            <trkpt lat="50.0010112" lon="8.3996624">
                <ele>92.0</ele>
                <time>2020-08-30T15:09:07.000Z</time>
                <name>Trackpoint 8099</name>
            </trkpt>
            <trkpt lat="50.0010144" lon="8.3995688">
                <ele>92.0</ele>
                <time>2020-08-30T15:09:08.000Z</time>
                <name>Trackpoint 8100</name>
            </trkpt>
            <trkpt lat="50.0010112" lon="8.3994648">
                <ele>92.0</ele>
                <time>2020-08-30T15:09:09.000Z</time>
                <name>Trackpoint 8101</name>
            </trkpt>
            <trkpt lat="50.0010048" lon="8.399372">
                <ele>92.0</ele>
                <time>2020-08-30T15:09:10.000Z</time>
                <name>Trackpoint 8102</name>
            </trkpt>
            <trkpt lat="50.000992" lon="8.3992792">
                <ele>93.0</ele>
                <time>2020-08-30T15:09:11.000Z</time>
                <name>Trackpoint 8103</name>
            </trkpt>
            <trkpt lat="50.0009728" lon="8.3991872">
                <ele>93.0</ele>
                <time>2020-08-30T15:09:12.000Z</time>
                <name>Trackpoint 8104</name>
            </trkpt>
            <trkpt lat="50.0009376" lon="8.3990096">
                <ele>93.0</ele>
                <time>2020-08-30T15:09:14.000Z</time>
                <name>Trackpoint 8105</name>
            </trkpt>
            <trkpt lat="50.0009216" lon="8.3989184">
                <ele>93.0</ele>
                <time>2020-08-30T15:09:15.000Z</time>
                <name>Trackpoint 8106</name>
            </trkpt>
            <trkpt lat="50.000912" lon="8.3988264">
                <ele>93.0</ele>
                <time>2020-08-30T15:09:16.000Z</time>
                <name>Trackpoint 8107</name>
            </trkpt>
            <trkpt lat="50.0008928" lon="8.3986552">
                <ele>93.0</ele>
                <time>2020-08-30T15:09:18.000Z</time>
                <name>Trackpoint 8108</name>
            </trkpt>
            <trkpt lat="50.0008736" lon="8.3985584">
                <ele>93.0</ele>
                <time>2020-08-30T15:09:19.000Z</time>
                <name>Trackpoint 8109</name>
            </trkpt>
            <trkpt lat="50.0008576" lon="8.3984616">
                <ele>92.0</ele>
                <time>2020-08-30T15:09:20.000Z</time>
                <name>Trackpoint 8110</name>
            </trkpt>
            <trkpt lat="50.0008384" lon="8.3983696">
                <ele>92.0</ele>
                <time>2020-08-30T15:09:21.000Z</time>
                <name>Trackpoint 8111</name>
            </trkpt>
            <trkpt lat="50.0008192" lon="8.3982648">
                <ele>92.0</ele>
                <time>2020-08-30T15:09:22.000Z</time>
                <name>Trackpoint 8112</name>
            </trkpt>
            <trkpt lat="50.0007936" lon="8.3981584">
                <ele>92.0</ele>
                <time>2020-08-30T15:09:23.000Z</time>
                <name>Trackpoint 8113</name>
            </trkpt>
            <trkpt lat="50.0007744" lon="8.398044">
                <ele>92.0</ele>
                <time>2020-08-30T15:09:24.000Z</time>
                <name>Trackpoint 8114</name>
            </trkpt>
            <trkpt lat="50.000768" lon="8.3979304">
                <ele>93.0</ele>
                <time>2020-08-30T15:09:25.000Z</time>
                <name>Trackpoint 8115</name>
            </trkpt>
            <trkpt lat="50.0007552" lon="8.3978216">
                <ele>93.0</ele>
                <time>2020-08-30T15:09:26.000Z</time>
                <name>Trackpoint 8116</name>
            </trkpt>
            <trkpt lat="50.0007488" lon="8.3977184">
                <ele>93.0</ele>
                <time>2020-08-30T15:09:27.000Z</time>
                <name>Trackpoint 8117</name>
            </trkpt>
            <trkpt lat="50.0007392" lon="8.3976096">
                <ele>93.0</ele>
                <time>2020-08-30T15:09:28.000Z</time>
                <name>Trackpoint 8118</name>
            </trkpt>
            <trkpt lat="50.0007328" lon="8.3974984">
                <ele>93.0</ele>
                <time>2020-08-30T15:09:29.000Z</time>
                <name>Trackpoint 8119</name>
            </trkpt>
            <trkpt lat="50.0007232" lon="8.3973976">
                <ele>93.0</ele>
                <time>2020-08-30T15:09:30.000Z</time>
                <name>Trackpoint 8120</name>
            </trkpt>
            <trkpt lat="50.0007136" lon="8.3972968">
                <ele>93.0</ele>
                <time>2020-08-30T15:09:31.000Z</time>
                <name>Trackpoint 8121</name>
            </trkpt>
            <trkpt lat="50.0007104" lon="8.3971928">
                <ele>93.0</ele>
                <time>2020-08-30T15:09:32.000Z</time>
                <name>Trackpoint 8122</name>
            </trkpt>
            <trkpt lat="50.0007008" lon="8.397092">
                <ele>93.0</ele>
                <time>2020-08-30T15:09:33.000Z</time>
                <name>Trackpoint 8123</name>
            </trkpt>
            <trkpt lat="50.0006944" lon="8.396992">
                <ele>93.0</ele>
                <time>2020-08-30T15:09:34.000Z</time>
                <name>Trackpoint 8124</name>
            </trkpt>
            <trkpt lat="50.000688" lon="8.3968936">
                <ele>93.0</ele>
                <time>2020-08-30T15:09:35.000Z</time>
                <name>Trackpoint 8125</name>
            </trkpt>
            <trkpt lat="50.000688" lon="8.3967952">
                <ele>93.0</ele>
                <time>2020-08-30T15:09:36.000Z</time>
                <name>Trackpoint 8126</name>
            </trkpt>
            <trkpt lat="50.0006912" lon="8.3966976">
                <ele>93.0</ele>
                <time>2020-08-30T15:09:37.000Z</time>
                <name>Trackpoint 8127</name>
            </trkpt>
            <trkpt lat="50.0006912" lon="8.3966032">
                <ele>93.0</ele>
                <time>2020-08-30T15:09:38.000Z</time>
                <name>Trackpoint 8128</name>
            </trkpt>
            <trkpt lat="50.000688" lon="8.396512">
                <ele>93.0</ele>
                <time>2020-08-30T15:09:39.000Z</time>
                <name>Trackpoint 8129</name>
            </trkpt>
            <trkpt lat="50.0006816" lon="8.3964136">
                <ele>93.0</ele>
                <time>2020-08-30T15:09:40.000Z</time>
                <name>Trackpoint 8130</name>
            </trkpt>
            <trkpt lat="50.000672" lon="8.3963184">
                <ele>93.0</ele>
                <time>2020-08-30T15:09:41.000Z</time>
                <name>Trackpoint 8131</name>
            </trkpt>
            <trkpt lat="50.0006592" lon="8.3962232">
                <ele>93.0</ele>
                <time>2020-08-30T15:09:42.000Z</time>
                <name>Trackpoint 8132</name>
            </trkpt>
            <trkpt lat="50.000656" lon="8.3961248">
                <ele>93.0</ele>
                <time>2020-08-30T15:09:43.000Z</time>
                <name>Trackpoint 8133</name>
            </trkpt>
            <trkpt lat="50.0006496" lon="8.3960288">
                <ele>93.0</ele>
                <time>2020-08-30T15:09:44.000Z</time>
                <name>Trackpoint 8134</name>
            </trkpt>
            <trkpt lat="50.0006432" lon="8.3959368">
                <ele>93.0</ele>
                <time>2020-08-30T15:09:45.000Z</time>
                <name>Trackpoint 8135</name>
            </trkpt>
            <trkpt lat="50.00064" lon="8.3958432">
                <ele>93.0</ele>
                <time>2020-08-30T15:09:46.000Z</time>
                <name>Trackpoint 8136</name>
            </trkpt>
            <trkpt lat="50.0006336" lon="8.3957504">
                <ele>93.0</ele>
                <time>2020-08-30T15:09:47.000Z</time>
                <name>Trackpoint 8137</name>
            </trkpt>
            <trkpt lat="50.0006272" lon="8.395572">
                <ele>93.0</ele>
                <time>2020-08-30T15:09:49.000Z</time>
                <name>Trackpoint 8138</name>
            </trkpt>
            <trkpt lat="50.0006144" lon="8.3953912">
                <ele>93.0</ele>
                <time>2020-08-30T15:09:51.000Z</time>
                <name>Trackpoint 8139</name>
            </trkpt>
            <trkpt lat="50.0006112" lon="8.3953">
                <ele>93.0</ele>
                <time>2020-08-30T15:09:52.000Z</time>
                <name>Trackpoint 8140</name>
            </trkpt>
            <trkpt lat="50.000608" lon="8.395208">
                <ele>93.0</ele>
                <time>2020-08-30T15:09:53.000Z</time>
                <name>Trackpoint 8141</name>
            </trkpt>
            <trkpt lat="50.0005984" lon="8.3951168">
                <ele>94.0</ele>
                <time>2020-08-30T15:09:54.000Z</time>
                <name>Trackpoint 8142</name>
            </trkpt>
            <trkpt lat="50.0005952" lon="8.3950232">
                <ele>94.0</ele>
                <time>2020-08-30T15:09:55.000Z</time>
                <name>Trackpoint 8143</name>
            </trkpt>
            <trkpt lat="50.000592" lon="8.3949296">
                <ele>94.0</ele>
                <time>2020-08-30T15:09:56.000Z</time>
                <name>Trackpoint 8144</name>
            </trkpt>
            <trkpt lat="50.0005824" lon="8.3948352">
                <ele>94.0</ele>
                <time>2020-08-30T15:09:57.000Z</time>
                <name>Trackpoint 8145</name>
            </trkpt>
            <trkpt lat="50.0005792" lon="8.3947424">
                <ele>94.0</ele>
                <time>2020-08-30T15:09:58.000Z</time>
                <name>Trackpoint 8146</name>
            </trkpt>
            <trkpt lat="50.000576" lon="8.3946488">
                <ele>93.0</ele>
                <time>2020-08-30T15:09:59.000Z</time>
                <name>Trackpoint 8147</name>
            </trkpt>
            <trkpt lat="50.0005696" lon="8.3945528">
                <ele>93.0</ele>
                <time>2020-08-30T15:10:00.000Z</time>
                <name>Trackpoint 8148</name>
            </trkpt>
            <trkpt lat="50.00056" lon="8.3944568">
                <ele>93.0</ele>
                <time>2020-08-30T15:10:01.000Z</time>
                <name>Trackpoint 8149</name>
            </trkpt>
            <trkpt lat="50.0005536" lon="8.3943616">
                <ele>93.0</ele>
                <time>2020-08-30T15:10:02.000Z</time>
                <name>Trackpoint 8150</name>
            </trkpt>
            <trkpt lat="50.000544" lon="8.3942648">
                <ele>94.0</ele>
                <time>2020-08-30T15:10:03.000Z</time>
                <name>Trackpoint 8151</name>
            </trkpt>
            <trkpt lat="50.0005408" lon="8.3941696">
                <ele>94.0</ele>
                <time>2020-08-30T15:10:04.000Z</time>
                <name>Trackpoint 8152</name>
            </trkpt>
            <trkpt lat="50.0005376" lon="8.3940736">
                <ele>94.0</ele>
                <time>2020-08-30T15:10:05.000Z</time>
                <name>Trackpoint 8153</name>
            </trkpt>
            <trkpt lat="50.0005344" lon="8.39398">
                <ele>94.0</ele>
                <time>2020-08-30T15:10:06.000Z</time>
                <name>Trackpoint 8154</name>
            </trkpt>
            <trkpt lat="50.0005312" lon="8.3938848">
                <ele>95.0</ele>
                <time>2020-08-30T15:10:07.000Z</time>
                <name>Trackpoint 8155</name>
            </trkpt>
            <trkpt lat="50.0005216" lon="8.3937032">
                <ele>95.0</ele>
                <time>2020-08-30T15:10:09.000Z</time>
                <name>Trackpoint 8156</name>
            </trkpt>
            <trkpt lat="50.0005184" lon="8.3936128">
                <ele>95.0</ele>
                <time>2020-08-30T15:10:10.000Z</time>
                <name>Trackpoint 8157</name>
            </trkpt>
            <trkpt lat="50.0005088" lon="8.3934416">
                <ele>96.0</ele>
                <time>2020-08-30T15:10:12.000Z</time>
                <name>Trackpoint 8158</name>
            </trkpt>
            <trkpt lat="50.0004992" lon="8.3932648">
                <ele>96.0</ele>
                <time>2020-08-30T15:10:14.000Z</time>
                <name>Trackpoint 8159</name>
            </trkpt>
            <trkpt lat="50.0004896" lon="8.3930848">
                <ele>96.0</ele>
                <time>2020-08-30T15:10:16.000Z</time>
                <name>Trackpoint 8160</name>
            </trkpt>
            <trkpt lat="50.00048" lon="8.3929928">
                <ele>96.0</ele>
                <time>2020-08-30T15:10:17.000Z</time>
                <name>Trackpoint 8161</name>
            </trkpt>
            <trkpt lat="50.0004768" lon="8.3929016">
                <ele>96.0</ele>
                <time>2020-08-30T15:10:18.000Z</time>
                <name>Trackpoint 8162</name>
            </trkpt>
            <trkpt lat="50.0004736" lon="8.3928096">
                <ele>96.0</ele>
                <time>2020-08-30T15:10:19.000Z</time>
                <name>Trackpoint 8163</name>
            </trkpt>
            <trkpt lat="50.0004704" lon="8.3926312">
                <ele>96.0</ele>
                <time>2020-08-30T15:10:21.000Z</time>
                <name>Trackpoint 8164</name>
            </trkpt>
            <trkpt lat="50.000464" lon="8.3924552">
                <ele>96.0</ele>
                <time>2020-08-30T15:10:23.000Z</time>
                <name>Trackpoint 8165</name>
            </trkpt>
            <trkpt lat="50.0004768" lon="8.392288">
                <ele>96.0</ele>
                <time>2020-08-30T15:10:25.000Z</time>
                <name>Trackpoint 8166</name>
            </trkpt>
            <trkpt lat="50.0004704" lon="8.3921448">
                <ele>96.0</ele>
                <time>2020-08-30T15:10:27.000Z</time>
                <name>Trackpoint 8167</name>
            </trkpt>
            <trkpt lat="50.0003968" lon="8.392068">
                <ele>95.0</ele>
                <time>2020-08-30T15:10:29.000Z</time>
                <name>Trackpoint 8168</name>
            </trkpt>
            <trkpt lat="50.0002848" lon="8.3920768">
                <ele>94.0</ele>
                <time>2020-08-30T15:10:31.000Z</time>
                <name>Trackpoint 8169</name>
            </trkpt>
            <trkpt lat="50.0001568" lon="8.3920896">
                <ele>93.0</ele>
                <time>2020-08-30T15:10:33.000Z</time>
                <name>Trackpoint 8170</name>
            </trkpt>
            <trkpt lat="50.000016" lon="8.3921048">
                <ele>92.0</ele>
                <time>2020-08-30T15:10:35.000Z</time>
                <name>Trackpoint 8171</name>
            </trkpt>
            <trkpt lat="49.9998656" lon="8.3921016">
                <ele>91.0</ele>
                <time>2020-08-30T15:10:37.000Z</time>
                <name>Trackpoint 8172</name>
            </trkpt>
            <trkpt lat="49.9997088" lon="8.3920872">
                <ele>91.0</ele>
                <time>2020-08-30T15:10:39.000Z</time>
                <name>Trackpoint 8173</name>
            </trkpt>
            <trkpt lat="49.999568" lon="8.3920832">
                <ele>91.0</ele>
                <time>2020-08-30T15:10:41.000Z</time>
                <name>Trackpoint 8174</name>
            </trkpt>
            <trkpt lat="49.9994592" lon="8.3920648">
                <ele>91.0</ele>
                <time>2020-08-30T15:10:43.000Z</time>
                <name>Trackpoint 8175</name>
            </trkpt>
            <trkpt lat="49.9994208" lon="8.3919648">
                <ele>91.0</ele>
                <time>2020-08-30T15:10:45.000Z</time>
                <name>Trackpoint 8176</name>
            </trkpt>
            <trkpt lat="49.9994464" lon="8.3918264">
                <ele>91.0</ele>
                <time>2020-08-30T15:10:47.000Z</time>
                <name>Trackpoint 8177</name>
            </trkpt>
            <trkpt lat="49.9994816" lon="8.3916792">
                <ele>90.0</ele>
                <time>2020-08-30T15:10:49.000Z</time>
                <name>Trackpoint 8178</name>
            </trkpt>
            <trkpt lat="49.999504" lon="8.3915256">
                <ele>90.0</ele>
                <time>2020-08-30T15:10:51.000Z</time>
                <name>Trackpoint 8179</name>
            </trkpt>
            <trkpt lat="49.999536" lon="8.391372">
                <ele>90.0</ele>
                <time>2020-08-30T15:10:53.000Z</time>
                <name>Trackpoint 8180</name>
            </trkpt>
            <trkpt lat="49.9995776" lon="8.3912264">
                <ele>89.0</ele>
                <time>2020-08-30T15:10:55.000Z</time>
                <name>Trackpoint 8181</name>
            </trkpt>
            <trkpt lat="49.9996576" lon="8.3911152">
                <ele>89.0</ele>
                <time>2020-08-30T15:10:57.000Z</time>
                <name>Trackpoint 8182</name>
            </trkpt>
            <trkpt lat="49.9997344" lon="8.391004">
                <ele>89.0</ele>
                <time>2020-08-30T15:10:59.000Z</time>
                <name>Trackpoint 8183</name>
            </trkpt>
            <trkpt lat="49.9997856" lon="8.3908632">
                <ele>89.0</ele>
                <time>2020-08-30T15:11:01.000Z</time>
                <name>Trackpoint 8184</name>
            </trkpt>
            <trkpt lat="49.999824" lon="8.3907016">
                <ele>89.0</ele>
                <time>2020-08-30T15:11:03.000Z</time>
                <name>Trackpoint 8185</name>
            </trkpt>
            <trkpt lat="49.9998592" lon="8.3905248">
                <ele>89.0</ele>
                <time>2020-08-30T15:11:05.000Z</time>
                <name>Trackpoint 8186</name>
            </trkpt>
            <trkpt lat="49.9998784" lon="8.3904312">
                <ele>89.0</ele>
                <time>2020-08-30T15:11:06.000Z</time>
                <name>Trackpoint 8187</name>
            </trkpt>
            <trkpt lat="49.9998944" lon="8.3903416">
                <ele>89.0</ele>
                <time>2020-08-30T15:11:07.000Z</time>
                <name>Trackpoint 8188</name>
            </trkpt>
            <trkpt lat="49.9999168" lon="8.390248">
                <ele>89.0</ele>
                <time>2020-08-30T15:11:08.000Z</time>
                <name>Trackpoint 8189</name>
            </trkpt>
            <trkpt lat="49.999936" lon="8.3901552">
                <ele>89.0</ele>
                <time>2020-08-30T15:11:09.000Z</time>
                <name>Trackpoint 8190</name>
            </trkpt>
            <trkpt lat="49.999952" lon="8.3900608">
                <ele>89.0</ele>
                <time>2020-08-30T15:11:10.000Z</time>
                <name>Trackpoint 8191</name>
            </trkpt>
            <trkpt lat="49.999968" lon="8.3899584">
                <ele>89.0</ele>
                <time>2020-08-30T15:11:11.000Z</time>
                <name>Trackpoint 8192</name>
            </trkpt>
            <trkpt lat="49.9999872" lon="8.3898624">
                <ele>89.0</ele>
                <time>2020-08-30T15:11:12.000Z</time>
                <name>Trackpoint 8193</name>
            </trkpt>
            <trkpt lat="50.0000128" lon="8.3897616">
                <ele>89.0</ele>
                <time>2020-08-30T15:11:13.000Z</time>
                <name>Trackpoint 8194</name>
            </trkpt>
            <trkpt lat="50.0000256" lon="8.389664">
                <ele>89.0</ele>
                <time>2020-08-30T15:11:14.000Z</time>
                <name>Trackpoint 8195</name>
            </trkpt>
            <trkpt lat="50.0000416" lon="8.3895656">
                <ele>89.0</ele>
                <time>2020-08-30T15:11:15.000Z</time>
                <name>Trackpoint 8196</name>
            </trkpt>
            <trkpt lat="50.0000608" lon="8.3894664">
                <ele>89.0</ele>
                <time>2020-08-30T15:11:16.000Z</time>
                <name>Trackpoint 8197</name>
            </trkpt>
            <trkpt lat="50.00008" lon="8.3893672">
                <ele>89.0</ele>
                <time>2020-08-30T15:11:17.000Z</time>
                <name>Trackpoint 8198</name>
            </trkpt>
            <trkpt lat="50.0000992" lon="8.389272">
                <ele>89.0</ele>
                <time>2020-08-30T15:11:18.000Z</time>
                <name>Trackpoint 8199</name>
            </trkpt>
            <trkpt lat="50.0001184" lon="8.3891752">
                <ele>89.0</ele>
                <time>2020-08-30T15:11:19.000Z</time>
                <name>Trackpoint 8200</name>
            </trkpt>
            <trkpt lat="50.0001376" lon="8.3890816">
                <ele>89.0</ele>
                <time>2020-08-30T15:11:20.000Z</time>
                <name>Trackpoint 8201</name>
            </trkpt>
            <trkpt lat="50.00016" lon="8.3889848">
                <ele>89.0</ele>
                <time>2020-08-30T15:11:21.000Z</time>
                <name>Trackpoint 8202</name>
            </trkpt>
            <trkpt lat="50.0001792" lon="8.388888">
                <ele>89.0</ele>
                <time>2020-08-30T15:11:22.000Z</time>
                <name>Trackpoint 8203</name>
            </trkpt>
            <trkpt lat="50.0001984" lon="8.3887904">
                <ele>88.0</ele>
                <time>2020-08-30T15:11:23.000Z</time>
                <name>Trackpoint 8204</name>
            </trkpt>
            <trkpt lat="50.0002176" lon="8.388688">
                <ele>88.0</ele>
                <time>2020-08-30T15:11:24.000Z</time>
                <name>Trackpoint 8205</name>
            </trkpt>
            <trkpt lat="50.00024" lon="8.3885896">
                <ele>88.0</ele>
                <time>2020-08-30T15:11:25.000Z</time>
                <name>Trackpoint 8206</name>
            </trkpt>
            <trkpt lat="50.0002624" lon="8.3884896">
                <ele>89.0</ele>
                <time>2020-08-30T15:11:26.000Z</time>
                <name>Trackpoint 8207</name>
            </trkpt>
            <trkpt lat="50.0002816" lon="8.3883888">
                <ele>88.0</ele>
                <time>2020-08-30T15:11:27.000Z</time>
                <name>Trackpoint 8208</name>
            </trkpt>
            <trkpt lat="50.000304" lon="8.3882888">
                <ele>88.0</ele>
                <time>2020-08-30T15:11:28.000Z</time>
                <name>Trackpoint 8209</name>
            </trkpt>
            <trkpt lat="50.0003232" lon="8.3881864">
                <ele>88.0</ele>
                <time>2020-08-30T15:11:29.000Z</time>
                <name>Trackpoint 8210</name>
            </trkpt>
            <trkpt lat="50.0003424" lon="8.3880864">
                <ele>88.0</ele>
                <time>2020-08-30T15:11:30.000Z</time>
                <name>Trackpoint 8211</name>
            </trkpt>
            <trkpt lat="50.0003616" lon="8.3879856">
                <ele>89.0</ele>
                <time>2020-08-30T15:11:31.000Z</time>
                <name>Trackpoint 8212</name>
            </trkpt>
            <trkpt lat="50.0003808" lon="8.3878832">
                <ele>89.0</ele>
                <time>2020-08-30T15:11:32.000Z</time>
                <name>Trackpoint 8213</name>
            </trkpt>
            <trkpt lat="50.0004032" lon="8.3877848">
                <ele>89.0</ele>
                <time>2020-08-30T15:11:33.000Z</time>
                <name>Trackpoint 8214</name>
            </trkpt>
            <trkpt lat="50.0004224" lon="8.3876864">
                <ele>89.0</ele>
                <time>2020-08-30T15:11:34.000Z</time>
                <name>Trackpoint 8215</name>
            </trkpt>
            <trkpt lat="50.0004448" lon="8.3875888">
                <ele>89.0</ele>
                <time>2020-08-30T15:11:35.000Z</time>
                <name>Trackpoint 8216</name>
            </trkpt>
            <trkpt lat="50.000464" lon="8.387488">
                <ele>89.0</ele>
                <time>2020-08-30T15:11:36.000Z</time>
                <name>Trackpoint 8217</name>
            </trkpt>
            <trkpt lat="50.0004832" lon="8.3873864">
                <ele>89.0</ele>
                <time>2020-08-30T15:11:37.000Z</time>
                <name>Trackpoint 8218</name>
            </trkpt>
            <trkpt lat="50.0005024" lon="8.3872856">
                <ele>89.0</ele>
                <time>2020-08-30T15:11:38.000Z</time>
                <name>Trackpoint 8219</name>
            </trkpt>
            <trkpt lat="50.0005184" lon="8.3871784">
                <ele>89.0</ele>
                <time>2020-08-30T15:11:39.000Z</time>
                <name>Trackpoint 8220</name>
            </trkpt>
            <trkpt lat="50.0005376" lon="8.3870784">
                <ele>89.0</ele>
                <time>2020-08-30T15:11:40.000Z</time>
                <name>Trackpoint 8221</name>
            </trkpt>
            <trkpt lat="50.0005536" lon="8.386976">
                <ele>89.0</ele>
                <time>2020-08-30T15:11:41.000Z</time>
                <name>Trackpoint 8222</name>
            </trkpt>
            <trkpt lat="50.0005728" lon="8.3868752">
                <ele>89.0</ele>
                <time>2020-08-30T15:11:42.000Z</time>
                <name>Trackpoint 8223</name>
            </trkpt>
            <trkpt lat="50.0005952" lon="8.3867752">
                <ele>89.0</ele>
                <time>2020-08-30T15:11:43.000Z</time>
                <name>Trackpoint 8224</name>
            </trkpt>
            <trkpt lat="50.0006176" lon="8.3866728">
                <ele>89.0</ele>
                <time>2020-08-30T15:11:44.000Z</time>
                <name>Trackpoint 8225</name>
            </trkpt>
            <trkpt lat="50.0006336" lon="8.3865736">
                <ele>89.0</ele>
                <time>2020-08-30T15:11:45.000Z</time>
                <name>Trackpoint 8226</name>
            </trkpt>
            <trkpt lat="50.0006432" lon="8.3864696">
                <ele>89.0</ele>
                <time>2020-08-30T15:11:46.000Z</time>
                <name>Trackpoint 8227</name>
            </trkpt>
            <trkpt lat="50.0006528" lon="8.3863648">
                <ele>89.0</ele>
                <time>2020-08-30T15:11:47.000Z</time>
                <name>Trackpoint 8228</name>
            </trkpt>
            <trkpt lat="50.0006592" lon="8.3862632">
                <ele>89.0</ele>
                <time>2020-08-30T15:11:48.000Z</time>
                <name>Trackpoint 8229</name>
            </trkpt>
            <trkpt lat="50.0006688" lon="8.38616">
                <ele>89.0</ele>
                <time>2020-08-30T15:11:49.000Z</time>
                <name>Trackpoint 8230</name>
            </trkpt>
            <trkpt lat="50.0006752" lon="8.3860552">
                <ele>89.0</ele>
                <time>2020-08-30T15:11:50.000Z</time>
                <name>Trackpoint 8231</name>
            </trkpt>
            <trkpt lat="50.0006784" lon="8.3859504">
                <ele>89.0</ele>
                <time>2020-08-30T15:11:51.000Z</time>
                <name>Trackpoint 8232</name>
            </trkpt>
            <trkpt lat="50.000688" lon="8.3858472">
                <ele>89.0</ele>
                <time>2020-08-30T15:11:52.000Z</time>
                <name>Trackpoint 8233</name>
            </trkpt>
            <trkpt lat="50.0006944" lon="8.3857432">
                <ele>89.0</ele>
                <time>2020-08-30T15:11:53.000Z</time>
                <name>Trackpoint 8234</name>
            </trkpt>
            <trkpt lat="50.0007008" lon="8.38564">
                <ele>89.0</ele>
                <time>2020-08-30T15:11:54.000Z</time>
                <name>Trackpoint 8235</name>
            </trkpt>
            <trkpt lat="50.0007104" lon="8.3855352">
                <ele>89.0</ele>
                <time>2020-08-30T15:11:55.000Z</time>
                <name>Trackpoint 8236</name>
            </trkpt>
            <trkpt lat="50.0007136" lon="8.3854312">
                <ele>89.0</ele>
                <time>2020-08-30T15:11:56.000Z</time>
                <name>Trackpoint 8237</name>
            </trkpt>
            <trkpt lat="50.0007232" lon="8.3853264">
                <ele>88.0</ele>
                <time>2020-08-30T15:11:57.000Z</time>
                <name>Trackpoint 8238</name>
            </trkpt>
            <trkpt lat="50.0007296" lon="8.3852256">
                <ele>88.0</ele>
                <time>2020-08-30T15:11:58.000Z</time>
                <name>Trackpoint 8239</name>
            </trkpt>
            <trkpt lat="50.0007328" lon="8.3851216">
                <ele>88.0</ele>
                <time>2020-08-30T15:11:59.000Z</time>
                <name>Trackpoint 8240</name>
            </trkpt>
            <trkpt lat="50.0007392" lon="8.3850168">
                <ele>88.0</ele>
                <time>2020-08-30T15:12:00.000Z</time>
                <name>Trackpoint 8241</name>
            </trkpt>
            <trkpt lat="50.0007424" lon="8.3849096">
                <ele>88.0</ele>
                <time>2020-08-30T15:12:01.000Z</time>
                <name>Trackpoint 8242</name>
            </trkpt>
            <trkpt lat="50.0007488" lon="8.384804">
                <ele>88.0</ele>
                <time>2020-08-30T15:12:02.000Z</time>
                <name>Trackpoint 8243</name>
            </trkpt>
            <trkpt lat="50.0007552" lon="8.3847">
                <ele>88.0</ele>
                <time>2020-08-30T15:12:03.000Z</time>
                <name>Trackpoint 8244</name>
            </trkpt>
            <trkpt lat="50.0007616" lon="8.3845952">
                <ele>88.0</ele>
                <time>2020-08-30T15:12:04.000Z</time>
                <name>Trackpoint 8245</name>
            </trkpt>
            <trkpt lat="50.000768" lon="8.384492">
                <ele>88.0</ele>
                <time>2020-08-30T15:12:05.000Z</time>
                <name>Trackpoint 8246</name>
            </trkpt>
            <trkpt lat="50.0007712" lon="8.3843848">
                <ele>88.0</ele>
                <time>2020-08-30T15:12:06.000Z</time>
                <name>Trackpoint 8247</name>
            </trkpt>
            <trkpt lat="50.0007776" lon="8.3842824">
                <ele>88.0</ele>
                <time>2020-08-30T15:12:07.000Z</time>
                <name>Trackpoint 8248</name>
            </trkpt>
            <trkpt lat="50.0007872" lon="8.38418">
                <ele>88.0</ele>
                <time>2020-08-30T15:12:08.000Z</time>
                <name>Trackpoint 8249</name>
            </trkpt>
            <trkpt lat="50.0007936" lon="8.38408">
                <ele>88.0</ele>
                <time>2020-08-30T15:12:09.000Z</time>
                <name>Trackpoint 8250</name>
            </trkpt>
            <trkpt lat="50.0008096" lon="8.3839816">
                <ele>88.0</ele>
                <time>2020-08-30T15:12:10.000Z</time>
                <name>Trackpoint 8251</name>
            </trkpt>
            <trkpt lat="50.000832" lon="8.383888">
                <ele>88.0</ele>
                <time>2020-08-30T15:12:11.000Z</time>
                <name>Trackpoint 8252</name>
            </trkpt>
            <trkpt lat="50.0008512" lon="8.3837928">
                <ele>87.0</ele>
                <time>2020-08-30T15:12:12.000Z</time>
                <name>Trackpoint 8253</name>
            </trkpt>
            <trkpt lat="50.0008768" lon="8.3837">
                <ele>88.0</ele>
                <time>2020-08-30T15:12:13.000Z</time>
                <name>Trackpoint 8254</name>
            </trkpt>
            <trkpt lat="50.0009056" lon="8.3836072">
                <ele>88.0</ele>
                <time>2020-08-30T15:12:14.000Z</time>
                <name>Trackpoint 8255</name>
            </trkpt>
            <trkpt lat="50.000928" lon="8.3835152">
                <ele>88.0</ele>
                <time>2020-08-30T15:12:15.000Z</time>
                <name>Trackpoint 8256</name>
            </trkpt>
            <trkpt lat="50.0009504" lon="8.3834248">
                <ele>88.0</ele>
                <time>2020-08-30T15:12:16.000Z</time>
                <name>Trackpoint 8257</name>
            </trkpt>
            <trkpt lat="50.000976" lon="8.3833368">
                <ele>88.0</ele>
                <time>2020-08-30T15:12:17.000Z</time>
                <name>Trackpoint 8258</name>
            </trkpt>
            <trkpt lat="50.000992" lon="8.3832432">
                <ele>88.0</ele>
                <time>2020-08-30T15:12:18.000Z</time>
                <name>Trackpoint 8259</name>
            </trkpt>
            <trkpt lat="50.0010112" lon="8.383152">
                <ele>88.0</ele>
                <time>2020-08-30T15:12:19.000Z</time>
                <name>Trackpoint 8260</name>
            </trkpt>
            <trkpt lat="50.0010272" lon="8.3830568">
                <ele>88.0</ele>
                <time>2020-08-30T15:12:20.000Z</time>
                <name>Trackpoint 8261</name>
            </trkpt>
            <trkpt lat="50.0010336" lon="8.38296">
                <ele>88.0</ele>
                <time>2020-08-30T15:12:21.000Z</time>
                <name>Trackpoint 8262</name>
            </trkpt>
            <trkpt lat="50.0010464" lon="8.3828624">
                <ele>88.0</ele>
                <time>2020-08-30T15:12:22.000Z</time>
                <name>Trackpoint 8263</name>
            </trkpt>
            <trkpt lat="50.0010496" lon="8.3827616">
                <ele>88.0</ele>
                <time>2020-08-30T15:12:23.000Z</time>
                <name>Trackpoint 8264</name>
            </trkpt>
            <trkpt lat="50.0010592" lon="8.382664">
                <ele>88.0</ele>
                <time>2020-08-30T15:12:24.000Z</time>
                <name>Trackpoint 8265</name>
            </trkpt>
            <trkpt lat="50.0010784" lon="8.3825616">
                <ele>88.0</ele>
                <time>2020-08-30T15:12:25.000Z</time>
                <name>Trackpoint 8266</name>
            </trkpt>
            <trkpt lat="50.0010976" lon="8.3824632">
                <ele>88.0</ele>
                <time>2020-08-30T15:12:26.000Z</time>
                <name>Trackpoint 8267</name>
            </trkpt>
            <trkpt lat="50.0011168" lon="8.3823656">
                <ele>88.0</ele>
                <time>2020-08-30T15:12:27.000Z</time>
                <name>Trackpoint 8268</name>
            </trkpt>
            <trkpt lat="50.0011456" lon="8.3822744">
                <ele>88.0</ele>
                <time>2020-08-30T15:12:28.000Z</time>
                <name>Trackpoint 8269</name>
            </trkpt>
            <trkpt lat="50.0012096" lon="8.3821112">
                <ele>88.0</ele>
                <time>2020-08-30T15:12:30.000Z</time>
                <name>Trackpoint 8270</name>
            </trkpt>
            <trkpt lat="50.0012864" lon="8.3819488">
                <ele>87.0</ele>
                <time>2020-08-30T15:12:32.000Z</time>
                <name>Trackpoint 8271</name>
            </trkpt>
            <trkpt lat="50.0013248" lon="8.3818664">
                <ele>88.0</ele>
                <time>2020-08-30T15:12:33.000Z</time>
                <name>Trackpoint 8272</name>
            </trkpt>
            <trkpt lat="50.0013568" lon="8.3817784">
                <ele>88.0</ele>
                <time>2020-08-30T15:12:34.000Z</time>
                <name>Trackpoint 8273</name>
            </trkpt>
            <trkpt lat="50.0013888" lon="8.381688">
                <ele>88.0</ele>
                <time>2020-08-30T15:12:35.000Z</time>
                <name>Trackpoint 8274</name>
            </trkpt>
            <trkpt lat="50.0014144" lon="8.3815984">
                <ele>88.0</ele>
                <time>2020-08-30T15:12:36.000Z</time>
                <name>Trackpoint 8275</name>
            </trkpt>
            <trkpt lat="50.0014432" lon="8.381508">
                <ele>88.0</ele>
                <time>2020-08-30T15:12:37.000Z</time>
                <name>Trackpoint 8276</name>
            </trkpt>
            <trkpt lat="50.0014688" lon="8.3814136">
                <ele>88.0</ele>
                <time>2020-08-30T15:12:38.000Z</time>
                <name>Trackpoint 8277</name>
            </trkpt>
            <trkpt lat="50.0014912" lon="8.38132">
                <ele>88.0</ele>
                <time>2020-08-30T15:12:39.000Z</time>
                <name>Trackpoint 8278</name>
            </trkpt>
            <trkpt lat="50.0015168" lon="8.3812248">
                <ele>88.0</ele>
                <time>2020-08-30T15:12:40.000Z</time>
                <name>Trackpoint 8279</name>
            </trkpt>
            <trkpt lat="50.0015424" lon="8.3811304">
                <ele>88.0</ele>
                <time>2020-08-30T15:12:41.000Z</time>
                <name>Trackpoint 8280</name>
            </trkpt>
            <trkpt lat="50.0015648" lon="8.3810384">
                <ele>88.0</ele>
                <time>2020-08-30T15:12:42.000Z</time>
                <name>Trackpoint 8281</name>
            </trkpt>
            <trkpt lat="50.0015872" lon="8.380948">
                <ele>89.0</ele>
                <time>2020-08-30T15:12:43.000Z</time>
                <name>Trackpoint 8282</name>
            </trkpt>
            <trkpt lat="50.0016064" lon="8.3808536">
                <ele>88.0</ele>
                <time>2020-08-30T15:12:44.000Z</time>
                <name>Trackpoint 8283</name>
            </trkpt>
            <trkpt lat="50.0016256" lon="8.3807624">
                <ele>88.0</ele>
                <time>2020-08-30T15:12:45.000Z</time>
                <name>Trackpoint 8284</name>
            </trkpt>
            <trkpt lat="50.0016448" lon="8.3806664">
                <ele>88.0</ele>
                <time>2020-08-30T15:12:46.000Z</time>
                <name>Trackpoint 8285</name>
            </trkpt>
            <trkpt lat="50.001664" lon="8.3805736">
                <ele>88.0</ele>
                <time>2020-08-30T15:12:47.000Z</time>
                <name>Trackpoint 8286</name>
            </trkpt>
            <trkpt lat="50.0016832" lon="8.38048">
                <ele>88.0</ele>
                <time>2020-08-30T15:12:48.000Z</time>
                <name>Trackpoint 8287</name>
            </trkpt>
            <trkpt lat="50.0017056" lon="8.3803864">
                <ele>88.0</ele>
                <time>2020-08-30T15:12:49.000Z</time>
                <name>Trackpoint 8288</name>
            </trkpt>
            <trkpt lat="50.0017248" lon="8.3802928">
                <ele>87.0</ele>
                <time>2020-08-30T15:12:50.000Z</time>
                <name>Trackpoint 8289</name>
            </trkpt>
            <trkpt lat="50.001744" lon="8.3801984">
                <ele>87.0</ele>
                <time>2020-08-30T15:12:51.000Z</time>
                <name>Trackpoint 8290</name>
            </trkpt>
            <trkpt lat="50.0017632" lon="8.3801032">
                <ele>87.0</ele>
                <time>2020-08-30T15:12:52.000Z</time>
                <name>Trackpoint 8291</name>
            </trkpt>
            <trkpt lat="50.0017824" lon="8.3800096">
                <ele>87.0</ele>
                <time>2020-08-30T15:12:53.000Z</time>
                <name>Trackpoint 8292</name>
            </trkpt>
            <trkpt lat="50.0018048" lon="8.3799184">
                <ele>87.0</ele>
                <time>2020-08-30T15:12:54.000Z</time>
                <name>Trackpoint 8293</name>
            </trkpt>
            <trkpt lat="50.001824" lon="8.3798264">
                <ele>87.0</ele>
                <time>2020-08-30T15:12:55.000Z</time>
                <name>Trackpoint 8294</name>
            </trkpt>
            <trkpt lat="50.0018464" lon="8.379732">
                <ele>87.0</ele>
                <time>2020-08-30T15:12:56.000Z</time>
                <name>Trackpoint 8295</name>
            </trkpt>
            <trkpt lat="50.0018656" lon="8.3796384">
                <ele>87.0</ele>
                <time>2020-08-30T15:12:57.000Z</time>
                <name>Trackpoint 8296</name>
            </trkpt>
            <trkpt lat="50.001888" lon="8.3795456">
                <ele>87.0</ele>
                <time>2020-08-30T15:12:58.000Z</time>
                <name>Trackpoint 8297</name>
            </trkpt>
            <trkpt lat="50.0019072" lon="8.379452">
                <ele>87.0</ele>
                <time>2020-08-30T15:12:59.000Z</time>
                <name>Trackpoint 8298</name>
            </trkpt>
            <trkpt lat="50.0019296" lon="8.37936">
                <ele>87.0</ele>
                <time>2020-08-30T15:13:00.000Z</time>
                <name>Trackpoint 8299</name>
            </trkpt>
            <trkpt lat="50.0019488" lon="8.3792664">
                <ele>87.0</ele>
                <time>2020-08-30T15:13:01.000Z</time>
                <name>Trackpoint 8300</name>
            </trkpt>
            <trkpt lat="50.001968" lon="8.3791704">
                <ele>87.0</ele>
                <time>2020-08-30T15:13:02.000Z</time>
                <name>Trackpoint 8301</name>
            </trkpt>
            <trkpt lat="50.0019808" lon="8.3790728">
                <ele>87.0</ele>
                <time>2020-08-30T15:13:03.000Z</time>
                <name>Trackpoint 8302</name>
            </trkpt>
            <trkpt lat="50.0019936" lon="8.378972">
                <ele>87.0</ele>
                <time>2020-08-30T15:13:04.000Z</time>
                <name>Trackpoint 8303</name>
            </trkpt>
            <trkpt lat="50.0020096" lon="8.3788656">
                <ele>87.0</ele>
                <time>2020-08-30T15:13:05.000Z</time>
                <name>Trackpoint 8304</name>
            </trkpt>
            <trkpt lat="50.0020224" lon="8.3787632">
                <ele>87.0</ele>
                <time>2020-08-30T15:13:06.000Z</time>
                <name>Trackpoint 8305</name>
            </trkpt>
            <trkpt lat="50.002032" lon="8.3786584">
                <ele>87.0</ele>
                <time>2020-08-30T15:13:07.000Z</time>
                <name>Trackpoint 8306</name>
            </trkpt>
            <trkpt lat="50.002048" lon="8.3785536">
                <ele>87.0</ele>
                <time>2020-08-30T15:13:08.000Z</time>
                <name>Trackpoint 8307</name>
            </trkpt>
            <trkpt lat="50.0020608" lon="8.3784536">
                <ele>87.0</ele>
                <time>2020-08-30T15:13:09.000Z</time>
                <name>Trackpoint 8308</name>
            </trkpt>
            <trkpt lat="50.0020736" lon="8.37836">
                <ele>87.0</ele>
                <time>2020-08-30T15:13:10.000Z</time>
                <name>Trackpoint 8309</name>
            </trkpt>
            <trkpt lat="50.0020928" lon="8.3782616">
                <ele>87.0</ele>
                <time>2020-08-30T15:13:11.000Z</time>
                <name>Trackpoint 8310</name>
            </trkpt>
            <trkpt lat="50.002112" lon="8.3781664">
                <ele>87.0</ele>
                <time>2020-08-30T15:13:12.000Z</time>
                <name>Trackpoint 8311</name>
            </trkpt>
            <trkpt lat="50.0021376" lon="8.378072">
                <ele>87.0</ele>
                <time>2020-08-30T15:13:13.000Z</time>
                <name>Trackpoint 8312</name>
            </trkpt>
            <trkpt lat="50.00216" lon="8.377972">
                <ele>87.0</ele>
                <time>2020-08-30T15:13:14.000Z</time>
                <name>Trackpoint 8313</name>
            </trkpt>
            <trkpt lat="50.0021728" lon="8.3778752">
                <ele>87.0</ele>
                <time>2020-08-30T15:13:15.000Z</time>
                <name>Trackpoint 8314</name>
            </trkpt>
            <trkpt lat="50.0021984" lon="8.377784">
                <ele>87.0</ele>
                <time>2020-08-30T15:13:16.000Z</time>
                <name>Trackpoint 8315</name>
            </trkpt>
            <trkpt lat="50.0022176" lon="8.3776912">
                <ele>86.0</ele>
                <time>2020-08-30T15:13:17.000Z</time>
                <name>Trackpoint 8316</name>
            </trkpt>
            <trkpt lat="50.00224" lon="8.3775904">
                <ele>86.0</ele>
                <time>2020-08-30T15:13:18.000Z</time>
                <name>Trackpoint 8317</name>
            </trkpt>
            <trkpt lat="50.0022592" lon="8.377492">
                <ele>86.0</ele>
                <time>2020-08-30T15:13:19.000Z</time>
                <name>Trackpoint 8318</name>
            </trkpt>
            <trkpt lat="50.0022816" lon="8.3773968">
                <ele>86.0</ele>
                <time>2020-08-30T15:13:20.000Z</time>
                <name>Trackpoint 8319</name>
            </trkpt>
            <trkpt lat="50.0022976" lon="8.3773">
                <ele>86.0</ele>
                <time>2020-08-30T15:13:21.000Z</time>
                <name>Trackpoint 8320</name>
            </trkpt>
            <trkpt lat="50.0023168" lon="8.3772072">
                <ele>86.0</ele>
                <time>2020-08-30T15:13:22.000Z</time>
                <name>Trackpoint 8321</name>
            </trkpt>
            <trkpt lat="50.0023392" lon="8.3771096">
                <ele>87.0</ele>
                <time>2020-08-30T15:13:23.000Z</time>
                <name>Trackpoint 8322</name>
            </trkpt>
            <trkpt lat="50.0023584" lon="8.3770168">
                <ele>87.0</ele>
                <time>2020-08-30T15:13:24.000Z</time>
                <name>Trackpoint 8323</name>
            </trkpt>
            <trkpt lat="50.0023776" lon="8.3769216">
                <ele>87.0</ele>
                <time>2020-08-30T15:13:25.000Z</time>
                <name>Trackpoint 8324</name>
            </trkpt>
            <trkpt lat="50.0023968" lon="8.3768264">
                <ele>87.0</ele>
                <time>2020-08-30T15:13:26.000Z</time>
                <name>Trackpoint 8325</name>
            </trkpt>
            <trkpt lat="50.0024192" lon="8.3767344">
                <ele>87.0</ele>
                <time>2020-08-30T15:13:27.000Z</time>
                <name>Trackpoint 8326</name>
            </trkpt>
            <trkpt lat="50.0024384" lon="8.3766432">
                <ele>87.0</ele>
                <time>2020-08-30T15:13:28.000Z</time>
                <name>Trackpoint 8327</name>
            </trkpt>
            <trkpt lat="50.0024576" lon="8.3765496">
                <ele>87.0</ele>
                <time>2020-08-30T15:13:29.000Z</time>
                <name>Trackpoint 8328</name>
            </trkpt>
            <trkpt lat="50.0024704" lon="8.376456">
                <ele>86.0</ele>
                <time>2020-08-30T15:13:30.000Z</time>
                <name>Trackpoint 8329</name>
            </trkpt>
            <trkpt lat="50.0024896" lon="8.3763584">
                <ele>87.0</ele>
                <time>2020-08-30T15:13:31.000Z</time>
                <name>Trackpoint 8330</name>
            </trkpt>
            <trkpt lat="50.0025088" lon="8.3762616">
                <ele>87.0</ele>
                <time>2020-08-30T15:13:32.000Z</time>
                <name>Trackpoint 8331</name>
            </trkpt>
            <trkpt lat="50.002528" lon="8.3761656">
                <ele>87.0</ele>
                <time>2020-08-30T15:13:33.000Z</time>
                <name>Trackpoint 8332</name>
            </trkpt>
            <trkpt lat="50.0025472" lon="8.3760664">
                <ele>87.0</ele>
                <time>2020-08-30T15:13:34.000Z</time>
                <name>Trackpoint 8333</name>
            </trkpt>
            <trkpt lat="50.0025632" lon="8.3759648">
                <ele>87.0</ele>
                <time>2020-08-30T15:13:35.000Z</time>
                <name>Trackpoint 8334</name>
            </trkpt>
            <trkpt lat="50.0025792" lon="8.3758648">
                <ele>87.0</ele>
                <time>2020-08-30T15:13:36.000Z</time>
                <name>Trackpoint 8335</name>
            </trkpt>
            <trkpt lat="50.0025952" lon="8.3757632">
                <ele>87.0</ele>
                <time>2020-08-30T15:13:37.000Z</time>
                <name>Trackpoint 8336</name>
            </trkpt>
            <trkpt lat="50.002608" lon="8.37566">
                <ele>87.0</ele>
                <time>2020-08-30T15:13:38.000Z</time>
                <name>Trackpoint 8337</name>
            </trkpt>
            <trkpt lat="50.002624" lon="8.3755576">
                <ele>87.0</ele>
                <time>2020-08-30T15:13:39.000Z</time>
                <name>Trackpoint 8338</name>
            </trkpt>
            <trkpt lat="50.00264" lon="8.3754552">
                <ele>87.0</ele>
                <time>2020-08-30T15:13:40.000Z</time>
                <name>Trackpoint 8339</name>
            </trkpt>
            <trkpt lat="50.002656" lon="8.3753528">
                <ele>87.0</ele>
                <time>2020-08-30T15:13:41.000Z</time>
                <name>Trackpoint 8340</name>
            </trkpt>
            <trkpt lat="50.0026656" lon="8.375252">
                <ele>87.0</ele>
                <time>2020-08-30T15:13:42.000Z</time>
                <name>Trackpoint 8341</name>
            </trkpt>
            <trkpt lat="50.0026848" lon="8.375152">
                <ele>87.0</ele>
                <time>2020-08-30T15:13:43.000Z</time>
                <name>Trackpoint 8342</name>
            </trkpt>
            <trkpt lat="50.0027008" lon="8.3750512">
                <ele>88.0</ele>
                <time>2020-08-30T15:13:44.000Z</time>
                <name>Trackpoint 8343</name>
            </trkpt>
            <trkpt lat="50.0027168" lon="8.3749512">
                <ele>88.0</ele>
                <time>2020-08-30T15:13:45.000Z</time>
                <name>Trackpoint 8344</name>
            </trkpt>
            <trkpt lat="50.0027328" lon="8.3748504">
                <ele>88.0</ele>
                <time>2020-08-30T15:13:46.000Z</time>
                <name>Trackpoint 8345</name>
            </trkpt>
            <trkpt lat="50.0027456" lon="8.374748">
                <ele>87.0</ele>
                <time>2020-08-30T15:13:47.000Z</time>
                <name>Trackpoint 8346</name>
            </trkpt>
            <trkpt lat="50.0027616" lon="8.3746456">
                <ele>87.0</ele>
                <time>2020-08-30T15:13:48.000Z</time>
                <name>Trackpoint 8347</name>
            </trkpt>
            <trkpt lat="50.0027776" lon="8.3745416">
                <ele>87.0</ele>
                <time>2020-08-30T15:13:49.000Z</time>
                <name>Trackpoint 8348</name>
            </trkpt>
            <trkpt lat="50.0027968" lon="8.37444">
                <ele>87.0</ele>
                <time>2020-08-30T15:13:50.000Z</time>
                <name>Trackpoint 8349</name>
            </trkpt>
            <trkpt lat="50.0028128" lon="8.37434">
                <ele>87.0</ele>
                <time>2020-08-30T15:13:51.000Z</time>
                <name>Trackpoint 8350</name>
            </trkpt>
            <trkpt lat="50.0028256" lon="8.3742368">
                <ele>87.0</ele>
                <time>2020-08-30T15:13:52.000Z</time>
                <name>Trackpoint 8351</name>
            </trkpt>
            <trkpt lat="50.0028384" lon="8.3741328">
                <ele>87.0</ele>
                <time>2020-08-30T15:13:53.000Z</time>
                <name>Trackpoint 8352</name>
            </trkpt>
            <trkpt lat="50.002848" lon="8.374028">
                <ele>87.0</ele>
                <time>2020-08-30T15:13:54.000Z</time>
                <name>Trackpoint 8353</name>
            </trkpt>
            <trkpt lat="50.0028608" lon="8.3739256">
                <ele>87.0</ele>
                <time>2020-08-30T15:13:55.000Z</time>
                <name>Trackpoint 8354</name>
            </trkpt>
            <trkpt lat="50.0028672" lon="8.37382">
                <ele>88.0</ele>
                <time>2020-08-30T15:13:56.000Z</time>
                <name>Trackpoint 8355</name>
            </trkpt>
            <trkpt lat="50.0028768" lon="8.3737232">
                <ele>88.0</ele>
                <time>2020-08-30T15:13:57.000Z</time>
                <name>Trackpoint 8356</name>
            </trkpt>
            <trkpt lat="50.0028832" lon="8.3736296">
                <ele>89.0</ele>
                <time>2020-08-30T15:13:58.000Z</time>
                <name>Trackpoint 8357</name>
            </trkpt>
            <trkpt lat="50.0028992" lon="8.3734552">
                <ele>88.0</ele>
                <time>2020-08-30T15:14:00.000Z</time>
                <name>Trackpoint 8358</name>
            </trkpt>
            <trkpt lat="50.0029248" lon="8.3732752">
                <ele>88.0</ele>
                <time>2020-08-30T15:14:02.000Z</time>
                <name>Trackpoint 8359</name>
            </trkpt>
            <trkpt lat="50.0029408" lon="8.37318">
                <ele>88.0</ele>
                <time>2020-08-30T15:14:03.000Z</time>
                <name>Trackpoint 8360</name>
            </trkpt>
            <trkpt lat="50.0029536" lon="8.3730872">
                <ele>88.0</ele>
                <time>2020-08-30T15:14:04.000Z</time>
                <name>Trackpoint 8361</name>
            </trkpt>
            <trkpt lat="50.0029664" lon="8.3729952">
                <ele>88.0</ele>
                <time>2020-08-30T15:14:05.000Z</time>
                <name>Trackpoint 8362</name>
            </trkpt>
            <trkpt lat="50.0029824" lon="8.3729032">
                <ele>88.0</ele>
                <time>2020-08-30T15:14:06.000Z</time>
                <name>Trackpoint 8363</name>
            </trkpt>
            <trkpt lat="50.0029952" lon="8.3728136">
                <ele>88.0</ele>
                <time>2020-08-30T15:14:07.000Z</time>
                <name>Trackpoint 8364</name>
            </trkpt>
            <trkpt lat="50.0030016" lon="8.3727232">
                <ele>88.0</ele>
                <time>2020-08-30T15:14:08.000Z</time>
                <name>Trackpoint 8365</name>
            </trkpt>
            <trkpt lat="50.0030112" lon="8.3726328">
                <ele>88.0</ele>
                <time>2020-08-30T15:14:09.000Z</time>
                <name>Trackpoint 8366</name>
            </trkpt>
            <trkpt lat="50.003024" lon="8.3724584">
                <ele>87.0</ele>
                <time>2020-08-30T15:14:11.000Z</time>
                <name>Trackpoint 8367</name>
            </trkpt>
            <trkpt lat="50.0030528" lon="8.3722824">
                <ele>87.0</ele>
                <time>2020-08-30T15:14:13.000Z</time>
                <name>Trackpoint 8368</name>
            </trkpt>
            <trkpt lat="50.0030592" lon="8.3721904">
                <ele>87.0</ele>
                <time>2020-08-30T15:14:14.000Z</time>
                <name>Trackpoint 8369</name>
            </trkpt>
            <trkpt lat="50.0030656" lon="8.3721">
                <ele>87.0</ele>
                <time>2020-08-30T15:14:15.000Z</time>
                <name>Trackpoint 8370</name>
            </trkpt>
            <trkpt lat="50.0030752" lon="8.372008">
                <ele>87.0</ele>
                <time>2020-08-30T15:14:16.000Z</time>
                <name>Trackpoint 8371</name>
            </trkpt>
            <trkpt lat="50.0030816" lon="8.3718256">
                <ele>87.0</ele>
                <time>2020-08-30T15:14:18.000Z</time>
                <name>Trackpoint 8372</name>
            </trkpt>
            <trkpt lat="50.0030816" lon="8.3717336">
                <ele>87.0</ele>
                <time>2020-08-30T15:14:19.000Z</time>
                <name>Trackpoint 8373</name>
            </trkpt>
            <trkpt lat="50.0030816" lon="8.3716424">
                <ele>88.0</ele>
                <time>2020-08-30T15:14:20.000Z</time>
                <name>Trackpoint 8374</name>
            </trkpt>
            <trkpt lat="50.0030848" lon="8.3715496">
                <ele>88.0</ele>
                <time>2020-08-30T15:14:21.000Z</time>
                <name>Trackpoint 8375</name>
            </trkpt>
            <trkpt lat="50.0030944" lon="8.3713712">
                <ele>88.0</ele>
                <time>2020-08-30T15:14:23.000Z</time>
                <name>Trackpoint 8376</name>
            </trkpt>
            <trkpt lat="50.0030976" lon="8.37128">
                <ele>88.0</ele>
                <time>2020-08-30T15:14:24.000Z</time>
                <name>Trackpoint 8377</name>
            </trkpt>
            <trkpt lat="50.0031104" lon="8.3711048">
                <ele>88.0</ele>
                <time>2020-08-30T15:14:26.000Z</time>
                <name>Trackpoint 8378</name>
            </trkpt>
            <trkpt lat="50.0031168" lon="8.370932">
                <ele>88.0</ele>
                <time>2020-08-30T15:14:28.000Z</time>
                <name>Trackpoint 8379</name>
            </trkpt>
            <trkpt lat="50.0031168" lon="8.3708416">
                <ele>88.0</ele>
                <time>2020-08-30T15:14:29.000Z</time>
                <name>Trackpoint 8380</name>
            </trkpt>
            <trkpt lat="50.00312" lon="8.3706664">
                <ele>88.0</ele>
                <time>2020-08-30T15:14:31.000Z</time>
                <name>Trackpoint 8381</name>
            </trkpt>
            <trkpt lat="50.0031232" lon="8.3704968">
                <ele>88.0</ele>
                <time>2020-08-30T15:14:33.000Z</time>
                <name>Trackpoint 8382</name>
            </trkpt>
            <trkpt lat="50.0031232" lon="8.3703296">
                <ele>88.0</ele>
                <time>2020-08-30T15:14:35.000Z</time>
                <name>Trackpoint 8383</name>
            </trkpt>
            <trkpt lat="50.0031328" lon="8.3701648">
                <ele>88.0</ele>
                <time>2020-08-30T15:14:37.000Z</time>
                <name>Trackpoint 8384</name>
            </trkpt>
            <trkpt lat="50.0031392" lon="8.370004">
                <ele>88.0</ele>
                <time>2020-08-30T15:14:39.000Z</time>
                <name>Trackpoint 8385</name>
            </trkpt>
            <trkpt lat="50.0031424" lon="8.36984">
                <ele>88.0</ele>
                <time>2020-08-30T15:14:41.000Z</time>
                <name>Trackpoint 8386</name>
            </trkpt>
            <trkpt lat="50.0031424" lon="8.3696784">
                <ele>88.0</ele>
                <time>2020-08-30T15:14:43.000Z</time>
                <name>Trackpoint 8387</name>
            </trkpt>
            <trkpt lat="50.0031456" lon="8.3695072">
                <ele>88.0</ele>
                <time>2020-08-30T15:14:45.000Z</time>
                <name>Trackpoint 8388</name>
            </trkpt>
            <trkpt lat="50.003152" lon="8.3693352">
                <ele>88.0</ele>
                <time>2020-08-30T15:14:47.000Z</time>
                <name>Trackpoint 8389</name>
            </trkpt>
            <trkpt lat="50.0031616" lon="8.3691616">
                <ele>88.0</ele>
                <time>2020-08-30T15:14:49.000Z</time>
                <name>Trackpoint 8390</name>
            </trkpt>
            <trkpt lat="50.0031744" lon="8.3689896">
                <ele>88.0</ele>
                <time>2020-08-30T15:14:51.000Z</time>
                <name>Trackpoint 8391</name>
            </trkpt>
            <trkpt lat="50.0031904" lon="8.3688224">
                <ele>88.0</ele>
                <time>2020-08-30T15:14:53.000Z</time>
                <name>Trackpoint 8392</name>
            </trkpt>
            <trkpt lat="50.0032032" lon="8.3686536">
                <ele>88.0</ele>
                <time>2020-08-30T15:14:55.000Z</time>
                <name>Trackpoint 8393</name>
            </trkpt>
            <trkpt lat="50.003216" lon="8.3684856">
                <ele>88.0</ele>
                <time>2020-08-30T15:14:57.000Z</time>
                <name>Trackpoint 8394</name>
            </trkpt>
            <trkpt lat="50.0032224" lon="8.3683184">
                <ele>88.0</ele>
                <time>2020-08-30T15:14:59.000Z</time>
                <name>Trackpoint 8395</name>
            </trkpt>
            <trkpt lat="50.0032352" lon="8.3681496">
                <ele>88.0</ele>
                <time>2020-08-30T15:15:01.000Z</time>
                <name>Trackpoint 8396</name>
            </trkpt>
            <trkpt lat="50.0032416" lon="8.3679816">
                <ele>88.0</ele>
                <time>2020-08-30T15:15:03.000Z</time>
                <name>Trackpoint 8397</name>
            </trkpt>
            <trkpt lat="50.0032512" lon="8.3678168">
                <ele>88.0</ele>
                <time>2020-08-30T15:15:05.000Z</time>
                <name>Trackpoint 8398</name>
            </trkpt>
            <trkpt lat="50.0032608" lon="8.3676552">
                <ele>88.0</ele>
                <time>2020-08-30T15:15:07.000Z</time>
                <name>Trackpoint 8399</name>
            </trkpt>
            <trkpt lat="50.0032704" lon="8.3674936">
                <ele>88.0</ele>
                <time>2020-08-30T15:15:09.000Z</time>
                <name>Trackpoint 8400</name>
            </trkpt>
            <trkpt lat="50.0032736" lon="8.3673288">
                <ele>87.0</ele>
                <time>2020-08-30T15:15:11.000Z</time>
                <name>Trackpoint 8401</name>
            </trkpt>
            <trkpt lat="50.0032768" lon="8.3671648">
                <ele>87.0</ele>
                <time>2020-08-30T15:15:13.000Z</time>
                <name>Trackpoint 8402</name>
            </trkpt>
            <trkpt lat="50.0032736" lon="8.3670016">
                <ele>87.0</ele>
                <time>2020-08-30T15:15:15.000Z</time>
                <name>Trackpoint 8403</name>
            </trkpt>
            <trkpt lat="50.0032704" lon="8.3668368">
                <ele>87.0</ele>
                <time>2020-08-30T15:15:17.000Z</time>
                <name>Trackpoint 8404</name>
            </trkpt>
            <trkpt lat="50.0032736" lon="8.3666736">
                <ele>87.0</ele>
                <time>2020-08-30T15:15:19.000Z</time>
                <name>Trackpoint 8405</name>
            </trkpt>
            <trkpt lat="50.0032704" lon="8.3665112">
                <ele>87.0</ele>
                <time>2020-08-30T15:15:21.000Z</time>
                <name>Trackpoint 8406</name>
            </trkpt>
            <trkpt lat="50.0032608" lon="8.3663464">
                <ele>87.0</ele>
                <time>2020-08-30T15:15:23.000Z</time>
                <name>Trackpoint 8407</name>
            </trkpt>
            <trkpt lat="50.0032512" lon="8.3661768">
                <ele>88.0</ele>
                <time>2020-08-30T15:15:25.000Z</time>
                <name>Trackpoint 8408</name>
            </trkpt>
            <trkpt lat="50.0032416" lon="8.3660136">
                <ele>88.0</ele>
                <time>2020-08-30T15:15:27.000Z</time>
                <name>Trackpoint 8409</name>
            </trkpt>
            <trkpt lat="50.0032352" lon="8.3658536">
                <ele>88.0</ele>
                <time>2020-08-30T15:15:29.000Z</time>
                <name>Trackpoint 8410</name>
            </trkpt>
            <trkpt lat="50.0032224" lon="8.3656952">
                <ele>88.0</ele>
                <time>2020-08-30T15:15:31.000Z</time>
                <name>Trackpoint 8411</name>
            </trkpt>
            <trkpt lat="50.0032128" lon="8.3655392">
                <ele>88.0</ele>
                <time>2020-08-30T15:15:33.000Z</time>
                <name>Trackpoint 8412</name>
            </trkpt>
            <trkpt lat="50.0032" lon="8.36538">
                <ele>88.0</ele>
                <time>2020-08-30T15:15:35.000Z</time>
                <name>Trackpoint 8413</name>
            </trkpt>
            <trkpt lat="50.0031936" lon="8.3652184">
                <ele>88.0</ele>
                <time>2020-08-30T15:15:37.000Z</time>
                <name>Trackpoint 8414</name>
            </trkpt>
            <trkpt lat="50.0031808" lon="8.3650648">
                <ele>88.0</ele>
                <time>2020-08-30T15:15:39.000Z</time>
                <name>Trackpoint 8415</name>
            </trkpt>
            <trkpt lat="50.0031712" lon="8.3649152">
                <ele>88.0</ele>
                <time>2020-08-30T15:15:41.000Z</time>
                <name>Trackpoint 8416</name>
            </trkpt>
            <trkpt lat="50.0031584" lon="8.3647616">
                <ele>88.0</ele>
                <time>2020-08-30T15:15:43.000Z</time>
                <name>Trackpoint 8417</name>
            </trkpt>
            <trkpt lat="50.0031456" lon="8.3646096">
                <ele>88.0</ele>
                <time>2020-08-30T15:15:45.000Z</time>
                <name>Trackpoint 8418</name>
            </trkpt>
            <trkpt lat="50.003136" lon="8.3644568">
                <ele>89.0</ele>
                <time>2020-08-30T15:15:47.000Z</time>
                <name>Trackpoint 8419</name>
            </trkpt>
            <trkpt lat="50.0031232" lon="8.3642976">
                <ele>89.0</ele>
                <time>2020-08-30T15:15:49.000Z</time>
                <name>Trackpoint 8420</name>
            </trkpt>
            <trkpt lat="50.0031104" lon="8.3641504">
                <ele>89.0</ele>
                <time>2020-08-30T15:15:51.000Z</time>
                <name>Trackpoint 8421</name>
            </trkpt>
            <trkpt lat="50.003104" lon="8.3640072">
                <ele>89.0</ele>
                <time>2020-08-30T15:15:53.000Z</time>
                <name>Trackpoint 8422</name>
            </trkpt>
            <trkpt lat="50.0031008" lon="8.3638712">
                <ele>89.0</ele>
                <time>2020-08-30T15:15:55.000Z</time>
                <name>Trackpoint 8423</name>
            </trkpt>
            <trkpt lat="50.0030944" lon="8.3637312">
                <ele>89.0</ele>
                <time>2020-08-30T15:15:57.000Z</time>
                <name>Trackpoint 8424</name>
            </trkpt>
            <trkpt lat="50.0030848" lon="8.3635856">
                <ele>90.0</ele>
                <time>2020-08-30T15:15:59.000Z</time>
                <name>Trackpoint 8425</name>
            </trkpt>
            <trkpt lat="50.0030784" lon="8.3634368">
                <ele>90.0</ele>
                <time>2020-08-30T15:16:01.000Z</time>
                <name>Trackpoint 8426</name>
            </trkpt>
            <trkpt lat="50.0030752" lon="8.363292">
                <ele>91.0</ele>
                <time>2020-08-30T15:16:03.000Z</time>
                <name>Trackpoint 8427</name>
            </trkpt>
            <trkpt lat="50.0030624" lon="8.36314">
                <ele>90.0</ele>
                <time>2020-08-30T15:16:05.000Z</time>
                <name>Trackpoint 8428</name>
            </trkpt>
            <trkpt lat="50.0030464" lon="8.3629888">
                <ele>90.0</ele>
                <time>2020-08-30T15:16:07.000Z</time>
                <name>Trackpoint 8429</name>
            </trkpt>
            <trkpt lat="50.0030304" lon="8.3628304">
                <ele>90.0</ele>
                <time>2020-08-30T15:16:09.000Z</time>
                <name>Trackpoint 8430</name>
            </trkpt>
            <trkpt lat="50.0030144" lon="8.3626736">
                <ele>90.0</ele>
                <time>2020-08-30T15:16:11.000Z</time>
                <name>Trackpoint 8431</name>
            </trkpt>
            <trkpt lat="50.0029952" lon="8.3625088">
                <ele>90.0</ele>
                <time>2020-08-30T15:16:13.000Z</time>
                <name>Trackpoint 8432</name>
            </trkpt>
            <trkpt lat="50.0029728" lon="8.3623488">
                <ele>90.0</ele>
                <time>2020-08-30T15:16:15.000Z</time>
                <name>Trackpoint 8433</name>
            </trkpt>
            <trkpt lat="50.0029472" lon="8.3621848">
                <ele>90.0</ele>
                <time>2020-08-30T15:16:17.000Z</time>
                <name>Trackpoint 8434</name>
            </trkpt>
            <trkpt lat="50.0029216" lon="8.362028">
                <ele>90.0</ele>
                <time>2020-08-30T15:16:19.000Z</time>
                <name>Trackpoint 8435</name>
            </trkpt>
            <trkpt lat="50.0029024" lon="8.3618696">
                <ele>90.0</ele>
                <time>2020-08-30T15:16:21.000Z</time>
                <name>Trackpoint 8436</name>
            </trkpt>
            <trkpt lat="50.0028768" lon="8.3617088">
                <ele>89.0</ele>
                <time>2020-08-30T15:16:23.000Z</time>
                <name>Trackpoint 8437</name>
            </trkpt>
            <trkpt lat="50.0028544" lon="8.3615448">
                <ele>89.0</ele>
                <time>2020-08-30T15:16:25.000Z</time>
                <name>Trackpoint 8438</name>
            </trkpt>
            <trkpt lat="50.0028224" lon="8.3613816">
                <ele>89.0</ele>
                <time>2020-08-30T15:16:27.000Z</time>
                <name>Trackpoint 8439</name>
            </trkpt>
            <trkpt lat="50.0027936" lon="8.3612184">
                <ele>89.0</ele>
                <time>2020-08-30T15:16:29.000Z</time>
                <name>Trackpoint 8440</name>
            </trkpt>
            <trkpt lat="50.0027616" lon="8.3610512">
                <ele>89.0</ele>
                <time>2020-08-30T15:16:31.000Z</time>
                <name>Trackpoint 8441</name>
            </trkpt>
            <trkpt lat="50.002736" lon="8.36088">
                <ele>89.0</ele>
                <time>2020-08-30T15:16:33.000Z</time>
                <name>Trackpoint 8442</name>
            </trkpt>
            <trkpt lat="50.002704" lon="8.3607064">
                <ele>89.0</ele>
                <time>2020-08-30T15:16:35.000Z</time>
                <name>Trackpoint 8443</name>
            </trkpt>
            <trkpt lat="50.0026656" lon="8.360532">
                <ele>89.0</ele>
                <time>2020-08-30T15:16:37.000Z</time>
                <name>Trackpoint 8444</name>
            </trkpt>
            <trkpt lat="50.0026272" lon="8.360356">
                <ele>89.0</ele>
                <time>2020-08-30T15:16:39.000Z</time>
                <name>Trackpoint 8445</name>
            </trkpt>
            <trkpt lat="50.0025856" lon="8.360184">
                <ele>89.0</ele>
                <time>2020-08-30T15:16:41.000Z</time>
                <name>Trackpoint 8446</name>
            </trkpt>
            <trkpt lat="50.0025696" lon="8.3600928">
                <ele>89.0</ele>
                <time>2020-08-30T15:16:42.000Z</time>
                <name>Trackpoint 8447</name>
            </trkpt>
            <trkpt lat="50.0025536" lon="8.3600032">
                <ele>88.0</ele>
                <time>2020-08-30T15:16:43.000Z</time>
                <name>Trackpoint 8448</name>
            </trkpt>
            <trkpt lat="50.0025376" lon="8.3599104">
                <ele>88.0</ele>
                <time>2020-08-30T15:16:44.000Z</time>
                <name>Trackpoint 8449</name>
            </trkpt>
            <trkpt lat="50.0025216" lon="8.35982">
                <ele>89.0</ele>
                <time>2020-08-30T15:16:45.000Z</time>
                <name>Trackpoint 8450</name>
            </trkpt>
            <trkpt lat="50.0025024" lon="8.359732">
                <ele>88.0</ele>
                <time>2020-08-30T15:16:46.000Z</time>
                <name>Trackpoint 8451</name>
            </trkpt>
            <trkpt lat="50.0024832" lon="8.35964">
                <ele>88.0</ele>
                <time>2020-08-30T15:16:47.000Z</time>
                <name>Trackpoint 8452</name>
            </trkpt>
            <trkpt lat="50.0024672" lon="8.3595504">
                <ele>88.0</ele>
                <time>2020-08-30T15:16:48.000Z</time>
                <name>Trackpoint 8453</name>
            </trkpt>
            <trkpt lat="50.0024576" lon="8.3594568">
                <ele>88.0</ele>
                <time>2020-08-30T15:16:49.000Z</time>
                <name>Trackpoint 8454</name>
            </trkpt>
            <trkpt lat="50.0024448" lon="8.3593664">
                <ele>88.0</ele>
                <time>2020-08-30T15:16:50.000Z</time>
                <name>Trackpoint 8455</name>
            </trkpt>
            <trkpt lat="50.0024288" lon="8.3592728">
                <ele>88.0</ele>
                <time>2020-08-30T15:16:51.000Z</time>
                <name>Trackpoint 8456</name>
            </trkpt>
            <trkpt lat="50.0024096" lon="8.3591808">
                <ele>88.0</ele>
                <time>2020-08-30T15:16:52.000Z</time>
                <name>Trackpoint 8457</name>
            </trkpt>
            <trkpt lat="50.0023968" lon="8.3590848">
                <ele>88.0</ele>
                <time>2020-08-30T15:16:53.000Z</time>
                <name>Trackpoint 8458</name>
            </trkpt>
            <trkpt lat="50.002384" lon="8.3589888">
                <ele>88.0</ele>
                <time>2020-08-30T15:16:54.000Z</time>
                <name>Trackpoint 8459</name>
            </trkpt>
            <trkpt lat="50.0023712" lon="8.3588936">
                <ele>88.0</ele>
                <time>2020-08-30T15:16:55.000Z</time>
                <name>Trackpoint 8460</name>
            </trkpt>
            <trkpt lat="50.0023616" lon="8.3588">
                <ele>89.0</ele>
                <time>2020-08-30T15:16:56.000Z</time>
                <name>Trackpoint 8461</name>
            </trkpt>
            <trkpt lat="50.0023456" lon="8.358708">
                <ele>89.0</ele>
                <time>2020-08-30T15:16:57.000Z</time>
                <name>Trackpoint 8462</name>
            </trkpt>
            <trkpt lat="50.0023264" lon="8.3586168">
                <ele>89.0</ele>
                <time>2020-08-30T15:16:58.000Z</time>
                <name>Trackpoint 8463</name>
            </trkpt>
            <trkpt lat="50.0022784" lon="8.3584448">
                <ele>88.0</ele>
                <time>2020-08-30T15:17:00.000Z</time>
                <name>Trackpoint 8464</name>
            </trkpt>
            <trkpt lat="50.002224" lon="8.3582752">
                <ele>88.0</ele>
                <time>2020-08-30T15:17:02.000Z</time>
                <name>Trackpoint 8465</name>
            </trkpt>
            <trkpt lat="50.0021696" lon="8.358104">
                <ele>88.0</ele>
                <time>2020-08-30T15:17:04.000Z</time>
                <name>Trackpoint 8466</name>
            </trkpt>
            <trkpt lat="50.002112" lon="8.3579352">
                <ele>88.0</ele>
                <time>2020-08-30T15:17:06.000Z</time>
                <name>Trackpoint 8467</name>
            </trkpt>
            <trkpt lat="50.0020864" lon="8.357848">
                <ele>88.0</ele>
                <time>2020-08-30T15:17:07.000Z</time>
                <name>Trackpoint 8468</name>
            </trkpt>
            <trkpt lat="50.0020384" lon="8.3576768">
                <ele>88.0</ele>
                <time>2020-08-30T15:17:09.000Z</time>
                <name>Trackpoint 8469</name>
            </trkpt>
            <trkpt lat="50.0020096" lon="8.3575896">
                <ele>88.0</ele>
                <time>2020-08-30T15:17:10.000Z</time>
                <name>Trackpoint 8470</name>
            </trkpt>
            <trkpt lat="50.001984" lon="8.3575016">
                <ele>88.0</ele>
                <time>2020-08-30T15:17:11.000Z</time>
                <name>Trackpoint 8471</name>
            </trkpt>
            <trkpt lat="50.0019584" lon="8.3574136">
                <ele>88.0</ele>
                <time>2020-08-30T15:17:12.000Z</time>
                <name>Trackpoint 8472</name>
            </trkpt>
            <trkpt lat="50.001904" lon="8.3572432">
                <ele>87.0</ele>
                <time>2020-08-30T15:17:14.000Z</time>
                <name>Trackpoint 8473</name>
            </trkpt>
            <trkpt lat="50.0018784" lon="8.3571568">
                <ele>87.0</ele>
                <time>2020-08-30T15:17:15.000Z</time>
                <name>Trackpoint 8474</name>
            </trkpt>
            <trkpt lat="50.0018496" lon="8.3570696">
                <ele>87.0</ele>
                <time>2020-08-30T15:17:16.000Z</time>
                <name>Trackpoint 8475</name>
            </trkpt>
            <trkpt lat="50.0017952" lon="8.3568984">
                <ele>87.0</ele>
                <time>2020-08-30T15:17:18.000Z</time>
                <name>Trackpoint 8476</name>
            </trkpt>
            <trkpt lat="50.0017696" lon="8.3568112">
                <ele>87.0</ele>
                <time>2020-08-30T15:17:19.000Z</time>
                <name>Trackpoint 8477</name>
            </trkpt>
            <trkpt lat="50.001744" lon="8.356724">
                <ele>87.0</ele>
                <time>2020-08-30T15:17:20.000Z</time>
                <name>Trackpoint 8478</name>
            </trkpt>
            <trkpt lat="50.00168" lon="8.3565632">
                <ele>87.0</ele>
                <time>2020-08-30T15:17:22.000Z</time>
                <name>Trackpoint 8479</name>
            </trkpt>
            <trkpt lat="50.0016128" lon="8.3564016">
                <ele>87.0</ele>
                <time>2020-08-30T15:17:24.000Z</time>
                <name>Trackpoint 8480</name>
            </trkpt>
            <trkpt lat="50.001536" lon="8.356252">
                <ele>86.0</ele>
                <time>2020-08-30T15:17:26.000Z</time>
                <name>Trackpoint 8481</name>
            </trkpt>
            <trkpt lat="50.0014624" lon="8.3561112">
                <ele>86.0</ele>
                <time>2020-08-30T15:17:28.000Z</time>
                <name>Trackpoint 8482</name>
            </trkpt>
            <trkpt lat="50.0014272" lon="8.3559568">
                <ele>86.0</ele>
                <time>2020-08-30T15:17:30.000Z</time>
                <name>Trackpoint 8483</name>
            </trkpt>
            <trkpt lat="50.0014144" lon="8.3558104">
                <ele>86.0</ele>
                <time>2020-08-30T15:17:32.000Z</time>
                <name>Trackpoint 8484</name>
            </trkpt>
            <trkpt lat="50.0014272" lon="8.3556608">
                <ele>87.0</ele>
                <time>2020-08-30T15:17:34.000Z</time>
                <name>Trackpoint 8485</name>
            </trkpt>
            <trkpt lat="50.0014368" lon="8.3555248">
                <ele>87.0</ele>
                <time>2020-08-30T15:17:36.000Z</time>
                <name>Trackpoint 8486</name>
            </trkpt>
            <trkpt lat="50.0014336" lon="8.3553936">
                <ele>87.0</ele>
                <time>2020-08-30T15:17:38.000Z</time>
                <name>Trackpoint 8487</name>
            </trkpt>
            <trkpt lat="50.0014176" lon="8.3552568">
                <ele>87.0</ele>
                <time>2020-08-30T15:17:40.000Z</time>
                <name>Trackpoint 8488</name>
            </trkpt>
            <trkpt lat="50.0014048" lon="8.3551384">
                <ele>87.0</ele>
                <time>2020-08-30T15:17:42.000Z</time>
                <name>Trackpoint 8489</name>
            </trkpt>
            <trkpt lat="50.0013952" lon="8.3550152">
                <ele>87.0</ele>
                <time>2020-08-30T15:17:44.000Z</time>
                <name>Trackpoint 8490</name>
            </trkpt>
            <trkpt lat="50.001376" lon="8.3548784">
                <ele>87.0</ele>
                <time>2020-08-30T15:17:46.000Z</time>
                <name>Trackpoint 8491</name>
            </trkpt>
            <trkpt lat="50.0013568" lon="8.354736">
                <ele>87.0</ele>
                <time>2020-08-30T15:17:48.000Z</time>
                <name>Trackpoint 8492</name>
            </trkpt>
            <trkpt lat="50.001344" lon="8.3545848">
                <ele>87.0</ele>
                <time>2020-08-30T15:17:50.000Z</time>
                <name>Trackpoint 8493</name>
            </trkpt>
            <trkpt lat="50.0013248" lon="8.3544464">
                <ele>87.0</ele>
                <time>2020-08-30T15:17:52.000Z</time>
                <name>Trackpoint 8494</name>
            </trkpt>
            <trkpt lat="50.0012928" lon="8.3542944">
                <ele>87.0</ele>
                <time>2020-08-30T15:17:54.000Z</time>
                <name>Trackpoint 8495</name>
            </trkpt>
            <trkpt lat="50.0012448" lon="8.3541336">
                <ele>87.0</ele>
                <time>2020-08-30T15:17:56.000Z</time>
                <name>Trackpoint 8496</name>
            </trkpt>
            <trkpt lat="50.001216" lon="8.354036">
                <ele>87.0</ele>
                <time>2020-08-30T15:17:57.000Z</time>
                <name>Trackpoint 8497</name>
            </trkpt>
            <trkpt lat="50.0011904" lon="8.3538784">
                <ele>87.0</ele>
                <time>2020-08-30T15:17:59.000Z</time>
                <name>Trackpoint 8498</name>
            </trkpt>
            <trkpt lat="50.0011648" lon="8.3537104">
                <ele>87.0</ele>
                <time>2020-08-30T15:18:01.000Z</time>
                <name>Trackpoint 8499</name>
            </trkpt>
            <trkpt lat="50.001136" lon="8.3535368">
                <ele>87.0</ele>
                <time>2020-08-30T15:18:03.000Z</time>
                <name>Trackpoint 8500</name>
            </trkpt>
            <trkpt lat="50.0011296" lon="8.3534448">
                <ele>86.0</ele>
                <time>2020-08-30T15:18:04.000Z</time>
                <name>Trackpoint 8501</name>
            </trkpt>
            <trkpt lat="50.0011136" lon="8.3532664">
                <ele>86.0</ele>
                <time>2020-08-30T15:18:06.000Z</time>
                <name>Trackpoint 8502</name>
            </trkpt>
            <trkpt lat="50.0011104" lon="8.3531104">
                <ele>87.0</ele>
                <time>2020-08-30T15:18:08.000Z</time>
                <name>Trackpoint 8503</name>
            </trkpt>
            <trkpt lat="50.0011136" lon="8.3529728">
                <ele>87.0</ele>
                <time>2020-08-30T15:18:10.000Z</time>
                <name>Trackpoint 8504</name>
            </trkpt>
            <trkpt lat="50.00112" lon="8.3528672">
                <ele>87.0</ele>
                <time>2020-08-30T15:18:12.000Z</time>
                <name>Trackpoint 8505</name>
            </trkpt>
            <trkpt lat="50.0011328" lon="8.3527544">
                <ele>88.0</ele>
                <time>2020-08-30T15:18:15.000Z</time>
                <name>Trackpoint 8506</name>
            </trkpt>
            <trkpt lat="50.0011392" lon="8.3526384">
                <ele>87.0</ele>
                <time>2020-08-30T15:18:20.000Z</time>
                <name>Trackpoint 8507</name>
            </trkpt>
            <trkpt lat="50.0011648" lon="8.3525432">
                <ele>88.0</ele>
                <time>2020-08-30T15:18:23.000Z</time>
                <name>Trackpoint 8508</name>
            </trkpt>
            <trkpt lat="50.0011776" lon="8.3524376">
                <ele>89.0</ele>
                <time>2020-08-30T15:18:26.000Z</time>
                <name>Trackpoint 8509</name>
            </trkpt>
            <trkpt lat="50.001184" lon="8.352388">
                <ele>90.0</ele>
                <time>2020-08-30T15:19:34.000Z</time>
                <name>Trackpoint 8517</name>
            </trkpt>
            <trkpt lat="50.0012256" lon="8.3522968">
                <ele>90.0</ele>
                <time>2020-08-30T15:19:36.000Z</time>
                <name>Trackpoint 8518</name>
            </trkpt>
            <trkpt lat="50.0012576" lon="8.3521968">
                <ele>90.0</ele>
                <time>2020-08-30T15:19:38.000Z</time>
                <name>Trackpoint 8519</name>
            </trkpt>
            <trkpt lat="50.001296" lon="8.352088">
                <ele>90.0</ele>
                <time>2020-08-30T15:19:40.000Z</time>
                <name>Trackpoint 8520</name>
            </trkpt>
            <trkpt lat="50.001344" lon="8.3519784">
                <ele>89.0</ele>
                <time>2020-08-30T15:19:42.000Z</time>
                <name>Trackpoint 8521</name>
            </trkpt>
            <trkpt lat="50.0013728" lon="8.35186">
                <ele>89.0</ele>
                <time>2020-08-30T15:19:44.000Z</time>
                <name>Trackpoint 8522</name>
            </trkpt>
            <trkpt lat="50.0014144" lon="8.3517504">
                <ele>90.0</ele>
                <time>2020-08-30T15:19:46.000Z</time>
                <name>Trackpoint 8523</name>
            </trkpt>
            <trkpt lat="50.001456" lon="8.35164">
                <ele>90.0</ele>
                <time>2020-08-30T15:19:48.000Z</time>
                <name>Trackpoint 8524</name>
            </trkpt>
            <trkpt lat="50.0014944" lon="8.3515184">
                <ele>90.0</ele>
                <time>2020-08-30T15:19:50.000Z</time>
                <name>Trackpoint 8525</name>
            </trkpt>
            <trkpt lat="50.001536" lon="8.3514072">
                <ele>90.0</ele>
                <time>2020-08-30T15:19:52.000Z</time>
                <name>Trackpoint 8526</name>
            </trkpt>
            <trkpt lat="50.0015808" lon="8.3512984">
                <ele>90.0</ele>
                <time>2020-08-30T15:19:54.000Z</time>
                <name>Trackpoint 8527</name>
            </trkpt>
            <trkpt lat="50.0016128" lon="8.3512">
                <ele>90.0</ele>
                <time>2020-08-30T15:19:56.000Z</time>
                <name>Trackpoint 8528</name>
            </trkpt>
            <trkpt lat="50.0016448" lon="8.351104">
                <ele>91.0</ele>
                <time>2020-08-30T15:19:58.000Z</time>
                <name>Trackpoint 8529</name>
            </trkpt>
            <trkpt lat="50.0016832" lon="8.3510088">
                <ele>90.0</ele>
                <time>2020-08-30T15:20:00.000Z</time>
                <name>Trackpoint 8530</name>
            </trkpt>
            <trkpt lat="50.0017312" lon="8.350912">
                <ele>91.0</ele>
                <time>2020-08-30T15:20:03.000Z</time>
                <name>Trackpoint 8531</name>
            </trkpt>
            <trkpt lat="50.0017824" lon="8.3508264">
                <ele>91.0</ele>
                <time>2020-08-30T15:20:06.000Z</time>
                <name>Trackpoint 8532</name>
            </trkpt>
            <trkpt lat="50.0018144" lon="8.3507344">
                <ele>92.0</ele>
                <time>2020-08-30T15:20:10.000Z</time>
                <name>Trackpoint 8533</name>
            </trkpt>
            <trkpt lat="50.0017312" lon="8.3506816">
                <ele>93.0</ele>
                <time>2020-08-30T15:20:49.000Z</time>
                <name>Trackpoint 8534</name>
            </trkpt>
            <trkpt lat="50.0016896" lon="8.35058">
                <ele>92.0</ele>
                <time>2020-08-30T15:21:39.000Z</time>
                <name>Trackpoint 8535</name>
            </trkpt>
            <trkpt lat="50.0016864" lon="8.3504896">
                <ele>92.0</ele>
                <time>2020-08-30T15:21:41.000Z</time>
                <name>Trackpoint 8536</name>
            </trkpt>
            <trkpt lat="50.001696" lon="8.3503784">
                <ele>92.0</ele>
                <time>2020-08-30T15:21:43.000Z</time>
                <name>Trackpoint 8537</name>
            </trkpt>
            <trkpt lat="50.0017152" lon="8.3502512">
                <ele>92.0</ele>
                <time>2020-08-30T15:21:45.000Z</time>
                <name>Trackpoint 8538</name>
            </trkpt>
            <trkpt lat="50.0017408" lon="8.350112">
                <ele>92.0</ele>
                <time>2020-08-30T15:21:47.000Z</time>
                <name>Trackpoint 8539</name>
            </trkpt>
            <trkpt lat="50.00176" lon="8.3499616">
                <ele>92.0</ele>
                <time>2020-08-30T15:21:49.000Z</time>
                <name>Trackpoint 8540</name>
            </trkpt>
            <trkpt lat="50.0017728" lon="8.3498024">
                <ele>92.0</ele>
                <time>2020-08-30T15:21:51.000Z</time>
                <name>Trackpoint 8541</name>
            </trkpt>
            <trkpt lat="50.001792" lon="8.3496512">
                <ele>92.0</ele>
                <time>2020-08-30T15:21:53.000Z</time>
                <name>Trackpoint 8542</name>
            </trkpt>
            <trkpt lat="50.0018144" lon="8.3495168">
                <ele>92.0</ele>
                <time>2020-08-30T15:21:55.000Z</time>
                <name>Trackpoint 8543</name>
            </trkpt>
            <trkpt lat="50.00184" lon="8.3493656">
                <ele>91.0</ele>
                <time>2020-08-30T15:21:57.000Z</time>
                <name>Trackpoint 8544</name>
            </trkpt>
            <trkpt lat="50.0018624" lon="8.3492032">
                <ele>91.0</ele>
                <time>2020-08-30T15:21:59.000Z</time>
                <name>Trackpoint 8545</name>
            </trkpt>
            <trkpt lat="50.0018912" lon="8.3490584">
                <ele>91.0</ele>
                <time>2020-08-30T15:22:01.000Z</time>
                <name>Trackpoint 8546</name>
            </trkpt>
            <trkpt lat="50.0019136" lon="8.3489016">
                <ele>91.0</ele>
                <time>2020-08-30T15:22:03.000Z</time>
                <name>Trackpoint 8547</name>
            </trkpt>
            <trkpt lat="50.0019392" lon="8.3487664">
                <ele>91.0</ele>
                <time>2020-08-30T15:22:05.000Z</time>
                <name>Trackpoint 8548</name>
            </trkpt>
            <trkpt lat="50.0019616" lon="8.3486432">
                <ele>91.0</ele>
                <time>2020-08-30T15:22:07.000Z</time>
                <name>Trackpoint 8549</name>
            </trkpt>
            <trkpt lat="50.001984" lon="8.3485096">
                <ele>91.0</ele>
                <time>2020-08-30T15:22:09.000Z</time>
                <name>Trackpoint 8550</name>
            </trkpt>
            <trkpt lat="50.0020032" lon="8.3483896">
                <ele>91.0</ele>
                <time>2020-08-30T15:22:11.000Z</time>
                <name>Trackpoint 8551</name>
            </trkpt>
            <trkpt lat="50.0020192" lon="8.3482336">
                <ele>91.0</ele>
                <time>2020-08-30T15:22:13.000Z</time>
                <name>Trackpoint 8552</name>
            </trkpt>
            <trkpt lat="50.0020384" lon="8.3480832">
                <ele>90.0</ele>
                <time>2020-08-30T15:22:15.000Z</time>
                <name>Trackpoint 8553</name>
            </trkpt>
            <trkpt lat="50.0020608" lon="8.3479496">
                <ele>90.0</ele>
                <time>2020-08-30T15:22:17.000Z</time>
                <name>Trackpoint 8554</name>
            </trkpt>
            <trkpt lat="50.0020864" lon="8.3478">
                <ele>90.0</ele>
                <time>2020-08-30T15:22:19.000Z</time>
                <name>Trackpoint 8555</name>
            </trkpt>
            <trkpt lat="50.0021024" lon="8.3476432">
                <ele>90.0</ele>
                <time>2020-08-30T15:22:21.000Z</time>
                <name>Trackpoint 8556</name>
            </trkpt>
            <trkpt lat="50.0021312" lon="8.3475">
                <ele>90.0</ele>
                <time>2020-08-30T15:22:23.000Z</time>
                <name>Trackpoint 8557</name>
            </trkpt>
            <trkpt lat="50.0021728" lon="8.347372">
                <ele>91.0</ele>
                <time>2020-08-30T15:22:25.000Z</time>
                <name>Trackpoint 8558</name>
            </trkpt>
            <trkpt lat="50.0022112" lon="8.3472368">
                <ele>91.0</ele>
                <time>2020-08-30T15:22:27.000Z</time>
                <name>Trackpoint 8559</name>
            </trkpt>
            <trkpt lat="50.0022464" lon="8.3470824">
                <ele>91.0</ele>
                <time>2020-08-30T15:22:29.000Z</time>
                <name>Trackpoint 8560</name>
            </trkpt>
            <trkpt lat="50.0022624" lon="8.3469912">
                <ele>90.0</ele>
                <time>2020-08-30T15:22:30.000Z</time>
                <name>Trackpoint 8561</name>
            </trkpt>
            <trkpt lat="50.0022848" lon="8.3468288">
                <ele>90.0</ele>
                <time>2020-08-30T15:22:32.000Z</time>
                <name>Trackpoint 8562</name>
            </trkpt>
            <trkpt lat="50.0023072" lon="8.346672">
                <ele>90.0</ele>
                <time>2020-08-30T15:22:34.000Z</time>
                <name>Trackpoint 8563</name>
            </trkpt>
            <trkpt lat="50.002336" lon="8.3464944">
                <ele>91.0</ele>
                <time>2020-08-30T15:22:36.000Z</time>
                <name>Trackpoint 8564</name>
            </trkpt>
            <trkpt lat="50.0023392" lon="8.3463832">
                <ele>91.0</ele>
                <time>2020-08-30T15:22:37.000Z</time>
                <name>Trackpoint 8565</name>
            </trkpt>
            <trkpt lat="50.0023648" lon="8.3462232">
                <ele>91.0</ele>
                <time>2020-08-30T15:22:39.000Z</time>
                <name>Trackpoint 8566</name>
            </trkpt>
            <trkpt lat="50.0023776" lon="8.3460576">
                <ele>91.0</ele>
                <time>2020-08-30T15:22:41.000Z</time>
                <name>Trackpoint 8567</name>
            </trkpt>
            <trkpt lat="50.0023904" lon="8.345968">
                <ele>90.0</ele>
                <time>2020-08-30T15:22:42.000Z</time>
                <name>Trackpoint 8568</name>
            </trkpt>
            <trkpt lat="50.002416" lon="8.345808">
                <ele>90.0</ele>
                <time>2020-08-30T15:22:44.000Z</time>
                <name>Trackpoint 8569</name>
            </trkpt>
            <trkpt lat="50.0024384" lon="8.3456584">
                <ele>90.0</ele>
                <time>2020-08-30T15:22:46.000Z</time>
                <name>Trackpoint 8570</name>
            </trkpt>
            <trkpt lat="50.0024576" lon="8.3454904">
                <ele>90.0</ele>
                <time>2020-08-30T15:22:48.000Z</time>
                <name>Trackpoint 8571</name>
            </trkpt>
            <trkpt lat="50.0024864" lon="8.3453168">
                <ele>90.0</ele>
                <time>2020-08-30T15:22:50.000Z</time>
                <name>Trackpoint 8572</name>
            </trkpt>
            <trkpt lat="50.0025024" lon="8.34522">
                <ele>90.0</ele>
                <time>2020-08-30T15:22:51.000Z</time>
                <name>Trackpoint 8573</name>
            </trkpt>
            <trkpt lat="50.0025184" lon="8.3451296">
                <ele>90.0</ele>
                <time>2020-08-30T15:22:52.000Z</time>
                <name>Trackpoint 8574</name>
            </trkpt>
            <trkpt lat="50.0025216" lon="8.3449984">
                <ele>90.0</ele>
                <time>2020-08-30T15:22:54.000Z</time>
                <name>Trackpoint 8575</name>
            </trkpt>
            <trkpt lat="50.0025376" lon="8.34482">
                <ele>90.0</ele>
                <time>2020-08-30T15:22:56.000Z</time>
                <name>Trackpoint 8576</name>
            </trkpt>
            <trkpt lat="50.0025472" lon="8.3446616">
                <ele>90.0</ele>
                <time>2020-08-30T15:22:58.000Z</time>
                <name>Trackpoint 8577</name>
            </trkpt>
            <trkpt lat="50.00256" lon="8.3445184">
                <ele>90.0</ele>
                <time>2020-08-30T15:23:00.000Z</time>
                <name>Trackpoint 8578</name>
            </trkpt>
            <trkpt lat="50.002576" lon="8.344392">
                <ele>90.0</ele>
                <time>2020-08-30T15:23:02.000Z</time>
                <name>Trackpoint 8579</name>
            </trkpt>
            <trkpt lat="50.0025952" lon="8.3442752">
                <ele>90.0</ele>
                <time>2020-08-30T15:23:04.000Z</time>
                <name>Trackpoint 8580</name>
            </trkpt>
            <trkpt lat="50.002624" lon="8.3441584">
                <ele>90.0</ele>
                <time>2020-08-30T15:23:34.000Z</time>
                <name>Trackpoint 8581</name>
            </trkpt>
            <trkpt lat="50.0026432" lon="8.3440552">
                <ele>90.0</ele>
                <time>2020-08-30T15:23:41.000Z</time>
                <name>Trackpoint 8582</name>
            </trkpt>
            <trkpt lat="50.0026752" lon="8.3439616">
                <ele>90.0</ele>
                <time>2020-08-30T15:23:44.000Z</time>
                <name>Trackpoint 8583</name>
            </trkpt>
            <trkpt lat="50.002688" lon="8.3438656">
                <ele>90.0</ele>
                <time>2020-08-30T15:23:46.000Z</time>
                <name>Trackpoint 8584</name>
            </trkpt>
            <trkpt lat="50.002704" lon="8.3437456">
                <ele>90.0</ele>
                <time>2020-08-30T15:23:48.000Z</time>
                <name>Trackpoint 8585</name>
            </trkpt>
            <trkpt lat="50.00272" lon="8.3436032">
                <ele>91.0</ele>
                <time>2020-08-30T15:23:50.000Z</time>
                <name>Trackpoint 8586</name>
            </trkpt>
            <trkpt lat="50.002736" lon="8.343476">
                <ele>91.0</ele>
                <time>2020-08-30T15:23:52.000Z</time>
                <name>Trackpoint 8587</name>
            </trkpt>
            <trkpt lat="50.0027616" lon="8.3433248">
                <ele>90.0</ele>
                <time>2020-08-30T15:23:54.000Z</time>
                <name>Trackpoint 8588</name>
            </trkpt>
            <trkpt lat="50.0027808" lon="8.3431656">
                <ele>90.0</ele>
                <time>2020-08-30T15:23:56.000Z</time>
                <name>Trackpoint 8589</name>
            </trkpt>
            <trkpt lat="50.0028" lon="8.3430168">
                <ele>90.0</ele>
                <time>2020-08-30T15:23:58.000Z</time>
                <name>Trackpoint 8590</name>
            </trkpt>
            <trkpt lat="50.002816" lon="8.3428488">
                <ele>89.0</ele>
                <time>2020-08-30T15:24:00.000Z</time>
                <name>Trackpoint 8591</name>
            </trkpt>
            <trkpt lat="50.0028416" lon="8.3426936">
                <ele>89.0</ele>
                <time>2020-08-30T15:24:02.000Z</time>
                <name>Trackpoint 8592</name>
            </trkpt>
            <trkpt lat="50.0028736" lon="8.3425448">
                <ele>89.0</ele>
                <time>2020-08-30T15:24:04.000Z</time>
                <name>Trackpoint 8593</name>
            </trkpt>
            <trkpt lat="50.0028928" lon="8.342388">
                <ele>89.0</ele>
                <time>2020-08-30T15:24:06.000Z</time>
                <name>Trackpoint 8594</name>
            </trkpt>
            <trkpt lat="50.002912" lon="8.3422184">
                <ele>89.0</ele>
                <time>2020-08-30T15:24:08.000Z</time>
                <name>Trackpoint 8595</name>
            </trkpt>
            <trkpt lat="50.0029344" lon="8.3420512">
                <ele>90.0</ele>
                <time>2020-08-30T15:24:10.000Z</time>
                <name>Trackpoint 8596</name>
            </trkpt>
            <trkpt lat="50.0029472" lon="8.3418728">
                <ele>91.0</ele>
                <time>2020-08-30T15:24:12.000Z</time>
                <name>Trackpoint 8597</name>
            </trkpt>
            <trkpt lat="50.002976" lon="8.3417016">
                <ele>91.0</ele>
                <time>2020-08-30T15:24:14.000Z</time>
                <name>Trackpoint 8598</name>
            </trkpt>
            <trkpt lat="50.0029952" lon="8.3415248">
                <ele>91.0</ele>
                <time>2020-08-30T15:24:16.000Z</time>
                <name>Trackpoint 8599</name>
            </trkpt>
            <trkpt lat="50.003024" lon="8.3413632">
                <ele>91.0</ele>
                <time>2020-08-30T15:24:18.000Z</time>
                <name>Trackpoint 8600</name>
            </trkpt>
            <trkpt lat="50.003056" lon="8.3411976">
                <ele>91.0</ele>
                <time>2020-08-30T15:24:20.000Z</time>
                <name>Trackpoint 8601</name>
            </trkpt>
            <trkpt lat="50.0030912" lon="8.3410304">
                <ele>91.0</ele>
                <time>2020-08-30T15:24:22.000Z</time>
                <name>Trackpoint 8602</name>
            </trkpt>
            <trkpt lat="50.0031168" lon="8.3408696">
                <ele>90.0</ele>
                <time>2020-08-30T15:24:24.000Z</time>
                <name>Trackpoint 8603</name>
            </trkpt>
            <trkpt lat="50.0031456" lon="8.3407136">
                <ele>90.0</ele>
                <time>2020-08-30T15:24:26.000Z</time>
                <name>Trackpoint 8604</name>
            </trkpt>
            <trkpt lat="50.0031776" lon="8.3405752">
                <ele>90.0</ele>
                <time>2020-08-30T15:24:28.000Z</time>
                <name>Trackpoint 8605</name>
            </trkpt>
            <trkpt lat="50.0032096" lon="8.3404264">
                <ele>90.0</ele>
                <time>2020-08-30T15:24:30.000Z</time>
                <name>Trackpoint 8606</name>
            </trkpt>
            <trkpt lat="50.0032352" lon="8.3402664">
                <ele>90.0</ele>
                <time>2020-08-30T15:24:32.000Z</time>
                <name>Trackpoint 8607</name>
            </trkpt>
            <trkpt lat="50.0032384" lon="8.3401648">
                <ele>90.0</ele>
                <time>2020-08-30T15:24:33.000Z</time>
                <name>Trackpoint 8608</name>
            </trkpt>
            <trkpt lat="50.0032704" lon="8.34002">
                <ele>90.0</ele>
                <time>2020-08-30T15:24:35.000Z</time>
                <name>Trackpoint 8609</name>
            </trkpt>
            <trkpt lat="50.0033024" lon="8.3399048">
                <ele>90.0</ele>
                <time>2020-08-30T15:24:37.000Z</time>
                <name>Trackpoint 8610</name>
            </trkpt>
            <trkpt lat="50.0033344" lon="8.3398136">
                <ele>90.0</ele>
                <time>2020-08-30T15:24:41.000Z</time>
                <name>Trackpoint 8611</name>
            </trkpt>
            <trkpt lat="50.0033728" lon="8.3396864">
                <ele>90.0</ele>
                <time>2020-08-30T15:24:46.000Z</time>
                <name>Trackpoint 8612</name>
            </trkpt>
            <trkpt lat="50.003408" lon="8.3396016">
                <ele>91.0</ele>
                <time>2020-08-30T15:24:48.000Z</time>
                <name>Trackpoint 8613</name>
            </trkpt>
            <trkpt lat="50.003408" lon="8.3395032">
                <ele>90.0</ele>
                <time>2020-08-30T15:24:49.000Z</time>
                <name>Trackpoint 8614</name>
            </trkpt>
            <trkpt lat="50.0034176" lon="8.3393248">
                <ele>90.0</ele>
                <time>2020-08-30T15:24:51.000Z</time>
                <name>Trackpoint 8615</name>
            </trkpt>
            <trkpt lat="50.0034304" lon="8.3391712">
                <ele>90.0</ele>
                <time>2020-08-30T15:24:53.000Z</time>
                <name>Trackpoint 8616</name>
            </trkpt>
            <trkpt lat="50.0034368" lon="8.33908">
                <ele>90.0</ele>
                <time>2020-08-30T15:24:54.000Z</time>
                <name>Trackpoint 8617</name>
            </trkpt>
            <trkpt lat="50.0034784" lon="8.3389256">
                <ele>90.0</ele>
                <time>2020-08-30T15:24:56.000Z</time>
                <name>Trackpoint 8618</name>
            </trkpt>
            <trkpt lat="50.0035168" lon="8.338792">
                <ele>90.0</ele>
                <time>2020-08-30T15:24:58.000Z</time>
                <name>Trackpoint 8619</name>
            </trkpt>
            <trkpt lat="50.003552" lon="8.33866">
                <ele>90.0</ele>
                <time>2020-08-30T15:25:00.000Z</time>
                <name>Trackpoint 8620</name>
            </trkpt>
            <trkpt lat="50.0035936" lon="8.3385184">
                <ele>89.0</ele>
                <time>2020-08-30T15:25:02.000Z</time>
                <name>Trackpoint 8621</name>
            </trkpt>
            <trkpt lat="50.0036192" lon="8.3383504">
                <ele>90.0</ele>
                <time>2020-08-30T15:25:04.000Z</time>
                <name>Trackpoint 8622</name>
            </trkpt>
            <trkpt lat="50.0036544" lon="8.338208">
                <ele>90.0</ele>
                <time>2020-08-30T15:25:06.000Z</time>
                <name>Trackpoint 8623</name>
            </trkpt>
            <trkpt lat="50.0036864" lon="8.3380848">
                <ele>90.0</ele>
                <time>2020-08-30T15:25:08.000Z</time>
                <name>Trackpoint 8624</name>
            </trkpt>
            <trkpt lat="50.0037152" lon="8.3379784">
                <ele>90.0</ele>
                <time>2020-08-30T15:25:10.000Z</time>
                <name>Trackpoint 8625</name>
            </trkpt>
            <trkpt lat="50.0037536" lon="8.3378696">
                <ele>90.0</ele>
                <time>2020-08-30T15:25:12.000Z</time>
                <name>Trackpoint 8626</name>
            </trkpt>
            <trkpt lat="50.0037888" lon="8.3377416">
                <ele>90.0</ele>
                <time>2020-08-30T15:25:14.000Z</time>
                <name>Trackpoint 8627</name>
            </trkpt>
            <trkpt lat="50.003808" lon="8.3376112">
                <ele>90.0</ele>
                <time>2020-08-30T15:25:16.000Z</time>
                <name>Trackpoint 8628</name>
            </trkpt>
            <trkpt lat="50.0038144" lon="8.3375128">
                <ele>90.0</ele>
                <time>2020-08-30T15:25:17.000Z</time>
                <name>Trackpoint 8629</name>
            </trkpt>
            <trkpt lat="50.00384" lon="8.3373648">
                <ele>90.0</ele>
                <time>2020-08-30T15:25:19.000Z</time>
                <name>Trackpoint 8630</name>
            </trkpt>
            <trkpt lat="50.0038688" lon="8.3372288">
                <ele>91.0</ele>
                <time>2020-08-30T15:25:21.000Z</time>
                <name>Trackpoint 8631</name>
            </trkpt>
            <trkpt lat="50.003904" lon="8.3370952">
                <ele>91.0</ele>
                <time>2020-08-30T15:25:23.000Z</time>
                <name>Trackpoint 8632</name>
            </trkpt>
            <trkpt lat="50.003936" lon="8.3369704">
                <ele>92.0</ele>
                <time>2020-08-30T15:25:25.000Z</time>
                <name>Trackpoint 8633</name>
            </trkpt>
            <trkpt lat="50.003968" lon="8.336828">
                <ele>92.0</ele>
                <time>2020-08-30T15:25:27.000Z</time>
                <name>Trackpoint 8634</name>
            </trkpt>
            <trkpt lat="50.0040064" lon="8.3367016">
                <ele>91.0</ele>
                <time>2020-08-30T15:25:29.000Z</time>
                <name>Trackpoint 8635</name>
            </trkpt>
            <trkpt lat="50.0040384" lon="8.3365672">
                <ele>92.0</ele>
                <time>2020-08-30T15:25:31.000Z</time>
                <name>Trackpoint 8636</name>
            </trkpt>
            <trkpt lat="50.0040736" lon="8.3364248">
                <ele>92.0</ele>
                <time>2020-08-30T15:25:33.000Z</time>
                <name>Trackpoint 8637</name>
            </trkpt>
            <trkpt lat="50.0041152" lon="8.3362912">
                <ele>92.0</ele>
                <time>2020-08-30T15:25:35.000Z</time>
                <name>Trackpoint 8638</name>
            </trkpt>
            <trkpt lat="50.0041536" lon="8.3361552">
                <ele>92.0</ele>
                <time>2020-08-30T15:25:37.000Z</time>
                <name>Trackpoint 8639</name>
            </trkpt>
            <trkpt lat="50.0041888" lon="8.3360016">
                <ele>92.0</ele>
                <time>2020-08-30T15:25:39.000Z</time>
                <name>Trackpoint 8640</name>
            </trkpt>
            <trkpt lat="50.0042176" lon="8.3358496">
                <ele>93.0</ele>
                <time>2020-08-30T15:25:41.000Z</time>
                <name>Trackpoint 8641</name>
            </trkpt>
            <trkpt lat="50.0042528" lon="8.3357032">
                <ele>94.0</ele>
                <time>2020-08-30T15:25:43.000Z</time>
                <name>Trackpoint 8642</name>
            </trkpt>
            <trkpt lat="50.0042848" lon="8.3355712">
                <ele>95.0</ele>
                <time>2020-08-30T15:25:45.000Z</time>
                <name>Trackpoint 8643</name>
            </trkpt>
            <trkpt lat="50.0043136" lon="8.3354264">
                <ele>97.0</ele>
                <time>2020-08-30T15:25:47.000Z</time>
                <name>Trackpoint 8644</name>
            </trkpt>
            <trkpt lat="50.0043328" lon="8.3353368">
                <ele>95.0</ele>
                <time>2020-08-30T15:25:48.000Z</time>
                <name>Trackpoint 8645</name>
            </trkpt>
            <trkpt lat="50.0043744" lon="8.3351784">
                <ele>94.0</ele>
                <time>2020-08-30T15:25:50.000Z</time>
                <name>Trackpoint 8646</name>
            </trkpt>
            <trkpt lat="50.0043968" lon="8.3350112">
                <ele>94.0</ele>
                <time>2020-08-30T15:25:52.000Z</time>
                <name>Trackpoint 8647</name>
            </trkpt>
            <trkpt lat="50.0044352" lon="8.3348528">
                <ele>93.0</ele>
                <time>2020-08-30T15:25:54.000Z</time>
                <name>Trackpoint 8648</name>
            </trkpt>
            <trkpt lat="50.0044448" lon="8.3346752">
                <ele>92.0</ele>
                <time>2020-08-30T15:25:56.000Z</time>
                <name>Trackpoint 8649</name>
            </trkpt>
            <trkpt lat="50.0044416" lon="8.3345568">
                <ele>92.0</ele>
                <time>2020-08-30T15:25:57.000Z</time>
                <name>Trackpoint 8650</name>
            </trkpt>
            <trkpt lat="50.004448" lon="8.3343936">
                <ele>92.0</ele>
                <time>2020-08-30T15:25:59.000Z</time>
                <name>Trackpoint 8651</name>
            </trkpt>
            <trkpt lat="50.004448" lon="8.3342088">
                <ele>92.0</ele>
                <time>2020-08-30T15:26:01.000Z</time>
                <name>Trackpoint 8652</name>
            </trkpt>
            <trkpt lat="50.004448" lon="8.3341104">
                <ele>92.0</ele>
                <time>2020-08-30T15:26:02.000Z</time>
                <name>Trackpoint 8653</name>
            </trkpt>
            <trkpt lat="50.0044544" lon="8.3339432">
                <ele>91.0</ele>
                <time>2020-08-30T15:26:04.000Z</time>
                <name>Trackpoint 8654</name>
            </trkpt>
            <trkpt lat="50.0044512" lon="8.3338472">
                <ele>92.0</ele>
                <time>2020-08-30T15:26:05.000Z</time>
                <name>Trackpoint 8655</name>
            </trkpt>
            <trkpt lat="50.0044512" lon="8.33368">
                <ele>92.0</ele>
                <time>2020-08-30T15:26:07.000Z</time>
                <name>Trackpoint 8656</name>
            </trkpt>
            <trkpt lat="50.0044512" lon="8.333524">
                <ele>91.0</ele>
                <time>2020-08-30T15:26:09.000Z</time>
                <name>Trackpoint 8657</name>
            </trkpt>
            <trkpt lat="50.0044544" lon="8.3333632">
                <ele>91.0</ele>
                <time>2020-08-30T15:26:11.000Z</time>
                <name>Trackpoint 8658</name>
            </trkpt>
            <trkpt lat="50.0044544" lon="8.3332728">
                <ele>92.0</ele>
                <time>2020-08-30T15:26:12.000Z</time>
                <name>Trackpoint 8659</name>
            </trkpt>
            <trkpt lat="50.0044672" lon="8.333112">
                <ele>92.0</ele>
                <time>2020-08-30T15:26:14.000Z</time>
                <name>Trackpoint 8660</name>
            </trkpt>
            <trkpt lat="50.0044672" lon="8.3329312">
                <ele>92.0</ele>
                <time>2020-08-30T15:26:16.000Z</time>
                <name>Trackpoint 8661</name>
            </trkpt>
            <trkpt lat="50.004464" lon="8.3328384">
                <ele>92.0</ele>
                <time>2020-08-30T15:26:17.000Z</time>
                <name>Trackpoint 8662</name>
            </trkpt>
            <trkpt lat="50.004464" lon="8.3326656">
                <ele>92.0</ele>
                <time>2020-08-30T15:26:19.000Z</time>
                <name>Trackpoint 8663</name>
            </trkpt>
            <trkpt lat="50.004464" lon="8.3324872">
                <ele>92.0</ele>
                <time>2020-08-30T15:26:21.000Z</time>
                <name>Trackpoint 8664</name>
            </trkpt>
            <trkpt lat="50.0044544" lon="8.3323968">
                <ele>92.0</ele>
                <time>2020-08-30T15:26:22.000Z</time>
                <name>Trackpoint 8665</name>
            </trkpt>
            <trkpt lat="50.0044512" lon="8.332216">
                <ele>92.0</ele>
                <time>2020-08-30T15:26:24.000Z</time>
                <name>Trackpoint 8666</name>
            </trkpt>
            <trkpt lat="50.0044512" lon="8.3320448">
                <ele>92.0</ele>
                <time>2020-08-30T15:26:26.000Z</time>
                <name>Trackpoint 8667</name>
            </trkpt>
            <trkpt lat="50.0044512" lon="8.3318728">
                <ele>92.0</ele>
                <time>2020-08-30T15:26:28.000Z</time>
                <name>Trackpoint 8668</name>
            </trkpt>
            <trkpt lat="50.0044512" lon="8.3317048">
                <ele>92.0</ele>
                <time>2020-08-30T15:26:30.000Z</time>
                <name>Trackpoint 8669</name>
            </trkpt>
            <trkpt lat="50.004448" lon="8.3315336">
                <ele>92.0</ele>
                <time>2020-08-30T15:26:32.000Z</time>
                <name>Trackpoint 8670</name>
            </trkpt>
            <trkpt lat="50.0044448" lon="8.3313648">
                <ele>92.0</ele>
                <time>2020-08-30T15:26:34.000Z</time>
                <name>Trackpoint 8671</name>
            </trkpt>
            <trkpt lat="50.0044448" lon="8.3312016">
                <ele>92.0</ele>
                <time>2020-08-30T15:26:36.000Z</time>
                <name>Trackpoint 8672</name>
            </trkpt>
            <trkpt lat="50.0044416" lon="8.3310368">
                <ele>92.0</ele>
                <time>2020-08-30T15:26:38.000Z</time>
                <name>Trackpoint 8673</name>
            </trkpt>
            <trkpt lat="50.0044416" lon="8.3308784">
                <ele>92.0</ele>
                <time>2020-08-30T15:26:40.000Z</time>
                <name>Trackpoint 8674</name>
            </trkpt>
            <trkpt lat="50.0044352" lon="8.3307288">
                <ele>92.0</ele>
                <time>2020-08-30T15:26:42.000Z</time>
                <name>Trackpoint 8675</name>
            </trkpt>
            <trkpt lat="50.0044352" lon="8.3305912">
                <ele>92.0</ele>
                <time>2020-08-30T15:26:44.000Z</time>
                <name>Trackpoint 8676</name>
            </trkpt>
            <trkpt lat="50.0044352" lon="8.3304656">
                <ele>93.0</ele>
                <time>2020-08-30T15:26:46.000Z</time>
                <name>Trackpoint 8677</name>
            </trkpt>
            <trkpt lat="50.004432" lon="8.3303384">
                <ele>93.0</ele>
                <time>2020-08-30T15:26:48.000Z</time>
                <name>Trackpoint 8678</name>
            </trkpt>
            <trkpt lat="50.0044288" lon="8.3302096">
                <ele>92.0</ele>
                <time>2020-08-30T15:26:50.000Z</time>
                <name>Trackpoint 8679</name>
            </trkpt>
            <trkpt lat="50.0044288" lon="8.3301016">
                <ele>92.0</ele>
                <time>2020-08-30T15:26:52.000Z</time>
                <name>Trackpoint 8680</name>
            </trkpt>
            <trkpt lat="50.0044224" lon="8.3300136">
                <ele>92.0</ele>
                <time>2020-08-30T15:27:18.000Z</time>
                <name>Trackpoint 8681</name>
            </trkpt>
            <trkpt lat="50.0044096" lon="8.329908">
                <ele>91.0</ele>
                <time>2020-08-30T15:27:44.000Z</time>
                <name>Trackpoint 8682</name>
            </trkpt>
            <trkpt lat="50.0044064" lon="8.3297664">
                <ele>91.0</ele>
                <time>2020-08-30T15:27:47.000Z</time>
                <name>Trackpoint 8683</name>
            </trkpt>
            <trkpt lat="50.0044032" lon="8.3296496">
                <ele>92.0</ele>
                <time>2020-08-30T15:27:49.000Z</time>
                <name>Trackpoint 8684</name>
            </trkpt>
            <trkpt lat="50.0043968" lon="8.3295272">
                <ele>92.0</ele>
                <time>2020-08-30T15:27:51.000Z</time>
                <name>Trackpoint 8685</name>
            </trkpt>
            <trkpt lat="50.0043968" lon="8.3294">
                <ele>92.0</ele>
                <time>2020-08-30T15:27:53.000Z</time>
                <name>Trackpoint 8686</name>
            </trkpt>
            <trkpt lat="50.0043968" lon="8.3292664">
                <ele>91.0</ele>
                <time>2020-08-30T15:27:55.000Z</time>
                <name>Trackpoint 8687</name>
            </trkpt>
            <trkpt lat="50.0043936" lon="8.3291232">
                <ele>91.0</ele>
                <time>2020-08-30T15:27:57.000Z</time>
                <name>Trackpoint 8688</name>
            </trkpt>
            <trkpt lat="50.0043936" lon="8.3289744">
                <ele>91.0</ele>
                <time>2020-08-30T15:27:59.000Z</time>
                <name>Trackpoint 8689</name>
            </trkpt>
            <trkpt lat="50.0043904" lon="8.3288224">
                <ele>91.0</ele>
                <time>2020-08-30T15:28:01.000Z</time>
                <name>Trackpoint 8690</name>
            </trkpt>
            <trkpt lat="50.0043904" lon="8.3286688">
                <ele>91.0</ele>
                <time>2020-08-30T15:28:03.000Z</time>
                <name>Trackpoint 8691</name>
            </trkpt>
            <trkpt lat="50.0043872" lon="8.328508">
                <ele>91.0</ele>
                <time>2020-08-30T15:28:05.000Z</time>
                <name>Trackpoint 8692</name>
            </trkpt>
            <trkpt lat="50.0043872" lon="8.328352">
                <ele>91.0</ele>
                <time>2020-08-30T15:28:07.000Z</time>
                <name>Trackpoint 8693</name>
            </trkpt>
            <trkpt lat="50.004384" lon="8.3281936">
                <ele>91.0</ele>
                <time>2020-08-30T15:28:09.000Z</time>
                <name>Trackpoint 8694</name>
            </trkpt>
            <trkpt lat="50.004384" lon="8.3280352">
                <ele>91.0</ele>
                <time>2020-08-30T15:28:11.000Z</time>
                <name>Trackpoint 8695</name>
            </trkpt>
            <trkpt lat="50.004384" lon="8.3278736">
                <ele>91.0</ele>
                <time>2020-08-30T15:28:13.000Z</time>
                <name>Trackpoint 8696</name>
            </trkpt>
            <trkpt lat="50.0043712" lon="8.327708">
                <ele>91.0</ele>
                <time>2020-08-30T15:28:15.000Z</time>
                <name>Trackpoint 8697</name>
            </trkpt>
            <trkpt lat="50.0043616" lon="8.327548">
                <ele>90.0</ele>
                <time>2020-08-30T15:28:17.000Z</time>
                <name>Trackpoint 8698</name>
            </trkpt>
            <trkpt lat="50.0043488" lon="8.3273832">
                <ele>90.0</ele>
                <time>2020-08-30T15:28:19.000Z</time>
                <name>Trackpoint 8699</name>
            </trkpt>
            <trkpt lat="50.0043328" lon="8.3272184">
                <ele>90.0</ele>
                <time>2020-08-30T15:28:21.000Z</time>
                <name>Trackpoint 8700</name>
            </trkpt>
            <trkpt lat="50.0043232" lon="8.3270528">
                <ele>90.0</ele>
                <time>2020-08-30T15:28:23.000Z</time>
                <name>Trackpoint 8701</name>
            </trkpt>
            <trkpt lat="50.0043104" lon="8.326892">
                <ele>90.0</ele>
                <time>2020-08-30T15:28:25.000Z</time>
                <name>Trackpoint 8702</name>
            </trkpt>
            <trkpt lat="50.0042976" lon="8.326728">
                <ele>90.0</ele>
                <time>2020-08-30T15:28:27.000Z</time>
                <name>Trackpoint 8703</name>
            </trkpt>
            <trkpt lat="50.004288" lon="8.3265648">
                <ele>90.0</ele>
                <time>2020-08-30T15:28:29.000Z</time>
                <name>Trackpoint 8704</name>
            </trkpt>
            <trkpt lat="50.004272" lon="8.3264016">
                <ele>90.0</ele>
                <time>2020-08-30T15:28:31.000Z</time>
                <name>Trackpoint 8705</name>
            </trkpt>
            <trkpt lat="50.004256" lon="8.3262416">
                <ele>90.0</ele>
                <time>2020-08-30T15:28:33.000Z</time>
                <name>Trackpoint 8706</name>
            </trkpt>
            <trkpt lat="50.0042432" lon="8.3260872">
                <ele>90.0</ele>
                <time>2020-08-30T15:28:35.000Z</time>
                <name>Trackpoint 8707</name>
            </trkpt>
            <trkpt lat="50.0042336" lon="8.3259536">
                <ele>90.0</ele>
                <time>2020-08-30T15:28:37.000Z</time>
                <name>Trackpoint 8708</name>
            </trkpt>
            <trkpt lat="50.0042272" lon="8.3258536">
                <ele>90.0</ele>
                <time>2020-08-30T15:29:08.000Z</time>
                <name>Trackpoint 8709</name>
            </trkpt>
            <trkpt lat="50.0042176" lon="8.3257376">
                <ele>90.0</ele>
                <time>2020-08-30T15:29:12.000Z</time>
                <name>Trackpoint 8710</name>
            </trkpt>
            <trkpt lat="50.004208" lon="8.3256464">
                <ele>90.0</ele>
                <time>2020-08-30T15:29:14.000Z</time>
                <name>Trackpoint 8711</name>
            </trkpt>
            <trkpt lat="50.0041984" lon="8.3255352">
                <ele>90.0</ele>
                <time>2020-08-30T15:29:16.000Z</time>
                <name>Trackpoint 8712</name>
            </trkpt>
            <trkpt lat="50.004192" lon="8.3254096">
                <ele>90.0</ele>
                <time>2020-08-30T15:29:18.000Z</time>
                <name>Trackpoint 8713</name>
            </trkpt>
            <trkpt lat="50.0041856" lon="8.325276">
                <ele>90.0</ele>
                <time>2020-08-30T15:29:20.000Z</time>
                <name>Trackpoint 8714</name>
            </trkpt>
            <trkpt lat="50.0041728" lon="8.32514">
                <ele>90.0</ele>
                <time>2020-08-30T15:29:22.000Z</time>
                <name>Trackpoint 8715</name>
            </trkpt>
            <trkpt lat="50.0041568" lon="8.3249968">
                <ele>90.0</ele>
                <time>2020-08-30T15:29:24.000Z</time>
                <name>Trackpoint 8716</name>
            </trkpt>
            <trkpt lat="50.0041472" lon="8.3248528">
                <ele>90.0</ele>
                <time>2020-08-30T15:29:26.000Z</time>
                <name>Trackpoint 8717</name>
            </trkpt>
            <trkpt lat="50.0041344" lon="8.3247072">
                <ele>90.0</ele>
                <time>2020-08-30T15:29:28.000Z</time>
                <name>Trackpoint 8718</name>
            </trkpt>
            <trkpt lat="50.0041248" lon="8.324556">
                <ele>90.0</ele>
                <time>2020-08-30T15:29:30.000Z</time>
                <name>Trackpoint 8719</name>
            </trkpt>
            <trkpt lat="50.0041088" lon="8.3244048">
                <ele>90.0</ele>
                <time>2020-08-30T15:29:32.000Z</time>
                <name>Trackpoint 8720</name>
            </trkpt>
            <trkpt lat="50.004096" lon="8.324248">
                <ele>90.0</ele>
                <time>2020-08-30T15:29:34.000Z</time>
                <name>Trackpoint 8721</name>
            </trkpt>
            <trkpt lat="50.0040864" lon="8.324092">
                <ele>90.0</ele>
                <time>2020-08-30T15:29:36.000Z</time>
                <name>Trackpoint 8722</name>
            </trkpt>
            <trkpt lat="50.0040736" lon="8.3239336">
                <ele>90.0</ele>
                <time>2020-08-30T15:29:38.000Z</time>
                <name>Trackpoint 8723</name>
            </trkpt>
            <trkpt lat="50.004064" lon="8.3237712">
                <ele>90.0</ele>
                <time>2020-08-30T15:29:40.000Z</time>
                <name>Trackpoint 8724</name>
            </trkpt>
            <trkpt lat="50.004048" lon="8.3236128">
                <ele>90.0</ele>
                <time>2020-08-30T15:29:42.000Z</time>
                <name>Trackpoint 8725</name>
            </trkpt>
            <trkpt lat="50.0040384" lon="8.3234568">
                <ele>90.0</ele>
                <time>2020-08-30T15:29:44.000Z</time>
                <name>Trackpoint 8726</name>
            </trkpt>
            <trkpt lat="50.0040288" lon="8.3233032">
                <ele>90.0</ele>
                <time>2020-08-30T15:29:46.000Z</time>
                <name>Trackpoint 8727</name>
            </trkpt>
            <trkpt lat="50.004016" lon="8.3231496">
                <ele>90.0</ele>
                <time>2020-08-30T15:29:48.000Z</time>
                <name>Trackpoint 8728</name>
            </trkpt>
            <trkpt lat="50.0040032" lon="8.3229968">
                <ele>90.0</ele>
                <time>2020-08-30T15:29:50.000Z</time>
                <name>Trackpoint 8729</name>
            </trkpt>
            <trkpt lat="50.0039936" lon="8.3228456">
                <ele>90.0</ele>
                <time>2020-08-30T15:29:52.000Z</time>
                <name>Trackpoint 8730</name>
            </trkpt>
            <trkpt lat="50.003984" lon="8.3226904">
                <ele>90.0</ele>
                <time>2020-08-30T15:29:54.000Z</time>
                <name>Trackpoint 8731</name>
            </trkpt>
            <trkpt lat="50.003968" lon="8.3225416">
                <ele>90.0</ele>
                <time>2020-08-30T15:29:56.000Z</time>
                <name>Trackpoint 8732</name>
            </trkpt>
            <trkpt lat="50.0039584" lon="8.3224024">
                <ele>90.0</ele>
                <time>2020-08-30T15:29:58.000Z</time>
                <name>Trackpoint 8733</name>
            </trkpt>
            <trkpt lat="50.003952" lon="8.3222568">
                <ele>90.0</ele>
                <time>2020-08-30T15:30:00.000Z</time>
                <name>Trackpoint 8734</name>
            </trkpt>
            <trkpt lat="50.0039456" lon="8.3221128">
                <ele>91.0</ele>
                <time>2020-08-30T15:30:02.000Z</time>
                <name>Trackpoint 8735</name>
            </trkpt>
            <trkpt lat="50.0039328" lon="8.321972">
                <ele>91.0</ele>
                <time>2020-08-30T15:30:04.000Z</time>
                <name>Trackpoint 8736</name>
            </trkpt>
            <trkpt lat="50.00392" lon="8.321828">
                <ele>90.0</ele>
                <time>2020-08-30T15:30:06.000Z</time>
                <name>Trackpoint 8737</name>
            </trkpt>
            <trkpt lat="50.0039104" lon="8.321676">
                <ele>90.0</ele>
                <time>2020-08-30T15:30:08.000Z</time>
                <name>Trackpoint 8738</name>
            </trkpt>
            <trkpt lat="50.0038976" lon="8.3215248">
                <ele>90.0</ele>
                <time>2020-08-30T15:30:10.000Z</time>
                <name>Trackpoint 8739</name>
            </trkpt>
            <trkpt lat="50.0038912" lon="8.3213768">
                <ele>90.0</ele>
                <time>2020-08-30T15:30:12.000Z</time>
                <name>Trackpoint 8740</name>
            </trkpt>
            <trkpt lat="50.0038848" lon="8.321228">
                <ele>90.0</ele>
                <time>2020-08-30T15:30:14.000Z</time>
                <name>Trackpoint 8741</name>
            </trkpt>
            <trkpt lat="50.0038656" lon="8.3210784">
                <ele>90.0</ele>
                <time>2020-08-30T15:30:16.000Z</time>
                <name>Trackpoint 8742</name>
            </trkpt>
            <trkpt lat="50.0038464" lon="8.3209448">
                <ele>90.0</ele>
                <time>2020-08-30T15:30:18.000Z</time>
                <name>Trackpoint 8743</name>
            </trkpt>
            <trkpt lat="50.0038368" lon="8.3208104">
                <ele>90.0</ele>
                <time>2020-08-30T15:30:20.000Z</time>
                <name>Trackpoint 8744</name>
            </trkpt>
            <trkpt lat="50.0038208" lon="8.3206632">
                <ele>90.0</ele>
                <time>2020-08-30T15:30:22.000Z</time>
                <name>Trackpoint 8745</name>
            </trkpt>
            <trkpt lat="50.0038048" lon="8.3205184">
                <ele>90.0</ele>
                <time>2020-08-30T15:30:24.000Z</time>
                <name>Trackpoint 8746</name>
            </trkpt>
            <trkpt lat="50.0037888" lon="8.3203736">
                <ele>90.0</ele>
                <time>2020-08-30T15:30:26.000Z</time>
                <name>Trackpoint 8747</name>
            </trkpt>
            <trkpt lat="50.0037728" lon="8.3202288">
                <ele>90.0</ele>
                <time>2020-08-30T15:30:28.000Z</time>
                <name>Trackpoint 8748</name>
            </trkpt>
            <trkpt lat="50.0037536" lon="8.320084">
                <ele>90.0</ele>
                <time>2020-08-30T15:30:30.000Z</time>
                <name>Trackpoint 8749</name>
            </trkpt>
            <trkpt lat="50.0037376" lon="8.3199384">
                <ele>90.0</ele>
                <time>2020-08-30T15:30:32.000Z</time>
                <name>Trackpoint 8750</name>
            </trkpt>
            <trkpt lat="50.0037216" lon="8.3197896">
                <ele>91.0</ele>
                <time>2020-08-30T15:30:34.000Z</time>
                <name>Trackpoint 8751</name>
            </trkpt>
            <trkpt lat="50.0036992" lon="8.3196488">
                <ele>91.0</ele>
                <time>2020-08-30T15:30:36.000Z</time>
                <name>Trackpoint 8752</name>
            </trkpt>
            <trkpt lat="50.0036768" lon="8.319504">
                <ele>91.0</ele>
                <time>2020-08-30T15:30:38.000Z</time>
                <name>Trackpoint 8753</name>
            </trkpt>
            <trkpt lat="50.0036576" lon="8.31936">
                <ele>91.0</ele>
                <time>2020-08-30T15:30:40.000Z</time>
                <name>Trackpoint 8754</name>
            </trkpt>
            <trkpt lat="50.0036384" lon="8.3192168">
                <ele>91.0</ele>
                <time>2020-08-30T15:30:42.000Z</time>
                <name>Trackpoint 8755</name>
            </trkpt>
            <trkpt lat="50.003632" lon="8.3190784">
                <ele>91.0</ele>
                <time>2020-08-30T15:30:44.000Z</time>
                <name>Trackpoint 8756</name>
            </trkpt>
            <trkpt lat="50.0036352" lon="8.3189352">
                <ele>90.0</ele>
                <time>2020-08-30T15:30:46.000Z</time>
                <name>Trackpoint 8757</name>
            </trkpt>
            <trkpt lat="50.003648" lon="8.3187816">
                <ele>90.0</ele>
                <time>2020-08-30T15:30:48.000Z</time>
                <name>Trackpoint 8758</name>
            </trkpt>
            <trkpt lat="50.0036704" lon="8.31862">
                <ele>90.0</ele>
                <time>2020-08-30T15:30:50.000Z</time>
                <name>Trackpoint 8759</name>
            </trkpt>
            <trkpt lat="50.0036864" lon="8.3184496">
                <ele>90.0</ele>
                <time>2020-08-30T15:30:52.000Z</time>
                <name>Trackpoint 8760</name>
            </trkpt>
            <trkpt lat="50.0036864" lon="8.3183496">
                <ele>90.0</ele>
                <time>2020-08-30T15:30:53.000Z</time>
                <name>Trackpoint 8761</name>
            </trkpt>
            <trkpt lat="50.00368" lon="8.3182496">
                <ele>89.0</ele>
                <time>2020-08-30T15:30:54.000Z</time>
                <name>Trackpoint 8762</name>
            </trkpt>
            <trkpt lat="50.00368" lon="8.3181488">
                <ele>89.0</ele>
                <time>2020-08-30T15:30:55.000Z</time>
                <name>Trackpoint 8763</name>
            </trkpt>
            <trkpt lat="50.0036768" lon="8.3180504">
                <ele>89.0</ele>
                <time>2020-08-30T15:30:56.000Z</time>
                <name>Trackpoint 8764</name>
            </trkpt>
            <trkpt lat="50.0036736" lon="8.3179568">
                <ele>89.0</ele>
                <time>2020-08-30T15:30:57.000Z</time>
                <name>Trackpoint 8765</name>
            </trkpt>
            <trkpt lat="50.0036736" lon="8.3177816">
                <ele>89.0</ele>
                <time>2020-08-30T15:30:59.000Z</time>
                <name>Trackpoint 8766</name>
            </trkpt>
            <trkpt lat="50.003696" lon="8.3176344">
                <ele>89.0</ele>
                <time>2020-08-30T15:31:01.000Z</time>
                <name>Trackpoint 8767</name>
            </trkpt>
            <trkpt lat="50.0036928" lon="8.3174912">
                <ele>89.0</ele>
                <time>2020-08-30T15:31:03.000Z</time>
                <name>Trackpoint 8768</name>
            </trkpt>
            <trkpt lat="50.00368" lon="8.3173448">
                <ele>89.0</ele>
                <time>2020-08-30T15:31:05.000Z</time>
                <name>Trackpoint 8769</name>
            </trkpt>
            <trkpt lat="50.0036704" lon="8.317192">
                <ele>89.0</ele>
                <time>2020-08-30T15:31:07.000Z</time>
                <name>Trackpoint 8770</name>
            </trkpt>
            <trkpt lat="50.0036608" lon="8.3170456">
                <ele>89.0</ele>
                <time>2020-08-30T15:31:09.000Z</time>
                <name>Trackpoint 8771</name>
            </trkpt>
            <trkpt lat="50.0036576" lon="8.3169016">
                <ele>89.0</ele>
                <time>2020-08-30T15:31:11.000Z</time>
                <name>Trackpoint 8772</name>
            </trkpt>
            <trkpt lat="50.0036544" lon="8.31676">
                <ele>89.0</ele>
                <time>2020-08-30T15:31:13.000Z</time>
                <name>Trackpoint 8773</name>
            </trkpt>
            <trkpt lat="50.003632" lon="8.3165976">
                <ele>89.0</ele>
                <time>2020-08-30T15:31:15.000Z</time>
                <name>Trackpoint 8774</name>
            </trkpt>
            <trkpt lat="50.003616" lon="8.3165064">
                <ele>89.0</ele>
                <time>2020-08-30T15:31:16.000Z</time>
                <name>Trackpoint 8775</name>
            </trkpt>
            <trkpt lat="50.0035904" lon="8.3163336">
                <ele>89.0</ele>
                <time>2020-08-30T15:31:18.000Z</time>
                <name>Trackpoint 8776</name>
            </trkpt>
            <trkpt lat="50.0035424" lon="8.31616">
                <ele>89.0</ele>
                <time>2020-08-30T15:31:20.000Z</time>
                <name>Trackpoint 8777</name>
            </trkpt>
            <trkpt lat="50.0035232" lon="8.3160696">
                <ele>89.0</ele>
                <time>2020-08-30T15:31:21.000Z</time>
                <name>Trackpoint 8778</name>
            </trkpt>
            <trkpt lat="50.0034912" lon="8.31592">
                <ele>89.0</ele>
                <time>2020-08-30T15:31:23.000Z</time>
                <name>Trackpoint 8779</name>
            </trkpt>
            <trkpt lat="50.0034496" lon="8.3157728">
                <ele>89.0</ele>
                <time>2020-08-30T15:31:25.000Z</time>
                <name>Trackpoint 8780</name>
            </trkpt>
            <trkpt lat="50.0034176" lon="8.315632">
                <ele>89.0</ele>
                <time>2020-08-30T15:31:27.000Z</time>
                <name>Trackpoint 8781</name>
            </trkpt>
            <trkpt lat="50.003392" lon="8.3154896">
                <ele>88.0</ele>
                <time>2020-08-30T15:31:29.000Z</time>
                <name>Trackpoint 8782</name>
            </trkpt>
            <trkpt lat="50.0033792" lon="8.3153488">
                <ele>88.0</ele>
                <time>2020-08-30T15:31:31.000Z</time>
                <name>Trackpoint 8783</name>
            </trkpt>
            <trkpt lat="50.0033728" lon="8.3151968">
                <ele>88.0</ele>
                <time>2020-08-30T15:31:33.000Z</time>
                <name>Trackpoint 8784</name>
            </trkpt>
            <trkpt lat="50.00336" lon="8.3150528">
                <ele>88.0</ele>
                <time>2020-08-30T15:31:35.000Z</time>
                <name>Trackpoint 8785</name>
            </trkpt>
            <trkpt lat="50.0033408" lon="8.3149072">
                <ele>88.0</ele>
                <time>2020-08-30T15:31:37.000Z</time>
                <name>Trackpoint 8786</name>
            </trkpt>
            <trkpt lat="50.0033216" lon="8.3147488">
                <ele>88.0</ele>
                <time>2020-08-30T15:31:39.000Z</time>
                <name>Trackpoint 8787</name>
            </trkpt>
            <trkpt lat="50.0032896" lon="8.3145952">
                <ele>88.0</ele>
                <time>2020-08-30T15:31:41.000Z</time>
                <name>Trackpoint 8788</name>
            </trkpt>
            <trkpt lat="50.0032608" lon="8.3144312">
                <ele>88.0</ele>
                <time>2020-08-30T15:31:43.000Z</time>
                <name>Trackpoint 8789</name>
            </trkpt>
            <trkpt lat="50.003232" lon="8.3142728">
                <ele>88.0</ele>
                <time>2020-08-30T15:31:45.000Z</time>
                <name>Trackpoint 8790</name>
            </trkpt>
            <trkpt lat="50.0031808" lon="8.31412">
                <ele>88.0</ele>
                <time>2020-08-30T15:31:47.000Z</time>
                <name>Trackpoint 8791</name>
            </trkpt>
            <trkpt lat="50.0031328" lon="8.3139712">
                <ele>88.0</ele>
                <time>2020-08-30T15:31:49.000Z</time>
                <name>Trackpoint 8792</name>
            </trkpt>
            <trkpt lat="50.0030816" lon="8.3138264">
                <ele>88.0</ele>
                <time>2020-08-30T15:31:51.000Z</time>
                <name>Trackpoint 8793</name>
            </trkpt>
            <trkpt lat="50.0030336" lon="8.3136904">
                <ele>88.0</ele>
                <time>2020-08-30T15:31:53.000Z</time>
                <name>Trackpoint 8794</name>
            </trkpt>
            <trkpt lat="50.0029728" lon="8.313552">
                <ele>88.0</ele>
                <time>2020-08-30T15:31:55.000Z</time>
                <name>Trackpoint 8795</name>
            </trkpt>
            <trkpt lat="50.0029056" lon="8.3134296">
                <ele>88.0</ele>
                <time>2020-08-30T15:31:57.000Z</time>
                <name>Trackpoint 8796</name>
            </trkpt>
            <trkpt lat="50.0028352" lon="8.3133136">
                <ele>88.0</ele>
                <time>2020-08-30T15:31:59.000Z</time>
                <name>Trackpoint 8797</name>
            </trkpt>
            <trkpt lat="50.0027552" lon="8.3131952">
                <ele>89.0</ele>
                <time>2020-08-30T15:32:01.000Z</time>
                <name>Trackpoint 8798</name>
            </trkpt>
            <trkpt lat="50.0026784" lon="8.3130704">
                <ele>89.0</ele>
                <time>2020-08-30T15:32:03.000Z</time>
                <name>Trackpoint 8799</name>
            </trkpt>
            <trkpt lat="50.0026048" lon="8.3129416">
                <ele>89.0</ele>
                <time>2020-08-30T15:32:05.000Z</time>
                <name>Trackpoint 8800</name>
            </trkpt>
            <trkpt lat="50.0025408" lon="8.3128096">
                <ele>89.0</ele>
                <time>2020-08-30T15:32:07.000Z</time>
                <name>Trackpoint 8801</name>
            </trkpt>
            <trkpt lat="50.0024672" lon="8.3126832">
                <ele>89.0</ele>
                <time>2020-08-30T15:32:09.000Z</time>
                <name>Trackpoint 8802</name>
            </trkpt>
            <trkpt lat="50.0023872" lon="8.3125536">
                <ele>89.0</ele>
                <time>2020-08-30T15:32:11.000Z</time>
                <name>Trackpoint 8803</name>
            </trkpt>
            <trkpt lat="50.0023168" lon="8.31242">
                <ele>90.0</ele>
                <time>2020-08-30T15:32:13.000Z</time>
                <name>Trackpoint 8804</name>
            </trkpt>
            <trkpt lat="50.002256" lon="8.312292">
                <ele>89.0</ele>
                <time>2020-08-30T15:32:15.000Z</time>
                <name>Trackpoint 8805</name>
            </trkpt>
            <trkpt lat="50.0021888" lon="8.3121728">
                <ele>89.0</ele>
                <time>2020-08-30T15:32:17.000Z</time>
                <name>Trackpoint 8806</name>
            </trkpt>
            <trkpt lat="50.0021248" lon="8.3120632">
                <ele>89.0</ele>
                <time>2020-08-30T15:32:19.000Z</time>
                <name>Trackpoint 8807</name>
            </trkpt>
            <trkpt lat="50.0020608" lon="8.3119632">
                <ele>89.0</ele>
                <time>2020-08-30T15:32:21.000Z</time>
                <name>Trackpoint 8808</name>
            </trkpt>
            <trkpt lat="50.0019936" lon="8.3118752">
                <ele>89.0</ele>
                <time>2020-08-30T15:32:23.000Z</time>
                <name>Trackpoint 8809</name>
            </trkpt>
            <trkpt lat="50.0019392" lon="8.3117968">
                <ele>89.0</ele>
                <time>2020-08-30T15:32:25.000Z</time>
                <name>Trackpoint 8810</name>
            </trkpt>
            <trkpt lat="50.001872" lon="8.3117264">
                <ele>89.0</ele>
                <time>2020-08-30T15:32:27.000Z</time>
                <name>Trackpoint 8811</name>
            </trkpt>
            <trkpt lat="50.0018016" lon="8.3116328">
                <ele>89.0</ele>
                <time>2020-08-30T15:32:30.000Z</time>
                <name>Trackpoint 8812</name>
            </trkpt>
            <trkpt lat="50.001744" lon="8.3115528">
                <ele>88.0</ele>
                <time>2020-08-30T15:32:33.000Z</time>
                <name>Trackpoint 8813</name>
            </trkpt>
            <trkpt lat="50.0017216" lon="8.3116464">
                <ele>88.0</ele>
                <time>2020-08-30T15:32:38.000Z</time>
                <name>Trackpoint 8814</name>
            </trkpt>
            <trkpt lat="50.0017664" lon="8.3117248">
                <ele>88.0</ele>
                <time>2020-08-30T15:32:43.000Z</time>
                <name>Trackpoint 8815</name>
            </trkpt>
            <trkpt lat="50.001728" lon="8.3116016">
                <ele>88.0</ele>
                <time>2020-08-30T15:33:26.000Z</time>
                <name>Trackpoint 8816</name>
            </trkpt>
            <trkpt lat="50.0016608" lon="8.311512">
                <ele>89.0</ele>
                <time>2020-08-30T15:33:29.000Z</time>
                <name>Trackpoint 8817</name>
            </trkpt>
            <trkpt lat="50.0015616" lon="8.3114632">
                <ele>89.0</ele>
                <time>2020-08-30T15:33:32.000Z</time>
                <name>Trackpoint 8818</name>
            </trkpt>
            <trkpt lat="50.001472" lon="8.3114296">
                <ele>89.0</ele>
                <time>2020-08-30T15:33:35.000Z</time>
                <name>Trackpoint 8819</name>
            </trkpt>
            <trkpt lat="50.0013984" lon="8.311368">
                <ele>89.0</ele>
                <time>2020-08-30T15:34:14.000Z</time>
                <name>Trackpoint 8820</name>
            </trkpt>
            <trkpt lat="50.0013536" lon="8.3112848">
                <ele>88.0</ele>
                <time>2020-08-30T15:34:18.000Z</time>
                <name>Trackpoint 8821</name>
            </trkpt>
            <trkpt lat="50.0013056" lon="8.3111632">
                <ele>88.0</ele>
                <time>2020-08-30T15:34:21.000Z</time>
                <name>Trackpoint 8822</name>
            </trkpt>
            <trkpt lat="50.0012544" lon="8.3110712">
                <ele>89.0</ele>
                <time>2020-08-30T15:34:23.000Z</time>
                <name>Trackpoint 8823</name>
            </trkpt>
            <trkpt lat="50.0012032" lon="8.3109704">
                <ele>89.0</ele>
                <time>2020-08-30T15:34:25.000Z</time>
                <name>Trackpoint 8824</name>
            </trkpt>
            <trkpt lat="50.0011392" lon="8.3108656">
                <ele>89.0</ele>
                <time>2020-08-30T15:34:27.000Z</time>
                <name>Trackpoint 8825</name>
            </trkpt>
            <trkpt lat="50.001072" lon="8.310768">
                <ele>89.0</ele>
                <time>2020-08-30T15:34:29.000Z</time>
                <name>Trackpoint 8826</name>
            </trkpt>
            <trkpt lat="50.0010176" lon="8.31066">
                <ele>89.0</ele>
                <time>2020-08-30T15:34:31.000Z</time>
                <name>Trackpoint 8827</name>
            </trkpt>
            <trkpt lat="50.0009504" lon="8.31054">
                <ele>89.0</ele>
                <time>2020-08-30T15:34:33.000Z</time>
                <name>Trackpoint 8828</name>
            </trkpt>
            <trkpt lat="50.000896" lon="8.3104152">
                <ele>89.0</ele>
                <time>2020-08-30T15:34:35.000Z</time>
                <name>Trackpoint 8829</name>
            </trkpt>
            <trkpt lat="50.000832" lon="8.3103048">
                <ele>89.0</ele>
                <time>2020-08-30T15:34:37.000Z</time>
                <name>Trackpoint 8830</name>
            </trkpt>
            <trkpt lat="50.0007872" lon="8.31018">
                <ele>89.0</ele>
                <time>2020-08-30T15:34:39.000Z</time>
                <name>Trackpoint 8831</name>
            </trkpt>
            <trkpt lat="50.00072" lon="8.3100544">
                <ele>89.0</ele>
                <time>2020-08-30T15:34:41.000Z</time>
                <name>Trackpoint 8832</name>
            </trkpt>
            <trkpt lat="50.000656" lon="8.3099536">
                <ele>89.0</ele>
                <time>2020-08-30T15:34:43.000Z</time>
                <name>Trackpoint 8833</name>
            </trkpt>
            <trkpt lat="50.000592" lon="8.3098736">
                <ele>90.0</ele>
                <time>2020-08-30T15:34:45.000Z</time>
                <name>Trackpoint 8834</name>
            </trkpt>
            <trkpt lat="50.000528" lon="8.30976">
                <ele>90.0</ele>
                <time>2020-08-30T15:34:47.000Z</time>
                <name>Trackpoint 8835</name>
            </trkpt>
            <trkpt lat="50.0004768" lon="8.309644">
                <ele>90.0</ele>
                <time>2020-08-30T15:34:49.000Z</time>
                <name>Trackpoint 8836</name>
            </trkpt>
            <trkpt lat="50.0004192" lon="8.3095576">
                <ele>90.0</ele>
                <time>2020-08-30T15:34:51.000Z</time>
                <name>Trackpoint 8837</name>
            </trkpt>
            <trkpt lat="50.0003616" lon="8.3094568">
                <ele>90.0</ele>
                <time>2020-08-30T15:34:54.000Z</time>
                <name>Trackpoint 8838</name>
            </trkpt>
            <trkpt lat="50.0003328" lon="8.3093544">
                <ele>90.0</ele>
                <time>2020-08-30T15:34:59.000Z</time>
                <name>Trackpoint 8839</name>
            </trkpt>
            <trkpt lat="50.0002912" lon="8.3092584">
                <ele>89.0</ele>
                <time>2020-08-30T15:35:40.000Z</time>
                <name>Trackpoint 8840</name>
            </trkpt>
            <trkpt lat="50.0002432" lon="8.3091488">
                <ele>89.0</ele>
                <time>2020-08-30T15:35:43.000Z</time>
                <name>Trackpoint 8841</name>
            </trkpt>
            <trkpt lat="50.0002144" lon="8.3090232">
                <ele>89.0</ele>
                <time>2020-08-30T15:35:46.000Z</time>
                <name>Trackpoint 8842</name>
            </trkpt>
            <trkpt lat="50.0001664" lon="8.30894">
                <ele>89.0</ele>
                <time>2020-08-30T15:35:49.000Z</time>
                <name>Trackpoint 8843</name>
            </trkpt>
            <trkpt lat="50.0000928" lon="8.3088776">
                <ele>89.0</ele>
                <time>2020-08-30T15:35:52.000Z</time>
                <name>Trackpoint 8844</name>
            </trkpt>
            <trkpt lat="50.0000384" lon="8.3088016">
                <ele>89.0</ele>
                <time>2020-08-30T15:35:54.000Z</time>
                <name>Trackpoint 8845</name>
            </trkpt>
            <trkpt lat="49.9999456" lon="8.3087032">
                <ele>89.0</ele>
                <time>2020-08-30T15:35:57.000Z</time>
                <name>Trackpoint 8846</name>
            </trkpt>
            <trkpt lat="49.9999008" lon="8.3086232">
                <ele>90.0</ele>
                <time>2020-08-30T15:35:59.000Z</time>
                <name>Trackpoint 8847</name>
            </trkpt>
            <trkpt lat="49.99984" lon="8.3085496">
                <ele>90.0</ele>
                <time>2020-08-30T15:36:07.000Z</time>
                <name>Trackpoint 8848</name>
            </trkpt>
            <trkpt lat="49.9997824" lon="8.30846">
                <ele>90.0</ele>
                <time>2020-08-30T15:36:33.000Z</time>
                <name>Trackpoint 8849</name>
            </trkpt>
            <trkpt lat="49.9997184" lon="8.3083688">
                <ele>90.0</ele>
                <time>2020-08-30T15:36:36.000Z</time>
                <name>Trackpoint 8850</name>
            </trkpt>
            <trkpt lat="49.999648" lon="8.3082848">
                <ele>90.0</ele>
                <time>2020-08-30T15:36:39.000Z</time>
                <name>Trackpoint 8851</name>
            </trkpt>
            <trkpt lat="49.9995904" lon="8.3082104">
                <ele>90.0</ele>
                <time>2020-08-30T15:36:42.000Z</time>
                <name>Trackpoint 8852</name>
            </trkpt>
            <trkpt lat="49.9995392" lon="8.3080928">
                <ele>90.0</ele>
                <time>2020-08-30T15:36:45.000Z</time>
                <name>Trackpoint 8853</name>
            </trkpt>
            <trkpt lat="49.9994976" lon="8.3079968">
                <ele>90.0</ele>
                <time>2020-08-30T15:36:47.000Z</time>
                <name>Trackpoint 8854</name>
            </trkpt>
            <trkpt lat="49.9994464" lon="8.3079096">
                <ele>90.0</ele>
                <time>2020-08-30T15:36:49.000Z</time>
                <name>Trackpoint 8855</name>
            </trkpt>
            <trkpt lat="49.9994176" lon="8.3077936">
                <ele>90.0</ele>
                <time>2020-08-30T15:36:51.000Z</time>
                <name>Trackpoint 8856</name>
            </trkpt>
            <trkpt lat="49.9994048" lon="8.3076624">
                <ele>90.0</ele>
                <time>2020-08-30T15:36:53.000Z</time>
                <name>Trackpoint 8857</name>
            </trkpt>
            <trkpt lat="49.9993664" lon="8.307564">
                <ele>91.0</ele>
                <time>2020-08-30T15:36:55.000Z</time>
                <name>Trackpoint 8858</name>
            </trkpt>
            <trkpt lat="49.9993216" lon="8.3074464">
                <ele>90.0</ele>
                <time>2020-08-30T15:36:57.000Z</time>
                <name>Trackpoint 8859</name>
            </trkpt>
            <trkpt lat="49.9993216" lon="8.307312">
                <ele>90.0</ele>
                <time>2020-08-30T15:36:59.000Z</time>
                <name>Trackpoint 8860</name>
            </trkpt>
            <trkpt lat="49.9993088" lon="8.3071632">
                <ele>90.0</ele>
                <time>2020-08-30T15:37:01.000Z</time>
                <name>Trackpoint 8861</name>
            </trkpt>
            <trkpt lat="49.9992864" lon="8.3070384">
                <ele>90.0</ele>
                <time>2020-08-30T15:37:03.000Z</time>
                <name>Trackpoint 8862</name>
            </trkpt>
            <trkpt lat="49.9992992" lon="8.3068952">
                <ele>90.0</ele>
                <time>2020-08-30T15:37:05.000Z</time>
                <name>Trackpoint 8863</name>
            </trkpt>
            <trkpt lat="49.9992864" lon="8.3067512">
                <ele>90.0</ele>
                <time>2020-08-30T15:37:07.000Z</time>
                <name>Trackpoint 8864</name>
            </trkpt>
            <trkpt lat="49.9992672" lon="8.3066152">
                <ele>91.0</ele>
                <time>2020-08-30T15:37:09.000Z</time>
                <name>Trackpoint 8865</name>
            </trkpt>
            <trkpt lat="49.9992704" lon="8.3065032">
                <ele>91.0</ele>
                <time>2020-08-30T15:37:11.000Z</time>
                <name>Trackpoint 8866</name>
            </trkpt>
            <trkpt lat="49.999264" lon="8.3063944">
                <ele>90.0</ele>
                <time>2020-08-30T15:37:13.000Z</time>
                <name>Trackpoint 8867</name>
            </trkpt>
            <trkpt lat="49.9992512" lon="8.3062896">
                <ele>90.0</ele>
                <time>2020-08-30T15:37:15.000Z</time>
                <name>Trackpoint 8868</name>
            </trkpt>
            <trkpt lat="49.9992256" lon="8.3061984">
                <ele>91.0</ele>
                <time>2020-08-30T15:37:17.000Z</time>
                <name>Trackpoint 8869</name>
            </trkpt>
            <trkpt lat="49.9992192" lon="8.3060768">
                <ele>90.0</ele>
                <time>2020-08-30T15:37:19.000Z</time>
                <name>Trackpoint 8870</name>
            </trkpt>
            <trkpt lat="49.999232" lon="8.3059432">
                <ele>90.0</ele>
                <time>2020-08-30T15:37:21.000Z</time>
                <name>Trackpoint 8871</name>
            </trkpt>
            <trkpt lat="49.999232" lon="8.3057968">
                <ele>90.0</ele>
                <time>2020-08-30T15:37:23.000Z</time>
                <name>Trackpoint 8872</name>
            </trkpt>
            <trkpt lat="49.9992256" lon="8.3056544">
                <ele>90.0</ele>
                <time>2020-08-30T15:37:25.000Z</time>
                <name>Trackpoint 8873</name>
            </trkpt>
            <trkpt lat="49.9992192" lon="8.3055096">
                <ele>90.0</ele>
                <time>2020-08-30T15:37:27.000Z</time>
                <name>Trackpoint 8874</name>
            </trkpt>
            <trkpt lat="49.9992224" lon="8.3053688">
                <ele>90.0</ele>
                <time>2020-08-30T15:37:29.000Z</time>
                <name>Trackpoint 8875</name>
            </trkpt>
            <trkpt lat="49.9992416" lon="8.30524">
                <ele>90.0</ele>
                <time>2020-08-30T15:37:31.000Z</time>
                <name>Trackpoint 8876</name>
            </trkpt>
            <trkpt lat="49.9992576" lon="8.3050936">
                <ele>89.0</ele>
                <time>2020-08-30T15:37:33.000Z</time>
                <name>Trackpoint 8877</name>
            </trkpt>
            <trkpt lat="49.9992672" lon="8.3049816">
                <ele>89.0</ele>
                <time>2020-08-30T15:37:35.000Z</time>
                <name>Trackpoint 8878</name>
            </trkpt>
            <trkpt lat="49.9992608" lon="8.3048664">
                <ele>89.0</ele>
                <time>2020-08-30T15:37:39.000Z</time>
                <name>Trackpoint 8879</name>
            </trkpt>
            <trkpt lat="49.9992" lon="8.30476">
                <ele>89.0</ele>
                <time>2020-08-30T15:37:42.000Z</time>
                <name>Trackpoint 8880</name>
            </trkpt>
            <trkpt lat="49.9991136" lon="8.3046888">
                <ele>88.0</ele>
                <time>2020-08-30T15:37:45.000Z</time>
                <name>Trackpoint 8881</name>
            </trkpt>
            <trkpt lat="49.9990048" lon="8.3046216">
                <ele>88.0</ele>
                <time>2020-08-30T15:37:48.000Z</time>
                <name>Trackpoint 8882</name>
            </trkpt>
            <trkpt lat="49.9989056" lon="8.3045728">
                <ele>89.0</ele>
                <time>2020-08-30T15:37:51.000Z</time>
                <name>Trackpoint 8883</name>
            </trkpt>
            <trkpt lat="49.9987744" lon="8.304528">
                <ele>89.0</ele>
                <time>2020-08-30T15:37:54.000Z</time>
                <name>Trackpoint 8884</name>
            </trkpt>
            <trkpt lat="49.9986912" lon="8.3044864">
                <ele>90.0</ele>
                <time>2020-08-30T15:37:56.000Z</time>
                <name>Trackpoint 8885</name>
            </trkpt>
            <trkpt lat="49.9986144" lon="8.3044216">
                <ele>90.0</ele>
                <time>2020-08-30T15:37:58.000Z</time>
                <name>Trackpoint 8886</name>
            </trkpt>
            <trkpt lat="49.998528" lon="8.3043432">
                <ele>90.0</ele>
                <time>2020-08-30T15:38:00.000Z</time>
                <name>Trackpoint 8887</name>
            </trkpt>
            <trkpt lat="49.9984448" lon="8.3042872">
                <ele>90.0</ele>
                <time>2020-08-30T15:38:03.000Z</time>
                <name>Trackpoint 8888</name>
            </trkpt>
            <trkpt lat="49.9983648" lon="8.3042424">
                <ele>91.0</ele>
                <time>2020-08-30T15:38:47.000Z</time>
                <name>Trackpoint 8889</name>
            </trkpt>
            <trkpt lat="49.99832" lon="8.3041384">
                <ele>91.0</ele>
                <time>2020-08-30T15:38:50.000Z</time>
                <name>Trackpoint 8890</name>
            </trkpt>
            <trkpt lat="49.9982848" lon="8.3040352">
                <ele>91.0</ele>
                <time>2020-08-30T15:38:52.000Z</time>
                <name>Trackpoint 8891</name>
            </trkpt>
            <trkpt lat="49.9982304" lon="8.30392">
                <ele>91.0</ele>
                <time>2020-08-30T15:38:54.000Z</time>
                <name>Trackpoint 8892</name>
            </trkpt>
            <trkpt lat="49.9981664" lon="8.3037984">
                <ele>91.0</ele>
                <time>2020-08-30T15:38:56.000Z</time>
                <name>Trackpoint 8893</name>
            </trkpt>
            <trkpt lat="49.9981184" lon="8.3036736">
                <ele>90.0</ele>
                <time>2020-08-30T15:38:58.000Z</time>
                <name>Trackpoint 8894</name>
            </trkpt>
            <trkpt lat="49.998048" lon="8.3035424">
                <ele>90.0</ele>
                <time>2020-08-30T15:39:00.000Z</time>
                <name>Trackpoint 8895</name>
            </trkpt>
            <trkpt lat="49.9979712" lon="8.303396">
                <ele>90.0</ele>
                <time>2020-08-30T15:39:02.000Z</time>
                <name>Trackpoint 8896</name>
            </trkpt>
            <trkpt lat="49.9979072" lon="8.3032512">
                <ele>91.0</ele>
                <time>2020-08-30T15:39:04.000Z</time>
                <name>Trackpoint 8897</name>
            </trkpt>
            <trkpt lat="49.9978208" lon="8.3030984">
                <ele>90.0</ele>
                <time>2020-08-30T15:39:06.000Z</time>
                <name>Trackpoint 8898</name>
            </trkpt>
            <trkpt lat="49.9977824" lon="8.3030136">
                <ele>91.0</ele>
                <time>2020-08-30T15:39:07.000Z</time>
                <name>Trackpoint 8899</name>
            </trkpt>
            <trkpt lat="49.997744" lon="8.3029296">
                <ele>91.0</ele>
                <time>2020-08-30T15:39:08.000Z</time>
                <name>Trackpoint 8900</name>
            </trkpt>
            <trkpt lat="49.9977024" lon="8.3028472">
                <ele>91.0</ele>
                <time>2020-08-30T15:39:09.000Z</time>
                <name>Trackpoint 8901</name>
            </trkpt>
            <trkpt lat="49.9976224" lon="8.3026864">
                <ele>91.0</ele>
                <time>2020-08-30T15:39:11.000Z</time>
                <name>Trackpoint 8902</name>
            </trkpt>
            <trkpt lat="49.9975552" lon="8.3025304">
                <ele>91.0</ele>
                <time>2020-08-30T15:39:13.000Z</time>
                <name>Trackpoint 8903</name>
            </trkpt>
            <trkpt lat="49.9974752" lon="8.302372">
                <ele>91.0</ele>
                <time>2020-08-30T15:39:15.000Z</time>
                <name>Trackpoint 8904</name>
            </trkpt>
            <trkpt lat="49.9974304" lon="8.3022896">
                <ele>91.0</ele>
                <time>2020-08-30T15:39:16.000Z</time>
                <name>Trackpoint 8905</name>
            </trkpt>
            <trkpt lat="49.9973824" lon="8.302208">
                <ele>91.0</ele>
                <time>2020-08-30T15:39:17.000Z</time>
                <name>Trackpoint 8906</name>
            </trkpt>
            <trkpt lat="49.9973408" lon="8.3021272">
                <ele>91.0</ele>
                <time>2020-08-30T15:39:18.000Z</time>
                <name>Trackpoint 8907</name>
            </trkpt>
            <trkpt lat="49.9972992" lon="8.30204">
                <ele>91.0</ele>
                <time>2020-08-30T15:39:19.000Z</time>
                <name>Trackpoint 8908</name>
            </trkpt>
            <trkpt lat="49.9972544" lon="8.3019536">
                <ele>91.0</ele>
                <time>2020-08-30T15:39:20.000Z</time>
                <name>Trackpoint 8909</name>
            </trkpt>
            <trkpt lat="49.997216" lon="8.3018688">
                <ele>91.0</ele>
                <time>2020-08-30T15:39:21.000Z</time>
                <name>Trackpoint 8910</name>
            </trkpt>
            <trkpt lat="49.9971456" lon="8.3017032">
                <ele>90.0</ele>
                <time>2020-08-30T15:39:23.000Z</time>
                <name>Trackpoint 8911</name>
            </trkpt>
            <trkpt lat="49.9970752" lon="8.3015384">
                <ele>90.0</ele>
                <time>2020-08-30T15:39:25.000Z</time>
                <name>Trackpoint 8912</name>
            </trkpt>
            <trkpt lat="49.9970016" lon="8.3013872">
                <ele>90.0</ele>
                <time>2020-08-30T15:39:27.000Z</time>
                <name>Trackpoint 8913</name>
            </trkpt>
            <trkpt lat="49.9969344" lon="8.30124">
                <ele>91.0</ele>
                <time>2020-08-30T15:39:29.000Z</time>
                <name>Trackpoint 8914</name>
            </trkpt>
            <trkpt lat="49.9968704" lon="8.3010976">
                <ele>91.0</ele>
                <time>2020-08-30T15:39:31.000Z</time>
                <name>Trackpoint 8915</name>
            </trkpt>
            <trkpt lat="49.9968192" lon="8.3009456">
                <ele>91.0</ele>
                <time>2020-08-30T15:39:33.000Z</time>
                <name>Trackpoint 8916</name>
            </trkpt>
            <trkpt lat="49.9967488" lon="8.3007936">
                <ele>91.0</ele>
                <time>2020-08-30T15:39:35.000Z</time>
                <name>Trackpoint 8917</name>
            </trkpt>
            <trkpt lat="49.9966784" lon="8.3006448">
                <ele>91.0</ele>
                <time>2020-08-30T15:39:37.000Z</time>
                <name>Trackpoint 8918</name>
            </trkpt>
            <trkpt lat="49.9966208" lon="8.3004952">
                <ele>91.0</ele>
                <time>2020-08-30T15:39:39.000Z</time>
                <name>Trackpoint 8919</name>
            </trkpt>
            <trkpt lat="49.9965664" lon="8.3003416">
                <ele>90.0</ele>
                <time>2020-08-30T15:39:41.000Z</time>
                <name>Trackpoint 8920</name>
            </trkpt>
            <trkpt lat="49.9965056" lon="8.3001896">
                <ele>89.0</ele>
                <time>2020-08-30T15:39:43.000Z</time>
                <name>Trackpoint 8921</name>
            </trkpt>
            <trkpt lat="49.996448" lon="8.3000336">
                <ele>89.0</ele>
                <time>2020-08-30T15:39:45.000Z</time>
                <name>Trackpoint 8922</name>
            </trkpt>
            <trkpt lat="49.9963936" lon="8.299876">
                <ele>89.0</ele>
                <time>2020-08-30T15:39:47.000Z</time>
                <name>Trackpoint 8923</name>
            </trkpt>
            <trkpt lat="49.9963392" lon="8.29972">
                <ele>89.0</ele>
                <time>2020-08-30T15:39:49.000Z</time>
                <name>Trackpoint 8924</name>
            </trkpt>
            <trkpt lat="49.9963008" lon="8.2995664">
                <ele>90.0</ele>
                <time>2020-08-30T15:39:51.000Z</time>
                <name>Trackpoint 8925</name>
            </trkpt>
            <trkpt lat="49.9962496" lon="8.2994248">
                <ele>90.0</ele>
                <time>2020-08-30T15:39:53.000Z</time>
                <name>Trackpoint 8926</name>
            </trkpt>
            <trkpt lat="49.996208" lon="8.2992752">
                <ele>90.0</ele>
                <time>2020-08-30T15:39:55.000Z</time>
                <name>Trackpoint 8927</name>
            </trkpt>
            <trkpt lat="49.99616" lon="8.2991248">
                <ele>90.0</ele>
                <time>2020-08-30T15:39:57.000Z</time>
                <name>Trackpoint 8928</name>
            </trkpt>
            <trkpt lat="49.9961024" lon="8.2989864">
                <ele>90.0</ele>
                <time>2020-08-30T15:39:59.000Z</time>
                <name>Trackpoint 8929</name>
            </trkpt>
            <trkpt lat="49.996048" lon="8.298848">
                <ele>90.0</ele>
                <time>2020-08-30T15:40:01.000Z</time>
                <name>Trackpoint 8930</name>
            </trkpt>
            <trkpt lat="49.995984" lon="8.2987096">
                <ele>90.0</ele>
                <time>2020-08-30T15:40:03.000Z</time>
                <name>Trackpoint 8931</name>
            </trkpt>
            <trkpt lat="49.9959072" lon="8.2985712">
                <ele>90.0</ele>
                <time>2020-08-30T15:40:05.000Z</time>
                <name>Trackpoint 8932</name>
            </trkpt>
            <trkpt lat="49.9958336" lon="8.2984384">
                <ele>90.0</ele>
                <time>2020-08-30T15:40:07.000Z</time>
                <name>Trackpoint 8933</name>
            </trkpt>
            <trkpt lat="49.995776" lon="8.2983">
                <ele>90.0</ele>
                <time>2020-08-30T15:40:09.000Z</time>
                <name>Trackpoint 8934</name>
            </trkpt>
            <trkpt lat="49.9957152" lon="8.2981552">
                <ele>90.0</ele>
                <time>2020-08-30T15:40:11.000Z</time>
                <name>Trackpoint 8935</name>
            </trkpt>
            <trkpt lat="49.9956576" lon="8.2980232">
                <ele>90.0</ele>
                <time>2020-08-30T15:40:13.000Z</time>
                <name>Trackpoint 8936</name>
            </trkpt>
            <trkpt lat="49.9956032" lon="8.2978736">
                <ele>90.0</ele>
                <time>2020-08-30T15:40:15.000Z</time>
                <name>Trackpoint 8937</name>
            </trkpt>
            <trkpt lat="49.995552" lon="8.297704">
                <ele>90.0</ele>
                <time>2020-08-30T15:40:17.000Z</time>
                <name>Trackpoint 8938</name>
            </trkpt>
            <trkpt lat="49.9955328" lon="8.2976064">
                <ele>90.0</ele>
                <time>2020-08-30T15:40:18.000Z</time>
                <name>Trackpoint 8939</name>
            </trkpt>
            <trkpt lat="49.9955264" lon="8.2975152">
                <ele>90.0</ele>
                <time>2020-08-30T15:40:19.000Z</time>
                <name>Trackpoint 8940</name>
            </trkpt>
            <trkpt lat="49.9955552" lon="8.2974144">
                <ele>88.0</ele>
                <time>2020-08-30T15:40:20.000Z</time>
                <name>Trackpoint 8941</name>
            </trkpt>
            <trkpt lat="49.9955296" lon="8.2972384">
                <ele>88.0</ele>
                <time>2020-08-30T15:40:22.000Z</time>
                <name>Trackpoint 8942</name>
            </trkpt>
            <trkpt lat="49.9955104" lon="8.2971496">
                <ele>88.0</ele>
                <time>2020-08-30T15:40:23.000Z</time>
                <name>Trackpoint 8943</name>
            </trkpt>
            <trkpt lat="49.9954752" lon="8.2969752">
                <ele>88.0</ele>
                <time>2020-08-30T15:40:25.000Z</time>
                <name>Trackpoint 8944</name>
            </trkpt>
            <trkpt lat="49.995456" lon="8.2968864">
                <ele>89.0</ele>
                <time>2020-08-30T15:40:26.000Z</time>
                <name>Trackpoint 8945</name>
            </trkpt>
            <trkpt lat="49.9954112" lon="8.2967216">
                <ele>89.0</ele>
                <time>2020-08-30T15:40:28.000Z</time>
                <name>Trackpoint 8946</name>
            </trkpt>
            <trkpt lat="49.9953728" lon="8.2965672">
                <ele>89.0</ele>
                <time>2020-08-30T15:40:30.000Z</time>
                <name>Trackpoint 8947</name>
            </trkpt>
            <trkpt lat="49.9953472" lon="8.2964232">
                <ele>89.0</ele>
                <time>2020-08-30T15:40:32.000Z</time>
                <name>Trackpoint 8948</name>
            </trkpt>
            <trkpt lat="49.9953216" lon="8.29628">
                <ele>89.0</ele>
                <time>2020-08-30T15:40:34.000Z</time>
                <name>Trackpoint 8949</name>
            </trkpt>
            <trkpt lat="49.9952864" lon="8.2961368">
                <ele>89.0</ele>
                <time>2020-08-30T15:40:36.000Z</time>
                <name>Trackpoint 8950</name>
            </trkpt>
            <trkpt lat="49.9952512" lon="8.2959984">
                <ele>89.0</ele>
                <time>2020-08-30T15:40:38.000Z</time>
                <name>Trackpoint 8951</name>
            </trkpt>
            <trkpt lat="49.995232" lon="8.295852">
                <ele>89.0</ele>
                <time>2020-08-30T15:40:40.000Z</time>
                <name>Trackpoint 8952</name>
            </trkpt>
            <trkpt lat="49.9951968" lon="8.2957064">
                <ele>89.0</ele>
                <time>2020-08-30T15:40:42.000Z</time>
                <name>Trackpoint 8953</name>
            </trkpt>
            <trkpt lat="49.9951808" lon="8.2955464">
                <ele>89.0</ele>
                <time>2020-08-30T15:40:44.000Z</time>
                <name>Trackpoint 8954</name>
            </trkpt>
            <trkpt lat="49.9951616" lon="8.2953664">
                <ele>89.0</ele>
                <time>2020-08-30T15:40:46.000Z</time>
                <name>Trackpoint 8955</name>
            </trkpt>
            <trkpt lat="49.995152" lon="8.295208">
                <ele>89.0</ele>
                <time>2020-08-30T15:40:48.000Z</time>
                <name>Trackpoint 8956</name>
            </trkpt>
            <trkpt lat="49.9951392" lon="8.2950472">
                <ele>89.0</ele>
                <time>2020-08-30T15:40:50.000Z</time>
                <name>Trackpoint 8957</name>
            </trkpt>
            <trkpt lat="49.9951328" lon="8.2949016">
                <ele>89.0</ele>
                <time>2020-08-30T15:40:52.000Z</time>
                <name>Trackpoint 8958</name>
            </trkpt>
            <trkpt lat="49.9951424" lon="8.294748">
                <ele>89.0</ele>
                <time>2020-08-30T15:40:54.000Z</time>
                <name>Trackpoint 8959</name>
            </trkpt>
            <trkpt lat="49.9951936" lon="8.2945896">
                <ele>89.0</ele>
                <time>2020-08-30T15:40:56.000Z</time>
                <name>Trackpoint 8960</name>
            </trkpt>
            <trkpt lat="49.995216" lon="8.2944272">
                <ele>89.0</ele>
                <time>2020-08-30T15:40:58.000Z</time>
                <name>Trackpoint 8961</name>
            </trkpt>
            <trkpt lat="49.9952288" lon="8.2942552">
                <ele>89.0</ele>
                <time>2020-08-30T15:41:00.000Z</time>
                <name>Trackpoint 8962</name>
            </trkpt>
            <trkpt lat="49.995232" lon="8.2941616">
                <ele>89.0</ele>
                <time>2020-08-30T15:41:01.000Z</time>
                <name>Trackpoint 8963</name>
            </trkpt>
            <trkpt lat="49.995248" lon="8.29402">
                <ele>89.0</ele>
                <time>2020-08-30T15:41:03.000Z</time>
                <name>Trackpoint 8964</name>
            </trkpt>
            <trkpt lat="49.9952704" lon="8.2938928">
                <ele>89.0</ele>
                <time>2020-08-30T15:41:05.000Z</time>
                <name>Trackpoint 8965</name>
            </trkpt>
            <trkpt lat="49.9952928" lon="8.2937784">
                <ele>89.0</ele>
                <time>2020-08-30T15:41:07.000Z</time>
                <name>Trackpoint 8966</name>
            </trkpt>
            <trkpt lat="49.9953088" lon="8.293672">
                <ele>88.0</ele>
                <time>2020-08-30T15:41:10.000Z</time>
                <name>Trackpoint 8967</name>
            </trkpt>
            <trkpt lat="49.9953664" lon="8.2935816">
                <ele>88.0</ele>
                <time>2020-08-30T15:44:48.000Z</time>
                <name>Trackpoint 8968</name>
            </trkpt>
            <trkpt lat="49.9953888" lon="8.2934912">
                <ele>88.0</ele>
                <time>2020-08-30T15:44:53.000Z</time>
                <name>Trackpoint 8969</name>
            </trkpt>
            <trkpt lat="49.9954112" lon="8.2934">
                <ele>87.0</ele>
                <time>2020-08-30T15:49:36.000Z</time>
                <name>Trackpoint 8970</name>
            </trkpt>
            <trkpt lat="49.9954336" lon="8.293292">
                <ele>87.0</ele>
                <time>2020-08-30T15:49:40.000Z</time>
                <name>Trackpoint 8971</name>
            </trkpt>
            <trkpt lat="49.9954496" lon="8.2931872">
                <ele>87.0</ele>
                <time>2020-08-30T15:49:48.000Z</time>
                <name>Trackpoint 8972</name>
            </trkpt>
            <trkpt lat="49.995472" lon="8.2930632">
                <ele>87.0</ele>
                <time>2020-08-30T15:49:52.000Z</time>
                <name>Trackpoint 8973</name>
            </trkpt>
            <trkpt lat="49.9955104" lon="8.2929384">
                <ele>87.0</ele>
                <time>2020-08-30T15:49:55.000Z</time>
                <name>Trackpoint 8974</name>
            </trkpt>
            <trkpt lat="49.995536" lon="8.2928496">
                <ele>87.0</ele>
                <time>2020-08-30T15:49:57.000Z</time>
                <name>Trackpoint 8975</name>
            </trkpt>
            <trkpt lat="49.9955584" lon="8.2927576">
                <ele>86.0</ele>
                <time>2020-08-30T15:49:59.000Z</time>
                <name>Trackpoint 8976</name>
            </trkpt>
            <trkpt lat="49.9955968" lon="8.2926304">
                <ele>86.0</ele>
                <time>2020-08-30T15:50:02.000Z</time>
                <name>Trackpoint 8977</name>
            </trkpt>
            <trkpt lat="49.995632" lon="8.2925384">
                <ele>86.0</ele>
                <time>2020-08-30T15:50:04.000Z</time>
                <name>Trackpoint 8978</name>
            </trkpt>
            <trkpt lat="49.9956672" lon="8.2924472">
                <ele>87.0</ele>
                <time>2020-08-30T15:50:06.000Z</time>
                <name>Trackpoint 8979</name>
            </trkpt>
            <trkpt lat="49.9957024" lon="8.2923472">
                <ele>86.0</ele>
                <time>2020-08-30T15:50:08.000Z</time>
                <name>Trackpoint 8980</name>
            </trkpt>
            <trkpt lat="49.9957376" lon="8.292236">
                <ele>86.0</ele>
                <time>2020-08-30T15:50:10.000Z</time>
                <name>Trackpoint 8981</name>
            </trkpt>
            <trkpt lat="49.9957728" lon="8.2921312">
                <ele>86.0</ele>
                <time>2020-08-30T15:50:12.000Z</time>
                <name>Trackpoint 8982</name>
            </trkpt>
            <trkpt lat="49.9958144" lon="8.2920288">
                <ele>86.0</ele>
                <time>2020-08-30T15:50:14.000Z</time>
                <name>Trackpoint 8983</name>
            </trkpt>
            <trkpt lat="49.995856" lon="8.29192">
                <ele>86.0</ele>
                <time>2020-08-30T15:50:16.000Z</time>
                <name>Trackpoint 8984</name>
            </trkpt>
            <trkpt lat="49.9959072" lon="8.2918128">
                <ele>86.0</ele>
                <time>2020-08-30T15:50:18.000Z</time>
                <name>Trackpoint 8985</name>
            </trkpt>
            <trkpt lat="49.9959488" lon="8.2917096">
                <ele>86.0</ele>
                <time>2020-08-30T15:50:20.000Z</time>
                <name>Trackpoint 8986</name>
            </trkpt>
            <trkpt lat="49.9959968" lon="8.291612">
                <ele>86.0</ele>
                <time>2020-08-30T15:50:22.000Z</time>
                <name>Trackpoint 8987</name>
            </trkpt>
            <trkpt lat="49.9960512" lon="8.2915064">
                <ele>87.0</ele>
                <time>2020-08-30T15:50:24.000Z</time>
                <name>Trackpoint 8988</name>
            </trkpt>
            <trkpt lat="49.9961056" lon="8.2914">
                <ele>87.0</ele>
                <time>2020-08-30T15:50:26.000Z</time>
                <name>Trackpoint 8989</name>
            </trkpt>
            <trkpt lat="49.9961632" lon="8.2912928">
                <ele>87.0</ele>
                <time>2020-08-30T15:50:28.000Z</time>
                <name>Trackpoint 8990</name>
            </trkpt>
            <trkpt lat="49.9962208" lon="8.2912104">
                <ele>86.0</ele>
                <time>2020-08-30T15:50:30.000Z</time>
                <name>Trackpoint 8991</name>
            </trkpt>
            <trkpt lat="49.9962848" lon="8.2911064">
                <ele>87.0</ele>
                <time>2020-08-30T15:50:32.000Z</time>
                <name>Trackpoint 8992</name>
            </trkpt>
            <trkpt lat="49.9963424" lon="8.2910136">
                <ele>87.0</ele>
                <time>2020-08-30T15:50:34.000Z</time>
                <name>Trackpoint 8993</name>
            </trkpt>
            <trkpt lat="49.9964" lon="8.2909296">
                <ele>87.0</ele>
                <time>2020-08-30T15:50:36.000Z</time>
                <name>Trackpoint 8994</name>
            </trkpt>
            <trkpt lat="49.9964576" lon="8.2908584">
                <ele>87.0</ele>
                <time>2020-08-30T15:50:38.000Z</time>
                <name>Trackpoint 8995</name>
            </trkpt>
            <trkpt lat="49.9965088" lon="8.290776">
                <ele>87.0</ele>
                <time>2020-08-30T15:50:40.000Z</time>
                <name>Trackpoint 8996</name>
            </trkpt>
            <trkpt lat="49.9965664" lon="8.2906936">
                <ele>87.0</ele>
                <time>2020-08-30T15:50:42.000Z</time>
                <name>Trackpoint 8997</name>
            </trkpt>
            <trkpt lat="49.9966208" lon="8.2906168">
                <ele>87.0</ele>
                <time>2020-08-30T15:50:44.000Z</time>
                <name>Trackpoint 8998</name>
            </trkpt>
            <trkpt lat="49.9966848" lon="8.2905056">
                <ele>87.0</ele>
                <time>2020-08-30T15:50:47.000Z</time>
                <name>Trackpoint 8999</name>
            </trkpt>
            <trkpt lat="49.9967552" lon="8.290392">
                <ele>87.0</ele>
                <time>2020-08-30T15:50:50.000Z</time>
                <name>Trackpoint 9000</name>
            </trkpt>
            <trkpt lat="49.9968288" lon="8.2902968">
                <ele>87.0</ele>
                <time>2020-08-30T15:50:53.000Z</time>
                <name>Trackpoint 9001</name>
            </trkpt>
            <trkpt lat="49.996896" lon="8.2902096">
                <ele>87.0</ele>
                <time>2020-08-30T15:50:56.000Z</time>
                <name>Trackpoint 9002</name>
            </trkpt>
            <trkpt lat="49.9969856" lon="8.2901112">
                <ele>87.0</ele>
                <time>2020-08-30T15:50:59.000Z</time>
                <name>Trackpoint 9003</name>
            </trkpt>
            <trkpt lat="49.99704" lon="8.290036">
                <ele>87.0</ele>
                <time>2020-08-30T15:51:01.000Z</time>
                <name>Trackpoint 9004</name>
            </trkpt>
            <trkpt lat="49.9971072" lon="8.2899352">
                <ele>87.0</ele>
                <time>2020-08-30T15:51:04.000Z</time>
                <name>Trackpoint 9005</name>
            </trkpt>
            <trkpt lat="49.9971616" lon="8.2898568">
                <ele>88.0</ele>
                <time>2020-08-30T15:51:48.000Z</time>
                <name>Trackpoint 9006</name>
            </trkpt>
            <trkpt lat="49.9972384" lon="8.2897656">
                <ele>88.0</ele>
                <time>2020-08-30T15:51:53.000Z</time>
                <name>Trackpoint 9007</name>
            </trkpt>
            <trkpt lat="49.9973152" lon="8.2896568">
                <ele>88.0</ele>
                <time>2020-08-30T15:51:56.000Z</time>
                <name>Trackpoint 9008</name>
            </trkpt>
            <trkpt lat="49.9973728" lon="8.289572">
                <ele>88.0</ele>
                <time>2020-08-30T15:51:58.000Z</time>
                <name>Trackpoint 9009</name>
            </trkpt>
            <trkpt lat="49.99744" lon="8.2894896">
                <ele>88.0</ele>
                <time>2020-08-30T15:52:00.000Z</time>
                <name>Trackpoint 9010</name>
            </trkpt>
            <trkpt lat="49.9975136" lon="8.2894088">
                <ele>88.0</ele>
                <time>2020-08-30T15:52:02.000Z</time>
                <name>Trackpoint 9011</name>
            </trkpt>
            <trkpt lat="49.997584" lon="8.2893264">
                <ele>88.0</ele>
                <time>2020-08-30T15:52:04.000Z</time>
                <name>Trackpoint 9012</name>
            </trkpt>
            <trkpt lat="49.9976576" lon="8.28924">
                <ele>88.0</ele>
                <time>2020-08-30T15:52:06.000Z</time>
                <name>Trackpoint 9013</name>
            </trkpt>
            <trkpt lat="49.9977216" lon="8.2891552">
                <ele>88.0</ele>
                <time>2020-08-30T15:52:08.000Z</time>
                <name>Trackpoint 9014</name>
            </trkpt>
            <trkpt lat="49.9977888" lon="8.2890768">
                <ele>88.0</ele>
                <time>2020-08-30T15:52:10.000Z</time>
                <name>Trackpoint 9015</name>
            </trkpt>
            <trkpt lat="49.9978528" lon="8.2889968">
                <ele>88.0</ele>
                <time>2020-08-30T15:52:12.000Z</time>
                <name>Trackpoint 9016</name>
            </trkpt>
            <trkpt lat="49.9979104" lon="8.2889168">
                <ele>88.0</ele>
                <time>2020-08-30T15:52:14.000Z</time>
                <name>Trackpoint 9017</name>
            </trkpt>
            <trkpt lat="49.9979712" lon="8.2888384">
                <ele>88.0</ele>
                <time>2020-08-30T15:52:16.000Z</time>
                <name>Trackpoint 9018</name>
            </trkpt>
            <trkpt lat="49.998032" lon="8.2887648">
                <ele>88.0</ele>
                <time>2020-08-30T15:52:18.000Z</time>
                <name>Trackpoint 9019</name>
            </trkpt>
            <trkpt lat="49.9980928" lon="8.2886984">
                <ele>88.0</ele>
                <time>2020-08-30T15:52:20.000Z</time>
                <name>Trackpoint 9020</name>
            </trkpt>
            <trkpt lat="49.99816" lon="8.2886248">
                <ele>88.0</ele>
                <time>2020-08-30T15:52:23.000Z</time>
                <name>Trackpoint 9021</name>
            </trkpt>
            <trkpt lat="49.9982208" lon="8.2885336">
                <ele>87.0</ele>
                <time>2020-08-30T15:52:26.000Z</time>
                <name>Trackpoint 9022</name>
            </trkpt>
            <trkpt lat="49.9983104" lon="8.2884432">
                <ele>87.0</ele>
                <time>2020-08-30T15:52:29.000Z</time>
                <name>Trackpoint 9023</name>
            </trkpt>
            <trkpt lat="49.9984064" lon="8.2883504">
                <ele>87.0</ele>
                <time>2020-08-30T15:52:32.000Z</time>
                <name>Trackpoint 9024</name>
            </trkpt>
            <trkpt lat="49.9984704" lon="8.2882728">
                <ele>87.0</ele>
                <time>2020-08-30T15:52:34.000Z</time>
                <name>Trackpoint 9025</name>
            </trkpt>
            <trkpt lat="49.998544" lon="8.288188">
                <ele>87.0</ele>
                <time>2020-08-30T15:52:36.000Z</time>
                <name>Trackpoint 9026</name>
            </trkpt>
            <trkpt lat="49.9986144" lon="8.2881096">
                <ele>87.0</ele>
                <time>2020-08-30T15:52:38.000Z</time>
                <name>Trackpoint 9027</name>
            </trkpt>
            <trkpt lat="49.9986848" lon="8.28804">
                <ele>87.0</ele>
                <time>2020-08-30T15:52:40.000Z</time>
                <name>Trackpoint 9028</name>
            </trkpt>
            <trkpt lat="49.9987456" lon="8.2879664">
                <ele>87.0</ele>
                <time>2020-08-30T15:52:42.000Z</time>
                <name>Trackpoint 9029</name>
            </trkpt>
            <trkpt lat="49.9988064" lon="8.2878888">
                <ele>87.0</ele>
                <time>2020-08-30T15:52:44.000Z</time>
                <name>Trackpoint 9030</name>
            </trkpt>
            <trkpt lat="49.99888" lon="8.2878168">
                <ele>87.0</ele>
                <time>2020-08-30T15:52:46.000Z</time>
                <name>Trackpoint 9031</name>
            </trkpt>
            <trkpt lat="49.9989536" lon="8.2877352">
                <ele>87.0</ele>
                <time>2020-08-30T15:52:48.000Z</time>
                <name>Trackpoint 9032</name>
            </trkpt>
            <trkpt lat="49.9990304" lon="8.2876552">
                <ele>87.0</ele>
                <time>2020-08-30T15:52:50.000Z</time>
                <name>Trackpoint 9033</name>
            </trkpt>
            <trkpt lat="49.9991136" lon="8.287572">
                <ele>87.0</ele>
                <time>2020-08-30T15:52:52.000Z</time>
                <name>Trackpoint 9034</name>
            </trkpt>
            <trkpt lat="49.9991872" lon="8.2874944">
                <ele>87.0</ele>
                <time>2020-08-30T15:52:54.000Z</time>
                <name>Trackpoint 9035</name>
            </trkpt>
            <trkpt lat="49.9992608" lon="8.28742">
                <ele>88.0</ele>
                <time>2020-08-30T15:52:56.000Z</time>
                <name>Trackpoint 9036</name>
            </trkpt>
            <trkpt lat="49.999328" lon="8.287356">
                <ele>88.0</ele>
                <time>2020-08-30T15:52:58.000Z</time>
                <name>Trackpoint 9037</name>
            </trkpt>
            <trkpt lat="49.9993984" lon="8.2872848">
                <ele>88.0</ele>
                <time>2020-08-30T15:53:00.000Z</time>
                <name>Trackpoint 9038</name>
            </trkpt>
            <trkpt lat="49.999472" lon="8.2872048">
                <ele>87.0</ele>
                <time>2020-08-30T15:53:02.000Z</time>
                <name>Trackpoint 9039</name>
            </trkpt>
            <trkpt lat="49.9995488" lon="8.2871264">
                <ele>87.0</ele>
                <time>2020-08-30T15:53:04.000Z</time>
                <name>Trackpoint 9040</name>
            </trkpt>
            <trkpt lat="49.9996352" lon="8.2870552">
                <ele>87.0</ele>
                <time>2020-08-30T15:53:06.000Z</time>
                <name>Trackpoint 9041</name>
            </trkpt>
            <trkpt lat="49.9997056" lon="8.2869832">
                <ele>87.0</ele>
                <time>2020-08-30T15:53:08.000Z</time>
                <name>Trackpoint 9042</name>
            </trkpt>
            <trkpt lat="49.9997792" lon="8.286912">
                <ele>87.0</ele>
                <time>2020-08-30T15:53:10.000Z</time>
                <name>Trackpoint 9043</name>
            </trkpt>
            <trkpt lat="49.9998528" lon="8.2868456">
                <ele>87.0</ele>
                <time>2020-08-30T15:53:12.000Z</time>
                <name>Trackpoint 9044</name>
            </trkpt>
            <trkpt lat="49.99992" lon="8.286768">
                <ele>87.0</ele>
                <time>2020-08-30T15:53:14.000Z</time>
                <name>Trackpoint 9045</name>
            </trkpt>
            <trkpt lat="49.9999936" lon="8.2866944">
                <ele>87.0</ele>
                <time>2020-08-30T15:53:16.000Z</time>
                <name>Trackpoint 9046</name>
            </trkpt>
            <trkpt lat="50.0000608" lon="8.28662">
                <ele>87.0</ele>
                <time>2020-08-30T15:53:18.000Z</time>
                <name>Trackpoint 9047</name>
            </trkpt>
            <trkpt lat="50.0001408" lon="8.2865448">
                <ele>87.0</ele>
                <time>2020-08-30T15:53:21.000Z</time>
                <name>Trackpoint 9048</name>
            </trkpt>
            <trkpt lat="50.0002208" lon="8.2864888">
                <ele>86.0</ele>
                <time>2020-08-30T15:54:19.000Z</time>
                <name>Trackpoint 9049</name>
            </trkpt>
            <trkpt lat="50.0003008" lon="8.2864048">
                <ele>87.0</ele>
                <time>2020-08-30T15:54:22.000Z</time>
                <name>Trackpoint 9050</name>
            </trkpt>
            <trkpt lat="50.0003936" lon="8.2863168">
                <ele>87.0</ele>
                <time>2020-08-30T15:54:25.000Z</time>
                <name>Trackpoint 9051</name>
            </trkpt>
            <trkpt lat="50.0004576" lon="8.286248">
                <ele>87.0</ele>
                <time>2020-08-30T15:54:27.000Z</time>
                <name>Trackpoint 9052</name>
            </trkpt>
            <trkpt lat="50.0005344" lon="8.2861744">
                <ele>87.0</ele>
                <time>2020-08-30T15:54:29.000Z</time>
                <name>Trackpoint 9053</name>
            </trkpt>
            <trkpt lat="50.0006176" lon="8.2860944">
                <ele>88.0</ele>
                <time>2020-08-30T15:54:31.000Z</time>
                <name>Trackpoint 9054</name>
            </trkpt>
            <trkpt lat="50.0006976" lon="8.2860048">
                <ele>87.0</ele>
                <time>2020-08-30T15:54:33.000Z</time>
                <name>Trackpoint 9055</name>
            </trkpt>
            <trkpt lat="50.0007808" lon="8.2859248">
                <ele>87.0</ele>
                <time>2020-08-30T15:54:35.000Z</time>
                <name>Trackpoint 9056</name>
            </trkpt>
            <trkpt lat="50.0008672" lon="8.2858432">
                <ele>87.0</ele>
                <time>2020-08-30T15:54:37.000Z</time>
                <name>Trackpoint 9057</name>
            </trkpt>
            <trkpt lat="50.0009504" lon="8.2857712">
                <ele>88.0</ele>
                <time>2020-08-30T15:54:39.000Z</time>
                <name>Trackpoint 9058</name>
            </trkpt>
            <trkpt lat="50.00104" lon="8.2857048">
                <ele>87.0</ele>
                <time>2020-08-30T15:54:41.000Z</time>
                <name>Trackpoint 9059</name>
            </trkpt>
            <trkpt lat="50.0011264" lon="8.28564">
                <ele>88.0</ele>
                <time>2020-08-30T15:54:43.000Z</time>
                <name>Trackpoint 9060</name>
            </trkpt>
            <trkpt lat="50.0012096" lon="8.2855768">
                <ele>88.0</ele>
                <time>2020-08-30T15:54:45.000Z</time>
                <name>Trackpoint 9061</name>
            </trkpt>
            <trkpt lat="50.0012864" lon="8.285508">
                <ele>87.0</ele>
                <time>2020-08-30T15:54:47.000Z</time>
                <name>Trackpoint 9062</name>
            </trkpt>
            <trkpt lat="50.0013696" lon="8.2854544">
                <ele>88.0</ele>
                <time>2020-08-30T15:54:49.000Z</time>
                <name>Trackpoint 9063</name>
            </trkpt>
            <trkpt lat="50.0014496" lon="8.2853936">
                <ele>88.0</ele>
                <time>2020-08-30T15:54:51.000Z</time>
                <name>Trackpoint 9064</name>
            </trkpt>
            <trkpt lat="50.0015328" lon="8.2853168">
                <ele>88.0</ele>
                <time>2020-08-30T15:54:53.000Z</time>
                <name>Trackpoint 9065</name>
            </trkpt>
            <trkpt lat="50.0016256" lon="8.2852424">
                <ele>87.0</ele>
                <time>2020-08-30T15:54:55.000Z</time>
                <name>Trackpoint 9066</name>
            </trkpt>
            <trkpt lat="50.0017056" lon="8.2851848">
                <ele>87.0</ele>
                <time>2020-08-30T15:54:57.000Z</time>
                <name>Trackpoint 9067</name>
            </trkpt>
            <trkpt lat="50.0017824" lon="8.285104">
                <ele>87.0</ele>
                <time>2020-08-30T15:54:59.000Z</time>
                <name>Trackpoint 9068</name>
            </trkpt>
            <trkpt lat="50.0018784" lon="8.2850216">
                <ele>87.0</ele>
                <time>2020-08-30T15:55:01.000Z</time>
                <name>Trackpoint 9069</name>
            </trkpt>
            <trkpt lat="50.001968" lon="8.284948">
                <ele>88.0</ele>
                <time>2020-08-30T15:55:03.000Z</time>
                <name>Trackpoint 9070</name>
            </trkpt>
            <trkpt lat="50.0020576" lon="8.2848768">
                <ele>88.0</ele>
                <time>2020-08-30T15:55:05.000Z</time>
                <name>Trackpoint 9071</name>
            </trkpt>
            <trkpt lat="50.0021312" lon="8.2848104">
                <ele>88.0</ele>
                <time>2020-08-30T15:55:07.000Z</time>
                <name>Trackpoint 9072</name>
            </trkpt>
            <trkpt lat="50.002208" lon="8.284748">
                <ele>88.0</ele>
                <time>2020-08-30T15:55:09.000Z</time>
                <name>Trackpoint 9073</name>
            </trkpt>
            <trkpt lat="50.0022976" lon="8.2846784">
                <ele>87.0</ele>
                <time>2020-08-30T15:55:11.000Z</time>
                <name>Trackpoint 9074</name>
            </trkpt>
            <trkpt lat="50.002384" lon="8.2846016">
                <ele>88.0</ele>
                <time>2020-08-30T15:55:13.000Z</time>
                <name>Trackpoint 9075</name>
            </trkpt>
            <trkpt lat="50.0024544" lon="8.2845288">
                <ele>88.0</ele>
                <time>2020-08-30T15:55:15.000Z</time>
                <name>Trackpoint 9076</name>
            </trkpt>
            <trkpt lat="50.0025376" lon="8.2844536">
                <ele>88.0</ele>
                <time>2020-08-30T15:55:17.000Z</time>
                <name>Trackpoint 9077</name>
            </trkpt>
            <trkpt lat="50.0026176" lon="8.2843816">
                <ele>88.0</ele>
                <time>2020-08-30T15:55:19.000Z</time>
                <name>Trackpoint 9078</name>
            </trkpt>
            <trkpt lat="50.002688" lon="8.28432">
                <ele>87.0</ele>
                <time>2020-08-30T15:55:21.000Z</time>
                <name>Trackpoint 9079</name>
            </trkpt>
            <trkpt lat="50.0027808" lon="8.28424">
                <ele>87.0</ele>
                <time>2020-08-30T15:55:23.000Z</time>
                <name>Trackpoint 9080</name>
            </trkpt>
            <trkpt lat="50.0028576" lon="8.28418">
                <ele>87.0</ele>
                <time>2020-08-30T15:55:25.000Z</time>
                <name>Trackpoint 9081</name>
            </trkpt>
            <trkpt lat="50.0029248" lon="8.2841128">
                <ele>87.0</ele>
                <time>2020-08-30T15:55:27.000Z</time>
                <name>Trackpoint 9082</name>
            </trkpt>
            <trkpt lat="50.0029984" lon="8.284048">
                <ele>87.0</ele>
                <time>2020-08-30T15:55:30.000Z</time>
                <name>Trackpoint 9083</name>
            </trkpt>
            <trkpt lat="50.0030784" lon="8.2839848">
                <ele>87.0</ele>
                <time>2020-08-30T15:55:35.000Z</time>
                <name>Trackpoint 9084</name>
            </trkpt>
            <trkpt lat="50.0031776" lon="8.2839768">
                <ele>87.0</ele>
                <time>2020-08-30T15:57:50.000Z</time>
                <name>Trackpoint 9085</name>
            </trkpt>
            <trkpt lat="50.003264" lon="8.2839272">
                <ele>87.0</ele>
                <time>2020-08-30T15:57:54.000Z</time>
                <name>Trackpoint 9086</name>
            </trkpt>
            <trkpt lat="50.0033504" lon="8.2838632">
                <ele>87.0</ele>
                <time>2020-08-30T15:57:57.000Z</time>
                <name>Trackpoint 9087</name>
            </trkpt>
            <trkpt lat="50.00344" lon="8.2837912">
                <ele>87.0</ele>
                <time>2020-08-30T15:58:01.000Z</time>
                <name>Trackpoint 9088</name>
            </trkpt>
            <trkpt lat="50.0035168" lon="8.2837096">
                <ele>87.0</ele>
                <time>2020-08-30T15:58:05.000Z</time>
                <name>Trackpoint 9089</name>
            </trkpt>
            <trkpt lat="50.0035936" lon="8.28366">
                <ele>88.0</ele>
                <time>2020-08-30T15:58:09.000Z</time>
                <name>Trackpoint 9090</name>
            </trkpt>
            <trkpt lat="50.0036736" lon="8.2836048">
                <ele>89.0</ele>
                <time>2020-08-30T15:58:30.000Z</time>
                <name>Trackpoint 9091</name>
            </trkpt>
            <trkpt lat="50.0037504" lon="8.283548">
                <ele>89.0</ele>
                <time>2020-08-30T15:58:35.000Z</time>
                <name>Trackpoint 9092</name>
            </trkpt>
            <trkpt lat="50.00384" lon="8.2835728">
                <ele>90.0</ele>
                <time>2020-08-30T15:58:41.000Z</time>
                <name>Trackpoint 9093</name>
            </trkpt>
            <trkpt lat="50.0039136" lon="8.2836304">
                <ele>90.0</ele>
                <time>2020-08-30T15:58:46.000Z</time>
                <name>Trackpoint 9094</name>
            </trkpt>
            <trkpt lat="50.0039744" lon="8.2837">
                <ele>90.0</ele>
                <time>2020-08-30T15:58:50.000Z</time>
                <name>Trackpoint 9095</name>
            </trkpt>
            <trkpt lat="50.0040512" lon="8.2837512">
                <ele>90.0</ele>
                <time>2020-08-30T15:59:33.000Z</time>
                <name>Trackpoint 9096</name>
            </trkpt>
            <trkpt lat="50.004112" lon="8.28382">
                <ele>89.0</ele>
                <time>2020-08-30T15:59:37.000Z</time>
                <name>Trackpoint 9097</name>
            </trkpt>
            <trkpt lat="50.0041888" lon="8.283892">
                <ele>90.0</ele>
                <time>2020-08-30T15:59:41.000Z</time>
                <name>Trackpoint 9098</name>
            </trkpt>
            <trkpt lat="50.0042624" lon="8.2839544">
                <ele>90.0</ele>
                <time>2020-08-30T15:59:45.000Z</time>
                <name>Trackpoint 9099</name>
            </trkpt>
            <trkpt lat="50.0043552" lon="8.2839696">
                <ele>90.0</ele>
                <time>2020-08-30T15:59:51.000Z</time>
                <name>Trackpoint 9100</name>
            </trkpt>
            <trkpt lat="50.0044288" lon="8.2838896">
                <ele>90.0</ele>
                <time>2020-08-30T15:59:55.000Z</time>
                <name>Trackpoint 9101</name>
            </trkpt>
            <trkpt lat="50.0045152" lon="8.2839648">
                <ele>90.0</ele>
                <time>2020-08-30T16:00:00.000Z</time>
                <name>Trackpoint 9102</name>
            </trkpt>
            <trkpt lat="50.00456" lon="8.2840816">
                <ele>90.0</ele>
                <time>2020-08-30T16:00:03.000Z</time>
                <name>Trackpoint 9103</name>
            </trkpt>
            <trkpt lat="50.0046048" lon="8.284212">
                <ele>90.0</ele>
                <time>2020-08-30T16:00:06.000Z</time>
                <name>Trackpoint 9104</name>
            </trkpt>
            <trkpt lat="50.004624" lon="8.2843248">
                <ele>90.0</ele>
                <time>2020-08-30T16:00:09.000Z</time>
                <name>Trackpoint 9105</name>
            </trkpt>
            <trkpt lat="50.0045952" lon="8.2842232">
                <ele>90.0</ele>
                <time>2020-08-30T16:00:22.000Z</time>
                <name>Trackpoint 9106</name>
            </trkpt>
            <trkpt lat="50.00456" lon="8.2841328">
                <ele>90.0</ele>
                <time>2020-08-30T16:00:24.000Z</time>
                <name>Trackpoint 9107</name>
            </trkpt>
            <trkpt lat="50.0045152" lon="8.2839984">
                <ele>90.0</ele>
                <time>2020-08-30T16:00:27.000Z</time>
                <name>Trackpoint 9108</name>
            </trkpt>
            <trkpt lat="50.0044864" lon="8.2839096">
                <ele>91.0</ele>
                <time>2020-08-30T16:00:29.000Z</time>
                <name>Trackpoint 9109</name>
            </trkpt>
            <trkpt lat="50.0044704" lon="8.2838032">
                <ele>91.0</ele>
                <time>2020-08-30T16:00:32.000Z</time>
                <name>Trackpoint 9110</name>
            </trkpt>
            <trkpt lat="50.0045088" lon="8.2836888">
                <ele>90.0</ele>
                <time>2020-08-30T16:00:34.000Z</time>
                <name>Trackpoint 9111</name>
            </trkpt>
            <trkpt lat="50.0045312" lon="8.2835304">
                <ele>90.0</ele>
                <time>2020-08-30T16:00:36.000Z</time>
                <name>Trackpoint 9112</name>
            </trkpt>
            <trkpt lat="50.00456" lon="8.2833968">
                <ele>90.0</ele>
                <time>2020-08-30T16:00:38.000Z</time>
                <name>Trackpoint 9113</name>
            </trkpt>
            <trkpt lat="50.0046048" lon="8.2832544">
                <ele>90.0</ele>
                <time>2020-08-30T16:00:40.000Z</time>
                <name>Trackpoint 9114</name>
            </trkpt>
            <trkpt lat="50.004672" lon="8.2831296">
                <ele>90.0</ele>
                <time>2020-08-30T16:00:42.000Z</time>
                <name>Trackpoint 9115</name>
            </trkpt>
            <trkpt lat="50.0047328" lon="8.2830152">
                <ele>89.0</ele>
                <time>2020-08-30T16:00:44.000Z</time>
                <name>Trackpoint 9116</name>
            </trkpt>
            <trkpt lat="50.0048" lon="8.2828912">
                <ele>89.0</ele>
                <time>2020-08-30T16:00:46.000Z</time>
                <name>Trackpoint 9117</name>
            </trkpt>
            <trkpt lat="50.0048576" lon="8.28278">
                <ele>89.0</ele>
                <time>2020-08-30T16:00:48.000Z</time>
                <name>Trackpoint 9118</name>
            </trkpt>
            <trkpt lat="50.0049088" lon="8.2826704">
                <ele>89.0</ele>
                <time>2020-08-30T16:00:50.000Z</time>
                <name>Trackpoint 9119</name>
            </trkpt>
            <trkpt lat="50.0049792" lon="8.282572">
                <ele>89.0</ele>
                <time>2020-08-30T16:00:52.000Z</time>
                <name>Trackpoint 9120</name>
            </trkpt>
            <trkpt lat="50.005056" lon="8.282452">
                <ele>89.0</ele>
                <time>2020-08-30T16:00:54.000Z</time>
                <name>Trackpoint 9121</name>
            </trkpt>
            <trkpt lat="50.00512" lon="8.2823384">
                <ele>88.0</ele>
                <time>2020-08-30T16:00:56.000Z</time>
                <name>Trackpoint 9122</name>
            </trkpt>
            <trkpt lat="50.0051872" lon="8.2822136">
                <ele>88.0</ele>
                <time>2020-08-30T16:00:58.000Z</time>
                <name>Trackpoint 9123</name>
            </trkpt>
            <trkpt lat="50.0052384" lon="8.2821064">
                <ele>88.0</ele>
                <time>2020-08-30T16:01:00.000Z</time>
                <name>Trackpoint 9124</name>
            </trkpt>
            <trkpt lat="50.0052704" lon="8.2820216">
                <ele>88.0</ele>
                <time>2020-08-30T16:01:04.000Z</time>
                <name>Trackpoint 9125</name>
            </trkpt>
            <trkpt lat="50.0053376" lon="8.2819496">
                <ele>87.0</ele>
                <time>2020-08-30T16:01:29.000Z</time>
                <name>Trackpoint 9126</name>
            </trkpt>
            <trkpt lat="50.0053888" lon="8.2818448">
                <ele>87.0</ele>
                <time>2020-08-30T16:01:32.000Z</time>
                <name>Trackpoint 9127</name>
            </trkpt>
            <trkpt lat="50.0054528" lon="8.2817432">
                <ele>86.0</ele>
                <time>2020-08-30T16:01:35.000Z</time>
                <name>Trackpoint 9128</name>
            </trkpt>
            <trkpt lat="50.0055008" lon="8.2816464">
                <ele>86.0</ele>
                <time>2020-08-30T16:01:38.000Z</time>
                <name>Trackpoint 9129</name>
            </trkpt>
            <trkpt lat="50.0055456" lon="8.281564">
                <ele>86.0</ele>
                <time>2020-08-30T16:01:41.000Z</time>
                <name>Trackpoint 9130</name>
            </trkpt>
            <trkpt lat="50.0056352" lon="8.281544">
                <ele>86.0</ele>
                <time>2020-08-30T16:01:48.000Z</time>
                <name>Trackpoint 9131</name>
            </trkpt>
            <trkpt lat="50.0056256" lon="8.2816384">
                <ele>86.0</ele>
                <time>2020-08-30T16:02:37.000Z</time>
                <name>Trackpoint 9132</name>
            </trkpt>
            <trkpt lat="50.0056928" lon="8.2817152">
                <ele>86.0</ele>
                <time>2020-08-30T16:03:46.000Z</time>
                <name>Trackpoint 9133</name>
            </trkpt>
            <trkpt lat="50.005744" lon="8.2818368">
                <ele>86.0</ele>
                <time>2020-08-30T16:03:49.000Z</time>
                <name>Trackpoint 9134</name>
            </trkpt>
            <trkpt lat="50.005792" lon="8.2819408">
                <ele>86.0</ele>
                <time>2020-08-30T16:03:51.000Z</time>
                <name>Trackpoint 9135</name>
            </trkpt>
            <trkpt lat="50.005824" lon="8.28206">
                <ele>86.0</ele>
                <time>2020-08-30T16:03:53.000Z</time>
                <name>Trackpoint 9136</name>
            </trkpt>
            <trkpt lat="50.0058784" lon="8.2821664">
                <ele>86.0</ele>
                <time>2020-08-30T16:03:55.000Z</time>
                <name>Trackpoint 9137</name>
            </trkpt>
            <trkpt lat="50.0059456" lon="8.2822568">
                <ele>86.0</ele>
                <time>2020-08-30T16:03:57.000Z</time>
                <name>Trackpoint 9138</name>
            </trkpt>
            <trkpt lat="50.0059808" lon="8.2823616">
                <ele>86.0</ele>
                <time>2020-08-30T16:03:59.000Z</time>
                <name>Trackpoint 9139</name>
            </trkpt>
            <trkpt lat="50.0059968" lon="8.2824552">
                <ele>87.0</ele>
                <time>2020-08-30T16:04:01.000Z</time>
                <name>Trackpoint 9140</name>
            </trkpt>
            <trkpt lat="50.0060288" lon="8.28254">
                <ele>87.0</ele>
                <time>2020-08-30T16:04:06.000Z</time>
                <name>Trackpoint 9141</name>
            </trkpt>
            <trkpt lat="50.006112" lon="8.2824872">
                <ele>87.0</ele>
                <time>2020-08-30T16:04:11.000Z</time>
                <name>Trackpoint 9142</name>
            </trkpt>
            <trkpt lat="50.006192" lon="8.2824232">
                <ele>87.0</ele>
                <time>2020-08-30T16:04:14.000Z</time>
                <name>Trackpoint 9143</name>
            </trkpt>
            <trkpt lat="50.006272" lon="8.2823536">
                <ele>87.0</ele>
                <time>2020-08-30T16:04:17.000Z</time>
                <name>Trackpoint 9144</name>
            </trkpt>
            <trkpt lat="50.0063712" lon="8.2822904">
                <ele>87.0</ele>
                <time>2020-08-30T16:04:20.000Z</time>
                <name>Trackpoint 9145</name>
            </trkpt>
            <trkpt lat="50.0064576" lon="8.28224">
                <ele>88.0</ele>
                <time>2020-08-30T16:04:23.000Z</time>
                <name>Trackpoint 9146</name>
            </trkpt>
            <trkpt lat="50.006528" lon="8.2821304">
                <ele>88.0</ele>
                <time>2020-08-30T16:04:26.000Z</time>
                <name>Trackpoint 9147</name>
            </trkpt>
            <trkpt lat="50.006592" lon="8.2820432">
                <ele>91.0</ele>
                <time>2020-08-30T16:04:30.000Z</time>
                <name>Trackpoint 9148</name>
            </trkpt>
            <trkpt lat="50.00664" lon="8.2819584">
                <ele>93.0</ele>
                <time>2020-08-30T16:05:08.000Z</time>
                <name>Trackpoint 9149</name>
            </trkpt>
            <trkpt lat="50.0067488" lon="8.2818896">
                <ele>92.0</ele>
                <time>2020-08-30T16:05:13.000Z</time>
                <name>Trackpoint 9150</name>
            </trkpt>
            <trkpt lat="50.0068384" lon="8.2818248">
                <ele>92.0</ele>
                <time>2020-08-30T16:05:16.000Z</time>
                <name>Trackpoint 9151</name>
            </trkpt>
            <trkpt lat="50.0069088" lon="8.2817432">
                <ele>92.0</ele>
                <time>2020-08-30T16:05:18.000Z</time>
                <name>Trackpoint 9152</name>
            </trkpt>
            <trkpt lat="50.006992" lon="8.2816712">
                <ele>92.0</ele>
                <time>2020-08-30T16:05:20.000Z</time>
                <name>Trackpoint 9153</name>
            </trkpt>
            <trkpt lat="50.0070752" lon="8.2815848">
                <ele>92.0</ele>
                <time>2020-08-30T16:05:22.000Z</time>
                <name>Trackpoint 9154</name>
            </trkpt>
            <trkpt lat="50.0071488" lon="8.2814968">
                <ele>92.0</ele>
                <time>2020-08-30T16:05:24.000Z</time>
                <name>Trackpoint 9155</name>
            </trkpt>
            <trkpt lat="50.0072352" lon="8.2813984">
                <ele>92.0</ele>
                <time>2020-08-30T16:05:26.000Z</time>
                <name>Trackpoint 9156</name>
            </trkpt>
            <trkpt lat="50.0073088" lon="8.2813056">
                <ele>92.0</ele>
                <time>2020-08-30T16:05:28.000Z</time>
                <name>Trackpoint 9157</name>
            </trkpt>
            <trkpt lat="50.0073824" lon="8.2812216">
                <ele>92.0</ele>
                <time>2020-08-30T16:05:30.000Z</time>
                <name>Trackpoint 9158</name>
            </trkpt>
            <trkpt lat="50.0074624" lon="8.2811232">
                <ele>91.0</ele>
                <time>2020-08-30T16:05:32.000Z</time>
                <name>Trackpoint 9159</name>
            </trkpt>
            <trkpt lat="50.0075392" lon="8.2810448">
                <ele>91.0</ele>
                <time>2020-08-30T16:05:34.000Z</time>
                <name>Trackpoint 9160</name>
            </trkpt>
            <trkpt lat="50.0076096" lon="8.2809688">
                <ele>92.0</ele>
                <time>2020-08-30T16:05:36.000Z</time>
                <name>Trackpoint 9161</name>
            </trkpt>
            <trkpt lat="50.0076736" lon="8.2808888">
                <ele>91.0</ele>
                <time>2020-08-30T16:05:38.000Z</time>
                <name>Trackpoint 9162</name>
            </trkpt>
            <trkpt lat="50.0077376" lon="8.2808152">
                <ele>91.0</ele>
                <time>2020-08-30T16:05:40.000Z</time>
                <name>Trackpoint 9163</name>
            </trkpt>
            <trkpt lat="50.0078048" lon="8.2807528">
                <ele>91.0</ele>
                <time>2020-08-30T16:05:42.000Z</time>
                <name>Trackpoint 9164</name>
            </trkpt>
            <trkpt lat="50.0078912" lon="8.2806832">
                <ele>91.0</ele>
                <time>2020-08-30T16:05:45.000Z</time>
                <name>Trackpoint 9165</name>
            </trkpt>
            <trkpt lat="50.0079616" lon="8.2805968">
                <ele>92.0</ele>
                <time>2020-08-30T16:05:49.000Z</time>
                <name>Trackpoint 9166</name>
            </trkpt>
            <trkpt lat="50.0079904" lon="8.2804872">
                <ele>92.0</ele>
                <time>2020-08-30T16:05:53.000Z</time>
                <name>Trackpoint 9167</name>
            </trkpt>
            <trkpt lat="50.0079648" lon="8.2803968">
                <ele>92.0</ele>
                <time>2020-08-30T16:05:55.000Z</time>
                <name>Trackpoint 9168</name>
            </trkpt>
            <trkpt lat="50.0079392" lon="8.2803072">
                <ele>92.0</ele>
                <time>2020-08-30T16:05:57.000Z</time>
                <name>Trackpoint 9169</name>
            </trkpt>
            <trkpt lat="50.0079072" lon="8.2802032">
                <ele>92.0</ele>
                <time>2020-08-30T16:05:59.000Z</time>
                <name>Trackpoint 9170</name>
            </trkpt>
            <trkpt lat="50.0078784" lon="8.2801152">
                <ele>92.0</ele>
                <time>2020-08-30T16:06:01.000Z</time>
                <name>Trackpoint 9171</name>
            </trkpt>
            <trkpt lat="50.0078464" lon="8.2800304">
                <ele>92.0</ele>
                <time>2020-08-30T16:06:03.000Z</time>
                <name>Trackpoint 9172</name>
            </trkpt>
            <trkpt lat="50.0078208" lon="8.2799304">
                <ele>92.0</ele>
                <time>2020-08-30T16:06:05.000Z</time>
                <name>Trackpoint 9173</name>
            </trkpt>
            <trkpt lat="50.007792" lon="8.2798408">
                <ele>93.0</ele>
                <time>2020-08-30T16:06:07.000Z</time>
                <name>Trackpoint 9174</name>
            </trkpt>
            <trkpt lat="50.00776" lon="8.279748">
                <ele>93.0</ele>
                <time>2020-08-30T16:06:09.000Z</time>
                <name>Trackpoint 9175</name>
            </trkpt>
            <trkpt lat="50.0077216" lon="8.2796552">
                <ele>94.0</ele>
                <time>2020-08-30T16:06:11.000Z</time>
                <name>Trackpoint 9176</name>
            </trkpt>
            <trkpt lat="50.0076864" lon="8.2795664">
                <ele>95.0</ele>
                <time>2020-08-30T16:06:13.000Z</time>
                <name>Trackpoint 9177</name>
            </trkpt>
            <trkpt lat="50.0076512" lon="8.2794784">
                <ele>95.0</ele>
                <time>2020-08-30T16:06:15.000Z</time>
                <name>Trackpoint 9178</name>
            </trkpt>
            <trkpt lat="50.0076224" lon="8.2793904">
                <ele>95.0</ele>
                <time>2020-08-30T16:06:17.000Z</time>
                <name>Trackpoint 9179</name>
            </trkpt>
            <trkpt lat="50.007584" lon="8.2793">
                <ele>95.0</ele>
                <time>2020-08-30T16:06:19.000Z</time>
                <name>Trackpoint 9180</name>
            </trkpt>
            <trkpt lat="50.0075456" lon="8.2792152">
                <ele>95.0</ele>
                <time>2020-08-30T16:06:21.000Z</time>
                <name>Trackpoint 9181</name>
            </trkpt>
            <trkpt lat="50.007504" lon="8.279132">
                <ele>95.0</ele>
                <time>2020-08-30T16:06:23.000Z</time>
                <name>Trackpoint 9182</name>
            </trkpt>
            <trkpt lat="50.0074688" lon="8.2790448">
                <ele>95.0</ele>
                <time>2020-08-30T16:06:25.000Z</time>
                <name>Trackpoint 9183</name>
            </trkpt>
            <trkpt lat="50.0074336" lon="8.27896">
                <ele>95.0</ele>
                <time>2020-08-30T16:06:27.000Z</time>
                <name>Trackpoint 9184</name>
            </trkpt>
            <trkpt lat="50.0074016" lon="8.2788712">
                <ele>95.0</ele>
                <time>2020-08-30T16:06:29.000Z</time>
                <name>Trackpoint 9185</name>
            </trkpt>
            <trkpt lat="50.0073696" lon="8.2787864">
                <ele>95.0</ele>
                <time>2020-08-30T16:06:31.000Z</time>
                <name>Trackpoint 9186</name>
            </trkpt>
            <trkpt lat="50.0073408" lon="8.2786976">
                <ele>95.0</ele>
                <time>2020-08-30T16:06:33.000Z</time>
                <name>Trackpoint 9187</name>
            </trkpt>
            <trkpt lat="50.0073056" lon="8.278608">
                <ele>95.0</ele>
                <time>2020-08-30T16:06:35.000Z</time>
                <name>Trackpoint 9188</name>
            </trkpt>
            <trkpt lat="50.007264" lon="8.27852">
                <ele>96.0</ele>
                <time>2020-08-30T16:06:37.000Z</time>
                <name>Trackpoint 9189</name>
            </trkpt>
            <trkpt lat="50.0072256" lon="8.278432">
                <ele>97.0</ele>
                <time>2020-08-30T16:06:39.000Z</time>
                <name>Trackpoint 9190</name>
            </trkpt>
            <trkpt lat="50.0071904" lon="8.27834">
                <ele>97.0</ele>
                <time>2020-08-30T16:06:41.000Z</time>
                <name>Trackpoint 9191</name>
            </trkpt>
            <trkpt lat="50.0071456" lon="8.278232">
                <ele>98.0</ele>
                <time>2020-08-30T16:06:44.000Z</time>
                <name>Trackpoint 9192</name>
            </trkpt>
            <trkpt lat="50.0070944" lon="8.27814">
                <ele>98.0</ele>
                <time>2020-08-30T16:06:47.000Z</time>
                <name>Trackpoint 9193</name>
            </trkpt>
            <trkpt lat="50.007056" lon="8.2780512">
                <ele>98.0</ele>
                <time>2020-08-30T16:06:50.000Z</time>
                <name>Trackpoint 9194</name>
            </trkpt>
            <trkpt lat="50.0070144" lon="8.277944">
                <ele>99.0</ele>
                <time>2020-08-30T16:07:59.000Z</time>
                <name>Trackpoint 9195</name>
            </trkpt>
            <trkpt lat="50.0069728" lon="8.2778432">
                <ele>99.0</ele>
                <time>2020-08-30T16:08:02.000Z</time>
                <name>Trackpoint 9196</name>
            </trkpt>
            <trkpt lat="50.0069376" lon="8.2777568">
                <ele>99.0</ele>
                <time>2020-08-30T16:08:04.000Z</time>
                <name>Trackpoint 9197</name>
            </trkpt>
            <trkpt lat="50.0069056" lon="8.2776584">
                <ele>99.0</ele>
                <time>2020-08-30T16:08:06.000Z</time>
                <name>Trackpoint 9198</name>
            </trkpt>
            <trkpt lat="50.0068672" lon="8.2775536">
                <ele>99.0</ele>
                <time>2020-08-30T16:08:08.000Z</time>
                <name>Trackpoint 9199</name>
            </trkpt>
            <trkpt lat="50.0068288" lon="8.2774512">
                <ele>99.0</ele>
                <time>2020-08-30T16:08:10.000Z</time>
                <name>Trackpoint 9200</name>
            </trkpt>
            <trkpt lat="50.0067904" lon="8.2773464">
                <ele>98.0</ele>
                <time>2020-08-30T16:08:12.000Z</time>
                <name>Trackpoint 9201</name>
            </trkpt>
            <trkpt lat="50.0067488" lon="8.2772312">
                <ele>100.0</ele>
                <time>2020-08-30T16:08:14.000Z</time>
                <name>Trackpoint 9202</name>
            </trkpt>
            <trkpt lat="50.0066976" lon="8.2771304">
                <ele>100.0</ele>
                <time>2020-08-30T16:08:16.000Z</time>
                <name>Trackpoint 9203</name>
            </trkpt>
            <trkpt lat="50.0066592" lon="8.2770416">
                <ele>99.0</ele>
                <time>2020-08-30T16:08:18.000Z</time>
                <name>Trackpoint 9204</name>
            </trkpt>
            <trkpt lat="50.0066112" lon="8.2769248">
                <ele>99.0</ele>
                <time>2020-08-30T16:08:21.000Z</time>
                <name>Trackpoint 9205</name>
            </trkpt>
            <trkpt lat="50.0065664" lon="8.2768448">
                <ele>100.0</ele>
                <time>2020-08-30T16:08:23.000Z</time>
                <name>Trackpoint 9206</name>
            </trkpt>
            <trkpt lat="50.0065344" lon="8.27676">
                <ele>100.0</ele>
                <time>2020-08-30T16:08:25.000Z</time>
                <name>Trackpoint 9207</name>
            </trkpt>
            <trkpt lat="50.0064768" lon="8.2766512">
                <ele>100.0</ele>
                <time>2020-08-30T16:08:27.000Z</time>
                <name>Trackpoint 9208</name>
            </trkpt>
            <trkpt lat="50.0064384" lon="8.2765416">
                <ele>100.0</ele>
                <time>2020-08-30T16:08:29.000Z</time>
                <name>Trackpoint 9209</name>
            </trkpt>
            <trkpt lat="50.0064064" lon="8.276432">
                <ele>99.0</ele>
                <time>2020-08-30T16:08:31.000Z</time>
                <name>Trackpoint 9210</name>
            </trkpt>
            <trkpt lat="50.006368" lon="8.2763168">
                <ele>97.0</ele>
                <time>2020-08-30T16:08:33.000Z</time>
                <name>Trackpoint 9211</name>
            </trkpt>
            <trkpt lat="50.00632" lon="8.2761968">
                <ele>96.0</ele>
                <time>2020-08-30T16:08:35.000Z</time>
                <name>Trackpoint 9212</name>
            </trkpt>
            <trkpt lat="50.006272" lon="8.2760752">
                <ele>96.0</ele>
                <time>2020-08-30T16:08:37.000Z</time>
                <name>Trackpoint 9213</name>
            </trkpt>
            <trkpt lat="50.0062176" lon="8.2759712">
                <ele>97.0</ele>
                <time>2020-08-30T16:08:39.000Z</time>
                <name>Trackpoint 9214</name>
            </trkpt>
            <trkpt lat="50.006176" lon="8.2758664">
                <ele>98.0</ele>
                <time>2020-08-30T16:08:41.000Z</time>
                <name>Trackpoint 9215</name>
            </trkpt>
            <trkpt lat="50.0061344" lon="8.2757616">
                <ele>98.0</ele>
                <time>2020-08-30T16:08:43.000Z</time>
                <name>Trackpoint 9216</name>
            </trkpt>
            <trkpt lat="50.0060896" lon="8.2756632">
                <ele>98.0</ele>
                <time>2020-08-30T16:08:45.000Z</time>
                <name>Trackpoint 9217</name>
            </trkpt>
            <trkpt lat="50.0060416" lon="8.2755584">
                <ele>98.0</ele>
                <time>2020-08-30T16:08:47.000Z</time>
                <name>Trackpoint 9218</name>
            </trkpt>
            <trkpt lat="50.006" lon="8.2754496">
                <ele>98.0</ele>
                <time>2020-08-30T16:08:49.000Z</time>
                <name>Trackpoint 9219</name>
            </trkpt>
            <trkpt lat="50.0059584" lon="8.27534">
                <ele>98.0</ele>
                <time>2020-08-30T16:08:51.000Z</time>
                <name>Trackpoint 9220</name>
            </trkpt>
            <trkpt lat="50.0059104" lon="8.2752312">
                <ele>98.0</ele>
                <time>2020-08-30T16:08:53.000Z</time>
                <name>Trackpoint 9221</name>
            </trkpt>
            <trkpt lat="50.0058624" lon="8.2751304">
                <ele>98.0</ele>
                <time>2020-08-30T16:08:55.000Z</time>
                <name>Trackpoint 9222</name>
            </trkpt>
            <trkpt lat="50.0058208" lon="8.2750304">
                <ele>98.0</ele>
                <time>2020-08-30T16:08:57.000Z</time>
                <name>Trackpoint 9223</name>
            </trkpt>
            <trkpt lat="50.0057824" lon="8.274932">
                <ele>99.0</ele>
                <time>2020-08-30T16:08:59.000Z</time>
                <name>Trackpoint 9224</name>
            </trkpt>
            <trkpt lat="50.0057312" lon="8.274828">
                <ele>99.0</ele>
                <time>2020-08-30T16:09:01.000Z</time>
                <name>Trackpoint 9225</name>
            </trkpt>
            <trkpt lat="50.0056832" lon="8.27472">
                <ele>99.0</ele>
                <time>2020-08-30T16:09:03.000Z</time>
                <name>Trackpoint 9226</name>
            </trkpt>
            <trkpt lat="50.0056448" lon="8.2746136">
                <ele>99.0</ele>
                <time>2020-08-30T16:09:05.000Z</time>
                <name>Trackpoint 9227</name>
            </trkpt>
            <trkpt lat="50.0056064" lon="8.274504">
                <ele>98.0</ele>
                <time>2020-08-30T16:09:07.000Z</time>
                <name>Trackpoint 9228</name>
            </trkpt>
            <trkpt lat="50.0055648" lon="8.2744">
                <ele>98.0</ele>
                <time>2020-08-30T16:09:09.000Z</time>
                <name>Trackpoint 9229</name>
            </trkpt>
            <trkpt lat="50.0055232" lon="8.2743">
                <ele>97.0</ele>
                <time>2020-08-30T16:09:11.000Z</time>
                <name>Trackpoint 9230</name>
            </trkpt>
            <trkpt lat="50.0054816" lon="8.2741984">
                <ele>97.0</ele>
                <time>2020-08-30T16:09:13.000Z</time>
                <name>Trackpoint 9231</name>
            </trkpt>
            <trkpt lat="50.0054368" lon="8.2740936">
                <ele>97.0</ele>
                <time>2020-08-30T16:09:15.000Z</time>
                <name>Trackpoint 9232</name>
            </trkpt>
            <trkpt lat="50.0053888" lon="8.2739872">
                <ele>97.0</ele>
                <time>2020-08-30T16:09:17.000Z</time>
                <name>Trackpoint 9233</name>
            </trkpt>
            <trkpt lat="50.0053472" lon="8.273876">
                <ele>97.0</ele>
                <time>2020-08-30T16:09:19.000Z</time>
                <name>Trackpoint 9234</name>
            </trkpt>
            <trkpt lat="50.0053088" lon="8.2737728">
                <ele>96.0</ele>
                <time>2020-08-30T16:09:21.000Z</time>
                <name>Trackpoint 9235</name>
            </trkpt>
            <trkpt lat="50.0052704" lon="8.2736768">
                <ele>96.0</ele>
                <time>2020-08-30T16:09:23.000Z</time>
                <name>Trackpoint 9236</name>
            </trkpt>
            <trkpt lat="50.0052352" lon="8.2735832">
                <ele>95.0</ele>
                <time>2020-08-30T16:09:25.000Z</time>
                <name>Trackpoint 9237</name>
            </trkpt>
            <trkpt lat="50.005184" lon="8.2734696">
                <ele>95.0</ele>
                <time>2020-08-30T16:09:28.000Z</time>
                <name>Trackpoint 9238</name>
            </trkpt>
            <trkpt lat="50.00512" lon="8.2733736">
                <ele>95.0</ele>
                <time>2020-08-30T16:09:31.000Z</time>
                <name>Trackpoint 9239</name>
            </trkpt>
            <trkpt lat="50.0050272" lon="8.273312">
                <ele>95.0</ele>
                <time>2020-08-30T16:09:34.000Z</time>
                <name>Trackpoint 9240</name>
            </trkpt>
            <trkpt lat="50.0049184" lon="8.2733336">
                <ele>94.0</ele>
                <time>2020-08-30T16:09:38.000Z</time>
                <name>Trackpoint 9241</name>
            </trkpt>
            <trkpt lat="50.0048448" lon="8.2734096">
                <ele>94.0</ele>
                <time>2020-08-30T16:13:21.000Z</time>
                <name>Trackpoint 9242</name>
            </trkpt>
            <trkpt lat="50.004752" lon="8.2734736">
                <ele>94.0</ele>
                <time>2020-08-30T16:13:25.000Z</time>
                <name>Trackpoint 9243</name>
            </trkpt>
            <trkpt lat="50.0046688" lon="8.2735456">
                <ele>94.0</ele>
                <time>2020-08-30T16:13:28.000Z</time>
                <name>Trackpoint 9244</name>
            </trkpt>
            <trkpt lat="50.0045792" lon="8.273632">
                <ele>93.0</ele>
                <time>2020-08-30T16:13:31.000Z</time>
                <name>Trackpoint 9245</name>
            </trkpt>
            <trkpt lat="50.0045088" lon="8.2736952">
                <ele>93.0</ele>
                <time>2020-08-30T16:13:33.000Z</time>
                <name>Trackpoint 9246</name>
            </trkpt>
            <trkpt lat="50.0044416" lon="8.27376">
                <ele>93.0</ele>
                <time>2020-08-30T16:13:35.000Z</time>
                <name>Trackpoint 9247</name>
            </trkpt>
            <trkpt lat="50.004368" lon="8.2738168">
                <ele>93.0</ele>
                <time>2020-08-30T16:13:37.000Z</time>
                <name>Trackpoint 9248</name>
            </trkpt>
            <trkpt lat="50.004288" lon="8.273896">
                <ele>93.0</ele>
                <time>2020-08-30T16:13:39.000Z</time>
                <name>Trackpoint 9249</name>
            </trkpt>
            <trkpt lat="50.0042048" lon="8.2739832">
                <ele>92.0</ele>
                <time>2020-08-30T16:13:41.000Z</time>
                <name>Trackpoint 9250</name>
            </trkpt>
            <trkpt lat="50.0041152" lon="8.274068">
                <ele>92.0</ele>
                <time>2020-08-30T16:13:43.000Z</time>
                <name>Trackpoint 9251</name>
            </trkpt>
            <trkpt lat="50.0040192" lon="8.274172">
                <ele>92.0</ele>
                <time>2020-08-30T16:13:45.000Z</time>
                <name>Trackpoint 9252</name>
            </trkpt>
            <trkpt lat="50.00392" lon="8.2742704">
                <ele>91.0</ele>
                <time>2020-08-30T16:13:47.000Z</time>
                <name>Trackpoint 9253</name>
            </trkpt>
            <trkpt lat="50.0038304" lon="8.2743752">
                <ele>90.0</ele>
                <time>2020-08-30T16:13:49.000Z</time>
                <name>Trackpoint 9254</name>
            </trkpt>
            <trkpt lat="50.0037344" lon="8.2744768">
                <ele>90.0</ele>
                <time>2020-08-30T16:13:51.000Z</time>
                <name>Trackpoint 9255</name>
            </trkpt>
            <trkpt lat="50.0036384" lon="8.2745648">
                <ele>90.0</ele>
                <time>2020-08-30T16:13:53.000Z</time>
                <name>Trackpoint 9256</name>
            </trkpt>
            <trkpt lat="50.0035392" lon="8.2746688">
                <ele>90.0</ele>
                <time>2020-08-30T16:13:55.000Z</time>
                <name>Trackpoint 9257</name>
            </trkpt>
            <trkpt lat="50.0034592" lon="8.2747184">
                <ele>90.0</ele>
                <time>2020-08-30T16:13:57.000Z</time>
                <name>Trackpoint 9258</name>
            </trkpt>
            <trkpt lat="50.00336" lon="8.2747368">
                <ele>90.0</ele>
                <time>2020-08-30T16:14:00.000Z</time>
                <name>Trackpoint 9259</name>
            </trkpt>
        </trkseg>
    </trk>
</gpx>
